<?xml version="1.0" encoding="UTF-8" standalone="no" ?>
<gpx xmlns="http://www.topografix.com/GPX/1/1" xmlns:xsi="http://www.w3.org/2001/XMLSchema-instance" xsi:schemaLocation="http://www.topografix.com/GPX/1/1 http://www.topografix.com/GPX/1/1/gpx.xsd" version="1.1" creator="VisuGPX - https://www.visugpx.com">
  <metadata>
    <name>Roquefort - Sentier des Échelles, Cirque de Tournemire, Roucangel (rocher pédonculé)</name>
    <desc><![CDATA[#enregistré #asptt-jeudi]]></desc>
  </metadata>
  <wpt lat="43.99136" lon="3.00041">
    <ele>786.1</ele>
    <name><![CDATA[Rocher pédonculé]]></name>
  </wpt>
  <wpt lat="43.97722" lon="2.99026">
    <ele>547.2</ele>
    <name><![CDATA[Parking (très grand)]]></name>
  </wpt>
  <trk>
    <name><![CDATA[Trace 1777532534999]]></name>
    <extensions>
      <line xmlns="http://www.topografix.com/GPX/gpx_style/0/2">
        <color>0000FF</color>
        <opacity>1</opacity>
        <width>4</width>
      </line>
    </extensions>
    <trkseg>
      <trkpt lat="43.97724" lon="2.9903">
        <ele>614.8</ele>
        <time>2026-04-30T07:02:14.999Z</time>
      </trkpt>
      <trkpt lat="43.97725" lon="2.99028">
        <ele>614.6</ele>
        <time>2026-04-30T07:02:15.999Z</time>
      </trkpt>
      <trkpt lat="43.97725" lon="2.99027">
        <ele>614.7</ele>
        <time>2026-04-30T07:02:16.999Z</time>
      </trkpt>
      <trkpt lat="43.97726" lon="2.99025">
        <ele>614.8</ele>
        <time>2026-04-30T07:02:17.999Z</time>
      </trkpt>
      <trkpt lat="43.97727" lon="2.99024">
        <ele>614.9</ele>
        <time>2026-04-30T07:02:18.999Z</time>
      </trkpt>
      <trkpt lat="43.97727" lon="2.99023">
        <ele>615</ele>
        <time>2026-04-30T07:02:19.999Z</time>
      </trkpt>
      <trkpt lat="43.97728" lon="2.99023">
        <ele>615.1</ele>
        <time>2026-04-30T07:02:20.999Z</time>
      </trkpt>
      <trkpt lat="43.97728" lon="2.99021">
        <ele>615.2</ele>
        <time>2026-04-30T07:02:21.999Z</time>
      </trkpt>
      <trkpt lat="43.97728" lon="2.99019">
        <ele>615.1</ele>
        <time>2026-04-30T07:02:22.999Z</time>
      </trkpt>
      <trkpt lat="43.97729" lon="2.99018">
        <ele>615.5</ele>
        <time>2026-04-30T07:02:23.999Z</time>
      </trkpt>
      <trkpt lat="43.97729" lon="2.99017">
        <ele>615.6</ele>
        <time>2026-04-30T07:02:24.999Z</time>
      </trkpt>
      <trkpt lat="43.9773" lon="2.99015">
        <ele>615.7</ele>
        <time>2026-04-30T07:02:25.999Z</time>
      </trkpt>
      <trkpt lat="43.97731" lon="2.99014">
        <ele>615.4</ele>
        <time>2026-04-30T07:02:26.999Z</time>
      </trkpt>
      <trkpt lat="43.97732" lon="2.99012">
        <ele>615.1</ele>
        <time>2026-04-30T07:02:27.999Z</time>
      </trkpt>
      <trkpt lat="43.97732" lon="2.99011">
        <ele>614.8</ele>
        <time>2026-04-30T07:02:28.999Z</time>
      </trkpt>
      <trkpt lat="43.97732" lon="2.99011">
        <ele>614.4</ele>
        <time>2026-04-30T07:02:29.999Z</time>
      </trkpt>
      <trkpt lat="43.97732" lon="2.9901">
        <ele>614.4</ele>
        <time>2026-04-30T07:02:30.999Z</time>
      </trkpt>
      <trkpt lat="43.97732" lon="2.99009">
        <ele>614.9</ele>
        <time>2026-04-30T07:02:31.999Z</time>
      </trkpt>
      <trkpt lat="43.97733" lon="2.99008">
        <ele>615.3</ele>
        <time>2026-04-30T07:02:32.999Z</time>
      </trkpt>
      <trkpt lat="43.97732" lon="2.99005">
        <ele>615.3</ele>
        <time>2026-04-30T07:02:33.999Z</time>
      </trkpt>
      <trkpt lat="43.97732" lon="2.99003">
        <ele>615.4</ele>
        <time>2026-04-30T07:02:34.999Z</time>
      </trkpt>
      <trkpt lat="43.97732" lon="2.99001">
        <ele>615.4</ele>
        <time>2026-04-30T07:02:35.999Z</time>
      </trkpt>
      <trkpt lat="43.97732" lon="2.98999">
        <ele>615.4</ele>
        <time>2026-04-30T07:02:36.999Z</time>
      </trkpt>
      <trkpt lat="43.97732" lon="2.98998">
        <ele>615</ele>
        <time>2026-04-30T07:02:37.999Z</time>
      </trkpt>
      <trkpt lat="43.97732" lon="2.98997">
        <ele>615.1</ele>
        <time>2026-04-30T07:02:38.999Z</time>
      </trkpt>
      <trkpt lat="43.97732" lon="2.98995">
        <ele>615.2</ele>
        <time>2026-04-30T07:02:39.999Z</time>
      </trkpt>
      <trkpt lat="43.97732" lon="2.98994">
        <ele>615.1</ele>
        <time>2026-04-30T07:02:40.999Z</time>
      </trkpt>
      <trkpt lat="43.97732" lon="2.98993">
        <ele>615.4</ele>
        <time>2026-04-30T07:02:41.999Z</time>
      </trkpt>
      <trkpt lat="43.97732" lon="2.98991">
        <ele>615.5</ele>
        <time>2026-04-30T07:02:42.999Z</time>
      </trkpt>
      <trkpt lat="43.97732" lon="2.9899">
        <ele>615.8</ele>
        <time>2026-04-30T07:02:43.999Z</time>
      </trkpt>
      <trkpt lat="43.97732" lon="2.98989">
        <ele>615.5</ele>
        <time>2026-04-30T07:02:44.999Z</time>
      </trkpt>
      <trkpt lat="43.97733" lon="2.98988">
        <ele>615.4</ele>
        <time>2026-04-30T07:02:45.999Z</time>
      </trkpt>
      <trkpt lat="43.97733" lon="2.98986">
        <ele>615.5</ele>
        <time>2026-04-30T07:02:46.999Z</time>
      </trkpt>
      <trkpt lat="43.97733" lon="2.98982">
        <ele>614</ele>
        <time>2026-04-30T07:02:48.999Z</time>
      </trkpt>
      <trkpt lat="43.97733" lon="2.98979">
        <ele>615.3</ele>
        <time>2026-04-30T07:02:49.999Z</time>
      </trkpt>
      <trkpt lat="43.97733" lon="2.98979">
        <ele>616.2</ele>
        <time>2026-04-30T07:02:50.999Z</time>
      </trkpt>
      <trkpt lat="43.97733" lon="2.98978">
        <ele>616.2</ele>
        <time>2026-04-30T07:02:51.999Z</time>
      </trkpt>
      <trkpt lat="43.97733" lon="2.98977">
        <ele>616.1</ele>
        <time>2026-04-30T07:02:52.999Z</time>
      </trkpt>
      <trkpt lat="43.97733" lon="2.98976">
        <ele>615.7</ele>
        <time>2026-04-30T07:02:53.999Z</time>
      </trkpt>
      <trkpt lat="43.97732" lon="2.98975">
        <ele>615.6</ele>
        <time>2026-04-30T07:02:54.999Z</time>
      </trkpt>
      <trkpt lat="43.97732" lon="2.98973">
        <ele>615.6</ele>
        <time>2026-04-30T07:02:55.999Z</time>
      </trkpt>
      <trkpt lat="43.97731" lon="2.98971">
        <ele>615.5</ele>
        <time>2026-04-30T07:02:56.999Z</time>
      </trkpt>
      <trkpt lat="43.97731" lon="2.9897">
        <ele>615.5</ele>
        <time>2026-04-30T07:02:57.999Z</time>
      </trkpt>
      <trkpt lat="43.97731" lon="2.98969">
        <ele>615.5</ele>
        <time>2026-04-30T07:02:58.999Z</time>
      </trkpt>
      <trkpt lat="43.9773" lon="2.98968">
        <ele>615.3</ele>
        <time>2026-04-30T07:02:59.999Z</time>
      </trkpt>
      <trkpt lat="43.9773" lon="2.98966">
        <ele>615.3</ele>
        <time>2026-04-30T07:03:00.999Z</time>
      </trkpt>
      <trkpt lat="43.97729" lon="2.98965">
        <ele>615.4</ele>
        <time>2026-04-30T07:03:01.999Z</time>
      </trkpt>
      <trkpt lat="43.97729" lon="2.98964">
        <ele>615.5</ele>
        <time>2026-04-30T07:03:02.999Z</time>
      </trkpt>
      <trkpt lat="43.97729" lon="2.98963">
        <ele>615.5</ele>
        <time>2026-04-30T07:03:03.999Z</time>
      </trkpt>
      <trkpt lat="43.97728" lon="2.98962">
        <ele>615.5</ele>
        <time>2026-04-30T07:03:04.999Z</time>
      </trkpt>
      <trkpt lat="43.97728" lon="2.98961">
        <ele>615.7</ele>
        <time>2026-04-30T07:03:05.999Z</time>
      </trkpt>
      <trkpt lat="43.97727" lon="2.9896">
        <ele>615.7</ele>
        <time>2026-04-30T07:03:06.999Z</time>
      </trkpt>
      <trkpt lat="43.97727" lon="2.98959">
        <ele>616.1</ele>
        <time>2026-04-30T07:03:07.999Z</time>
      </trkpt>
      <trkpt lat="43.97727" lon="2.98958">
        <ele>616.1</ele>
        <time>2026-04-30T07:03:08.999Z</time>
      </trkpt>
      <trkpt lat="43.97726" lon="2.98956">
        <ele>616.1</ele>
        <time>2026-04-30T07:03:09.999Z</time>
      </trkpt>
      <trkpt lat="43.97726" lon="2.98955">
        <ele>616.2</ele>
        <time>2026-04-30T07:03:10.999Z</time>
      </trkpt>
      <trkpt lat="43.97725" lon="2.98954">
        <ele>616.1</ele>
        <time>2026-04-30T07:03:11.999Z</time>
      </trkpt>
      <trkpt lat="43.97724" lon="2.98953">
        <ele>615.7</ele>
        <time>2026-04-30T07:03:12.999Z</time>
      </trkpt>
      <trkpt lat="43.97724" lon="2.98953">
        <ele>615.2</ele>
        <time>2026-04-30T07:03:13.999Z</time>
      </trkpt>
      <trkpt lat="43.97724" lon="2.98952">
        <ele>615</ele>
        <time>2026-04-30T07:03:14.999Z</time>
      </trkpt>
      <trkpt lat="43.97723" lon="2.9895">
        <ele>614.9</ele>
        <time>2026-04-30T07:03:15.999Z</time>
      </trkpt>
      <trkpt lat="43.97723" lon="2.98949">
        <ele>614.9</ele>
        <time>2026-04-30T07:03:16.999Z</time>
      </trkpt>
      <trkpt lat="43.97722" lon="2.98948">
        <ele>615.1</ele>
        <time>2026-04-30T07:03:17.999Z</time>
      </trkpt>
      <trkpt lat="43.97722" lon="2.98946">
        <ele>615.1</ele>
        <time>2026-04-30T07:03:18.999Z</time>
      </trkpt>
      <trkpt lat="43.97722" lon="2.98944">
        <ele>615.1</ele>
        <time>2026-04-30T07:03:19.999Z</time>
      </trkpt>
      <trkpt lat="43.97721" lon="2.98943">
        <ele>615</ele>
        <time>2026-04-30T07:03:20.999Z</time>
      </trkpt>
      <trkpt lat="43.97721" lon="2.98941">
        <ele>615.2</ele>
        <time>2026-04-30T07:03:21.999Z</time>
      </trkpt>
      <trkpt lat="43.97721" lon="2.9894">
        <ele>615.4</ele>
        <time>2026-04-30T07:03:22.999Z</time>
      </trkpt>
      <trkpt lat="43.97721" lon="2.98938">
        <ele>615.5</ele>
        <time>2026-04-30T07:03:23.999Z</time>
      </trkpt>
      <trkpt lat="43.97721" lon="2.98937">
        <ele>615.5</ele>
        <time>2026-04-30T07:03:24.999Z</time>
      </trkpt>
      <trkpt lat="43.97721" lon="2.98935">
        <ele>615.5</ele>
        <time>2026-04-30T07:03:25.999Z</time>
      </trkpt>
      <trkpt lat="43.9772" lon="2.98934">
        <ele>615.5</ele>
        <time>2026-04-30T07:03:26.999Z</time>
      </trkpt>
      <trkpt lat="43.9772" lon="2.98933">
        <ele>615.4</ele>
        <time>2026-04-30T07:03:27.999Z</time>
      </trkpt>
      <trkpt lat="43.9772" lon="2.98931">
        <ele>615.2</ele>
        <time>2026-04-30T07:03:28.999Z</time>
      </trkpt>
      <trkpt lat="43.9772" lon="2.98929">
        <ele>614.9</ele>
        <time>2026-04-30T07:03:29.999Z</time>
      </trkpt>
      <trkpt lat="43.9772" lon="2.98928">
        <ele>614.7</ele>
        <time>2026-04-30T07:03:30.999Z</time>
      </trkpt>
      <trkpt lat="43.97719" lon="2.98927">
        <ele>614.5</ele>
        <time>2026-04-30T07:03:31.999Z</time>
      </trkpt>
      <trkpt lat="43.97718" lon="2.98927">
        <ele>614.3</ele>
        <time>2026-04-30T07:03:32.999Z</time>
      </trkpt>
      <trkpt lat="43.97718" lon="2.98926">
        <ele>614.1</ele>
        <time>2026-04-30T07:03:33.999Z</time>
      </trkpt>
      <trkpt lat="43.97718" lon="2.98926">
        <ele>614</ele>
        <time>2026-04-30T07:03:34.999Z</time>
      </trkpt>
      <trkpt lat="43.97718" lon="2.98925">
        <ele>613.9</ele>
        <time>2026-04-30T07:03:35.999Z</time>
      </trkpt>
      <trkpt lat="43.97718" lon="2.98924">
        <ele>613.9</ele>
        <time>2026-04-30T07:03:36.999Z</time>
      </trkpt>
      <trkpt lat="43.97718" lon="2.98923">
        <ele>613.9</ele>
        <time>2026-04-30T07:03:37.999Z</time>
      </trkpt>
      <trkpt lat="43.97717" lon="2.98922">
        <ele>613.7</ele>
        <time>2026-04-30T07:03:38.999Z</time>
      </trkpt>
      <trkpt lat="43.97717" lon="2.98921">
        <ele>613.6</ele>
        <time>2026-04-30T07:03:39.999Z</time>
      </trkpt>
      <trkpt lat="43.97716" lon="2.98918">
        <ele>613.8</ele>
        <time>2026-04-30T07:03:40.999Z</time>
      </trkpt>
      <trkpt lat="43.97716" lon="2.98915">
        <ele>614</ele>
        <time>2026-04-30T07:03:41.999Z</time>
      </trkpt>
      <trkpt lat="43.97716" lon="2.98913">
        <ele>614.2</ele>
        <time>2026-04-30T07:03:42.999Z</time>
      </trkpt>
      <trkpt lat="43.97716" lon="2.98911">
        <ele>614.2</ele>
        <time>2026-04-30T07:03:43.999Z</time>
      </trkpt>
      <trkpt lat="43.97716" lon="2.98909">
        <ele>614.2</ele>
        <time>2026-04-30T07:03:44.999Z</time>
      </trkpt>
      <trkpt lat="43.97715" lon="2.98908">
        <ele>614</ele>
        <time>2026-04-30T07:03:45.999Z</time>
      </trkpt>
      <trkpt lat="43.97715" lon="2.98906">
        <ele>613.3</ele>
        <time>2026-04-30T07:03:46.999Z</time>
      </trkpt>
      <trkpt lat="43.97715" lon="2.98905">
        <ele>613.1</ele>
        <time>2026-04-30T07:03:47.999Z</time>
      </trkpt>
      <trkpt lat="43.97715" lon="2.98904">
        <ele>613</ele>
        <time>2026-04-30T07:03:48.999Z</time>
      </trkpt>
      <trkpt lat="43.97714" lon="2.98903">
        <ele>612.8</ele>
        <time>2026-04-30T07:03:49.999Z</time>
      </trkpt>
      <trkpt lat="43.97714" lon="2.98902">
        <ele>612.5</ele>
        <time>2026-04-30T07:03:50.999Z</time>
      </trkpt>
      <trkpt lat="43.97713" lon="2.98902">
        <ele>612.5</ele>
        <time>2026-04-30T07:03:51.999Z</time>
      </trkpt>
      <trkpt lat="43.97712" lon="2.98902">
        <ele>612.2</ele>
        <time>2026-04-30T07:03:52.999Z</time>
      </trkpt>
      <trkpt lat="43.97711" lon="2.98901">
        <ele>612</ele>
        <time>2026-04-30T07:03:53.999Z</time>
      </trkpt>
      <trkpt lat="43.97711" lon="2.989">
        <ele>611.9</ele>
        <time>2026-04-30T07:03:54.999Z</time>
      </trkpt>
      <trkpt lat="43.9771" lon="2.98898">
        <ele>611.5</ele>
        <time>2026-04-30T07:03:55.999Z</time>
      </trkpt>
      <trkpt lat="43.97709" lon="2.98897">
        <ele>611.6</ele>
        <time>2026-04-30T07:03:56.999Z</time>
      </trkpt>
      <trkpt lat="43.97708" lon="2.98895">
        <ele>611.7</ele>
        <time>2026-04-30T07:03:57.999Z</time>
      </trkpt>
      <trkpt lat="43.97708" lon="2.98894">
        <ele>611.9</ele>
        <time>2026-04-30T07:03:58.999Z</time>
      </trkpt>
      <trkpt lat="43.97707" lon="2.98893">
        <ele>611.6</ele>
        <time>2026-04-30T07:03:59.999Z</time>
      </trkpt>
      <trkpt lat="43.97706" lon="2.98892">
        <ele>611.4</ele>
        <time>2026-04-30T07:04:00.999Z</time>
      </trkpt>
      <trkpt lat="43.97705" lon="2.9889">
        <ele>610.8</ele>
        <time>2026-04-30T07:04:01.999Z</time>
      </trkpt>
      <trkpt lat="43.97704" lon="2.98888">
        <ele>610.4</ele>
        <time>2026-04-30T07:04:02.999Z</time>
      </trkpt>
      <trkpt lat="43.97704" lon="2.98887">
        <ele>610.2</ele>
        <time>2026-04-30T07:04:03.999Z</time>
      </trkpt>
      <trkpt lat="43.97703" lon="2.98885">
        <ele>610</ele>
        <time>2026-04-30T07:04:04.999Z</time>
      </trkpt>
      <trkpt lat="43.97702" lon="2.98884">
        <ele>610.2</ele>
        <time>2026-04-30T07:04:05.999Z</time>
      </trkpt>
      <trkpt lat="43.97702" lon="2.98883">
        <ele>610.4</ele>
        <time>2026-04-30T07:04:06.999Z</time>
      </trkpt>
      <trkpt lat="43.977" lon="2.98881">
        <ele>610.7</ele>
        <time>2026-04-30T07:04:07.999Z</time>
      </trkpt>
      <trkpt lat="43.97699" lon="2.9888">
        <ele>610.7</ele>
        <time>2026-04-30T07:04:08.999Z</time>
      </trkpt>
      <trkpt lat="43.97698" lon="2.98879">
        <ele>610.7</ele>
        <time>2026-04-30T07:04:09.999Z</time>
      </trkpt>
      <trkpt lat="43.97698" lon="2.98877">
        <ele>610.8</ele>
        <time>2026-04-30T07:04:10.999Z</time>
      </trkpt>
      <trkpt lat="43.97697" lon="2.98876">
        <ele>610.7</ele>
        <time>2026-04-30T07:04:11.999Z</time>
      </trkpt>
      <trkpt lat="43.97697" lon="2.98875">
        <ele>610.7</ele>
        <time>2026-04-30T07:04:12.999Z</time>
      </trkpt>
      <trkpt lat="43.97696" lon="2.98874">
        <ele>610.5</ele>
        <time>2026-04-30T07:04:13.999Z</time>
      </trkpt>
      <trkpt lat="43.97695" lon="2.98872">
        <ele>610.5</ele>
        <time>2026-04-30T07:04:14.999Z</time>
      </trkpt>
      <trkpt lat="43.97694" lon="2.98872">
        <ele>610.8</ele>
        <time>2026-04-30T07:04:15.999Z</time>
      </trkpt>
      <trkpt lat="43.97694" lon="2.98871">
        <ele>611.1</ele>
        <time>2026-04-30T07:04:16.999Z</time>
      </trkpt>
      <trkpt lat="43.97693" lon="2.9887">
        <ele>611</ele>
        <time>2026-04-30T07:04:17.999Z</time>
      </trkpt>
      <trkpt lat="43.97693" lon="2.9887">
        <ele>611</ele>
        <time>2026-04-30T07:04:18.999Z</time>
      </trkpt>
      <trkpt lat="43.97692" lon="2.98869">
        <ele>611.1</ele>
        <time>2026-04-30T07:04:19.999Z</time>
      </trkpt>
      <trkpt lat="43.97692" lon="2.98869">
        <ele>611.2</ele>
        <time>2026-04-30T07:04:20.999Z</time>
      </trkpt>
      <trkpt lat="43.97691" lon="2.98868">
        <ele>611.6</ele>
        <time>2026-04-30T07:04:21.999Z</time>
      </trkpt>
      <trkpt lat="43.97689" lon="2.98868">
        <ele>612</ele>
        <time>2026-04-30T07:04:23.999Z</time>
      </trkpt>
      <trkpt lat="43.97688" lon="2.98867">
        <ele>611.8</ele>
        <time>2026-04-30T07:04:24.999Z</time>
      </trkpt>
      <trkpt lat="43.97687" lon="2.98867">
        <ele>612.3</ele>
        <time>2026-04-30T07:04:25.999Z</time>
      </trkpt>
      <trkpt lat="43.97686" lon="2.98868">
        <ele>611.9</ele>
        <time>2026-04-30T07:04:26.999Z</time>
      </trkpt>
      <trkpt lat="43.97686" lon="2.98868">
        <ele>612.1</ele>
        <time>2026-04-30T07:04:27.999Z</time>
      </trkpt>
      <trkpt lat="43.97686" lon="2.98868">
        <ele>612</ele>
        <time>2026-04-30T07:04:28.999Z</time>
      </trkpt>
      <trkpt lat="43.97685" lon="2.98869">
        <ele>611.9</ele>
        <time>2026-04-30T07:04:29.999Z</time>
      </trkpt>
      <trkpt lat="43.97685" lon="2.98871">
        <ele>611.9</ele>
        <time>2026-04-30T07:04:30.999Z</time>
      </trkpt>
      <trkpt lat="43.97684" lon="2.98872">
        <ele>611.8</ele>
        <time>2026-04-30T07:04:31.999Z</time>
      </trkpt>
      <trkpt lat="43.97683" lon="2.98873">
        <ele>612.1</ele>
        <time>2026-04-30T07:04:32.999Z</time>
      </trkpt>
      <trkpt lat="43.97682" lon="2.98873">
        <ele>612</ele>
        <time>2026-04-30T07:04:33.999Z</time>
      </trkpt>
      <trkpt lat="43.97682" lon="2.98873">
        <ele>612.4</ele>
        <time>2026-04-30T07:04:34.999Z</time>
      </trkpt>
      <trkpt lat="43.97682" lon="2.98874">
        <ele>612.9</ele>
        <time>2026-04-30T07:04:35.999Z</time>
      </trkpt>
      <trkpt lat="43.97681" lon="2.98875">
        <ele>613.3</ele>
        <time>2026-04-30T07:04:36.999Z</time>
      </trkpt>
      <trkpt lat="43.97681" lon="2.98875">
        <ele>613</ele>
        <time>2026-04-30T07:04:37.999Z</time>
      </trkpt>
      <trkpt lat="43.9768" lon="2.98877">
        <ele>613.1</ele>
        <time>2026-04-30T07:04:38.999Z</time>
      </trkpt>
      <trkpt lat="43.97679" lon="2.98878">
        <ele>613.2</ele>
        <time>2026-04-30T07:04:39.999Z</time>
      </trkpt>
      <trkpt lat="43.97678" lon="2.98879">
        <ele>613.3</ele>
        <time>2026-04-30T07:04:40.999Z</time>
      </trkpt>
      <trkpt lat="43.97678" lon="2.98882">
        <ele>614.4</ele>
        <time>2026-04-30T07:04:41.999Z</time>
      </trkpt>
      <trkpt lat="43.97677" lon="2.98883">
        <ele>613.9</ele>
        <time>2026-04-30T07:04:42.999Z</time>
      </trkpt>
      <trkpt lat="43.97677" lon="2.98883">
        <ele>612.5</ele>
        <time>2026-04-30T07:04:43.999Z</time>
      </trkpt>
      <trkpt lat="43.97677" lon="2.98886">
        <ele>613.2</ele>
        <time>2026-04-30T07:04:44.999Z</time>
      </trkpt>
      <trkpt lat="43.97677" lon="2.98887">
        <ele>612.6</ele>
        <time>2026-04-30T07:04:45.999Z</time>
      </trkpt>
      <trkpt lat="43.97675" lon="2.98894">
        <ele>615.4</ele>
        <time>2026-04-30T07:04:47.999Z</time>
      </trkpt>
      <trkpt lat="43.97674" lon="2.98897">
        <ele>616.2</ele>
        <time>2026-04-30T07:04:48.999Z</time>
      </trkpt>
      <trkpt lat="43.97673" lon="2.98899">
        <ele>615.7</ele>
        <time>2026-04-30T07:04:49.999Z</time>
      </trkpt>
      <trkpt lat="43.97673" lon="2.989">
        <ele>616.8</ele>
        <time>2026-04-30T07:04:50.999Z</time>
      </trkpt>
      <trkpt lat="43.97672" lon="2.98901">
        <ele>617.6</ele>
        <time>2026-04-30T07:04:51.999Z</time>
      </trkpt>
      <trkpt lat="43.97672" lon="2.98899">
        <ele>618.3</ele>
        <time>2026-04-30T07:04:52.999Z</time>
      </trkpt>
      <trkpt lat="43.97672" lon="2.98898">
        <ele>618.8</ele>
        <time>2026-04-30T07:04:53.999Z</time>
      </trkpt>
      <trkpt lat="43.97672" lon="2.98895">
        <ele>619.2</ele>
        <time>2026-04-30T07:04:54.999Z</time>
      </trkpt>
      <trkpt lat="43.97672" lon="2.98893">
        <ele>619.1</ele>
        <time>2026-04-30T07:04:55.999Z</time>
      </trkpt>
      <trkpt lat="43.97672" lon="2.9889">
        <ele>618.5</ele>
        <time>2026-04-30T07:04:56.999Z</time>
      </trkpt>
      <trkpt lat="43.97672" lon="2.9889">
        <ele>615.4</ele>
        <time>2026-04-30T07:04:57.999Z</time>
      </trkpt>
      <trkpt lat="43.97672" lon="2.9889">
        <ele>615.4</ele>
        <time>2026-04-30T07:04:58.999Z</time>
      </trkpt>
      <trkpt lat="43.97672" lon="2.98889">
        <ele>615.5</ele>
        <time>2026-04-30T07:04:59.999Z</time>
      </trkpt>
      <trkpt lat="43.97672" lon="2.98889">
        <ele>615.7</ele>
        <time>2026-04-30T07:05:00.999Z</time>
      </trkpt>
      <trkpt lat="43.97672" lon="2.98889">
        <ele>616.1</ele>
        <time>2026-04-30T07:05:01.999Z</time>
      </trkpt>
      <trkpt lat="43.97673" lon="2.98887">
        <ele>616.3</ele>
        <time>2026-04-30T07:05:02.999Z</time>
      </trkpt>
      <trkpt lat="43.97673" lon="2.98887">
        <ele>616.4</ele>
        <time>2026-04-30T07:05:03.999Z</time>
      </trkpt>
      <trkpt lat="43.97673" lon="2.98887">
        <ele>616.7</ele>
        <time>2026-04-30T07:05:04.999Z</time>
      </trkpt>
      <trkpt lat="43.97674" lon="2.98887">
        <ele>616.9</ele>
        <time>2026-04-30T07:05:05.999Z</time>
      </trkpt>
      <trkpt lat="43.97674" lon="2.98886">
        <ele>616.7</ele>
        <time>2026-04-30T07:05:06.999Z</time>
      </trkpt>
      <trkpt lat="43.97675" lon="2.98885">
        <ele>616.7</ele>
        <time>2026-04-30T07:05:07.999Z</time>
      </trkpt>
      <trkpt lat="43.97675" lon="2.98885">
        <ele>616.7</ele>
        <time>2026-04-30T07:05:08.999Z</time>
      </trkpt>
      <trkpt lat="43.97675" lon="2.98883">
        <ele>616.8</ele>
        <time>2026-04-30T07:05:09.999Z</time>
      </trkpt>
      <trkpt lat="43.97675" lon="2.98882">
        <ele>617.1</ele>
        <time>2026-04-30T07:05:10.999Z</time>
      </trkpt>
      <trkpt lat="43.97675" lon="2.98882">
        <ele>617.3</ele>
        <time>2026-04-30T07:05:11.999Z</time>
      </trkpt>
      <trkpt lat="43.97675" lon="2.98882">
        <ele>617.3</ele>
        <time>2026-04-30T07:05:12.999Z</time>
      </trkpt>
      <trkpt lat="43.97674" lon="2.98882">
        <ele>617.7</ele>
        <time>2026-04-30T07:05:13.999Z</time>
      </trkpt>
      <trkpt lat="43.97674" lon="2.98882">
        <ele>617.8</ele>
        <time>2026-04-30T07:05:14.999Z</time>
      </trkpt>
      <trkpt lat="43.97674" lon="2.98883">
        <ele>617.9</ele>
        <time>2026-04-30T07:05:15.999Z</time>
      </trkpt>
      <trkpt lat="43.97674" lon="2.98882">
        <ele>617.8</ele>
        <time>2026-04-30T07:05:16.999Z</time>
      </trkpt>
      <trkpt lat="43.97674" lon="2.98882">
        <ele>618</ele>
        <time>2026-04-30T07:05:17.999Z</time>
      </trkpt>
      <trkpt lat="43.97673" lon="2.98883">
        <ele>618.4</ele>
        <time>2026-04-30T07:05:18.999Z</time>
      </trkpt>
      <trkpt lat="43.97673" lon="2.98883">
        <ele>618.6</ele>
        <time>2026-04-30T07:05:19.999Z</time>
      </trkpt>
      <trkpt lat="43.97673" lon="2.98883">
        <ele>619.8</ele>
        <time>2026-04-30T07:05:20.999Z</time>
      </trkpt>
      <trkpt lat="43.97673" lon="2.98883">
        <ele>619.6</ele>
        <time>2026-04-30T07:05:21.999Z</time>
      </trkpt>
      <trkpt lat="43.97673" lon="2.98883">
        <ele>619.7</ele>
        <time>2026-04-30T07:05:22.999Z</time>
      </trkpt>
      <trkpt lat="43.97672" lon="2.98884">
        <ele>619.7</ele>
        <time>2026-04-30T07:05:23.999Z</time>
      </trkpt>
      <trkpt lat="43.97671" lon="2.98885">
        <ele>619.6</ele>
        <time>2026-04-30T07:05:24.999Z</time>
      </trkpt>
      <trkpt lat="43.9767" lon="2.98886">
        <ele>619.3</ele>
        <time>2026-04-30T07:05:25.999Z</time>
      </trkpt>
      <trkpt lat="43.97669" lon="2.98886">
        <ele>619.4</ele>
        <time>2026-04-30T07:05:26.999Z</time>
      </trkpt>
      <trkpt lat="43.97668" lon="2.98886">
        <ele>619.5</ele>
        <time>2026-04-30T07:05:27.999Z</time>
      </trkpt>
      <trkpt lat="43.97667" lon="2.98887">
        <ele>619.3</ele>
        <time>2026-04-30T07:05:28.999Z</time>
      </trkpt>
      <trkpt lat="43.97666" lon="2.98887">
        <ele>619.1</ele>
        <time>2026-04-30T07:05:29.999Z</time>
      </trkpt>
      <trkpt lat="43.97666" lon="2.98888">
        <ele>619.1</ele>
        <time>2026-04-30T07:05:30.999Z</time>
      </trkpt>
      <trkpt lat="43.97665" lon="2.98888">
        <ele>619.2</ele>
        <time>2026-04-30T07:05:31.999Z</time>
      </trkpt>
      <trkpt lat="43.97665" lon="2.98889">
        <ele>619</ele>
        <time>2026-04-30T07:05:32.999Z</time>
      </trkpt>
      <trkpt lat="43.97664" lon="2.9889">
        <ele>619.1</ele>
        <time>2026-04-30T07:05:33.999Z</time>
      </trkpt>
      <trkpt lat="43.97663" lon="2.98891">
        <ele>619.4</ele>
        <time>2026-04-30T07:05:34.999Z</time>
      </trkpt>
      <trkpt lat="43.97662" lon="2.98892">
        <ele>619.3</ele>
        <time>2026-04-30T07:05:35.999Z</time>
      </trkpt>
      <trkpt lat="43.97661" lon="2.98891">
        <ele>619.2</ele>
        <time>2026-04-30T07:05:36.999Z</time>
      </trkpt>
      <trkpt lat="43.9766" lon="2.98891">
        <ele>619.1</ele>
        <time>2026-04-30T07:05:37.999Z</time>
      </trkpt>
      <trkpt lat="43.9766" lon="2.98892">
        <ele>619.5</ele>
        <time>2026-04-30T07:05:38.999Z</time>
      </trkpt>
      <trkpt lat="43.9766" lon="2.98892">
        <ele>621.1</ele>
        <time>2026-04-30T07:05:39.999Z</time>
      </trkpt>
      <trkpt lat="43.9766" lon="2.98892">
        <ele>621.3</ele>
        <time>2026-04-30T07:05:40.999Z</time>
      </trkpt>
      <trkpt lat="43.9766" lon="2.98892">
        <ele>621.3</ele>
        <time>2026-04-30T07:05:41.999Z</time>
      </trkpt>
      <trkpt lat="43.97659" lon="2.98893">
        <ele>621.2</ele>
        <time>2026-04-30T07:05:42.999Z</time>
      </trkpt>
      <trkpt lat="43.97659" lon="2.98895">
        <ele>621.5</ele>
        <time>2026-04-30T07:05:43.999Z</time>
      </trkpt>
      <trkpt lat="43.97659" lon="2.98896">
        <ele>621</ele>
        <time>2026-04-30T07:05:44.999Z</time>
      </trkpt>
      <trkpt lat="43.97659" lon="2.98896">
        <ele>620.8</ele>
        <time>2026-04-30T07:05:45.999Z</time>
      </trkpt>
      <trkpt lat="43.97659" lon="2.98897">
        <ele>621.1</ele>
        <time>2026-04-30T07:05:46.999Z</time>
      </trkpt>
      <trkpt lat="43.97659" lon="2.98897">
        <ele>621.8</ele>
        <time>2026-04-30T07:05:47.999Z</time>
      </trkpt>
      <trkpt lat="43.97659" lon="2.98897">
        <ele>621.9</ele>
        <time>2026-04-30T07:05:48.999Z</time>
      </trkpt>
      <trkpt lat="43.97659" lon="2.98896">
        <ele>622</ele>
        <time>2026-04-30T07:05:49.999Z</time>
      </trkpt>
      <trkpt lat="43.97659" lon="2.98897">
        <ele>622.1</ele>
        <time>2026-04-30T07:05:50.999Z</time>
      </trkpt>
      <trkpt lat="43.97659" lon="2.98897">
        <ele>622.1</ele>
        <time>2026-04-30T07:05:51.999Z</time>
      </trkpt>
      <trkpt lat="43.9766" lon="2.98898">
        <ele>622.1</ele>
        <time>2026-04-30T07:05:52.999Z</time>
      </trkpt>
      <trkpt lat="43.9766" lon="2.98898">
        <ele>622.2</ele>
        <time>2026-04-30T07:05:53.999Z</time>
      </trkpt>
      <trkpt lat="43.97661" lon="2.98899">
        <ele>622.2</ele>
        <time>2026-04-30T07:05:54.999Z</time>
      </trkpt>
      <trkpt lat="43.97661" lon="2.98899">
        <ele>622</ele>
        <time>2026-04-30T07:05:55.999Z</time>
      </trkpt>
      <trkpt lat="43.97662" lon="2.98899">
        <ele>622.1</ele>
        <time>2026-04-30T07:05:56.999Z</time>
      </trkpt>
      <trkpt lat="43.97663" lon="2.989">
        <ele>622.3</ele>
        <time>2026-04-30T07:05:57.999Z</time>
      </trkpt>
      <trkpt lat="43.97663" lon="2.98902">
        <ele>622.6</ele>
        <time>2026-04-30T07:05:58.999Z</time>
      </trkpt>
      <trkpt lat="43.97664" lon="2.98903">
        <ele>622.8</ele>
        <time>2026-04-30T07:05:59.999Z</time>
      </trkpt>
      <trkpt lat="43.97664" lon="2.98905">
        <ele>622.5</ele>
        <time>2026-04-30T07:06:01.999Z</time>
      </trkpt>
      <trkpt lat="43.97665" lon="2.98908">
        <ele>623.3</ele>
        <time>2026-04-30T07:06:02.999Z</time>
      </trkpt>
      <trkpt lat="43.97664" lon="2.98911">
        <ele>623.2</ele>
        <time>2026-04-30T07:06:03.999Z</time>
      </trkpt>
      <trkpt lat="43.97665" lon="2.98912">
        <ele>623.2</ele>
        <time>2026-04-30T07:06:04.999Z</time>
      </trkpt>
      <trkpt lat="43.97666" lon="2.98913">
        <ele>624</ele>
        <time>2026-04-30T07:06:05.999Z</time>
      </trkpt>
      <trkpt lat="43.97666" lon="2.98913">
        <ele>624</ele>
        <time>2026-04-30T07:06:06.999Z</time>
      </trkpt>
      <trkpt lat="43.97667" lon="2.98914">
        <ele>623.9</ele>
        <time>2026-04-30T07:06:07.999Z</time>
      </trkpt>
      <trkpt lat="43.97667" lon="2.98915">
        <ele>624.1</ele>
        <time>2026-04-30T07:06:08.999Z</time>
      </trkpt>
      <trkpt lat="43.97668" lon="2.98915">
        <ele>624.3</ele>
        <time>2026-04-30T07:06:09.999Z</time>
      </trkpt>
      <trkpt lat="43.97668" lon="2.98916">
        <ele>624.3</ele>
        <time>2026-04-30T07:06:10.999Z</time>
      </trkpt>
      <trkpt lat="43.97668" lon="2.98917">
        <ele>624.3</ele>
        <time>2026-04-30T07:06:11.999Z</time>
      </trkpt>
      <trkpt lat="43.97668" lon="2.98918">
        <ele>624.3</ele>
        <time>2026-04-30T07:06:12.999Z</time>
      </trkpt>
      <trkpt lat="43.97668" lon="2.98919">
        <ele>624.3</ele>
        <time>2026-04-30T07:06:13.999Z</time>
      </trkpt>
      <trkpt lat="43.97668" lon="2.9892">
        <ele>624.2</ele>
        <time>2026-04-30T07:06:14.999Z</time>
      </trkpt>
      <trkpt lat="43.97668" lon="2.9892">
        <ele>624.1</ele>
        <time>2026-04-30T07:06:15.999Z</time>
      </trkpt>
      <trkpt lat="43.97667" lon="2.98921">
        <ele>623.9</ele>
        <time>2026-04-30T07:06:16.999Z</time>
      </trkpt>
      <trkpt lat="43.97667" lon="2.98922">
        <ele>623.9</ele>
        <time>2026-04-30T07:06:17.999Z</time>
      </trkpt>
      <trkpt lat="43.97667" lon="2.98922">
        <ele>623.7</ele>
        <time>2026-04-30T07:06:18.999Z</time>
      </trkpt>
      <trkpt lat="43.97666" lon="2.98923">
        <ele>623.6</ele>
        <time>2026-04-30T07:06:19.999Z</time>
      </trkpt>
      <trkpt lat="43.97666" lon="2.98924">
        <ele>623.8</ele>
        <time>2026-04-30T07:06:20.999Z</time>
      </trkpt>
      <trkpt lat="43.97666" lon="2.98925">
        <ele>623.8</ele>
        <time>2026-04-30T07:06:21.999Z</time>
      </trkpt>
      <trkpt lat="43.97665" lon="2.98925">
        <ele>623.9</ele>
        <time>2026-04-30T07:06:22.999Z</time>
      </trkpt>
      <trkpt lat="43.97664" lon="2.98927">
        <ele>624</ele>
        <time>2026-04-30T07:06:23.999Z</time>
      </trkpt>
      <trkpt lat="43.97664" lon="2.98929">
        <ele>624.1</ele>
        <time>2026-04-30T07:06:24.999Z</time>
      </trkpt>
      <trkpt lat="43.97663" lon="2.9893">
        <ele>624.1</ele>
        <time>2026-04-30T07:06:25.999Z</time>
      </trkpt>
      <trkpt lat="43.97662" lon="2.98931">
        <ele>623.9</ele>
        <time>2026-04-30T07:06:26.999Z</time>
      </trkpt>
      <trkpt lat="43.97662" lon="2.98931">
        <ele>623.8</ele>
        <time>2026-04-30T07:06:27.999Z</time>
      </trkpt>
      <trkpt lat="43.97661" lon="2.98932">
        <ele>623.9</ele>
        <time>2026-04-30T07:06:28.999Z</time>
      </trkpt>
      <trkpt lat="43.9766" lon="2.98932">
        <ele>623.8</ele>
        <time>2026-04-30T07:06:29.999Z</time>
      </trkpt>
      <trkpt lat="43.97659" lon="2.98933">
        <ele>624.1</ele>
        <time>2026-04-30T07:06:30.999Z</time>
      </trkpt>
      <trkpt lat="43.97658" lon="2.98934">
        <ele>624.4</ele>
        <time>2026-04-30T07:06:31.999Z</time>
      </trkpt>
      <trkpt lat="43.97658" lon="2.98935">
        <ele>624.6</ele>
        <time>2026-04-30T07:06:32.999Z</time>
      </trkpt>
      <trkpt lat="43.97658" lon="2.98935">
        <ele>624.7</ele>
        <time>2026-04-30T07:06:33.999Z</time>
      </trkpt>
      <trkpt lat="43.97657" lon="2.98935">
        <ele>624.9</ele>
        <time>2026-04-30T07:06:34.999Z</time>
      </trkpt>
      <trkpt lat="43.97657" lon="2.98936">
        <ele>624.8</ele>
        <time>2026-04-30T07:06:35.999Z</time>
      </trkpt>
      <trkpt lat="43.97657" lon="2.98937">
        <ele>624.8</ele>
        <time>2026-04-30T07:06:36.999Z</time>
      </trkpt>
      <trkpt lat="43.97656" lon="2.98937">
        <ele>624.9</ele>
        <time>2026-04-30T07:06:37.999Z</time>
      </trkpt>
      <trkpt lat="43.97656" lon="2.98938">
        <ele>624.9</ele>
        <time>2026-04-30T07:06:38.999Z</time>
      </trkpt>
      <trkpt lat="43.97655" lon="2.98938">
        <ele>625</ele>
        <time>2026-04-30T07:06:39.999Z</time>
      </trkpt>
      <trkpt lat="43.97655" lon="2.98939">
        <ele>625.1</ele>
        <time>2026-04-30T07:06:40.999Z</time>
      </trkpt>
      <trkpt lat="43.97655" lon="2.98939">
        <ele>625.3</ele>
        <time>2026-04-30T07:06:41.999Z</time>
      </trkpt>
      <trkpt lat="43.97654" lon="2.98941">
        <ele>626</ele>
        <time>2026-04-30T07:06:42.999Z</time>
      </trkpt>
      <trkpt lat="43.97653" lon="2.98942">
        <ele>626.4</ele>
        <time>2026-04-30T07:06:43.999Z</time>
      </trkpt>
      <trkpt lat="43.97653" lon="2.98942">
        <ele>626.5</ele>
        <time>2026-04-30T07:06:44.999Z</time>
      </trkpt>
      <trkpt lat="43.97652" lon="2.98943">
        <ele>626.9</ele>
        <time>2026-04-30T07:06:45.999Z</time>
      </trkpt>
      <trkpt lat="43.97652" lon="2.98944">
        <ele>627.4</ele>
        <time>2026-04-30T07:06:46.999Z</time>
      </trkpt>
      <trkpt lat="43.97651" lon="2.98945">
        <ele>627.9</ele>
        <time>2026-04-30T07:06:47.999Z</time>
      </trkpt>
      <trkpt lat="43.97651" lon="2.98945">
        <ele>627.9</ele>
        <time>2026-04-30T07:06:48.999Z</time>
      </trkpt>
      <trkpt lat="43.9765" lon="2.98946">
        <ele>628.2</ele>
        <time>2026-04-30T07:06:49.999Z</time>
      </trkpt>
      <trkpt lat="43.9765" lon="2.98946">
        <ele>628.4</ele>
        <time>2026-04-30T07:06:50.999Z</time>
      </trkpt>
      <trkpt lat="43.97649" lon="2.98947">
        <ele>629</ele>
        <time>2026-04-30T07:06:51.999Z</time>
      </trkpt>
      <trkpt lat="43.97648" lon="2.98948">
        <ele>629</ele>
        <time>2026-04-30T07:06:52.999Z</time>
      </trkpt>
      <trkpt lat="43.97647" lon="2.98949">
        <ele>629.2</ele>
        <time>2026-04-30T07:06:54.999Z</time>
      </trkpt>
      <trkpt lat="43.97647" lon="2.9895">
        <ele>628.9</ele>
        <time>2026-04-30T07:06:55.999Z</time>
      </trkpt>
      <trkpt lat="43.97647" lon="2.9895">
        <ele>629.4</ele>
        <time>2026-04-30T07:06:56.999Z</time>
      </trkpt>
      <trkpt lat="43.97646" lon="2.9895">
        <ele>629.9</ele>
        <time>2026-04-30T07:06:57.999Z</time>
      </trkpt>
      <trkpt lat="43.97645" lon="2.98952">
        <ele>630.3</ele>
        <time>2026-04-30T07:06:58.999Z</time>
      </trkpt>
      <trkpt lat="43.97645" lon="2.98954">
        <ele>630.5</ele>
        <time>2026-04-30T07:06:59.999Z</time>
      </trkpt>
      <trkpt lat="43.97644" lon="2.98955">
        <ele>631.5</ele>
        <time>2026-04-30T07:07:00.999Z</time>
      </trkpt>
      <trkpt lat="43.97644" lon="2.98956">
        <ele>632.3</ele>
        <time>2026-04-30T07:07:01.999Z</time>
      </trkpt>
      <trkpt lat="43.97645" lon="2.98956">
        <ele>632.4</ele>
        <time>2026-04-30T07:07:02.999Z</time>
      </trkpt>
      <trkpt lat="43.97644" lon="2.98957">
        <ele>633.2</ele>
        <time>2026-04-30T07:07:03.999Z</time>
      </trkpt>
      <trkpt lat="43.97644" lon="2.98956">
        <ele>633.6</ele>
        <time>2026-04-30T07:07:04.999Z</time>
      </trkpt>
      <trkpt lat="43.97644" lon="2.98956">
        <ele>633.4</ele>
        <time>2026-04-30T07:07:05.999Z</time>
      </trkpt>
      <trkpt lat="43.97643" lon="2.98956">
        <ele>634</ele>
        <time>2026-04-30T07:07:06.999Z</time>
      </trkpt>
      <trkpt lat="43.97643" lon="2.98955">
        <ele>634.2</ele>
        <time>2026-04-30T07:07:07.999Z</time>
      </trkpt>
      <trkpt lat="43.97643" lon="2.98956">
        <ele>634.5</ele>
        <time>2026-04-30T07:07:08.999Z</time>
      </trkpt>
      <trkpt lat="43.97643" lon="2.98956">
        <ele>635.6</ele>
        <time>2026-04-30T07:07:09.999Z</time>
      </trkpt>
      <trkpt lat="43.97643" lon="2.98956">
        <ele>635.9</ele>
        <time>2026-04-30T07:07:10.999Z</time>
      </trkpt>
      <trkpt lat="43.97641" lon="2.98956">
        <ele>635.3</ele>
        <time>2026-04-30T07:07:11.999Z</time>
      </trkpt>
      <trkpt lat="43.97639" lon="2.98955">
        <ele>634.8</ele>
        <time>2026-04-30T07:07:12.999Z</time>
      </trkpt>
      <trkpt lat="43.97638" lon="2.98955">
        <ele>634.8</ele>
        <time>2026-04-30T07:07:13.999Z</time>
      </trkpt>
      <trkpt lat="43.97638" lon="2.98954">
        <ele>635.6</ele>
        <time>2026-04-30T07:07:14.999Z</time>
      </trkpt>
      <trkpt lat="43.97637" lon="2.98953">
        <ele>635.4</ele>
        <time>2026-04-30T07:07:16.999Z</time>
      </trkpt>
      <trkpt lat="43.97637" lon="2.98952">
        <ele>635.2</ele>
        <time>2026-04-30T07:07:17.999Z</time>
      </trkpt>
      <trkpt lat="43.97636" lon="2.98952">
        <ele>634.6</ele>
        <time>2026-04-30T07:07:18.999Z</time>
      </trkpt>
      <trkpt lat="43.97636" lon="2.9895">
        <ele>635.1</ele>
        <time>2026-04-30T07:07:19.999Z</time>
      </trkpt>
      <trkpt lat="43.97636" lon="2.98949">
        <ele>635.8</ele>
        <time>2026-04-30T07:07:20.999Z</time>
      </trkpt>
      <trkpt lat="43.97635" lon="2.98947">
        <ele>635.6</ele>
        <time>2026-04-30T07:07:21.999Z</time>
      </trkpt>
      <trkpt lat="43.97635" lon="2.98946">
        <ele>635.4</ele>
        <time>2026-04-30T07:07:22.999Z</time>
      </trkpt>
      <trkpt lat="43.97632" lon="2.98944">
        <ele>635.4</ele>
        <time>2026-04-30T07:07:23.999Z</time>
      </trkpt>
      <trkpt lat="43.97632" lon="2.98945">
        <ele>635.6</ele>
        <time>2026-04-30T07:07:24.999Z</time>
      </trkpt>
      <trkpt lat="43.97632" lon="2.98946">
        <ele>636.3</ele>
        <time>2026-04-30T07:07:25.999Z</time>
      </trkpt>
      <trkpt lat="43.97633" lon="2.98945">
        <ele>636.3</ele>
        <time>2026-04-30T07:07:26.999Z</time>
      </trkpt>
      <trkpt lat="43.97632" lon="2.98945">
        <ele>636.1</ele>
        <time>2026-04-30T07:07:27.999Z</time>
      </trkpt>
      <trkpt lat="43.97633" lon="2.98947">
        <ele>635.7</ele>
        <time>2026-04-30T07:07:28.999Z</time>
      </trkpt>
      <trkpt lat="43.97634" lon="2.98948">
        <ele>636.7</ele>
        <time>2026-04-30T07:07:29.999Z</time>
      </trkpt>
      <trkpt lat="43.97635" lon="2.98949">
        <ele>636.4</ele>
        <time>2026-04-30T07:07:30.999Z</time>
      </trkpt>
      <trkpt lat="43.97635" lon="2.9895">
        <ele>636.8</ele>
        <time>2026-04-30T07:07:31.999Z</time>
      </trkpt>
      <trkpt lat="43.97635" lon="2.9895">
        <ele>637.2</ele>
        <time>2026-04-30T07:07:32.999Z</time>
      </trkpt>
      <trkpt lat="43.97637" lon="2.98965">
        <ele>635.7</ele>
        <time>2026-04-30T07:07:33.999Z</time>
      </trkpt>
      <trkpt lat="43.97636" lon="2.98968">
        <ele>635.3</ele>
        <time>2026-04-30T07:07:34.999Z</time>
      </trkpt>
      <trkpt lat="43.97635" lon="2.98969">
        <ele>635.3</ele>
        <time>2026-04-30T07:07:35.999Z</time>
      </trkpt>
      <trkpt lat="43.97635" lon="2.9897">
        <ele>634.8</ele>
        <time>2026-04-30T07:07:36.999Z</time>
      </trkpt>
      <trkpt lat="43.97634" lon="2.9897">
        <ele>635.1</ele>
        <time>2026-04-30T07:07:37.999Z</time>
      </trkpt>
      <trkpt lat="43.97634" lon="2.9897">
        <ele>635.8</ele>
        <time>2026-04-30T07:07:38.999Z</time>
      </trkpt>
      <trkpt lat="43.97633" lon="2.9897">
        <ele>635.9</ele>
        <time>2026-04-30T07:07:39.999Z</time>
      </trkpt>
      <trkpt lat="43.97632" lon="2.98971">
        <ele>636.4</ele>
        <time>2026-04-30T07:07:40.999Z</time>
      </trkpt>
      <trkpt lat="43.97632" lon="2.9897">
        <ele>636.3</ele>
        <time>2026-04-30T07:07:41.999Z</time>
      </trkpt>
      <trkpt lat="43.97632" lon="2.9897">
        <ele>636.4</ele>
        <time>2026-04-30T07:07:42.999Z</time>
      </trkpt>
      <trkpt lat="43.97632" lon="2.98972">
        <ele>636.4</ele>
        <time>2026-04-30T07:07:43.999Z</time>
      </trkpt>
      <trkpt lat="43.97633" lon="2.98973">
        <ele>636.4</ele>
        <time>2026-04-30T07:07:44.999Z</time>
      </trkpt>
      <trkpt lat="43.97633" lon="2.98973">
        <ele>636.6</ele>
        <time>2026-04-30T07:07:45.999Z</time>
      </trkpt>
      <trkpt lat="43.97632" lon="2.98974">
        <ele>636.5</ele>
        <time>2026-04-30T07:07:46.999Z</time>
      </trkpt>
      <trkpt lat="43.97631" lon="2.98977">
        <ele>636.3</ele>
        <time>2026-04-30T07:07:47.999Z</time>
      </trkpt>
      <trkpt lat="43.9763" lon="2.98978">
        <ele>636.3</ele>
        <time>2026-04-30T07:07:48.999Z</time>
      </trkpt>
      <trkpt lat="43.97629" lon="2.98979">
        <ele>636.9</ele>
        <time>2026-04-30T07:07:49.999Z</time>
      </trkpt>
      <trkpt lat="43.97628" lon="2.98979">
        <ele>636.9</ele>
        <time>2026-04-30T07:07:50.999Z</time>
      </trkpt>
      <trkpt lat="43.97627" lon="2.98979">
        <ele>636.3</ele>
        <time>2026-04-30T07:07:51.999Z</time>
      </trkpt>
      <trkpt lat="43.97626" lon="2.98982">
        <ele>636.3</ele>
        <time>2026-04-30T07:07:52.999Z</time>
      </trkpt>
      <trkpt lat="43.97627" lon="2.98984">
        <ele>636.7</ele>
        <time>2026-04-30T07:07:53.999Z</time>
      </trkpt>
      <trkpt lat="43.97625" lon="2.98984">
        <ele>636.2</ele>
        <time>2026-04-30T07:07:54.999Z</time>
      </trkpt>
      <trkpt lat="43.97625" lon="2.98985">
        <ele>636</ele>
        <time>2026-04-30T07:07:55.999Z</time>
      </trkpt>
      <trkpt lat="43.97625" lon="2.98987">
        <ele>636.4</ele>
        <time>2026-04-30T07:07:56.999Z</time>
      </trkpt>
      <trkpt lat="43.97625" lon="2.98988">
        <ele>636.2</ele>
        <time>2026-04-30T07:07:57.999Z</time>
      </trkpt>
      <trkpt lat="43.97624" lon="2.98989">
        <ele>636.7</ele>
        <time>2026-04-30T07:07:58.999Z</time>
      </trkpt>
      <trkpt lat="43.97623" lon="2.98989">
        <ele>637.1</ele>
        <time>2026-04-30T07:07:59.999Z</time>
      </trkpt>
      <trkpt lat="43.97622" lon="2.9899">
        <ele>637.3</ele>
        <time>2026-04-30T07:08:00.999Z</time>
      </trkpt>
      <trkpt lat="43.97622" lon="2.98991">
        <ele>637</ele>
        <time>2026-04-30T07:08:01.999Z</time>
      </trkpt>
      <trkpt lat="43.97621" lon="2.98992">
        <ele>637.4</ele>
        <time>2026-04-30T07:08:02.999Z</time>
      </trkpt>
      <trkpt lat="43.97621" lon="2.98993">
        <ele>637.6</ele>
        <time>2026-04-30T07:08:03.999Z</time>
      </trkpt>
      <trkpt lat="43.9762" lon="2.98994">
        <ele>637.9</ele>
        <time>2026-04-30T07:08:04.999Z</time>
      </trkpt>
      <trkpt lat="43.97618" lon="2.98993">
        <ele>638</ele>
        <time>2026-04-30T07:08:05.999Z</time>
      </trkpt>
      <trkpt lat="43.97617" lon="2.98993">
        <ele>638.6</ele>
        <time>2026-04-30T07:08:06.999Z</time>
      </trkpt>
      <trkpt lat="43.97616" lon="2.98994">
        <ele>638.9</ele>
        <time>2026-04-30T07:08:07.999Z</time>
      </trkpt>
      <trkpt lat="43.97615" lon="2.98994">
        <ele>638.6</ele>
        <time>2026-04-30T07:08:08.999Z</time>
      </trkpt>
      <trkpt lat="43.97614" lon="2.98995">
        <ele>638.4</ele>
        <time>2026-04-30T07:08:09.999Z</time>
      </trkpt>
      <trkpt lat="43.97613" lon="2.98995">
        <ele>638.4</ele>
        <time>2026-04-30T07:08:10.999Z</time>
      </trkpt>
      <trkpt lat="43.97612" lon="2.98996">
        <ele>638.2</ele>
        <time>2026-04-30T07:08:11.999Z</time>
      </trkpt>
      <trkpt lat="43.97611" lon="2.98996">
        <ele>638.4</ele>
        <time>2026-04-30T07:08:12.999Z</time>
      </trkpt>
      <trkpt lat="43.9761" lon="2.98996">
        <ele>638.7</ele>
        <time>2026-04-30T07:08:13.999Z</time>
      </trkpt>
      <trkpt lat="43.97609" lon="2.98997">
        <ele>639.3</ele>
        <time>2026-04-30T07:08:14.999Z</time>
      </trkpt>
      <trkpt lat="43.97608" lon="2.98997">
        <ele>639.6</ele>
        <time>2026-04-30T07:08:15.999Z</time>
      </trkpt>
      <trkpt lat="43.97607" lon="2.98997">
        <ele>639.8</ele>
        <time>2026-04-30T07:08:16.999Z</time>
      </trkpt>
      <trkpt lat="43.97606" lon="2.98997">
        <ele>640.2</ele>
        <time>2026-04-30T07:08:17.999Z</time>
      </trkpt>
      <trkpt lat="43.97606" lon="2.98997">
        <ele>640.2</ele>
        <time>2026-04-30T07:08:18.999Z</time>
      </trkpt>
      <trkpt lat="43.97605" lon="2.98997">
        <ele>640.5</ele>
        <time>2026-04-30T07:08:19.999Z</time>
      </trkpt>
      <trkpt lat="43.97605" lon="2.98997">
        <ele>640.8</ele>
        <time>2026-04-30T07:08:20.999Z</time>
      </trkpt>
      <trkpt lat="43.97605" lon="2.98997">
        <ele>640.9</ele>
        <time>2026-04-30T07:08:21.999Z</time>
      </trkpt>
      <trkpt lat="43.97605" lon="2.98997">
        <ele>640.7</ele>
        <time>2026-04-30T07:08:22.999Z</time>
      </trkpt>
      <trkpt lat="43.97605" lon="2.98997">
        <ele>640.6</ele>
        <time>2026-04-30T07:08:23.999Z</time>
      </trkpt>
      <trkpt lat="43.97605" lon="2.98997">
        <ele>640.9</ele>
        <time>2026-04-30T07:08:24.999Z</time>
      </trkpt>
      <trkpt lat="43.97606" lon="2.98996">
        <ele>640.3</ele>
        <time>2026-04-30T07:08:25.999Z</time>
      </trkpt>
      <trkpt lat="43.97606" lon="2.98996">
        <ele>640.5</ele>
        <time>2026-04-30T07:08:26.999Z</time>
      </trkpt>
      <trkpt lat="43.97606" lon="2.98996">
        <ele>640.5</ele>
        <time>2026-04-30T07:08:27.999Z</time>
      </trkpt>
      <trkpt lat="43.97606" lon="2.98996">
        <ele>640.4</ele>
        <time>2026-04-30T07:08:28.999Z</time>
      </trkpt>
      <trkpt lat="43.97606" lon="2.98996">
        <ele>640.6</ele>
        <time>2026-04-30T07:08:29.999Z</time>
      </trkpt>
      <trkpt lat="43.97606" lon="2.98996">
        <ele>640.7</ele>
        <time>2026-04-30T07:08:30.999Z</time>
      </trkpt>
      <trkpt lat="43.97606" lon="2.98996">
        <ele>640.5</ele>
        <time>2026-04-30T07:08:31.999Z</time>
      </trkpt>
      <trkpt lat="43.97606" lon="2.98997">
        <ele>640.6</ele>
        <time>2026-04-30T07:08:32.999Z</time>
      </trkpt>
      <trkpt lat="43.97606" lon="2.98996">
        <ele>640.2</ele>
        <time>2026-04-30T07:08:33.999Z</time>
      </trkpt>
      <trkpt lat="43.97605" lon="2.98997">
        <ele>640.2</ele>
        <time>2026-04-30T07:08:34.999Z</time>
      </trkpt>
      <trkpt lat="43.97604" lon="2.98998">
        <ele>640</ele>
        <time>2026-04-30T07:08:35.999Z</time>
      </trkpt>
      <trkpt lat="43.97603" lon="2.98998">
        <ele>640</ele>
        <time>2026-04-30T07:08:36.999Z</time>
      </trkpt>
      <trkpt lat="43.97602" lon="2.98999">
        <ele>640.3</ele>
        <time>2026-04-30T07:08:37.999Z</time>
      </trkpt>
      <trkpt lat="43.97601" lon="2.99">
        <ele>640.2</ele>
        <time>2026-04-30T07:08:38.999Z</time>
      </trkpt>
      <trkpt lat="43.976" lon="2.99001">
        <ele>640.6</ele>
        <time>2026-04-30T07:08:39.999Z</time>
      </trkpt>
      <trkpt lat="43.976" lon="2.99002">
        <ele>640.5</ele>
        <time>2026-04-30T07:08:40.999Z</time>
      </trkpt>
      <trkpt lat="43.97598" lon="2.99004">
        <ele>641</ele>
        <time>2026-04-30T07:08:42.999Z</time>
      </trkpt>
      <trkpt lat="43.97598" lon="2.99004">
        <ele>641</ele>
        <time>2026-04-30T07:08:43.999Z</time>
      </trkpt>
      <trkpt lat="43.97597" lon="2.99005">
        <ele>641.2</ele>
        <time>2026-04-30T07:08:44.999Z</time>
      </trkpt>
      <trkpt lat="43.97596" lon="2.99006">
        <ele>641.4</ele>
        <time>2026-04-30T07:08:45.999Z</time>
      </trkpt>
      <trkpt lat="43.97596" lon="2.99007">
        <ele>641.4</ele>
        <time>2026-04-30T07:08:46.999Z</time>
      </trkpt>
      <trkpt lat="43.97595" lon="2.99008">
        <ele>641.4</ele>
        <time>2026-04-30T07:08:47.999Z</time>
      </trkpt>
      <trkpt lat="43.97594" lon="2.99008">
        <ele>641.1</ele>
        <time>2026-04-30T07:08:48.999Z</time>
      </trkpt>
      <trkpt lat="43.97593" lon="2.99009">
        <ele>641.1</ele>
        <time>2026-04-30T07:08:49.999Z</time>
      </trkpt>
      <trkpt lat="43.97593" lon="2.99009">
        <ele>641.4</ele>
        <time>2026-04-30T07:08:50.999Z</time>
      </trkpt>
      <trkpt lat="43.97593" lon="2.99009">
        <ele>641.3</ele>
        <time>2026-04-30T07:08:51.999Z</time>
      </trkpt>
      <trkpt lat="43.97592" lon="2.9901">
        <ele>641.6</ele>
        <time>2026-04-30T07:08:53.999Z</time>
      </trkpt>
      <trkpt lat="43.97592" lon="2.99009">
        <ele>641.6</ele>
        <time>2026-04-30T07:08:54.999Z</time>
      </trkpt>
      <trkpt lat="43.97592" lon="2.99009">
        <ele>641.6</ele>
        <time>2026-04-30T07:08:55.999Z</time>
      </trkpt>
      <trkpt lat="43.97591" lon="2.9901">
        <ele>641.8</ele>
        <time>2026-04-30T07:08:56.999Z</time>
      </trkpt>
      <trkpt lat="43.97591" lon="2.99009">
        <ele>641.9</ele>
        <time>2026-04-30T07:08:57.999Z</time>
      </trkpt>
      <trkpt lat="43.97592" lon="2.9901">
        <ele>642.3</ele>
        <time>2026-04-30T07:08:58.999Z</time>
      </trkpt>
      <trkpt lat="43.97593" lon="2.9901">
        <ele>642.4</ele>
        <time>2026-04-30T07:08:59.999Z</time>
      </trkpt>
      <trkpt lat="43.97593" lon="2.9901">
        <ele>642.4</ele>
        <time>2026-04-30T07:09:00.999Z</time>
      </trkpt>
      <trkpt lat="43.97592" lon="2.99009">
        <ele>642.2</ele>
        <time>2026-04-30T07:09:01.999Z</time>
      </trkpt>
      <trkpt lat="43.97591" lon="2.99009">
        <ele>642</ele>
        <time>2026-04-30T07:09:02.999Z</time>
      </trkpt>
      <trkpt lat="43.97591" lon="2.99009">
        <ele>641.9</ele>
        <time>2026-04-30T07:09:03.999Z</time>
      </trkpt>
      <trkpt lat="43.97591" lon="2.99011">
        <ele>641.4</ele>
        <time>2026-04-30T07:09:04.999Z</time>
      </trkpt>
      <trkpt lat="43.97591" lon="2.99012">
        <ele>641.5</ele>
        <time>2026-04-30T07:09:05.999Z</time>
      </trkpt>
      <trkpt lat="43.97591" lon="2.99014">
        <ele>641.6</ele>
        <time>2026-04-30T07:09:06.999Z</time>
      </trkpt>
      <trkpt lat="43.97591" lon="2.99016">
        <ele>641.9</ele>
        <time>2026-04-30T07:09:07.999Z</time>
      </trkpt>
      <trkpt lat="43.97589" lon="2.99017">
        <ele>641.9</ele>
        <time>2026-04-30T07:09:08.999Z</time>
      </trkpt>
      <trkpt lat="43.97589" lon="2.9902">
        <ele>641.8</ele>
        <time>2026-04-30T07:09:09.999Z</time>
      </trkpt>
      <trkpt lat="43.97588" lon="2.9902">
        <ele>643</ele>
        <time>2026-04-30T07:09:10.999Z</time>
      </trkpt>
      <trkpt lat="43.97588" lon="2.99019">
        <ele>644.3</ele>
        <time>2026-04-30T07:09:11.999Z</time>
      </trkpt>
      <trkpt lat="43.97588" lon="2.99019">
        <ele>645.2</ele>
        <time>2026-04-30T07:09:12.999Z</time>
      </trkpt>
      <trkpt lat="43.97588" lon="2.9902">
        <ele>644.8</ele>
        <time>2026-04-30T07:09:13.999Z</time>
      </trkpt>
      <trkpt lat="43.97587" lon="2.99022">
        <ele>644.4</ele>
        <time>2026-04-30T07:09:14.999Z</time>
      </trkpt>
      <trkpt lat="43.97585" lon="2.99022">
        <ele>642.9</ele>
        <time>2026-04-30T07:09:15.999Z</time>
      </trkpt>
      <trkpt lat="43.97585" lon="2.99025">
        <ele>642.9</ele>
        <time>2026-04-30T07:09:16.999Z</time>
      </trkpt>
      <trkpt lat="43.97584" lon="2.99027">
        <ele>642.5</ele>
        <time>2026-04-30T07:09:17.999Z</time>
      </trkpt>
      <trkpt lat="43.97582" lon="2.99027">
        <ele>641.4</ele>
        <time>2026-04-30T07:09:18.999Z</time>
      </trkpt>
      <trkpt lat="43.97581" lon="2.99027">
        <ele>640.4</ele>
        <time>2026-04-30T07:09:19.999Z</time>
      </trkpt>
      <trkpt lat="43.9758" lon="2.99029">
        <ele>640.1</ele>
        <time>2026-04-30T07:09:20.999Z</time>
      </trkpt>
      <trkpt lat="43.97579" lon="2.99031">
        <ele>639.8</ele>
        <time>2026-04-30T07:09:21.999Z</time>
      </trkpt>
      <trkpt lat="43.97578" lon="2.99033">
        <ele>639.9</ele>
        <time>2026-04-30T07:09:22.999Z</time>
      </trkpt>
      <trkpt lat="43.97577" lon="2.99034">
        <ele>639.8</ele>
        <time>2026-04-30T07:09:23.999Z</time>
      </trkpt>
      <trkpt lat="43.97576" lon="2.99035">
        <ele>639.8</ele>
        <time>2026-04-30T07:09:24.999Z</time>
      </trkpt>
      <trkpt lat="43.97575" lon="2.99035">
        <ele>640.3</ele>
        <time>2026-04-30T07:09:25.999Z</time>
      </trkpt>
      <trkpt lat="43.97575" lon="2.99036">
        <ele>641.1</ele>
        <time>2026-04-30T07:09:26.999Z</time>
      </trkpt>
      <trkpt lat="43.97574" lon="2.99037">
        <ele>642.1</ele>
        <time>2026-04-30T07:09:27.999Z</time>
      </trkpt>
      <trkpt lat="43.97573" lon="2.99039">
        <ele>642.5</ele>
        <time>2026-04-30T07:09:28.999Z</time>
      </trkpt>
      <trkpt lat="43.97573" lon="2.9904">
        <ele>642.6</ele>
        <time>2026-04-30T07:09:29.999Z</time>
      </trkpt>
      <trkpt lat="43.97572" lon="2.9904">
        <ele>642.5</ele>
        <time>2026-04-30T07:09:30.999Z</time>
      </trkpt>
      <trkpt lat="43.97572" lon="2.99041">
        <ele>642.9</ele>
        <time>2026-04-30T07:09:31.999Z</time>
      </trkpt>
      <trkpt lat="43.97571" lon="2.99043">
        <ele>643.6</ele>
        <time>2026-04-30T07:09:32.999Z</time>
      </trkpt>
      <trkpt lat="43.97571" lon="2.99045">
        <ele>644.4</ele>
        <time>2026-04-30T07:09:33.999Z</time>
      </trkpt>
      <trkpt lat="43.9757" lon="2.99046">
        <ele>645.2</ele>
        <time>2026-04-30T07:09:34.999Z</time>
      </trkpt>
      <trkpt lat="43.9757" lon="2.99046">
        <ele>644.8</ele>
        <time>2026-04-30T07:09:35.999Z</time>
      </trkpt>
      <trkpt lat="43.97569" lon="2.99045">
        <ele>643.6</ele>
        <time>2026-04-30T07:09:36.999Z</time>
      </trkpt>
      <trkpt lat="43.97569" lon="2.99045">
        <ele>644.3</ele>
        <time>2026-04-30T07:09:37.999Z</time>
      </trkpt>
      <trkpt lat="43.97569" lon="2.99044">
        <ele>645.5</ele>
        <time>2026-04-30T07:09:38.999Z</time>
      </trkpt>
      <trkpt lat="43.97569" lon="2.99044">
        <ele>645.5</ele>
        <time>2026-04-30T07:09:39.999Z</time>
      </trkpt>
      <trkpt lat="43.97569" lon="2.99044">
        <ele>643.6</ele>
        <time>2026-04-30T07:09:40.999Z</time>
      </trkpt>
      <trkpt lat="43.97569" lon="2.99045">
        <ele>643.9</ele>
        <time>2026-04-30T07:09:41.999Z</time>
      </trkpt>
      <trkpt lat="43.97568" lon="2.99046">
        <ele>644.1</ele>
        <time>2026-04-30T07:09:42.999Z</time>
      </trkpt>
      <trkpt lat="43.97567" lon="2.99048">
        <ele>644.8</ele>
        <time>2026-04-30T07:09:43.999Z</time>
      </trkpt>
      <trkpt lat="43.97566" lon="2.9905">
        <ele>645.3</ele>
        <time>2026-04-30T07:09:44.999Z</time>
      </trkpt>
      <trkpt lat="43.97566" lon="2.99051">
        <ele>645.5</ele>
        <time>2026-04-30T07:09:45.999Z</time>
      </trkpt>
      <trkpt lat="43.97565" lon="2.99052">
        <ele>645.6</ele>
        <time>2026-04-30T07:09:46.999Z</time>
      </trkpt>
      <trkpt lat="43.97565" lon="2.99052">
        <ele>645.5</ele>
        <time>2026-04-30T07:09:47.999Z</time>
      </trkpt>
      <trkpt lat="43.97564" lon="2.99053">
        <ele>645.9</ele>
        <time>2026-04-30T07:09:48.999Z</time>
      </trkpt>
      <trkpt lat="43.97564" lon="2.99053">
        <ele>646</ele>
        <time>2026-04-30T07:09:49.999Z</time>
      </trkpt>
      <trkpt lat="43.97564" lon="2.99053">
        <ele>646.4</ele>
        <time>2026-04-30T07:09:50.999Z</time>
      </trkpt>
      <trkpt lat="43.97564" lon="2.99054">
        <ele>647.1</ele>
        <time>2026-04-30T07:09:51.999Z</time>
      </trkpt>
      <trkpt lat="43.97563" lon="2.99054">
        <ele>647.5</ele>
        <time>2026-04-30T07:09:52.999Z</time>
      </trkpt>
      <trkpt lat="43.97563" lon="2.99055">
        <ele>647.6</ele>
        <time>2026-04-30T07:09:53.999Z</time>
      </trkpt>
      <trkpt lat="43.97563" lon="2.99055">
        <ele>648</ele>
        <time>2026-04-30T07:09:54.999Z</time>
      </trkpt>
      <trkpt lat="43.97562" lon="2.99056">
        <ele>648</ele>
        <time>2026-04-30T07:09:55.999Z</time>
      </trkpt>
      <trkpt lat="43.97562" lon="2.99057">
        <ele>648</ele>
        <time>2026-04-30T07:09:56.999Z</time>
      </trkpt>
      <trkpt lat="43.97562" lon="2.99057">
        <ele>647.8</ele>
        <time>2026-04-30T07:09:57.999Z</time>
      </trkpt>
      <trkpt lat="43.97561" lon="2.99057">
        <ele>647.4</ele>
        <time>2026-04-30T07:09:58.999Z</time>
      </trkpt>
      <trkpt lat="43.97561" lon="2.99057">
        <ele>646.6</ele>
        <time>2026-04-30T07:09:59.999Z</time>
      </trkpt>
      <trkpt lat="43.97561" lon="2.99057">
        <ele>646.6</ele>
        <time>2026-04-30T07:10:00.999Z</time>
      </trkpt>
      <trkpt lat="43.97561" lon="2.99057">
        <ele>646.7</ele>
        <time>2026-04-30T07:10:01.999Z</time>
      </trkpt>
      <trkpt lat="43.97561" lon="2.99058">
        <ele>646.7</ele>
        <time>2026-04-30T07:10:02.999Z</time>
      </trkpt>
      <trkpt lat="43.97561" lon="2.99058">
        <ele>646.7</ele>
        <time>2026-04-30T07:10:03.999Z</time>
      </trkpt>
      <trkpt lat="43.97561" lon="2.99058">
        <ele>646.5</ele>
        <time>2026-04-30T07:10:04.999Z</time>
      </trkpt>
      <trkpt lat="43.97561" lon="2.99059">
        <ele>646.6</ele>
        <time>2026-04-30T07:10:05.999Z</time>
      </trkpt>
      <trkpt lat="43.97561" lon="2.9906">
        <ele>646.6</ele>
        <time>2026-04-30T07:10:06.999Z</time>
      </trkpt>
      <trkpt lat="43.97562" lon="2.99061">
        <ele>646.5</ele>
        <time>2026-04-30T07:10:07.999Z</time>
      </trkpt>
      <trkpt lat="43.97561" lon="2.99062">
        <ele>646.7</ele>
        <time>2026-04-30T07:10:08.999Z</time>
      </trkpt>
      <trkpt lat="43.97561" lon="2.99062">
        <ele>646.9</ele>
        <time>2026-04-30T07:10:09.999Z</time>
      </trkpt>
      <trkpt lat="43.97561" lon="2.99064">
        <ele>647.2</ele>
        <time>2026-04-30T07:10:10.999Z</time>
      </trkpt>
      <trkpt lat="43.9756" lon="2.99065">
        <ele>647.2</ele>
        <time>2026-04-30T07:10:11.999Z</time>
      </trkpt>
      <trkpt lat="43.9756" lon="2.99066">
        <ele>647.3</ele>
        <time>2026-04-30T07:10:12.999Z</time>
      </trkpt>
      <trkpt lat="43.9756" lon="2.99067">
        <ele>647.4</ele>
        <time>2026-04-30T07:10:13.999Z</time>
      </trkpt>
      <trkpt lat="43.97559" lon="2.99068">
        <ele>647.4</ele>
        <time>2026-04-30T07:10:14.999Z</time>
      </trkpt>
      <trkpt lat="43.97559" lon="2.99068">
        <ele>647.3</ele>
        <time>2026-04-30T07:10:15.999Z</time>
      </trkpt>
      <trkpt lat="43.97559" lon="2.99069">
        <ele>647.3</ele>
        <time>2026-04-30T07:10:16.999Z</time>
      </trkpt>
      <trkpt lat="43.97558" lon="2.9907">
        <ele>647.1</ele>
        <time>2026-04-30T07:10:17.999Z</time>
      </trkpt>
      <trkpt lat="43.97558" lon="2.99071">
        <ele>647.3</ele>
        <time>2026-04-30T07:10:18.999Z</time>
      </trkpt>
      <trkpt lat="43.97557" lon="2.99071">
        <ele>647.1</ele>
        <time>2026-04-30T07:10:19.999Z</time>
      </trkpt>
      <trkpt lat="43.97557" lon="2.99072">
        <ele>646.9</ele>
        <time>2026-04-30T07:10:20.999Z</time>
      </trkpt>
      <trkpt lat="43.97556" lon="2.99072">
        <ele>646.9</ele>
        <time>2026-04-30T07:10:21.999Z</time>
      </trkpt>
      <trkpt lat="43.97555" lon="2.99073">
        <ele>647.1</ele>
        <time>2026-04-30T07:10:22.999Z</time>
      </trkpt>
      <trkpt lat="43.97555" lon="2.99073">
        <ele>647.4</ele>
        <time>2026-04-30T07:10:23.999Z</time>
      </trkpt>
      <trkpt lat="43.97554" lon="2.99074">
        <ele>647.5</ele>
        <time>2026-04-30T07:10:24.999Z</time>
      </trkpt>
      <trkpt lat="43.97554" lon="2.99074">
        <ele>647.6</ele>
        <time>2026-04-30T07:10:25.999Z</time>
      </trkpt>
      <trkpt lat="43.97554" lon="2.99073">
        <ele>647.6</ele>
        <time>2026-04-30T07:10:26.999Z</time>
      </trkpt>
      <trkpt lat="43.97553" lon="2.99073">
        <ele>647.6</ele>
        <time>2026-04-30T07:10:27.999Z</time>
      </trkpt>
      <trkpt lat="43.97553" lon="2.99072">
        <ele>647.6</ele>
        <time>2026-04-30T07:10:28.999Z</time>
      </trkpt>
      <trkpt lat="43.97553" lon="2.99072">
        <ele>647.5</ele>
        <time>2026-04-30T07:10:29.999Z</time>
      </trkpt>
      <trkpt lat="43.97553" lon="2.99071">
        <ele>647.6</ele>
        <time>2026-04-30T07:10:30.999Z</time>
      </trkpt>
      <trkpt lat="43.97553" lon="2.99071">
        <ele>647.4</ele>
        <time>2026-04-30T07:10:31.999Z</time>
      </trkpt>
      <trkpt lat="43.97553" lon="2.99071">
        <ele>648.3</ele>
        <time>2026-04-30T07:10:32.999Z</time>
      </trkpt>
      <trkpt lat="43.97553" lon="2.99071">
        <ele>648.4</ele>
        <time>2026-04-30T07:10:33.999Z</time>
      </trkpt>
      <trkpt lat="43.97553" lon="2.99071">
        <ele>648.5</ele>
        <time>2026-04-30T07:10:34.999Z</time>
      </trkpt>
      <trkpt lat="43.97553" lon="2.99071">
        <ele>648.6</ele>
        <time>2026-04-30T07:10:35.999Z</time>
      </trkpt>
      <trkpt lat="43.97553" lon="2.99071">
        <ele>648.9</ele>
        <time>2026-04-30T07:10:36.999Z</time>
      </trkpt>
      <trkpt lat="43.97553" lon="2.99071">
        <ele>649</ele>
        <time>2026-04-30T07:10:37.999Z</time>
      </trkpt>
      <trkpt lat="43.97553" lon="2.9907">
        <ele>648.9</ele>
        <time>2026-04-30T07:10:38.999Z</time>
      </trkpt>
      <trkpt lat="43.97553" lon="2.9907">
        <ele>648.9</ele>
        <time>2026-04-30T07:10:39.999Z</time>
      </trkpt>
      <trkpt lat="43.97553" lon="2.99069">
        <ele>649</ele>
        <time>2026-04-30T07:10:40.999Z</time>
      </trkpt>
      <trkpt lat="43.97552" lon="2.99068">
        <ele>649</ele>
        <time>2026-04-30T07:10:41.999Z</time>
      </trkpt>
      <trkpt lat="43.97552" lon="2.99067">
        <ele>649</ele>
        <time>2026-04-30T07:10:42.999Z</time>
      </trkpt>
      <trkpt lat="43.97551" lon="2.99066">
        <ele>649</ele>
        <time>2026-04-30T07:10:43.999Z</time>
      </trkpt>
      <trkpt lat="43.97551" lon="2.99065">
        <ele>649.1</ele>
        <time>2026-04-30T07:10:44.999Z</time>
      </trkpt>
      <trkpt lat="43.97551" lon="2.99064">
        <ele>649.1</ele>
        <time>2026-04-30T07:10:45.999Z</time>
      </trkpt>
      <trkpt lat="43.9755" lon="2.99063">
        <ele>649.1</ele>
        <time>2026-04-30T07:10:46.999Z</time>
      </trkpt>
      <trkpt lat="43.9755" lon="2.99062">
        <ele>649.2</ele>
        <time>2026-04-30T07:10:47.999Z</time>
      </trkpt>
      <trkpt lat="43.97549" lon="2.99061">
        <ele>649.5</ele>
        <time>2026-04-30T07:10:48.999Z</time>
      </trkpt>
      <trkpt lat="43.97549" lon="2.9906">
        <ele>649.7</ele>
        <time>2026-04-30T07:10:49.999Z</time>
      </trkpt>
      <trkpt lat="43.97549" lon="2.99059">
        <ele>649.8</ele>
        <time>2026-04-30T07:10:50.999Z</time>
      </trkpt>
      <trkpt lat="43.97548" lon="2.99058">
        <ele>650</ele>
        <time>2026-04-30T07:10:51.999Z</time>
      </trkpt>
      <trkpt lat="43.97548" lon="2.99058">
        <ele>650.5</ele>
        <time>2026-04-30T07:10:52.999Z</time>
      </trkpt>
      <trkpt lat="43.97548" lon="2.99058">
        <ele>650.6</ele>
        <time>2026-04-30T07:10:53.999Z</time>
      </trkpt>
      <trkpt lat="43.97548" lon="2.99058">
        <ele>650.7</ele>
        <time>2026-04-30T07:10:54.999Z</time>
      </trkpt>
      <trkpt lat="43.97548" lon="2.99058">
        <ele>650.9</ele>
        <time>2026-04-30T07:10:55.999Z</time>
      </trkpt>
      <trkpt lat="43.97548" lon="2.99058">
        <ele>650.9</ele>
        <time>2026-04-30T07:10:56.999Z</time>
      </trkpt>
      <trkpt lat="43.97548" lon="2.99057">
        <ele>651</ele>
        <time>2026-04-30T07:10:57.999Z</time>
      </trkpt>
      <trkpt lat="43.97547" lon="2.99056">
        <ele>651.2</ele>
        <time>2026-04-30T07:10:58.999Z</time>
      </trkpt>
      <trkpt lat="43.97547" lon="2.99056">
        <ele>651.4</ele>
        <time>2026-04-30T07:10:59.999Z</time>
      </trkpt>
      <trkpt lat="43.97547" lon="2.99055">
        <ele>651.3</ele>
        <time>2026-04-30T07:11:00.999Z</time>
      </trkpt>
      <trkpt lat="43.97546" lon="2.99055">
        <ele>651.4</ele>
        <time>2026-04-30T07:11:01.999Z</time>
      </trkpt>
      <trkpt lat="43.97546" lon="2.99054">
        <ele>651.5</ele>
        <time>2026-04-30T07:11:02.999Z</time>
      </trkpt>
      <trkpt lat="43.97546" lon="2.99052">
        <ele>651.6</ele>
        <time>2026-04-30T07:11:03.999Z</time>
      </trkpt>
      <trkpt lat="43.97546" lon="2.99051">
        <ele>651.7</ele>
        <time>2026-04-30T07:11:04.999Z</time>
      </trkpt>
      <trkpt lat="43.97545" lon="2.9905">
        <ele>651.7</ele>
        <time>2026-04-30T07:11:05.999Z</time>
      </trkpt>
      <trkpt lat="43.97545" lon="2.99049">
        <ele>651.7</ele>
        <time>2026-04-30T07:11:06.999Z</time>
      </trkpt>
      <trkpt lat="43.97545" lon="2.99048">
        <ele>651.5</ele>
        <time>2026-04-30T07:11:07.999Z</time>
      </trkpt>
      <trkpt lat="43.97545" lon="2.99048">
        <ele>651.6</ele>
        <time>2026-04-30T07:11:08.999Z</time>
      </trkpt>
      <trkpt lat="43.97544" lon="2.99049">
        <ele>651.2</ele>
        <time>2026-04-30T07:11:10.999Z</time>
      </trkpt>
      <trkpt lat="43.97544" lon="2.99049">
        <ele>651.4</ele>
        <time>2026-04-30T07:11:11.999Z</time>
      </trkpt>
      <trkpt lat="43.97543" lon="2.99051">
        <ele>651.4</ele>
        <time>2026-04-30T07:11:12.999Z</time>
      </trkpt>
      <trkpt lat="43.97543" lon="2.99053">
        <ele>651.7</ele>
        <time>2026-04-30T07:11:13.999Z</time>
      </trkpt>
      <trkpt lat="43.97542" lon="2.99053">
        <ele>652.1</ele>
        <time>2026-04-30T07:11:14.999Z</time>
      </trkpt>
      <trkpt lat="43.97541" lon="2.99054">
        <ele>652.5</ele>
        <time>2026-04-30T07:11:15.999Z</time>
      </trkpt>
      <trkpt lat="43.9754" lon="2.99054">
        <ele>652.8</ele>
        <time>2026-04-30T07:11:16.999Z</time>
      </trkpt>
      <trkpt lat="43.9754" lon="2.99054">
        <ele>653.2</ele>
        <time>2026-04-30T07:11:17.999Z</time>
      </trkpt>
      <trkpt lat="43.97539" lon="2.99053">
        <ele>652.9</ele>
        <time>2026-04-30T07:11:18.999Z</time>
      </trkpt>
      <trkpt lat="43.97539" lon="2.99053">
        <ele>652.6</ele>
        <time>2026-04-30T07:11:19.999Z</time>
      </trkpt>
      <trkpt lat="43.97538" lon="2.99053">
        <ele>652.9</ele>
        <time>2026-04-30T07:11:20.999Z</time>
      </trkpt>
      <trkpt lat="43.97538" lon="2.99054">
        <ele>653.1</ele>
        <time>2026-04-30T07:11:21.999Z</time>
      </trkpt>
      <trkpt lat="43.97538" lon="2.99054">
        <ele>654</ele>
        <time>2026-04-30T07:11:22.999Z</time>
      </trkpt>
      <trkpt lat="43.97538" lon="2.99054">
        <ele>654.1</ele>
        <time>2026-04-30T07:11:23.999Z</time>
      </trkpt>
      <trkpt lat="43.97536" lon="2.99055">
        <ele>654.4</ele>
        <time>2026-04-30T07:11:24.999Z</time>
      </trkpt>
      <trkpt lat="43.97535" lon="2.99056">
        <ele>654.8</ele>
        <time>2026-04-30T07:11:25.999Z</time>
      </trkpt>
      <trkpt lat="43.97534" lon="2.99055">
        <ele>654.6</ele>
        <time>2026-04-30T07:11:26.999Z</time>
      </trkpt>
      <trkpt lat="43.97533" lon="2.99054">
        <ele>654.3</ele>
        <time>2026-04-30T07:11:27.999Z</time>
      </trkpt>
      <trkpt lat="43.97532" lon="2.99053">
        <ele>654.1</ele>
        <time>2026-04-30T07:11:28.999Z</time>
      </trkpt>
      <trkpt lat="43.97531" lon="2.99052">
        <ele>653.9</ele>
        <time>2026-04-30T07:11:29.999Z</time>
      </trkpt>
      <trkpt lat="43.97532" lon="2.99051">
        <ele>653.3</ele>
        <time>2026-04-30T07:11:30.999Z</time>
      </trkpt>
      <trkpt lat="43.97531" lon="2.9905">
        <ele>653.3</ele>
        <time>2026-04-30T07:11:31.999Z</time>
      </trkpt>
      <trkpt lat="43.97531" lon="2.99049">
        <ele>653.1</ele>
        <time>2026-04-30T07:11:32.999Z</time>
      </trkpt>
      <trkpt lat="43.97531" lon="2.99049">
        <ele>653.1</ele>
        <time>2026-04-30T07:11:33.999Z</time>
      </trkpt>
      <trkpt lat="43.97531" lon="2.99049">
        <ele>653.1</ele>
        <time>2026-04-30T07:11:34.999Z</time>
      </trkpt>
      <trkpt lat="43.9753" lon="2.99049">
        <ele>653.2</ele>
        <time>2026-04-30T07:11:35.999Z</time>
      </trkpt>
      <trkpt lat="43.97531" lon="2.99051">
        <ele>653.5</ele>
        <time>2026-04-30T07:11:36.999Z</time>
      </trkpt>
      <trkpt lat="43.97532" lon="2.9905">
        <ele>653.2</ele>
        <time>2026-04-30T07:11:37.999Z</time>
      </trkpt>
      <trkpt lat="43.97533" lon="2.99051">
        <ele>653.2</ele>
        <time>2026-04-30T07:11:38.999Z</time>
      </trkpt>
      <trkpt lat="43.97533" lon="2.99049">
        <ele>652.6</ele>
        <time>2026-04-30T07:11:39.999Z</time>
      </trkpt>
      <trkpt lat="43.97533" lon="2.99048">
        <ele>652.8</ele>
        <time>2026-04-30T07:11:40.999Z</time>
      </trkpt>
      <trkpt lat="43.97532" lon="2.99048">
        <ele>653.1</ele>
        <time>2026-04-30T07:11:41.999Z</time>
      </trkpt>
      <trkpt lat="43.97532" lon="2.99048">
        <ele>653.1</ele>
        <time>2026-04-30T07:11:42.999Z</time>
      </trkpt>
      <trkpt lat="43.97532" lon="2.99047">
        <ele>654.3</ele>
        <time>2026-04-30T07:11:43.999Z</time>
      </trkpt>
      <trkpt lat="43.97532" lon="2.99043">
        <ele>654.6</ele>
        <time>2026-04-30T07:11:44.999Z</time>
      </trkpt>
      <trkpt lat="43.97531" lon="2.9904">
        <ele>654.6</ele>
        <time>2026-04-30T07:11:45.999Z</time>
      </trkpt>
      <trkpt lat="43.97531" lon="2.99037">
        <ele>654.7</ele>
        <time>2026-04-30T07:11:46.999Z</time>
      </trkpt>
      <trkpt lat="43.97532" lon="2.99035">
        <ele>654.6</ele>
        <time>2026-04-30T07:11:47.999Z</time>
      </trkpt>
      <trkpt lat="43.97532" lon="2.99033">
        <ele>654.8</ele>
        <time>2026-04-30T07:11:48.999Z</time>
      </trkpt>
      <trkpt lat="43.97531" lon="2.9903">
        <ele>655.3</ele>
        <time>2026-04-30T07:11:49.999Z</time>
      </trkpt>
      <trkpt lat="43.97532" lon="2.99028">
        <ele>656.4</ele>
        <time>2026-04-30T07:11:50.999Z</time>
      </trkpt>
      <trkpt lat="43.97533" lon="2.99025">
        <ele>657.9</ele>
        <time>2026-04-30T07:11:51.999Z</time>
      </trkpt>
      <trkpt lat="43.97533" lon="2.99022">
        <ele>658.9</ele>
        <time>2026-04-30T07:11:52.999Z</time>
      </trkpt>
      <trkpt lat="43.97534" lon="2.9902">
        <ele>659.5</ele>
        <time>2026-04-30T07:11:53.999Z</time>
      </trkpt>
      <trkpt lat="43.97534" lon="2.99019">
        <ele>659.5</ele>
        <time>2026-04-30T07:11:54.999Z</time>
      </trkpt>
      <trkpt lat="43.97535" lon="2.99017">
        <ele>659.6</ele>
        <time>2026-04-30T07:11:55.999Z</time>
      </trkpt>
      <trkpt lat="43.97535" lon="2.99015">
        <ele>660.1</ele>
        <time>2026-04-30T07:11:56.999Z</time>
      </trkpt>
      <trkpt lat="43.97536" lon="2.99013">
        <ele>660.2</ele>
        <time>2026-04-30T07:11:57.999Z</time>
      </trkpt>
      <trkpt lat="43.97536" lon="2.99012">
        <ele>660.2</ele>
        <time>2026-04-30T07:11:58.999Z</time>
      </trkpt>
      <trkpt lat="43.97536" lon="2.9901">
        <ele>660</ele>
        <time>2026-04-30T07:11:59.999Z</time>
      </trkpt>
      <trkpt lat="43.97537" lon="2.99009">
        <ele>659.7</ele>
        <time>2026-04-30T07:12:00.999Z</time>
      </trkpt>
      <trkpt lat="43.97538" lon="2.99007">
        <ele>659.6</ele>
        <time>2026-04-30T07:12:01.999Z</time>
      </trkpt>
      <trkpt lat="43.97537" lon="2.99006">
        <ele>659.6</ele>
        <time>2026-04-30T07:12:02.999Z</time>
      </trkpt>
      <trkpt lat="43.97537" lon="2.99005">
        <ele>659.9</ele>
        <time>2026-04-30T07:12:03.999Z</time>
      </trkpt>
      <trkpt lat="43.97537" lon="2.99003">
        <ele>659.8</ele>
        <time>2026-04-30T07:12:04.999Z</time>
      </trkpt>
      <trkpt lat="43.97537" lon="2.99001">
        <ele>660</ele>
        <time>2026-04-30T07:12:05.999Z</time>
      </trkpt>
      <trkpt lat="43.97537" lon="2.98999">
        <ele>659.8</ele>
        <time>2026-04-30T07:12:06.999Z</time>
      </trkpt>
      <trkpt lat="43.97537" lon="2.98998">
        <ele>659.5</ele>
        <time>2026-04-30T07:12:07.999Z</time>
      </trkpt>
      <trkpt lat="43.97538" lon="2.98996">
        <ele>659.2</ele>
        <time>2026-04-30T07:12:08.999Z</time>
      </trkpt>
      <trkpt lat="43.97538" lon="2.98995">
        <ele>658.8</ele>
        <time>2026-04-30T07:12:09.999Z</time>
      </trkpt>
      <trkpt lat="43.97538" lon="2.98993">
        <ele>658.8</ele>
        <time>2026-04-30T07:12:10.999Z</time>
      </trkpt>
      <trkpt lat="43.97538" lon="2.98992">
        <ele>658.6</ele>
        <time>2026-04-30T07:12:11.999Z</time>
      </trkpt>
      <trkpt lat="43.97539" lon="2.98991">
        <ele>658.8</ele>
        <time>2026-04-30T07:12:12.999Z</time>
      </trkpt>
      <trkpt lat="43.9754" lon="2.9899">
        <ele>659.1</ele>
        <time>2026-04-30T07:12:13.999Z</time>
      </trkpt>
      <trkpt lat="43.97539" lon="2.98989">
        <ele>659.3</ele>
        <time>2026-04-30T07:12:14.999Z</time>
      </trkpt>
      <trkpt lat="43.97539" lon="2.98988">
        <ele>659.6</ele>
        <time>2026-04-30T07:12:15.999Z</time>
      </trkpt>
      <trkpt lat="43.97539" lon="2.98986">
        <ele>659.4</ele>
        <time>2026-04-30T07:12:16.999Z</time>
      </trkpt>
      <trkpt lat="43.97539" lon="2.98984">
        <ele>659.5</ele>
        <time>2026-04-30T07:12:17.999Z</time>
      </trkpt>
      <trkpt lat="43.97539" lon="2.98983">
        <ele>659.8</ele>
        <time>2026-04-30T07:12:18.999Z</time>
      </trkpt>
      <trkpt lat="43.9754" lon="2.98983">
        <ele>660.2</ele>
        <time>2026-04-30T07:12:19.999Z</time>
      </trkpt>
      <trkpt lat="43.97541" lon="2.98982">
        <ele>660.2</ele>
        <time>2026-04-30T07:12:20.999Z</time>
      </trkpt>
      <trkpt lat="43.97542" lon="2.98981">
        <ele>660</ele>
        <time>2026-04-30T07:12:21.999Z</time>
      </trkpt>
      <trkpt lat="43.97542" lon="2.98979">
        <ele>660</ele>
        <time>2026-04-30T07:12:22.999Z</time>
      </trkpt>
      <trkpt lat="43.97542" lon="2.98978">
        <ele>660</ele>
        <time>2026-04-30T07:12:23.999Z</time>
      </trkpt>
      <trkpt lat="43.97542" lon="2.98976">
        <ele>659.8</ele>
        <time>2026-04-30T07:12:24.999Z</time>
      </trkpt>
      <trkpt lat="43.97543" lon="2.98975">
        <ele>660</ele>
        <time>2026-04-30T07:12:25.999Z</time>
      </trkpt>
      <trkpt lat="43.97543" lon="2.98974">
        <ele>660.5</ele>
        <time>2026-04-30T07:12:26.999Z</time>
      </trkpt>
      <trkpt lat="43.97543" lon="2.98973">
        <ele>660.9</ele>
        <time>2026-04-30T07:12:27.999Z</time>
      </trkpt>
      <trkpt lat="43.97543" lon="2.98972">
        <ele>661</ele>
        <time>2026-04-30T07:12:28.999Z</time>
      </trkpt>
      <trkpt lat="43.97543" lon="2.9897">
        <ele>661.2</ele>
        <time>2026-04-30T07:12:29.999Z</time>
      </trkpt>
      <trkpt lat="43.97542" lon="2.98969">
        <ele>661.3</ele>
        <time>2026-04-30T07:12:30.999Z</time>
      </trkpt>
      <trkpt lat="43.97542" lon="2.98967">
        <ele>661.3</ele>
        <time>2026-04-30T07:12:31.999Z</time>
      </trkpt>
      <trkpt lat="43.97542" lon="2.98966">
        <ele>661.2</ele>
        <time>2026-04-30T07:12:32.999Z</time>
      </trkpt>
      <trkpt lat="43.97542" lon="2.98964">
        <ele>661.2</ele>
        <time>2026-04-30T07:12:33.999Z</time>
      </trkpt>
      <trkpt lat="43.97542" lon="2.98963">
        <ele>661.1</ele>
        <time>2026-04-30T07:12:34.999Z</time>
      </trkpt>
      <trkpt lat="43.97542" lon="2.98962">
        <ele>661.2</ele>
        <time>2026-04-30T07:12:35.999Z</time>
      </trkpt>
      <trkpt lat="43.97543" lon="2.9896">
        <ele>661.1</ele>
        <time>2026-04-30T07:12:36.999Z</time>
      </trkpt>
      <trkpt lat="43.97543" lon="2.98959">
        <ele>661.4</ele>
        <time>2026-04-30T07:12:37.999Z</time>
      </trkpt>
      <trkpt lat="43.97544" lon="2.98958">
        <ele>661.4</ele>
        <time>2026-04-30T07:12:38.999Z</time>
      </trkpt>
      <trkpt lat="43.97544" lon="2.98957">
        <ele>661.2</ele>
        <time>2026-04-30T07:12:39.999Z</time>
      </trkpt>
      <trkpt lat="43.97544" lon="2.98955">
        <ele>661.2</ele>
        <time>2026-04-30T07:12:40.999Z</time>
      </trkpt>
      <trkpt lat="43.97545" lon="2.98954">
        <ele>661.3</ele>
        <time>2026-04-30T07:12:41.999Z</time>
      </trkpt>
      <trkpt lat="43.97545" lon="2.98952">
        <ele>661.2</ele>
        <time>2026-04-30T07:12:42.999Z</time>
      </trkpt>
      <trkpt lat="43.97546" lon="2.98951">
        <ele>661.4</ele>
        <time>2026-04-30T07:12:43.999Z</time>
      </trkpt>
      <trkpt lat="43.97547" lon="2.98951">
        <ele>661.5</ele>
        <time>2026-04-30T07:12:44.999Z</time>
      </trkpt>
      <trkpt lat="43.97548" lon="2.9895">
        <ele>661.3</ele>
        <time>2026-04-30T07:12:45.999Z</time>
      </trkpt>
      <trkpt lat="43.97548" lon="2.98949">
        <ele>661.3</ele>
        <time>2026-04-30T07:12:46.999Z</time>
      </trkpt>
      <trkpt lat="43.97548" lon="2.98947">
        <ele>661.3</ele>
        <time>2026-04-30T07:12:47.999Z</time>
      </trkpt>
      <trkpt lat="43.97549" lon="2.98946">
        <ele>661.4</ele>
        <time>2026-04-30T07:12:48.999Z</time>
      </trkpt>
      <trkpt lat="43.9755" lon="2.98945">
        <ele>661.4</ele>
        <time>2026-04-30T07:12:49.999Z</time>
      </trkpt>
      <trkpt lat="43.9755" lon="2.98944">
        <ele>660.8</ele>
        <time>2026-04-30T07:12:50.999Z</time>
      </trkpt>
      <trkpt lat="43.9755" lon="2.98943">
        <ele>660.7</ele>
        <time>2026-04-30T07:12:51.999Z</time>
      </trkpt>
      <trkpt lat="43.97551" lon="2.98941">
        <ele>660.4</ele>
        <time>2026-04-30T07:12:52.999Z</time>
      </trkpt>
      <trkpt lat="43.97551" lon="2.98939">
        <ele>660.7</ele>
        <time>2026-04-30T07:12:53.999Z</time>
      </trkpt>
      <trkpt lat="43.97551" lon="2.98938">
        <ele>660.7</ele>
        <time>2026-04-30T07:12:54.999Z</time>
      </trkpt>
      <trkpt lat="43.97552" lon="2.98937">
        <ele>660.7</ele>
        <time>2026-04-30T07:12:55.999Z</time>
      </trkpt>
      <trkpt lat="43.97553" lon="2.98936">
        <ele>660.2</ele>
        <time>2026-04-30T07:12:56.999Z</time>
      </trkpt>
      <trkpt lat="43.97554" lon="2.98935">
        <ele>660</ele>
        <time>2026-04-30T07:12:57.999Z</time>
      </trkpt>
      <trkpt lat="43.97555" lon="2.98934">
        <ele>659.9</ele>
        <time>2026-04-30T07:12:58.999Z</time>
      </trkpt>
      <trkpt lat="43.97556" lon="2.98932">
        <ele>659.3</ele>
        <time>2026-04-30T07:12:59.999Z</time>
      </trkpt>
      <trkpt lat="43.97557" lon="2.9893">
        <ele>659</ele>
        <time>2026-04-30T07:13:00.999Z</time>
      </trkpt>
      <trkpt lat="43.97557" lon="2.98929">
        <ele>658.8</ele>
        <time>2026-04-30T07:13:01.999Z</time>
      </trkpt>
      <trkpt lat="43.97558" lon="2.98928">
        <ele>658.8</ele>
        <time>2026-04-30T07:13:02.999Z</time>
      </trkpt>
      <trkpt lat="43.97559" lon="2.98927">
        <ele>659.4</ele>
        <time>2026-04-30T07:13:03.999Z</time>
      </trkpt>
      <trkpt lat="43.97559" lon="2.98926">
        <ele>659.5</ele>
        <time>2026-04-30T07:13:04.999Z</time>
      </trkpt>
      <trkpt lat="43.9756" lon="2.98925">
        <ele>659.4</ele>
        <time>2026-04-30T07:13:05.999Z</time>
      </trkpt>
      <trkpt lat="43.9756" lon="2.98924">
        <ele>659.6</ele>
        <time>2026-04-30T07:13:06.999Z</time>
      </trkpt>
      <trkpt lat="43.97561" lon="2.98923">
        <ele>659.6</ele>
        <time>2026-04-30T07:13:07.999Z</time>
      </trkpt>
      <trkpt lat="43.97562" lon="2.98923">
        <ele>659.8</ele>
        <time>2026-04-30T07:13:08.999Z</time>
      </trkpt>
      <trkpt lat="43.97562" lon="2.98923">
        <ele>659.7</ele>
        <time>2026-04-30T07:13:09.999Z</time>
      </trkpt>
      <trkpt lat="43.97563" lon="2.98922">
        <ele>659.3</ele>
        <time>2026-04-30T07:13:10.999Z</time>
      </trkpt>
      <trkpt lat="43.97564" lon="2.98921">
        <ele>659</ele>
        <time>2026-04-30T07:13:11.999Z</time>
      </trkpt>
      <trkpt lat="43.97564" lon="2.9892">
        <ele>659.1</ele>
        <time>2026-04-30T07:13:12.999Z</time>
      </trkpt>
      <trkpt lat="43.97565" lon="2.98918">
        <ele>659.3</ele>
        <time>2026-04-30T07:13:13.999Z</time>
      </trkpt>
      <trkpt lat="43.97564" lon="2.98917">
        <ele>659.4</ele>
        <time>2026-04-30T07:13:14.999Z</time>
      </trkpt>
      <trkpt lat="43.97565" lon="2.98915">
        <ele>660</ele>
        <time>2026-04-30T07:13:15.999Z</time>
      </trkpt>
      <trkpt lat="43.97564" lon="2.98913">
        <ele>659.9</ele>
        <time>2026-04-30T07:13:16.999Z</time>
      </trkpt>
      <trkpt lat="43.97564" lon="2.9891">
        <ele>660</ele>
        <time>2026-04-30T07:13:17.999Z</time>
      </trkpt>
      <trkpt lat="43.97563" lon="2.98908">
        <ele>659.9</ele>
        <time>2026-04-30T07:13:18.999Z</time>
      </trkpt>
      <trkpt lat="43.97563" lon="2.98906">
        <ele>660.3</ele>
        <time>2026-04-30T07:13:19.999Z</time>
      </trkpt>
      <trkpt lat="43.97562" lon="2.98903">
        <ele>660.7</ele>
        <time>2026-04-30T07:13:20.999Z</time>
      </trkpt>
      <trkpt lat="43.97562" lon="2.98902">
        <ele>661</ele>
        <time>2026-04-30T07:13:21.999Z</time>
      </trkpt>
      <trkpt lat="43.97563" lon="2.98901">
        <ele>661.7</ele>
        <time>2026-04-30T07:13:22.999Z</time>
      </trkpt>
      <trkpt lat="43.97564" lon="2.989">
        <ele>661.5</ele>
        <time>2026-04-30T07:13:23.999Z</time>
      </trkpt>
      <trkpt lat="43.97564" lon="2.989">
        <ele>660.8</ele>
        <time>2026-04-30T07:13:24.999Z</time>
      </trkpt>
      <trkpt lat="43.97564" lon="2.98899">
        <ele>660.5</ele>
        <time>2026-04-30T07:13:25.999Z</time>
      </trkpt>
      <trkpt lat="43.97564" lon="2.98899">
        <ele>660.2</ele>
        <time>2026-04-30T07:13:26.999Z</time>
      </trkpt>
      <trkpt lat="43.97564" lon="2.98899">
        <ele>660.3</ele>
        <time>2026-04-30T07:13:27.999Z</time>
      </trkpt>
      <trkpt lat="43.97563" lon="2.98898">
        <ele>660.4</ele>
        <time>2026-04-30T07:13:28.999Z</time>
      </trkpt>
      <trkpt lat="43.97563" lon="2.98898">
        <ele>660.4</ele>
        <time>2026-04-30T07:13:29.999Z</time>
      </trkpt>
      <trkpt lat="43.97563" lon="2.98897">
        <ele>660.8</ele>
        <time>2026-04-30T07:13:30.999Z</time>
      </trkpt>
      <trkpt lat="43.97563" lon="2.98896">
        <ele>660.6</ele>
        <time>2026-04-30T07:13:31.999Z</time>
      </trkpt>
      <trkpt lat="43.97563" lon="2.98896">
        <ele>660.1</ele>
        <time>2026-04-30T07:13:32.999Z</time>
      </trkpt>
      <trkpt lat="43.97563" lon="2.98895">
        <ele>659.8</ele>
        <time>2026-04-30T07:13:33.999Z</time>
      </trkpt>
      <trkpt lat="43.97563" lon="2.98895">
        <ele>658.9</ele>
        <time>2026-04-30T07:13:34.999Z</time>
      </trkpt>
      <trkpt lat="43.97563" lon="2.98895">
        <ele>658.9</ele>
        <time>2026-04-30T07:13:35.999Z</time>
      </trkpt>
      <trkpt lat="43.97563" lon="2.98895">
        <ele>658.8</ele>
        <time>2026-04-30T07:13:36.999Z</time>
      </trkpt>
      <trkpt lat="43.97563" lon="2.98895">
        <ele>658.6</ele>
        <time>2026-04-30T07:13:37.999Z</time>
      </trkpt>
      <trkpt lat="43.97562" lon="2.98896">
        <ele>658.2</ele>
        <time>2026-04-30T07:13:38.999Z</time>
      </trkpt>
      <trkpt lat="43.97562" lon="2.98896">
        <ele>658</ele>
        <time>2026-04-30T07:13:39.999Z</time>
      </trkpt>
      <trkpt lat="43.97562" lon="2.98896">
        <ele>657.7</ele>
        <time>2026-04-30T07:13:40.999Z</time>
      </trkpt>
      <trkpt lat="43.97562" lon="2.98897">
        <ele>657.5</ele>
        <time>2026-04-30T07:13:41.999Z</time>
      </trkpt>
      <trkpt lat="43.97561" lon="2.98897">
        <ele>657.5</ele>
        <time>2026-04-30T07:13:42.999Z</time>
      </trkpt>
      <trkpt lat="43.97562" lon="2.98898">
        <ele>658.1</ele>
        <time>2026-04-30T07:13:43.999Z</time>
      </trkpt>
      <trkpt lat="43.97563" lon="2.98899">
        <ele>657.9</ele>
        <time>2026-04-30T07:13:44.999Z</time>
      </trkpt>
      <trkpt lat="43.97563" lon="2.989">
        <ele>657.7</ele>
        <time>2026-04-30T07:13:45.999Z</time>
      </trkpt>
      <trkpt lat="43.97563" lon="2.98899">
        <ele>657.7</ele>
        <time>2026-04-30T07:13:46.999Z</time>
      </trkpt>
      <trkpt lat="43.97564" lon="2.98899">
        <ele>658.3</ele>
        <time>2026-04-30T07:13:47.999Z</time>
      </trkpt>
      <trkpt lat="43.97564" lon="2.98898">
        <ele>659.1</ele>
        <time>2026-04-30T07:13:48.999Z</time>
      </trkpt>
      <trkpt lat="43.97564" lon="2.98897">
        <ele>659.8</ele>
        <time>2026-04-30T07:13:49.999Z</time>
      </trkpt>
      <trkpt lat="43.97564" lon="2.98895">
        <ele>660.3</ele>
        <time>2026-04-30T07:13:50.999Z</time>
      </trkpt>
      <trkpt lat="43.97564" lon="2.98893">
        <ele>660.7</ele>
        <time>2026-04-30T07:13:51.999Z</time>
      </trkpt>
      <trkpt lat="43.97565" lon="2.98892">
        <ele>661</ele>
        <time>2026-04-30T07:13:52.999Z</time>
      </trkpt>
      <trkpt lat="43.97565" lon="2.9889">
        <ele>661.6</ele>
        <time>2026-04-30T07:13:53.999Z</time>
      </trkpt>
      <trkpt lat="43.97565" lon="2.98889">
        <ele>661.7</ele>
        <time>2026-04-30T07:13:54.999Z</time>
      </trkpt>
      <trkpt lat="43.97566" lon="2.98888">
        <ele>661.8</ele>
        <time>2026-04-30T07:13:55.999Z</time>
      </trkpt>
      <trkpt lat="43.97566" lon="2.98886">
        <ele>661.8</ele>
        <time>2026-04-30T07:13:56.999Z</time>
      </trkpt>
      <trkpt lat="43.97566" lon="2.98885">
        <ele>662.1</ele>
        <time>2026-04-30T07:13:57.999Z</time>
      </trkpt>
      <trkpt lat="43.97566" lon="2.98883">
        <ele>662.3</ele>
        <time>2026-04-30T07:13:58.999Z</time>
      </trkpt>
      <trkpt lat="43.97567" lon="2.98881">
        <ele>662.4</ele>
        <time>2026-04-30T07:13:59.999Z</time>
      </trkpt>
      <trkpt lat="43.97567" lon="2.9888">
        <ele>662.6</ele>
        <time>2026-04-30T07:14:00.999Z</time>
      </trkpt>
      <trkpt lat="43.97568" lon="2.98879">
        <ele>662.6</ele>
        <time>2026-04-30T07:14:01.999Z</time>
      </trkpt>
      <trkpt lat="43.97568" lon="2.98878">
        <ele>662.9</ele>
        <time>2026-04-30T07:14:02.999Z</time>
      </trkpt>
      <trkpt lat="43.97569" lon="2.98877">
        <ele>662.9</ele>
        <time>2026-04-30T07:14:03.999Z</time>
      </trkpt>
      <trkpt lat="43.9757" lon="2.98877">
        <ele>662.8</ele>
        <time>2026-04-30T07:14:04.999Z</time>
      </trkpt>
      <trkpt lat="43.9757" lon="2.98876">
        <ele>662.5</ele>
        <time>2026-04-30T07:14:05.999Z</time>
      </trkpt>
      <trkpt lat="43.97571" lon="2.98875">
        <ele>662.5</ele>
        <time>2026-04-30T07:14:06.999Z</time>
      </trkpt>
      <trkpt lat="43.97572" lon="2.98873">
        <ele>662.3</ele>
        <time>2026-04-30T07:14:07.999Z</time>
      </trkpt>
      <trkpt lat="43.97572" lon="2.98872">
        <ele>662.1</ele>
        <time>2026-04-30T07:14:08.999Z</time>
      </trkpt>
      <trkpt lat="43.97573" lon="2.98872">
        <ele>662</ele>
        <time>2026-04-30T07:14:09.999Z</time>
      </trkpt>
      <trkpt lat="43.97573" lon="2.98871">
        <ele>662</ele>
        <time>2026-04-30T07:14:10.999Z</time>
      </trkpt>
      <trkpt lat="43.97574" lon="2.9887">
        <ele>662.2</ele>
        <time>2026-04-30T07:14:11.999Z</time>
      </trkpt>
      <trkpt lat="43.97574" lon="2.98869">
        <ele>662.4</ele>
        <time>2026-04-30T07:14:12.999Z</time>
      </trkpt>
      <trkpt lat="43.97575" lon="2.98868">
        <ele>662.4</ele>
        <time>2026-04-30T07:14:13.999Z</time>
      </trkpt>
      <trkpt lat="43.97575" lon="2.98867">
        <ele>662.3</ele>
        <time>2026-04-30T07:14:14.999Z</time>
      </trkpt>
      <trkpt lat="43.97576" lon="2.98866">
        <ele>662.1</ele>
        <time>2026-04-30T07:14:15.999Z</time>
      </trkpt>
      <trkpt lat="43.97576" lon="2.98866">
        <ele>662</ele>
        <time>2026-04-30T07:14:16.999Z</time>
      </trkpt>
      <trkpt lat="43.97577" lon="2.98864">
        <ele>662.1</ele>
        <time>2026-04-30T07:14:17.999Z</time>
      </trkpt>
      <trkpt lat="43.97578" lon="2.98863">
        <ele>661.9</ele>
        <time>2026-04-30T07:14:18.999Z</time>
      </trkpt>
      <trkpt lat="43.97579" lon="2.98862">
        <ele>662</ele>
        <time>2026-04-30T07:14:19.999Z</time>
      </trkpt>
      <trkpt lat="43.97579" lon="2.98861">
        <ele>661.9</ele>
        <time>2026-04-30T07:14:20.999Z</time>
      </trkpt>
      <trkpt lat="43.97579" lon="2.9886">
        <ele>661.7</ele>
        <time>2026-04-30T07:14:21.999Z</time>
      </trkpt>
      <trkpt lat="43.9758" lon="2.98858">
        <ele>661.5</ele>
        <time>2026-04-30T07:14:22.999Z</time>
      </trkpt>
      <trkpt lat="43.9758" lon="2.98857">
        <ele>661.2</ele>
        <time>2026-04-30T07:14:23.999Z</time>
      </trkpt>
      <trkpt lat="43.97581" lon="2.98856">
        <ele>661</ele>
        <time>2026-04-30T07:14:24.999Z</time>
      </trkpt>
      <trkpt lat="43.97582" lon="2.98855">
        <ele>661</ele>
        <time>2026-04-30T07:14:25.999Z</time>
      </trkpt>
      <trkpt lat="43.97583" lon="2.98854">
        <ele>660.8</ele>
        <time>2026-04-30T07:14:26.999Z</time>
      </trkpt>
      <trkpt lat="43.97583" lon="2.98853">
        <ele>660.8</ele>
        <time>2026-04-30T07:14:27.999Z</time>
      </trkpt>
      <trkpt lat="43.97584" lon="2.98852">
        <ele>660.7</ele>
        <time>2026-04-30T07:14:28.999Z</time>
      </trkpt>
      <trkpt lat="43.97585" lon="2.98851">
        <ele>660.7</ele>
        <time>2026-04-30T07:14:29.999Z</time>
      </trkpt>
      <trkpt lat="43.97586" lon="2.9885">
        <ele>660.6</ele>
        <time>2026-04-30T07:14:30.999Z</time>
      </trkpt>
      <trkpt lat="43.97587" lon="2.98849">
        <ele>660.5</ele>
        <time>2026-04-30T07:14:31.999Z</time>
      </trkpt>
      <trkpt lat="43.97588" lon="2.98848">
        <ele>659.9</ele>
        <time>2026-04-30T07:14:32.999Z</time>
      </trkpt>
      <trkpt lat="43.97589" lon="2.98847">
        <ele>659.7</ele>
        <time>2026-04-30T07:14:33.999Z</time>
      </trkpt>
      <trkpt lat="43.9759" lon="2.98847">
        <ele>659.8</ele>
        <time>2026-04-30T07:14:34.999Z</time>
      </trkpt>
      <trkpt lat="43.97591" lon="2.98846">
        <ele>660</ele>
        <time>2026-04-30T07:14:35.999Z</time>
      </trkpt>
      <trkpt lat="43.97591" lon="2.98845">
        <ele>660</ele>
        <time>2026-04-30T07:14:36.999Z</time>
      </trkpt>
      <trkpt lat="43.97592" lon="2.98844">
        <ele>660.5</ele>
        <time>2026-04-30T07:14:37.999Z</time>
      </trkpt>
      <trkpt lat="43.97593" lon="2.98843">
        <ele>660.7</ele>
        <time>2026-04-30T07:14:38.999Z</time>
      </trkpt>
      <trkpt lat="43.97593" lon="2.98842">
        <ele>660.8</ele>
        <time>2026-04-30T07:14:39.999Z</time>
      </trkpt>
      <trkpt lat="43.97594" lon="2.98841">
        <ele>660.6</ele>
        <time>2026-04-30T07:14:40.999Z</time>
      </trkpt>
      <trkpt lat="43.97595" lon="2.98839">
        <ele>660.4</ele>
        <time>2026-04-30T07:14:41.999Z</time>
      </trkpt>
      <trkpt lat="43.97595" lon="2.98839">
        <ele>660.5</ele>
        <time>2026-04-30T07:14:42.999Z</time>
      </trkpt>
      <trkpt lat="43.97596" lon="2.98838">
        <ele>660.6</ele>
        <time>2026-04-30T07:14:43.999Z</time>
      </trkpt>
      <trkpt lat="43.97597" lon="2.98838">
        <ele>661.1</ele>
        <time>2026-04-30T07:14:44.999Z</time>
      </trkpt>
      <trkpt lat="43.97597" lon="2.98838">
        <ele>661.7</ele>
        <time>2026-04-30T07:14:45.999Z</time>
      </trkpt>
      <trkpt lat="43.97597" lon="2.98837">
        <ele>662.5</ele>
        <time>2026-04-30T07:14:46.999Z</time>
      </trkpt>
      <trkpt lat="43.97598" lon="2.98838">
        <ele>663.6</ele>
        <time>2026-04-30T07:14:47.999Z</time>
      </trkpt>
      <trkpt lat="43.97599" lon="2.98838">
        <ele>664.5</ele>
        <time>2026-04-30T07:14:48.999Z</time>
      </trkpt>
      <trkpt lat="43.976" lon="2.98838">
        <ele>665.4</ele>
        <time>2026-04-30T07:14:50.000Z</time>
      </trkpt>
      <trkpt lat="43.976" lon="2.98838">
        <ele>667</ele>
        <time>2026-04-30T07:14:51.000Z</time>
      </trkpt>
      <trkpt lat="43.976" lon="2.98838">
        <ele>668.3</ele>
        <time>2026-04-30T07:14:52.000Z</time>
      </trkpt>
      <trkpt lat="43.976" lon="2.98838">
        <ele>669.2</ele>
        <time>2026-04-30T07:14:53.000Z</time>
      </trkpt>
      <trkpt lat="43.976" lon="2.98837">
        <ele>669.8</ele>
        <time>2026-04-30T07:14:54.000Z</time>
      </trkpt>
      <trkpt lat="43.976" lon="2.98836">
        <ele>669.2</ele>
        <time>2026-04-30T07:14:55.000Z</time>
      </trkpt>
      <trkpt lat="43.976" lon="2.98835">
        <ele>669.2</ele>
        <time>2026-04-30T07:14:56.000Z</time>
      </trkpt>
      <trkpt lat="43.97599" lon="2.98834">
        <ele>668.6</ele>
        <time>2026-04-30T07:14:57.000Z</time>
      </trkpt>
      <trkpt lat="43.97599" lon="2.98834">
        <ele>668.4</ele>
        <time>2026-04-30T07:14:58.000Z</time>
      </trkpt>
      <trkpt lat="43.976" lon="2.98834">
        <ele>668.3</ele>
        <time>2026-04-30T07:14:59.000Z</time>
      </trkpt>
      <trkpt lat="43.97601" lon="2.98834">
        <ele>668</ele>
        <time>2026-04-30T07:15:00.000Z</time>
      </trkpt>
      <trkpt lat="43.97601" lon="2.98833">
        <ele>666.5</ele>
        <time>2026-04-30T07:15:02.000Z</time>
      </trkpt>
      <trkpt lat="43.97603" lon="2.98836">
        <ele>666.4</ele>
        <time>2026-04-30T07:15:03.000Z</time>
      </trkpt>
      <trkpt lat="43.97603" lon="2.98838">
        <ele>666</ele>
        <time>2026-04-30T07:15:04.000Z</time>
      </trkpt>
      <trkpt lat="43.97605" lon="2.98839">
        <ele>665.5</ele>
        <time>2026-04-30T07:15:05.000Z</time>
      </trkpt>
      <trkpt lat="43.97604" lon="2.9884">
        <ele>665.5</ele>
        <time>2026-04-30T07:15:06.000Z</time>
      </trkpt>
      <trkpt lat="43.97604" lon="2.98838">
        <ele>665.3</ele>
        <time>2026-04-30T07:15:07.000Z</time>
      </trkpt>
      <trkpt lat="43.97604" lon="2.98837">
        <ele>665.5</ele>
        <time>2026-04-30T07:15:08.000Z</time>
      </trkpt>
      <trkpt lat="43.97604" lon="2.98837">
        <ele>664.5</ele>
        <time>2026-04-30T07:15:09.000Z</time>
      </trkpt>
      <trkpt lat="43.97604" lon="2.98836">
        <ele>663.3</ele>
        <time>2026-04-30T07:15:10.000Z</time>
      </trkpt>
      <trkpt lat="43.97604" lon="2.98837">
        <ele>663.3</ele>
        <time>2026-04-30T07:15:11.000Z</time>
      </trkpt>
      <trkpt lat="43.97605" lon="2.98837">
        <ele>662.6</ele>
        <time>2026-04-30T07:15:12.000Z</time>
      </trkpt>
      <trkpt lat="43.97605" lon="2.98836">
        <ele>662.3</ele>
        <time>2026-04-30T07:15:13.000Z</time>
      </trkpt>
      <trkpt lat="43.97605" lon="2.98835">
        <ele>661.6</ele>
        <time>2026-04-30T07:15:14.000Z</time>
      </trkpt>
      <trkpt lat="43.97605" lon="2.98834">
        <ele>661.1</ele>
        <time>2026-04-30T07:15:15.000Z</time>
      </trkpt>
      <trkpt lat="43.97604" lon="2.98832">
        <ele>660.5</ele>
        <time>2026-04-30T07:15:16.000Z</time>
      </trkpt>
      <trkpt lat="43.97602" lon="2.98832">
        <ele>661.1</ele>
        <time>2026-04-30T07:15:17.000Z</time>
      </trkpt>
      <trkpt lat="43.97601" lon="2.98832">
        <ele>661.5</ele>
        <time>2026-04-30T07:15:18.000Z</time>
      </trkpt>
      <trkpt lat="43.976" lon="2.98831">
        <ele>660.4</ele>
        <time>2026-04-30T07:15:19.000Z</time>
      </trkpt>
      <trkpt lat="43.97599" lon="2.98831">
        <ele>659.8</ele>
        <time>2026-04-30T07:15:20.000Z</time>
      </trkpt>
      <trkpt lat="43.97599" lon="2.98831">
        <ele>659.5</ele>
        <time>2026-04-30T07:15:21.000Z</time>
      </trkpt>
      <trkpt lat="43.97599" lon="2.98831">
        <ele>659.1</ele>
        <time>2026-04-30T07:15:22.000Z</time>
      </trkpt>
      <trkpt lat="43.97599" lon="2.98831">
        <ele>658.9</ele>
        <time>2026-04-30T07:15:23.000Z</time>
      </trkpt>
      <trkpt lat="43.97599" lon="2.98831">
        <ele>658.9</ele>
        <time>2026-04-30T07:15:24.000Z</time>
      </trkpt>
      <trkpt lat="43.97599" lon="2.98831">
        <ele>658.9</ele>
        <time>2026-04-30T07:15:25.000Z</time>
      </trkpt>
      <trkpt lat="43.97598" lon="2.98831">
        <ele>658.8</ele>
        <time>2026-04-30T07:15:26.000Z</time>
      </trkpt>
      <trkpt lat="43.97598" lon="2.9883">
        <ele>658.8</ele>
        <time>2026-04-30T07:15:27.000Z</time>
      </trkpt>
      <trkpt lat="43.97598" lon="2.98831">
        <ele>658.9</ele>
        <time>2026-04-30T07:15:28.000Z</time>
      </trkpt>
      <trkpt lat="43.97598" lon="2.98831">
        <ele>658.9</ele>
        <time>2026-04-30T07:15:29.000Z</time>
      </trkpt>
      <trkpt lat="43.97598" lon="2.98831">
        <ele>658.9</ele>
        <time>2026-04-30T07:15:30.000Z</time>
      </trkpt>
      <trkpt lat="43.97598" lon="2.98831">
        <ele>659.1</ele>
        <time>2026-04-30T07:15:31.000Z</time>
      </trkpt>
      <trkpt lat="43.97598" lon="2.9883">
        <ele>658.8</ele>
        <time>2026-04-30T07:15:32.000Z</time>
      </trkpt>
      <trkpt lat="43.97598" lon="2.9883">
        <ele>659.1</ele>
        <time>2026-04-30T07:15:33.000Z</time>
      </trkpt>
      <trkpt lat="43.97597" lon="2.9883">
        <ele>659.2</ele>
        <time>2026-04-30T07:15:34.000Z</time>
      </trkpt>
      <trkpt lat="43.97597" lon="2.9883">
        <ele>658.9</ele>
        <time>2026-04-30T07:15:35.000Z</time>
      </trkpt>
      <trkpt lat="43.97597" lon="2.9883">
        <ele>658.5</ele>
        <time>2026-04-30T07:15:36.000Z</time>
      </trkpt>
      <trkpt lat="43.97597" lon="2.9883">
        <ele>658.5</ele>
        <time>2026-04-30T07:15:37.000Z</time>
      </trkpt>
      <trkpt lat="43.97597" lon="2.9883">
        <ele>658.4</ele>
        <time>2026-04-30T07:15:38.000Z</time>
      </trkpt>
      <trkpt lat="43.97596" lon="2.9883">
        <ele>658.3</ele>
        <time>2026-04-30T07:15:39.000Z</time>
      </trkpt>
      <trkpt lat="43.97596" lon="2.9883">
        <ele>658.3</ele>
        <time>2026-04-30T07:15:40.000Z</time>
      </trkpt>
      <trkpt lat="43.97596" lon="2.9883">
        <ele>658.3</ele>
        <time>2026-04-30T07:15:41.000Z</time>
      </trkpt>
      <trkpt lat="43.97596" lon="2.9883">
        <ele>658.2</ele>
        <time>2026-04-30T07:15:42.000Z</time>
      </trkpt>
      <trkpt lat="43.97596" lon="2.98829">
        <ele>657.8</ele>
        <time>2026-04-30T07:15:43.000Z</time>
      </trkpt>
      <trkpt lat="43.97597" lon="2.98829">
        <ele>657.4</ele>
        <time>2026-04-30T07:15:44.000Z</time>
      </trkpt>
      <trkpt lat="43.97597" lon="2.98829">
        <ele>657.2</ele>
        <time>2026-04-30T07:15:45.000Z</time>
      </trkpt>
      <trkpt lat="43.97598" lon="2.98829">
        <ele>658.3</ele>
        <time>2026-04-30T07:15:46.000Z</time>
      </trkpt>
      <trkpt lat="43.97598" lon="2.98828">
        <ele>657.9</ele>
        <time>2026-04-30T07:15:47.000Z</time>
      </trkpt>
      <trkpt lat="43.97598" lon="2.98827">
        <ele>657.5</ele>
        <time>2026-04-30T07:15:48.000Z</time>
      </trkpt>
      <trkpt lat="43.97598" lon="2.98826">
        <ele>657</ele>
        <time>2026-04-30T07:15:49.000Z</time>
      </trkpt>
      <trkpt lat="43.97597" lon="2.98824">
        <ele>656.3</ele>
        <time>2026-04-30T07:15:50.000Z</time>
      </trkpt>
      <trkpt lat="43.97597" lon="2.98821">
        <ele>656.1</ele>
        <time>2026-04-30T07:15:51.000Z</time>
      </trkpt>
      <trkpt lat="43.97597" lon="2.98819">
        <ele>655.9</ele>
        <time>2026-04-30T07:15:52.000Z</time>
      </trkpt>
      <trkpt lat="43.97596" lon="2.98816">
        <ele>656</ele>
        <time>2026-04-30T07:15:53.000Z</time>
      </trkpt>
      <trkpt lat="43.97597" lon="2.98814">
        <ele>656.3</ele>
        <time>2026-04-30T07:15:54.000Z</time>
      </trkpt>
      <trkpt lat="43.97596" lon="2.98812">
        <ele>656.2</ele>
        <time>2026-04-30T07:15:55.000Z</time>
      </trkpt>
      <trkpt lat="43.97597" lon="2.98811">
        <ele>656</ele>
        <time>2026-04-30T07:15:56.000Z</time>
      </trkpt>
      <trkpt lat="43.97597" lon="2.98809">
        <ele>656.2</ele>
        <time>2026-04-30T07:15:57.000Z</time>
      </trkpt>
      <trkpt lat="43.97598" lon="2.98809">
        <ele>655.7</ele>
        <time>2026-04-30T07:15:58.000Z</time>
      </trkpt>
      <trkpt lat="43.97599" lon="2.98808">
        <ele>655.3</ele>
        <time>2026-04-30T07:15:59.000Z</time>
      </trkpt>
      <trkpt lat="43.97599" lon="2.98806">
        <ele>654.8</ele>
        <time>2026-04-30T07:16:00.000Z</time>
      </trkpt>
      <trkpt lat="43.97599" lon="2.98805">
        <ele>654.2</ele>
        <time>2026-04-30T07:16:01.000Z</time>
      </trkpt>
      <trkpt lat="43.97599" lon="2.98805">
        <ele>654.4</ele>
        <time>2026-04-30T07:16:02.000Z</time>
      </trkpt>
      <trkpt lat="43.97599" lon="2.98804">
        <ele>654.3</ele>
        <time>2026-04-30T07:16:03.000Z</time>
      </trkpt>
      <trkpt lat="43.97597" lon="2.98805">
        <ele>654.6</ele>
        <time>2026-04-30T07:16:04.000Z</time>
      </trkpt>
      <trkpt lat="43.97597" lon="2.98805">
        <ele>654.6</ele>
        <time>2026-04-30T07:16:05.000Z</time>
      </trkpt>
      <trkpt lat="43.97598" lon="2.98803">
        <ele>654.2</ele>
        <time>2026-04-30T07:16:06.000Z</time>
      </trkpt>
      <trkpt lat="43.97598" lon="2.98802">
        <ele>653.7</ele>
        <time>2026-04-30T07:16:07.000Z</time>
      </trkpt>
      <trkpt lat="43.97598" lon="2.98802">
        <ele>653.6</ele>
        <time>2026-04-30T07:16:08.000Z</time>
      </trkpt>
      <trkpt lat="43.97598" lon="2.98801">
        <ele>653.2</ele>
        <time>2026-04-30T07:16:09.000Z</time>
      </trkpt>
      <trkpt lat="43.97597" lon="2.98802">
        <ele>652.9</ele>
        <time>2026-04-30T07:16:10.000Z</time>
      </trkpt>
      <trkpt lat="43.97597" lon="2.98803">
        <ele>652.7</ele>
        <time>2026-04-30T07:16:11.000Z</time>
      </trkpt>
      <trkpt lat="43.97597" lon="2.98804">
        <ele>652.4</ele>
        <time>2026-04-30T07:16:12.000Z</time>
      </trkpt>
      <trkpt lat="43.97597" lon="2.98805">
        <ele>651.9</ele>
        <time>2026-04-30T07:16:13.000Z</time>
      </trkpt>
      <trkpt lat="43.97597" lon="2.98804">
        <ele>651.7</ele>
        <time>2026-04-30T07:16:14.000Z</time>
      </trkpt>
      <trkpt lat="43.97597" lon="2.98805">
        <ele>655</ele>
        <time>2026-04-30T07:16:15.000Z</time>
      </trkpt>
      <trkpt lat="43.97598" lon="2.98805">
        <ele>654.9</ele>
        <time>2026-04-30T07:16:16.000Z</time>
      </trkpt>
      <trkpt lat="43.97599" lon="2.98801">
        <ele>654.8</ele>
        <time>2026-04-30T07:16:17.000Z</time>
      </trkpt>
      <trkpt lat="43.97601" lon="2.98798">
        <ele>655.2</ele>
        <time>2026-04-30T07:16:18.000Z</time>
      </trkpt>
      <trkpt lat="43.97602" lon="2.98793">
        <ele>656.3</ele>
        <time>2026-04-30T07:16:19.000Z</time>
      </trkpt>
      <trkpt lat="43.97603" lon="2.9879">
        <ele>656.4</ele>
        <time>2026-04-30T07:16:20.000Z</time>
      </trkpt>
      <trkpt lat="43.97605" lon="2.98787">
        <ele>656.6</ele>
        <time>2026-04-30T07:16:21.000Z</time>
      </trkpt>
      <trkpt lat="43.97605" lon="2.98785">
        <ele>656.7</ele>
        <time>2026-04-30T07:16:22.000Z</time>
      </trkpt>
      <trkpt lat="43.97606" lon="2.98784">
        <ele>656.5</ele>
        <time>2026-04-30T07:16:23.000Z</time>
      </trkpt>
      <trkpt lat="43.97607" lon="2.98782">
        <ele>656.4</ele>
        <time>2026-04-30T07:16:24.000Z</time>
      </trkpt>
      <trkpt lat="43.97608" lon="2.98781">
        <ele>656.6</ele>
        <time>2026-04-30T07:16:25.000Z</time>
      </trkpt>
      <trkpt lat="43.97609" lon="2.98781">
        <ele>656.4</ele>
        <time>2026-04-30T07:16:26.000Z</time>
      </trkpt>
      <trkpt lat="43.9761" lon="2.98781">
        <ele>656.2</ele>
        <time>2026-04-30T07:16:27.000Z</time>
      </trkpt>
      <trkpt lat="43.9761" lon="2.9878">
        <ele>655.9</ele>
        <time>2026-04-30T07:16:28.000Z</time>
      </trkpt>
      <trkpt lat="43.97611" lon="2.9878">
        <ele>655.5</ele>
        <time>2026-04-30T07:16:29.000Z</time>
      </trkpt>
      <trkpt lat="43.97613" lon="2.98779">
        <ele>655.6</ele>
        <time>2026-04-30T07:16:30.000Z</time>
      </trkpt>
      <trkpt lat="43.97613" lon="2.98778">
        <ele>655.4</ele>
        <time>2026-04-30T07:16:31.000Z</time>
      </trkpt>
      <trkpt lat="43.97614" lon="2.98778">
        <ele>655.7</ele>
        <time>2026-04-30T07:16:32.000Z</time>
      </trkpt>
      <trkpt lat="43.97615" lon="2.98777">
        <ele>656.1</ele>
        <time>2026-04-30T07:16:33.000Z</time>
      </trkpt>
      <trkpt lat="43.97616" lon="2.98776">
        <ele>656.5</ele>
        <time>2026-04-30T07:16:34.000Z</time>
      </trkpt>
      <trkpt lat="43.97616" lon="2.98775">
        <ele>656.9</ele>
        <time>2026-04-30T07:16:35.000Z</time>
      </trkpt>
      <trkpt lat="43.97618" lon="2.98775">
        <ele>656.9</ele>
        <time>2026-04-30T07:16:36.000Z</time>
      </trkpt>
      <trkpt lat="43.97619" lon="2.98774">
        <ele>656.8</ele>
        <time>2026-04-30T07:16:37.000Z</time>
      </trkpt>
      <trkpt lat="43.9762" lon="2.98774">
        <ele>656.6</ele>
        <time>2026-04-30T07:16:38.000Z</time>
      </trkpt>
      <trkpt lat="43.97621" lon="2.98774">
        <ele>656.3</ele>
        <time>2026-04-30T07:16:39.000Z</time>
      </trkpt>
      <trkpt lat="43.97621" lon="2.98772">
        <ele>656.7</ele>
        <time>2026-04-30T07:16:41.000Z</time>
      </trkpt>
      <trkpt lat="43.97621" lon="2.98772">
        <ele>657</ele>
        <time>2026-04-30T07:16:42.000Z</time>
      </trkpt>
      <trkpt lat="43.97621" lon="2.98772">
        <ele>656.3</ele>
        <time>2026-04-30T07:16:43.000Z</time>
      </trkpt>
      <trkpt lat="43.97621" lon="2.98772">
        <ele>656.1</ele>
        <time>2026-04-30T07:16:44.000Z</time>
      </trkpt>
      <trkpt lat="43.97621" lon="2.98772">
        <ele>655.9</ele>
        <time>2026-04-30T07:16:45.000Z</time>
      </trkpt>
      <trkpt lat="43.97621" lon="2.98772">
        <ele>655.7</ele>
        <time>2026-04-30T07:16:46.000Z</time>
      </trkpt>
      <trkpt lat="43.97621" lon="2.98772">
        <ele>655.5</ele>
        <time>2026-04-30T07:16:47.000Z</time>
      </trkpt>
      <trkpt lat="43.97622" lon="2.98772">
        <ele>655.2</ele>
        <time>2026-04-30T07:16:48.000Z</time>
      </trkpt>
      <trkpt lat="43.97623" lon="2.98771">
        <ele>655.2</ele>
        <time>2026-04-30T07:16:50.000Z</time>
      </trkpt>
      <trkpt lat="43.97623" lon="2.98769">
        <ele>655.2</ele>
        <time>2026-04-30T07:16:51.000Z</time>
      </trkpt>
      <trkpt lat="43.97624" lon="2.98768">
        <ele>655.2</ele>
        <time>2026-04-30T07:16:52.000Z</time>
      </trkpt>
      <trkpt lat="43.97624" lon="2.98767">
        <ele>655.2</ele>
        <time>2026-04-30T07:16:53.000Z</time>
      </trkpt>
      <trkpt lat="43.97625" lon="2.98766">
        <ele>655.3</ele>
        <time>2026-04-30T07:16:54.000Z</time>
      </trkpt>
      <trkpt lat="43.97626" lon="2.98765">
        <ele>655.2</ele>
        <time>2026-04-30T07:16:55.000Z</time>
      </trkpt>
      <trkpt lat="43.97627" lon="2.98764">
        <ele>654.9</ele>
        <time>2026-04-30T07:16:56.000Z</time>
      </trkpt>
      <trkpt lat="43.97628" lon="2.98763">
        <ele>654.6</ele>
        <time>2026-04-30T07:16:57.000Z</time>
      </trkpt>
      <trkpt lat="43.97629" lon="2.98763">
        <ele>654.4</ele>
        <time>2026-04-30T07:16:58.000Z</time>
      </trkpt>
      <trkpt lat="43.9763" lon="2.98761">
        <ele>654.3</ele>
        <time>2026-04-30T07:16:59.000Z</time>
      </trkpt>
      <trkpt lat="43.97631" lon="2.9876">
        <ele>654</ele>
        <time>2026-04-30T07:17:00.000Z</time>
      </trkpt>
      <trkpt lat="43.97632" lon="2.9876">
        <ele>654</ele>
        <time>2026-04-30T07:17:01.000Z</time>
      </trkpt>
      <trkpt lat="43.97632" lon="2.98759">
        <ele>654</ele>
        <time>2026-04-30T07:17:02.000Z</time>
      </trkpt>
      <trkpt lat="43.97633" lon="2.98758">
        <ele>653.9</ele>
        <time>2026-04-30T07:17:03.000Z</time>
      </trkpt>
      <trkpt lat="43.97635" lon="2.98758">
        <ele>653.7</ele>
        <time>2026-04-30T07:17:04.000Z</time>
      </trkpt>
      <trkpt lat="43.97635" lon="2.98757">
        <ele>653.4</ele>
        <time>2026-04-30T07:17:05.000Z</time>
      </trkpt>
      <trkpt lat="43.97637" lon="2.98758">
        <ele>653.3</ele>
        <time>2026-04-30T07:17:06.000Z</time>
      </trkpt>
      <trkpt lat="43.97637" lon="2.98757">
        <ele>653.1</ele>
        <time>2026-04-30T07:17:07.000Z</time>
      </trkpt>
      <trkpt lat="43.97638" lon="2.98757">
        <ele>653</ele>
        <time>2026-04-30T07:17:08.000Z</time>
      </trkpt>
      <trkpt lat="43.97638" lon="2.98757">
        <ele>652.9</ele>
        <time>2026-04-30T07:17:09.000Z</time>
      </trkpt>
      <trkpt lat="43.97639" lon="2.98758">
        <ele>652.6</ele>
        <time>2026-04-30T07:17:10.000Z</time>
      </trkpt>
      <trkpt lat="43.97639" lon="2.98758">
        <ele>652.8</ele>
        <time>2026-04-30T07:17:11.000Z</time>
      </trkpt>
      <trkpt lat="43.97639" lon="2.98758">
        <ele>652.6</ele>
        <time>2026-04-30T07:17:12.000Z</time>
      </trkpt>
      <trkpt lat="43.9764" lon="2.98758">
        <ele>652.1</ele>
        <time>2026-04-30T07:17:13.000Z</time>
      </trkpt>
      <trkpt lat="43.9764" lon="2.98758">
        <ele>651.8</ele>
        <time>2026-04-30T07:17:14.000Z</time>
      </trkpt>
      <trkpt lat="43.9764" lon="2.98758">
        <ele>651.7</ele>
        <time>2026-04-30T07:17:15.000Z</time>
      </trkpt>
      <trkpt lat="43.9764" lon="2.98758">
        <ele>651.6</ele>
        <time>2026-04-30T07:17:16.000Z</time>
      </trkpt>
      <trkpt lat="43.9764" lon="2.98758">
        <ele>651.4</ele>
        <time>2026-04-30T07:17:17.000Z</time>
      </trkpt>
      <trkpt lat="43.97641" lon="2.98758">
        <ele>651.2</ele>
        <time>2026-04-30T07:17:18.000Z</time>
      </trkpt>
      <trkpt lat="43.97641" lon="2.98757">
        <ele>651.2</ele>
        <time>2026-04-30T07:17:19.000Z</time>
      </trkpt>
      <trkpt lat="43.97643" lon="2.98756">
        <ele>651.4</ele>
        <time>2026-04-30T07:17:20.000Z</time>
      </trkpt>
      <trkpt lat="43.97643" lon="2.98756">
        <ele>651.6</ele>
        <time>2026-04-30T07:17:21.000Z</time>
      </trkpt>
      <trkpt lat="43.97644" lon="2.98756">
        <ele>651.6</ele>
        <time>2026-04-30T07:17:22.000Z</time>
      </trkpt>
      <trkpt lat="43.97645" lon="2.98755">
        <ele>651.7</ele>
        <time>2026-04-30T07:17:23.000Z</time>
      </trkpt>
      <trkpt lat="43.97647" lon="2.98755">
        <ele>651.6</ele>
        <time>2026-04-30T07:17:24.000Z</time>
      </trkpt>
      <trkpt lat="43.97648" lon="2.98755">
        <ele>651.4</ele>
        <time>2026-04-30T07:17:25.000Z</time>
      </trkpt>
      <trkpt lat="43.97649" lon="2.98755">
        <ele>651.3</ele>
        <time>2026-04-30T07:17:26.000Z</time>
      </trkpt>
      <trkpt lat="43.9765" lon="2.98754">
        <ele>650.9</ele>
        <time>2026-04-30T07:17:27.000Z</time>
      </trkpt>
      <trkpt lat="43.97651" lon="2.98754">
        <ele>650.8</ele>
        <time>2026-04-30T07:17:28.000Z</time>
      </trkpt>
      <trkpt lat="43.97652" lon="2.98754">
        <ele>650.8</ele>
        <time>2026-04-30T07:17:29.000Z</time>
      </trkpt>
      <trkpt lat="43.97653" lon="2.98752">
        <ele>650.5</ele>
        <time>2026-04-30T07:17:30.000Z</time>
      </trkpt>
      <trkpt lat="43.97653" lon="2.98751">
        <ele>650.5</ele>
        <time>2026-04-30T07:17:31.000Z</time>
      </trkpt>
      <trkpt lat="43.97654" lon="2.9875">
        <ele>650.2</ele>
        <time>2026-04-30T07:17:32.000Z</time>
      </trkpt>
      <trkpt lat="43.97655" lon="2.9875">
        <ele>650</ele>
        <time>2026-04-30T07:17:33.000Z</time>
      </trkpt>
      <trkpt lat="43.97656" lon="2.98749">
        <ele>649.9</ele>
        <time>2026-04-30T07:17:34.000Z</time>
      </trkpt>
      <trkpt lat="43.97657" lon="2.98748">
        <ele>649.5</ele>
        <time>2026-04-30T07:17:35.000Z</time>
      </trkpt>
      <trkpt lat="43.97657" lon="2.98748">
        <ele>649.3</ele>
        <time>2026-04-30T07:17:36.000Z</time>
      </trkpt>
      <trkpt lat="43.97659" lon="2.98747">
        <ele>648.9</ele>
        <time>2026-04-30T07:17:37.000Z</time>
      </trkpt>
      <trkpt lat="43.97659" lon="2.98748">
        <ele>648.9</ele>
        <time>2026-04-30T07:17:38.000Z</time>
      </trkpt>
      <trkpt lat="43.9766" lon="2.98748">
        <ele>648.8</ele>
        <time>2026-04-30T07:17:39.000Z</time>
      </trkpt>
      <trkpt lat="43.97662" lon="2.98749">
        <ele>648.6</ele>
        <time>2026-04-30T07:17:41.000Z</time>
      </trkpt>
      <trkpt lat="43.97663" lon="2.98748">
        <ele>648.1</ele>
        <time>2026-04-30T07:17:42.000Z</time>
      </trkpt>
      <trkpt lat="43.97663" lon="2.98748">
        <ele>647.8</ele>
        <time>2026-04-30T07:17:43.000Z</time>
      </trkpt>
      <trkpt lat="43.97664" lon="2.98749">
        <ele>647.6</ele>
        <time>2026-04-30T07:17:44.000Z</time>
      </trkpt>
      <trkpt lat="43.97664" lon="2.98749">
        <ele>647.1</ele>
        <time>2026-04-30T07:17:45.000Z</time>
      </trkpt>
      <trkpt lat="43.97664" lon="2.98749">
        <ele>647.1</ele>
        <time>2026-04-30T07:17:46.000Z</time>
      </trkpt>
      <trkpt lat="43.97664" lon="2.98748">
        <ele>647.5</ele>
        <time>2026-04-30T07:17:47.000Z</time>
      </trkpt>
      <trkpt lat="43.97664" lon="2.98748">
        <ele>647.6</ele>
        <time>2026-04-30T07:17:48.000Z</time>
      </trkpt>
      <trkpt lat="43.97665" lon="2.98748">
        <ele>647.8</ele>
        <time>2026-04-30T07:17:49.000Z</time>
      </trkpt>
      <trkpt lat="43.97665" lon="2.98748">
        <ele>647.8</ele>
        <time>2026-04-30T07:17:51.000Z</time>
      </trkpt>
      <trkpt lat="43.97665" lon="2.98747">
        <ele>647.8</ele>
        <time>2026-04-30T07:17:52.000Z</time>
      </trkpt>
      <trkpt lat="43.97665" lon="2.98747">
        <ele>647.7</ele>
        <time>2026-04-30T07:17:53.000Z</time>
      </trkpt>
      <trkpt lat="43.97665" lon="2.98747">
        <ele>647.4</ele>
        <time>2026-04-30T07:17:54.000Z</time>
      </trkpt>
      <trkpt lat="43.97665" lon="2.98747">
        <ele>647.5</ele>
        <time>2026-04-30T07:17:55.000Z</time>
      </trkpt>
      <trkpt lat="43.97664" lon="2.98747">
        <ele>647</ele>
        <time>2026-04-30T07:17:56.000Z</time>
      </trkpt>
      <trkpt lat="43.97663" lon="2.98745">
        <ele>646.9</ele>
        <time>2026-04-30T07:17:57.000Z</time>
      </trkpt>
      <trkpt lat="43.97662" lon="2.98745">
        <ele>646.8</ele>
        <time>2026-04-30T07:17:58.000Z</time>
      </trkpt>
      <trkpt lat="43.9766" lon="2.98744">
        <ele>646.8</ele>
        <time>2026-04-30T07:17:59.000Z</time>
      </trkpt>
      <trkpt lat="43.97659" lon="2.98743">
        <ele>646.3</ele>
        <time>2026-04-30T07:18:00.000Z</time>
      </trkpt>
      <trkpt lat="43.97659" lon="2.98744">
        <ele>646</ele>
        <time>2026-04-30T07:18:01.000Z</time>
      </trkpt>
      <trkpt lat="43.97658" lon="2.98744">
        <ele>646</ele>
        <time>2026-04-30T07:18:02.000Z</time>
      </trkpt>
      <trkpt lat="43.97659" lon="2.98744">
        <ele>645</ele>
        <time>2026-04-30T07:18:03.000Z</time>
      </trkpt>
      <trkpt lat="43.9766" lon="2.98743">
        <ele>644.5</ele>
        <time>2026-04-30T07:18:04.000Z</time>
      </trkpt>
      <trkpt lat="43.97661" lon="2.98741">
        <ele>645.3</ele>
        <time>2026-04-30T07:18:05.000Z</time>
      </trkpt>
      <trkpt lat="43.97663" lon="2.98739">
        <ele>645.1</ele>
        <time>2026-04-30T07:18:06.000Z</time>
      </trkpt>
      <trkpt lat="43.97663" lon="2.98736">
        <ele>645.7</ele>
        <time>2026-04-30T07:18:08.000Z</time>
      </trkpt>
      <trkpt lat="43.97664" lon="2.98736">
        <ele>645.8</ele>
        <time>2026-04-30T07:18:09.000Z</time>
      </trkpt>
      <trkpt lat="43.97664" lon="2.98736">
        <ele>645.6</ele>
        <time>2026-04-30T07:18:10.000Z</time>
      </trkpt>
      <trkpt lat="43.97664" lon="2.98735">
        <ele>645.7</ele>
        <time>2026-04-30T07:18:11.000Z</time>
      </trkpt>
      <trkpt lat="43.97664" lon="2.98735">
        <ele>645.9</ele>
        <time>2026-04-30T07:18:12.000Z</time>
      </trkpt>
      <trkpt lat="43.97665" lon="2.98735">
        <ele>645.6</ele>
        <time>2026-04-30T07:18:13.000Z</time>
      </trkpt>
      <trkpt lat="43.97666" lon="2.98736">
        <ele>646</ele>
        <time>2026-04-30T07:18:14.000Z</time>
      </trkpt>
      <trkpt lat="43.97666" lon="2.98736">
        <ele>645.1</ele>
        <time>2026-04-30T07:18:15.000Z</time>
      </trkpt>
      <trkpt lat="43.97668" lon="2.98736">
        <ele>645.2</ele>
        <time>2026-04-30T07:18:16.000Z</time>
      </trkpt>
      <trkpt lat="43.97669" lon="2.98736">
        <ele>644.4</ele>
        <time>2026-04-30T07:18:17.000Z</time>
      </trkpt>
      <trkpt lat="43.97671" lon="2.98737">
        <ele>644.6</ele>
        <time>2026-04-30T07:18:18.000Z</time>
      </trkpt>
      <trkpt lat="43.97674" lon="2.98737">
        <ele>645.4</ele>
        <time>2026-04-30T07:18:19.000Z</time>
      </trkpt>
      <trkpt lat="43.97674" lon="2.98736">
        <ele>644.7</ele>
        <time>2026-04-30T07:18:20.000Z</time>
      </trkpt>
      <trkpt lat="43.97675" lon="2.98735">
        <ele>643.9</ele>
        <time>2026-04-30T07:18:21.000Z</time>
      </trkpt>
      <trkpt lat="43.97676" lon="2.98735">
        <ele>644</ele>
        <time>2026-04-30T07:18:22.000Z</time>
      </trkpt>
      <trkpt lat="43.97676" lon="2.98734">
        <ele>643.9</ele>
        <time>2026-04-30T07:18:23.000Z</time>
      </trkpt>
      <trkpt lat="43.97678" lon="2.98733">
        <ele>643.6</ele>
        <time>2026-04-30T07:18:24.000Z</time>
      </trkpt>
      <trkpt lat="43.97679" lon="2.98732">
        <ele>643.5</ele>
        <time>2026-04-30T07:18:25.000Z</time>
      </trkpt>
      <trkpt lat="43.9768" lon="2.98732">
        <ele>643</ele>
        <time>2026-04-30T07:18:26.000Z</time>
      </trkpt>
      <trkpt lat="43.9768" lon="2.98732">
        <ele>642.5</ele>
        <time>2026-04-30T07:18:27.000Z</time>
      </trkpt>
      <trkpt lat="43.97681" lon="2.98732">
        <ele>642.4</ele>
        <time>2026-04-30T07:18:28.000Z</time>
      </trkpt>
      <trkpt lat="43.97682" lon="2.98732">
        <ele>642.7</ele>
        <time>2026-04-30T07:18:29.000Z</time>
      </trkpt>
      <trkpt lat="43.97683" lon="2.98731">
        <ele>642.7</ele>
        <time>2026-04-30T07:18:30.000Z</time>
      </trkpt>
      <trkpt lat="43.97683" lon="2.98731">
        <ele>642.4</ele>
        <time>2026-04-30T07:18:31.000Z</time>
      </trkpt>
      <trkpt lat="43.97684" lon="2.9873">
        <ele>642.1</ele>
        <time>2026-04-30T07:18:32.000Z</time>
      </trkpt>
      <trkpt lat="43.97684" lon="2.9873">
        <ele>642.2</ele>
        <time>2026-04-30T07:18:33.000Z</time>
      </trkpt>
      <trkpt lat="43.97685" lon="2.9873">
        <ele>641.9</ele>
        <time>2026-04-30T07:18:34.000Z</time>
      </trkpt>
      <trkpt lat="43.97685" lon="2.9873">
        <ele>641.3</ele>
        <time>2026-04-30T07:18:35.000Z</time>
      </trkpt>
      <trkpt lat="43.97685" lon="2.9873">
        <ele>640.9</ele>
        <time>2026-04-30T07:18:36.000Z</time>
      </trkpt>
      <trkpt lat="43.97685" lon="2.98728">
        <ele>640.3</ele>
        <time>2026-04-30T07:18:37.000Z</time>
      </trkpt>
      <trkpt lat="43.97686" lon="2.98727">
        <ele>639.8</ele>
        <time>2026-04-30T07:18:38.000Z</time>
      </trkpt>
      <trkpt lat="43.97686" lon="2.98726">
        <ele>639.3</ele>
        <time>2026-04-30T07:18:39.000Z</time>
      </trkpt>
      <trkpt lat="43.97688" lon="2.98725">
        <ele>639.5</ele>
        <time>2026-04-30T07:18:40.000Z</time>
      </trkpt>
      <trkpt lat="43.9769" lon="2.98723">
        <ele>639.9</ele>
        <time>2026-04-30T07:18:41.000Z</time>
      </trkpt>
      <trkpt lat="43.97691" lon="2.98722">
        <ele>639.8</ele>
        <time>2026-04-30T07:18:42.000Z</time>
      </trkpt>
      <trkpt lat="43.97692" lon="2.98722">
        <ele>638.7</ele>
        <time>2026-04-30T07:18:43.000Z</time>
      </trkpt>
      <trkpt lat="43.97693" lon="2.98721">
        <ele>638.1</ele>
        <time>2026-04-30T07:18:44.000Z</time>
      </trkpt>
      <trkpt lat="43.97693" lon="2.98721">
        <ele>637.8</ele>
        <time>2026-04-30T07:18:45.000Z</time>
      </trkpt>
      <trkpt lat="43.97695" lon="2.9872">
        <ele>637.8</ele>
        <time>2026-04-30T07:18:46.000Z</time>
      </trkpt>
      <trkpt lat="43.97696" lon="2.98718">
        <ele>638</ele>
        <time>2026-04-30T07:18:47.000Z</time>
      </trkpt>
      <trkpt lat="43.97697" lon="2.98717">
        <ele>638.2</ele>
        <time>2026-04-30T07:18:48.000Z</time>
      </trkpt>
      <trkpt lat="43.97698" lon="2.98715">
        <ele>637.9</ele>
        <time>2026-04-30T07:18:49.000Z</time>
      </trkpt>
      <trkpt lat="43.97699" lon="2.98714">
        <ele>637.8</ele>
        <time>2026-04-30T07:18:50.000Z</time>
      </trkpt>
      <trkpt lat="43.977" lon="2.98713">
        <ele>637.6</ele>
        <time>2026-04-30T07:18:51.000Z</time>
      </trkpt>
      <trkpt lat="43.97701" lon="2.98712">
        <ele>637.6</ele>
        <time>2026-04-30T07:18:52.000Z</time>
      </trkpt>
      <trkpt lat="43.97702" lon="2.98712">
        <ele>637.6</ele>
        <time>2026-04-30T07:18:53.000Z</time>
      </trkpt>
      <trkpt lat="43.97702" lon="2.98711">
        <ele>637.9</ele>
        <time>2026-04-30T07:18:54.000Z</time>
      </trkpt>
      <trkpt lat="43.97702" lon="2.98711">
        <ele>638.3</ele>
        <time>2026-04-30T07:18:55.000Z</time>
      </trkpt>
      <trkpt lat="43.97703" lon="2.9871">
        <ele>638.7</ele>
        <time>2026-04-30T07:18:56.000Z</time>
      </trkpt>
      <trkpt lat="43.97704" lon="2.98709">
        <ele>638.2</ele>
        <time>2026-04-30T07:18:57.000Z</time>
      </trkpt>
      <trkpt lat="43.97705" lon="2.98709">
        <ele>638.1</ele>
        <time>2026-04-30T07:18:58.000Z</time>
      </trkpt>
      <trkpt lat="43.97705" lon="2.98707">
        <ele>638.2</ele>
        <time>2026-04-30T07:18:59.000Z</time>
      </trkpt>
      <trkpt lat="43.97706" lon="2.98705">
        <ele>637.9</ele>
        <time>2026-04-30T07:19:00.000Z</time>
      </trkpt>
      <trkpt lat="43.97707" lon="2.98704">
        <ele>638</ele>
        <time>2026-04-30T07:19:01.000Z</time>
      </trkpt>
      <trkpt lat="43.97708" lon="2.98704">
        <ele>638.4</ele>
        <time>2026-04-30T07:19:02.000Z</time>
      </trkpt>
      <trkpt lat="43.9771" lon="2.98704">
        <ele>638.5</ele>
        <time>2026-04-30T07:19:03.000Z</time>
      </trkpt>
      <trkpt lat="43.97711" lon="2.98703">
        <ele>638.6</ele>
        <time>2026-04-30T07:19:04.000Z</time>
      </trkpt>
      <trkpt lat="43.97712" lon="2.98702">
        <ele>638.8</ele>
        <time>2026-04-30T07:19:05.000Z</time>
      </trkpt>
      <trkpt lat="43.97712" lon="2.98701">
        <ele>638.8</ele>
        <time>2026-04-30T07:19:06.000Z</time>
      </trkpt>
      <trkpt lat="43.97713" lon="2.987">
        <ele>638.6</ele>
        <time>2026-04-30T07:19:07.000Z</time>
      </trkpt>
      <trkpt lat="43.97713" lon="2.98699">
        <ele>638.4</ele>
        <time>2026-04-30T07:19:08.000Z</time>
      </trkpt>
      <trkpt lat="43.97714" lon="2.98699">
        <ele>638.4</ele>
        <time>2026-04-30T07:19:09.000Z</time>
      </trkpt>
      <trkpt lat="43.97714" lon="2.98698">
        <ele>638</ele>
        <time>2026-04-30T07:19:10.000Z</time>
      </trkpt>
      <trkpt lat="43.97715" lon="2.98697">
        <ele>638.2</ele>
        <time>2026-04-30T07:19:11.000Z</time>
      </trkpt>
      <trkpt lat="43.97716" lon="2.98696">
        <ele>638.2</ele>
        <time>2026-04-30T07:19:12.000Z</time>
      </trkpt>
      <trkpt lat="43.97717" lon="2.98695">
        <ele>638.1</ele>
        <time>2026-04-30T07:19:13.000Z</time>
      </trkpt>
      <trkpt lat="43.97717" lon="2.98693">
        <ele>638</ele>
        <time>2026-04-30T07:19:14.000Z</time>
      </trkpt>
      <trkpt lat="43.97718" lon="2.98692">
        <ele>638.3</ele>
        <time>2026-04-30T07:19:15.000Z</time>
      </trkpt>
      <trkpt lat="43.97719" lon="2.98691">
        <ele>638.6</ele>
        <time>2026-04-30T07:19:16.000Z</time>
      </trkpt>
      <trkpt lat="43.97719" lon="2.98689">
        <ele>639.2</ele>
        <time>2026-04-30T07:19:17.000Z</time>
      </trkpt>
      <trkpt lat="43.9772" lon="2.98688">
        <ele>639.5</ele>
        <time>2026-04-30T07:19:18.000Z</time>
      </trkpt>
      <trkpt lat="43.97719" lon="2.98686">
        <ele>640</ele>
        <time>2026-04-30T07:19:19.000Z</time>
      </trkpt>
      <trkpt lat="43.97719" lon="2.98685">
        <ele>640.4</ele>
        <time>2026-04-30T07:19:20.000Z</time>
      </trkpt>
      <trkpt lat="43.97721" lon="2.98685">
        <ele>640.8</ele>
        <time>2026-04-30T07:19:21.000Z</time>
      </trkpt>
      <trkpt lat="43.97722" lon="2.98685">
        <ele>641.1</ele>
        <time>2026-04-30T07:19:22.000Z</time>
      </trkpt>
      <trkpt lat="43.97722" lon="2.98684">
        <ele>641.1</ele>
        <time>2026-04-30T07:19:23.000Z</time>
      </trkpt>
      <trkpt lat="43.97721" lon="2.98683">
        <ele>640.8</ele>
        <time>2026-04-30T07:19:24.000Z</time>
      </trkpt>
      <trkpt lat="43.9772" lon="2.98683">
        <ele>640.5</ele>
        <time>2026-04-30T07:19:25.000Z</time>
      </trkpt>
      <trkpt lat="43.9772" lon="2.98681">
        <ele>640.1</ele>
        <time>2026-04-30T07:19:26.000Z</time>
      </trkpt>
      <trkpt lat="43.97722" lon="2.98681">
        <ele>640.3</ele>
        <time>2026-04-30T07:19:27.000Z</time>
      </trkpt>
      <trkpt lat="43.97723" lon="2.9868">
        <ele>640.5</ele>
        <time>2026-04-30T07:19:28.000Z</time>
      </trkpt>
      <trkpt lat="43.97724" lon="2.98679">
        <ele>641</ele>
        <time>2026-04-30T07:19:29.000Z</time>
      </trkpt>
      <trkpt lat="43.97724" lon="2.98678">
        <ele>641.1</ele>
        <time>2026-04-30T07:19:30.000Z</time>
      </trkpt>
      <trkpt lat="43.97724" lon="2.98678">
        <ele>641.1</ele>
        <time>2026-04-30T07:19:31.000Z</time>
      </trkpt>
      <trkpt lat="43.97725" lon="2.98677">
        <ele>641.3</ele>
        <time>2026-04-30T07:19:32.000Z</time>
      </trkpt>
      <trkpt lat="43.97726" lon="2.98676">
        <ele>641.3</ele>
        <time>2026-04-30T07:19:33.000Z</time>
      </trkpt>
      <trkpt lat="43.97727" lon="2.98675">
        <ele>641.3</ele>
        <time>2026-04-30T07:19:34.000Z</time>
      </trkpt>
      <trkpt lat="43.97728" lon="2.98674">
        <ele>641.3</ele>
        <time>2026-04-30T07:19:35.000Z</time>
      </trkpt>
      <trkpt lat="43.97729" lon="2.98675">
        <ele>642.2</ele>
        <time>2026-04-30T07:19:36.000Z</time>
      </trkpt>
      <trkpt lat="43.9773" lon="2.98674">
        <ele>643.1</ele>
        <time>2026-04-30T07:19:37.000Z</time>
      </trkpt>
      <trkpt lat="43.97731" lon="2.98674">
        <ele>643.7</ele>
        <time>2026-04-30T07:19:38.000Z</time>
      </trkpt>
      <trkpt lat="43.97731" lon="2.98673">
        <ele>644</ele>
        <time>2026-04-30T07:19:39.000Z</time>
      </trkpt>
      <trkpt lat="43.97732" lon="2.98673">
        <ele>644.5</ele>
        <time>2026-04-30T07:19:40.000Z</time>
      </trkpt>
      <trkpt lat="43.97733" lon="2.98672">
        <ele>644.9</ele>
        <time>2026-04-30T07:19:41.000Z</time>
      </trkpt>
      <trkpt lat="43.97733" lon="2.98671">
        <ele>644.7</ele>
        <time>2026-04-30T07:19:42.000Z</time>
      </trkpt>
      <trkpt lat="43.97734" lon="2.9867">
        <ele>644.7</ele>
        <time>2026-04-30T07:19:43.000Z</time>
      </trkpt>
      <trkpt lat="43.97734" lon="2.98669">
        <ele>644.6</ele>
        <time>2026-04-30T07:19:44.000Z</time>
      </trkpt>
      <trkpt lat="43.97734" lon="2.98668">
        <ele>644.9</ele>
        <time>2026-04-30T07:19:45.000Z</time>
      </trkpt>
      <trkpt lat="43.97735" lon="2.98668">
        <ele>645</ele>
        <time>2026-04-30T07:19:46.000Z</time>
      </trkpt>
      <trkpt lat="43.97735" lon="2.98668">
        <ele>645.1</ele>
        <time>2026-04-30T07:19:47.000Z</time>
      </trkpt>
      <trkpt lat="43.97736" lon="2.98667">
        <ele>645.4</ele>
        <time>2026-04-30T07:19:48.000Z</time>
      </trkpt>
      <trkpt lat="43.97736" lon="2.98666">
        <ele>645.6</ele>
        <time>2026-04-30T07:19:49.000Z</time>
      </trkpt>
      <trkpt lat="43.97737" lon="2.98666">
        <ele>646.2</ele>
        <time>2026-04-30T07:19:50.000Z</time>
      </trkpt>
      <trkpt lat="43.97737" lon="2.98665">
        <ele>646.2</ele>
        <time>2026-04-30T07:19:51.000Z</time>
      </trkpt>
      <trkpt lat="43.97737" lon="2.98664">
        <ele>646.3</ele>
        <time>2026-04-30T07:19:52.000Z</time>
      </trkpt>
      <trkpt lat="43.97737" lon="2.98663">
        <ele>646.3</ele>
        <time>2026-04-30T07:19:53.000Z</time>
      </trkpt>
      <trkpt lat="43.97738" lon="2.98663">
        <ele>646.6</ele>
        <time>2026-04-30T07:19:54.000Z</time>
      </trkpt>
      <trkpt lat="43.97738" lon="2.98661">
        <ele>646.2</ele>
        <time>2026-04-30T07:19:55.000Z</time>
      </trkpt>
      <trkpt lat="43.97739" lon="2.98661">
        <ele>646.3</ele>
        <time>2026-04-30T07:19:56.000Z</time>
      </trkpt>
      <trkpt lat="43.9774" lon="2.9866">
        <ele>646.2</ele>
        <time>2026-04-30T07:19:57.000Z</time>
      </trkpt>
      <trkpt lat="43.97739" lon="2.9866">
        <ele>646</ele>
        <time>2026-04-30T07:19:58.000Z</time>
      </trkpt>
      <trkpt lat="43.97739" lon="2.98659">
        <ele>645.9</ele>
        <time>2026-04-30T07:19:59.000Z</time>
      </trkpt>
      <trkpt lat="43.97739" lon="2.98659">
        <ele>645.8</ele>
        <time>2026-04-30T07:20:00.000Z</time>
      </trkpt>
      <trkpt lat="43.97739" lon="2.98658">
        <ele>646</ele>
        <time>2026-04-30T07:20:01.000Z</time>
      </trkpt>
      <trkpt lat="43.9774" lon="2.98657">
        <ele>645.9</ele>
        <time>2026-04-30T07:20:02.000Z</time>
      </trkpt>
      <trkpt lat="43.9774" lon="2.98656">
        <ele>645.7</ele>
        <time>2026-04-30T07:20:03.000Z</time>
      </trkpt>
      <trkpt lat="43.9774" lon="2.98655">
        <ele>645.4</ele>
        <time>2026-04-30T07:20:04.000Z</time>
      </trkpt>
      <trkpt lat="43.9774" lon="2.98654">
        <ele>645.2</ele>
        <time>2026-04-30T07:20:05.000Z</time>
      </trkpt>
      <trkpt lat="43.9774" lon="2.98654">
        <ele>645.3</ele>
        <time>2026-04-30T07:20:06.000Z</time>
      </trkpt>
      <trkpt lat="43.9774" lon="2.98652">
        <ele>644.8</ele>
        <time>2026-04-30T07:20:07.000Z</time>
      </trkpt>
      <trkpt lat="43.97739" lon="2.98652">
        <ele>644.3</ele>
        <time>2026-04-30T07:20:08.000Z</time>
      </trkpt>
      <trkpt lat="43.97739" lon="2.98651">
        <ele>644.1</ele>
        <time>2026-04-30T07:20:09.000Z</time>
      </trkpt>
      <trkpt lat="43.97739" lon="2.9865">
        <ele>644.2</ele>
        <time>2026-04-30T07:20:10.000Z</time>
      </trkpt>
      <trkpt lat="43.97738" lon="2.98651">
        <ele>644</ele>
        <time>2026-04-30T07:20:11.000Z</time>
      </trkpt>
      <trkpt lat="43.97738" lon="2.98651">
        <ele>643.8</ele>
        <time>2026-04-30T07:20:12.000Z</time>
      </trkpt>
      <trkpt lat="43.97738" lon="2.98651">
        <ele>644.1</ele>
        <time>2026-04-30T07:20:13.000Z</time>
      </trkpt>
      <trkpt lat="43.97738" lon="2.98652">
        <ele>644.3</ele>
        <time>2026-04-30T07:20:14.000Z</time>
      </trkpt>
      <trkpt lat="43.97738" lon="2.98652">
        <ele>644.7</ele>
        <time>2026-04-30T07:20:15.000Z</time>
      </trkpt>
      <trkpt lat="43.97738" lon="2.98652">
        <ele>644.9</ele>
        <time>2026-04-30T07:20:16.000Z</time>
      </trkpt>
      <trkpt lat="43.97738" lon="2.98652">
        <ele>645</ele>
        <time>2026-04-30T07:20:17.000Z</time>
      </trkpt>
      <trkpt lat="43.97738" lon="2.98652">
        <ele>645.1</ele>
        <time>2026-04-30T07:20:18.000Z</time>
      </trkpt>
      <trkpt lat="43.97737" lon="2.98652">
        <ele>644.9</ele>
        <time>2026-04-30T07:20:19.000Z</time>
      </trkpt>
      <trkpt lat="43.97737" lon="2.98651">
        <ele>644.9</ele>
        <time>2026-04-30T07:20:20.000Z</time>
      </trkpt>
      <trkpt lat="43.97736" lon="2.98651">
        <ele>645.2</ele>
        <time>2026-04-30T07:20:21.000Z</time>
      </trkpt>
      <trkpt lat="43.97736" lon="2.98652">
        <ele>645.2</ele>
        <time>2026-04-30T07:20:22.000Z</time>
      </trkpt>
      <trkpt lat="43.97735" lon="2.98651">
        <ele>645.4</ele>
        <time>2026-04-30T07:20:23.000Z</time>
      </trkpt>
      <trkpt lat="43.97735" lon="2.98651">
        <ele>645.5</ele>
        <time>2026-04-30T07:20:24.000Z</time>
      </trkpt>
      <trkpt lat="43.97735" lon="2.98651">
        <ele>645.8</ele>
        <time>2026-04-30T07:20:25.000Z</time>
      </trkpt>
      <trkpt lat="43.97735" lon="2.98651">
        <ele>646.1</ele>
        <time>2026-04-30T07:20:26.000Z</time>
      </trkpt>
      <trkpt lat="43.97735" lon="2.98651">
        <ele>646</ele>
        <time>2026-04-30T07:20:27.000Z</time>
      </trkpt>
      <trkpt lat="43.97734" lon="2.98651">
        <ele>646.1</ele>
        <time>2026-04-30T07:20:28.000Z</time>
      </trkpt>
      <trkpt lat="43.97734" lon="2.98651">
        <ele>646.2</ele>
        <time>2026-04-30T07:20:29.000Z</time>
      </trkpt>
      <trkpt lat="43.97734" lon="2.98651">
        <ele>646.4</ele>
        <time>2026-04-30T07:20:30.000Z</time>
      </trkpt>
      <trkpt lat="43.97734" lon="2.98651">
        <ele>646.6</ele>
        <time>2026-04-30T07:20:31.000Z</time>
      </trkpt>
      <trkpt lat="43.97734" lon="2.98651">
        <ele>646.9</ele>
        <time>2026-04-30T07:20:32.000Z</time>
      </trkpt>
      <trkpt lat="43.97734" lon="2.98651">
        <ele>647.2</ele>
        <time>2026-04-30T07:20:33.000Z</time>
      </trkpt>
      <trkpt lat="43.97734" lon="2.98651">
        <ele>647.2</ele>
        <time>2026-04-30T07:20:34.000Z</time>
      </trkpt>
      <trkpt lat="43.97734" lon="2.98651">
        <ele>647.7</ele>
        <time>2026-04-30T07:20:36.000Z</time>
      </trkpt>
      <trkpt lat="43.97733" lon="2.98652">
        <ele>647.8</ele>
        <time>2026-04-30T07:20:37.000Z</time>
      </trkpt>
      <trkpt lat="43.97732" lon="2.98652">
        <ele>647.9</ele>
        <time>2026-04-30T07:20:38.000Z</time>
      </trkpt>
      <trkpt lat="43.97731" lon="2.98653">
        <ele>648</ele>
        <time>2026-04-30T07:20:39.000Z</time>
      </trkpt>
      <trkpt lat="43.97731" lon="2.98653">
        <ele>648.1</ele>
        <time>2026-04-30T07:20:40.000Z</time>
      </trkpt>
      <trkpt lat="43.9773" lon="2.98653">
        <ele>648.1</ele>
        <time>2026-04-30T07:20:41.000Z</time>
      </trkpt>
      <trkpt lat="43.97729" lon="2.98653">
        <ele>648.7</ele>
        <time>2026-04-30T07:20:42.000Z</time>
      </trkpt>
      <trkpt lat="43.97729" lon="2.98653">
        <ele>649.2</ele>
        <time>2026-04-30T07:20:43.000Z</time>
      </trkpt>
      <trkpt lat="43.97728" lon="2.98655">
        <ele>649.6</ele>
        <time>2026-04-30T07:20:44.000Z</time>
      </trkpt>
      <trkpt lat="43.97728" lon="2.98656">
        <ele>649.8</ele>
        <time>2026-04-30T07:20:45.000Z</time>
      </trkpt>
      <trkpt lat="43.97727" lon="2.98655">
        <ele>650</ele>
        <time>2026-04-30T07:20:46.000Z</time>
      </trkpt>
      <trkpt lat="43.97726" lon="2.98654">
        <ele>650.5</ele>
        <time>2026-04-30T07:20:47.000Z</time>
      </trkpt>
      <trkpt lat="43.97725" lon="2.98653">
        <ele>650.8</ele>
        <time>2026-04-30T07:20:48.000Z</time>
      </trkpt>
      <trkpt lat="43.97724" lon="2.98652">
        <ele>651</ele>
        <time>2026-04-30T07:20:49.000Z</time>
      </trkpt>
      <trkpt lat="43.97724" lon="2.98652">
        <ele>650.7</ele>
        <time>2026-04-30T07:20:50.000Z</time>
      </trkpt>
      <trkpt lat="43.97724" lon="2.98652">
        <ele>650.5</ele>
        <time>2026-04-30T07:20:51.000Z</time>
      </trkpt>
      <trkpt lat="43.97724" lon="2.98652">
        <ele>650.9</ele>
        <time>2026-04-30T07:20:52.000Z</time>
      </trkpt>
      <trkpt lat="43.97724" lon="2.98653">
        <ele>650.8</ele>
        <time>2026-04-30T07:20:53.000Z</time>
      </trkpt>
      <trkpt lat="43.97725" lon="2.98652">
        <ele>651.4</ele>
        <time>2026-04-30T07:20:54.000Z</time>
      </trkpt>
      <trkpt lat="43.97724" lon="2.98651">
        <ele>651.3</ele>
        <time>2026-04-30T07:20:55.000Z</time>
      </trkpt>
      <trkpt lat="43.97724" lon="2.98652">
        <ele>651.2</ele>
        <time>2026-04-30T07:20:56.000Z</time>
      </trkpt>
      <trkpt lat="43.97723" lon="2.9865">
        <ele>651.9</ele>
        <time>2026-04-30T07:20:58.000Z</time>
      </trkpt>
      <trkpt lat="43.97723" lon="2.98648">
        <ele>651.8</ele>
        <time>2026-04-30T07:20:59.000Z</time>
      </trkpt>
      <trkpt lat="43.97723" lon="2.98647">
        <ele>651.9</ele>
        <time>2026-04-30T07:21:00.000Z</time>
      </trkpt>
      <trkpt lat="43.97724" lon="2.98646">
        <ele>651.9</ele>
        <time>2026-04-30T07:21:01.000Z</time>
      </trkpt>
      <trkpt lat="43.97723" lon="2.98645">
        <ele>651.6</ele>
        <time>2026-04-30T07:21:02.000Z</time>
      </trkpt>
      <trkpt lat="43.97724" lon="2.98645">
        <ele>651.4</ele>
        <time>2026-04-30T07:21:03.000Z</time>
      </trkpt>
      <trkpt lat="43.97724" lon="2.98644">
        <ele>651.6</ele>
        <time>2026-04-30T07:21:04.000Z</time>
      </trkpt>
      <trkpt lat="43.97725" lon="2.98643">
        <ele>651.8</ele>
        <time>2026-04-30T07:21:05.000Z</time>
      </trkpt>
      <trkpt lat="43.97725" lon="2.98643">
        <ele>652.3</ele>
        <time>2026-04-30T07:21:06.000Z</time>
      </trkpt>
      <trkpt lat="43.97726" lon="2.98642">
        <ele>652.3</ele>
        <time>2026-04-30T07:21:07.000Z</time>
      </trkpt>
      <trkpt lat="43.97726" lon="2.98641">
        <ele>652.6</ele>
        <time>2026-04-30T07:21:08.000Z</time>
      </trkpt>
      <trkpt lat="43.97725" lon="2.98641">
        <ele>652.4</ele>
        <time>2026-04-30T07:21:09.000Z</time>
      </trkpt>
      <trkpt lat="43.97725" lon="2.98641">
        <ele>652.8</ele>
        <time>2026-04-30T07:21:10.000Z</time>
      </trkpt>
      <trkpt lat="43.97726" lon="2.9864">
        <ele>653.1</ele>
        <time>2026-04-30T07:21:11.000Z</time>
      </trkpt>
      <trkpt lat="43.97727" lon="2.9864">
        <ele>653.4</ele>
        <time>2026-04-30T07:21:12.000Z</time>
      </trkpt>
      <trkpt lat="43.97727" lon="2.98641">
        <ele>653.9</ele>
        <time>2026-04-30T07:21:13.000Z</time>
      </trkpt>
      <trkpt lat="43.97728" lon="2.98641">
        <ele>654</ele>
        <time>2026-04-30T07:21:14.000Z</time>
      </trkpt>
      <trkpt lat="43.97728" lon="2.98641">
        <ele>654.4</ele>
        <time>2026-04-30T07:21:15.000Z</time>
      </trkpt>
      <trkpt lat="43.97728" lon="2.98641">
        <ele>654.9</ele>
        <time>2026-04-30T07:21:16.000Z</time>
      </trkpt>
      <trkpt lat="43.97729" lon="2.9864">
        <ele>655.2</ele>
        <time>2026-04-30T07:21:17.000Z</time>
      </trkpt>
      <trkpt lat="43.9773" lon="2.98639">
        <ele>655.5</ele>
        <time>2026-04-30T07:21:18.000Z</time>
      </trkpt>
      <trkpt lat="43.97731" lon="2.98638">
        <ele>655.3</ele>
        <time>2026-04-30T07:21:19.000Z</time>
      </trkpt>
      <trkpt lat="43.97732" lon="2.98638">
        <ele>655.5</ele>
        <time>2026-04-30T07:21:20.000Z</time>
      </trkpt>
      <trkpt lat="43.97733" lon="2.98637">
        <ele>655.4</ele>
        <time>2026-04-30T07:21:21.000Z</time>
      </trkpt>
      <trkpt lat="43.97734" lon="2.98636">
        <ele>655.6</ele>
        <time>2026-04-30T07:21:22.000Z</time>
      </trkpt>
      <trkpt lat="43.97734" lon="2.98636">
        <ele>655.5</ele>
        <time>2026-04-30T07:21:23.000Z</time>
      </trkpt>
      <trkpt lat="43.97734" lon="2.98636">
        <ele>655.9</ele>
        <time>2026-04-30T07:21:24.000Z</time>
      </trkpt>
      <trkpt lat="43.97734" lon="2.98636">
        <ele>656.6</ele>
        <time>2026-04-30T07:21:25.000Z</time>
      </trkpt>
      <trkpt lat="43.97734" lon="2.98636">
        <ele>657</ele>
        <time>2026-04-30T07:21:26.000Z</time>
      </trkpt>
      <trkpt lat="43.97734" lon="2.98635">
        <ele>657.2</ele>
        <time>2026-04-30T07:21:27.000Z</time>
      </trkpt>
      <trkpt lat="43.97734" lon="2.98635">
        <ele>657.5</ele>
        <time>2026-04-30T07:21:28.000Z</time>
      </trkpt>
      <trkpt lat="43.97734" lon="2.98635">
        <ele>657.8</ele>
        <time>2026-04-30T07:21:29.000Z</time>
      </trkpt>
      <trkpt lat="43.97734" lon="2.98635">
        <ele>658.3</ele>
        <time>2026-04-30T07:21:30.000Z</time>
      </trkpt>
      <trkpt lat="43.97734" lon="2.98635">
        <ele>658.3</ele>
        <time>2026-04-30T07:21:31.000Z</time>
      </trkpt>
      <trkpt lat="43.97734" lon="2.98635">
        <ele>658.5</ele>
        <time>2026-04-30T07:21:32.000Z</time>
      </trkpt>
      <trkpt lat="43.97735" lon="2.98634">
        <ele>658.4</ele>
        <time>2026-04-30T07:21:33.000Z</time>
      </trkpt>
      <trkpt lat="43.97736" lon="2.98633">
        <ele>658.4</ele>
        <time>2026-04-30T07:21:34.000Z</time>
      </trkpt>
      <trkpt lat="43.97736" lon="2.98632">
        <ele>658.8</ele>
        <time>2026-04-30T07:21:35.000Z</time>
      </trkpt>
      <trkpt lat="43.97736" lon="2.9863">
        <ele>659</ele>
        <time>2026-04-30T07:21:36.000Z</time>
      </trkpt>
      <trkpt lat="43.97736" lon="2.9863">
        <ele>659.2</ele>
        <time>2026-04-30T07:21:38.000Z</time>
      </trkpt>
      <trkpt lat="43.97736" lon="2.9863">
        <ele>659.1</ele>
        <time>2026-04-30T07:21:39.000Z</time>
      </trkpt>
      <trkpt lat="43.97736" lon="2.9863">
        <ele>659</ele>
        <time>2026-04-30T07:21:40.000Z</time>
      </trkpt>
      <trkpt lat="43.97736" lon="2.9863">
        <ele>658.8</ele>
        <time>2026-04-30T07:21:41.000Z</time>
      </trkpt>
      <trkpt lat="43.97736" lon="2.98629">
        <ele>658.7</ele>
        <time>2026-04-30T07:21:42.000Z</time>
      </trkpt>
      <trkpt lat="43.97736" lon="2.98628">
        <ele>659</ele>
        <time>2026-04-30T07:21:43.000Z</time>
      </trkpt>
      <trkpt lat="43.97735" lon="2.98626">
        <ele>659.1</ele>
        <time>2026-04-30T07:21:44.000Z</time>
      </trkpt>
      <trkpt lat="43.97735" lon="2.98625">
        <ele>659.2</ele>
        <time>2026-04-30T07:21:45.000Z</time>
      </trkpt>
      <trkpt lat="43.97734" lon="2.98624">
        <ele>659.3</ele>
        <time>2026-04-30T07:21:46.000Z</time>
      </trkpt>
      <trkpt lat="43.97734" lon="2.98624">
        <ele>659.4</ele>
        <time>2026-04-30T07:21:47.000Z</time>
      </trkpt>
      <trkpt lat="43.97734" lon="2.98624">
        <ele>659.7</ele>
        <time>2026-04-30T07:21:48.000Z</time>
      </trkpt>
      <trkpt lat="43.97734" lon="2.98623">
        <ele>660.1</ele>
        <time>2026-04-30T07:21:49.000Z</time>
      </trkpt>
      <trkpt lat="43.97734" lon="2.98623">
        <ele>660.5</ele>
        <time>2026-04-30T07:21:50.000Z</time>
      </trkpt>
      <trkpt lat="43.97734" lon="2.98623">
        <ele>660.6</ele>
        <time>2026-04-30T07:21:51.000Z</time>
      </trkpt>
      <trkpt lat="43.97734" lon="2.98623">
        <ele>660.7</ele>
        <time>2026-04-30T07:21:52.000Z</time>
      </trkpt>
      <trkpt lat="43.97734" lon="2.98623">
        <ele>660.7</ele>
        <time>2026-04-30T07:21:53.000Z</time>
      </trkpt>
      <trkpt lat="43.97734" lon="2.98622">
        <ele>660.9</ele>
        <time>2026-04-30T07:21:54.000Z</time>
      </trkpt>
      <trkpt lat="43.97734" lon="2.98622">
        <ele>661.2</ele>
        <time>2026-04-30T07:21:55.000Z</time>
      </trkpt>
      <trkpt lat="43.97734" lon="2.98621">
        <ele>661.3</ele>
        <time>2026-04-30T07:21:56.000Z</time>
      </trkpt>
      <trkpt lat="43.97734" lon="2.9862">
        <ele>661.4</ele>
        <time>2026-04-30T07:21:57.000Z</time>
      </trkpt>
      <trkpt lat="43.97734" lon="2.98618">
        <ele>661.7</ele>
        <time>2026-04-30T07:21:58.000Z</time>
      </trkpt>
      <trkpt lat="43.97734" lon="2.98617">
        <ele>661.9</ele>
        <time>2026-04-30T07:21:59.000Z</time>
      </trkpt>
      <trkpt lat="43.97734" lon="2.98615">
        <ele>661.8</ele>
        <time>2026-04-30T07:22:00.000Z</time>
      </trkpt>
      <trkpt lat="43.97733" lon="2.98615">
        <ele>661.6</ele>
        <time>2026-04-30T07:22:01.000Z</time>
      </trkpt>
      <trkpt lat="43.97733" lon="2.98614">
        <ele>661.6</ele>
        <time>2026-04-30T07:22:02.000Z</time>
      </trkpt>
      <trkpt lat="43.97733" lon="2.98612">
        <ele>661.6</ele>
        <time>2026-04-30T07:22:03.000Z</time>
      </trkpt>
      <trkpt lat="43.97733" lon="2.98611">
        <ele>661.5</ele>
        <time>2026-04-30T07:22:04.000Z</time>
      </trkpt>
      <trkpt lat="43.97733" lon="2.9861">
        <ele>661.5</ele>
        <time>2026-04-30T07:22:05.000Z</time>
      </trkpt>
      <trkpt lat="43.97733" lon="2.98609">
        <ele>661.6</ele>
        <time>2026-04-30T07:22:06.000Z</time>
      </trkpt>
      <trkpt lat="43.97733" lon="2.98609">
        <ele>661.7</ele>
        <time>2026-04-30T07:22:07.000Z</time>
      </trkpt>
      <trkpt lat="43.97733" lon="2.98608">
        <ele>661.6</ele>
        <time>2026-04-30T07:22:08.000Z</time>
      </trkpt>
      <trkpt lat="43.97733" lon="2.98608">
        <ele>661.5</ele>
        <time>2026-04-30T07:22:09.000Z</time>
      </trkpt>
      <trkpt lat="43.97733" lon="2.98607">
        <ele>661.4</ele>
        <time>2026-04-30T07:22:10.000Z</time>
      </trkpt>
      <trkpt lat="43.97733" lon="2.98607">
        <ele>661.6</ele>
        <time>2026-04-30T07:22:11.000Z</time>
      </trkpt>
      <trkpt lat="43.97732" lon="2.98606">
        <ele>661.8</ele>
        <time>2026-04-30T07:22:12.000Z</time>
      </trkpt>
      <trkpt lat="43.97732" lon="2.98605">
        <ele>662.1</ele>
        <time>2026-04-30T07:22:13.000Z</time>
      </trkpt>
      <trkpt lat="43.97732" lon="2.98605">
        <ele>662.4</ele>
        <time>2026-04-30T07:22:14.000Z</time>
      </trkpt>
      <trkpt lat="43.97732" lon="2.98604">
        <ele>662.5</ele>
        <time>2026-04-30T07:22:15.000Z</time>
      </trkpt>
      <trkpt lat="43.97731" lon="2.98604">
        <ele>662.5</ele>
        <time>2026-04-30T07:22:16.000Z</time>
      </trkpt>
      <trkpt lat="43.97731" lon="2.98603">
        <ele>662.7</ele>
        <time>2026-04-30T07:22:17.000Z</time>
      </trkpt>
      <trkpt lat="43.9773" lon="2.98602">
        <ele>662.9</ele>
        <time>2026-04-30T07:22:18.000Z</time>
      </trkpt>
      <trkpt lat="43.9773" lon="2.98601">
        <ele>663.3</ele>
        <time>2026-04-30T07:22:19.000Z</time>
      </trkpt>
      <trkpt lat="43.97731" lon="2.98599">
        <ele>663.7</ele>
        <time>2026-04-30T07:22:20.000Z</time>
      </trkpt>
      <trkpt lat="43.97731" lon="2.98599">
        <ele>664.1</ele>
        <time>2026-04-30T07:22:21.000Z</time>
      </trkpt>
      <trkpt lat="43.97731" lon="2.98598">
        <ele>664.4</ele>
        <time>2026-04-30T07:22:22.000Z</time>
      </trkpt>
      <trkpt lat="43.97731" lon="2.98597">
        <ele>664.5</ele>
        <time>2026-04-30T07:22:23.000Z</time>
      </trkpt>
      <trkpt lat="43.97731" lon="2.98597">
        <ele>664.5</ele>
        <time>2026-04-30T07:22:24.000Z</time>
      </trkpt>
      <trkpt lat="43.97731" lon="2.98597">
        <ele>664.7</ele>
        <time>2026-04-30T07:22:25.000Z</time>
      </trkpt>
      <trkpt lat="43.97731" lon="2.98596">
        <ele>665.1</ele>
        <time>2026-04-30T07:22:26.000Z</time>
      </trkpt>
      <trkpt lat="43.97731" lon="2.98596">
        <ele>665.3</ele>
        <time>2026-04-30T07:22:27.000Z</time>
      </trkpt>
      <trkpt lat="43.97731" lon="2.98596">
        <ele>665.3</ele>
        <time>2026-04-30T07:22:28.000Z</time>
      </trkpt>
      <trkpt lat="43.9773" lon="2.98596">
        <ele>665</ele>
        <time>2026-04-30T07:22:29.000Z</time>
      </trkpt>
      <trkpt lat="43.9773" lon="2.98596">
        <ele>664.7</ele>
        <time>2026-04-30T07:22:30.000Z</time>
      </trkpt>
      <trkpt lat="43.9773" lon="2.98596">
        <ele>664.6</ele>
        <time>2026-04-30T07:22:31.000Z</time>
      </trkpt>
      <trkpt lat="43.9773" lon="2.98596">
        <ele>664.7</ele>
        <time>2026-04-30T07:22:32.000Z</time>
      </trkpt>
      <trkpt lat="43.9773" lon="2.98596">
        <ele>664.8</ele>
        <time>2026-04-30T07:22:33.000Z</time>
      </trkpt>
      <trkpt lat="43.9773" lon="2.98596">
        <ele>665</ele>
        <time>2026-04-30T07:22:34.000Z</time>
      </trkpt>
      <trkpt lat="43.9773" lon="2.98596">
        <ele>665.2</ele>
        <time>2026-04-30T07:22:35.000Z</time>
      </trkpt>
      <trkpt lat="43.9773" lon="2.98596">
        <ele>665.3</ele>
        <time>2026-04-30T07:22:36.000Z</time>
      </trkpt>
      <trkpt lat="43.9773" lon="2.98596">
        <ele>665.5</ele>
        <time>2026-04-30T07:22:37.000Z</time>
      </trkpt>
      <trkpt lat="43.9773" lon="2.98596">
        <ele>665.6</ele>
        <time>2026-04-30T07:22:38.000Z</time>
      </trkpt>
      <trkpt lat="43.9773" lon="2.98596">
        <ele>666.1</ele>
        <time>2026-04-30T07:22:39.000Z</time>
      </trkpt>
      <trkpt lat="43.9773" lon="2.98595">
        <ele>666.3</ele>
        <time>2026-04-30T07:22:40.000Z</time>
      </trkpt>
      <trkpt lat="43.9773" lon="2.98595">
        <ele>666.7</ele>
        <time>2026-04-30T07:22:41.000Z</time>
      </trkpt>
      <trkpt lat="43.97729" lon="2.98595">
        <ele>667.1</ele>
        <time>2026-04-30T07:22:42.000Z</time>
      </trkpt>
      <trkpt lat="43.97728" lon="2.98595">
        <ele>667.5</ele>
        <time>2026-04-30T07:22:43.000Z</time>
      </trkpt>
      <trkpt lat="43.97728" lon="2.98596">
        <ele>667.4</ele>
        <time>2026-04-30T07:22:44.000Z</time>
      </trkpt>
      <trkpt lat="43.97728" lon="2.98596">
        <ele>667.4</ele>
        <time>2026-04-30T07:22:45.000Z</time>
      </trkpt>
      <trkpt lat="43.97727" lon="2.98597">
        <ele>667.5</ele>
        <time>2026-04-30T07:22:46.000Z</time>
      </trkpt>
      <trkpt lat="43.97726" lon="2.98598">
        <ele>667.8</ele>
        <time>2026-04-30T07:22:47.000Z</time>
      </trkpt>
      <trkpt lat="43.97726" lon="2.98598">
        <ele>668</ele>
        <time>2026-04-30T07:22:48.000Z</time>
      </trkpt>
      <trkpt lat="43.97725" lon="2.98598">
        <ele>668.4</ele>
        <time>2026-04-30T07:22:49.000Z</time>
      </trkpt>
      <trkpt lat="43.97725" lon="2.98598">
        <ele>668.7</ele>
        <time>2026-04-30T07:22:50.000Z</time>
      </trkpt>
      <trkpt lat="43.97725" lon="2.98598">
        <ele>668.7</ele>
        <time>2026-04-30T07:22:51.000Z</time>
      </trkpt>
      <trkpt lat="43.97725" lon="2.98598">
        <ele>668.7</ele>
        <time>2026-04-30T07:22:52.000Z</time>
      </trkpt>
      <trkpt lat="43.97725" lon="2.98598">
        <ele>668.4</ele>
        <time>2026-04-30T07:22:53.000Z</time>
      </trkpt>
      <trkpt lat="43.97725" lon="2.98598">
        <ele>668.2</ele>
        <time>2026-04-30T07:22:54.000Z</time>
      </trkpt>
      <trkpt lat="43.97725" lon="2.98598">
        <ele>668</ele>
        <time>2026-04-30T07:22:55.000Z</time>
      </trkpt>
      <trkpt lat="43.97725" lon="2.98598">
        <ele>668.1</ele>
        <time>2026-04-30T07:22:56.000Z</time>
      </trkpt>
      <trkpt lat="43.97725" lon="2.98598">
        <ele>668.3</ele>
        <time>2026-04-30T07:22:57.000Z</time>
      </trkpt>
      <trkpt lat="43.97725" lon="2.98597">
        <ele>668.7</ele>
        <time>2026-04-30T07:22:58.000Z</time>
      </trkpt>
      <trkpt lat="43.97725" lon="2.98597">
        <ele>668.8</ele>
        <time>2026-04-30T07:22:59.000Z</time>
      </trkpt>
      <trkpt lat="43.97724" lon="2.98597">
        <ele>668.9</ele>
        <time>2026-04-30T07:23:00.000Z</time>
      </trkpt>
      <trkpt lat="43.97723" lon="2.98597">
        <ele>668.8</ele>
        <time>2026-04-30T07:23:01.000Z</time>
      </trkpt>
      <trkpt lat="43.97723" lon="2.98597">
        <ele>668.7</ele>
        <time>2026-04-30T07:23:02.000Z</time>
      </trkpt>
      <trkpt lat="43.97722" lon="2.98597">
        <ele>668.8</ele>
        <time>2026-04-30T07:23:03.000Z</time>
      </trkpt>
      <trkpt lat="43.97722" lon="2.98597">
        <ele>668.9</ele>
        <time>2026-04-30T07:23:04.000Z</time>
      </trkpt>
      <trkpt lat="43.97722" lon="2.98597">
        <ele>669</ele>
        <time>2026-04-30T07:23:05.000Z</time>
      </trkpt>
      <trkpt lat="43.97721" lon="2.98597">
        <ele>669.2</ele>
        <time>2026-04-30T07:23:06.000Z</time>
      </trkpt>
      <trkpt lat="43.97721" lon="2.98598">
        <ele>669.8</ele>
        <time>2026-04-30T07:23:07.000Z</time>
      </trkpt>
      <trkpt lat="43.97721" lon="2.98598">
        <ele>670.4</ele>
        <time>2026-04-30T07:23:08.000Z</time>
      </trkpt>
      <trkpt lat="43.97721" lon="2.98598">
        <ele>670.6</ele>
        <time>2026-04-30T07:23:09.000Z</time>
      </trkpt>
      <trkpt lat="43.97721" lon="2.98598">
        <ele>670.8</ele>
        <time>2026-04-30T07:23:10.000Z</time>
      </trkpt>
      <trkpt lat="43.9772" lon="2.98598">
        <ele>671</ele>
        <time>2026-04-30T07:23:11.000Z</time>
      </trkpt>
      <trkpt lat="43.9772" lon="2.98598">
        <ele>671.4</ele>
        <time>2026-04-30T07:23:12.000Z</time>
      </trkpt>
      <trkpt lat="43.9772" lon="2.98598">
        <ele>671.9</ele>
        <time>2026-04-30T07:23:13.000Z</time>
      </trkpt>
      <trkpt lat="43.9772" lon="2.98598">
        <ele>672.2</ele>
        <time>2026-04-30T07:23:14.000Z</time>
      </trkpt>
      <trkpt lat="43.9772" lon="2.98598">
        <ele>672.2</ele>
        <time>2026-04-30T07:23:15.000Z</time>
      </trkpt>
      <trkpt lat="43.97719" lon="2.98598">
        <ele>672.3</ele>
        <time>2026-04-30T07:23:16.000Z</time>
      </trkpt>
      <trkpt lat="43.97719" lon="2.98598">
        <ele>672.7</ele>
        <time>2026-04-30T07:23:17.000Z</time>
      </trkpt>
      <trkpt lat="43.97719" lon="2.98598">
        <ele>672.9</ele>
        <time>2026-04-30T07:23:18.000Z</time>
      </trkpt>
      <trkpt lat="43.97719" lon="2.98598">
        <ele>673.2</ele>
        <time>2026-04-30T07:23:19.000Z</time>
      </trkpt>
      <trkpt lat="43.97719" lon="2.98598">
        <ele>673.6</ele>
        <time>2026-04-30T07:23:20.000Z</time>
      </trkpt>
      <trkpt lat="43.97719" lon="2.98598">
        <ele>673.7</ele>
        <time>2026-04-30T07:23:21.000Z</time>
      </trkpt>
      <trkpt lat="43.97718" lon="2.98599">
        <ele>673.9</ele>
        <time>2026-04-30T07:23:22.000Z</time>
      </trkpt>
      <trkpt lat="43.97716" lon="2.98598">
        <ele>673.8</ele>
        <time>2026-04-30T07:23:23.000Z</time>
      </trkpt>
      <trkpt lat="43.97716" lon="2.98598">
        <ele>673.8</ele>
        <time>2026-04-30T07:23:24.000Z</time>
      </trkpt>
      <trkpt lat="43.97716" lon="2.98598">
        <ele>673.7</ele>
        <time>2026-04-30T07:23:25.000Z</time>
      </trkpt>
      <trkpt lat="43.97715" lon="2.98598">
        <ele>673.6</ele>
        <time>2026-04-30T07:23:26.000Z</time>
      </trkpt>
      <trkpt lat="43.97715" lon="2.98598">
        <ele>673.7</ele>
        <time>2026-04-30T07:23:27.000Z</time>
      </trkpt>
      <trkpt lat="43.97715" lon="2.98598">
        <ele>673.7</ele>
        <time>2026-04-30T07:23:28.000Z</time>
      </trkpt>
      <trkpt lat="43.97715" lon="2.98599">
        <ele>674.1</ele>
        <time>2026-04-30T07:23:29.000Z</time>
      </trkpt>
      <trkpt lat="43.97715" lon="2.98599">
        <ele>674.4</ele>
        <time>2026-04-30T07:23:30.000Z</time>
      </trkpt>
      <trkpt lat="43.97715" lon="2.98599">
        <ele>674.4</ele>
        <time>2026-04-30T07:23:31.000Z</time>
      </trkpt>
      <trkpt lat="43.97715" lon="2.98599">
        <ele>674.4</ele>
        <time>2026-04-30T07:23:32.000Z</time>
      </trkpt>
      <trkpt lat="43.97715" lon="2.98599">
        <ele>674.5</ele>
        <time>2026-04-30T07:23:33.000Z</time>
      </trkpt>
      <trkpt lat="43.97714" lon="2.986">
        <ele>674.7</ele>
        <time>2026-04-30T07:23:34.000Z</time>
      </trkpt>
      <trkpt lat="43.97713" lon="2.98601">
        <ele>675</ele>
        <time>2026-04-30T07:23:35.000Z</time>
      </trkpt>
      <trkpt lat="43.97713" lon="2.98602">
        <ele>675.4</ele>
        <time>2026-04-30T07:23:36.000Z</time>
      </trkpt>
      <trkpt lat="43.97712" lon="2.98602">
        <ele>675.7</ele>
        <time>2026-04-30T07:23:37.000Z</time>
      </trkpt>
      <trkpt lat="43.97712" lon="2.98602">
        <ele>675.9</ele>
        <time>2026-04-30T07:23:38.000Z</time>
      </trkpt>
      <trkpt lat="43.97712" lon="2.98602">
        <ele>675.9</ele>
        <time>2026-04-30T07:23:39.000Z</time>
      </trkpt>
      <trkpt lat="43.97712" lon="2.98602">
        <ele>676</ele>
        <time>2026-04-30T07:23:40.000Z</time>
      </trkpt>
      <trkpt lat="43.97713" lon="2.98601">
        <ele>676.2</ele>
        <time>2026-04-30T07:23:41.000Z</time>
      </trkpt>
      <trkpt lat="43.97712" lon="2.98602">
        <ele>676.3</ele>
        <time>2026-04-30T07:23:42.000Z</time>
      </trkpt>
      <trkpt lat="43.97711" lon="2.98602">
        <ele>676.4</ele>
        <time>2026-04-30T07:23:43.000Z</time>
      </trkpt>
      <trkpt lat="43.97711" lon="2.98602">
        <ele>676.7</ele>
        <time>2026-04-30T07:23:44.000Z</time>
      </trkpt>
      <trkpt lat="43.97711" lon="2.98602">
        <ele>676.6</ele>
        <time>2026-04-30T07:23:45.000Z</time>
      </trkpt>
      <trkpt lat="43.97711" lon="2.98602">
        <ele>676.7</ele>
        <time>2026-04-30T07:23:46.000Z</time>
      </trkpt>
      <trkpt lat="43.97711" lon="2.98602">
        <ele>676.9</ele>
        <time>2026-04-30T07:23:47.000Z</time>
      </trkpt>
      <trkpt lat="43.97711" lon="2.98602">
        <ele>677.2</ele>
        <time>2026-04-30T07:23:48.000Z</time>
      </trkpt>
      <trkpt lat="43.97711" lon="2.98602">
        <ele>677.3</ele>
        <time>2026-04-30T07:23:49.000Z</time>
      </trkpt>
      <trkpt lat="43.9771" lon="2.98603">
        <ele>677.8</ele>
        <time>2026-04-30T07:23:50.000Z</time>
      </trkpt>
      <trkpt lat="43.97709" lon="2.98604">
        <ele>678.1</ele>
        <time>2026-04-30T07:23:51.000Z</time>
      </trkpt>
      <trkpt lat="43.97709" lon="2.98604">
        <ele>678.5</ele>
        <time>2026-04-30T07:23:52.000Z</time>
      </trkpt>
      <trkpt lat="43.97709" lon="2.98604">
        <ele>678.5</ele>
        <time>2026-04-30T07:23:53.000Z</time>
      </trkpt>
      <trkpt lat="43.97709" lon="2.98604">
        <ele>678.5</ele>
        <time>2026-04-30T07:23:54.000Z</time>
      </trkpt>
      <trkpt lat="43.97709" lon="2.98604">
        <ele>678.5</ele>
        <time>2026-04-30T07:23:55.000Z</time>
      </trkpt>
      <trkpt lat="43.97709" lon="2.98604">
        <ele>678.8</ele>
        <time>2026-04-30T07:23:56.000Z</time>
      </trkpt>
      <trkpt lat="43.97709" lon="2.98604">
        <ele>679</ele>
        <time>2026-04-30T07:23:57.000Z</time>
      </trkpt>
      <trkpt lat="43.97709" lon="2.98604">
        <ele>679.1</ele>
        <time>2026-04-30T07:23:58.000Z</time>
      </trkpt>
      <trkpt lat="43.97709" lon="2.98604">
        <ele>679.4</ele>
        <time>2026-04-30T07:23:59.000Z</time>
      </trkpt>
      <trkpt lat="43.97708" lon="2.98604">
        <ele>679.4</ele>
        <time>2026-04-30T07:24:00.000Z</time>
      </trkpt>
      <trkpt lat="43.97708" lon="2.98605">
        <ele>679.4</ele>
        <time>2026-04-30T07:24:01.000Z</time>
      </trkpt>
      <trkpt lat="43.97708" lon="2.98605">
        <ele>679.3</ele>
        <time>2026-04-30T07:24:02.000Z</time>
      </trkpt>
      <trkpt lat="43.97708" lon="2.98606">
        <ele>679.5</ele>
        <time>2026-04-30T07:24:03.000Z</time>
      </trkpt>
      <trkpt lat="43.97708" lon="2.98606">
        <ele>679.4</ele>
        <time>2026-04-30T07:24:04.000Z</time>
      </trkpt>
      <trkpt lat="43.97708" lon="2.98606">
        <ele>679.8</ele>
        <time>2026-04-30T07:24:05.000Z</time>
      </trkpt>
      <trkpt lat="43.97708" lon="2.98606">
        <ele>680.1</ele>
        <time>2026-04-30T07:24:06.000Z</time>
      </trkpt>
      <trkpt lat="43.97708" lon="2.98606">
        <ele>680.6</ele>
        <time>2026-04-30T07:24:08.000Z</time>
      </trkpt>
      <trkpt lat="43.97708" lon="2.98606">
        <ele>680.6</ele>
        <time>2026-04-30T07:24:09.000Z</time>
      </trkpt>
      <trkpt lat="43.97708" lon="2.98606">
        <ele>680.6</ele>
        <time>2026-04-30T07:24:10.000Z</time>
      </trkpt>
      <trkpt lat="43.97708" lon="2.98606">
        <ele>680.9</ele>
        <time>2026-04-30T07:24:11.000Z</time>
      </trkpt>
      <trkpt lat="43.97707" lon="2.98606">
        <ele>681.1</ele>
        <time>2026-04-30T07:24:12.000Z</time>
      </trkpt>
      <trkpt lat="43.97707" lon="2.98606">
        <ele>681.2</ele>
        <time>2026-04-30T07:24:13.000Z</time>
      </trkpt>
      <trkpt lat="43.97707" lon="2.98605">
        <ele>681.3</ele>
        <time>2026-04-30T07:24:14.000Z</time>
      </trkpt>
      <trkpt lat="43.97706" lon="2.98606">
        <ele>681.1</ele>
        <time>2026-04-30T07:24:15.000Z</time>
      </trkpt>
      <trkpt lat="43.97706" lon="2.98606">
        <ele>681.4</ele>
        <time>2026-04-30T07:24:16.000Z</time>
      </trkpt>
      <trkpt lat="43.97706" lon="2.98606">
        <ele>681.7</ele>
        <time>2026-04-30T07:24:17.000Z</time>
      </trkpt>
      <trkpt lat="43.97706" lon="2.98606">
        <ele>681.9</ele>
        <time>2026-04-30T07:24:18.000Z</time>
      </trkpt>
      <trkpt lat="43.97706" lon="2.98606">
        <ele>682</ele>
        <time>2026-04-30T07:24:19.000Z</time>
      </trkpt>
      <trkpt lat="43.97705" lon="2.98606">
        <ele>682.1</ele>
        <time>2026-04-30T07:24:20.000Z</time>
      </trkpt>
      <trkpt lat="43.97705" lon="2.98606">
        <ele>682.2</ele>
        <time>2026-04-30T07:24:21.000Z</time>
      </trkpt>
      <trkpt lat="43.97705" lon="2.98606">
        <ele>682.6</ele>
        <time>2026-04-30T07:24:22.000Z</time>
      </trkpt>
      <trkpt lat="43.97704" lon="2.98605">
        <ele>682.7</ele>
        <time>2026-04-30T07:24:23.000Z</time>
      </trkpt>
      <trkpt lat="43.97704" lon="2.98606">
        <ele>683.1</ele>
        <time>2026-04-30T07:24:25.000Z</time>
      </trkpt>
      <trkpt lat="43.97704" lon="2.98606">
        <ele>683.1</ele>
        <time>2026-04-30T07:24:26.000Z</time>
      </trkpt>
      <trkpt lat="43.97704" lon="2.98606">
        <ele>683.1</ele>
        <time>2026-04-30T07:24:27.000Z</time>
      </trkpt>
      <trkpt lat="43.97704" lon="2.98606">
        <ele>683.2</ele>
        <time>2026-04-30T07:24:28.000Z</time>
      </trkpt>
      <trkpt lat="43.97704" lon="2.98606">
        <ele>683.3</ele>
        <time>2026-04-30T07:24:29.000Z</time>
      </trkpt>
      <trkpt lat="43.97704" lon="2.98606">
        <ele>683.4</ele>
        <time>2026-04-30T07:24:30.000Z</time>
      </trkpt>
      <trkpt lat="43.97704" lon="2.98607">
        <ele>683.5</ele>
        <time>2026-04-30T07:24:32.000Z</time>
      </trkpt>
      <trkpt lat="43.97703" lon="2.98607">
        <ele>683.5</ele>
        <time>2026-04-30T07:24:33.000Z</time>
      </trkpt>
      <trkpt lat="43.97703" lon="2.98607">
        <ele>683.8</ele>
        <time>2026-04-30T07:24:34.000Z</time>
      </trkpt>
      <trkpt lat="43.97703" lon="2.98607">
        <ele>683.7</ele>
        <time>2026-04-30T07:24:35.000Z</time>
      </trkpt>
      <trkpt lat="43.97703" lon="2.98607">
        <ele>683.9</ele>
        <time>2026-04-30T07:24:36.000Z</time>
      </trkpt>
      <trkpt lat="43.97703" lon="2.98607">
        <ele>684</ele>
        <time>2026-04-30T07:24:37.000Z</time>
      </trkpt>
      <trkpt lat="43.97703" lon="2.98607">
        <ele>684</ele>
        <time>2026-04-30T07:24:38.000Z</time>
      </trkpt>
      <trkpt lat="43.97703" lon="2.98607">
        <ele>684</ele>
        <time>2026-04-30T07:24:39.000Z</time>
      </trkpt>
      <trkpt lat="43.97703" lon="2.98607">
        <ele>684</ele>
        <time>2026-04-30T07:24:40.000Z</time>
      </trkpt>
      <trkpt lat="43.97702" lon="2.98606">
        <ele>683.9</ele>
        <time>2026-04-30T07:24:41.000Z</time>
      </trkpt>
      <trkpt lat="43.97702" lon="2.98607">
        <ele>684</ele>
        <time>2026-04-30T07:24:42.000Z</time>
      </trkpt>
      <trkpt lat="43.97701" lon="2.98607">
        <ele>683.9</ele>
        <time>2026-04-30T07:24:43.000Z</time>
      </trkpt>
      <trkpt lat="43.97701" lon="2.98607">
        <ele>683.9</ele>
        <time>2026-04-30T07:24:44.000Z</time>
      </trkpt>
      <trkpt lat="43.97701" lon="2.98607">
        <ele>683.9</ele>
        <time>2026-04-30T07:24:45.000Z</time>
      </trkpt>
      <trkpt lat="43.97701" lon="2.98607">
        <ele>683.9</ele>
        <time>2026-04-30T07:24:46.000Z</time>
      </trkpt>
      <trkpt lat="43.977" lon="2.98607">
        <ele>683.9</ele>
        <time>2026-04-30T07:24:47.000Z</time>
      </trkpt>
      <trkpt lat="43.977" lon="2.98607">
        <ele>683.8</ele>
        <time>2026-04-30T07:24:48.000Z</time>
      </trkpt>
      <trkpt lat="43.977" lon="2.98607">
        <ele>683.8</ele>
        <time>2026-04-30T07:24:49.000Z</time>
      </trkpt>
      <trkpt lat="43.977" lon="2.98607">
        <ele>683.6</ele>
        <time>2026-04-30T07:24:50.000Z</time>
      </trkpt>
      <trkpt lat="43.97699" lon="2.98607">
        <ele>683.7</ele>
        <time>2026-04-30T07:24:51.000Z</time>
      </trkpt>
      <trkpt lat="43.97699" lon="2.98607">
        <ele>683.7</ele>
        <time>2026-04-30T07:24:52.000Z</time>
      </trkpt>
      <trkpt lat="43.97698" lon="2.98607">
        <ele>683.9</ele>
        <time>2026-04-30T07:24:53.000Z</time>
      </trkpt>
      <trkpt lat="43.97698" lon="2.98606">
        <ele>683.9</ele>
        <time>2026-04-30T07:24:54.000Z</time>
      </trkpt>
      <trkpt lat="43.97698" lon="2.98606">
        <ele>684.4</ele>
        <time>2026-04-30T07:24:55.000Z</time>
      </trkpt>
      <trkpt lat="43.97698" lon="2.98606">
        <ele>684.7</ele>
        <time>2026-04-30T07:24:56.000Z</time>
      </trkpt>
      <trkpt lat="43.97698" lon="2.98606">
        <ele>684.8</ele>
        <time>2026-04-30T07:24:57.000Z</time>
      </trkpt>
      <trkpt lat="43.97697" lon="2.98607">
        <ele>685.1</ele>
        <time>2026-04-30T07:24:58.000Z</time>
      </trkpt>
      <trkpt lat="43.97697" lon="2.98607">
        <ele>685.1</ele>
        <time>2026-04-30T07:24:59.000Z</time>
      </trkpt>
      <trkpt lat="43.97696" lon="2.98607">
        <ele>685.2</ele>
        <time>2026-04-30T07:25:00.000Z</time>
      </trkpt>
      <trkpt lat="43.97696" lon="2.98607">
        <ele>685.5</ele>
        <time>2026-04-30T07:25:01.000Z</time>
      </trkpt>
      <trkpt lat="43.97696" lon="2.98607">
        <ele>685.6</ele>
        <time>2026-04-30T07:25:02.000Z</time>
      </trkpt>
      <trkpt lat="43.97696" lon="2.98607">
        <ele>685.7</ele>
        <time>2026-04-30T07:25:03.000Z</time>
      </trkpt>
      <trkpt lat="43.97696" lon="2.98607">
        <ele>686</ele>
        <time>2026-04-30T07:25:04.000Z</time>
      </trkpt>
      <trkpt lat="43.97696" lon="2.98607">
        <ele>686</ele>
        <time>2026-04-30T07:25:05.000Z</time>
      </trkpt>
      <trkpt lat="43.97696" lon="2.98607">
        <ele>686.1</ele>
        <time>2026-04-30T07:25:06.000Z</time>
      </trkpt>
      <trkpt lat="43.97696" lon="2.98607">
        <ele>686.5</ele>
        <time>2026-04-30T07:25:07.000Z</time>
      </trkpt>
      <trkpt lat="43.97696" lon="2.98607">
        <ele>686.5</ele>
        <time>2026-04-30T07:25:08.000Z</time>
      </trkpt>
      <trkpt lat="43.97696" lon="2.98607">
        <ele>686.3</ele>
        <time>2026-04-30T07:25:09.000Z</time>
      </trkpt>
      <trkpt lat="43.97695" lon="2.98607">
        <ele>686.3</ele>
        <time>2026-04-30T07:25:10.000Z</time>
      </trkpt>
      <trkpt lat="43.97695" lon="2.98607">
        <ele>686</ele>
        <time>2026-04-30T07:25:11.000Z</time>
      </trkpt>
      <trkpt lat="43.97694" lon="2.98608">
        <ele>686</ele>
        <time>2026-04-30T07:25:12.000Z</time>
      </trkpt>
      <trkpt lat="43.97693" lon="2.98608">
        <ele>685.8</ele>
        <time>2026-04-30T07:25:13.000Z</time>
      </trkpt>
      <trkpt lat="43.97692" lon="2.98609">
        <ele>685.6</ele>
        <time>2026-04-30T07:25:14.000Z</time>
      </trkpt>
      <trkpt lat="43.97691" lon="2.98609">
        <ele>685.6</ele>
        <time>2026-04-30T07:25:15.000Z</time>
      </trkpt>
      <trkpt lat="43.9769" lon="2.98609">
        <ele>685.4</ele>
        <time>2026-04-30T07:25:16.000Z</time>
      </trkpt>
      <trkpt lat="43.97689" lon="2.98609">
        <ele>685.5</ele>
        <time>2026-04-30T07:25:17.000Z</time>
      </trkpt>
      <trkpt lat="43.97688" lon="2.98608">
        <ele>685.6</ele>
        <time>2026-04-30T07:25:18.000Z</time>
      </trkpt>
      <trkpt lat="43.97688" lon="2.98608">
        <ele>685.9</ele>
        <time>2026-04-30T07:25:19.000Z</time>
      </trkpt>
      <trkpt lat="43.97688" lon="2.98608">
        <ele>685.9</ele>
        <time>2026-04-30T07:25:20.000Z</time>
      </trkpt>
      <trkpt lat="43.97688" lon="2.98608">
        <ele>686</ele>
        <time>2026-04-30T07:25:21.000Z</time>
      </trkpt>
      <trkpt lat="43.97688" lon="2.98608">
        <ele>686.3</ele>
        <time>2026-04-30T07:25:22.000Z</time>
      </trkpt>
      <trkpt lat="43.97687" lon="2.98608">
        <ele>686.4</ele>
        <time>2026-04-30T07:25:23.000Z</time>
      </trkpt>
      <trkpt lat="43.97687" lon="2.98608">
        <ele>686.4</ele>
        <time>2026-04-30T07:25:24.000Z</time>
      </trkpt>
      <trkpt lat="43.97687" lon="2.98608">
        <ele>686.5</ele>
        <time>2026-04-30T07:25:25.000Z</time>
      </trkpt>
      <trkpt lat="43.97685" lon="2.98607">
        <ele>687.2</ele>
        <time>2026-04-30T07:25:26.000Z</time>
      </trkpt>
      <trkpt lat="43.97684" lon="2.98607">
        <ele>687.5</ele>
        <time>2026-04-30T07:25:27.000Z</time>
      </trkpt>
      <trkpt lat="43.97684" lon="2.98607">
        <ele>687.5</ele>
        <time>2026-04-30T07:25:28.000Z</time>
      </trkpt>
      <trkpt lat="43.97684" lon="2.98607">
        <ele>687.6</ele>
        <time>2026-04-30T07:25:29.000Z</time>
      </trkpt>
      <trkpt lat="43.97684" lon="2.98607">
        <ele>687.7</ele>
        <time>2026-04-30T07:25:30.000Z</time>
      </trkpt>
      <trkpt lat="43.97684" lon="2.98607">
        <ele>688.1</ele>
        <time>2026-04-30T07:25:31.000Z</time>
      </trkpt>
      <trkpt lat="43.97684" lon="2.98607">
        <ele>688.6</ele>
        <time>2026-04-30T07:25:32.000Z</time>
      </trkpt>
      <trkpt lat="43.97684" lon="2.98607">
        <ele>688.9</ele>
        <time>2026-04-30T07:25:33.000Z</time>
      </trkpt>
      <trkpt lat="43.97684" lon="2.98607">
        <ele>689.1</ele>
        <time>2026-04-30T07:25:34.000Z</time>
      </trkpt>
      <trkpt lat="43.97684" lon="2.98607">
        <ele>689.4</ele>
        <time>2026-04-30T07:25:35.000Z</time>
      </trkpt>
      <trkpt lat="43.97684" lon="2.98607">
        <ele>689.7</ele>
        <time>2026-04-30T07:25:36.000Z</time>
      </trkpt>
      <trkpt lat="43.97683" lon="2.98606">
        <ele>689.9</ele>
        <time>2026-04-30T07:25:37.000Z</time>
      </trkpt>
      <trkpt lat="43.97683" lon="2.98606">
        <ele>690.1</ele>
        <time>2026-04-30T07:25:38.000Z</time>
      </trkpt>
      <trkpt lat="43.97683" lon="2.98605">
        <ele>690.1</ele>
        <time>2026-04-30T07:25:39.000Z</time>
      </trkpt>
      <trkpt lat="43.97682" lon="2.98603">
        <ele>690.1</ele>
        <time>2026-04-30T07:25:41.000Z</time>
      </trkpt>
      <trkpt lat="43.97682" lon="2.98602">
        <ele>690.3</ele>
        <time>2026-04-30T07:25:42.000Z</time>
      </trkpt>
      <trkpt lat="43.97682" lon="2.98602">
        <ele>690.5</ele>
        <time>2026-04-30T07:25:43.000Z</time>
      </trkpt>
      <trkpt lat="43.97682" lon="2.98601">
        <ele>690.6</ele>
        <time>2026-04-30T07:25:44.000Z</time>
      </trkpt>
      <trkpt lat="43.97682" lon="2.98601">
        <ele>690.8</ele>
        <time>2026-04-30T07:25:45.000Z</time>
      </trkpt>
      <trkpt lat="43.97683" lon="2.98601">
        <ele>691.1</ele>
        <time>2026-04-30T07:25:46.000Z</time>
      </trkpt>
      <trkpt lat="43.97682" lon="2.98601">
        <ele>691.2</ele>
        <time>2026-04-30T07:25:47.000Z</time>
      </trkpt>
      <trkpt lat="43.97683" lon="2.986">
        <ele>691.2</ele>
        <time>2026-04-30T07:25:48.000Z</time>
      </trkpt>
      <trkpt lat="43.97683" lon="2.98599">
        <ele>691.1</ele>
        <time>2026-04-30T07:25:49.000Z</time>
      </trkpt>
      <trkpt lat="43.97683" lon="2.98598">
        <ele>691.9</ele>
        <time>2026-04-30T07:25:51.000Z</time>
      </trkpt>
      <trkpt lat="43.97682" lon="2.98597">
        <ele>691.9</ele>
        <time>2026-04-30T07:25:52.000Z</time>
      </trkpt>
      <trkpt lat="43.97682" lon="2.98597">
        <ele>691.9</ele>
        <time>2026-04-30T07:25:53.000Z</time>
      </trkpt>
      <trkpt lat="43.97682" lon="2.98597">
        <ele>692.1</ele>
        <time>2026-04-30T07:25:54.000Z</time>
      </trkpt>
      <trkpt lat="43.97682" lon="2.98597">
        <ele>692</ele>
        <time>2026-04-30T07:25:55.000Z</time>
      </trkpt>
      <trkpt lat="43.97682" lon="2.98597">
        <ele>692.2</ele>
        <time>2026-04-30T07:25:56.000Z</time>
      </trkpt>
      <trkpt lat="43.97682" lon="2.98597">
        <ele>692.2</ele>
        <time>2026-04-30T07:25:57.000Z</time>
      </trkpt>
      <trkpt lat="43.97682" lon="2.98597">
        <ele>692.5</ele>
        <time>2026-04-30T07:25:58.000Z</time>
      </trkpt>
      <trkpt lat="43.97682" lon="2.98597">
        <ele>692.5</ele>
        <time>2026-04-30T07:25:59.000Z</time>
      </trkpt>
      <trkpt lat="43.97682" lon="2.98597">
        <ele>692.6</ele>
        <time>2026-04-30T07:26:00.000Z</time>
      </trkpt>
      <trkpt lat="43.97682" lon="2.98597">
        <ele>692.6</ele>
        <time>2026-04-30T07:26:01.000Z</time>
      </trkpt>
      <trkpt lat="43.97682" lon="2.98597">
        <ele>692.9</ele>
        <time>2026-04-30T07:26:02.000Z</time>
      </trkpt>
      <trkpt lat="43.97682" lon="2.98597">
        <ele>693</ele>
        <time>2026-04-30T07:26:03.000Z</time>
      </trkpt>
      <trkpt lat="43.97682" lon="2.98596">
        <ele>693</ele>
        <time>2026-04-30T07:26:04.000Z</time>
      </trkpt>
      <trkpt lat="43.97682" lon="2.98596">
        <ele>693.2</ele>
        <time>2026-04-30T07:26:05.000Z</time>
      </trkpt>
      <trkpt lat="43.97682" lon="2.98596">
        <ele>693.4</ele>
        <time>2026-04-30T07:26:06.000Z</time>
      </trkpt>
      <trkpt lat="43.97683" lon="2.98596">
        <ele>693.6</ele>
        <time>2026-04-30T07:26:07.000Z</time>
      </trkpt>
      <trkpt lat="43.97683" lon="2.98596">
        <ele>693.7</ele>
        <time>2026-04-30T07:26:08.000Z</time>
      </trkpt>
      <trkpt lat="43.97683" lon="2.98596">
        <ele>693.9</ele>
        <time>2026-04-30T07:26:09.000Z</time>
      </trkpt>
      <trkpt lat="43.97684" lon="2.98594">
        <ele>694</ele>
        <time>2026-04-30T07:26:10.000Z</time>
      </trkpt>
      <trkpt lat="43.97683" lon="2.98594">
        <ele>694.2</ele>
        <time>2026-04-30T07:26:11.000Z</time>
      </trkpt>
      <trkpt lat="43.97683" lon="2.98592">
        <ele>694.2</ele>
        <time>2026-04-30T07:26:12.000Z</time>
      </trkpt>
      <trkpt lat="43.97683" lon="2.98591">
        <ele>694.4</ele>
        <time>2026-04-30T07:26:13.000Z</time>
      </trkpt>
      <trkpt lat="43.97683" lon="2.9859">
        <ele>694.2</ele>
        <time>2026-04-30T07:26:14.000Z</time>
      </trkpt>
      <trkpt lat="43.97683" lon="2.98589">
        <ele>694.4</ele>
        <time>2026-04-30T07:26:15.000Z</time>
      </trkpt>
      <trkpt lat="43.97683" lon="2.98587">
        <ele>694.4</ele>
        <time>2026-04-30T07:26:16.000Z</time>
      </trkpt>
      <trkpt lat="43.97683" lon="2.98587">
        <ele>694.8</ele>
        <time>2026-04-30T07:26:17.000Z</time>
      </trkpt>
      <trkpt lat="43.97683" lon="2.98586">
        <ele>694.9</ele>
        <time>2026-04-30T07:26:18.000Z</time>
      </trkpt>
      <trkpt lat="43.97683" lon="2.98585">
        <ele>695.2</ele>
        <time>2026-04-30T07:26:19.000Z</time>
      </trkpt>
      <trkpt lat="43.97683" lon="2.98585">
        <ele>695.2</ele>
        <time>2026-04-30T07:26:20.000Z</time>
      </trkpt>
      <trkpt lat="43.97683" lon="2.98584">
        <ele>695.4</ele>
        <time>2026-04-30T07:26:21.000Z</time>
      </trkpt>
      <trkpt lat="43.97683" lon="2.98583">
        <ele>695.5</ele>
        <time>2026-04-30T07:26:22.000Z</time>
      </trkpt>
      <trkpt lat="43.97683" lon="2.98583">
        <ele>695.7</ele>
        <time>2026-04-30T07:26:23.000Z</time>
      </trkpt>
      <trkpt lat="43.97683" lon="2.98583">
        <ele>695.6</ele>
        <time>2026-04-30T07:26:24.000Z</time>
      </trkpt>
      <trkpt lat="43.97684" lon="2.98582">
        <ele>695.6</ele>
        <time>2026-04-30T07:26:25.000Z</time>
      </trkpt>
      <trkpt lat="43.97684" lon="2.98582">
        <ele>695.8</ele>
        <time>2026-04-30T07:26:26.000Z</time>
      </trkpt>
      <trkpt lat="43.97686" lon="2.9858">
        <ele>696.3</ele>
        <time>2026-04-30T07:26:27.000Z</time>
      </trkpt>
      <trkpt lat="43.97686" lon="2.98579">
        <ele>697.1</ele>
        <time>2026-04-30T07:26:28.000Z</time>
      </trkpt>
      <trkpt lat="43.97686" lon="2.98579">
        <ele>697.7</ele>
        <time>2026-04-30T07:26:29.000Z</time>
      </trkpt>
      <trkpt lat="43.97686" lon="2.98579">
        <ele>697.8</ele>
        <time>2026-04-30T07:26:30.000Z</time>
      </trkpt>
      <trkpt lat="43.97685" lon="2.98578">
        <ele>698</ele>
        <time>2026-04-30T07:26:31.000Z</time>
      </trkpt>
      <trkpt lat="43.97685" lon="2.98578">
        <ele>698.2</ele>
        <time>2026-04-30T07:26:32.000Z</time>
      </trkpt>
      <trkpt lat="43.97684" lon="2.98578">
        <ele>698.3</ele>
        <time>2026-04-30T07:26:33.000Z</time>
      </trkpt>
      <trkpt lat="43.97684" lon="2.98577">
        <ele>698.2</ele>
        <time>2026-04-30T07:26:34.000Z</time>
      </trkpt>
      <trkpt lat="43.97683" lon="2.98576">
        <ele>697.9</ele>
        <time>2026-04-30T07:26:35.000Z</time>
      </trkpt>
      <trkpt lat="43.97682" lon="2.98575">
        <ele>697.7</ele>
        <time>2026-04-30T07:26:36.000Z</time>
      </trkpt>
      <trkpt lat="43.97682" lon="2.98575">
        <ele>697.7</ele>
        <time>2026-04-30T07:26:37.000Z</time>
      </trkpt>
      <trkpt lat="43.97682" lon="2.98575">
        <ele>697.9</ele>
        <time>2026-04-30T07:26:38.000Z</time>
      </trkpt>
      <trkpt lat="43.97682" lon="2.98575">
        <ele>698</ele>
        <time>2026-04-30T07:26:39.000Z</time>
      </trkpt>
      <trkpt lat="43.97682" lon="2.98575">
        <ele>698.1</ele>
        <time>2026-04-30T07:26:40.000Z</time>
      </trkpt>
      <trkpt lat="43.97682" lon="2.98574">
        <ele>697.7</ele>
        <time>2026-04-30T07:26:41.000Z</time>
      </trkpt>
      <trkpt lat="43.97682" lon="2.98573">
        <ele>698</ele>
        <time>2026-04-30T07:26:42.000Z</time>
      </trkpt>
      <trkpt lat="43.97682" lon="2.98573">
        <ele>698.2</ele>
        <time>2026-04-30T07:26:43.000Z</time>
      </trkpt>
      <trkpt lat="43.97682" lon="2.98573">
        <ele>698.4</ele>
        <time>2026-04-30T07:26:44.000Z</time>
      </trkpt>
      <trkpt lat="43.97682" lon="2.98573">
        <ele>698.5</ele>
        <time>2026-04-30T07:26:45.000Z</time>
      </trkpt>
      <trkpt lat="43.97682" lon="2.98573">
        <ele>698.7</ele>
        <time>2026-04-30T07:26:46.000Z</time>
      </trkpt>
      <trkpt lat="43.97682" lon="2.98573">
        <ele>699.1</ele>
        <time>2026-04-30T07:26:47.000Z</time>
      </trkpt>
      <trkpt lat="43.97682" lon="2.98572">
        <ele>699.2</ele>
        <time>2026-04-30T07:26:48.000Z</time>
      </trkpt>
      <trkpt lat="43.97682" lon="2.98572">
        <ele>699.1</ele>
        <time>2026-04-30T07:26:49.000Z</time>
      </trkpt>
      <trkpt lat="43.97682" lon="2.98572">
        <ele>699</ele>
        <time>2026-04-30T07:26:50.000Z</time>
      </trkpt>
      <trkpt lat="43.97682" lon="2.98572">
        <ele>699.1</ele>
        <time>2026-04-30T07:26:51.000Z</time>
      </trkpt>
      <trkpt lat="43.97682" lon="2.98571">
        <ele>699.2</ele>
        <time>2026-04-30T07:26:52.000Z</time>
      </trkpt>
      <trkpt lat="43.97682" lon="2.9857">
        <ele>699.4</ele>
        <time>2026-04-30T07:26:53.000Z</time>
      </trkpt>
      <trkpt lat="43.97681" lon="2.98569">
        <ele>699.3</ele>
        <time>2026-04-30T07:26:54.000Z</time>
      </trkpt>
      <trkpt lat="43.97681" lon="2.98569">
        <ele>699.7</ele>
        <time>2026-04-30T07:26:55.000Z</time>
      </trkpt>
      <trkpt lat="43.97681" lon="2.98569">
        <ele>699.7</ele>
        <time>2026-04-30T07:26:56.000Z</time>
      </trkpt>
      <trkpt lat="43.97681" lon="2.98568">
        <ele>699.8</ele>
        <time>2026-04-30T07:26:57.000Z</time>
      </trkpt>
      <trkpt lat="43.97682" lon="2.98567">
        <ele>700.7</ele>
        <time>2026-04-30T07:26:59.000Z</time>
      </trkpt>
      <trkpt lat="43.97682" lon="2.98567">
        <ele>700.8</ele>
        <time>2026-04-30T07:27:00.000Z</time>
      </trkpt>
      <trkpt lat="43.97682" lon="2.98566">
        <ele>701.5</ele>
        <time>2026-04-30T07:27:01.000Z</time>
      </trkpt>
      <trkpt lat="43.97682" lon="2.98566">
        <ele>701.8</ele>
        <time>2026-04-30T07:27:02.000Z</time>
      </trkpt>
      <trkpt lat="43.97682" lon="2.98566">
        <ele>702</ele>
        <time>2026-04-30T07:27:03.000Z</time>
      </trkpt>
      <trkpt lat="43.97682" lon="2.98566">
        <ele>702.2</ele>
        <time>2026-04-30T07:27:04.000Z</time>
      </trkpt>
      <trkpt lat="43.97681" lon="2.98566">
        <ele>702.3</ele>
        <time>2026-04-30T07:27:05.000Z</time>
      </trkpt>
      <trkpt lat="43.97681" lon="2.98566">
        <ele>702.3</ele>
        <time>2026-04-30T07:27:06.000Z</time>
      </trkpt>
      <trkpt lat="43.97681" lon="2.98565">
        <ele>702.5</ele>
        <time>2026-04-30T07:27:07.000Z</time>
      </trkpt>
      <trkpt lat="43.97681" lon="2.98565">
        <ele>702.6</ele>
        <time>2026-04-30T07:27:08.000Z</time>
      </trkpt>
      <trkpt lat="43.97681" lon="2.98565">
        <ele>702.8</ele>
        <time>2026-04-30T07:27:09.000Z</time>
      </trkpt>
      <trkpt lat="43.97681" lon="2.98565">
        <ele>703</ele>
        <time>2026-04-30T07:27:10.000Z</time>
      </trkpt>
      <trkpt lat="43.97681" lon="2.98565">
        <ele>703.2</ele>
        <time>2026-04-30T07:27:11.000Z</time>
      </trkpt>
      <trkpt lat="43.97681" lon="2.98565">
        <ele>703.4</ele>
        <time>2026-04-30T07:27:12.000Z</time>
      </trkpt>
      <trkpt lat="43.97681" lon="2.98565">
        <ele>703.5</ele>
        <time>2026-04-30T07:27:13.000Z</time>
      </trkpt>
      <trkpt lat="43.97681" lon="2.98565">
        <ele>703.7</ele>
        <time>2026-04-30T07:27:14.000Z</time>
      </trkpt>
      <trkpt lat="43.97681" lon="2.98565">
        <ele>703.7</ele>
        <time>2026-04-30T07:27:15.000Z</time>
      </trkpt>
      <trkpt lat="43.97681" lon="2.98565">
        <ele>703.5</ele>
        <time>2026-04-30T07:27:16.000Z</time>
      </trkpt>
      <trkpt lat="43.9768" lon="2.98566">
        <ele>703.4</ele>
        <time>2026-04-30T07:27:17.000Z</time>
      </trkpt>
      <trkpt lat="43.97681" lon="2.98566">
        <ele>703.4</ele>
        <time>2026-04-30T07:27:18.000Z</time>
      </trkpt>
      <trkpt lat="43.9768" lon="2.98566">
        <ele>703.6</ele>
        <time>2026-04-30T07:27:20.000Z</time>
      </trkpt>
      <trkpt lat="43.9768" lon="2.98565">
        <ele>704.6</ele>
        <time>2026-04-30T07:27:21.000Z</time>
      </trkpt>
      <trkpt lat="43.97678" lon="2.98566">
        <ele>704.4</ele>
        <time>2026-04-30T07:27:22.000Z</time>
      </trkpt>
      <trkpt lat="43.97679" lon="2.98565">
        <ele>704.5</ele>
        <time>2026-04-30T07:27:23.000Z</time>
      </trkpt>
      <trkpt lat="43.97678" lon="2.98565">
        <ele>704.8</ele>
        <time>2026-04-30T07:27:24.000Z</time>
      </trkpt>
      <trkpt lat="43.97678" lon="2.98565">
        <ele>704.9</ele>
        <time>2026-04-30T07:27:25.000Z</time>
      </trkpt>
      <trkpt lat="43.97678" lon="2.98565">
        <ele>705</ele>
        <time>2026-04-30T07:27:26.000Z</time>
      </trkpt>
      <trkpt lat="43.97678" lon="2.98565">
        <ele>705</ele>
        <time>2026-04-30T07:27:27.000Z</time>
      </trkpt>
      <trkpt lat="43.97678" lon="2.98565">
        <ele>705</ele>
        <time>2026-04-30T07:27:28.000Z</time>
      </trkpt>
      <trkpt lat="43.97678" lon="2.98565">
        <ele>705.1</ele>
        <time>2026-04-30T07:27:29.000Z</time>
      </trkpt>
      <trkpt lat="43.97678" lon="2.98565">
        <ele>705.3</ele>
        <time>2026-04-30T07:27:30.000Z</time>
      </trkpt>
      <trkpt lat="43.97678" lon="2.98565">
        <ele>706</ele>
        <time>2026-04-30T07:27:31.000Z</time>
      </trkpt>
      <trkpt lat="43.97678" lon="2.98565">
        <ele>706.4</ele>
        <time>2026-04-30T07:27:32.000Z</time>
      </trkpt>
      <trkpt lat="43.97679" lon="2.98565">
        <ele>706.8</ele>
        <time>2026-04-30T07:27:33.000Z</time>
      </trkpt>
      <trkpt lat="43.97679" lon="2.98566">
        <ele>707</ele>
        <time>2026-04-30T07:27:34.000Z</time>
      </trkpt>
      <trkpt lat="43.97679" lon="2.98566">
        <ele>707.4</ele>
        <time>2026-04-30T07:27:35.000Z</time>
      </trkpt>
      <trkpt lat="43.97679" lon="2.98567">
        <ele>707.6</ele>
        <time>2026-04-30T07:27:36.000Z</time>
      </trkpt>
      <trkpt lat="43.97679" lon="2.98567">
        <ele>707.9</ele>
        <time>2026-04-30T07:27:37.000Z</time>
      </trkpt>
      <trkpt lat="43.97679" lon="2.98567">
        <ele>708.2</ele>
        <time>2026-04-30T07:27:38.000Z</time>
      </trkpt>
      <trkpt lat="43.97679" lon="2.98567">
        <ele>708.4</ele>
        <time>2026-04-30T07:27:39.000Z</time>
      </trkpt>
      <trkpt lat="43.97679" lon="2.98567">
        <ele>708.6</ele>
        <time>2026-04-30T07:27:40.000Z</time>
      </trkpt>
      <trkpt lat="43.97679" lon="2.98567">
        <ele>708.9</ele>
        <time>2026-04-30T07:27:41.000Z</time>
      </trkpt>
      <trkpt lat="43.97679" lon="2.98567">
        <ele>709.1</ele>
        <time>2026-04-30T07:27:42.000Z</time>
      </trkpt>
      <trkpt lat="43.97679" lon="2.98567">
        <ele>709.3</ele>
        <time>2026-04-30T07:27:43.000Z</time>
      </trkpt>
      <trkpt lat="43.97679" lon="2.98567">
        <ele>709.5</ele>
        <time>2026-04-30T07:27:44.000Z</time>
      </trkpt>
      <trkpt lat="43.97679" lon="2.98568">
        <ele>709.5</ele>
        <time>2026-04-30T07:27:45.000Z</time>
      </trkpt>
      <trkpt lat="43.9768" lon="2.98568">
        <ele>709.5</ele>
        <time>2026-04-30T07:27:46.000Z</time>
      </trkpt>
      <trkpt lat="43.9768" lon="2.98568">
        <ele>709.6</ele>
        <time>2026-04-30T07:27:47.000Z</time>
      </trkpt>
      <trkpt lat="43.9768" lon="2.98568">
        <ele>709.7</ele>
        <time>2026-04-30T07:27:48.000Z</time>
      </trkpt>
      <trkpt lat="43.9768" lon="2.98568">
        <ele>709.8</ele>
        <time>2026-04-30T07:27:49.000Z</time>
      </trkpt>
      <trkpt lat="43.9768" lon="2.98568">
        <ele>709.8</ele>
        <time>2026-04-30T07:27:50.000Z</time>
      </trkpt>
      <trkpt lat="43.9768" lon="2.98568">
        <ele>709.9</ele>
        <time>2026-04-30T07:27:51.000Z</time>
      </trkpt>
      <trkpt lat="43.9768" lon="2.98568">
        <ele>710.1</ele>
        <time>2026-04-30T07:27:52.000Z</time>
      </trkpt>
      <trkpt lat="43.9768" lon="2.98568">
        <ele>710.2</ele>
        <time>2026-04-30T07:27:53.000Z</time>
      </trkpt>
      <trkpt lat="43.9768" lon="2.98568">
        <ele>710.6</ele>
        <time>2026-04-30T07:27:54.000Z</time>
      </trkpt>
      <trkpt lat="43.9768" lon="2.98569">
        <ele>710.8</ele>
        <time>2026-04-30T07:27:55.000Z</time>
      </trkpt>
      <trkpt lat="43.9768" lon="2.98569">
        <ele>711.1</ele>
        <time>2026-04-30T07:27:56.000Z</time>
      </trkpt>
      <trkpt lat="43.9768" lon="2.98569">
        <ele>711.3</ele>
        <time>2026-04-30T07:27:57.000Z</time>
      </trkpt>
      <trkpt lat="43.9768" lon="2.98569">
        <ele>711.3</ele>
        <time>2026-04-30T07:27:59.000Z</time>
      </trkpt>
      <trkpt lat="43.9768" lon="2.98569">
        <ele>711.3</ele>
        <time>2026-04-30T07:28:00.000Z</time>
      </trkpt>
      <trkpt lat="43.9768" lon="2.98569">
        <ele>711.5</ele>
        <time>2026-04-30T07:28:01.000Z</time>
      </trkpt>
      <trkpt lat="43.97679" lon="2.9857">
        <ele>711.6</ele>
        <time>2026-04-30T07:28:02.000Z</time>
      </trkpt>
      <trkpt lat="43.97679" lon="2.98569">
        <ele>711.5</ele>
        <time>2026-04-30T07:28:03.000Z</time>
      </trkpt>
      <trkpt lat="43.97679" lon="2.98569">
        <ele>711.6</ele>
        <time>2026-04-30T07:28:04.000Z</time>
      </trkpt>
      <trkpt lat="43.97679" lon="2.98569">
        <ele>711.7</ele>
        <time>2026-04-30T07:28:05.000Z</time>
      </trkpt>
      <trkpt lat="43.97679" lon="2.98569">
        <ele>711.9</ele>
        <time>2026-04-30T07:28:07.000Z</time>
      </trkpt>
      <trkpt lat="43.97679" lon="2.98568">
        <ele>711.9</ele>
        <time>2026-04-30T07:28:08.000Z</time>
      </trkpt>
      <trkpt lat="43.97679" lon="2.98568">
        <ele>711.6</ele>
        <time>2026-04-30T07:28:09.000Z</time>
      </trkpt>
      <trkpt lat="43.97678" lon="2.98568">
        <ele>712.1</ele>
        <time>2026-04-30T07:28:10.000Z</time>
      </trkpt>
      <trkpt lat="43.97678" lon="2.98567">
        <ele>712.4</ele>
        <time>2026-04-30T07:28:11.000Z</time>
      </trkpt>
      <trkpt lat="43.97677" lon="2.98567">
        <ele>712.3</ele>
        <time>2026-04-30T07:28:12.000Z</time>
      </trkpt>
      <trkpt lat="43.97677" lon="2.98567">
        <ele>712.1</ele>
        <time>2026-04-30T07:28:13.000Z</time>
      </trkpt>
      <trkpt lat="43.97677" lon="2.98567">
        <ele>711.9</ele>
        <time>2026-04-30T07:28:14.000Z</time>
      </trkpt>
      <trkpt lat="43.97677" lon="2.98567">
        <ele>712</ele>
        <time>2026-04-30T07:28:16.000Z</time>
      </trkpt>
      <trkpt lat="43.97677" lon="2.98567">
        <ele>711.8</ele>
        <time>2026-04-30T07:28:17.000Z</time>
      </trkpt>
      <trkpt lat="43.97677" lon="2.98567">
        <ele>711.6</ele>
        <time>2026-04-30T07:28:18.000Z</time>
      </trkpt>
      <trkpt lat="43.97677" lon="2.98567">
        <ele>711.7</ele>
        <time>2026-04-30T07:28:19.000Z</time>
      </trkpt>
      <trkpt lat="43.97677" lon="2.98567">
        <ele>711.8</ele>
        <time>2026-04-30T07:28:20.000Z</time>
      </trkpt>
      <trkpt lat="43.97677" lon="2.98567">
        <ele>711.8</ele>
        <time>2026-04-30T07:28:21.000Z</time>
      </trkpt>
      <trkpt lat="43.97677" lon="2.98567">
        <ele>711.7</ele>
        <time>2026-04-30T07:28:22.000Z</time>
      </trkpt>
      <trkpt lat="43.97677" lon="2.98567">
        <ele>711.7</ele>
        <time>2026-04-30T07:28:23.000Z</time>
      </trkpt>
      <trkpt lat="43.97677" lon="2.98567">
        <ele>711.8</ele>
        <time>2026-04-30T07:28:24.000Z</time>
      </trkpt>
      <trkpt lat="43.97677" lon="2.98567">
        <ele>711.8</ele>
        <time>2026-04-30T07:28:25.000Z</time>
      </trkpt>
      <trkpt lat="43.97677" lon="2.98567">
        <ele>711.8</ele>
        <time>2026-04-30T07:28:26.000Z</time>
      </trkpt>
      <trkpt lat="43.97677" lon="2.98567">
        <ele>711.8</ele>
        <time>2026-04-30T07:28:28.000Z</time>
      </trkpt>
      <trkpt lat="43.97677" lon="2.98567">
        <ele>711.9</ele>
        <time>2026-04-30T07:28:29.000Z</time>
      </trkpt>
      <trkpt lat="43.97677" lon="2.98566">
        <ele>712.1</ele>
        <time>2026-04-30T07:28:30.000Z</time>
      </trkpt>
      <trkpt lat="43.97677" lon="2.98567">
        <ele>712</ele>
        <time>2026-04-30T07:28:31.000Z</time>
      </trkpt>
      <trkpt lat="43.97677" lon="2.98567">
        <ele>712</ele>
        <time>2026-04-30T07:28:32.000Z</time>
      </trkpt>
      <trkpt lat="43.97677" lon="2.98567">
        <ele>712.1</ele>
        <time>2026-04-30T07:28:33.000Z</time>
      </trkpt>
      <trkpt lat="43.97677" lon="2.98566">
        <ele>712.2</ele>
        <time>2026-04-30T07:28:34.000Z</time>
      </trkpt>
      <trkpt lat="43.97677" lon="2.98566">
        <ele>712.1</ele>
        <time>2026-04-30T07:28:35.000Z</time>
      </trkpt>
      <trkpt lat="43.97677" lon="2.98566">
        <ele>712.2</ele>
        <time>2026-04-30T07:28:36.000Z</time>
      </trkpt>
      <trkpt lat="43.97677" lon="2.98566">
        <ele>712.5</ele>
        <time>2026-04-30T07:28:37.000Z</time>
      </trkpt>
      <trkpt lat="43.97677" lon="2.98566">
        <ele>712.6</ele>
        <time>2026-04-30T07:28:38.000Z</time>
      </trkpt>
      <trkpt lat="43.97677" lon="2.98566">
        <ele>712.6</ele>
        <time>2026-04-30T07:28:39.000Z</time>
      </trkpt>
      <trkpt lat="43.97677" lon="2.98566">
        <ele>712.4</ele>
        <time>2026-04-30T07:28:40.000Z</time>
      </trkpt>
      <trkpt lat="43.97677" lon="2.98566">
        <ele>712.3</ele>
        <time>2026-04-30T07:28:41.000Z</time>
      </trkpt>
      <trkpt lat="43.97677" lon="2.98565">
        <ele>712.1</ele>
        <time>2026-04-30T07:28:42.000Z</time>
      </trkpt>
      <trkpt lat="43.97677" lon="2.98564">
        <ele>711.9</ele>
        <time>2026-04-30T07:28:43.000Z</time>
      </trkpt>
      <trkpt lat="43.97677" lon="2.98562">
        <ele>711.8</ele>
        <time>2026-04-30T07:28:44.000Z</time>
      </trkpt>
      <trkpt lat="43.97677" lon="2.98562">
        <ele>711.7</ele>
        <time>2026-04-30T07:28:45.000Z</time>
      </trkpt>
      <trkpt lat="43.97677" lon="2.98562">
        <ele>712</ele>
        <time>2026-04-30T07:28:46.000Z</time>
      </trkpt>
      <trkpt lat="43.97677" lon="2.98562">
        <ele>712.3</ele>
        <time>2026-04-30T07:28:47.000Z</time>
      </trkpt>
      <trkpt lat="43.97677" lon="2.98562">
        <ele>712.4</ele>
        <time>2026-04-30T07:28:48.000Z</time>
      </trkpt>
      <trkpt lat="43.97677" lon="2.98562">
        <ele>712.6</ele>
        <time>2026-04-30T07:28:49.000Z</time>
      </trkpt>
      <trkpt lat="43.97677" lon="2.98562">
        <ele>713</ele>
        <time>2026-04-30T07:28:50.000Z</time>
      </trkpt>
      <trkpt lat="43.97677" lon="2.98562">
        <ele>713.2</ele>
        <time>2026-04-30T07:28:51.000Z</time>
      </trkpt>
      <trkpt lat="43.97677" lon="2.98562">
        <ele>713.6</ele>
        <time>2026-04-30T07:28:53.000Z</time>
      </trkpt>
      <trkpt lat="43.97677" lon="2.98562">
        <ele>713.8</ele>
        <time>2026-04-30T07:28:54.000Z</time>
      </trkpt>
      <trkpt lat="43.97677" lon="2.98562">
        <ele>713.8</ele>
        <time>2026-04-30T07:28:55.000Z</time>
      </trkpt>
      <trkpt lat="43.97677" lon="2.98562">
        <ele>714</ele>
        <time>2026-04-30T07:28:56.000Z</time>
      </trkpt>
      <trkpt lat="43.97677" lon="2.98562">
        <ele>714.3</ele>
        <time>2026-04-30T07:28:57.000Z</time>
      </trkpt>
      <trkpt lat="43.97677" lon="2.98562">
        <ele>714.2</ele>
        <time>2026-04-30T07:28:58.000Z</time>
      </trkpt>
      <trkpt lat="43.97677" lon="2.98562">
        <ele>714</ele>
        <time>2026-04-30T07:28:59.000Z</time>
      </trkpt>
      <trkpt lat="43.97677" lon="2.98562">
        <ele>714</ele>
        <time>2026-04-30T07:29:00.000Z</time>
      </trkpt>
      <trkpt lat="43.97677" lon="2.98562">
        <ele>713.9</ele>
        <time>2026-04-30T07:29:01.000Z</time>
      </trkpt>
      <trkpt lat="43.97677" lon="2.98562">
        <ele>714</ele>
        <time>2026-04-30T07:29:02.000Z</time>
      </trkpt>
      <trkpt lat="43.97677" lon="2.98562">
        <ele>714.1</ele>
        <time>2026-04-30T07:29:03.000Z</time>
      </trkpt>
      <trkpt lat="43.97677" lon="2.98562">
        <ele>714</ele>
        <time>2026-04-30T07:29:04.000Z</time>
      </trkpt>
      <trkpt lat="43.97677" lon="2.98562">
        <ele>714.1</ele>
        <time>2026-04-30T07:29:05.000Z</time>
      </trkpt>
      <trkpt lat="43.97677" lon="2.98562">
        <ele>714.1</ele>
        <time>2026-04-30T07:29:06.000Z</time>
      </trkpt>
      <trkpt lat="43.97677" lon="2.98562">
        <ele>714.4</ele>
        <time>2026-04-30T07:29:07.000Z</time>
      </trkpt>
      <trkpt lat="43.97677" lon="2.98562">
        <ele>714.7</ele>
        <time>2026-04-30T07:29:08.000Z</time>
      </trkpt>
      <trkpt lat="43.97677" lon="2.98562">
        <ele>714.7</ele>
        <time>2026-04-30T07:29:09.000Z</time>
      </trkpt>
      <trkpt lat="43.97677" lon="2.98562">
        <ele>714.8</ele>
        <time>2026-04-30T07:29:10.000Z</time>
      </trkpt>
      <trkpt lat="43.97677" lon="2.98562">
        <ele>714.8</ele>
        <time>2026-04-30T07:29:11.000Z</time>
      </trkpt>
      <trkpt lat="43.97677" lon="2.98562">
        <ele>714.9</ele>
        <time>2026-04-30T07:29:12.000Z</time>
      </trkpt>
      <trkpt lat="43.97677" lon="2.98562">
        <ele>714.9</ele>
        <time>2026-04-30T07:29:13.000Z</time>
      </trkpt>
      <trkpt lat="43.97677" lon="2.98562">
        <ele>715</ele>
        <time>2026-04-30T07:29:14.000Z</time>
      </trkpt>
      <trkpt lat="43.97677" lon="2.98562">
        <ele>715</ele>
        <time>2026-04-30T07:29:15.000Z</time>
      </trkpt>
      <trkpt lat="43.97677" lon="2.98562">
        <ele>715</ele>
        <time>2026-04-30T07:29:16.000Z</time>
      </trkpt>
      <trkpt lat="43.97677" lon="2.98562">
        <ele>714.9</ele>
        <time>2026-04-30T07:29:17.000Z</time>
      </trkpt>
      <trkpt lat="43.97677" lon="2.98562">
        <ele>714.8</ele>
        <time>2026-04-30T07:29:18.000Z</time>
      </trkpt>
      <trkpt lat="43.97676" lon="2.98562">
        <ele>714.9</ele>
        <time>2026-04-30T07:29:19.000Z</time>
      </trkpt>
      <trkpt lat="43.97676" lon="2.98562">
        <ele>714.9</ele>
        <time>2026-04-30T07:29:21.000Z</time>
      </trkpt>
      <trkpt lat="43.97676" lon="2.98562">
        <ele>714.8</ele>
        <time>2026-04-30T07:29:22.000Z</time>
      </trkpt>
      <trkpt lat="43.97676" lon="2.98562">
        <ele>714.8</ele>
        <time>2026-04-30T07:29:23.000Z</time>
      </trkpt>
      <trkpt lat="43.97676" lon="2.98562">
        <ele>714.9</ele>
        <time>2026-04-30T07:29:24.000Z</time>
      </trkpt>
      <trkpt lat="43.97676" lon="2.98563">
        <ele>715.4</ele>
        <time>2026-04-30T07:29:25.000Z</time>
      </trkpt>
      <trkpt lat="43.97676" lon="2.98563">
        <ele>715.6</ele>
        <time>2026-04-30T07:29:26.000Z</time>
      </trkpt>
      <trkpt lat="43.97676" lon="2.98563">
        <ele>715.6</ele>
        <time>2026-04-30T07:29:27.000Z</time>
      </trkpt>
      <trkpt lat="43.97676" lon="2.98563">
        <ele>715.6</ele>
        <time>2026-04-30T07:29:28.000Z</time>
      </trkpt>
      <trkpt lat="43.97676" lon="2.98563">
        <ele>715.7</ele>
        <time>2026-04-30T07:29:29.000Z</time>
      </trkpt>
      <trkpt lat="43.97676" lon="2.98563">
        <ele>715.9</ele>
        <time>2026-04-30T07:29:30.000Z</time>
      </trkpt>
      <trkpt lat="43.97676" lon="2.98563">
        <ele>716.1</ele>
        <time>2026-04-30T07:29:31.000Z</time>
      </trkpt>
      <trkpt lat="43.97676" lon="2.98563">
        <ele>716.2</ele>
        <time>2026-04-30T07:29:32.000Z</time>
      </trkpt>
      <trkpt lat="43.97676" lon="2.98563">
        <ele>716.5</ele>
        <time>2026-04-30T07:29:34.000Z</time>
      </trkpt>
      <trkpt lat="43.97676" lon="2.98563">
        <ele>716.6</ele>
        <time>2026-04-30T07:29:35.000Z</time>
      </trkpt>
      <trkpt lat="43.97676" lon="2.98563">
        <ele>716.7</ele>
        <time>2026-04-30T07:29:36.000Z</time>
      </trkpt>
      <trkpt lat="43.97676" lon="2.98563">
        <ele>716.6</ele>
        <time>2026-04-30T07:29:37.000Z</time>
      </trkpt>
      <trkpt lat="43.97676" lon="2.98563">
        <ele>716.6</ele>
        <time>2026-04-30T07:29:38.000Z</time>
      </trkpt>
      <trkpt lat="43.97676" lon="2.98563">
        <ele>716.2</ele>
        <time>2026-04-30T07:29:39.000Z</time>
      </trkpt>
      <trkpt lat="43.97676" lon="2.98562">
        <ele>716</ele>
        <time>2026-04-30T07:29:41.000Z</time>
      </trkpt>
      <trkpt lat="43.97676" lon="2.98562">
        <ele>715.7</ele>
        <time>2026-04-30T07:29:42.000Z</time>
      </trkpt>
      <trkpt lat="43.97676" lon="2.98562">
        <ele>715.3</ele>
        <time>2026-04-30T07:29:43.000Z</time>
      </trkpt>
      <trkpt lat="43.97676" lon="2.98562">
        <ele>715.2</ele>
        <time>2026-04-30T07:29:44.000Z</time>
      </trkpt>
      <trkpt lat="43.97676" lon="2.98562">
        <ele>715.1</ele>
        <time>2026-04-30T07:29:45.000Z</time>
      </trkpt>
      <trkpt lat="43.97676" lon="2.98562">
        <ele>714.9</ele>
        <time>2026-04-30T07:29:46.000Z</time>
      </trkpt>
      <trkpt lat="43.97676" lon="2.98562">
        <ele>714.6</ele>
        <time>2026-04-30T07:29:47.000Z</time>
      </trkpt>
      <trkpt lat="43.97676" lon="2.98562">
        <ele>714.8</ele>
        <time>2026-04-30T07:29:48.000Z</time>
      </trkpt>
      <trkpt lat="43.97677" lon="2.98563">
        <ele>714.7</ele>
        <time>2026-04-30T07:29:49.000Z</time>
      </trkpt>
      <trkpt lat="43.97677" lon="2.98562">
        <ele>714.9</ele>
        <time>2026-04-30T07:29:50.000Z</time>
      </trkpt>
      <trkpt lat="43.97677" lon="2.98562">
        <ele>715</ele>
        <time>2026-04-30T07:29:51.000Z</time>
      </trkpt>
      <trkpt lat="43.97677" lon="2.98561">
        <ele>715</ele>
        <time>2026-04-30T07:29:52.000Z</time>
      </trkpt>
      <trkpt lat="43.97678" lon="2.98561">
        <ele>714.8</ele>
        <time>2026-04-30T07:29:54.000Z</time>
      </trkpt>
      <trkpt lat="43.97678" lon="2.9856">
        <ele>714.8</ele>
        <time>2026-04-30T07:29:55.000Z</time>
      </trkpt>
      <trkpt lat="43.97678" lon="2.9856">
        <ele>714.8</ele>
        <time>2026-04-30T07:29:56.000Z</time>
      </trkpt>
      <trkpt lat="43.97678" lon="2.98559">
        <ele>714.7</ele>
        <time>2026-04-30T07:29:57.000Z</time>
      </trkpt>
      <trkpt lat="43.97677" lon="2.98559">
        <ele>715.3</ele>
        <time>2026-04-30T07:29:58.999Z</time>
      </trkpt>
      <trkpt lat="43.97677" lon="2.98559">
        <ele>715.9</ele>
        <time>2026-04-30T07:29:59.999Z</time>
      </trkpt>
      <trkpt lat="43.97677" lon="2.98559">
        <ele>716</ele>
        <time>2026-04-30T07:30:00.999Z</time>
      </trkpt>
      <trkpt lat="43.97676" lon="2.98559">
        <ele>715.8</ele>
        <time>2026-04-30T07:30:01.999Z</time>
      </trkpt>
      <trkpt lat="43.97676" lon="2.98559">
        <ele>715.8</ele>
        <time>2026-04-30T07:30:02.999Z</time>
      </trkpt>
      <trkpt lat="43.97676" lon="2.98559">
        <ele>715.8</ele>
        <time>2026-04-30T07:30:03.999Z</time>
      </trkpt>
      <trkpt lat="43.97676" lon="2.98559">
        <ele>716.2</ele>
        <time>2026-04-30T07:30:04.999Z</time>
      </trkpt>
      <trkpt lat="43.97676" lon="2.98559">
        <ele>716.4</ele>
        <time>2026-04-30T07:30:05.999Z</time>
      </trkpt>
      <trkpt lat="43.97676" lon="2.98559">
        <ele>716.4</ele>
        <time>2026-04-30T07:30:06.999Z</time>
      </trkpt>
      <trkpt lat="43.97676" lon="2.98558">
        <ele>716.6</ele>
        <time>2026-04-30T07:30:07.999Z</time>
      </trkpt>
      <trkpt lat="43.97675" lon="2.98559">
        <ele>716.9</ele>
        <time>2026-04-30T07:30:08.999Z</time>
      </trkpt>
      <trkpt lat="43.97674" lon="2.98558">
        <ele>716.8</ele>
        <time>2026-04-30T07:30:09.999Z</time>
      </trkpt>
      <trkpt lat="43.97674" lon="2.98558">
        <ele>716.7</ele>
        <time>2026-04-30T07:30:10.999Z</time>
      </trkpt>
      <trkpt lat="43.97673" lon="2.98558">
        <ele>716.9</ele>
        <time>2026-04-30T07:30:11.999Z</time>
      </trkpt>
      <trkpt lat="43.97673" lon="2.98559">
        <ele>717</ele>
        <time>2026-04-30T07:30:12.999Z</time>
      </trkpt>
      <trkpt lat="43.97672" lon="2.98559">
        <ele>717</ele>
        <time>2026-04-30T07:30:13.999Z</time>
      </trkpt>
      <trkpt lat="43.97672" lon="2.98559">
        <ele>716.9</ele>
        <time>2026-04-30T07:30:14.999Z</time>
      </trkpt>
      <trkpt lat="43.97672" lon="2.98559">
        <ele>717</ele>
        <time>2026-04-30T07:30:15.999Z</time>
      </trkpt>
      <trkpt lat="43.97672" lon="2.98559">
        <ele>717.1</ele>
        <time>2026-04-30T07:30:16.999Z</time>
      </trkpt>
      <trkpt lat="43.97672" lon="2.98559">
        <ele>717</ele>
        <time>2026-04-30T07:30:17.999Z</time>
      </trkpt>
      <trkpt lat="43.97672" lon="2.98559">
        <ele>716.9</ele>
        <time>2026-04-30T07:30:18.999Z</time>
      </trkpt>
      <trkpt lat="43.97672" lon="2.98559">
        <ele>717</ele>
        <time>2026-04-30T07:30:19.999Z</time>
      </trkpt>
      <trkpt lat="43.97672" lon="2.98559">
        <ele>717</ele>
        <time>2026-04-30T07:30:20.999Z</time>
      </trkpt>
      <trkpt lat="43.97672" lon="2.98559">
        <ele>717.2</ele>
        <time>2026-04-30T07:30:22.999Z</time>
      </trkpt>
      <trkpt lat="43.97672" lon="2.98559">
        <ele>717.1</ele>
        <time>2026-04-30T07:30:23.999Z</time>
      </trkpt>
      <trkpt lat="43.97671" lon="2.98559">
        <ele>717</ele>
        <time>2026-04-30T07:30:24.999Z</time>
      </trkpt>
      <trkpt lat="43.97671" lon="2.98559">
        <ele>717.1</ele>
        <time>2026-04-30T07:30:25.999Z</time>
      </trkpt>
      <trkpt lat="43.97671" lon="2.98558">
        <ele>716.9</ele>
        <time>2026-04-30T07:30:26.999Z</time>
      </trkpt>
      <trkpt lat="43.9767" lon="2.98558">
        <ele>716.7</ele>
        <time>2026-04-30T07:30:27.999Z</time>
      </trkpt>
      <trkpt lat="43.9767" lon="2.98557">
        <ele>716.8</ele>
        <time>2026-04-30T07:30:28.999Z</time>
      </trkpt>
      <trkpt lat="43.9767" lon="2.98557">
        <ele>716.5</ele>
        <time>2026-04-30T07:30:29.999Z</time>
      </trkpt>
      <trkpt lat="43.9767" lon="2.98557">
        <ele>716.5</ele>
        <time>2026-04-30T07:30:30.999Z</time>
      </trkpt>
      <trkpt lat="43.9767" lon="2.98557">
        <ele>716.7</ele>
        <time>2026-04-30T07:30:31.999Z</time>
      </trkpt>
      <trkpt lat="43.9767" lon="2.98556">
        <ele>716.9</ele>
        <time>2026-04-30T07:30:32.999Z</time>
      </trkpt>
      <trkpt lat="43.97669" lon="2.98556">
        <ele>717.3</ele>
        <time>2026-04-30T07:30:33.999Z</time>
      </trkpt>
      <trkpt lat="43.97669" lon="2.98557">
        <ele>717.4</ele>
        <time>2026-04-30T07:30:34.999Z</time>
      </trkpt>
      <trkpt lat="43.97668" lon="2.98557">
        <ele>717.6</ele>
        <time>2026-04-30T07:30:35.999Z</time>
      </trkpt>
      <trkpt lat="43.97668" lon="2.98556">
        <ele>717.8</ele>
        <time>2026-04-30T07:30:36.999Z</time>
      </trkpt>
      <trkpt lat="43.97667" lon="2.98556">
        <ele>718.2</ele>
        <time>2026-04-30T07:30:37.999Z</time>
      </trkpt>
      <trkpt lat="43.97666" lon="2.98555">
        <ele>718.4</ele>
        <time>2026-04-30T07:30:38.999Z</time>
      </trkpt>
      <trkpt lat="43.97666" lon="2.98555">
        <ele>718.5</ele>
        <time>2026-04-30T07:30:39.999Z</time>
      </trkpt>
      <trkpt lat="43.97665" lon="2.98555">
        <ele>718.6</ele>
        <time>2026-04-30T07:30:40.999Z</time>
      </trkpt>
      <trkpt lat="43.97665" lon="2.98554">
        <ele>718.6</ele>
        <time>2026-04-30T07:30:41.999Z</time>
      </trkpt>
      <trkpt lat="43.97665" lon="2.98553">
        <ele>718.6</ele>
        <time>2026-04-30T07:30:42.999Z</time>
      </trkpt>
      <trkpt lat="43.97666" lon="2.98552">
        <ele>718.4</ele>
        <time>2026-04-30T07:30:43.999Z</time>
      </trkpt>
      <trkpt lat="43.97667" lon="2.98551">
        <ele>718.4</ele>
        <time>2026-04-30T07:30:44.999Z</time>
      </trkpt>
      <trkpt lat="43.97668" lon="2.98549">
        <ele>717.9</ele>
        <time>2026-04-30T07:30:46.999Z</time>
      </trkpt>
      <trkpt lat="43.97668" lon="2.98548">
        <ele>717.7</ele>
        <time>2026-04-30T07:30:47.999Z</time>
      </trkpt>
      <trkpt lat="43.97668" lon="2.98547">
        <ele>717.7</ele>
        <time>2026-04-30T07:30:48.999Z</time>
      </trkpt>
      <trkpt lat="43.97669" lon="2.98546">
        <ele>717.8</ele>
        <time>2026-04-30T07:30:49.999Z</time>
      </trkpt>
      <trkpt lat="43.97668" lon="2.98546">
        <ele>718</ele>
        <time>2026-04-30T07:30:50.999Z</time>
      </trkpt>
      <trkpt lat="43.97668" lon="2.98545">
        <ele>718.3</ele>
        <time>2026-04-30T07:30:51.999Z</time>
      </trkpt>
      <trkpt lat="43.97668" lon="2.98544">
        <ele>718.4</ele>
        <time>2026-04-30T07:30:52.999Z</time>
      </trkpt>
      <trkpt lat="43.97668" lon="2.98544">
        <ele>718.6</ele>
        <time>2026-04-30T07:30:53.999Z</time>
      </trkpt>
      <trkpt lat="43.97668" lon="2.98544">
        <ele>718.3</ele>
        <time>2026-04-30T07:30:54.999Z</time>
      </trkpt>
      <trkpt lat="43.97668" lon="2.98543">
        <ele>718.5</ele>
        <time>2026-04-30T07:30:55.999Z</time>
      </trkpt>
      <trkpt lat="43.97668" lon="2.98543">
        <ele>718.7</ele>
        <time>2026-04-30T07:30:56.999Z</time>
      </trkpt>
      <trkpt lat="43.97668" lon="2.98542">
        <ele>718.4</ele>
        <time>2026-04-30T07:30:57.999Z</time>
      </trkpt>
      <trkpt lat="43.97667" lon="2.98542">
        <ele>718.6</ele>
        <time>2026-04-30T07:30:59.999Z</time>
      </trkpt>
      <trkpt lat="43.97667" lon="2.98541">
        <ele>718.9</ele>
        <time>2026-04-30T07:31:00.999Z</time>
      </trkpt>
      <trkpt lat="43.97667" lon="2.9854">
        <ele>719</ele>
        <time>2026-04-30T07:31:01.999Z</time>
      </trkpt>
      <trkpt lat="43.97668" lon="2.9854">
        <ele>719.1</ele>
        <time>2026-04-30T07:31:02.999Z</time>
      </trkpt>
      <trkpt lat="43.97668" lon="2.98539">
        <ele>719.4</ele>
        <time>2026-04-30T07:31:03.999Z</time>
      </trkpt>
      <trkpt lat="43.97668" lon="2.98539">
        <ele>719.4</ele>
        <time>2026-04-30T07:31:04.999Z</time>
      </trkpt>
      <trkpt lat="43.97669" lon="2.98538">
        <ele>719.5</ele>
        <time>2026-04-30T07:31:05.999Z</time>
      </trkpt>
      <trkpt lat="43.97669" lon="2.98537">
        <ele>719.6</ele>
        <time>2026-04-30T07:31:06.999Z</time>
      </trkpt>
      <trkpt lat="43.97669" lon="2.98537">
        <ele>719.8</ele>
        <time>2026-04-30T07:31:07.999Z</time>
      </trkpt>
      <trkpt lat="43.97669" lon="2.98537">
        <ele>720.1</ele>
        <time>2026-04-30T07:31:08.999Z</time>
      </trkpt>
      <trkpt lat="43.97669" lon="2.98537">
        <ele>720.6</ele>
        <time>2026-04-30T07:31:09.999Z</time>
      </trkpt>
      <trkpt lat="43.97669" lon="2.98537">
        <ele>721</ele>
        <time>2026-04-30T07:31:10.999Z</time>
      </trkpt>
      <trkpt lat="43.97669" lon="2.98537">
        <ele>721.3</ele>
        <time>2026-04-30T07:31:11.999Z</time>
      </trkpt>
      <trkpt lat="43.97668" lon="2.98537">
        <ele>721.5</ele>
        <time>2026-04-30T07:31:12.999Z</time>
      </trkpt>
      <trkpt lat="43.97668" lon="2.98537">
        <ele>721.8</ele>
        <time>2026-04-30T07:31:13.999Z</time>
      </trkpt>
      <trkpt lat="43.97667" lon="2.98536">
        <ele>722.1</ele>
        <time>2026-04-30T07:31:14.999Z</time>
      </trkpt>
      <trkpt lat="43.97666" lon="2.98535">
        <ele>722.4</ele>
        <time>2026-04-30T07:31:15.999Z</time>
      </trkpt>
      <trkpt lat="43.97665" lon="2.98535">
        <ele>722.7</ele>
        <time>2026-04-30T07:31:16.999Z</time>
      </trkpt>
      <trkpt lat="43.97664" lon="2.98534">
        <ele>722.7</ele>
        <time>2026-04-30T07:31:17.999Z</time>
      </trkpt>
      <trkpt lat="43.97663" lon="2.98533">
        <ele>722.9</ele>
        <time>2026-04-30T07:31:18.999Z</time>
      </trkpt>
      <trkpt lat="43.97662" lon="2.98533">
        <ele>723.3</ele>
        <time>2026-04-30T07:31:19.999Z</time>
      </trkpt>
      <trkpt lat="43.97661" lon="2.98532">
        <ele>723.8</ele>
        <time>2026-04-30T07:31:20.999Z</time>
      </trkpt>
      <trkpt lat="43.9766" lon="2.98532">
        <ele>724.1</ele>
        <time>2026-04-30T07:31:21.999Z</time>
      </trkpt>
      <trkpt lat="43.9766" lon="2.98531">
        <ele>724.5</ele>
        <time>2026-04-30T07:31:22.999Z</time>
      </trkpt>
      <trkpt lat="43.9766" lon="2.98531">
        <ele>724.4</ele>
        <time>2026-04-30T07:31:23.999Z</time>
      </trkpt>
      <trkpt lat="43.9766" lon="2.9853">
        <ele>724.5</ele>
        <time>2026-04-30T07:31:24.999Z</time>
      </trkpt>
      <trkpt lat="43.9766" lon="2.9853">
        <ele>724.3</ele>
        <time>2026-04-30T07:31:25.999Z</time>
      </trkpt>
      <trkpt lat="43.9766" lon="2.9853">
        <ele>724.3</ele>
        <time>2026-04-30T07:31:26.999Z</time>
      </trkpt>
      <trkpt lat="43.97659" lon="2.98531">
        <ele>724.2</ele>
        <time>2026-04-30T07:31:27.999Z</time>
      </trkpt>
      <trkpt lat="43.97659" lon="2.9853">
        <ele>724.3</ele>
        <time>2026-04-30T07:31:28.999Z</time>
      </trkpt>
      <trkpt lat="43.97659" lon="2.98529">
        <ele>724.7</ele>
        <time>2026-04-30T07:31:29.999Z</time>
      </trkpt>
      <trkpt lat="43.97659" lon="2.98529">
        <ele>724.9</ele>
        <time>2026-04-30T07:31:30.999Z</time>
      </trkpt>
      <trkpt lat="43.97658" lon="2.98528">
        <ele>725</ele>
        <time>2026-04-30T07:31:31.999Z</time>
      </trkpt>
      <trkpt lat="43.97658" lon="2.98527">
        <ele>725.1</ele>
        <time>2026-04-30T07:31:32.999Z</time>
      </trkpt>
      <trkpt lat="43.97658" lon="2.98527">
        <ele>725.1</ele>
        <time>2026-04-30T07:31:33.999Z</time>
      </trkpt>
      <trkpt lat="43.97657" lon="2.98527">
        <ele>725.3</ele>
        <time>2026-04-30T07:31:34.999Z</time>
      </trkpt>
      <trkpt lat="43.97656" lon="2.98527">
        <ele>725.5</ele>
        <time>2026-04-30T07:31:35.999Z</time>
      </trkpt>
      <trkpt lat="43.97656" lon="2.98527">
        <ele>725.5</ele>
        <time>2026-04-30T07:31:36.999Z</time>
      </trkpt>
      <trkpt lat="43.97656" lon="2.98528">
        <ele>725.7</ele>
        <time>2026-04-30T07:31:37.999Z</time>
      </trkpt>
      <trkpt lat="43.97656" lon="2.98527">
        <ele>726.2</ele>
        <time>2026-04-30T07:31:38.999Z</time>
      </trkpt>
      <trkpt lat="43.97656" lon="2.98527">
        <ele>726.5</ele>
        <time>2026-04-30T07:31:39.999Z</time>
      </trkpt>
      <trkpt lat="43.97656" lon="2.98527">
        <ele>727.1</ele>
        <time>2026-04-30T07:31:40.999Z</time>
      </trkpt>
      <trkpt lat="43.97656" lon="2.98528">
        <ele>727</ele>
        <time>2026-04-30T07:31:41.999Z</time>
      </trkpt>
      <trkpt lat="43.97657" lon="2.98527">
        <ele>725.7</ele>
        <time>2026-04-30T07:31:42.999Z</time>
      </trkpt>
      <trkpt lat="43.97657" lon="2.98526">
        <ele>725.5</ele>
        <time>2026-04-30T07:31:43.999Z</time>
      </trkpt>
      <trkpt lat="43.97657" lon="2.98527">
        <ele>722.2</ele>
        <time>2026-04-30T07:31:44.999Z</time>
      </trkpt>
      <trkpt lat="43.97657" lon="2.98527">
        <ele>722.6</ele>
        <time>2026-04-30T07:31:45.999Z</time>
      </trkpt>
      <trkpt lat="43.97658" lon="2.98527">
        <ele>722.7</ele>
        <time>2026-04-30T07:31:46.999Z</time>
      </trkpt>
      <trkpt lat="43.97658" lon="2.98527">
        <ele>722.9</ele>
        <time>2026-04-30T07:31:48.999Z</time>
      </trkpt>
      <trkpt lat="43.97659" lon="2.98528">
        <ele>723.2</ele>
        <time>2026-04-30T07:31:49.999Z</time>
      </trkpt>
      <trkpt lat="43.9766" lon="2.98528">
        <ele>723.3</ele>
        <time>2026-04-30T07:31:50.999Z</time>
      </trkpt>
      <trkpt lat="43.97661" lon="2.98529">
        <ele>723.4</ele>
        <time>2026-04-30T07:31:51.999Z</time>
      </trkpt>
      <trkpt lat="43.97662" lon="2.98529">
        <ele>723.4</ele>
        <time>2026-04-30T07:31:52.999Z</time>
      </trkpt>
      <trkpt lat="43.97663" lon="2.98529">
        <ele>723.7</ele>
        <time>2026-04-30T07:31:53.999Z</time>
      </trkpt>
      <trkpt lat="43.97664" lon="2.9853">
        <ele>723.5</ele>
        <time>2026-04-30T07:31:54.999Z</time>
      </trkpt>
      <trkpt lat="43.97665" lon="2.9853">
        <ele>723.4</ele>
        <time>2026-04-30T07:31:55.999Z</time>
      </trkpt>
      <trkpt lat="43.97665" lon="2.98529">
        <ele>723.3</ele>
        <time>2026-04-30T07:31:56.999Z</time>
      </trkpt>
      <trkpt lat="43.97665" lon="2.98527">
        <ele>723</ele>
        <time>2026-04-30T07:31:57.999Z</time>
      </trkpt>
      <trkpt lat="43.97665" lon="2.98526">
        <ele>723</ele>
        <time>2026-04-30T07:31:58.999Z</time>
      </trkpt>
      <trkpt lat="43.97665" lon="2.98526">
        <ele>721.6</ele>
        <time>2026-04-30T07:31:59.999Z</time>
      </trkpt>
      <trkpt lat="43.97665" lon="2.98525">
        <ele>721.5</ele>
        <time>2026-04-30T07:32:00.999Z</time>
      </trkpt>
      <trkpt lat="43.97665" lon="2.98525">
        <ele>721.7</ele>
        <time>2026-04-30T07:32:01.999Z</time>
      </trkpt>
      <trkpt lat="43.97665" lon="2.98525">
        <ele>721.8</ele>
        <time>2026-04-30T07:32:02.999Z</time>
      </trkpt>
      <trkpt lat="43.97665" lon="2.98525">
        <ele>722.2</ele>
        <time>2026-04-30T07:32:03.999Z</time>
      </trkpt>
      <trkpt lat="43.97665" lon="2.98525">
        <ele>722.1</ele>
        <time>2026-04-30T07:32:04.999Z</time>
      </trkpt>
      <trkpt lat="43.97665" lon="2.98525">
        <ele>721.9</ele>
        <time>2026-04-30T07:32:05.999Z</time>
      </trkpt>
      <trkpt lat="43.97665" lon="2.98524">
        <ele>722</ele>
        <time>2026-04-30T07:32:06.999Z</time>
      </trkpt>
      <trkpt lat="43.97665" lon="2.98524">
        <ele>722</ele>
        <time>2026-04-30T07:32:07.999Z</time>
      </trkpt>
      <trkpt lat="43.97665" lon="2.98524">
        <ele>722</ele>
        <time>2026-04-30T07:32:08.999Z</time>
      </trkpt>
      <trkpt lat="43.97666" lon="2.98523">
        <ele>721.7</ele>
        <time>2026-04-30T07:32:09.999Z</time>
      </trkpt>
      <trkpt lat="43.97667" lon="2.98522">
        <ele>721.9</ele>
        <time>2026-04-30T07:32:10.999Z</time>
      </trkpt>
      <trkpt lat="43.97667" lon="2.98521">
        <ele>721.8</ele>
        <time>2026-04-30T07:32:11.999Z</time>
      </trkpt>
      <trkpt lat="43.97668" lon="2.9852">
        <ele>721.6</ele>
        <time>2026-04-30T07:32:12.999Z</time>
      </trkpt>
      <trkpt lat="43.97669" lon="2.9852">
        <ele>721.5</ele>
        <time>2026-04-30T07:32:13.999Z</time>
      </trkpt>
      <trkpt lat="43.97669" lon="2.98519">
        <ele>721.2</ele>
        <time>2026-04-30T07:32:14.999Z</time>
      </trkpt>
      <trkpt lat="43.97669" lon="2.98517">
        <ele>721.2</ele>
        <time>2026-04-30T07:32:15.999Z</time>
      </trkpt>
      <trkpt lat="43.97668" lon="2.98515">
        <ele>720.8</ele>
        <time>2026-04-30T07:32:16.999Z</time>
      </trkpt>
      <trkpt lat="43.97668" lon="2.98513">
        <ele>720.6</ele>
        <time>2026-04-30T07:32:17.999Z</time>
      </trkpt>
      <trkpt lat="43.97668" lon="2.98513">
        <ele>720.7</ele>
        <time>2026-04-30T07:32:18.999Z</time>
      </trkpt>
      <trkpt lat="43.97667" lon="2.98512">
        <ele>720.9</ele>
        <time>2026-04-30T07:32:19.999Z</time>
      </trkpt>
      <trkpt lat="43.97667" lon="2.98511">
        <ele>721.3</ele>
        <time>2026-04-30T07:32:20.999Z</time>
      </trkpt>
      <trkpt lat="43.97666" lon="2.98509">
        <ele>721.8</ele>
        <time>2026-04-30T07:32:21.999Z</time>
      </trkpt>
      <trkpt lat="43.97665" lon="2.98508">
        <ele>722.2</ele>
        <time>2026-04-30T07:32:22.999Z</time>
      </trkpt>
      <trkpt lat="43.97666" lon="2.98506">
        <ele>722.8</ele>
        <time>2026-04-30T07:32:23.999Z</time>
      </trkpt>
      <trkpt lat="43.97665" lon="2.98505">
        <ele>723.1</ele>
        <time>2026-04-30T07:32:24.999Z</time>
      </trkpt>
      <trkpt lat="43.97664" lon="2.98504">
        <ele>723.2</ele>
        <time>2026-04-30T07:32:25.999Z</time>
      </trkpt>
      <trkpt lat="43.97664" lon="2.98503">
        <ele>723.2</ele>
        <time>2026-04-30T07:32:26.999Z</time>
      </trkpt>
      <trkpt lat="43.97664" lon="2.98501">
        <ele>723.3</ele>
        <time>2026-04-30T07:32:27.999Z</time>
      </trkpt>
      <trkpt lat="43.97663" lon="2.98499">
        <ele>723.2</ele>
        <time>2026-04-30T07:32:28.999Z</time>
      </trkpt>
      <trkpt lat="43.97663" lon="2.98498">
        <ele>723.6</ele>
        <time>2026-04-30T07:32:29.999Z</time>
      </trkpt>
      <trkpt lat="43.97663" lon="2.98497">
        <ele>723.7</ele>
        <time>2026-04-30T07:32:30.999Z</time>
      </trkpt>
      <trkpt lat="43.97663" lon="2.98497">
        <ele>723.8</ele>
        <time>2026-04-30T07:32:31.999Z</time>
      </trkpt>
      <trkpt lat="43.97662" lon="2.98495">
        <ele>724.4</ele>
        <time>2026-04-30T07:32:32.999Z</time>
      </trkpt>
      <trkpt lat="43.97662" lon="2.98495">
        <ele>724.8</ele>
        <time>2026-04-30T07:32:33.999Z</time>
      </trkpt>
      <trkpt lat="43.97662" lon="2.98493">
        <ele>725.5</ele>
        <time>2026-04-30T07:32:34.999Z</time>
      </trkpt>
      <trkpt lat="43.97662" lon="2.98492">
        <ele>726.1</ele>
        <time>2026-04-30T07:32:35.999Z</time>
      </trkpt>
      <trkpt lat="43.97661" lon="2.9849">
        <ele>726</ele>
        <time>2026-04-30T07:32:36.999Z</time>
      </trkpt>
      <trkpt lat="43.97661" lon="2.98489">
        <ele>726</ele>
        <time>2026-04-30T07:32:37.999Z</time>
      </trkpt>
      <trkpt lat="43.97661" lon="2.98488">
        <ele>725.6</ele>
        <time>2026-04-30T07:32:38.999Z</time>
      </trkpt>
      <trkpt lat="43.97661" lon="2.98487">
        <ele>725.3</ele>
        <time>2026-04-30T07:32:39.999Z</time>
      </trkpt>
      <trkpt lat="43.97661" lon="2.98486">
        <ele>725.7</ele>
        <time>2026-04-30T07:32:40.999Z</time>
      </trkpt>
      <trkpt lat="43.97662" lon="2.98485">
        <ele>725.7</ele>
        <time>2026-04-30T07:32:41.999Z</time>
      </trkpt>
      <trkpt lat="43.97661" lon="2.98484">
        <ele>725.7</ele>
        <time>2026-04-30T07:32:42.999Z</time>
      </trkpt>
      <trkpt lat="43.97662" lon="2.98483">
        <ele>725.7</ele>
        <time>2026-04-30T07:32:43.999Z</time>
      </trkpt>
      <trkpt lat="43.97662" lon="2.98482">
        <ele>725.8</ele>
        <time>2026-04-30T07:32:44.999Z</time>
      </trkpt>
      <trkpt lat="43.97662" lon="2.98482">
        <ele>725.8</ele>
        <time>2026-04-30T07:32:45.999Z</time>
      </trkpt>
      <trkpt lat="43.97663" lon="2.98482">
        <ele>725.9</ele>
        <time>2026-04-30T07:32:46.999Z</time>
      </trkpt>
      <trkpt lat="43.97663" lon="2.98481">
        <ele>726.1</ele>
        <time>2026-04-30T07:32:47.999Z</time>
      </trkpt>
      <trkpt lat="43.97663" lon="2.9848">
        <ele>726</ele>
        <time>2026-04-30T07:32:48.999Z</time>
      </trkpt>
      <trkpt lat="43.97663" lon="2.98477">
        <ele>725.7</ele>
        <time>2026-04-30T07:32:49.999Z</time>
      </trkpt>
      <trkpt lat="43.97663" lon="2.98476">
        <ele>725.8</ele>
        <time>2026-04-30T07:32:50.999Z</time>
      </trkpt>
      <trkpt lat="43.97663" lon="2.98475">
        <ele>725.7</ele>
        <time>2026-04-30T07:32:51.999Z</time>
      </trkpt>
      <trkpt lat="43.97663" lon="2.98474">
        <ele>725.6</ele>
        <time>2026-04-30T07:32:52.999Z</time>
      </trkpt>
      <trkpt lat="43.97664" lon="2.98474">
        <ele>725.9</ele>
        <time>2026-04-30T07:32:53.999Z</time>
      </trkpt>
      <trkpt lat="43.97664" lon="2.98473">
        <ele>726.3</ele>
        <time>2026-04-30T07:32:54.999Z</time>
      </trkpt>
      <trkpt lat="43.97664" lon="2.98473">
        <ele>726.6</ele>
        <time>2026-04-30T07:32:55.999Z</time>
      </trkpt>
      <trkpt lat="43.97664" lon="2.98472">
        <ele>726.9</ele>
        <time>2026-04-30T07:32:56.999Z</time>
      </trkpt>
      <trkpt lat="43.97664" lon="2.98471">
        <ele>727</ele>
        <time>2026-04-30T07:32:57.999Z</time>
      </trkpt>
      <trkpt lat="43.97664" lon="2.9847">
        <ele>727</ele>
        <time>2026-04-30T07:32:58.999Z</time>
      </trkpt>
      <trkpt lat="43.97664" lon="2.98469">
        <ele>727.7</ele>
        <time>2026-04-30T07:32:59.999Z</time>
      </trkpt>
      <trkpt lat="43.97664" lon="2.98468">
        <ele>728.1</ele>
        <time>2026-04-30T07:33:00.999Z</time>
      </trkpt>
      <trkpt lat="43.97664" lon="2.98467">
        <ele>728.7</ele>
        <time>2026-04-30T07:33:01.999Z</time>
      </trkpt>
      <trkpt lat="43.97664" lon="2.98466">
        <ele>729.4</ele>
        <time>2026-04-30T07:33:02.999Z</time>
      </trkpt>
      <trkpt lat="43.97664" lon="2.98464">
        <ele>729.8</ele>
        <time>2026-04-30T07:33:03.999Z</time>
      </trkpt>
      <trkpt lat="43.97664" lon="2.98464">
        <ele>729.9</ele>
        <time>2026-04-30T07:33:04.999Z</time>
      </trkpt>
      <trkpt lat="43.97663" lon="2.98463">
        <ele>729.7</ele>
        <time>2026-04-30T07:33:05.999Z</time>
      </trkpt>
      <trkpt lat="43.97664" lon="2.98463">
        <ele>730.1</ele>
        <time>2026-04-30T07:33:06.999Z</time>
      </trkpt>
      <trkpt lat="43.97664" lon="2.98463">
        <ele>730.4</ele>
        <time>2026-04-30T07:33:07.999Z</time>
      </trkpt>
      <trkpt lat="43.97664" lon="2.98463">
        <ele>730.4</ele>
        <time>2026-04-30T07:33:08.999Z</time>
      </trkpt>
      <trkpt lat="43.97664" lon="2.98463">
        <ele>730.3</ele>
        <time>2026-04-30T07:33:09.999Z</time>
      </trkpt>
      <trkpt lat="43.97664" lon="2.98463">
        <ele>730.2</ele>
        <time>2026-04-30T07:33:10.999Z</time>
      </trkpt>
      <trkpt lat="43.97664" lon="2.98463">
        <ele>730.4</ele>
        <time>2026-04-30T07:33:11.999Z</time>
      </trkpt>
      <trkpt lat="43.97663" lon="2.98462">
        <ele>729.7</ele>
        <time>2026-04-30T07:33:13.999Z</time>
      </trkpt>
      <trkpt lat="43.97663" lon="2.98462">
        <ele>729.6</ele>
        <time>2026-04-30T07:33:14.999Z</time>
      </trkpt>
      <trkpt lat="43.97663" lon="2.98462">
        <ele>729.5</ele>
        <time>2026-04-30T07:33:15.999Z</time>
      </trkpt>
      <trkpt lat="43.97663" lon="2.98462">
        <ele>729.7</ele>
        <time>2026-04-30T07:33:16.999Z</time>
      </trkpt>
      <trkpt lat="43.97663" lon="2.98461">
        <ele>730.3</ele>
        <time>2026-04-30T07:33:17.999Z</time>
      </trkpt>
      <trkpt lat="43.97663" lon="2.9846">
        <ele>730.8</ele>
        <time>2026-04-30T07:33:18.999Z</time>
      </trkpt>
      <trkpt lat="43.97663" lon="2.98459">
        <ele>731.5</ele>
        <time>2026-04-30T07:33:19.999Z</time>
      </trkpt>
      <trkpt lat="43.97663" lon="2.98459">
        <ele>731.5</ele>
        <time>2026-04-30T07:33:20.999Z</time>
      </trkpt>
      <trkpt lat="43.97663" lon="2.98459">
        <ele>732</ele>
        <time>2026-04-30T07:33:21.999Z</time>
      </trkpt>
      <trkpt lat="43.97663" lon="2.98459">
        <ele>732.3</ele>
        <time>2026-04-30T07:33:22.999Z</time>
      </trkpt>
      <trkpt lat="43.97663" lon="2.98458">
        <ele>732.6</ele>
        <time>2026-04-30T07:33:23.999Z</time>
      </trkpt>
      <trkpt lat="43.97664" lon="2.98458">
        <ele>732.8</ele>
        <time>2026-04-30T07:33:24.999Z</time>
      </trkpt>
      <trkpt lat="43.97664" lon="2.98458">
        <ele>732.9</ele>
        <time>2026-04-30T07:33:25.999Z</time>
      </trkpt>
      <trkpt lat="43.97664" lon="2.98458">
        <ele>733.1</ele>
        <time>2026-04-30T07:33:26.999Z</time>
      </trkpt>
      <trkpt lat="43.97664" lon="2.98458">
        <ele>733.6</ele>
        <time>2026-04-30T07:33:27.999Z</time>
      </trkpt>
      <trkpt lat="43.97664" lon="2.98458">
        <ele>734</ele>
        <time>2026-04-30T07:33:28.999Z</time>
      </trkpt>
      <trkpt lat="43.97664" lon="2.98458">
        <ele>734.2</ele>
        <time>2026-04-30T07:33:29.999Z</time>
      </trkpt>
      <trkpt lat="43.97664" lon="2.98458">
        <ele>734.3</ele>
        <time>2026-04-30T07:33:30.999Z</time>
      </trkpt>
      <trkpt lat="43.97664" lon="2.98457">
        <ele>734.2</ele>
        <time>2026-04-30T07:33:31.999Z</time>
      </trkpt>
      <trkpt lat="43.97665" lon="2.98457">
        <ele>734.6</ele>
        <time>2026-04-30T07:33:32.999Z</time>
      </trkpt>
      <trkpt lat="43.97665" lon="2.98457">
        <ele>735.1</ele>
        <time>2026-04-30T07:33:33.999Z</time>
      </trkpt>
      <trkpt lat="43.97666" lon="2.98457">
        <ele>735</ele>
        <time>2026-04-30T07:33:34.999Z</time>
      </trkpt>
      <trkpt lat="43.97666" lon="2.98456">
        <ele>735.1</ele>
        <time>2026-04-30T07:33:35.999Z</time>
      </trkpt>
      <trkpt lat="43.97667" lon="2.98457">
        <ele>735.2</ele>
        <time>2026-04-30T07:33:37.999Z</time>
      </trkpt>
      <trkpt lat="43.97668" lon="2.98457">
        <ele>735</ele>
        <time>2026-04-30T07:33:38.999Z</time>
      </trkpt>
      <trkpt lat="43.97669" lon="2.98457">
        <ele>734.5</ele>
        <time>2026-04-30T07:33:39.999Z</time>
      </trkpt>
      <trkpt lat="43.9767" lon="2.98457">
        <ele>734.3</ele>
        <time>2026-04-30T07:33:40.999Z</time>
      </trkpt>
      <trkpt lat="43.97671" lon="2.98457">
        <ele>734.1</ele>
        <time>2026-04-30T07:33:41.999Z</time>
      </trkpt>
      <trkpt lat="43.97672" lon="2.98456">
        <ele>734</ele>
        <time>2026-04-30T07:33:42.999Z</time>
      </trkpt>
      <trkpt lat="43.97674" lon="2.98455">
        <ele>734.3</ele>
        <time>2026-04-30T07:33:43.999Z</time>
      </trkpt>
      <trkpt lat="43.97675" lon="2.98454">
        <ele>734.6</ele>
        <time>2026-04-30T07:33:44.999Z</time>
      </trkpt>
      <trkpt lat="43.97676" lon="2.98453">
        <ele>734.5</ele>
        <time>2026-04-30T07:33:45.999Z</time>
      </trkpt>
      <trkpt lat="43.97677" lon="2.98452">
        <ele>734.7</ele>
        <time>2026-04-30T07:33:46.999Z</time>
      </trkpt>
      <trkpt lat="43.97677" lon="2.98451">
        <ele>734.8</ele>
        <time>2026-04-30T07:33:47.999Z</time>
      </trkpt>
      <trkpt lat="43.97677" lon="2.9845">
        <ele>734.7</ele>
        <time>2026-04-30T07:33:48.999Z</time>
      </trkpt>
      <trkpt lat="43.97677" lon="2.9845">
        <ele>734.8</ele>
        <time>2026-04-30T07:33:49.999Z</time>
      </trkpt>
      <trkpt lat="43.97677" lon="2.98448">
        <ele>735</ele>
        <time>2026-04-30T07:33:50.999Z</time>
      </trkpt>
      <trkpt lat="43.97676" lon="2.98448">
        <ele>734.8</ele>
        <time>2026-04-30T07:33:51.999Z</time>
      </trkpt>
      <trkpt lat="43.97676" lon="2.98447">
        <ele>734.7</ele>
        <time>2026-04-30T07:33:53.999Z</time>
      </trkpt>
      <trkpt lat="43.97675" lon="2.98446">
        <ele>735.1</ele>
        <time>2026-04-30T07:33:54.999Z</time>
      </trkpt>
      <trkpt lat="43.97674" lon="2.98445">
        <ele>735</ele>
        <time>2026-04-30T07:33:55.999Z</time>
      </trkpt>
      <trkpt lat="43.97675" lon="2.98445">
        <ele>735.4</ele>
        <time>2026-04-30T07:33:56.999Z</time>
      </trkpt>
      <trkpt lat="43.97674" lon="2.98444">
        <ele>735.3</ele>
        <time>2026-04-30T07:33:57.999Z</time>
      </trkpt>
      <trkpt lat="43.97675" lon="2.98443">
        <ele>735.5</ele>
        <time>2026-04-30T07:33:58.999Z</time>
      </trkpt>
      <trkpt lat="43.97674" lon="2.98443">
        <ele>735.6</ele>
        <time>2026-04-30T07:33:59.999Z</time>
      </trkpt>
      <trkpt lat="43.97674" lon="2.98442">
        <ele>735.7</ele>
        <time>2026-04-30T07:34:00.999Z</time>
      </trkpt>
      <trkpt lat="43.97674" lon="2.98441">
        <ele>735.7</ele>
        <time>2026-04-30T07:34:01.999Z</time>
      </trkpt>
      <trkpt lat="43.97674" lon="2.98441">
        <ele>736.4</ele>
        <time>2026-04-30T07:34:02.999Z</time>
      </trkpt>
      <trkpt lat="43.97674" lon="2.98441">
        <ele>736.9</ele>
        <time>2026-04-30T07:34:03.999Z</time>
      </trkpt>
      <trkpt lat="43.97674" lon="2.9844">
        <ele>737</ele>
        <time>2026-04-30T07:34:04.999Z</time>
      </trkpt>
      <trkpt lat="43.97674" lon="2.9844">
        <ele>736.8</ele>
        <time>2026-04-30T07:34:05.999Z</time>
      </trkpt>
      <trkpt lat="43.97675" lon="2.98439">
        <ele>736.7</ele>
        <time>2026-04-30T07:34:06.999Z</time>
      </trkpt>
      <trkpt lat="43.97675" lon="2.98439">
        <ele>737</ele>
        <time>2026-04-30T07:34:07.999Z</time>
      </trkpt>
      <trkpt lat="43.97674" lon="2.98438">
        <ele>737.3</ele>
        <time>2026-04-30T07:34:08.999Z</time>
      </trkpt>
      <trkpt lat="43.97673" lon="2.98436">
        <ele>737.4</ele>
        <time>2026-04-30T07:34:10.999Z</time>
      </trkpt>
      <trkpt lat="43.97673" lon="2.98435">
        <ele>737.4</ele>
        <time>2026-04-30T07:34:11.999Z</time>
      </trkpt>
      <trkpt lat="43.97673" lon="2.98435">
        <ele>737.4</ele>
        <time>2026-04-30T07:34:12.999Z</time>
      </trkpt>
      <trkpt lat="43.97674" lon="2.98434">
        <ele>737.5</ele>
        <time>2026-04-30T07:34:13.999Z</time>
      </trkpt>
      <trkpt lat="43.97674" lon="2.98433">
        <ele>737.8</ele>
        <time>2026-04-30T07:34:14.999Z</time>
      </trkpt>
      <trkpt lat="43.97674" lon="2.98433">
        <ele>737.7</ele>
        <time>2026-04-30T07:34:15.999Z</time>
      </trkpt>
      <trkpt lat="43.97674" lon="2.98433">
        <ele>739.3</ele>
        <time>2026-04-30T07:34:16.999Z</time>
      </trkpt>
      <trkpt lat="43.97674" lon="2.98433">
        <ele>739.1</ele>
        <time>2026-04-30T07:34:17.999Z</time>
      </trkpt>
      <trkpt lat="43.97674" lon="2.98432">
        <ele>739.1</ele>
        <time>2026-04-30T07:34:18.999Z</time>
      </trkpt>
      <trkpt lat="43.97674" lon="2.98432">
        <ele>739.1</ele>
        <time>2026-04-30T07:34:19.999Z</time>
      </trkpt>
      <trkpt lat="43.97675" lon="2.98432">
        <ele>739.4</ele>
        <time>2026-04-30T07:34:20.999Z</time>
      </trkpt>
      <trkpt lat="43.97675" lon="2.98431">
        <ele>739.7</ele>
        <time>2026-04-30T07:34:21.999Z</time>
      </trkpt>
      <trkpt lat="43.97675" lon="2.98431">
        <ele>740</ele>
        <time>2026-04-30T07:34:22.999Z</time>
      </trkpt>
      <trkpt lat="43.97675" lon="2.98431">
        <ele>740.1</ele>
        <time>2026-04-30T07:34:23.999Z</time>
      </trkpt>
      <trkpt lat="43.97675" lon="2.98431">
        <ele>740</ele>
        <time>2026-04-30T07:34:24.999Z</time>
      </trkpt>
      <trkpt lat="43.97674" lon="2.98431">
        <ele>739.9</ele>
        <time>2026-04-30T07:34:25.999Z</time>
      </trkpt>
      <trkpt lat="43.97674" lon="2.9843">
        <ele>739.9</ele>
        <time>2026-04-30T07:34:26.999Z</time>
      </trkpt>
      <trkpt lat="43.97674" lon="2.9843">
        <ele>739.9</ele>
        <time>2026-04-30T07:34:27.999Z</time>
      </trkpt>
      <trkpt lat="43.97675" lon="2.98429">
        <ele>739.8</ele>
        <time>2026-04-30T07:34:28.999Z</time>
      </trkpt>
      <trkpt lat="43.97675" lon="2.98429">
        <ele>739.6</ele>
        <time>2026-04-30T07:34:29.999Z</time>
      </trkpt>
      <trkpt lat="43.97675" lon="2.98428">
        <ele>740</ele>
        <time>2026-04-30T07:34:30.999Z</time>
      </trkpt>
      <trkpt lat="43.97675" lon="2.98428">
        <ele>739.9</ele>
        <time>2026-04-30T07:34:31.999Z</time>
      </trkpt>
      <trkpt lat="43.97676" lon="2.98428">
        <ele>740.4</ele>
        <time>2026-04-30T07:34:32.999Z</time>
      </trkpt>
      <trkpt lat="43.97677" lon="2.98427">
        <ele>740.4</ele>
        <time>2026-04-30T07:34:33.999Z</time>
      </trkpt>
      <trkpt lat="43.97678" lon="2.98426">
        <ele>740.5</ele>
        <time>2026-04-30T07:34:34.999Z</time>
      </trkpt>
      <trkpt lat="43.97678" lon="2.98426">
        <ele>740.5</ele>
        <time>2026-04-30T07:34:35.999Z</time>
      </trkpt>
      <trkpt lat="43.97678" lon="2.98426">
        <ele>740.8</ele>
        <time>2026-04-30T07:34:36.999Z</time>
      </trkpt>
      <trkpt lat="43.97678" lon="2.98426">
        <ele>741.1</ele>
        <time>2026-04-30T07:34:37.999Z</time>
      </trkpt>
      <trkpt lat="43.97677" lon="2.98425">
        <ele>741.3</ele>
        <time>2026-04-30T07:34:38.999Z</time>
      </trkpt>
      <trkpt lat="43.97676" lon="2.98424">
        <ele>741.7</ele>
        <time>2026-04-30T07:34:40.999Z</time>
      </trkpt>
      <trkpt lat="43.97676" lon="2.98423">
        <ele>741.6</ele>
        <time>2026-04-30T07:34:41.999Z</time>
      </trkpt>
      <trkpt lat="43.97676" lon="2.98422">
        <ele>741.7</ele>
        <time>2026-04-30T07:34:42.999Z</time>
      </trkpt>
      <trkpt lat="43.97676" lon="2.98421">
        <ele>741.8</ele>
        <time>2026-04-30T07:34:43.999Z</time>
      </trkpt>
      <trkpt lat="43.97676" lon="2.98421">
        <ele>742</ele>
        <time>2026-04-30T07:34:44.999Z</time>
      </trkpt>
      <trkpt lat="43.97676" lon="2.98421">
        <ele>742.2</ele>
        <time>2026-04-30T07:34:45.999Z</time>
      </trkpt>
      <trkpt lat="43.97676" lon="2.98421">
        <ele>742.2</ele>
        <time>2026-04-30T07:34:46.999Z</time>
      </trkpt>
      <trkpt lat="43.97676" lon="2.98421">
        <ele>742.2</ele>
        <time>2026-04-30T07:34:47.999Z</time>
      </trkpt>
      <trkpt lat="43.97676" lon="2.98421">
        <ele>742.3</ele>
        <time>2026-04-30T07:34:48.999Z</time>
      </trkpt>
      <trkpt lat="43.97676" lon="2.9842">
        <ele>742.3</ele>
        <time>2026-04-30T07:34:49.999Z</time>
      </trkpt>
      <trkpt lat="43.97677" lon="2.98419">
        <ele>743</ele>
        <time>2026-04-30T07:34:51.999Z</time>
      </trkpt>
      <trkpt lat="43.97677" lon="2.98418">
        <ele>743.2</ele>
        <time>2026-04-30T07:34:52.999Z</time>
      </trkpt>
      <trkpt lat="43.97677" lon="2.98417">
        <ele>743.2</ele>
        <time>2026-04-30T07:34:53.999Z</time>
      </trkpt>
      <trkpt lat="43.97677" lon="2.98417">
        <ele>742.8</ele>
        <time>2026-04-30T07:34:54.999Z</time>
      </trkpt>
      <trkpt lat="43.97677" lon="2.98417">
        <ele>742.9</ele>
        <time>2026-04-30T07:34:55.999Z</time>
      </trkpt>
      <trkpt lat="43.97677" lon="2.98417">
        <ele>743.1</ele>
        <time>2026-04-30T07:34:56.999Z</time>
      </trkpt>
      <trkpt lat="43.97678" lon="2.98417">
        <ele>743.2</ele>
        <time>2026-04-30T07:34:57.999Z</time>
      </trkpt>
      <trkpt lat="43.97678" lon="2.98417">
        <ele>743.3</ele>
        <time>2026-04-30T07:34:58.999Z</time>
      </trkpt>
      <trkpt lat="43.97678" lon="2.98416">
        <ele>743.8</ele>
        <time>2026-04-30T07:34:59.999Z</time>
      </trkpt>
      <trkpt lat="43.97677" lon="2.98415">
        <ele>743.9</ele>
        <time>2026-04-30T07:35:00.999Z</time>
      </trkpt>
      <trkpt lat="43.97677" lon="2.98414">
        <ele>744.1</ele>
        <time>2026-04-30T07:35:01.999Z</time>
      </trkpt>
      <trkpt lat="43.97677" lon="2.98414">
        <ele>744.2</ele>
        <time>2026-04-30T07:35:02.999Z</time>
      </trkpt>
      <trkpt lat="43.97677" lon="2.98413">
        <ele>744.1</ele>
        <time>2026-04-30T07:35:03.999Z</time>
      </trkpt>
      <trkpt lat="43.97677" lon="2.98413">
        <ele>744.3</ele>
        <time>2026-04-30T07:35:04.999Z</time>
      </trkpt>
      <trkpt lat="43.97677" lon="2.98413">
        <ele>744.5</ele>
        <time>2026-04-30T07:35:05.999Z</time>
      </trkpt>
      <trkpt lat="43.97678" lon="2.98413">
        <ele>744.5</ele>
        <time>2026-04-30T07:35:06.999Z</time>
      </trkpt>
      <trkpt lat="43.97678" lon="2.98413">
        <ele>744.8</ele>
        <time>2026-04-30T07:35:07.999Z</time>
      </trkpt>
      <trkpt lat="43.97677" lon="2.98413">
        <ele>745</ele>
        <time>2026-04-30T07:35:08.999Z</time>
      </trkpt>
      <trkpt lat="43.97678" lon="2.98413">
        <ele>745.1</ele>
        <time>2026-04-30T07:35:09.999Z</time>
      </trkpt>
      <trkpt lat="43.97678" lon="2.98413">
        <ele>744.8</ele>
        <time>2026-04-30T07:35:10.999Z</time>
      </trkpt>
      <trkpt lat="43.97678" lon="2.98413">
        <ele>744.6</ele>
        <time>2026-04-30T07:35:11.999Z</time>
      </trkpt>
      <trkpt lat="43.97678" lon="2.98412">
        <ele>744.6</ele>
        <time>2026-04-30T07:35:12.999Z</time>
      </trkpt>
      <trkpt lat="43.97678" lon="2.98412">
        <ele>744.9</ele>
        <time>2026-04-30T07:35:13.999Z</time>
      </trkpt>
      <trkpt lat="43.97678" lon="2.98412">
        <ele>745</ele>
        <time>2026-04-30T07:35:14.999Z</time>
      </trkpt>
      <trkpt lat="43.97678" lon="2.98412">
        <ele>745.1</ele>
        <time>2026-04-30T07:35:15.999Z</time>
      </trkpt>
      <trkpt lat="43.97678" lon="2.98412">
        <ele>745.3</ele>
        <time>2026-04-30T07:35:16.999Z</time>
      </trkpt>
      <trkpt lat="43.97678" lon="2.98412">
        <ele>745</ele>
        <time>2026-04-30T07:35:17.999Z</time>
      </trkpt>
      <trkpt lat="43.97678" lon="2.98412">
        <ele>745.1</ele>
        <time>2026-04-30T07:35:18.999Z</time>
      </trkpt>
      <trkpt lat="43.97678" lon="2.98411">
        <ele>745.1</ele>
        <time>2026-04-30T07:35:19.999Z</time>
      </trkpt>
      <trkpt lat="43.97678" lon="2.98411">
        <ele>745.4</ele>
        <time>2026-04-30T07:35:20.999Z</time>
      </trkpt>
      <trkpt lat="43.97678" lon="2.98411">
        <ele>745.9</ele>
        <time>2026-04-30T07:35:21.999Z</time>
      </trkpt>
      <trkpt lat="43.97678" lon="2.98411">
        <ele>746.2</ele>
        <time>2026-04-30T07:35:22.999Z</time>
      </trkpt>
      <trkpt lat="43.97678" lon="2.98411">
        <ele>746.1</ele>
        <time>2026-04-30T07:35:23.999Z</time>
      </trkpt>
      <trkpt lat="43.97678" lon="2.98411">
        <ele>746.5</ele>
        <time>2026-04-30T07:35:24.999Z</time>
      </trkpt>
      <trkpt lat="43.97678" lon="2.98411">
        <ele>746.7</ele>
        <time>2026-04-30T07:35:25.999Z</time>
      </trkpt>
      <trkpt lat="43.97678" lon="2.9841">
        <ele>746.5</ele>
        <time>2026-04-30T07:35:26.999Z</time>
      </trkpt>
      <trkpt lat="43.97678" lon="2.98409">
        <ele>746.8</ele>
        <time>2026-04-30T07:35:27.999Z</time>
      </trkpt>
      <trkpt lat="43.97679" lon="2.98409">
        <ele>746.7</ele>
        <time>2026-04-30T07:35:28.999Z</time>
      </trkpt>
      <trkpt lat="43.97679" lon="2.98409">
        <ele>747.1</ele>
        <time>2026-04-30T07:35:29.999Z</time>
      </trkpt>
      <trkpt lat="43.9768" lon="2.98409">
        <ele>747.6</ele>
        <time>2026-04-30T07:35:30.999Z</time>
      </trkpt>
      <trkpt lat="43.9768" lon="2.98407">
        <ele>748</ele>
        <time>2026-04-30T07:35:31.999Z</time>
      </trkpt>
      <trkpt lat="43.9768" lon="2.98406">
        <ele>748.4</ele>
        <time>2026-04-30T07:35:32.999Z</time>
      </trkpt>
      <trkpt lat="43.9768" lon="2.98406">
        <ele>749</ele>
        <time>2026-04-30T07:35:33.999Z</time>
      </trkpt>
      <trkpt lat="43.9768" lon="2.98406">
        <ele>749.5</ele>
        <time>2026-04-30T07:35:34.999Z</time>
      </trkpt>
      <trkpt lat="43.97681" lon="2.98406">
        <ele>749.6</ele>
        <time>2026-04-30T07:35:35.999Z</time>
      </trkpt>
      <trkpt lat="43.97681" lon="2.98406">
        <ele>749.8</ele>
        <time>2026-04-30T07:35:36.999Z</time>
      </trkpt>
      <trkpt lat="43.97681" lon="2.98406">
        <ele>750.3</ele>
        <time>2026-04-30T07:35:37.999Z</time>
      </trkpt>
      <trkpt lat="43.97681" lon="2.98406">
        <ele>750.7</ele>
        <time>2026-04-30T07:35:38.999Z</time>
      </trkpt>
      <trkpt lat="43.97681" lon="2.98406">
        <ele>751.4</ele>
        <time>2026-04-30T07:35:39.999Z</time>
      </trkpt>
      <trkpt lat="43.97681" lon="2.98406">
        <ele>752</ele>
        <time>2026-04-30T07:35:40.999Z</time>
      </trkpt>
      <trkpt lat="43.97681" lon="2.98406">
        <ele>752.4</ele>
        <time>2026-04-30T07:35:41.999Z</time>
      </trkpt>
      <trkpt lat="43.97681" lon="2.98406">
        <ele>752.7</ele>
        <time>2026-04-30T07:35:42.999Z</time>
      </trkpt>
      <trkpt lat="43.97681" lon="2.98406">
        <ele>753.3</ele>
        <time>2026-04-30T07:35:43.999Z</time>
      </trkpt>
      <trkpt lat="43.97681" lon="2.98405">
        <ele>753.6</ele>
        <time>2026-04-30T07:35:44.999Z</time>
      </trkpt>
      <trkpt lat="43.97681" lon="2.98405">
        <ele>753.7</ele>
        <time>2026-04-30T07:35:45.999Z</time>
      </trkpt>
      <trkpt lat="43.97681" lon="2.98405">
        <ele>753.7</ele>
        <time>2026-04-30T07:35:46.999Z</time>
      </trkpt>
      <trkpt lat="43.97681" lon="2.98405">
        <ele>753.6</ele>
        <time>2026-04-30T07:35:47.999Z</time>
      </trkpt>
      <trkpt lat="43.97681" lon="2.98405">
        <ele>753.4</ele>
        <time>2026-04-30T07:35:48.999Z</time>
      </trkpt>
      <trkpt lat="43.97681" lon="2.98405">
        <ele>753.6</ele>
        <time>2026-04-30T07:35:49.999Z</time>
      </trkpt>
      <trkpt lat="43.97682" lon="2.98404">
        <ele>755.3</ele>
        <time>2026-04-30T07:35:51.999Z</time>
      </trkpt>
      <trkpt lat="43.97683" lon="2.98404">
        <ele>755.1</ele>
        <time>2026-04-30T07:35:52.999Z</time>
      </trkpt>
      <trkpt lat="43.97683" lon="2.98403">
        <ele>754.8</ele>
        <time>2026-04-30T07:35:53.999Z</time>
      </trkpt>
      <trkpt lat="43.97683" lon="2.98401">
        <ele>754.7</ele>
        <time>2026-04-30T07:35:54.999Z</time>
      </trkpt>
      <trkpt lat="43.97683" lon="2.98399">
        <ele>754.9</ele>
        <time>2026-04-30T07:35:55.999Z</time>
      </trkpt>
      <trkpt lat="43.97683" lon="2.98398">
        <ele>754.6</ele>
        <time>2026-04-30T07:35:56.999Z</time>
      </trkpt>
      <trkpt lat="43.97684" lon="2.98396">
        <ele>754.9</ele>
        <time>2026-04-30T07:35:57.999Z</time>
      </trkpt>
      <trkpt lat="43.97683" lon="2.98394">
        <ele>755.2</ele>
        <time>2026-04-30T07:35:58.999Z</time>
      </trkpt>
      <trkpt lat="43.97683" lon="2.98392">
        <ele>755.1</ele>
        <time>2026-04-30T07:35:59.999Z</time>
      </trkpt>
      <trkpt lat="43.97682" lon="2.98391">
        <ele>755.4</ele>
        <time>2026-04-30T07:36:00.999Z</time>
      </trkpt>
      <trkpt lat="43.97682" lon="2.9839">
        <ele>755.6</ele>
        <time>2026-04-30T07:36:01.999Z</time>
      </trkpt>
      <trkpt lat="43.97682" lon="2.98388">
        <ele>755.5</ele>
        <time>2026-04-30T07:36:02.999Z</time>
      </trkpt>
      <trkpt lat="43.97682" lon="2.98388">
        <ele>755.2</ele>
        <time>2026-04-30T07:36:03.999Z</time>
      </trkpt>
      <trkpt lat="43.97682" lon="2.98387">
        <ele>755.3</ele>
        <time>2026-04-30T07:36:04.999Z</time>
      </trkpt>
      <trkpt lat="43.97682" lon="2.98386">
        <ele>755.8</ele>
        <time>2026-04-30T07:36:05.999Z</time>
      </trkpt>
      <trkpt lat="43.97682" lon="2.98385">
        <ele>756.2</ele>
        <time>2026-04-30T07:36:06.999Z</time>
      </trkpt>
      <trkpt lat="43.97683" lon="2.98385">
        <ele>756.4</ele>
        <time>2026-04-30T07:36:07.999Z</time>
      </trkpt>
      <trkpt lat="43.97683" lon="2.98385">
        <ele>756.9</ele>
        <time>2026-04-30T07:36:08.999Z</time>
      </trkpt>
      <trkpt lat="43.97683" lon="2.98384">
        <ele>757.2</ele>
        <time>2026-04-30T07:36:09.999Z</time>
      </trkpt>
      <trkpt lat="43.97683" lon="2.98384">
        <ele>757.3</ele>
        <time>2026-04-30T07:36:10.999Z</time>
      </trkpt>
      <trkpt lat="43.97683" lon="2.98384">
        <ele>757.4</ele>
        <time>2026-04-30T07:36:11.999Z</time>
      </trkpt>
      <trkpt lat="43.97683" lon="2.98384">
        <ele>757.6</ele>
        <time>2026-04-30T07:36:12.999Z</time>
      </trkpt>
      <trkpt lat="43.97683" lon="2.98382">
        <ele>757.4</ele>
        <time>2026-04-30T07:36:13.999Z</time>
      </trkpt>
      <trkpt lat="43.97682" lon="2.98381">
        <ele>757.8</ele>
        <time>2026-04-30T07:36:14.999Z</time>
      </trkpt>
      <trkpt lat="43.97681" lon="2.9838">
        <ele>757.9</ele>
        <time>2026-04-30T07:36:15.999Z</time>
      </trkpt>
      <trkpt lat="43.97681" lon="2.98379">
        <ele>757.3</ele>
        <time>2026-04-30T07:36:16.999Z</time>
      </trkpt>
      <trkpt lat="43.97681" lon="2.98379">
        <ele>756.9</ele>
        <time>2026-04-30T07:36:17.999Z</time>
      </trkpt>
      <trkpt lat="43.9768" lon="2.98379">
        <ele>756.8</ele>
        <time>2026-04-30T07:36:18.999Z</time>
      </trkpt>
      <trkpt lat="43.97679" lon="2.98379">
        <ele>756.4</ele>
        <time>2026-04-30T07:36:19.999Z</time>
      </trkpt>
      <trkpt lat="43.97679" lon="2.98379">
        <ele>756.3</ele>
        <time>2026-04-30T07:36:20.999Z</time>
      </trkpt>
      <trkpt lat="43.97678" lon="2.98378">
        <ele>756.1</ele>
        <time>2026-04-30T07:36:21.999Z</time>
      </trkpt>
      <trkpt lat="43.97678" lon="2.98378">
        <ele>756.3</ele>
        <time>2026-04-30T07:36:22.999Z</time>
      </trkpt>
      <trkpt lat="43.97678" lon="2.98377">
        <ele>756.3</ele>
        <time>2026-04-30T07:36:23.999Z</time>
      </trkpt>
      <trkpt lat="43.97678" lon="2.98376">
        <ele>757.3</ele>
        <time>2026-04-30T07:36:24.999Z</time>
      </trkpt>
      <trkpt lat="43.97678" lon="2.98376">
        <ele>757.8</ele>
        <time>2026-04-30T07:36:25.999Z</time>
      </trkpt>
      <trkpt lat="43.97678" lon="2.98376">
        <ele>757.9</ele>
        <time>2026-04-30T07:36:26.999Z</time>
      </trkpt>
      <trkpt lat="43.97678" lon="2.98376">
        <ele>757.9</ele>
        <time>2026-04-30T07:36:27.999Z</time>
      </trkpt>
      <trkpt lat="43.97678" lon="2.98376">
        <ele>758</ele>
        <time>2026-04-30T07:36:28.999Z</time>
      </trkpt>
      <trkpt lat="43.97678" lon="2.98375">
        <ele>757.9</ele>
        <time>2026-04-30T07:36:29.999Z</time>
      </trkpt>
      <trkpt lat="43.97678" lon="2.98375">
        <ele>757.9</ele>
        <time>2026-04-30T07:36:30.999Z</time>
      </trkpt>
      <trkpt lat="43.97678" lon="2.98375">
        <ele>758</ele>
        <time>2026-04-30T07:36:31.999Z</time>
      </trkpt>
      <trkpt lat="43.97678" lon="2.98374">
        <ele>758</ele>
        <time>2026-04-30T07:36:32.999Z</time>
      </trkpt>
      <trkpt lat="43.97677" lon="2.98373">
        <ele>758</ele>
        <time>2026-04-30T07:36:33.999Z</time>
      </trkpt>
      <trkpt lat="43.97677" lon="2.98373">
        <ele>758.1</ele>
        <time>2026-04-30T07:36:34.999Z</time>
      </trkpt>
      <trkpt lat="43.97675" lon="2.98373">
        <ele>757.8</ele>
        <time>2026-04-30T07:36:35.999Z</time>
      </trkpt>
      <trkpt lat="43.97675" lon="2.98373">
        <ele>758</ele>
        <time>2026-04-30T07:36:36.999Z</time>
      </trkpt>
      <trkpt lat="43.97675" lon="2.98373">
        <ele>758.1</ele>
        <time>2026-04-30T07:36:37.999Z</time>
      </trkpt>
      <trkpt lat="43.97674" lon="2.98372">
        <ele>758.1</ele>
        <time>2026-04-30T07:36:38.999Z</time>
      </trkpt>
      <trkpt lat="43.97674" lon="2.98371">
        <ele>758.2</ele>
        <time>2026-04-30T07:36:39.999Z</time>
      </trkpt>
      <trkpt lat="43.97674" lon="2.98371">
        <ele>758.3</ele>
        <time>2026-04-30T07:36:40.999Z</time>
      </trkpt>
      <trkpt lat="43.97673" lon="2.9837">
        <ele>758.4</ele>
        <time>2026-04-30T07:36:41.999Z</time>
      </trkpt>
      <trkpt lat="43.97673" lon="2.9837">
        <ele>758.3</ele>
        <time>2026-04-30T07:36:42.999Z</time>
      </trkpt>
      <trkpt lat="43.97672" lon="2.9837">
        <ele>758.3</ele>
        <time>2026-04-30T07:36:43.999Z</time>
      </trkpt>
      <trkpt lat="43.9767" lon="2.98371">
        <ele>759.1</ele>
        <time>2026-04-30T07:36:45.999Z</time>
      </trkpt>
      <trkpt lat="43.9767" lon="2.98371">
        <ele>759.3</ele>
        <time>2026-04-30T07:36:46.999Z</time>
      </trkpt>
      <trkpt lat="43.9767" lon="2.9837">
        <ele>758.2</ele>
        <time>2026-04-30T07:36:47.999Z</time>
      </trkpt>
      <trkpt lat="43.97669" lon="2.98368">
        <ele>758.3</ele>
        <time>2026-04-30T07:36:48.999Z</time>
      </trkpt>
      <trkpt lat="43.97669" lon="2.98365">
        <ele>758.5</ele>
        <time>2026-04-30T07:36:49.999Z</time>
      </trkpt>
      <trkpt lat="43.97669" lon="2.98364">
        <ele>758.8</ele>
        <time>2026-04-30T07:36:50.999Z</time>
      </trkpt>
      <trkpt lat="43.97669" lon="2.98363">
        <ele>758.7</ele>
        <time>2026-04-30T07:36:51.999Z</time>
      </trkpt>
      <trkpt lat="43.97669" lon="2.98363">
        <ele>758.6</ele>
        <time>2026-04-30T07:36:52.999Z</time>
      </trkpt>
      <trkpt lat="43.97668" lon="2.98362">
        <ele>758.6</ele>
        <time>2026-04-30T07:36:53.999Z</time>
      </trkpt>
      <trkpt lat="43.97669" lon="2.98361">
        <ele>758.8</ele>
        <time>2026-04-30T07:36:54.999Z</time>
      </trkpt>
      <trkpt lat="43.97668" lon="2.98361">
        <ele>758.8</ele>
        <time>2026-04-30T07:36:55.999Z</time>
      </trkpt>
      <trkpt lat="43.97668" lon="2.9836">
        <ele>758.9</ele>
        <time>2026-04-30T07:36:56.999Z</time>
      </trkpt>
      <trkpt lat="43.97668" lon="2.9836">
        <ele>759.2</ele>
        <time>2026-04-30T07:36:57.999Z</time>
      </trkpt>
      <trkpt lat="43.97668" lon="2.9836">
        <ele>759.4</ele>
        <time>2026-04-30T07:36:58.999Z</time>
      </trkpt>
      <trkpt lat="43.97667" lon="2.98359">
        <ele>759.5</ele>
        <time>2026-04-30T07:36:59.999Z</time>
      </trkpt>
      <trkpt lat="43.97666" lon="2.98359">
        <ele>759.4</ele>
        <time>2026-04-30T07:37:00.999Z</time>
      </trkpt>
      <trkpt lat="43.97665" lon="2.98356">
        <ele>759.5</ele>
        <time>2026-04-30T07:37:02.999Z</time>
      </trkpt>
      <trkpt lat="43.97665" lon="2.98354">
        <ele>759.3</ele>
        <time>2026-04-30T07:37:03.999Z</time>
      </trkpt>
      <trkpt lat="43.97666" lon="2.98352">
        <ele>759.1</ele>
        <time>2026-04-30T07:37:04.999Z</time>
      </trkpt>
      <trkpt lat="43.97667" lon="2.98351">
        <ele>758.8</ele>
        <time>2026-04-30T07:37:05.999Z</time>
      </trkpt>
      <trkpt lat="43.97667" lon="2.98352">
        <ele>759.3</ele>
        <time>2026-04-30T07:37:06.999Z</time>
      </trkpt>
      <trkpt lat="43.97668" lon="2.98352">
        <ele>759.6</ele>
        <time>2026-04-30T07:37:07.999Z</time>
      </trkpt>
      <trkpt lat="43.97668" lon="2.98352">
        <ele>759.6</ele>
        <time>2026-04-30T07:37:08.999Z</time>
      </trkpt>
      <trkpt lat="43.97668" lon="2.98353">
        <ele>760.4</ele>
        <time>2026-04-30T07:37:09.999Z</time>
      </trkpt>
      <trkpt lat="43.97668" lon="2.98353">
        <ele>759.6</ele>
        <time>2026-04-30T07:37:10.999Z</time>
      </trkpt>
      <trkpt lat="43.97668" lon="2.98353">
        <ele>759.6</ele>
        <time>2026-04-30T07:37:11.999Z</time>
      </trkpt>
      <trkpt lat="43.97668" lon="2.98353">
        <ele>759.9</ele>
        <time>2026-04-30T07:37:12.999Z</time>
      </trkpt>
      <trkpt lat="43.97668" lon="2.98353">
        <ele>759.8</ele>
        <time>2026-04-30T07:37:13.999Z</time>
      </trkpt>
      <trkpt lat="43.97668" lon="2.98352">
        <ele>759.8</ele>
        <time>2026-04-30T07:37:14.999Z</time>
      </trkpt>
      <trkpt lat="43.97669" lon="2.98352">
        <ele>759.8</ele>
        <time>2026-04-30T07:37:15.999Z</time>
      </trkpt>
      <trkpt lat="43.9767" lon="2.98352">
        <ele>759.9</ele>
        <time>2026-04-30T07:37:16.999Z</time>
      </trkpt>
      <trkpt lat="43.9767" lon="2.98351">
        <ele>760</ele>
        <time>2026-04-30T07:37:17.999Z</time>
      </trkpt>
      <trkpt lat="43.9767" lon="2.98349">
        <ele>760.2</ele>
        <time>2026-04-30T07:37:18.999Z</time>
      </trkpt>
      <trkpt lat="43.9767" lon="2.98349">
        <ele>760.1</ele>
        <time>2026-04-30T07:37:19.999Z</time>
      </trkpt>
      <trkpt lat="43.9767" lon="2.98348">
        <ele>760.2</ele>
        <time>2026-04-30T07:37:20.999Z</time>
      </trkpt>
      <trkpt lat="43.9767" lon="2.98348">
        <ele>760.3</ele>
        <time>2026-04-30T07:37:21.999Z</time>
      </trkpt>
      <trkpt lat="43.9767" lon="2.98348">
        <ele>761.5</ele>
        <time>2026-04-30T07:37:23.999Z</time>
      </trkpt>
      <trkpt lat="43.9767" lon="2.98348">
        <ele>762.7</ele>
        <time>2026-04-30T07:37:24.999Z</time>
      </trkpt>
      <trkpt lat="43.97671" lon="2.98348">
        <ele>762.8</ele>
        <time>2026-04-30T07:37:25.999Z</time>
      </trkpt>
      <trkpt lat="43.97672" lon="2.98348">
        <ele>761.8</ele>
        <time>2026-04-30T07:37:26.999Z</time>
      </trkpt>
      <trkpt lat="43.97672" lon="2.98348">
        <ele>763.4</ele>
        <time>2026-04-30T07:37:27.999Z</time>
      </trkpt>
      <trkpt lat="43.97672" lon="2.98348">
        <ele>763.6</ele>
        <time>2026-04-30T07:37:28.999Z</time>
      </trkpt>
      <trkpt lat="43.97672" lon="2.98348">
        <ele>763.5</ele>
        <time>2026-04-30T07:37:29.999Z</time>
      </trkpt>
      <trkpt lat="43.97672" lon="2.98348">
        <ele>763.5</ele>
        <time>2026-04-30T07:37:30.999Z</time>
      </trkpt>
      <trkpt lat="43.97672" lon="2.98348">
        <ele>763.5</ele>
        <time>2026-04-30T07:37:31.999Z</time>
      </trkpt>
      <trkpt lat="43.97671" lon="2.98348">
        <ele>763.4</ele>
        <time>2026-04-30T07:37:32.999Z</time>
      </trkpt>
      <trkpt lat="43.97671" lon="2.98347">
        <ele>763.6</ele>
        <time>2026-04-30T07:37:34.999Z</time>
      </trkpt>
      <trkpt lat="43.97671" lon="2.98347">
        <ele>763.5</ele>
        <time>2026-04-30T07:37:35.999Z</time>
      </trkpt>
      <trkpt lat="43.97672" lon="2.98346">
        <ele>763.2</ele>
        <time>2026-04-30T07:37:36.999Z</time>
      </trkpt>
      <trkpt lat="43.97673" lon="2.98346">
        <ele>762.9</ele>
        <time>2026-04-30T07:37:37.999Z</time>
      </trkpt>
      <trkpt lat="43.97673" lon="2.98344">
        <ele>762.4</ele>
        <time>2026-04-30T07:37:38.999Z</time>
      </trkpt>
      <trkpt lat="43.97672" lon="2.98342">
        <ele>762</ele>
        <time>2026-04-30T07:37:39.999Z</time>
      </trkpt>
      <trkpt lat="43.97673" lon="2.98342">
        <ele>762.1</ele>
        <time>2026-04-30T07:37:40.999Z</time>
      </trkpt>
      <trkpt lat="43.97673" lon="2.98342">
        <ele>762.4</ele>
        <time>2026-04-30T07:37:41.999Z</time>
      </trkpt>
      <trkpt lat="43.97673" lon="2.98341">
        <ele>762.2</ele>
        <time>2026-04-30T07:37:42.999Z</time>
      </trkpt>
      <trkpt lat="43.97673" lon="2.98341">
        <ele>762.2</ele>
        <time>2026-04-30T07:37:43.999Z</time>
      </trkpt>
      <trkpt lat="43.97674" lon="2.98341">
        <ele>764.2</ele>
        <time>2026-04-30T07:37:44.999Z</time>
      </trkpt>
      <trkpt lat="43.97674" lon="2.98341">
        <ele>764.3</ele>
        <time>2026-04-30T07:37:45.999Z</time>
      </trkpt>
      <trkpt lat="43.97674" lon="2.98341">
        <ele>764.4</ele>
        <time>2026-04-30T07:37:46.999Z</time>
      </trkpt>
      <trkpt lat="43.97674" lon="2.98341">
        <ele>764.5</ele>
        <time>2026-04-30T07:37:47.999Z</time>
      </trkpt>
      <trkpt lat="43.97673" lon="2.9834">
        <ele>764.2</ele>
        <time>2026-04-30T07:37:48.999Z</time>
      </trkpt>
      <trkpt lat="43.97673" lon="2.98341">
        <ele>764</ele>
        <time>2026-04-30T07:37:49.999Z</time>
      </trkpt>
      <trkpt lat="43.97673" lon="2.9834">
        <ele>764</ele>
        <time>2026-04-30T07:37:50.999Z</time>
      </trkpt>
      <trkpt lat="43.97673" lon="2.98341">
        <ele>763.9</ele>
        <time>2026-04-30T07:37:51.999Z</time>
      </trkpt>
      <trkpt lat="43.97673" lon="2.98342">
        <ele>763.9</ele>
        <time>2026-04-30T07:37:52.999Z</time>
      </trkpt>
      <trkpt lat="43.97673" lon="2.98342">
        <ele>763.9</ele>
        <time>2026-04-30T07:37:53.999Z</time>
      </trkpt>
      <trkpt lat="43.97673" lon="2.98342">
        <ele>764.1</ele>
        <time>2026-04-30T07:37:54.999Z</time>
      </trkpt>
      <trkpt lat="43.97673" lon="2.98342">
        <ele>764.3</ele>
        <time>2026-04-30T07:37:55.999Z</time>
      </trkpt>
      <trkpt lat="43.97673" lon="2.98342">
        <ele>764.7</ele>
        <time>2026-04-30T07:37:56.999Z</time>
      </trkpt>
      <trkpt lat="43.97673" lon="2.98342">
        <ele>765.2</ele>
        <time>2026-04-30T07:37:57.999Z</time>
      </trkpt>
      <trkpt lat="43.97673" lon="2.98342">
        <ele>765.4</ele>
        <time>2026-04-30T07:37:58.999Z</time>
      </trkpt>
      <trkpt lat="43.97673" lon="2.98342">
        <ele>765.6</ele>
        <time>2026-04-30T07:37:59.999Z</time>
      </trkpt>
      <trkpt lat="43.97673" lon="2.98341">
        <ele>765.7</ele>
        <time>2026-04-30T07:38:00.999Z</time>
      </trkpt>
      <trkpt lat="43.97673" lon="2.98341">
        <ele>765.9</ele>
        <time>2026-04-30T07:38:01.999Z</time>
      </trkpt>
      <trkpt lat="43.97673" lon="2.98341">
        <ele>766.2</ele>
        <time>2026-04-30T07:38:02.999Z</time>
      </trkpt>
      <trkpt lat="43.97673" lon="2.98341">
        <ele>766.5</ele>
        <time>2026-04-30T07:38:03.999Z</time>
      </trkpt>
      <trkpt lat="43.97673" lon="2.98341">
        <ele>766.7</ele>
        <time>2026-04-30T07:38:04.999Z</time>
      </trkpt>
      <trkpt lat="43.97673" lon="2.98341">
        <ele>766.9</ele>
        <time>2026-04-30T07:38:05.999Z</time>
      </trkpt>
      <trkpt lat="43.97673" lon="2.98341">
        <ele>766.8</ele>
        <time>2026-04-30T07:38:06.999Z</time>
      </trkpt>
      <trkpt lat="43.97673" lon="2.98341">
        <ele>766.7</ele>
        <time>2026-04-30T07:38:07.999Z</time>
      </trkpt>
      <trkpt lat="43.97673" lon="2.98341">
        <ele>766.5</ele>
        <time>2026-04-30T07:38:08.999Z</time>
      </trkpt>
      <trkpt lat="43.97673" lon="2.98341">
        <ele>765.7</ele>
        <time>2026-04-30T07:38:09.999Z</time>
      </trkpt>
      <trkpt lat="43.97673" lon="2.98341">
        <ele>764.9</ele>
        <time>2026-04-30T07:38:10.999Z</time>
      </trkpt>
      <trkpt lat="43.97673" lon="2.98341">
        <ele>764.1</ele>
        <time>2026-04-30T07:38:11.999Z</time>
      </trkpt>
      <trkpt lat="43.97673" lon="2.98341">
        <ele>763.7</ele>
        <time>2026-04-30T07:38:12.999Z</time>
      </trkpt>
      <trkpt lat="43.97673" lon="2.98341">
        <ele>763.4</ele>
        <time>2026-04-30T07:38:13.999Z</time>
      </trkpt>
      <trkpt lat="43.97673" lon="2.98341">
        <ele>763.1</ele>
        <time>2026-04-30T07:38:14.999Z</time>
      </trkpt>
      <trkpt lat="43.97673" lon="2.98341">
        <ele>762.8</ele>
        <time>2026-04-30T07:38:15.999Z</time>
      </trkpt>
      <trkpt lat="43.97673" lon="2.98341">
        <ele>762.8</ele>
        <time>2026-04-30T07:38:16.999Z</time>
      </trkpt>
      <trkpt lat="43.97673" lon="2.98341">
        <ele>762.9</ele>
        <time>2026-04-30T07:38:18.999Z</time>
      </trkpt>
      <trkpt lat="43.97673" lon="2.9834">
        <ele>763</ele>
        <time>2026-04-30T07:38:19.999Z</time>
      </trkpt>
      <trkpt lat="43.97673" lon="2.9834">
        <ele>763.2</ele>
        <time>2026-04-30T07:38:20.999Z</time>
      </trkpt>
      <trkpt lat="43.97673" lon="2.9834">
        <ele>763.5</ele>
        <time>2026-04-30T07:38:21.999Z</time>
      </trkpt>
      <trkpt lat="43.97674" lon="2.98338">
        <ele>763.8</ele>
        <time>2026-04-30T07:38:22.999Z</time>
      </trkpt>
      <trkpt lat="43.97674" lon="2.98338">
        <ele>764.1</ele>
        <time>2026-04-30T07:38:23.999Z</time>
      </trkpt>
      <trkpt lat="43.97675" lon="2.98337">
        <ele>764.3</ele>
        <time>2026-04-30T07:38:24.999Z</time>
      </trkpt>
      <trkpt lat="43.97675" lon="2.98337">
        <ele>764.7</ele>
        <time>2026-04-30T07:38:25.999Z</time>
      </trkpt>
      <trkpt lat="43.97675" lon="2.98337">
        <ele>765</ele>
        <time>2026-04-30T07:38:26.999Z</time>
      </trkpt>
      <trkpt lat="43.97675" lon="2.98337">
        <ele>765.4</ele>
        <time>2026-04-30T07:38:27.999Z</time>
      </trkpt>
      <trkpt lat="43.97675" lon="2.98338">
        <ele>765.9</ele>
        <time>2026-04-30T07:38:28.999Z</time>
      </trkpt>
      <trkpt lat="43.97674" lon="2.98338">
        <ele>766.1</ele>
        <time>2026-04-30T07:38:29.999Z</time>
      </trkpt>
      <trkpt lat="43.97674" lon="2.98338">
        <ele>766.1</ele>
        <time>2026-04-30T07:38:30.999Z</time>
      </trkpt>
      <trkpt lat="43.97674" lon="2.98338">
        <ele>765.9</ele>
        <time>2026-04-30T07:38:31.999Z</time>
      </trkpt>
      <trkpt lat="43.97674" lon="2.98337">
        <ele>765.9</ele>
        <time>2026-04-30T07:38:32.999Z</time>
      </trkpt>
      <trkpt lat="43.97674" lon="2.98337">
        <ele>765.7</ele>
        <time>2026-04-30T07:38:33.999Z</time>
      </trkpt>
      <trkpt lat="43.97674" lon="2.98336">
        <ele>765.5</ele>
        <time>2026-04-30T07:38:34.999Z</time>
      </trkpt>
      <trkpt lat="43.97673" lon="2.98335">
        <ele>765.3</ele>
        <time>2026-04-30T07:38:36.999Z</time>
      </trkpt>
      <trkpt lat="43.97673" lon="2.98335">
        <ele>764.7</ele>
        <time>2026-04-30T07:38:37.999Z</time>
      </trkpt>
      <trkpt lat="43.97672" lon="2.98334">
        <ele>764.6</ele>
        <time>2026-04-30T07:38:38.999Z</time>
      </trkpt>
      <trkpt lat="43.97671" lon="2.98334">
        <ele>764.5</ele>
        <time>2026-04-30T07:38:39.999Z</time>
      </trkpt>
      <trkpt lat="43.97672" lon="2.98334">
        <ele>764.7</ele>
        <time>2026-04-30T07:38:40.999Z</time>
      </trkpt>
      <trkpt lat="43.97672" lon="2.98335">
        <ele>765</ele>
        <time>2026-04-30T07:38:41.999Z</time>
      </trkpt>
      <trkpt lat="43.97672" lon="2.98335">
        <ele>767.4</ele>
        <time>2026-04-30T07:38:42.999Z</time>
      </trkpt>
      <trkpt lat="43.97672" lon="2.98334">
        <ele>767.2</ele>
        <time>2026-04-30T07:38:43.999Z</time>
      </trkpt>
      <trkpt lat="43.97672" lon="2.98335">
        <ele>767.2</ele>
        <time>2026-04-30T07:38:44.999Z</time>
      </trkpt>
      <trkpt lat="43.97672" lon="2.98334">
        <ele>767.1</ele>
        <time>2026-04-30T07:38:45.999Z</time>
      </trkpt>
      <trkpt lat="43.97672" lon="2.98335">
        <ele>766.8</ele>
        <time>2026-04-30T07:38:46.999Z</time>
      </trkpt>
      <trkpt lat="43.97672" lon="2.98335">
        <ele>766.6</ele>
        <time>2026-04-30T07:38:47.999Z</time>
      </trkpt>
      <trkpt lat="43.97672" lon="2.98335">
        <ele>766.6</ele>
        <time>2026-04-30T07:38:48.999Z</time>
      </trkpt>
      <trkpt lat="43.97672" lon="2.98335">
        <ele>766.6</ele>
        <time>2026-04-30T07:38:49.999Z</time>
      </trkpt>
      <trkpt lat="43.97672" lon="2.98335">
        <ele>766.4</ele>
        <time>2026-04-30T07:38:50.999Z</time>
      </trkpt>
      <trkpt lat="43.97672" lon="2.98335">
        <ele>766.4</ele>
        <time>2026-04-30T07:38:51.999Z</time>
      </trkpt>
      <trkpt lat="43.97671" lon="2.98335">
        <ele>766.4</ele>
        <time>2026-04-30T07:38:52.999Z</time>
      </trkpt>
      <trkpt lat="43.97671" lon="2.98335">
        <ele>766.5</ele>
        <time>2026-04-30T07:38:53.999Z</time>
      </trkpt>
      <trkpt lat="43.97671" lon="2.98335">
        <ele>766.5</ele>
        <time>2026-04-30T07:38:54.999Z</time>
      </trkpt>
      <trkpt lat="43.97671" lon="2.98335">
        <ele>766.5</ele>
        <time>2026-04-30T07:38:55.999Z</time>
      </trkpt>
      <trkpt lat="43.97671" lon="2.98335">
        <ele>766.7</ele>
        <time>2026-04-30T07:38:56.999Z</time>
      </trkpt>
      <trkpt lat="43.97671" lon="2.98335">
        <ele>766.6</ele>
        <time>2026-04-30T07:38:57.999Z</time>
      </trkpt>
      <trkpt lat="43.97671" lon="2.98335">
        <ele>765.7</ele>
        <time>2026-04-30T07:38:59.999Z</time>
      </trkpt>
      <trkpt lat="43.97671" lon="2.98335">
        <ele>765.6</ele>
        <time>2026-04-30T07:39:00.999Z</time>
      </trkpt>
      <trkpt lat="43.97671" lon="2.98335">
        <ele>765.9</ele>
        <time>2026-04-30T07:39:01.999Z</time>
      </trkpt>
      <trkpt lat="43.97671" lon="2.98335">
        <ele>766</ele>
        <time>2026-04-30T07:39:02.999Z</time>
      </trkpt>
      <trkpt lat="43.97671" lon="2.98335">
        <ele>766.3</ele>
        <time>2026-04-30T07:39:03.999Z</time>
      </trkpt>
      <trkpt lat="43.97671" lon="2.98335">
        <ele>766.2</ele>
        <time>2026-04-30T07:39:04.999Z</time>
      </trkpt>
      <trkpt lat="43.97671" lon="2.98334">
        <ele>766</ele>
        <time>2026-04-30T07:39:05.999Z</time>
      </trkpt>
      <trkpt lat="43.97671" lon="2.98334">
        <ele>765.6</ele>
        <time>2026-04-30T07:39:06.999Z</time>
      </trkpt>
      <trkpt lat="43.97671" lon="2.98334">
        <ele>765.6</ele>
        <time>2026-04-30T07:39:07.999Z</time>
      </trkpt>
      <trkpt lat="43.97671" lon="2.98334">
        <ele>765.6</ele>
        <time>2026-04-30T07:39:08.999Z</time>
      </trkpt>
      <trkpt lat="43.97671" lon="2.98334">
        <ele>765.6</ele>
        <time>2026-04-30T07:39:09.999Z</time>
      </trkpt>
      <trkpt lat="43.97671" lon="2.98334">
        <ele>765.8</ele>
        <time>2026-04-30T07:39:10.999Z</time>
      </trkpt>
      <trkpt lat="43.9767" lon="2.98334">
        <ele>765.9</ele>
        <time>2026-04-30T07:39:11.999Z</time>
      </trkpt>
      <trkpt lat="43.9767" lon="2.98334">
        <ele>765.9</ele>
        <time>2026-04-30T07:39:12.999Z</time>
      </trkpt>
      <trkpt lat="43.9767" lon="2.98334">
        <ele>766.1</ele>
        <time>2026-04-30T07:39:13.999Z</time>
      </trkpt>
      <trkpt lat="43.9767" lon="2.98334">
        <ele>766.3</ele>
        <time>2026-04-30T07:39:14.999Z</time>
      </trkpt>
      <trkpt lat="43.9767" lon="2.98334">
        <ele>766.5</ele>
        <time>2026-04-30T07:39:15.999Z</time>
      </trkpt>
      <trkpt lat="43.97671" lon="2.98334">
        <ele>766.5</ele>
        <time>2026-04-30T07:39:16.999Z</time>
      </trkpt>
      <trkpt lat="43.97671" lon="2.98334">
        <ele>767</ele>
        <time>2026-04-30T07:39:17.999Z</time>
      </trkpt>
      <trkpt lat="43.97671" lon="2.98334">
        <ele>767.6</ele>
        <time>2026-04-30T07:39:18.999Z</time>
      </trkpt>
      <trkpt lat="43.97672" lon="2.98334">
        <ele>767.9</ele>
        <time>2026-04-30T07:39:19.999Z</time>
      </trkpt>
      <trkpt lat="43.97672" lon="2.98335">
        <ele>768</ele>
        <time>2026-04-30T07:39:20.999Z</time>
      </trkpt>
      <trkpt lat="43.97672" lon="2.98336">
        <ele>767.7</ele>
        <time>2026-04-30T07:39:21.999Z</time>
      </trkpt>
      <trkpt lat="43.97672" lon="2.98337">
        <ele>767.4</ele>
        <time>2026-04-30T07:39:22.999Z</time>
      </trkpt>
      <trkpt lat="43.97672" lon="2.98337">
        <ele>767</ele>
        <time>2026-04-30T07:39:24.999Z</time>
      </trkpt>
      <trkpt lat="43.97672" lon="2.98337">
        <ele>767.5</ele>
        <time>2026-04-30T07:39:25.999Z</time>
      </trkpt>
      <trkpt lat="43.97672" lon="2.98337">
        <ele>767.8</ele>
        <time>2026-04-30T07:39:26.999Z</time>
      </trkpt>
      <trkpt lat="43.97672" lon="2.98338">
        <ele>767.8</ele>
        <time>2026-04-30T07:39:27.999Z</time>
      </trkpt>
      <trkpt lat="43.97671" lon="2.98338">
        <ele>767.8</ele>
        <time>2026-04-30T07:39:28.999Z</time>
      </trkpt>
      <trkpt lat="43.97671" lon="2.98338">
        <ele>767.5</ele>
        <time>2026-04-30T07:39:29.999Z</time>
      </trkpt>
      <trkpt lat="43.97671" lon="2.98338">
        <ele>767</ele>
        <time>2026-04-30T07:39:30.999Z</time>
      </trkpt>
      <trkpt lat="43.97671" lon="2.98338">
        <ele>766.9</ele>
        <time>2026-04-30T07:39:31.999Z</time>
      </trkpt>
      <trkpt lat="43.97671" lon="2.98338">
        <ele>767</ele>
        <time>2026-04-30T07:39:32.999Z</time>
      </trkpt>
      <trkpt lat="43.97671" lon="2.98339">
        <ele>767</ele>
        <time>2026-04-30T07:39:33.999Z</time>
      </trkpt>
      <trkpt lat="43.97672" lon="2.98339">
        <ele>767.1</ele>
        <time>2026-04-30T07:39:34.999Z</time>
      </trkpt>
      <trkpt lat="43.97672" lon="2.98339">
        <ele>767</ele>
        <time>2026-04-30T07:39:35.999Z</time>
      </trkpt>
      <trkpt lat="43.97673" lon="2.98339">
        <ele>767.2</ele>
        <time>2026-04-30T07:39:36.999Z</time>
      </trkpt>
      <trkpt lat="43.97673" lon="2.98339">
        <ele>767</ele>
        <time>2026-04-30T07:39:37.999Z</time>
      </trkpt>
      <trkpt lat="43.97674" lon="2.98338">
        <ele>766.8</ele>
        <time>2026-04-30T07:39:38.999Z</time>
      </trkpt>
      <trkpt lat="43.97674" lon="2.98339">
        <ele>767.1</ele>
        <time>2026-04-30T07:39:39.999Z</time>
      </trkpt>
      <trkpt lat="43.97674" lon="2.98339">
        <ele>767.2</ele>
        <time>2026-04-30T07:39:40.999Z</time>
      </trkpt>
      <trkpt lat="43.97674" lon="2.98339">
        <ele>767.2</ele>
        <time>2026-04-30T07:39:41.999Z</time>
      </trkpt>
      <trkpt lat="43.97674" lon="2.98338">
        <ele>767.3</ele>
        <time>2026-04-30T07:39:42.999Z</time>
      </trkpt>
      <trkpt lat="43.97674" lon="2.98338">
        <ele>767.6</ele>
        <time>2026-04-30T07:39:43.999Z</time>
      </trkpt>
      <trkpt lat="43.97674" lon="2.98337">
        <ele>767.4</ele>
        <time>2026-04-30T07:39:45.999Z</time>
      </trkpt>
      <trkpt lat="43.97674" lon="2.98338">
        <ele>768.6</ele>
        <time>2026-04-30T07:39:46.999Z</time>
      </trkpt>
      <trkpt lat="43.97674" lon="2.98337">
        <ele>768.7</ele>
        <time>2026-04-30T07:39:47.999Z</time>
      </trkpt>
      <trkpt lat="43.97674" lon="2.98336">
        <ele>768.4</ele>
        <time>2026-04-30T07:39:48.999Z</time>
      </trkpt>
      <trkpt lat="43.97674" lon="2.98335">
        <ele>768.2</ele>
        <time>2026-04-30T07:39:49.999Z</time>
      </trkpt>
      <trkpt lat="43.97674" lon="2.98334">
        <ele>767.9</ele>
        <time>2026-04-30T07:39:50.999Z</time>
      </trkpt>
      <trkpt lat="43.97673" lon="2.98333">
        <ele>767.8</ele>
        <time>2026-04-30T07:39:51.999Z</time>
      </trkpt>
      <trkpt lat="43.97673" lon="2.98333">
        <ele>767.7</ele>
        <time>2026-04-30T07:39:52.999Z</time>
      </trkpt>
      <trkpt lat="43.97673" lon="2.98333">
        <ele>767.7</ele>
        <time>2026-04-30T07:39:53.999Z</time>
      </trkpt>
      <trkpt lat="43.97672" lon="2.98333">
        <ele>767.5</ele>
        <time>2026-04-30T07:39:54.999Z</time>
      </trkpt>
      <trkpt lat="43.97671" lon="2.98332">
        <ele>767.2</ele>
        <time>2026-04-30T07:39:55.999Z</time>
      </trkpt>
      <trkpt lat="43.97671" lon="2.9833">
        <ele>766.9</ele>
        <time>2026-04-30T07:39:56.999Z</time>
      </trkpt>
      <trkpt lat="43.97671" lon="2.98329">
        <ele>767</ele>
        <time>2026-04-30T07:39:57.999Z</time>
      </trkpt>
      <trkpt lat="43.97672" lon="2.9833">
        <ele>767.5</ele>
        <time>2026-04-30T07:39:58.999Z</time>
      </trkpt>
      <trkpt lat="43.97673" lon="2.9833">
        <ele>767.7</ele>
        <time>2026-04-30T07:39:59.999Z</time>
      </trkpt>
      <trkpt lat="43.97673" lon="2.9833">
        <ele>768.1</ele>
        <time>2026-04-30T07:40:00.999Z</time>
      </trkpt>
      <trkpt lat="43.97674" lon="2.9833">
        <ele>768.3</ele>
        <time>2026-04-30T07:40:01.999Z</time>
      </trkpt>
      <trkpt lat="43.97675" lon="2.9833">
        <ele>768.8</ele>
        <time>2026-04-30T07:40:02.999Z</time>
      </trkpt>
      <trkpt lat="43.97676" lon="2.9833">
        <ele>768.5</ele>
        <time>2026-04-30T07:40:03.999Z</time>
      </trkpt>
      <trkpt lat="43.97676" lon="2.9833">
        <ele>768.8</ele>
        <time>2026-04-30T07:40:05.999Z</time>
      </trkpt>
      <trkpt lat="43.97677" lon="2.98329">
        <ele>768.7</ele>
        <time>2026-04-30T07:40:06.999Z</time>
      </trkpt>
      <trkpt lat="43.97678" lon="2.98328">
        <ele>768.7</ele>
        <time>2026-04-30T07:40:07.999Z</time>
      </trkpt>
      <trkpt lat="43.97679" lon="2.98327">
        <ele>768.7</ele>
        <time>2026-04-30T07:40:08.999Z</time>
      </trkpt>
      <trkpt lat="43.97679" lon="2.98325">
        <ele>768.3</ele>
        <time>2026-04-30T07:40:09.999Z</time>
      </trkpt>
      <trkpt lat="43.97679" lon="2.98325">
        <ele>768</ele>
        <time>2026-04-30T07:40:10.999Z</time>
      </trkpt>
      <trkpt lat="43.97678" lon="2.98324">
        <ele>767.8</ele>
        <time>2026-04-30T07:40:11.999Z</time>
      </trkpt>
      <trkpt lat="43.97679" lon="2.98324">
        <ele>767.8</ele>
        <time>2026-04-30T07:40:12.999Z</time>
      </trkpt>
      <trkpt lat="43.97679" lon="2.98324">
        <ele>767.7</ele>
        <time>2026-04-30T07:40:13.999Z</time>
      </trkpt>
      <trkpt lat="43.97679" lon="2.98324">
        <ele>767</ele>
        <time>2026-04-30T07:40:14.999Z</time>
      </trkpt>
      <trkpt lat="43.97679" lon="2.98324">
        <ele>766.8</ele>
        <time>2026-04-30T07:40:15.999Z</time>
      </trkpt>
      <trkpt lat="43.97679" lon="2.98324">
        <ele>766</ele>
        <time>2026-04-30T07:40:16.999Z</time>
      </trkpt>
      <trkpt lat="43.97679" lon="2.98324">
        <ele>766</ele>
        <time>2026-04-30T07:40:17.999Z</time>
      </trkpt>
      <trkpt lat="43.97679" lon="2.98324">
        <ele>766</ele>
        <time>2026-04-30T07:40:18.999Z</time>
      </trkpt>
      <trkpt lat="43.97679" lon="2.98324">
        <ele>766.1</ele>
        <time>2026-04-30T07:40:19.999Z</time>
      </trkpt>
      <trkpt lat="43.97679" lon="2.98324">
        <ele>765.8</ele>
        <time>2026-04-30T07:40:20.999Z</time>
      </trkpt>
      <trkpt lat="43.97679" lon="2.98324">
        <ele>765.8</ele>
        <time>2026-04-30T07:40:21.999Z</time>
      </trkpt>
      <trkpt lat="43.97679" lon="2.98324">
        <ele>765.8</ele>
        <time>2026-04-30T07:40:22.999Z</time>
      </trkpt>
      <trkpt lat="43.97679" lon="2.98324">
        <ele>765.7</ele>
        <time>2026-04-30T07:40:23.999Z</time>
      </trkpt>
      <trkpt lat="43.97679" lon="2.98324">
        <ele>765.6</ele>
        <time>2026-04-30T07:40:24.999Z</time>
      </trkpt>
      <trkpt lat="43.97679" lon="2.98324">
        <ele>765.4</ele>
        <time>2026-04-30T07:40:25.999Z</time>
      </trkpt>
      <trkpt lat="43.97679" lon="2.98323">
        <ele>765.3</ele>
        <time>2026-04-30T07:40:26.999Z</time>
      </trkpt>
      <trkpt lat="43.97679" lon="2.98322">
        <ele>765.2</ele>
        <time>2026-04-30T07:40:27.999Z</time>
      </trkpt>
      <trkpt lat="43.97679" lon="2.98322">
        <ele>765.1</ele>
        <time>2026-04-30T07:40:28.999Z</time>
      </trkpt>
      <trkpt lat="43.97679" lon="2.98321">
        <ele>764.9</ele>
        <time>2026-04-30T07:40:29.999Z</time>
      </trkpt>
      <trkpt lat="43.9768" lon="2.9832">
        <ele>764.8</ele>
        <time>2026-04-30T07:40:30.999Z</time>
      </trkpt>
      <trkpt lat="43.9768" lon="2.98318">
        <ele>764.5</ele>
        <time>2026-04-30T07:40:31.999Z</time>
      </trkpt>
      <trkpt lat="43.9768" lon="2.98317">
        <ele>764.3</ele>
        <time>2026-04-30T07:40:32.999Z</time>
      </trkpt>
      <trkpt lat="43.9768" lon="2.98317">
        <ele>764</ele>
        <time>2026-04-30T07:40:33.999Z</time>
      </trkpt>
      <trkpt lat="43.9768" lon="2.98316">
        <ele>763.7</ele>
        <time>2026-04-30T07:40:34.999Z</time>
      </trkpt>
      <trkpt lat="43.9768" lon="2.98316">
        <ele>764.3</ele>
        <time>2026-04-30T07:40:35.999Z</time>
      </trkpt>
      <trkpt lat="43.97681" lon="2.98316">
        <ele>764.3</ele>
        <time>2026-04-30T07:40:36.999Z</time>
      </trkpt>
      <trkpt lat="43.97681" lon="2.98315">
        <ele>764.2</ele>
        <time>2026-04-30T07:40:37.999Z</time>
      </trkpt>
      <trkpt lat="43.97681" lon="2.98314">
        <ele>763.9</ele>
        <time>2026-04-30T07:40:38.999Z</time>
      </trkpt>
      <trkpt lat="43.97681" lon="2.98313">
        <ele>763.7</ele>
        <time>2026-04-30T07:40:39.999Z</time>
      </trkpt>
      <trkpt lat="43.97681" lon="2.98312">
        <ele>763.6</ele>
        <time>2026-04-30T07:40:40.999Z</time>
      </trkpt>
      <trkpt lat="43.97681" lon="2.98311">
        <ele>763.4</ele>
        <time>2026-04-30T07:40:41.999Z</time>
      </trkpt>
      <trkpt lat="43.97681" lon="2.98311">
        <ele>763.2</ele>
        <time>2026-04-30T07:40:42.999Z</time>
      </trkpt>
      <trkpt lat="43.97681" lon="2.9831">
        <ele>763</ele>
        <time>2026-04-30T07:40:43.999Z</time>
      </trkpt>
      <trkpt lat="43.97681" lon="2.98308">
        <ele>763</ele>
        <time>2026-04-30T07:40:44.999Z</time>
      </trkpt>
      <trkpt lat="43.97681" lon="2.98307">
        <ele>762.7</ele>
        <time>2026-04-30T07:40:45.999Z</time>
      </trkpt>
      <trkpt lat="43.97681" lon="2.98306">
        <ele>762.7</ele>
        <time>2026-04-30T07:40:46.999Z</time>
      </trkpt>
      <trkpt lat="43.97682" lon="2.98304">
        <ele>762.6</ele>
        <time>2026-04-30T07:40:47.999Z</time>
      </trkpt>
      <trkpt lat="43.97682" lon="2.98302">
        <ele>762.3</ele>
        <time>2026-04-30T07:40:48.999Z</time>
      </trkpt>
      <trkpt lat="43.97682" lon="2.983">
        <ele>762.2</ele>
        <time>2026-04-30T07:40:49.999Z</time>
      </trkpt>
      <trkpt lat="43.97682" lon="2.98299">
        <ele>761.6</ele>
        <time>2026-04-30T07:40:50.999Z</time>
      </trkpt>
      <trkpt lat="43.97682" lon="2.98298">
        <ele>761.7</ele>
        <time>2026-04-30T07:40:51.999Z</time>
      </trkpt>
      <trkpt lat="43.97682" lon="2.98298">
        <ele>762.1</ele>
        <time>2026-04-30T07:40:52.999Z</time>
      </trkpt>
      <trkpt lat="43.97682" lon="2.98297">
        <ele>762.1</ele>
        <time>2026-04-30T07:40:53.999Z</time>
      </trkpt>
      <trkpt lat="43.97682" lon="2.98296">
        <ele>761.8</ele>
        <time>2026-04-30T07:40:54.999Z</time>
      </trkpt>
      <trkpt lat="43.97683" lon="2.98294">
        <ele>761.6</ele>
        <time>2026-04-30T07:40:55.999Z</time>
      </trkpt>
      <trkpt lat="43.97683" lon="2.98293">
        <ele>761</ele>
        <time>2026-04-30T07:40:56.999Z</time>
      </trkpt>
      <trkpt lat="43.97683" lon="2.98291">
        <ele>760.6</ele>
        <time>2026-04-30T07:40:57.999Z</time>
      </trkpt>
      <trkpt lat="43.97683" lon="2.98291">
        <ele>760.9</ele>
        <time>2026-04-30T07:40:58.999Z</time>
      </trkpt>
      <trkpt lat="43.97683" lon="2.98291">
        <ele>760.6</ele>
        <time>2026-04-30T07:40:59.999Z</time>
      </trkpt>
      <trkpt lat="43.97683" lon="2.98291">
        <ele>760.2</ele>
        <time>2026-04-30T07:41:00.999Z</time>
      </trkpt>
      <trkpt lat="43.97683" lon="2.9829">
        <ele>759.8</ele>
        <time>2026-04-30T07:41:01.999Z</time>
      </trkpt>
      <trkpt lat="43.97683" lon="2.9829">
        <ele>759.5</ele>
        <time>2026-04-30T07:41:02.999Z</time>
      </trkpt>
      <trkpt lat="43.97684" lon="2.98288">
        <ele>759.5</ele>
        <time>2026-04-30T07:41:03.999Z</time>
      </trkpt>
      <trkpt lat="43.97684" lon="2.98288">
        <ele>760</ele>
        <time>2026-04-30T07:41:04.999Z</time>
      </trkpt>
      <trkpt lat="43.97684" lon="2.98287">
        <ele>760.2</ele>
        <time>2026-04-30T07:41:05.999Z</time>
      </trkpt>
      <trkpt lat="43.97684" lon="2.98286">
        <ele>760</ele>
        <time>2026-04-30T07:41:06.999Z</time>
      </trkpt>
      <trkpt lat="43.97683" lon="2.98286">
        <ele>759.9</ele>
        <time>2026-04-30T07:41:07.999Z</time>
      </trkpt>
      <trkpt lat="43.97683" lon="2.98286">
        <ele>759.8</ele>
        <time>2026-04-30T07:41:08.999Z</time>
      </trkpt>
      <trkpt lat="43.97683" lon="2.98286">
        <ele>759.6</ele>
        <time>2026-04-30T07:41:09.999Z</time>
      </trkpt>
      <trkpt lat="43.97683" lon="2.98286">
        <ele>759.6</ele>
        <time>2026-04-30T07:41:10.999Z</time>
      </trkpt>
      <trkpt lat="43.97683" lon="2.98286">
        <ele>759.8</ele>
        <time>2026-04-30T07:41:11.999Z</time>
      </trkpt>
      <trkpt lat="43.97683" lon="2.98286">
        <ele>759.6</ele>
        <time>2026-04-30T07:41:12.999Z</time>
      </trkpt>
      <trkpt lat="43.97683" lon="2.98286">
        <ele>759.5</ele>
        <time>2026-04-30T07:41:13.999Z</time>
      </trkpt>
      <trkpt lat="43.97683" lon="2.98286">
        <ele>759.5</ele>
        <time>2026-04-30T07:41:14.999Z</time>
      </trkpt>
      <trkpt lat="43.97683" lon="2.98285">
        <ele>759.4</ele>
        <time>2026-04-30T07:41:15.999Z</time>
      </trkpt>
      <trkpt lat="43.97683" lon="2.98285">
        <ele>759.3</ele>
        <time>2026-04-30T07:41:16.999Z</time>
      </trkpt>
      <trkpt lat="43.97683" lon="2.98285">
        <ele>759.3</ele>
        <time>2026-04-30T07:41:17.999Z</time>
      </trkpt>
      <trkpt lat="43.97683" lon="2.98285">
        <ele>759.3</ele>
        <time>2026-04-30T07:41:18.999Z</time>
      </trkpt>
      <trkpt lat="43.97683" lon="2.98285">
        <ele>759.2</ele>
        <time>2026-04-30T07:41:19.999Z</time>
      </trkpt>
      <trkpt lat="43.97683" lon="2.98285">
        <ele>759.3</ele>
        <time>2026-04-30T07:41:20.999Z</time>
      </trkpt>
      <trkpt lat="43.97683" lon="2.98285">
        <ele>759.5</ele>
        <time>2026-04-30T07:41:21.999Z</time>
      </trkpt>
      <trkpt lat="43.97684" lon="2.98284">
        <ele>759.2</ele>
        <time>2026-04-30T07:41:22.999Z</time>
      </trkpt>
      <trkpt lat="43.97684" lon="2.98282">
        <ele>759.1</ele>
        <time>2026-04-30T07:41:23.999Z</time>
      </trkpt>
      <trkpt lat="43.97684" lon="2.9828">
        <ele>759.2</ele>
        <time>2026-04-30T07:41:24.999Z</time>
      </trkpt>
      <trkpt lat="43.97684" lon="2.98278">
        <ele>759.2</ele>
        <time>2026-04-30T07:41:25.999Z</time>
      </trkpt>
      <trkpt lat="43.97684" lon="2.98277">
        <ele>759</ele>
        <time>2026-04-30T07:41:26.999Z</time>
      </trkpt>
      <trkpt lat="43.97684" lon="2.98276">
        <ele>759.1</ele>
        <time>2026-04-30T07:41:27.999Z</time>
      </trkpt>
      <trkpt lat="43.97684" lon="2.98274">
        <ele>759.1</ele>
        <time>2026-04-30T07:41:28.999Z</time>
      </trkpt>
      <trkpt lat="43.97684" lon="2.98272">
        <ele>759</ele>
        <time>2026-04-30T07:41:29.999Z</time>
      </trkpt>
      <trkpt lat="43.97683" lon="2.9827">
        <ele>758.8</ele>
        <time>2026-04-30T07:41:30.999Z</time>
      </trkpt>
      <trkpt lat="43.97683" lon="2.98269">
        <ele>758.6</ele>
        <time>2026-04-30T07:41:31.999Z</time>
      </trkpt>
      <trkpt lat="43.97684" lon="2.98268">
        <ele>758.1</ele>
        <time>2026-04-30T07:41:32.999Z</time>
      </trkpt>
      <trkpt lat="43.97684" lon="2.98267">
        <ele>758</ele>
        <time>2026-04-30T07:41:33.999Z</time>
      </trkpt>
      <trkpt lat="43.97684" lon="2.98266">
        <ele>757.7</ele>
        <time>2026-04-30T07:41:34.999Z</time>
      </trkpt>
      <trkpt lat="43.97685" lon="2.98266">
        <ele>757.1</ele>
        <time>2026-04-30T07:41:35.999Z</time>
      </trkpt>
      <trkpt lat="43.97685" lon="2.98266">
        <ele>756.8</ele>
        <time>2026-04-30T07:41:36.999Z</time>
      </trkpt>
      <trkpt lat="43.97685" lon="2.98265">
        <ele>756.7</ele>
        <time>2026-04-30T07:41:37.999Z</time>
      </trkpt>
      <trkpt lat="43.97685" lon="2.98265">
        <ele>756.8</ele>
        <time>2026-04-30T07:41:38.999Z</time>
      </trkpt>
      <trkpt lat="43.97686" lon="2.98265">
        <ele>757</ele>
        <time>2026-04-30T07:41:39.999Z</time>
      </trkpt>
      <trkpt lat="43.97686" lon="2.98263">
        <ele>756.9</ele>
        <time>2026-04-30T07:41:40.999Z</time>
      </trkpt>
      <trkpt lat="43.97686" lon="2.98262">
        <ele>757</ele>
        <time>2026-04-30T07:41:41.999Z</time>
      </trkpt>
      <trkpt lat="43.97686" lon="2.98261">
        <ele>757</ele>
        <time>2026-04-30T07:41:42.999Z</time>
      </trkpt>
      <trkpt lat="43.97686" lon="2.98259">
        <ele>757</ele>
        <time>2026-04-30T07:41:43.999Z</time>
      </trkpt>
      <trkpt lat="43.97685" lon="2.98258">
        <ele>756.8</ele>
        <time>2026-04-30T07:41:44.999Z</time>
      </trkpt>
      <trkpt lat="43.97685" lon="2.98256">
        <ele>756.8</ele>
        <time>2026-04-30T07:41:45.999Z</time>
      </trkpt>
      <trkpt lat="43.97685" lon="2.98254">
        <ele>756.6</ele>
        <time>2026-04-30T07:41:46.999Z</time>
      </trkpt>
      <trkpt lat="43.97686" lon="2.98253">
        <ele>756.6</ele>
        <time>2026-04-30T07:41:47.999Z</time>
      </trkpt>
      <trkpt lat="43.97686" lon="2.98253">
        <ele>756.6</ele>
        <time>2026-04-30T07:41:48.999Z</time>
      </trkpt>
      <trkpt lat="43.97686" lon="2.98251">
        <ele>756.2</ele>
        <time>2026-04-30T07:41:49.999Z</time>
      </trkpt>
      <trkpt lat="43.97686" lon="2.9825">
        <ele>756.1</ele>
        <time>2026-04-30T07:41:50.999Z</time>
      </trkpt>
      <trkpt lat="43.97687" lon="2.98249">
        <ele>756.8</ele>
        <time>2026-04-30T07:41:51.999Z</time>
      </trkpt>
      <trkpt lat="43.97688" lon="2.98248">
        <ele>757.6</ele>
        <time>2026-04-30T07:41:52.999Z</time>
      </trkpt>
      <trkpt lat="43.97688" lon="2.98247">
        <ele>757.8</ele>
        <time>2026-04-30T07:41:53.999Z</time>
      </trkpt>
      <trkpt lat="43.97688" lon="2.98246">
        <ele>757.9</ele>
        <time>2026-04-30T07:41:54.999Z</time>
      </trkpt>
      <trkpt lat="43.97688" lon="2.98245">
        <ele>757.8</ele>
        <time>2026-04-30T07:41:55.999Z</time>
      </trkpt>
      <trkpt lat="43.97688" lon="2.98244">
        <ele>757.6</ele>
        <time>2026-04-30T07:41:56.999Z</time>
      </trkpt>
      <trkpt lat="43.97688" lon="2.98243">
        <ele>757.5</ele>
        <time>2026-04-30T07:41:57.999Z</time>
      </trkpt>
      <trkpt lat="43.97688" lon="2.98242">
        <ele>757.3</ele>
        <time>2026-04-30T07:41:58.999Z</time>
      </trkpt>
      <trkpt lat="43.97688" lon="2.98242">
        <ele>757.5</ele>
        <time>2026-04-30T07:41:59.999Z</time>
      </trkpt>
      <trkpt lat="43.97688" lon="2.98241">
        <ele>757.4</ele>
        <time>2026-04-30T07:42:00.999Z</time>
      </trkpt>
      <trkpt lat="43.97688" lon="2.9824">
        <ele>757.5</ele>
        <time>2026-04-30T07:42:01.999Z</time>
      </trkpt>
      <trkpt lat="43.97688" lon="2.98239">
        <ele>757.3</ele>
        <time>2026-04-30T07:42:02.999Z</time>
      </trkpt>
      <trkpt lat="43.97688" lon="2.98239">
        <ele>757.4</ele>
        <time>2026-04-30T07:42:03.999Z</time>
      </trkpt>
      <trkpt lat="43.97688" lon="2.98237">
        <ele>757.3</ele>
        <time>2026-04-30T07:42:04.999Z</time>
      </trkpt>
      <trkpt lat="43.97688" lon="2.98236">
        <ele>757.2</ele>
        <time>2026-04-30T07:42:05.999Z</time>
      </trkpt>
      <trkpt lat="43.97688" lon="2.98235">
        <ele>757.2</ele>
        <time>2026-04-30T07:42:06.999Z</time>
      </trkpt>
      <trkpt lat="43.97688" lon="2.98234">
        <ele>757.2</ele>
        <time>2026-04-30T07:42:07.999Z</time>
      </trkpt>
      <trkpt lat="43.97688" lon="2.98233">
        <ele>756.9</ele>
        <time>2026-04-30T07:42:08.999Z</time>
      </trkpt>
      <trkpt lat="43.97688" lon="2.98231">
        <ele>756.6</ele>
        <time>2026-04-30T07:42:09.999Z</time>
      </trkpt>
      <trkpt lat="43.97688" lon="2.98231">
        <ele>756.8</ele>
        <time>2026-04-30T07:42:10.999Z</time>
      </trkpt>
      <trkpt lat="43.97688" lon="2.98231">
        <ele>756.7</ele>
        <time>2026-04-30T07:42:11.999Z</time>
      </trkpt>
      <trkpt lat="43.97688" lon="2.9823">
        <ele>756.4</ele>
        <time>2026-04-30T07:42:12.999Z</time>
      </trkpt>
      <trkpt lat="43.97687" lon="2.98229">
        <ele>756.1</ele>
        <time>2026-04-30T07:42:13.999Z</time>
      </trkpt>
      <trkpt lat="43.97687" lon="2.98229">
        <ele>756.2</ele>
        <time>2026-04-30T07:42:14.999Z</time>
      </trkpt>
      <trkpt lat="43.97687" lon="2.98228">
        <ele>756.3</ele>
        <time>2026-04-30T07:42:15.999Z</time>
      </trkpt>
      <trkpt lat="43.97687" lon="2.98227">
        <ele>756.8</ele>
        <time>2026-04-30T07:42:16.999Z</time>
      </trkpt>
      <trkpt lat="43.97686" lon="2.98226">
        <ele>757.2</ele>
        <time>2026-04-30T07:42:17.999Z</time>
      </trkpt>
      <trkpt lat="43.97686" lon="2.98226">
        <ele>757.5</ele>
        <time>2026-04-30T07:42:18.999Z</time>
      </trkpt>
      <trkpt lat="43.97686" lon="2.98226">
        <ele>757.6</ele>
        <time>2026-04-30T07:42:19.999Z</time>
      </trkpt>
      <trkpt lat="43.97685" lon="2.98227">
        <ele>757.2</ele>
        <time>2026-04-30T07:42:20.999Z</time>
      </trkpt>
      <trkpt lat="43.97685" lon="2.98227">
        <ele>757</ele>
        <time>2026-04-30T07:42:21.999Z</time>
      </trkpt>
      <trkpt lat="43.97684" lon="2.98227">
        <ele>757.1</ele>
        <time>2026-04-30T07:42:22.999Z</time>
      </trkpt>
      <trkpt lat="43.97684" lon="2.98228">
        <ele>757.3</ele>
        <time>2026-04-30T07:42:23.999Z</time>
      </trkpt>
      <trkpt lat="43.97683" lon="2.98228">
        <ele>756.9</ele>
        <time>2026-04-30T07:42:24.999Z</time>
      </trkpt>
      <trkpt lat="43.97683" lon="2.98228">
        <ele>756.3</ele>
        <time>2026-04-30T07:42:25.999Z</time>
      </trkpt>
      <trkpt lat="43.97684" lon="2.98227">
        <ele>756.3</ele>
        <time>2026-04-30T07:42:26.999Z</time>
      </trkpt>
      <trkpt lat="43.97684" lon="2.98226">
        <ele>756</ele>
        <time>2026-04-30T07:42:27.999Z</time>
      </trkpt>
      <trkpt lat="43.97684" lon="2.98226">
        <ele>756.2</ele>
        <time>2026-04-30T07:42:28.999Z</time>
      </trkpt>
      <trkpt lat="43.97684" lon="2.98226">
        <ele>756.3</ele>
        <time>2026-04-30T07:42:29.999Z</time>
      </trkpt>
      <trkpt lat="43.97683" lon="2.98225">
        <ele>756.3</ele>
        <time>2026-04-30T07:42:30.999Z</time>
      </trkpt>
      <trkpt lat="43.97683" lon="2.98225">
        <ele>756</ele>
        <time>2026-04-30T07:42:31.999Z</time>
      </trkpt>
      <trkpt lat="43.97683" lon="2.98225">
        <ele>755.9</ele>
        <time>2026-04-30T07:42:32.999Z</time>
      </trkpt>
      <trkpt lat="43.97683" lon="2.98225">
        <ele>755.9</ele>
        <time>2026-04-30T07:42:33.999Z</time>
      </trkpt>
      <trkpt lat="43.97683" lon="2.98225">
        <ele>756.1</ele>
        <time>2026-04-30T07:42:34.999Z</time>
      </trkpt>
      <trkpt lat="43.97684" lon="2.98224">
        <ele>756.3</ele>
        <time>2026-04-30T07:42:35.999Z</time>
      </trkpt>
      <trkpt lat="43.97683" lon="2.98222">
        <ele>756.5</ele>
        <time>2026-04-30T07:42:36.999Z</time>
      </trkpt>
      <trkpt lat="43.97683" lon="2.9822">
        <ele>756.6</ele>
        <time>2026-04-30T07:42:37.999Z</time>
      </trkpt>
      <trkpt lat="43.97683" lon="2.98219">
        <ele>756.8</ele>
        <time>2026-04-30T07:42:38.999Z</time>
      </trkpt>
      <trkpt lat="43.97682" lon="2.98219">
        <ele>757.1</ele>
        <time>2026-04-30T07:42:39.999Z</time>
      </trkpt>
      <trkpt lat="43.97682" lon="2.98218">
        <ele>757.3</ele>
        <time>2026-04-30T07:42:40.999Z</time>
      </trkpt>
      <trkpt lat="43.97681" lon="2.98217">
        <ele>757.6</ele>
        <time>2026-04-30T07:42:41.999Z</time>
      </trkpt>
      <trkpt lat="43.97681" lon="2.98217">
        <ele>757.8</ele>
        <time>2026-04-30T07:42:42.999Z</time>
      </trkpt>
      <trkpt lat="43.97679" lon="2.98217">
        <ele>757.8</ele>
        <time>2026-04-30T07:42:43.999Z</time>
      </trkpt>
      <trkpt lat="43.97678" lon="2.98217">
        <ele>757.8</ele>
        <time>2026-04-30T07:42:44.999Z</time>
      </trkpt>
      <trkpt lat="43.97677" lon="2.98217">
        <ele>757.7</ele>
        <time>2026-04-30T07:42:45.999Z</time>
      </trkpt>
      <trkpt lat="43.97677" lon="2.98217">
        <ele>757.1</ele>
        <time>2026-04-30T07:42:46.999Z</time>
      </trkpt>
      <trkpt lat="43.97676" lon="2.98217">
        <ele>756.8</ele>
        <time>2026-04-30T07:42:47.999Z</time>
      </trkpt>
      <trkpt lat="43.97676" lon="2.98218">
        <ele>756.7</ele>
        <time>2026-04-30T07:42:48.999Z</time>
      </trkpt>
      <trkpt lat="43.97676" lon="2.98218">
        <ele>756.7</ele>
        <time>2026-04-30T07:42:49.999Z</time>
      </trkpt>
      <trkpt lat="43.97676" lon="2.98219">
        <ele>756.7</ele>
        <time>2026-04-30T07:42:50.999Z</time>
      </trkpt>
      <trkpt lat="43.97675" lon="2.98219">
        <ele>756.7</ele>
        <time>2026-04-30T07:42:51.999Z</time>
      </trkpt>
      <trkpt lat="43.97676" lon="2.9822">
        <ele>756.4</ele>
        <time>2026-04-30T07:42:52.999Z</time>
      </trkpt>
      <trkpt lat="43.97675" lon="2.9822">
        <ele>756.9</ele>
        <time>2026-04-30T07:42:53.999Z</time>
      </trkpt>
      <trkpt lat="43.97674" lon="2.98219">
        <ele>756.8</ele>
        <time>2026-04-30T07:42:54.999Z</time>
      </trkpt>
      <trkpt lat="43.97674" lon="2.9822">
        <ele>757.3</ele>
        <time>2026-04-30T07:42:55.999Z</time>
      </trkpt>
      <trkpt lat="43.97673" lon="2.9822">
        <ele>757.2</ele>
        <time>2026-04-30T07:42:56.999Z</time>
      </trkpt>
      <trkpt lat="43.97673" lon="2.9822">
        <ele>757</ele>
        <time>2026-04-30T07:42:57.999Z</time>
      </trkpt>
      <trkpt lat="43.97673" lon="2.98222">
        <ele>757</ele>
        <time>2026-04-30T07:42:58.999Z</time>
      </trkpt>
      <trkpt lat="43.97672" lon="2.98225">
        <ele>757.5</ele>
        <time>2026-04-30T07:42:59.999Z</time>
      </trkpt>
      <trkpt lat="43.97671" lon="2.98228">
        <ele>757.8</ele>
        <time>2026-04-30T07:43:00.999Z</time>
      </trkpt>
      <trkpt lat="43.9767" lon="2.9823">
        <ele>758.1</ele>
        <time>2026-04-30T07:43:01.999Z</time>
      </trkpt>
      <trkpt lat="43.9767" lon="2.98232">
        <ele>758.3</ele>
        <time>2026-04-30T07:43:02.999Z</time>
      </trkpt>
      <trkpt lat="43.9767" lon="2.98233">
        <ele>758.4</ele>
        <time>2026-04-30T07:43:03.999Z</time>
      </trkpt>
      <trkpt lat="43.9767" lon="2.98235">
        <ele>758.5</ele>
        <time>2026-04-30T07:43:04.999Z</time>
      </trkpt>
      <trkpt lat="43.97669" lon="2.98236">
        <ele>758.8</ele>
        <time>2026-04-30T07:43:05.999Z</time>
      </trkpt>
      <trkpt lat="43.97669" lon="2.98237">
        <ele>759.2</ele>
        <time>2026-04-30T07:43:06.999Z</time>
      </trkpt>
      <trkpt lat="43.97669" lon="2.98239">
        <ele>759.6</ele>
        <time>2026-04-30T07:43:07.999Z</time>
      </trkpt>
      <trkpt lat="43.97669" lon="2.9824">
        <ele>759.9</ele>
        <time>2026-04-30T07:43:08.999Z</time>
      </trkpt>
      <trkpt lat="43.97669" lon="2.98241">
        <ele>760.5</ele>
        <time>2026-04-30T07:43:09.999Z</time>
      </trkpt>
      <trkpt lat="43.97668" lon="2.98242">
        <ele>760.8</ele>
        <time>2026-04-30T07:43:10.999Z</time>
      </trkpt>
      <trkpt lat="43.97668" lon="2.98243">
        <ele>761.1</ele>
        <time>2026-04-30T07:43:11.999Z</time>
      </trkpt>
      <trkpt lat="43.97668" lon="2.98244">
        <ele>761.1</ele>
        <time>2026-04-30T07:43:12.999Z</time>
      </trkpt>
      <trkpt lat="43.97668" lon="2.98245">
        <ele>761.2</ele>
        <time>2026-04-30T07:43:13.999Z</time>
      </trkpt>
      <trkpt lat="43.97667" lon="2.98246">
        <ele>760.6</ele>
        <time>2026-04-30T07:43:14.999Z</time>
      </trkpt>
      <trkpt lat="43.97667" lon="2.98247">
        <ele>760.5</ele>
        <time>2026-04-30T07:43:15.999Z</time>
      </trkpt>
      <trkpt lat="43.97667" lon="2.98248">
        <ele>760.3</ele>
        <time>2026-04-30T07:43:16.999Z</time>
      </trkpt>
      <trkpt lat="43.97668" lon="2.98249">
        <ele>760</ele>
        <time>2026-04-30T07:43:17.999Z</time>
      </trkpt>
      <trkpt lat="43.97668" lon="2.98251">
        <ele>760</ele>
        <time>2026-04-30T07:43:18.999Z</time>
      </trkpt>
      <trkpt lat="43.97667" lon="2.98252">
        <ele>759.9</ele>
        <time>2026-04-30T07:43:19.999Z</time>
      </trkpt>
      <trkpt lat="43.97667" lon="2.98253">
        <ele>759.7</ele>
        <time>2026-04-30T07:43:20.999Z</time>
      </trkpt>
      <trkpt lat="43.97667" lon="2.98256">
        <ele>759.7</ele>
        <time>2026-04-30T07:43:22.999Z</time>
      </trkpt>
      <trkpt lat="43.97666" lon="2.98257">
        <ele>759.5</ele>
        <time>2026-04-30T07:43:23.999Z</time>
      </trkpt>
      <trkpt lat="43.97665" lon="2.98258">
        <ele>759.7</ele>
        <time>2026-04-30T07:43:24.999Z</time>
      </trkpt>
      <trkpt lat="43.97664" lon="2.9826">
        <ele>760.3</ele>
        <time>2026-04-30T07:43:25.999Z</time>
      </trkpt>
      <trkpt lat="43.97663" lon="2.98261">
        <ele>760.2</ele>
        <time>2026-04-30T07:43:26.999Z</time>
      </trkpt>
      <trkpt lat="43.97663" lon="2.98262">
        <ele>760.3</ele>
        <time>2026-04-30T07:43:27.999Z</time>
      </trkpt>
      <trkpt lat="43.97662" lon="2.98263">
        <ele>760.9</ele>
        <time>2026-04-30T07:43:28.999Z</time>
      </trkpt>
      <trkpt lat="43.97662" lon="2.98264">
        <ele>761.3</ele>
        <time>2026-04-30T07:43:29.999Z</time>
      </trkpt>
      <trkpt lat="43.97662" lon="2.98264">
        <ele>761.7</ele>
        <time>2026-04-30T07:43:30.999Z</time>
      </trkpt>
      <trkpt lat="43.97662" lon="2.98265">
        <ele>762.3</ele>
        <time>2026-04-30T07:43:31.999Z</time>
      </trkpt>
      <trkpt lat="43.97662" lon="2.98265">
        <ele>762.4</ele>
        <time>2026-04-30T07:43:32.999Z</time>
      </trkpt>
      <trkpt lat="43.97662" lon="2.98266">
        <ele>762.5</ele>
        <time>2026-04-30T07:43:33.999Z</time>
      </trkpt>
      <trkpt lat="43.97661" lon="2.98265">
        <ele>762.5</ele>
        <time>2026-04-30T07:43:34.999Z</time>
      </trkpt>
      <trkpt lat="43.97661" lon="2.98265">
        <ele>762.4</ele>
        <time>2026-04-30T07:43:35.999Z</time>
      </trkpt>
      <trkpt lat="43.97661" lon="2.98265">
        <ele>762.5</ele>
        <time>2026-04-30T07:43:36.999Z</time>
      </trkpt>
      <trkpt lat="43.9766" lon="2.98264">
        <ele>762.1</ele>
        <time>2026-04-30T07:43:37.999Z</time>
      </trkpt>
      <trkpt lat="43.9766" lon="2.98263">
        <ele>761.8</ele>
        <time>2026-04-30T07:43:38.999Z</time>
      </trkpt>
      <trkpt lat="43.97659" lon="2.98261">
        <ele>761.4</ele>
        <time>2026-04-30T07:43:39.999Z</time>
      </trkpt>
      <trkpt lat="43.97658" lon="2.98261">
        <ele>761.6</ele>
        <time>2026-04-30T07:43:40.999Z</time>
      </trkpt>
      <trkpt lat="43.97657" lon="2.98259">
        <ele>761.2</ele>
        <time>2026-04-30T07:43:41.999Z</time>
      </trkpt>
      <trkpt lat="43.97656" lon="2.98259">
        <ele>761.6</ele>
        <time>2026-04-30T07:43:42.999Z</time>
      </trkpt>
      <trkpt lat="43.97654" lon="2.98258">
        <ele>761.6</ele>
        <time>2026-04-30T07:43:43.999Z</time>
      </trkpt>
      <trkpt lat="43.97654" lon="2.98257">
        <ele>762.2</ele>
        <time>2026-04-30T07:43:44.999Z</time>
      </trkpt>
      <trkpt lat="43.97653" lon="2.98256">
        <ele>761.4</ele>
        <time>2026-04-30T07:43:45.999Z</time>
      </trkpt>
      <trkpt lat="43.97651" lon="2.98255">
        <ele>761</ele>
        <time>2026-04-30T07:43:46.999Z</time>
      </trkpt>
      <trkpt lat="43.9765" lon="2.98256">
        <ele>761.1</ele>
        <time>2026-04-30T07:43:47.999Z</time>
      </trkpt>
      <trkpt lat="43.97648" lon="2.98256">
        <ele>761.6</ele>
        <time>2026-04-30T07:43:48.999Z</time>
      </trkpt>
      <trkpt lat="43.97647" lon="2.98254">
        <ele>761.7</ele>
        <time>2026-04-30T07:43:49.999Z</time>
      </trkpt>
      <trkpt lat="43.97648" lon="2.98253">
        <ele>762.8</ele>
        <time>2026-04-30T07:43:50.999Z</time>
      </trkpt>
      <trkpt lat="43.97649" lon="2.98252">
        <ele>763</ele>
        <time>2026-04-30T07:43:51.999Z</time>
      </trkpt>
      <trkpt lat="43.97648" lon="2.9825">
        <ele>762.8</ele>
        <time>2026-04-30T07:43:52.999Z</time>
      </trkpt>
      <trkpt lat="43.97647" lon="2.98249">
        <ele>762.9</ele>
        <time>2026-04-30T07:43:53.999Z</time>
      </trkpt>
      <trkpt lat="43.97646" lon="2.98247">
        <ele>763.8</ele>
        <time>2026-04-30T07:43:54.999Z</time>
      </trkpt>
      <trkpt lat="43.97645" lon="2.98246">
        <ele>764.1</ele>
        <time>2026-04-30T07:43:55.999Z</time>
      </trkpt>
      <trkpt lat="43.97644" lon="2.98245">
        <ele>764.4</ele>
        <time>2026-04-30T07:43:56.999Z</time>
      </trkpt>
      <trkpt lat="43.97645" lon="2.98245">
        <ele>765.2</ele>
        <time>2026-04-30T07:43:57.999Z</time>
      </trkpt>
      <trkpt lat="43.97645" lon="2.98245">
        <ele>765.9</ele>
        <time>2026-04-30T07:43:58.999Z</time>
      </trkpt>
      <trkpt lat="43.97646" lon="2.98245">
        <ele>766.2</ele>
        <time>2026-04-30T07:43:59.999Z</time>
      </trkpt>
      <trkpt lat="43.97646" lon="2.98245">
        <ele>766.1</ele>
        <time>2026-04-30T07:44:00.999Z</time>
      </trkpt>
      <trkpt lat="43.97646" lon="2.98244">
        <ele>766.6</ele>
        <time>2026-04-30T07:44:01.999Z</time>
      </trkpt>
      <trkpt lat="43.97646" lon="2.98243">
        <ele>767</ele>
        <time>2026-04-30T07:44:02.999Z</time>
      </trkpt>
      <trkpt lat="43.97647" lon="2.98242">
        <ele>766.9</ele>
        <time>2026-04-30T07:44:03.999Z</time>
      </trkpt>
      <trkpt lat="43.97646" lon="2.98242">
        <ele>767.2</ele>
        <time>2026-04-30T07:44:04.999Z</time>
      </trkpt>
      <trkpt lat="43.97647" lon="2.98241">
        <ele>767.5</ele>
        <time>2026-04-30T07:44:05.999Z</time>
      </trkpt>
      <trkpt lat="43.97647" lon="2.98241">
        <ele>768</ele>
        <time>2026-04-30T07:44:06.999Z</time>
      </trkpt>
      <trkpt lat="43.97647" lon="2.9824">
        <ele>767.5</ele>
        <time>2026-04-30T07:44:07.999Z</time>
      </trkpt>
      <trkpt lat="43.97647" lon="2.98239">
        <ele>767.1</ele>
        <time>2026-04-30T07:44:08.999Z</time>
      </trkpt>
      <trkpt lat="43.97648" lon="2.98238">
        <ele>767.5</ele>
        <time>2026-04-30T07:44:09.999Z</time>
      </trkpt>
      <trkpt lat="43.97649" lon="2.98237">
        <ele>768.1</ele>
        <time>2026-04-30T07:44:10.999Z</time>
      </trkpt>
      <trkpt lat="43.9765" lon="2.98237">
        <ele>769.6</ele>
        <time>2026-04-30T07:44:11.999Z</time>
      </trkpt>
      <trkpt lat="43.97651" lon="2.98236">
        <ele>769.9</ele>
        <time>2026-04-30T07:44:12.999Z</time>
      </trkpt>
      <trkpt lat="43.97652" lon="2.98236">
        <ele>770.2</ele>
        <time>2026-04-30T07:44:13.999Z</time>
      </trkpt>
      <trkpt lat="43.97652" lon="2.98236">
        <ele>770.4</ele>
        <time>2026-04-30T07:44:14.999Z</time>
      </trkpt>
      <trkpt lat="43.97651" lon="2.98236">
        <ele>772.2</ele>
        <time>2026-04-30T07:44:15.999Z</time>
      </trkpt>
      <trkpt lat="43.97651" lon="2.98235">
        <ele>771.7</ele>
        <time>2026-04-30T07:44:16.999Z</time>
      </trkpt>
      <trkpt lat="43.97652" lon="2.98234">
        <ele>771.7</ele>
        <time>2026-04-30T07:44:17.999Z</time>
      </trkpt>
      <trkpt lat="43.97653" lon="2.98233">
        <ele>771.7</ele>
        <time>2026-04-30T07:44:18.999Z</time>
      </trkpt>
      <trkpt lat="43.97654" lon="2.98232">
        <ele>771.8</ele>
        <time>2026-04-30T07:44:19.999Z</time>
      </trkpt>
      <trkpt lat="43.97654" lon="2.98231">
        <ele>771.8</ele>
        <time>2026-04-30T07:44:20.999Z</time>
      </trkpt>
      <trkpt lat="43.97656" lon="2.9823">
        <ele>771.8</ele>
        <time>2026-04-30T07:44:21.999Z</time>
      </trkpt>
      <trkpt lat="43.97657" lon="2.98229">
        <ele>771.6</ele>
        <time>2026-04-30T07:44:22.999Z</time>
      </trkpt>
      <trkpt lat="43.97657" lon="2.98229">
        <ele>771.9</ele>
        <time>2026-04-30T07:44:23.999Z</time>
      </trkpt>
      <trkpt lat="43.97657" lon="2.98228">
        <ele>771.8</ele>
        <time>2026-04-30T07:44:24.999Z</time>
      </trkpt>
      <trkpt lat="43.97657" lon="2.98227">
        <ele>771.7</ele>
        <time>2026-04-30T07:44:25.999Z</time>
      </trkpt>
      <trkpt lat="43.97657" lon="2.98226">
        <ele>771.7</ele>
        <time>2026-04-30T07:44:26.999Z</time>
      </trkpt>
      <trkpt lat="43.97656" lon="2.98225">
        <ele>771.4</ele>
        <time>2026-04-30T07:44:27.999Z</time>
      </trkpt>
      <trkpt lat="43.97657" lon="2.98224">
        <ele>771.2</ele>
        <time>2026-04-30T07:44:28.999Z</time>
      </trkpt>
      <trkpt lat="43.97657" lon="2.98223">
        <ele>771.1</ele>
        <time>2026-04-30T07:44:29.999Z</time>
      </trkpt>
      <trkpt lat="43.97657" lon="2.98221">
        <ele>771.1</ele>
        <time>2026-04-30T07:44:30.999Z</time>
      </trkpt>
      <trkpt lat="43.97656" lon="2.9822">
        <ele>770.9</ele>
        <time>2026-04-30T07:44:31.999Z</time>
      </trkpt>
      <trkpt lat="43.97656" lon="2.98218">
        <ele>770.5</ele>
        <time>2026-04-30T07:44:32.999Z</time>
      </trkpt>
      <trkpt lat="43.97655" lon="2.98217">
        <ele>770.2</ele>
        <time>2026-04-30T07:44:33.999Z</time>
      </trkpt>
      <trkpt lat="43.97655" lon="2.98215">
        <ele>770</ele>
        <time>2026-04-30T07:44:34.999Z</time>
      </trkpt>
      <trkpt lat="43.97655" lon="2.98214">
        <ele>770</ele>
        <time>2026-04-30T07:44:35.999Z</time>
      </trkpt>
      <trkpt lat="43.97655" lon="2.98214">
        <ele>770</ele>
        <time>2026-04-30T07:44:36.999Z</time>
      </trkpt>
      <trkpt lat="43.97655" lon="2.98213">
        <ele>769.4</ele>
        <time>2026-04-30T07:44:37.999Z</time>
      </trkpt>
      <trkpt lat="43.97655" lon="2.98213">
        <ele>770.6</ele>
        <time>2026-04-30T07:44:38.999Z</time>
      </trkpt>
      <trkpt lat="43.97655" lon="2.98213">
        <ele>770.5</ele>
        <time>2026-04-30T07:44:39.999Z</time>
      </trkpt>
      <trkpt lat="43.97655" lon="2.98213">
        <ele>770.5</ele>
        <time>2026-04-30T07:44:40.999Z</time>
      </trkpt>
      <trkpt lat="43.97656" lon="2.98212">
        <ele>770.5</ele>
        <time>2026-04-30T07:44:41.999Z</time>
      </trkpt>
      <trkpt lat="43.97656" lon="2.9821">
        <ele>770.6</ele>
        <time>2026-04-30T07:44:42.999Z</time>
      </trkpt>
      <trkpt lat="43.97657" lon="2.9821">
        <ele>770.7</ele>
        <time>2026-04-30T07:44:43.999Z</time>
      </trkpt>
      <trkpt lat="43.97657" lon="2.98209">
        <ele>770.9</ele>
        <time>2026-04-30T07:44:44.999Z</time>
      </trkpt>
      <trkpt lat="43.97657" lon="2.98209">
        <ele>771</ele>
        <time>2026-04-30T07:44:45.999Z</time>
      </trkpt>
      <trkpt lat="43.97657" lon="2.98209">
        <ele>771.2</ele>
        <time>2026-04-30T07:44:46.999Z</time>
      </trkpt>
      <trkpt lat="43.97657" lon="2.98209">
        <ele>771.4</ele>
        <time>2026-04-30T07:44:47.999Z</time>
      </trkpt>
      <trkpt lat="43.97657" lon="2.98209">
        <ele>771.8</ele>
        <time>2026-04-30T07:44:48.999Z</time>
      </trkpt>
      <trkpt lat="43.97657" lon="2.98209">
        <ele>772</ele>
        <time>2026-04-30T07:44:49.999Z</time>
      </trkpt>
      <trkpt lat="43.97657" lon="2.98209">
        <ele>772.3</ele>
        <time>2026-04-30T07:44:50.999Z</time>
      </trkpt>
      <trkpt lat="43.97657" lon="2.98208">
        <ele>772.4</ele>
        <time>2026-04-30T07:44:51.999Z</time>
      </trkpt>
      <trkpt lat="43.97657" lon="2.98208">
        <ele>772.4</ele>
        <time>2026-04-30T07:44:52.999Z</time>
      </trkpt>
      <trkpt lat="43.97657" lon="2.98208">
        <ele>772.3</ele>
        <time>2026-04-30T07:44:53.999Z</time>
      </trkpt>
      <trkpt lat="43.97657" lon="2.98208">
        <ele>772.5</ele>
        <time>2026-04-30T07:44:54.999Z</time>
      </trkpt>
      <trkpt lat="43.97657" lon="2.98208">
        <ele>772.6</ele>
        <time>2026-04-30T07:44:55.999Z</time>
      </trkpt>
      <trkpt lat="43.97656" lon="2.98209">
        <ele>772.7</ele>
        <time>2026-04-30T07:44:56.999Z</time>
      </trkpt>
      <trkpt lat="43.97656" lon="2.98209">
        <ele>772.7</ele>
        <time>2026-04-30T07:44:57.999Z</time>
      </trkpt>
      <trkpt lat="43.97656" lon="2.98208">
        <ele>772.7</ele>
        <time>2026-04-30T07:44:58.999Z</time>
      </trkpt>
      <trkpt lat="43.97657" lon="2.98208">
        <ele>772.6</ele>
        <time>2026-04-30T07:44:59.999Z</time>
      </trkpt>
      <trkpt lat="43.97657" lon="2.98208">
        <ele>773</ele>
        <time>2026-04-30T07:45:00.999Z</time>
      </trkpt>
      <trkpt lat="43.97657" lon="2.98207">
        <ele>773.1</ele>
        <time>2026-04-30T07:45:01.999Z</time>
      </trkpt>
      <trkpt lat="43.97657" lon="2.98205">
        <ele>772.9</ele>
        <time>2026-04-30T07:45:02.999Z</time>
      </trkpt>
      <trkpt lat="43.97657" lon="2.98203">
        <ele>772.9</ele>
        <time>2026-04-30T07:45:03.999Z</time>
      </trkpt>
      <trkpt lat="43.97657" lon="2.98202">
        <ele>772.9</ele>
        <time>2026-04-30T07:45:04.999Z</time>
      </trkpt>
      <trkpt lat="43.97657" lon="2.98201">
        <ele>772.6</ele>
        <time>2026-04-30T07:45:05.999Z</time>
      </trkpt>
      <trkpt lat="43.97657" lon="2.982">
        <ele>772.5</ele>
        <time>2026-04-30T07:45:06.999Z</time>
      </trkpt>
      <trkpt lat="43.97657" lon="2.98199">
        <ele>772.6</ele>
        <time>2026-04-30T07:45:07.999Z</time>
      </trkpt>
      <trkpt lat="43.97657" lon="2.98199">
        <ele>772.6</ele>
        <time>2026-04-30T07:45:09.000Z</time>
      </trkpt>
      <trkpt lat="43.97657" lon="2.98198">
        <ele>772.8</ele>
        <time>2026-04-30T07:45:10.000Z</time>
      </trkpt>
      <trkpt lat="43.97657" lon="2.98197">
        <ele>772.8</ele>
        <time>2026-04-30T07:45:11.000Z</time>
      </trkpt>
      <trkpt lat="43.97657" lon="2.98196">
        <ele>772.7</ele>
        <time>2026-04-30T07:45:12.000Z</time>
      </trkpt>
      <trkpt lat="43.97657" lon="2.98195">
        <ele>772.6</ele>
        <time>2026-04-30T07:45:13.000Z</time>
      </trkpt>
      <trkpt lat="43.97657" lon="2.98193">
        <ele>772.3</ele>
        <time>2026-04-30T07:45:14.000Z</time>
      </trkpt>
      <trkpt lat="43.97656" lon="2.98191">
        <ele>772.2</ele>
        <time>2026-04-30T07:45:15.000Z</time>
      </trkpt>
      <trkpt lat="43.97657" lon="2.9819">
        <ele>772.2</ele>
        <time>2026-04-30T07:45:16.000Z</time>
      </trkpt>
      <trkpt lat="43.97656" lon="2.98191">
        <ele>771.7</ele>
        <time>2026-04-30T07:45:17.000Z</time>
      </trkpt>
      <trkpt lat="43.97655" lon="2.98191">
        <ele>772.3</ele>
        <time>2026-04-30T07:45:18.000Z</time>
      </trkpt>
      <trkpt lat="43.97654" lon="2.9819">
        <ele>772.7</ele>
        <time>2026-04-30T07:45:19.000Z</time>
      </trkpt>
      <trkpt lat="43.97654" lon="2.98188">
        <ele>773.1</ele>
        <time>2026-04-30T07:45:20.000Z</time>
      </trkpt>
      <trkpt lat="43.97655" lon="2.98187">
        <ele>773.4</ele>
        <time>2026-04-30T07:45:21.000Z</time>
      </trkpt>
      <trkpt lat="43.97656" lon="2.98186">
        <ele>773.5</ele>
        <time>2026-04-30T07:45:22.000Z</time>
      </trkpt>
      <trkpt lat="43.97657" lon="2.98184">
        <ele>774.4</ele>
        <time>2026-04-30T07:45:23.000Z</time>
      </trkpt>
      <trkpt lat="43.97658" lon="2.98182">
        <ele>775</ele>
        <time>2026-04-30T07:45:24.000Z</time>
      </trkpt>
      <trkpt lat="43.97658" lon="2.9818">
        <ele>775.5</ele>
        <time>2026-04-30T07:45:25.000Z</time>
      </trkpt>
      <trkpt lat="43.97659" lon="2.98177">
        <ele>775.9</ele>
        <time>2026-04-30T07:45:26.000Z</time>
      </trkpt>
      <trkpt lat="43.9766" lon="2.98176">
        <ele>776.6</ele>
        <time>2026-04-30T07:45:27.000Z</time>
      </trkpt>
      <trkpt lat="43.97661" lon="2.98176">
        <ele>777.3</ele>
        <time>2026-04-30T07:45:28.000Z</time>
      </trkpt>
      <trkpt lat="43.97662" lon="2.98176">
        <ele>778.2</ele>
        <time>2026-04-30T07:45:29.000Z</time>
      </trkpt>
      <trkpt lat="43.97663" lon="2.98176">
        <ele>779.4</ele>
        <time>2026-04-30T07:45:30.000Z</time>
      </trkpt>
      <trkpt lat="43.97663" lon="2.98176">
        <ele>779.2</ele>
        <time>2026-04-30T07:45:31.000Z</time>
      </trkpt>
      <trkpt lat="43.97663" lon="2.98175">
        <ele>779</ele>
        <time>2026-04-30T07:45:32.000Z</time>
      </trkpt>
      <trkpt lat="43.97663" lon="2.98174">
        <ele>778.7</ele>
        <time>2026-04-30T07:45:33.000Z</time>
      </trkpt>
      <trkpt lat="43.97663" lon="2.98172">
        <ele>777.7</ele>
        <time>2026-04-30T07:45:34.000Z</time>
      </trkpt>
      <trkpt lat="43.97663" lon="2.98171">
        <ele>777.4</ele>
        <time>2026-04-30T07:45:35.000Z</time>
      </trkpt>
      <trkpt lat="43.97663" lon="2.98169">
        <ele>777.3</ele>
        <time>2026-04-30T07:45:36.000Z</time>
      </trkpt>
      <trkpt lat="43.97663" lon="2.98167">
        <ele>777.1</ele>
        <time>2026-04-30T07:45:37.000Z</time>
      </trkpt>
      <trkpt lat="43.97663" lon="2.98167">
        <ele>777</ele>
        <time>2026-04-30T07:45:38.000Z</time>
      </trkpt>
      <trkpt lat="43.97663" lon="2.98166">
        <ele>777.1</ele>
        <time>2026-04-30T07:45:39.000Z</time>
      </trkpt>
      <trkpt lat="43.97663" lon="2.98165">
        <ele>777.6</ele>
        <time>2026-04-30T07:45:40.000Z</time>
      </trkpt>
      <trkpt lat="43.97663" lon="2.98164">
        <ele>777.8</ele>
        <time>2026-04-30T07:45:41.000Z</time>
      </trkpt>
      <trkpt lat="43.97663" lon="2.98163">
        <ele>778</ele>
        <time>2026-04-30T07:45:42.000Z</time>
      </trkpt>
      <trkpt lat="43.97663" lon="2.98163">
        <ele>778.2</ele>
        <time>2026-04-30T07:45:43.000Z</time>
      </trkpt>
      <trkpt lat="43.97663" lon="2.98162">
        <ele>778.8</ele>
        <time>2026-04-30T07:45:44.000Z</time>
      </trkpt>
      <trkpt lat="43.97663" lon="2.98161">
        <ele>779.4</ele>
        <time>2026-04-30T07:45:45.000Z</time>
      </trkpt>
      <trkpt lat="43.97664" lon="2.98161">
        <ele>780.2</ele>
        <time>2026-04-30T07:45:46.000Z</time>
      </trkpt>
      <trkpt lat="43.97665" lon="2.98161">
        <ele>780.4</ele>
        <time>2026-04-30T07:45:47.000Z</time>
      </trkpt>
      <trkpt lat="43.97665" lon="2.98161">
        <ele>779.9</ele>
        <time>2026-04-30T07:45:48.000Z</time>
      </trkpt>
      <trkpt lat="43.97665" lon="2.98161">
        <ele>780.1</ele>
        <time>2026-04-30T07:45:49.000Z</time>
      </trkpt>
      <trkpt lat="43.97665" lon="2.98161">
        <ele>780.3</ele>
        <time>2026-04-30T07:45:50.000Z</time>
      </trkpt>
      <trkpt lat="43.97665" lon="2.98161">
        <ele>780.4</ele>
        <time>2026-04-30T07:45:51.000Z</time>
      </trkpt>
      <trkpt lat="43.97665" lon="2.9816">
        <ele>780.3</ele>
        <time>2026-04-30T07:45:52.000Z</time>
      </trkpt>
      <trkpt lat="43.97666" lon="2.98161">
        <ele>780.4</ele>
        <time>2026-04-30T07:45:53.000Z</time>
      </trkpt>
      <trkpt lat="43.97666" lon="2.98162">
        <ele>780.2</ele>
        <time>2026-04-30T07:45:54.000Z</time>
      </trkpt>
      <trkpt lat="43.97667" lon="2.98161">
        <ele>780.3</ele>
        <time>2026-04-30T07:45:55.000Z</time>
      </trkpt>
      <trkpt lat="43.97667" lon="2.9816">
        <ele>780</ele>
        <time>2026-04-30T07:45:56.000Z</time>
      </trkpt>
      <trkpt lat="43.97668" lon="2.98159">
        <ele>780.1</ele>
        <time>2026-04-30T07:45:57.000Z</time>
      </trkpt>
      <trkpt lat="43.97669" lon="2.98158">
        <ele>779.9</ele>
        <time>2026-04-30T07:45:58.000Z</time>
      </trkpt>
      <trkpt lat="43.97669" lon="2.98157">
        <ele>779.7</ele>
        <time>2026-04-30T07:45:59.000Z</time>
      </trkpt>
      <trkpt lat="43.9767" lon="2.98155">
        <ele>779.7</ele>
        <time>2026-04-30T07:46:00.000Z</time>
      </trkpt>
      <trkpt lat="43.97669" lon="2.98154">
        <ele>779.5</ele>
        <time>2026-04-30T07:46:01.000Z</time>
      </trkpt>
      <trkpt lat="43.97669" lon="2.98153">
        <ele>779.5</ele>
        <time>2026-04-30T07:46:02.000Z</time>
      </trkpt>
      <trkpt lat="43.9767" lon="2.98152">
        <ele>779.7</ele>
        <time>2026-04-30T07:46:03.000Z</time>
      </trkpt>
      <trkpt lat="43.97671" lon="2.98152">
        <ele>780.3</ele>
        <time>2026-04-30T07:46:04.000Z</time>
      </trkpt>
      <trkpt lat="43.97673" lon="2.98152">
        <ele>780.4</ele>
        <time>2026-04-30T07:46:05.000Z</time>
      </trkpt>
      <trkpt lat="43.97674" lon="2.9815">
        <ele>780.2</ele>
        <time>2026-04-30T07:46:06.000Z</time>
      </trkpt>
      <trkpt lat="43.97674" lon="2.98148">
        <ele>779.7</ele>
        <time>2026-04-30T07:46:07.000Z</time>
      </trkpt>
      <trkpt lat="43.97675" lon="2.98147">
        <ele>779.4</ele>
        <time>2026-04-30T07:46:08.000Z</time>
      </trkpt>
      <trkpt lat="43.97676" lon="2.98146">
        <ele>779.3</ele>
        <time>2026-04-30T07:46:09.000Z</time>
      </trkpt>
      <trkpt lat="43.97677" lon="2.98144">
        <ele>779.4</ele>
        <time>2026-04-30T07:46:10.000Z</time>
      </trkpt>
      <trkpt lat="43.97678" lon="2.98142">
        <ele>779.4</ele>
        <time>2026-04-30T07:46:11.000Z</time>
      </trkpt>
      <trkpt lat="43.97678" lon="2.98141">
        <ele>779.5</ele>
        <time>2026-04-30T07:46:12.000Z</time>
      </trkpt>
      <trkpt lat="43.97677" lon="2.9814">
        <ele>779</ele>
        <time>2026-04-30T07:46:13.000Z</time>
      </trkpt>
      <trkpt lat="43.97677" lon="2.9814">
        <ele>778.7</ele>
        <time>2026-04-30T07:46:14.000Z</time>
      </trkpt>
      <trkpt lat="43.97677" lon="2.9814">
        <ele>778.3</ele>
        <time>2026-04-30T07:46:15.000Z</time>
      </trkpt>
      <trkpt lat="43.97677" lon="2.98139">
        <ele>778.6</ele>
        <time>2026-04-30T07:46:16.000Z</time>
      </trkpt>
      <trkpt lat="43.97677" lon="2.98138">
        <ele>778.7</ele>
        <time>2026-04-30T07:46:17.000Z</time>
      </trkpt>
      <trkpt lat="43.97678" lon="2.98137">
        <ele>779.1</ele>
        <time>2026-04-30T07:46:18.000Z</time>
      </trkpt>
      <trkpt lat="43.97677" lon="2.98135">
        <ele>778.6</ele>
        <time>2026-04-30T07:46:19.000Z</time>
      </trkpt>
      <trkpt lat="43.97677" lon="2.98134">
        <ele>778.1</ele>
        <time>2026-04-30T07:46:20.000Z</time>
      </trkpt>
      <trkpt lat="43.97677" lon="2.98132">
        <ele>777.4</ele>
        <time>2026-04-30T07:46:21.000Z</time>
      </trkpt>
      <trkpt lat="43.97676" lon="2.98131">
        <ele>777.2</ele>
        <time>2026-04-30T07:46:22.000Z</time>
      </trkpt>
      <trkpt lat="43.97676" lon="2.9813">
        <ele>777.3</ele>
        <time>2026-04-30T07:46:23.000Z</time>
      </trkpt>
      <trkpt lat="43.97676" lon="2.9813">
        <ele>777.4</ele>
        <time>2026-04-30T07:46:24.000Z</time>
      </trkpt>
      <trkpt lat="43.97676" lon="2.98129">
        <ele>777.1</ele>
        <time>2026-04-30T07:46:25.000Z</time>
      </trkpt>
      <trkpt lat="43.97675" lon="2.98127">
        <ele>777.2</ele>
        <time>2026-04-30T07:46:26.000Z</time>
      </trkpt>
      <trkpt lat="43.97676" lon="2.98125">
        <ele>777.3</ele>
        <time>2026-04-30T07:46:27.000Z</time>
      </trkpt>
      <trkpt lat="43.97676" lon="2.98124">
        <ele>777.6</ele>
        <time>2026-04-30T07:46:28.000Z</time>
      </trkpt>
      <trkpt lat="43.97676" lon="2.98124">
        <ele>777.3</ele>
        <time>2026-04-30T07:46:29.000Z</time>
      </trkpt>
      <trkpt lat="43.97677" lon="2.98123">
        <ele>778</ele>
        <time>2026-04-30T07:46:30.000Z</time>
      </trkpt>
      <trkpt lat="43.97677" lon="2.98122">
        <ele>778.2</ele>
        <time>2026-04-30T07:46:31.000Z</time>
      </trkpt>
      <trkpt lat="43.97676" lon="2.98121">
        <ele>778.3</ele>
        <time>2026-04-30T07:46:32.000Z</time>
      </trkpt>
      <trkpt lat="43.97677" lon="2.9812">
        <ele>778.6</ele>
        <time>2026-04-30T07:46:33.000Z</time>
      </trkpt>
      <trkpt lat="43.97677" lon="2.98118">
        <ele>778.8</ele>
        <time>2026-04-30T07:46:34.000Z</time>
      </trkpt>
      <trkpt lat="43.97677" lon="2.98117">
        <ele>778.8</ele>
        <time>2026-04-30T07:46:35.000Z</time>
      </trkpt>
      <trkpt lat="43.97678" lon="2.98115">
        <ele>779.6</ele>
        <time>2026-04-30T07:46:36.000Z</time>
      </trkpt>
      <trkpt lat="43.97678" lon="2.98114">
        <ele>780.4</ele>
        <time>2026-04-30T07:46:37.000Z</time>
      </trkpt>
      <trkpt lat="43.97679" lon="2.98114">
        <ele>780.5</ele>
        <time>2026-04-30T07:46:38.000Z</time>
      </trkpt>
      <trkpt lat="43.97678" lon="2.98113">
        <ele>780.3</ele>
        <time>2026-04-30T07:46:39.000Z</time>
      </trkpt>
      <trkpt lat="43.97678" lon="2.98113">
        <ele>780.8</ele>
        <time>2026-04-30T07:46:40.000Z</time>
      </trkpt>
      <trkpt lat="43.97678" lon="2.98113">
        <ele>781.8</ele>
        <time>2026-04-30T07:46:41.000Z</time>
      </trkpt>
      <trkpt lat="43.97678" lon="2.98113">
        <ele>782.3</ele>
        <time>2026-04-30T07:46:42.000Z</time>
      </trkpt>
      <trkpt lat="43.97678" lon="2.98113">
        <ele>782.7</ele>
        <time>2026-04-30T07:46:43.000Z</time>
      </trkpt>
      <trkpt lat="43.97678" lon="2.98113">
        <ele>782.7</ele>
        <time>2026-04-30T07:46:44.000Z</time>
      </trkpt>
      <trkpt lat="43.97678" lon="2.98113">
        <ele>782.6</ele>
        <time>2026-04-30T07:46:45.000Z</time>
      </trkpt>
      <trkpt lat="43.97678" lon="2.98113">
        <ele>782.8</ele>
        <time>2026-04-30T07:46:46.000Z</time>
      </trkpt>
      <trkpt lat="43.97678" lon="2.98113">
        <ele>782.8</ele>
        <time>2026-04-30T07:46:47.000Z</time>
      </trkpt>
      <trkpt lat="43.97678" lon="2.98113">
        <ele>783</ele>
        <time>2026-04-30T07:46:48.000Z</time>
      </trkpt>
      <trkpt lat="43.97678" lon="2.98113">
        <ele>783</ele>
        <time>2026-04-30T07:46:49.000Z</time>
      </trkpt>
      <trkpt lat="43.97678" lon="2.98113">
        <ele>783.3</ele>
        <time>2026-04-30T07:46:50.000Z</time>
      </trkpt>
      <trkpt lat="43.97678" lon="2.98114">
        <ele>783.5</ele>
        <time>2026-04-30T07:46:51.000Z</time>
      </trkpt>
      <trkpt lat="43.97678" lon="2.98114">
        <ele>783.5</ele>
        <time>2026-04-30T07:46:52.000Z</time>
      </trkpt>
      <trkpt lat="43.97678" lon="2.98115">
        <ele>783.6</ele>
        <time>2026-04-30T07:46:53.000Z</time>
      </trkpt>
      <trkpt lat="43.97677" lon="2.98116">
        <ele>783.7</ele>
        <time>2026-04-30T07:46:54.000Z</time>
      </trkpt>
      <trkpt lat="43.97677" lon="2.98116">
        <ele>784</ele>
        <time>2026-04-30T07:46:55.000Z</time>
      </trkpt>
      <trkpt lat="43.97677" lon="2.98116">
        <ele>784</ele>
        <time>2026-04-30T07:46:56.000Z</time>
      </trkpt>
      <trkpt lat="43.97678" lon="2.98116">
        <ele>784.3</ele>
        <time>2026-04-30T07:46:57.000Z</time>
      </trkpt>
      <trkpt lat="43.97678" lon="2.98116">
        <ele>784.5</ele>
        <time>2026-04-30T07:46:58.000Z</time>
      </trkpt>
      <trkpt lat="43.97679" lon="2.98116">
        <ele>784.7</ele>
        <time>2026-04-30T07:46:59.000Z</time>
      </trkpt>
      <trkpt lat="43.97679" lon="2.98116">
        <ele>784.7</ele>
        <time>2026-04-30T07:47:00.000Z</time>
      </trkpt>
      <trkpt lat="43.97679" lon="2.98116">
        <ele>784.7</ele>
        <time>2026-04-30T07:47:01.000Z</time>
      </trkpt>
      <trkpt lat="43.97679" lon="2.98116">
        <ele>784.6</ele>
        <time>2026-04-30T07:47:02.000Z</time>
      </trkpt>
      <trkpt lat="43.9768" lon="2.98115">
        <ele>785.1</ele>
        <time>2026-04-30T07:47:03.000Z</time>
      </trkpt>
      <trkpt lat="43.97681" lon="2.98115">
        <ele>786</ele>
        <time>2026-04-30T07:47:04.000Z</time>
      </trkpt>
      <trkpt lat="43.97681" lon="2.98115">
        <ele>786.9</ele>
        <time>2026-04-30T07:47:05.000Z</time>
      </trkpt>
      <trkpt lat="43.97682" lon="2.98115">
        <ele>787.4</ele>
        <time>2026-04-30T07:47:06.000Z</time>
      </trkpt>
      <trkpt lat="43.97682" lon="2.98115">
        <ele>788.4</ele>
        <time>2026-04-30T07:47:07.000Z</time>
      </trkpt>
      <trkpt lat="43.97682" lon="2.98115">
        <ele>789.2</ele>
        <time>2026-04-30T07:47:08.000Z</time>
      </trkpt>
      <trkpt lat="43.97682" lon="2.98115">
        <ele>789.3</ele>
        <time>2026-04-30T07:47:09.000Z</time>
      </trkpt>
      <trkpt lat="43.97682" lon="2.98115">
        <ele>789.3</ele>
        <time>2026-04-30T07:47:10.000Z</time>
      </trkpt>
      <trkpt lat="43.97682" lon="2.98115">
        <ele>789.4</ele>
        <time>2026-04-30T07:47:11.000Z</time>
      </trkpt>
      <trkpt lat="43.97682" lon="2.98115">
        <ele>789.4</ele>
        <time>2026-04-30T07:47:12.000Z</time>
      </trkpt>
      <trkpt lat="43.97682" lon="2.98116">
        <ele>789.4</ele>
        <time>2026-04-30T07:47:13.000Z</time>
      </trkpt>
      <trkpt lat="43.97683" lon="2.98116">
        <ele>789.1</ele>
        <time>2026-04-30T07:47:14.000Z</time>
      </trkpt>
      <trkpt lat="43.97683" lon="2.98116">
        <ele>788.6</ele>
        <time>2026-04-30T07:47:15.000Z</time>
      </trkpt>
      <trkpt lat="43.97683" lon="2.98115">
        <ele>788.1</ele>
        <time>2026-04-30T07:47:16.000Z</time>
      </trkpt>
      <trkpt lat="43.97683" lon="2.98115">
        <ele>787.9</ele>
        <time>2026-04-30T07:47:17.000Z</time>
      </trkpt>
      <trkpt lat="43.97683" lon="2.98115">
        <ele>787.6</ele>
        <time>2026-04-30T07:47:18.000Z</time>
      </trkpt>
      <trkpt lat="43.97683" lon="2.98115">
        <ele>787.1</ele>
        <time>2026-04-30T07:47:19.000Z</time>
      </trkpt>
      <trkpt lat="43.97683" lon="2.98115">
        <ele>786.6</ele>
        <time>2026-04-30T07:47:20.000Z</time>
      </trkpt>
      <trkpt lat="43.97683" lon="2.98114">
        <ele>786.1</ele>
        <time>2026-04-30T07:47:21.000Z</time>
      </trkpt>
      <trkpt lat="43.97683" lon="2.98114">
        <ele>785.4</ele>
        <time>2026-04-30T07:47:22.000Z</time>
      </trkpt>
      <trkpt lat="43.97683" lon="2.98114">
        <ele>785.1</ele>
        <time>2026-04-30T07:47:23.000Z</time>
      </trkpt>
      <trkpt lat="43.97683" lon="2.98114">
        <ele>784.9</ele>
        <time>2026-04-30T07:47:24.000Z</time>
      </trkpt>
      <trkpt lat="43.97683" lon="2.98114">
        <ele>785</ele>
        <time>2026-04-30T07:47:25.000Z</time>
      </trkpt>
      <trkpt lat="43.97683" lon="2.98114">
        <ele>785.2</ele>
        <time>2026-04-30T07:47:26.000Z</time>
      </trkpt>
      <trkpt lat="43.97684" lon="2.98113">
        <ele>785.5</ele>
        <time>2026-04-30T07:47:27.000Z</time>
      </trkpt>
      <trkpt lat="43.97685" lon="2.98113">
        <ele>785.8</ele>
        <time>2026-04-30T07:47:28.000Z</time>
      </trkpt>
      <trkpt lat="43.97687" lon="2.98114">
        <ele>786.1</ele>
        <time>2026-04-30T07:47:29.000Z</time>
      </trkpt>
      <trkpt lat="43.97687" lon="2.98114">
        <ele>786.1</ele>
        <time>2026-04-30T07:47:30.000Z</time>
      </trkpt>
      <trkpt lat="43.97687" lon="2.98114">
        <ele>786.2</ele>
        <time>2026-04-30T07:47:31.000Z</time>
      </trkpt>
      <trkpt lat="43.97687" lon="2.98114">
        <ele>786.3</ele>
        <time>2026-04-30T07:47:32.000Z</time>
      </trkpt>
      <trkpt lat="43.97687" lon="2.98114">
        <ele>786.3</ele>
        <time>2026-04-30T07:47:33.000Z</time>
      </trkpt>
      <trkpt lat="43.97687" lon="2.98114">
        <ele>786.7</ele>
        <time>2026-04-30T07:47:34.000Z</time>
      </trkpt>
      <trkpt lat="43.97687" lon="2.98114">
        <ele>787.2</ele>
        <time>2026-04-30T07:47:35.000Z</time>
      </trkpt>
      <trkpt lat="43.97687" lon="2.98114">
        <ele>787.2</ele>
        <time>2026-04-30T07:47:36.000Z</time>
      </trkpt>
      <trkpt lat="43.97687" lon="2.98114">
        <ele>787.1</ele>
        <time>2026-04-30T07:47:37.000Z</time>
      </trkpt>
      <trkpt lat="43.97687" lon="2.98114">
        <ele>787.1</ele>
        <time>2026-04-30T07:47:38.000Z</time>
      </trkpt>
      <trkpt lat="43.97687" lon="2.98114">
        <ele>786.9</ele>
        <time>2026-04-30T07:47:39.000Z</time>
      </trkpt>
      <trkpt lat="43.97687" lon="2.98114">
        <ele>786.9</ele>
        <time>2026-04-30T07:47:40.000Z</time>
      </trkpt>
      <trkpt lat="43.97687" lon="2.98114">
        <ele>787</ele>
        <time>2026-04-30T07:47:41.000Z</time>
      </trkpt>
      <trkpt lat="43.97687" lon="2.98114">
        <ele>787.1</ele>
        <time>2026-04-30T07:47:42.000Z</time>
      </trkpt>
      <trkpt lat="43.97687" lon="2.98114">
        <ele>787.1</ele>
        <time>2026-04-30T07:47:43.000Z</time>
      </trkpt>
      <trkpt lat="43.97687" lon="2.98114">
        <ele>787</ele>
        <time>2026-04-30T07:47:44.000Z</time>
      </trkpt>
      <trkpt lat="43.97687" lon="2.98114">
        <ele>787.1</ele>
        <time>2026-04-30T07:47:45.000Z</time>
      </trkpt>
      <trkpt lat="43.97687" lon="2.98114">
        <ele>787</ele>
        <time>2026-04-30T07:47:46.000Z</time>
      </trkpt>
      <trkpt lat="43.97687" lon="2.98114">
        <ele>786.8</ele>
        <time>2026-04-30T07:47:47.000Z</time>
      </trkpt>
      <trkpt lat="43.97687" lon="2.98114">
        <ele>786.7</ele>
        <time>2026-04-30T07:47:48.000Z</time>
      </trkpt>
      <trkpt lat="43.97687" lon="2.98113">
        <ele>786.7</ele>
        <time>2026-04-30T07:47:49.000Z</time>
      </trkpt>
      <trkpt lat="43.97687" lon="2.98113">
        <ele>786.7</ele>
        <time>2026-04-30T07:47:50.000Z</time>
      </trkpt>
      <trkpt lat="43.97687" lon="2.98112">
        <ele>786.6</ele>
        <time>2026-04-30T07:47:51.000Z</time>
      </trkpt>
      <trkpt lat="43.97687" lon="2.98111">
        <ele>786.4</ele>
        <time>2026-04-30T07:47:52.000Z</time>
      </trkpt>
      <trkpt lat="43.97687" lon="2.9811">
        <ele>786.3</ele>
        <time>2026-04-30T07:47:53.000Z</time>
      </trkpt>
      <trkpt lat="43.97687" lon="2.98109">
        <ele>786.2</ele>
        <time>2026-04-30T07:47:54.000Z</time>
      </trkpt>
      <trkpt lat="43.97687" lon="2.98109">
        <ele>786.2</ele>
        <time>2026-04-30T07:47:55.000Z</time>
      </trkpt>
      <trkpt lat="43.97686" lon="2.98108">
        <ele>785.9</ele>
        <time>2026-04-30T07:47:56.000Z</time>
      </trkpt>
      <trkpt lat="43.97685" lon="2.98107">
        <ele>785.8</ele>
        <time>2026-04-30T07:47:57.000Z</time>
      </trkpt>
      <trkpt lat="43.97685" lon="2.98106">
        <ele>785.7</ele>
        <time>2026-04-30T07:47:58.000Z</time>
      </trkpt>
      <trkpt lat="43.97685" lon="2.98105">
        <ele>785.6</ele>
        <time>2026-04-30T07:47:59.000Z</time>
      </trkpt>
      <trkpt lat="43.97684" lon="2.98104">
        <ele>785.4</ele>
        <time>2026-04-30T07:48:00.000Z</time>
      </trkpt>
      <trkpt lat="43.97684" lon="2.98103">
        <ele>785.4</ele>
        <time>2026-04-30T07:48:01.000Z</time>
      </trkpt>
      <trkpt lat="43.97684" lon="2.98102">
        <ele>785.5</ele>
        <time>2026-04-30T07:48:02.000Z</time>
      </trkpt>
      <trkpt lat="43.97684" lon="2.98101">
        <ele>785.1</ele>
        <time>2026-04-30T07:48:03.000Z</time>
      </trkpt>
      <trkpt lat="43.97684" lon="2.981">
        <ele>784.9</ele>
        <time>2026-04-30T07:48:04.000Z</time>
      </trkpt>
      <trkpt lat="43.97685" lon="2.981">
        <ele>784.8</ele>
        <time>2026-04-30T07:48:05.000Z</time>
      </trkpt>
      <trkpt lat="43.97685" lon="2.98099">
        <ele>784.6</ele>
        <time>2026-04-30T07:48:06.000Z</time>
      </trkpt>
      <trkpt lat="43.97686" lon="2.98097">
        <ele>784.2</ele>
        <time>2026-04-30T07:48:07.000Z</time>
      </trkpt>
      <trkpt lat="43.97686" lon="2.98098">
        <ele>783.7</ele>
        <time>2026-04-30T07:48:08.000Z</time>
      </trkpt>
      <trkpt lat="43.97687" lon="2.98099">
        <ele>783.6</ele>
        <time>2026-04-30T07:48:09.000Z</time>
      </trkpt>
      <trkpt lat="43.97687" lon="2.98099">
        <ele>783.7</ele>
        <time>2026-04-30T07:48:10.000Z</time>
      </trkpt>
      <trkpt lat="43.97688" lon="2.98099">
        <ele>785</ele>
        <time>2026-04-30T07:48:11.000Z</time>
      </trkpt>
      <trkpt lat="43.97688" lon="2.98099">
        <ele>785.6</ele>
        <time>2026-04-30T07:48:12.000Z</time>
      </trkpt>
      <trkpt lat="43.97688" lon="2.981">
        <ele>785.3</ele>
        <time>2026-04-30T07:48:13.000Z</time>
      </trkpt>
      <trkpt lat="43.97688" lon="2.981">
        <ele>785.2</ele>
        <time>2026-04-30T07:48:14.000Z</time>
      </trkpt>
      <trkpt lat="43.97688" lon="2.981">
        <ele>785.3</ele>
        <time>2026-04-30T07:48:15.000Z</time>
      </trkpt>
      <trkpt lat="43.97689" lon="2.98099">
        <ele>785.5</ele>
        <time>2026-04-30T07:48:16.000Z</time>
      </trkpt>
      <trkpt lat="43.97689" lon="2.98099">
        <ele>785.4</ele>
        <time>2026-04-30T07:48:17.000Z</time>
      </trkpt>
      <trkpt lat="43.97689" lon="2.98099">
        <ele>784.8</ele>
        <time>2026-04-30T07:48:18.000Z</time>
      </trkpt>
      <trkpt lat="43.97689" lon="2.98099">
        <ele>784.4</ele>
        <time>2026-04-30T07:48:19.000Z</time>
      </trkpt>
      <trkpt lat="43.97689" lon="2.98097">
        <ele>784.3</ele>
        <time>2026-04-30T07:48:20.000Z</time>
      </trkpt>
      <trkpt lat="43.97689" lon="2.98094">
        <ele>784.4</ele>
        <time>2026-04-30T07:48:21.000Z</time>
      </trkpt>
      <trkpt lat="43.9769" lon="2.98092">
        <ele>784.3</ele>
        <time>2026-04-30T07:48:22.000Z</time>
      </trkpt>
      <trkpt lat="43.97692" lon="2.98091">
        <ele>784</ele>
        <time>2026-04-30T07:48:23.000Z</time>
      </trkpt>
      <trkpt lat="43.97692" lon="2.9809">
        <ele>783.8</ele>
        <time>2026-04-30T07:48:24.000Z</time>
      </trkpt>
      <trkpt lat="43.97693" lon="2.98088">
        <ele>783.7</ele>
        <time>2026-04-30T07:48:25.000Z</time>
      </trkpt>
      <trkpt lat="43.97693" lon="2.98087">
        <ele>783.5</ele>
        <time>2026-04-30T07:48:26.000Z</time>
      </trkpt>
      <trkpt lat="43.97693" lon="2.98085">
        <ele>783.3</ele>
        <time>2026-04-30T07:48:27.000Z</time>
      </trkpt>
      <trkpt lat="43.97693" lon="2.98084">
        <ele>782.8</ele>
        <time>2026-04-30T07:48:28.000Z</time>
      </trkpt>
      <trkpt lat="43.97693" lon="2.98083">
        <ele>782.8</ele>
        <time>2026-04-30T07:48:29.000Z</time>
      </trkpt>
      <trkpt lat="43.97693" lon="2.98082">
        <ele>782.6</ele>
        <time>2026-04-30T07:48:30.000Z</time>
      </trkpt>
      <trkpt lat="43.97693" lon="2.98082">
        <ele>782.2</ele>
        <time>2026-04-30T07:48:31.000Z</time>
      </trkpt>
      <trkpt lat="43.97693" lon="2.98082">
        <ele>782</ele>
        <time>2026-04-30T07:48:32.000Z</time>
      </trkpt>
      <trkpt lat="43.97694" lon="2.98081">
        <ele>781.9</ele>
        <time>2026-04-30T07:48:33.000Z</time>
      </trkpt>
      <trkpt lat="43.97694" lon="2.98079">
        <ele>782</ele>
        <time>2026-04-30T07:48:34.000Z</time>
      </trkpt>
      <trkpt lat="43.97695" lon="2.98078">
        <ele>782</ele>
        <time>2026-04-30T07:48:35.000Z</time>
      </trkpt>
      <trkpt lat="43.97696" lon="2.98077">
        <ele>782.1</ele>
        <time>2026-04-30T07:48:36.000Z</time>
      </trkpt>
      <trkpt lat="43.97696" lon="2.98076">
        <ele>782.2</ele>
        <time>2026-04-30T07:48:37.000Z</time>
      </trkpt>
      <trkpt lat="43.97695" lon="2.98075">
        <ele>781.8</ele>
        <time>2026-04-30T07:48:38.000Z</time>
      </trkpt>
      <trkpt lat="43.97694" lon="2.98073">
        <ele>781.8</ele>
        <time>2026-04-30T07:48:39.000Z</time>
      </trkpt>
      <trkpt lat="43.97694" lon="2.98073">
        <ele>781.4</ele>
        <time>2026-04-30T07:48:40.000Z</time>
      </trkpt>
      <trkpt lat="43.97693" lon="2.98073">
        <ele>780.8</ele>
        <time>2026-04-30T07:48:41.000Z</time>
      </trkpt>
      <trkpt lat="43.97692" lon="2.98072">
        <ele>780.4</ele>
        <time>2026-04-30T07:48:42.000Z</time>
      </trkpt>
      <trkpt lat="43.97691" lon="2.98071">
        <ele>780.4</ele>
        <time>2026-04-30T07:48:43.000Z</time>
      </trkpt>
      <trkpt lat="43.97691" lon="2.98069">
        <ele>779.8</ele>
        <time>2026-04-30T07:48:44.000Z</time>
      </trkpt>
      <trkpt lat="43.97692" lon="2.98068">
        <ele>779.4</ele>
        <time>2026-04-30T07:48:45.000Z</time>
      </trkpt>
      <trkpt lat="43.97692" lon="2.98067">
        <ele>779.4</ele>
        <time>2026-04-30T07:48:46.000Z</time>
      </trkpt>
      <trkpt lat="43.97692" lon="2.98066">
        <ele>779.4</ele>
        <time>2026-04-30T07:48:47.000Z</time>
      </trkpt>
      <trkpt lat="43.97693" lon="2.98065">
        <ele>779.1</ele>
        <time>2026-04-30T07:48:48.000Z</time>
      </trkpt>
      <trkpt lat="43.97693" lon="2.98063">
        <ele>778.4</ele>
        <time>2026-04-30T07:48:49.000Z</time>
      </trkpt>
      <trkpt lat="43.97695" lon="2.98062">
        <ele>778.4</ele>
        <time>2026-04-30T07:48:50.000Z</time>
      </trkpt>
      <trkpt lat="43.97695" lon="2.98062">
        <ele>778.2</ele>
        <time>2026-04-30T07:48:51.000Z</time>
      </trkpt>
      <trkpt lat="43.97696" lon="2.98061">
        <ele>778.1</ele>
        <time>2026-04-30T07:48:52.000Z</time>
      </trkpt>
      <trkpt lat="43.97697" lon="2.98059">
        <ele>778.3</ele>
        <time>2026-04-30T07:48:53.000Z</time>
      </trkpt>
      <trkpt lat="43.97698" lon="2.98057">
        <ele>778</ele>
        <time>2026-04-30T07:48:54.000Z</time>
      </trkpt>
      <trkpt lat="43.97698" lon="2.98056">
        <ele>778.2</ele>
        <time>2026-04-30T07:48:55.000Z</time>
      </trkpt>
      <trkpt lat="43.97698" lon="2.98054">
        <ele>777.9</ele>
        <time>2026-04-30T07:48:56.000Z</time>
      </trkpt>
      <trkpt lat="43.97699" lon="2.98053">
        <ele>777.9</ele>
        <time>2026-04-30T07:48:57.000Z</time>
      </trkpt>
      <trkpt lat="43.97699" lon="2.98053">
        <ele>777.5</ele>
        <time>2026-04-30T07:48:58.000Z</time>
      </trkpt>
      <trkpt lat="43.97699" lon="2.98052">
        <ele>777.1</ele>
        <time>2026-04-30T07:48:59.000Z</time>
      </trkpt>
      <trkpt lat="43.97699" lon="2.9805">
        <ele>777</ele>
        <time>2026-04-30T07:49:00.000Z</time>
      </trkpt>
      <trkpt lat="43.97699" lon="2.9805">
        <ele>776.3</ele>
        <time>2026-04-30T07:49:01.000Z</time>
      </trkpt>
      <trkpt lat="43.97699" lon="2.98048">
        <ele>775.8</ele>
        <time>2026-04-30T07:49:02.000Z</time>
      </trkpt>
      <trkpt lat="43.97699" lon="2.98047">
        <ele>775.6</ele>
        <time>2026-04-30T07:49:03.000Z</time>
      </trkpt>
      <trkpt lat="43.97698" lon="2.98046">
        <ele>775.7</ele>
        <time>2026-04-30T07:49:04.000Z</time>
      </trkpt>
      <trkpt lat="43.97698" lon="2.98045">
        <ele>776</ele>
        <time>2026-04-30T07:49:05.000Z</time>
      </trkpt>
      <trkpt lat="43.97699" lon="2.98042">
        <ele>776.1</ele>
        <time>2026-04-30T07:49:06.000Z</time>
      </trkpt>
      <trkpt lat="43.97699" lon="2.9804">
        <ele>776.1</ele>
        <time>2026-04-30T07:49:07.000Z</time>
      </trkpt>
      <trkpt lat="43.977" lon="2.98039">
        <ele>776.3</ele>
        <time>2026-04-30T07:49:08.000Z</time>
      </trkpt>
      <trkpt lat="43.977" lon="2.98037">
        <ele>776.7</ele>
        <time>2026-04-30T07:49:09.000Z</time>
      </trkpt>
      <trkpt lat="43.977" lon="2.98036">
        <ele>776.5</ele>
        <time>2026-04-30T07:49:10.000Z</time>
      </trkpt>
      <trkpt lat="43.977" lon="2.98035">
        <ele>776.6</ele>
        <time>2026-04-30T07:49:11.000Z</time>
      </trkpt>
      <trkpt lat="43.977" lon="2.98033">
        <ele>776.3</ele>
        <time>2026-04-30T07:49:12.000Z</time>
      </trkpt>
      <trkpt lat="43.977" lon="2.98032">
        <ele>775.8</ele>
        <time>2026-04-30T07:49:13.000Z</time>
      </trkpt>
      <trkpt lat="43.97699" lon="2.98031">
        <ele>775.3</ele>
        <time>2026-04-30T07:49:14.000Z</time>
      </trkpt>
      <trkpt lat="43.97699" lon="2.9803">
        <ele>774.9</ele>
        <time>2026-04-30T07:49:15.000Z</time>
      </trkpt>
      <trkpt lat="43.977" lon="2.98029">
        <ele>774.5</ele>
        <time>2026-04-30T07:49:16.000Z</time>
      </trkpt>
      <trkpt lat="43.97701" lon="2.98028">
        <ele>774.6</ele>
        <time>2026-04-30T07:49:17.000Z</time>
      </trkpt>
      <trkpt lat="43.97702" lon="2.98027">
        <ele>774.7</ele>
        <time>2026-04-30T07:49:18.000Z</time>
      </trkpt>
      <trkpt lat="43.97703" lon="2.98027">
        <ele>774.7</ele>
        <time>2026-04-30T07:49:19.000Z</time>
      </trkpt>
      <trkpt lat="43.97703" lon="2.98027">
        <ele>775.1</ele>
        <time>2026-04-30T07:49:20.000Z</time>
      </trkpt>
      <trkpt lat="43.97703" lon="2.98026">
        <ele>776</ele>
        <time>2026-04-30T07:49:21.000Z</time>
      </trkpt>
      <trkpt lat="43.97704" lon="2.98025">
        <ele>776.4</ele>
        <time>2026-04-30T07:49:22.000Z</time>
      </trkpt>
      <trkpt lat="43.97704" lon="2.98025">
        <ele>776.5</ele>
        <time>2026-04-30T07:49:23.000Z</time>
      </trkpt>
      <trkpt lat="43.97704" lon="2.98025">
        <ele>776.2</ele>
        <time>2026-04-30T07:49:24.000Z</time>
      </trkpt>
      <trkpt lat="43.97704" lon="2.98025">
        <ele>775.9</ele>
        <time>2026-04-30T07:49:25.000Z</time>
      </trkpt>
      <trkpt lat="43.97704" lon="2.98025">
        <ele>775.8</ele>
        <time>2026-04-30T07:49:26.000Z</time>
      </trkpt>
      <trkpt lat="43.97704" lon="2.98025">
        <ele>776.1</ele>
        <time>2026-04-30T07:49:27.000Z</time>
      </trkpt>
      <trkpt lat="43.97704" lon="2.98025">
        <ele>776.1</ele>
        <time>2026-04-30T07:49:28.000Z</time>
      </trkpt>
      <trkpt lat="43.97704" lon="2.98025">
        <ele>775.9</ele>
        <time>2026-04-30T07:49:29.000Z</time>
      </trkpt>
      <trkpt lat="43.97704" lon="2.98025">
        <ele>775.9</ele>
        <time>2026-04-30T07:49:30.000Z</time>
      </trkpt>
      <trkpt lat="43.97704" lon="2.98024">
        <ele>775.8</ele>
        <time>2026-04-30T07:49:31.000Z</time>
      </trkpt>
      <trkpt lat="43.97704" lon="2.98022">
        <ele>775.5</ele>
        <time>2026-04-30T07:49:32.000Z</time>
      </trkpt>
      <trkpt lat="43.97704" lon="2.98021">
        <ele>774.8</ele>
        <time>2026-04-30T07:49:33.000Z</time>
      </trkpt>
      <trkpt lat="43.97704" lon="2.9802">
        <ele>774.4</ele>
        <time>2026-04-30T07:49:34.000Z</time>
      </trkpt>
      <trkpt lat="43.97704" lon="2.98018">
        <ele>774</ele>
        <time>2026-04-30T07:49:35.000Z</time>
      </trkpt>
      <trkpt lat="43.97704" lon="2.98017">
        <ele>774</ele>
        <time>2026-04-30T07:49:36.000Z</time>
      </trkpt>
      <trkpt lat="43.97704" lon="2.98015">
        <ele>774</ele>
        <time>2026-04-30T07:49:37.000Z</time>
      </trkpt>
      <trkpt lat="43.97703" lon="2.98013">
        <ele>774.2</ele>
        <time>2026-04-30T07:49:38.000Z</time>
      </trkpt>
      <trkpt lat="43.97703" lon="2.98012">
        <ele>774.5</ele>
        <time>2026-04-30T07:49:39.000Z</time>
      </trkpt>
      <trkpt lat="43.97703" lon="2.98011">
        <ele>774.6</ele>
        <time>2026-04-30T07:49:40.000Z</time>
      </trkpt>
      <trkpt lat="43.97704" lon="2.98009">
        <ele>774.2</ele>
        <time>2026-04-30T07:49:41.000Z</time>
      </trkpt>
      <trkpt lat="43.97704" lon="2.98008">
        <ele>774</ele>
        <time>2026-04-30T07:49:42.000Z</time>
      </trkpt>
      <trkpt lat="43.97705" lon="2.98007">
        <ele>773.9</ele>
        <time>2026-04-30T07:49:43.000Z</time>
      </trkpt>
      <trkpt lat="43.97705" lon="2.98005">
        <ele>774.4</ele>
        <time>2026-04-30T07:49:44.000Z</time>
      </trkpt>
      <trkpt lat="43.97706" lon="2.98004">
        <ele>774.4</ele>
        <time>2026-04-30T07:49:45.000Z</time>
      </trkpt>
      <trkpt lat="43.97706" lon="2.98004">
        <ele>774.1</ele>
        <time>2026-04-30T07:49:46.000Z</time>
      </trkpt>
      <trkpt lat="43.97706" lon="2.98003">
        <ele>773.9</ele>
        <time>2026-04-30T07:49:47.000Z</time>
      </trkpt>
      <trkpt lat="43.97707" lon="2.98001">
        <ele>774</ele>
        <time>2026-04-30T07:49:48.000Z</time>
      </trkpt>
      <trkpt lat="43.97707" lon="2.98">
        <ele>773.8</ele>
        <time>2026-04-30T07:49:49.000Z</time>
      </trkpt>
      <trkpt lat="43.97707" lon="2.97999">
        <ele>773.9</ele>
        <time>2026-04-30T07:49:50.000Z</time>
      </trkpt>
      <trkpt lat="43.97707" lon="2.97998">
        <ele>774.1</ele>
        <time>2026-04-30T07:49:51.000Z</time>
      </trkpt>
      <trkpt lat="43.97707" lon="2.97997">
        <ele>774.4</ele>
        <time>2026-04-30T07:49:52.000Z</time>
      </trkpt>
      <trkpt lat="43.97707" lon="2.97996">
        <ele>774.6</ele>
        <time>2026-04-30T07:49:53.000Z</time>
      </trkpt>
      <trkpt lat="43.97708" lon="2.97995">
        <ele>775</ele>
        <time>2026-04-30T07:49:54.000Z</time>
      </trkpt>
      <trkpt lat="43.97708" lon="2.97994">
        <ele>775.1</ele>
        <time>2026-04-30T07:49:55.000Z</time>
      </trkpt>
      <trkpt lat="43.97709" lon="2.97993">
        <ele>775.8</ele>
        <time>2026-04-30T07:49:56.000Z</time>
      </trkpt>
      <trkpt lat="43.9771" lon="2.97992">
        <ele>776.4</ele>
        <time>2026-04-30T07:49:57.000Z</time>
      </trkpt>
      <trkpt lat="43.97711" lon="2.97991">
        <ele>776.4</ele>
        <time>2026-04-30T07:49:58.000Z</time>
      </trkpt>
      <trkpt lat="43.97711" lon="2.9799">
        <ele>776.5</ele>
        <time>2026-04-30T07:49:59.000Z</time>
      </trkpt>
      <trkpt lat="43.97712" lon="2.97989">
        <ele>776.7</ele>
        <time>2026-04-30T07:50:00.000Z</time>
      </trkpt>
      <trkpt lat="43.97712" lon="2.97988">
        <ele>777</ele>
        <time>2026-04-30T07:50:01.000Z</time>
      </trkpt>
      <trkpt lat="43.97714" lon="2.97987">
        <ele>777.3</ele>
        <time>2026-04-30T07:50:02.000Z</time>
      </trkpt>
      <trkpt lat="43.97714" lon="2.97987">
        <ele>777.4</ele>
        <time>2026-04-30T07:50:03.000Z</time>
      </trkpt>
      <trkpt lat="43.97715" lon="2.97986">
        <ele>777.6</ele>
        <time>2026-04-30T07:50:04.000Z</time>
      </trkpt>
      <trkpt lat="43.97716" lon="2.97985">
        <ele>778.2</ele>
        <time>2026-04-30T07:50:05.000Z</time>
      </trkpt>
      <trkpt lat="43.97717" lon="2.97983">
        <ele>778.4</ele>
        <time>2026-04-30T07:50:06.000Z</time>
      </trkpt>
      <trkpt lat="43.97718" lon="2.97983">
        <ele>778.6</ele>
        <time>2026-04-30T07:50:07.000Z</time>
      </trkpt>
      <trkpt lat="43.97719" lon="2.97982">
        <ele>779.1</ele>
        <time>2026-04-30T07:50:08.000Z</time>
      </trkpt>
      <trkpt lat="43.97719" lon="2.97981">
        <ele>779.1</ele>
        <time>2026-04-30T07:50:09.000Z</time>
      </trkpt>
      <trkpt lat="43.9772" lon="2.97982">
        <ele>779.1</ele>
        <time>2026-04-30T07:50:10.000Z</time>
      </trkpt>
      <trkpt lat="43.9772" lon="2.97982">
        <ele>779.2</ele>
        <time>2026-04-30T07:50:11.000Z</time>
      </trkpt>
      <trkpt lat="43.97721" lon="2.97981">
        <ele>779.1</ele>
        <time>2026-04-30T07:50:12.000Z</time>
      </trkpt>
      <trkpt lat="43.97721" lon="2.97981">
        <ele>779.2</ele>
        <time>2026-04-30T07:50:13.000Z</time>
      </trkpt>
      <trkpt lat="43.97722" lon="2.9798">
        <ele>779.1</ele>
        <time>2026-04-30T07:50:14.000Z</time>
      </trkpt>
      <trkpt lat="43.97723" lon="2.97979">
        <ele>779.1</ele>
        <time>2026-04-30T07:50:15.000Z</time>
      </trkpt>
      <trkpt lat="43.97723" lon="2.97978">
        <ele>779.2</ele>
        <time>2026-04-30T07:50:16.000Z</time>
      </trkpt>
      <trkpt lat="43.97724" lon="2.97976">
        <ele>778.9</ele>
        <time>2026-04-30T07:50:17.000Z</time>
      </trkpt>
      <trkpt lat="43.97725" lon="2.97975">
        <ele>778.6</ele>
        <time>2026-04-30T07:50:18.000Z</time>
      </trkpt>
      <trkpt lat="43.97725" lon="2.97974">
        <ele>778.4</ele>
        <time>2026-04-30T07:50:19.000Z</time>
      </trkpt>
      <trkpt lat="43.97726" lon="2.97974">
        <ele>778.4</ele>
        <time>2026-04-30T07:50:20.000Z</time>
      </trkpt>
      <trkpt lat="43.97726" lon="2.97974">
        <ele>778.2</ele>
        <time>2026-04-30T07:50:21.000Z</time>
      </trkpt>
      <trkpt lat="43.97726" lon="2.97973">
        <ele>778.3</ele>
        <time>2026-04-30T07:50:22.000Z</time>
      </trkpt>
      <trkpt lat="43.97727" lon="2.97971">
        <ele>778.4</ele>
        <time>2026-04-30T07:50:23.000Z</time>
      </trkpt>
      <trkpt lat="43.97727" lon="2.9797">
        <ele>778.1</ele>
        <time>2026-04-30T07:50:24.000Z</time>
      </trkpt>
      <trkpt lat="43.97727" lon="2.97969">
        <ele>778</ele>
        <time>2026-04-30T07:50:25.000Z</time>
      </trkpt>
      <trkpt lat="43.97728" lon="2.97968">
        <ele>778.2</ele>
        <time>2026-04-30T07:50:26.000Z</time>
      </trkpt>
      <trkpt lat="43.97727" lon="2.97967">
        <ele>778.4</ele>
        <time>2026-04-30T07:50:27.000Z</time>
      </trkpt>
      <trkpt lat="43.97727" lon="2.97966">
        <ele>778.2</ele>
        <time>2026-04-30T07:50:28.000Z</time>
      </trkpt>
      <trkpt lat="43.97727" lon="2.97966">
        <ele>778.6</ele>
        <time>2026-04-30T07:50:29.000Z</time>
      </trkpt>
      <trkpt lat="43.97727" lon="2.97966">
        <ele>778.5</ele>
        <time>2026-04-30T07:50:30.000Z</time>
      </trkpt>
      <trkpt lat="43.97727" lon="2.97965">
        <ele>778.4</ele>
        <time>2026-04-30T07:50:31.000Z</time>
      </trkpt>
      <trkpt lat="43.97727" lon="2.97964">
        <ele>778.7</ele>
        <time>2026-04-30T07:50:32.000Z</time>
      </trkpt>
      <trkpt lat="43.97728" lon="2.97963">
        <ele>779.3</ele>
        <time>2026-04-30T07:50:33.000Z</time>
      </trkpt>
      <trkpt lat="43.97728" lon="2.97963">
        <ele>779.3</ele>
        <time>2026-04-30T07:50:34.000Z</time>
      </trkpt>
      <trkpt lat="43.97729" lon="2.97962">
        <ele>779.3</ele>
        <time>2026-04-30T07:50:35.000Z</time>
      </trkpt>
      <trkpt lat="43.97729" lon="2.97962">
        <ele>779.4</ele>
        <time>2026-04-30T07:50:36.000Z</time>
      </trkpt>
      <trkpt lat="43.97729" lon="2.97962">
        <ele>779.4</ele>
        <time>2026-04-30T07:50:37.000Z</time>
      </trkpt>
      <trkpt lat="43.97729" lon="2.97962">
        <ele>779.6</ele>
        <time>2026-04-30T07:50:38.000Z</time>
      </trkpt>
      <trkpt lat="43.97729" lon="2.97962">
        <ele>779.8</ele>
        <time>2026-04-30T07:50:39.000Z</time>
      </trkpt>
      <trkpt lat="43.97729" lon="2.97962">
        <ele>779.8</ele>
        <time>2026-04-30T07:50:40.000Z</time>
      </trkpt>
      <trkpt lat="43.97729" lon="2.97961">
        <ele>779.8</ele>
        <time>2026-04-30T07:50:41.000Z</time>
      </trkpt>
      <trkpt lat="43.9773" lon="2.97961">
        <ele>780.1</ele>
        <time>2026-04-30T07:50:42.000Z</time>
      </trkpt>
      <trkpt lat="43.9773" lon="2.97961">
        <ele>780.4</ele>
        <time>2026-04-30T07:50:43.000Z</time>
      </trkpt>
      <trkpt lat="43.9773" lon="2.97961">
        <ele>780.5</ele>
        <time>2026-04-30T07:50:44.000Z</time>
      </trkpt>
      <trkpt lat="43.9773" lon="2.97961">
        <ele>780.5</ele>
        <time>2026-04-30T07:50:45.000Z</time>
      </trkpt>
      <trkpt lat="43.97731" lon="2.97961">
        <ele>780.7</ele>
        <time>2026-04-30T07:50:46.000Z</time>
      </trkpt>
      <trkpt lat="43.97731" lon="2.97961">
        <ele>780.9</ele>
        <time>2026-04-30T07:50:47.000Z</time>
      </trkpt>
      <trkpt lat="43.97731" lon="2.9796">
        <ele>781.3</ele>
        <time>2026-04-30T07:50:48.000Z</time>
      </trkpt>
      <trkpt lat="43.97733" lon="2.97958">
        <ele>781.9</ele>
        <time>2026-04-30T07:50:49.000Z</time>
      </trkpt>
      <trkpt lat="43.97734" lon="2.97958">
        <ele>782.1</ele>
        <time>2026-04-30T07:50:50.000Z</time>
      </trkpt>
      <trkpt lat="43.97735" lon="2.97958">
        <ele>782</ele>
        <time>2026-04-30T07:50:51.000Z</time>
      </trkpt>
      <trkpt lat="43.97735" lon="2.97957">
        <ele>781.8</ele>
        <time>2026-04-30T07:50:52.000Z</time>
      </trkpt>
      <trkpt lat="43.97735" lon="2.97955">
        <ele>781.8</ele>
        <time>2026-04-30T07:50:53.000Z</time>
      </trkpt>
      <trkpt lat="43.97735" lon="2.97953">
        <ele>781.7</ele>
        <time>2026-04-30T07:50:54.000Z</time>
      </trkpt>
      <trkpt lat="43.97735" lon="2.97951">
        <ele>781.8</ele>
        <time>2026-04-30T07:50:55.000Z</time>
      </trkpt>
      <trkpt lat="43.97736" lon="2.9795">
        <ele>781.8</ele>
        <time>2026-04-30T07:50:56.000Z</time>
      </trkpt>
      <trkpt lat="43.97736" lon="2.9795">
        <ele>781.8</ele>
        <time>2026-04-30T07:50:57.000Z</time>
      </trkpt>
      <trkpt lat="43.97737" lon="2.9795">
        <ele>781.9</ele>
        <time>2026-04-30T07:50:58.000Z</time>
      </trkpt>
      <trkpt lat="43.97736" lon="2.97949">
        <ele>782.1</ele>
        <time>2026-04-30T07:50:59.000Z</time>
      </trkpt>
      <trkpt lat="43.97736" lon="2.97948">
        <ele>782.1</ele>
        <time>2026-04-30T07:51:00.000Z</time>
      </trkpt>
      <trkpt lat="43.97736" lon="2.97948">
        <ele>782</ele>
        <time>2026-04-30T07:51:01.000Z</time>
      </trkpt>
      <trkpt lat="43.97736" lon="2.97948">
        <ele>781.8</ele>
        <time>2026-04-30T07:51:02.000Z</time>
      </trkpt>
      <trkpt lat="43.97735" lon="2.97947">
        <ele>781.9</ele>
        <time>2026-04-30T07:51:03.000Z</time>
      </trkpt>
      <trkpt lat="43.97735" lon="2.97946">
        <ele>781.8</ele>
        <time>2026-04-30T07:51:04.000Z</time>
      </trkpt>
      <trkpt lat="43.97734" lon="2.97944">
        <ele>782</ele>
        <time>2026-04-30T07:51:05.000Z</time>
      </trkpt>
      <trkpt lat="43.97734" lon="2.97944">
        <ele>782.1</ele>
        <time>2026-04-30T07:51:06.000Z</time>
      </trkpt>
      <trkpt lat="43.97735" lon="2.97944">
        <ele>782.1</ele>
        <time>2026-04-30T07:51:07.000Z</time>
      </trkpt>
      <trkpt lat="43.97735" lon="2.97943">
        <ele>782.3</ele>
        <time>2026-04-30T07:51:08.000Z</time>
      </trkpt>
      <trkpt lat="43.97735" lon="2.97943">
        <ele>782.3</ele>
        <time>2026-04-30T07:51:09.000Z</time>
      </trkpt>
      <trkpt lat="43.97735" lon="2.97942">
        <ele>782.3</ele>
        <time>2026-04-30T07:51:10.000Z</time>
      </trkpt>
      <trkpt lat="43.97735" lon="2.97941">
        <ele>782.4</ele>
        <time>2026-04-30T07:51:11.000Z</time>
      </trkpt>
      <trkpt lat="43.97736" lon="2.97941">
        <ele>782.6</ele>
        <time>2026-04-30T07:51:12.000Z</time>
      </trkpt>
      <trkpt lat="43.97737" lon="2.9794">
        <ele>782.9</ele>
        <time>2026-04-30T07:51:13.000Z</time>
      </trkpt>
      <trkpt lat="43.97738" lon="2.9794">
        <ele>783.2</ele>
        <time>2026-04-30T07:51:14.000Z</time>
      </trkpt>
      <trkpt lat="43.97739" lon="2.9794">
        <ele>783.4</ele>
        <time>2026-04-30T07:51:15.000Z</time>
      </trkpt>
      <trkpt lat="43.9774" lon="2.9794">
        <ele>783.6</ele>
        <time>2026-04-30T07:51:16.000Z</time>
      </trkpt>
      <trkpt lat="43.9774" lon="2.9794">
        <ele>783.8</ele>
        <time>2026-04-30T07:51:17.000Z</time>
      </trkpt>
      <trkpt lat="43.9774" lon="2.97939">
        <ele>783.9</ele>
        <time>2026-04-30T07:51:18.000Z</time>
      </trkpt>
      <trkpt lat="43.97741" lon="2.97939">
        <ele>783.9</ele>
        <time>2026-04-30T07:51:19.000Z</time>
      </trkpt>
      <trkpt lat="43.97741" lon="2.97939">
        <ele>783.9</ele>
        <time>2026-04-30T07:51:20.000Z</time>
      </trkpt>
      <trkpt lat="43.97741" lon="2.97938">
        <ele>783.7</ele>
        <time>2026-04-30T07:51:21.000Z</time>
      </trkpt>
      <trkpt lat="43.97741" lon="2.97937">
        <ele>783.4</ele>
        <time>2026-04-30T07:51:22.000Z</time>
      </trkpt>
      <trkpt lat="43.97741" lon="2.97936">
        <ele>783.1</ele>
        <time>2026-04-30T07:51:23.000Z</time>
      </trkpt>
      <trkpt lat="43.97741" lon="2.97935">
        <ele>782.9</ele>
        <time>2026-04-30T07:51:24.000Z</time>
      </trkpt>
      <trkpt lat="43.97741" lon="2.97935">
        <ele>782.6</ele>
        <time>2026-04-30T07:51:25.000Z</time>
      </trkpt>
      <trkpt lat="43.97741" lon="2.97934">
        <ele>782.6</ele>
        <time>2026-04-30T07:51:26.000Z</time>
      </trkpt>
      <trkpt lat="43.97741" lon="2.97933">
        <ele>782.8</ele>
        <time>2026-04-30T07:51:27.000Z</time>
      </trkpt>
      <trkpt lat="43.97742" lon="2.97932">
        <ele>782.4</ele>
        <time>2026-04-30T07:51:28.000Z</time>
      </trkpt>
      <trkpt lat="43.97742" lon="2.97931">
        <ele>782.1</ele>
        <time>2026-04-30T07:51:29.000Z</time>
      </trkpt>
      <trkpt lat="43.97742" lon="2.9793">
        <ele>782.4</ele>
        <time>2026-04-30T07:51:30.000Z</time>
      </trkpt>
      <trkpt lat="43.97743" lon="2.97929">
        <ele>782.3</ele>
        <time>2026-04-30T07:51:31.000Z</time>
      </trkpt>
      <trkpt lat="43.97743" lon="2.97926">
        <ele>782</ele>
        <time>2026-04-30T07:51:32.000Z</time>
      </trkpt>
      <trkpt lat="43.97743" lon="2.97924">
        <ele>782.2</ele>
        <time>2026-04-30T07:51:33.000Z</time>
      </trkpt>
      <trkpt lat="43.97743" lon="2.97924">
        <ele>781.9</ele>
        <time>2026-04-30T07:51:34.000Z</time>
      </trkpt>
      <trkpt lat="43.97744" lon="2.97922">
        <ele>781.9</ele>
        <time>2026-04-30T07:51:35.000Z</time>
      </trkpt>
      <trkpt lat="43.97744" lon="2.97921">
        <ele>782</ele>
        <time>2026-04-30T07:51:36.000Z</time>
      </trkpt>
      <trkpt lat="43.97745" lon="2.97919">
        <ele>782.1</ele>
        <time>2026-04-30T07:51:37.000Z</time>
      </trkpt>
      <trkpt lat="43.97745" lon="2.97918">
        <ele>782.2</ele>
        <time>2026-04-30T07:51:38.000Z</time>
      </trkpt>
      <trkpt lat="43.97745" lon="2.97917">
        <ele>782.3</ele>
        <time>2026-04-30T07:51:39.000Z</time>
      </trkpt>
      <trkpt lat="43.97745" lon="2.97916">
        <ele>782.1</ele>
        <time>2026-04-30T07:51:40.000Z</time>
      </trkpt>
      <trkpt lat="43.97745" lon="2.97915">
        <ele>782.2</ele>
        <time>2026-04-30T07:51:41.000Z</time>
      </trkpt>
      <trkpt lat="43.97745" lon="2.97915">
        <ele>782.8</ele>
        <time>2026-04-30T07:51:42.000Z</time>
      </trkpt>
      <trkpt lat="43.97745" lon="2.97915">
        <ele>782.9</ele>
        <time>2026-04-30T07:51:43.000Z</time>
      </trkpt>
      <trkpt lat="43.97744" lon="2.97915">
        <ele>783.4</ele>
        <time>2026-04-30T07:51:44.000Z</time>
      </trkpt>
      <trkpt lat="43.97744" lon="2.97915">
        <ele>783.7</ele>
        <time>2026-04-30T07:51:45.000Z</time>
      </trkpt>
      <trkpt lat="43.97744" lon="2.97915">
        <ele>783.9</ele>
        <time>2026-04-30T07:51:46.000Z</time>
      </trkpt>
      <trkpt lat="43.97744" lon="2.97915">
        <ele>784.2</ele>
        <time>2026-04-30T07:51:47.000Z</time>
      </trkpt>
      <trkpt lat="43.97743" lon="2.97916">
        <ele>784.3</ele>
        <time>2026-04-30T07:51:48.000Z</time>
      </trkpt>
      <trkpt lat="43.97742" lon="2.97917">
        <ele>784.6</ele>
        <time>2026-04-30T07:51:49.000Z</time>
      </trkpt>
      <trkpt lat="43.97742" lon="2.97918">
        <ele>784.8</ele>
        <time>2026-04-30T07:51:50.000Z</time>
      </trkpt>
      <trkpt lat="43.97741" lon="2.97919">
        <ele>785</ele>
        <time>2026-04-30T07:51:51.000Z</time>
      </trkpt>
      <trkpt lat="43.9774" lon="2.9792">
        <ele>785.3</ele>
        <time>2026-04-30T07:51:52.000Z</time>
      </trkpt>
      <trkpt lat="43.97739" lon="2.9792">
        <ele>786.3</ele>
        <time>2026-04-30T07:51:53.000Z</time>
      </trkpt>
      <trkpt lat="43.97739" lon="2.9792">
        <ele>787</ele>
        <time>2026-04-30T07:51:54.000Z</time>
      </trkpt>
      <trkpt lat="43.97738" lon="2.97921">
        <ele>787.2</ele>
        <time>2026-04-30T07:51:55.000Z</time>
      </trkpt>
      <trkpt lat="43.97738" lon="2.97921">
        <ele>787.6</ele>
        <time>2026-04-30T07:51:56.000Z</time>
      </trkpt>
      <trkpt lat="43.97738" lon="2.97921">
        <ele>787.8</ele>
        <time>2026-04-30T07:51:57.000Z</time>
      </trkpt>
      <trkpt lat="43.97737" lon="2.97921">
        <ele>788.3</ele>
        <time>2026-04-30T07:51:58.000Z</time>
      </trkpt>
      <trkpt lat="43.97737" lon="2.97921">
        <ele>788.8</ele>
        <time>2026-04-30T07:51:59.000Z</time>
      </trkpt>
      <trkpt lat="43.97737" lon="2.9792">
        <ele>789</ele>
        <time>2026-04-30T07:52:00.000Z</time>
      </trkpt>
      <trkpt lat="43.97737" lon="2.97921">
        <ele>789.1</ele>
        <time>2026-04-30T07:52:01.000Z</time>
      </trkpt>
      <trkpt lat="43.97737" lon="2.97921">
        <ele>789.2</ele>
        <time>2026-04-30T07:52:02.000Z</time>
      </trkpt>
      <trkpt lat="43.97737" lon="2.97922">
        <ele>789.5</ele>
        <time>2026-04-30T07:52:03.000Z</time>
      </trkpt>
      <trkpt lat="43.97737" lon="2.97922">
        <ele>789.9</ele>
        <time>2026-04-30T07:52:04.000Z</time>
      </trkpt>
      <trkpt lat="43.97737" lon="2.97922">
        <ele>790.5</ele>
        <time>2026-04-30T07:52:05.000Z</time>
      </trkpt>
      <trkpt lat="43.97737" lon="2.97922">
        <ele>791</ele>
        <time>2026-04-30T07:52:06.000Z</time>
      </trkpt>
      <trkpt lat="43.97737" lon="2.97921">
        <ele>791.2</ele>
        <time>2026-04-30T07:52:07.000Z</time>
      </trkpt>
      <trkpt lat="43.97737" lon="2.97921">
        <ele>791.4</ele>
        <time>2026-04-30T07:52:08.000Z</time>
      </trkpt>
      <trkpt lat="43.97737" lon="2.9792">
        <ele>791.2</ele>
        <time>2026-04-30T07:52:09.000Z</time>
      </trkpt>
      <trkpt lat="43.97738" lon="2.97919">
        <ele>791.3</ele>
        <time>2026-04-30T07:52:10.000Z</time>
      </trkpt>
      <trkpt lat="43.97739" lon="2.97918">
        <ele>791.4</ele>
        <time>2026-04-30T07:52:11.000Z</time>
      </trkpt>
      <trkpt lat="43.97739" lon="2.97917">
        <ele>791.6</ele>
        <time>2026-04-30T07:52:12.000Z</time>
      </trkpt>
      <trkpt lat="43.97739" lon="2.97916">
        <ele>791.9</ele>
        <time>2026-04-30T07:52:13.000Z</time>
      </trkpt>
      <trkpt lat="43.9774" lon="2.97915">
        <ele>792.2</ele>
        <time>2026-04-30T07:52:14.000Z</time>
      </trkpt>
      <trkpt lat="43.9774" lon="2.97914">
        <ele>792.4</ele>
        <time>2026-04-30T07:52:15.000Z</time>
      </trkpt>
      <trkpt lat="43.9774" lon="2.97914">
        <ele>792.4</ele>
        <time>2026-04-30T07:52:16.000Z</time>
      </trkpt>
      <trkpt lat="43.97741" lon="2.97914">
        <ele>792.1</ele>
        <time>2026-04-30T07:52:17.000Z</time>
      </trkpt>
      <trkpt lat="43.9774" lon="2.97914">
        <ele>791.8</ele>
        <time>2026-04-30T07:52:18.000Z</time>
      </trkpt>
      <trkpt lat="43.9774" lon="2.97913">
        <ele>791.6</ele>
        <time>2026-04-30T07:52:19.000Z</time>
      </trkpt>
      <trkpt lat="43.9774" lon="2.97913">
        <ele>791.6</ele>
        <time>2026-04-30T07:52:20.000Z</time>
      </trkpt>
      <trkpt lat="43.9774" lon="2.97912">
        <ele>791.5</ele>
        <time>2026-04-30T07:52:21.000Z</time>
      </trkpt>
      <trkpt lat="43.9774" lon="2.97911">
        <ele>791.4</ele>
        <time>2026-04-30T07:52:22.000Z</time>
      </trkpt>
      <trkpt lat="43.9774" lon="2.9791">
        <ele>791.4</ele>
        <time>2026-04-30T07:52:23.000Z</time>
      </trkpt>
      <trkpt lat="43.9774" lon="2.97909">
        <ele>791.7</ele>
        <time>2026-04-30T07:52:24.000Z</time>
      </trkpt>
      <trkpt lat="43.97741" lon="2.97908">
        <ele>791.6</ele>
        <time>2026-04-30T07:52:25.000Z</time>
      </trkpt>
      <trkpt lat="43.97741" lon="2.97906">
        <ele>791.6</ele>
        <time>2026-04-30T07:52:26.000Z</time>
      </trkpt>
      <trkpt lat="43.9774" lon="2.97904">
        <ele>791.7</ele>
        <time>2026-04-30T07:52:27.000Z</time>
      </trkpt>
      <trkpt lat="43.9774" lon="2.97903">
        <ele>791.6</ele>
        <time>2026-04-30T07:52:28.000Z</time>
      </trkpt>
      <trkpt lat="43.97741" lon="2.97901">
        <ele>791.7</ele>
        <time>2026-04-30T07:52:29.000Z</time>
      </trkpt>
      <trkpt lat="43.97742" lon="2.979">
        <ele>791.6</ele>
        <time>2026-04-30T07:52:30.000Z</time>
      </trkpt>
      <trkpt lat="43.97742" lon="2.97899">
        <ele>791</ele>
        <time>2026-04-30T07:52:31.000Z</time>
      </trkpt>
      <trkpt lat="43.97742" lon="2.97898">
        <ele>790.9</ele>
        <time>2026-04-30T07:52:32.000Z</time>
      </trkpt>
      <trkpt lat="43.97743" lon="2.97897">
        <ele>790.8</ele>
        <time>2026-04-30T07:52:33.000Z</time>
      </trkpt>
      <trkpt lat="43.97743" lon="2.97896">
        <ele>790.9</ele>
        <time>2026-04-30T07:52:34.000Z</time>
      </trkpt>
      <trkpt lat="43.97744" lon="2.97895">
        <ele>790.6</ele>
        <time>2026-04-30T07:52:35.000Z</time>
      </trkpt>
      <trkpt lat="43.97745" lon="2.97894">
        <ele>790.3</ele>
        <time>2026-04-30T07:52:36.000Z</time>
      </trkpt>
      <trkpt lat="43.97745" lon="2.97893">
        <ele>790.2</ele>
        <time>2026-04-30T07:52:37.000Z</time>
      </trkpt>
      <trkpt lat="43.97745" lon="2.9789">
        <ele>790.2</ele>
        <time>2026-04-30T07:52:38.000Z</time>
      </trkpt>
      <trkpt lat="43.97745" lon="2.97888">
        <ele>789.8</ele>
        <time>2026-04-30T07:52:39.000Z</time>
      </trkpt>
      <trkpt lat="43.97746" lon="2.97887">
        <ele>789.3</ele>
        <time>2026-04-30T07:52:40.000Z</time>
      </trkpt>
      <trkpt lat="43.97746" lon="2.97886">
        <ele>788.8</ele>
        <time>2026-04-30T07:52:41.000Z</time>
      </trkpt>
      <trkpt lat="43.97746" lon="2.97886">
        <ele>788.5</ele>
        <time>2026-04-30T07:52:42.000Z</time>
      </trkpt>
      <trkpt lat="43.97746" lon="2.97885">
        <ele>787.9</ele>
        <time>2026-04-30T07:52:43.000Z</time>
      </trkpt>
      <trkpt lat="43.97745" lon="2.97883">
        <ele>787.3</ele>
        <time>2026-04-30T07:52:44.000Z</time>
      </trkpt>
      <trkpt lat="43.97746" lon="2.97882">
        <ele>786.9</ele>
        <time>2026-04-30T07:52:45.000Z</time>
      </trkpt>
      <trkpt lat="43.97746" lon="2.97881">
        <ele>787</ele>
        <time>2026-04-30T07:52:46.000Z</time>
      </trkpt>
      <trkpt lat="43.97746" lon="2.97879">
        <ele>787</ele>
        <time>2026-04-30T07:52:47.000Z</time>
      </trkpt>
      <trkpt lat="43.97746" lon="2.97878">
        <ele>786.6</ele>
        <time>2026-04-30T07:52:48.000Z</time>
      </trkpt>
      <trkpt lat="43.97746" lon="2.97877">
        <ele>786.6</ele>
        <time>2026-04-30T07:52:49.000Z</time>
      </trkpt>
      <trkpt lat="43.97747" lon="2.97877">
        <ele>786.5</ele>
        <time>2026-04-30T07:52:50.000Z</time>
      </trkpt>
      <trkpt lat="43.97747" lon="2.97876">
        <ele>786.5</ele>
        <time>2026-04-30T07:52:51.000Z</time>
      </trkpt>
      <trkpt lat="43.97747" lon="2.97875">
        <ele>786.2</ele>
        <time>2026-04-30T07:52:52.000Z</time>
      </trkpt>
      <trkpt lat="43.97748" lon="2.97874">
        <ele>785.7</ele>
        <time>2026-04-30T07:52:53.000Z</time>
      </trkpt>
      <trkpt lat="43.97748" lon="2.97873">
        <ele>785.4</ele>
        <time>2026-04-30T07:52:54.000Z</time>
      </trkpt>
      <trkpt lat="43.97748" lon="2.97872">
        <ele>785.3</ele>
        <time>2026-04-30T07:52:55.000Z</time>
      </trkpt>
      <trkpt lat="43.97747" lon="2.97871">
        <ele>785.5</ele>
        <time>2026-04-30T07:52:56.000Z</time>
      </trkpt>
      <trkpt lat="43.97747" lon="2.9787">
        <ele>785.6</ele>
        <time>2026-04-30T07:52:57.000Z</time>
      </trkpt>
      <trkpt lat="43.97747" lon="2.97869">
        <ele>785.5</ele>
        <time>2026-04-30T07:52:58.000Z</time>
      </trkpt>
      <trkpt lat="43.97746" lon="2.97868">
        <ele>785.2</ele>
        <time>2026-04-30T07:52:59.000Z</time>
      </trkpt>
      <trkpt lat="43.97746" lon="2.97867">
        <ele>785</ele>
        <time>2026-04-30T07:53:00.000Z</time>
      </trkpt>
      <trkpt lat="43.97746" lon="2.97866">
        <ele>785.1</ele>
        <time>2026-04-30T07:53:01.000Z</time>
      </trkpt>
      <trkpt lat="43.97746" lon="2.97866">
        <ele>784.6</ele>
        <time>2026-04-30T07:53:02.000Z</time>
      </trkpt>
      <trkpt lat="43.97746" lon="2.97865">
        <ele>784.6</ele>
        <time>2026-04-30T07:53:03.000Z</time>
      </trkpt>
      <trkpt lat="43.97747" lon="2.97865">
        <ele>784.6</ele>
        <time>2026-04-30T07:53:04.000Z</time>
      </trkpt>
      <trkpt lat="43.97747" lon="2.97864">
        <ele>784.2</ele>
        <time>2026-04-30T07:53:05.000Z</time>
      </trkpt>
      <trkpt lat="43.97747" lon="2.97862">
        <ele>783.9</ele>
        <time>2026-04-30T07:53:06.000Z</time>
      </trkpt>
      <trkpt lat="43.97748" lon="2.97861">
        <ele>783.9</ele>
        <time>2026-04-30T07:53:07.000Z</time>
      </trkpt>
      <trkpt lat="43.97748" lon="2.9786">
        <ele>784</ele>
        <time>2026-04-30T07:53:08.000Z</time>
      </trkpt>
      <trkpt lat="43.97748" lon="2.97859">
        <ele>784.3</ele>
        <time>2026-04-30T07:53:09.000Z</time>
      </trkpt>
      <trkpt lat="43.97749" lon="2.97858">
        <ele>784.7</ele>
        <time>2026-04-30T07:53:10.000Z</time>
      </trkpt>
      <trkpt lat="43.97748" lon="2.97858">
        <ele>784.9</ele>
        <time>2026-04-30T07:53:11.000Z</time>
      </trkpt>
      <trkpt lat="43.97748" lon="2.97857">
        <ele>785.4</ele>
        <time>2026-04-30T07:53:12.000Z</time>
      </trkpt>
      <trkpt lat="43.97747" lon="2.97857">
        <ele>786</ele>
        <time>2026-04-30T07:53:13.000Z</time>
      </trkpt>
      <trkpt lat="43.97747" lon="2.97855">
        <ele>786.5</ele>
        <time>2026-04-30T07:53:14.000Z</time>
      </trkpt>
      <trkpt lat="43.97747" lon="2.97855">
        <ele>786.8</ele>
        <time>2026-04-30T07:53:15.000Z</time>
      </trkpt>
      <trkpt lat="43.97747" lon="2.97854">
        <ele>786.9</ele>
        <time>2026-04-30T07:53:16.000Z</time>
      </trkpt>
      <trkpt lat="43.97747" lon="2.97853">
        <ele>786.9</ele>
        <time>2026-04-30T07:53:17.000Z</time>
      </trkpt>
      <trkpt lat="43.97747" lon="2.97852">
        <ele>786.9</ele>
        <time>2026-04-30T07:53:18.000Z</time>
      </trkpt>
      <trkpt lat="43.97747" lon="2.97851">
        <ele>787.6</ele>
        <time>2026-04-30T07:53:19.000Z</time>
      </trkpt>
      <trkpt lat="43.97748" lon="2.97851">
        <ele>788</ele>
        <time>2026-04-30T07:53:20.000Z</time>
      </trkpt>
      <trkpt lat="43.97748" lon="2.9785">
        <ele>788.8</ele>
        <time>2026-04-30T07:53:21.000Z</time>
      </trkpt>
      <trkpt lat="43.97748" lon="2.97849">
        <ele>789.1</ele>
        <time>2026-04-30T07:53:22.000Z</time>
      </trkpt>
      <trkpt lat="43.97749" lon="2.97848">
        <ele>788.9</ele>
        <time>2026-04-30T07:53:23.000Z</time>
      </trkpt>
      <trkpt lat="43.97749" lon="2.97847">
        <ele>789.1</ele>
        <time>2026-04-30T07:53:24.000Z</time>
      </trkpt>
      <trkpt lat="43.9775" lon="2.97846">
        <ele>789.5</ele>
        <time>2026-04-30T07:53:25.000Z</time>
      </trkpt>
      <trkpt lat="43.97751" lon="2.97844">
        <ele>789.7</ele>
        <time>2026-04-30T07:53:26.000Z</time>
      </trkpt>
      <trkpt lat="43.97751" lon="2.97842">
        <ele>789.8</ele>
        <time>2026-04-30T07:53:27.000Z</time>
      </trkpt>
      <trkpt lat="43.97752" lon="2.9784">
        <ele>790</ele>
        <time>2026-04-30T07:53:28.000Z</time>
      </trkpt>
      <trkpt lat="43.97753" lon="2.97839">
        <ele>790</ele>
        <time>2026-04-30T07:53:29.000Z</time>
      </trkpt>
      <trkpt lat="43.97754" lon="2.97838">
        <ele>790.2</ele>
        <time>2026-04-30T07:53:30.000Z</time>
      </trkpt>
      <trkpt lat="43.97755" lon="2.97837">
        <ele>791</ele>
        <time>2026-04-30T07:53:31.000Z</time>
      </trkpt>
      <trkpt lat="43.97756" lon="2.97837">
        <ele>791.6</ele>
        <time>2026-04-30T07:53:32.000Z</time>
      </trkpt>
      <trkpt lat="43.97758" lon="2.97837">
        <ele>792.5</ele>
        <time>2026-04-30T07:53:33.000Z</time>
      </trkpt>
      <trkpt lat="43.97759" lon="2.97836">
        <ele>793.3</ele>
        <time>2026-04-30T07:53:34.000Z</time>
      </trkpt>
      <trkpt lat="43.97759" lon="2.97835">
        <ele>793.9</ele>
        <time>2026-04-30T07:53:35.000Z</time>
      </trkpt>
      <trkpt lat="43.9776" lon="2.97834">
        <ele>794.5</ele>
        <time>2026-04-30T07:53:36.000Z</time>
      </trkpt>
      <trkpt lat="43.97761" lon="2.97833">
        <ele>795</ele>
        <time>2026-04-30T07:53:37.000Z</time>
      </trkpt>
      <trkpt lat="43.97762" lon="2.97832">
        <ele>795.4</ele>
        <time>2026-04-30T07:53:38.000Z</time>
      </trkpt>
      <trkpt lat="43.97762" lon="2.97832">
        <ele>795.8</ele>
        <time>2026-04-30T07:53:39.000Z</time>
      </trkpt>
      <trkpt lat="43.97762" lon="2.97832">
        <ele>795.9</ele>
        <time>2026-04-30T07:53:40.000Z</time>
      </trkpt>
      <trkpt lat="43.97763" lon="2.97832">
        <ele>796.3</ele>
        <time>2026-04-30T07:53:41.000Z</time>
      </trkpt>
      <trkpt lat="43.97763" lon="2.97832">
        <ele>796.3</ele>
        <time>2026-04-30T07:53:42.000Z</time>
      </trkpt>
      <trkpt lat="43.97764" lon="2.9783">
        <ele>796.4</ele>
        <time>2026-04-30T07:53:43.000Z</time>
      </trkpt>
      <trkpt lat="43.97764" lon="2.97829">
        <ele>796.4</ele>
        <time>2026-04-30T07:53:44.000Z</time>
      </trkpt>
      <trkpt lat="43.97764" lon="2.97828">
        <ele>796.3</ele>
        <time>2026-04-30T07:53:45.000Z</time>
      </trkpt>
      <trkpt lat="43.97763" lon="2.97828">
        <ele>796.5</ele>
        <time>2026-04-30T07:53:46.000Z</time>
      </trkpt>
      <trkpt lat="43.97764" lon="2.97827">
        <ele>797.5</ele>
        <time>2026-04-30T07:53:47.000Z</time>
      </trkpt>
      <trkpt lat="43.97764" lon="2.97827">
        <ele>798.4</ele>
        <time>2026-04-30T07:53:48.000Z</time>
      </trkpt>
      <trkpt lat="43.97764" lon="2.97828">
        <ele>799.3</ele>
        <time>2026-04-30T07:53:49.000Z</time>
      </trkpt>
      <trkpt lat="43.97764" lon="2.97828">
        <ele>800</ele>
        <time>2026-04-30T07:53:50.000Z</time>
      </trkpt>
      <trkpt lat="43.97764" lon="2.97828">
        <ele>800.4</ele>
        <time>2026-04-30T07:53:51.000Z</time>
      </trkpt>
      <trkpt lat="43.97764" lon="2.97828">
        <ele>800.7</ele>
        <time>2026-04-30T07:53:52.000Z</time>
      </trkpt>
      <trkpt lat="43.97764" lon="2.97827">
        <ele>801.1</ele>
        <time>2026-04-30T07:53:53.000Z</time>
      </trkpt>
      <trkpt lat="43.97764" lon="2.97827">
        <ele>801.2</ele>
        <time>2026-04-30T07:53:54.000Z</time>
      </trkpt>
      <trkpt lat="43.97764" lon="2.97827">
        <ele>801.7</ele>
        <time>2026-04-30T07:53:55.000Z</time>
      </trkpt>
      <trkpt lat="43.97764" lon="2.97827">
        <ele>802.1</ele>
        <time>2026-04-30T07:53:56.000Z</time>
      </trkpt>
      <trkpt lat="43.97764" lon="2.97827">
        <ele>802.2</ele>
        <time>2026-04-30T07:53:57.000Z</time>
      </trkpt>
      <trkpt lat="43.97764" lon="2.97827">
        <ele>802.2</ele>
        <time>2026-04-30T07:53:58.000Z</time>
      </trkpt>
      <trkpt lat="43.97764" lon="2.97827">
        <ele>802.3</ele>
        <time>2026-04-30T07:53:59.000Z</time>
      </trkpt>
      <trkpt lat="43.97764" lon="2.97827">
        <ele>802.3</ele>
        <time>2026-04-30T07:54:00.000Z</time>
      </trkpt>
      <trkpt lat="43.97764" lon="2.97827">
        <ele>802.1</ele>
        <time>2026-04-30T07:54:01.000Z</time>
      </trkpt>
      <trkpt lat="43.97764" lon="2.97827">
        <ele>802.4</ele>
        <time>2026-04-30T07:54:02.000Z</time>
      </trkpt>
      <trkpt lat="43.97764" lon="2.97827">
        <ele>802.8</ele>
        <time>2026-04-30T07:54:03.000Z</time>
      </trkpt>
      <trkpt lat="43.97764" lon="2.97827">
        <ele>803</ele>
        <time>2026-04-30T07:54:04.000Z</time>
      </trkpt>
      <trkpt lat="43.97764" lon="2.97827">
        <ele>803.1</ele>
        <time>2026-04-30T07:54:05.000Z</time>
      </trkpt>
      <trkpt lat="43.97764" lon="2.97827">
        <ele>803.4</ele>
        <time>2026-04-30T07:54:06.000Z</time>
      </trkpt>
      <trkpt lat="43.97764" lon="2.97827">
        <ele>803.6</ele>
        <time>2026-04-30T07:54:07.000Z</time>
      </trkpt>
      <trkpt lat="43.97764" lon="2.97827">
        <ele>803.8</ele>
        <time>2026-04-30T07:54:08.000Z</time>
      </trkpt>
      <trkpt lat="43.97764" lon="2.97828">
        <ele>803.9</ele>
        <time>2026-04-30T07:54:09.000Z</time>
      </trkpt>
      <trkpt lat="43.97764" lon="2.97828">
        <ele>804</ele>
        <time>2026-04-30T07:54:10.000Z</time>
      </trkpt>
      <trkpt lat="43.97764" lon="2.97828">
        <ele>804.2</ele>
        <time>2026-04-30T07:54:11.000Z</time>
      </trkpt>
      <trkpt lat="43.97764" lon="2.97828">
        <ele>804.6</ele>
        <time>2026-04-30T07:54:12.000Z</time>
      </trkpt>
      <trkpt lat="43.97765" lon="2.97828">
        <ele>804.6</ele>
        <time>2026-04-30T07:54:13.000Z</time>
      </trkpt>
      <trkpt lat="43.97765" lon="2.97827">
        <ele>804.3</ele>
        <time>2026-04-30T07:54:14.000Z</time>
      </trkpt>
      <trkpt lat="43.97765" lon="2.97827">
        <ele>804.3</ele>
        <time>2026-04-30T07:54:15.000Z</time>
      </trkpt>
      <trkpt lat="43.97765" lon="2.97827">
        <ele>804.2</ele>
        <time>2026-04-30T07:54:16.000Z</time>
      </trkpt>
      <trkpt lat="43.97765" lon="2.97827">
        <ele>804.1</ele>
        <time>2026-04-30T07:54:17.000Z</time>
      </trkpt>
      <trkpt lat="43.97765" lon="2.97827">
        <ele>804.1</ele>
        <time>2026-04-30T07:54:18.000Z</time>
      </trkpt>
      <trkpt lat="43.97765" lon="2.97827">
        <ele>803.9</ele>
        <time>2026-04-30T07:54:19.000Z</time>
      </trkpt>
      <trkpt lat="43.97765" lon="2.97827">
        <ele>803.9</ele>
        <time>2026-04-30T07:54:20.000Z</time>
      </trkpt>
      <trkpt lat="43.97765" lon="2.97827">
        <ele>803.7</ele>
        <time>2026-04-30T07:54:21.000Z</time>
      </trkpt>
      <trkpt lat="43.97765" lon="2.97827">
        <ele>803.4</ele>
        <time>2026-04-30T07:54:22.000Z</time>
      </trkpt>
      <trkpt lat="43.97765" lon="2.97827">
        <ele>803.4</ele>
        <time>2026-04-30T07:54:23.000Z</time>
      </trkpt>
      <trkpt lat="43.97765" lon="2.97827">
        <ele>803.3</ele>
        <time>2026-04-30T07:54:24.000Z</time>
      </trkpt>
      <trkpt lat="43.97765" lon="2.97827">
        <ele>803.4</ele>
        <time>2026-04-30T07:54:25.000Z</time>
      </trkpt>
      <trkpt lat="43.97766" lon="2.97827">
        <ele>803.7</ele>
        <time>2026-04-30T07:54:26.000Z</time>
      </trkpt>
      <trkpt lat="43.97766" lon="2.97827">
        <ele>804.2</ele>
        <time>2026-04-30T07:54:27.000Z</time>
      </trkpt>
      <trkpt lat="43.97766" lon="2.97827">
        <ele>804.5</ele>
        <time>2026-04-30T07:54:28.000Z</time>
      </trkpt>
      <trkpt lat="43.97766" lon="2.97827">
        <ele>804.7</ele>
        <time>2026-04-30T07:54:29.000Z</time>
      </trkpt>
      <trkpt lat="43.97766" lon="2.97827">
        <ele>804.7</ele>
        <time>2026-04-30T07:54:30.000Z</time>
      </trkpt>
      <trkpt lat="43.97766" lon="2.97827">
        <ele>804.7</ele>
        <time>2026-04-30T07:54:31.000Z</time>
      </trkpt>
      <trkpt lat="43.97766" lon="2.97827">
        <ele>804.7</ele>
        <time>2026-04-30T07:54:32.000Z</time>
      </trkpt>
      <trkpt lat="43.97766" lon="2.97827">
        <ele>804.6</ele>
        <time>2026-04-30T07:54:33.000Z</time>
      </trkpt>
      <trkpt lat="43.97766" lon="2.97827">
        <ele>804.6</ele>
        <time>2026-04-30T07:54:34.000Z</time>
      </trkpt>
      <trkpt lat="43.97766" lon="2.97827">
        <ele>804.5</ele>
        <time>2026-04-30T07:54:35.000Z</time>
      </trkpt>
      <trkpt lat="43.97766" lon="2.97827">
        <ele>804.7</ele>
        <time>2026-04-30T07:54:36.000Z</time>
      </trkpt>
      <trkpt lat="43.97766" lon="2.97827">
        <ele>804.9</ele>
        <time>2026-04-30T07:54:37.000Z</time>
      </trkpt>
      <trkpt lat="43.97766" lon="2.97827">
        <ele>805.1</ele>
        <time>2026-04-30T07:54:38.000Z</time>
      </trkpt>
      <trkpt lat="43.97766" lon="2.97827">
        <ele>805.1</ele>
        <time>2026-04-30T07:54:39.000Z</time>
      </trkpt>
      <trkpt lat="43.97766" lon="2.97827">
        <ele>805.3</ele>
        <time>2026-04-30T07:54:40.000Z</time>
      </trkpt>
      <trkpt lat="43.97766" lon="2.97827">
        <ele>805.5</ele>
        <time>2026-04-30T07:54:41.000Z</time>
      </trkpt>
      <trkpt lat="43.97766" lon="2.97827">
        <ele>805.6</ele>
        <time>2026-04-30T07:54:42.000Z</time>
      </trkpt>
      <trkpt lat="43.97766" lon="2.97827">
        <ele>805.9</ele>
        <time>2026-04-30T07:54:43.000Z</time>
      </trkpt>
      <trkpt lat="43.97766" lon="2.97827">
        <ele>806</ele>
        <time>2026-04-30T07:54:44.000Z</time>
      </trkpt>
      <trkpt lat="43.97766" lon="2.97827">
        <ele>805.9</ele>
        <time>2026-04-30T07:54:45.000Z</time>
      </trkpt>
      <trkpt lat="43.97766" lon="2.97826">
        <ele>806</ele>
        <time>2026-04-30T07:54:46.000Z</time>
      </trkpt>
      <trkpt lat="43.97766" lon="2.97826">
        <ele>806.3</ele>
        <time>2026-04-30T07:54:48.000Z</time>
      </trkpt>
      <trkpt lat="43.97766" lon="2.97826">
        <ele>806.2</ele>
        <time>2026-04-30T07:54:49.000Z</time>
      </trkpt>
      <trkpt lat="43.97766" lon="2.97826">
        <ele>806</ele>
        <time>2026-04-30T07:54:50.000Z</time>
      </trkpt>
      <trkpt lat="43.97766" lon="2.97826">
        <ele>806</ele>
        <time>2026-04-30T07:54:51.000Z</time>
      </trkpt>
      <trkpt lat="43.97767" lon="2.97826">
        <ele>806.4</ele>
        <time>2026-04-30T07:54:52.000Z</time>
      </trkpt>
      <trkpt lat="43.97767" lon="2.97826">
        <ele>806.5</ele>
        <time>2026-04-30T07:54:53.000Z</time>
      </trkpt>
      <trkpt lat="43.97767" lon="2.97825">
        <ele>806.4</ele>
        <time>2026-04-30T07:54:54.000Z</time>
      </trkpt>
      <trkpt lat="43.97767" lon="2.97825">
        <ele>806.4</ele>
        <time>2026-04-30T07:54:55.000Z</time>
      </trkpt>
      <trkpt lat="43.97767" lon="2.97825">
        <ele>806.7</ele>
        <time>2026-04-30T07:54:56.000Z</time>
      </trkpt>
      <trkpt lat="43.97767" lon="2.97824">
        <ele>806.7</ele>
        <time>2026-04-30T07:54:57.000Z</time>
      </trkpt>
      <trkpt lat="43.97767" lon="2.97824">
        <ele>806.5</ele>
        <time>2026-04-30T07:54:58.000Z</time>
      </trkpt>
      <trkpt lat="43.97767" lon="2.97823">
        <ele>806.3</ele>
        <time>2026-04-30T07:54:59.000Z</time>
      </trkpt>
      <trkpt lat="43.97767" lon="2.97823">
        <ele>806.3</ele>
        <time>2026-04-30T07:55:00.000Z</time>
      </trkpt>
      <trkpt lat="43.97767" lon="2.97822">
        <ele>806</ele>
        <time>2026-04-30T07:55:01.000Z</time>
      </trkpt>
      <trkpt lat="43.97767" lon="2.97822">
        <ele>805.6</ele>
        <time>2026-04-30T07:55:02.000Z</time>
      </trkpt>
      <trkpt lat="43.97767" lon="2.97822">
        <ele>805</ele>
        <time>2026-04-30T07:55:03.000Z</time>
      </trkpt>
      <trkpt lat="43.97767" lon="2.97821">
        <ele>804.9</ele>
        <time>2026-04-30T07:55:04.000Z</time>
      </trkpt>
      <trkpt lat="43.97766" lon="2.97821">
        <ele>804.9</ele>
        <time>2026-04-30T07:55:05.000Z</time>
      </trkpt>
      <trkpt lat="43.97766" lon="2.9782">
        <ele>804.9</ele>
        <time>2026-04-30T07:55:06.000Z</time>
      </trkpt>
      <trkpt lat="43.97766" lon="2.9782">
        <ele>804.7</ele>
        <time>2026-04-30T07:55:07.000Z</time>
      </trkpt>
      <trkpt lat="43.97766" lon="2.9782">
        <ele>804.7</ele>
        <time>2026-04-30T07:55:08.000Z</time>
      </trkpt>
      <trkpt lat="43.97766" lon="2.97819">
        <ele>804.5</ele>
        <time>2026-04-30T07:55:09.000Z</time>
      </trkpt>
      <trkpt lat="43.97766" lon="2.97819">
        <ele>804.3</ele>
        <time>2026-04-30T07:55:10.000Z</time>
      </trkpt>
      <trkpt lat="43.97766" lon="2.97818">
        <ele>804</ele>
        <time>2026-04-30T07:55:11.000Z</time>
      </trkpt>
      <trkpt lat="43.97766" lon="2.97818">
        <ele>803.9</ele>
        <time>2026-04-30T07:55:12.000Z</time>
      </trkpt>
      <trkpt lat="43.97766" lon="2.97817">
        <ele>803.8</ele>
        <time>2026-04-30T07:55:13.000Z</time>
      </trkpt>
      <trkpt lat="43.97764" lon="2.97815">
        <ele>803.6</ele>
        <time>2026-04-30T07:55:14.000Z</time>
      </trkpt>
      <trkpt lat="43.97763" lon="2.97813">
        <ele>803.5</ele>
        <time>2026-04-30T07:55:15.000Z</time>
      </trkpt>
      <trkpt lat="43.97762" lon="2.9781">
        <ele>802.9</ele>
        <time>2026-04-30T07:55:16.000Z</time>
      </trkpt>
      <trkpt lat="43.97762" lon="2.97809">
        <ele>803.1</ele>
        <time>2026-04-30T07:55:17.000Z</time>
      </trkpt>
      <trkpt lat="43.97762" lon="2.97809">
        <ele>803.2</ele>
        <time>2026-04-30T07:55:18.000Z</time>
      </trkpt>
      <trkpt lat="43.97761" lon="2.97808">
        <ele>803.5</ele>
        <time>2026-04-30T07:55:19.000Z</time>
      </trkpt>
      <trkpt lat="43.97761" lon="2.97807">
        <ele>804</ele>
        <time>2026-04-30T07:55:20.000Z</time>
      </trkpt>
      <trkpt lat="43.97761" lon="2.97807">
        <ele>804.2</ele>
        <time>2026-04-30T07:55:21.000Z</time>
      </trkpt>
      <trkpt lat="43.97761" lon="2.97807">
        <ele>804.1</ele>
        <time>2026-04-30T07:55:22.000Z</time>
      </trkpt>
      <trkpt lat="43.97761" lon="2.97807">
        <ele>804.3</ele>
        <time>2026-04-30T07:55:23.000Z</time>
      </trkpt>
      <trkpt lat="43.97761" lon="2.97805">
        <ele>804.7</ele>
        <time>2026-04-30T07:55:24.000Z</time>
      </trkpt>
      <trkpt lat="43.9776" lon="2.97803">
        <ele>804.9</ele>
        <time>2026-04-30T07:55:25.000Z</time>
      </trkpt>
      <trkpt lat="43.97759" lon="2.97803">
        <ele>805.2</ele>
        <time>2026-04-30T07:55:26.000Z</time>
      </trkpt>
      <trkpt lat="43.97758" lon="2.97802">
        <ele>805.4</ele>
        <time>2026-04-30T07:55:27.000Z</time>
      </trkpt>
      <trkpt lat="43.97758" lon="2.97802">
        <ele>805.3</ele>
        <time>2026-04-30T07:55:28.000Z</time>
      </trkpt>
      <trkpt lat="43.97757" lon="2.97802">
        <ele>805.3</ele>
        <time>2026-04-30T07:55:29.000Z</time>
      </trkpt>
      <trkpt lat="43.97757" lon="2.97802">
        <ele>805.5</ele>
        <time>2026-04-30T07:55:30.000Z</time>
      </trkpt>
      <trkpt lat="43.97757" lon="2.97801">
        <ele>805.9</ele>
        <time>2026-04-30T07:55:31.000Z</time>
      </trkpt>
      <trkpt lat="43.97757" lon="2.97801">
        <ele>806</ele>
        <time>2026-04-30T07:55:32.000Z</time>
      </trkpt>
      <trkpt lat="43.97757" lon="2.97801">
        <ele>806.2</ele>
        <time>2026-04-30T07:55:33.000Z</time>
      </trkpt>
      <trkpt lat="43.97757" lon="2.97801">
        <ele>806.6</ele>
        <time>2026-04-30T07:55:34.000Z</time>
      </trkpt>
      <trkpt lat="43.97757" lon="2.97801">
        <ele>806.4</ele>
        <time>2026-04-30T07:55:35.000Z</time>
      </trkpt>
      <trkpt lat="43.97757" lon="2.978">
        <ele>806.3</ele>
        <time>2026-04-30T07:55:36.000Z</time>
      </trkpt>
      <trkpt lat="43.97757" lon="2.978">
        <ele>806.1</ele>
        <time>2026-04-30T07:55:37.000Z</time>
      </trkpt>
      <trkpt lat="43.97756" lon="2.978">
        <ele>806.1</ele>
        <time>2026-04-30T07:55:38.000Z</time>
      </trkpt>
      <trkpt lat="43.97755" lon="2.978">
        <ele>806.1</ele>
        <time>2026-04-30T07:55:39.000Z</time>
      </trkpt>
      <trkpt lat="43.97754" lon="2.978">
        <ele>806</ele>
        <time>2026-04-30T07:55:40.000Z</time>
      </trkpt>
      <trkpt lat="43.97754" lon="2.978">
        <ele>806.4</ele>
        <time>2026-04-30T07:55:41.000Z</time>
      </trkpt>
      <trkpt lat="43.97753" lon="2.978">
        <ele>806.3</ele>
        <time>2026-04-30T07:55:42.000Z</time>
      </trkpt>
      <trkpt lat="43.97753" lon="2.978">
        <ele>806.2</ele>
        <time>2026-04-30T07:55:43.000Z</time>
      </trkpt>
      <trkpt lat="43.97753" lon="2.978">
        <ele>806.1</ele>
        <time>2026-04-30T07:55:44.000Z</time>
      </trkpt>
      <trkpt lat="43.97753" lon="2.978">
        <ele>805.8</ele>
        <time>2026-04-30T07:55:45.000Z</time>
      </trkpt>
      <trkpt lat="43.97752" lon="2.97799">
        <ele>805.7</ele>
        <time>2026-04-30T07:55:46.000Z</time>
      </trkpt>
      <trkpt lat="43.97751" lon="2.97799">
        <ele>805.7</ele>
        <time>2026-04-30T07:55:47.000Z</time>
      </trkpt>
      <trkpt lat="43.97751" lon="2.97799">
        <ele>805.6</ele>
        <time>2026-04-30T07:55:48.000Z</time>
      </trkpt>
      <trkpt lat="43.97751" lon="2.97799">
        <ele>805.6</ele>
        <time>2026-04-30T07:55:49.000Z</time>
      </trkpt>
      <trkpt lat="43.9775" lon="2.97798">
        <ele>805.5</ele>
        <time>2026-04-30T07:55:50.000Z</time>
      </trkpt>
      <trkpt lat="43.9775" lon="2.97798">
        <ele>805.6</ele>
        <time>2026-04-30T07:55:51.000Z</time>
      </trkpt>
      <trkpt lat="43.9775" lon="2.97799">
        <ele>805.7</ele>
        <time>2026-04-30T07:55:52.000Z</time>
      </trkpt>
      <trkpt lat="43.9775" lon="2.97799">
        <ele>805.5</ele>
        <time>2026-04-30T07:55:53.000Z</time>
      </trkpt>
      <trkpt lat="43.9775" lon="2.97799">
        <ele>805.6</ele>
        <time>2026-04-30T07:55:54.000Z</time>
      </trkpt>
      <trkpt lat="43.97749" lon="2.978">
        <ele>805.5</ele>
        <time>2026-04-30T07:55:55.000Z</time>
      </trkpt>
      <trkpt lat="43.97748" lon="2.97801">
        <ele>805.3</ele>
        <time>2026-04-30T07:55:56.000Z</time>
      </trkpt>
      <trkpt lat="43.97748" lon="2.97802">
        <ele>805.3</ele>
        <time>2026-04-30T07:55:57.000Z</time>
      </trkpt>
      <trkpt lat="43.97747" lon="2.97802">
        <ele>805.4</ele>
        <time>2026-04-30T07:55:58.000Z</time>
      </trkpt>
      <trkpt lat="43.97746" lon="2.97803">
        <ele>805.5</ele>
        <time>2026-04-30T07:55:59.000Z</time>
      </trkpt>
      <trkpt lat="43.97745" lon="2.97804">
        <ele>805.4</ele>
        <time>2026-04-30T07:56:00.000Z</time>
      </trkpt>
      <trkpt lat="43.97744" lon="2.97805">
        <ele>805.4</ele>
        <time>2026-04-30T07:56:01.000Z</time>
      </trkpt>
      <trkpt lat="43.97744" lon="2.97806">
        <ele>805.4</ele>
        <time>2026-04-30T07:56:02.000Z</time>
      </trkpt>
      <trkpt lat="43.97744" lon="2.97806">
        <ele>805.4</ele>
        <time>2026-04-30T07:56:03.000Z</time>
      </trkpt>
      <trkpt lat="43.97744" lon="2.97806">
        <ele>805.3</ele>
        <time>2026-04-30T07:56:04.000Z</time>
      </trkpt>
      <trkpt lat="43.97744" lon="2.97807">
        <ele>805.1</ele>
        <time>2026-04-30T07:56:05.000Z</time>
      </trkpt>
      <trkpt lat="43.97743" lon="2.97807">
        <ele>805.2</ele>
        <time>2026-04-30T07:56:06.000Z</time>
      </trkpt>
      <trkpt lat="43.97742" lon="2.97808">
        <ele>805.1</ele>
        <time>2026-04-30T07:56:07.000Z</time>
      </trkpt>
      <trkpt lat="43.97742" lon="2.97808">
        <ele>805.2</ele>
        <time>2026-04-30T07:56:08.000Z</time>
      </trkpt>
      <trkpt lat="43.97742" lon="2.97808">
        <ele>805.4</ele>
        <time>2026-04-30T07:56:09.000Z</time>
      </trkpt>
      <trkpt lat="43.97742" lon="2.97808">
        <ele>805.2</ele>
        <time>2026-04-30T07:56:10.000Z</time>
      </trkpt>
      <trkpt lat="43.97741" lon="2.97808">
        <ele>805.2</ele>
        <time>2026-04-30T07:56:11.000Z</time>
      </trkpt>
      <trkpt lat="43.9774" lon="2.97809">
        <ele>805.1</ele>
        <time>2026-04-30T07:56:12.000Z</time>
      </trkpt>
      <trkpt lat="43.97739" lon="2.9781">
        <ele>805.1</ele>
        <time>2026-04-30T07:56:13.000Z</time>
      </trkpt>
      <trkpt lat="43.97738" lon="2.9781">
        <ele>805.2</ele>
        <time>2026-04-30T07:56:14.000Z</time>
      </trkpt>
      <trkpt lat="43.97737" lon="2.97811">
        <ele>805.7</ele>
        <time>2026-04-30T07:56:15.000Z</time>
      </trkpt>
      <trkpt lat="43.97737" lon="2.97812">
        <ele>806</ele>
        <time>2026-04-30T07:56:16.000Z</time>
      </trkpt>
      <trkpt lat="43.97737" lon="2.97812">
        <ele>806.1</ele>
        <time>2026-04-30T07:56:17.000Z</time>
      </trkpt>
      <trkpt lat="43.97737" lon="2.97813">
        <ele>806.4</ele>
        <time>2026-04-30T07:56:18.000Z</time>
      </trkpt>
      <trkpt lat="43.97736" lon="2.97814">
        <ele>806.4</ele>
        <time>2026-04-30T07:56:19.000Z</time>
      </trkpt>
      <trkpt lat="43.97735" lon="2.97815">
        <ele>806.3</ele>
        <time>2026-04-30T07:56:20.000Z</time>
      </trkpt>
      <trkpt lat="43.97734" lon="2.97816">
        <ele>806.2</ele>
        <time>2026-04-30T07:56:21.000Z</time>
      </trkpt>
      <trkpt lat="43.97734" lon="2.97817">
        <ele>806.3</ele>
        <time>2026-04-30T07:56:22.000Z</time>
      </trkpt>
      <trkpt lat="43.97734" lon="2.97817">
        <ele>806.4</ele>
        <time>2026-04-30T07:56:23.000Z</time>
      </trkpt>
      <trkpt lat="43.97734" lon="2.97818">
        <ele>806.1</ele>
        <time>2026-04-30T07:56:24.000Z</time>
      </trkpt>
      <trkpt lat="43.97734" lon="2.97818">
        <ele>806.2</ele>
        <time>2026-04-30T07:56:25.000Z</time>
      </trkpt>
      <trkpt lat="43.97734" lon="2.97819">
        <ele>806.2</ele>
        <time>2026-04-30T07:56:26.000Z</time>
      </trkpt>
      <trkpt lat="43.97734" lon="2.9782">
        <ele>806.5</ele>
        <time>2026-04-30T07:56:27.000Z</time>
      </trkpt>
      <trkpt lat="43.97733" lon="2.9782">
        <ele>807.2</ele>
        <time>2026-04-30T07:56:28.000Z</time>
      </trkpt>
      <trkpt lat="43.97732" lon="2.9782">
        <ele>807.4</ele>
        <time>2026-04-30T07:56:29.000Z</time>
      </trkpt>
      <trkpt lat="43.97732" lon="2.9782">
        <ele>807.5</ele>
        <time>2026-04-30T07:56:30.000Z</time>
      </trkpt>
      <trkpt lat="43.97732" lon="2.9782">
        <ele>807.1</ele>
        <time>2026-04-30T07:56:31.000Z</time>
      </trkpt>
      <trkpt lat="43.97731" lon="2.97819">
        <ele>807.4</ele>
        <time>2026-04-30T07:56:32.000Z</time>
      </trkpt>
      <trkpt lat="43.97731" lon="2.97819">
        <ele>807.7</ele>
        <time>2026-04-30T07:56:33.000Z</time>
      </trkpt>
      <trkpt lat="43.9773" lon="2.97818">
        <ele>808.2</ele>
        <time>2026-04-30T07:56:34.000Z</time>
      </trkpt>
      <trkpt lat="43.9773" lon="2.97819">
        <ele>808.4</ele>
        <time>2026-04-30T07:56:35.000Z</time>
      </trkpt>
      <trkpt lat="43.97729" lon="2.97819">
        <ele>808.7</ele>
        <time>2026-04-30T07:56:36.000Z</time>
      </trkpt>
      <trkpt lat="43.97728" lon="2.97819">
        <ele>809.1</ele>
        <time>2026-04-30T07:56:37.000Z</time>
      </trkpt>
      <trkpt lat="43.97727" lon="2.97819">
        <ele>809.4</ele>
        <time>2026-04-30T07:56:38.000Z</time>
      </trkpt>
      <trkpt lat="43.97728" lon="2.9782">
        <ele>809.1</ele>
        <time>2026-04-30T07:56:39.000Z</time>
      </trkpt>
      <trkpt lat="43.97728" lon="2.97821">
        <ele>809.1</ele>
        <time>2026-04-30T07:56:40.000Z</time>
      </trkpt>
      <trkpt lat="43.97728" lon="2.97822">
        <ele>808.9</ele>
        <time>2026-04-30T07:56:41.000Z</time>
      </trkpt>
      <trkpt lat="43.97727" lon="2.97822">
        <ele>808.8</ele>
        <time>2026-04-30T07:56:42.000Z</time>
      </trkpt>
      <trkpt lat="43.97727" lon="2.97822">
        <ele>808.7</ele>
        <time>2026-04-30T07:56:43.000Z</time>
      </trkpt>
      <trkpt lat="43.97727" lon="2.97823">
        <ele>808.7</ele>
        <time>2026-04-30T07:56:44.000Z</time>
      </trkpt>
      <trkpt lat="43.97727" lon="2.97822">
        <ele>808.7</ele>
        <time>2026-04-30T07:56:45.000Z</time>
      </trkpt>
      <trkpt lat="43.97727" lon="2.97823">
        <ele>808.5</ele>
        <time>2026-04-30T07:56:46.000Z</time>
      </trkpt>
      <trkpt lat="43.97727" lon="2.97823">
        <ele>808.7</ele>
        <time>2026-04-30T07:56:47.000Z</time>
      </trkpt>
      <trkpt lat="43.97727" lon="2.97823">
        <ele>809</ele>
        <time>2026-04-30T07:56:48.000Z</time>
      </trkpt>
      <trkpt lat="43.97726" lon="2.97824">
        <ele>809</ele>
        <time>2026-04-30T07:56:49.000Z</time>
      </trkpt>
      <trkpt lat="43.97726" lon="2.97825">
        <ele>809</ele>
        <time>2026-04-30T07:56:50.000Z</time>
      </trkpt>
      <trkpt lat="43.97725" lon="2.97825">
        <ele>809.2</ele>
        <time>2026-04-30T07:56:51.000Z</time>
      </trkpt>
      <trkpt lat="43.97725" lon="2.97825">
        <ele>809.4</ele>
        <time>2026-04-30T07:56:52.000Z</time>
      </trkpt>
      <trkpt lat="43.97725" lon="2.97825">
        <ele>809.6</ele>
        <time>2026-04-30T07:56:53.000Z</time>
      </trkpt>
      <trkpt lat="43.97725" lon="2.97825">
        <ele>809.9</ele>
        <time>2026-04-30T07:56:54.000Z</time>
      </trkpt>
      <trkpt lat="43.97725" lon="2.97825">
        <ele>810.1</ele>
        <time>2026-04-30T07:56:55.000Z</time>
      </trkpt>
      <trkpt lat="43.97725" lon="2.97825">
        <ele>810.3</ele>
        <time>2026-04-30T07:56:56.000Z</time>
      </trkpt>
      <trkpt lat="43.97726" lon="2.97825">
        <ele>810.5</ele>
        <time>2026-04-30T07:56:57.000Z</time>
      </trkpt>
      <trkpt lat="43.97726" lon="2.97825">
        <ele>810.5</ele>
        <time>2026-04-30T07:56:58.000Z</time>
      </trkpt>
      <trkpt lat="43.97727" lon="2.97825">
        <ele>810.5</ele>
        <time>2026-04-30T07:56:59.000Z</time>
      </trkpt>
      <trkpt lat="43.97727" lon="2.97824">
        <ele>810.5</ele>
        <time>2026-04-30T07:57:00.000Z</time>
      </trkpt>
      <trkpt lat="43.97728" lon="2.97824">
        <ele>810.6</ele>
        <time>2026-04-30T07:57:01.000Z</time>
      </trkpt>
      <trkpt lat="43.97728" lon="2.97823">
        <ele>811.1</ele>
        <time>2026-04-30T07:57:02.000Z</time>
      </trkpt>
      <trkpt lat="43.97728" lon="2.97823">
        <ele>811.5</ele>
        <time>2026-04-30T07:57:03.000Z</time>
      </trkpt>
      <trkpt lat="43.97728" lon="2.97823">
        <ele>811.6</ele>
        <time>2026-04-30T07:57:04.000Z</time>
      </trkpt>
      <trkpt lat="43.97729" lon="2.97823">
        <ele>811.7</ele>
        <time>2026-04-30T07:57:05.000Z</time>
      </trkpt>
      <trkpt lat="43.9773" lon="2.97823">
        <ele>811.9</ele>
        <time>2026-04-30T07:57:06.000Z</time>
      </trkpt>
      <trkpt lat="43.9773" lon="2.97823">
        <ele>812.1</ele>
        <time>2026-04-30T07:57:07.000Z</time>
      </trkpt>
      <trkpt lat="43.97731" lon="2.97824">
        <ele>812.4</ele>
        <time>2026-04-30T07:57:08.000Z</time>
      </trkpt>
      <trkpt lat="43.97731" lon="2.97824">
        <ele>812.9</ele>
        <time>2026-04-30T07:57:09.000Z</time>
      </trkpt>
      <trkpt lat="43.97731" lon="2.97824">
        <ele>813.3</ele>
        <time>2026-04-30T07:57:10.000Z</time>
      </trkpt>
      <trkpt lat="43.97731" lon="2.97823">
        <ele>813.5</ele>
        <time>2026-04-30T07:57:11.000Z</time>
      </trkpt>
      <trkpt lat="43.97731" lon="2.97823">
        <ele>813.6</ele>
        <time>2026-04-30T07:57:12.000Z</time>
      </trkpt>
      <trkpt lat="43.97731" lon="2.97823">
        <ele>814.1</ele>
        <time>2026-04-30T07:57:13.000Z</time>
      </trkpt>
      <trkpt lat="43.97731" lon="2.97823">
        <ele>814.5</ele>
        <time>2026-04-30T07:57:14.000Z</time>
      </trkpt>
      <trkpt lat="43.97731" lon="2.97824">
        <ele>814.8</ele>
        <time>2026-04-30T07:57:15.000Z</time>
      </trkpt>
      <trkpt lat="43.97731" lon="2.97823">
        <ele>815.3</ele>
        <time>2026-04-30T07:57:16.000Z</time>
      </trkpt>
      <trkpt lat="43.97731" lon="2.97824">
        <ele>815.6</ele>
        <time>2026-04-30T07:57:17.000Z</time>
      </trkpt>
      <trkpt lat="43.97731" lon="2.97824">
        <ele>815.9</ele>
        <time>2026-04-30T07:57:18.000Z</time>
      </trkpt>
      <trkpt lat="43.97731" lon="2.97824">
        <ele>815.9</ele>
        <time>2026-04-30T07:57:19.000Z</time>
      </trkpt>
      <trkpt lat="43.97731" lon="2.97824">
        <ele>815.9</ele>
        <time>2026-04-30T07:57:20.000Z</time>
      </trkpt>
      <trkpt lat="43.97732" lon="2.97824">
        <ele>815.7</ele>
        <time>2026-04-30T07:57:21.000Z</time>
      </trkpt>
      <trkpt lat="43.97732" lon="2.97824">
        <ele>816</ele>
        <time>2026-04-30T07:57:22.000Z</time>
      </trkpt>
      <trkpt lat="43.97732" lon="2.97824">
        <ele>816.2</ele>
        <time>2026-04-30T07:57:23.000Z</time>
      </trkpt>
      <trkpt lat="43.97732" lon="2.97824">
        <ele>816.5</ele>
        <time>2026-04-30T07:57:24.000Z</time>
      </trkpt>
      <trkpt lat="43.97733" lon="2.97823">
        <ele>816.8</ele>
        <time>2026-04-30T07:57:25.000Z</time>
      </trkpt>
      <trkpt lat="43.97734" lon="2.97824">
        <ele>817</ele>
        <time>2026-04-30T07:57:26.000Z</time>
      </trkpt>
      <trkpt lat="43.97734" lon="2.97824">
        <ele>817.1</ele>
        <time>2026-04-30T07:57:27.000Z</time>
      </trkpt>
      <trkpt lat="43.97734" lon="2.97824">
        <ele>817.4</ele>
        <time>2026-04-30T07:57:28.000Z</time>
      </trkpt>
      <trkpt lat="43.97734" lon="2.97824">
        <ele>818</ele>
        <time>2026-04-30T07:57:29.000Z</time>
      </trkpt>
      <trkpt lat="43.97734" lon="2.97824">
        <ele>818.3</ele>
        <time>2026-04-30T07:57:30.000Z</time>
      </trkpt>
      <trkpt lat="43.97734" lon="2.97824">
        <ele>818.6</ele>
        <time>2026-04-30T07:57:31.000Z</time>
      </trkpt>
      <trkpt lat="43.97734" lon="2.97824">
        <ele>819</ele>
        <time>2026-04-30T07:57:32.000Z</time>
      </trkpt>
      <trkpt lat="43.97735" lon="2.97824">
        <ele>819</ele>
        <time>2026-04-30T07:57:33.000Z</time>
      </trkpt>
      <trkpt lat="43.97735" lon="2.97824">
        <ele>818.9</ele>
        <time>2026-04-30T07:57:34.000Z</time>
      </trkpt>
      <trkpt lat="43.97735" lon="2.97824">
        <ele>819</ele>
        <time>2026-04-30T07:57:35.000Z</time>
      </trkpt>
      <trkpt lat="43.97735" lon="2.97823">
        <ele>819.1</ele>
        <time>2026-04-30T07:57:36.000Z</time>
      </trkpt>
      <trkpt lat="43.97735" lon="2.97823">
        <ele>819.3</ele>
        <time>2026-04-30T07:57:37.000Z</time>
      </trkpt>
      <trkpt lat="43.97735" lon="2.97822">
        <ele>819.5</ele>
        <time>2026-04-30T07:57:38.000Z</time>
      </trkpt>
      <trkpt lat="43.97735" lon="2.97822">
        <ele>819.6</ele>
        <time>2026-04-30T07:57:39.000Z</time>
      </trkpt>
      <trkpt lat="43.97735" lon="2.97822">
        <ele>819.8</ele>
        <time>2026-04-30T07:57:40.000Z</time>
      </trkpt>
      <trkpt lat="43.97735" lon="2.97822">
        <ele>819.7</ele>
        <time>2026-04-30T07:57:41.000Z</time>
      </trkpt>
      <trkpt lat="43.97735" lon="2.97822">
        <ele>819.6</ele>
        <time>2026-04-30T07:57:42.000Z</time>
      </trkpt>
      <trkpt lat="43.97736" lon="2.97822">
        <ele>819.6</ele>
        <time>2026-04-30T07:57:43.000Z</time>
      </trkpt>
      <trkpt lat="43.97736" lon="2.97822">
        <ele>820</ele>
        <time>2026-04-30T07:57:44.000Z</time>
      </trkpt>
      <trkpt lat="43.97736" lon="2.97822">
        <ele>819.9</ele>
        <time>2026-04-30T07:57:45.000Z</time>
      </trkpt>
      <trkpt lat="43.97736" lon="2.97822">
        <ele>819.6</ele>
        <time>2026-04-30T07:57:46.000Z</time>
      </trkpt>
      <trkpt lat="43.97736" lon="2.97822">
        <ele>819.8</ele>
        <time>2026-04-30T07:57:47.000Z</time>
      </trkpt>
      <trkpt lat="43.97736" lon="2.97822">
        <ele>820.1</ele>
        <time>2026-04-30T07:57:48.000Z</time>
      </trkpt>
      <trkpt lat="43.97736" lon="2.97822">
        <ele>820.4</ele>
        <time>2026-04-30T07:57:49.000Z</time>
      </trkpt>
      <trkpt lat="43.97736" lon="2.97822">
        <ele>820.3</ele>
        <time>2026-04-30T07:57:50.000Z</time>
      </trkpt>
      <trkpt lat="43.97736" lon="2.97822">
        <ele>820.4</ele>
        <time>2026-04-30T07:57:51.000Z</time>
      </trkpt>
      <trkpt lat="43.97736" lon="2.97822">
        <ele>820.3</ele>
        <time>2026-04-30T07:57:52.000Z</time>
      </trkpt>
      <trkpt lat="43.97736" lon="2.97823">
        <ele>820.5</ele>
        <time>2026-04-30T07:57:53.000Z</time>
      </trkpt>
      <trkpt lat="43.97737" lon="2.97824">
        <ele>820.7</ele>
        <time>2026-04-30T07:57:54.000Z</time>
      </trkpt>
      <trkpt lat="43.97737" lon="2.97825">
        <ele>821</ele>
        <time>2026-04-30T07:57:55.000Z</time>
      </trkpt>
      <trkpt lat="43.97738" lon="2.97825">
        <ele>821.1</ele>
        <time>2026-04-30T07:57:56.000Z</time>
      </trkpt>
      <trkpt lat="43.97738" lon="2.97825">
        <ele>820.9</ele>
        <time>2026-04-30T07:57:57.000Z</time>
      </trkpt>
      <trkpt lat="43.97738" lon="2.97825">
        <ele>821.1</ele>
        <time>2026-04-30T07:57:58.000Z</time>
      </trkpt>
      <trkpt lat="43.97738" lon="2.97825">
        <ele>821</ele>
        <time>2026-04-30T07:57:59.000Z</time>
      </trkpt>
      <trkpt lat="43.97738" lon="2.97825">
        <ele>820.5</ele>
        <time>2026-04-30T07:58:00.000Z</time>
      </trkpt>
      <trkpt lat="43.97738" lon="2.97825">
        <ele>820.3</ele>
        <time>2026-04-30T07:58:01.000Z</time>
      </trkpt>
      <trkpt lat="43.97738" lon="2.97825">
        <ele>820.3</ele>
        <time>2026-04-30T07:58:02.000Z</time>
      </trkpt>
      <trkpt lat="43.97736" lon="2.97823">
        <ele>819.9</ele>
        <time>2026-04-30T07:58:04.000Z</time>
      </trkpt>
      <trkpt lat="43.97735" lon="2.97822">
        <ele>819.3</ele>
        <time>2026-04-30T07:58:05.000Z</time>
      </trkpt>
      <trkpt lat="43.97736" lon="2.97819">
        <ele>818.8</ele>
        <time>2026-04-30T07:58:06.000Z</time>
      </trkpt>
      <trkpt lat="43.97736" lon="2.97819">
        <ele>818.4</ele>
        <time>2026-04-30T07:58:07.000Z</time>
      </trkpt>
      <trkpt lat="43.97736" lon="2.97819">
        <ele>817.8</ele>
        <time>2026-04-30T07:58:08.000Z</time>
      </trkpt>
      <trkpt lat="43.97736" lon="2.97819">
        <ele>817.4</ele>
        <time>2026-04-30T07:58:09.000Z</time>
      </trkpt>
      <trkpt lat="43.97737" lon="2.97819">
        <ele>817.3</ele>
        <time>2026-04-30T07:58:10.000Z</time>
      </trkpt>
      <trkpt lat="43.97737" lon="2.97819">
        <ele>817.2</ele>
        <time>2026-04-30T07:58:11.000Z</time>
      </trkpt>
      <trkpt lat="43.97737" lon="2.97819">
        <ele>816.7</ele>
        <time>2026-04-30T07:58:12.000Z</time>
      </trkpt>
      <trkpt lat="43.97737" lon="2.97819">
        <ele>816</ele>
        <time>2026-04-30T07:58:13.000Z</time>
      </trkpt>
      <trkpt lat="43.97737" lon="2.97818">
        <ele>815.6</ele>
        <time>2026-04-30T07:58:14.000Z</time>
      </trkpt>
      <trkpt lat="43.97737" lon="2.97819">
        <ele>815.1</ele>
        <time>2026-04-30T07:58:15.000Z</time>
      </trkpt>
      <trkpt lat="43.97736" lon="2.97819">
        <ele>814.7</ele>
        <time>2026-04-30T07:58:16.000Z</time>
      </trkpt>
      <trkpt lat="43.97736" lon="2.9782">
        <ele>814.2</ele>
        <time>2026-04-30T07:58:17.000Z</time>
      </trkpt>
      <trkpt lat="43.97737" lon="2.97821">
        <ele>813.9</ele>
        <time>2026-04-30T07:58:18.000Z</time>
      </trkpt>
      <trkpt lat="43.97737" lon="2.97822">
        <ele>813.3</ele>
        <time>2026-04-30T07:58:19.000Z</time>
      </trkpt>
      <trkpt lat="43.97737" lon="2.97823">
        <ele>812.9</ele>
        <time>2026-04-30T07:58:20.000Z</time>
      </trkpt>
      <trkpt lat="43.97737" lon="2.97825">
        <ele>812.9</ele>
        <time>2026-04-30T07:58:21.000Z</time>
      </trkpt>
      <trkpt lat="43.97737" lon="2.97826">
        <ele>812.7</ele>
        <time>2026-04-30T07:58:22.000Z</time>
      </trkpt>
      <trkpt lat="43.97737" lon="2.97828">
        <ele>812.6</ele>
        <time>2026-04-30T07:58:23.000Z</time>
      </trkpt>
      <trkpt lat="43.97738" lon="2.97829">
        <ele>812.5</ele>
        <time>2026-04-30T07:58:24.000Z</time>
      </trkpt>
      <trkpt lat="43.97738" lon="2.97831">
        <ele>812.3</ele>
        <time>2026-04-30T07:58:25.000Z</time>
      </trkpt>
      <trkpt lat="43.97739" lon="2.97832">
        <ele>812.1</ele>
        <time>2026-04-30T07:58:26.000Z</time>
      </trkpt>
      <trkpt lat="43.97739" lon="2.97833">
        <ele>812.2</ele>
        <time>2026-04-30T07:58:27.000Z</time>
      </trkpt>
      <trkpt lat="43.97739" lon="2.97834">
        <ele>812.1</ele>
        <time>2026-04-30T07:58:28.000Z</time>
      </trkpt>
      <trkpt lat="43.97739" lon="2.97835">
        <ele>812</ele>
        <time>2026-04-30T07:58:29.000Z</time>
      </trkpt>
      <trkpt lat="43.97738" lon="2.97837">
        <ele>811.9</ele>
        <time>2026-04-30T07:58:30.000Z</time>
      </trkpt>
      <trkpt lat="43.97738" lon="2.97838">
        <ele>812</ele>
        <time>2026-04-30T07:58:31.000Z</time>
      </trkpt>
      <trkpt lat="43.97738" lon="2.97839">
        <ele>812.2</ele>
        <time>2026-04-30T07:58:32.000Z</time>
      </trkpt>
      <trkpt lat="43.97738" lon="2.9784">
        <ele>812.2</ele>
        <time>2026-04-30T07:58:33.000Z</time>
      </trkpt>
      <trkpt lat="43.97739" lon="2.97841">
        <ele>812</ele>
        <time>2026-04-30T07:58:34.000Z</time>
      </trkpt>
      <trkpt lat="43.97739" lon="2.97842">
        <ele>812</ele>
        <time>2026-04-30T07:58:35.000Z</time>
      </trkpt>
      <trkpt lat="43.97739" lon="2.97843">
        <ele>811.7</ele>
        <time>2026-04-30T07:58:36.000Z</time>
      </trkpt>
      <trkpt lat="43.97739" lon="2.97844">
        <ele>811.5</ele>
        <time>2026-04-30T07:58:37.000Z</time>
      </trkpt>
      <trkpt lat="43.97739" lon="2.97846">
        <ele>811</ele>
        <time>2026-04-30T07:58:38.000Z</time>
      </trkpt>
      <trkpt lat="43.9774" lon="2.97848">
        <ele>810.6</ele>
        <time>2026-04-30T07:58:39.000Z</time>
      </trkpt>
      <trkpt lat="43.97739" lon="2.97848">
        <ele>810.9</ele>
        <time>2026-04-30T07:58:40.000Z</time>
      </trkpt>
      <trkpt lat="43.97739" lon="2.97849">
        <ele>811.2</ele>
        <time>2026-04-30T07:58:41.000Z</time>
      </trkpt>
      <trkpt lat="43.97739" lon="2.97849">
        <ele>811.4</ele>
        <time>2026-04-30T07:58:42.000Z</time>
      </trkpt>
      <trkpt lat="43.97739" lon="2.97849">
        <ele>814.5</ele>
        <time>2026-04-30T07:58:43.000Z</time>
      </trkpt>
      <trkpt lat="43.97739" lon="2.97847">
        <ele>813.8</ele>
        <time>2026-04-30T07:58:44.000Z</time>
      </trkpt>
      <trkpt lat="43.97738" lon="2.97845">
        <ele>813</ele>
        <time>2026-04-30T07:58:45.000Z</time>
      </trkpt>
      <trkpt lat="43.97737" lon="2.97844">
        <ele>812.6</ele>
        <time>2026-04-30T07:58:46.000Z</time>
      </trkpt>
      <trkpt lat="43.97737" lon="2.97843">
        <ele>812.4</ele>
        <time>2026-04-30T07:58:47.000Z</time>
      </trkpt>
      <trkpt lat="43.97736" lon="2.97843">
        <ele>811.9</ele>
        <time>2026-04-30T07:58:48.000Z</time>
      </trkpt>
      <trkpt lat="43.97735" lon="2.97842">
        <ele>811.5</ele>
        <time>2026-04-30T07:58:49.000Z</time>
      </trkpt>
      <trkpt lat="43.97735" lon="2.97842">
        <ele>810.9</ele>
        <time>2026-04-30T07:58:50.000Z</time>
      </trkpt>
      <trkpt lat="43.97735" lon="2.97842">
        <ele>811</ele>
        <time>2026-04-30T07:58:51.000Z</time>
      </trkpt>
      <trkpt lat="43.97735" lon="2.97842">
        <ele>811</ele>
        <time>2026-04-30T07:58:52.000Z</time>
      </trkpt>
      <trkpt lat="43.97735" lon="2.97843">
        <ele>810.9</ele>
        <time>2026-04-30T07:58:53.000Z</time>
      </trkpt>
      <trkpt lat="43.97736" lon="2.97843">
        <ele>811</ele>
        <time>2026-04-30T07:58:54.000Z</time>
      </trkpt>
      <trkpt lat="43.97737" lon="2.97844">
        <ele>811.8</ele>
        <time>2026-04-30T07:58:55.000Z</time>
      </trkpt>
      <trkpt lat="43.97738" lon="2.97843">
        <ele>812.3</ele>
        <time>2026-04-30T07:58:56.000Z</time>
      </trkpt>
      <trkpt lat="43.97738" lon="2.9784">
        <ele>812.5</ele>
        <time>2026-04-30T07:58:57.000Z</time>
      </trkpt>
      <trkpt lat="43.97737" lon="2.97838">
        <ele>813.3</ele>
        <time>2026-04-30T07:58:58.000Z</time>
      </trkpt>
      <trkpt lat="43.97737" lon="2.97836">
        <ele>813.2</ele>
        <time>2026-04-30T07:58:59.000Z</time>
      </trkpt>
      <trkpt lat="43.97736" lon="2.97834">
        <ele>813.1</ele>
        <time>2026-04-30T07:59:00.000Z</time>
      </trkpt>
      <trkpt lat="43.97736" lon="2.97833">
        <ele>813.6</ele>
        <time>2026-04-30T07:59:01.000Z</time>
      </trkpt>
      <trkpt lat="43.97736" lon="2.97833">
        <ele>813.1</ele>
        <time>2026-04-30T07:59:02.000Z</time>
      </trkpt>
      <trkpt lat="43.97736" lon="2.97833">
        <ele>813.4</ele>
        <time>2026-04-30T07:59:03.000Z</time>
      </trkpt>
      <trkpt lat="43.97736" lon="2.97833">
        <ele>813.6</ele>
        <time>2026-04-30T07:59:04.000Z</time>
      </trkpt>
      <trkpt lat="43.97735" lon="2.97831">
        <ele>815</ele>
        <time>2026-04-30T07:59:05.000Z</time>
      </trkpt>
      <trkpt lat="43.97733" lon="2.97829">
        <ele>817</ele>
        <time>2026-04-30T07:59:06.000Z</time>
      </trkpt>
      <trkpt lat="43.97733" lon="2.97828">
        <ele>817.9</ele>
        <time>2026-04-30T07:59:07.000Z</time>
      </trkpt>
      <trkpt lat="43.97733" lon="2.97828">
        <ele>818.6</ele>
        <time>2026-04-30T07:59:08.000Z</time>
      </trkpt>
      <trkpt lat="43.97732" lon="2.97828">
        <ele>819.3</ele>
        <time>2026-04-30T07:59:09.000Z</time>
      </trkpt>
      <trkpt lat="43.97732" lon="2.97828">
        <ele>819.5</ele>
        <time>2026-04-30T07:59:10.000Z</time>
      </trkpt>
      <trkpt lat="43.97732" lon="2.97829">
        <ele>819.5</ele>
        <time>2026-04-30T07:59:11.000Z</time>
      </trkpt>
      <trkpt lat="43.97732" lon="2.97829">
        <ele>819.4</ele>
        <time>2026-04-30T07:59:12.000Z</time>
      </trkpt>
      <trkpt lat="43.97731" lon="2.97829">
        <ele>819.8</ele>
        <time>2026-04-30T07:59:13.000Z</time>
      </trkpt>
      <trkpt lat="43.97732" lon="2.97829">
        <ele>820.7</ele>
        <time>2026-04-30T07:59:14.000Z</time>
      </trkpt>
      <trkpt lat="43.97731" lon="2.9783">
        <ele>820.9</ele>
        <time>2026-04-30T07:59:15.000Z</time>
      </trkpt>
      <trkpt lat="43.97731" lon="2.97829">
        <ele>821.2</ele>
        <time>2026-04-30T07:59:16.000Z</time>
      </trkpt>
      <trkpt lat="43.97732" lon="2.97828">
        <ele>821.5</ele>
        <time>2026-04-30T07:59:17.000Z</time>
      </trkpt>
      <trkpt lat="43.97732" lon="2.97828">
        <ele>820.8</ele>
        <time>2026-04-30T07:59:18.000Z</time>
      </trkpt>
      <trkpt lat="43.97732" lon="2.97828">
        <ele>820.8</ele>
        <time>2026-04-30T07:59:19.000Z</time>
      </trkpt>
      <trkpt lat="43.97732" lon="2.97828">
        <ele>820.9</ele>
        <time>2026-04-30T07:59:20.000Z</time>
      </trkpt>
      <trkpt lat="43.97732" lon="2.97828">
        <ele>821.1</ele>
        <time>2026-04-30T07:59:21.000Z</time>
      </trkpt>
      <trkpt lat="43.97732" lon="2.97828">
        <ele>821.3</ele>
        <time>2026-04-30T07:59:22.000Z</time>
      </trkpt>
      <trkpt lat="43.97732" lon="2.97828">
        <ele>821.5</ele>
        <time>2026-04-30T07:59:23.000Z</time>
      </trkpt>
      <trkpt lat="43.97731" lon="2.97828">
        <ele>821.6</ele>
        <time>2026-04-30T07:59:24.000Z</time>
      </trkpt>
      <trkpt lat="43.97731" lon="2.97828">
        <ele>821.4</ele>
        <time>2026-04-30T07:59:25.000Z</time>
      </trkpt>
      <trkpt lat="43.97731" lon="2.97828">
        <ele>821.4</ele>
        <time>2026-04-30T07:59:26.000Z</time>
      </trkpt>
      <trkpt lat="43.97731" lon="2.97828">
        <ele>821.6</ele>
        <time>2026-04-30T07:59:27.000Z</time>
      </trkpt>
      <trkpt lat="43.97732" lon="2.97828">
        <ele>821.6</ele>
        <time>2026-04-30T07:59:28.000Z</time>
      </trkpt>
      <trkpt lat="43.97733" lon="2.97828">
        <ele>821.4</ele>
        <time>2026-04-30T07:59:29.000Z</time>
      </trkpt>
      <trkpt lat="43.97734" lon="2.97829">
        <ele>821.6</ele>
        <time>2026-04-30T07:59:30.000Z</time>
      </trkpt>
      <trkpt lat="43.97736" lon="2.97829">
        <ele>821.6</ele>
        <time>2026-04-30T07:59:31.000Z</time>
      </trkpt>
      <trkpt lat="43.9774" lon="2.9783">
        <ele>821.3</ele>
        <time>2026-04-30T07:59:33.000Z</time>
      </trkpt>
      <trkpt lat="43.97744" lon="2.9783">
        <ele>822</ele>
        <time>2026-04-30T07:59:34.000Z</time>
      </trkpt>
      <trkpt lat="43.97747" lon="2.9783">
        <ele>822.4</ele>
        <time>2026-04-30T07:59:35.000Z</time>
      </trkpt>
      <trkpt lat="43.97752" lon="2.97829">
        <ele>824.1</ele>
        <time>2026-04-30T07:59:36.000Z</time>
      </trkpt>
      <trkpt lat="43.97756" lon="2.9783">
        <ele>824.3</ele>
        <time>2026-04-30T07:59:37.000Z</time>
      </trkpt>
      <trkpt lat="43.97759" lon="2.97828">
        <ele>824.4</ele>
        <time>2026-04-30T07:59:38.000Z</time>
      </trkpt>
      <trkpt lat="43.97761" lon="2.97827">
        <ele>826</ele>
        <time>2026-04-30T07:59:39.000Z</time>
      </trkpt>
      <trkpt lat="43.97763" lon="2.97826">
        <ele>827.2</ele>
        <time>2026-04-30T07:59:40.000Z</time>
      </trkpt>
      <trkpt lat="43.97763" lon="2.97826">
        <ele>827.1</ele>
        <time>2026-04-30T07:59:41.000Z</time>
      </trkpt>
      <trkpt lat="43.97756" lon="2.97825">
        <ele>821.6</ele>
        <time>2026-04-30T07:59:42.000Z</time>
      </trkpt>
      <trkpt lat="43.97754" lon="2.97825">
        <ele>820.7</ele>
        <time>2026-04-30T07:59:43.000Z</time>
      </trkpt>
      <trkpt lat="43.97752" lon="2.97824">
        <ele>819.7</ele>
        <time>2026-04-30T07:59:44.000Z</time>
      </trkpt>
      <trkpt lat="43.97751" lon="2.97824">
        <ele>819.8</ele>
        <time>2026-04-30T07:59:45.000Z</time>
      </trkpt>
      <trkpt lat="43.97749" lon="2.97824">
        <ele>819.9</ele>
        <time>2026-04-30T07:59:46.000Z</time>
      </trkpt>
      <trkpt lat="43.97749" lon="2.97824">
        <ele>817.5</ele>
        <time>2026-04-30T07:59:47.000Z</time>
      </trkpt>
      <trkpt lat="43.97749" lon="2.97824">
        <ele>818.4</ele>
        <time>2026-04-30T07:59:48.000Z</time>
      </trkpt>
      <trkpt lat="43.97748" lon="2.97823">
        <ele>818.9</ele>
        <time>2026-04-30T07:59:49.000Z</time>
      </trkpt>
      <trkpt lat="43.97748" lon="2.97824">
        <ele>819.7</ele>
        <time>2026-04-30T07:59:50.000Z</time>
      </trkpt>
      <trkpt lat="43.97748" lon="2.97824">
        <ele>820.5</ele>
        <time>2026-04-30T07:59:51.000Z</time>
      </trkpt>
      <trkpt lat="43.97748" lon="2.97824">
        <ele>820.1</ele>
        <time>2026-04-30T07:59:52.000Z</time>
      </trkpt>
      <trkpt lat="43.97748" lon="2.97824">
        <ele>820.5</ele>
        <time>2026-04-30T07:59:53.000Z</time>
      </trkpt>
      <trkpt lat="43.97747" lon="2.97824">
        <ele>819.2</ele>
        <time>2026-04-30T07:59:54.000Z</time>
      </trkpt>
      <trkpt lat="43.97746" lon="2.97825">
        <ele>818</ele>
        <time>2026-04-30T07:59:55.000Z</time>
      </trkpt>
      <trkpt lat="43.97746" lon="2.97825">
        <ele>816.6</ele>
        <time>2026-04-30T07:59:56.000Z</time>
      </trkpt>
      <trkpt lat="43.97746" lon="2.97825">
        <ele>817</ele>
        <time>2026-04-30T07:59:57.000Z</time>
      </trkpt>
      <trkpt lat="43.97746" lon="2.97825">
        <ele>817.5</ele>
        <time>2026-04-30T07:59:58.000Z</time>
      </trkpt>
      <trkpt lat="43.97745" lon="2.97825">
        <ele>816.8</ele>
        <time>2026-04-30T07:59:59.000Z</time>
      </trkpt>
      <trkpt lat="43.97745" lon="2.97825">
        <ele>816.7</ele>
        <time>2026-04-30T08:00:00.000Z</time>
      </trkpt>
      <trkpt lat="43.97745" lon="2.97825">
        <ele>816.6</ele>
        <time>2026-04-30T08:00:01.000Z</time>
      </trkpt>
      <trkpt lat="43.97745" lon="2.97825">
        <ele>816.4</ele>
        <time>2026-04-30T08:00:02.000Z</time>
      </trkpt>
      <trkpt lat="43.97745" lon="2.97825">
        <ele>816.4</ele>
        <time>2026-04-30T08:00:03.000Z</time>
      </trkpt>
      <trkpt lat="43.97745" lon="2.97826">
        <ele>816.7</ele>
        <time>2026-04-30T08:00:04.000Z</time>
      </trkpt>
      <trkpt lat="43.97744" lon="2.97826">
        <ele>816.7</ele>
        <time>2026-04-30T08:00:05.000Z</time>
      </trkpt>
      <trkpt lat="43.97743" lon="2.97827">
        <ele>816.7</ele>
        <time>2026-04-30T08:00:06.000Z</time>
      </trkpt>
      <trkpt lat="43.97741" lon="2.97828">
        <ele>816.7</ele>
        <time>2026-04-30T08:00:07.000Z</time>
      </trkpt>
      <trkpt lat="43.97739" lon="2.9783">
        <ele>816.8</ele>
        <time>2026-04-30T08:00:08.000Z</time>
      </trkpt>
      <trkpt lat="43.97737" lon="2.97831">
        <ele>817</ele>
        <time>2026-04-30T08:00:09.000Z</time>
      </trkpt>
      <trkpt lat="43.97735" lon="2.97832">
        <ele>817</ele>
        <time>2026-04-30T08:00:10.000Z</time>
      </trkpt>
      <trkpt lat="43.97734" lon="2.97832">
        <ele>816.8</ele>
        <time>2026-04-30T08:00:11.000Z</time>
      </trkpt>
      <trkpt lat="43.97733" lon="2.97833">
        <ele>816.6</ele>
        <time>2026-04-30T08:00:12.000Z</time>
      </trkpt>
      <trkpt lat="43.97732" lon="2.97833">
        <ele>816.3</ele>
        <time>2026-04-30T08:00:13.000Z</time>
      </trkpt>
      <trkpt lat="43.97731" lon="2.97834">
        <ele>816.2</ele>
        <time>2026-04-30T08:00:14.000Z</time>
      </trkpt>
      <trkpt lat="43.9773" lon="2.97836">
        <ele>816</ele>
        <time>2026-04-30T08:00:15.000Z</time>
      </trkpt>
      <trkpt lat="43.97729" lon="2.97836">
        <ele>816</ele>
        <time>2026-04-30T08:00:16.000Z</time>
      </trkpt>
      <trkpt lat="43.97729" lon="2.97837">
        <ele>816</ele>
        <time>2026-04-30T08:00:17.000Z</time>
      </trkpt>
      <trkpt lat="43.97727" lon="2.97837">
        <ele>815.9</ele>
        <time>2026-04-30T08:00:18.000Z</time>
      </trkpt>
      <trkpt lat="43.97727" lon="2.97837">
        <ele>815.7</ele>
        <time>2026-04-30T08:00:19.000Z</time>
      </trkpt>
      <trkpt lat="43.97726" lon="2.97838">
        <ele>815.9</ele>
        <time>2026-04-30T08:00:20.000Z</time>
      </trkpt>
      <trkpt lat="43.97725" lon="2.97838">
        <ele>816</ele>
        <time>2026-04-30T08:00:21.000Z</time>
      </trkpt>
      <trkpt lat="43.97724" lon="2.97838">
        <ele>815.9</ele>
        <time>2026-04-30T08:00:22.000Z</time>
      </trkpt>
      <trkpt lat="43.97724" lon="2.97838">
        <ele>815.9</ele>
        <time>2026-04-30T08:00:23.000Z</time>
      </trkpt>
      <trkpt lat="43.97724" lon="2.97837">
        <ele>816.7</ele>
        <time>2026-04-30T08:00:24.000Z</time>
      </trkpt>
      <trkpt lat="43.97724" lon="2.97837">
        <ele>816.6</ele>
        <time>2026-04-30T08:00:25.000Z</time>
      </trkpt>
      <trkpt lat="43.97724" lon="2.97837">
        <ele>816.4</ele>
        <time>2026-04-30T08:00:26.000Z</time>
      </trkpt>
      <trkpt lat="43.97724" lon="2.97837">
        <ele>816.1</ele>
        <time>2026-04-30T08:00:27.000Z</time>
      </trkpt>
      <trkpt lat="43.97724" lon="2.97837">
        <ele>816</ele>
        <time>2026-04-30T08:00:28.000Z</time>
      </trkpt>
      <trkpt lat="43.97724" lon="2.97837">
        <ele>816.2</ele>
        <time>2026-04-30T08:00:29.000Z</time>
      </trkpt>
      <trkpt lat="43.97724" lon="2.97837">
        <ele>816.4</ele>
        <time>2026-04-30T08:00:30.000Z</time>
      </trkpt>
      <trkpt lat="43.97724" lon="2.97837">
        <ele>816.6</ele>
        <time>2026-04-30T08:00:31.000Z</time>
      </trkpt>
      <trkpt lat="43.97724" lon="2.97837">
        <ele>816.8</ele>
        <time>2026-04-30T08:00:32.000Z</time>
      </trkpt>
      <trkpt lat="43.97724" lon="2.97837">
        <ele>816.9</ele>
        <time>2026-04-30T08:00:33.000Z</time>
      </trkpt>
      <trkpt lat="43.97724" lon="2.97837">
        <ele>817</ele>
        <time>2026-04-30T08:00:34.000Z</time>
      </trkpt>
      <trkpt lat="43.97724" lon="2.97838">
        <ele>817.3</ele>
        <time>2026-04-30T08:00:35.000Z</time>
      </trkpt>
      <trkpt lat="43.97724" lon="2.97838">
        <ele>817.4</ele>
        <time>2026-04-30T08:00:36.000Z</time>
      </trkpt>
      <trkpt lat="43.97724" lon="2.97838">
        <ele>817.5</ele>
        <time>2026-04-30T08:00:37.000Z</time>
      </trkpt>
      <trkpt lat="43.97724" lon="2.97838">
        <ele>817.6</ele>
        <time>2026-04-30T08:00:38.000Z</time>
      </trkpt>
      <trkpt lat="43.97724" lon="2.97838">
        <ele>817.7</ele>
        <time>2026-04-30T08:00:39.000Z</time>
      </trkpt>
      <trkpt lat="43.97724" lon="2.97838">
        <ele>817.7</ele>
        <time>2026-04-30T08:00:40.000Z</time>
      </trkpt>
      <trkpt lat="43.97724" lon="2.97838">
        <ele>817.7</ele>
        <time>2026-04-30T08:00:41.000Z</time>
      </trkpt>
      <trkpt lat="43.97724" lon="2.97838">
        <ele>817.8</ele>
        <time>2026-04-30T08:00:42.000Z</time>
      </trkpt>
      <trkpt lat="43.97724" lon="2.97838">
        <ele>817.6</ele>
        <time>2026-04-30T08:00:43.000Z</time>
      </trkpt>
      <trkpt lat="43.97724" lon="2.97838">
        <ele>817.1</ele>
        <time>2026-04-30T08:00:44.000Z</time>
      </trkpt>
      <trkpt lat="43.97724" lon="2.97838">
        <ele>817</ele>
        <time>2026-04-30T08:00:45.000Z</time>
      </trkpt>
      <trkpt lat="43.97724" lon="2.97838">
        <ele>816.7</ele>
        <time>2026-04-30T08:00:46.000Z</time>
      </trkpt>
      <trkpt lat="43.97724" lon="2.97838">
        <ele>816.6</ele>
        <time>2026-04-30T08:00:47.000Z</time>
      </trkpt>
      <trkpt lat="43.97724" lon="2.97838">
        <ele>816.5</ele>
        <time>2026-04-30T08:00:48.000Z</time>
      </trkpt>
      <trkpt lat="43.97724" lon="2.97838">
        <ele>816.6</ele>
        <time>2026-04-30T08:00:49.000Z</time>
      </trkpt>
      <trkpt lat="43.97724" lon="2.97838">
        <ele>816.6</ele>
        <time>2026-04-30T08:00:50.000Z</time>
      </trkpt>
      <trkpt lat="43.97724" lon="2.97838">
        <ele>816.7</ele>
        <time>2026-04-30T08:00:51.000Z</time>
      </trkpt>
      <trkpt lat="43.97724" lon="2.97838">
        <ele>816.8</ele>
        <time>2026-04-30T08:00:52.000Z</time>
      </trkpt>
      <trkpt lat="43.97724" lon="2.97838">
        <ele>816.8</ele>
        <time>2026-04-30T08:00:53.000Z</time>
      </trkpt>
      <trkpt lat="43.97724" lon="2.97838">
        <ele>816.6</ele>
        <time>2026-04-30T08:00:54.000Z</time>
      </trkpt>
      <trkpt lat="43.97724" lon="2.97838">
        <ele>816.7</ele>
        <time>2026-04-30T08:00:55.000Z</time>
      </trkpt>
      <trkpt lat="43.97724" lon="2.97838">
        <ele>816.5</ele>
        <time>2026-04-30T08:00:56.000Z</time>
      </trkpt>
      <trkpt lat="43.97724" lon="2.97838">
        <ele>816.4</ele>
        <time>2026-04-30T08:00:57.000Z</time>
      </trkpt>
      <trkpt lat="43.97724" lon="2.97838">
        <ele>816.5</ele>
        <time>2026-04-30T08:00:58.000Z</time>
      </trkpt>
      <trkpt lat="43.97724" lon="2.97838">
        <ele>816.6</ele>
        <time>2026-04-30T08:00:59.000Z</time>
      </trkpt>
      <trkpt lat="43.97724" lon="2.97838">
        <ele>816.8</ele>
        <time>2026-04-30T08:01:00.000Z</time>
      </trkpt>
      <trkpt lat="43.97723" lon="2.97838">
        <ele>816.8</ele>
        <time>2026-04-30T08:01:01.000Z</time>
      </trkpt>
      <trkpt lat="43.97723" lon="2.97838">
        <ele>817.2</ele>
        <time>2026-04-30T08:01:02.000Z</time>
      </trkpt>
      <trkpt lat="43.97723" lon="2.97838">
        <ele>817.5</ele>
        <time>2026-04-30T08:01:03.000Z</time>
      </trkpt>
      <trkpt lat="43.97723" lon="2.97838">
        <ele>817.8</ele>
        <time>2026-04-30T08:01:04.000Z</time>
      </trkpt>
      <trkpt lat="43.97723" lon="2.97838">
        <ele>818</ele>
        <time>2026-04-30T08:01:05.000Z</time>
      </trkpt>
      <trkpt lat="43.97723" lon="2.97838">
        <ele>818.2</ele>
        <time>2026-04-30T08:01:06.999Z</time>
      </trkpt>
      <trkpt lat="43.97723" lon="2.97838">
        <ele>818.3</ele>
        <time>2026-04-30T08:01:07.999Z</time>
      </trkpt>
      <trkpt lat="43.97723" lon="2.97838">
        <ele>818.3</ele>
        <time>2026-04-30T08:01:08.999Z</time>
      </trkpt>
      <trkpt lat="43.97723" lon="2.97838">
        <ele>818.1</ele>
        <time>2026-04-30T08:01:09.999Z</time>
      </trkpt>
      <trkpt lat="43.97723" lon="2.97839">
        <ele>818</ele>
        <time>2026-04-30T08:01:10.999Z</time>
      </trkpt>
      <trkpt lat="43.97723" lon="2.97839">
        <ele>818.1</ele>
        <time>2026-04-30T08:01:11.999Z</time>
      </trkpt>
      <trkpt lat="43.97723" lon="2.97839">
        <ele>818.3</ele>
        <time>2026-04-30T08:01:12.999Z</time>
      </trkpt>
      <trkpt lat="43.97723" lon="2.97839">
        <ele>818.4</ele>
        <time>2026-04-30T08:01:13.999Z</time>
      </trkpt>
      <trkpt lat="43.97723" lon="2.97839">
        <ele>818.3</ele>
        <time>2026-04-30T08:01:14.999Z</time>
      </trkpt>
      <trkpt lat="43.97723" lon="2.97839">
        <ele>818.2</ele>
        <time>2026-04-30T08:01:15.999Z</time>
      </trkpt>
      <trkpt lat="43.97723" lon="2.97839">
        <ele>818.3</ele>
        <time>2026-04-30T08:01:16.999Z</time>
      </trkpt>
      <trkpt lat="43.97723" lon="2.97839">
        <ele>818.3</ele>
        <time>2026-04-30T08:01:17.999Z</time>
      </trkpt>
      <trkpt lat="43.97723" lon="2.97839">
        <ele>818.5</ele>
        <time>2026-04-30T08:01:18.999Z</time>
      </trkpt>
      <trkpt lat="43.97723" lon="2.97839">
        <ele>818.4</ele>
        <time>2026-04-30T08:01:19.999Z</time>
      </trkpt>
      <trkpt lat="43.97723" lon="2.97839">
        <ele>818.4</ele>
        <time>2026-04-30T08:01:20.999Z</time>
      </trkpt>
      <trkpt lat="43.97723" lon="2.97839">
        <ele>818.4</ele>
        <time>2026-04-30T08:01:21.999Z</time>
      </trkpt>
      <trkpt lat="43.97723" lon="2.97839">
        <ele>818.3</ele>
        <time>2026-04-30T08:01:22.999Z</time>
      </trkpt>
      <trkpt lat="43.97723" lon="2.97839">
        <ele>818.3</ele>
        <time>2026-04-30T08:01:23.999Z</time>
      </trkpt>
      <trkpt lat="43.97723" lon="2.97839">
        <ele>818.2</ele>
        <time>2026-04-30T08:01:24.999Z</time>
      </trkpt>
      <trkpt lat="43.97723" lon="2.97839">
        <ele>818.3</ele>
        <time>2026-04-30T08:01:25.999Z</time>
      </trkpt>
      <trkpt lat="43.97723" lon="2.97839">
        <ele>818.4</ele>
        <time>2026-04-30T08:01:26.999Z</time>
      </trkpt>
      <trkpt lat="43.97723" lon="2.97839">
        <ele>818.4</ele>
        <time>2026-04-30T08:01:27.999Z</time>
      </trkpt>
      <trkpt lat="43.97723" lon="2.97839">
        <ele>818.5</ele>
        <time>2026-04-30T08:01:28.999Z</time>
      </trkpt>
      <trkpt lat="43.97723" lon="2.97839">
        <ele>818.3</ele>
        <time>2026-04-30T08:01:29.999Z</time>
      </trkpt>
      <trkpt lat="43.97723" lon="2.97839">
        <ele>818.5</ele>
        <time>2026-04-30T08:01:30.999Z</time>
      </trkpt>
      <trkpt lat="43.97723" lon="2.97839">
        <ele>819.1</ele>
        <time>2026-04-30T08:01:31.999Z</time>
      </trkpt>
      <trkpt lat="43.97723" lon="2.97839">
        <ele>819.2</ele>
        <time>2026-04-30T08:01:32.999Z</time>
      </trkpt>
      <trkpt lat="43.97723" lon="2.97839">
        <ele>819.2</ele>
        <time>2026-04-30T08:01:33.999Z</time>
      </trkpt>
      <trkpt lat="43.97723" lon="2.97839">
        <ele>819.2</ele>
        <time>2026-04-30T08:01:34.999Z</time>
      </trkpt>
      <trkpt lat="43.97723" lon="2.97839">
        <ele>819.5</ele>
        <time>2026-04-30T08:01:35.999Z</time>
      </trkpt>
      <trkpt lat="43.97723" lon="2.97839">
        <ele>819.6</ele>
        <time>2026-04-30T08:01:36.999Z</time>
      </trkpt>
      <trkpt lat="43.97723" lon="2.97839">
        <ele>819.7</ele>
        <time>2026-04-30T08:01:37.999Z</time>
      </trkpt>
      <trkpt lat="43.97723" lon="2.97839">
        <ele>819.7</ele>
        <time>2026-04-30T08:01:38.999Z</time>
      </trkpt>
      <trkpt lat="43.97723" lon="2.97839">
        <ele>819.4</ele>
        <time>2026-04-30T08:01:39.999Z</time>
      </trkpt>
      <trkpt lat="43.97723" lon="2.97839">
        <ele>819.3</ele>
        <time>2026-04-30T08:01:40.999Z</time>
      </trkpt>
      <trkpt lat="43.97723" lon="2.97839">
        <ele>819.1</ele>
        <time>2026-04-30T08:01:41.999Z</time>
      </trkpt>
      <trkpt lat="43.97723" lon="2.97839">
        <ele>818.8</ele>
        <time>2026-04-30T08:01:42.999Z</time>
      </trkpt>
      <trkpt lat="43.97723" lon="2.97839">
        <ele>818.8</ele>
        <time>2026-04-30T08:01:43.999Z</time>
      </trkpt>
      <trkpt lat="43.97723" lon="2.97839">
        <ele>818.7</ele>
        <time>2026-04-30T08:01:44.999Z</time>
      </trkpt>
      <trkpt lat="43.97723" lon="2.97839">
        <ele>818.8</ele>
        <time>2026-04-30T08:01:45.999Z</time>
      </trkpt>
      <trkpt lat="43.97723" lon="2.97839">
        <ele>818.9</ele>
        <time>2026-04-30T08:01:46.999Z</time>
      </trkpt>
      <trkpt lat="43.97723" lon="2.97839">
        <ele>819</ele>
        <time>2026-04-30T08:01:47.999Z</time>
      </trkpt>
      <trkpt lat="43.97723" lon="2.97839">
        <ele>818.7</ele>
        <time>2026-04-30T08:01:48.999Z</time>
      </trkpt>
      <trkpt lat="43.97723" lon="2.97839">
        <ele>818.6</ele>
        <time>2026-04-30T08:01:49.999Z</time>
      </trkpt>
      <trkpt lat="43.97723" lon="2.97839">
        <ele>818.3</ele>
        <time>2026-04-30T08:01:50.999Z</time>
      </trkpt>
      <trkpt lat="43.97723" lon="2.97839">
        <ele>818.1</ele>
        <time>2026-04-30T08:01:51.999Z</time>
      </trkpt>
      <trkpt lat="43.97723" lon="2.97839">
        <ele>818</ele>
        <time>2026-04-30T08:01:52.999Z</time>
      </trkpt>
      <trkpt lat="43.97723" lon="2.97839">
        <ele>817.9</ele>
        <time>2026-04-30T08:01:53.999Z</time>
      </trkpt>
      <trkpt lat="43.97723" lon="2.97839">
        <ele>817.8</ele>
        <time>2026-04-30T08:01:54.999Z</time>
      </trkpt>
      <trkpt lat="43.97723" lon="2.97839">
        <ele>817.9</ele>
        <time>2026-04-30T08:01:55.999Z</time>
      </trkpt>
      <trkpt lat="43.97723" lon="2.97839">
        <ele>817.9</ele>
        <time>2026-04-30T08:01:56.999Z</time>
      </trkpt>
      <trkpt lat="43.97722" lon="2.97839">
        <ele>817.8</ele>
        <time>2026-04-30T08:01:57.999Z</time>
      </trkpt>
      <trkpt lat="43.97722" lon="2.97839">
        <ele>817.6</ele>
        <time>2026-04-30T08:01:58.999Z</time>
      </trkpt>
      <trkpt lat="43.97722" lon="2.97839">
        <ele>817.5</ele>
        <time>2026-04-30T08:01:59.999Z</time>
      </trkpt>
      <trkpt lat="43.97722" lon="2.97839">
        <ele>817.3</ele>
        <time>2026-04-30T08:02:00.999Z</time>
      </trkpt>
      <trkpt lat="43.97722" lon="2.97839">
        <ele>817.3</ele>
        <time>2026-04-30T08:02:01.999Z</time>
      </trkpt>
      <trkpt lat="43.97722" lon="2.97839">
        <ele>817.5</ele>
        <time>2026-04-30T08:02:02.999Z</time>
      </trkpt>
      <trkpt lat="43.97722" lon="2.97839">
        <ele>817.7</ele>
        <time>2026-04-30T08:02:03.999Z</time>
      </trkpt>
      <trkpt lat="43.97722" lon="2.97839">
        <ele>817.9</ele>
        <time>2026-04-30T08:02:04.999Z</time>
      </trkpt>
      <trkpt lat="43.97722" lon="2.97839">
        <ele>818</ele>
        <time>2026-04-30T08:02:05.999Z</time>
      </trkpt>
      <trkpt lat="43.97722" lon="2.97839">
        <ele>818.1</ele>
        <time>2026-04-30T08:02:06.999Z</time>
      </trkpt>
      <trkpt lat="43.97722" lon="2.97839">
        <ele>818</ele>
        <time>2026-04-30T08:02:07.999Z</time>
      </trkpt>
      <trkpt lat="43.97722" lon="2.97839">
        <ele>818</ele>
        <time>2026-04-30T08:02:08.999Z</time>
      </trkpt>
      <trkpt lat="43.97722" lon="2.97839">
        <ele>818.1</ele>
        <time>2026-04-30T08:02:09.999Z</time>
      </trkpt>
      <trkpt lat="43.97722" lon="2.97839">
        <ele>818.3</ele>
        <time>2026-04-30T08:02:10.999Z</time>
      </trkpt>
      <trkpt lat="43.97721" lon="2.97839">
        <ele>818.5</ele>
        <time>2026-04-30T08:02:11.999Z</time>
      </trkpt>
      <trkpt lat="43.97721" lon="2.97839">
        <ele>818.5</ele>
        <time>2026-04-30T08:02:12.999Z</time>
      </trkpt>
      <trkpt lat="43.97721" lon="2.97839">
        <ele>818.6</ele>
        <time>2026-04-30T08:02:13.999Z</time>
      </trkpt>
      <trkpt lat="43.97721" lon="2.9784">
        <ele>818.6</ele>
        <time>2026-04-30T08:02:14.999Z</time>
      </trkpt>
      <trkpt lat="43.97721" lon="2.97842">
        <ele>818.8</ele>
        <time>2026-04-30T08:02:15.999Z</time>
      </trkpt>
      <trkpt lat="43.9772" lon="2.97843">
        <ele>819.1</ele>
        <time>2026-04-30T08:02:16.999Z</time>
      </trkpt>
      <trkpt lat="43.9772" lon="2.97845">
        <ele>819.3</ele>
        <time>2026-04-30T08:02:17.999Z</time>
      </trkpt>
      <trkpt lat="43.97719" lon="2.97846">
        <ele>819.6</ele>
        <time>2026-04-30T08:02:18.999Z</time>
      </trkpt>
      <trkpt lat="43.97718" lon="2.97847">
        <ele>819.8</ele>
        <time>2026-04-30T08:02:19.999Z</time>
      </trkpt>
      <trkpt lat="43.97718" lon="2.97844">
        <ele>819.1</ele>
        <time>2026-04-30T08:02:20.999Z</time>
      </trkpt>
      <trkpt lat="43.97718" lon="2.97844">
        <ele>818.9</ele>
        <time>2026-04-30T08:02:21.999Z</time>
      </trkpt>
      <trkpt lat="43.97719" lon="2.97843">
        <ele>818.7</ele>
        <time>2026-04-30T08:02:22.999Z</time>
      </trkpt>
      <trkpt lat="43.97718" lon="2.97843">
        <ele>818.8</ele>
        <time>2026-04-30T08:02:23.999Z</time>
      </trkpt>
      <trkpt lat="43.97718" lon="2.97842">
        <ele>818.9</ele>
        <time>2026-04-30T08:02:24.999Z</time>
      </trkpt>
      <trkpt lat="43.97718" lon="2.97842">
        <ele>819.3</ele>
        <time>2026-04-30T08:02:25.999Z</time>
      </trkpt>
      <trkpt lat="43.97717" lon="2.97842">
        <ele>819.4</ele>
        <time>2026-04-30T08:02:26.999Z</time>
      </trkpt>
      <trkpt lat="43.97717" lon="2.97842">
        <ele>819.3</ele>
        <time>2026-04-30T08:02:27.999Z</time>
      </trkpt>
      <trkpt lat="43.97717" lon="2.97841">
        <ele>819.4</ele>
        <time>2026-04-30T08:02:28.999Z</time>
      </trkpt>
      <trkpt lat="43.97717" lon="2.9784">
        <ele>819.2</ele>
        <time>2026-04-30T08:02:29.999Z</time>
      </trkpt>
      <trkpt lat="43.97716" lon="2.9784">
        <ele>818.6</ele>
        <time>2026-04-30T08:02:30.999Z</time>
      </trkpt>
      <trkpt lat="43.97716" lon="2.97839">
        <ele>818.3</ele>
        <time>2026-04-30T08:02:31.999Z</time>
      </trkpt>
      <trkpt lat="43.97714" lon="2.97839">
        <ele>818</ele>
        <time>2026-04-30T08:02:32.999Z</time>
      </trkpt>
      <trkpt lat="43.97713" lon="2.9784">
        <ele>817.9</ele>
        <time>2026-04-30T08:02:33.999Z</time>
      </trkpt>
      <trkpt lat="43.97712" lon="2.97841">
        <ele>817.1</ele>
        <time>2026-04-30T08:02:34.999Z</time>
      </trkpt>
      <trkpt lat="43.97711" lon="2.9784">
        <ele>817.4</ele>
        <time>2026-04-30T08:02:35.999Z</time>
      </trkpt>
      <trkpt lat="43.9771" lon="2.9784">
        <ele>816.7</ele>
        <time>2026-04-30T08:02:36.999Z</time>
      </trkpt>
      <trkpt lat="43.97709" lon="2.9784">
        <ele>817</ele>
        <time>2026-04-30T08:02:37.999Z</time>
      </trkpt>
      <trkpt lat="43.97708" lon="2.9784">
        <ele>817.3</ele>
        <time>2026-04-30T08:02:38.999Z</time>
      </trkpt>
      <trkpt lat="43.97707" lon="2.9784">
        <ele>817.7</ele>
        <time>2026-04-30T08:02:39.999Z</time>
      </trkpt>
      <trkpt lat="43.97706" lon="2.9784">
        <ele>818</ele>
        <time>2026-04-30T08:02:40.999Z</time>
      </trkpt>
      <trkpt lat="43.97705" lon="2.9784">
        <ele>817.9</ele>
        <time>2026-04-30T08:02:41.999Z</time>
      </trkpt>
      <trkpt lat="43.97706" lon="2.9784">
        <ele>817.9</ele>
        <time>2026-04-30T08:02:42.999Z</time>
      </trkpt>
      <trkpt lat="43.97706" lon="2.97839">
        <ele>817.4</ele>
        <time>2026-04-30T08:02:43.999Z</time>
      </trkpt>
      <trkpt lat="43.97707" lon="2.97838">
        <ele>817</ele>
        <time>2026-04-30T08:02:44.999Z</time>
      </trkpt>
      <trkpt lat="43.97707" lon="2.97838">
        <ele>816.7</ele>
        <time>2026-04-30T08:02:45.999Z</time>
      </trkpt>
      <trkpt lat="43.97707" lon="2.97838">
        <ele>814.3</ele>
        <time>2026-04-30T08:02:46.999Z</time>
      </trkpt>
      <trkpt lat="43.97707" lon="2.97838">
        <ele>814.3</ele>
        <time>2026-04-30T08:02:47.999Z</time>
      </trkpt>
      <trkpt lat="43.97707" lon="2.97838">
        <ele>814.4</ele>
        <time>2026-04-30T08:02:48.999Z</time>
      </trkpt>
      <trkpt lat="43.97707" lon="2.97838">
        <ele>814.4</ele>
        <time>2026-04-30T08:02:49.999Z</time>
      </trkpt>
      <trkpt lat="43.97707" lon="2.97838">
        <ele>814.4</ele>
        <time>2026-04-30T08:02:50.999Z</time>
      </trkpt>
      <trkpt lat="43.97707" lon="2.97838">
        <ele>814.3</ele>
        <time>2026-04-30T08:02:51.999Z</time>
      </trkpt>
      <trkpt lat="43.97707" lon="2.97838">
        <ele>814.4</ele>
        <time>2026-04-30T08:02:52.999Z</time>
      </trkpt>
      <trkpt lat="43.97707" lon="2.97838">
        <ele>814.4</ele>
        <time>2026-04-30T08:02:53.999Z</time>
      </trkpt>
      <trkpt lat="43.97707" lon="2.97838">
        <ele>814.4</ele>
        <time>2026-04-30T08:02:54.999Z</time>
      </trkpt>
      <trkpt lat="43.97707" lon="2.97838">
        <ele>814.5</ele>
        <time>2026-04-30T08:02:55.999Z</time>
      </trkpt>
      <trkpt lat="43.97707" lon="2.97838">
        <ele>814.3</ele>
        <time>2026-04-30T08:02:56.999Z</time>
      </trkpt>
      <trkpt lat="43.97707" lon="2.97838">
        <ele>814.4</ele>
        <time>2026-04-30T08:02:57.999Z</time>
      </trkpt>
      <trkpt lat="43.97707" lon="2.97838">
        <ele>814.5</ele>
        <time>2026-04-30T08:02:58.999Z</time>
      </trkpt>
      <trkpt lat="43.97708" lon="2.97838">
        <ele>814.6</ele>
        <time>2026-04-30T08:02:59.999Z</time>
      </trkpt>
      <trkpt lat="43.97708" lon="2.97838">
        <ele>814.8</ele>
        <time>2026-04-30T08:03:00.999Z</time>
      </trkpt>
      <trkpt lat="43.97708" lon="2.97838">
        <ele>814.8</ele>
        <time>2026-04-30T08:03:01.999Z</time>
      </trkpt>
      <trkpt lat="43.97708" lon="2.97838">
        <ele>815.1</ele>
        <time>2026-04-30T08:03:02.999Z</time>
      </trkpt>
      <trkpt lat="43.97708" lon="2.97838">
        <ele>815.3</ele>
        <time>2026-04-30T08:03:03.999Z</time>
      </trkpt>
      <trkpt lat="43.97708" lon="2.97838">
        <ele>815.4</ele>
        <time>2026-04-30T08:03:04.999Z</time>
      </trkpt>
      <trkpt lat="43.97708" lon="2.97838">
        <ele>815.5</ele>
        <time>2026-04-30T08:03:05.999Z</time>
      </trkpt>
      <trkpt lat="43.97708" lon="2.97838">
        <ele>815.4</ele>
        <time>2026-04-30T08:03:06.999Z</time>
      </trkpt>
      <trkpt lat="43.97708" lon="2.97838">
        <ele>815.4</ele>
        <time>2026-04-30T08:03:07.999Z</time>
      </trkpt>
      <trkpt lat="43.97708" lon="2.97838">
        <ele>815.4</ele>
        <time>2026-04-30T08:03:08.999Z</time>
      </trkpt>
      <trkpt lat="43.97708" lon="2.97838">
        <ele>815.2</ele>
        <time>2026-04-30T08:03:09.999Z</time>
      </trkpt>
      <trkpt lat="43.97708" lon="2.97838">
        <ele>815.3</ele>
        <time>2026-04-30T08:03:10.999Z</time>
      </trkpt>
      <trkpt lat="43.97708" lon="2.97838">
        <ele>815.3</ele>
        <time>2026-04-30T08:03:11.999Z</time>
      </trkpt>
      <trkpt lat="43.97708" lon="2.97838">
        <ele>815.2</ele>
        <time>2026-04-30T08:03:12.999Z</time>
      </trkpt>
      <trkpt lat="43.97708" lon="2.97838">
        <ele>815.2</ele>
        <time>2026-04-30T08:03:13.999Z</time>
      </trkpt>
      <trkpt lat="43.97708" lon="2.97838">
        <ele>815.3</ele>
        <time>2026-04-30T08:03:14.999Z</time>
      </trkpt>
      <trkpt lat="43.97708" lon="2.97838">
        <ele>815.3</ele>
        <time>2026-04-30T08:03:15.999Z</time>
      </trkpt>
      <trkpt lat="43.97708" lon="2.97838">
        <ele>815.2</ele>
        <time>2026-04-30T08:03:16.999Z</time>
      </trkpt>
      <trkpt lat="43.97708" lon="2.97838">
        <ele>815.2</ele>
        <time>2026-04-30T08:03:17.999Z</time>
      </trkpt>
      <trkpt lat="43.97708" lon="2.97838">
        <ele>815.3</ele>
        <time>2026-04-30T08:03:18.999Z</time>
      </trkpt>
      <trkpt lat="43.97708" lon="2.97838">
        <ele>815.5</ele>
        <time>2026-04-30T08:03:19.999Z</time>
      </trkpt>
      <trkpt lat="43.97708" lon="2.97839">
        <ele>815.6</ele>
        <time>2026-04-30T08:03:20.999Z</time>
      </trkpt>
      <trkpt lat="43.97707" lon="2.97839">
        <ele>815.7</ele>
        <time>2026-04-30T08:03:21.999Z</time>
      </trkpt>
      <trkpt lat="43.97706" lon="2.97838">
        <ele>815.7</ele>
        <time>2026-04-30T08:03:22.999Z</time>
      </trkpt>
      <trkpt lat="43.97706" lon="2.97838">
        <ele>815.7</ele>
        <time>2026-04-30T08:03:23.999Z</time>
      </trkpt>
      <trkpt lat="43.97706" lon="2.97838">
        <ele>815.6</ele>
        <time>2026-04-30T08:03:24.999Z</time>
      </trkpt>
      <trkpt lat="43.97706" lon="2.97838">
        <ele>815.4</ele>
        <time>2026-04-30T08:03:25.999Z</time>
      </trkpt>
      <trkpt lat="43.97706" lon="2.97838">
        <ele>815.4</ele>
        <time>2026-04-30T08:03:26.999Z</time>
      </trkpt>
      <trkpt lat="43.97706" lon="2.97838">
        <ele>815.4</ele>
        <time>2026-04-30T08:03:27.999Z</time>
      </trkpt>
      <trkpt lat="43.97705" lon="2.97837">
        <ele>815.2</ele>
        <time>2026-04-30T08:03:28.999Z</time>
      </trkpt>
      <trkpt lat="43.97704" lon="2.97837">
        <ele>815.2</ele>
        <time>2026-04-30T08:03:29.999Z</time>
      </trkpt>
      <trkpt lat="43.97704" lon="2.97836">
        <ele>815.2</ele>
        <time>2026-04-30T08:03:30.999Z</time>
      </trkpt>
      <trkpt lat="43.97704" lon="2.97836">
        <ele>815.4</ele>
        <time>2026-04-30T08:03:31.999Z</time>
      </trkpt>
      <trkpt lat="43.97704" lon="2.97836">
        <ele>815.7</ele>
        <time>2026-04-30T08:03:32.999Z</time>
      </trkpt>
      <trkpt lat="43.97704" lon="2.97836">
        <ele>815.6</ele>
        <time>2026-04-30T08:03:33.999Z</time>
      </trkpt>
      <trkpt lat="43.97704" lon="2.97836">
        <ele>815.4</ele>
        <time>2026-04-30T08:03:34.999Z</time>
      </trkpt>
      <trkpt lat="43.97704" lon="2.97836">
        <ele>815.4</ele>
        <time>2026-04-30T08:03:35.999Z</time>
      </trkpt>
      <trkpt lat="43.97703" lon="2.97837">
        <ele>815.5</ele>
        <time>2026-04-30T08:03:36.999Z</time>
      </trkpt>
      <trkpt lat="43.97703" lon="2.97838">
        <ele>815.5</ele>
        <time>2026-04-30T08:03:37.999Z</time>
      </trkpt>
      <trkpt lat="43.97702" lon="2.97838">
        <ele>815.5</ele>
        <time>2026-04-30T08:03:38.999Z</time>
      </trkpt>
      <trkpt lat="43.97702" lon="2.97839">
        <ele>815.5</ele>
        <time>2026-04-30T08:03:39.999Z</time>
      </trkpt>
      <trkpt lat="43.97702" lon="2.97839">
        <ele>815.6</ele>
        <time>2026-04-30T08:03:40.999Z</time>
      </trkpt>
      <trkpt lat="43.97702" lon="2.97839">
        <ele>815.6</ele>
        <time>2026-04-30T08:03:41.999Z</time>
      </trkpt>
      <trkpt lat="43.97702" lon="2.97839">
        <ele>815.6</ele>
        <time>2026-04-30T08:03:42.999Z</time>
      </trkpt>
      <trkpt lat="43.97702" lon="2.97839">
        <ele>815.7</ele>
        <time>2026-04-30T08:03:43.999Z</time>
      </trkpt>
      <trkpt lat="43.97702" lon="2.97838">
        <ele>816</ele>
        <time>2026-04-30T08:03:44.999Z</time>
      </trkpt>
      <trkpt lat="43.97702" lon="2.97838">
        <ele>815.9</ele>
        <time>2026-04-30T08:03:45.999Z</time>
      </trkpt>
      <trkpt lat="43.97702" lon="2.97838">
        <ele>815.9</ele>
        <time>2026-04-30T08:03:46.999Z</time>
      </trkpt>
      <trkpt lat="43.97702" lon="2.97838">
        <ele>816</ele>
        <time>2026-04-30T08:03:47.999Z</time>
      </trkpt>
      <trkpt lat="43.97702" lon="2.97838">
        <ele>816</ele>
        <time>2026-04-30T08:03:48.999Z</time>
      </trkpt>
      <trkpt lat="43.97702" lon="2.97838">
        <ele>816.1</ele>
        <time>2026-04-30T08:03:49.999Z</time>
      </trkpt>
      <trkpt lat="43.97702" lon="2.97839">
        <ele>816.1</ele>
        <time>2026-04-30T08:03:50.999Z</time>
      </trkpt>
      <trkpt lat="43.97702" lon="2.97839">
        <ele>816.2</ele>
        <time>2026-04-30T08:03:51.999Z</time>
      </trkpt>
      <trkpt lat="43.97702" lon="2.97839">
        <ele>816.1</ele>
        <time>2026-04-30T08:03:52.999Z</time>
      </trkpt>
      <trkpt lat="43.97702" lon="2.97839">
        <ele>816.1</ele>
        <time>2026-04-30T08:03:53.999Z</time>
      </trkpt>
      <trkpt lat="43.97702" lon="2.97839">
        <ele>816.3</ele>
        <time>2026-04-30T08:03:54.999Z</time>
      </trkpt>
      <trkpt lat="43.97702" lon="2.97839">
        <ele>816.4</ele>
        <time>2026-04-30T08:03:55.999Z</time>
      </trkpt>
      <trkpt lat="43.97702" lon="2.97839">
        <ele>816.4</ele>
        <time>2026-04-30T08:03:56.999Z</time>
      </trkpt>
      <trkpt lat="43.97702" lon="2.97839">
        <ele>816.4</ele>
        <time>2026-04-30T08:03:57.999Z</time>
      </trkpt>
      <trkpt lat="43.97702" lon="2.97839">
        <ele>816.7</ele>
        <time>2026-04-30T08:03:58.999Z</time>
      </trkpt>
      <trkpt lat="43.97702" lon="2.97839">
        <ele>816.7</ele>
        <time>2026-04-30T08:03:59.999Z</time>
      </trkpt>
      <trkpt lat="43.97702" lon="2.97839">
        <ele>816.5</ele>
        <time>2026-04-30T08:04:00.999Z</time>
      </trkpt>
      <trkpt lat="43.97702" lon="2.97839">
        <ele>816.5</ele>
        <time>2026-04-30T08:04:01.999Z</time>
      </trkpt>
      <trkpt lat="43.97702" lon="2.97839">
        <ele>816.4</ele>
        <time>2026-04-30T08:04:02.999Z</time>
      </trkpt>
      <trkpt lat="43.97702" lon="2.97839">
        <ele>816.4</ele>
        <time>2026-04-30T08:04:03.999Z</time>
      </trkpt>
      <trkpt lat="43.97702" lon="2.97839">
        <ele>816.3</ele>
        <time>2026-04-30T08:04:04.999Z</time>
      </trkpt>
      <trkpt lat="43.97702" lon="2.97839">
        <ele>816.2</ele>
        <time>2026-04-30T08:04:05.999Z</time>
      </trkpt>
      <trkpt lat="43.97702" lon="2.97839">
        <ele>816.1</ele>
        <time>2026-04-30T08:04:06.999Z</time>
      </trkpt>
      <trkpt lat="43.97702" lon="2.97839">
        <ele>816.2</ele>
        <time>2026-04-30T08:04:07.999Z</time>
      </trkpt>
      <trkpt lat="43.97702" lon="2.97839">
        <ele>816.2</ele>
        <time>2026-04-30T08:04:08.999Z</time>
      </trkpt>
      <trkpt lat="43.97702" lon="2.9784">
        <ele>816.3</ele>
        <time>2026-04-30T08:04:09.999Z</time>
      </trkpt>
      <trkpt lat="43.97702" lon="2.9784">
        <ele>816.4</ele>
        <time>2026-04-30T08:04:10.999Z</time>
      </trkpt>
      <trkpt lat="43.97702" lon="2.9784">
        <ele>816.3</ele>
        <time>2026-04-30T08:04:11.999Z</time>
      </trkpt>
      <trkpt lat="43.97702" lon="2.9784">
        <ele>816.2</ele>
        <time>2026-04-30T08:04:12.999Z</time>
      </trkpt>
      <trkpt lat="43.97702" lon="2.97841">
        <ele>816.1</ele>
        <time>2026-04-30T08:04:13.999Z</time>
      </trkpt>
      <trkpt lat="43.97701" lon="2.97841">
        <ele>816.1</ele>
        <time>2026-04-30T08:04:14.999Z</time>
      </trkpt>
      <trkpt lat="43.977" lon="2.97842">
        <ele>816</ele>
        <time>2026-04-30T08:04:15.999Z</time>
      </trkpt>
      <trkpt lat="43.977" lon="2.97842">
        <ele>815.9</ele>
        <time>2026-04-30T08:04:16.999Z</time>
      </trkpt>
      <trkpt lat="43.977" lon="2.97843">
        <ele>815.9</ele>
        <time>2026-04-30T08:04:17.999Z</time>
      </trkpt>
      <trkpt lat="43.97699" lon="2.97844">
        <ele>815.8</ele>
        <time>2026-04-30T08:04:18.999Z</time>
      </trkpt>
      <trkpt lat="43.97698" lon="2.97845">
        <ele>815.9</ele>
        <time>2026-04-30T08:04:19.999Z</time>
      </trkpt>
      <trkpt lat="43.97698" lon="2.97846">
        <ele>815.7</ele>
        <time>2026-04-30T08:04:20.999Z</time>
      </trkpt>
      <trkpt lat="43.97697" lon="2.97847">
        <ele>815.4</ele>
        <time>2026-04-30T08:04:21.999Z</time>
      </trkpt>
      <trkpt lat="43.97697" lon="2.97848">
        <ele>815.2</ele>
        <time>2026-04-30T08:04:22.999Z</time>
      </trkpt>
      <trkpt lat="43.97697" lon="2.97849">
        <ele>815.1</ele>
        <time>2026-04-30T08:04:23.999Z</time>
      </trkpt>
      <trkpt lat="43.97696" lon="2.9785">
        <ele>815</ele>
        <time>2026-04-30T08:04:24.999Z</time>
      </trkpt>
      <trkpt lat="43.97696" lon="2.97852">
        <ele>814.8</ele>
        <time>2026-04-30T08:04:25.999Z</time>
      </trkpt>
      <trkpt lat="43.97696" lon="2.97854">
        <ele>814.8</ele>
        <time>2026-04-30T08:04:26.999Z</time>
      </trkpt>
      <trkpt lat="43.97695" lon="2.97855">
        <ele>814.9</ele>
        <time>2026-04-30T08:04:27.999Z</time>
      </trkpt>
      <trkpt lat="43.97695" lon="2.97857">
        <ele>814.9</ele>
        <time>2026-04-30T08:04:28.999Z</time>
      </trkpt>
      <trkpt lat="43.97694" lon="2.97859">
        <ele>814.8</ele>
        <time>2026-04-30T08:04:29.999Z</time>
      </trkpt>
      <trkpt lat="43.97694" lon="2.9786">
        <ele>815</ele>
        <time>2026-04-30T08:04:30.999Z</time>
      </trkpt>
      <trkpt lat="43.97693" lon="2.97861">
        <ele>814.9</ele>
        <time>2026-04-30T08:04:31.999Z</time>
      </trkpt>
      <trkpt lat="43.97693" lon="2.97863">
        <ele>814.9</ele>
        <time>2026-04-30T08:04:32.999Z</time>
      </trkpt>
      <trkpt lat="43.97692" lon="2.97865">
        <ele>814.9</ele>
        <time>2026-04-30T08:04:33.999Z</time>
      </trkpt>
      <trkpt lat="43.97691" lon="2.97866">
        <ele>814.8</ele>
        <time>2026-04-30T08:04:34.999Z</time>
      </trkpt>
      <trkpt lat="43.9769" lon="2.97868">
        <ele>814.9</ele>
        <time>2026-04-30T08:04:35.999Z</time>
      </trkpt>
      <trkpt lat="43.9769" lon="2.9787">
        <ele>814.8</ele>
        <time>2026-04-30T08:04:36.999Z</time>
      </trkpt>
      <trkpt lat="43.9769" lon="2.97872">
        <ele>814.6</ele>
        <time>2026-04-30T08:04:37.999Z</time>
      </trkpt>
      <trkpt lat="43.9769" lon="2.97873">
        <ele>814.3</ele>
        <time>2026-04-30T08:04:38.999Z</time>
      </trkpt>
      <trkpt lat="43.9769" lon="2.97876">
        <ele>814.2</ele>
        <time>2026-04-30T08:04:39.999Z</time>
      </trkpt>
      <trkpt lat="43.9769" lon="2.97878">
        <ele>814.1</ele>
        <time>2026-04-30T08:04:40.999Z</time>
      </trkpt>
      <trkpt lat="43.9769" lon="2.97879">
        <ele>814.3</ele>
        <time>2026-04-30T08:04:41.999Z</time>
      </trkpt>
      <trkpt lat="43.97689" lon="2.97882">
        <ele>814.3</ele>
        <time>2026-04-30T08:04:42.999Z</time>
      </trkpt>
      <trkpt lat="43.97689" lon="2.97884">
        <ele>814.4</ele>
        <time>2026-04-30T08:04:43.999Z</time>
      </trkpt>
      <trkpt lat="43.97689" lon="2.97886">
        <ele>814.3</ele>
        <time>2026-04-30T08:04:44.999Z</time>
      </trkpt>
      <trkpt lat="43.97689" lon="2.97888">
        <ele>814.2</ele>
        <time>2026-04-30T08:04:45.999Z</time>
      </trkpt>
      <trkpt lat="43.97689" lon="2.9789">
        <ele>814</ele>
        <time>2026-04-30T08:04:46.999Z</time>
      </trkpt>
      <trkpt lat="43.9769" lon="2.97891">
        <ele>813.7</ele>
        <time>2026-04-30T08:04:47.999Z</time>
      </trkpt>
      <trkpt lat="43.9769" lon="2.97892">
        <ele>813.7</ele>
        <time>2026-04-30T08:04:48.999Z</time>
      </trkpt>
      <trkpt lat="43.9769" lon="2.97893">
        <ele>813.9</ele>
        <time>2026-04-30T08:04:49.999Z</time>
      </trkpt>
      <trkpt lat="43.9769" lon="2.97894">
        <ele>813.7</ele>
        <time>2026-04-30T08:04:50.999Z</time>
      </trkpt>
      <trkpt lat="43.9769" lon="2.97896">
        <ele>813.6</ele>
        <time>2026-04-30T08:04:51.999Z</time>
      </trkpt>
      <trkpt lat="43.9769" lon="2.97896">
        <ele>813.7</ele>
        <time>2026-04-30T08:04:52.999Z</time>
      </trkpt>
      <trkpt lat="43.9769" lon="2.97898">
        <ele>813.7</ele>
        <time>2026-04-30T08:04:53.999Z</time>
      </trkpt>
      <trkpt lat="43.97691" lon="2.97899">
        <ele>813.8</ele>
        <time>2026-04-30T08:04:54.999Z</time>
      </trkpt>
      <trkpt lat="43.9769" lon="2.97901">
        <ele>813.7</ele>
        <time>2026-04-30T08:04:55.999Z</time>
      </trkpt>
      <trkpt lat="43.97691" lon="2.97902">
        <ele>813.8</ele>
        <time>2026-04-30T08:04:56.999Z</time>
      </trkpt>
      <trkpt lat="43.9769" lon="2.97904">
        <ele>813.8</ele>
        <time>2026-04-30T08:04:57.999Z</time>
      </trkpt>
      <trkpt lat="43.9769" lon="2.97905">
        <ele>813.8</ele>
        <time>2026-04-30T08:04:58.999Z</time>
      </trkpt>
      <trkpt lat="43.97691" lon="2.97906">
        <ele>813.7</ele>
        <time>2026-04-30T08:04:59.999Z</time>
      </trkpt>
      <trkpt lat="43.9769" lon="2.97907">
        <ele>813.6</ele>
        <time>2026-04-30T08:05:00.999Z</time>
      </trkpt>
      <trkpt lat="43.9769" lon="2.97909">
        <ele>813.4</ele>
        <time>2026-04-30T08:05:01.999Z</time>
      </trkpt>
      <trkpt lat="43.9769" lon="2.9791">
        <ele>813.2</ele>
        <time>2026-04-30T08:05:02.999Z</time>
      </trkpt>
      <trkpt lat="43.97689" lon="2.97911">
        <ele>813.1</ele>
        <time>2026-04-30T08:05:03.999Z</time>
      </trkpt>
      <trkpt lat="43.97689" lon="2.97913">
        <ele>813.2</ele>
        <time>2026-04-30T08:05:04.999Z</time>
      </trkpt>
      <trkpt lat="43.97688" lon="2.97915">
        <ele>813.3</ele>
        <time>2026-04-30T08:05:05.999Z</time>
      </trkpt>
      <trkpt lat="43.97687" lon="2.97917">
        <ele>813.4</ele>
        <time>2026-04-30T08:05:06.999Z</time>
      </trkpt>
      <trkpt lat="43.97687" lon="2.97918">
        <ele>813.4</ele>
        <time>2026-04-30T08:05:07.999Z</time>
      </trkpt>
      <trkpt lat="43.97686" lon="2.9792">
        <ele>813.4</ele>
        <time>2026-04-30T08:05:08.999Z</time>
      </trkpt>
      <trkpt lat="43.97686" lon="2.97921">
        <ele>813.2</ele>
        <time>2026-04-30T08:05:09.999Z</time>
      </trkpt>
      <trkpt lat="43.97686" lon="2.97922">
        <ele>812.9</ele>
        <time>2026-04-30T08:05:10.999Z</time>
      </trkpt>
      <trkpt lat="43.97685" lon="2.97923">
        <ele>812.6</ele>
        <time>2026-04-30T08:05:11.999Z</time>
      </trkpt>
      <trkpt lat="43.97684" lon="2.97924">
        <ele>812.5</ele>
        <time>2026-04-30T08:05:12.999Z</time>
      </trkpt>
      <trkpt lat="43.97684" lon="2.97926">
        <ele>812.3</ele>
        <time>2026-04-30T08:05:13.999Z</time>
      </trkpt>
      <trkpt lat="43.97684" lon="2.97927">
        <ele>812.1</ele>
        <time>2026-04-30T08:05:14.999Z</time>
      </trkpt>
      <trkpt lat="43.97683" lon="2.97929">
        <ele>811.7</ele>
        <time>2026-04-30T08:05:15.999Z</time>
      </trkpt>
      <trkpt lat="43.97682" lon="2.9793">
        <ele>811.8</ele>
        <time>2026-04-30T08:05:16.999Z</time>
      </trkpt>
      <trkpt lat="43.97682" lon="2.97931">
        <ele>811.7</ele>
        <time>2026-04-30T08:05:17.999Z</time>
      </trkpt>
      <trkpt lat="43.97681" lon="2.97933">
        <ele>811.5</ele>
        <time>2026-04-30T08:05:18.999Z</time>
      </trkpt>
      <trkpt lat="43.9768" lon="2.97935">
        <ele>811.2</ele>
        <time>2026-04-30T08:05:19.999Z</time>
      </trkpt>
      <trkpt lat="43.9768" lon="2.97936">
        <ele>811.4</ele>
        <time>2026-04-30T08:05:20.999Z</time>
      </trkpt>
      <trkpt lat="43.97679" lon="2.97937">
        <ele>811.1</ele>
        <time>2026-04-30T08:05:21.999Z</time>
      </trkpt>
      <trkpt lat="43.97679" lon="2.97938">
        <ele>811.1</ele>
        <time>2026-04-30T08:05:22.999Z</time>
      </trkpt>
      <trkpt lat="43.97678" lon="2.97939">
        <ele>811.2</ele>
        <time>2026-04-30T08:05:23.999Z</time>
      </trkpt>
      <trkpt lat="43.97677" lon="2.97941">
        <ele>811.3</ele>
        <time>2026-04-30T08:05:24.999Z</time>
      </trkpt>
      <trkpt lat="43.97676" lon="2.97942">
        <ele>811.4</ele>
        <time>2026-04-30T08:05:25.999Z</time>
      </trkpt>
      <trkpt lat="43.97675" lon="2.97943">
        <ele>811.3</ele>
        <time>2026-04-30T08:05:26.999Z</time>
      </trkpt>
      <trkpt lat="43.97674" lon="2.97944">
        <ele>811.2</ele>
        <time>2026-04-30T08:05:27.999Z</time>
      </trkpt>
      <trkpt lat="43.97673" lon="2.97945">
        <ele>811.1</ele>
        <time>2026-04-30T08:05:28.999Z</time>
      </trkpt>
      <trkpt lat="43.97673" lon="2.97946">
        <ele>811.4</ele>
        <time>2026-04-30T08:05:29.999Z</time>
      </trkpt>
      <trkpt lat="43.97672" lon="2.97946">
        <ele>811.4</ele>
        <time>2026-04-30T08:05:30.999Z</time>
      </trkpt>
      <trkpt lat="43.97672" lon="2.97946">
        <ele>811.4</ele>
        <time>2026-04-30T08:05:31.999Z</time>
      </trkpt>
      <trkpt lat="43.97671" lon="2.97947">
        <ele>811.6</ele>
        <time>2026-04-30T08:05:32.999Z</time>
      </trkpt>
      <trkpt lat="43.97671" lon="2.97948">
        <ele>811.6</ele>
        <time>2026-04-30T08:05:33.999Z</time>
      </trkpt>
      <trkpt lat="43.97671" lon="2.97949">
        <ele>811.5</ele>
        <time>2026-04-30T08:05:34.999Z</time>
      </trkpt>
      <trkpt lat="43.97671" lon="2.9795">
        <ele>811.3</ele>
        <time>2026-04-30T08:05:35.999Z</time>
      </trkpt>
      <trkpt lat="43.97671" lon="2.97952">
        <ele>811.1</ele>
        <time>2026-04-30T08:05:36.999Z</time>
      </trkpt>
      <trkpt lat="43.97671" lon="2.97954">
        <ele>811.1</ele>
        <time>2026-04-30T08:05:37.999Z</time>
      </trkpt>
      <trkpt lat="43.97672" lon="2.97956">
        <ele>811</ele>
        <time>2026-04-30T08:05:38.999Z</time>
      </trkpt>
      <trkpt lat="43.97672" lon="2.97957">
        <ele>811</ele>
        <time>2026-04-30T08:05:39.999Z</time>
      </trkpt>
      <trkpt lat="43.97673" lon="2.97959">
        <ele>811.3</ele>
        <time>2026-04-30T08:05:40.999Z</time>
      </trkpt>
      <trkpt lat="43.97673" lon="2.97961">
        <ele>811.4</ele>
        <time>2026-04-30T08:05:41.999Z</time>
      </trkpt>
      <trkpt lat="43.97674" lon="2.97962">
        <ele>811.7</ele>
        <time>2026-04-30T08:05:42.999Z</time>
      </trkpt>
      <trkpt lat="43.97675" lon="2.97963">
        <ele>811.8</ele>
        <time>2026-04-30T08:05:43.999Z</time>
      </trkpt>
      <trkpt lat="43.97675" lon="2.97963">
        <ele>811.9</ele>
        <time>2026-04-30T08:05:44.999Z</time>
      </trkpt>
      <trkpt lat="43.97676" lon="2.97965">
        <ele>812</ele>
        <time>2026-04-30T08:05:45.999Z</time>
      </trkpt>
      <trkpt lat="43.97677" lon="2.97966">
        <ele>812</ele>
        <time>2026-04-30T08:05:46.999Z</time>
      </trkpt>
      <trkpt lat="43.97677" lon="2.97967">
        <ele>812</ele>
        <time>2026-04-30T08:05:47.999Z</time>
      </trkpt>
      <trkpt lat="43.97678" lon="2.97968">
        <ele>812.3</ele>
        <time>2026-04-30T08:05:48.999Z</time>
      </trkpt>
      <trkpt lat="43.97678" lon="2.97969">
        <ele>812.5</ele>
        <time>2026-04-30T08:05:49.999Z</time>
      </trkpt>
      <trkpt lat="43.97678" lon="2.9797">
        <ele>812.6</ele>
        <time>2026-04-30T08:05:50.999Z</time>
      </trkpt>
      <trkpt lat="43.97678" lon="2.97972">
        <ele>813</ele>
        <time>2026-04-30T08:05:51.999Z</time>
      </trkpt>
      <trkpt lat="43.97679" lon="2.97974">
        <ele>812.9</ele>
        <time>2026-04-30T08:05:52.999Z</time>
      </trkpt>
      <trkpt lat="43.97679" lon="2.97975">
        <ele>813</ele>
        <time>2026-04-30T08:05:53.999Z</time>
      </trkpt>
      <trkpt lat="43.97679" lon="2.97976">
        <ele>813</ele>
        <time>2026-04-30T08:05:54.999Z</time>
      </trkpt>
      <trkpt lat="43.97679" lon="2.97977">
        <ele>813.1</ele>
        <time>2026-04-30T08:05:55.999Z</time>
      </trkpt>
      <trkpt lat="43.97679" lon="2.97977">
        <ele>813.4</ele>
        <time>2026-04-30T08:05:56.999Z</time>
      </trkpt>
      <trkpt lat="43.97679" lon="2.97977">
        <ele>813.9</ele>
        <time>2026-04-30T08:05:57.999Z</time>
      </trkpt>
      <trkpt lat="43.97679" lon="2.97977">
        <ele>813.7</ele>
        <time>2026-04-30T08:05:58.999Z</time>
      </trkpt>
      <trkpt lat="43.97679" lon="2.97977">
        <ele>813.8</ele>
        <time>2026-04-30T08:05:59.999Z</time>
      </trkpt>
      <trkpt lat="43.97679" lon="2.97977">
        <ele>814.2</ele>
        <time>2026-04-30T08:06:00.999Z</time>
      </trkpt>
      <trkpt lat="43.97679" lon="2.97977">
        <ele>814.3</ele>
        <time>2026-04-30T08:06:01.999Z</time>
      </trkpt>
      <trkpt lat="43.97679" lon="2.97977">
        <ele>813.9</ele>
        <time>2026-04-30T08:06:02.999Z</time>
      </trkpt>
      <trkpt lat="43.97679" lon="2.97977">
        <ele>813.7</ele>
        <time>2026-04-30T08:06:03.999Z</time>
      </trkpt>
      <trkpt lat="43.97679" lon="2.97977">
        <ele>813.5</ele>
        <time>2026-04-30T08:06:04.999Z</time>
      </trkpt>
      <trkpt lat="43.97679" lon="2.97977">
        <ele>813.4</ele>
        <time>2026-04-30T08:06:05.999Z</time>
      </trkpt>
      <trkpt lat="43.97679" lon="2.97977">
        <ele>813.4</ele>
        <time>2026-04-30T08:06:06.999Z</time>
      </trkpt>
      <trkpt lat="43.97679" lon="2.97977">
        <ele>813.2</ele>
        <time>2026-04-30T08:06:07.999Z</time>
      </trkpt>
      <trkpt lat="43.97679" lon="2.97977">
        <ele>813.2</ele>
        <time>2026-04-30T08:06:08.999Z</time>
      </trkpt>
      <trkpt lat="43.97679" lon="2.97979">
        <ele>813.3</ele>
        <time>2026-04-30T08:06:09.999Z</time>
      </trkpt>
      <trkpt lat="43.97679" lon="2.97981">
        <ele>813.4</ele>
        <time>2026-04-30T08:06:10.999Z</time>
      </trkpt>
      <trkpt lat="43.97679" lon="2.97982">
        <ele>813.4</ele>
        <time>2026-04-30T08:06:11.999Z</time>
      </trkpt>
      <trkpt lat="43.97679" lon="2.97983">
        <ele>813.5</ele>
        <time>2026-04-30T08:06:12.999Z</time>
      </trkpt>
      <trkpt lat="43.97679" lon="2.97984">
        <ele>813.4</ele>
        <time>2026-04-30T08:06:13.999Z</time>
      </trkpt>
      <trkpt lat="43.97679" lon="2.97985">
        <ele>813</ele>
        <time>2026-04-30T08:06:14.999Z</time>
      </trkpt>
      <trkpt lat="43.97679" lon="2.97986">
        <ele>812.9</ele>
        <time>2026-04-30T08:06:15.999Z</time>
      </trkpt>
      <trkpt lat="43.97679" lon="2.97988">
        <ele>812.9</ele>
        <time>2026-04-30T08:06:16.999Z</time>
      </trkpt>
      <trkpt lat="43.97679" lon="2.97989">
        <ele>812.7</ele>
        <time>2026-04-30T08:06:17.999Z</time>
      </trkpt>
      <trkpt lat="43.97679" lon="2.9799">
        <ele>812.7</ele>
        <time>2026-04-30T08:06:18.999Z</time>
      </trkpt>
      <trkpt lat="43.97678" lon="2.97991">
        <ele>812.5</ele>
        <time>2026-04-30T08:06:19.999Z</time>
      </trkpt>
      <trkpt lat="43.97678" lon="2.97991">
        <ele>812.4</ele>
        <time>2026-04-30T08:06:20.999Z</time>
      </trkpt>
      <trkpt lat="43.97678" lon="2.97992">
        <ele>812.3</ele>
        <time>2026-04-30T08:06:21.999Z</time>
      </trkpt>
      <trkpt lat="43.97678" lon="2.97993">
        <ele>812.2</ele>
        <time>2026-04-30T08:06:22.999Z</time>
      </trkpt>
      <trkpt lat="43.97679" lon="2.97993">
        <ele>812.1</ele>
        <time>2026-04-30T08:06:23.999Z</time>
      </trkpt>
      <trkpt lat="43.97679" lon="2.97994">
        <ele>811.9</ele>
        <time>2026-04-30T08:06:24.999Z</time>
      </trkpt>
      <trkpt lat="43.97679" lon="2.97994">
        <ele>811.6</ele>
        <time>2026-04-30T08:06:25.999Z</time>
      </trkpt>
      <trkpt lat="43.97679" lon="2.97994">
        <ele>811.3</ele>
        <time>2026-04-30T08:06:26.999Z</time>
      </trkpt>
      <trkpt lat="43.97679" lon="2.97994">
        <ele>811.4</ele>
        <time>2026-04-30T08:06:27.999Z</time>
      </trkpt>
      <trkpt lat="43.97679" lon="2.97994">
        <ele>811.3</ele>
        <time>2026-04-30T08:06:28.999Z</time>
      </trkpt>
      <trkpt lat="43.97679" lon="2.97994">
        <ele>811.1</ele>
        <time>2026-04-30T08:06:29.999Z</time>
      </trkpt>
      <trkpt lat="43.97679" lon="2.97994">
        <ele>811.3</ele>
        <time>2026-04-30T08:06:30.999Z</time>
      </trkpt>
      <trkpt lat="43.97678" lon="2.97995">
        <ele>811.4</ele>
        <time>2026-04-30T08:06:31.999Z</time>
      </trkpt>
      <trkpt lat="43.97678" lon="2.97996">
        <ele>811.5</ele>
        <time>2026-04-30T08:06:32.999Z</time>
      </trkpt>
      <trkpt lat="43.97677" lon="2.97996">
        <ele>811.3</ele>
        <time>2026-04-30T08:06:33.999Z</time>
      </trkpt>
      <trkpt lat="43.97676" lon="2.97997">
        <ele>811.3</ele>
        <time>2026-04-30T08:06:34.999Z</time>
      </trkpt>
      <trkpt lat="43.97676" lon="2.97999">
        <ele>811.4</ele>
        <time>2026-04-30T08:06:35.999Z</time>
      </trkpt>
      <trkpt lat="43.97675" lon="2.98001">
        <ele>811.3</ele>
        <time>2026-04-30T08:06:36.999Z</time>
      </trkpt>
      <trkpt lat="43.97674" lon="2.98002">
        <ele>811.2</ele>
        <time>2026-04-30T08:06:37.999Z</time>
      </trkpt>
      <trkpt lat="43.97673" lon="2.98002">
        <ele>811</ele>
        <time>2026-04-30T08:06:38.999Z</time>
      </trkpt>
      <trkpt lat="43.97672" lon="2.98003">
        <ele>811.1</ele>
        <time>2026-04-30T08:06:39.999Z</time>
      </trkpt>
      <trkpt lat="43.97672" lon="2.98005">
        <ele>811.2</ele>
        <time>2026-04-30T08:06:40.999Z</time>
      </trkpt>
      <trkpt lat="43.97671" lon="2.98006">
        <ele>811.3</ele>
        <time>2026-04-30T08:06:41.999Z</time>
      </trkpt>
      <trkpt lat="43.9767" lon="2.98007">
        <ele>811.6</ele>
        <time>2026-04-30T08:06:42.999Z</time>
      </trkpt>
      <trkpt lat="43.9767" lon="2.98008">
        <ele>811.8</ele>
        <time>2026-04-30T08:06:43.999Z</time>
      </trkpt>
      <trkpt lat="43.9767" lon="2.98008">
        <ele>812.1</ele>
        <time>2026-04-30T08:06:44.999Z</time>
      </trkpt>
      <trkpt lat="43.9767" lon="2.98008">
        <ele>812.4</ele>
        <time>2026-04-30T08:06:45.999Z</time>
      </trkpt>
      <trkpt lat="43.9767" lon="2.98008">
        <ele>812.5</ele>
        <time>2026-04-30T08:06:46.999Z</time>
      </trkpt>
      <trkpt lat="43.97669" lon="2.98008">
        <ele>812.6</ele>
        <time>2026-04-30T08:06:47.999Z</time>
      </trkpt>
      <trkpt lat="43.97669" lon="2.98009">
        <ele>812.7</ele>
        <time>2026-04-30T08:06:48.999Z</time>
      </trkpt>
      <trkpt lat="43.97668" lon="2.9801">
        <ele>812.4</ele>
        <time>2026-04-30T08:06:49.999Z</time>
      </trkpt>
      <trkpt lat="43.97667" lon="2.9801">
        <ele>812.2</ele>
        <time>2026-04-30T08:06:50.999Z</time>
      </trkpt>
      <trkpt lat="43.97667" lon="2.98012">
        <ele>812.2</ele>
        <time>2026-04-30T08:06:51.999Z</time>
      </trkpt>
      <trkpt lat="43.97666" lon="2.98013">
        <ele>812.1</ele>
        <time>2026-04-30T08:06:52.999Z</time>
      </trkpt>
      <trkpt lat="43.97665" lon="2.98013">
        <ele>811.9</ele>
        <time>2026-04-30T08:06:53.999Z</time>
      </trkpt>
      <trkpt lat="43.97664" lon="2.98014">
        <ele>811.7</ele>
        <time>2026-04-30T08:06:54.999Z</time>
      </trkpt>
      <trkpt lat="43.97663" lon="2.98016">
        <ele>811.8</ele>
        <time>2026-04-30T08:06:55.999Z</time>
      </trkpt>
      <trkpt lat="43.97662" lon="2.98017">
        <ele>811.8</ele>
        <time>2026-04-30T08:06:56.999Z</time>
      </trkpt>
      <trkpt lat="43.97661" lon="2.98019">
        <ele>811.7</ele>
        <time>2026-04-30T08:06:57.999Z</time>
      </trkpt>
      <trkpt lat="43.97661" lon="2.98021">
        <ele>811.6</ele>
        <time>2026-04-30T08:06:58.999Z</time>
      </trkpt>
      <trkpt lat="43.9766" lon="2.98022">
        <ele>811.6</ele>
        <time>2026-04-30T08:06:59.999Z</time>
      </trkpt>
      <trkpt lat="43.9766" lon="2.98024">
        <ele>811.7</ele>
        <time>2026-04-30T08:07:00.999Z</time>
      </trkpt>
      <trkpt lat="43.9766" lon="2.98025">
        <ele>812</ele>
        <time>2026-04-30T08:07:01.999Z</time>
      </trkpt>
      <trkpt lat="43.9766" lon="2.98027">
        <ele>811.9</ele>
        <time>2026-04-30T08:07:02.999Z</time>
      </trkpt>
      <trkpt lat="43.9766" lon="2.98029">
        <ele>811.9</ele>
        <time>2026-04-30T08:07:03.999Z</time>
      </trkpt>
      <trkpt lat="43.9766" lon="2.98031">
        <ele>811.9</ele>
        <time>2026-04-30T08:07:04.999Z</time>
      </trkpt>
      <trkpt lat="43.97659" lon="2.98033">
        <ele>812.3</ele>
        <time>2026-04-30T08:07:05.999Z</time>
      </trkpt>
      <trkpt lat="43.97659" lon="2.98035">
        <ele>812.8</ele>
        <time>2026-04-30T08:07:06.999Z</time>
      </trkpt>
      <trkpt lat="43.97659" lon="2.98037">
        <ele>813.3</ele>
        <time>2026-04-30T08:07:07.999Z</time>
      </trkpt>
      <trkpt lat="43.97659" lon="2.98039">
        <ele>813.5</ele>
        <time>2026-04-30T08:07:08.999Z</time>
      </trkpt>
      <trkpt lat="43.9766" lon="2.9804">
        <ele>813.4</ele>
        <time>2026-04-30T08:07:09.999Z</time>
      </trkpt>
      <trkpt lat="43.9766" lon="2.98042">
        <ele>813.6</ele>
        <time>2026-04-30T08:07:10.999Z</time>
      </trkpt>
      <trkpt lat="43.9766" lon="2.98044">
        <ele>813.8</ele>
        <time>2026-04-30T08:07:11.999Z</time>
      </trkpt>
      <trkpt lat="43.97661" lon="2.98045">
        <ele>813.9</ele>
        <time>2026-04-30T08:07:12.999Z</time>
      </trkpt>
      <trkpt lat="43.97661" lon="2.98046">
        <ele>814</ele>
        <time>2026-04-30T08:07:13.999Z</time>
      </trkpt>
      <trkpt lat="43.97662" lon="2.98049">
        <ele>814.2</ele>
        <time>2026-04-30T08:07:14.999Z</time>
      </trkpt>
      <trkpt lat="43.97662" lon="2.98051">
        <ele>814.5</ele>
        <time>2026-04-30T08:07:15.999Z</time>
      </trkpt>
      <trkpt lat="43.97662" lon="2.98053">
        <ele>814.4</ele>
        <time>2026-04-30T08:07:16.999Z</time>
      </trkpt>
      <trkpt lat="43.97662" lon="2.98054">
        <ele>814.9</ele>
        <time>2026-04-30T08:07:17.999Z</time>
      </trkpt>
      <trkpt lat="43.97662" lon="2.98056">
        <ele>815</ele>
        <time>2026-04-30T08:07:18.999Z</time>
      </trkpt>
      <trkpt lat="43.97663" lon="2.98057">
        <ele>815</ele>
        <time>2026-04-30T08:07:19.999Z</time>
      </trkpt>
      <trkpt lat="43.97663" lon="2.98057">
        <ele>814.8</ele>
        <time>2026-04-30T08:07:20.999Z</time>
      </trkpt>
      <trkpt lat="43.97663" lon="2.98058">
        <ele>814.3</ele>
        <time>2026-04-30T08:07:21.999Z</time>
      </trkpt>
      <trkpt lat="43.97663" lon="2.98059">
        <ele>814.3</ele>
        <time>2026-04-30T08:07:22.999Z</time>
      </trkpt>
      <trkpt lat="43.97663" lon="2.9806">
        <ele>814.1</ele>
        <time>2026-04-30T08:07:23.999Z</time>
      </trkpt>
      <trkpt lat="43.97663" lon="2.98063">
        <ele>814.6</ele>
        <time>2026-04-30T08:07:24.999Z</time>
      </trkpt>
      <trkpt lat="43.97663" lon="2.98064">
        <ele>814.8</ele>
        <time>2026-04-30T08:07:25.999Z</time>
      </trkpt>
      <trkpt lat="43.97663" lon="2.98066">
        <ele>814.6</ele>
        <time>2026-04-30T08:07:26.999Z</time>
      </trkpt>
      <trkpt lat="43.97663" lon="2.98067">
        <ele>814.7</ele>
        <time>2026-04-30T08:07:27.999Z</time>
      </trkpt>
      <trkpt lat="43.97663" lon="2.98068">
        <ele>814.8</ele>
        <time>2026-04-30T08:07:28.999Z</time>
      </trkpt>
      <trkpt lat="43.97662" lon="2.98069">
        <ele>815</ele>
        <time>2026-04-30T08:07:29.999Z</time>
      </trkpt>
      <trkpt lat="43.97662" lon="2.98071">
        <ele>815.1</ele>
        <time>2026-04-30T08:07:30.999Z</time>
      </trkpt>
      <trkpt lat="43.97662" lon="2.98074">
        <ele>815.3</ele>
        <time>2026-04-30T08:07:31.999Z</time>
      </trkpt>
      <trkpt lat="43.97663" lon="2.98076">
        <ele>815.5</ele>
        <time>2026-04-30T08:07:32.999Z</time>
      </trkpt>
      <trkpt lat="43.97663" lon="2.98078">
        <ele>815.8</ele>
        <time>2026-04-30T08:07:33.999Z</time>
      </trkpt>
      <trkpt lat="43.97662" lon="2.98079">
        <ele>815.9</ele>
        <time>2026-04-30T08:07:34.999Z</time>
      </trkpt>
      <trkpt lat="43.97662" lon="2.98081">
        <ele>816</ele>
        <time>2026-04-30T08:07:35.999Z</time>
      </trkpt>
      <trkpt lat="43.97662" lon="2.98082">
        <ele>815.9</ele>
        <time>2026-04-30T08:07:36.999Z</time>
      </trkpt>
      <trkpt lat="43.97661" lon="2.98084">
        <ele>815.9</ele>
        <time>2026-04-30T08:07:37.999Z</time>
      </trkpt>
      <trkpt lat="43.97661" lon="2.98086">
        <ele>815.6</ele>
        <time>2026-04-30T08:07:38.999Z</time>
      </trkpt>
      <trkpt lat="43.9766" lon="2.98087">
        <ele>815.3</ele>
        <time>2026-04-30T08:07:39.999Z</time>
      </trkpt>
      <trkpt lat="43.9766" lon="2.9809">
        <ele>815.1</ele>
        <time>2026-04-30T08:07:40.999Z</time>
      </trkpt>
      <trkpt lat="43.9766" lon="2.98091">
        <ele>814.8</ele>
        <time>2026-04-30T08:07:41.999Z</time>
      </trkpt>
      <trkpt lat="43.9766" lon="2.98092">
        <ele>814.3</ele>
        <time>2026-04-30T08:07:42.999Z</time>
      </trkpt>
      <trkpt lat="43.9766" lon="2.98093">
        <ele>813.9</ele>
        <time>2026-04-30T08:07:43.999Z</time>
      </trkpt>
      <trkpt lat="43.9766" lon="2.98092">
        <ele>813.8</ele>
        <time>2026-04-30T08:07:44.999Z</time>
      </trkpt>
      <trkpt lat="43.9766" lon="2.98093">
        <ele>813.8</ele>
        <time>2026-04-30T08:07:45.999Z</time>
      </trkpt>
      <trkpt lat="43.9766" lon="2.98093">
        <ele>813.8</ele>
        <time>2026-04-30T08:07:46.999Z</time>
      </trkpt>
      <trkpt lat="43.9766" lon="2.98093">
        <ele>813.9</ele>
        <time>2026-04-30T08:07:47.999Z</time>
      </trkpt>
      <trkpt lat="43.97659" lon="2.98095">
        <ele>814</ele>
        <time>2026-04-30T08:07:48.999Z</time>
      </trkpt>
      <trkpt lat="43.97659" lon="2.98096">
        <ele>814.1</ele>
        <time>2026-04-30T08:07:49.999Z</time>
      </trkpt>
      <trkpt lat="43.97658" lon="2.98097">
        <ele>814</ele>
        <time>2026-04-30T08:07:50.999Z</time>
      </trkpt>
      <trkpt lat="43.97657" lon="2.98098">
        <ele>814</ele>
        <time>2026-04-30T08:07:51.999Z</time>
      </trkpt>
      <trkpt lat="43.97657" lon="2.98099">
        <ele>813.9</ele>
        <time>2026-04-30T08:07:52.999Z</time>
      </trkpt>
      <trkpt lat="43.97656" lon="2.981">
        <ele>813.4</ele>
        <time>2026-04-30T08:07:53.999Z</time>
      </trkpt>
      <trkpt lat="43.97656" lon="2.98101">
        <ele>813.1</ele>
        <time>2026-04-30T08:07:54.999Z</time>
      </trkpt>
      <trkpt lat="43.97655" lon="2.98102">
        <ele>813.1</ele>
        <time>2026-04-30T08:07:55.999Z</time>
      </trkpt>
      <trkpt lat="43.97654" lon="2.98104">
        <ele>813.5</ele>
        <time>2026-04-30T08:07:56.999Z</time>
      </trkpt>
      <trkpt lat="43.97653" lon="2.98105">
        <ele>813.8</ele>
        <time>2026-04-30T08:07:57.999Z</time>
      </trkpt>
      <trkpt lat="43.97652" lon="2.98107">
        <ele>814</ele>
        <time>2026-04-30T08:07:58.999Z</time>
      </trkpt>
      <trkpt lat="43.97651" lon="2.98109">
        <ele>814.3</ele>
        <time>2026-04-30T08:07:59.999Z</time>
      </trkpt>
      <trkpt lat="43.9765" lon="2.9811">
        <ele>814.2</ele>
        <time>2026-04-30T08:08:00.999Z</time>
      </trkpt>
      <trkpt lat="43.97649" lon="2.98111">
        <ele>814</ele>
        <time>2026-04-30T08:08:01.999Z</time>
      </trkpt>
      <trkpt lat="43.97648" lon="2.98112">
        <ele>813.9</ele>
        <time>2026-04-30T08:08:02.999Z</time>
      </trkpt>
      <trkpt lat="43.97647" lon="2.98113">
        <ele>814</ele>
        <time>2026-04-30T08:08:03.999Z</time>
      </trkpt>
      <trkpt lat="43.97646" lon="2.98115">
        <ele>814.2</ele>
        <time>2026-04-30T08:08:04.999Z</time>
      </trkpt>
      <trkpt lat="43.97645" lon="2.98116">
        <ele>814.3</ele>
        <time>2026-04-30T08:08:05.999Z</time>
      </trkpt>
      <trkpt lat="43.97644" lon="2.98117">
        <ele>814.3</ele>
        <time>2026-04-30T08:08:06.999Z</time>
      </trkpt>
      <trkpt lat="43.97644" lon="2.98118">
        <ele>814.2</ele>
        <time>2026-04-30T08:08:07.999Z</time>
      </trkpt>
      <trkpt lat="43.97643" lon="2.98119">
        <ele>814</ele>
        <time>2026-04-30T08:08:08.999Z</time>
      </trkpt>
      <trkpt lat="43.97642" lon="2.9812">
        <ele>814</ele>
        <time>2026-04-30T08:08:09.999Z</time>
      </trkpt>
      <trkpt lat="43.97641" lon="2.98121">
        <ele>813.9</ele>
        <time>2026-04-30T08:08:10.999Z</time>
      </trkpt>
      <trkpt lat="43.9764" lon="2.98123">
        <ele>814</ele>
        <time>2026-04-30T08:08:11.999Z</time>
      </trkpt>
      <trkpt lat="43.97639" lon="2.98124">
        <ele>814</ele>
        <time>2026-04-30T08:08:12.999Z</time>
      </trkpt>
      <trkpt lat="43.97638" lon="2.98125">
        <ele>813.8</ele>
        <time>2026-04-30T08:08:13.999Z</time>
      </trkpt>
      <trkpt lat="43.97637" lon="2.98126">
        <ele>813.7</ele>
        <time>2026-04-30T08:08:14.999Z</time>
      </trkpt>
      <trkpt lat="43.97637" lon="2.98127">
        <ele>813.9</ele>
        <time>2026-04-30T08:08:15.999Z</time>
      </trkpt>
      <trkpt lat="43.97636" lon="2.98127">
        <ele>814.1</ele>
        <time>2026-04-30T08:08:16.999Z</time>
      </trkpt>
      <trkpt lat="43.97635" lon="2.98128">
        <ele>814.4</ele>
        <time>2026-04-30T08:08:17.999Z</time>
      </trkpt>
      <trkpt lat="43.97635" lon="2.98129">
        <ele>814.9</ele>
        <time>2026-04-30T08:08:18.999Z</time>
      </trkpt>
      <trkpt lat="43.97634" lon="2.98131">
        <ele>815.4</ele>
        <time>2026-04-30T08:08:19.999Z</time>
      </trkpt>
      <trkpt lat="43.97633" lon="2.98132">
        <ele>815.5</ele>
        <time>2026-04-30T08:08:20.999Z</time>
      </trkpt>
      <trkpt lat="43.97632" lon="2.98133">
        <ele>815.4</ele>
        <time>2026-04-30T08:08:21.999Z</time>
      </trkpt>
      <trkpt lat="43.97631" lon="2.98134">
        <ele>815.4</ele>
        <time>2026-04-30T08:08:22.999Z</time>
      </trkpt>
      <trkpt lat="43.97631" lon="2.98136">
        <ele>815.2</ele>
        <time>2026-04-30T08:08:23.999Z</time>
      </trkpt>
      <trkpt lat="43.9763" lon="2.98136">
        <ele>815.2</ele>
        <time>2026-04-30T08:08:24.999Z</time>
      </trkpt>
      <trkpt lat="43.97628" lon="2.98138">
        <ele>815.3</ele>
        <time>2026-04-30T08:08:25.999Z</time>
      </trkpt>
      <trkpt lat="43.97628" lon="2.98139">
        <ele>815.2</ele>
        <time>2026-04-30T08:08:26.999Z</time>
      </trkpt>
      <trkpt lat="43.97627" lon="2.9814">
        <ele>815</ele>
        <time>2026-04-30T08:08:27.999Z</time>
      </trkpt>
      <trkpt lat="43.97626" lon="2.98141">
        <ele>815.1</ele>
        <time>2026-04-30T08:08:28.999Z</time>
      </trkpt>
      <trkpt lat="43.97625" lon="2.98142">
        <ele>815.1</ele>
        <time>2026-04-30T08:08:29.999Z</time>
      </trkpt>
      <trkpt lat="43.97624" lon="2.98143">
        <ele>815.3</ele>
        <time>2026-04-30T08:08:30.999Z</time>
      </trkpt>
      <trkpt lat="43.97624" lon="2.98144">
        <ele>815.1</ele>
        <time>2026-04-30T08:08:31.999Z</time>
      </trkpt>
      <trkpt lat="43.97623" lon="2.98145">
        <ele>815.1</ele>
        <time>2026-04-30T08:08:32.999Z</time>
      </trkpt>
      <trkpt lat="43.97623" lon="2.98146">
        <ele>815</ele>
        <time>2026-04-30T08:08:33.999Z</time>
      </trkpt>
      <trkpt lat="43.97623" lon="2.98147">
        <ele>815</ele>
        <time>2026-04-30T08:08:34.999Z</time>
      </trkpt>
      <trkpt lat="43.97623" lon="2.98149">
        <ele>815.1</ele>
        <time>2026-04-30T08:08:35.999Z</time>
      </trkpt>
      <trkpt lat="43.97623" lon="2.9815">
        <ele>815.6</ele>
        <time>2026-04-30T08:08:36.999Z</time>
      </trkpt>
      <trkpt lat="43.97622" lon="2.98152">
        <ele>816</ele>
        <time>2026-04-30T08:08:37.999Z</time>
      </trkpt>
      <trkpt lat="43.97622" lon="2.98154">
        <ele>816.1</ele>
        <time>2026-04-30T08:08:38.999Z</time>
      </trkpt>
      <trkpt lat="43.97621" lon="2.98156">
        <ele>815.9</ele>
        <time>2026-04-30T08:08:39.999Z</time>
      </trkpt>
      <trkpt lat="43.97621" lon="2.98158">
        <ele>815.8</ele>
        <time>2026-04-30T08:08:40.999Z</time>
      </trkpt>
      <trkpt lat="43.9762" lon="2.9816">
        <ele>815.9</ele>
        <time>2026-04-30T08:08:41.999Z</time>
      </trkpt>
      <trkpt lat="43.97619" lon="2.98162">
        <ele>816</ele>
        <time>2026-04-30T08:08:42.999Z</time>
      </trkpt>
      <trkpt lat="43.97619" lon="2.98164">
        <ele>816.2</ele>
        <time>2026-04-30T08:08:43.999Z</time>
      </trkpt>
      <trkpt lat="43.97618" lon="2.98166">
        <ele>816.1</ele>
        <time>2026-04-30T08:08:44.999Z</time>
      </trkpt>
      <trkpt lat="43.97618" lon="2.98168">
        <ele>816</ele>
        <time>2026-04-30T08:08:45.999Z</time>
      </trkpt>
      <trkpt lat="43.97618" lon="2.9817">
        <ele>815.9</ele>
        <time>2026-04-30T08:08:46.999Z</time>
      </trkpt>
      <trkpt lat="43.97618" lon="2.98171">
        <ele>815.8</ele>
        <time>2026-04-30T08:08:47.999Z</time>
      </trkpt>
      <trkpt lat="43.97618" lon="2.98173">
        <ele>815.5</ele>
        <time>2026-04-30T08:08:48.999Z</time>
      </trkpt>
      <trkpt lat="43.97619" lon="2.98174">
        <ele>815.4</ele>
        <time>2026-04-30T08:08:49.999Z</time>
      </trkpt>
      <trkpt lat="43.97619" lon="2.98176">
        <ele>815.4</ele>
        <time>2026-04-30T08:08:50.999Z</time>
      </trkpt>
      <trkpt lat="43.97619" lon="2.98178">
        <ele>815.3</ele>
        <time>2026-04-30T08:08:51.999Z</time>
      </trkpt>
      <trkpt lat="43.97619" lon="2.98179">
        <ele>815.3</ele>
        <time>2026-04-30T08:08:52.999Z</time>
      </trkpt>
      <trkpt lat="43.97618" lon="2.98181">
        <ele>815.2</ele>
        <time>2026-04-30T08:08:53.999Z</time>
      </trkpt>
      <trkpt lat="43.97618" lon="2.98182">
        <ele>815.3</ele>
        <time>2026-04-30T08:08:54.999Z</time>
      </trkpt>
      <trkpt lat="43.97617" lon="2.98184">
        <ele>815.3</ele>
        <time>2026-04-30T08:08:55.999Z</time>
      </trkpt>
      <trkpt lat="43.97617" lon="2.98186">
        <ele>815.2</ele>
        <time>2026-04-30T08:08:56.999Z</time>
      </trkpt>
      <trkpt lat="43.97616" lon="2.98188">
        <ele>815.3</ele>
        <time>2026-04-30T08:08:57.999Z</time>
      </trkpt>
      <trkpt lat="43.97616" lon="2.98188">
        <ele>815.2</ele>
        <time>2026-04-30T08:08:58.999Z</time>
      </trkpt>
      <trkpt lat="43.97616" lon="2.98189">
        <ele>815.3</ele>
        <time>2026-04-30T08:08:59.999Z</time>
      </trkpt>
      <trkpt lat="43.97616" lon="2.9819">
        <ele>815.6</ele>
        <time>2026-04-30T08:09:00.999Z</time>
      </trkpt>
      <trkpt lat="43.97615" lon="2.98191">
        <ele>815.6</ele>
        <time>2026-04-30T08:09:01.999Z</time>
      </trkpt>
      <trkpt lat="43.97614" lon="2.98192">
        <ele>816.1</ele>
        <time>2026-04-30T08:09:02.999Z</time>
      </trkpt>
      <trkpt lat="43.97614" lon="2.98193">
        <ele>816.2</ele>
        <time>2026-04-30T08:09:03.999Z</time>
      </trkpt>
      <trkpt lat="43.97614" lon="2.98194">
        <ele>816</ele>
        <time>2026-04-30T08:09:04.999Z</time>
      </trkpt>
      <trkpt lat="43.97614" lon="2.98196">
        <ele>815.8</ele>
        <time>2026-04-30T08:09:05.999Z</time>
      </trkpt>
      <trkpt lat="43.97614" lon="2.98197">
        <ele>816</ele>
        <time>2026-04-30T08:09:06.999Z</time>
      </trkpt>
      <trkpt lat="43.97613" lon="2.98199">
        <ele>816.1</ele>
        <time>2026-04-30T08:09:07.999Z</time>
      </trkpt>
      <trkpt lat="43.97612" lon="2.98201">
        <ele>816.4</ele>
        <time>2026-04-30T08:09:08.999Z</time>
      </trkpt>
      <trkpt lat="43.97612" lon="2.98202">
        <ele>816.2</ele>
        <time>2026-04-30T08:09:09.999Z</time>
      </trkpt>
      <trkpt lat="43.97612" lon="2.98204">
        <ele>816</ele>
        <time>2026-04-30T08:09:10.999Z</time>
      </trkpt>
      <trkpt lat="43.97612" lon="2.98204">
        <ele>816</ele>
        <time>2026-04-30T08:09:11.999Z</time>
      </trkpt>
      <trkpt lat="43.97611" lon="2.98205">
        <ele>816</ele>
        <time>2026-04-30T08:09:12.999Z</time>
      </trkpt>
      <trkpt lat="43.97611" lon="2.98206">
        <ele>816.1</ele>
        <time>2026-04-30T08:09:13.999Z</time>
      </trkpt>
      <trkpt lat="43.9761" lon="2.98208">
        <ele>816.5</ele>
        <time>2026-04-30T08:09:14.999Z</time>
      </trkpt>
      <trkpt lat="43.97609" lon="2.98209">
        <ele>816.6</ele>
        <time>2026-04-30T08:09:15.999Z</time>
      </trkpt>
      <trkpt lat="43.97608" lon="2.98211">
        <ele>816.9</ele>
        <time>2026-04-30T08:09:16.999Z</time>
      </trkpt>
      <trkpt lat="43.97608" lon="2.98212">
        <ele>816.8</ele>
        <time>2026-04-30T08:09:17.999Z</time>
      </trkpt>
      <trkpt lat="43.97607" lon="2.98213">
        <ele>816.9</ele>
        <time>2026-04-30T08:09:18.999Z</time>
      </trkpt>
      <trkpt lat="43.97607" lon="2.98215">
        <ele>817.3</ele>
        <time>2026-04-30T08:09:19.999Z</time>
      </trkpt>
      <trkpt lat="43.97606" lon="2.98217">
        <ele>817.5</ele>
        <time>2026-04-30T08:09:20.999Z</time>
      </trkpt>
      <trkpt lat="43.97605" lon="2.98219">
        <ele>817.5</ele>
        <time>2026-04-30T08:09:21.999Z</time>
      </trkpt>
      <trkpt lat="43.97604" lon="2.98221">
        <ele>817.7</ele>
        <time>2026-04-30T08:09:22.999Z</time>
      </trkpt>
      <trkpt lat="43.97603" lon="2.98222">
        <ele>817.7</ele>
        <time>2026-04-30T08:09:23.999Z</time>
      </trkpt>
      <trkpt lat="43.97603" lon="2.98223">
        <ele>817.7</ele>
        <time>2026-04-30T08:09:24.999Z</time>
      </trkpt>
      <trkpt lat="43.97602" lon="2.98224">
        <ele>818</ele>
        <time>2026-04-30T08:09:25.999Z</time>
      </trkpt>
      <trkpt lat="43.97601" lon="2.98225">
        <ele>818.1</ele>
        <time>2026-04-30T08:09:26.999Z</time>
      </trkpt>
      <trkpt lat="43.97599" lon="2.98227">
        <ele>818.4</ele>
        <time>2026-04-30T08:09:27.999Z</time>
      </trkpt>
      <trkpt lat="43.97599" lon="2.98228">
        <ele>818.6</ele>
        <time>2026-04-30T08:09:28.999Z</time>
      </trkpt>
      <trkpt lat="43.97598" lon="2.98229">
        <ele>818.6</ele>
        <time>2026-04-30T08:09:29.999Z</time>
      </trkpt>
      <trkpt lat="43.97597" lon="2.98229">
        <ele>818.5</ele>
        <time>2026-04-30T08:09:30.999Z</time>
      </trkpt>
      <trkpt lat="43.97596" lon="2.9823">
        <ele>818.2</ele>
        <time>2026-04-30T08:09:31.999Z</time>
      </trkpt>
      <trkpt lat="43.97595" lon="2.98231">
        <ele>818.3</ele>
        <time>2026-04-30T08:09:32.999Z</time>
      </trkpt>
      <trkpt lat="43.97595" lon="2.98233">
        <ele>818.2</ele>
        <time>2026-04-30T08:09:33.999Z</time>
      </trkpt>
      <trkpt lat="43.97594" lon="2.98234">
        <ele>818.3</ele>
        <time>2026-04-30T08:09:34.999Z</time>
      </trkpt>
      <trkpt lat="43.97594" lon="2.98236">
        <ele>818.5</ele>
        <time>2026-04-30T08:09:35.999Z</time>
      </trkpt>
      <trkpt lat="43.97593" lon="2.98238">
        <ele>818.8</ele>
        <time>2026-04-30T08:09:36.999Z</time>
      </trkpt>
      <trkpt lat="43.97593" lon="2.9824">
        <ele>818.8</ele>
        <time>2026-04-30T08:09:37.999Z</time>
      </trkpt>
      <trkpt lat="43.97592" lon="2.98241">
        <ele>818.8</ele>
        <time>2026-04-30T08:09:38.999Z</time>
      </trkpt>
      <trkpt lat="43.97591" lon="2.98243">
        <ele>818.8</ele>
        <time>2026-04-30T08:09:39.999Z</time>
      </trkpt>
      <trkpt lat="43.97591" lon="2.98245">
        <ele>819</ele>
        <time>2026-04-30T08:09:40.999Z</time>
      </trkpt>
      <trkpt lat="43.97591" lon="2.98247">
        <ele>818.8</ele>
        <time>2026-04-30T08:09:41.999Z</time>
      </trkpt>
      <trkpt lat="43.97591" lon="2.98248">
        <ele>818.8</ele>
        <time>2026-04-30T08:09:42.999Z</time>
      </trkpt>
      <trkpt lat="43.97591" lon="2.9825">
        <ele>818.8</ele>
        <time>2026-04-30T08:09:43.999Z</time>
      </trkpt>
      <trkpt lat="43.97591" lon="2.98252">
        <ele>818.8</ele>
        <time>2026-04-30T08:09:44.999Z</time>
      </trkpt>
      <trkpt lat="43.9759" lon="2.98254">
        <ele>818.7</ele>
        <time>2026-04-30T08:09:45.999Z</time>
      </trkpt>
      <trkpt lat="43.9759" lon="2.98255">
        <ele>818.4</ele>
        <time>2026-04-30T08:09:46.999Z</time>
      </trkpt>
      <trkpt lat="43.97589" lon="2.98257">
        <ele>818.5</ele>
        <time>2026-04-30T08:09:47.999Z</time>
      </trkpt>
      <trkpt lat="43.97589" lon="2.98258">
        <ele>818.6</ele>
        <time>2026-04-30T08:09:48.999Z</time>
      </trkpt>
      <trkpt lat="43.97588" lon="2.9826">
        <ele>818.5</ele>
        <time>2026-04-30T08:09:49.999Z</time>
      </trkpt>
      <trkpt lat="43.97588" lon="2.98261">
        <ele>818.4</ele>
        <time>2026-04-30T08:09:50.999Z</time>
      </trkpt>
      <trkpt lat="43.97588" lon="2.98263">
        <ele>818.1</ele>
        <time>2026-04-30T08:09:51.999Z</time>
      </trkpt>
      <trkpt lat="43.97587" lon="2.98265">
        <ele>818.3</ele>
        <time>2026-04-30T08:09:52.999Z</time>
      </trkpt>
      <trkpt lat="43.97587" lon="2.98266">
        <ele>818.5</ele>
        <time>2026-04-30T08:09:53.999Z</time>
      </trkpt>
      <trkpt lat="43.97587" lon="2.98268">
        <ele>818.7</ele>
        <time>2026-04-30T08:09:54.999Z</time>
      </trkpt>
      <trkpt lat="43.97588" lon="2.98268">
        <ele>818.7</ele>
        <time>2026-04-30T08:09:55.999Z</time>
      </trkpt>
      <trkpt lat="43.97589" lon="2.98269">
        <ele>818.7</ele>
        <time>2026-04-30T08:09:56.999Z</time>
      </trkpt>
      <trkpt lat="43.97589" lon="2.98269">
        <ele>818.9</ele>
        <time>2026-04-30T08:09:57.999Z</time>
      </trkpt>
      <trkpt lat="43.97589" lon="2.9827">
        <ele>819.1</ele>
        <time>2026-04-30T08:09:58.999Z</time>
      </trkpt>
      <trkpt lat="43.97589" lon="2.98272">
        <ele>819.4</ele>
        <time>2026-04-30T08:09:59.999Z</time>
      </trkpt>
      <trkpt lat="43.97589" lon="2.98273">
        <ele>819.8</ele>
        <time>2026-04-30T08:10:00.999Z</time>
      </trkpt>
      <trkpt lat="43.97589" lon="2.98274">
        <ele>819.9</ele>
        <time>2026-04-30T08:10:01.999Z</time>
      </trkpt>
      <trkpt lat="43.97589" lon="2.98275">
        <ele>820.1</ele>
        <time>2026-04-30T08:10:02.999Z</time>
      </trkpt>
      <trkpt lat="43.97589" lon="2.98277">
        <ele>820.1</ele>
        <time>2026-04-30T08:10:03.999Z</time>
      </trkpt>
      <trkpt lat="43.97589" lon="2.98279">
        <ele>820.2</ele>
        <time>2026-04-30T08:10:04.999Z</time>
      </trkpt>
      <trkpt lat="43.97589" lon="2.98281">
        <ele>820.4</ele>
        <time>2026-04-30T08:10:05.999Z</time>
      </trkpt>
      <trkpt lat="43.97589" lon="2.98283">
        <ele>820.5</ele>
        <time>2026-04-30T08:10:06.999Z</time>
      </trkpt>
      <trkpt lat="43.97589" lon="2.98284">
        <ele>820.6</ele>
        <time>2026-04-30T08:10:07.999Z</time>
      </trkpt>
      <trkpt lat="43.97589" lon="2.98285">
        <ele>820.6</ele>
        <time>2026-04-30T08:10:08.999Z</time>
      </trkpt>
      <trkpt lat="43.97589" lon="2.98287">
        <ele>820.5</ele>
        <time>2026-04-30T08:10:09.999Z</time>
      </trkpt>
      <trkpt lat="43.97589" lon="2.98288">
        <ele>820.5</ele>
        <time>2026-04-30T08:10:10.999Z</time>
      </trkpt>
      <trkpt lat="43.9759" lon="2.98289">
        <ele>820.9</ele>
        <time>2026-04-30T08:10:11.999Z</time>
      </trkpt>
      <trkpt lat="43.9759" lon="2.9829">
        <ele>821.1</ele>
        <time>2026-04-30T08:10:12.999Z</time>
      </trkpt>
      <trkpt lat="43.9759" lon="2.98292">
        <ele>821.1</ele>
        <time>2026-04-30T08:10:13.999Z</time>
      </trkpt>
      <trkpt lat="43.9759" lon="2.98292">
        <ele>821</ele>
        <time>2026-04-30T08:10:14.999Z</time>
      </trkpt>
      <trkpt lat="43.97591" lon="2.98294">
        <ele>821.1</ele>
        <time>2026-04-30T08:10:15.999Z</time>
      </trkpt>
      <trkpt lat="43.97592" lon="2.98295">
        <ele>821.1</ele>
        <time>2026-04-30T08:10:16.999Z</time>
      </trkpt>
      <trkpt lat="43.97592" lon="2.98296">
        <ele>821.2</ele>
        <time>2026-04-30T08:10:17.999Z</time>
      </trkpt>
      <trkpt lat="43.97593" lon="2.98296">
        <ele>821.1</ele>
        <time>2026-04-30T08:10:18.999Z</time>
      </trkpt>
      <trkpt lat="43.97594" lon="2.98298">
        <ele>821.2</ele>
        <time>2026-04-30T08:10:19.999Z</time>
      </trkpt>
      <trkpt lat="43.97594" lon="2.98299">
        <ele>821.3</ele>
        <time>2026-04-30T08:10:20.999Z</time>
      </trkpt>
      <trkpt lat="43.97594" lon="2.983">
        <ele>821.2</ele>
        <time>2026-04-30T08:10:21.999Z</time>
      </trkpt>
      <trkpt lat="43.97595" lon="2.983">
        <ele>821.3</ele>
        <time>2026-04-30T08:10:22.999Z</time>
      </trkpt>
      <trkpt lat="43.97595" lon="2.983">
        <ele>821.3</ele>
        <time>2026-04-30T08:10:23.999Z</time>
      </trkpt>
      <trkpt lat="43.97595" lon="2.983">
        <ele>821.3</ele>
        <time>2026-04-30T08:10:24.999Z</time>
      </trkpt>
      <trkpt lat="43.97595" lon="2.983">
        <ele>821.4</ele>
        <time>2026-04-30T08:10:25.999Z</time>
      </trkpt>
      <trkpt lat="43.97596" lon="2.983">
        <ele>821.4</ele>
        <time>2026-04-30T08:10:26.999Z</time>
      </trkpt>
      <trkpt lat="43.97596" lon="2.983">
        <ele>821.4</ele>
        <time>2026-04-30T08:10:27.999Z</time>
      </trkpt>
      <trkpt lat="43.97596" lon="2.983">
        <ele>821.4</ele>
        <time>2026-04-30T08:10:28.999Z</time>
      </trkpt>
      <trkpt lat="43.97596" lon="2.983">
        <ele>821.4</ele>
        <time>2026-04-30T08:10:29.999Z</time>
      </trkpt>
      <trkpt lat="43.97596" lon="2.983">
        <ele>821.2</ele>
        <time>2026-04-30T08:10:30.999Z</time>
      </trkpt>
      <trkpt lat="43.97596" lon="2.983">
        <ele>821.2</ele>
        <time>2026-04-30T08:10:31.999Z</time>
      </trkpt>
      <trkpt lat="43.97596" lon="2.983">
        <ele>821</ele>
        <time>2026-04-30T08:10:32.999Z</time>
      </trkpt>
      <trkpt lat="43.97595" lon="2.983">
        <ele>820.8</ele>
        <time>2026-04-30T08:10:33.999Z</time>
      </trkpt>
      <trkpt lat="43.97595" lon="2.983">
        <ele>820.9</ele>
        <time>2026-04-30T08:10:34.999Z</time>
      </trkpt>
      <trkpt lat="43.97596" lon="2.98301">
        <ele>821</ele>
        <time>2026-04-30T08:10:35.999Z</time>
      </trkpt>
      <trkpt lat="43.97596" lon="2.98302">
        <ele>821</ele>
        <time>2026-04-30T08:10:36.999Z</time>
      </trkpt>
      <trkpt lat="43.97596" lon="2.98304">
        <ele>821.3</ele>
        <time>2026-04-30T08:10:37.999Z</time>
      </trkpt>
      <trkpt lat="43.97596" lon="2.98305">
        <ele>821.5</ele>
        <time>2026-04-30T08:10:38.999Z</time>
      </trkpt>
      <trkpt lat="43.97596" lon="2.98306">
        <ele>821.9</ele>
        <time>2026-04-30T08:10:39.999Z</time>
      </trkpt>
      <trkpt lat="43.97596" lon="2.98308">
        <ele>821.9</ele>
        <time>2026-04-30T08:10:40.999Z</time>
      </trkpt>
      <trkpt lat="43.97596" lon="2.98308">
        <ele>821.8</ele>
        <time>2026-04-30T08:10:41.999Z</time>
      </trkpt>
      <trkpt lat="43.97596" lon="2.98309">
        <ele>821.7</ele>
        <time>2026-04-30T08:10:42.999Z</time>
      </trkpt>
      <trkpt lat="43.97596" lon="2.98309">
        <ele>821.7</ele>
        <time>2026-04-30T08:10:43.999Z</time>
      </trkpt>
      <trkpt lat="43.97596" lon="2.9831">
        <ele>821.7</ele>
        <time>2026-04-30T08:10:44.999Z</time>
      </trkpt>
      <trkpt lat="43.97595" lon="2.98312">
        <ele>821.7</ele>
        <time>2026-04-30T08:10:45.999Z</time>
      </trkpt>
      <trkpt lat="43.97595" lon="2.98314">
        <ele>821.9</ele>
        <time>2026-04-30T08:10:46.999Z</time>
      </trkpt>
      <trkpt lat="43.97594" lon="2.98316">
        <ele>821.9</ele>
        <time>2026-04-30T08:10:47.999Z</time>
      </trkpt>
      <trkpt lat="43.97594" lon="2.98319">
        <ele>821.8</ele>
        <time>2026-04-30T08:10:48.999Z</time>
      </trkpt>
      <trkpt lat="43.97594" lon="2.9832">
        <ele>821.4</ele>
        <time>2026-04-30T08:10:49.999Z</time>
      </trkpt>
      <trkpt lat="43.97593" lon="2.98321">
        <ele>821.4</ele>
        <time>2026-04-30T08:10:50.999Z</time>
      </trkpt>
      <trkpt lat="43.97593" lon="2.98323">
        <ele>821.6</ele>
        <time>2026-04-30T08:10:51.999Z</time>
      </trkpt>
      <trkpt lat="43.97593" lon="2.98325">
        <ele>821.9</ele>
        <time>2026-04-30T08:10:52.999Z</time>
      </trkpt>
      <trkpt lat="43.97592" lon="2.98326">
        <ele>821.8</ele>
        <time>2026-04-30T08:10:53.999Z</time>
      </trkpt>
      <trkpt lat="43.97592" lon="2.98328">
        <ele>821.7</ele>
        <time>2026-04-30T08:10:54.999Z</time>
      </trkpt>
      <trkpt lat="43.97591" lon="2.98329">
        <ele>821.6</ele>
        <time>2026-04-30T08:10:55.999Z</time>
      </trkpt>
      <trkpt lat="43.97591" lon="2.9833">
        <ele>821.5</ele>
        <time>2026-04-30T08:10:56.999Z</time>
      </trkpt>
      <trkpt lat="43.9759" lon="2.98331">
        <ele>821.3</ele>
        <time>2026-04-30T08:10:57.999Z</time>
      </trkpt>
      <trkpt lat="43.97589" lon="2.98331">
        <ele>821</ele>
        <time>2026-04-30T08:10:58.999Z</time>
      </trkpt>
      <trkpt lat="43.97589" lon="2.98333">
        <ele>820.6</ele>
        <time>2026-04-30T08:10:59.999Z</time>
      </trkpt>
      <trkpt lat="43.97589" lon="2.98334">
        <ele>820.4</ele>
        <time>2026-04-30T08:11:00.999Z</time>
      </trkpt>
      <trkpt lat="43.97588" lon="2.98335">
        <ele>820.3</ele>
        <time>2026-04-30T08:11:01.999Z</time>
      </trkpt>
      <trkpt lat="43.97588" lon="2.98336">
        <ele>820.1</ele>
        <time>2026-04-30T08:11:02.999Z</time>
      </trkpt>
      <trkpt lat="43.97587" lon="2.98337">
        <ele>819.9</ele>
        <time>2026-04-30T08:11:03.999Z</time>
      </trkpt>
      <trkpt lat="43.97587" lon="2.98337">
        <ele>819.9</ele>
        <time>2026-04-30T08:11:04.999Z</time>
      </trkpt>
      <trkpt lat="43.97586" lon="2.98338">
        <ele>819.9</ele>
        <time>2026-04-30T08:11:05.999Z</time>
      </trkpt>
      <trkpt lat="43.97586" lon="2.98339">
        <ele>820.2</ele>
        <time>2026-04-30T08:11:06.999Z</time>
      </trkpt>
      <trkpt lat="43.97585" lon="2.98341">
        <ele>820.5</ele>
        <time>2026-04-30T08:11:07.999Z</time>
      </trkpt>
      <trkpt lat="43.97584" lon="2.98342">
        <ele>820.6</ele>
        <time>2026-04-30T08:11:08.999Z</time>
      </trkpt>
      <trkpt lat="43.97582" lon="2.98344">
        <ele>821</ele>
        <time>2026-04-30T08:11:09.999Z</time>
      </trkpt>
      <trkpt lat="43.9758" lon="2.98346">
        <ele>821.4</ele>
        <time>2026-04-30T08:11:10.999Z</time>
      </trkpt>
      <trkpt lat="43.97578" lon="2.98347">
        <ele>821.4</ele>
        <time>2026-04-30T08:11:11.999Z</time>
      </trkpt>
      <trkpt lat="43.97577" lon="2.98348">
        <ele>821.5</ele>
        <time>2026-04-30T08:11:12.999Z</time>
      </trkpt>
      <trkpt lat="43.97575" lon="2.98349">
        <ele>821.8</ele>
        <time>2026-04-30T08:11:13.999Z</time>
      </trkpt>
      <trkpt lat="43.97574" lon="2.98351">
        <ele>822</ele>
        <time>2026-04-30T08:11:14.999Z</time>
      </trkpt>
      <trkpt lat="43.97573" lon="2.98352">
        <ele>822.1</ele>
        <time>2026-04-30T08:11:15.999Z</time>
      </trkpt>
      <trkpt lat="43.97571" lon="2.98354">
        <ele>822</ele>
        <time>2026-04-30T08:11:16.999Z</time>
      </trkpt>
      <trkpt lat="43.9757" lon="2.98354">
        <ele>821.8</ele>
        <time>2026-04-30T08:11:17.999Z</time>
      </trkpt>
      <trkpt lat="43.97569" lon="2.98355">
        <ele>822.1</ele>
        <time>2026-04-30T08:11:18.999Z</time>
      </trkpt>
      <trkpt lat="43.97568" lon="2.98355">
        <ele>822.2</ele>
        <time>2026-04-30T08:11:19.999Z</time>
      </trkpt>
      <trkpt lat="43.97567" lon="2.98356">
        <ele>822.5</ele>
        <time>2026-04-30T08:11:20.999Z</time>
      </trkpt>
      <trkpt lat="43.97566" lon="2.98356">
        <ele>822.4</ele>
        <time>2026-04-30T08:11:21.999Z</time>
      </trkpt>
      <trkpt lat="43.97566" lon="2.98355">
        <ele>822.3</ele>
        <time>2026-04-30T08:11:22.999Z</time>
      </trkpt>
      <trkpt lat="43.97565" lon="2.98355">
        <ele>822.3</ele>
        <time>2026-04-30T08:11:23.999Z</time>
      </trkpt>
      <trkpt lat="43.97564" lon="2.98355">
        <ele>822.4</ele>
        <time>2026-04-30T08:11:24.999Z</time>
      </trkpt>
      <trkpt lat="43.97563" lon="2.98354">
        <ele>822.4</ele>
        <time>2026-04-30T08:11:25.999Z</time>
      </trkpt>
      <trkpt lat="43.97562" lon="2.98354">
        <ele>822.7</ele>
        <time>2026-04-30T08:11:26.999Z</time>
      </trkpt>
      <trkpt lat="43.9756" lon="2.98354">
        <ele>822.7</ele>
        <time>2026-04-30T08:11:27.999Z</time>
      </trkpt>
      <trkpt lat="43.97559" lon="2.98355">
        <ele>822.6</ele>
        <time>2026-04-30T08:11:28.999Z</time>
      </trkpt>
      <trkpt lat="43.97557" lon="2.98356">
        <ele>822.6</ele>
        <time>2026-04-30T08:11:29.999Z</time>
      </trkpt>
      <trkpt lat="43.97556" lon="2.98357">
        <ele>822.3</ele>
        <time>2026-04-30T08:11:30.999Z</time>
      </trkpt>
      <trkpt lat="43.97555" lon="2.98357">
        <ele>822.1</ele>
        <time>2026-04-30T08:11:31.999Z</time>
      </trkpt>
      <trkpt lat="43.97554" lon="2.98357">
        <ele>822</ele>
        <time>2026-04-30T08:11:32.999Z</time>
      </trkpt>
      <trkpt lat="43.97553" lon="2.98357">
        <ele>821.9</ele>
        <time>2026-04-30T08:11:33.999Z</time>
      </trkpt>
      <trkpt lat="43.97553" lon="2.98357">
        <ele>822</ele>
        <time>2026-04-30T08:11:34.999Z</time>
      </trkpt>
      <trkpt lat="43.97552" lon="2.98357">
        <ele>822.1</ele>
        <time>2026-04-30T08:11:35.999Z</time>
      </trkpt>
      <trkpt lat="43.97551" lon="2.98357">
        <ele>822</ele>
        <time>2026-04-30T08:11:36.999Z</time>
      </trkpt>
      <trkpt lat="43.9755" lon="2.98357">
        <ele>821.6</ele>
        <time>2026-04-30T08:11:37.999Z</time>
      </trkpt>
      <trkpt lat="43.97549" lon="2.98357">
        <ele>821.4</ele>
        <time>2026-04-30T08:11:38.999Z</time>
      </trkpt>
      <trkpt lat="43.97548" lon="2.98357">
        <ele>821.1</ele>
        <time>2026-04-30T08:11:39.999Z</time>
      </trkpt>
      <trkpt lat="43.97547" lon="2.98357">
        <ele>821</ele>
        <time>2026-04-30T08:11:40.999Z</time>
      </trkpt>
      <trkpt lat="43.97546" lon="2.98357">
        <ele>821.1</ele>
        <time>2026-04-30T08:11:41.999Z</time>
      </trkpt>
      <trkpt lat="43.97545" lon="2.98357">
        <ele>821.1</ele>
        <time>2026-04-30T08:11:42.999Z</time>
      </trkpt>
      <trkpt lat="43.97544" lon="2.98357">
        <ele>820.6</ele>
        <time>2026-04-30T08:11:43.999Z</time>
      </trkpt>
      <trkpt lat="43.97544" lon="2.98356">
        <ele>820.3</ele>
        <time>2026-04-30T08:11:44.999Z</time>
      </trkpt>
      <trkpt lat="43.97543" lon="2.98356">
        <ele>819.9</ele>
        <time>2026-04-30T08:11:45.999Z</time>
      </trkpt>
      <trkpt lat="43.97542" lon="2.98356">
        <ele>819.8</ele>
        <time>2026-04-30T08:11:46.999Z</time>
      </trkpt>
      <trkpt lat="43.97541" lon="2.98356">
        <ele>819.6</ele>
        <time>2026-04-30T08:11:47.999Z</time>
      </trkpt>
      <trkpt lat="43.9754" lon="2.98356">
        <ele>819.3</ele>
        <time>2026-04-30T08:11:48.999Z</time>
      </trkpt>
      <trkpt lat="43.9754" lon="2.98355">
        <ele>818.9</ele>
        <time>2026-04-30T08:11:49.999Z</time>
      </trkpt>
      <trkpt lat="43.97539" lon="2.98355">
        <ele>818.6</ele>
        <time>2026-04-30T08:11:50.999Z</time>
      </trkpt>
      <trkpt lat="43.97538" lon="2.98355">
        <ele>818.4</ele>
        <time>2026-04-30T08:11:51.999Z</time>
      </trkpt>
      <trkpt lat="43.97537" lon="2.98354">
        <ele>818.3</ele>
        <time>2026-04-30T08:11:52.999Z</time>
      </trkpt>
      <trkpt lat="43.97537" lon="2.98354">
        <ele>818.1</ele>
        <time>2026-04-30T08:11:53.999Z</time>
      </trkpt>
      <trkpt lat="43.97536" lon="2.98354">
        <ele>818</ele>
        <time>2026-04-30T08:11:54.999Z</time>
      </trkpt>
      <trkpt lat="43.97536" lon="2.98354">
        <ele>817.8</ele>
        <time>2026-04-30T08:11:55.999Z</time>
      </trkpt>
      <trkpt lat="43.97535" lon="2.98354">
        <ele>817.9</ele>
        <time>2026-04-30T08:11:56.999Z</time>
      </trkpt>
      <trkpt lat="43.97534" lon="2.98354">
        <ele>817.9</ele>
        <time>2026-04-30T08:11:57.999Z</time>
      </trkpt>
      <trkpt lat="43.97533" lon="2.98355">
        <ele>818.2</ele>
        <time>2026-04-30T08:11:58.999Z</time>
      </trkpt>
      <trkpt lat="43.97531" lon="2.98355">
        <ele>818.2</ele>
        <time>2026-04-30T08:11:59.999Z</time>
      </trkpt>
      <trkpt lat="43.97531" lon="2.98355">
        <ele>818.2</ele>
        <time>2026-04-30T08:12:00.999Z</time>
      </trkpt>
      <trkpt lat="43.9753" lon="2.98355">
        <ele>818.2</ele>
        <time>2026-04-30T08:12:01.999Z</time>
      </trkpt>
      <trkpt lat="43.97528" lon="2.98355">
        <ele>818.1</ele>
        <time>2026-04-30T08:12:02.999Z</time>
      </trkpt>
      <trkpt lat="43.97527" lon="2.98355">
        <ele>818.1</ele>
        <time>2026-04-30T08:12:03.999Z</time>
      </trkpt>
      <trkpt lat="43.97526" lon="2.98355">
        <ele>818.2</ele>
        <time>2026-04-30T08:12:04.999Z</time>
      </trkpt>
      <trkpt lat="43.97524" lon="2.98355">
        <ele>818.1</ele>
        <time>2026-04-30T08:12:05.999Z</time>
      </trkpt>
      <trkpt lat="43.97523" lon="2.98356">
        <ele>818.1</ele>
        <time>2026-04-30T08:12:06.999Z</time>
      </trkpt>
      <trkpt lat="43.97522" lon="2.98357">
        <ele>818.2</ele>
        <time>2026-04-30T08:12:07.999Z</time>
      </trkpt>
      <trkpt lat="43.9752" lon="2.98358">
        <ele>818.3</ele>
        <time>2026-04-30T08:12:08.999Z</time>
      </trkpt>
      <trkpt lat="43.97519" lon="2.98358">
        <ele>818.4</ele>
        <time>2026-04-30T08:12:09.999Z</time>
      </trkpt>
      <trkpt lat="43.97518" lon="2.98358">
        <ele>818.5</ele>
        <time>2026-04-30T08:12:10.999Z</time>
      </trkpt>
      <trkpt lat="43.97517" lon="2.98358">
        <ele>818.3</ele>
        <time>2026-04-30T08:12:11.999Z</time>
      </trkpt>
      <trkpt lat="43.97516" lon="2.98358">
        <ele>818.3</ele>
        <time>2026-04-30T08:12:12.999Z</time>
      </trkpt>
      <trkpt lat="43.97515" lon="2.98359">
        <ele>818.3</ele>
        <time>2026-04-30T08:12:13.999Z</time>
      </trkpt>
      <trkpt lat="43.97513" lon="2.98359">
        <ele>818.4</ele>
        <time>2026-04-30T08:12:14.999Z</time>
      </trkpt>
      <trkpt lat="43.97512" lon="2.9836">
        <ele>818.6</ele>
        <time>2026-04-30T08:12:15.999Z</time>
      </trkpt>
      <trkpt lat="43.97511" lon="2.9836">
        <ele>818.6</ele>
        <time>2026-04-30T08:12:16.999Z</time>
      </trkpt>
      <trkpt lat="43.97511" lon="2.9836">
        <ele>818.5</ele>
        <time>2026-04-30T08:12:17.999Z</time>
      </trkpt>
      <trkpt lat="43.9751" lon="2.98361">
        <ele>818.6</ele>
        <time>2026-04-30T08:12:18.999Z</time>
      </trkpt>
      <trkpt lat="43.97509" lon="2.98361">
        <ele>818.6</ele>
        <time>2026-04-30T08:12:19.999Z</time>
      </trkpt>
      <trkpt lat="43.97508" lon="2.98361">
        <ele>818.4</ele>
        <time>2026-04-30T08:12:20.999Z</time>
      </trkpt>
      <trkpt lat="43.97507" lon="2.98361">
        <ele>818.2</ele>
        <time>2026-04-30T08:12:21.999Z</time>
      </trkpt>
      <trkpt lat="43.97507" lon="2.98361">
        <ele>818</ele>
        <time>2026-04-30T08:12:22.999Z</time>
      </trkpt>
      <trkpt lat="43.97506" lon="2.98362">
        <ele>818</ele>
        <time>2026-04-30T08:12:23.999Z</time>
      </trkpt>
      <trkpt lat="43.97505" lon="2.98362">
        <ele>818.3</ele>
        <time>2026-04-30T08:12:24.999Z</time>
      </trkpt>
      <trkpt lat="43.97503" lon="2.98363">
        <ele>818.3</ele>
        <time>2026-04-30T08:12:25.999Z</time>
      </trkpt>
      <trkpt lat="43.97502" lon="2.98364">
        <ele>818.3</ele>
        <time>2026-04-30T08:12:26.999Z</time>
      </trkpt>
      <trkpt lat="43.97502" lon="2.98364">
        <ele>818.1</ele>
        <time>2026-04-30T08:12:27.999Z</time>
      </trkpt>
      <trkpt lat="43.975" lon="2.98365">
        <ele>817.9</ele>
        <time>2026-04-30T08:12:28.999Z</time>
      </trkpt>
      <trkpt lat="43.975" lon="2.98366">
        <ele>817.8</ele>
        <time>2026-04-30T08:12:29.999Z</time>
      </trkpt>
      <trkpt lat="43.97499" lon="2.98366">
        <ele>817.8</ele>
        <time>2026-04-30T08:12:30.999Z</time>
      </trkpt>
      <trkpt lat="43.97499" lon="2.98366">
        <ele>817.8</ele>
        <time>2026-04-30T08:12:31.999Z</time>
      </trkpt>
      <trkpt lat="43.97498" lon="2.98366">
        <ele>817.6</ele>
        <time>2026-04-30T08:12:32.999Z</time>
      </trkpt>
      <trkpt lat="43.97497" lon="2.98367">
        <ele>817.4</ele>
        <time>2026-04-30T08:12:33.999Z</time>
      </trkpt>
      <trkpt lat="43.97497" lon="2.98369">
        <ele>817</ele>
        <time>2026-04-30T08:12:34.999Z</time>
      </trkpt>
      <trkpt lat="43.97496" lon="2.98369">
        <ele>816.9</ele>
        <time>2026-04-30T08:12:35.999Z</time>
      </trkpt>
      <trkpt lat="43.97496" lon="2.98369">
        <ele>816.7</ele>
        <time>2026-04-30T08:12:36.999Z</time>
      </trkpt>
      <trkpt lat="43.97495" lon="2.9837">
        <ele>816.5</ele>
        <time>2026-04-30T08:12:37.999Z</time>
      </trkpt>
      <trkpt lat="43.97495" lon="2.98371">
        <ele>816.2</ele>
        <time>2026-04-30T08:12:38.999Z</time>
      </trkpt>
      <trkpt lat="43.97495" lon="2.98372">
        <ele>815.9</ele>
        <time>2026-04-30T08:12:39.999Z</time>
      </trkpt>
      <trkpt lat="43.97495" lon="2.98373">
        <ele>815.7</ele>
        <time>2026-04-30T08:12:40.999Z</time>
      </trkpt>
      <trkpt lat="43.97494" lon="2.98375">
        <ele>815.7</ele>
        <time>2026-04-30T08:12:41.999Z</time>
      </trkpt>
      <trkpt lat="43.97494" lon="2.98377">
        <ele>815.6</ele>
        <time>2026-04-30T08:12:42.999Z</time>
      </trkpt>
      <trkpt lat="43.97494" lon="2.98379">
        <ele>815.4</ele>
        <time>2026-04-30T08:12:43.999Z</time>
      </trkpt>
      <trkpt lat="43.97494" lon="2.98382">
        <ele>815.4</ele>
        <time>2026-04-30T08:12:44.999Z</time>
      </trkpt>
      <trkpt lat="43.97493" lon="2.98384">
        <ele>815.2</ele>
        <time>2026-04-30T08:12:45.999Z</time>
      </trkpt>
      <trkpt lat="43.97493" lon="2.98386">
        <ele>815.2</ele>
        <time>2026-04-30T08:12:46.999Z</time>
      </trkpt>
      <trkpt lat="43.97493" lon="2.98387">
        <ele>815.3</ele>
        <time>2026-04-30T08:12:47.999Z</time>
      </trkpt>
      <trkpt lat="43.97494" lon="2.98388">
        <ele>815.4</ele>
        <time>2026-04-30T08:12:48.999Z</time>
      </trkpt>
      <trkpt lat="43.97494" lon="2.98389">
        <ele>815.5</ele>
        <time>2026-04-30T08:12:49.999Z</time>
      </trkpt>
      <trkpt lat="43.97495" lon="2.98391">
        <ele>815.4</ele>
        <time>2026-04-30T08:12:50.999Z</time>
      </trkpt>
      <trkpt lat="43.97495" lon="2.98392">
        <ele>815.6</ele>
        <time>2026-04-30T08:12:51.999Z</time>
      </trkpt>
      <trkpt lat="43.97496" lon="2.98393">
        <ele>815.3</ele>
        <time>2026-04-30T08:12:52.999Z</time>
      </trkpt>
      <trkpt lat="43.97497" lon="2.98394">
        <ele>815.3</ele>
        <time>2026-04-30T08:12:53.999Z</time>
      </trkpt>
      <trkpt lat="43.97497" lon="2.98396">
        <ele>815.4</ele>
        <time>2026-04-30T08:12:54.999Z</time>
      </trkpt>
      <trkpt lat="43.97498" lon="2.98397">
        <ele>815.4</ele>
        <time>2026-04-30T08:12:55.999Z</time>
      </trkpt>
      <trkpt lat="43.97499" lon="2.98397">
        <ele>815.3</ele>
        <time>2026-04-30T08:12:56.999Z</time>
      </trkpt>
      <trkpt lat="43.97499" lon="2.98398">
        <ele>815.3</ele>
        <time>2026-04-30T08:12:57.999Z</time>
      </trkpt>
      <trkpt lat="43.975" lon="2.98399">
        <ele>815.2</ele>
        <time>2026-04-30T08:12:58.999Z</time>
      </trkpt>
      <trkpt lat="43.97501" lon="2.984">
        <ele>815.4</ele>
        <time>2026-04-30T08:12:59.999Z</time>
      </trkpt>
      <trkpt lat="43.97501" lon="2.98402">
        <ele>815.5</ele>
        <time>2026-04-30T08:13:00.999Z</time>
      </trkpt>
      <trkpt lat="43.97502" lon="2.98403">
        <ele>815.3</ele>
        <time>2026-04-30T08:13:01.999Z</time>
      </trkpt>
      <trkpt lat="43.97502" lon="2.98404">
        <ele>815.2</ele>
        <time>2026-04-30T08:13:02.999Z</time>
      </trkpt>
      <trkpt lat="43.97503" lon="2.98405">
        <ele>815.2</ele>
        <time>2026-04-30T08:13:03.999Z</time>
      </trkpt>
      <trkpt lat="43.97503" lon="2.98406">
        <ele>815.3</ele>
        <time>2026-04-30T08:13:04.999Z</time>
      </trkpt>
      <trkpt lat="43.97504" lon="2.98407">
        <ele>815.3</ele>
        <time>2026-04-30T08:13:05.999Z</time>
      </trkpt>
      <trkpt lat="43.97504" lon="2.98409">
        <ele>815.2</ele>
        <time>2026-04-30T08:13:06.999Z</time>
      </trkpt>
      <trkpt lat="43.97504" lon="2.9841">
        <ele>815.2</ele>
        <time>2026-04-30T08:13:07.999Z</time>
      </trkpt>
      <trkpt lat="43.97505" lon="2.98411">
        <ele>815.3</ele>
        <time>2026-04-30T08:13:08.999Z</time>
      </trkpt>
      <trkpt lat="43.97506" lon="2.98412">
        <ele>815.5</ele>
        <time>2026-04-30T08:13:09.999Z</time>
      </trkpt>
      <trkpt lat="43.97507" lon="2.98414">
        <ele>815.8</ele>
        <time>2026-04-30T08:13:10.999Z</time>
      </trkpt>
      <trkpt lat="43.97507" lon="2.98415">
        <ele>815.8</ele>
        <time>2026-04-30T08:13:11.999Z</time>
      </trkpt>
      <trkpt lat="43.97508" lon="2.98416">
        <ele>815.5</ele>
        <time>2026-04-30T08:13:12.999Z</time>
      </trkpt>
      <trkpt lat="43.97508" lon="2.98418">
        <ele>815.3</ele>
        <time>2026-04-30T08:13:13.999Z</time>
      </trkpt>
      <trkpt lat="43.97508" lon="2.98419">
        <ele>815</ele>
        <time>2026-04-30T08:13:14.999Z</time>
      </trkpt>
      <trkpt lat="43.97509" lon="2.9842">
        <ele>814.7</ele>
        <time>2026-04-30T08:13:15.999Z</time>
      </trkpt>
      <trkpt lat="43.97509" lon="2.98421">
        <ele>814.4</ele>
        <time>2026-04-30T08:13:16.999Z</time>
      </trkpt>
      <trkpt lat="43.9751" lon="2.98422">
        <ele>814.3</ele>
        <time>2026-04-30T08:13:17.999Z</time>
      </trkpt>
      <trkpt lat="43.97511" lon="2.98423">
        <ele>814.2</ele>
        <time>2026-04-30T08:13:18.999Z</time>
      </trkpt>
      <trkpt lat="43.97511" lon="2.98425">
        <ele>814.1</ele>
        <time>2026-04-30T08:13:19.999Z</time>
      </trkpt>
      <trkpt lat="43.97512" lon="2.98425">
        <ele>814</ele>
        <time>2026-04-30T08:13:20.999Z</time>
      </trkpt>
      <trkpt lat="43.97513" lon="2.98427">
        <ele>814</ele>
        <time>2026-04-30T08:13:21.999Z</time>
      </trkpt>
      <trkpt lat="43.97513" lon="2.98428">
        <ele>813.9</ele>
        <time>2026-04-30T08:13:22.999Z</time>
      </trkpt>
      <trkpt lat="43.97514" lon="2.98429">
        <ele>813.7</ele>
        <time>2026-04-30T08:13:23.999Z</time>
      </trkpt>
      <trkpt lat="43.97515" lon="2.98431">
        <ele>813.7</ele>
        <time>2026-04-30T08:13:24.999Z</time>
      </trkpt>
      <trkpt lat="43.97515" lon="2.98432">
        <ele>813.4</ele>
        <time>2026-04-30T08:13:25.999Z</time>
      </trkpt>
      <trkpt lat="43.97515" lon="2.98434">
        <ele>813.2</ele>
        <time>2026-04-30T08:13:26.999Z</time>
      </trkpt>
      <trkpt lat="43.97515" lon="2.98435">
        <ele>813.1</ele>
        <time>2026-04-30T08:13:27.999Z</time>
      </trkpt>
      <trkpt lat="43.97516" lon="2.98437">
        <ele>813.2</ele>
        <time>2026-04-30T08:13:28.999Z</time>
      </trkpt>
      <trkpt lat="43.97516" lon="2.98438">
        <ele>813.3</ele>
        <time>2026-04-30T08:13:29.999Z</time>
      </trkpt>
      <trkpt lat="43.97517" lon="2.98439">
        <ele>813.2</ele>
        <time>2026-04-30T08:13:30.999Z</time>
      </trkpt>
      <trkpt lat="43.97517" lon="2.9844">
        <ele>813.2</ele>
        <time>2026-04-30T08:13:31.999Z</time>
      </trkpt>
      <trkpt lat="43.97518" lon="2.98441">
        <ele>813.2</ele>
        <time>2026-04-30T08:13:32.999Z</time>
      </trkpt>
      <trkpt lat="43.97518" lon="2.98443">
        <ele>813.4</ele>
        <time>2026-04-30T08:13:33.999Z</time>
      </trkpt>
      <trkpt lat="43.97519" lon="2.98444">
        <ele>813.5</ele>
        <time>2026-04-30T08:13:34.999Z</time>
      </trkpt>
      <trkpt lat="43.9752" lon="2.98445">
        <ele>813.7</ele>
        <time>2026-04-30T08:13:35.999Z</time>
      </trkpt>
      <trkpt lat="43.97521" lon="2.98446">
        <ele>813.6</ele>
        <time>2026-04-30T08:13:36.999Z</time>
      </trkpt>
      <trkpt lat="43.97522" lon="2.98447">
        <ele>813.7</ele>
        <time>2026-04-30T08:13:37.999Z</time>
      </trkpt>
      <trkpt lat="43.97522" lon="2.98449">
        <ele>814.1</ele>
        <time>2026-04-30T08:13:38.999Z</time>
      </trkpt>
      <trkpt lat="43.97523" lon="2.98451">
        <ele>814.3</ele>
        <time>2026-04-30T08:13:39.999Z</time>
      </trkpt>
      <trkpt lat="43.97523" lon="2.98452">
        <ele>814.5</ele>
        <time>2026-04-30T08:13:40.999Z</time>
      </trkpt>
      <trkpt lat="43.97524" lon="2.98454">
        <ele>814.6</ele>
        <time>2026-04-30T08:13:41.999Z</time>
      </trkpt>
      <trkpt lat="43.97524" lon="2.98455">
        <ele>814.4</ele>
        <time>2026-04-30T08:13:42.999Z</time>
      </trkpt>
      <trkpt lat="43.97525" lon="2.98456">
        <ele>814.3</ele>
        <time>2026-04-30T08:13:43.999Z</time>
      </trkpt>
      <trkpt lat="43.97526" lon="2.98457">
        <ele>814.2</ele>
        <time>2026-04-30T08:13:44.999Z</time>
      </trkpt>
      <trkpt lat="43.97527" lon="2.98458">
        <ele>814.2</ele>
        <time>2026-04-30T08:13:45.999Z</time>
      </trkpt>
      <trkpt lat="43.97527" lon="2.98458">
        <ele>814.2</ele>
        <time>2026-04-30T08:13:46.999Z</time>
      </trkpt>
      <trkpt lat="43.97528" lon="2.98459">
        <ele>814.1</ele>
        <time>2026-04-30T08:13:47.999Z</time>
      </trkpt>
      <trkpt lat="43.97529" lon="2.98461">
        <ele>814</ele>
        <time>2026-04-30T08:13:48.999Z</time>
      </trkpt>
      <trkpt lat="43.9753" lon="2.98462">
        <ele>813.8</ele>
        <time>2026-04-30T08:13:49.999Z</time>
      </trkpt>
      <trkpt lat="43.97531" lon="2.98463">
        <ele>813.6</ele>
        <time>2026-04-30T08:13:50.999Z</time>
      </trkpt>
      <trkpt lat="43.97532" lon="2.98464">
        <ele>813.7</ele>
        <time>2026-04-30T08:13:51.999Z</time>
      </trkpt>
      <trkpt lat="43.97534" lon="2.98465">
        <ele>813.6</ele>
        <time>2026-04-30T08:13:52.999Z</time>
      </trkpt>
      <trkpt lat="43.97535" lon="2.98466">
        <ele>813.5</ele>
        <time>2026-04-30T08:13:53.999Z</time>
      </trkpt>
      <trkpt lat="43.97536" lon="2.98467">
        <ele>813.4</ele>
        <time>2026-04-30T08:13:54.999Z</time>
      </trkpt>
      <trkpt lat="43.97537" lon="2.98468">
        <ele>813.2</ele>
        <time>2026-04-30T08:13:55.999Z</time>
      </trkpt>
      <trkpt lat="43.97538" lon="2.98469">
        <ele>812.9</ele>
        <time>2026-04-30T08:13:56.999Z</time>
      </trkpt>
      <trkpt lat="43.97538" lon="2.9847">
        <ele>812.7</ele>
        <time>2026-04-30T08:13:57.999Z</time>
      </trkpt>
      <trkpt lat="43.9754" lon="2.98471">
        <ele>812.6</ele>
        <time>2026-04-30T08:13:58.999Z</time>
      </trkpt>
      <trkpt lat="43.97541" lon="2.98472">
        <ele>812.6</ele>
        <time>2026-04-30T08:13:59.999Z</time>
      </trkpt>
      <trkpt lat="43.97543" lon="2.98473">
        <ele>812.9</ele>
        <time>2026-04-30T08:14:00.999Z</time>
      </trkpt>
      <trkpt lat="43.97544" lon="2.98474">
        <ele>812.7</ele>
        <time>2026-04-30T08:14:01.999Z</time>
      </trkpt>
      <trkpt lat="43.97544" lon="2.98475">
        <ele>813</ele>
        <time>2026-04-30T08:14:02.999Z</time>
      </trkpt>
      <trkpt lat="43.97545" lon="2.98477">
        <ele>813.1</ele>
        <time>2026-04-30T08:14:03.999Z</time>
      </trkpt>
      <trkpt lat="43.97546" lon="2.98478">
        <ele>813</ele>
        <time>2026-04-30T08:14:04.999Z</time>
      </trkpt>
      <trkpt lat="43.97546" lon="2.98479">
        <ele>812.6</ele>
        <time>2026-04-30T08:14:05.999Z</time>
      </trkpt>
      <trkpt lat="43.97546" lon="2.9848">
        <ele>812.2</ele>
        <time>2026-04-30T08:14:06.999Z</time>
      </trkpt>
      <trkpt lat="43.97547" lon="2.98481">
        <ele>812.4</ele>
        <time>2026-04-30T08:14:07.999Z</time>
      </trkpt>
      <trkpt lat="43.97547" lon="2.98483">
        <ele>812.3</ele>
        <time>2026-04-30T08:14:08.999Z</time>
      </trkpt>
      <trkpt lat="43.97548" lon="2.98484">
        <ele>812.3</ele>
        <time>2026-04-30T08:14:09.999Z</time>
      </trkpt>
      <trkpt lat="43.97549" lon="2.98486">
        <ele>812.1</ele>
        <time>2026-04-30T08:14:10.999Z</time>
      </trkpt>
      <trkpt lat="43.9755" lon="2.98487">
        <ele>812.3</ele>
        <time>2026-04-30T08:14:11.999Z</time>
      </trkpt>
      <trkpt lat="43.97551" lon="2.98489">
        <ele>812.4</ele>
        <time>2026-04-30T08:14:12.999Z</time>
      </trkpt>
      <trkpt lat="43.97553" lon="2.98492">
        <ele>812.4</ele>
        <time>2026-04-30T08:14:13.999Z</time>
      </trkpt>
      <trkpt lat="43.97554" lon="2.98494">
        <ele>812.3</ele>
        <time>2026-04-30T08:14:14.999Z</time>
      </trkpt>
      <trkpt lat="43.97555" lon="2.98495">
        <ele>812.4</ele>
        <time>2026-04-30T08:14:15.999Z</time>
      </trkpt>
      <trkpt lat="43.97555" lon="2.98497">
        <ele>812.6</ele>
        <time>2026-04-30T08:14:16.999Z</time>
      </trkpt>
      <trkpt lat="43.97555" lon="2.98499">
        <ele>812.3</ele>
        <time>2026-04-30T08:14:17.999Z</time>
      </trkpt>
      <trkpt lat="43.97555" lon="2.98501">
        <ele>812</ele>
        <time>2026-04-30T08:14:18.999Z</time>
      </trkpt>
      <trkpt lat="43.97555" lon="2.98502">
        <ele>811.4</ele>
        <time>2026-04-30T08:14:19.999Z</time>
      </trkpt>
      <trkpt lat="43.97555" lon="2.98503">
        <ele>811.1</ele>
        <time>2026-04-30T08:14:20.999Z</time>
      </trkpt>
      <trkpt lat="43.97555" lon="2.98505">
        <ele>811.1</ele>
        <time>2026-04-30T08:14:21.999Z</time>
      </trkpt>
      <trkpt lat="43.97555" lon="2.98508">
        <ele>811.2</ele>
        <time>2026-04-30T08:14:22.999Z</time>
      </trkpt>
      <trkpt lat="43.97555" lon="2.98511">
        <ele>811.3</ele>
        <time>2026-04-30T08:14:23.999Z</time>
      </trkpt>
      <trkpt lat="43.97555" lon="2.98514">
        <ele>811.2</ele>
        <time>2026-04-30T08:14:24.999Z</time>
      </trkpt>
      <trkpt lat="43.97555" lon="2.98516">
        <ele>811.4</ele>
        <time>2026-04-30T08:14:25.999Z</time>
      </trkpt>
      <trkpt lat="43.97554" lon="2.98518">
        <ele>811.4</ele>
        <time>2026-04-30T08:14:26.999Z</time>
      </trkpt>
      <trkpt lat="43.97554" lon="2.98519">
        <ele>811.2</ele>
        <time>2026-04-30T08:14:27.999Z</time>
      </trkpt>
      <trkpt lat="43.97554" lon="2.98518">
        <ele>811</ele>
        <time>2026-04-30T08:14:28.999Z</time>
      </trkpt>
      <trkpt lat="43.97554" lon="2.98518">
        <ele>810.6</ele>
        <time>2026-04-30T08:14:29.999Z</time>
      </trkpt>
      <trkpt lat="43.97555" lon="2.98517">
        <ele>810.6</ele>
        <time>2026-04-30T08:14:30.999Z</time>
      </trkpt>
      <trkpt lat="43.97555" lon="2.98517">
        <ele>810.6</ele>
        <time>2026-04-30T08:14:31.999Z</time>
      </trkpt>
      <trkpt lat="43.97556" lon="2.98516">
        <ele>810.4</ele>
        <time>2026-04-30T08:14:32.999Z</time>
      </trkpt>
      <trkpt lat="43.97556" lon="2.98515">
        <ele>810.3</ele>
        <time>2026-04-30T08:14:33.999Z</time>
      </trkpt>
      <trkpt lat="43.97557" lon="2.98514">
        <ele>810.2</ele>
        <time>2026-04-30T08:14:34.999Z</time>
      </trkpt>
      <trkpt lat="43.97558" lon="2.98513">
        <ele>810.1</ele>
        <time>2026-04-30T08:14:35.999Z</time>
      </trkpt>
      <trkpt lat="43.97558" lon="2.98514">
        <ele>810</ele>
        <time>2026-04-30T08:14:36.999Z</time>
      </trkpt>
      <trkpt lat="43.97558" lon="2.98515">
        <ele>809.9</ele>
        <time>2026-04-30T08:14:37.999Z</time>
      </trkpt>
      <trkpt lat="43.97559" lon="2.98515">
        <ele>809.8</ele>
        <time>2026-04-30T08:14:38.999Z</time>
      </trkpt>
      <trkpt lat="43.9756" lon="2.98516">
        <ele>809.7</ele>
        <time>2026-04-30T08:14:39.999Z</time>
      </trkpt>
      <trkpt lat="43.97562" lon="2.98514">
        <ele>809.3</ele>
        <time>2026-04-30T08:14:40.999Z</time>
      </trkpt>
      <trkpt lat="43.97563" lon="2.98514">
        <ele>809.3</ele>
        <time>2026-04-30T08:14:41.999Z</time>
      </trkpt>
      <trkpt lat="43.97564" lon="2.98514">
        <ele>809.2</ele>
        <time>2026-04-30T08:14:42.999Z</time>
      </trkpt>
      <trkpt lat="43.97565" lon="2.98515">
        <ele>809</ele>
        <time>2026-04-30T08:14:43.999Z</time>
      </trkpt>
      <trkpt lat="43.97566" lon="2.98515">
        <ele>808.9</ele>
        <time>2026-04-30T08:14:44.999Z</time>
      </trkpt>
      <trkpt lat="43.97566" lon="2.98516">
        <ele>808.8</ele>
        <time>2026-04-30T08:14:45.999Z</time>
      </trkpt>
      <trkpt lat="43.97567" lon="2.98517">
        <ele>808.8</ele>
        <time>2026-04-30T08:14:46.999Z</time>
      </trkpt>
      <trkpt lat="43.97567" lon="2.98517">
        <ele>808.8</ele>
        <time>2026-04-30T08:14:47.999Z</time>
      </trkpt>
      <trkpt lat="43.97568" lon="2.98518">
        <ele>808.9</ele>
        <time>2026-04-30T08:14:48.999Z</time>
      </trkpt>
      <trkpt lat="43.97567" lon="2.98518">
        <ele>808.8</ele>
        <time>2026-04-30T08:14:49.999Z</time>
      </trkpt>
      <trkpt lat="43.97567" lon="2.98518">
        <ele>808.6</ele>
        <time>2026-04-30T08:14:50.999Z</time>
      </trkpt>
      <trkpt lat="43.97567" lon="2.98519">
        <ele>808.9</ele>
        <time>2026-04-30T08:14:51.999Z</time>
      </trkpt>
      <trkpt lat="43.97567" lon="2.98519">
        <ele>808.6</ele>
        <time>2026-04-30T08:14:52.999Z</time>
      </trkpt>
      <trkpt lat="43.97566" lon="2.98519">
        <ele>808.5</ele>
        <time>2026-04-30T08:14:53.999Z</time>
      </trkpt>
      <trkpt lat="43.97566" lon="2.98519">
        <ele>808.6</ele>
        <time>2026-04-30T08:14:54.999Z</time>
      </trkpt>
      <trkpt lat="43.97566" lon="2.98519">
        <ele>808.5</ele>
        <time>2026-04-30T08:14:55.999Z</time>
      </trkpt>
      <trkpt lat="43.97566" lon="2.98519">
        <ele>808.5</ele>
        <time>2026-04-30T08:14:56.999Z</time>
      </trkpt>
      <trkpt lat="43.97566" lon="2.98519">
        <ele>808.4</ele>
        <time>2026-04-30T08:14:57.999Z</time>
      </trkpt>
      <trkpt lat="43.97566" lon="2.98519">
        <ele>808.1</ele>
        <time>2026-04-30T08:14:58.999Z</time>
      </trkpt>
      <trkpt lat="43.97566" lon="2.98519">
        <ele>807.8</ele>
        <time>2026-04-30T08:14:59.999Z</time>
      </trkpt>
      <trkpt lat="43.97565" lon="2.98521">
        <ele>807.5</ele>
        <time>2026-04-30T08:15:00.999Z</time>
      </trkpt>
      <trkpt lat="43.97563" lon="2.98522">
        <ele>807.3</ele>
        <time>2026-04-30T08:15:01.999Z</time>
      </trkpt>
      <trkpt lat="43.97562" lon="2.98523">
        <ele>807.2</ele>
        <time>2026-04-30T08:15:02.999Z</time>
      </trkpt>
      <trkpt lat="43.97561" lon="2.98523">
        <ele>807.1</ele>
        <time>2026-04-30T08:15:03.999Z</time>
      </trkpt>
      <trkpt lat="43.97559" lon="2.98524">
        <ele>807</ele>
        <time>2026-04-30T08:15:04.999Z</time>
      </trkpt>
      <trkpt lat="43.97558" lon="2.98525">
        <ele>806.8</ele>
        <time>2026-04-30T08:15:05.999Z</time>
      </trkpt>
      <trkpt lat="43.97557" lon="2.98525">
        <ele>806.7</ele>
        <time>2026-04-30T08:15:06.999Z</time>
      </trkpt>
      <trkpt lat="43.97557" lon="2.98526">
        <ele>806.5</ele>
        <time>2026-04-30T08:15:07.999Z</time>
      </trkpt>
      <trkpt lat="43.97557" lon="2.98527">
        <ele>806.5</ele>
        <time>2026-04-30T08:15:08.999Z</time>
      </trkpt>
      <trkpt lat="43.97556" lon="2.98531">
        <ele>806.4</ele>
        <time>2026-04-30T08:15:10.999Z</time>
      </trkpt>
      <trkpt lat="43.97555" lon="2.98534">
        <ele>806.6</ele>
        <time>2026-04-30T08:15:11.999Z</time>
      </trkpt>
      <trkpt lat="43.97555" lon="2.98536">
        <ele>806.4</ele>
        <time>2026-04-30T08:15:12.999Z</time>
      </trkpt>
      <trkpt lat="43.97555" lon="2.98538">
        <ele>806.2</ele>
        <time>2026-04-30T08:15:13.999Z</time>
      </trkpt>
      <trkpt lat="43.97555" lon="2.9854">
        <ele>806.4</ele>
        <time>2026-04-30T08:15:14.999Z</time>
      </trkpt>
      <trkpt lat="43.97555" lon="2.98542">
        <ele>806.4</ele>
        <time>2026-04-30T08:15:15.999Z</time>
      </trkpt>
      <trkpt lat="43.97555" lon="2.98544">
        <ele>806.4</ele>
        <time>2026-04-30T08:15:16.999Z</time>
      </trkpt>
      <trkpt lat="43.97555" lon="2.98545">
        <ele>806.5</ele>
        <time>2026-04-30T08:15:17.999Z</time>
      </trkpt>
      <trkpt lat="43.97555" lon="2.98546">
        <ele>806.4</ele>
        <time>2026-04-30T08:15:18.999Z</time>
      </trkpt>
      <trkpt lat="43.97555" lon="2.98547">
        <ele>806.4</ele>
        <time>2026-04-30T08:15:19.999Z</time>
      </trkpt>
      <trkpt lat="43.97555" lon="2.98547">
        <ele>806.1</ele>
        <time>2026-04-30T08:15:20.999Z</time>
      </trkpt>
      <trkpt lat="43.97555" lon="2.98548">
        <ele>805.9</ele>
        <time>2026-04-30T08:15:21.999Z</time>
      </trkpt>
      <trkpt lat="43.97555" lon="2.98549">
        <ele>806.3</ele>
        <time>2026-04-30T08:15:22.999Z</time>
      </trkpt>
      <trkpt lat="43.97555" lon="2.98549">
        <ele>806.4</ele>
        <time>2026-04-30T08:15:23.999Z</time>
      </trkpt>
      <trkpt lat="43.97554" lon="2.9855">
        <ele>806.3</ele>
        <time>2026-04-30T08:15:24.999Z</time>
      </trkpt>
      <trkpt lat="43.97554" lon="2.9855">
        <ele>806.8</ele>
        <time>2026-04-30T08:15:25.999Z</time>
      </trkpt>
      <trkpt lat="43.97554" lon="2.9855">
        <ele>806.5</ele>
        <time>2026-04-30T08:15:26.999Z</time>
      </trkpt>
      <trkpt lat="43.97554" lon="2.9855">
        <ele>806.4</ele>
        <time>2026-04-30T08:15:27.999Z</time>
      </trkpt>
      <trkpt lat="43.97554" lon="2.9855">
        <ele>806.4</ele>
        <time>2026-04-30T08:15:28.999Z</time>
      </trkpt>
      <trkpt lat="43.97555" lon="2.9855">
        <ele>806.3</ele>
        <time>2026-04-30T08:15:29.999Z</time>
      </trkpt>
      <trkpt lat="43.97555" lon="2.9855">
        <ele>806.4</ele>
        <time>2026-04-30T08:15:30.999Z</time>
      </trkpt>
      <trkpt lat="43.97555" lon="2.9855">
        <ele>806.4</ele>
        <time>2026-04-30T08:15:31.999Z</time>
      </trkpt>
      <trkpt lat="43.97555" lon="2.9855">
        <ele>806.6</ele>
        <time>2026-04-30T08:15:32.999Z</time>
      </trkpt>
      <trkpt lat="43.97555" lon="2.9855">
        <ele>806.7</ele>
        <time>2026-04-30T08:15:33.999Z</time>
      </trkpt>
      <trkpt lat="43.97555" lon="2.98549">
        <ele>806.6</ele>
        <time>2026-04-30T08:15:35.000Z</time>
      </trkpt>
      <trkpt lat="43.97555" lon="2.9855">
        <ele>806.2</ele>
        <time>2026-04-30T08:15:36.000Z</time>
      </trkpt>
      <trkpt lat="43.97555" lon="2.9855">
        <ele>806.1</ele>
        <time>2026-04-30T08:15:37.000Z</time>
      </trkpt>
      <trkpt lat="43.97555" lon="2.9855">
        <ele>805.8</ele>
        <time>2026-04-30T08:15:38.000Z</time>
      </trkpt>
      <trkpt lat="43.97555" lon="2.9855">
        <ele>805.7</ele>
        <time>2026-04-30T08:15:39.000Z</time>
      </trkpt>
      <trkpt lat="43.97555" lon="2.9855">
        <ele>805.7</ele>
        <time>2026-04-30T08:15:40.000Z</time>
      </trkpt>
      <trkpt lat="43.97555" lon="2.9855">
        <ele>805.7</ele>
        <time>2026-04-30T08:15:41.000Z</time>
      </trkpt>
      <trkpt lat="43.97555" lon="2.9855">
        <ele>805.5</ele>
        <time>2026-04-30T08:15:42.000Z</time>
      </trkpt>
      <trkpt lat="43.97555" lon="2.9855">
        <ele>805.5</ele>
        <time>2026-04-30T08:15:43.000Z</time>
      </trkpt>
      <trkpt lat="43.97555" lon="2.9855">
        <ele>805.2</ele>
        <time>2026-04-30T08:15:44.000Z</time>
      </trkpt>
      <trkpt lat="43.97555" lon="2.9855">
        <ele>804.9</ele>
        <time>2026-04-30T08:15:45.000Z</time>
      </trkpt>
      <trkpt lat="43.97555" lon="2.9855">
        <ele>804.8</ele>
        <time>2026-04-30T08:15:46.000Z</time>
      </trkpt>
      <trkpt lat="43.97555" lon="2.9855">
        <ele>804.7</ele>
        <time>2026-04-30T08:15:47.000Z</time>
      </trkpt>
      <trkpt lat="43.97555" lon="2.9855">
        <ele>804.9</ele>
        <time>2026-04-30T08:15:48.000Z</time>
      </trkpt>
      <trkpt lat="43.97555" lon="2.9855">
        <ele>805.2</ele>
        <time>2026-04-30T08:15:49.000Z</time>
      </trkpt>
      <trkpt lat="43.97555" lon="2.9855">
        <ele>805.3</ele>
        <time>2026-04-30T08:15:50.000Z</time>
      </trkpt>
      <trkpt lat="43.97555" lon="2.9855">
        <ele>805.4</ele>
        <time>2026-04-30T08:15:51.000Z</time>
      </trkpt>
      <trkpt lat="43.97555" lon="2.9855">
        <ele>805.4</ele>
        <time>2026-04-30T08:15:52.000Z</time>
      </trkpt>
      <trkpt lat="43.97556" lon="2.9855">
        <ele>805.4</ele>
        <time>2026-04-30T08:15:53.000Z</time>
      </trkpt>
      <trkpt lat="43.97556" lon="2.9855">
        <ele>805.4</ele>
        <time>2026-04-30T08:15:54.000Z</time>
      </trkpt>
      <trkpt lat="43.97556" lon="2.9855">
        <ele>805.4</ele>
        <time>2026-04-30T08:15:55.000Z</time>
      </trkpt>
      <trkpt lat="43.97556" lon="2.9855">
        <ele>805.4</ele>
        <time>2026-04-30T08:15:56.000Z</time>
      </trkpt>
      <trkpt lat="43.97556" lon="2.9855">
        <ele>805.5</ele>
        <time>2026-04-30T08:15:57.000Z</time>
      </trkpt>
      <trkpt lat="43.97556" lon="2.9855">
        <ele>805.3</ele>
        <time>2026-04-30T08:15:58.000Z</time>
      </trkpt>
      <trkpt lat="43.97556" lon="2.9855">
        <ele>805.2</ele>
        <time>2026-04-30T08:15:59.000Z</time>
      </trkpt>
      <trkpt lat="43.97556" lon="2.98549">
        <ele>805.1</ele>
        <time>2026-04-30T08:16:00.000Z</time>
      </trkpt>
      <trkpt lat="43.97556" lon="2.98549">
        <ele>805.1</ele>
        <time>2026-04-30T08:16:01.000Z</time>
      </trkpt>
      <trkpt lat="43.97556" lon="2.98549">
        <ele>805.2</ele>
        <time>2026-04-30T08:16:02.000Z</time>
      </trkpt>
      <trkpt lat="43.97556" lon="2.98549">
        <ele>805.3</ele>
        <time>2026-04-30T08:16:03.000Z</time>
      </trkpt>
      <trkpt lat="43.97556" lon="2.98549">
        <ele>805.3</ele>
        <time>2026-04-30T08:16:04.000Z</time>
      </trkpt>
      <trkpt lat="43.97556" lon="2.98549">
        <ele>805.3</ele>
        <time>2026-04-30T08:16:05.000Z</time>
      </trkpt>
      <trkpt lat="43.97556" lon="2.98549">
        <ele>805.4</ele>
        <time>2026-04-30T08:16:06.000Z</time>
      </trkpt>
      <trkpt lat="43.97556" lon="2.98549">
        <ele>805.6</ele>
        <time>2026-04-30T08:16:07.000Z</time>
      </trkpt>
      <trkpt lat="43.97556" lon="2.98549">
        <ele>805.6</ele>
        <time>2026-04-30T08:16:08.000Z</time>
      </trkpt>
      <trkpt lat="43.97556" lon="2.98549">
        <ele>805.5</ele>
        <time>2026-04-30T08:16:09.000Z</time>
      </trkpt>
      <trkpt lat="43.97556" lon="2.98548">
        <ele>805.6</ele>
        <time>2026-04-30T08:16:10.000Z</time>
      </trkpt>
      <trkpt lat="43.97555" lon="2.98548">
        <ele>805.7</ele>
        <time>2026-04-30T08:16:11.000Z</time>
      </trkpt>
      <trkpt lat="43.97554" lon="2.98547">
        <ele>805.8</ele>
        <time>2026-04-30T08:16:12.000Z</time>
      </trkpt>
      <trkpt lat="43.97553" lon="2.98547">
        <ele>805.9</ele>
        <time>2026-04-30T08:16:13.000Z</time>
      </trkpt>
      <trkpt lat="43.97551" lon="2.98547">
        <ele>806.1</ele>
        <time>2026-04-30T08:16:14.000Z</time>
      </trkpt>
      <trkpt lat="43.97549" lon="2.98547">
        <ele>806</ele>
        <time>2026-04-30T08:16:15.000Z</time>
      </trkpt>
      <trkpt lat="43.97549" lon="2.98548">
        <ele>805.4</ele>
        <time>2026-04-30T08:16:16.000Z</time>
      </trkpt>
      <trkpt lat="43.97548" lon="2.98549">
        <ele>805.2</ele>
        <time>2026-04-30T08:16:17.000Z</time>
      </trkpt>
      <trkpt lat="43.97548" lon="2.9855">
        <ele>805.1</ele>
        <time>2026-04-30T08:16:18.000Z</time>
      </trkpt>
      <trkpt lat="43.97547" lon="2.9855">
        <ele>804.7</ele>
        <time>2026-04-30T08:16:19.000Z</time>
      </trkpt>
      <trkpt lat="43.97546" lon="2.98551">
        <ele>804.4</ele>
        <time>2026-04-30T08:16:20.000Z</time>
      </trkpt>
      <trkpt lat="43.97545" lon="2.98553">
        <ele>804.4</ele>
        <time>2026-04-30T08:16:21.000Z</time>
      </trkpt>
      <trkpt lat="43.97545" lon="2.98554">
        <ele>804.2</ele>
        <time>2026-04-30T08:16:22.000Z</time>
      </trkpt>
      <trkpt lat="43.97544" lon="2.98555">
        <ele>804.4</ele>
        <time>2026-04-30T08:16:23.000Z</time>
      </trkpt>
      <trkpt lat="43.97543" lon="2.98557">
        <ele>804.6</ele>
        <time>2026-04-30T08:16:24.000Z</time>
      </trkpt>
      <trkpt lat="43.97542" lon="2.98558">
        <ele>804.5</ele>
        <time>2026-04-30T08:16:25.000Z</time>
      </trkpt>
      <trkpt lat="43.97542" lon="2.98559">
        <ele>804.8</ele>
        <time>2026-04-30T08:16:26.000Z</time>
      </trkpt>
      <trkpt lat="43.97541" lon="2.98561">
        <ele>804.4</ele>
        <time>2026-04-30T08:16:27.000Z</time>
      </trkpt>
      <trkpt lat="43.9754" lon="2.98562">
        <ele>803.9</ele>
        <time>2026-04-30T08:16:28.000Z</time>
      </trkpt>
      <trkpt lat="43.97539" lon="2.98563">
        <ele>803.2</ele>
        <time>2026-04-30T08:16:29.000Z</time>
      </trkpt>
      <trkpt lat="43.97538" lon="2.98565">
        <ele>802.7</ele>
        <time>2026-04-30T08:16:30.000Z</time>
      </trkpt>
      <trkpt lat="43.97537" lon="2.98566">
        <ele>802.5</ele>
        <time>2026-04-30T08:16:31.000Z</time>
      </trkpt>
      <trkpt lat="43.97536" lon="2.98567">
        <ele>802.3</ele>
        <time>2026-04-30T08:16:32.000Z</time>
      </trkpt>
      <trkpt lat="43.97536" lon="2.98567">
        <ele>801.9</ele>
        <time>2026-04-30T08:16:33.000Z</time>
      </trkpt>
      <trkpt lat="43.97535" lon="2.98568">
        <ele>802</ele>
        <time>2026-04-30T08:16:34.000Z</time>
      </trkpt>
      <trkpt lat="43.97535" lon="2.98569">
        <ele>802.6</ele>
        <time>2026-04-30T08:16:35.000Z</time>
      </trkpt>
      <trkpt lat="43.97534" lon="2.98571">
        <ele>802.5</ele>
        <time>2026-04-30T08:16:36.000Z</time>
      </trkpt>
      <trkpt lat="43.97534" lon="2.98572">
        <ele>802.9</ele>
        <time>2026-04-30T08:16:37.000Z</time>
      </trkpt>
      <trkpt lat="43.97534" lon="2.98574">
        <ele>802.5</ele>
        <time>2026-04-30T08:16:38.000Z</time>
      </trkpt>
      <trkpt lat="43.97534" lon="2.98575">
        <ele>802.1</ele>
        <time>2026-04-30T08:16:39.000Z</time>
      </trkpt>
      <trkpt lat="43.97535" lon="2.98577">
        <ele>801.8</ele>
        <time>2026-04-30T08:16:40.000Z</time>
      </trkpt>
      <trkpt lat="43.97535" lon="2.98579">
        <ele>801.8</ele>
        <time>2026-04-30T08:16:41.000Z</time>
      </trkpt>
      <trkpt lat="43.97534" lon="2.9858">
        <ele>801.7</ele>
        <time>2026-04-30T08:16:42.000Z</time>
      </trkpt>
      <trkpt lat="43.97533" lon="2.98582">
        <ele>801.4</ele>
        <time>2026-04-30T08:16:43.000Z</time>
      </trkpt>
      <trkpt lat="43.97533" lon="2.98584">
        <ele>801</ele>
        <time>2026-04-30T08:16:44.000Z</time>
      </trkpt>
      <trkpt lat="43.97531" lon="2.98586">
        <ele>801.2</ele>
        <time>2026-04-30T08:16:45.000Z</time>
      </trkpt>
      <trkpt lat="43.97531" lon="2.98588">
        <ele>800.7</ele>
        <time>2026-04-30T08:16:46.000Z</time>
      </trkpt>
      <trkpt lat="43.9753" lon="2.9859">
        <ele>800.4</ele>
        <time>2026-04-30T08:16:47.000Z</time>
      </trkpt>
      <trkpt lat="43.97529" lon="2.98592">
        <ele>800</ele>
        <time>2026-04-30T08:16:48.000Z</time>
      </trkpt>
      <trkpt lat="43.97529" lon="2.98594">
        <ele>799.2</ele>
        <time>2026-04-30T08:16:49.000Z</time>
      </trkpt>
      <trkpt lat="43.97529" lon="2.98595">
        <ele>798.8</ele>
        <time>2026-04-30T08:16:50.000Z</time>
      </trkpt>
      <trkpt lat="43.97529" lon="2.98597">
        <ele>798.4</ele>
        <time>2026-04-30T08:16:51.000Z</time>
      </trkpt>
      <trkpt lat="43.97529" lon="2.98598">
        <ele>797.8</ele>
        <time>2026-04-30T08:16:52.000Z</time>
      </trkpt>
      <trkpt lat="43.97528" lon="2.986">
        <ele>797.1</ele>
        <time>2026-04-30T08:16:53.000Z</time>
      </trkpt>
      <trkpt lat="43.97528" lon="2.98601">
        <ele>796.2</ele>
        <time>2026-04-30T08:16:54.000Z</time>
      </trkpt>
      <trkpt lat="43.97528" lon="2.98602">
        <ele>795.6</ele>
        <time>2026-04-30T08:16:55.000Z</time>
      </trkpt>
      <trkpt lat="43.97528" lon="2.98604">
        <ele>794.9</ele>
        <time>2026-04-30T08:16:56.000Z</time>
      </trkpt>
      <trkpt lat="43.97528" lon="2.98607">
        <ele>794.7</ele>
        <time>2026-04-30T08:16:57.000Z</time>
      </trkpt>
      <trkpt lat="43.97528" lon="2.98609">
        <ele>794.4</ele>
        <time>2026-04-30T08:16:58.000Z</time>
      </trkpt>
      <trkpt lat="43.97528" lon="2.98611">
        <ele>793.7</ele>
        <time>2026-04-30T08:16:59.000Z</time>
      </trkpt>
      <trkpt lat="43.97527" lon="2.98612">
        <ele>793.5</ele>
        <time>2026-04-30T08:17:00.000Z</time>
      </trkpt>
      <trkpt lat="43.97526" lon="2.98614">
        <ele>793.8</ele>
        <time>2026-04-30T08:17:01.000Z</time>
      </trkpt>
      <trkpt lat="43.97525" lon="2.98615">
        <ele>793.7</ele>
        <time>2026-04-30T08:17:02.000Z</time>
      </trkpt>
      <trkpt lat="43.97524" lon="2.98616">
        <ele>793.4</ele>
        <time>2026-04-30T08:17:03.000Z</time>
      </trkpt>
      <trkpt lat="43.97523" lon="2.98618">
        <ele>793.1</ele>
        <time>2026-04-30T08:17:04.000Z</time>
      </trkpt>
      <trkpt lat="43.97522" lon="2.9862">
        <ele>792.6</ele>
        <time>2026-04-30T08:17:05.000Z</time>
      </trkpt>
      <trkpt lat="43.97521" lon="2.98621">
        <ele>792.5</ele>
        <time>2026-04-30T08:17:06.000Z</time>
      </trkpt>
      <trkpt lat="43.9752" lon="2.98623">
        <ele>792.4</ele>
        <time>2026-04-30T08:17:07.000Z</time>
      </trkpt>
      <trkpt lat="43.97519" lon="2.98625">
        <ele>791.6</ele>
        <time>2026-04-30T08:17:08.000Z</time>
      </trkpt>
      <trkpt lat="43.97517" lon="2.98627">
        <ele>791.1</ele>
        <time>2026-04-30T08:17:09.000Z</time>
      </trkpt>
      <trkpt lat="43.97515" lon="2.98628">
        <ele>791.4</ele>
        <time>2026-04-30T08:17:10.000Z</time>
      </trkpt>
      <trkpt lat="43.97513" lon="2.9863">
        <ele>791.4</ele>
        <time>2026-04-30T08:17:11.000Z</time>
      </trkpt>
      <trkpt lat="43.97511" lon="2.98632">
        <ele>791.5</ele>
        <time>2026-04-30T08:17:12.000Z</time>
      </trkpt>
      <trkpt lat="43.97509" lon="2.98633">
        <ele>791.5</ele>
        <time>2026-04-30T08:17:13.000Z</time>
      </trkpt>
      <trkpt lat="43.97508" lon="2.98635">
        <ele>791.1</ele>
        <time>2026-04-30T08:17:14.000Z</time>
      </trkpt>
      <trkpt lat="43.97507" lon="2.98636">
        <ele>791.1</ele>
        <time>2026-04-30T08:17:15.000Z</time>
      </trkpt>
      <trkpt lat="43.97506" lon="2.98637">
        <ele>791.3</ele>
        <time>2026-04-30T08:17:16.000Z</time>
      </trkpt>
      <trkpt lat="43.97505" lon="2.9864">
        <ele>791.1</ele>
        <time>2026-04-30T08:17:17.000Z</time>
      </trkpt>
      <trkpt lat="43.97504" lon="2.98641">
        <ele>790.8</ele>
        <time>2026-04-30T08:17:18.000Z</time>
      </trkpt>
      <trkpt lat="43.97504" lon="2.98641">
        <ele>790.4</ele>
        <time>2026-04-30T08:17:19.000Z</time>
      </trkpt>
      <trkpt lat="43.97503" lon="2.98643">
        <ele>790.2</ele>
        <time>2026-04-30T08:17:20.000Z</time>
      </trkpt>
      <trkpt lat="43.97502" lon="2.98644">
        <ele>789.9</ele>
        <time>2026-04-30T08:17:21.000Z</time>
      </trkpt>
      <trkpt lat="43.97501" lon="2.98646">
        <ele>789.9</ele>
        <time>2026-04-30T08:17:22.000Z</time>
      </trkpt>
      <trkpt lat="43.97501" lon="2.98648">
        <ele>790.3</ele>
        <time>2026-04-30T08:17:23.000Z</time>
      </trkpt>
      <trkpt lat="43.975" lon="2.98651">
        <ele>790.3</ele>
        <time>2026-04-30T08:17:24.000Z</time>
      </trkpt>
      <trkpt lat="43.97499" lon="2.98654">
        <ele>790.2</ele>
        <time>2026-04-30T08:17:25.000Z</time>
      </trkpt>
      <trkpt lat="43.97499" lon="2.98656">
        <ele>790.1</ele>
        <time>2026-04-30T08:17:26.000Z</time>
      </trkpt>
      <trkpt lat="43.97499" lon="2.98658">
        <ele>790</ele>
        <time>2026-04-30T08:17:27.000Z</time>
      </trkpt>
      <trkpt lat="43.97499" lon="2.9866">
        <ele>790.2</ele>
        <time>2026-04-30T08:17:28.000Z</time>
      </trkpt>
      <trkpt lat="43.97498" lon="2.9866">
        <ele>790.2</ele>
        <time>2026-04-30T08:17:29.000Z</time>
      </trkpt>
      <trkpt lat="43.97498" lon="2.98661">
        <ele>790.2</ele>
        <time>2026-04-30T08:17:30.000Z</time>
      </trkpt>
      <trkpt lat="43.97497" lon="2.98662">
        <ele>790.2</ele>
        <time>2026-04-30T08:17:31.000Z</time>
      </trkpt>
      <trkpt lat="43.97495" lon="2.98663">
        <ele>790.4</ele>
        <time>2026-04-30T08:17:32.000Z</time>
      </trkpt>
      <trkpt lat="43.97494" lon="2.98664">
        <ele>790.4</ele>
        <time>2026-04-30T08:17:33.000Z</time>
      </trkpt>
      <trkpt lat="43.97493" lon="2.98665">
        <ele>790.6</ele>
        <time>2026-04-30T08:17:34.000Z</time>
      </trkpt>
      <trkpt lat="43.97493" lon="2.98668">
        <ele>790.7</ele>
        <time>2026-04-30T08:17:35.000Z</time>
      </trkpt>
      <trkpt lat="43.97492" lon="2.9867">
        <ele>790.7</ele>
        <time>2026-04-30T08:17:36.000Z</time>
      </trkpt>
      <trkpt lat="43.97491" lon="2.98671">
        <ele>790.7</ele>
        <time>2026-04-30T08:17:37.000Z</time>
      </trkpt>
      <trkpt lat="43.97491" lon="2.98673">
        <ele>790.5</ele>
        <time>2026-04-30T08:17:38.000Z</time>
      </trkpt>
      <trkpt lat="43.97491" lon="2.98674">
        <ele>790.2</ele>
        <time>2026-04-30T08:17:39.000Z</time>
      </trkpt>
      <trkpt lat="43.97491" lon="2.98676">
        <ele>790</ele>
        <time>2026-04-30T08:17:40.000Z</time>
      </trkpt>
      <trkpt lat="43.97492" lon="2.98677">
        <ele>789.8</ele>
        <time>2026-04-30T08:17:41.000Z</time>
      </trkpt>
      <trkpt lat="43.97493" lon="2.9868">
        <ele>789.7</ele>
        <time>2026-04-30T08:17:42.000Z</time>
      </trkpt>
      <trkpt lat="43.97494" lon="2.98682">
        <ele>789.2</ele>
        <time>2026-04-30T08:17:43.000Z</time>
      </trkpt>
      <trkpt lat="43.97494" lon="2.98684">
        <ele>789</ele>
        <time>2026-04-30T08:17:44.000Z</time>
      </trkpt>
      <trkpt lat="43.97495" lon="2.98685">
        <ele>788.8</ele>
        <time>2026-04-30T08:17:45.000Z</time>
      </trkpt>
      <trkpt lat="43.97495" lon="2.98686">
        <ele>788.6</ele>
        <time>2026-04-30T08:17:46.000Z</time>
      </trkpt>
      <trkpt lat="43.97495" lon="2.98688">
        <ele>788.5</ele>
        <time>2026-04-30T08:17:47.000Z</time>
      </trkpt>
      <trkpt lat="43.97495" lon="2.98691">
        <ele>788.6</ele>
        <time>2026-04-30T08:17:48.000Z</time>
      </trkpt>
      <trkpt lat="43.97494" lon="2.98693">
        <ele>788.6</ele>
        <time>2026-04-30T08:17:49.000Z</time>
      </trkpt>
      <trkpt lat="43.97494" lon="2.98695">
        <ele>788.6</ele>
        <time>2026-04-30T08:17:50.000Z</time>
      </trkpt>
      <trkpt lat="43.97493" lon="2.98696">
        <ele>788.5</ele>
        <time>2026-04-30T08:17:51.000Z</time>
      </trkpt>
      <trkpt lat="43.97492" lon="2.98698">
        <ele>788.5</ele>
        <time>2026-04-30T08:17:52.000Z</time>
      </trkpt>
      <trkpt lat="43.97492" lon="2.98699">
        <ele>788.4</ele>
        <time>2026-04-30T08:17:53.000Z</time>
      </trkpt>
      <trkpt lat="43.97491" lon="2.98701">
        <ele>788.7</ele>
        <time>2026-04-30T08:17:54.000Z</time>
      </trkpt>
      <trkpt lat="43.9749" lon="2.98702">
        <ele>788.9</ele>
        <time>2026-04-30T08:17:55.000Z</time>
      </trkpt>
      <trkpt lat="43.97489" lon="2.98703">
        <ele>789.5</ele>
        <time>2026-04-30T08:17:56.000Z</time>
      </trkpt>
      <trkpt lat="43.97489" lon="2.98704">
        <ele>789.8</ele>
        <time>2026-04-30T08:17:57.000Z</time>
      </trkpt>
      <trkpt lat="43.97489" lon="2.98704">
        <ele>789.7</ele>
        <time>2026-04-30T08:17:58.000Z</time>
      </trkpt>
      <trkpt lat="43.97489" lon="2.98704">
        <ele>789.6</ele>
        <time>2026-04-30T08:17:59.000Z</time>
      </trkpt>
      <trkpt lat="43.9749" lon="2.98704">
        <ele>789.3</ele>
        <time>2026-04-30T08:18:00.000Z</time>
      </trkpt>
      <trkpt lat="43.9749" lon="2.98704">
        <ele>789.9</ele>
        <time>2026-04-30T08:18:01.000Z</time>
      </trkpt>
      <trkpt lat="43.97489" lon="2.98705">
        <ele>789.9</ele>
        <time>2026-04-30T08:18:02.000Z</time>
      </trkpt>
      <trkpt lat="43.97488" lon="2.98706">
        <ele>790</ele>
        <time>2026-04-30T08:18:03.000Z</time>
      </trkpt>
      <trkpt lat="43.97487" lon="2.98706">
        <ele>790.4</ele>
        <time>2026-04-30T08:18:04.000Z</time>
      </trkpt>
      <trkpt lat="43.97487" lon="2.98707">
        <ele>790.6</ele>
        <time>2026-04-30T08:18:05.000Z</time>
      </trkpt>
      <trkpt lat="43.97486" lon="2.98707">
        <ele>790.9</ele>
        <time>2026-04-30T08:18:06.000Z</time>
      </trkpt>
      <trkpt lat="43.97485" lon="2.98708">
        <ele>791.2</ele>
        <time>2026-04-30T08:18:07.000Z</time>
      </trkpt>
      <trkpt lat="43.97485" lon="2.98708">
        <ele>791.3</ele>
        <time>2026-04-30T08:18:08.000Z</time>
      </trkpt>
      <trkpt lat="43.97485" lon="2.98708">
        <ele>791.1</ele>
        <time>2026-04-30T08:18:09.000Z</time>
      </trkpt>
      <trkpt lat="43.97485" lon="2.98708">
        <ele>791.1</ele>
        <time>2026-04-30T08:18:10.000Z</time>
      </trkpt>
      <trkpt lat="43.97486" lon="2.98708">
        <ele>790.8</ele>
        <time>2026-04-30T08:18:11.000Z</time>
      </trkpt>
      <trkpt lat="43.97486" lon="2.98708">
        <ele>790.8</ele>
        <time>2026-04-30T08:18:12.000Z</time>
      </trkpt>
      <trkpt lat="43.97486" lon="2.98708">
        <ele>790.7</ele>
        <time>2026-04-30T08:18:13.000Z</time>
      </trkpt>
      <trkpt lat="43.97486" lon="2.98708">
        <ele>790.7</ele>
        <time>2026-04-30T08:18:14.000Z</time>
      </trkpt>
      <trkpt lat="43.97486" lon="2.98708">
        <ele>790.4</ele>
        <time>2026-04-30T08:18:15.000Z</time>
      </trkpt>
      <trkpt lat="43.97486" lon="2.98709">
        <ele>790.5</ele>
        <time>2026-04-30T08:18:16.000Z</time>
      </trkpt>
      <trkpt lat="43.97486" lon="2.9871">
        <ele>790.6</ele>
        <time>2026-04-30T08:18:17.000Z</time>
      </trkpt>
      <trkpt lat="43.97486" lon="2.98711">
        <ele>790.4</ele>
        <time>2026-04-30T08:18:18.000Z</time>
      </trkpt>
      <trkpt lat="43.97484" lon="2.98712">
        <ele>790.6</ele>
        <time>2026-04-30T08:18:19.000Z</time>
      </trkpt>
      <trkpt lat="43.97483" lon="2.98712">
        <ele>790.2</ele>
        <time>2026-04-30T08:18:20.000Z</time>
      </trkpt>
      <trkpt lat="43.97482" lon="2.98712">
        <ele>790</ele>
        <time>2026-04-30T08:18:21.000Z</time>
      </trkpt>
      <trkpt lat="43.97481" lon="2.98711">
        <ele>790.2</ele>
        <time>2026-04-30T08:18:22.000Z</time>
      </trkpt>
      <trkpt lat="43.9748" lon="2.98712">
        <ele>790.3</ele>
        <time>2026-04-30T08:18:23.000Z</time>
      </trkpt>
      <trkpt lat="43.9748" lon="2.98712">
        <ele>790.2</ele>
        <time>2026-04-30T08:18:24.000Z</time>
      </trkpt>
      <trkpt lat="43.97479" lon="2.98713">
        <ele>790.5</ele>
        <time>2026-04-30T08:18:25.000Z</time>
      </trkpt>
      <trkpt lat="43.97479" lon="2.98712">
        <ele>790.8</ele>
        <time>2026-04-30T08:18:26.000Z</time>
      </trkpt>
      <trkpt lat="43.97478" lon="2.98712">
        <ele>791</ele>
        <time>2026-04-30T08:18:27.000Z</time>
      </trkpt>
      <trkpt lat="43.97478" lon="2.98712">
        <ele>791.4</ele>
        <time>2026-04-30T08:18:28.000Z</time>
      </trkpt>
      <trkpt lat="43.97478" lon="2.98712">
        <ele>791.7</ele>
        <time>2026-04-30T08:18:29.000Z</time>
      </trkpt>
      <trkpt lat="43.97478" lon="2.98712">
        <ele>792.1</ele>
        <time>2026-04-30T08:18:30.000Z</time>
      </trkpt>
      <trkpt lat="43.97478" lon="2.98712">
        <ele>787.3</ele>
        <time>2026-04-30T08:18:31.000Z</time>
      </trkpt>
      <trkpt lat="43.97478" lon="2.98711">
        <ele>787.5</ele>
        <time>2026-04-30T08:18:32.000Z</time>
      </trkpt>
      <trkpt lat="43.97478" lon="2.98711">
        <ele>787.7</ele>
        <time>2026-04-30T08:18:33.000Z</time>
      </trkpt>
      <trkpt lat="43.97478" lon="2.98711">
        <ele>788.1</ele>
        <time>2026-04-30T08:18:34.000Z</time>
      </trkpt>
      <trkpt lat="43.97478" lon="2.98712">
        <ele>788.6</ele>
        <time>2026-04-30T08:18:35.000Z</time>
      </trkpt>
      <trkpt lat="43.97477" lon="2.98712">
        <ele>788.9</ele>
        <time>2026-04-30T08:18:36.000Z</time>
      </trkpt>
      <trkpt lat="43.97478" lon="2.98712">
        <ele>789.2</ele>
        <time>2026-04-30T08:18:37.000Z</time>
      </trkpt>
      <trkpt lat="43.97478" lon="2.98712">
        <ele>789.5</ele>
        <time>2026-04-30T08:18:38.000Z</time>
      </trkpt>
      <trkpt lat="43.97478" lon="2.98712">
        <ele>789.6</ele>
        <time>2026-04-30T08:18:39.000Z</time>
      </trkpt>
      <trkpt lat="43.97478" lon="2.98712">
        <ele>789.6</ele>
        <time>2026-04-30T08:18:40.000Z</time>
      </trkpt>
      <trkpt lat="43.97478" lon="2.98712">
        <ele>789.8</ele>
        <time>2026-04-30T08:18:41.000Z</time>
      </trkpt>
      <trkpt lat="43.97477" lon="2.98712">
        <ele>790.1</ele>
        <time>2026-04-30T08:18:42.000Z</time>
      </trkpt>
      <trkpt lat="43.97477" lon="2.98713">
        <ele>790.5</ele>
        <time>2026-04-30T08:18:43.000Z</time>
      </trkpt>
      <trkpt lat="43.97477" lon="2.98713">
        <ele>790.8</ele>
        <time>2026-04-30T08:18:44.000Z</time>
      </trkpt>
      <trkpt lat="43.97477" lon="2.98713">
        <ele>791</ele>
        <time>2026-04-30T08:18:45.000Z</time>
      </trkpt>
      <trkpt lat="43.97477" lon="2.98713">
        <ele>791.3</ele>
        <time>2026-04-30T08:18:46.000Z</time>
      </trkpt>
      <trkpt lat="43.97477" lon="2.98713">
        <ele>791.6</ele>
        <time>2026-04-30T08:18:47.000Z</time>
      </trkpt>
      <trkpt lat="43.97477" lon="2.98713">
        <ele>791.8</ele>
        <time>2026-04-30T08:18:48.000Z</time>
      </trkpt>
      <trkpt lat="43.97477" lon="2.98713">
        <ele>792</ele>
        <time>2026-04-30T08:18:49.000Z</time>
      </trkpt>
      <trkpt lat="43.97477" lon="2.98713">
        <ele>792.2</ele>
        <time>2026-04-30T08:18:50.000Z</time>
      </trkpt>
      <trkpt lat="43.97477" lon="2.98713">
        <ele>792.4</ele>
        <time>2026-04-30T08:18:51.000Z</time>
      </trkpt>
      <trkpt lat="43.97477" lon="2.98713">
        <ele>792.5</ele>
        <time>2026-04-30T08:18:52.000Z</time>
      </trkpt>
      <trkpt lat="43.97477" lon="2.98713">
        <ele>792.8</ele>
        <time>2026-04-30T08:18:53.000Z</time>
      </trkpt>
      <trkpt lat="43.97477" lon="2.98713">
        <ele>793</ele>
        <time>2026-04-30T08:18:54.000Z</time>
      </trkpt>
      <trkpt lat="43.97477" lon="2.98713">
        <ele>793.1</ele>
        <time>2026-04-30T08:18:55.000Z</time>
      </trkpt>
      <trkpt lat="43.97478" lon="2.98713">
        <ele>793.3</ele>
        <time>2026-04-30T08:18:56.000Z</time>
      </trkpt>
      <trkpt lat="43.97477" lon="2.98712">
        <ele>793.5</ele>
        <time>2026-04-30T08:18:57.000Z</time>
      </trkpt>
      <trkpt lat="43.97477" lon="2.98712">
        <ele>793.8</ele>
        <time>2026-04-30T08:18:58.000Z</time>
      </trkpt>
      <trkpt lat="43.97477" lon="2.98712">
        <ele>794.1</ele>
        <time>2026-04-30T08:18:59.000Z</time>
      </trkpt>
      <trkpt lat="43.97477" lon="2.98712">
        <ele>794.4</ele>
        <time>2026-04-30T08:19:00.000Z</time>
      </trkpt>
      <trkpt lat="43.97477" lon="2.98712">
        <ele>794.7</ele>
        <time>2026-04-30T08:19:01.000Z</time>
      </trkpt>
      <trkpt lat="43.97478" lon="2.98712">
        <ele>795</ele>
        <time>2026-04-30T08:19:02.000Z</time>
      </trkpt>
      <trkpt lat="43.97478" lon="2.98713">
        <ele>795.4</ele>
        <time>2026-04-30T08:19:03.000Z</time>
      </trkpt>
      <trkpt lat="43.97478" lon="2.98714">
        <ele>795.8</ele>
        <time>2026-04-30T08:19:04.000Z</time>
      </trkpt>
      <trkpt lat="43.97478" lon="2.98714">
        <ele>794.5</ele>
        <time>2026-04-30T08:19:05.000Z</time>
      </trkpt>
      <trkpt lat="43.97478" lon="2.98714">
        <ele>794.6</ele>
        <time>2026-04-30T08:19:06.000Z</time>
      </trkpt>
      <trkpt lat="43.97478" lon="2.98714">
        <ele>795</ele>
        <time>2026-04-30T08:19:07.000Z</time>
      </trkpt>
      <trkpt lat="43.97478" lon="2.98714">
        <ele>795.2</ele>
        <time>2026-04-30T08:19:08.000Z</time>
      </trkpt>
      <trkpt lat="43.97478" lon="2.98714">
        <ele>795.5</ele>
        <time>2026-04-30T08:19:09.000Z</time>
      </trkpt>
      <trkpt lat="43.97478" lon="2.98714">
        <ele>795.7</ele>
        <time>2026-04-30T08:19:10.000Z</time>
      </trkpt>
      <trkpt lat="43.97477" lon="2.98715">
        <ele>795.8</ele>
        <time>2026-04-30T08:19:11.000Z</time>
      </trkpt>
      <trkpt lat="43.97478" lon="2.98716">
        <ele>796</ele>
        <time>2026-04-30T08:19:12.000Z</time>
      </trkpt>
      <trkpt lat="43.97478" lon="2.98716">
        <ele>796.1</ele>
        <time>2026-04-30T08:19:13.000Z</time>
      </trkpt>
      <trkpt lat="43.97477" lon="2.98716">
        <ele>796.2</ele>
        <time>2026-04-30T08:19:14.000Z</time>
      </trkpt>
      <trkpt lat="43.97478" lon="2.98716">
        <ele>796.4</ele>
        <time>2026-04-30T08:19:15.000Z</time>
      </trkpt>
      <trkpt lat="43.97477" lon="2.98716">
        <ele>796.6</ele>
        <time>2026-04-30T08:19:16.000Z</time>
      </trkpt>
      <trkpt lat="43.97478" lon="2.98716">
        <ele>796.4</ele>
        <time>2026-04-30T08:19:17.000Z</time>
      </trkpt>
      <trkpt lat="43.97478" lon="2.98716">
        <ele>792.8</ele>
        <time>2026-04-30T08:19:18.000Z</time>
      </trkpt>
      <trkpt lat="43.97478" lon="2.98716">
        <ele>792.5</ele>
        <time>2026-04-30T08:19:19.000Z</time>
      </trkpt>
      <trkpt lat="43.97478" lon="2.98716">
        <ele>792.8</ele>
        <time>2026-04-30T08:19:20.000Z</time>
      </trkpt>
      <trkpt lat="43.97478" lon="2.98716">
        <ele>792.8</ele>
        <time>2026-04-30T08:19:21.000Z</time>
      </trkpt>
      <trkpt lat="43.97479" lon="2.98716">
        <ele>793.1</ele>
        <time>2026-04-30T08:19:22.000Z</time>
      </trkpt>
      <trkpt lat="43.97479" lon="2.98716">
        <ele>793</ele>
        <time>2026-04-30T08:19:23.000Z</time>
      </trkpt>
      <trkpt lat="43.97479" lon="2.98717">
        <ele>793.2</ele>
        <time>2026-04-30T08:19:24.000Z</time>
      </trkpt>
      <trkpt lat="43.9748" lon="2.98719">
        <ele>793.3</ele>
        <time>2026-04-30T08:19:26.000Z</time>
      </trkpt>
      <trkpt lat="43.9748" lon="2.9872">
        <ele>793.5</ele>
        <time>2026-04-30T08:19:27.000Z</time>
      </trkpt>
      <trkpt lat="43.97479" lon="2.98722">
        <ele>793.5</ele>
        <time>2026-04-30T08:19:28.000Z</time>
      </trkpt>
      <trkpt lat="43.97479" lon="2.98724">
        <ele>793.6</ele>
        <time>2026-04-30T08:19:29.000Z</time>
      </trkpt>
      <trkpt lat="43.97479" lon="2.98725">
        <ele>793.9</ele>
        <time>2026-04-30T08:19:30.000Z</time>
      </trkpt>
      <trkpt lat="43.97479" lon="2.98727">
        <ele>794.2</ele>
        <time>2026-04-30T08:19:31.000Z</time>
      </trkpt>
      <trkpt lat="43.97478" lon="2.98729">
        <ele>794.5</ele>
        <time>2026-04-30T08:19:32.000Z</time>
      </trkpt>
      <trkpt lat="43.97477" lon="2.9873">
        <ele>794.4</ele>
        <time>2026-04-30T08:19:33.000Z</time>
      </trkpt>
      <trkpt lat="43.97476" lon="2.98731">
        <ele>794.4</ele>
        <time>2026-04-30T08:19:34.000Z</time>
      </trkpt>
      <trkpt lat="43.97476" lon="2.98731">
        <ele>794.2</ele>
        <time>2026-04-30T08:19:35.000Z</time>
      </trkpt>
      <trkpt lat="43.97475" lon="2.98731">
        <ele>793.9</ele>
        <time>2026-04-30T08:19:36.000Z</time>
      </trkpt>
      <trkpt lat="43.97475" lon="2.98732">
        <ele>794.1</ele>
        <time>2026-04-30T08:19:37.000Z</time>
      </trkpt>
      <trkpt lat="43.97474" lon="2.98732">
        <ele>793.5</ele>
        <time>2026-04-30T08:19:38.000Z</time>
      </trkpt>
      <trkpt lat="43.97473" lon="2.98734">
        <ele>794.2</ele>
        <time>2026-04-30T08:19:39.000Z</time>
      </trkpt>
      <trkpt lat="43.97473" lon="2.98736">
        <ele>794.7</ele>
        <time>2026-04-30T08:19:40.000Z</time>
      </trkpt>
      <trkpt lat="43.97473" lon="2.98736">
        <ele>795.1</ele>
        <time>2026-04-30T08:19:41.000Z</time>
      </trkpt>
      <trkpt lat="43.97473" lon="2.98737">
        <ele>795.9</ele>
        <time>2026-04-30T08:19:42.000Z</time>
      </trkpt>
      <trkpt lat="43.97473" lon="2.98737">
        <ele>795.9</ele>
        <time>2026-04-30T08:19:43.000Z</time>
      </trkpt>
      <trkpt lat="43.97474" lon="2.98736">
        <ele>795.7</ele>
        <time>2026-04-30T08:19:44.000Z</time>
      </trkpt>
      <trkpt lat="43.97474" lon="2.98736">
        <ele>795.4</ele>
        <time>2026-04-30T08:19:45.000Z</time>
      </trkpt>
      <trkpt lat="43.97474" lon="2.98735">
        <ele>794.9</ele>
        <time>2026-04-30T08:19:46.000Z</time>
      </trkpt>
      <trkpt lat="43.97474" lon="2.98734">
        <ele>794.4</ele>
        <time>2026-04-30T08:19:47.000Z</time>
      </trkpt>
      <trkpt lat="43.97474" lon="2.98733">
        <ele>794</ele>
        <time>2026-04-30T08:19:48.000Z</time>
      </trkpt>
      <trkpt lat="43.97475" lon="2.98733">
        <ele>793.8</ele>
        <time>2026-04-30T08:19:49.000Z</time>
      </trkpt>
      <trkpt lat="43.97475" lon="2.98735">
        <ele>794.6</ele>
        <time>2026-04-30T08:19:50.000Z</time>
      </trkpt>
      <trkpt lat="43.97474" lon="2.98735">
        <ele>795.6</ele>
        <time>2026-04-30T08:19:51.000Z</time>
      </trkpt>
      <trkpt lat="43.97474" lon="2.98736">
        <ele>796.1</ele>
        <time>2026-04-30T08:19:52.000Z</time>
      </trkpt>
      <trkpt lat="43.97474" lon="2.98736">
        <ele>796.2</ele>
        <time>2026-04-30T08:19:53.000Z</time>
      </trkpt>
      <trkpt lat="43.97474" lon="2.98737">
        <ele>796.5</ele>
        <time>2026-04-30T08:19:54.000Z</time>
      </trkpt>
      <trkpt lat="43.97474" lon="2.98737">
        <ele>796.8</ele>
        <time>2026-04-30T08:19:55.000Z</time>
      </trkpt>
      <trkpt lat="43.97474" lon="2.98739">
        <ele>797</ele>
        <time>2026-04-30T08:19:56.000Z</time>
      </trkpt>
      <trkpt lat="43.97474" lon="2.98739">
        <ele>796.9</ele>
        <time>2026-04-30T08:19:57.000Z</time>
      </trkpt>
      <trkpt lat="43.97474" lon="2.9874">
        <ele>796.8</ele>
        <time>2026-04-30T08:19:58.000Z</time>
      </trkpt>
      <trkpt lat="43.97474" lon="2.9874">
        <ele>797.9</ele>
        <time>2026-04-30T08:19:59.000Z</time>
      </trkpt>
      <trkpt lat="43.97474" lon="2.9874">
        <ele>797.6</ele>
        <time>2026-04-30T08:20:00.000Z</time>
      </trkpt>
      <trkpt lat="43.97474" lon="2.9874">
        <ele>797.3</ele>
        <time>2026-04-30T08:20:01.000Z</time>
      </trkpt>
      <trkpt lat="43.97474" lon="2.98741">
        <ele>797.2</ele>
        <time>2026-04-30T08:20:02.000Z</time>
      </trkpt>
      <trkpt lat="43.97474" lon="2.98741">
        <ele>797.3</ele>
        <time>2026-04-30T08:20:03.000Z</time>
      </trkpt>
      <trkpt lat="43.97474" lon="2.98741">
        <ele>797</ele>
        <time>2026-04-30T08:20:04.000Z</time>
      </trkpt>
      <trkpt lat="43.97474" lon="2.98741">
        <ele>797</ele>
        <time>2026-04-30T08:20:05.000Z</time>
      </trkpt>
      <trkpt lat="43.97474" lon="2.98741">
        <ele>796.9</ele>
        <time>2026-04-30T08:20:06.000Z</time>
      </trkpt>
      <trkpt lat="43.97474" lon="2.98741">
        <ele>796.7</ele>
        <time>2026-04-30T08:20:07.000Z</time>
      </trkpt>
      <trkpt lat="43.97474" lon="2.98741">
        <ele>796.4</ele>
        <time>2026-04-30T08:20:08.000Z</time>
      </trkpt>
      <trkpt lat="43.97474" lon="2.98741">
        <ele>795.9</ele>
        <time>2026-04-30T08:20:09.000Z</time>
      </trkpt>
      <trkpt lat="43.97474" lon="2.98741">
        <ele>795.8</ele>
        <time>2026-04-30T08:20:10.000Z</time>
      </trkpt>
      <trkpt lat="43.97473" lon="2.98741">
        <ele>795.8</ele>
        <time>2026-04-30T08:20:11.000Z</time>
      </trkpt>
      <trkpt lat="43.97473" lon="2.98742">
        <ele>795.6</ele>
        <time>2026-04-30T08:20:12.000Z</time>
      </trkpt>
      <trkpt lat="43.97473" lon="2.98743">
        <ele>795.6</ele>
        <time>2026-04-30T08:20:13.000Z</time>
      </trkpt>
      <trkpt lat="43.97472" lon="2.98746">
        <ele>796.2</ele>
        <time>2026-04-30T08:20:15.000Z</time>
      </trkpt>
      <trkpt lat="43.97471" lon="2.98747">
        <ele>796.1</ele>
        <time>2026-04-30T08:20:16.000Z</time>
      </trkpt>
      <trkpt lat="43.9747" lon="2.98747">
        <ele>795.4</ele>
        <time>2026-04-30T08:20:17.000Z</time>
      </trkpt>
      <trkpt lat="43.97469" lon="2.98747">
        <ele>795.1</ele>
        <time>2026-04-30T08:20:18.000Z</time>
      </trkpt>
      <trkpt lat="43.97469" lon="2.98748">
        <ele>795.5</ele>
        <time>2026-04-30T08:20:19.000Z</time>
      </trkpt>
      <trkpt lat="43.97468" lon="2.9875">
        <ele>795.3</ele>
        <time>2026-04-30T08:20:20.000Z</time>
      </trkpt>
      <trkpt lat="43.97466" lon="2.98751">
        <ele>794.8</ele>
        <time>2026-04-30T08:20:21.000Z</time>
      </trkpt>
      <trkpt lat="43.97465" lon="2.98751">
        <ele>794.4</ele>
        <time>2026-04-30T08:20:22.000Z</time>
      </trkpt>
      <trkpt lat="43.97465" lon="2.98753">
        <ele>794.4</ele>
        <time>2026-04-30T08:20:23.000Z</time>
      </trkpt>
      <trkpt lat="43.97464" lon="2.98753">
        <ele>793.9</ele>
        <time>2026-04-30T08:20:24.000Z</time>
      </trkpt>
      <trkpt lat="43.97463" lon="2.98754">
        <ele>793.9</ele>
        <time>2026-04-30T08:20:25.000Z</time>
      </trkpt>
      <trkpt lat="43.97463" lon="2.98755">
        <ele>794</ele>
        <time>2026-04-30T08:20:26.000Z</time>
      </trkpt>
      <trkpt lat="43.97463" lon="2.98755">
        <ele>793.8</ele>
        <time>2026-04-30T08:20:27.000Z</time>
      </trkpt>
      <trkpt lat="43.97463" lon="2.98754">
        <ele>793.9</ele>
        <time>2026-04-30T08:20:28.000Z</time>
      </trkpt>
      <trkpt lat="43.97463" lon="2.98754">
        <ele>794.2</ele>
        <time>2026-04-30T08:20:29.000Z</time>
      </trkpt>
      <trkpt lat="43.97463" lon="2.98755">
        <ele>794.2</ele>
        <time>2026-04-30T08:20:30.000Z</time>
      </trkpt>
      <trkpt lat="43.97463" lon="2.98755">
        <ele>794.2</ele>
        <time>2026-04-30T08:20:31.000Z</time>
      </trkpt>
      <trkpt lat="43.97463" lon="2.98756">
        <ele>794.6</ele>
        <time>2026-04-30T08:20:32.000Z</time>
      </trkpt>
      <trkpt lat="43.97463" lon="2.98756">
        <ele>794.1</ele>
        <time>2026-04-30T08:20:33.000Z</time>
      </trkpt>
      <trkpt lat="43.97463" lon="2.98756">
        <ele>793.6</ele>
        <time>2026-04-30T08:20:34.000Z</time>
      </trkpt>
      <trkpt lat="43.97463" lon="2.98755">
        <ele>793.2</ele>
        <time>2026-04-30T08:20:35.000Z</time>
      </trkpt>
      <trkpt lat="43.97463" lon="2.98755">
        <ele>793</ele>
        <time>2026-04-30T08:20:36.000Z</time>
      </trkpt>
      <trkpt lat="43.97463" lon="2.98755">
        <ele>792.9</ele>
        <time>2026-04-30T08:20:37.000Z</time>
      </trkpt>
      <trkpt lat="43.97463" lon="2.98756">
        <ele>792.9</ele>
        <time>2026-04-30T08:20:38.000Z</time>
      </trkpt>
      <trkpt lat="43.97463" lon="2.98756">
        <ele>792.9</ele>
        <time>2026-04-30T08:20:39.000Z</time>
      </trkpt>
      <trkpt lat="43.97462" lon="2.98756">
        <ele>793</ele>
        <time>2026-04-30T08:20:40.000Z</time>
      </trkpt>
      <trkpt lat="43.97462" lon="2.98757">
        <ele>793.1</ele>
        <time>2026-04-30T08:20:41.000Z</time>
      </trkpt>
      <trkpt lat="43.97462" lon="2.98758">
        <ele>793.1</ele>
        <time>2026-04-30T08:20:42.000Z</time>
      </trkpt>
      <trkpt lat="43.97462" lon="2.98758">
        <ele>793.2</ele>
        <time>2026-04-30T08:20:43.000Z</time>
      </trkpt>
      <trkpt lat="43.97462" lon="2.98759">
        <ele>793</ele>
        <time>2026-04-30T08:20:44.000Z</time>
      </trkpt>
      <trkpt lat="43.97462" lon="2.98759">
        <ele>793</ele>
        <time>2026-04-30T08:20:45.000Z</time>
      </trkpt>
      <trkpt lat="43.97462" lon="2.98759">
        <ele>793.2</ele>
        <time>2026-04-30T08:20:46.000Z</time>
      </trkpt>
      <trkpt lat="43.97462" lon="2.98759">
        <ele>793.4</ele>
        <time>2026-04-30T08:20:47.000Z</time>
      </trkpt>
      <trkpt lat="43.97462" lon="2.98759">
        <ele>793.5</ele>
        <time>2026-04-30T08:20:48.000Z</time>
      </trkpt>
      <trkpt lat="43.97462" lon="2.98759">
        <ele>793.5</ele>
        <time>2026-04-30T08:20:49.000Z</time>
      </trkpt>
      <trkpt lat="43.97462" lon="2.98759">
        <ele>793.5</ele>
        <time>2026-04-30T08:20:50.000Z</time>
      </trkpt>
      <trkpt lat="43.97462" lon="2.98759">
        <ele>793.6</ele>
        <time>2026-04-30T08:20:51.000Z</time>
      </trkpt>
      <trkpt lat="43.97462" lon="2.98759">
        <ele>793.6</ele>
        <time>2026-04-30T08:20:52.000Z</time>
      </trkpt>
      <trkpt lat="43.97462" lon="2.98758">
        <ele>793.6</ele>
        <time>2026-04-30T08:20:53.000Z</time>
      </trkpt>
      <trkpt lat="43.97462" lon="2.98758">
        <ele>793.6</ele>
        <time>2026-04-30T08:20:54.000Z</time>
      </trkpt>
      <trkpt lat="43.97462" lon="2.98758">
        <ele>793.7</ele>
        <time>2026-04-30T08:20:55.000Z</time>
      </trkpt>
      <trkpt lat="43.97462" lon="2.98758">
        <ele>793.8</ele>
        <time>2026-04-30T08:20:56.000Z</time>
      </trkpt>
      <trkpt lat="43.97462" lon="2.98758">
        <ele>793.8</ele>
        <time>2026-04-30T08:20:57.000Z</time>
      </trkpt>
      <trkpt lat="43.97461" lon="2.9876">
        <ele>793.8</ele>
        <time>2026-04-30T08:20:58.000Z</time>
      </trkpt>
      <trkpt lat="43.97461" lon="2.98761">
        <ele>793.8</ele>
        <time>2026-04-30T08:20:59.000Z</time>
      </trkpt>
      <trkpt lat="43.9746" lon="2.98763">
        <ele>794.1</ele>
        <time>2026-04-30T08:21:00.000Z</time>
      </trkpt>
      <trkpt lat="43.97459" lon="2.98764">
        <ele>794.4</ele>
        <time>2026-04-30T08:21:01.000Z</time>
      </trkpt>
      <trkpt lat="43.97459" lon="2.98765">
        <ele>794.4</ele>
        <time>2026-04-30T08:21:02.000Z</time>
      </trkpt>
      <trkpt lat="43.97458" lon="2.98765">
        <ele>794.3</ele>
        <time>2026-04-30T08:21:03.000Z</time>
      </trkpt>
      <trkpt lat="43.97458" lon="2.98765">
        <ele>794.2</ele>
        <time>2026-04-30T08:21:04.000Z</time>
      </trkpt>
      <trkpt lat="43.97458" lon="2.98764">
        <ele>794</ele>
        <time>2026-04-30T08:21:05.000Z</time>
      </trkpt>
      <trkpt lat="43.97458" lon="2.98764">
        <ele>794</ele>
        <time>2026-04-30T08:21:06.000Z</time>
      </trkpt>
      <trkpt lat="43.97458" lon="2.98764">
        <ele>793.8</ele>
        <time>2026-04-30T08:21:07.000Z</time>
      </trkpt>
      <trkpt lat="43.97458" lon="2.98763">
        <ele>793.6</ele>
        <time>2026-04-30T08:21:08.000Z</time>
      </trkpt>
      <trkpt lat="43.97457" lon="2.98762">
        <ele>793.2</ele>
        <time>2026-04-30T08:21:09.000Z</time>
      </trkpt>
      <trkpt lat="43.97457" lon="2.98762">
        <ele>792.8</ele>
        <time>2026-04-30T08:21:10.000Z</time>
      </trkpt>
      <trkpt lat="43.97457" lon="2.98762">
        <ele>792.4</ele>
        <time>2026-04-30T08:21:11.000Z</time>
      </trkpt>
      <trkpt lat="43.97457" lon="2.98762">
        <ele>791</ele>
        <time>2026-04-30T08:21:12.000Z</time>
      </trkpt>
      <trkpt lat="43.97457" lon="2.98762">
        <ele>790.7</ele>
        <time>2026-04-30T08:21:13.000Z</time>
      </trkpt>
      <trkpt lat="43.97457" lon="2.98762">
        <ele>790.5</ele>
        <time>2026-04-30T08:21:14.000Z</time>
      </trkpt>
      <trkpt lat="43.97457" lon="2.98762">
        <ele>790.4</ele>
        <time>2026-04-30T08:21:15.000Z</time>
      </trkpt>
      <trkpt lat="43.97457" lon="2.98762">
        <ele>790.5</ele>
        <time>2026-04-30T08:21:16.000Z</time>
      </trkpt>
      <trkpt lat="43.97457" lon="2.98762">
        <ele>790.6</ele>
        <time>2026-04-30T08:21:17.000Z</time>
      </trkpt>
      <trkpt lat="43.97457" lon="2.98762">
        <ele>790.7</ele>
        <time>2026-04-30T08:21:18.000Z</time>
      </trkpt>
      <trkpt lat="43.97457" lon="2.98762">
        <ele>790.7</ele>
        <time>2026-04-30T08:21:19.000Z</time>
      </trkpt>
      <trkpt lat="43.97457" lon="2.98762">
        <ele>790.7</ele>
        <time>2026-04-30T08:21:20.000Z</time>
      </trkpt>
      <trkpt lat="43.97457" lon="2.98762">
        <ele>790.5</ele>
        <time>2026-04-30T08:21:21.000Z</time>
      </trkpt>
      <trkpt lat="43.97457" lon="2.98762">
        <ele>790.6</ele>
        <time>2026-04-30T08:21:22.000Z</time>
      </trkpt>
      <trkpt lat="43.97457" lon="2.98762">
        <ele>790.6</ele>
        <time>2026-04-30T08:21:23.000Z</time>
      </trkpt>
      <trkpt lat="43.97457" lon="2.98763">
        <ele>790.9</ele>
        <time>2026-04-30T08:21:24.000Z</time>
      </trkpt>
      <trkpt lat="43.97455" lon="2.98765">
        <ele>791.4</ele>
        <time>2026-04-30T08:21:26.000Z</time>
      </trkpt>
      <trkpt lat="43.97454" lon="2.98766">
        <ele>791.5</ele>
        <time>2026-04-30T08:21:27.000Z</time>
      </trkpt>
      <trkpt lat="43.97453" lon="2.98768">
        <ele>791.6</ele>
        <time>2026-04-30T08:21:28.000Z</time>
      </trkpt>
      <trkpt lat="43.97451" lon="2.98769">
        <ele>791.5</ele>
        <time>2026-04-30T08:21:29.000Z</time>
      </trkpt>
      <trkpt lat="43.97449" lon="2.9877">
        <ele>791.1</ele>
        <time>2026-04-30T08:21:30.000Z</time>
      </trkpt>
      <trkpt lat="43.97447" lon="2.98772">
        <ele>790.8</ele>
        <time>2026-04-30T08:21:31.000Z</time>
      </trkpt>
      <trkpt lat="43.97445" lon="2.98773">
        <ele>790.7</ele>
        <time>2026-04-30T08:21:32.000Z</time>
      </trkpt>
      <trkpt lat="43.97444" lon="2.98774">
        <ele>790.6</ele>
        <time>2026-04-30T08:21:33.000Z</time>
      </trkpt>
      <trkpt lat="43.97443" lon="2.98774">
        <ele>790.6</ele>
        <time>2026-04-30T08:21:34.000Z</time>
      </trkpt>
      <trkpt lat="43.97443" lon="2.98775">
        <ele>791.3</ele>
        <time>2026-04-30T08:21:35.000Z</time>
      </trkpt>
      <trkpt lat="43.97442" lon="2.98776">
        <ele>791.7</ele>
        <time>2026-04-30T08:21:36.000Z</time>
      </trkpt>
      <trkpt lat="43.97441" lon="2.98778">
        <ele>791.3</ele>
        <time>2026-04-30T08:21:37.000Z</time>
      </trkpt>
      <trkpt lat="43.97441" lon="2.9878">
        <ele>791.2</ele>
        <time>2026-04-30T08:21:38.000Z</time>
      </trkpt>
      <trkpt lat="43.9744" lon="2.98781">
        <ele>791.4</ele>
        <time>2026-04-30T08:21:39.000Z</time>
      </trkpt>
      <trkpt lat="43.9744" lon="2.98783">
        <ele>791.3</ele>
        <time>2026-04-30T08:21:40.000Z</time>
      </trkpt>
      <trkpt lat="43.9744" lon="2.98783">
        <ele>791.3</ele>
        <time>2026-04-30T08:21:41.000Z</time>
      </trkpt>
      <trkpt lat="43.97439" lon="2.98784">
        <ele>791.7</ele>
        <time>2026-04-30T08:21:43.000Z</time>
      </trkpt>
      <trkpt lat="43.97439" lon="2.98785">
        <ele>791.1</ele>
        <time>2026-04-30T08:21:44.000Z</time>
      </trkpt>
      <trkpt lat="43.97438" lon="2.98786">
        <ele>790.8</ele>
        <time>2026-04-30T08:21:45.000Z</time>
      </trkpt>
      <trkpt lat="43.97438" lon="2.98788">
        <ele>791.1</ele>
        <time>2026-04-30T08:21:46.000Z</time>
      </trkpt>
      <trkpt lat="43.97437" lon="2.98789">
        <ele>791</ele>
        <time>2026-04-30T08:21:47.000Z</time>
      </trkpt>
      <trkpt lat="43.97437" lon="2.9879">
        <ele>791</ele>
        <time>2026-04-30T08:21:48.000Z</time>
      </trkpt>
      <trkpt lat="43.97437" lon="2.98791">
        <ele>793.9</ele>
        <time>2026-04-30T08:21:49.000Z</time>
      </trkpt>
      <trkpt lat="43.97437" lon="2.98792">
        <ele>793.9</ele>
        <time>2026-04-30T08:21:50.000Z</time>
      </trkpt>
      <trkpt lat="43.97437" lon="2.98793">
        <ele>794.1</ele>
        <time>2026-04-30T08:21:51.000Z</time>
      </trkpt>
      <trkpt lat="43.97437" lon="2.98793">
        <ele>794</ele>
        <time>2026-04-30T08:21:52.000Z</time>
      </trkpt>
      <trkpt lat="43.97437" lon="2.98793">
        <ele>794.6</ele>
        <time>2026-04-30T08:21:53.000Z</time>
      </trkpt>
      <trkpt lat="43.97437" lon="2.98793">
        <ele>794.6</ele>
        <time>2026-04-30T08:21:54.000Z</time>
      </trkpt>
      <trkpt lat="43.97437" lon="2.98794">
        <ele>794.6</ele>
        <time>2026-04-30T08:21:55.000Z</time>
      </trkpt>
      <trkpt lat="43.97436" lon="2.98794">
        <ele>794.3</ele>
        <time>2026-04-30T08:21:56.000Z</time>
      </trkpt>
      <trkpt lat="43.97435" lon="2.98794">
        <ele>794.3</ele>
        <time>2026-04-30T08:21:57.000Z</time>
      </trkpt>
      <trkpt lat="43.97434" lon="2.98796">
        <ele>793.9</ele>
        <time>2026-04-30T08:21:58.000Z</time>
      </trkpt>
      <trkpt lat="43.97433" lon="2.98798">
        <ele>793.7</ele>
        <time>2026-04-30T08:21:59.000Z</time>
      </trkpt>
      <trkpt lat="43.97432" lon="2.98799">
        <ele>793.2</ele>
        <time>2026-04-30T08:22:00.000Z</time>
      </trkpt>
      <trkpt lat="43.97432" lon="2.988">
        <ele>792.7</ele>
        <time>2026-04-30T08:22:01.000Z</time>
      </trkpt>
      <trkpt lat="43.97431" lon="2.98801">
        <ele>792.5</ele>
        <time>2026-04-30T08:22:02.000Z</time>
      </trkpt>
      <trkpt lat="43.97431" lon="2.98802">
        <ele>792.5</ele>
        <time>2026-04-30T08:22:03.000Z</time>
      </trkpt>
      <trkpt lat="43.97431" lon="2.98803">
        <ele>792.4</ele>
        <time>2026-04-30T08:22:04.000Z</time>
      </trkpt>
      <trkpt lat="43.9743" lon="2.98803">
        <ele>792.4</ele>
        <time>2026-04-30T08:22:05.000Z</time>
      </trkpt>
      <trkpt lat="43.9743" lon="2.98804">
        <ele>792.3</ele>
        <time>2026-04-30T08:22:06.000Z</time>
      </trkpt>
      <trkpt lat="43.97429" lon="2.98805">
        <ele>792.3</ele>
        <time>2026-04-30T08:22:07.000Z</time>
      </trkpt>
      <trkpt lat="43.97429" lon="2.98805">
        <ele>792.5</ele>
        <time>2026-04-30T08:22:08.000Z</time>
      </trkpt>
      <trkpt lat="43.97429" lon="2.98806">
        <ele>792.3</ele>
        <time>2026-04-30T08:22:09.000Z</time>
      </trkpt>
      <trkpt lat="43.97428" lon="2.98807">
        <ele>792.3</ele>
        <time>2026-04-30T08:22:10.000Z</time>
      </trkpt>
      <trkpt lat="43.97428" lon="2.98808">
        <ele>792.1</ele>
        <time>2026-04-30T08:22:11.000Z</time>
      </trkpt>
      <trkpt lat="43.97428" lon="2.98809">
        <ele>792.3</ele>
        <time>2026-04-30T08:22:12.000Z</time>
      </trkpt>
      <trkpt lat="43.97427" lon="2.9881">
        <ele>792.3</ele>
        <time>2026-04-30T08:22:13.000Z</time>
      </trkpt>
      <trkpt lat="43.97426" lon="2.9881">
        <ele>792.6</ele>
        <time>2026-04-30T08:22:14.000Z</time>
      </trkpt>
      <trkpt lat="43.97424" lon="2.9881">
        <ele>793.1</ele>
        <time>2026-04-30T08:22:15.000Z</time>
      </trkpt>
      <trkpt lat="43.97423" lon="2.9881">
        <ele>793.3</ele>
        <time>2026-04-30T08:22:16.000Z</time>
      </trkpt>
      <trkpt lat="43.97422" lon="2.9881">
        <ele>794.1</ele>
        <time>2026-04-30T08:22:17.000Z</time>
      </trkpt>
      <trkpt lat="43.97421" lon="2.98809">
        <ele>794.1</ele>
        <time>2026-04-30T08:22:18.000Z</time>
      </trkpt>
      <trkpt lat="43.9742" lon="2.98808">
        <ele>794.1</ele>
        <time>2026-04-30T08:22:19.000Z</time>
      </trkpt>
      <trkpt lat="43.97419" lon="2.98807">
        <ele>794.5</ele>
        <time>2026-04-30T08:22:20.000Z</time>
      </trkpt>
      <trkpt lat="43.97418" lon="2.98806">
        <ele>794.5</ele>
        <time>2026-04-30T08:22:21.000Z</time>
      </trkpt>
      <trkpt lat="43.97417" lon="2.98806">
        <ele>794.2</ele>
        <time>2026-04-30T08:22:22.000Z</time>
      </trkpt>
      <trkpt lat="43.97417" lon="2.98806">
        <ele>794</ele>
        <time>2026-04-30T08:22:23.000Z</time>
      </trkpt>
      <trkpt lat="43.97416" lon="2.98806">
        <ele>793.7</ele>
        <time>2026-04-30T08:22:24.000Z</time>
      </trkpt>
      <trkpt lat="43.97415" lon="2.98806">
        <ele>793.5</ele>
        <time>2026-04-30T08:22:25.000Z</time>
      </trkpt>
      <trkpt lat="43.97414" lon="2.98805">
        <ele>793.7</ele>
        <time>2026-04-30T08:22:26.000Z</time>
      </trkpt>
      <trkpt lat="43.97413" lon="2.98807">
        <ele>793.9</ele>
        <time>2026-04-30T08:22:27.000Z</time>
      </trkpt>
      <trkpt lat="43.97413" lon="2.98807">
        <ele>794</ele>
        <time>2026-04-30T08:22:28.000Z</time>
      </trkpt>
      <trkpt lat="43.97412" lon="2.98809">
        <ele>795.3</ele>
        <time>2026-04-30T08:22:29.000Z</time>
      </trkpt>
      <trkpt lat="43.97411" lon="2.98809">
        <ele>795.4</ele>
        <time>2026-04-30T08:22:30.000Z</time>
      </trkpt>
      <trkpt lat="43.97411" lon="2.98809">
        <ele>795.1</ele>
        <time>2026-04-30T08:22:31.000Z</time>
      </trkpt>
      <trkpt lat="43.97409" lon="2.98813">
        <ele>795.8</ele>
        <time>2026-04-30T08:22:32.000Z</time>
      </trkpt>
      <trkpt lat="43.97408" lon="2.98814">
        <ele>796.5</ele>
        <time>2026-04-30T08:22:33.000Z</time>
      </trkpt>
      <trkpt lat="43.97406" lon="2.98819">
        <ele>797.8</ele>
        <time>2026-04-30T08:22:34.000Z</time>
      </trkpt>
      <trkpt lat="43.97404" lon="2.98823">
        <ele>798.6</ele>
        <time>2026-04-30T08:22:35.000Z</time>
      </trkpt>
      <trkpt lat="43.97402" lon="2.98824">
        <ele>798.2</ele>
        <time>2026-04-30T08:22:36.000Z</time>
      </trkpt>
      <trkpt lat="43.974" lon="2.98826">
        <ele>798.1</ele>
        <time>2026-04-30T08:22:37.000Z</time>
      </trkpt>
      <trkpt lat="43.974" lon="2.98828">
        <ele>797.7</ele>
        <time>2026-04-30T08:22:38.000Z</time>
      </trkpt>
      <trkpt lat="43.97399" lon="2.98829">
        <ele>797.4</ele>
        <time>2026-04-30T08:22:39.000Z</time>
      </trkpt>
      <trkpt lat="43.97398" lon="2.9883">
        <ele>797.1</ele>
        <time>2026-04-30T08:22:40.000Z</time>
      </trkpt>
      <trkpt lat="43.97396" lon="2.98832">
        <ele>797</ele>
        <time>2026-04-30T08:22:41.000Z</time>
      </trkpt>
      <trkpt lat="43.97395" lon="2.98834">
        <ele>797.3</ele>
        <time>2026-04-30T08:22:42.000Z</time>
      </trkpt>
      <trkpt lat="43.97394" lon="2.98835">
        <ele>797.3</ele>
        <time>2026-04-30T08:22:43.000Z</time>
      </trkpt>
      <trkpt lat="43.97393" lon="2.98835">
        <ele>797.1</ele>
        <time>2026-04-30T08:22:44.000Z</time>
      </trkpt>
      <trkpt lat="43.97392" lon="2.98836">
        <ele>797.2</ele>
        <time>2026-04-30T08:22:45.000Z</time>
      </trkpt>
      <trkpt lat="43.97391" lon="2.98837">
        <ele>797.3</ele>
        <time>2026-04-30T08:22:46.000Z</time>
      </trkpt>
      <trkpt lat="43.9739" lon="2.98839">
        <ele>797.2</ele>
        <time>2026-04-30T08:22:47.000Z</time>
      </trkpt>
      <trkpt lat="43.97389" lon="2.98839">
        <ele>797</ele>
        <time>2026-04-30T08:22:48.000Z</time>
      </trkpt>
      <trkpt lat="43.97389" lon="2.9884">
        <ele>797</ele>
        <time>2026-04-30T08:22:49.000Z</time>
      </trkpt>
      <trkpt lat="43.97388" lon="2.9884">
        <ele>797</ele>
        <time>2026-04-30T08:22:50.000Z</time>
      </trkpt>
      <trkpt lat="43.97387" lon="2.98841">
        <ele>797</ele>
        <time>2026-04-30T08:22:51.000Z</time>
      </trkpt>
      <trkpt lat="43.97386" lon="2.98842">
        <ele>797</ele>
        <time>2026-04-30T08:22:52.000Z</time>
      </trkpt>
      <trkpt lat="43.97385" lon="2.98843">
        <ele>797.2</ele>
        <time>2026-04-30T08:22:53.000Z</time>
      </trkpt>
      <trkpt lat="43.97385" lon="2.98843">
        <ele>796.9</ele>
        <time>2026-04-30T08:22:54.000Z</time>
      </trkpt>
      <trkpt lat="43.97385" lon="2.98844">
        <ele>796.3</ele>
        <time>2026-04-30T08:22:55.000Z</time>
      </trkpt>
      <trkpt lat="43.97386" lon="2.98845">
        <ele>795.9</ele>
        <time>2026-04-30T08:22:56.000Z</time>
      </trkpt>
      <trkpt lat="43.97386" lon="2.98845">
        <ele>796</ele>
        <time>2026-04-30T08:22:57.000Z</time>
      </trkpt>
      <trkpt lat="43.97386" lon="2.98845">
        <ele>796.2</ele>
        <time>2026-04-30T08:22:58.000Z</time>
      </trkpt>
      <trkpt lat="43.97386" lon="2.98845">
        <ele>796.2</ele>
        <time>2026-04-30T08:22:59.000Z</time>
      </trkpt>
      <trkpt lat="43.97385" lon="2.98845">
        <ele>796.1</ele>
        <time>2026-04-30T08:23:00.000Z</time>
      </trkpt>
      <trkpt lat="43.97384" lon="2.98845">
        <ele>796</ele>
        <time>2026-04-30T08:23:01.000Z</time>
      </trkpt>
      <trkpt lat="43.97383" lon="2.98845">
        <ele>795.9</ele>
        <time>2026-04-30T08:23:02.000Z</time>
      </trkpt>
      <trkpt lat="43.97382" lon="2.98846">
        <ele>795.6</ele>
        <time>2026-04-30T08:23:03.000Z</time>
      </trkpt>
      <trkpt lat="43.97381" lon="2.98847">
        <ele>795.5</ele>
        <time>2026-04-30T08:23:04.000Z</time>
      </trkpt>
      <trkpt lat="43.97381" lon="2.98849">
        <ele>795.2</ele>
        <time>2026-04-30T08:23:05.000Z</time>
      </trkpt>
      <trkpt lat="43.9738" lon="2.9885">
        <ele>795.3</ele>
        <time>2026-04-30T08:23:06.000Z</time>
      </trkpt>
      <trkpt lat="43.97379" lon="2.98852">
        <ele>795</ele>
        <time>2026-04-30T08:23:07.000Z</time>
      </trkpt>
      <trkpt lat="43.97377" lon="2.98853">
        <ele>795.2</ele>
        <time>2026-04-30T08:23:08.000Z</time>
      </trkpt>
      <trkpt lat="43.97377" lon="2.98855">
        <ele>795.1</ele>
        <time>2026-04-30T08:23:09.000Z</time>
      </trkpt>
      <trkpt lat="43.97376" lon="2.98856">
        <ele>794.8</ele>
        <time>2026-04-30T08:23:10.000Z</time>
      </trkpt>
      <trkpt lat="43.97376" lon="2.98857">
        <ele>794.6</ele>
        <time>2026-04-30T08:23:11.000Z</time>
      </trkpt>
      <trkpt lat="43.97375" lon="2.98859">
        <ele>794.7</ele>
        <time>2026-04-30T08:23:12.000Z</time>
      </trkpt>
      <trkpt lat="43.97374" lon="2.98861">
        <ele>794.9</ele>
        <time>2026-04-30T08:23:13.000Z</time>
      </trkpt>
      <trkpt lat="43.97373" lon="2.98863">
        <ele>794.9</ele>
        <time>2026-04-30T08:23:14.000Z</time>
      </trkpt>
      <trkpt lat="43.97372" lon="2.98864">
        <ele>794.9</ele>
        <time>2026-04-30T08:23:15.000Z</time>
      </trkpt>
      <trkpt lat="43.97371" lon="2.98866">
        <ele>794.6</ele>
        <time>2026-04-30T08:23:16.000Z</time>
      </trkpt>
      <trkpt lat="43.9737" lon="2.98867">
        <ele>794.3</ele>
        <time>2026-04-30T08:23:17.000Z</time>
      </trkpt>
      <trkpt lat="43.9737" lon="2.98867">
        <ele>794.2</ele>
        <time>2026-04-30T08:23:18.000Z</time>
      </trkpt>
      <trkpt lat="43.9737" lon="2.98868">
        <ele>794.2</ele>
        <time>2026-04-30T08:23:19.000Z</time>
      </trkpt>
      <trkpt lat="43.97369" lon="2.98869">
        <ele>794</ele>
        <time>2026-04-30T08:23:20.000Z</time>
      </trkpt>
      <trkpt lat="43.97368" lon="2.9887">
        <ele>794.2</ele>
        <time>2026-04-30T08:23:21.000Z</time>
      </trkpt>
      <trkpt lat="43.97367" lon="2.98872">
        <ele>794.5</ele>
        <time>2026-04-30T08:23:22.000Z</time>
      </trkpt>
      <trkpt lat="43.97366" lon="2.98873">
        <ele>794.8</ele>
        <time>2026-04-30T08:23:23.000Z</time>
      </trkpt>
      <trkpt lat="43.97366" lon="2.98874">
        <ele>794.9</ele>
        <time>2026-04-30T08:23:24.000Z</time>
      </trkpt>
      <trkpt lat="43.97365" lon="2.98876">
        <ele>795.1</ele>
        <time>2026-04-30T08:23:25.000Z</time>
      </trkpt>
      <trkpt lat="43.97365" lon="2.98877">
        <ele>795.2</ele>
        <time>2026-04-30T08:23:26.000Z</time>
      </trkpt>
      <trkpt lat="43.97364" lon="2.98878">
        <ele>795.2</ele>
        <time>2026-04-30T08:23:27.000Z</time>
      </trkpt>
      <trkpt lat="43.97364" lon="2.98879">
        <ele>795.4</ele>
        <time>2026-04-30T08:23:28.000Z</time>
      </trkpt>
      <trkpt lat="43.97363" lon="2.9888">
        <ele>795.5</ele>
        <time>2026-04-30T08:23:29.000Z</time>
      </trkpt>
      <trkpt lat="43.97363" lon="2.98881">
        <ele>795.7</ele>
        <time>2026-04-30T08:23:30.000Z</time>
      </trkpt>
      <trkpt lat="43.97362" lon="2.98883">
        <ele>795.8</ele>
        <time>2026-04-30T08:23:31.000Z</time>
      </trkpt>
      <trkpt lat="43.97361" lon="2.98885">
        <ele>796.1</ele>
        <time>2026-04-30T08:23:32.000Z</time>
      </trkpt>
      <trkpt lat="43.97359" lon="2.98886">
        <ele>795.8</ele>
        <time>2026-04-30T08:23:33.000Z</time>
      </trkpt>
      <trkpt lat="43.97358" lon="2.98888">
        <ele>795.7</ele>
        <time>2026-04-30T08:23:34.000Z</time>
      </trkpt>
      <trkpt lat="43.97357" lon="2.9889">
        <ele>795.4</ele>
        <time>2026-04-30T08:23:35.000Z</time>
      </trkpt>
      <trkpt lat="43.97356" lon="2.98891">
        <ele>795</ele>
        <time>2026-04-30T08:23:36.000Z</time>
      </trkpt>
      <trkpt lat="43.97355" lon="2.98893">
        <ele>794.3</ele>
        <time>2026-04-30T08:23:37.000Z</time>
      </trkpt>
      <trkpt lat="43.97355" lon="2.98894">
        <ele>793.8</ele>
        <time>2026-04-30T08:23:38.000Z</time>
      </trkpt>
      <trkpt lat="43.97354" lon="2.98895">
        <ele>793.4</ele>
        <time>2026-04-30T08:23:39.000Z</time>
      </trkpt>
      <trkpt lat="43.97353" lon="2.98896">
        <ele>793.4</ele>
        <time>2026-04-30T08:23:40.000Z</time>
      </trkpt>
      <trkpt lat="43.97352" lon="2.98898">
        <ele>793.3</ele>
        <time>2026-04-30T08:23:41.000Z</time>
      </trkpt>
      <trkpt lat="43.97351" lon="2.98899">
        <ele>793.1</ele>
        <time>2026-04-30T08:23:42.000Z</time>
      </trkpt>
      <trkpt lat="43.9735" lon="2.98899">
        <ele>792.9</ele>
        <time>2026-04-30T08:23:43.000Z</time>
      </trkpt>
      <trkpt lat="43.97349" lon="2.989">
        <ele>793</ele>
        <time>2026-04-30T08:23:44.000Z</time>
      </trkpt>
      <trkpt lat="43.97347" lon="2.98901">
        <ele>793</ele>
        <time>2026-04-30T08:23:45.000Z</time>
      </trkpt>
      <trkpt lat="43.97346" lon="2.98901">
        <ele>792.6</ele>
        <time>2026-04-30T08:23:46.000Z</time>
      </trkpt>
      <trkpt lat="43.97345" lon="2.98901">
        <ele>792.4</ele>
        <time>2026-04-30T08:23:47.000Z</time>
      </trkpt>
      <trkpt lat="43.97344" lon="2.98902">
        <ele>791.8</ele>
        <time>2026-04-30T08:23:48.000Z</time>
      </trkpt>
      <trkpt lat="43.97343" lon="2.98903">
        <ele>791.3</ele>
        <time>2026-04-30T08:23:49.000Z</time>
      </trkpt>
      <trkpt lat="43.97342" lon="2.98904">
        <ele>791.2</ele>
        <time>2026-04-30T08:23:50.000Z</time>
      </trkpt>
      <trkpt lat="43.97341" lon="2.98905">
        <ele>791.1</ele>
        <time>2026-04-30T08:23:51.000Z</time>
      </trkpt>
      <trkpt lat="43.9734" lon="2.98906">
        <ele>791.1</ele>
        <time>2026-04-30T08:23:52.000Z</time>
      </trkpt>
      <trkpt lat="43.97338" lon="2.98906">
        <ele>791</ele>
        <time>2026-04-30T08:23:53.000Z</time>
      </trkpt>
      <trkpt lat="43.97337" lon="2.98907">
        <ele>790.9</ele>
        <time>2026-04-30T08:23:54.000Z</time>
      </trkpt>
      <trkpt lat="43.97335" lon="2.98907">
        <ele>791</ele>
        <time>2026-04-30T08:23:55.000Z</time>
      </trkpt>
      <trkpt lat="43.97334" lon="2.98908">
        <ele>791.1</ele>
        <time>2026-04-30T08:23:56.000Z</time>
      </trkpt>
      <trkpt lat="43.97333" lon="2.98908">
        <ele>790.9</ele>
        <time>2026-04-30T08:23:57.000Z</time>
      </trkpt>
      <trkpt lat="43.97332" lon="2.9891">
        <ele>790.5</ele>
        <time>2026-04-30T08:23:58.000Z</time>
      </trkpt>
      <trkpt lat="43.97332" lon="2.98912">
        <ele>790</ele>
        <time>2026-04-30T08:23:59.000Z</time>
      </trkpt>
      <trkpt lat="43.97331" lon="2.98913">
        <ele>789.6</ele>
        <time>2026-04-30T08:24:00.000Z</time>
      </trkpt>
      <trkpt lat="43.97331" lon="2.98915">
        <ele>789.4</ele>
        <time>2026-04-30T08:24:01.000Z</time>
      </trkpt>
      <trkpt lat="43.9733" lon="2.98916">
        <ele>789.1</ele>
        <time>2026-04-30T08:24:02.000Z</time>
      </trkpt>
      <trkpt lat="43.97329" lon="2.98916">
        <ele>789.4</ele>
        <time>2026-04-30T08:24:03.000Z</time>
      </trkpt>
      <trkpt lat="43.97327" lon="2.98918">
        <ele>789.4</ele>
        <time>2026-04-30T08:24:04.000Z</time>
      </trkpt>
      <trkpt lat="43.97326" lon="2.98919">
        <ele>789.1</ele>
        <time>2026-04-30T08:24:05.000Z</time>
      </trkpt>
      <trkpt lat="43.97326" lon="2.98921">
        <ele>789.1</ele>
        <time>2026-04-30T08:24:06.000Z</time>
      </trkpt>
      <trkpt lat="43.97325" lon="2.98923">
        <ele>789</ele>
        <time>2026-04-30T08:24:07.000Z</time>
      </trkpt>
      <trkpt lat="43.97324" lon="2.98925">
        <ele>788.9</ele>
        <time>2026-04-30T08:24:08.000Z</time>
      </trkpt>
      <trkpt lat="43.97324" lon="2.98926">
        <ele>789</ele>
        <time>2026-04-30T08:24:09.000Z</time>
      </trkpt>
      <trkpt lat="43.97324" lon="2.98927">
        <ele>788.9</ele>
        <time>2026-04-30T08:24:10.000Z</time>
      </trkpt>
      <trkpt lat="43.97324" lon="2.98927">
        <ele>789.3</ele>
        <time>2026-04-30T08:24:11.000Z</time>
      </trkpt>
      <trkpt lat="43.97323" lon="2.98928">
        <ele>789.3</ele>
        <time>2026-04-30T08:24:12.000Z</time>
      </trkpt>
      <trkpt lat="43.97322" lon="2.98928">
        <ele>789.4</ele>
        <time>2026-04-30T08:24:13.000Z</time>
      </trkpt>
      <trkpt lat="43.97322" lon="2.98929">
        <ele>789.5</ele>
        <time>2026-04-30T08:24:14.000Z</time>
      </trkpt>
      <trkpt lat="43.97322" lon="2.9893">
        <ele>789.8</ele>
        <time>2026-04-30T08:24:15.000Z</time>
      </trkpt>
      <trkpt lat="43.97322" lon="2.98931">
        <ele>789.7</ele>
        <time>2026-04-30T08:24:16.000Z</time>
      </trkpt>
      <trkpt lat="43.97322" lon="2.98933">
        <ele>790</ele>
        <time>2026-04-30T08:24:17.000Z</time>
      </trkpt>
      <trkpt lat="43.97322" lon="2.98935">
        <ele>790.4</ele>
        <time>2026-04-30T08:24:18.000Z</time>
      </trkpt>
      <trkpt lat="43.9732" lon="2.98936">
        <ele>791.6</ele>
        <time>2026-04-30T08:24:19.000Z</time>
      </trkpt>
      <trkpt lat="43.97321" lon="2.98933">
        <ele>791.2</ele>
        <time>2026-04-30T08:24:20.000Z</time>
      </trkpt>
      <trkpt lat="43.97321" lon="2.98934">
        <ele>791</ele>
        <time>2026-04-30T08:24:21.000Z</time>
      </trkpt>
      <trkpt lat="43.97323" lon="2.98931">
        <ele>790.6</ele>
        <time>2026-04-30T08:24:22.000Z</time>
      </trkpt>
      <trkpt lat="43.97324" lon="2.9893">
        <ele>790.3</ele>
        <time>2026-04-30T08:24:23.000Z</time>
      </trkpt>
      <trkpt lat="43.97325" lon="2.98929">
        <ele>790.4</ele>
        <time>2026-04-30T08:24:24.000Z</time>
      </trkpt>
      <trkpt lat="43.97325" lon="2.98929">
        <ele>790.8</ele>
        <time>2026-04-30T08:24:25.000Z</time>
      </trkpt>
      <trkpt lat="43.97326" lon="2.9893">
        <ele>791.1</ele>
        <time>2026-04-30T08:24:26.000Z</time>
      </trkpt>
      <trkpt lat="43.97326" lon="2.98931">
        <ele>791.4</ele>
        <time>2026-04-30T08:24:27.000Z</time>
      </trkpt>
      <trkpt lat="43.97326" lon="2.98933">
        <ele>791.4</ele>
        <time>2026-04-30T08:24:28.000Z</time>
      </trkpt>
      <trkpt lat="43.97326" lon="2.98934">
        <ele>791.4</ele>
        <time>2026-04-30T08:24:29.000Z</time>
      </trkpt>
      <trkpt lat="43.97326" lon="2.98931">
        <ele>791.7</ele>
        <time>2026-04-30T08:24:30.000Z</time>
      </trkpt>
      <trkpt lat="43.97327" lon="2.98928">
        <ele>792.2</ele>
        <time>2026-04-30T08:24:31.000Z</time>
      </trkpt>
      <trkpt lat="43.97327" lon="2.98927">
        <ele>792.8</ele>
        <time>2026-04-30T08:24:32.000Z</time>
      </trkpt>
      <trkpt lat="43.97325" lon="2.98928">
        <ele>792.1</ele>
        <time>2026-04-30T08:24:33.000Z</time>
      </trkpt>
      <trkpt lat="43.97323" lon="2.98928">
        <ele>791.8</ele>
        <time>2026-04-30T08:24:34.000Z</time>
      </trkpt>
      <trkpt lat="43.97321" lon="2.98928">
        <ele>791.6</ele>
        <time>2026-04-30T08:24:35.000Z</time>
      </trkpt>
      <trkpt lat="43.97319" lon="2.98928">
        <ele>791.2</ele>
        <time>2026-04-30T08:24:36.000Z</time>
      </trkpt>
      <trkpt lat="43.97318" lon="2.98927">
        <ele>790.3</ele>
        <time>2026-04-30T08:24:37.000Z</time>
      </trkpt>
      <trkpt lat="43.97316" lon="2.98927">
        <ele>789.8</ele>
        <time>2026-04-30T08:24:38.000Z</time>
      </trkpt>
      <trkpt lat="43.97315" lon="2.98926">
        <ele>789.3</ele>
        <time>2026-04-30T08:24:39.000Z</time>
      </trkpt>
      <trkpt lat="43.97314" lon="2.98926">
        <ele>789.1</ele>
        <time>2026-04-30T08:24:40.000Z</time>
      </trkpt>
      <trkpt lat="43.97313" lon="2.98925">
        <ele>789.1</ele>
        <time>2026-04-30T08:24:42.000Z</time>
      </trkpt>
      <trkpt lat="43.97312" lon="2.98925">
        <ele>789.6</ele>
        <time>2026-04-30T08:24:43.000Z</time>
      </trkpt>
      <trkpt lat="43.9731" lon="2.98926">
        <ele>789.5</ele>
        <time>2026-04-30T08:24:44.000Z</time>
      </trkpt>
      <trkpt lat="43.97308" lon="2.98928">
        <ele>789.8</ele>
        <time>2026-04-30T08:24:45.000Z</time>
      </trkpt>
      <trkpt lat="43.97307" lon="2.98929">
        <ele>789.9</ele>
        <time>2026-04-30T08:24:46.000Z</time>
      </trkpt>
      <trkpt lat="43.97307" lon="2.9893">
        <ele>789.4</ele>
        <time>2026-04-30T08:24:47.000Z</time>
      </trkpt>
      <trkpt lat="43.97306" lon="2.98931">
        <ele>789.2</ele>
        <time>2026-04-30T08:24:48.000Z</time>
      </trkpt>
      <trkpt lat="43.97306" lon="2.98933">
        <ele>789.4</ele>
        <time>2026-04-30T08:24:49.000Z</time>
      </trkpt>
      <trkpt lat="43.97305" lon="2.98935">
        <ele>789.4</ele>
        <time>2026-04-30T08:24:50.000Z</time>
      </trkpt>
      <trkpt lat="43.97304" lon="2.98937">
        <ele>789.3</ele>
        <time>2026-04-30T08:24:51.000Z</time>
      </trkpt>
      <trkpt lat="43.97303" lon="2.98939">
        <ele>788.9</ele>
        <time>2026-04-30T08:24:52.000Z</time>
      </trkpt>
      <trkpt lat="43.97302" lon="2.9894">
        <ele>788.5</ele>
        <time>2026-04-30T08:24:53.000Z</time>
      </trkpt>
      <trkpt lat="43.97301" lon="2.98942">
        <ele>788.2</ele>
        <time>2026-04-30T08:24:54.000Z</time>
      </trkpt>
      <trkpt lat="43.97301" lon="2.98943">
        <ele>788.2</ele>
        <time>2026-04-30T08:24:55.000Z</time>
      </trkpt>
      <trkpt lat="43.973" lon="2.98944">
        <ele>788.8</ele>
        <time>2026-04-30T08:24:56.000Z</time>
      </trkpt>
      <trkpt lat="43.973" lon="2.98944">
        <ele>788.9</ele>
        <time>2026-04-30T08:24:57.000Z</time>
      </trkpt>
      <trkpt lat="43.97299" lon="2.98946">
        <ele>788.7</ele>
        <time>2026-04-30T08:24:58.000Z</time>
      </trkpt>
      <trkpt lat="43.97298" lon="2.98946">
        <ele>788.5</ele>
        <time>2026-04-30T08:24:59.000Z</time>
      </trkpt>
      <trkpt lat="43.97298" lon="2.98947">
        <ele>788.9</ele>
        <time>2026-04-30T08:25:00.000Z</time>
      </trkpt>
      <trkpt lat="43.97297" lon="2.98948">
        <ele>789.2</ele>
        <time>2026-04-30T08:25:01.000Z</time>
      </trkpt>
      <trkpt lat="43.97296" lon="2.98948">
        <ele>789.3</ele>
        <time>2026-04-30T08:25:02.000Z</time>
      </trkpt>
      <trkpt lat="43.97295" lon="2.9895">
        <ele>789.8</ele>
        <time>2026-04-30T08:25:03.000Z</time>
      </trkpt>
      <trkpt lat="43.97294" lon="2.98952">
        <ele>790.1</ele>
        <time>2026-04-30T08:25:04.000Z</time>
      </trkpt>
      <trkpt lat="43.97293" lon="2.98954">
        <ele>790</ele>
        <time>2026-04-30T08:25:05.000Z</time>
      </trkpt>
      <trkpt lat="43.97292" lon="2.98955">
        <ele>790.5</ele>
        <time>2026-04-30T08:25:06.000Z</time>
      </trkpt>
      <trkpt lat="43.97291" lon="2.98957">
        <ele>790.8</ele>
        <time>2026-04-30T08:25:07.000Z</time>
      </trkpt>
      <trkpt lat="43.9729" lon="2.98957">
        <ele>790.9</ele>
        <time>2026-04-30T08:25:08.000Z</time>
      </trkpt>
      <trkpt lat="43.97289" lon="2.98957">
        <ele>790.8</ele>
        <time>2026-04-30T08:25:09.000Z</time>
      </trkpt>
      <trkpt lat="43.97288" lon="2.98958">
        <ele>790.1</ele>
        <time>2026-04-30T08:25:10.000Z</time>
      </trkpt>
      <trkpt lat="43.97287" lon="2.98959">
        <ele>789.6</ele>
        <time>2026-04-30T08:25:11.000Z</time>
      </trkpt>
      <trkpt lat="43.97287" lon="2.9896">
        <ele>790.5</ele>
        <time>2026-04-30T08:25:12.000Z</time>
      </trkpt>
      <trkpt lat="43.97287" lon="2.98963">
        <ele>790.6</ele>
        <time>2026-04-30T08:25:13.000Z</time>
      </trkpt>
      <trkpt lat="43.97286" lon="2.98964">
        <ele>790.5</ele>
        <time>2026-04-30T08:25:14.000Z</time>
      </trkpt>
      <trkpt lat="43.97285" lon="2.98966">
        <ele>790.2</ele>
        <time>2026-04-30T08:25:15.000Z</time>
      </trkpt>
      <trkpt lat="43.97284" lon="2.98966">
        <ele>790.3</ele>
        <time>2026-04-30T08:25:16.000Z</time>
      </trkpt>
      <trkpt lat="43.97284" lon="2.98967">
        <ele>790.1</ele>
        <time>2026-04-30T08:25:17.000Z</time>
      </trkpt>
      <trkpt lat="43.97283" lon="2.98967">
        <ele>790.2</ele>
        <time>2026-04-30T08:25:18.000Z</time>
      </trkpt>
      <trkpt lat="43.97283" lon="2.98968">
        <ele>789.9</ele>
        <time>2026-04-30T08:25:19.000Z</time>
      </trkpt>
      <trkpt lat="43.97282" lon="2.98969">
        <ele>789.7</ele>
        <time>2026-04-30T08:25:20.000Z</time>
      </trkpt>
      <trkpt lat="43.97281" lon="2.98971">
        <ele>789.9</ele>
        <time>2026-04-30T08:25:21.000Z</time>
      </trkpt>
      <trkpt lat="43.97281" lon="2.98972">
        <ele>789.6</ele>
        <time>2026-04-30T08:25:22.000Z</time>
      </trkpt>
      <trkpt lat="43.9728" lon="2.98973">
        <ele>789.3</ele>
        <time>2026-04-30T08:25:23.000Z</time>
      </trkpt>
      <trkpt lat="43.9728" lon="2.98974">
        <ele>789.5</ele>
        <time>2026-04-30T08:25:24.000Z</time>
      </trkpt>
      <trkpt lat="43.97281" lon="2.98974">
        <ele>789.5</ele>
        <time>2026-04-30T08:25:25.000Z</time>
      </trkpt>
      <trkpt lat="43.9728" lon="2.98974">
        <ele>789.4</ele>
        <time>2026-04-30T08:25:26.000Z</time>
      </trkpt>
      <trkpt lat="43.9728" lon="2.98975">
        <ele>790.2</ele>
        <time>2026-04-30T08:25:27.000Z</time>
      </trkpt>
      <trkpt lat="43.97279" lon="2.98974">
        <ele>789.8</ele>
        <time>2026-04-30T08:25:28.000Z</time>
      </trkpt>
      <trkpt lat="43.97278" lon="2.98975">
        <ele>789.3</ele>
        <time>2026-04-30T08:25:29.000Z</time>
      </trkpt>
      <trkpt lat="43.97276" lon="2.98977">
        <ele>788.5</ele>
        <time>2026-04-30T08:25:30.000Z</time>
      </trkpt>
      <trkpt lat="43.97274" lon="2.98979">
        <ele>787.9</ele>
        <time>2026-04-30T08:25:31.000Z</time>
      </trkpt>
      <trkpt lat="43.97273" lon="2.9898">
        <ele>787.5</ele>
        <time>2026-04-30T08:25:32.000Z</time>
      </trkpt>
      <trkpt lat="43.97272" lon="2.98981">
        <ele>787.1</ele>
        <time>2026-04-30T08:25:33.000Z</time>
      </trkpt>
      <trkpt lat="43.97272" lon="2.98982">
        <ele>787</ele>
        <time>2026-04-30T08:25:34.000Z</time>
      </trkpt>
      <trkpt lat="43.97272" lon="2.98982">
        <ele>786.9</ele>
        <time>2026-04-30T08:25:35.000Z</time>
      </trkpt>
      <trkpt lat="43.97271" lon="2.98982">
        <ele>786.7</ele>
        <time>2026-04-30T08:25:36.000Z</time>
      </trkpt>
      <trkpt lat="43.9727" lon="2.98983">
        <ele>786.1</ele>
        <time>2026-04-30T08:25:37.000Z</time>
      </trkpt>
      <trkpt lat="43.97269" lon="2.98986">
        <ele>786</ele>
        <time>2026-04-30T08:25:38.000Z</time>
      </trkpt>
      <trkpt lat="43.97268" lon="2.98987">
        <ele>785.9</ele>
        <time>2026-04-30T08:25:39.000Z</time>
      </trkpt>
      <trkpt lat="43.97267" lon="2.98988">
        <ele>785.3</ele>
        <time>2026-04-30T08:25:40.000Z</time>
      </trkpt>
      <trkpt lat="43.97266" lon="2.98989">
        <ele>785.2</ele>
        <time>2026-04-30T08:25:41.000Z</time>
      </trkpt>
      <trkpt lat="43.97265" lon="2.98991">
        <ele>785.3</ele>
        <time>2026-04-30T08:25:42.000Z</time>
      </trkpt>
      <trkpt lat="43.97265" lon="2.98993">
        <ele>785.2</ele>
        <time>2026-04-30T08:25:43.000Z</time>
      </trkpt>
      <trkpt lat="43.97264" lon="2.98995">
        <ele>785</ele>
        <time>2026-04-30T08:25:44.000Z</time>
      </trkpt>
      <trkpt lat="43.97263" lon="2.98996">
        <ele>784.8</ele>
        <time>2026-04-30T08:25:45.000Z</time>
      </trkpt>
      <trkpt lat="43.97263" lon="2.98998">
        <ele>784.2</ele>
        <time>2026-04-30T08:25:46.000Z</time>
      </trkpt>
      <trkpt lat="43.97262" lon="2.98999">
        <ele>783.7</ele>
        <time>2026-04-30T08:25:47.000Z</time>
      </trkpt>
      <trkpt lat="43.97262" lon="2.99">
        <ele>783.5</ele>
        <time>2026-04-30T08:25:48.000Z</time>
      </trkpt>
      <trkpt lat="43.97261" lon="2.99001">
        <ele>783.6</ele>
        <time>2026-04-30T08:25:49.000Z</time>
      </trkpt>
      <trkpt lat="43.9726" lon="2.99002">
        <ele>783.7</ele>
        <time>2026-04-30T08:25:50.000Z</time>
      </trkpt>
      <trkpt lat="43.97259" lon="2.99004">
        <ele>783.8</ele>
        <time>2026-04-30T08:25:51.000Z</time>
      </trkpt>
      <trkpt lat="43.97259" lon="2.99005">
        <ele>784.7</ele>
        <time>2026-04-30T08:25:52.000Z</time>
      </trkpt>
      <trkpt lat="43.97259" lon="2.99005">
        <ele>784.4</ele>
        <time>2026-04-30T08:25:53.000Z</time>
      </trkpt>
      <trkpt lat="43.97258" lon="2.99005">
        <ele>784.3</ele>
        <time>2026-04-30T08:25:54.000Z</time>
      </trkpt>
      <trkpt lat="43.97258" lon="2.99006">
        <ele>784.1</ele>
        <time>2026-04-30T08:25:55.000Z</time>
      </trkpt>
      <trkpt lat="43.97257" lon="2.99008">
        <ele>784</ele>
        <time>2026-04-30T08:25:56.000Z</time>
      </trkpt>
      <trkpt lat="43.97256" lon="2.9901">
        <ele>783.8</ele>
        <time>2026-04-30T08:25:57.000Z</time>
      </trkpt>
      <trkpt lat="43.97256" lon="2.99011">
        <ele>783.6</ele>
        <time>2026-04-30T08:25:58.000Z</time>
      </trkpt>
      <trkpt lat="43.97255" lon="2.99012">
        <ele>783.3</ele>
        <time>2026-04-30T08:25:59.000Z</time>
      </trkpt>
      <trkpt lat="43.97255" lon="2.99013">
        <ele>783.2</ele>
        <time>2026-04-30T08:26:00.000Z</time>
      </trkpt>
      <trkpt lat="43.97254" lon="2.99014">
        <ele>782.9</ele>
        <time>2026-04-30T08:26:01.000Z</time>
      </trkpt>
      <trkpt lat="43.97253" lon="2.99015">
        <ele>782.6</ele>
        <time>2026-04-30T08:26:02.000Z</time>
      </trkpt>
      <trkpt lat="43.97252" lon="2.99016">
        <ele>782.5</ele>
        <time>2026-04-30T08:26:03.000Z</time>
      </trkpt>
      <trkpt lat="43.97252" lon="2.99017">
        <ele>782.2</ele>
        <time>2026-04-30T08:26:04.000Z</time>
      </trkpt>
      <trkpt lat="43.97252" lon="2.99019">
        <ele>781.9</ele>
        <time>2026-04-30T08:26:05.000Z</time>
      </trkpt>
      <trkpt lat="43.97251" lon="2.99021">
        <ele>781.7</ele>
        <time>2026-04-30T08:26:06.000Z</time>
      </trkpt>
      <trkpt lat="43.9725" lon="2.99022">
        <ele>781.3</ele>
        <time>2026-04-30T08:26:07.000Z</time>
      </trkpt>
      <trkpt lat="43.97249" lon="2.99024">
        <ele>780.7</ele>
        <time>2026-04-30T08:26:08.000Z</time>
      </trkpt>
      <trkpt lat="43.97248" lon="2.99025">
        <ele>780.2</ele>
        <time>2026-04-30T08:26:09.000Z</time>
      </trkpt>
      <trkpt lat="43.97248" lon="2.99026">
        <ele>779.8</ele>
        <time>2026-04-30T08:26:10.000Z</time>
      </trkpt>
      <trkpt lat="43.97248" lon="2.99027">
        <ele>779</ele>
        <time>2026-04-30T08:26:11.000Z</time>
      </trkpt>
      <trkpt lat="43.97247" lon="2.99029">
        <ele>778.5</ele>
        <time>2026-04-30T08:26:12.000Z</time>
      </trkpt>
      <trkpt lat="43.97247" lon="2.9903">
        <ele>778.2</ele>
        <time>2026-04-30T08:26:13.000Z</time>
      </trkpt>
      <trkpt lat="43.97247" lon="2.99033">
        <ele>778.1</ele>
        <time>2026-04-30T08:26:14.000Z</time>
      </trkpt>
      <trkpt lat="43.97246" lon="2.99035">
        <ele>778.4</ele>
        <time>2026-04-30T08:26:15.000Z</time>
      </trkpt>
      <trkpt lat="43.97246" lon="2.99037">
        <ele>778.1</ele>
        <time>2026-04-30T08:26:16.000Z</time>
      </trkpt>
      <trkpt lat="43.97246" lon="2.99038">
        <ele>777.8</ele>
        <time>2026-04-30T08:26:17.000Z</time>
      </trkpt>
      <trkpt lat="43.97246" lon="2.99038">
        <ele>777.8</ele>
        <time>2026-04-30T08:26:18.000Z</time>
      </trkpt>
      <trkpt lat="43.97246" lon="2.99039">
        <ele>777.6</ele>
        <time>2026-04-30T08:26:19.000Z</time>
      </trkpt>
      <trkpt lat="43.97246" lon="2.9904">
        <ele>777.5</ele>
        <time>2026-04-30T08:26:20.000Z</time>
      </trkpt>
      <trkpt lat="43.97245" lon="2.99042">
        <ele>777.5</ele>
        <time>2026-04-30T08:26:21.000Z</time>
      </trkpt>
      <trkpt lat="43.97244" lon="2.99044">
        <ele>777.1</ele>
        <time>2026-04-30T08:26:22.000Z</time>
      </trkpt>
      <trkpt lat="43.97243" lon="2.99047">
        <ele>776.8</ele>
        <time>2026-04-30T08:26:23.000Z</time>
      </trkpt>
      <trkpt lat="43.97243" lon="2.99049">
        <ele>776.8</ele>
        <time>2026-04-30T08:26:24.000Z</time>
      </trkpt>
      <trkpt lat="43.97243" lon="2.99051">
        <ele>776.6</ele>
        <time>2026-04-30T08:26:25.000Z</time>
      </trkpt>
      <trkpt lat="43.97243" lon="2.99053">
        <ele>776.7</ele>
        <time>2026-04-30T08:26:26.000Z</time>
      </trkpt>
      <trkpt lat="43.97242" lon="2.99055">
        <ele>776.8</ele>
        <time>2026-04-30T08:26:27.000Z</time>
      </trkpt>
      <trkpt lat="43.97241" lon="2.99056">
        <ele>776.9</ele>
        <time>2026-04-30T08:26:28.000Z</time>
      </trkpt>
      <trkpt lat="43.97241" lon="2.99058">
        <ele>776.8</ele>
        <time>2026-04-30T08:26:29.000Z</time>
      </trkpt>
      <trkpt lat="43.97241" lon="2.9906">
        <ele>776.8</ele>
        <time>2026-04-30T08:26:30.000Z</time>
      </trkpt>
      <trkpt lat="43.9724" lon="2.99061">
        <ele>776.8</ele>
        <time>2026-04-30T08:26:31.000Z</time>
      </trkpt>
      <trkpt lat="43.9724" lon="2.99062">
        <ele>777.1</ele>
        <time>2026-04-30T08:26:32.000Z</time>
      </trkpt>
      <trkpt lat="43.97239" lon="2.99063">
        <ele>776.8</ele>
        <time>2026-04-30T08:26:33.000Z</time>
      </trkpt>
      <trkpt lat="43.97239" lon="2.99066">
        <ele>776.6</ele>
        <time>2026-04-30T08:26:34.000Z</time>
      </trkpt>
      <trkpt lat="43.97238" lon="2.99068">
        <ele>776.3</ele>
        <time>2026-04-30T08:26:35.000Z</time>
      </trkpt>
      <trkpt lat="43.97238" lon="2.9907">
        <ele>775.9</ele>
        <time>2026-04-30T08:26:36.000Z</time>
      </trkpt>
      <trkpt lat="43.97237" lon="2.99071">
        <ele>776.2</ele>
        <time>2026-04-30T08:26:37.000Z</time>
      </trkpt>
      <trkpt lat="43.97237" lon="2.99072">
        <ele>776</ele>
        <time>2026-04-30T08:26:38.000Z</time>
      </trkpt>
      <trkpt lat="43.97237" lon="2.99072">
        <ele>775.8</ele>
        <time>2026-04-30T08:26:39.000Z</time>
      </trkpt>
      <trkpt lat="43.97237" lon="2.99074">
        <ele>775.8</ele>
        <time>2026-04-30T08:26:40.000Z</time>
      </trkpt>
      <trkpt lat="43.97237" lon="2.99074">
        <ele>776.3</ele>
        <time>2026-04-30T08:26:41.000Z</time>
      </trkpt>
      <trkpt lat="43.97237" lon="2.99074">
        <ele>776.2</ele>
        <time>2026-04-30T08:26:42.000Z</time>
      </trkpt>
      <trkpt lat="43.97237" lon="2.99075">
        <ele>776.4</ele>
        <time>2026-04-30T08:26:43.000Z</time>
      </trkpt>
      <trkpt lat="43.97237" lon="2.99076">
        <ele>776.4</ele>
        <time>2026-04-30T08:26:44.000Z</time>
      </trkpt>
      <trkpt lat="43.97236" lon="2.99076">
        <ele>776.4</ele>
        <time>2026-04-30T08:26:45.000Z</time>
      </trkpt>
      <trkpt lat="43.97236" lon="2.99077">
        <ele>776.4</ele>
        <time>2026-04-30T08:26:46.000Z</time>
      </trkpt>
      <trkpt lat="43.97235" lon="2.99079">
        <ele>776.4</ele>
        <time>2026-04-30T08:26:47.000Z</time>
      </trkpt>
      <trkpt lat="43.97235" lon="2.99081">
        <ele>776.3</ele>
        <time>2026-04-30T08:26:48.000Z</time>
      </trkpt>
      <trkpt lat="43.97234" lon="2.99082">
        <ele>776.2</ele>
        <time>2026-04-30T08:26:49.000Z</time>
      </trkpt>
      <trkpt lat="43.97233" lon="2.99083">
        <ele>776</ele>
        <time>2026-04-30T08:26:50.000Z</time>
      </trkpt>
      <trkpt lat="43.97232" lon="2.99084">
        <ele>776.2</ele>
        <time>2026-04-30T08:26:51.000Z</time>
      </trkpt>
      <trkpt lat="43.97231" lon="2.99085">
        <ele>776.2</ele>
        <time>2026-04-30T08:26:52.000Z</time>
      </trkpt>
      <trkpt lat="43.97231" lon="2.99085">
        <ele>776.2</ele>
        <time>2026-04-30T08:26:53.000Z</time>
      </trkpt>
      <trkpt lat="43.97231" lon="2.99086">
        <ele>776</ele>
        <time>2026-04-30T08:26:54.000Z</time>
      </trkpt>
      <trkpt lat="43.97231" lon="2.99086">
        <ele>775.9</ele>
        <time>2026-04-30T08:26:55.000Z</time>
      </trkpt>
      <trkpt lat="43.97231" lon="2.99086">
        <ele>775.8</ele>
        <time>2026-04-30T08:26:56.000Z</time>
      </trkpt>
      <trkpt lat="43.97231" lon="2.99086">
        <ele>775.8</ele>
        <time>2026-04-30T08:26:57.000Z</time>
      </trkpt>
      <trkpt lat="43.97231" lon="2.99087">
        <ele>775.8</ele>
        <time>2026-04-30T08:26:58.000Z</time>
      </trkpt>
      <trkpt lat="43.97231" lon="2.99087">
        <ele>776.2</ele>
        <time>2026-04-30T08:26:59.000Z</time>
      </trkpt>
      <trkpt lat="43.97231" lon="2.99088">
        <ele>776.6</ele>
        <time>2026-04-30T08:27:00.000Z</time>
      </trkpt>
      <trkpt lat="43.97231" lon="2.99091">
        <ele>777</ele>
        <time>2026-04-30T08:27:01.000Z</time>
      </trkpt>
      <trkpt lat="43.97231" lon="2.99093">
        <ele>777.3</ele>
        <time>2026-04-30T08:27:02.000Z</time>
      </trkpt>
      <trkpt lat="43.97231" lon="2.99095">
        <ele>777.2</ele>
        <time>2026-04-30T08:27:03.000Z</time>
      </trkpt>
      <trkpt lat="43.97231" lon="2.99097">
        <ele>777.4</ele>
        <time>2026-04-30T08:27:04.000Z</time>
      </trkpt>
      <trkpt lat="43.97229" lon="2.99099">
        <ele>777.3</ele>
        <time>2026-04-30T08:27:05.000Z</time>
      </trkpt>
      <trkpt lat="43.97229" lon="2.991">
        <ele>777.3</ele>
        <time>2026-04-30T08:27:06.000Z</time>
      </trkpt>
      <trkpt lat="43.97228" lon="2.99103">
        <ele>777.2</ele>
        <time>2026-04-30T08:27:07.000Z</time>
      </trkpt>
      <trkpt lat="43.97227" lon="2.99106">
        <ele>776.9</ele>
        <time>2026-04-30T08:27:08.000Z</time>
      </trkpt>
      <trkpt lat="43.97226" lon="2.99108">
        <ele>776.9</ele>
        <time>2026-04-30T08:27:09.000Z</time>
      </trkpt>
      <trkpt lat="43.97226" lon="2.99108">
        <ele>776.7</ele>
        <time>2026-04-30T08:27:10.000Z</time>
      </trkpt>
      <trkpt lat="43.97227" lon="2.99109">
        <ele>776.5</ele>
        <time>2026-04-30T08:27:11.000Z</time>
      </trkpt>
      <trkpt lat="43.97227" lon="2.9911">
        <ele>776.2</ele>
        <time>2026-04-30T08:27:12.000Z</time>
      </trkpt>
      <trkpt lat="43.97227" lon="2.99112">
        <ele>776.5</ele>
        <time>2026-04-30T08:27:13.000Z</time>
      </trkpt>
      <trkpt lat="43.97226" lon="2.99114">
        <ele>777</ele>
        <time>2026-04-30T08:27:14.000Z</time>
      </trkpt>
      <trkpt lat="43.97226" lon="2.99115">
        <ele>777.2</ele>
        <time>2026-04-30T08:27:15.000Z</time>
      </trkpt>
      <trkpt lat="43.97226" lon="2.99117">
        <ele>777.3</ele>
        <time>2026-04-30T08:27:16.000Z</time>
      </trkpt>
      <trkpt lat="43.97226" lon="2.99119">
        <ele>777.3</ele>
        <time>2026-04-30T08:27:17.000Z</time>
      </trkpt>
      <trkpt lat="43.97225" lon="2.99121">
        <ele>777.4</ele>
        <time>2026-04-30T08:27:18.000Z</time>
      </trkpt>
      <trkpt lat="43.97224" lon="2.99122">
        <ele>777.5</ele>
        <time>2026-04-30T08:27:19.000Z</time>
      </trkpt>
      <trkpt lat="43.97224" lon="2.99123">
        <ele>777.3</ele>
        <time>2026-04-30T08:27:20.000Z</time>
      </trkpt>
      <trkpt lat="43.97223" lon="2.99125">
        <ele>777.4</ele>
        <time>2026-04-30T08:27:21.000Z</time>
      </trkpt>
      <trkpt lat="43.97222" lon="2.99126">
        <ele>777.8</ele>
        <time>2026-04-30T08:27:22.000Z</time>
      </trkpt>
      <trkpt lat="43.97221" lon="2.99126">
        <ele>777.7</ele>
        <time>2026-04-30T08:27:23.000Z</time>
      </trkpt>
      <trkpt lat="43.97219" lon="2.99125">
        <ele>777.9</ele>
        <time>2026-04-30T08:27:24.000Z</time>
      </trkpt>
      <trkpt lat="43.97218" lon="2.99124">
        <ele>778.5</ele>
        <time>2026-04-30T08:27:25.000Z</time>
      </trkpt>
      <trkpt lat="43.97217" lon="2.99125">
        <ele>779</ele>
        <time>2026-04-30T08:27:26.000Z</time>
      </trkpt>
      <trkpt lat="43.97216" lon="2.99127">
        <ele>779.9</ele>
        <time>2026-04-30T08:27:27.000Z</time>
      </trkpt>
      <trkpt lat="43.97215" lon="2.99128">
        <ele>780.8</ele>
        <time>2026-04-30T08:27:28.000Z</time>
      </trkpt>
      <trkpt lat="43.97215" lon="2.99129">
        <ele>781.4</ele>
        <time>2026-04-30T08:27:29.000Z</time>
      </trkpt>
      <trkpt lat="43.97213" lon="2.9913">
        <ele>782</ele>
        <time>2026-04-30T08:27:30.000Z</time>
      </trkpt>
      <trkpt lat="43.97213" lon="2.9913">
        <ele>782.2</ele>
        <time>2026-04-30T08:27:31.000Z</time>
      </trkpt>
      <trkpt lat="43.97212" lon="2.99131">
        <ele>782.5</ele>
        <time>2026-04-30T08:27:32.000Z</time>
      </trkpt>
      <trkpt lat="43.97212" lon="2.99133">
        <ele>782.3</ele>
        <time>2026-04-30T08:27:33.000Z</time>
      </trkpt>
      <trkpt lat="43.97211" lon="2.99134">
        <ele>781.9</ele>
        <time>2026-04-30T08:27:34.000Z</time>
      </trkpt>
      <trkpt lat="43.97211" lon="2.99137">
        <ele>781.6</ele>
        <time>2026-04-30T08:27:35.000Z</time>
      </trkpt>
      <trkpt lat="43.9721" lon="2.99139">
        <ele>781.5</ele>
        <time>2026-04-30T08:27:36.000Z</time>
      </trkpt>
      <trkpt lat="43.9721" lon="2.9914">
        <ele>781.8</ele>
        <time>2026-04-30T08:27:37.000Z</time>
      </trkpt>
      <trkpt lat="43.9721" lon="2.99142">
        <ele>782</ele>
        <time>2026-04-30T08:27:38.000Z</time>
      </trkpt>
      <trkpt lat="43.97209" lon="2.99144">
        <ele>782</ele>
        <time>2026-04-30T08:27:39.000Z</time>
      </trkpt>
      <trkpt lat="43.97208" lon="2.99145">
        <ele>781.9</ele>
        <time>2026-04-30T08:27:40.000Z</time>
      </trkpt>
      <trkpt lat="43.97207" lon="2.99147">
        <ele>781.9</ele>
        <time>2026-04-30T08:27:41.000Z</time>
      </trkpt>
      <trkpt lat="43.97207" lon="2.99149">
        <ele>782.2</ele>
        <time>2026-04-30T08:27:42.000Z</time>
      </trkpt>
      <trkpt lat="43.97206" lon="2.9915">
        <ele>782.6</ele>
        <time>2026-04-30T08:27:43.000Z</time>
      </trkpt>
      <trkpt lat="43.97205" lon="2.99152">
        <ele>783.1</ele>
        <time>2026-04-30T08:27:44.000Z</time>
      </trkpt>
      <trkpt lat="43.97204" lon="2.99154">
        <ele>783.6</ele>
        <time>2026-04-30T08:27:45.000Z</time>
      </trkpt>
      <trkpt lat="43.97204" lon="2.99155">
        <ele>783.9</ele>
        <time>2026-04-30T08:27:46.000Z</time>
      </trkpt>
      <trkpt lat="43.97204" lon="2.99156">
        <ele>784.4</ele>
        <time>2026-04-30T08:27:47.000Z</time>
      </trkpt>
      <trkpt lat="43.97203" lon="2.99158">
        <ele>784.5</ele>
        <time>2026-04-30T08:27:48.000Z</time>
      </trkpt>
      <trkpt lat="43.97204" lon="2.99158">
        <ele>784.4</ele>
        <time>2026-04-30T08:27:49.000Z</time>
      </trkpt>
      <trkpt lat="43.97203" lon="2.9916">
        <ele>784.4</ele>
        <time>2026-04-30T08:27:50.000Z</time>
      </trkpt>
      <trkpt lat="43.97202" lon="2.99161">
        <ele>784.8</ele>
        <time>2026-04-30T08:27:51.000Z</time>
      </trkpt>
      <trkpt lat="43.97201" lon="2.99161">
        <ele>785</ele>
        <time>2026-04-30T08:27:52.000Z</time>
      </trkpt>
      <trkpt lat="43.97201" lon="2.99162">
        <ele>784.8</ele>
        <time>2026-04-30T08:27:53.000Z</time>
      </trkpt>
      <trkpt lat="43.972" lon="2.99164">
        <ele>784.9</ele>
        <time>2026-04-30T08:27:54.000Z</time>
      </trkpt>
      <trkpt lat="43.972" lon="2.99166">
        <ele>784.8</ele>
        <time>2026-04-30T08:27:55.000Z</time>
      </trkpt>
      <trkpt lat="43.97199" lon="2.99167">
        <ele>785.1</ele>
        <time>2026-04-30T08:27:56.000Z</time>
      </trkpt>
      <trkpt lat="43.97198" lon="2.9917">
        <ele>785.2</ele>
        <time>2026-04-30T08:27:57.000Z</time>
      </trkpt>
      <trkpt lat="43.97197" lon="2.99172">
        <ele>785.5</ele>
        <time>2026-04-30T08:27:58.000Z</time>
      </trkpt>
      <trkpt lat="43.97197" lon="2.99172">
        <ele>786.2</ele>
        <time>2026-04-30T08:27:59.000Z</time>
      </trkpt>
      <trkpt lat="43.97197" lon="2.99174">
        <ele>786.4</ele>
        <time>2026-04-30T08:28:00.000Z</time>
      </trkpt>
      <trkpt lat="43.97196" lon="2.99176">
        <ele>786.5</ele>
        <time>2026-04-30T08:28:01.000Z</time>
      </trkpt>
      <trkpt lat="43.97195" lon="2.99177">
        <ele>786.4</ele>
        <time>2026-04-30T08:28:02.000Z</time>
      </trkpt>
      <trkpt lat="43.97195" lon="2.99178">
        <ele>786.5</ele>
        <time>2026-04-30T08:28:03.000Z</time>
      </trkpt>
      <trkpt lat="43.97194" lon="2.99179">
        <ele>786.5</ele>
        <time>2026-04-30T08:28:04.000Z</time>
      </trkpt>
      <trkpt lat="43.97194" lon="2.99181">
        <ele>786.5</ele>
        <time>2026-04-30T08:28:05.000Z</time>
      </trkpt>
      <trkpt lat="43.97193" lon="2.99183">
        <ele>786</ele>
        <time>2026-04-30T08:28:06.000Z</time>
      </trkpt>
      <trkpt lat="43.97192" lon="2.99183">
        <ele>785.8</ele>
        <time>2026-04-30T08:28:07.000Z</time>
      </trkpt>
      <trkpt lat="43.97192" lon="2.99184">
        <ele>786.1</ele>
        <time>2026-04-30T08:28:08.000Z</time>
      </trkpt>
      <trkpt lat="43.97192" lon="2.99183">
        <ele>786.1</ele>
        <time>2026-04-30T08:28:09.000Z</time>
      </trkpt>
      <trkpt lat="43.97191" lon="2.99183">
        <ele>786.3</ele>
        <time>2026-04-30T08:28:10.000Z</time>
      </trkpt>
      <trkpt lat="43.97191" lon="2.99181">
        <ele>786.4</ele>
        <time>2026-04-30T08:28:11.000Z</time>
      </trkpt>
      <trkpt lat="43.97189" lon="2.9918">
        <ele>786.3</ele>
        <time>2026-04-30T08:28:12.000Z</time>
      </trkpt>
      <trkpt lat="43.97188" lon="2.99179">
        <ele>786.3</ele>
        <time>2026-04-30T08:28:13.000Z</time>
      </trkpt>
      <trkpt lat="43.97186" lon="2.99179">
        <ele>786.5</ele>
        <time>2026-04-30T08:28:14.000Z</time>
      </trkpt>
      <trkpt lat="43.97184" lon="2.9918">
        <ele>787.1</ele>
        <time>2026-04-30T08:28:15.000Z</time>
      </trkpt>
      <trkpt lat="43.97183" lon="2.99182">
        <ele>787.7</ele>
        <time>2026-04-30T08:28:16.000Z</time>
      </trkpt>
      <trkpt lat="43.97181" lon="2.99183">
        <ele>788.1</ele>
        <time>2026-04-30T08:28:17.000Z</time>
      </trkpt>
      <trkpt lat="43.9718" lon="2.99185">
        <ele>788.1</ele>
        <time>2026-04-30T08:28:18.000Z</time>
      </trkpt>
      <trkpt lat="43.9718" lon="2.99186">
        <ele>787.9</ele>
        <time>2026-04-30T08:28:19.000Z</time>
      </trkpt>
      <trkpt lat="43.97179" lon="2.99187">
        <ele>787.7</ele>
        <time>2026-04-30T08:28:20.000Z</time>
      </trkpt>
      <trkpt lat="43.97178" lon="2.99189">
        <ele>787.5</ele>
        <time>2026-04-30T08:28:21.000Z</time>
      </trkpt>
      <trkpt lat="43.97178" lon="2.9919">
        <ele>787.3</ele>
        <time>2026-04-30T08:28:22.000Z</time>
      </trkpt>
      <trkpt lat="43.97176" lon="2.99191">
        <ele>787.4</ele>
        <time>2026-04-30T08:28:23.000Z</time>
      </trkpt>
      <trkpt lat="43.97176" lon="2.99192">
        <ele>787.5</ele>
        <time>2026-04-30T08:28:24.000Z</time>
      </trkpt>
      <trkpt lat="43.97175" lon="2.99193">
        <ele>787.5</ele>
        <time>2026-04-30T08:28:25.000Z</time>
      </trkpt>
      <trkpt lat="43.97175" lon="2.99195">
        <ele>787.2</ele>
        <time>2026-04-30T08:28:26.000Z</time>
      </trkpt>
      <trkpt lat="43.97175" lon="2.99196">
        <ele>787.1</ele>
        <time>2026-04-30T08:28:27.000Z</time>
      </trkpt>
      <trkpt lat="43.97174" lon="2.99197">
        <ele>787</ele>
        <time>2026-04-30T08:28:28.000Z</time>
      </trkpt>
      <trkpt lat="43.97173" lon="2.99198">
        <ele>786.9</ele>
        <time>2026-04-30T08:28:29.000Z</time>
      </trkpt>
      <trkpt lat="43.97173" lon="2.99199">
        <ele>786.9</ele>
        <time>2026-04-30T08:28:30.000Z</time>
      </trkpt>
      <trkpt lat="43.97172" lon="2.992">
        <ele>786.8</ele>
        <time>2026-04-30T08:28:31.000Z</time>
      </trkpt>
      <trkpt lat="43.97171" lon="2.99201">
        <ele>786.6</ele>
        <time>2026-04-30T08:28:32.000Z</time>
      </trkpt>
      <trkpt lat="43.97171" lon="2.99202">
        <ele>786.4</ele>
        <time>2026-04-30T08:28:33.000Z</time>
      </trkpt>
      <trkpt lat="43.9717" lon="2.99204">
        <ele>786.2</ele>
        <time>2026-04-30T08:28:34.000Z</time>
      </trkpt>
      <trkpt lat="43.97171" lon="2.99206">
        <ele>787.1</ele>
        <time>2026-04-30T08:28:36.000Z</time>
      </trkpt>
      <trkpt lat="43.97172" lon="2.99209">
        <ele>787</ele>
        <time>2026-04-30T08:28:37.000Z</time>
      </trkpt>
      <trkpt lat="43.97172" lon="2.99211">
        <ele>786.9</ele>
        <time>2026-04-30T08:28:38.000Z</time>
      </trkpt>
      <trkpt lat="43.97172" lon="2.99212">
        <ele>787</ele>
        <time>2026-04-30T08:28:39.000Z</time>
      </trkpt>
      <trkpt lat="43.97171" lon="2.99214">
        <ele>787.2</ele>
        <time>2026-04-30T08:28:40.000Z</time>
      </trkpt>
      <trkpt lat="43.97171" lon="2.99217">
        <ele>787.1</ele>
        <time>2026-04-30T08:28:41.000Z</time>
      </trkpt>
      <trkpt lat="43.97171" lon="2.99219">
        <ele>786.8</ele>
        <time>2026-04-30T08:28:42.000Z</time>
      </trkpt>
      <trkpt lat="43.9717" lon="2.9922">
        <ele>786.9</ele>
        <time>2026-04-30T08:28:43.000Z</time>
      </trkpt>
      <trkpt lat="43.9717" lon="2.99222">
        <ele>787.1</ele>
        <time>2026-04-30T08:28:44.000Z</time>
      </trkpt>
      <trkpt lat="43.9717" lon="2.99223">
        <ele>787.5</ele>
        <time>2026-04-30T08:28:45.000Z</time>
      </trkpt>
      <trkpt lat="43.97169" lon="2.99224">
        <ele>787.7</ele>
        <time>2026-04-30T08:28:46.000Z</time>
      </trkpt>
      <trkpt lat="43.97169" lon="2.99226">
        <ele>787.9</ele>
        <time>2026-04-30T08:28:47.000Z</time>
      </trkpt>
      <trkpt lat="43.97168" lon="2.99228">
        <ele>788</ele>
        <time>2026-04-30T08:28:48.000Z</time>
      </trkpt>
      <trkpt lat="43.97167" lon="2.99229">
        <ele>788.2</ele>
        <time>2026-04-30T08:28:49.000Z</time>
      </trkpt>
      <trkpt lat="43.97166" lon="2.99231">
        <ele>788.2</ele>
        <time>2026-04-30T08:28:50.000Z</time>
      </trkpt>
      <trkpt lat="43.97165" lon="2.99233">
        <ele>788.3</ele>
        <time>2026-04-30T08:28:51.000Z</time>
      </trkpt>
      <trkpt lat="43.97165" lon="2.99235">
        <ele>788.2</ele>
        <time>2026-04-30T08:28:52.000Z</time>
      </trkpt>
      <trkpt lat="43.97164" lon="2.99237">
        <ele>787.9</ele>
        <time>2026-04-30T08:28:53.000Z</time>
      </trkpt>
      <trkpt lat="43.97164" lon="2.9924">
        <ele>788</ele>
        <time>2026-04-30T08:28:54.000Z</time>
      </trkpt>
      <trkpt lat="43.97163" lon="2.99241">
        <ele>788.3</ele>
        <time>2026-04-30T08:28:55.000Z</time>
      </trkpt>
      <trkpt lat="43.97164" lon="2.99242">
        <ele>788.6</ele>
        <time>2026-04-30T08:28:56.000Z</time>
      </trkpt>
      <trkpt lat="43.97163" lon="2.99244">
        <ele>788.5</ele>
        <time>2026-04-30T08:28:57.000Z</time>
      </trkpt>
      <trkpt lat="43.97162" lon="2.99244">
        <ele>788.7</ele>
        <time>2026-04-30T08:28:58.000Z</time>
      </trkpt>
      <trkpt lat="43.97161" lon="2.99245">
        <ele>788.9</ele>
        <time>2026-04-30T08:28:59.000Z</time>
      </trkpt>
      <trkpt lat="43.9716" lon="2.99245">
        <ele>789.2</ele>
        <time>2026-04-30T08:29:00.000Z</time>
      </trkpt>
      <trkpt lat="43.97159" lon="2.99245">
        <ele>789.1</ele>
        <time>2026-04-30T08:29:01.000Z</time>
      </trkpt>
      <trkpt lat="43.97158" lon="2.99247">
        <ele>789.3</ele>
        <time>2026-04-30T08:29:02.000Z</time>
      </trkpt>
      <trkpt lat="43.97159" lon="2.99247">
        <ele>789.8</ele>
        <time>2026-04-30T08:29:03.000Z</time>
      </trkpt>
      <trkpt lat="43.9716" lon="2.99249">
        <ele>789.8</ele>
        <time>2026-04-30T08:29:04.000Z</time>
      </trkpt>
      <trkpt lat="43.9716" lon="2.99249">
        <ele>790</ele>
        <time>2026-04-30T08:29:05.000Z</time>
      </trkpt>
      <trkpt lat="43.97161" lon="2.99249">
        <ele>789.9</ele>
        <time>2026-04-30T08:29:06.000Z</time>
      </trkpt>
      <trkpt lat="43.97161" lon="2.99249">
        <ele>790.5</ele>
        <time>2026-04-30T08:29:07.000Z</time>
      </trkpt>
      <trkpt lat="43.97161" lon="2.9925">
        <ele>790.8</ele>
        <time>2026-04-30T08:29:08.000Z</time>
      </trkpt>
      <trkpt lat="43.97161" lon="2.9925">
        <ele>790.4</ele>
        <time>2026-04-30T08:29:09.000Z</time>
      </trkpt>
      <trkpt lat="43.97161" lon="2.9925">
        <ele>790.6</ele>
        <time>2026-04-30T08:29:10.000Z</time>
      </trkpt>
      <trkpt lat="43.97161" lon="2.9925">
        <ele>790.8</ele>
        <time>2026-04-30T08:29:11.000Z</time>
      </trkpt>
      <trkpt lat="43.97161" lon="2.99251">
        <ele>791</ele>
        <time>2026-04-30T08:29:12.000Z</time>
      </trkpt>
      <trkpt lat="43.97161" lon="2.99251">
        <ele>791</ele>
        <time>2026-04-30T08:29:13.000Z</time>
      </trkpt>
      <trkpt lat="43.97161" lon="2.99251">
        <ele>790.9</ele>
        <time>2026-04-30T08:29:14.000Z</time>
      </trkpt>
      <trkpt lat="43.97161" lon="2.99252">
        <ele>790.9</ele>
        <time>2026-04-30T08:29:15.000Z</time>
      </trkpt>
      <trkpt lat="43.97161" lon="2.99252">
        <ele>791.1</ele>
        <time>2026-04-30T08:29:16.000Z</time>
      </trkpt>
      <trkpt lat="43.97161" lon="2.99252">
        <ele>791.6</ele>
        <time>2026-04-30T08:29:17.000Z</time>
      </trkpt>
      <trkpt lat="43.97161" lon="2.99254">
        <ele>792</ele>
        <time>2026-04-30T08:29:18.000Z</time>
      </trkpt>
      <trkpt lat="43.97161" lon="2.99255">
        <ele>792.3</ele>
        <time>2026-04-30T08:29:19.000Z</time>
      </trkpt>
      <trkpt lat="43.9716" lon="2.99257">
        <ele>792.6</ele>
        <time>2026-04-30T08:29:20.000Z</time>
      </trkpt>
      <trkpt lat="43.9716" lon="2.99259">
        <ele>792.7</ele>
        <time>2026-04-30T08:29:21.000Z</time>
      </trkpt>
      <trkpt lat="43.97159" lon="2.99262">
        <ele>792.8</ele>
        <time>2026-04-30T08:29:22.000Z</time>
      </trkpt>
      <trkpt lat="43.97159" lon="2.99263">
        <ele>792.8</ele>
        <time>2026-04-30T08:29:23.000Z</time>
      </trkpt>
      <trkpt lat="43.97159" lon="2.99264">
        <ele>792.9</ele>
        <time>2026-04-30T08:29:24.000Z</time>
      </trkpt>
      <trkpt lat="43.97159" lon="2.99265">
        <ele>792.8</ele>
        <time>2026-04-30T08:29:25.000Z</time>
      </trkpt>
      <trkpt lat="43.97158" lon="2.99266">
        <ele>792.8</ele>
        <time>2026-04-30T08:29:26.000Z</time>
      </trkpt>
      <trkpt lat="43.97158" lon="2.99268">
        <ele>793</ele>
        <time>2026-04-30T08:29:27.000Z</time>
      </trkpt>
      <trkpt lat="43.97157" lon="2.99269">
        <ele>793</ele>
        <time>2026-04-30T08:29:28.000Z</time>
      </trkpt>
      <trkpt lat="43.97156" lon="2.9927">
        <ele>792.8</ele>
        <time>2026-04-30T08:29:29.000Z</time>
      </trkpt>
      <trkpt lat="43.97156" lon="2.99272">
        <ele>792.8</ele>
        <time>2026-04-30T08:29:30.000Z</time>
      </trkpt>
      <trkpt lat="43.97156" lon="2.99273">
        <ele>792.7</ele>
        <time>2026-04-30T08:29:31.000Z</time>
      </trkpt>
      <trkpt lat="43.97155" lon="2.99274">
        <ele>792.9</ele>
        <time>2026-04-30T08:29:32.000Z</time>
      </trkpt>
      <trkpt lat="43.97154" lon="2.99276">
        <ele>793.2</ele>
        <time>2026-04-30T08:29:33.000Z</time>
      </trkpt>
      <trkpt lat="43.97153" lon="2.99277">
        <ele>793.6</ele>
        <time>2026-04-30T08:29:34.000Z</time>
      </trkpt>
      <trkpt lat="43.97152" lon="2.9928">
        <ele>793.8</ele>
        <time>2026-04-30T08:29:35.999Z</time>
      </trkpt>
      <trkpt lat="43.97151" lon="2.99281">
        <ele>794.2</ele>
        <time>2026-04-30T08:29:36.999Z</time>
      </trkpt>
      <trkpt lat="43.97151" lon="2.99283">
        <ele>794.1</ele>
        <time>2026-04-30T08:29:37.999Z</time>
      </trkpt>
      <trkpt lat="43.9715" lon="2.99286">
        <ele>794.3</ele>
        <time>2026-04-30T08:29:38.999Z</time>
      </trkpt>
      <trkpt lat="43.97149" lon="2.99288">
        <ele>794.3</ele>
        <time>2026-04-30T08:29:39.999Z</time>
      </trkpt>
      <trkpt lat="43.97149" lon="2.9929">
        <ele>794.2</ele>
        <time>2026-04-30T08:29:40.999Z</time>
      </trkpt>
      <trkpt lat="43.97148" lon="2.99291">
        <ele>794.2</ele>
        <time>2026-04-30T08:29:41.999Z</time>
      </trkpt>
      <trkpt lat="43.97148" lon="2.99292">
        <ele>793.9</ele>
        <time>2026-04-30T08:29:42.999Z</time>
      </trkpt>
      <trkpt lat="43.97147" lon="2.99294">
        <ele>793.5</ele>
        <time>2026-04-30T08:29:43.999Z</time>
      </trkpt>
      <trkpt lat="43.97147" lon="2.99296">
        <ele>793.2</ele>
        <time>2026-04-30T08:29:44.999Z</time>
      </trkpt>
      <trkpt lat="43.97146" lon="2.99297">
        <ele>793.1</ele>
        <time>2026-04-30T08:29:45.999Z</time>
      </trkpt>
      <trkpt lat="43.97146" lon="2.99298">
        <ele>793</ele>
        <time>2026-04-30T08:29:46.999Z</time>
      </trkpt>
      <trkpt lat="43.97146" lon="2.99299">
        <ele>793.2</ele>
        <time>2026-04-30T08:29:47.999Z</time>
      </trkpt>
      <trkpt lat="43.97146" lon="2.993">
        <ele>793.2</ele>
        <time>2026-04-30T08:29:48.999Z</time>
      </trkpt>
      <trkpt lat="43.97145" lon="2.99301">
        <ele>793.3</ele>
        <time>2026-04-30T08:29:49.999Z</time>
      </trkpt>
      <trkpt lat="43.97145" lon="2.99302">
        <ele>793.2</ele>
        <time>2026-04-30T08:29:50.999Z</time>
      </trkpt>
      <trkpt lat="43.97145" lon="2.99304">
        <ele>793</ele>
        <time>2026-04-30T08:29:51.999Z</time>
      </trkpt>
      <trkpt lat="43.97145" lon="2.99305">
        <ele>792.6</ele>
        <time>2026-04-30T08:29:52.999Z</time>
      </trkpt>
      <trkpt lat="43.97145" lon="2.99307">
        <ele>792.5</ele>
        <time>2026-04-30T08:29:53.999Z</time>
      </trkpt>
      <trkpt lat="43.97145" lon="2.99309">
        <ele>792.5</ele>
        <time>2026-04-30T08:29:54.999Z</time>
      </trkpt>
      <trkpt lat="43.97144" lon="2.9931">
        <ele>792.7</ele>
        <time>2026-04-30T08:29:55.999Z</time>
      </trkpt>
      <trkpt lat="43.97143" lon="2.99311">
        <ele>792.7</ele>
        <time>2026-04-30T08:29:56.999Z</time>
      </trkpt>
      <trkpt lat="43.97143" lon="2.99313">
        <ele>792.8</ele>
        <time>2026-04-30T08:29:57.999Z</time>
      </trkpt>
      <trkpt lat="43.97142" lon="2.99315">
        <ele>793</ele>
        <time>2026-04-30T08:29:58.999Z</time>
      </trkpt>
      <trkpt lat="43.97142" lon="2.99317">
        <ele>793.2</ele>
        <time>2026-04-30T08:29:59.999Z</time>
      </trkpt>
      <trkpt lat="43.97141" lon="2.99319">
        <ele>793.4</ele>
        <time>2026-04-30T08:30:00.999Z</time>
      </trkpt>
      <trkpt lat="43.97141" lon="2.99321">
        <ele>793.4</ele>
        <time>2026-04-30T08:30:01.999Z</time>
      </trkpt>
      <trkpt lat="43.97141" lon="2.99322">
        <ele>793.7</ele>
        <time>2026-04-30T08:30:02.999Z</time>
      </trkpt>
      <trkpt lat="43.97141" lon="2.99324">
        <ele>793.7</ele>
        <time>2026-04-30T08:30:03.999Z</time>
      </trkpt>
      <trkpt lat="43.97141" lon="2.99326">
        <ele>793.7</ele>
        <time>2026-04-30T08:30:04.999Z</time>
      </trkpt>
      <trkpt lat="43.97141" lon="2.99327">
        <ele>794</ele>
        <time>2026-04-30T08:30:05.999Z</time>
      </trkpt>
      <trkpt lat="43.97141" lon="2.99328">
        <ele>794.1</ele>
        <time>2026-04-30T08:30:06.999Z</time>
      </trkpt>
      <trkpt lat="43.97141" lon="2.99329">
        <ele>794.1</ele>
        <time>2026-04-30T08:30:07.999Z</time>
      </trkpt>
      <trkpt lat="43.9714" lon="2.9933">
        <ele>793.9</ele>
        <time>2026-04-30T08:30:08.999Z</time>
      </trkpt>
      <trkpt lat="43.9714" lon="2.9933">
        <ele>793.9</ele>
        <time>2026-04-30T08:30:09.999Z</time>
      </trkpt>
      <trkpt lat="43.97139" lon="2.99331">
        <ele>793.7</ele>
        <time>2026-04-30T08:30:10.999Z</time>
      </trkpt>
      <trkpt lat="43.97138" lon="2.99332">
        <ele>794</ele>
        <time>2026-04-30T08:30:11.999Z</time>
      </trkpt>
      <trkpt lat="43.97138" lon="2.99333">
        <ele>794.1</ele>
        <time>2026-04-30T08:30:12.999Z</time>
      </trkpt>
      <trkpt lat="43.97138" lon="2.99333">
        <ele>793.9</ele>
        <time>2026-04-30T08:30:13.999Z</time>
      </trkpt>
      <trkpt lat="43.97136" lon="2.99335">
        <ele>793.9</ele>
        <time>2026-04-30T08:30:14.999Z</time>
      </trkpt>
      <trkpt lat="43.97135" lon="2.99337">
        <ele>793.9</ele>
        <time>2026-04-30T08:30:15.999Z</time>
      </trkpt>
      <trkpt lat="43.97134" lon="2.99339">
        <ele>793.7</ele>
        <time>2026-04-30T08:30:16.999Z</time>
      </trkpt>
      <trkpt lat="43.97133" lon="2.9934">
        <ele>793.6</ele>
        <time>2026-04-30T08:30:17.999Z</time>
      </trkpt>
      <trkpt lat="43.97132" lon="2.99342">
        <ele>793.5</ele>
        <time>2026-04-30T08:30:18.999Z</time>
      </trkpt>
      <trkpt lat="43.97131" lon="2.99342">
        <ele>793.5</ele>
        <time>2026-04-30T08:30:19.999Z</time>
      </trkpt>
      <trkpt lat="43.97131" lon="2.99343">
        <ele>793.3</ele>
        <time>2026-04-30T08:30:20.999Z</time>
      </trkpt>
      <trkpt lat="43.97131" lon="2.99345">
        <ele>793.2</ele>
        <time>2026-04-30T08:30:21.999Z</time>
      </trkpt>
      <trkpt lat="43.9713" lon="2.99347">
        <ele>793.4</ele>
        <time>2026-04-30T08:30:22.999Z</time>
      </trkpt>
      <trkpt lat="43.97129" lon="2.9935">
        <ele>793.6</ele>
        <time>2026-04-30T08:30:23.999Z</time>
      </trkpt>
      <trkpt lat="43.97129" lon="2.99351">
        <ele>794</ele>
        <time>2026-04-30T08:30:24.999Z</time>
      </trkpt>
      <trkpt lat="43.97128" lon="2.99352">
        <ele>794.7</ele>
        <time>2026-04-30T08:30:25.999Z</time>
      </trkpt>
      <trkpt lat="43.97128" lon="2.99353">
        <ele>795.1</ele>
        <time>2026-04-30T08:30:26.999Z</time>
      </trkpt>
      <trkpt lat="43.97128" lon="2.99353">
        <ele>795.5</ele>
        <time>2026-04-30T08:30:27.999Z</time>
      </trkpt>
      <trkpt lat="43.97127" lon="2.99354">
        <ele>795.7</ele>
        <time>2026-04-30T08:30:28.999Z</time>
      </trkpt>
      <trkpt lat="43.97127" lon="2.99355">
        <ele>795.8</ele>
        <time>2026-04-30T08:30:29.999Z</time>
      </trkpt>
      <trkpt lat="43.97127" lon="2.99357">
        <ele>795.7</ele>
        <time>2026-04-30T08:30:30.999Z</time>
      </trkpt>
      <trkpt lat="43.97126" lon="2.99358">
        <ele>795.4</ele>
        <time>2026-04-30T08:30:31.999Z</time>
      </trkpt>
      <trkpt lat="43.97126" lon="2.99359">
        <ele>795.2</ele>
        <time>2026-04-30T08:30:32.999Z</time>
      </trkpt>
      <trkpt lat="43.97126" lon="2.99361">
        <ele>795.1</ele>
        <time>2026-04-30T08:30:33.999Z</time>
      </trkpt>
      <trkpt lat="43.97126" lon="2.99362">
        <ele>795</ele>
        <time>2026-04-30T08:30:34.999Z</time>
      </trkpt>
      <trkpt lat="43.97125" lon="2.99364">
        <ele>794.9</ele>
        <time>2026-04-30T08:30:35.999Z</time>
      </trkpt>
      <trkpt lat="43.97126" lon="2.99365">
        <ele>795.2</ele>
        <time>2026-04-30T08:30:36.999Z</time>
      </trkpt>
      <trkpt lat="43.97126" lon="2.99367">
        <ele>795.1</ele>
        <time>2026-04-30T08:30:37.999Z</time>
      </trkpt>
      <trkpt lat="43.97126" lon="2.99369">
        <ele>794.8</ele>
        <time>2026-04-30T08:30:38.999Z</time>
      </trkpt>
      <trkpt lat="43.97126" lon="2.99371">
        <ele>794.8</ele>
        <time>2026-04-30T08:30:39.999Z</time>
      </trkpt>
      <trkpt lat="43.97125" lon="2.99373">
        <ele>794.6</ele>
        <time>2026-04-30T08:30:40.999Z</time>
      </trkpt>
      <trkpt lat="43.97124" lon="2.99375">
        <ele>794.6</ele>
        <time>2026-04-30T08:30:41.999Z</time>
      </trkpt>
      <trkpt lat="43.97124" lon="2.99375">
        <ele>794.4</ele>
        <time>2026-04-30T08:30:42.999Z</time>
      </trkpt>
      <trkpt lat="43.97123" lon="2.99376">
        <ele>794.1</ele>
        <time>2026-04-30T08:30:43.999Z</time>
      </trkpt>
      <trkpt lat="43.97123" lon="2.99377">
        <ele>793.8</ele>
        <time>2026-04-30T08:30:44.999Z</time>
      </trkpt>
      <trkpt lat="43.97123" lon="2.99379">
        <ele>793.3</ele>
        <time>2026-04-30T08:30:45.999Z</time>
      </trkpt>
      <trkpt lat="43.97123" lon="2.9938">
        <ele>793</ele>
        <time>2026-04-30T08:30:46.999Z</time>
      </trkpt>
      <trkpt lat="43.97123" lon="2.99382">
        <ele>792.7</ele>
        <time>2026-04-30T08:30:47.999Z</time>
      </trkpt>
      <trkpt lat="43.97122" lon="2.99384">
        <ele>792.6</ele>
        <time>2026-04-30T08:30:48.999Z</time>
      </trkpt>
      <trkpt lat="43.97122" lon="2.99386">
        <ele>792.4</ele>
        <time>2026-04-30T08:30:49.999Z</time>
      </trkpt>
      <trkpt lat="43.97121" lon="2.99387">
        <ele>792.2</ele>
        <time>2026-04-30T08:30:50.999Z</time>
      </trkpt>
      <trkpt lat="43.97121" lon="2.99388">
        <ele>791.9</ele>
        <time>2026-04-30T08:30:51.999Z</time>
      </trkpt>
      <trkpt lat="43.9712" lon="2.99389">
        <ele>791.8</ele>
        <time>2026-04-30T08:30:52.999Z</time>
      </trkpt>
      <trkpt lat="43.9712" lon="2.99392">
        <ele>792</ele>
        <time>2026-04-30T08:30:53.999Z</time>
      </trkpt>
      <trkpt lat="43.97119" lon="2.99394">
        <ele>792.1</ele>
        <time>2026-04-30T08:30:54.999Z</time>
      </trkpt>
      <trkpt lat="43.97119" lon="2.99397">
        <ele>792.3</ele>
        <time>2026-04-30T08:30:55.999Z</time>
      </trkpt>
      <trkpt lat="43.97118" lon="2.99399">
        <ele>792.5</ele>
        <time>2026-04-30T08:30:56.999Z</time>
      </trkpt>
      <trkpt lat="43.97118" lon="2.994">
        <ele>792.3</ele>
        <time>2026-04-30T08:30:57.999Z</time>
      </trkpt>
      <trkpt lat="43.97118" lon="2.99402">
        <ele>792.5</ele>
        <time>2026-04-30T08:30:58.999Z</time>
      </trkpt>
      <trkpt lat="43.97119" lon="2.99403">
        <ele>792.6</ele>
        <time>2026-04-30T08:30:59.999Z</time>
      </trkpt>
      <trkpt lat="43.97119" lon="2.99404">
        <ele>793</ele>
        <time>2026-04-30T08:31:00.999Z</time>
      </trkpt>
      <trkpt lat="43.97119" lon="2.99405">
        <ele>793.5</ele>
        <time>2026-04-30T08:31:01.999Z</time>
      </trkpt>
      <trkpt lat="43.97119" lon="2.99407">
        <ele>793.8</ele>
        <time>2026-04-30T08:31:02.999Z</time>
      </trkpt>
      <trkpt lat="43.97119" lon="2.99407">
        <ele>794.2</ele>
        <time>2026-04-30T08:31:03.999Z</time>
      </trkpt>
      <trkpt lat="43.9712" lon="2.9941">
        <ele>794.1</ele>
        <time>2026-04-30T08:31:05.999Z</time>
      </trkpt>
      <trkpt lat="43.9712" lon="2.99412">
        <ele>794.4</ele>
        <time>2026-04-30T08:31:06.999Z</time>
      </trkpt>
      <trkpt lat="43.9712" lon="2.99414">
        <ele>794.3</ele>
        <time>2026-04-30T08:31:07.999Z</time>
      </trkpt>
      <trkpt lat="43.97121" lon="2.99416">
        <ele>794</ele>
        <time>2026-04-30T08:31:08.999Z</time>
      </trkpt>
      <trkpt lat="43.97122" lon="2.99418">
        <ele>793.4</ele>
        <time>2026-04-30T08:31:09.999Z</time>
      </trkpt>
      <trkpt lat="43.97123" lon="2.99419">
        <ele>793.1</ele>
        <time>2026-04-30T08:31:10.999Z</time>
      </trkpt>
      <trkpt lat="43.97122" lon="2.9942">
        <ele>793</ele>
        <time>2026-04-30T08:31:11.999Z</time>
      </trkpt>
      <trkpt lat="43.97122" lon="2.99422">
        <ele>792.6</ele>
        <time>2026-04-30T08:31:12.999Z</time>
      </trkpt>
      <trkpt lat="43.97123" lon="2.99422">
        <ele>792.3</ele>
        <time>2026-04-30T08:31:13.999Z</time>
      </trkpt>
      <trkpt lat="43.97122" lon="2.99423">
        <ele>792.2</ele>
        <time>2026-04-30T08:31:14.999Z</time>
      </trkpt>
      <trkpt lat="43.97122" lon="2.99424">
        <ele>792.2</ele>
        <time>2026-04-30T08:31:15.999Z</time>
      </trkpt>
      <trkpt lat="43.97122" lon="2.99424">
        <ele>792.3</ele>
        <time>2026-04-30T08:31:16.999Z</time>
      </trkpt>
      <trkpt lat="43.97122" lon="2.99424">
        <ele>791.9</ele>
        <time>2026-04-30T08:31:17.999Z</time>
      </trkpt>
      <trkpt lat="43.97122" lon="2.99424">
        <ele>791.7</ele>
        <time>2026-04-30T08:31:18.999Z</time>
      </trkpt>
      <trkpt lat="43.97122" lon="2.99425">
        <ele>791.3</ele>
        <time>2026-04-30T08:31:19.999Z</time>
      </trkpt>
      <trkpt lat="43.97122" lon="2.99425">
        <ele>791</ele>
        <time>2026-04-30T08:31:20.999Z</time>
      </trkpt>
      <trkpt lat="43.97123" lon="2.99425">
        <ele>791</ele>
        <time>2026-04-30T08:31:21.999Z</time>
      </trkpt>
      <trkpt lat="43.97123" lon="2.99427">
        <ele>790.8</ele>
        <time>2026-04-30T08:31:22.999Z</time>
      </trkpt>
      <trkpt lat="43.97122" lon="2.9943">
        <ele>790.7</ele>
        <time>2026-04-30T08:31:23.999Z</time>
      </trkpt>
      <trkpt lat="43.97121" lon="2.99433">
        <ele>790.6</ele>
        <time>2026-04-30T08:31:24.999Z</time>
      </trkpt>
      <trkpt lat="43.97121" lon="2.99436">
        <ele>790.5</ele>
        <time>2026-04-30T08:31:25.999Z</time>
      </trkpt>
      <trkpt lat="43.97121" lon="2.99438">
        <ele>790.3</ele>
        <time>2026-04-30T08:31:26.999Z</time>
      </trkpt>
      <trkpt lat="43.97121" lon="2.99439">
        <ele>790.5</ele>
        <time>2026-04-30T08:31:27.999Z</time>
      </trkpt>
      <trkpt lat="43.97121" lon="2.99443">
        <ele>790.5</ele>
        <time>2026-04-30T08:31:28.999Z</time>
      </trkpt>
      <trkpt lat="43.97121" lon="2.99446">
        <ele>790.2</ele>
        <time>2026-04-30T08:31:29.999Z</time>
      </trkpt>
      <trkpt lat="43.97121" lon="2.99449">
        <ele>790.3</ele>
        <time>2026-04-30T08:31:30.999Z</time>
      </trkpt>
      <trkpt lat="43.97121" lon="2.99451">
        <ele>790.3</ele>
        <time>2026-04-30T08:31:31.999Z</time>
      </trkpt>
      <trkpt lat="43.97121" lon="2.99454">
        <ele>790.3</ele>
        <time>2026-04-30T08:31:32.999Z</time>
      </trkpt>
      <trkpt lat="43.97121" lon="2.99455">
        <ele>789.9</ele>
        <time>2026-04-30T08:31:33.999Z</time>
      </trkpt>
      <trkpt lat="43.97121" lon="2.99456">
        <ele>789.8</ele>
        <time>2026-04-30T08:31:34.999Z</time>
      </trkpt>
      <trkpt lat="43.97121" lon="2.99458">
        <ele>790.3</ele>
        <time>2026-04-30T08:31:35.999Z</time>
      </trkpt>
      <trkpt lat="43.9712" lon="2.99459">
        <ele>790.3</ele>
        <time>2026-04-30T08:31:36.999Z</time>
      </trkpt>
      <trkpt lat="43.97119" lon="2.99461">
        <ele>790.7</ele>
        <time>2026-04-30T08:31:37.999Z</time>
      </trkpt>
      <trkpt lat="43.97118" lon="2.99463">
        <ele>790.6</ele>
        <time>2026-04-30T08:31:38.999Z</time>
      </trkpt>
      <trkpt lat="43.97118" lon="2.99465">
        <ele>790.2</ele>
        <time>2026-04-30T08:31:39.999Z</time>
      </trkpt>
      <trkpt lat="43.97118" lon="2.99465">
        <ele>790.5</ele>
        <time>2026-04-30T08:31:40.999Z</time>
      </trkpt>
      <trkpt lat="43.97118" lon="2.99466">
        <ele>790.5</ele>
        <time>2026-04-30T08:31:41.999Z</time>
      </trkpt>
      <trkpt lat="43.97118" lon="2.99466">
        <ele>790.6</ele>
        <time>2026-04-30T08:31:42.999Z</time>
      </trkpt>
      <trkpt lat="43.97118" lon="2.99466">
        <ele>790.5</ele>
        <time>2026-04-30T08:31:43.999Z</time>
      </trkpt>
      <trkpt lat="43.97118" lon="2.99467">
        <ele>790.2</ele>
        <time>2026-04-30T08:31:44.999Z</time>
      </trkpt>
      <trkpt lat="43.97119" lon="2.99469">
        <ele>790</ele>
        <time>2026-04-30T08:31:45.999Z</time>
      </trkpt>
      <trkpt lat="43.97119" lon="2.99471">
        <ele>789.8</ele>
        <time>2026-04-30T08:31:46.999Z</time>
      </trkpt>
      <trkpt lat="43.97119" lon="2.99473">
        <ele>789.6</ele>
        <time>2026-04-30T08:31:47.999Z</time>
      </trkpt>
      <trkpt lat="43.9712" lon="2.99476">
        <ele>789.6</ele>
        <time>2026-04-30T08:31:48.999Z</time>
      </trkpt>
      <trkpt lat="43.97121" lon="2.99477">
        <ele>789.5</ele>
        <time>2026-04-30T08:31:49.999Z</time>
      </trkpt>
      <trkpt lat="43.97121" lon="2.99478">
        <ele>789.2</ele>
        <time>2026-04-30T08:31:50.999Z</time>
      </trkpt>
      <trkpt lat="43.9712" lon="2.99479">
        <ele>789.5</ele>
        <time>2026-04-30T08:31:51.999Z</time>
      </trkpt>
      <trkpt lat="43.9712" lon="2.9948">
        <ele>789.9</ele>
        <time>2026-04-30T08:31:52.999Z</time>
      </trkpt>
      <trkpt lat="43.9712" lon="2.9948">
        <ele>790.2</ele>
        <time>2026-04-30T08:31:53.999Z</time>
      </trkpt>
      <trkpt lat="43.9712" lon="2.9948">
        <ele>790.1</ele>
        <time>2026-04-30T08:31:54.999Z</time>
      </trkpt>
      <trkpt lat="43.9712" lon="2.9948">
        <ele>790</ele>
        <time>2026-04-30T08:31:55.999Z</time>
      </trkpt>
      <trkpt lat="43.9712" lon="2.99481">
        <ele>789.9</ele>
        <time>2026-04-30T08:31:56.999Z</time>
      </trkpt>
      <trkpt lat="43.97121" lon="2.99484">
        <ele>789.5</ele>
        <time>2026-04-30T08:31:57.999Z</time>
      </trkpt>
      <trkpt lat="43.97121" lon="2.99485">
        <ele>789.7</ele>
        <time>2026-04-30T08:31:58.999Z</time>
      </trkpt>
      <trkpt lat="43.97121" lon="2.99487">
        <ele>789.8</ele>
        <time>2026-04-30T08:31:59.999Z</time>
      </trkpt>
      <trkpt lat="43.9712" lon="2.99489">
        <ele>790.3</ele>
        <time>2026-04-30T08:32:00.999Z</time>
      </trkpt>
      <trkpt lat="43.97119" lon="2.9949">
        <ele>790.5</ele>
        <time>2026-04-30T08:32:01.999Z</time>
      </trkpt>
      <trkpt lat="43.97118" lon="2.9949">
        <ele>790.5</ele>
        <time>2026-04-30T08:32:02.999Z</time>
      </trkpt>
      <trkpt lat="43.97118" lon="2.9949">
        <ele>790.3</ele>
        <time>2026-04-30T08:32:03.999Z</time>
      </trkpt>
      <trkpt lat="43.97117" lon="2.9949">
        <ele>789.9</ele>
        <time>2026-04-30T08:32:04.999Z</time>
      </trkpt>
      <trkpt lat="43.97117" lon="2.99491">
        <ele>789.6</ele>
        <time>2026-04-30T08:32:05.999Z</time>
      </trkpt>
      <trkpt lat="43.97117" lon="2.99492">
        <ele>789.9</ele>
        <time>2026-04-30T08:32:06.999Z</time>
      </trkpt>
      <trkpt lat="43.97117" lon="2.99492">
        <ele>790.2</ele>
        <time>2026-04-30T08:32:07.999Z</time>
      </trkpt>
      <trkpt lat="43.97117" lon="2.99492">
        <ele>790.3</ele>
        <time>2026-04-30T08:32:08.999Z</time>
      </trkpt>
      <trkpt lat="43.97117" lon="2.99493">
        <ele>790.5</ele>
        <time>2026-04-30T08:32:09.999Z</time>
      </trkpt>
      <trkpt lat="43.97117" lon="2.99493">
        <ele>790.8</ele>
        <time>2026-04-30T08:32:10.999Z</time>
      </trkpt>
      <trkpt lat="43.97117" lon="2.99496">
        <ele>791.1</ele>
        <time>2026-04-30T08:32:11.999Z</time>
      </trkpt>
      <trkpt lat="43.97117" lon="2.99498">
        <ele>791</ele>
        <time>2026-04-30T08:32:12.999Z</time>
      </trkpt>
      <trkpt lat="43.97117" lon="2.995">
        <ele>791.1</ele>
        <time>2026-04-30T08:32:13.999Z</time>
      </trkpt>
      <trkpt lat="43.97116" lon="2.99503">
        <ele>791.2</ele>
        <time>2026-04-30T08:32:14.999Z</time>
      </trkpt>
      <trkpt lat="43.97115" lon="2.99505">
        <ele>791.3</ele>
        <time>2026-04-30T08:32:15.999Z</time>
      </trkpt>
      <trkpt lat="43.97115" lon="2.99506">
        <ele>791.1</ele>
        <time>2026-04-30T08:32:16.999Z</time>
      </trkpt>
      <trkpt lat="43.97114" lon="2.99508">
        <ele>791.6</ele>
        <time>2026-04-30T08:32:17.999Z</time>
      </trkpt>
      <trkpt lat="43.97113" lon="2.9951">
        <ele>791.6</ele>
        <time>2026-04-30T08:32:18.999Z</time>
      </trkpt>
      <trkpt lat="43.97111" lon="2.99512">
        <ele>791.2</ele>
        <time>2026-04-30T08:32:19.999Z</time>
      </trkpt>
      <trkpt lat="43.97111" lon="2.99514">
        <ele>790.9</ele>
        <time>2026-04-30T08:32:20.999Z</time>
      </trkpt>
      <trkpt lat="43.97111" lon="2.99516">
        <ele>791</ele>
        <time>2026-04-30T08:32:21.999Z</time>
      </trkpt>
      <trkpt lat="43.97111" lon="2.99518">
        <ele>790.9</ele>
        <time>2026-04-30T08:32:22.999Z</time>
      </trkpt>
      <trkpt lat="43.97111" lon="2.9952">
        <ele>790.8</ele>
        <time>2026-04-30T08:32:23.999Z</time>
      </trkpt>
      <trkpt lat="43.97111" lon="2.99522">
        <ele>791</ele>
        <time>2026-04-30T08:32:24.999Z</time>
      </trkpt>
      <trkpt lat="43.97111" lon="2.99523">
        <ele>791.5</ele>
        <time>2026-04-30T08:32:25.999Z</time>
      </trkpt>
      <trkpt lat="43.97111" lon="2.99524">
        <ele>791.8</ele>
        <time>2026-04-30T08:32:26.999Z</time>
      </trkpt>
      <trkpt lat="43.9711" lon="2.99526">
        <ele>792.1</ele>
        <time>2026-04-30T08:32:27.999Z</time>
      </trkpt>
      <trkpt lat="43.9711" lon="2.99527">
        <ele>792.4</ele>
        <time>2026-04-30T08:32:28.999Z</time>
      </trkpt>
      <trkpt lat="43.9711" lon="2.99528">
        <ele>792.2</ele>
        <time>2026-04-30T08:32:29.999Z</time>
      </trkpt>
      <trkpt lat="43.9711" lon="2.99529">
        <ele>791.9</ele>
        <time>2026-04-30T08:32:30.999Z</time>
      </trkpt>
      <trkpt lat="43.97109" lon="2.9953">
        <ele>791.4</ele>
        <time>2026-04-30T08:32:31.999Z</time>
      </trkpt>
      <trkpt lat="43.97109" lon="2.99532">
        <ele>790.8</ele>
        <time>2026-04-30T08:32:33.999Z</time>
      </trkpt>
      <trkpt lat="43.97109" lon="2.99533">
        <ele>790.5</ele>
        <time>2026-04-30T08:32:34.999Z</time>
      </trkpt>
      <trkpt lat="43.9711" lon="2.99534">
        <ele>790.5</ele>
        <time>2026-04-30T08:32:35.999Z</time>
      </trkpt>
      <trkpt lat="43.97111" lon="2.99537">
        <ele>790.4</ele>
        <time>2026-04-30T08:32:36.999Z</time>
      </trkpt>
      <trkpt lat="43.97111" lon="2.99539">
        <ele>790.3</ele>
        <time>2026-04-30T08:32:37.999Z</time>
      </trkpt>
      <trkpt lat="43.97111" lon="2.9954">
        <ele>790.6</ele>
        <time>2026-04-30T08:32:38.999Z</time>
      </trkpt>
      <trkpt lat="43.97112" lon="2.99541">
        <ele>790.7</ele>
        <time>2026-04-30T08:32:39.999Z</time>
      </trkpt>
      <trkpt lat="43.97112" lon="2.99542">
        <ele>790.9</ele>
        <time>2026-04-30T08:32:40.999Z</time>
      </trkpt>
      <trkpt lat="43.97112" lon="2.99543">
        <ele>790.7</ele>
        <time>2026-04-30T08:32:41.999Z</time>
      </trkpt>
      <trkpt lat="43.97111" lon="2.99544">
        <ele>790.5</ele>
        <time>2026-04-30T08:32:42.999Z</time>
      </trkpt>
      <trkpt lat="43.97111" lon="2.99544">
        <ele>790.4</ele>
        <time>2026-04-30T08:32:43.999Z</time>
      </trkpt>
      <trkpt lat="43.97111" lon="2.99545">
        <ele>790</ele>
        <time>2026-04-30T08:32:44.999Z</time>
      </trkpt>
      <trkpt lat="43.97111" lon="2.99545">
        <ele>789.8</ele>
        <time>2026-04-30T08:32:45.999Z</time>
      </trkpt>
      <trkpt lat="43.97111" lon="2.99545">
        <ele>789.2</ele>
        <time>2026-04-30T08:32:46.999Z</time>
      </trkpt>
      <trkpt lat="43.97111" lon="2.99547">
        <ele>789</ele>
        <time>2026-04-30T08:32:47.999Z</time>
      </trkpt>
      <trkpt lat="43.97111" lon="2.9955">
        <ele>788.9</ele>
        <time>2026-04-30T08:32:48.999Z</time>
      </trkpt>
      <trkpt lat="43.9711" lon="2.99551">
        <ele>788.7</ele>
        <time>2026-04-30T08:32:49.999Z</time>
      </trkpt>
      <trkpt lat="43.9711" lon="2.99553">
        <ele>788.5</ele>
        <time>2026-04-30T08:32:50.999Z</time>
      </trkpt>
      <trkpt lat="43.97111" lon="2.99554">
        <ele>788.3</ele>
        <time>2026-04-30T08:32:51.999Z</time>
      </trkpt>
      <trkpt lat="43.97111" lon="2.99555">
        <ele>788.4</ele>
        <time>2026-04-30T08:32:52.999Z</time>
      </trkpt>
      <trkpt lat="43.97111" lon="2.99555">
        <ele>788.7</ele>
        <time>2026-04-30T08:32:53.999Z</time>
      </trkpt>
      <trkpt lat="43.97111" lon="2.99555">
        <ele>789.5</ele>
        <time>2026-04-30T08:32:54.999Z</time>
      </trkpt>
      <trkpt lat="43.97111" lon="2.99557">
        <ele>789.4</ele>
        <time>2026-04-30T08:32:55.999Z</time>
      </trkpt>
      <trkpt lat="43.97111" lon="2.99558">
        <ele>789</ele>
        <time>2026-04-30T08:32:56.999Z</time>
      </trkpt>
      <trkpt lat="43.97111" lon="2.9956">
        <ele>788.9</ele>
        <time>2026-04-30T08:32:57.999Z</time>
      </trkpt>
      <trkpt lat="43.97111" lon="2.99561">
        <ele>788.6</ele>
        <time>2026-04-30T08:32:58.999Z</time>
      </trkpt>
      <trkpt lat="43.97111" lon="2.99563">
        <ele>788.3</ele>
        <time>2026-04-30T08:32:59.999Z</time>
      </trkpt>
      <trkpt lat="43.97111" lon="2.99565">
        <ele>788.2</ele>
        <time>2026-04-30T08:33:00.999Z</time>
      </trkpt>
      <trkpt lat="43.97111" lon="2.99567">
        <ele>787.9</ele>
        <time>2026-04-30T08:33:01.999Z</time>
      </trkpt>
      <trkpt lat="43.97111" lon="2.9957">
        <ele>787.9</ele>
        <time>2026-04-30T08:33:02.999Z</time>
      </trkpt>
      <trkpt lat="43.97111" lon="2.99571">
        <ele>787.8</ele>
        <time>2026-04-30T08:33:03.999Z</time>
      </trkpt>
      <trkpt lat="43.97111" lon="2.99572">
        <ele>787.5</ele>
        <time>2026-04-30T08:33:04.999Z</time>
      </trkpt>
      <trkpt lat="43.97111" lon="2.99574">
        <ele>788</ele>
        <time>2026-04-30T08:33:05.999Z</time>
      </trkpt>
      <trkpt lat="43.97111" lon="2.99574">
        <ele>788.2</ele>
        <time>2026-04-30T08:33:06.999Z</time>
      </trkpt>
      <trkpt lat="43.97111" lon="2.99574">
        <ele>788</ele>
        <time>2026-04-30T08:33:07.999Z</time>
      </trkpt>
      <trkpt lat="43.97111" lon="2.99575">
        <ele>787.7</ele>
        <time>2026-04-30T08:33:08.999Z</time>
      </trkpt>
      <trkpt lat="43.97111" lon="2.99575">
        <ele>787.6</ele>
        <time>2026-04-30T08:33:09.999Z</time>
      </trkpt>
      <trkpt lat="43.9711" lon="2.99575">
        <ele>787.6</ele>
        <time>2026-04-30T08:33:10.999Z</time>
      </trkpt>
      <trkpt lat="43.9711" lon="2.99575">
        <ele>788.2</ele>
        <time>2026-04-30T08:33:11.999Z</time>
      </trkpt>
      <trkpt lat="43.9711" lon="2.99575">
        <ele>788.4</ele>
        <time>2026-04-30T08:33:12.999Z</time>
      </trkpt>
      <trkpt lat="43.9711" lon="2.99576">
        <ele>788.6</ele>
        <time>2026-04-30T08:33:13.999Z</time>
      </trkpt>
      <trkpt lat="43.97109" lon="2.99577">
        <ele>789</ele>
        <time>2026-04-30T08:33:14.999Z</time>
      </trkpt>
      <trkpt lat="43.97108" lon="2.99578">
        <ele>789.5</ele>
        <time>2026-04-30T08:33:15.999Z</time>
      </trkpt>
      <trkpt lat="43.97108" lon="2.9958">
        <ele>789.7</ele>
        <time>2026-04-30T08:33:16.999Z</time>
      </trkpt>
      <trkpt lat="43.97108" lon="2.99581">
        <ele>789.7</ele>
        <time>2026-04-30T08:33:17.999Z</time>
      </trkpt>
      <trkpt lat="43.97107" lon="2.99581">
        <ele>789.6</ele>
        <time>2026-04-30T08:33:18.999Z</time>
      </trkpt>
      <trkpt lat="43.97107" lon="2.99581">
        <ele>789.7</ele>
        <time>2026-04-30T08:33:19.999Z</time>
      </trkpt>
      <trkpt lat="43.97106" lon="2.99581">
        <ele>790</ele>
        <time>2026-04-30T08:33:20.999Z</time>
      </trkpt>
      <trkpt lat="43.97105" lon="2.9958">
        <ele>790.2</ele>
        <time>2026-04-30T08:33:21.999Z</time>
      </trkpt>
      <trkpt lat="43.97105" lon="2.99581">
        <ele>789.9</ele>
        <time>2026-04-30T08:33:22.999Z</time>
      </trkpt>
      <trkpt lat="43.97104" lon="2.99581">
        <ele>789.7</ele>
        <time>2026-04-30T08:33:23.999Z</time>
      </trkpt>
      <trkpt lat="43.97104" lon="2.99581">
        <ele>789.9</ele>
        <time>2026-04-30T08:33:24.999Z</time>
      </trkpt>
      <trkpt lat="43.97104" lon="2.99581">
        <ele>790.5</ele>
        <time>2026-04-30T08:33:25.999Z</time>
      </trkpt>
      <trkpt lat="43.97103" lon="2.99581">
        <ele>790.9</ele>
        <time>2026-04-30T08:33:26.999Z</time>
      </trkpt>
      <trkpt lat="43.97102" lon="2.9958">
        <ele>791.5</ele>
        <time>2026-04-30T08:33:27.999Z</time>
      </trkpt>
      <trkpt lat="43.97102" lon="2.9958">
        <ele>791.9</ele>
        <time>2026-04-30T08:33:28.999Z</time>
      </trkpt>
      <trkpt lat="43.97101" lon="2.99581">
        <ele>792</ele>
        <time>2026-04-30T08:33:29.999Z</time>
      </trkpt>
      <trkpt lat="43.971" lon="2.99582">
        <ele>792</ele>
        <time>2026-04-30T08:33:30.999Z</time>
      </trkpt>
      <trkpt lat="43.97099" lon="2.99583">
        <ele>792.1</ele>
        <time>2026-04-30T08:33:31.999Z</time>
      </trkpt>
      <trkpt lat="43.97099" lon="2.99584">
        <ele>792.5</ele>
        <time>2026-04-30T08:33:32.999Z</time>
      </trkpt>
      <trkpt lat="43.97098" lon="2.99585">
        <ele>792.3</ele>
        <time>2026-04-30T08:33:33.999Z</time>
      </trkpt>
      <trkpt lat="43.97098" lon="2.99586">
        <ele>792.1</ele>
        <time>2026-04-30T08:33:34.999Z</time>
      </trkpt>
      <trkpt lat="43.97098" lon="2.99587">
        <ele>792.1</ele>
        <time>2026-04-30T08:33:35.999Z</time>
      </trkpt>
      <trkpt lat="43.97097" lon="2.99587">
        <ele>792</ele>
        <time>2026-04-30T08:33:36.999Z</time>
      </trkpt>
      <trkpt lat="43.97097" lon="2.99587">
        <ele>791.9</ele>
        <time>2026-04-30T08:33:37.999Z</time>
      </trkpt>
      <trkpt lat="43.97097" lon="2.99587">
        <ele>792.2</ele>
        <time>2026-04-30T08:33:38.999Z</time>
      </trkpt>
      <trkpt lat="43.97096" lon="2.99587">
        <ele>792.3</ele>
        <time>2026-04-30T08:33:39.999Z</time>
      </trkpt>
      <trkpt lat="43.97096" lon="2.99587">
        <ele>792.4</ele>
        <time>2026-04-30T08:33:40.999Z</time>
      </trkpt>
      <trkpt lat="43.97096" lon="2.99588">
        <ele>792.6</ele>
        <time>2026-04-30T08:33:41.999Z</time>
      </trkpt>
      <trkpt lat="43.97095" lon="2.99588">
        <ele>792.7</ele>
        <time>2026-04-30T08:33:42.999Z</time>
      </trkpt>
      <trkpt lat="43.97094" lon="2.9959">
        <ele>792.7</ele>
        <time>2026-04-30T08:33:43.999Z</time>
      </trkpt>
      <trkpt lat="43.97093" lon="2.99591">
        <ele>793</ele>
        <time>2026-04-30T08:33:44.999Z</time>
      </trkpt>
      <trkpt lat="43.97092" lon="2.99592">
        <ele>793.1</ele>
        <time>2026-04-30T08:33:45.999Z</time>
      </trkpt>
      <trkpt lat="43.97092" lon="2.99593">
        <ele>793.2</ele>
        <time>2026-04-30T08:33:46.999Z</time>
      </trkpt>
      <trkpt lat="43.97091" lon="2.99593">
        <ele>793.1</ele>
        <time>2026-04-30T08:33:47.999Z</time>
      </trkpt>
      <trkpt lat="43.97091" lon="2.99595">
        <ele>793.4</ele>
        <time>2026-04-30T08:33:48.999Z</time>
      </trkpt>
      <trkpt lat="43.97091" lon="2.99595">
        <ele>793.5</ele>
        <time>2026-04-30T08:33:49.999Z</time>
      </trkpt>
      <trkpt lat="43.97091" lon="2.99597">
        <ele>793.6</ele>
        <time>2026-04-30T08:33:50.999Z</time>
      </trkpt>
      <trkpt lat="43.97091" lon="2.99598">
        <ele>793.8</ele>
        <time>2026-04-30T08:33:51.999Z</time>
      </trkpt>
      <trkpt lat="43.97091" lon="2.99598">
        <ele>794</ele>
        <time>2026-04-30T08:33:52.999Z</time>
      </trkpt>
      <trkpt lat="43.97091" lon="2.99598">
        <ele>794.1</ele>
        <time>2026-04-30T08:33:53.999Z</time>
      </trkpt>
      <trkpt lat="43.97091" lon="2.99599">
        <ele>794</ele>
        <time>2026-04-30T08:33:54.999Z</time>
      </trkpt>
      <trkpt lat="43.97091" lon="2.99599">
        <ele>794.1</ele>
        <time>2026-04-30T08:33:55.999Z</time>
      </trkpt>
      <trkpt lat="43.97091" lon="2.99599">
        <ele>794.4</ele>
        <time>2026-04-30T08:33:56.999Z</time>
      </trkpt>
      <trkpt lat="43.97091" lon="2.996">
        <ele>794.5</ele>
        <time>2026-04-30T08:33:57.999Z</time>
      </trkpt>
      <trkpt lat="43.97091" lon="2.99601">
        <ele>794.5</ele>
        <time>2026-04-30T08:33:58.999Z</time>
      </trkpt>
      <trkpt lat="43.97091" lon="2.99602">
        <ele>794.7</ele>
        <time>2026-04-30T08:33:59.999Z</time>
      </trkpt>
      <trkpt lat="43.97091" lon="2.99604">
        <ele>795.1</ele>
        <time>2026-04-30T08:34:00.999Z</time>
      </trkpt>
      <trkpt lat="43.9709" lon="2.99606">
        <ele>795.5</ele>
        <time>2026-04-30T08:34:01.999Z</time>
      </trkpt>
      <trkpt lat="43.9709" lon="2.99607">
        <ele>795.8</ele>
        <time>2026-04-30T08:34:02.999Z</time>
      </trkpt>
      <trkpt lat="43.9709" lon="2.99608">
        <ele>796</ele>
        <time>2026-04-30T08:34:03.999Z</time>
      </trkpt>
      <trkpt lat="43.9709" lon="2.99609">
        <ele>796.3</ele>
        <time>2026-04-30T08:34:04.999Z</time>
      </trkpt>
      <trkpt lat="43.97091" lon="2.9961">
        <ele>796.7</ele>
        <time>2026-04-30T08:34:05.999Z</time>
      </trkpt>
      <trkpt lat="43.9709" lon="2.99611">
        <ele>797.2</ele>
        <time>2026-04-30T08:34:06.999Z</time>
      </trkpt>
      <trkpt lat="43.9709" lon="2.99612">
        <ele>797.7</ele>
        <time>2026-04-30T08:34:07.999Z</time>
      </trkpt>
      <trkpt lat="43.97091" lon="2.99613">
        <ele>798</ele>
        <time>2026-04-30T08:34:08.999Z</time>
      </trkpt>
      <trkpt lat="43.97091" lon="2.99614">
        <ele>798.3</ele>
        <time>2026-04-30T08:34:09.999Z</time>
      </trkpt>
      <trkpt lat="43.97091" lon="2.99615">
        <ele>798.5</ele>
        <time>2026-04-30T08:34:10.999Z</time>
      </trkpt>
      <trkpt lat="43.97091" lon="2.99616">
        <ele>799.1</ele>
        <time>2026-04-30T08:34:11.999Z</time>
      </trkpt>
      <trkpt lat="43.97091" lon="2.99618">
        <ele>799.7</ele>
        <time>2026-04-30T08:34:12.999Z</time>
      </trkpt>
      <trkpt lat="43.97091" lon="2.9962">
        <ele>800.2</ele>
        <time>2026-04-30T08:34:13.999Z</time>
      </trkpt>
      <trkpt lat="43.97091" lon="2.99622">
        <ele>800.7</ele>
        <time>2026-04-30T08:34:14.999Z</time>
      </trkpt>
      <trkpt lat="43.9709" lon="2.99623">
        <ele>801.1</ele>
        <time>2026-04-30T08:34:15.999Z</time>
      </trkpt>
      <trkpt lat="43.9709" lon="2.99625">
        <ele>801.8</ele>
        <time>2026-04-30T08:34:16.999Z</time>
      </trkpt>
      <trkpt lat="43.9709" lon="2.99626">
        <ele>802.1</ele>
        <time>2026-04-30T08:34:17.999Z</time>
      </trkpt>
      <trkpt lat="43.9709" lon="2.99628">
        <ele>802.5</ele>
        <time>2026-04-30T08:34:18.999Z</time>
      </trkpt>
      <trkpt lat="43.97091" lon="2.99629">
        <ele>803.3</ele>
        <time>2026-04-30T08:34:19.999Z</time>
      </trkpt>
      <trkpt lat="43.97091" lon="2.99631">
        <ele>803.6</ele>
        <time>2026-04-30T08:34:20.999Z</time>
      </trkpt>
      <trkpt lat="43.97091" lon="2.99632">
        <ele>804.1</ele>
        <time>2026-04-30T08:34:21.999Z</time>
      </trkpt>
      <trkpt lat="43.97091" lon="2.99634">
        <ele>804.2</ele>
        <time>2026-04-30T08:34:22.999Z</time>
      </trkpt>
      <trkpt lat="43.97091" lon="2.99635">
        <ele>804.8</ele>
        <time>2026-04-30T08:34:23.999Z</time>
      </trkpt>
      <trkpt lat="43.9709" lon="2.99636">
        <ele>805.3</ele>
        <time>2026-04-30T08:34:24.999Z</time>
      </trkpt>
      <trkpt lat="43.97089" lon="2.99637">
        <ele>805.8</ele>
        <time>2026-04-30T08:34:25.999Z</time>
      </trkpt>
      <trkpt lat="43.97089" lon="2.99637">
        <ele>806.1</ele>
        <time>2026-04-30T08:34:26.999Z</time>
      </trkpt>
      <trkpt lat="43.97088" lon="2.99638">
        <ele>806.3</ele>
        <time>2026-04-30T08:34:27.999Z</time>
      </trkpt>
      <trkpt lat="43.97087" lon="2.99639">
        <ele>806.2</ele>
        <time>2026-04-30T08:34:28.999Z</time>
      </trkpt>
      <trkpt lat="43.97088" lon="2.99639">
        <ele>805.8</ele>
        <time>2026-04-30T08:34:29.999Z</time>
      </trkpt>
      <trkpt lat="43.97088" lon="2.99639">
        <ele>805.1</ele>
        <time>2026-04-30T08:34:30.999Z</time>
      </trkpt>
      <trkpt lat="43.97088" lon="2.99639">
        <ele>804.9</ele>
        <time>2026-04-30T08:34:31.999Z</time>
      </trkpt>
      <trkpt lat="43.97088" lon="2.99639">
        <ele>804.9</ele>
        <time>2026-04-30T08:34:32.999Z</time>
      </trkpt>
      <trkpt lat="43.97088" lon="2.99639">
        <ele>804.4</ele>
        <time>2026-04-30T08:34:33.999Z</time>
      </trkpt>
      <trkpt lat="43.97088" lon="2.99638">
        <ele>804.1</ele>
        <time>2026-04-30T08:34:34.999Z</time>
      </trkpt>
      <trkpt lat="43.97088" lon="2.99638">
        <ele>804</ele>
        <time>2026-04-30T08:34:35.999Z</time>
      </trkpt>
      <trkpt lat="43.97087" lon="2.99637">
        <ele>804.6</ele>
        <time>2026-04-30T08:34:36.999Z</time>
      </trkpt>
      <trkpt lat="43.97088" lon="2.99637">
        <ele>804.8</ele>
        <time>2026-04-30T08:34:37.999Z</time>
      </trkpt>
      <trkpt lat="43.97087" lon="2.99637">
        <ele>805.2</ele>
        <time>2026-04-30T08:34:38.999Z</time>
      </trkpt>
      <trkpt lat="43.97086" lon="2.99638">
        <ele>805.5</ele>
        <time>2026-04-30T08:34:39.999Z</time>
      </trkpt>
      <trkpt lat="43.97086" lon="2.99639">
        <ele>805.4</ele>
        <time>2026-04-30T08:34:40.999Z</time>
      </trkpt>
      <trkpt lat="43.97085" lon="2.9964">
        <ele>805.3</ele>
        <time>2026-04-30T08:34:41.999Z</time>
      </trkpt>
      <trkpt lat="43.97084" lon="2.9964">
        <ele>805.7</ele>
        <time>2026-04-30T08:34:42.999Z</time>
      </trkpt>
      <trkpt lat="43.97087" lon="2.9964">
        <ele>806</ele>
        <time>2026-04-30T08:34:43.999Z</time>
      </trkpt>
      <trkpt lat="43.97087" lon="2.9964">
        <ele>806.7</ele>
        <time>2026-04-30T08:34:44.999Z</time>
      </trkpt>
      <trkpt lat="43.97088" lon="2.99641">
        <ele>807.4</ele>
        <time>2026-04-30T08:34:45.999Z</time>
      </trkpt>
      <trkpt lat="43.97088" lon="2.99641">
        <ele>808.3</ele>
        <time>2026-04-30T08:34:46.999Z</time>
      </trkpt>
      <trkpt lat="43.97088" lon="2.99642">
        <ele>807.7</ele>
        <time>2026-04-30T08:34:47.999Z</time>
      </trkpt>
      <trkpt lat="43.97088" lon="2.99642">
        <ele>808.2</ele>
        <time>2026-04-30T08:34:48.999Z</time>
      </trkpt>
      <trkpt lat="43.97088" lon="2.99643">
        <ele>808.5</ele>
        <time>2026-04-30T08:34:49.999Z</time>
      </trkpt>
      <trkpt lat="43.97087" lon="2.99644">
        <ele>808.7</ele>
        <time>2026-04-30T08:34:50.999Z</time>
      </trkpt>
      <trkpt lat="43.97086" lon="2.99646">
        <ele>808.9</ele>
        <time>2026-04-30T08:34:51.999Z</time>
      </trkpt>
      <trkpt lat="43.97086" lon="2.99646">
        <ele>808.8</ele>
        <time>2026-04-30T08:34:52.999Z</time>
      </trkpt>
      <trkpt lat="43.97085" lon="2.99646">
        <ele>808.8</ele>
        <time>2026-04-30T08:34:53.999Z</time>
      </trkpt>
      <trkpt lat="43.97085" lon="2.99647">
        <ele>808.6</ele>
        <time>2026-04-30T08:34:55.999Z</time>
      </trkpt>
      <trkpt lat="43.97084" lon="2.99648">
        <ele>807.9</ele>
        <time>2026-04-30T08:34:56.999Z</time>
      </trkpt>
      <trkpt lat="43.97083" lon="2.99649">
        <ele>808.2</ele>
        <time>2026-04-30T08:34:57.999Z</time>
      </trkpt>
      <trkpt lat="43.97082" lon="2.9965">
        <ele>808.6</ele>
        <time>2026-04-30T08:34:58.999Z</time>
      </trkpt>
      <trkpt lat="43.9708" lon="2.99651">
        <ele>808.9</ele>
        <time>2026-04-30T08:34:59.999Z</time>
      </trkpt>
      <trkpt lat="43.97077" lon="2.99653">
        <ele>808.8</ele>
        <time>2026-04-30T08:35:00.999Z</time>
      </trkpt>
      <trkpt lat="43.97075" lon="2.99654">
        <ele>808.5</ele>
        <time>2026-04-30T08:35:01.999Z</time>
      </trkpt>
      <trkpt lat="43.97074" lon="2.99656">
        <ele>808.7</ele>
        <time>2026-04-30T08:35:02.999Z</time>
      </trkpt>
      <trkpt lat="43.97073" lon="2.99658">
        <ele>809.1</ele>
        <time>2026-04-30T08:35:03.999Z</time>
      </trkpt>
      <trkpt lat="43.97072" lon="2.9966">
        <ele>808.9</ele>
        <time>2026-04-30T08:35:04.999Z</time>
      </trkpt>
      <trkpt lat="43.97071" lon="2.99662">
        <ele>808.8</ele>
        <time>2026-04-30T08:35:05.999Z</time>
      </trkpt>
      <trkpt lat="43.97071" lon="2.99663">
        <ele>808.8</ele>
        <time>2026-04-30T08:35:06.999Z</time>
      </trkpt>
      <trkpt lat="43.9707" lon="2.99664">
        <ele>808.6</ele>
        <time>2026-04-30T08:35:07.999Z</time>
      </trkpt>
      <trkpt lat="43.9707" lon="2.99664">
        <ele>808.3</ele>
        <time>2026-04-30T08:35:08.999Z</time>
      </trkpt>
      <trkpt lat="43.9707" lon="2.99664">
        <ele>808.4</ele>
        <time>2026-04-30T08:35:09.999Z</time>
      </trkpt>
      <trkpt lat="43.9707" lon="2.99665">
        <ele>808.3</ele>
        <time>2026-04-30T08:35:10.999Z</time>
      </trkpt>
      <trkpt lat="43.9707" lon="2.99665">
        <ele>808.3</ele>
        <time>2026-04-30T08:35:11.999Z</time>
      </trkpt>
      <trkpt lat="43.97069" lon="2.99666">
        <ele>808.1</ele>
        <time>2026-04-30T08:35:12.999Z</time>
      </trkpt>
      <trkpt lat="43.97068" lon="2.99668">
        <ele>807.6</ele>
        <time>2026-04-30T08:35:13.999Z</time>
      </trkpt>
      <trkpt lat="43.97067" lon="2.99669">
        <ele>807.3</ele>
        <time>2026-04-30T08:35:14.999Z</time>
      </trkpt>
      <trkpt lat="43.97067" lon="2.9967">
        <ele>807.4</ele>
        <time>2026-04-30T08:35:15.999Z</time>
      </trkpt>
      <trkpt lat="43.97066" lon="2.99671">
        <ele>807.6</ele>
        <time>2026-04-30T08:35:16.999Z</time>
      </trkpt>
      <trkpt lat="43.97065" lon="2.99673">
        <ele>807.7</ele>
        <time>2026-04-30T08:35:17.999Z</time>
      </trkpt>
      <trkpt lat="43.97065" lon="2.99674">
        <ele>807.5</ele>
        <time>2026-04-30T08:35:18.999Z</time>
      </trkpt>
      <trkpt lat="43.97064" lon="2.99675">
        <ele>807.3</ele>
        <time>2026-04-30T08:35:19.999Z</time>
      </trkpt>
      <trkpt lat="43.97063" lon="2.99676">
        <ele>807.8</ele>
        <time>2026-04-30T08:35:20.999Z</time>
      </trkpt>
      <trkpt lat="43.97063" lon="2.99677">
        <ele>808.5</ele>
        <time>2026-04-30T08:35:21.999Z</time>
      </trkpt>
      <trkpt lat="43.97062" lon="2.99679">
        <ele>808.6</ele>
        <time>2026-04-30T08:35:22.999Z</time>
      </trkpt>
      <trkpt lat="43.97061" lon="2.9968">
        <ele>808.7</ele>
        <time>2026-04-30T08:35:23.999Z</time>
      </trkpt>
      <trkpt lat="43.9706" lon="2.9968">
        <ele>808.7</ele>
        <time>2026-04-30T08:35:24.999Z</time>
      </trkpt>
      <trkpt lat="43.97059" lon="2.99681">
        <ele>808.7</ele>
        <time>2026-04-30T08:35:25.999Z</time>
      </trkpt>
      <trkpt lat="43.97058" lon="2.99682">
        <ele>808.8</ele>
        <time>2026-04-30T08:35:26.999Z</time>
      </trkpt>
      <trkpt lat="43.97057" lon="2.99684">
        <ele>808.8</ele>
        <time>2026-04-30T08:35:27.999Z</time>
      </trkpt>
      <trkpt lat="43.97057" lon="2.99686">
        <ele>809</ele>
        <time>2026-04-30T08:35:28.999Z</time>
      </trkpt>
      <trkpt lat="43.97056" lon="2.99686">
        <ele>809</ele>
        <time>2026-04-30T08:35:29.999Z</time>
      </trkpt>
      <trkpt lat="43.97054" lon="2.99685">
        <ele>809.2</ele>
        <time>2026-04-30T08:35:30.999Z</time>
      </trkpt>
      <trkpt lat="43.97053" lon="2.99686">
        <ele>809.4</ele>
        <time>2026-04-30T08:35:31.999Z</time>
      </trkpt>
      <trkpt lat="43.97052" lon="2.99688">
        <ele>809.4</ele>
        <time>2026-04-30T08:35:32.999Z</time>
      </trkpt>
      <trkpt lat="43.97051" lon="2.99689">
        <ele>809</ele>
        <time>2026-04-30T08:35:33.999Z</time>
      </trkpt>
      <trkpt lat="43.9705" lon="2.99689">
        <ele>809</ele>
        <time>2026-04-30T08:35:34.999Z</time>
      </trkpt>
      <trkpt lat="43.9705" lon="2.9969">
        <ele>809.2</ele>
        <time>2026-04-30T08:35:35.999Z</time>
      </trkpt>
      <trkpt lat="43.9705" lon="2.99691">
        <ele>809.5</ele>
        <time>2026-04-30T08:35:36.999Z</time>
      </trkpt>
      <trkpt lat="43.97049" lon="2.99693">
        <ele>809.6</ele>
        <time>2026-04-30T08:35:37.999Z</time>
      </trkpt>
      <trkpt lat="43.97048" lon="2.99695">
        <ele>809.7</ele>
        <time>2026-04-30T08:35:38.999Z</time>
      </trkpt>
      <trkpt lat="43.97047" lon="2.99697">
        <ele>809.8</ele>
        <time>2026-04-30T08:35:39.999Z</time>
      </trkpt>
      <trkpt lat="43.97047" lon="2.99697">
        <ele>809.9</ele>
        <time>2026-04-30T08:35:40.999Z</time>
      </trkpt>
      <trkpt lat="43.97047" lon="2.99698">
        <ele>810.4</ele>
        <time>2026-04-30T08:35:41.999Z</time>
      </trkpt>
      <trkpt lat="43.97046" lon="2.99699">
        <ele>810.6</ele>
        <time>2026-04-30T08:35:42.999Z</time>
      </trkpt>
      <trkpt lat="43.97046" lon="2.99701">
        <ele>811</ele>
        <time>2026-04-30T08:35:43.999Z</time>
      </trkpt>
      <trkpt lat="43.97046" lon="2.99703">
        <ele>811.2</ele>
        <time>2026-04-30T08:35:44.999Z</time>
      </trkpt>
      <trkpt lat="43.97045" lon="2.99704">
        <ele>811.8</ele>
        <time>2026-04-30T08:35:45.999Z</time>
      </trkpt>
      <trkpt lat="43.97044" lon="2.99705">
        <ele>812.4</ele>
        <time>2026-04-30T08:35:46.999Z</time>
      </trkpt>
      <trkpt lat="43.97043" lon="2.99706">
        <ele>812.4</ele>
        <time>2026-04-30T08:35:47.999Z</time>
      </trkpt>
      <trkpt lat="43.97042" lon="2.99706">
        <ele>812.8</ele>
        <time>2026-04-30T08:35:48.999Z</time>
      </trkpt>
      <trkpt lat="43.97042" lon="2.99706">
        <ele>813.4</ele>
        <time>2026-04-30T08:35:49.999Z</time>
      </trkpt>
      <trkpt lat="43.97041" lon="2.99707">
        <ele>813.6</ele>
        <time>2026-04-30T08:35:50.999Z</time>
      </trkpt>
      <trkpt lat="43.9704" lon="2.99708">
        <ele>814.1</ele>
        <time>2026-04-30T08:35:51.999Z</time>
      </trkpt>
      <trkpt lat="43.97039" lon="2.99708">
        <ele>814.1</ele>
        <time>2026-04-30T08:35:52.999Z</time>
      </trkpt>
      <trkpt lat="43.97038" lon="2.99708">
        <ele>814.4</ele>
        <time>2026-04-30T08:35:53.999Z</time>
      </trkpt>
      <trkpt lat="43.97038" lon="2.99708">
        <ele>814.8</ele>
        <time>2026-04-30T08:35:54.999Z</time>
      </trkpt>
      <trkpt lat="43.97037" lon="2.99708">
        <ele>814.9</ele>
        <time>2026-04-30T08:35:55.999Z</time>
      </trkpt>
      <trkpt lat="43.97036" lon="2.99708">
        <ele>814.9</ele>
        <time>2026-04-30T08:35:56.999Z</time>
      </trkpt>
      <trkpt lat="43.97035" lon="2.99708">
        <ele>815.5</ele>
        <time>2026-04-30T08:35:57.999Z</time>
      </trkpt>
      <trkpt lat="43.97034" lon="2.99708">
        <ele>815.7</ele>
        <time>2026-04-30T08:35:58.999Z</time>
      </trkpt>
      <trkpt lat="43.97033" lon="2.99709">
        <ele>816.4</ele>
        <time>2026-04-30T08:35:59.999Z</time>
      </trkpt>
      <trkpt lat="43.97033" lon="2.99711">
        <ele>817.1</ele>
        <time>2026-04-30T08:36:00.999Z</time>
      </trkpt>
      <trkpt lat="43.97033" lon="2.99712">
        <ele>817.2</ele>
        <time>2026-04-30T08:36:01.999Z</time>
      </trkpt>
      <trkpt lat="43.97033" lon="2.99713">
        <ele>817.8</ele>
        <time>2026-04-30T08:36:02.999Z</time>
      </trkpt>
      <trkpt lat="43.97033" lon="2.99715">
        <ele>817.9</ele>
        <time>2026-04-30T08:36:03.999Z</time>
      </trkpt>
      <trkpt lat="43.97032" lon="2.99716">
        <ele>817.9</ele>
        <time>2026-04-30T08:36:04.999Z</time>
      </trkpt>
      <trkpt lat="43.97032" lon="2.99717">
        <ele>817.9</ele>
        <time>2026-04-30T08:36:05.999Z</time>
      </trkpt>
      <trkpt lat="43.97031" lon="2.99717">
        <ele>818.1</ele>
        <time>2026-04-30T08:36:06.999Z</time>
      </trkpt>
      <trkpt lat="43.97031" lon="2.99719">
        <ele>817.9</ele>
        <time>2026-04-30T08:36:07.999Z</time>
      </trkpt>
      <trkpt lat="43.97031" lon="2.9972">
        <ele>818.1</ele>
        <time>2026-04-30T08:36:08.999Z</time>
      </trkpt>
      <trkpt lat="43.9703" lon="2.99721">
        <ele>818.6</ele>
        <time>2026-04-30T08:36:10.999Z</time>
      </trkpt>
      <trkpt lat="43.9703" lon="2.99723">
        <ele>818.9</ele>
        <time>2026-04-30T08:36:11.999Z</time>
      </trkpt>
      <trkpt lat="43.97029" lon="2.99723">
        <ele>819.2</ele>
        <time>2026-04-30T08:36:12.999Z</time>
      </trkpt>
      <trkpt lat="43.97029" lon="2.99724">
        <ele>819.5</ele>
        <time>2026-04-30T08:36:13.999Z</time>
      </trkpt>
      <trkpt lat="43.97028" lon="2.99724">
        <ele>820.1</ele>
        <time>2026-04-30T08:36:14.999Z</time>
      </trkpt>
      <trkpt lat="43.97028" lon="2.99724">
        <ele>820.5</ele>
        <time>2026-04-30T08:36:15.999Z</time>
      </trkpt>
      <trkpt lat="43.97027" lon="2.99725">
        <ele>821</ele>
        <time>2026-04-30T08:36:16.999Z</time>
      </trkpt>
      <trkpt lat="43.97026" lon="2.99725">
        <ele>821.4</ele>
        <time>2026-04-30T08:36:17.999Z</time>
      </trkpt>
      <trkpt lat="43.97024" lon="2.99726">
        <ele>821.7</ele>
        <time>2026-04-30T08:36:18.999Z</time>
      </trkpt>
      <trkpt lat="43.97024" lon="2.99728">
        <ele>821.7</ele>
        <time>2026-04-30T08:36:19.999Z</time>
      </trkpt>
      <trkpt lat="43.97022" lon="2.99729">
        <ele>820.7</ele>
        <time>2026-04-30T08:36:20.999Z</time>
      </trkpt>
      <trkpt lat="43.9702" lon="2.99729">
        <ele>820.3</ele>
        <time>2026-04-30T08:36:21.999Z</time>
      </trkpt>
      <trkpt lat="43.97019" lon="2.99729">
        <ele>820</ele>
        <time>2026-04-30T08:36:22.999Z</time>
      </trkpt>
      <trkpt lat="43.97018" lon="2.9973">
        <ele>819.4</ele>
        <time>2026-04-30T08:36:23.999Z</time>
      </trkpt>
      <trkpt lat="43.97018" lon="2.99731">
        <ele>819.4</ele>
        <time>2026-04-30T08:36:24.999Z</time>
      </trkpt>
      <trkpt lat="43.97018" lon="2.99731">
        <ele>819.4</ele>
        <time>2026-04-30T08:36:25.999Z</time>
      </trkpt>
      <trkpt lat="43.97017" lon="2.9973">
        <ele>819.3</ele>
        <time>2026-04-30T08:36:26.999Z</time>
      </trkpt>
      <trkpt lat="43.97016" lon="2.9973">
        <ele>819.1</ele>
        <time>2026-04-30T08:36:27.999Z</time>
      </trkpt>
      <trkpt lat="43.97015" lon="2.99729">
        <ele>819.2</ele>
        <time>2026-04-30T08:36:28.999Z</time>
      </trkpt>
      <trkpt lat="43.97014" lon="2.9973">
        <ele>819.7</ele>
        <time>2026-04-30T08:36:29.999Z</time>
      </trkpt>
      <trkpt lat="43.97013" lon="2.9973">
        <ele>820.3</ele>
        <time>2026-04-30T08:36:30.999Z</time>
      </trkpt>
      <trkpt lat="43.97012" lon="2.99732">
        <ele>819.9</ele>
        <time>2026-04-30T08:36:31.999Z</time>
      </trkpt>
      <trkpt lat="43.97012" lon="2.99733">
        <ele>819.8</ele>
        <time>2026-04-30T08:36:32.999Z</time>
      </trkpt>
      <trkpt lat="43.97011" lon="2.99734">
        <ele>819.6</ele>
        <time>2026-04-30T08:36:33.999Z</time>
      </trkpt>
      <trkpt lat="43.97011" lon="2.99735">
        <ele>819.6</ele>
        <time>2026-04-30T08:36:34.999Z</time>
      </trkpt>
      <trkpt lat="43.97011" lon="2.99736">
        <ele>819.3</ele>
        <time>2026-04-30T08:36:35.999Z</time>
      </trkpt>
      <trkpt lat="43.97011" lon="2.99737">
        <ele>819</ele>
        <time>2026-04-30T08:36:36.999Z</time>
      </trkpt>
      <trkpt lat="43.97011" lon="2.99737">
        <ele>819</ele>
        <time>2026-04-30T08:36:37.999Z</time>
      </trkpt>
      <trkpt lat="43.97011" lon="2.99737">
        <ele>819.2</ele>
        <time>2026-04-30T08:36:38.999Z</time>
      </trkpt>
      <trkpt lat="43.97011" lon="2.99738">
        <ele>819.1</ele>
        <time>2026-04-30T08:36:39.999Z</time>
      </trkpt>
      <trkpt lat="43.97011" lon="2.99738">
        <ele>819.4</ele>
        <time>2026-04-30T08:36:40.999Z</time>
      </trkpt>
      <trkpt lat="43.97011" lon="2.99739">
        <ele>819.2</ele>
        <time>2026-04-30T08:36:41.999Z</time>
      </trkpt>
      <trkpt lat="43.97011" lon="2.99741">
        <ele>819.6</ele>
        <time>2026-04-30T08:36:42.999Z</time>
      </trkpt>
      <trkpt lat="43.97012" lon="2.99743">
        <ele>819.6</ele>
        <time>2026-04-30T08:36:43.999Z</time>
      </trkpt>
      <trkpt lat="43.97013" lon="2.99744">
        <ele>819.9</ele>
        <time>2026-04-30T08:36:44.999Z</time>
      </trkpt>
      <trkpt lat="43.97013" lon="2.99746">
        <ele>820.2</ele>
        <time>2026-04-30T08:36:45.999Z</time>
      </trkpt>
      <trkpt lat="43.97013" lon="2.99748">
        <ele>820.7</ele>
        <time>2026-04-30T08:36:46.999Z</time>
      </trkpt>
      <trkpt lat="43.97013" lon="2.99749">
        <ele>820.8</ele>
        <time>2026-04-30T08:36:47.999Z</time>
      </trkpt>
      <trkpt lat="43.97013" lon="2.99749">
        <ele>821.1</ele>
        <time>2026-04-30T08:36:48.999Z</time>
      </trkpt>
      <trkpt lat="43.97013" lon="2.9975">
        <ele>821.6</ele>
        <time>2026-04-30T08:36:49.999Z</time>
      </trkpt>
      <trkpt lat="43.97014" lon="2.99751">
        <ele>821.8</ele>
        <time>2026-04-30T08:36:50.999Z</time>
      </trkpt>
      <trkpt lat="43.97014" lon="2.99752">
        <ele>821.9</ele>
        <time>2026-04-30T08:36:51.999Z</time>
      </trkpt>
      <trkpt lat="43.97015" lon="2.99754">
        <ele>822</ele>
        <time>2026-04-30T08:36:52.999Z</time>
      </trkpt>
      <trkpt lat="43.97015" lon="2.99755">
        <ele>822.1</ele>
        <time>2026-04-30T08:36:53.999Z</time>
      </trkpt>
      <trkpt lat="43.97015" lon="2.99755">
        <ele>822.2</ele>
        <time>2026-04-30T08:36:54.999Z</time>
      </trkpt>
      <trkpt lat="43.97015" lon="2.99755">
        <ele>822.3</ele>
        <time>2026-04-30T08:36:55.999Z</time>
      </trkpt>
      <trkpt lat="43.97015" lon="2.99756">
        <ele>822.5</ele>
        <time>2026-04-30T08:36:56.999Z</time>
      </trkpt>
      <trkpt lat="43.97015" lon="2.99756">
        <ele>822.8</ele>
        <time>2026-04-30T08:36:57.999Z</time>
      </trkpt>
      <trkpt lat="43.97014" lon="2.99758">
        <ele>823.1</ele>
        <time>2026-04-30T08:36:58.999Z</time>
      </trkpt>
      <trkpt lat="43.97014" lon="2.9976">
        <ele>823.4</ele>
        <time>2026-04-30T08:36:59.999Z</time>
      </trkpt>
      <trkpt lat="43.97013" lon="2.99762">
        <ele>823.4</ele>
        <time>2026-04-30T08:37:00.999Z</time>
      </trkpt>
      <trkpt lat="43.97013" lon="2.99763">
        <ele>823.2</ele>
        <time>2026-04-30T08:37:01.999Z</time>
      </trkpt>
      <trkpt lat="43.97013" lon="2.99764">
        <ele>823.2</ele>
        <time>2026-04-30T08:37:02.999Z</time>
      </trkpt>
      <trkpt lat="43.97013" lon="2.99766">
        <ele>823.6</ele>
        <time>2026-04-30T08:37:03.999Z</time>
      </trkpt>
      <trkpt lat="43.97013" lon="2.99767">
        <ele>824.1</ele>
        <time>2026-04-30T08:37:04.999Z</time>
      </trkpt>
      <trkpt lat="43.97013" lon="2.99769">
        <ele>824.7</ele>
        <time>2026-04-30T08:37:05.999Z</time>
      </trkpt>
      <trkpt lat="43.97013" lon="2.99769">
        <ele>825.1</ele>
        <time>2026-04-30T08:37:06.999Z</time>
      </trkpt>
      <trkpt lat="43.97014" lon="2.99768">
        <ele>825.1</ele>
        <time>2026-04-30T08:37:07.999Z</time>
      </trkpt>
      <trkpt lat="43.97013" lon="2.99768">
        <ele>825</ele>
        <time>2026-04-30T08:37:08.999Z</time>
      </trkpt>
      <trkpt lat="43.97012" lon="2.99768">
        <ele>824.9</ele>
        <time>2026-04-30T08:37:09.999Z</time>
      </trkpt>
      <trkpt lat="43.97012" lon="2.99768">
        <ele>825.2</ele>
        <time>2026-04-30T08:37:10.999Z</time>
      </trkpt>
      <trkpt lat="43.97011" lon="2.9977">
        <ele>825.5</ele>
        <time>2026-04-30T08:37:11.999Z</time>
      </trkpt>
      <trkpt lat="43.97009" lon="2.99772">
        <ele>825.8</ele>
        <time>2026-04-30T08:37:12.999Z</time>
      </trkpt>
      <trkpt lat="43.97008" lon="2.99773">
        <ele>826.1</ele>
        <time>2026-04-30T08:37:13.999Z</time>
      </trkpt>
      <trkpt lat="43.97006" lon="2.99774">
        <ele>826.1</ele>
        <time>2026-04-30T08:37:14.999Z</time>
      </trkpt>
      <trkpt lat="43.97004" lon="2.99775">
        <ele>826.4</ele>
        <time>2026-04-30T08:37:15.999Z</time>
      </trkpt>
      <trkpt lat="43.97002" lon="2.99776">
        <ele>826.8</ele>
        <time>2026-04-30T08:37:16.999Z</time>
      </trkpt>
      <trkpt lat="43.97001" lon="2.99776">
        <ele>827.2</ele>
        <time>2026-04-30T08:37:17.999Z</time>
      </trkpt>
      <trkpt lat="43.96999" lon="2.99777">
        <ele>827</ele>
        <time>2026-04-30T08:37:18.999Z</time>
      </trkpt>
      <trkpt lat="43.96997" lon="2.99778">
        <ele>827.2</ele>
        <time>2026-04-30T08:37:19.999Z</time>
      </trkpt>
      <trkpt lat="43.96996" lon="2.99779">
        <ele>827.6</ele>
        <time>2026-04-30T08:37:20.999Z</time>
      </trkpt>
      <trkpt lat="43.96995" lon="2.99779">
        <ele>828</ele>
        <time>2026-04-30T08:37:21.999Z</time>
      </trkpt>
      <trkpt lat="43.96994" lon="2.9978">
        <ele>828.2</ele>
        <time>2026-04-30T08:37:22.999Z</time>
      </trkpt>
      <trkpt lat="43.96993" lon="2.99782">
        <ele>828.8</ele>
        <time>2026-04-30T08:37:23.999Z</time>
      </trkpt>
      <trkpt lat="43.96993" lon="2.99783">
        <ele>829.5</ele>
        <time>2026-04-30T08:37:24.999Z</time>
      </trkpt>
      <trkpt lat="43.96992" lon="2.99784">
        <ele>829.7</ele>
        <time>2026-04-30T08:37:25.999Z</time>
      </trkpt>
      <trkpt lat="43.96992" lon="2.99785">
        <ele>829.9</ele>
        <time>2026-04-30T08:37:26.999Z</time>
      </trkpt>
      <trkpt lat="43.96992" lon="2.99787">
        <ele>829.7</ele>
        <time>2026-04-30T08:37:27.999Z</time>
      </trkpt>
      <trkpt lat="43.96992" lon="2.99788">
        <ele>830.1</ele>
        <time>2026-04-30T08:37:28.999Z</time>
      </trkpt>
      <trkpt lat="43.96991" lon="2.9979">
        <ele>830.3</ele>
        <time>2026-04-30T08:37:29.999Z</time>
      </trkpt>
      <trkpt lat="43.9699" lon="2.99791">
        <ele>830.5</ele>
        <time>2026-04-30T08:37:30.999Z</time>
      </trkpt>
      <trkpt lat="43.96989" lon="2.99793">
        <ele>831</ele>
        <time>2026-04-30T08:37:31.999Z</time>
      </trkpt>
      <trkpt lat="43.96987" lon="2.99795">
        <ele>831</ele>
        <time>2026-04-30T08:37:32.999Z</time>
      </trkpt>
      <trkpt lat="43.96985" lon="2.99796">
        <ele>831.3</ele>
        <time>2026-04-30T08:37:33.999Z</time>
      </trkpt>
      <trkpt lat="43.96984" lon="2.99798">
        <ele>830.6</ele>
        <time>2026-04-30T08:37:34.999Z</time>
      </trkpt>
      <trkpt lat="43.96984" lon="2.99799">
        <ele>830.2</ele>
        <time>2026-04-30T08:37:35.999Z</time>
      </trkpt>
      <trkpt lat="43.96982" lon="2.998">
        <ele>829.6</ele>
        <time>2026-04-30T08:37:36.999Z</time>
      </trkpt>
      <trkpt lat="43.96982" lon="2.99802">
        <ele>829.3</ele>
        <time>2026-04-30T08:37:37.999Z</time>
      </trkpt>
      <trkpt lat="43.96981" lon="2.99803">
        <ele>829.1</ele>
        <time>2026-04-30T08:37:38.999Z</time>
      </trkpt>
      <trkpt lat="43.9698" lon="2.99805">
        <ele>829.2</ele>
        <time>2026-04-30T08:37:39.999Z</time>
      </trkpt>
      <trkpt lat="43.96979" lon="2.99806">
        <ele>829.2</ele>
        <time>2026-04-30T08:37:40.999Z</time>
      </trkpt>
      <trkpt lat="43.96977" lon="2.99807">
        <ele>829.2</ele>
        <time>2026-04-30T08:37:41.999Z</time>
      </trkpt>
      <trkpt lat="43.96975" lon="2.99808">
        <ele>829.3</ele>
        <time>2026-04-30T08:37:42.999Z</time>
      </trkpt>
      <trkpt lat="43.96974" lon="2.99808">
        <ele>829.1</ele>
        <time>2026-04-30T08:37:43.999Z</time>
      </trkpt>
      <trkpt lat="43.96972" lon="2.99809">
        <ele>829.1</ele>
        <time>2026-04-30T08:37:44.999Z</time>
      </trkpt>
      <trkpt lat="43.96971" lon="2.99809">
        <ele>829.3</ele>
        <time>2026-04-30T08:37:45.999Z</time>
      </trkpt>
      <trkpt lat="43.9697" lon="2.99808">
        <ele>829.2</ele>
        <time>2026-04-30T08:37:46.999Z</time>
      </trkpt>
      <trkpt lat="43.96969" lon="2.99808">
        <ele>829.6</ele>
        <time>2026-04-30T08:37:47.999Z</time>
      </trkpt>
      <trkpt lat="43.96967" lon="2.99807">
        <ele>830</ele>
        <time>2026-04-30T08:37:48.999Z</time>
      </trkpt>
      <trkpt lat="43.96967" lon="2.99807">
        <ele>830</ele>
        <time>2026-04-30T08:37:49.999Z</time>
      </trkpt>
      <trkpt lat="43.96966" lon="2.99808">
        <ele>829.8</ele>
        <time>2026-04-30T08:37:50.999Z</time>
      </trkpt>
      <trkpt lat="43.96966" lon="2.9981">
        <ele>829.6</ele>
        <time>2026-04-30T08:37:51.999Z</time>
      </trkpt>
      <trkpt lat="43.96965" lon="2.99811">
        <ele>829.4</ele>
        <time>2026-04-30T08:37:52.999Z</time>
      </trkpt>
      <trkpt lat="43.96964" lon="2.99812">
        <ele>829.3</ele>
        <time>2026-04-30T08:37:53.999Z</time>
      </trkpt>
      <trkpt lat="43.96964" lon="2.99813">
        <ele>829.3</ele>
        <time>2026-04-30T08:37:54.999Z</time>
      </trkpt>
      <trkpt lat="43.96964" lon="2.99813">
        <ele>829.3</ele>
        <time>2026-04-30T08:37:55.999Z</time>
      </trkpt>
      <trkpt lat="43.96963" lon="2.99813">
        <ele>829.2</ele>
        <time>2026-04-30T08:37:56.999Z</time>
      </trkpt>
      <trkpt lat="43.96962" lon="2.99814">
        <ele>829</ele>
        <time>2026-04-30T08:37:57.999Z</time>
      </trkpt>
      <trkpt lat="43.96961" lon="2.99815">
        <ele>828.8</ele>
        <time>2026-04-30T08:37:58.999Z</time>
      </trkpt>
      <trkpt lat="43.96961" lon="2.99816">
        <ele>829</ele>
        <time>2026-04-30T08:37:59.999Z</time>
      </trkpt>
      <trkpt lat="43.9696" lon="2.99818">
        <ele>829.1</ele>
        <time>2026-04-30T08:38:00.999Z</time>
      </trkpt>
      <trkpt lat="43.9696" lon="2.99818">
        <ele>829.2</ele>
        <time>2026-04-30T08:38:01.999Z</time>
      </trkpt>
      <trkpt lat="43.96959" lon="2.99819">
        <ele>828.8</ele>
        <time>2026-04-30T08:38:02.999Z</time>
      </trkpt>
      <trkpt lat="43.96959" lon="2.9982">
        <ele>828.9</ele>
        <time>2026-04-30T08:38:03.999Z</time>
      </trkpt>
      <trkpt lat="43.96959" lon="2.99821">
        <ele>828.8</ele>
        <time>2026-04-30T08:38:04.999Z</time>
      </trkpt>
      <trkpt lat="43.96958" lon="2.99823">
        <ele>829.3</ele>
        <time>2026-04-30T08:38:05.999Z</time>
      </trkpt>
      <trkpt lat="43.96958" lon="2.99824">
        <ele>829.3</ele>
        <time>2026-04-30T08:38:06.999Z</time>
      </trkpt>
      <trkpt lat="43.96958" lon="2.99826">
        <ele>829.5</ele>
        <time>2026-04-30T08:38:07.999Z</time>
      </trkpt>
      <trkpt lat="43.96957" lon="2.99827">
        <ele>829.8</ele>
        <time>2026-04-30T08:38:08.999Z</time>
      </trkpt>
      <trkpt lat="43.96956" lon="2.99828">
        <ele>829.9</ele>
        <time>2026-04-30T08:38:09.999Z</time>
      </trkpt>
      <trkpt lat="43.96955" lon="2.99829">
        <ele>830.1</ele>
        <time>2026-04-30T08:38:10.999Z</time>
      </trkpt>
      <trkpt lat="43.96954" lon="2.99831">
        <ele>829.9</ele>
        <time>2026-04-30T08:38:11.999Z</time>
      </trkpt>
      <trkpt lat="43.96953" lon="2.99833">
        <ele>829.4</ele>
        <time>2026-04-30T08:38:12.999Z</time>
      </trkpt>
      <trkpt lat="43.96952" lon="2.99834">
        <ele>828.9</ele>
        <time>2026-04-30T08:38:13.999Z</time>
      </trkpt>
      <trkpt lat="43.96952" lon="2.99834">
        <ele>828.6</ele>
        <time>2026-04-30T08:38:14.999Z</time>
      </trkpt>
      <trkpt lat="43.96952" lon="2.99835">
        <ele>828.6</ele>
        <time>2026-04-30T08:38:15.999Z</time>
      </trkpt>
      <trkpt lat="43.96952" lon="2.99835">
        <ele>828.4</ele>
        <time>2026-04-30T08:38:16.999Z</time>
      </trkpt>
      <trkpt lat="43.96951" lon="2.99835">
        <ele>827.8</ele>
        <time>2026-04-30T08:38:17.999Z</time>
      </trkpt>
      <trkpt lat="43.96951" lon="2.99836">
        <ele>827.8</ele>
        <time>2026-04-30T08:38:18.999Z</time>
      </trkpt>
      <trkpt lat="43.96951" lon="2.99837">
        <ele>827.8</ele>
        <time>2026-04-30T08:38:19.999Z</time>
      </trkpt>
      <trkpt lat="43.96951" lon="2.99838">
        <ele>827.8</ele>
        <time>2026-04-30T08:38:20.999Z</time>
      </trkpt>
      <trkpt lat="43.96951" lon="2.99839">
        <ele>827.6</ele>
        <time>2026-04-30T08:38:21.999Z</time>
      </trkpt>
      <trkpt lat="43.96952" lon="2.99839">
        <ele>827.4</ele>
        <time>2026-04-30T08:38:22.999Z</time>
      </trkpt>
      <trkpt lat="43.96952" lon="2.99841">
        <ele>826.1</ele>
        <time>2026-04-30T08:38:23.999Z</time>
      </trkpt>
      <trkpt lat="43.96954" lon="2.99842">
        <ele>826.2</ele>
        <time>2026-04-30T08:38:24.999Z</time>
      </trkpt>
      <trkpt lat="43.96955" lon="2.99843">
        <ele>826</ele>
        <time>2026-04-30T08:38:25.999Z</time>
      </trkpt>
      <trkpt lat="43.96956" lon="2.99846">
        <ele>826.5</ele>
        <time>2026-04-30T08:38:26.999Z</time>
      </trkpt>
      <trkpt lat="43.96957" lon="2.99848">
        <ele>826.8</ele>
        <time>2026-04-30T08:38:27.999Z</time>
      </trkpt>
      <trkpt lat="43.96957" lon="2.99849">
        <ele>827.5</ele>
        <time>2026-04-30T08:38:28.999Z</time>
      </trkpt>
      <trkpt lat="43.96957" lon="2.99851">
        <ele>827.8</ele>
        <time>2026-04-30T08:38:29.999Z</time>
      </trkpt>
      <trkpt lat="43.96957" lon="2.99852">
        <ele>827.8</ele>
        <time>2026-04-30T08:38:30.999Z</time>
      </trkpt>
      <trkpt lat="43.96958" lon="2.99855">
        <ele>827.8</ele>
        <time>2026-04-30T08:38:31.999Z</time>
      </trkpt>
      <trkpt lat="43.96958" lon="2.99857">
        <ele>827.6</ele>
        <time>2026-04-30T08:38:32.999Z</time>
      </trkpt>
      <trkpt lat="43.96958" lon="2.99859">
        <ele>827.2</ele>
        <time>2026-04-30T08:38:33.999Z</time>
      </trkpt>
      <trkpt lat="43.96959" lon="2.9986">
        <ele>826.9</ele>
        <time>2026-04-30T08:38:34.999Z</time>
      </trkpt>
      <trkpt lat="43.9696" lon="2.9986">
        <ele>827.4</ele>
        <time>2026-04-30T08:38:35.999Z</time>
      </trkpt>
      <trkpt lat="43.96961" lon="2.9986">
        <ele>827.5</ele>
        <time>2026-04-30T08:38:36.999Z</time>
      </trkpt>
      <trkpt lat="43.96961" lon="2.9986">
        <ele>827.3</ele>
        <time>2026-04-30T08:38:37.999Z</time>
      </trkpt>
      <trkpt lat="43.96962" lon="2.9986">
        <ele>827.2</ele>
        <time>2026-04-30T08:38:38.999Z</time>
      </trkpt>
      <trkpt lat="43.96963" lon="2.99861">
        <ele>827.1</ele>
        <time>2026-04-30T08:38:39.999Z</time>
      </trkpt>
      <trkpt lat="43.96963" lon="2.99861">
        <ele>827.1</ele>
        <time>2026-04-30T08:38:40.999Z</time>
      </trkpt>
      <trkpt lat="43.96963" lon="2.9986">
        <ele>827.2</ele>
        <time>2026-04-30T08:38:41.999Z</time>
      </trkpt>
      <trkpt lat="43.96963" lon="2.9986">
        <ele>826.7</ele>
        <time>2026-04-30T08:38:42.999Z</time>
      </trkpt>
      <trkpt lat="43.96963" lon="2.9986">
        <ele>826.3</ele>
        <time>2026-04-30T08:38:43.999Z</time>
      </trkpt>
      <trkpt lat="43.96963" lon="2.99861">
        <ele>826</ele>
        <time>2026-04-30T08:38:44.999Z</time>
      </trkpt>
      <trkpt lat="43.96963" lon="2.99861">
        <ele>825.5</ele>
        <time>2026-04-30T08:38:45.999Z</time>
      </trkpt>
      <trkpt lat="43.96963" lon="2.99861">
        <ele>825.7</ele>
        <time>2026-04-30T08:38:46.999Z</time>
      </trkpt>
      <trkpt lat="43.96964" lon="2.99861">
        <ele>825.7</ele>
        <time>2026-04-30T08:38:47.999Z</time>
      </trkpt>
      <trkpt lat="43.96964" lon="2.99861">
        <ele>825.7</ele>
        <time>2026-04-30T08:38:48.999Z</time>
      </trkpt>
      <trkpt lat="43.96964" lon="2.99861">
        <ele>825.8</ele>
        <time>2026-04-30T08:38:49.999Z</time>
      </trkpt>
      <trkpt lat="43.96964" lon="2.99861">
        <ele>825.7</ele>
        <time>2026-04-30T08:38:50.999Z</time>
      </trkpt>
      <trkpt lat="43.96964" lon="2.99861">
        <ele>825.6</ele>
        <time>2026-04-30T08:38:51.999Z</time>
      </trkpt>
      <trkpt lat="43.96964" lon="2.99861">
        <ele>825.5</ele>
        <time>2026-04-30T08:38:52.999Z</time>
      </trkpt>
      <trkpt lat="43.96964" lon="2.99861">
        <ele>825</ele>
        <time>2026-04-30T08:38:53.999Z</time>
      </trkpt>
      <trkpt lat="43.96965" lon="2.99861">
        <ele>824.5</ele>
        <time>2026-04-30T08:38:54.999Z</time>
      </trkpt>
      <trkpt lat="43.96965" lon="2.99862">
        <ele>824.2</ele>
        <time>2026-04-30T08:38:55.999Z</time>
      </trkpt>
      <trkpt lat="43.96967" lon="2.99863">
        <ele>823.6</ele>
        <time>2026-04-30T08:38:56.999Z</time>
      </trkpt>
      <trkpt lat="43.9697" lon="2.99865">
        <ele>823.3</ele>
        <time>2026-04-30T08:38:57.999Z</time>
      </trkpt>
      <trkpt lat="43.96971" lon="2.99866">
        <ele>822.7</ele>
        <time>2026-04-30T08:38:58.999Z</time>
      </trkpt>
      <trkpt lat="43.96972" lon="2.99867">
        <ele>822</ele>
        <time>2026-04-30T08:38:59.999Z</time>
      </trkpt>
      <trkpt lat="43.96974" lon="2.99868">
        <ele>821.7</ele>
        <time>2026-04-30T08:39:00.999Z</time>
      </trkpt>
      <trkpt lat="43.96974" lon="2.99869">
        <ele>821.4</ele>
        <time>2026-04-30T08:39:01.999Z</time>
      </trkpt>
      <trkpt lat="43.96976" lon="2.99871">
        <ele>820.9</ele>
        <time>2026-04-30T08:39:02.999Z</time>
      </trkpt>
      <trkpt lat="43.96977" lon="2.99872">
        <ele>820.9</ele>
        <time>2026-04-30T08:39:03.999Z</time>
      </trkpt>
      <trkpt lat="43.96977" lon="2.99873">
        <ele>820.9</ele>
        <time>2026-04-30T08:39:04.999Z</time>
      </trkpt>
      <trkpt lat="43.96977" lon="2.99873">
        <ele>820.9</ele>
        <time>2026-04-30T08:39:05.999Z</time>
      </trkpt>
      <trkpt lat="43.96977" lon="2.99873">
        <ele>821</ele>
        <time>2026-04-30T08:39:06.999Z</time>
      </trkpt>
      <trkpt lat="43.96976" lon="2.99874">
        <ele>821.1</ele>
        <time>2026-04-30T08:39:07.999Z</time>
      </trkpt>
      <trkpt lat="43.96976" lon="2.99874">
        <ele>821</ele>
        <time>2026-04-30T08:39:08.999Z</time>
      </trkpt>
      <trkpt lat="43.96976" lon="2.99874">
        <ele>821.1</ele>
        <time>2026-04-30T08:39:09.999Z</time>
      </trkpt>
      <trkpt lat="43.96976" lon="2.99874">
        <ele>821.3</ele>
        <time>2026-04-30T08:39:10.999Z</time>
      </trkpt>
      <trkpt lat="43.96976" lon="2.99874">
        <ele>821.4</ele>
        <time>2026-04-30T08:39:11.999Z</time>
      </trkpt>
      <trkpt lat="43.96976" lon="2.99875">
        <ele>821.2</ele>
        <time>2026-04-30T08:39:12.999Z</time>
      </trkpt>
      <trkpt lat="43.96976" lon="2.99875">
        <ele>821.2</ele>
        <time>2026-04-30T08:39:13.999Z</time>
      </trkpt>
      <trkpt lat="43.96977" lon="2.99877">
        <ele>821.2</ele>
        <time>2026-04-30T08:39:14.999Z</time>
      </trkpt>
      <trkpt lat="43.96976" lon="2.99878">
        <ele>821.3</ele>
        <time>2026-04-30T08:39:15.999Z</time>
      </trkpt>
      <trkpt lat="43.96974" lon="2.99879">
        <ele>821.4</ele>
        <time>2026-04-30T08:39:16.999Z</time>
      </trkpt>
      <trkpt lat="43.96974" lon="2.99879">
        <ele>821.6</ele>
        <time>2026-04-30T08:39:17.999Z</time>
      </trkpt>
      <trkpt lat="43.96973" lon="2.99881">
        <ele>821.8</ele>
        <time>2026-04-30T08:39:18.999Z</time>
      </trkpt>
      <trkpt lat="43.96972" lon="2.99882">
        <ele>821.9</ele>
        <time>2026-04-30T08:39:19.999Z</time>
      </trkpt>
      <trkpt lat="43.96972" lon="2.99882">
        <ele>821.9</ele>
        <time>2026-04-30T08:39:20.999Z</time>
      </trkpt>
      <trkpt lat="43.96971" lon="2.99883">
        <ele>821.9</ele>
        <time>2026-04-30T08:39:21.999Z</time>
      </trkpt>
      <trkpt lat="43.96971" lon="2.99883">
        <ele>821.6</ele>
        <time>2026-04-30T08:39:22.999Z</time>
      </trkpt>
      <trkpt lat="43.96971" lon="2.99883">
        <ele>821.4</ele>
        <time>2026-04-30T08:39:23.999Z</time>
      </trkpt>
      <trkpt lat="43.96971" lon="2.99885">
        <ele>821.2</ele>
        <time>2026-04-30T08:39:24.999Z</time>
      </trkpt>
      <trkpt lat="43.96971" lon="2.99887">
        <ele>821.2</ele>
        <time>2026-04-30T08:39:25.999Z</time>
      </trkpt>
      <trkpt lat="43.9697" lon="2.99889">
        <ele>821.1</ele>
        <time>2026-04-30T08:39:26.999Z</time>
      </trkpt>
      <trkpt lat="43.9697" lon="2.99892">
        <ele>820.9</ele>
        <time>2026-04-30T08:39:27.999Z</time>
      </trkpt>
      <trkpt lat="43.9697" lon="2.99893">
        <ele>820.8</ele>
        <time>2026-04-30T08:39:28.999Z</time>
      </trkpt>
      <trkpt lat="43.9697" lon="2.99895">
        <ele>820.5</ele>
        <time>2026-04-30T08:39:29.999Z</time>
      </trkpt>
      <trkpt lat="43.9697" lon="2.99895">
        <ele>820.1</ele>
        <time>2026-04-30T08:39:30.999Z</time>
      </trkpt>
      <trkpt lat="43.96969" lon="2.99896">
        <ele>820</ele>
        <time>2026-04-30T08:39:31.999Z</time>
      </trkpt>
      <trkpt lat="43.96969" lon="2.99896">
        <ele>819.9</ele>
        <time>2026-04-30T08:39:32.999Z</time>
      </trkpt>
      <trkpt lat="43.96969" lon="2.99896">
        <ele>819.9</ele>
        <time>2026-04-30T08:39:33.999Z</time>
      </trkpt>
      <trkpt lat="43.96969" lon="2.99897">
        <ele>819.9</ele>
        <time>2026-04-30T08:39:34.999Z</time>
      </trkpt>
      <trkpt lat="43.96968" lon="2.99898">
        <ele>820.5</ele>
        <time>2026-04-30T08:39:35.999Z</time>
      </trkpt>
      <trkpt lat="43.96968" lon="2.999">
        <ele>820.6</ele>
        <time>2026-04-30T08:39:36.999Z</time>
      </trkpt>
      <trkpt lat="43.96967" lon="2.99902">
        <ele>820.8</ele>
        <time>2026-04-30T08:39:37.999Z</time>
      </trkpt>
      <trkpt lat="43.96966" lon="2.99902">
        <ele>820.7</ele>
        <time>2026-04-30T08:39:38.999Z</time>
      </trkpt>
      <trkpt lat="43.96966" lon="2.99903">
        <ele>820.8</ele>
        <time>2026-04-30T08:39:39.999Z</time>
      </trkpt>
      <trkpt lat="43.96966" lon="2.99903">
        <ele>821</ele>
        <time>2026-04-30T08:39:40.999Z</time>
      </trkpt>
      <trkpt lat="43.96965" lon="2.99905">
        <ele>821.2</ele>
        <time>2026-04-30T08:39:41.999Z</time>
      </trkpt>
      <trkpt lat="43.96964" lon="2.99905">
        <ele>821.4</ele>
        <time>2026-04-30T08:39:42.999Z</time>
      </trkpt>
      <trkpt lat="43.96963" lon="2.99905">
        <ele>821.6</ele>
        <time>2026-04-30T08:39:43.999Z</time>
      </trkpt>
      <trkpt lat="43.96961" lon="2.99906">
        <ele>821.5</ele>
        <time>2026-04-30T08:39:44.999Z</time>
      </trkpt>
      <trkpt lat="43.96959" lon="2.99906">
        <ele>821.1</ele>
        <time>2026-04-30T08:39:45.999Z</time>
      </trkpt>
      <trkpt lat="43.96958" lon="2.99907">
        <ele>820.8</ele>
        <time>2026-04-30T08:39:46.999Z</time>
      </trkpt>
      <trkpt lat="43.96957" lon="2.99907">
        <ele>821.2</ele>
        <time>2026-04-30T08:39:47.999Z</time>
      </trkpt>
      <trkpt lat="43.96957" lon="2.99908">
        <ele>821.4</ele>
        <time>2026-04-30T08:39:48.999Z</time>
      </trkpt>
      <trkpt lat="43.96956" lon="2.99909">
        <ele>821.6</ele>
        <time>2026-04-30T08:39:49.999Z</time>
      </trkpt>
      <trkpt lat="43.96955" lon="2.99911">
        <ele>821.7</ele>
        <time>2026-04-30T08:39:50.999Z</time>
      </trkpt>
      <trkpt lat="43.96955" lon="2.99913">
        <ele>822</ele>
        <time>2026-04-30T08:39:51.999Z</time>
      </trkpt>
      <trkpt lat="43.96955" lon="2.99915">
        <ele>822.6</ele>
        <time>2026-04-30T08:39:52.999Z</time>
      </trkpt>
      <trkpt lat="43.96954" lon="2.99917">
        <ele>822.7</ele>
        <time>2026-04-30T08:39:53.999Z</time>
      </trkpt>
      <trkpt lat="43.96954" lon="2.9992">
        <ele>822.3</ele>
        <time>2026-04-30T08:39:54.999Z</time>
      </trkpt>
      <trkpt lat="43.96952" lon="2.99922">
        <ele>822</ele>
        <time>2026-04-30T08:39:55.999Z</time>
      </trkpt>
      <trkpt lat="43.96951" lon="2.99924">
        <ele>821.9</ele>
        <time>2026-04-30T08:39:56.999Z</time>
      </trkpt>
      <trkpt lat="43.9695" lon="2.99925">
        <ele>821.9</ele>
        <time>2026-04-30T08:39:57.999Z</time>
      </trkpt>
      <trkpt lat="43.96949" lon="2.99926">
        <ele>822</ele>
        <time>2026-04-30T08:39:58.999Z</time>
      </trkpt>
      <trkpt lat="43.96948" lon="2.99926">
        <ele>822.2</ele>
        <time>2026-04-30T08:39:59.999Z</time>
      </trkpt>
      <trkpt lat="43.96947" lon="2.99926">
        <ele>822.4</ele>
        <time>2026-04-30T08:40:00.999Z</time>
      </trkpt>
      <trkpt lat="43.96946" lon="2.99927">
        <ele>822.4</ele>
        <time>2026-04-30T08:40:01.999Z</time>
      </trkpt>
      <trkpt lat="43.96945" lon="2.99927">
        <ele>822.2</ele>
        <time>2026-04-30T08:40:02.999Z</time>
      </trkpt>
      <trkpt lat="43.96943" lon="2.99927">
        <ele>822.2</ele>
        <time>2026-04-30T08:40:03.999Z</time>
      </trkpt>
      <trkpt lat="43.96942" lon="2.99928">
        <ele>822.6</ele>
        <time>2026-04-30T08:40:04.999Z</time>
      </trkpt>
      <trkpt lat="43.96942" lon="2.99929">
        <ele>823</ele>
        <time>2026-04-30T08:40:05.999Z</time>
      </trkpt>
      <trkpt lat="43.96942" lon="2.9993">
        <ele>823.6</ele>
        <time>2026-04-30T08:40:06.999Z</time>
      </trkpt>
      <trkpt lat="43.96942" lon="2.9993">
        <ele>823.7</ele>
        <time>2026-04-30T08:40:07.999Z</time>
      </trkpt>
      <trkpt lat="43.96941" lon="2.99932">
        <ele>823.8</ele>
        <time>2026-04-30T08:40:08.999Z</time>
      </trkpt>
      <trkpt lat="43.96942" lon="2.99932">
        <ele>824.2</ele>
        <time>2026-04-30T08:40:09.999Z</time>
      </trkpt>
      <trkpt lat="43.96941" lon="2.99933">
        <ele>824.1</ele>
        <time>2026-04-30T08:40:10.999Z</time>
      </trkpt>
      <trkpt lat="43.9694" lon="2.99935">
        <ele>824.2</ele>
        <time>2026-04-30T08:40:11.999Z</time>
      </trkpt>
      <trkpt lat="43.96939" lon="2.99936">
        <ele>824.4</ele>
        <time>2026-04-30T08:40:12.999Z</time>
      </trkpt>
      <trkpt lat="43.96939" lon="2.99938">
        <ele>824.4</ele>
        <time>2026-04-30T08:40:13.999Z</time>
      </trkpt>
      <trkpt lat="43.96938" lon="2.99939">
        <ele>824.4</ele>
        <time>2026-04-30T08:40:14.999Z</time>
      </trkpt>
      <trkpt lat="43.96937" lon="2.9994">
        <ele>824.5</ele>
        <time>2026-04-30T08:40:15.999Z</time>
      </trkpt>
      <trkpt lat="43.96936" lon="2.9994">
        <ele>823.9</ele>
        <time>2026-04-30T08:40:16.999Z</time>
      </trkpt>
      <trkpt lat="43.96935" lon="2.9994">
        <ele>824.3</ele>
        <time>2026-04-30T08:40:17.999Z</time>
      </trkpt>
      <trkpt lat="43.96935" lon="2.9994">
        <ele>824.5</ele>
        <time>2026-04-30T08:40:18.999Z</time>
      </trkpt>
      <trkpt lat="43.96935" lon="2.9994">
        <ele>824.8</ele>
        <time>2026-04-30T08:40:19.999Z</time>
      </trkpt>
      <trkpt lat="43.96934" lon="2.9994">
        <ele>824.8</ele>
        <time>2026-04-30T08:40:20.999Z</time>
      </trkpt>
      <trkpt lat="43.96934" lon="2.9994">
        <ele>824.8</ele>
        <time>2026-04-30T08:40:21.999Z</time>
      </trkpt>
      <trkpt lat="43.96933" lon="2.9994">
        <ele>825.2</ele>
        <time>2026-04-30T08:40:22.999Z</time>
      </trkpt>
      <trkpt lat="43.96932" lon="2.99941">
        <ele>825.3</ele>
        <time>2026-04-30T08:40:23.999Z</time>
      </trkpt>
      <trkpt lat="43.96932" lon="2.99941">
        <ele>825</ele>
        <time>2026-04-30T08:40:24.999Z</time>
      </trkpt>
      <trkpt lat="43.96931" lon="2.9994">
        <ele>824.6</ele>
        <time>2026-04-30T08:40:25.999Z</time>
      </trkpt>
      <trkpt lat="43.9693" lon="2.99941">
        <ele>824.8</ele>
        <time>2026-04-30T08:40:26.999Z</time>
      </trkpt>
      <trkpt lat="43.9693" lon="2.99942">
        <ele>824.9</ele>
        <time>2026-04-30T08:40:27.999Z</time>
      </trkpt>
      <trkpt lat="43.96929" lon="2.99944">
        <ele>825.4</ele>
        <time>2026-04-30T08:40:28.999Z</time>
      </trkpt>
      <trkpt lat="43.96928" lon="2.99945">
        <ele>825.7</ele>
        <time>2026-04-30T08:40:29.999Z</time>
      </trkpt>
      <trkpt lat="43.96927" lon="2.99946">
        <ele>825.8</ele>
        <time>2026-04-30T08:40:30.999Z</time>
      </trkpt>
      <trkpt lat="43.96926" lon="2.99947">
        <ele>826.1</ele>
        <time>2026-04-30T08:40:31.999Z</time>
      </trkpt>
      <trkpt lat="43.96925" lon="2.99948">
        <ele>826.3</ele>
        <time>2026-04-30T08:40:32.999Z</time>
      </trkpt>
      <trkpt lat="43.96925" lon="2.99948">
        <ele>826.8</ele>
        <time>2026-04-30T08:40:33.999Z</time>
      </trkpt>
      <trkpt lat="43.96924" lon="2.99948">
        <ele>827.2</ele>
        <time>2026-04-30T08:40:34.999Z</time>
      </trkpt>
      <trkpt lat="43.96923" lon="2.99948">
        <ele>827.6</ele>
        <time>2026-04-30T08:40:35.999Z</time>
      </trkpt>
      <trkpt lat="43.96922" lon="2.99949">
        <ele>828</ele>
        <time>2026-04-30T08:40:36.999Z</time>
      </trkpt>
      <trkpt lat="43.96922" lon="2.99949">
        <ele>828.5</ele>
        <time>2026-04-30T08:40:37.999Z</time>
      </trkpt>
      <trkpt lat="43.96921" lon="2.99949">
        <ele>829</ele>
        <time>2026-04-30T08:40:38.999Z</time>
      </trkpt>
      <trkpt lat="43.9692" lon="2.99951">
        <ele>829</ele>
        <time>2026-04-30T08:40:39.999Z</time>
      </trkpt>
      <trkpt lat="43.96918" lon="2.99952">
        <ele>829.2</ele>
        <time>2026-04-30T08:40:40.999Z</time>
      </trkpt>
      <trkpt lat="43.96918" lon="2.99954">
        <ele>829</ele>
        <time>2026-04-30T08:40:41.999Z</time>
      </trkpt>
      <trkpt lat="43.96918" lon="2.99956">
        <ele>829.4</ele>
        <time>2026-04-30T08:40:42.999Z</time>
      </trkpt>
      <trkpt lat="43.96917" lon="2.99956">
        <ele>829.3</ele>
        <time>2026-04-30T08:40:43.999Z</time>
      </trkpt>
      <trkpt lat="43.96918" lon="2.99956">
        <ele>829.4</ele>
        <time>2026-04-30T08:40:44.999Z</time>
      </trkpt>
      <trkpt lat="43.96917" lon="2.99956">
        <ele>829.5</ele>
        <time>2026-04-30T08:40:45.999Z</time>
      </trkpt>
      <trkpt lat="43.96917" lon="2.99956">
        <ele>829.4</ele>
        <time>2026-04-30T08:40:46.999Z</time>
      </trkpt>
      <trkpt lat="43.96917" lon="2.99957">
        <ele>829.4</ele>
        <time>2026-04-30T08:40:47.999Z</time>
      </trkpt>
      <trkpt lat="43.96917" lon="2.99957">
        <ele>829.4</ele>
        <time>2026-04-30T08:40:48.999Z</time>
      </trkpt>
      <trkpt lat="43.96917" lon="2.99957">
        <ele>829.2</ele>
        <time>2026-04-30T08:40:49.999Z</time>
      </trkpt>
      <trkpt lat="43.96917" lon="2.99957">
        <ele>829.2</ele>
        <time>2026-04-30T08:40:50.999Z</time>
      </trkpt>
      <trkpt lat="43.96917" lon="2.99957">
        <ele>828.9</ele>
        <time>2026-04-30T08:40:51.999Z</time>
      </trkpt>
      <trkpt lat="43.96916" lon="2.99958">
        <ele>828.7</ele>
        <time>2026-04-30T08:40:52.999Z</time>
      </trkpt>
      <trkpt lat="43.96916" lon="2.99958">
        <ele>828.4</ele>
        <time>2026-04-30T08:40:53.999Z</time>
      </trkpt>
      <trkpt lat="43.96914" lon="2.9996">
        <ele>828.4</ele>
        <time>2026-04-30T08:40:54.999Z</time>
      </trkpt>
      <trkpt lat="43.96912" lon="2.99962">
        <ele>828.3</ele>
        <time>2026-04-30T08:40:55.999Z</time>
      </trkpt>
      <trkpt lat="43.9691" lon="2.99962">
        <ele>828.2</ele>
        <time>2026-04-30T08:40:56.999Z</time>
      </trkpt>
      <trkpt lat="43.96908" lon="2.99963">
        <ele>828.1</ele>
        <time>2026-04-30T08:40:57.999Z</time>
      </trkpt>
      <trkpt lat="43.96907" lon="2.99963">
        <ele>828</ele>
        <time>2026-04-30T08:40:58.999Z</time>
      </trkpt>
      <trkpt lat="43.96906" lon="2.99963">
        <ele>828</ele>
        <time>2026-04-30T08:40:59.999Z</time>
      </trkpt>
      <trkpt lat="43.96905" lon="2.99964">
        <ele>827.9</ele>
        <time>2026-04-30T08:41:00.999Z</time>
      </trkpt>
      <trkpt lat="43.96905" lon="2.99964">
        <ele>827.7</ele>
        <time>2026-04-30T08:41:01.999Z</time>
      </trkpt>
      <trkpt lat="43.96904" lon="2.99966">
        <ele>827.8</ele>
        <time>2026-04-30T08:41:02.999Z</time>
      </trkpt>
      <trkpt lat="43.96902" lon="2.99967">
        <ele>827.6</ele>
        <time>2026-04-30T08:41:03.999Z</time>
      </trkpt>
      <trkpt lat="43.96901" lon="2.99969">
        <ele>827.9</ele>
        <time>2026-04-30T08:41:04.999Z</time>
      </trkpt>
      <trkpt lat="43.969" lon="2.9997">
        <ele>828</ele>
        <time>2026-04-30T08:41:05.999Z</time>
      </trkpt>
      <trkpt lat="43.96898" lon="2.99971">
        <ele>827.9</ele>
        <time>2026-04-30T08:41:06.999Z</time>
      </trkpt>
      <trkpt lat="43.96897" lon="2.99971">
        <ele>828.1</ele>
        <time>2026-04-30T08:41:07.999Z</time>
      </trkpt>
      <trkpt lat="43.96896" lon="2.99971">
        <ele>828.2</ele>
        <time>2026-04-30T08:41:08.999Z</time>
      </trkpt>
      <trkpt lat="43.96894" lon="2.99972">
        <ele>828.5</ele>
        <time>2026-04-30T08:41:09.999Z</time>
      </trkpt>
      <trkpt lat="43.96893" lon="2.99974">
        <ele>828.8</ele>
        <time>2026-04-30T08:41:10.999Z</time>
      </trkpt>
      <trkpt lat="43.96893" lon="2.99975">
        <ele>828.8</ele>
        <time>2026-04-30T08:41:11.999Z</time>
      </trkpt>
      <trkpt lat="43.96892" lon="2.99977">
        <ele>828.8</ele>
        <time>2026-04-30T08:41:12.999Z</time>
      </trkpt>
      <trkpt lat="43.9689" lon="2.99978">
        <ele>828.4</ele>
        <time>2026-04-30T08:41:13.999Z</time>
      </trkpt>
      <trkpt lat="43.9689" lon="2.99979">
        <ele>828.4</ele>
        <time>2026-04-30T08:41:14.999Z</time>
      </trkpt>
      <trkpt lat="43.96889" lon="2.9998">
        <ele>827.9</ele>
        <time>2026-04-30T08:41:15.999Z</time>
      </trkpt>
      <trkpt lat="43.96889" lon="2.9998">
        <ele>827.6</ele>
        <time>2026-04-30T08:41:16.999Z</time>
      </trkpt>
      <trkpt lat="43.96888" lon="2.99982">
        <ele>827.6</ele>
        <time>2026-04-30T08:41:17.999Z</time>
      </trkpt>
      <trkpt lat="43.96888" lon="2.99982">
        <ele>827.3</ele>
        <time>2026-04-30T08:41:18.999Z</time>
      </trkpt>
      <trkpt lat="43.96887" lon="2.99982">
        <ele>827</ele>
        <time>2026-04-30T08:41:19.999Z</time>
      </trkpt>
      <trkpt lat="43.96887" lon="2.99982">
        <ele>826.5</ele>
        <time>2026-04-30T08:41:20.999Z</time>
      </trkpt>
      <trkpt lat="43.96886" lon="2.99982">
        <ele>826.2</ele>
        <time>2026-04-30T08:41:21.999Z</time>
      </trkpt>
      <trkpt lat="43.96885" lon="2.99983">
        <ele>826.1</ele>
        <time>2026-04-30T08:41:22.999Z</time>
      </trkpt>
      <trkpt lat="43.96884" lon="2.99982">
        <ele>826.4</ele>
        <time>2026-04-30T08:41:23.999Z</time>
      </trkpt>
      <trkpt lat="43.96884" lon="2.99982">
        <ele>826.6</ele>
        <time>2026-04-30T08:41:24.999Z</time>
      </trkpt>
      <trkpt lat="43.96884" lon="2.99982">
        <ele>826.6</ele>
        <time>2026-04-30T08:41:25.999Z</time>
      </trkpt>
      <trkpt lat="43.96884" lon="2.99982">
        <ele>826.4</ele>
        <time>2026-04-30T08:41:26.999Z</time>
      </trkpt>
      <trkpt lat="43.96884" lon="2.99982">
        <ele>826.4</ele>
        <time>2026-04-30T08:41:27.999Z</time>
      </trkpt>
      <trkpt lat="43.96883" lon="2.99982">
        <ele>826.3</ele>
        <time>2026-04-30T08:41:28.999Z</time>
      </trkpt>
      <trkpt lat="43.96881" lon="2.99981">
        <ele>826.3</ele>
        <time>2026-04-30T08:41:29.999Z</time>
      </trkpt>
      <trkpt lat="43.96879" lon="2.99982">
        <ele>826.4</ele>
        <time>2026-04-30T08:41:30.999Z</time>
      </trkpt>
      <trkpt lat="43.96878" lon="2.99983">
        <ele>826.5</ele>
        <time>2026-04-30T08:41:31.999Z</time>
      </trkpt>
      <trkpt lat="43.96876" lon="2.99984">
        <ele>827.2</ele>
        <time>2026-04-30T08:41:32.999Z</time>
      </trkpt>
      <trkpt lat="43.96874" lon="2.99985">
        <ele>827.7</ele>
        <time>2026-04-30T08:41:33.999Z</time>
      </trkpt>
      <trkpt lat="43.96872" lon="2.99986">
        <ele>828</ele>
        <time>2026-04-30T08:41:34.999Z</time>
      </trkpt>
      <trkpt lat="43.96871" lon="2.99985">
        <ele>828.2</ele>
        <time>2026-04-30T08:41:35.999Z</time>
      </trkpt>
      <trkpt lat="43.9687" lon="2.99986">
        <ele>828.1</ele>
        <time>2026-04-30T08:41:36.999Z</time>
      </trkpt>
      <trkpt lat="43.96869" lon="2.99985">
        <ele>828</ele>
        <time>2026-04-30T08:41:37.999Z</time>
      </trkpt>
      <trkpt lat="43.96868" lon="2.99985">
        <ele>828.2</ele>
        <time>2026-04-30T08:41:38.999Z</time>
      </trkpt>
      <trkpt lat="43.96867" lon="2.99985">
        <ele>828.3</ele>
        <time>2026-04-30T08:41:39.999Z</time>
      </trkpt>
      <trkpt lat="43.96866" lon="2.99985">
        <ele>828.5</ele>
        <time>2026-04-30T08:41:40.999Z</time>
      </trkpt>
      <trkpt lat="43.96865" lon="2.99986">
        <ele>829.1</ele>
        <time>2026-04-30T08:41:41.999Z</time>
      </trkpt>
      <trkpt lat="43.96864" lon="2.99986">
        <ele>829.4</ele>
        <time>2026-04-30T08:41:42.999Z</time>
      </trkpt>
      <trkpt lat="43.96863" lon="2.99986">
        <ele>829.4</ele>
        <time>2026-04-30T08:41:43.999Z</time>
      </trkpt>
      <trkpt lat="43.96862" lon="2.99986">
        <ele>829.2</ele>
        <time>2026-04-30T08:41:44.999Z</time>
      </trkpt>
      <trkpt lat="43.96861" lon="2.99987">
        <ele>829.3</ele>
        <time>2026-04-30T08:41:45.999Z</time>
      </trkpt>
      <trkpt lat="43.96861" lon="2.99987">
        <ele>829.8</ele>
        <time>2026-04-30T08:41:46.999Z</time>
      </trkpt>
      <trkpt lat="43.96861" lon="2.99987">
        <ele>830</ele>
        <time>2026-04-30T08:41:47.999Z</time>
      </trkpt>
      <trkpt lat="43.96861" lon="2.99987">
        <ele>830.4</ele>
        <time>2026-04-30T08:41:48.999Z</time>
      </trkpt>
      <trkpt lat="43.96861" lon="2.99987">
        <ele>830.5</ele>
        <time>2026-04-30T08:41:49.999Z</time>
      </trkpt>
      <trkpt lat="43.9686" lon="2.99987">
        <ele>830.1</ele>
        <time>2026-04-30T08:41:51.999Z</time>
      </trkpt>
      <trkpt lat="43.9686" lon="2.99987">
        <ele>830.3</ele>
        <time>2026-04-30T08:41:52.999Z</time>
      </trkpt>
      <trkpt lat="43.9686" lon="2.99987">
        <ele>830.4</ele>
        <time>2026-04-30T08:41:53.999Z</time>
      </trkpt>
      <trkpt lat="43.9686" lon="2.99987">
        <ele>830.4</ele>
        <time>2026-04-30T08:41:54.999Z</time>
      </trkpt>
      <trkpt lat="43.96859" lon="2.99987">
        <ele>830.3</ele>
        <time>2026-04-30T08:41:55.999Z</time>
      </trkpt>
      <trkpt lat="43.96859" lon="2.99987">
        <ele>829.8</ele>
        <time>2026-04-30T08:41:56.999Z</time>
      </trkpt>
      <trkpt lat="43.96859" lon="2.99987">
        <ele>829.5</ele>
        <time>2026-04-30T08:41:57.999Z</time>
      </trkpt>
      <trkpt lat="43.96859" lon="2.99987">
        <ele>829.3</ele>
        <time>2026-04-30T08:41:58.999Z</time>
      </trkpt>
      <trkpt lat="43.96858" lon="2.99987">
        <ele>829.4</ele>
        <time>2026-04-30T08:41:59.999Z</time>
      </trkpt>
      <trkpt lat="43.96858" lon="2.99987">
        <ele>829.5</ele>
        <time>2026-04-30T08:42:00.999Z</time>
      </trkpt>
      <trkpt lat="43.96856" lon="2.99988">
        <ele>829.9</ele>
        <time>2026-04-30T08:42:01.999Z</time>
      </trkpt>
      <trkpt lat="43.96855" lon="2.99989">
        <ele>830.2</ele>
        <time>2026-04-30T08:42:02.999Z</time>
      </trkpt>
      <trkpt lat="43.96854" lon="2.99989">
        <ele>830.4</ele>
        <time>2026-04-30T08:42:03.999Z</time>
      </trkpt>
      <trkpt lat="43.96853" lon="2.9999">
        <ele>830.5</ele>
        <time>2026-04-30T08:42:04.999Z</time>
      </trkpt>
      <trkpt lat="43.96853" lon="2.9999">
        <ele>830.7</ele>
        <time>2026-04-30T08:42:05.999Z</time>
      </trkpt>
      <trkpt lat="43.96853" lon="2.9999">
        <ele>831.2</ele>
        <time>2026-04-30T08:42:06.999Z</time>
      </trkpt>
      <trkpt lat="43.96853" lon="2.9999">
        <ele>831.4</ele>
        <time>2026-04-30T08:42:07.999Z</time>
      </trkpt>
      <trkpt lat="43.96853" lon="2.9999">
        <ele>831.9</ele>
        <time>2026-04-30T08:42:08.999Z</time>
      </trkpt>
      <trkpt lat="43.96852" lon="2.9999">
        <ele>831.7</ele>
        <time>2026-04-30T08:42:09.999Z</time>
      </trkpt>
      <trkpt lat="43.96852" lon="2.9999">
        <ele>831.4</ele>
        <time>2026-04-30T08:42:10.999Z</time>
      </trkpt>
      <trkpt lat="43.96849" lon="2.99991">
        <ele>832.1</ele>
        <time>2026-04-30T08:42:11.999Z</time>
      </trkpt>
      <trkpt lat="43.96846" lon="2.99992">
        <ele>832.5</ele>
        <time>2026-04-30T08:42:12.999Z</time>
      </trkpt>
      <trkpt lat="43.96844" lon="2.99992">
        <ele>832.5</ele>
        <time>2026-04-30T08:42:13.999Z</time>
      </trkpt>
      <trkpt lat="43.96841" lon="2.99993">
        <ele>832.6</ele>
        <time>2026-04-30T08:42:14.999Z</time>
      </trkpt>
      <trkpt lat="43.9684" lon="2.99994">
        <ele>832.7</ele>
        <time>2026-04-30T08:42:15.999Z</time>
      </trkpt>
      <trkpt lat="43.96839" lon="2.99994">
        <ele>832.9</ele>
        <time>2026-04-30T08:42:16.999Z</time>
      </trkpt>
      <trkpt lat="43.96837" lon="2.99994">
        <ele>833.2</ele>
        <time>2026-04-30T08:42:17.999Z</time>
      </trkpt>
      <trkpt lat="43.96836" lon="2.99993">
        <ele>833.3</ele>
        <time>2026-04-30T08:42:18.999Z</time>
      </trkpt>
      <trkpt lat="43.96835" lon="2.99994">
        <ele>833.2</ele>
        <time>2026-04-30T08:42:19.999Z</time>
      </trkpt>
      <trkpt lat="43.96833" lon="2.99994">
        <ele>833.2</ele>
        <time>2026-04-30T08:42:20.999Z</time>
      </trkpt>
      <trkpt lat="43.96832" lon="2.99994">
        <ele>833.1</ele>
        <time>2026-04-30T08:42:21.999Z</time>
      </trkpt>
      <trkpt lat="43.96831" lon="2.99993">
        <ele>832.9</ele>
        <time>2026-04-30T08:42:22.999Z</time>
      </trkpt>
      <trkpt lat="43.96829" lon="2.99994">
        <ele>833</ele>
        <time>2026-04-30T08:42:23.999Z</time>
      </trkpt>
      <trkpt lat="43.96828" lon="2.99995">
        <ele>832.9</ele>
        <time>2026-04-30T08:42:24.999Z</time>
      </trkpt>
      <trkpt lat="43.96827" lon="2.99996">
        <ele>832.9</ele>
        <time>2026-04-30T08:42:25.999Z</time>
      </trkpt>
      <trkpt lat="43.96826" lon="2.99997">
        <ele>832.9</ele>
        <time>2026-04-30T08:42:26.999Z</time>
      </trkpt>
      <trkpt lat="43.96825" lon="2.99997">
        <ele>832.8</ele>
        <time>2026-04-30T08:42:27.999Z</time>
      </trkpt>
      <trkpt lat="43.96823" lon="2.99998">
        <ele>832.8</ele>
        <time>2026-04-30T08:42:28.999Z</time>
      </trkpt>
      <trkpt lat="43.96823" lon="2.99998">
        <ele>833.3</ele>
        <time>2026-04-30T08:42:29.999Z</time>
      </trkpt>
      <trkpt lat="43.96822" lon="2.99998">
        <ele>833.7</ele>
        <time>2026-04-30T08:42:30.999Z</time>
      </trkpt>
      <trkpt lat="43.96822" lon="2.99998">
        <ele>833.5</ele>
        <time>2026-04-30T08:42:31.999Z</time>
      </trkpt>
      <trkpt lat="43.96822" lon="2.99998">
        <ele>833.7</ele>
        <time>2026-04-30T08:42:32.999Z</time>
      </trkpt>
      <trkpt lat="43.96822" lon="2.99998">
        <ele>833.8</ele>
        <time>2026-04-30T08:42:33.999Z</time>
      </trkpt>
      <trkpt lat="43.96821" lon="2.99998">
        <ele>834.2</ele>
        <time>2026-04-30T08:42:34.999Z</time>
      </trkpt>
      <trkpt lat="43.96821" lon="2.99998">
        <ele>834.5</ele>
        <time>2026-04-30T08:42:35.999Z</time>
      </trkpt>
      <trkpt lat="43.96821" lon="2.99998">
        <ele>834.7</ele>
        <time>2026-04-30T08:42:36.999Z</time>
      </trkpt>
      <trkpt lat="43.96821" lon="2.99998">
        <ele>835.1</ele>
        <time>2026-04-30T08:42:37.999Z</time>
      </trkpt>
      <trkpt lat="43.96821" lon="2.99998">
        <ele>835.1</ele>
        <time>2026-04-30T08:42:38.999Z</time>
      </trkpt>
      <trkpt lat="43.96821" lon="2.99998">
        <ele>835.3</ele>
        <time>2026-04-30T08:42:39.999Z</time>
      </trkpt>
      <trkpt lat="43.9682" lon="2.99998">
        <ele>835.5</ele>
        <time>2026-04-30T08:42:40.999Z</time>
      </trkpt>
      <trkpt lat="43.9682" lon="2.99998">
        <ele>835.6</ele>
        <time>2026-04-30T08:42:41.999Z</time>
      </trkpt>
      <trkpt lat="43.9682" lon="2.99998">
        <ele>835.4</ele>
        <time>2026-04-30T08:42:42.999Z</time>
      </trkpt>
      <trkpt lat="43.96819" lon="2.99998">
        <ele>835.3</ele>
        <time>2026-04-30T08:42:43.999Z</time>
      </trkpt>
      <trkpt lat="43.96819" lon="2.99998">
        <ele>835.3</ele>
        <time>2026-04-30T08:42:44.999Z</time>
      </trkpt>
      <trkpt lat="43.96819" lon="2.99998">
        <ele>835.5</ele>
        <time>2026-04-30T08:42:45.999Z</time>
      </trkpt>
      <trkpt lat="43.96819" lon="2.99998">
        <ele>835.7</ele>
        <time>2026-04-30T08:42:46.999Z</time>
      </trkpt>
      <trkpt lat="43.96819" lon="2.99998">
        <ele>836</ele>
        <time>2026-04-30T08:42:47.999Z</time>
      </trkpt>
      <trkpt lat="43.96818" lon="2.99998">
        <ele>836.5</ele>
        <time>2026-04-30T08:42:48.999Z</time>
      </trkpt>
      <trkpt lat="43.96818" lon="2.99999">
        <ele>836.3</ele>
        <time>2026-04-30T08:42:49.999Z</time>
      </trkpt>
      <trkpt lat="43.96817" lon="2.99999">
        <ele>836.7</ele>
        <time>2026-04-30T08:42:50.999Z</time>
      </trkpt>
      <trkpt lat="43.96817" lon="2.99999">
        <ele>836.7</ele>
        <time>2026-04-30T08:42:51.999Z</time>
      </trkpt>
      <trkpt lat="43.96817" lon="2.99999">
        <ele>836.6</ele>
        <time>2026-04-30T08:42:52.999Z</time>
      </trkpt>
      <trkpt lat="43.96816" lon="3">
        <ele>837.1</ele>
        <time>2026-04-30T08:42:53.999Z</time>
      </trkpt>
      <trkpt lat="43.96813" lon="3">
        <ele>837.5</ele>
        <time>2026-04-30T08:42:54.999Z</time>
      </trkpt>
      <trkpt lat="43.96811" lon="3">
        <ele>837.8</ele>
        <time>2026-04-30T08:42:55.999Z</time>
      </trkpt>
      <trkpt lat="43.96808" lon="3.00001">
        <ele>838.3</ele>
        <time>2026-04-30T08:42:56.999Z</time>
      </trkpt>
      <trkpt lat="43.96806" lon="3.00003">
        <ele>838.5</ele>
        <time>2026-04-30T08:42:57.999Z</time>
      </trkpt>
      <trkpt lat="43.96804" lon="3.00004">
        <ele>838.9</ele>
        <time>2026-04-30T08:42:58.999Z</time>
      </trkpt>
      <trkpt lat="43.96802" lon="3.00005">
        <ele>839.1</ele>
        <time>2026-04-30T08:42:59.999Z</time>
      </trkpt>
      <trkpt lat="43.96801" lon="3.00006">
        <ele>839</ele>
        <time>2026-04-30T08:43:00.999Z</time>
      </trkpt>
      <trkpt lat="43.968" lon="3.00006">
        <ele>839.3</ele>
        <time>2026-04-30T08:43:01.999Z</time>
      </trkpt>
      <trkpt lat="43.968" lon="3.00006">
        <ele>839.4</ele>
        <time>2026-04-30T08:43:02.999Z</time>
      </trkpt>
      <trkpt lat="43.968" lon="3.00006">
        <ele>839.7</ele>
        <time>2026-04-30T08:43:03.999Z</time>
      </trkpt>
      <trkpt lat="43.968" lon="3.00006">
        <ele>840</ele>
        <time>2026-04-30T08:43:04.999Z</time>
      </trkpt>
      <trkpt lat="43.968" lon="3.00006">
        <ele>840.1</ele>
        <time>2026-04-30T08:43:06.999Z</time>
      </trkpt>
      <trkpt lat="43.968" lon="3.00006">
        <ele>840</ele>
        <time>2026-04-30T08:43:07.999Z</time>
      </trkpt>
      <trkpt lat="43.96799" lon="3.00006">
        <ele>840.2</ele>
        <time>2026-04-30T08:43:08.999Z</time>
      </trkpt>
      <trkpt lat="43.96799" lon="3.00006">
        <ele>840.2</ele>
        <time>2026-04-30T08:43:09.999Z</time>
      </trkpt>
      <trkpt lat="43.96799" lon="3.00007">
        <ele>840.1</ele>
        <time>2026-04-30T08:43:10.999Z</time>
      </trkpt>
      <trkpt lat="43.96798" lon="3.00008">
        <ele>840</ele>
        <time>2026-04-30T08:43:11.999Z</time>
      </trkpt>
      <trkpt lat="43.96797" lon="3.00008">
        <ele>840.1</ele>
        <time>2026-04-30T08:43:12.999Z</time>
      </trkpt>
      <trkpt lat="43.96797" lon="3.00009">
        <ele>840</ele>
        <time>2026-04-30T08:43:13.999Z</time>
      </trkpt>
      <trkpt lat="43.96797" lon="3.00009">
        <ele>840.2</ele>
        <time>2026-04-30T08:43:14.999Z</time>
      </trkpt>
      <trkpt lat="43.96797" lon="3.00009">
        <ele>840.4</ele>
        <time>2026-04-30T08:43:15.999Z</time>
      </trkpt>
      <trkpt lat="43.96796" lon="3.0001">
        <ele>840.4</ele>
        <time>2026-04-30T08:43:16.999Z</time>
      </trkpt>
      <trkpt lat="43.96794" lon="3.00011">
        <ele>840.3</ele>
        <time>2026-04-30T08:43:17.999Z</time>
      </trkpt>
      <trkpt lat="43.96792" lon="3.00012">
        <ele>840.3</ele>
        <time>2026-04-30T08:43:18.999Z</time>
      </trkpt>
      <trkpt lat="43.96791" lon="3.00012">
        <ele>840.1</ele>
        <time>2026-04-30T08:43:19.999Z</time>
      </trkpt>
      <trkpt lat="43.96789" lon="3.00013">
        <ele>840.1</ele>
        <time>2026-04-30T08:43:20.999Z</time>
      </trkpt>
      <trkpt lat="43.96788" lon="3.00013">
        <ele>840.1</ele>
        <time>2026-04-30T08:43:21.999Z</time>
      </trkpt>
      <trkpt lat="43.96786" lon="3.00014">
        <ele>839.9</ele>
        <time>2026-04-30T08:43:22.999Z</time>
      </trkpt>
      <trkpt lat="43.96786" lon="3.00014">
        <ele>839.9</ele>
        <time>2026-04-30T08:43:23.999Z</time>
      </trkpt>
      <trkpt lat="43.96786" lon="3.00014">
        <ele>839.8</ele>
        <time>2026-04-30T08:43:24.999Z</time>
      </trkpt>
      <trkpt lat="43.96786" lon="3.00014">
        <ele>839.7</ele>
        <time>2026-04-30T08:43:25.999Z</time>
      </trkpt>
      <trkpt lat="43.96785" lon="3.00014">
        <ele>839.8</ele>
        <time>2026-04-30T08:43:26.999Z</time>
      </trkpt>
      <trkpt lat="43.96785" lon="3.00014">
        <ele>839.7</ele>
        <time>2026-04-30T08:43:27.999Z</time>
      </trkpt>
      <trkpt lat="43.96784" lon="3.00015">
        <ele>839.6</ele>
        <time>2026-04-30T08:43:28.999Z</time>
      </trkpt>
      <trkpt lat="43.96782" lon="3.00016">
        <ele>839.5</ele>
        <time>2026-04-30T08:43:29.999Z</time>
      </trkpt>
      <trkpt lat="43.96782" lon="3.00017">
        <ele>839.5</ele>
        <time>2026-04-30T08:43:30.999Z</time>
      </trkpt>
      <trkpt lat="43.96781" lon="3.00017">
        <ele>839.6</ele>
        <time>2026-04-30T08:43:31.999Z</time>
      </trkpt>
      <trkpt lat="43.9678" lon="3.00018">
        <ele>839.6</ele>
        <time>2026-04-30T08:43:32.999Z</time>
      </trkpt>
      <trkpt lat="43.96779" lon="3.00019">
        <ele>839.6</ele>
        <time>2026-04-30T08:43:33.999Z</time>
      </trkpt>
      <trkpt lat="43.96777" lon="3.0002">
        <ele>839.7</ele>
        <time>2026-04-30T08:43:34.999Z</time>
      </trkpt>
      <trkpt lat="43.96776" lon="3.0002">
        <ele>839.5</ele>
        <time>2026-04-30T08:43:35.999Z</time>
      </trkpt>
      <trkpt lat="43.96775" lon="3.0002">
        <ele>839.4</ele>
        <time>2026-04-30T08:43:36.999Z</time>
      </trkpt>
      <trkpt lat="43.96774" lon="3.0002">
        <ele>839.2</ele>
        <time>2026-04-30T08:43:37.999Z</time>
      </trkpt>
      <trkpt lat="43.96774" lon="3.0002">
        <ele>838.8</ele>
        <time>2026-04-30T08:43:38.999Z</time>
      </trkpt>
      <trkpt lat="43.96773" lon="3.0002">
        <ele>838.6</ele>
        <time>2026-04-30T08:43:39.999Z</time>
      </trkpt>
      <trkpt lat="43.96772" lon="3.0002">
        <ele>838.5</ele>
        <time>2026-04-30T08:43:40.999Z</time>
      </trkpt>
      <trkpt lat="43.96772" lon="3.00021">
        <ele>838.7</ele>
        <time>2026-04-30T08:43:41.999Z</time>
      </trkpt>
      <trkpt lat="43.96772" lon="3.00021">
        <ele>838.8</ele>
        <time>2026-04-30T08:43:42.999Z</time>
      </trkpt>
      <trkpt lat="43.96772" lon="3.00021">
        <ele>838.9</ele>
        <time>2026-04-30T08:43:43.999Z</time>
      </trkpt>
      <trkpt lat="43.96772" lon="3.00021">
        <ele>839.2</ele>
        <time>2026-04-30T08:43:44.999Z</time>
      </trkpt>
      <trkpt lat="43.96772" lon="3.00021">
        <ele>839.4</ele>
        <time>2026-04-30T08:43:45.999Z</time>
      </trkpt>
      <trkpt lat="43.96772" lon="3.00021">
        <ele>839.3</ele>
        <time>2026-04-30T08:43:46.999Z</time>
      </trkpt>
      <trkpt lat="43.96772" lon="3.0002">
        <ele>839.4</ele>
        <time>2026-04-30T08:43:47.999Z</time>
      </trkpt>
      <trkpt lat="43.96772" lon="3.0002">
        <ele>839.3</ele>
        <time>2026-04-30T08:43:48.999Z</time>
      </trkpt>
      <trkpt lat="43.96772" lon="3.00021">
        <ele>839.4</ele>
        <time>2026-04-30T08:43:49.999Z</time>
      </trkpt>
      <trkpt lat="43.96772" lon="3.00022">
        <ele>839.6</ele>
        <time>2026-04-30T08:43:50.999Z</time>
      </trkpt>
      <trkpt lat="43.96773" lon="3.00021">
        <ele>839.7</ele>
        <time>2026-04-30T08:43:51.999Z</time>
      </trkpt>
      <trkpt lat="43.96774" lon="3.00021">
        <ele>839.9</ele>
        <time>2026-04-30T08:43:52.999Z</time>
      </trkpt>
      <trkpt lat="43.96774" lon="3.00021">
        <ele>839.9</ele>
        <time>2026-04-30T08:43:53.999Z</time>
      </trkpt>
      <trkpt lat="43.96775" lon="3.00021">
        <ele>839.7</ele>
        <time>2026-04-30T08:43:54.999Z</time>
      </trkpt>
      <trkpt lat="43.96775" lon="3.00021">
        <ele>839.6</ele>
        <time>2026-04-30T08:43:55.999Z</time>
      </trkpt>
      <trkpt lat="43.96775" lon="3.00022">
        <ele>839.6</ele>
        <time>2026-04-30T08:43:56.999Z</time>
      </trkpt>
      <trkpt lat="43.96776" lon="3.00022">
        <ele>839.8</ele>
        <time>2026-04-30T08:43:57.999Z</time>
      </trkpt>
      <trkpt lat="43.96776" lon="3.00023">
        <ele>839.9</ele>
        <time>2026-04-30T08:43:59.999Z</time>
      </trkpt>
      <trkpt lat="43.96776" lon="3.00023">
        <ele>839.7</ele>
        <time>2026-04-30T08:44:00.999Z</time>
      </trkpt>
      <trkpt lat="43.96776" lon="3.00023">
        <ele>839.7</ele>
        <time>2026-04-30T08:44:01.999Z</time>
      </trkpt>
      <trkpt lat="43.96776" lon="3.00023">
        <ele>839.8</ele>
        <time>2026-04-30T08:44:02.999Z</time>
      </trkpt>
      <trkpt lat="43.96776" lon="3.00023">
        <ele>839.8</ele>
        <time>2026-04-30T08:44:03.999Z</time>
      </trkpt>
      <trkpt lat="43.96776" lon="3.00023">
        <ele>840</ele>
        <time>2026-04-30T08:44:04.999Z</time>
      </trkpt>
      <trkpt lat="43.96776" lon="3.00023">
        <ele>840.1</ele>
        <time>2026-04-30T08:44:05.999Z</time>
      </trkpt>
      <trkpt lat="43.96776" lon="3.00023">
        <ele>840.1</ele>
        <time>2026-04-30T08:44:06.999Z</time>
      </trkpt>
      <trkpt lat="43.96776" lon="3.00023">
        <ele>840.2</ele>
        <time>2026-04-30T08:44:07.999Z</time>
      </trkpt>
      <trkpt lat="43.96776" lon="3.00023">
        <ele>839.8</ele>
        <time>2026-04-30T08:44:08.999Z</time>
      </trkpt>
      <trkpt lat="43.96776" lon="3.00023">
        <ele>839.6</ele>
        <time>2026-04-30T08:44:09.999Z</time>
      </trkpt>
      <trkpt lat="43.96776" lon="3.00023">
        <ele>839.6</ele>
        <time>2026-04-30T08:44:10.999Z</time>
      </trkpt>
      <trkpt lat="43.96776" lon="3.00023">
        <ele>839.9</ele>
        <time>2026-04-30T08:44:11.999Z</time>
      </trkpt>
      <trkpt lat="43.96776" lon="3.00023">
        <ele>840</ele>
        <time>2026-04-30T08:44:12.999Z</time>
      </trkpt>
      <trkpt lat="43.96776" lon="3.00023">
        <ele>840</ele>
        <time>2026-04-30T08:44:13.999Z</time>
      </trkpt>
      <trkpt lat="43.96776" lon="3.00022">
        <ele>839.9</ele>
        <time>2026-04-30T08:44:14.999Z</time>
      </trkpt>
      <trkpt lat="43.96776" lon="3.00022">
        <ele>839.9</ele>
        <time>2026-04-30T08:44:15.999Z</time>
      </trkpt>
      <trkpt lat="43.96776" lon="3.00022">
        <ele>840</ele>
        <time>2026-04-30T08:44:16.999Z</time>
      </trkpt>
      <trkpt lat="43.96776" lon="3.00022">
        <ele>840.4</ele>
        <time>2026-04-30T08:44:17.999Z</time>
      </trkpt>
      <trkpt lat="43.96776" lon="3.00022">
        <ele>840.6</ele>
        <time>2026-04-30T08:44:18.999Z</time>
      </trkpt>
      <trkpt lat="43.96776" lon="3.00022">
        <ele>840.8</ele>
        <time>2026-04-30T08:44:19.999Z</time>
      </trkpt>
      <trkpt lat="43.96775" lon="3.00022">
        <ele>841</ele>
        <time>2026-04-30T08:44:20.999Z</time>
      </trkpt>
      <trkpt lat="43.96775" lon="3.00023">
        <ele>841.2</ele>
        <time>2026-04-30T08:44:21.999Z</time>
      </trkpt>
      <trkpt lat="43.96775" lon="3.00023">
        <ele>841.5</ele>
        <time>2026-04-30T08:44:22.999Z</time>
      </trkpt>
      <trkpt lat="43.96775" lon="3.00023">
        <ele>841.5</ele>
        <time>2026-04-30T08:44:23.999Z</time>
      </trkpt>
      <trkpt lat="43.96775" lon="3.00023">
        <ele>841.6</ele>
        <time>2026-04-30T08:44:24.999Z</time>
      </trkpt>
      <trkpt lat="43.96774" lon="3.00023">
        <ele>841.6</ele>
        <time>2026-04-30T08:44:25.999Z</time>
      </trkpt>
      <trkpt lat="43.96774" lon="3.00023">
        <ele>841.5</ele>
        <time>2026-04-30T08:44:26.999Z</time>
      </trkpt>
      <trkpt lat="43.96774" lon="3.00023">
        <ele>841.1</ele>
        <time>2026-04-30T08:44:27.999Z</time>
      </trkpt>
      <trkpt lat="43.96774" lon="3.00023">
        <ele>841.2</ele>
        <time>2026-04-30T08:44:28.999Z</time>
      </trkpt>
      <trkpt lat="43.96774" lon="3.00023">
        <ele>840.9</ele>
        <time>2026-04-30T08:44:29.999Z</time>
      </trkpt>
      <trkpt lat="43.96774" lon="3.00023">
        <ele>838.5</ele>
        <time>2026-04-30T08:44:30.999Z</time>
      </trkpt>
      <trkpt lat="43.96774" lon="3.00023">
        <ele>838.6</ele>
        <time>2026-04-30T08:44:31.999Z</time>
      </trkpt>
      <trkpt lat="43.96774" lon="3.00023">
        <ele>838.8</ele>
        <time>2026-04-30T08:44:32.999Z</time>
      </trkpt>
      <trkpt lat="43.96775" lon="3.00022">
        <ele>838.9</ele>
        <time>2026-04-30T08:44:34.999Z</time>
      </trkpt>
      <trkpt lat="43.96776" lon="3.00021">
        <ele>839.2</ele>
        <time>2026-04-30T08:44:35.999Z</time>
      </trkpt>
      <trkpt lat="43.96778" lon="3.00019">
        <ele>839.8</ele>
        <time>2026-04-30T08:44:36.999Z</time>
      </trkpt>
      <trkpt lat="43.96779" lon="3.00019">
        <ele>840.2</ele>
        <time>2026-04-30T08:44:37.999Z</time>
      </trkpt>
      <trkpt lat="43.9678" lon="3.00018">
        <ele>840.5</ele>
        <time>2026-04-30T08:44:38.999Z</time>
      </trkpt>
      <trkpt lat="43.96781" lon="3.00016">
        <ele>840.7</ele>
        <time>2026-04-30T08:44:39.999Z</time>
      </trkpt>
      <trkpt lat="43.96782" lon="3.00016">
        <ele>840.8</ele>
        <time>2026-04-30T08:44:40.999Z</time>
      </trkpt>
      <trkpt lat="43.96782" lon="3.00015">
        <ele>840.6</ele>
        <time>2026-04-30T08:44:41.999Z</time>
      </trkpt>
      <trkpt lat="43.96783" lon="3.00014">
        <ele>840.4</ele>
        <time>2026-04-30T08:44:42.999Z</time>
      </trkpt>
      <trkpt lat="43.96783" lon="3.00013">
        <ele>840.9</ele>
        <time>2026-04-30T08:44:43.999Z</time>
      </trkpt>
      <trkpt lat="43.96783" lon="3.00012">
        <ele>841</ele>
        <time>2026-04-30T08:44:44.999Z</time>
      </trkpt>
      <trkpt lat="43.96783" lon="3.00012">
        <ele>841</ele>
        <time>2026-04-30T08:44:45.999Z</time>
      </trkpt>
      <trkpt lat="43.96783" lon="3.00009">
        <ele>840.6</ele>
        <time>2026-04-30T08:44:46.999Z</time>
      </trkpt>
      <trkpt lat="43.96782" lon="3.00008">
        <ele>840.5</ele>
        <time>2026-04-30T08:44:47.999Z</time>
      </trkpt>
      <trkpt lat="43.96782" lon="3.00007">
        <ele>840.5</ele>
        <time>2026-04-30T08:44:48.999Z</time>
      </trkpt>
      <trkpt lat="43.96782" lon="3.00005">
        <ele>840.8</ele>
        <time>2026-04-30T08:44:49.999Z</time>
      </trkpt>
      <trkpt lat="43.96781" lon="3.00005">
        <ele>840.8</ele>
        <time>2026-04-30T08:44:50.999Z</time>
      </trkpt>
      <trkpt lat="43.96781" lon="3.00005">
        <ele>840.5</ele>
        <time>2026-04-30T08:44:51.999Z</time>
      </trkpt>
      <trkpt lat="43.96782" lon="3.00005">
        <ele>840.2</ele>
        <time>2026-04-30T08:44:52.999Z</time>
      </trkpt>
      <trkpt lat="43.96782" lon="3.00005">
        <ele>840</ele>
        <time>2026-04-30T08:44:53.999Z</time>
      </trkpt>
      <trkpt lat="43.96783" lon="3.00004">
        <ele>839.6</ele>
        <time>2026-04-30T08:44:54.999Z</time>
      </trkpt>
      <trkpt lat="43.96784" lon="3.00004">
        <ele>839.7</ele>
        <time>2026-04-30T08:44:55.999Z</time>
      </trkpt>
      <trkpt lat="43.96786" lon="3.00004">
        <ele>839.8</ele>
        <time>2026-04-30T08:44:56.999Z</time>
      </trkpt>
      <trkpt lat="43.96785" lon="3.00003">
        <ele>840</ele>
        <time>2026-04-30T08:44:57.999Z</time>
      </trkpt>
      <trkpt lat="43.96787" lon="3.00001">
        <ele>840.1</ele>
        <time>2026-04-30T08:44:58.999Z</time>
      </trkpt>
      <trkpt lat="43.96789" lon="3.00001">
        <ele>839.7</ele>
        <time>2026-04-30T08:44:59.999Z</time>
      </trkpt>
      <trkpt lat="43.96789" lon="2.99999">
        <ele>839.7</ele>
        <time>2026-04-30T08:45:00.999Z</time>
      </trkpt>
      <trkpt lat="43.9679" lon="2.99998">
        <ele>839.8</ele>
        <time>2026-04-30T08:45:01.999Z</time>
      </trkpt>
      <trkpt lat="43.96789" lon="2.99998">
        <ele>839.6</ele>
        <time>2026-04-30T08:45:02.999Z</time>
      </trkpt>
      <trkpt lat="43.9679" lon="2.99998">
        <ele>839.1</ele>
        <time>2026-04-30T08:45:03.999Z</time>
      </trkpt>
      <trkpt lat="43.96789" lon="2.99997">
        <ele>839.1</ele>
        <time>2026-04-30T08:45:05.000Z</time>
      </trkpt>
      <trkpt lat="43.96788" lon="2.99995">
        <ele>838.8</ele>
        <time>2026-04-30T08:45:06.000Z</time>
      </trkpt>
      <trkpt lat="43.96787" lon="2.99994">
        <ele>838.1</ele>
        <time>2026-04-30T08:45:07.000Z</time>
      </trkpt>
      <trkpt lat="43.96787" lon="2.99994">
        <ele>838.2</ele>
        <time>2026-04-30T08:45:08.000Z</time>
      </trkpt>
      <trkpt lat="43.96788" lon="2.99994">
        <ele>838</ele>
        <time>2026-04-30T08:45:09.000Z</time>
      </trkpt>
      <trkpt lat="43.96788" lon="2.99994">
        <ele>837.9</ele>
        <time>2026-04-30T08:45:10.000Z</time>
      </trkpt>
      <trkpt lat="43.96789" lon="2.99994">
        <ele>837.8</ele>
        <time>2026-04-30T08:45:11.000Z</time>
      </trkpt>
      <trkpt lat="43.96788" lon="2.99993">
        <ele>838</ele>
        <time>2026-04-30T08:45:12.000Z</time>
      </trkpt>
      <trkpt lat="43.96788" lon="2.99992">
        <ele>838.1</ele>
        <time>2026-04-30T08:45:13.000Z</time>
      </trkpt>
      <trkpt lat="43.96788" lon="2.99992">
        <ele>838.3</ele>
        <time>2026-04-30T08:45:14.000Z</time>
      </trkpt>
      <trkpt lat="43.96788" lon="2.99992">
        <ele>838.6</ele>
        <time>2026-04-30T08:45:15.000Z</time>
      </trkpt>
      <trkpt lat="43.96789" lon="2.99992">
        <ele>838.4</ele>
        <time>2026-04-30T08:45:16.000Z</time>
      </trkpt>
      <trkpt lat="43.9679" lon="2.9999">
        <ele>838.5</ele>
        <time>2026-04-30T08:45:17.000Z</time>
      </trkpt>
      <trkpt lat="43.96791" lon="2.99988">
        <ele>838.2</ele>
        <time>2026-04-30T08:45:18.000Z</time>
      </trkpt>
      <trkpt lat="43.96791" lon="2.99986">
        <ele>838.6</ele>
        <time>2026-04-30T08:45:19.000Z</time>
      </trkpt>
      <trkpt lat="43.96792" lon="2.99983">
        <ele>838.7</ele>
        <time>2026-04-30T08:45:20.000Z</time>
      </trkpt>
      <trkpt lat="43.96792" lon="2.99979">
        <ele>839</ele>
        <time>2026-04-30T08:45:21.000Z</time>
      </trkpt>
      <trkpt lat="43.96792" lon="2.99975">
        <ele>839.3</ele>
        <time>2026-04-30T08:45:22.000Z</time>
      </trkpt>
      <trkpt lat="43.96792" lon="2.99973">
        <ele>839.5</ele>
        <time>2026-04-30T08:45:23.000Z</time>
      </trkpt>
      <trkpt lat="43.96793" lon="2.9997">
        <ele>839.8</ele>
        <time>2026-04-30T08:45:24.000Z</time>
      </trkpt>
      <trkpt lat="43.96793" lon="2.99967">
        <ele>839.9</ele>
        <time>2026-04-30T08:45:25.000Z</time>
      </trkpt>
      <trkpt lat="43.96794" lon="2.99965">
        <ele>840.1</ele>
        <time>2026-04-30T08:45:26.000Z</time>
      </trkpt>
      <trkpt lat="43.96795" lon="2.99963">
        <ele>840.6</ele>
        <time>2026-04-30T08:45:27.000Z</time>
      </trkpt>
      <trkpt lat="43.96795" lon="2.99962">
        <ele>841.3</ele>
        <time>2026-04-30T08:45:28.000Z</time>
      </trkpt>
      <trkpt lat="43.96795" lon="2.9996">
        <ele>841.4</ele>
        <time>2026-04-30T08:45:29.000Z</time>
      </trkpt>
      <trkpt lat="43.96794" lon="2.99958">
        <ele>841.6</ele>
        <time>2026-04-30T08:45:30.000Z</time>
      </trkpt>
      <trkpt lat="43.96794" lon="2.99957">
        <ele>841.7</ele>
        <time>2026-04-30T08:45:31.000Z</time>
      </trkpt>
      <trkpt lat="43.96794" lon="2.99956">
        <ele>841.2</ele>
        <time>2026-04-30T08:45:32.000Z</time>
      </trkpt>
      <trkpt lat="43.96792" lon="2.99954">
        <ele>841.6</ele>
        <time>2026-04-30T08:45:33.000Z</time>
      </trkpt>
      <trkpt lat="43.96792" lon="2.99952">
        <ele>841.2</ele>
        <time>2026-04-30T08:45:34.000Z</time>
      </trkpt>
      <trkpt lat="43.9679" lon="2.99949">
        <ele>841.9</ele>
        <time>2026-04-30T08:45:35.000Z</time>
      </trkpt>
      <trkpt lat="43.96789" lon="2.99948">
        <ele>842</ele>
        <time>2026-04-30T08:45:36.000Z</time>
      </trkpt>
      <trkpt lat="43.96789" lon="2.99948">
        <ele>842.7</ele>
        <time>2026-04-30T08:45:37.000Z</time>
      </trkpt>
      <trkpt lat="43.96789" lon="2.99948">
        <ele>843.1</ele>
        <time>2026-04-30T08:45:38.000Z</time>
      </trkpt>
      <trkpt lat="43.96789" lon="2.99948">
        <ele>843.7</ele>
        <time>2026-04-30T08:45:39.000Z</time>
      </trkpt>
      <trkpt lat="43.9679" lon="2.99945">
        <ele>844.1</ele>
        <time>2026-04-30T08:45:40.000Z</time>
      </trkpt>
      <trkpt lat="43.9679" lon="2.99944">
        <ele>844.3</ele>
        <time>2026-04-30T08:45:41.000Z</time>
      </trkpt>
      <trkpt lat="43.9679" lon="2.99942">
        <ele>844.5</ele>
        <time>2026-04-30T08:45:42.000Z</time>
      </trkpt>
      <trkpt lat="43.96791" lon="2.99941">
        <ele>844</ele>
        <time>2026-04-30T08:45:43.000Z</time>
      </trkpt>
      <trkpt lat="43.96791" lon="2.99941">
        <ele>844.4</ele>
        <time>2026-04-30T08:45:44.000Z</time>
      </trkpt>
      <trkpt lat="43.96791" lon="2.9994">
        <ele>844.1</ele>
        <time>2026-04-30T08:45:45.000Z</time>
      </trkpt>
      <trkpt lat="43.96791" lon="2.9994">
        <ele>844.1</ele>
        <time>2026-04-30T08:45:46.000Z</time>
      </trkpt>
      <trkpt lat="43.96792" lon="2.99937">
        <ele>843.8</ele>
        <time>2026-04-30T08:45:47.000Z</time>
      </trkpt>
      <trkpt lat="43.96792" lon="2.99936">
        <ele>843.4</ele>
        <time>2026-04-30T08:45:48.000Z</time>
      </trkpt>
      <trkpt lat="43.96793" lon="2.99934">
        <ele>842.9</ele>
        <time>2026-04-30T08:45:49.000Z</time>
      </trkpt>
      <trkpt lat="43.96792" lon="2.99931">
        <ele>843.6</ele>
        <time>2026-04-30T08:45:50.000Z</time>
      </trkpt>
      <trkpt lat="43.96792" lon="2.99928">
        <ele>844.1</ele>
        <time>2026-04-30T08:45:51.000Z</time>
      </trkpt>
      <trkpt lat="43.96793" lon="2.99926">
        <ele>844</ele>
        <time>2026-04-30T08:45:52.000Z</time>
      </trkpt>
      <trkpt lat="43.96794" lon="2.99923">
        <ele>843.7</ele>
        <time>2026-04-30T08:45:53.000Z</time>
      </trkpt>
      <trkpt lat="43.96794" lon="2.9992">
        <ele>843.4</ele>
        <time>2026-04-30T08:45:54.000Z</time>
      </trkpt>
      <trkpt lat="43.96793" lon="2.99918">
        <ele>843.2</ele>
        <time>2026-04-30T08:45:55.000Z</time>
      </trkpt>
      <trkpt lat="43.96792" lon="2.99915">
        <ele>843</ele>
        <time>2026-04-30T08:45:56.000Z</time>
      </trkpt>
      <trkpt lat="43.96792" lon="2.99914">
        <ele>843</ele>
        <time>2026-04-30T08:45:57.000Z</time>
      </trkpt>
      <trkpt lat="43.96791" lon="2.99912">
        <ele>842.7</ele>
        <time>2026-04-30T08:45:58.000Z</time>
      </trkpt>
      <trkpt lat="43.96791" lon="2.99911">
        <ele>842.5</ele>
        <time>2026-04-30T08:45:59.000Z</time>
      </trkpt>
      <trkpt lat="43.9679" lon="2.99909">
        <ele>842.4</ele>
        <time>2026-04-30T08:46:00.000Z</time>
      </trkpt>
      <trkpt lat="43.9679" lon="2.99907">
        <ele>842.6</ele>
        <time>2026-04-30T08:46:01.000Z</time>
      </trkpt>
      <trkpt lat="43.96789" lon="2.99903">
        <ele>843.1</ele>
        <time>2026-04-30T08:46:02.000Z</time>
      </trkpt>
      <trkpt lat="43.96789" lon="2.99901">
        <ele>843.1</ele>
        <time>2026-04-30T08:46:03.000Z</time>
      </trkpt>
      <trkpt lat="43.96788" lon="2.999">
        <ele>843.1</ele>
        <time>2026-04-30T08:46:04.000Z</time>
      </trkpt>
      <trkpt lat="43.96788" lon="2.99898">
        <ele>843.3</ele>
        <time>2026-04-30T08:46:05.000Z</time>
      </trkpt>
      <trkpt lat="43.96788" lon="2.99896">
        <ele>843.4</ele>
        <time>2026-04-30T08:46:06.000Z</time>
      </trkpt>
      <trkpt lat="43.96788" lon="2.99893">
        <ele>843.3</ele>
        <time>2026-04-30T08:46:07.000Z</time>
      </trkpt>
      <trkpt lat="43.96788" lon="2.99891">
        <ele>843.7</ele>
        <time>2026-04-30T08:46:08.000Z</time>
      </trkpt>
      <trkpt lat="43.96788" lon="2.9989">
        <ele>843.2</ele>
        <time>2026-04-30T08:46:09.000Z</time>
      </trkpt>
      <trkpt lat="43.96788" lon="2.99888">
        <ele>843.2</ele>
        <time>2026-04-30T08:46:10.000Z</time>
      </trkpt>
      <trkpt lat="43.96788" lon="2.99886">
        <ele>843.8</ele>
        <time>2026-04-30T08:46:11.000Z</time>
      </trkpt>
      <trkpt lat="43.96788" lon="2.99884">
        <ele>844.5</ele>
        <time>2026-04-30T08:46:12.000Z</time>
      </trkpt>
      <trkpt lat="43.96787" lon="2.99884">
        <ele>844.9</ele>
        <time>2026-04-30T08:46:13.000Z</time>
      </trkpt>
      <trkpt lat="43.96787" lon="2.99883">
        <ele>845.3</ele>
        <time>2026-04-30T08:46:14.000Z</time>
      </trkpt>
      <trkpt lat="43.96787" lon="2.99883">
        <ele>845.5</ele>
        <time>2026-04-30T08:46:15.000Z</time>
      </trkpt>
      <trkpt lat="43.96788" lon="2.99882">
        <ele>845.7</ele>
        <time>2026-04-30T08:46:16.000Z</time>
      </trkpt>
      <trkpt lat="43.96787" lon="2.99881">
        <ele>846.2</ele>
        <time>2026-04-30T08:46:17.000Z</time>
      </trkpt>
      <trkpt lat="43.96787" lon="2.9988">
        <ele>846.5</ele>
        <time>2026-04-30T08:46:18.000Z</time>
      </trkpt>
      <trkpt lat="43.96787" lon="2.99879">
        <ele>846.7</ele>
        <time>2026-04-30T08:46:19.000Z</time>
      </trkpt>
      <trkpt lat="43.96787" lon="2.99879">
        <ele>847.1</ele>
        <time>2026-04-30T08:46:20.000Z</time>
      </trkpt>
      <trkpt lat="43.96787" lon="2.99879">
        <ele>847.2</ele>
        <time>2026-04-30T08:46:21.000Z</time>
      </trkpt>
      <trkpt lat="43.96788" lon="2.99877">
        <ele>846.9</ele>
        <time>2026-04-30T08:46:22.000Z</time>
      </trkpt>
      <trkpt lat="43.96788" lon="2.99872">
        <ele>847.4</ele>
        <time>2026-04-30T08:46:23.000Z</time>
      </trkpt>
      <trkpt lat="43.96789" lon="2.9987">
        <ele>847.2</ele>
        <time>2026-04-30T08:46:24.000Z</time>
      </trkpt>
      <trkpt lat="43.9679" lon="2.99866">
        <ele>847.1</ele>
        <time>2026-04-30T08:46:25.000Z</time>
      </trkpt>
      <trkpt lat="43.9679" lon="2.99863">
        <ele>847.7</ele>
        <time>2026-04-30T08:46:26.000Z</time>
      </trkpt>
      <trkpt lat="43.9679" lon="2.9986">
        <ele>848.3</ele>
        <time>2026-04-30T08:46:27.000Z</time>
      </trkpt>
      <trkpt lat="43.9679" lon="2.99858">
        <ele>848.5</ele>
        <time>2026-04-30T08:46:28.000Z</time>
      </trkpt>
      <trkpt lat="43.96789" lon="2.99857">
        <ele>848.7</ele>
        <time>2026-04-30T08:46:29.000Z</time>
      </trkpt>
      <trkpt lat="43.96789" lon="2.99855">
        <ele>848.9</ele>
        <time>2026-04-30T08:46:30.000Z</time>
      </trkpt>
      <trkpt lat="43.96788" lon="2.9985">
        <ele>849.5</ele>
        <time>2026-04-30T08:46:31.000Z</time>
      </trkpt>
      <trkpt lat="43.96787" lon="2.99847">
        <ele>850</ele>
        <time>2026-04-30T08:46:32.000Z</time>
      </trkpt>
      <trkpt lat="43.96786" lon="2.99845">
        <ele>849.9</ele>
        <time>2026-04-30T08:46:33.000Z</time>
      </trkpt>
      <trkpt lat="43.96786" lon="2.99843">
        <ele>849.5</ele>
        <time>2026-04-30T08:46:34.000Z</time>
      </trkpt>
      <trkpt lat="43.96785" lon="2.9984">
        <ele>849.2</ele>
        <time>2026-04-30T08:46:35.000Z</time>
      </trkpt>
      <trkpt lat="43.96786" lon="2.99838">
        <ele>848.9</ele>
        <time>2026-04-30T08:46:36.000Z</time>
      </trkpt>
      <trkpt lat="43.96786" lon="2.99835">
        <ele>848.3</ele>
        <time>2026-04-30T08:46:37.000Z</time>
      </trkpt>
      <trkpt lat="43.96787" lon="2.99835">
        <ele>847.9</ele>
        <time>2026-04-30T08:46:38.000Z</time>
      </trkpt>
      <trkpt lat="43.96787" lon="2.99834">
        <ele>847.5</ele>
        <time>2026-04-30T08:46:39.000Z</time>
      </trkpt>
      <trkpt lat="43.96787" lon="2.99832">
        <ele>847.6</ele>
        <time>2026-04-30T08:46:40.000Z</time>
      </trkpt>
      <trkpt lat="43.96787" lon="2.9983">
        <ele>846.4</ele>
        <time>2026-04-30T08:46:41.000Z</time>
      </trkpt>
      <trkpt lat="43.96788" lon="2.99828">
        <ele>846.1</ele>
        <time>2026-04-30T08:46:42.000Z</time>
      </trkpt>
      <trkpt lat="43.96787" lon="2.99826">
        <ele>845.8</ele>
        <time>2026-04-30T08:46:43.000Z</time>
      </trkpt>
      <trkpt lat="43.96787" lon="2.99824">
        <ele>846.3</ele>
        <time>2026-04-30T08:46:44.000Z</time>
      </trkpt>
      <trkpt lat="43.96786" lon="2.99823">
        <ele>846.6</ele>
        <time>2026-04-30T08:46:45.000Z</time>
      </trkpt>
      <trkpt lat="43.96786" lon="2.99821">
        <ele>846.8</ele>
        <time>2026-04-30T08:46:46.000Z</time>
      </trkpt>
      <trkpt lat="43.96786" lon="2.9982">
        <ele>847</ele>
        <time>2026-04-30T08:46:47.000Z</time>
      </trkpt>
      <trkpt lat="43.96786" lon="2.99819">
        <ele>847.3</ele>
        <time>2026-04-30T08:46:48.000Z</time>
      </trkpt>
      <trkpt lat="43.96785" lon="2.99817">
        <ele>846.6</ele>
        <time>2026-04-30T08:46:49.000Z</time>
      </trkpt>
      <trkpt lat="43.96785" lon="2.99817">
        <ele>845.9</ele>
        <time>2026-04-30T08:46:50.000Z</time>
      </trkpt>
      <trkpt lat="43.96785" lon="2.99817">
        <ele>846.1</ele>
        <time>2026-04-30T08:46:51.000Z</time>
      </trkpt>
      <trkpt lat="43.96785" lon="2.99817">
        <ele>845.8</ele>
        <time>2026-04-30T08:46:52.000Z</time>
      </trkpt>
      <trkpt lat="43.96785" lon="2.99815">
        <ele>845.8</ele>
        <time>2026-04-30T08:46:53.000Z</time>
      </trkpt>
      <trkpt lat="43.96786" lon="2.99813">
        <ele>845.4</ele>
        <time>2026-04-30T08:46:54.000Z</time>
      </trkpt>
      <trkpt lat="43.96786" lon="2.99811">
        <ele>845.7</ele>
        <time>2026-04-30T08:46:55.000Z</time>
      </trkpt>
      <trkpt lat="43.96785" lon="2.99809">
        <ele>845.8</ele>
        <time>2026-04-30T08:46:56.000Z</time>
      </trkpt>
      <trkpt lat="43.96786" lon="2.99809">
        <ele>845.7</ele>
        <time>2026-04-30T08:46:57.000Z</time>
      </trkpt>
      <trkpt lat="43.96786" lon="2.99809">
        <ele>845.4</ele>
        <time>2026-04-30T08:46:58.000Z</time>
      </trkpt>
      <trkpt lat="43.96786" lon="2.99809">
        <ele>845.2</ele>
        <time>2026-04-30T08:46:59.000Z</time>
      </trkpt>
      <trkpt lat="43.96786" lon="2.99808">
        <ele>845.4</ele>
        <time>2026-04-30T08:47:00.000Z</time>
      </trkpt>
      <trkpt lat="43.96786" lon="2.99808">
        <ele>845.2</ele>
        <time>2026-04-30T08:47:01.000Z</time>
      </trkpt>
      <trkpt lat="43.96786" lon="2.99808">
        <ele>845.2</ele>
        <time>2026-04-30T08:47:02.000Z</time>
      </trkpt>
      <trkpt lat="43.96786" lon="2.99808">
        <ele>845.5</ele>
        <time>2026-04-30T08:47:03.000Z</time>
      </trkpt>
      <trkpt lat="43.96786" lon="2.99807">
        <ele>845.5</ele>
        <time>2026-04-30T08:47:04.000Z</time>
      </trkpt>
      <trkpt lat="43.96785" lon="2.99807">
        <ele>845.4</ele>
        <time>2026-04-30T08:47:05.000Z</time>
      </trkpt>
      <trkpt lat="43.96786" lon="2.99807">
        <ele>845.3</ele>
        <time>2026-04-30T08:47:06.000Z</time>
      </trkpt>
      <trkpt lat="43.96786" lon="2.99807">
        <ele>845.2</ele>
        <time>2026-04-30T08:47:07.000Z</time>
      </trkpt>
      <trkpt lat="43.96787" lon="2.99805">
        <ele>844.6</ele>
        <time>2026-04-30T08:47:08.000Z</time>
      </trkpt>
      <trkpt lat="43.96786" lon="2.99803">
        <ele>844.4</ele>
        <time>2026-04-30T08:47:09.000Z</time>
      </trkpt>
      <trkpt lat="43.96786" lon="2.99802">
        <ele>844.2</ele>
        <time>2026-04-30T08:47:10.000Z</time>
      </trkpt>
      <trkpt lat="43.96786" lon="2.998">
        <ele>844.4</ele>
        <time>2026-04-30T08:47:11.000Z</time>
      </trkpt>
      <trkpt lat="43.96785" lon="2.99799">
        <ele>844.5</ele>
        <time>2026-04-30T08:47:12.000Z</time>
      </trkpt>
      <trkpt lat="43.96785" lon="2.99798">
        <ele>844.5</ele>
        <time>2026-04-30T08:47:13.000Z</time>
      </trkpt>
      <trkpt lat="43.96784" lon="2.99797">
        <ele>844.5</ele>
        <time>2026-04-30T08:47:14.000Z</time>
      </trkpt>
      <trkpt lat="43.96785" lon="2.99796">
        <ele>844.2</ele>
        <time>2026-04-30T08:47:15.000Z</time>
      </trkpt>
      <trkpt lat="43.96785" lon="2.99794">
        <ele>843.7</ele>
        <time>2026-04-30T08:47:16.000Z</time>
      </trkpt>
      <trkpt lat="43.96786" lon="2.99791">
        <ele>843.3</ele>
        <time>2026-04-30T08:47:17.000Z</time>
      </trkpt>
      <trkpt lat="43.96786" lon="2.99788">
        <ele>843.1</ele>
        <time>2026-04-30T08:47:18.000Z</time>
      </trkpt>
      <trkpt lat="43.96786" lon="2.99787">
        <ele>842.9</ele>
        <time>2026-04-30T08:47:19.000Z</time>
      </trkpt>
      <trkpt lat="43.96787" lon="2.99783">
        <ele>842.9</ele>
        <time>2026-04-30T08:47:20.000Z</time>
      </trkpt>
      <trkpt lat="43.96787" lon="2.99781">
        <ele>842.5</ele>
        <time>2026-04-30T08:47:21.000Z</time>
      </trkpt>
      <trkpt lat="43.96787" lon="2.99778">
        <ele>842.2</ele>
        <time>2026-04-30T08:47:22.000Z</time>
      </trkpt>
      <trkpt lat="43.96787" lon="2.99778">
        <ele>843.1</ele>
        <time>2026-04-30T08:47:23.000Z</time>
      </trkpt>
      <trkpt lat="43.96787" lon="2.99777">
        <ele>843.3</ele>
        <time>2026-04-30T08:47:24.000Z</time>
      </trkpt>
      <trkpt lat="43.96787" lon="2.99775">
        <ele>842.9</ele>
        <time>2026-04-30T08:47:25.000Z</time>
      </trkpt>
      <trkpt lat="43.96786" lon="2.99772">
        <ele>842.4</ele>
        <time>2026-04-30T08:47:26.000Z</time>
      </trkpt>
      <trkpt lat="43.96787" lon="2.99771">
        <ele>842</ele>
        <time>2026-04-30T08:47:27.000Z</time>
      </trkpt>
      <trkpt lat="43.96786" lon="2.99769">
        <ele>841.3</ele>
        <time>2026-04-30T08:47:28.000Z</time>
      </trkpt>
      <trkpt lat="43.96787" lon="2.99767">
        <ele>841.5</ele>
        <time>2026-04-30T08:47:29.000Z</time>
      </trkpt>
      <trkpt lat="43.96787" lon="2.99766">
        <ele>841.7</ele>
        <time>2026-04-30T08:47:30.000Z</time>
      </trkpt>
      <trkpt lat="43.96787" lon="2.99766">
        <ele>841.6</ele>
        <time>2026-04-30T08:47:31.000Z</time>
      </trkpt>
      <trkpt lat="43.96787" lon="2.99766">
        <ele>841.4</ele>
        <time>2026-04-30T08:47:32.000Z</time>
      </trkpt>
      <trkpt lat="43.96787" lon="2.99766">
        <ele>841.3</ele>
        <time>2026-04-30T08:47:33.000Z</time>
      </trkpt>
      <trkpt lat="43.96787" lon="2.99766">
        <ele>841.3</ele>
        <time>2026-04-30T08:47:34.000Z</time>
      </trkpt>
      <trkpt lat="43.96787" lon="2.99765">
        <ele>841.5</ele>
        <time>2026-04-30T08:47:36.000Z</time>
      </trkpt>
      <trkpt lat="43.96787" lon="2.99765">
        <ele>841.5</ele>
        <time>2026-04-30T08:47:37.000Z</time>
      </trkpt>
      <trkpt lat="43.96787" lon="2.99765">
        <ele>841.5</ele>
        <time>2026-04-30T08:47:38.000Z</time>
      </trkpt>
      <trkpt lat="43.96787" lon="2.99765">
        <ele>841.4</ele>
        <time>2026-04-30T08:47:39.000Z</time>
      </trkpt>
      <trkpt lat="43.96787" lon="2.99765">
        <ele>841.1</ele>
        <time>2026-04-30T08:47:40.000Z</time>
      </trkpt>
      <trkpt lat="43.96787" lon="2.99765">
        <ele>841</ele>
        <time>2026-04-30T08:47:41.000Z</time>
      </trkpt>
      <trkpt lat="43.96787" lon="2.99765">
        <ele>840.6</ele>
        <time>2026-04-30T08:47:42.000Z</time>
      </trkpt>
      <trkpt lat="43.96787" lon="2.99765">
        <ele>840.4</ele>
        <time>2026-04-30T08:47:43.000Z</time>
      </trkpt>
      <trkpt lat="43.96787" lon="2.99765">
        <ele>840.2</ele>
        <time>2026-04-30T08:47:44.000Z</time>
      </trkpt>
      <trkpt lat="43.96787" lon="2.99765">
        <ele>840.2</ele>
        <time>2026-04-30T08:47:45.000Z</time>
      </trkpt>
      <trkpt lat="43.96787" lon="2.99761">
        <ele>840.3</ele>
        <time>2026-04-30T08:47:46.000Z</time>
      </trkpt>
      <trkpt lat="43.96787" lon="2.99759">
        <ele>840</ele>
        <time>2026-04-30T08:47:47.000Z</time>
      </trkpt>
      <trkpt lat="43.96787" lon="2.99757">
        <ele>839.8</ele>
        <time>2026-04-30T08:47:48.000Z</time>
      </trkpt>
      <trkpt lat="43.96787" lon="2.99755">
        <ele>839.7</ele>
        <time>2026-04-30T08:47:49.000Z</time>
      </trkpt>
      <trkpt lat="43.96788" lon="2.99752">
        <ele>839.3</ele>
        <time>2026-04-30T08:47:50.000Z</time>
      </trkpt>
      <trkpt lat="43.96788" lon="2.99749">
        <ele>839.2</ele>
        <time>2026-04-30T08:47:51.000Z</time>
      </trkpt>
      <trkpt lat="43.96788" lon="2.99747">
        <ele>838.9</ele>
        <time>2026-04-30T08:47:52.000Z</time>
      </trkpt>
      <trkpt lat="43.96788" lon="2.99746">
        <ele>838.4</ele>
        <time>2026-04-30T08:47:53.000Z</time>
      </trkpt>
      <trkpt lat="43.96788" lon="2.99744">
        <ele>837.8</ele>
        <time>2026-04-30T08:47:54.000Z</time>
      </trkpt>
      <trkpt lat="43.96788" lon="2.99742">
        <ele>837.3</ele>
        <time>2026-04-30T08:47:55.000Z</time>
      </trkpt>
      <trkpt lat="43.96788" lon="2.99739">
        <ele>837.4</ele>
        <time>2026-04-30T08:47:56.000Z</time>
      </trkpt>
      <trkpt lat="43.96788" lon="2.99737">
        <ele>837.2</ele>
        <time>2026-04-30T08:47:57.000Z</time>
      </trkpt>
      <trkpt lat="43.96788" lon="2.99735">
        <ele>837</ele>
        <time>2026-04-30T08:47:58.000Z</time>
      </trkpt>
      <trkpt lat="43.96788" lon="2.99732">
        <ele>836.9</ele>
        <time>2026-04-30T08:47:59.000Z</time>
      </trkpt>
      <trkpt lat="43.96787" lon="2.99731">
        <ele>836.7</ele>
        <time>2026-04-30T08:48:00.000Z</time>
      </trkpt>
      <trkpt lat="43.96787" lon="2.99731">
        <ele>836.5</ele>
        <time>2026-04-30T08:48:01.000Z</time>
      </trkpt>
      <trkpt lat="43.96787" lon="2.9973">
        <ele>836.6</ele>
        <time>2026-04-30T08:48:02.000Z</time>
      </trkpt>
      <trkpt lat="43.96788" lon="2.99729">
        <ele>836.9</ele>
        <time>2026-04-30T08:48:03.000Z</time>
      </trkpt>
      <trkpt lat="43.96788" lon="2.99728">
        <ele>836.5</ele>
        <time>2026-04-30T08:48:04.000Z</time>
      </trkpt>
      <trkpt lat="43.96788" lon="2.99726">
        <ele>836.5</ele>
        <time>2026-04-30T08:48:05.000Z</time>
      </trkpt>
      <trkpt lat="43.96789" lon="2.99725">
        <ele>836.5</ele>
        <time>2026-04-30T08:48:06.000Z</time>
      </trkpt>
      <trkpt lat="43.9679" lon="2.99723">
        <ele>836.2</ele>
        <time>2026-04-30T08:48:07.000Z</time>
      </trkpt>
      <trkpt lat="43.96791" lon="2.99722">
        <ele>836</ele>
        <time>2026-04-30T08:48:08.000Z</time>
      </trkpt>
      <trkpt lat="43.96791" lon="2.99721">
        <ele>835.6</ele>
        <time>2026-04-30T08:48:09.000Z</time>
      </trkpt>
      <trkpt lat="43.96791" lon="2.9972">
        <ele>834.9</ele>
        <time>2026-04-30T08:48:10.000Z</time>
      </trkpt>
      <trkpt lat="43.96792" lon="2.99718">
        <ele>834.6</ele>
        <time>2026-04-30T08:48:11.000Z</time>
      </trkpt>
      <trkpt lat="43.96793" lon="2.99717">
        <ele>834.3</ele>
        <time>2026-04-30T08:48:12.000Z</time>
      </trkpt>
      <trkpt lat="43.96793" lon="2.99715">
        <ele>834.1</ele>
        <time>2026-04-30T08:48:13.000Z</time>
      </trkpt>
      <trkpt lat="43.96793" lon="2.99713">
        <ele>833.9</ele>
        <time>2026-04-30T08:48:14.000Z</time>
      </trkpt>
      <trkpt lat="43.96794" lon="2.99712">
        <ele>833.7</ele>
        <time>2026-04-30T08:48:15.000Z</time>
      </trkpt>
      <trkpt lat="43.96794" lon="2.99711">
        <ele>833</ele>
        <time>2026-04-30T08:48:16.000Z</time>
      </trkpt>
      <trkpt lat="43.96794" lon="2.99709">
        <ele>832.8</ele>
        <time>2026-04-30T08:48:17.000Z</time>
      </trkpt>
      <trkpt lat="43.96793" lon="2.99708">
        <ele>833.1</ele>
        <time>2026-04-30T08:48:18.000Z</time>
      </trkpt>
      <trkpt lat="43.96794" lon="2.99707">
        <ele>833.3</ele>
        <time>2026-04-30T08:48:19.000Z</time>
      </trkpt>
      <trkpt lat="43.96794" lon="2.99706">
        <ele>833.4</ele>
        <time>2026-04-30T08:48:20.000Z</time>
      </trkpt>
      <trkpt lat="43.96794" lon="2.99705">
        <ele>833.2</ele>
        <time>2026-04-30T08:48:21.000Z</time>
      </trkpt>
      <trkpt lat="43.96794" lon="2.99705">
        <ele>832.9</ele>
        <time>2026-04-30T08:48:22.000Z</time>
      </trkpt>
      <trkpt lat="43.96794" lon="2.99704">
        <ele>832.9</ele>
        <time>2026-04-30T08:48:24.000Z</time>
      </trkpt>
      <trkpt lat="43.96794" lon="2.99703">
        <ele>833</ele>
        <time>2026-04-30T08:48:25.000Z</time>
      </trkpt>
      <trkpt lat="43.96793" lon="2.99703">
        <ele>832.8</ele>
        <time>2026-04-30T08:48:26.000Z</time>
      </trkpt>
      <trkpt lat="43.96793" lon="2.99703">
        <ele>832.5</ele>
        <time>2026-04-30T08:48:27.000Z</time>
      </trkpt>
      <trkpt lat="43.96794" lon="2.99699">
        <ele>832.8</ele>
        <time>2026-04-30T08:48:28.000Z</time>
      </trkpt>
      <trkpt lat="43.96794" lon="2.99697">
        <ele>832.9</ele>
        <time>2026-04-30T08:48:29.000Z</time>
      </trkpt>
      <trkpt lat="43.96794" lon="2.99692">
        <ele>833</ele>
        <time>2026-04-30T08:48:30.000Z</time>
      </trkpt>
      <trkpt lat="43.96794" lon="2.99688">
        <ele>832.7</ele>
        <time>2026-04-30T08:48:31.000Z</time>
      </trkpt>
      <trkpt lat="43.96794" lon="2.99686">
        <ele>832.8</ele>
        <time>2026-04-30T08:48:32.000Z</time>
      </trkpt>
      <trkpt lat="43.96794" lon="2.99683">
        <ele>832.9</ele>
        <time>2026-04-30T08:48:33.000Z</time>
      </trkpt>
      <trkpt lat="43.96794" lon="2.99681">
        <ele>833</ele>
        <time>2026-04-30T08:48:34.000Z</time>
      </trkpt>
      <trkpt lat="43.96793" lon="2.99678">
        <ele>833</ele>
        <time>2026-04-30T08:48:35.000Z</time>
      </trkpt>
      <trkpt lat="43.96793" lon="2.99677">
        <ele>832.9</ele>
        <time>2026-04-30T08:48:36.000Z</time>
      </trkpt>
      <trkpt lat="43.96794" lon="2.99675">
        <ele>832.7</ele>
        <time>2026-04-30T08:48:37.000Z</time>
      </trkpt>
      <trkpt lat="43.96794" lon="2.99673">
        <ele>832.7</ele>
        <time>2026-04-30T08:48:38.000Z</time>
      </trkpt>
      <trkpt lat="43.96793" lon="2.99671">
        <ele>832.9</ele>
        <time>2026-04-30T08:48:39.000Z</time>
      </trkpt>
      <trkpt lat="43.96793" lon="2.99669">
        <ele>833</ele>
        <time>2026-04-30T08:48:40.000Z</time>
      </trkpt>
      <trkpt lat="43.96793" lon="2.99668">
        <ele>832.7</ele>
        <time>2026-04-30T08:48:41.000Z</time>
      </trkpt>
      <trkpt lat="43.96792" lon="2.99668">
        <ele>832.3</ele>
        <time>2026-04-30T08:48:42.000Z</time>
      </trkpt>
      <trkpt lat="43.96792" lon="2.99667">
        <ele>832.6</ele>
        <time>2026-04-30T08:48:43.000Z</time>
      </trkpt>
      <trkpt lat="43.96792" lon="2.99668">
        <ele>832.5</ele>
        <time>2026-04-30T08:48:44.000Z</time>
      </trkpt>
      <trkpt lat="43.96791" lon="2.99668">
        <ele>832.3</ele>
        <time>2026-04-30T08:48:45.000Z</time>
      </trkpt>
      <trkpt lat="43.96791" lon="2.99668">
        <ele>832.3</ele>
        <time>2026-04-30T08:48:46.000Z</time>
      </trkpt>
      <trkpt lat="43.96791" lon="2.99668">
        <ele>832.4</ele>
        <time>2026-04-30T08:48:47.000Z</time>
      </trkpt>
      <trkpt lat="43.96791" lon="2.99668">
        <ele>832.2</ele>
        <time>2026-04-30T08:48:48.000Z</time>
      </trkpt>
      <trkpt lat="43.9679" lon="2.99667">
        <ele>832.1</ele>
        <time>2026-04-30T08:48:49.000Z</time>
      </trkpt>
      <trkpt lat="43.96789" lon="2.99667">
        <ele>831.7</ele>
        <time>2026-04-30T08:48:50.000Z</time>
      </trkpt>
      <trkpt lat="43.96788" lon="2.99667">
        <ele>831.5</ele>
        <time>2026-04-30T08:48:51.000Z</time>
      </trkpt>
      <trkpt lat="43.96788" lon="2.99668">
        <ele>831.5</ele>
        <time>2026-04-30T08:48:52.000Z</time>
      </trkpt>
      <trkpt lat="43.96787" lon="2.99668">
        <ele>831.2</ele>
        <time>2026-04-30T08:48:53.000Z</time>
      </trkpt>
      <trkpt lat="43.96786" lon="2.99668">
        <ele>830.9</ele>
        <time>2026-04-30T08:48:54.000Z</time>
      </trkpt>
      <trkpt lat="43.96786" lon="2.99669">
        <ele>830.8</ele>
        <time>2026-04-30T08:48:55.000Z</time>
      </trkpt>
      <trkpt lat="43.96786" lon="2.99669">
        <ele>830.8</ele>
        <time>2026-04-30T08:48:56.000Z</time>
      </trkpt>
      <trkpt lat="43.96786" lon="2.99669">
        <ele>830.5</ele>
        <time>2026-04-30T08:48:57.000Z</time>
      </trkpt>
      <trkpt lat="43.96785" lon="2.9967">
        <ele>830.5</ele>
        <time>2026-04-30T08:48:58.000Z</time>
      </trkpt>
      <trkpt lat="43.96785" lon="2.9967">
        <ele>830.4</ele>
        <time>2026-04-30T08:48:59.000Z</time>
      </trkpt>
      <trkpt lat="43.96785" lon="2.9967">
        <ele>830.4</ele>
        <time>2026-04-30T08:49:00.000Z</time>
      </trkpt>
      <trkpt lat="43.96785" lon="2.99671">
        <ele>830.3</ele>
        <time>2026-04-30T08:49:01.000Z</time>
      </trkpt>
      <trkpt lat="43.96784" lon="2.99672">
        <ele>830.3</ele>
        <time>2026-04-30T08:49:02.000Z</time>
      </trkpt>
      <trkpt lat="43.96784" lon="2.99673">
        <ele>830.2</ele>
        <time>2026-04-30T08:49:03.000Z</time>
      </trkpt>
      <trkpt lat="43.96784" lon="2.99675">
        <ele>829.9</ele>
        <time>2026-04-30T08:49:04.000Z</time>
      </trkpt>
      <trkpt lat="43.96783" lon="2.99676">
        <ele>829.8</ele>
        <time>2026-04-30T08:49:05.000Z</time>
      </trkpt>
      <trkpt lat="43.96783" lon="2.99676">
        <ele>830</ele>
        <time>2026-04-30T08:49:06.000Z</time>
      </trkpt>
      <trkpt lat="43.96783" lon="2.99677">
        <ele>830.1</ele>
        <time>2026-04-30T08:49:07.000Z</time>
      </trkpt>
      <trkpt lat="43.96782" lon="2.99676">
        <ele>830.3</ele>
        <time>2026-04-30T08:49:08.000Z</time>
      </trkpt>
      <trkpt lat="43.96782" lon="2.99676">
        <ele>830.3</ele>
        <time>2026-04-30T08:49:09.000Z</time>
      </trkpt>
      <trkpt lat="43.96781" lon="2.99676">
        <ele>830.7</ele>
        <time>2026-04-30T08:49:10.000Z</time>
      </trkpt>
      <trkpt lat="43.96781" lon="2.99674">
        <ele>830.7</ele>
        <time>2026-04-30T08:49:11.000Z</time>
      </trkpt>
      <trkpt lat="43.96781" lon="2.99672">
        <ele>830.7</ele>
        <time>2026-04-30T08:49:12.000Z</time>
      </trkpt>
      <trkpt lat="43.96781" lon="2.99671">
        <ele>830.6</ele>
        <time>2026-04-30T08:49:13.000Z</time>
      </trkpt>
      <trkpt lat="43.96781" lon="2.9967">
        <ele>830.6</ele>
        <time>2026-04-30T08:49:14.000Z</time>
      </trkpt>
      <trkpt lat="43.96781" lon="2.9967">
        <ele>830.8</ele>
        <time>2026-04-30T08:49:15.000Z</time>
      </trkpt>
      <trkpt lat="43.96781" lon="2.9967">
        <ele>831.2</ele>
        <time>2026-04-30T08:49:16.000Z</time>
      </trkpt>
      <trkpt lat="43.96781" lon="2.99669">
        <ele>831.3</ele>
        <time>2026-04-30T08:49:17.000Z</time>
      </trkpt>
      <trkpt lat="43.96781" lon="2.99669">
        <ele>831.3</ele>
        <time>2026-04-30T08:49:18.000Z</time>
      </trkpt>
      <trkpt lat="43.96781" lon="2.99669">
        <ele>831.4</ele>
        <time>2026-04-30T08:49:19.000Z</time>
      </trkpt>
      <trkpt lat="43.9678" lon="2.99669">
        <ele>831.5</ele>
        <time>2026-04-30T08:49:20.000Z</time>
      </trkpt>
      <trkpt lat="43.9678" lon="2.99669">
        <ele>831.6</ele>
        <time>2026-04-30T08:49:21.000Z</time>
      </trkpt>
      <trkpt lat="43.9678" lon="2.99669">
        <ele>831.6</ele>
        <time>2026-04-30T08:49:22.000Z</time>
      </trkpt>
      <trkpt lat="43.9678" lon="2.99669">
        <ele>831.5</ele>
        <time>2026-04-30T08:49:23.000Z</time>
      </trkpt>
      <trkpt lat="43.9678" lon="2.99669">
        <ele>831.3</ele>
        <time>2026-04-30T08:49:24.000Z</time>
      </trkpt>
      <trkpt lat="43.9678" lon="2.99669">
        <ele>831.2</ele>
        <time>2026-04-30T08:49:25.000Z</time>
      </trkpt>
      <trkpt lat="43.96779" lon="2.99669">
        <ele>831</ele>
        <time>2026-04-30T08:49:26.000Z</time>
      </trkpt>
      <trkpt lat="43.96778" lon="2.99669">
        <ele>830.9</ele>
        <time>2026-04-30T08:49:27.000Z</time>
      </trkpt>
      <trkpt lat="43.96777" lon="2.9967">
        <ele>830.9</ele>
        <time>2026-04-30T08:49:28.000Z</time>
      </trkpt>
      <trkpt lat="43.96776" lon="2.99671">
        <ele>830.6</ele>
        <time>2026-04-30T08:49:29.000Z</time>
      </trkpt>
      <trkpt lat="43.96776" lon="2.99672">
        <ele>830.2</ele>
        <time>2026-04-30T08:49:30.000Z</time>
      </trkpt>
      <trkpt lat="43.96775" lon="2.99673">
        <ele>829.8</ele>
        <time>2026-04-30T08:49:31.000Z</time>
      </trkpt>
      <trkpt lat="43.96774" lon="2.99674">
        <ele>829.6</ele>
        <time>2026-04-30T08:49:32.000Z</time>
      </trkpt>
      <trkpt lat="43.96774" lon="2.99675">
        <ele>828.8</ele>
        <time>2026-04-30T08:49:33.000Z</time>
      </trkpt>
      <trkpt lat="43.96774" lon="2.99675">
        <ele>828.5</ele>
        <time>2026-04-30T08:49:34.000Z</time>
      </trkpt>
      <trkpt lat="43.96773" lon="2.99676">
        <ele>827.8</ele>
        <time>2026-04-30T08:49:35.000Z</time>
      </trkpt>
      <trkpt lat="43.96773" lon="2.99677">
        <ele>827.3</ele>
        <time>2026-04-30T08:49:36.000Z</time>
      </trkpt>
      <trkpt lat="43.96772" lon="2.99677">
        <ele>826.8</ele>
        <time>2026-04-30T08:49:37.000Z</time>
      </trkpt>
      <trkpt lat="43.96772" lon="2.99677">
        <ele>826.4</ele>
        <time>2026-04-30T08:49:38.000Z</time>
      </trkpt>
      <trkpt lat="43.96772" lon="2.99678">
        <ele>825.7</ele>
        <time>2026-04-30T08:49:39.000Z</time>
      </trkpt>
      <trkpt lat="43.96771" lon="2.99679">
        <ele>825.6</ele>
        <time>2026-04-30T08:49:40.000Z</time>
      </trkpt>
      <trkpt lat="43.96771" lon="2.99679">
        <ele>825.3</ele>
        <time>2026-04-30T08:49:41.000Z</time>
      </trkpt>
      <trkpt lat="43.96771" lon="2.99681">
        <ele>824.7</ele>
        <time>2026-04-30T08:49:42.000Z</time>
      </trkpt>
      <trkpt lat="43.96771" lon="2.99683">
        <ele>824.3</ele>
        <time>2026-04-30T08:49:43.000Z</time>
      </trkpt>
      <trkpt lat="43.9677" lon="2.99684">
        <ele>824.1</ele>
        <time>2026-04-30T08:49:44.000Z</time>
      </trkpt>
      <trkpt lat="43.9677" lon="2.99685">
        <ele>823.6</ele>
        <time>2026-04-30T08:49:45.000Z</time>
      </trkpt>
      <trkpt lat="43.9677" lon="2.99686">
        <ele>823.2</ele>
        <time>2026-04-30T08:49:46.000Z</time>
      </trkpt>
      <trkpt lat="43.9677" lon="2.99686">
        <ele>823</ele>
        <time>2026-04-30T08:49:47.000Z</time>
      </trkpt>
      <trkpt lat="43.96769" lon="2.99688">
        <ele>822.5</ele>
        <time>2026-04-30T08:49:48.000Z</time>
      </trkpt>
      <trkpt lat="43.96769" lon="2.99689">
        <ele>822.7</ele>
        <time>2026-04-30T08:49:49.000Z</time>
      </trkpt>
      <trkpt lat="43.96768" lon="2.9969">
        <ele>822.8</ele>
        <time>2026-04-30T08:49:50.000Z</time>
      </trkpt>
      <trkpt lat="43.96768" lon="2.99691">
        <ele>822.6</ele>
        <time>2026-04-30T08:49:51.000Z</time>
      </trkpt>
      <trkpt lat="43.96768" lon="2.99692">
        <ele>822.4</ele>
        <time>2026-04-30T08:49:52.000Z</time>
      </trkpt>
      <trkpt lat="43.96767" lon="2.99692">
        <ele>822.2</ele>
        <time>2026-04-30T08:49:53.000Z</time>
      </trkpt>
      <trkpt lat="43.96766" lon="2.99694">
        <ele>822</ele>
        <time>2026-04-30T08:49:54.000Z</time>
      </trkpt>
      <trkpt lat="43.96766" lon="2.99696">
        <ele>821.3</ele>
        <time>2026-04-30T08:49:55.000Z</time>
      </trkpt>
      <trkpt lat="43.96765" lon="2.99697">
        <ele>821.1</ele>
        <time>2026-04-30T08:49:56.000Z</time>
      </trkpt>
      <trkpt lat="43.96765" lon="2.99699">
        <ele>820.6</ele>
        <time>2026-04-30T08:49:57.000Z</time>
      </trkpt>
      <trkpt lat="43.96765" lon="2.997">
        <ele>820.3</ele>
        <time>2026-04-30T08:49:58.000Z</time>
      </trkpt>
      <trkpt lat="43.96765" lon="2.99702">
        <ele>819.7</ele>
        <time>2026-04-30T08:49:59.000Z</time>
      </trkpt>
      <trkpt lat="43.96764" lon="2.99703">
        <ele>819.7</ele>
        <time>2026-04-30T08:50:00.000Z</time>
      </trkpt>
      <trkpt lat="43.96764" lon="2.99706">
        <ele>819.3</ele>
        <time>2026-04-30T08:50:01.000Z</time>
      </trkpt>
      <trkpt lat="43.96764" lon="2.99707">
        <ele>818.8</ele>
        <time>2026-04-30T08:50:02.000Z</time>
      </trkpt>
      <trkpt lat="43.96763" lon="2.99708">
        <ele>818.9</ele>
        <time>2026-04-30T08:50:03.000Z</time>
      </trkpt>
      <trkpt lat="43.96763" lon="2.9971">
        <ele>819</ele>
        <time>2026-04-30T08:50:04.000Z</time>
      </trkpt>
      <trkpt lat="43.96762" lon="2.99711">
        <ele>819.1</ele>
        <time>2026-04-30T08:50:05.000Z</time>
      </trkpt>
      <trkpt lat="43.96762" lon="2.99712">
        <ele>819.2</ele>
        <time>2026-04-30T08:50:06.000Z</time>
      </trkpt>
      <trkpt lat="43.96761" lon="2.99713">
        <ele>819.1</ele>
        <time>2026-04-30T08:50:07.000Z</time>
      </trkpt>
      <trkpt lat="43.96761" lon="2.99713">
        <ele>819.1</ele>
        <time>2026-04-30T08:50:08.000Z</time>
      </trkpt>
      <trkpt lat="43.96761" lon="2.99714">
        <ele>819</ele>
        <time>2026-04-30T08:50:09.000Z</time>
      </trkpt>
      <trkpt lat="43.9676" lon="2.99715">
        <ele>819</ele>
        <time>2026-04-30T08:50:10.000Z</time>
      </trkpt>
      <trkpt lat="43.9676" lon="2.99717">
        <ele>818.6</ele>
        <time>2026-04-30T08:50:11.000Z</time>
      </trkpt>
      <trkpt lat="43.9676" lon="2.99719">
        <ele>818.8</ele>
        <time>2026-04-30T08:50:12.000Z</time>
      </trkpt>
      <trkpt lat="43.96759" lon="2.9972">
        <ele>818.4</ele>
        <time>2026-04-30T08:50:13.000Z</time>
      </trkpt>
      <trkpt lat="43.96759" lon="2.99721">
        <ele>818.2</ele>
        <time>2026-04-30T08:50:14.000Z</time>
      </trkpt>
      <trkpt lat="43.96758" lon="2.99723">
        <ele>818</ele>
        <time>2026-04-30T08:50:15.000Z</time>
      </trkpt>
      <trkpt lat="43.96758" lon="2.99724">
        <ele>817.5</ele>
        <time>2026-04-30T08:50:16.000Z</time>
      </trkpt>
      <trkpt lat="43.96758" lon="2.99725">
        <ele>817.2</ele>
        <time>2026-04-30T08:50:17.000Z</time>
      </trkpt>
      <trkpt lat="43.96758" lon="2.99727">
        <ele>816.7</ele>
        <time>2026-04-30T08:50:18.000Z</time>
      </trkpt>
      <trkpt lat="43.96757" lon="2.99729">
        <ele>816.3</ele>
        <time>2026-04-30T08:50:19.000Z</time>
      </trkpt>
      <trkpt lat="43.96757" lon="2.9973">
        <ele>816</ele>
        <time>2026-04-30T08:50:20.000Z</time>
      </trkpt>
      <trkpt lat="43.96756" lon="2.99732">
        <ele>815.9</ele>
        <time>2026-04-30T08:50:21.000Z</time>
      </trkpt>
      <trkpt lat="43.96756" lon="2.99733">
        <ele>815.7</ele>
        <time>2026-04-30T08:50:22.000Z</time>
      </trkpt>
      <trkpt lat="43.96756" lon="2.99735">
        <ele>815.5</ele>
        <time>2026-04-30T08:50:23.000Z</time>
      </trkpt>
      <trkpt lat="43.96756" lon="2.99736">
        <ele>815.3</ele>
        <time>2026-04-30T08:50:24.000Z</time>
      </trkpt>
      <trkpt lat="43.96755" lon="2.99738">
        <ele>815.2</ele>
        <time>2026-04-30T08:50:25.000Z</time>
      </trkpt>
      <trkpt lat="43.96755" lon="2.99739">
        <ele>814.9</ele>
        <time>2026-04-30T08:50:26.000Z</time>
      </trkpt>
      <trkpt lat="43.96754" lon="2.9974">
        <ele>814.6</ele>
        <time>2026-04-30T08:50:27.000Z</time>
      </trkpt>
      <trkpt lat="43.96754" lon="2.99741">
        <ele>814.3</ele>
        <time>2026-04-30T08:50:28.000Z</time>
      </trkpt>
      <trkpt lat="43.96754" lon="2.99743">
        <ele>814</ele>
        <time>2026-04-30T08:50:29.000Z</time>
      </trkpt>
      <trkpt lat="43.96754" lon="2.99743">
        <ele>814</ele>
        <time>2026-04-30T08:50:30.000Z</time>
      </trkpt>
      <trkpt lat="43.96754" lon="2.99744">
        <ele>813.7</ele>
        <time>2026-04-30T08:50:31.000Z</time>
      </trkpt>
      <trkpt lat="43.96754" lon="2.99745">
        <ele>813.7</ele>
        <time>2026-04-30T08:50:32.000Z</time>
      </trkpt>
      <trkpt lat="43.96754" lon="2.99746">
        <ele>813.4</ele>
        <time>2026-04-30T08:50:33.000Z</time>
      </trkpt>
      <trkpt lat="43.96754" lon="2.99747">
        <ele>813</ele>
        <time>2026-04-30T08:50:34.000Z</time>
      </trkpt>
      <trkpt lat="43.96754" lon="2.99748">
        <ele>812.9</ele>
        <time>2026-04-30T08:50:35.000Z</time>
      </trkpt>
      <trkpt lat="43.96754" lon="2.99749">
        <ele>813.1</ele>
        <time>2026-04-30T08:50:36.000Z</time>
      </trkpt>
      <trkpt lat="43.96753" lon="2.99751">
        <ele>812.3</ele>
        <time>2026-04-30T08:50:37.000Z</time>
      </trkpt>
      <trkpt lat="43.96753" lon="2.99753">
        <ele>811.8</ele>
        <time>2026-04-30T08:50:38.000Z</time>
      </trkpt>
      <trkpt lat="43.96753" lon="2.99754">
        <ele>811.7</ele>
        <time>2026-04-30T08:50:39.000Z</time>
      </trkpt>
      <trkpt lat="43.96752" lon="2.99754">
        <ele>811.4</ele>
        <time>2026-04-30T08:50:40.000Z</time>
      </trkpt>
      <trkpt lat="43.96752" lon="2.99755">
        <ele>811.1</ele>
        <time>2026-04-30T08:50:41.000Z</time>
      </trkpt>
      <trkpt lat="43.96752" lon="2.99756">
        <ele>810.8</ele>
        <time>2026-04-30T08:50:42.000Z</time>
      </trkpt>
      <trkpt lat="43.96751" lon="2.99757">
        <ele>810.8</ele>
        <time>2026-04-30T08:50:43.000Z</time>
      </trkpt>
      <trkpt lat="43.96751" lon="2.99758">
        <ele>810.8</ele>
        <time>2026-04-30T08:50:44.000Z</time>
      </trkpt>
      <trkpt lat="43.96751" lon="2.99759">
        <ele>810.8</ele>
        <time>2026-04-30T08:50:45.000Z</time>
      </trkpt>
      <trkpt lat="43.96751" lon="2.9976">
        <ele>811</ele>
        <time>2026-04-30T08:50:46.000Z</time>
      </trkpt>
      <trkpt lat="43.9675" lon="2.9976">
        <ele>811</ele>
        <time>2026-04-30T08:50:47.000Z</time>
      </trkpt>
      <trkpt lat="43.9675" lon="2.99761">
        <ele>810.6</ele>
        <time>2026-04-30T08:50:48.000Z</time>
      </trkpt>
      <trkpt lat="43.9675" lon="2.99763">
        <ele>810.1</ele>
        <time>2026-04-30T08:50:49.000Z</time>
      </trkpt>
      <trkpt lat="43.96749" lon="2.99765">
        <ele>809.1</ele>
        <time>2026-04-30T08:50:50.000Z</time>
      </trkpt>
      <trkpt lat="43.96749" lon="2.99767">
        <ele>808.4</ele>
        <time>2026-04-30T08:50:51.000Z</time>
      </trkpt>
      <trkpt lat="43.96748" lon="2.99769">
        <ele>808.2</ele>
        <time>2026-04-30T08:50:52.000Z</time>
      </trkpt>
      <trkpt lat="43.96748" lon="2.99771">
        <ele>808</ele>
        <time>2026-04-30T08:50:53.000Z</time>
      </trkpt>
      <trkpt lat="43.96748" lon="2.99773">
        <ele>808.3</ele>
        <time>2026-04-30T08:50:54.000Z</time>
      </trkpt>
      <trkpt lat="43.96747" lon="2.99774">
        <ele>808.1</ele>
        <time>2026-04-30T08:50:55.000Z</time>
      </trkpt>
      <trkpt lat="43.96747" lon="2.99776">
        <ele>808.1</ele>
        <time>2026-04-30T08:50:56.000Z</time>
      </trkpt>
      <trkpt lat="43.96747" lon="2.99778">
        <ele>807.6</ele>
        <time>2026-04-30T08:50:57.000Z</time>
      </trkpt>
      <trkpt lat="43.96747" lon="2.9978">
        <ele>807.4</ele>
        <time>2026-04-30T08:50:58.000Z</time>
      </trkpt>
      <trkpt lat="43.96747" lon="2.99781">
        <ele>807</ele>
        <time>2026-04-30T08:50:59.000Z</time>
      </trkpt>
      <trkpt lat="43.96747" lon="2.99782">
        <ele>806.6</ele>
        <time>2026-04-30T08:51:00.000Z</time>
      </trkpt>
      <trkpt lat="43.96747" lon="2.99784">
        <ele>806.2</ele>
        <time>2026-04-30T08:51:01.000Z</time>
      </trkpt>
      <trkpt lat="43.96747" lon="2.99786">
        <ele>806.1</ele>
        <time>2026-04-30T08:51:02.000Z</time>
      </trkpt>
      <trkpt lat="43.96746" lon="2.99787">
        <ele>806.3</ele>
        <time>2026-04-30T08:51:03.000Z</time>
      </trkpt>
      <trkpt lat="43.96746" lon="2.99789">
        <ele>806.5</ele>
        <time>2026-04-30T08:51:04.000Z</time>
      </trkpt>
      <trkpt lat="43.96745" lon="2.9979">
        <ele>806.2</ele>
        <time>2026-04-30T08:51:05.000Z</time>
      </trkpt>
      <trkpt lat="43.96745" lon="2.99792">
        <ele>805.5</ele>
        <time>2026-04-30T08:51:06.000Z</time>
      </trkpt>
      <trkpt lat="43.96745" lon="2.99795">
        <ele>805</ele>
        <time>2026-04-30T08:51:07.000Z</time>
      </trkpt>
      <trkpt lat="43.96745" lon="2.99796">
        <ele>804.9</ele>
        <time>2026-04-30T08:51:08.000Z</time>
      </trkpt>
      <trkpt lat="43.96745" lon="2.99797">
        <ele>805.1</ele>
        <time>2026-04-30T08:51:09.000Z</time>
      </trkpt>
      <trkpt lat="43.96744" lon="2.99798">
        <ele>804.9</ele>
        <time>2026-04-30T08:51:10.000Z</time>
      </trkpt>
      <trkpt lat="43.96744" lon="2.99799">
        <ele>804.8</ele>
        <time>2026-04-30T08:51:11.000Z</time>
      </trkpt>
      <trkpt lat="43.96744" lon="2.99799">
        <ele>804.7</ele>
        <time>2026-04-30T08:51:12.000Z</time>
      </trkpt>
      <trkpt lat="43.96743" lon="2.998">
        <ele>804.7</ele>
        <time>2026-04-30T08:51:13.000Z</time>
      </trkpt>
      <trkpt lat="43.96743" lon="2.99801">
        <ele>804.2</ele>
        <time>2026-04-30T08:51:14.000Z</time>
      </trkpt>
      <trkpt lat="43.96743" lon="2.99802">
        <ele>803.7</ele>
        <time>2026-04-30T08:51:15.000Z</time>
      </trkpt>
      <trkpt lat="43.96743" lon="2.99802">
        <ele>803.1</ele>
        <time>2026-04-30T08:51:16.000Z</time>
      </trkpt>
      <trkpt lat="43.96742" lon="2.99803">
        <ele>802.6</ele>
        <time>2026-04-30T08:51:17.000Z</time>
      </trkpt>
      <trkpt lat="43.96742" lon="2.99804">
        <ele>802.2</ele>
        <time>2026-04-30T08:51:18.000Z</time>
      </trkpt>
      <trkpt lat="43.96741" lon="2.99805">
        <ele>802.1</ele>
        <time>2026-04-30T08:51:19.000Z</time>
      </trkpt>
      <trkpt lat="43.96741" lon="2.99807">
        <ele>802.5</ele>
        <time>2026-04-30T08:51:20.000Z</time>
      </trkpt>
      <trkpt lat="43.96741" lon="2.99808">
        <ele>802.2</ele>
        <time>2026-04-30T08:51:21.000Z</time>
      </trkpt>
      <trkpt lat="43.9674" lon="2.9981">
        <ele>802.6</ele>
        <time>2026-04-30T08:51:22.000Z</time>
      </trkpt>
      <trkpt lat="43.9674" lon="2.99811">
        <ele>802.5</ele>
        <time>2026-04-30T08:51:23.000Z</time>
      </trkpt>
      <trkpt lat="43.9674" lon="2.99811">
        <ele>802.7</ele>
        <time>2026-04-30T08:51:24.000Z</time>
      </trkpt>
      <trkpt lat="43.9674" lon="2.99811">
        <ele>802.9</ele>
        <time>2026-04-30T08:51:25.000Z</time>
      </trkpt>
      <trkpt lat="43.9674" lon="2.99811">
        <ele>802.3</ele>
        <time>2026-04-30T08:51:26.000Z</time>
      </trkpt>
      <trkpt lat="43.9674" lon="2.99811">
        <ele>802</ele>
        <time>2026-04-30T08:51:27.000Z</time>
      </trkpt>
      <trkpt lat="43.9674" lon="2.99811">
        <ele>801.7</ele>
        <time>2026-04-30T08:51:28.000Z</time>
      </trkpt>
      <trkpt lat="43.9674" lon="2.99811">
        <ele>801.5</ele>
        <time>2026-04-30T08:51:29.000Z</time>
      </trkpt>
      <trkpt lat="43.9674" lon="2.99811">
        <ele>801.7</ele>
        <time>2026-04-30T08:51:30.000Z</time>
      </trkpt>
      <trkpt lat="43.9674" lon="2.99811">
        <ele>801.6</ele>
        <time>2026-04-30T08:51:31.000Z</time>
      </trkpt>
      <trkpt lat="43.9674" lon="2.99811">
        <ele>801.9</ele>
        <time>2026-04-30T08:51:32.000Z</time>
      </trkpt>
      <trkpt lat="43.9674" lon="2.99811">
        <ele>802.1</ele>
        <time>2026-04-30T08:51:33.000Z</time>
      </trkpt>
      <trkpt lat="43.9674" lon="2.99811">
        <ele>802.1</ele>
        <time>2026-04-30T08:51:34.000Z</time>
      </trkpt>
      <trkpt lat="43.9674" lon="2.99811">
        <ele>802</ele>
        <time>2026-04-30T08:51:35.000Z</time>
      </trkpt>
      <trkpt lat="43.9674" lon="2.99811">
        <ele>801.8</ele>
        <time>2026-04-30T08:51:36.000Z</time>
      </trkpt>
      <trkpt lat="43.9674" lon="2.99811">
        <ele>801.9</ele>
        <time>2026-04-30T08:51:37.000Z</time>
      </trkpt>
      <trkpt lat="43.9674" lon="2.99812">
        <ele>802</ele>
        <time>2026-04-30T08:51:38.000Z</time>
      </trkpt>
      <trkpt lat="43.9674" lon="2.99812">
        <ele>802.3</ele>
        <time>2026-04-30T08:51:39.000Z</time>
      </trkpt>
      <trkpt lat="43.9674" lon="2.99812">
        <ele>802.1</ele>
        <time>2026-04-30T08:51:40.000Z</time>
      </trkpt>
      <trkpt lat="43.9674" lon="2.99812">
        <ele>802.6</ele>
        <time>2026-04-30T08:51:41.000Z</time>
      </trkpt>
      <trkpt lat="43.9674" lon="2.99812">
        <ele>802.7</ele>
        <time>2026-04-30T08:51:42.000Z</time>
      </trkpt>
      <trkpt lat="43.9674" lon="2.99812">
        <ele>802.6</ele>
        <time>2026-04-30T08:51:43.000Z</time>
      </trkpt>
      <trkpt lat="43.9674" lon="2.99812">
        <ele>802.4</ele>
        <time>2026-04-30T08:51:44.000Z</time>
      </trkpt>
      <trkpt lat="43.9674" lon="2.99812">
        <ele>802.3</ele>
        <time>2026-04-30T08:51:45.000Z</time>
      </trkpt>
      <trkpt lat="43.9674" lon="2.99812">
        <ele>802.3</ele>
        <time>2026-04-30T08:51:46.000Z</time>
      </trkpt>
      <trkpt lat="43.9674" lon="2.99812">
        <ele>802.2</ele>
        <time>2026-04-30T08:51:47.000Z</time>
      </trkpt>
      <trkpt lat="43.9674" lon="2.99812">
        <ele>801.9</ele>
        <time>2026-04-30T08:51:48.000Z</time>
      </trkpt>
      <trkpt lat="43.9674" lon="2.99812">
        <ele>801.7</ele>
        <time>2026-04-30T08:51:49.000Z</time>
      </trkpt>
      <trkpt lat="43.9674" lon="2.99812">
        <ele>801.7</ele>
        <time>2026-04-30T08:51:50.000Z</time>
      </trkpt>
      <trkpt lat="43.9674" lon="2.99812">
        <ele>801.7</ele>
        <time>2026-04-30T08:51:51.000Z</time>
      </trkpt>
      <trkpt lat="43.9674" lon="2.99812">
        <ele>801.8</ele>
        <time>2026-04-30T08:51:52.000Z</time>
      </trkpt>
      <trkpt lat="43.9674" lon="2.99812">
        <ele>801.7</ele>
        <time>2026-04-30T08:51:53.000Z</time>
      </trkpt>
      <trkpt lat="43.9674" lon="2.99812">
        <ele>801.6</ele>
        <time>2026-04-30T08:51:54.000Z</time>
      </trkpt>
      <trkpt lat="43.9674" lon="2.99812">
        <ele>801.5</ele>
        <time>2026-04-30T08:51:55.000Z</time>
      </trkpt>
      <trkpt lat="43.9674" lon="2.99812">
        <ele>801.3</ele>
        <time>2026-04-30T08:51:56.000Z</time>
      </trkpt>
      <trkpt lat="43.9674" lon="2.99812">
        <ele>801.2</ele>
        <time>2026-04-30T08:51:57.000Z</time>
      </trkpt>
      <trkpt lat="43.9674" lon="2.99812">
        <ele>801.3</ele>
        <time>2026-04-30T08:51:58.000Z</time>
      </trkpt>
      <trkpt lat="43.9674" lon="2.99812">
        <ele>801.4</ele>
        <time>2026-04-30T08:51:59.000Z</time>
      </trkpt>
      <trkpt lat="43.9674" lon="2.99812">
        <ele>801.7</ele>
        <time>2026-04-30T08:52:00.000Z</time>
      </trkpt>
      <trkpt lat="43.9674" lon="2.99812">
        <ele>801.8</ele>
        <time>2026-04-30T08:52:01.000Z</time>
      </trkpt>
      <trkpt lat="43.9674" lon="2.99812">
        <ele>801.9</ele>
        <time>2026-04-30T08:52:02.000Z</time>
      </trkpt>
      <trkpt lat="43.9674" lon="2.99812">
        <ele>802</ele>
        <time>2026-04-30T08:52:03.000Z</time>
      </trkpt>
      <trkpt lat="43.9674" lon="2.99812">
        <ele>802.1</ele>
        <time>2026-04-30T08:52:04.000Z</time>
      </trkpt>
      <trkpt lat="43.9674" lon="2.99812">
        <ele>802.1</ele>
        <time>2026-04-30T08:52:05.000Z</time>
      </trkpt>
      <trkpt lat="43.96739" lon="2.99813">
        <ele>802</ele>
        <time>2026-04-30T08:52:06.000Z</time>
      </trkpt>
      <trkpt lat="43.96739" lon="2.99813">
        <ele>802.2</ele>
        <time>2026-04-30T08:52:07.000Z</time>
      </trkpt>
      <trkpt lat="43.96739" lon="2.99813">
        <ele>802</ele>
        <time>2026-04-30T08:52:08.000Z</time>
      </trkpt>
      <trkpt lat="43.96739" lon="2.99813">
        <ele>802.2</ele>
        <time>2026-04-30T08:52:09.000Z</time>
      </trkpt>
      <trkpt lat="43.96739" lon="2.99813">
        <ele>802</ele>
        <time>2026-04-30T08:52:10.000Z</time>
      </trkpt>
      <trkpt lat="43.96739" lon="2.99813">
        <ele>801.9</ele>
        <time>2026-04-30T08:52:11.000Z</time>
      </trkpt>
      <trkpt lat="43.96739" lon="2.99813">
        <ele>802</ele>
        <time>2026-04-30T08:52:12.000Z</time>
      </trkpt>
      <trkpt lat="43.96739" lon="2.99813">
        <ele>802.1</ele>
        <time>2026-04-30T08:52:13.000Z</time>
      </trkpt>
      <trkpt lat="43.96739" lon="2.99813">
        <ele>802.1</ele>
        <time>2026-04-30T08:52:14.000Z</time>
      </trkpt>
      <trkpt lat="43.96739" lon="2.99813">
        <ele>802.2</ele>
        <time>2026-04-30T08:52:15.000Z</time>
      </trkpt>
      <trkpt lat="43.96739" lon="2.99813">
        <ele>802.2</ele>
        <time>2026-04-30T08:52:16.000Z</time>
      </trkpt>
      <trkpt lat="43.96739" lon="2.99813">
        <ele>802</ele>
        <time>2026-04-30T08:52:17.000Z</time>
      </trkpt>
      <trkpt lat="43.96739" lon="2.99813">
        <ele>801.9</ele>
        <time>2026-04-30T08:52:18.000Z</time>
      </trkpt>
      <trkpt lat="43.96739" lon="2.99813">
        <ele>801.8</ele>
        <time>2026-04-30T08:52:19.000Z</time>
      </trkpt>
      <trkpt lat="43.96739" lon="2.99813">
        <ele>801.7</ele>
        <time>2026-04-30T08:52:20.000Z</time>
      </trkpt>
      <trkpt lat="43.96739" lon="2.99813">
        <ele>801.5</ele>
        <time>2026-04-30T08:52:21.000Z</time>
      </trkpt>
      <trkpt lat="43.96739" lon="2.99814">
        <ele>801.4</ele>
        <time>2026-04-30T08:52:22.000Z</time>
      </trkpt>
      <trkpt lat="43.96739" lon="2.99814">
        <ele>801.7</ele>
        <time>2026-04-30T08:52:23.000Z</time>
      </trkpt>
      <trkpt lat="43.96739" lon="2.99814">
        <ele>802</ele>
        <time>2026-04-30T08:52:24.000Z</time>
      </trkpt>
      <trkpt lat="43.96739" lon="2.99814">
        <ele>801.9</ele>
        <time>2026-04-30T08:52:25.000Z</time>
      </trkpt>
      <trkpt lat="43.96739" lon="2.99814">
        <ele>802</ele>
        <time>2026-04-30T08:52:26.000Z</time>
      </trkpt>
      <trkpt lat="43.96739" lon="2.99814">
        <ele>802</ele>
        <time>2026-04-30T08:52:27.000Z</time>
      </trkpt>
      <trkpt lat="43.96739" lon="2.99814">
        <ele>801.8</ele>
        <time>2026-04-30T08:52:28.000Z</time>
      </trkpt>
      <trkpt lat="43.96739" lon="2.99814">
        <ele>801.6</ele>
        <time>2026-04-30T08:52:29.000Z</time>
      </trkpt>
      <trkpt lat="43.96739" lon="2.99814">
        <ele>801.8</ele>
        <time>2026-04-30T08:52:30.000Z</time>
      </trkpt>
      <trkpt lat="43.96739" lon="2.99814">
        <ele>802.1</ele>
        <time>2026-04-30T08:52:31.000Z</time>
      </trkpt>
      <trkpt lat="43.9674" lon="2.99814">
        <ele>802.2</ele>
        <time>2026-04-30T08:52:32.000Z</time>
      </trkpt>
      <trkpt lat="43.9674" lon="2.99814">
        <ele>802.3</ele>
        <time>2026-04-30T08:52:33.000Z</time>
      </trkpt>
      <trkpt lat="43.9674" lon="2.99814">
        <ele>802.5</ele>
        <time>2026-04-30T08:52:34.000Z</time>
      </trkpt>
      <trkpt lat="43.9674" lon="2.99814">
        <ele>802.6</ele>
        <time>2026-04-30T08:52:35.000Z</time>
      </trkpt>
      <trkpt lat="43.9674" lon="2.99814">
        <ele>802.9</ele>
        <time>2026-04-30T08:52:36.000Z</time>
      </trkpt>
      <trkpt lat="43.9674" lon="2.99814">
        <ele>803</ele>
        <time>2026-04-30T08:52:37.000Z</time>
      </trkpt>
      <trkpt lat="43.9674" lon="2.99813">
        <ele>803</ele>
        <time>2026-04-30T08:52:38.000Z</time>
      </trkpt>
      <trkpt lat="43.9674" lon="2.99813">
        <ele>803.2</ele>
        <time>2026-04-30T08:52:39.000Z</time>
      </trkpt>
      <trkpt lat="43.9674" lon="2.99813">
        <ele>803.3</ele>
        <time>2026-04-30T08:52:40.000Z</time>
      </trkpt>
      <trkpt lat="43.9674" lon="2.99813">
        <ele>803.4</ele>
        <time>2026-04-30T08:52:41.000Z</time>
      </trkpt>
      <trkpt lat="43.9674" lon="2.99813">
        <ele>803.5</ele>
        <time>2026-04-30T08:52:42.000Z</time>
      </trkpt>
      <trkpt lat="43.9674" lon="2.99813">
        <ele>803.5</ele>
        <time>2026-04-30T08:52:43.000Z</time>
      </trkpt>
      <trkpt lat="43.9674" lon="2.99813">
        <ele>803.5</ele>
        <time>2026-04-30T08:52:44.000Z</time>
      </trkpt>
      <trkpt lat="43.9674" lon="2.99813">
        <ele>803.5</ele>
        <time>2026-04-30T08:52:45.000Z</time>
      </trkpt>
      <trkpt lat="43.9674" lon="2.99813">
        <ele>803.6</ele>
        <time>2026-04-30T08:52:46.000Z</time>
      </trkpt>
      <trkpt lat="43.9674" lon="2.99813">
        <ele>803.5</ele>
        <time>2026-04-30T08:52:47.000Z</time>
      </trkpt>
      <trkpt lat="43.9674" lon="2.99813">
        <ele>803.4</ele>
        <time>2026-04-30T08:52:48.000Z</time>
      </trkpt>
      <trkpt lat="43.9674" lon="2.99813">
        <ele>803.4</ele>
        <time>2026-04-30T08:52:49.000Z</time>
      </trkpt>
      <trkpt lat="43.9674" lon="2.99813">
        <ele>803.5</ele>
        <time>2026-04-30T08:52:50.000Z</time>
      </trkpt>
      <trkpt lat="43.9674" lon="2.99813">
        <ele>803.5</ele>
        <time>2026-04-30T08:52:51.000Z</time>
      </trkpt>
      <trkpt lat="43.9674" lon="2.99813">
        <ele>803.6</ele>
        <time>2026-04-30T08:52:52.000Z</time>
      </trkpt>
      <trkpt lat="43.9674" lon="2.99813">
        <ele>803.6</ele>
        <time>2026-04-30T08:52:53.000Z</time>
      </trkpt>
      <trkpt lat="43.9674" lon="2.99813">
        <ele>803.5</ele>
        <time>2026-04-30T08:52:54.000Z</time>
      </trkpt>
      <trkpt lat="43.9674" lon="2.99813">
        <ele>803.4</ele>
        <time>2026-04-30T08:52:55.000Z</time>
      </trkpt>
      <trkpt lat="43.9674" lon="2.99813">
        <ele>803.3</ele>
        <time>2026-04-30T08:52:56.000Z</time>
      </trkpt>
      <trkpt lat="43.9674" lon="2.99813">
        <ele>803.2</ele>
        <time>2026-04-30T08:52:57.000Z</time>
      </trkpt>
      <trkpt lat="43.9674" lon="2.99813">
        <ele>803.2</ele>
        <time>2026-04-30T08:52:58.000Z</time>
      </trkpt>
      <trkpt lat="43.9674" lon="2.99813">
        <ele>803.3</ele>
        <time>2026-04-30T08:52:59.000Z</time>
      </trkpt>
      <trkpt lat="43.9674" lon="2.99813">
        <ele>803.3</ele>
        <time>2026-04-30T08:53:00.000Z</time>
      </trkpt>
      <trkpt lat="43.9674" lon="2.99813">
        <ele>803.4</ele>
        <time>2026-04-30T08:53:01.000Z</time>
      </trkpt>
      <trkpt lat="43.9674" lon="2.99813">
        <ele>803.5</ele>
        <time>2026-04-30T08:53:02.000Z</time>
      </trkpt>
      <trkpt lat="43.9674" lon="2.99813">
        <ele>803.4</ele>
        <time>2026-04-30T08:53:03.000Z</time>
      </trkpt>
      <trkpt lat="43.9674" lon="2.99813">
        <ele>803.7</ele>
        <time>2026-04-30T08:53:04.000Z</time>
      </trkpt>
      <trkpt lat="43.9674" lon="2.99813">
        <ele>803.7</ele>
        <time>2026-04-30T08:53:05.000Z</time>
      </trkpt>
      <trkpt lat="43.96741" lon="2.99812">
        <ele>803.7</ele>
        <time>2026-04-30T08:53:06.000Z</time>
      </trkpt>
      <trkpt lat="43.96741" lon="2.99813">
        <ele>803.4</ele>
        <time>2026-04-30T08:53:07.000Z</time>
      </trkpt>
      <trkpt lat="43.96741" lon="2.99813">
        <ele>803.4</ele>
        <time>2026-04-30T08:53:08.000Z</time>
      </trkpt>
      <trkpt lat="43.96741" lon="2.99813">
        <ele>803.2</ele>
        <time>2026-04-30T08:53:09.000Z</time>
      </trkpt>
      <trkpt lat="43.96741" lon="2.99813">
        <ele>803.4</ele>
        <time>2026-04-30T08:53:10.000Z</time>
      </trkpt>
      <trkpt lat="43.96741" lon="2.99813">
        <ele>803.6</ele>
        <time>2026-04-30T08:53:11.000Z</time>
      </trkpt>
      <trkpt lat="43.96741" lon="2.99813">
        <ele>803.7</ele>
        <time>2026-04-30T08:53:12.000Z</time>
      </trkpt>
      <trkpt lat="43.96741" lon="2.99813">
        <ele>803.7</ele>
        <time>2026-04-30T08:53:13.000Z</time>
      </trkpt>
      <trkpt lat="43.9674" lon="2.99813">
        <ele>803.8</ele>
        <time>2026-04-30T08:53:14.000Z</time>
      </trkpt>
      <trkpt lat="43.96741" lon="2.99813">
        <ele>803.8</ele>
        <time>2026-04-30T08:53:15.000Z</time>
      </trkpt>
      <trkpt lat="43.96741" lon="2.99814">
        <ele>803.7</ele>
        <time>2026-04-30T08:53:16.000Z</time>
      </trkpt>
      <trkpt lat="43.96741" lon="2.99814">
        <ele>803.7</ele>
        <time>2026-04-30T08:53:17.000Z</time>
      </trkpt>
      <trkpt lat="43.96741" lon="2.99814">
        <ele>803.8</ele>
        <time>2026-04-30T08:53:18.000Z</time>
      </trkpt>
      <trkpt lat="43.96742" lon="2.99814">
        <ele>804</ele>
        <time>2026-04-30T08:53:19.000Z</time>
      </trkpt>
      <trkpt lat="43.96742" lon="2.99814">
        <ele>804.2</ele>
        <time>2026-04-30T08:53:20.000Z</time>
      </trkpt>
      <trkpt lat="43.96742" lon="2.99814">
        <ele>804.6</ele>
        <time>2026-04-30T08:53:21.000Z</time>
      </trkpt>
      <trkpt lat="43.96742" lon="2.99814">
        <ele>804.9</ele>
        <time>2026-04-30T08:53:22.000Z</time>
      </trkpt>
      <trkpt lat="43.96742" lon="2.99814">
        <ele>804.9</ele>
        <time>2026-04-30T08:53:23.000Z</time>
      </trkpt>
      <trkpt lat="43.96742" lon="2.99814">
        <ele>804.9</ele>
        <time>2026-04-30T08:53:24.000Z</time>
      </trkpt>
      <trkpt lat="43.96742" lon="2.99814">
        <ele>804.9</ele>
        <time>2026-04-30T08:53:25.000Z</time>
      </trkpt>
      <trkpt lat="43.96742" lon="2.99814">
        <ele>805.1</ele>
        <time>2026-04-30T08:53:26.000Z</time>
      </trkpt>
      <trkpt lat="43.96742" lon="2.99814">
        <ele>805.4</ele>
        <time>2026-04-30T08:53:27.000Z</time>
      </trkpt>
      <trkpt lat="43.96742" lon="2.99813">
        <ele>805.7</ele>
        <time>2026-04-30T08:53:28.000Z</time>
      </trkpt>
      <trkpt lat="43.96742" lon="2.99814">
        <ele>805.9</ele>
        <time>2026-04-30T08:53:29.000Z</time>
      </trkpt>
      <trkpt lat="43.96742" lon="2.99814">
        <ele>806.8</ele>
        <time>2026-04-30T08:53:30.000Z</time>
      </trkpt>
      <trkpt lat="43.96742" lon="2.99814">
        <ele>806.8</ele>
        <time>2026-04-30T08:53:31.000Z</time>
      </trkpt>
      <trkpt lat="43.96742" lon="2.99814">
        <ele>806.8</ele>
        <time>2026-04-30T08:53:32.000Z</time>
      </trkpt>
      <trkpt lat="43.96742" lon="2.99814">
        <ele>807</ele>
        <time>2026-04-30T08:53:33.000Z</time>
      </trkpt>
      <trkpt lat="43.96742" lon="2.99814">
        <ele>807.2</ele>
        <time>2026-04-30T08:53:34.000Z</time>
      </trkpt>
      <trkpt lat="43.96742" lon="2.99814">
        <ele>807.2</ele>
        <time>2026-04-30T08:53:35.000Z</time>
      </trkpt>
      <trkpt lat="43.96742" lon="2.99814">
        <ele>807.1</ele>
        <time>2026-04-30T08:53:36.000Z</time>
      </trkpt>
      <trkpt lat="43.96742" lon="2.99815">
        <ele>807</ele>
        <time>2026-04-30T08:53:37.000Z</time>
      </trkpt>
      <trkpt lat="43.96742" lon="2.99816">
        <ele>806.8</ele>
        <time>2026-04-30T08:53:38.000Z</time>
      </trkpt>
      <trkpt lat="43.96742" lon="2.99815">
        <ele>806.9</ele>
        <time>2026-04-30T08:53:39.000Z</time>
      </trkpt>
      <trkpt lat="43.96742" lon="2.99815">
        <ele>806.9</ele>
        <time>2026-04-30T08:53:40.000Z</time>
      </trkpt>
      <trkpt lat="43.96742" lon="2.99815">
        <ele>807</ele>
        <time>2026-04-30T08:53:41.000Z</time>
      </trkpt>
      <trkpt lat="43.96743" lon="2.99816">
        <ele>807.7</ele>
        <time>2026-04-30T08:53:42.000Z</time>
      </trkpt>
      <trkpt lat="43.96743" lon="2.99816">
        <ele>808.4</ele>
        <time>2026-04-30T08:53:43.000Z</time>
      </trkpt>
      <trkpt lat="43.96743" lon="2.99816">
        <ele>809.2</ele>
        <time>2026-04-30T08:53:44.000Z</time>
      </trkpt>
      <trkpt lat="43.96743" lon="2.99816">
        <ele>809.7</ele>
        <time>2026-04-30T08:53:45.000Z</time>
      </trkpt>
      <trkpt lat="43.96743" lon="2.99816">
        <ele>810.1</ele>
        <time>2026-04-30T08:53:46.000Z</time>
      </trkpt>
      <trkpt lat="43.96743" lon="2.99816">
        <ele>809.8</ele>
        <time>2026-04-30T08:53:47.000Z</time>
      </trkpt>
      <trkpt lat="43.96742" lon="2.99816">
        <ele>809.6</ele>
        <time>2026-04-30T08:53:48.000Z</time>
      </trkpt>
      <trkpt lat="43.96743" lon="2.99817">
        <ele>809.4</ele>
        <time>2026-04-30T08:53:50.000Z</time>
      </trkpt>
      <trkpt lat="43.96743" lon="2.99817">
        <ele>809.2</ele>
        <time>2026-04-30T08:53:51.000Z</time>
      </trkpt>
      <trkpt lat="43.96743" lon="2.99817">
        <ele>808.9</ele>
        <time>2026-04-30T08:53:52.000Z</time>
      </trkpt>
      <trkpt lat="43.96743" lon="2.99817">
        <ele>808.5</ele>
        <time>2026-04-30T08:53:53.000Z</time>
      </trkpt>
      <trkpt lat="43.96743" lon="2.99817">
        <ele>808.4</ele>
        <time>2026-04-30T08:53:54.000Z</time>
      </trkpt>
      <trkpt lat="43.96743" lon="2.99817">
        <ele>808.4</ele>
        <time>2026-04-30T08:53:55.000Z</time>
      </trkpt>
      <trkpt lat="43.96742" lon="2.99817">
        <ele>808.2</ele>
        <time>2026-04-30T08:53:56.000Z</time>
      </trkpt>
      <trkpt lat="43.96742" lon="2.99817">
        <ele>808.1</ele>
        <time>2026-04-30T08:53:57.000Z</time>
      </trkpt>
      <trkpt lat="43.96742" lon="2.99817">
        <ele>808</ele>
        <time>2026-04-30T08:53:58.000Z</time>
      </trkpt>
      <trkpt lat="43.96742" lon="2.99817">
        <ele>808.1</ele>
        <time>2026-04-30T08:53:59.000Z</time>
      </trkpt>
      <trkpt lat="43.96742" lon="2.99816">
        <ele>808.4</ele>
        <time>2026-04-30T08:54:00.000Z</time>
      </trkpt>
      <trkpt lat="43.96742" lon="2.99815">
        <ele>808.6</ele>
        <time>2026-04-30T08:54:01.000Z</time>
      </trkpt>
      <trkpt lat="43.96742" lon="2.99815">
        <ele>808.8</ele>
        <time>2026-04-30T08:54:02.000Z</time>
      </trkpt>
      <trkpt lat="43.96742" lon="2.99814">
        <ele>809</ele>
        <time>2026-04-30T08:54:03.000Z</time>
      </trkpt>
      <trkpt lat="43.96742" lon="2.99814">
        <ele>809</ele>
        <time>2026-04-30T08:54:04.000Z</time>
      </trkpt>
      <trkpt lat="43.96742" lon="2.99814">
        <ele>809.1</ele>
        <time>2026-04-30T08:54:05.000Z</time>
      </trkpt>
      <trkpt lat="43.96742" lon="2.99814">
        <ele>809.2</ele>
        <time>2026-04-30T08:54:06.000Z</time>
      </trkpt>
      <trkpt lat="43.96742" lon="2.99814">
        <ele>809.4</ele>
        <time>2026-04-30T08:54:07.000Z</time>
      </trkpt>
      <trkpt lat="43.96742" lon="2.99814">
        <ele>809.6</ele>
        <time>2026-04-30T08:54:08.000Z</time>
      </trkpt>
      <trkpt lat="43.96742" lon="2.99814">
        <ele>809.6</ele>
        <time>2026-04-30T08:54:09.000Z</time>
      </trkpt>
      <trkpt lat="43.96742" lon="2.99814">
        <ele>809.3</ele>
        <time>2026-04-30T08:54:10.000Z</time>
      </trkpt>
      <trkpt lat="43.96742" lon="2.99814">
        <ele>809.3</ele>
        <time>2026-04-30T08:54:11.000Z</time>
      </trkpt>
      <trkpt lat="43.96742" lon="2.99814">
        <ele>809.5</ele>
        <time>2026-04-30T08:54:12.000Z</time>
      </trkpt>
      <trkpt lat="43.96742" lon="2.99814">
        <ele>809.5</ele>
        <time>2026-04-30T08:54:13.000Z</time>
      </trkpt>
      <trkpt lat="43.96742" lon="2.99814">
        <ele>809.6</ele>
        <time>2026-04-30T08:54:14.000Z</time>
      </trkpt>
      <trkpt lat="43.96741" lon="2.99814">
        <ele>809.5</ele>
        <time>2026-04-30T08:54:15.000Z</time>
      </trkpt>
      <trkpt lat="43.96741" lon="2.99813">
        <ele>809.4</ele>
        <time>2026-04-30T08:54:16.000Z</time>
      </trkpt>
      <trkpt lat="43.96741" lon="2.99814">
        <ele>810</ele>
        <time>2026-04-30T08:54:17.000Z</time>
      </trkpt>
      <trkpt lat="43.96742" lon="2.99814">
        <ele>810.6</ele>
        <time>2026-04-30T08:54:18.000Z</time>
      </trkpt>
      <trkpt lat="43.96742" lon="2.99814">
        <ele>811.1</ele>
        <time>2026-04-30T08:54:19.000Z</time>
      </trkpt>
      <trkpt lat="43.96742" lon="2.99814">
        <ele>811.4</ele>
        <time>2026-04-30T08:54:20.000Z</time>
      </trkpt>
      <trkpt lat="43.96741" lon="2.99814">
        <ele>811.8</ele>
        <time>2026-04-30T08:54:21.000Z</time>
      </trkpt>
      <trkpt lat="43.96741" lon="2.99814">
        <ele>812.4</ele>
        <time>2026-04-30T08:54:22.000Z</time>
      </trkpt>
      <trkpt lat="43.96741" lon="2.99814">
        <ele>812.9</ele>
        <time>2026-04-30T08:54:23.000Z</time>
      </trkpt>
      <trkpt lat="43.96741" lon="2.99814">
        <ele>813.4</ele>
        <time>2026-04-30T08:54:24.000Z</time>
      </trkpt>
      <trkpt lat="43.96741" lon="2.99814">
        <ele>813.8</ele>
        <time>2026-04-30T08:54:25.000Z</time>
      </trkpt>
      <trkpt lat="43.96741" lon="2.99813">
        <ele>814.3</ele>
        <time>2026-04-30T08:54:26.000Z</time>
      </trkpt>
      <trkpt lat="43.96741" lon="2.99813">
        <ele>814.7</ele>
        <time>2026-04-30T08:54:27.000Z</time>
      </trkpt>
      <trkpt lat="43.96741" lon="2.99813">
        <ele>814.9</ele>
        <time>2026-04-30T08:54:28.000Z</time>
      </trkpt>
      <trkpt lat="43.96741" lon="2.99813">
        <ele>815.2</ele>
        <time>2026-04-30T08:54:29.000Z</time>
      </trkpt>
      <trkpt lat="43.9674" lon="2.99813">
        <ele>815.4</ele>
        <time>2026-04-30T08:54:30.000Z</time>
      </trkpt>
      <trkpt lat="43.9674" lon="2.99813">
        <ele>815.6</ele>
        <time>2026-04-30T08:54:31.000Z</time>
      </trkpt>
      <trkpt lat="43.96739" lon="2.99813">
        <ele>815.8</ele>
        <time>2026-04-30T08:54:32.000Z</time>
      </trkpt>
      <trkpt lat="43.96739" lon="2.99813">
        <ele>815.7</ele>
        <time>2026-04-30T08:54:33.000Z</time>
      </trkpt>
      <trkpt lat="43.96738" lon="2.99813">
        <ele>816</ele>
        <time>2026-04-30T08:54:34.000Z</time>
      </trkpt>
      <trkpt lat="43.96738" lon="2.99813">
        <ele>816</ele>
        <time>2026-04-30T08:54:35.000Z</time>
      </trkpt>
      <trkpt lat="43.96738" lon="2.99813">
        <ele>816.7</ele>
        <time>2026-04-30T08:54:36.000Z</time>
      </trkpt>
      <trkpt lat="43.96737" lon="2.99814">
        <ele>817.3</ele>
        <time>2026-04-30T08:54:37.000Z</time>
      </trkpt>
      <trkpt lat="43.96738" lon="2.99814">
        <ele>817.7</ele>
        <time>2026-04-30T08:54:38.000Z</time>
      </trkpt>
      <trkpt lat="43.96738" lon="2.99815">
        <ele>817.9</ele>
        <time>2026-04-30T08:54:39.000Z</time>
      </trkpt>
      <trkpt lat="43.96738" lon="2.99815">
        <ele>817.6</ele>
        <time>2026-04-30T08:54:40.000Z</time>
      </trkpt>
      <trkpt lat="43.96738" lon="2.99816">
        <ele>817.4</ele>
        <time>2026-04-30T08:54:41.000Z</time>
      </trkpt>
      <trkpt lat="43.96738" lon="2.99816">
        <ele>817.3</ele>
        <time>2026-04-30T08:54:42.000Z</time>
      </trkpt>
      <trkpt lat="43.96738" lon="2.99816">
        <ele>817.1</ele>
        <time>2026-04-30T08:54:43.000Z</time>
      </trkpt>
      <trkpt lat="43.96738" lon="2.99816">
        <ele>817.2</ele>
        <time>2026-04-30T08:54:44.000Z</time>
      </trkpt>
      <trkpt lat="43.96738" lon="2.99816">
        <ele>817.2</ele>
        <time>2026-04-30T08:54:45.000Z</time>
      </trkpt>
      <trkpt lat="43.96738" lon="2.99816">
        <ele>817.3</ele>
        <time>2026-04-30T08:54:46.000Z</time>
      </trkpt>
      <trkpt lat="43.96738" lon="2.99816">
        <ele>817.4</ele>
        <time>2026-04-30T08:54:47.000Z</time>
      </trkpt>
      <trkpt lat="43.96738" lon="2.99816">
        <ele>817.9</ele>
        <time>2026-04-30T08:54:48.000Z</time>
      </trkpt>
      <trkpt lat="43.96738" lon="2.99816">
        <ele>818.3</ele>
        <time>2026-04-30T08:54:49.000Z</time>
      </trkpt>
      <trkpt lat="43.96738" lon="2.99816">
        <ele>818.8</ele>
        <time>2026-04-30T08:54:50.000Z</time>
      </trkpt>
      <trkpt lat="43.96738" lon="2.99816">
        <ele>819.3</ele>
        <time>2026-04-30T08:54:51.000Z</time>
      </trkpt>
      <trkpt lat="43.96738" lon="2.99816">
        <ele>819.8</ele>
        <time>2026-04-30T08:54:52.000Z</time>
      </trkpt>
      <trkpt lat="43.96738" lon="2.99816">
        <ele>820.3</ele>
        <time>2026-04-30T08:54:53.000Z</time>
      </trkpt>
      <trkpt lat="43.96738" lon="2.99816">
        <ele>820.9</ele>
        <time>2026-04-30T08:54:54.000Z</time>
      </trkpt>
      <trkpt lat="43.96738" lon="2.99817">
        <ele>821.4</ele>
        <time>2026-04-30T08:54:55.000Z</time>
      </trkpt>
      <trkpt lat="43.96738" lon="2.99816">
        <ele>821.9</ele>
        <time>2026-04-30T08:54:56.000Z</time>
      </trkpt>
      <trkpt lat="43.96738" lon="2.99816">
        <ele>822.2</ele>
        <time>2026-04-30T08:54:57.000Z</time>
      </trkpt>
      <trkpt lat="43.96738" lon="2.99816">
        <ele>822.4</ele>
        <time>2026-04-30T08:54:58.000Z</time>
      </trkpt>
      <trkpt lat="43.96738" lon="2.99816">
        <ele>822.4</ele>
        <time>2026-04-30T08:54:59.000Z</time>
      </trkpt>
      <trkpt lat="43.96738" lon="2.99816">
        <ele>822.4</ele>
        <time>2026-04-30T08:55:00.000Z</time>
      </trkpt>
      <trkpt lat="43.96738" lon="2.99816">
        <ele>822.1</ele>
        <time>2026-04-30T08:55:01.000Z</time>
      </trkpt>
      <trkpt lat="43.96738" lon="2.99816">
        <ele>821.9</ele>
        <time>2026-04-30T08:55:02.000Z</time>
      </trkpt>
      <trkpt lat="43.96738" lon="2.99816">
        <ele>821.6</ele>
        <time>2026-04-30T08:55:03.000Z</time>
      </trkpt>
      <trkpt lat="43.96738" lon="2.99816">
        <ele>820.6</ele>
        <time>2026-04-30T08:55:04.000Z</time>
      </trkpt>
      <trkpt lat="43.96738" lon="2.99816">
        <ele>820</ele>
        <time>2026-04-30T08:55:05.000Z</time>
      </trkpt>
      <trkpt lat="43.96738" lon="2.99817">
        <ele>819.5</ele>
        <time>2026-04-30T08:55:06.000Z</time>
      </trkpt>
      <trkpt lat="43.96738" lon="2.99817">
        <ele>819</ele>
        <time>2026-04-30T08:55:07.000Z</time>
      </trkpt>
      <trkpt lat="43.96738" lon="2.99817">
        <ele>818.5</ele>
        <time>2026-04-30T08:55:08.000Z</time>
      </trkpt>
      <trkpt lat="43.96738" lon="2.99817">
        <ele>818</ele>
        <time>2026-04-30T08:55:09.000Z</time>
      </trkpt>
      <trkpt lat="43.96739" lon="2.99817">
        <ele>817.5</ele>
        <time>2026-04-30T08:55:10.000Z</time>
      </trkpt>
      <trkpt lat="43.96739" lon="2.99817">
        <ele>817</ele>
        <time>2026-04-30T08:55:11.000Z</time>
      </trkpt>
      <trkpt lat="43.96738" lon="2.9982">
        <ele>816.4</ele>
        <time>2026-04-30T08:55:12.000Z</time>
      </trkpt>
      <trkpt lat="43.96738" lon="2.99822">
        <ele>815.8</ele>
        <time>2026-04-30T08:55:13.000Z</time>
      </trkpt>
      <trkpt lat="43.96737" lon="2.99824">
        <ele>815.4</ele>
        <time>2026-04-30T08:55:14.000Z</time>
      </trkpt>
      <trkpt lat="43.96738" lon="2.99825">
        <ele>815.2</ele>
        <time>2026-04-30T08:55:15.000Z</time>
      </trkpt>
      <trkpt lat="43.96738" lon="2.99827">
        <ele>814.6</ele>
        <time>2026-04-30T08:55:16.000Z</time>
      </trkpt>
      <trkpt lat="43.96738" lon="2.99829">
        <ele>814.2</ele>
        <time>2026-04-30T08:55:17.000Z</time>
      </trkpt>
      <trkpt lat="43.96738" lon="2.9983">
        <ele>813.8</ele>
        <time>2026-04-30T08:55:18.000Z</time>
      </trkpt>
      <trkpt lat="43.96737" lon="2.99832">
        <ele>813.4</ele>
        <time>2026-04-30T08:55:19.000Z</time>
      </trkpt>
      <trkpt lat="43.96736" lon="2.99833">
        <ele>813</ele>
        <time>2026-04-30T08:55:20.000Z</time>
      </trkpt>
      <trkpt lat="43.96736" lon="2.99834">
        <ele>812.5</ele>
        <time>2026-04-30T08:55:21.000Z</time>
      </trkpt>
      <trkpt lat="43.96736" lon="2.99836">
        <ele>812.2</ele>
        <time>2026-04-30T08:55:22.000Z</time>
      </trkpt>
      <trkpt lat="43.96735" lon="2.99838">
        <ele>812</ele>
        <time>2026-04-30T08:55:23.000Z</time>
      </trkpt>
      <trkpt lat="43.96735" lon="2.9984">
        <ele>811.7</ele>
        <time>2026-04-30T08:55:24.000Z</time>
      </trkpt>
      <trkpt lat="43.96734" lon="2.99841">
        <ele>811.5</ele>
        <time>2026-04-30T08:55:25.000Z</time>
      </trkpt>
      <trkpt lat="43.96733" lon="2.99843">
        <ele>811.3</ele>
        <time>2026-04-30T08:55:26.000Z</time>
      </trkpt>
      <trkpt lat="43.96733" lon="2.99844">
        <ele>811.4</ele>
        <time>2026-04-30T08:55:27.000Z</time>
      </trkpt>
      <trkpt lat="43.96733" lon="2.99846">
        <ele>810.8</ele>
        <time>2026-04-30T08:55:28.000Z</time>
      </trkpt>
      <trkpt lat="43.96732" lon="2.99847">
        <ele>810.7</ele>
        <time>2026-04-30T08:55:29.000Z</time>
      </trkpt>
      <trkpt lat="43.96732" lon="2.99848">
        <ele>810.4</ele>
        <time>2026-04-30T08:55:30.000Z</time>
      </trkpt>
      <trkpt lat="43.96731" lon="2.99848">
        <ele>810.1</ele>
        <time>2026-04-30T08:55:31.000Z</time>
      </trkpt>
      <trkpt lat="43.96731" lon="2.9985">
        <ele>809.7</ele>
        <time>2026-04-30T08:55:32.000Z</time>
      </trkpt>
      <trkpt lat="43.9673" lon="2.99851">
        <ele>809.4</ele>
        <time>2026-04-30T08:55:33.000Z</time>
      </trkpt>
      <trkpt lat="43.96731" lon="2.99851">
        <ele>809.1</ele>
        <time>2026-04-30T08:55:34.000Z</time>
      </trkpt>
      <trkpt lat="43.9673" lon="2.99852">
        <ele>809</ele>
        <time>2026-04-30T08:55:35.000Z</time>
      </trkpt>
      <trkpt lat="43.96729" lon="2.99856">
        <ele>809.3</ele>
        <time>2026-04-30T08:55:37.000Z</time>
      </trkpt>
      <trkpt lat="43.96729" lon="2.99858">
        <ele>809.9</ele>
        <time>2026-04-30T08:55:38.000Z</time>
      </trkpt>
      <trkpt lat="43.96728" lon="2.99859">
        <ele>809.9</ele>
        <time>2026-04-30T08:55:39.000Z</time>
      </trkpt>
      <trkpt lat="43.96728" lon="2.9986">
        <ele>809.3</ele>
        <time>2026-04-30T08:55:40.000Z</time>
      </trkpt>
      <trkpt lat="43.96728" lon="2.99862">
        <ele>808.6</ele>
        <time>2026-04-30T08:55:41.000Z</time>
      </trkpt>
      <trkpt lat="43.96728" lon="2.99863">
        <ele>807.7</ele>
        <time>2026-04-30T08:55:42.000Z</time>
      </trkpt>
      <trkpt lat="43.96727" lon="2.99864">
        <ele>807.1</ele>
        <time>2026-04-30T08:55:43.000Z</time>
      </trkpt>
      <trkpt lat="43.96726" lon="2.99864">
        <ele>807.3</ele>
        <time>2026-04-30T08:55:44.000Z</time>
      </trkpt>
      <trkpt lat="43.96726" lon="2.99866">
        <ele>807</ele>
        <time>2026-04-30T08:55:45.000Z</time>
      </trkpt>
      <trkpt lat="43.96726" lon="2.99867">
        <ele>807</ele>
        <time>2026-04-30T08:55:46.000Z</time>
      </trkpt>
      <trkpt lat="43.96726" lon="2.99868">
        <ele>806.8</ele>
        <time>2026-04-30T08:55:47.000Z</time>
      </trkpt>
      <trkpt lat="43.96725" lon="2.99871">
        <ele>807.2</ele>
        <time>2026-04-30T08:55:48.000Z</time>
      </trkpt>
      <trkpt lat="43.96725" lon="2.99872">
        <ele>807.4</ele>
        <time>2026-04-30T08:55:49.000Z</time>
      </trkpt>
      <trkpt lat="43.96725" lon="2.99874">
        <ele>807.3</ele>
        <time>2026-04-30T08:55:50.000Z</time>
      </trkpt>
      <trkpt lat="43.96724" lon="2.99875">
        <ele>807.1</ele>
        <time>2026-04-30T08:55:51.000Z</time>
      </trkpt>
      <trkpt lat="43.96724" lon="2.99877">
        <ele>807</ele>
        <time>2026-04-30T08:55:52.000Z</time>
      </trkpt>
      <trkpt lat="43.96724" lon="2.99879">
        <ele>806.2</ele>
        <time>2026-04-30T08:55:53.000Z</time>
      </trkpt>
      <trkpt lat="43.96724" lon="2.9988">
        <ele>805.8</ele>
        <time>2026-04-30T08:55:54.000Z</time>
      </trkpt>
      <trkpt lat="43.96724" lon="2.99882">
        <ele>805.4</ele>
        <time>2026-04-30T08:55:55.000Z</time>
      </trkpt>
      <trkpt lat="43.96725" lon="2.99884">
        <ele>805.1</ele>
        <time>2026-04-30T08:55:56.000Z</time>
      </trkpt>
      <trkpt lat="43.96725" lon="2.99885">
        <ele>805.2</ele>
        <time>2026-04-30T08:55:57.000Z</time>
      </trkpt>
      <trkpt lat="43.96724" lon="2.99887">
        <ele>805.2</ele>
        <time>2026-04-30T08:55:58.000Z</time>
      </trkpt>
      <trkpt lat="43.96724" lon="2.99888">
        <ele>805.6</ele>
        <time>2026-04-30T08:55:59.000Z</time>
      </trkpt>
      <trkpt lat="43.96723" lon="2.9989">
        <ele>805.4</ele>
        <time>2026-04-30T08:56:00.000Z</time>
      </trkpt>
      <trkpt lat="43.96723" lon="2.99891">
        <ele>805.2</ele>
        <time>2026-04-30T08:56:01.000Z</time>
      </trkpt>
      <trkpt lat="43.96722" lon="2.99893">
        <ele>804.9</ele>
        <time>2026-04-30T08:56:02.000Z</time>
      </trkpt>
      <trkpt lat="43.96723" lon="2.99895">
        <ele>804.4</ele>
        <time>2026-04-30T08:56:03.000Z</time>
      </trkpt>
      <trkpt lat="43.96723" lon="2.99896">
        <ele>803.8</ele>
        <time>2026-04-30T08:56:04.000Z</time>
      </trkpt>
      <trkpt lat="43.96723" lon="2.99897">
        <ele>803.2</ele>
        <time>2026-04-30T08:56:05.000Z</time>
      </trkpt>
      <trkpt lat="43.96724" lon="2.99898">
        <ele>802.8</ele>
        <time>2026-04-30T08:56:06.000Z</time>
      </trkpt>
      <trkpt lat="43.96723" lon="2.999">
        <ele>802.8</ele>
        <time>2026-04-30T08:56:07.000Z</time>
      </trkpt>
      <trkpt lat="43.96723" lon="2.99902">
        <ele>802.5</ele>
        <time>2026-04-30T08:56:08.000Z</time>
      </trkpt>
      <trkpt lat="43.96723" lon="2.99902">
        <ele>802.2</ele>
        <time>2026-04-30T08:56:09.000Z</time>
      </trkpt>
      <trkpt lat="43.96723" lon="2.99904">
        <ele>801.7</ele>
        <time>2026-04-30T08:56:10.000Z</time>
      </trkpt>
      <trkpt lat="43.96722" lon="2.99904">
        <ele>801.3</ele>
        <time>2026-04-30T08:56:11.000Z</time>
      </trkpt>
      <trkpt lat="43.96722" lon="2.99906">
        <ele>801.5</ele>
        <time>2026-04-30T08:56:12.000Z</time>
      </trkpt>
      <trkpt lat="43.96722" lon="2.99907">
        <ele>801.4</ele>
        <time>2026-04-30T08:56:13.000Z</time>
      </trkpt>
      <trkpt lat="43.96721" lon="2.99909">
        <ele>801.2</ele>
        <time>2026-04-30T08:56:14.000Z</time>
      </trkpt>
      <trkpt lat="43.9672" lon="2.99911">
        <ele>800.7</ele>
        <time>2026-04-30T08:56:15.000Z</time>
      </trkpt>
      <trkpt lat="43.9672" lon="2.99912">
        <ele>800.3</ele>
        <time>2026-04-30T08:56:16.000Z</time>
      </trkpt>
      <trkpt lat="43.96719" lon="2.99913">
        <ele>799.9</ele>
        <time>2026-04-30T08:56:17.000Z</time>
      </trkpt>
      <trkpt lat="43.96719" lon="2.99914">
        <ele>799.5</ele>
        <time>2026-04-30T08:56:18.000Z</time>
      </trkpt>
      <trkpt lat="43.96718" lon="2.99914">
        <ele>799.1</ele>
        <time>2026-04-30T08:56:19.000Z</time>
      </trkpt>
      <trkpt lat="43.96718" lon="2.99914">
        <ele>799.1</ele>
        <time>2026-04-30T08:56:20.000Z</time>
      </trkpt>
      <trkpt lat="43.96717" lon="2.99914">
        <ele>799.3</ele>
        <time>2026-04-30T08:56:21.000Z</time>
      </trkpt>
      <trkpt lat="43.96717" lon="2.99914">
        <ele>799.7</ele>
        <time>2026-04-30T08:56:22.000Z</time>
      </trkpt>
      <trkpt lat="43.96715" lon="2.99915">
        <ele>799.9</ele>
        <time>2026-04-30T08:56:24.000Z</time>
      </trkpt>
      <trkpt lat="43.96713" lon="2.99916">
        <ele>799.8</ele>
        <time>2026-04-30T08:56:25.000Z</time>
      </trkpt>
      <trkpt lat="43.96712" lon="2.99919">
        <ele>799.7</ele>
        <time>2026-04-30T08:56:26.000Z</time>
      </trkpt>
      <trkpt lat="43.96712" lon="2.99921">
        <ele>799.5</ele>
        <time>2026-04-30T08:56:27.000Z</time>
      </trkpt>
      <trkpt lat="43.96712" lon="2.99924">
        <ele>799.2</ele>
        <time>2026-04-30T08:56:28.000Z</time>
      </trkpt>
      <trkpt lat="43.96712" lon="2.99928">
        <ele>799.1</ele>
        <time>2026-04-30T08:56:29.000Z</time>
      </trkpt>
      <trkpt lat="43.96712" lon="2.9993">
        <ele>799.1</ele>
        <time>2026-04-30T08:56:30.000Z</time>
      </trkpt>
      <trkpt lat="43.96711" lon="2.99933">
        <ele>799.2</ele>
        <time>2026-04-30T08:56:31.000Z</time>
      </trkpt>
      <trkpt lat="43.96711" lon="2.99935">
        <ele>799.8</ele>
        <time>2026-04-30T08:56:32.000Z</time>
      </trkpt>
      <trkpt lat="43.9671" lon="2.99936">
        <ele>800.2</ele>
        <time>2026-04-30T08:56:33.000Z</time>
      </trkpt>
      <trkpt lat="43.96711" lon="2.99937">
        <ele>800.3</ele>
        <time>2026-04-30T08:56:34.000Z</time>
      </trkpt>
      <trkpt lat="43.96711" lon="2.99938">
        <ele>800.2</ele>
        <time>2026-04-30T08:56:35.000Z</time>
      </trkpt>
      <trkpt lat="43.96711" lon="2.99939">
        <ele>799.9</ele>
        <time>2026-04-30T08:56:36.000Z</time>
      </trkpt>
      <trkpt lat="43.9671" lon="2.99942">
        <ele>799.6</ele>
        <time>2026-04-30T08:56:37.000Z</time>
      </trkpt>
      <trkpt lat="43.9671" lon="2.99944">
        <ele>799.2</ele>
        <time>2026-04-30T08:56:38.000Z</time>
      </trkpt>
      <trkpt lat="43.96709" lon="2.99946">
        <ele>799</ele>
        <time>2026-04-30T08:56:39.000Z</time>
      </trkpt>
      <trkpt lat="43.9671" lon="2.99947">
        <ele>799.1</ele>
        <time>2026-04-30T08:56:40.000Z</time>
      </trkpt>
      <trkpt lat="43.9671" lon="2.99949">
        <ele>799</ele>
        <time>2026-04-30T08:56:41.000Z</time>
      </trkpt>
      <trkpt lat="43.96711" lon="2.9995">
        <ele>799</ele>
        <time>2026-04-30T08:56:42.000Z</time>
      </trkpt>
      <trkpt lat="43.96711" lon="2.99951">
        <ele>798.7</ele>
        <time>2026-04-30T08:56:43.000Z</time>
      </trkpt>
      <trkpt lat="43.96711" lon="2.99953">
        <ele>798.4</ele>
        <time>2026-04-30T08:56:44.000Z</time>
      </trkpt>
      <trkpt lat="43.96712" lon="2.99955">
        <ele>797.9</ele>
        <time>2026-04-30T08:56:45.000Z</time>
      </trkpt>
      <trkpt lat="43.96712" lon="2.99957">
        <ele>797.7</ele>
        <time>2026-04-30T08:56:46.000Z</time>
      </trkpt>
      <trkpt lat="43.96712" lon="2.99958">
        <ele>797.6</ele>
        <time>2026-04-30T08:56:47.000Z</time>
      </trkpt>
      <trkpt lat="43.96712" lon="2.99961">
        <ele>797.4</ele>
        <time>2026-04-30T08:56:48.000Z</time>
      </trkpt>
      <trkpt lat="43.96712" lon="2.99963">
        <ele>797.4</ele>
        <time>2026-04-30T08:56:49.000Z</time>
      </trkpt>
      <trkpt lat="43.96712" lon="2.99964">
        <ele>797.2</ele>
        <time>2026-04-30T08:56:50.000Z</time>
      </trkpt>
      <trkpt lat="43.96711" lon="2.99965">
        <ele>796.8</ele>
        <time>2026-04-30T08:56:51.000Z</time>
      </trkpt>
      <trkpt lat="43.96711" lon="2.99967">
        <ele>796.3</ele>
        <time>2026-04-30T08:56:52.000Z</time>
      </trkpt>
      <trkpt lat="43.96711" lon="2.99969">
        <ele>795.7</ele>
        <time>2026-04-30T08:56:53.000Z</time>
      </trkpt>
      <trkpt lat="43.96711" lon="2.99971">
        <ele>795.7</ele>
        <time>2026-04-30T08:56:54.000Z</time>
      </trkpt>
      <trkpt lat="43.96711" lon="2.99974">
        <ele>795.5</ele>
        <time>2026-04-30T08:56:55.000Z</time>
      </trkpt>
      <trkpt lat="43.96711" lon="2.99975">
        <ele>795.4</ele>
        <time>2026-04-30T08:56:56.000Z</time>
      </trkpt>
      <trkpt lat="43.9671" lon="2.99976">
        <ele>795.5</ele>
        <time>2026-04-30T08:56:57.000Z</time>
      </trkpt>
      <trkpt lat="43.9671" lon="2.99977">
        <ele>795.3</ele>
        <time>2026-04-30T08:56:58.000Z</time>
      </trkpt>
      <trkpt lat="43.9671" lon="2.99979">
        <ele>795.1</ele>
        <time>2026-04-30T08:56:59.000Z</time>
      </trkpt>
      <trkpt lat="43.9671" lon="2.9998">
        <ele>795</ele>
        <time>2026-04-30T08:57:00.000Z</time>
      </trkpt>
      <trkpt lat="43.9671" lon="2.99982">
        <ele>795</ele>
        <time>2026-04-30T08:57:01.000Z</time>
      </trkpt>
      <trkpt lat="43.9671" lon="2.99984">
        <ele>795</ele>
        <time>2026-04-30T08:57:02.000Z</time>
      </trkpt>
      <trkpt lat="43.96711" lon="2.99985">
        <ele>795</ele>
        <time>2026-04-30T08:57:03.000Z</time>
      </trkpt>
      <trkpt lat="43.9671" lon="2.99987">
        <ele>795.2</ele>
        <time>2026-04-30T08:57:04.000Z</time>
      </trkpt>
      <trkpt lat="43.9671" lon="2.99989">
        <ele>795.5</ele>
        <time>2026-04-30T08:57:05.000Z</time>
      </trkpt>
      <trkpt lat="43.9671" lon="2.99991">
        <ele>795.8</ele>
        <time>2026-04-30T08:57:06.000Z</time>
      </trkpt>
      <trkpt lat="43.9671" lon="2.99992">
        <ele>796.2</ele>
        <time>2026-04-30T08:57:07.000Z</time>
      </trkpt>
      <trkpt lat="43.9671" lon="2.99994">
        <ele>796.6</ele>
        <time>2026-04-30T08:57:08.000Z</time>
      </trkpt>
      <trkpt lat="43.9671" lon="2.99996">
        <ele>796.7</ele>
        <time>2026-04-30T08:57:09.000Z</time>
      </trkpt>
      <trkpt lat="43.9671" lon="2.99998">
        <ele>796.7</ele>
        <time>2026-04-30T08:57:10.000Z</time>
      </trkpt>
      <trkpt lat="43.96709" lon="2.99999">
        <ele>796.8</ele>
        <time>2026-04-30T08:57:11.000Z</time>
      </trkpt>
      <trkpt lat="43.96709" lon="3.00002">
        <ele>796.5</ele>
        <time>2026-04-30T08:57:12.000Z</time>
      </trkpt>
      <trkpt lat="43.96709" lon="3.00003">
        <ele>796.4</ele>
        <time>2026-04-30T08:57:13.000Z</time>
      </trkpt>
      <trkpt lat="43.96709" lon="3.00004">
        <ele>796.7</ele>
        <time>2026-04-30T08:57:14.000Z</time>
      </trkpt>
      <trkpt lat="43.96709" lon="3.00005">
        <ele>796.7</ele>
        <time>2026-04-30T08:57:15.000Z</time>
      </trkpt>
      <trkpt lat="43.9671" lon="3.00006">
        <ele>796.7</ele>
        <time>2026-04-30T08:57:16.000Z</time>
      </trkpt>
      <trkpt lat="43.9671" lon="3.00008">
        <ele>796.8</ele>
        <time>2026-04-30T08:57:17.000Z</time>
      </trkpt>
      <trkpt lat="43.96711" lon="3.00009">
        <ele>797.3</ele>
        <time>2026-04-30T08:57:18.000Z</time>
      </trkpt>
      <trkpt lat="43.96711" lon="3.0001">
        <ele>797.1</ele>
        <time>2026-04-30T08:57:19.000Z</time>
      </trkpt>
      <trkpt lat="43.96711" lon="3.00012">
        <ele>796.7</ele>
        <time>2026-04-30T08:57:20.000Z</time>
      </trkpt>
      <trkpt lat="43.96711" lon="3.00013">
        <ele>796.7</ele>
        <time>2026-04-30T08:57:21.000Z</time>
      </trkpt>
      <trkpt lat="43.96711" lon="3.00015">
        <ele>796.5</ele>
        <time>2026-04-30T08:57:22.000Z</time>
      </trkpt>
      <trkpt lat="43.96711" lon="3.00017">
        <ele>796.2</ele>
        <time>2026-04-30T08:57:23.000Z</time>
      </trkpt>
      <trkpt lat="43.9671" lon="3.00019">
        <ele>795.9</ele>
        <time>2026-04-30T08:57:24.000Z</time>
      </trkpt>
      <trkpt lat="43.96709" lon="3.00021">
        <ele>795.7</ele>
        <time>2026-04-30T08:57:25.000Z</time>
      </trkpt>
      <trkpt lat="43.96709" lon="3.00023">
        <ele>795.6</ele>
        <time>2026-04-30T08:57:26.000Z</time>
      </trkpt>
      <trkpt lat="43.96709" lon="3.00024">
        <ele>795.2</ele>
        <time>2026-04-30T08:57:27.000Z</time>
      </trkpt>
      <trkpt lat="43.96709" lon="3.00025">
        <ele>795.4</ele>
        <time>2026-04-30T08:57:28.000Z</time>
      </trkpt>
      <trkpt lat="43.96708" lon="3.00027">
        <ele>795.4</ele>
        <time>2026-04-30T08:57:29.000Z</time>
      </trkpt>
      <trkpt lat="43.96708" lon="3.00029">
        <ele>795</ele>
        <time>2026-04-30T08:57:30.000Z</time>
      </trkpt>
      <trkpt lat="43.96707" lon="3.0003">
        <ele>794.7</ele>
        <time>2026-04-30T08:57:31.000Z</time>
      </trkpt>
      <trkpt lat="43.96707" lon="3.00032">
        <ele>794.4</ele>
        <time>2026-04-30T08:57:32.000Z</time>
      </trkpt>
      <trkpt lat="43.96708" lon="3.00033">
        <ele>793.9</ele>
        <time>2026-04-30T08:57:33.000Z</time>
      </trkpt>
      <trkpt lat="43.96708" lon="3.00034">
        <ele>793.5</ele>
        <time>2026-04-30T08:57:34.000Z</time>
      </trkpt>
      <trkpt lat="43.96709" lon="3.00035">
        <ele>793</ele>
        <time>2026-04-30T08:57:35.000Z</time>
      </trkpt>
      <trkpt lat="43.96708" lon="3.00036">
        <ele>792.9</ele>
        <time>2026-04-30T08:57:36.000Z</time>
      </trkpt>
      <trkpt lat="43.96707" lon="3.00038">
        <ele>792.9</ele>
        <time>2026-04-30T08:57:37.000Z</time>
      </trkpt>
      <trkpt lat="43.96707" lon="3.0004">
        <ele>792.8</ele>
        <time>2026-04-30T08:57:38.000Z</time>
      </trkpt>
      <trkpt lat="43.96707" lon="3.00041">
        <ele>792.7</ele>
        <time>2026-04-30T08:57:39.000Z</time>
      </trkpt>
      <trkpt lat="43.96708" lon="3.00042">
        <ele>792.5</ele>
        <time>2026-04-30T08:57:40.000Z</time>
      </trkpt>
      <trkpt lat="43.96707" lon="3.00044">
        <ele>792.5</ele>
        <time>2026-04-30T08:57:41.000Z</time>
      </trkpt>
      <trkpt lat="43.96707" lon="3.00045">
        <ele>792.4</ele>
        <time>2026-04-30T08:57:42.000Z</time>
      </trkpt>
      <trkpt lat="43.96707" lon="3.00046">
        <ele>792.4</ele>
        <time>2026-04-30T08:57:43.000Z</time>
      </trkpt>
      <trkpt lat="43.96707" lon="3.00047">
        <ele>792.6</ele>
        <time>2026-04-30T08:57:44.000Z</time>
      </trkpt>
      <trkpt lat="43.96707" lon="3.00049">
        <ele>792.7</ele>
        <time>2026-04-30T08:57:45.000Z</time>
      </trkpt>
      <trkpt lat="43.96707" lon="3.00051">
        <ele>792.8</ele>
        <time>2026-04-30T08:57:46.000Z</time>
      </trkpt>
      <trkpt lat="43.96706" lon="3.00052">
        <ele>792.6</ele>
        <time>2026-04-30T08:57:47.000Z</time>
      </trkpt>
      <trkpt lat="43.96706" lon="3.00053">
        <ele>792.2</ele>
        <time>2026-04-30T08:57:48.000Z</time>
      </trkpt>
      <trkpt lat="43.96706" lon="3.00055">
        <ele>792.3</ele>
        <time>2026-04-30T08:57:49.000Z</time>
      </trkpt>
      <trkpt lat="43.96706" lon="3.00056">
        <ele>792.1</ele>
        <time>2026-04-30T08:57:50.000Z</time>
      </trkpt>
      <trkpt lat="43.96706" lon="3.00057">
        <ele>792.1</ele>
        <time>2026-04-30T08:57:51.000Z</time>
      </trkpt>
      <trkpt lat="43.96705" lon="3.00059">
        <ele>792.1</ele>
        <time>2026-04-30T08:57:52.000Z</time>
      </trkpt>
      <trkpt lat="43.96705" lon="3.00061">
        <ele>792.2</ele>
        <time>2026-04-30T08:57:53.000Z</time>
      </trkpt>
      <trkpt lat="43.96705" lon="3.00063">
        <ele>792</ele>
        <time>2026-04-30T08:57:54.000Z</time>
      </trkpt>
      <trkpt lat="43.96706" lon="3.00065">
        <ele>791.2</ele>
        <time>2026-04-30T08:57:55.000Z</time>
      </trkpt>
      <trkpt lat="43.96706" lon="3.00067">
        <ele>790.7</ele>
        <time>2026-04-30T08:57:56.000Z</time>
      </trkpt>
      <trkpt lat="43.96706" lon="3.00068">
        <ele>790.4</ele>
        <time>2026-04-30T08:57:57.000Z</time>
      </trkpt>
      <trkpt lat="43.96706" lon="3.0007">
        <ele>790.3</ele>
        <time>2026-04-30T08:57:58.000Z</time>
      </trkpt>
      <trkpt lat="43.96706" lon="3.00072">
        <ele>789.9</ele>
        <time>2026-04-30T08:57:59.000Z</time>
      </trkpt>
      <trkpt lat="43.96706" lon="3.00075">
        <ele>789.6</ele>
        <time>2026-04-30T08:58:00.000Z</time>
      </trkpt>
      <trkpt lat="43.96707" lon="3.00077">
        <ele>789.2</ele>
        <time>2026-04-30T08:58:01.000Z</time>
      </trkpt>
      <trkpt lat="43.96707" lon="3.00078">
        <ele>788.8</ele>
        <time>2026-04-30T08:58:02.000Z</time>
      </trkpt>
      <trkpt lat="43.96707" lon="3.00079">
        <ele>788.8</ele>
        <time>2026-04-30T08:58:03.000Z</time>
      </trkpt>
      <trkpt lat="43.96707" lon="3.0008">
        <ele>789</ele>
        <time>2026-04-30T08:58:04.000Z</time>
      </trkpt>
      <trkpt lat="43.96707" lon="3.0008">
        <ele>788.5</ele>
        <time>2026-04-30T08:58:05.000Z</time>
      </trkpt>
      <trkpt lat="43.96707" lon="3.00081">
        <ele>788.3</ele>
        <time>2026-04-30T08:58:06.000Z</time>
      </trkpt>
      <trkpt lat="43.96707" lon="3.00082">
        <ele>788.1</ele>
        <time>2026-04-30T08:58:07.000Z</time>
      </trkpt>
      <trkpt lat="43.96708" lon="3.00083">
        <ele>787.9</ele>
        <time>2026-04-30T08:58:08.000Z</time>
      </trkpt>
      <trkpt lat="43.96708" lon="3.00084">
        <ele>787.8</ele>
        <time>2026-04-30T08:58:09.000Z</time>
      </trkpt>
      <trkpt lat="43.96709" lon="3.00084">
        <ele>787.5</ele>
        <time>2026-04-30T08:58:10.000Z</time>
      </trkpt>
      <trkpt lat="43.96711" lon="3.00084">
        <ele>787.4</ele>
        <time>2026-04-30T08:58:11.000Z</time>
      </trkpt>
      <trkpt lat="43.96711" lon="3.00084">
        <ele>787.2</ele>
        <time>2026-04-30T08:58:12.000Z</time>
      </trkpt>
      <trkpt lat="43.96712" lon="3.00085">
        <ele>787.1</ele>
        <time>2026-04-30T08:58:13.000Z</time>
      </trkpt>
      <trkpt lat="43.96713" lon="3.00086">
        <ele>786.9</ele>
        <time>2026-04-30T08:58:14.000Z</time>
      </trkpt>
      <trkpt lat="43.96714" lon="3.00087">
        <ele>786.7</ele>
        <time>2026-04-30T08:58:15.000Z</time>
      </trkpt>
      <trkpt lat="43.96715" lon="3.00087">
        <ele>786.4</ele>
        <time>2026-04-30T08:58:16.000Z</time>
      </trkpt>
      <trkpt lat="43.96716" lon="3.00088">
        <ele>786.1</ele>
        <time>2026-04-30T08:58:17.000Z</time>
      </trkpt>
      <trkpt lat="43.96718" lon="3.00088">
        <ele>786.1</ele>
        <time>2026-04-30T08:58:18.000Z</time>
      </trkpt>
      <trkpt lat="43.96719" lon="3.00088">
        <ele>786</ele>
        <time>2026-04-30T08:58:19.000Z</time>
      </trkpt>
      <trkpt lat="43.96721" lon="3.00087">
        <ele>785.7</ele>
        <time>2026-04-30T08:58:20.000Z</time>
      </trkpt>
      <trkpt lat="43.96722" lon="3.00086">
        <ele>785.6</ele>
        <time>2026-04-30T08:58:21.000Z</time>
      </trkpt>
      <trkpt lat="43.96723" lon="3.00085">
        <ele>785.7</ele>
        <time>2026-04-30T08:58:22.000Z</time>
      </trkpt>
      <trkpt lat="43.96724" lon="3.00085">
        <ele>785.6</ele>
        <time>2026-04-30T08:58:23.000Z</time>
      </trkpt>
      <trkpt lat="43.96725" lon="3.00085">
        <ele>785.2</ele>
        <time>2026-04-30T08:58:24.000Z</time>
      </trkpt>
      <trkpt lat="43.96727" lon="3.00083">
        <ele>785.4</ele>
        <time>2026-04-30T08:58:25.000Z</time>
      </trkpt>
      <trkpt lat="43.96728" lon="3.00083">
        <ele>785.2</ele>
        <time>2026-04-30T08:58:26.000Z</time>
      </trkpt>
      <trkpt lat="43.96729" lon="3.00083">
        <ele>785.1</ele>
        <time>2026-04-30T08:58:27.000Z</time>
      </trkpt>
      <trkpt lat="43.9673" lon="3.00084">
        <ele>785.1</ele>
        <time>2026-04-30T08:58:28.000Z</time>
      </trkpt>
      <trkpt lat="43.9673" lon="3.00084">
        <ele>785.2</ele>
        <time>2026-04-30T08:58:29.000Z</time>
      </trkpt>
      <trkpt lat="43.96731" lon="3.00085">
        <ele>785.1</ele>
        <time>2026-04-30T08:58:30.000Z</time>
      </trkpt>
      <trkpt lat="43.96731" lon="3.00087">
        <ele>784.7</ele>
        <time>2026-04-30T08:58:31.000Z</time>
      </trkpt>
      <trkpt lat="43.96732" lon="3.00087">
        <ele>784.4</ele>
        <time>2026-04-30T08:58:32.000Z</time>
      </trkpt>
      <trkpt lat="43.96733" lon="3.00088">
        <ele>783.9</ele>
        <time>2026-04-30T08:58:33.000Z</time>
      </trkpt>
      <trkpt lat="43.96734" lon="3.00089">
        <ele>783.5</ele>
        <time>2026-04-30T08:58:34.000Z</time>
      </trkpt>
      <trkpt lat="43.96735" lon="3.0009">
        <ele>783.1</ele>
        <time>2026-04-30T08:58:35.000Z</time>
      </trkpt>
      <trkpt lat="43.96735" lon="3.00091">
        <ele>782.9</ele>
        <time>2026-04-30T08:58:36.000Z</time>
      </trkpt>
      <trkpt lat="43.96735" lon="3.00092">
        <ele>782.6</ele>
        <time>2026-04-30T08:58:37.000Z</time>
      </trkpt>
      <trkpt lat="43.96735" lon="3.00094">
        <ele>782.3</ele>
        <time>2026-04-30T08:58:38.000Z</time>
      </trkpt>
      <trkpt lat="43.96734" lon="3.00094">
        <ele>782.1</ele>
        <time>2026-04-30T08:58:39.000Z</time>
      </trkpt>
      <trkpt lat="43.96734" lon="3.00094">
        <ele>781.9</ele>
        <time>2026-04-30T08:58:40.000Z</time>
      </trkpt>
      <trkpt lat="43.96734" lon="3.00094">
        <ele>781.6</ele>
        <time>2026-04-30T08:58:41.000Z</time>
      </trkpt>
      <trkpt lat="43.96734" lon="3.00095">
        <ele>781.6</ele>
        <time>2026-04-30T08:58:42.000Z</time>
      </trkpt>
      <trkpt lat="43.96734" lon="3.00095">
        <ele>781.9</ele>
        <time>2026-04-30T08:58:43.000Z</time>
      </trkpt>
      <trkpt lat="43.96734" lon="3.00095">
        <ele>782.1</ele>
        <time>2026-04-30T08:58:44.000Z</time>
      </trkpt>
      <trkpt lat="43.96734" lon="3.00095">
        <ele>782.2</ele>
        <time>2026-04-30T08:58:45.000Z</time>
      </trkpt>
      <trkpt lat="43.96734" lon="3.00095">
        <ele>782.1</ele>
        <time>2026-04-30T08:58:46.000Z</time>
      </trkpt>
      <trkpt lat="43.96734" lon="3.00095">
        <ele>781.9</ele>
        <time>2026-04-30T08:58:47.000Z</time>
      </trkpt>
      <trkpt lat="43.96734" lon="3.00095">
        <ele>781.7</ele>
        <time>2026-04-30T08:58:48.000Z</time>
      </trkpt>
      <trkpt lat="43.96734" lon="3.00095">
        <ele>781.5</ele>
        <time>2026-04-30T08:58:49.000Z</time>
      </trkpt>
      <trkpt lat="43.96734" lon="3.00096">
        <ele>781.4</ele>
        <time>2026-04-30T08:58:50.000Z</time>
      </trkpt>
      <trkpt lat="43.96734" lon="3.00096">
        <ele>781</ele>
        <time>2026-04-30T08:58:51.000Z</time>
      </trkpt>
      <trkpt lat="43.96734" lon="3.00097">
        <ele>780.7</ele>
        <time>2026-04-30T08:58:52.000Z</time>
      </trkpt>
      <trkpt lat="43.96734" lon="3.00097">
        <ele>780.1</ele>
        <time>2026-04-30T08:58:53.000Z</time>
      </trkpt>
      <trkpt lat="43.96735" lon="3.001">
        <ele>779.6</ele>
        <time>2026-04-30T08:58:54.000Z</time>
      </trkpt>
      <trkpt lat="43.96735" lon="3.00102">
        <ele>779.1</ele>
        <time>2026-04-30T08:58:55.000Z</time>
      </trkpt>
      <trkpt lat="43.96735" lon="3.00104">
        <ele>778.7</ele>
        <time>2026-04-30T08:58:56.000Z</time>
      </trkpt>
      <trkpt lat="43.96735" lon="3.00106">
        <ele>778.5</ele>
        <time>2026-04-30T08:58:57.000Z</time>
      </trkpt>
      <trkpt lat="43.96735" lon="3.00107">
        <ele>778.3</ele>
        <time>2026-04-30T08:58:58.000Z</time>
      </trkpt>
      <trkpt lat="43.96735" lon="3.00107">
        <ele>778.2</ele>
        <time>2026-04-30T08:58:59.000Z</time>
      </trkpt>
      <trkpt lat="43.96734" lon="3.00108">
        <ele>777.9</ele>
        <time>2026-04-30T08:59:00.000Z</time>
      </trkpt>
      <trkpt lat="43.96734" lon="3.00108">
        <ele>777.6</ele>
        <time>2026-04-30T08:59:01.000Z</time>
      </trkpt>
      <trkpt lat="43.96733" lon="3.00108">
        <ele>777.3</ele>
        <time>2026-04-30T08:59:02.000Z</time>
      </trkpt>
      <trkpt lat="43.96732" lon="3.00109">
        <ele>777.2</ele>
        <time>2026-04-30T08:59:03.000Z</time>
      </trkpt>
      <trkpt lat="43.96731" lon="3.00111">
        <ele>777.2</ele>
        <time>2026-04-30T08:59:04.000Z</time>
      </trkpt>
      <trkpt lat="43.96731" lon="3.00111">
        <ele>777</ele>
        <time>2026-04-30T08:59:05.000Z</time>
      </trkpt>
      <trkpt lat="43.9673" lon="3.00113">
        <ele>776.9</ele>
        <time>2026-04-30T08:59:06.000Z</time>
      </trkpt>
      <trkpt lat="43.96729" lon="3.00113">
        <ele>776.6</ele>
        <time>2026-04-30T08:59:07.000Z</time>
      </trkpt>
      <trkpt lat="43.96728" lon="3.00115">
        <ele>776.4</ele>
        <time>2026-04-30T08:59:08.000Z</time>
      </trkpt>
      <trkpt lat="43.96727" lon="3.00115">
        <ele>776</ele>
        <time>2026-04-30T08:59:09.000Z</time>
      </trkpt>
      <trkpt lat="43.96727" lon="3.00116">
        <ele>775.8</ele>
        <time>2026-04-30T08:59:10.000Z</time>
      </trkpt>
      <trkpt lat="43.96726" lon="3.00117">
        <ele>776</ele>
        <time>2026-04-30T08:59:11.000Z</time>
      </trkpt>
      <trkpt lat="43.96725" lon="3.00118">
        <ele>776.1</ele>
        <time>2026-04-30T08:59:12.000Z</time>
      </trkpt>
      <trkpt lat="43.96724" lon="3.0012">
        <ele>776</ele>
        <time>2026-04-30T08:59:13.000Z</time>
      </trkpt>
      <trkpt lat="43.96724" lon="3.00122">
        <ele>776.4</ele>
        <time>2026-04-30T08:59:14.000Z</time>
      </trkpt>
      <trkpt lat="43.96725" lon="3.00123">
        <ele>775.9</ele>
        <time>2026-04-30T08:59:15.000Z</time>
      </trkpt>
      <trkpt lat="43.96725" lon="3.00124">
        <ele>775.7</ele>
        <time>2026-04-30T08:59:16.000Z</time>
      </trkpt>
      <trkpt lat="43.96725" lon="3.00125">
        <ele>775.3</ele>
        <time>2026-04-30T08:59:17.000Z</time>
      </trkpt>
      <trkpt lat="43.96726" lon="3.00126">
        <ele>775</ele>
        <time>2026-04-30T08:59:18.000Z</time>
      </trkpt>
      <trkpt lat="43.96726" lon="3.00127">
        <ele>774.6</ele>
        <time>2026-04-30T08:59:19.000Z</time>
      </trkpt>
      <trkpt lat="43.96727" lon="3.00128">
        <ele>774.1</ele>
        <time>2026-04-30T08:59:20.000Z</time>
      </trkpt>
      <trkpt lat="43.96728" lon="3.00129">
        <ele>773.9</ele>
        <time>2026-04-30T08:59:21.000Z</time>
      </trkpt>
      <trkpt lat="43.96729" lon="3.0013">
        <ele>773.5</ele>
        <time>2026-04-30T08:59:22.000Z</time>
      </trkpt>
      <trkpt lat="43.9673" lon="3.0013">
        <ele>773.3</ele>
        <time>2026-04-30T08:59:23.000Z</time>
      </trkpt>
      <trkpt lat="43.96731" lon="3.00131">
        <ele>773</ele>
        <time>2026-04-30T08:59:24.000Z</time>
      </trkpt>
      <trkpt lat="43.96731" lon="3.00133">
        <ele>772.6</ele>
        <time>2026-04-30T08:59:25.000Z</time>
      </trkpt>
      <trkpt lat="43.96732" lon="3.00134">
        <ele>772</ele>
        <time>2026-04-30T08:59:26.000Z</time>
      </trkpt>
      <trkpt lat="43.96732" lon="3.00135">
        <ele>771.5</ele>
        <time>2026-04-30T08:59:27.000Z</time>
      </trkpt>
      <trkpt lat="43.96733" lon="3.00136">
        <ele>771.1</ele>
        <time>2026-04-30T08:59:28.000Z</time>
      </trkpt>
      <trkpt lat="43.96733" lon="3.00136">
        <ele>770.7</ele>
        <time>2026-04-30T08:59:29.000Z</time>
      </trkpt>
      <trkpt lat="43.96734" lon="3.00136">
        <ele>770.5</ele>
        <time>2026-04-30T08:59:30.000Z</time>
      </trkpt>
      <trkpt lat="43.96734" lon="3.00136">
        <ele>770.4</ele>
        <time>2026-04-30T08:59:31.000Z</time>
      </trkpt>
      <trkpt lat="43.96735" lon="3.00137">
        <ele>770.4</ele>
        <time>2026-04-30T08:59:32.000Z</time>
      </trkpt>
      <trkpt lat="43.96735" lon="3.00138">
        <ele>770.1</ele>
        <time>2026-04-30T08:59:33.000Z</time>
      </trkpt>
      <trkpt lat="43.96736" lon="3.00139">
        <ele>769.7</ele>
        <time>2026-04-30T08:59:34.000Z</time>
      </trkpt>
      <trkpt lat="43.96737" lon="3.0014">
        <ele>769.5</ele>
        <time>2026-04-30T08:59:35.000Z</time>
      </trkpt>
      <trkpt lat="43.96737" lon="3.0014">
        <ele>769.4</ele>
        <time>2026-04-30T08:59:36.000Z</time>
      </trkpt>
      <trkpt lat="43.96738" lon="3.0014">
        <ele>769</ele>
        <time>2026-04-30T08:59:37.000Z</time>
      </trkpt>
      <trkpt lat="43.96739" lon="3.00141">
        <ele>768.9</ele>
        <time>2026-04-30T08:59:38.000Z</time>
      </trkpt>
      <trkpt lat="43.96739" lon="3.00141">
        <ele>768.6</ele>
        <time>2026-04-30T08:59:39.000Z</time>
      </trkpt>
      <trkpt lat="43.96739" lon="3.00142">
        <ele>768.2</ele>
        <time>2026-04-30T08:59:40.000Z</time>
      </trkpt>
      <trkpt lat="43.96739" lon="3.00142">
        <ele>767.7</ele>
        <time>2026-04-30T08:59:41.000Z</time>
      </trkpt>
      <trkpt lat="43.96738" lon="3.00142">
        <ele>767.2</ele>
        <time>2026-04-30T08:59:42.000Z</time>
      </trkpt>
      <trkpt lat="43.96737" lon="3.00142">
        <ele>766.7</ele>
        <time>2026-04-30T08:59:43.000Z</time>
      </trkpt>
      <trkpt lat="43.96736" lon="3.00142">
        <ele>766.2</ele>
        <time>2026-04-30T08:59:44.000Z</time>
      </trkpt>
      <trkpt lat="43.96735" lon="3.00142">
        <ele>766</ele>
        <time>2026-04-30T08:59:45.000Z</time>
      </trkpt>
      <trkpt lat="43.96733" lon="3.00141">
        <ele>766</ele>
        <time>2026-04-30T08:59:46.000Z</time>
      </trkpt>
      <trkpt lat="43.96733" lon="3.00141">
        <ele>765.9</ele>
        <time>2026-04-30T08:59:47.000Z</time>
      </trkpt>
      <trkpt lat="43.96733" lon="3.00141">
        <ele>765.9</ele>
        <time>2026-04-30T08:59:48.000Z</time>
      </trkpt>
      <trkpt lat="43.96733" lon="3.00142">
        <ele>765.5</ele>
        <time>2026-04-30T08:59:49.000Z</time>
      </trkpt>
      <trkpt lat="43.96733" lon="3.00142">
        <ele>765.2</ele>
        <time>2026-04-30T08:59:50.000Z</time>
      </trkpt>
      <trkpt lat="43.96733" lon="3.00142">
        <ele>765</ele>
        <time>2026-04-30T08:59:51.000Z</time>
      </trkpt>
      <trkpt lat="43.96733" lon="3.00142">
        <ele>764.6</ele>
        <time>2026-04-30T08:59:52.000Z</time>
      </trkpt>
      <trkpt lat="43.96733" lon="3.00142">
        <ele>764.1</ele>
        <time>2026-04-30T08:59:53.000Z</time>
      </trkpt>
      <trkpt lat="43.96733" lon="3.00142">
        <ele>763.9</ele>
        <time>2026-04-30T08:59:54.000Z</time>
      </trkpt>
      <trkpt lat="43.96732" lon="3.00142">
        <ele>763.6</ele>
        <time>2026-04-30T08:59:55.000Z</time>
      </trkpt>
      <trkpt lat="43.96731" lon="3.00143">
        <ele>763.4</ele>
        <time>2026-04-30T08:59:56.000Z</time>
      </trkpt>
      <trkpt lat="43.9673" lon="3.00143">
        <ele>763.2</ele>
        <time>2026-04-30T08:59:57.000Z</time>
      </trkpt>
      <trkpt lat="43.96728" lon="3.00143">
        <ele>762.9</ele>
        <time>2026-04-30T08:59:58.000Z</time>
      </trkpt>
      <trkpt lat="43.96727" lon="3.00144">
        <ele>762.7</ele>
        <time>2026-04-30T08:59:59.000Z</time>
      </trkpt>
      <trkpt lat="43.96725" lon="3.00144">
        <ele>762.3</ele>
        <time>2026-04-30T09:00:00.000Z</time>
      </trkpt>
      <trkpt lat="43.96725" lon="3.00145">
        <ele>761.7</ele>
        <time>2026-04-30T09:00:01.000Z</time>
      </trkpt>
      <trkpt lat="43.96724" lon="3.00145">
        <ele>761.2</ele>
        <time>2026-04-30T09:00:02.000Z</time>
      </trkpt>
      <trkpt lat="43.96723" lon="3.00146">
        <ele>761</ele>
        <time>2026-04-30T09:00:03.000Z</time>
      </trkpt>
      <trkpt lat="43.96723" lon="3.00147">
        <ele>760.6</ele>
        <time>2026-04-30T09:00:04.000Z</time>
      </trkpt>
      <trkpt lat="43.96722" lon="3.00147">
        <ele>760.2</ele>
        <time>2026-04-30T09:00:05.000Z</time>
      </trkpt>
      <trkpt lat="43.96721" lon="3.00147">
        <ele>759.9</ele>
        <time>2026-04-30T09:00:06.000Z</time>
      </trkpt>
      <trkpt lat="43.9672" lon="3.00147">
        <ele>759.3</ele>
        <time>2026-04-30T09:00:07.000Z</time>
      </trkpt>
      <trkpt lat="43.96718" lon="3.00148">
        <ele>758.9</ele>
        <time>2026-04-30T09:00:08.000Z</time>
      </trkpt>
      <trkpt lat="43.96717" lon="3.00148">
        <ele>758.8</ele>
        <time>2026-04-30T09:00:09.000Z</time>
      </trkpt>
      <trkpt lat="43.96716" lon="3.00148">
        <ele>758.7</ele>
        <time>2026-04-30T09:00:10.000Z</time>
      </trkpt>
      <trkpt lat="43.96716" lon="3.00149">
        <ele>758.3</ele>
        <time>2026-04-30T09:00:11.000Z</time>
      </trkpt>
      <trkpt lat="43.96717" lon="3.0015">
        <ele>757.9</ele>
        <time>2026-04-30T09:00:12.000Z</time>
      </trkpt>
      <trkpt lat="43.96717" lon="3.00151">
        <ele>757.8</ele>
        <time>2026-04-30T09:00:13.000Z</time>
      </trkpt>
      <trkpt lat="43.96718" lon="3.00152">
        <ele>758</ele>
        <time>2026-04-30T09:00:14.000Z</time>
      </trkpt>
      <trkpt lat="43.96718" lon="3.00153">
        <ele>757.9</ele>
        <time>2026-04-30T09:00:15.000Z</time>
      </trkpt>
      <trkpt lat="43.96718" lon="3.00154">
        <ele>757.6</ele>
        <time>2026-04-30T09:00:16.000Z</time>
      </trkpt>
      <trkpt lat="43.96718" lon="3.00155">
        <ele>757.5</ele>
        <time>2026-04-30T09:00:17.000Z</time>
      </trkpt>
      <trkpt lat="43.96718" lon="3.00157">
        <ele>757.1</ele>
        <time>2026-04-30T09:00:18.000Z</time>
      </trkpt>
      <trkpt lat="43.96717" lon="3.00159">
        <ele>756.8</ele>
        <time>2026-04-30T09:00:19.000Z</time>
      </trkpt>
      <trkpt lat="43.96717" lon="3.0016">
        <ele>756.9</ele>
        <time>2026-04-30T09:00:20.000Z</time>
      </trkpt>
      <trkpt lat="43.96716" lon="3.00162">
        <ele>757.2</ele>
        <time>2026-04-30T09:00:21.000Z</time>
      </trkpt>
      <trkpt lat="43.96715" lon="3.00163">
        <ele>757.3</ele>
        <time>2026-04-30T09:00:22.000Z</time>
      </trkpt>
      <trkpt lat="43.96714" lon="3.00165">
        <ele>757.6</ele>
        <time>2026-04-30T09:00:23.000Z</time>
      </trkpt>
      <trkpt lat="43.96712" lon="3.00166">
        <ele>758</ele>
        <time>2026-04-30T09:00:24.000Z</time>
      </trkpt>
      <trkpt lat="43.96711" lon="3.00168">
        <ele>758</ele>
        <time>2026-04-30T09:00:25.000Z</time>
      </trkpt>
      <trkpt lat="43.9671" lon="3.00168">
        <ele>758.1</ele>
        <time>2026-04-30T09:00:26.000Z</time>
      </trkpt>
      <trkpt lat="43.96709" lon="3.00169">
        <ele>758.1</ele>
        <time>2026-04-30T09:00:27.000Z</time>
      </trkpt>
      <trkpt lat="43.96709" lon="3.00169">
        <ele>758.1</ele>
        <time>2026-04-30T09:00:28.000Z</time>
      </trkpt>
      <trkpt lat="43.96708" lon="3.0017">
        <ele>758.2</ele>
        <time>2026-04-30T09:00:29.000Z</time>
      </trkpt>
      <trkpt lat="43.96707" lon="3.00172">
        <ele>757.9</ele>
        <time>2026-04-30T09:00:30.000Z</time>
      </trkpt>
      <trkpt lat="43.96707" lon="3.00173">
        <ele>757.8</ele>
        <time>2026-04-30T09:00:31.000Z</time>
      </trkpt>
      <trkpt lat="43.96707" lon="3.00175">
        <ele>757.5</ele>
        <time>2026-04-30T09:00:32.000Z</time>
      </trkpt>
      <trkpt lat="43.96707" lon="3.00177">
        <ele>757.4</ele>
        <time>2026-04-30T09:00:33.000Z</time>
      </trkpt>
      <trkpt lat="43.96707" lon="3.00178">
        <ele>757.2</ele>
        <time>2026-04-30T09:00:34.000Z</time>
      </trkpt>
      <trkpt lat="43.96707" lon="3.00179">
        <ele>756.9</ele>
        <time>2026-04-30T09:00:35.000Z</time>
      </trkpt>
      <trkpt lat="43.96708" lon="3.0018">
        <ele>756.5</ele>
        <time>2026-04-30T09:00:36.000Z</time>
      </trkpt>
      <trkpt lat="43.96707" lon="3.00182">
        <ele>756.1</ele>
        <time>2026-04-30T09:00:37.000Z</time>
      </trkpt>
      <trkpt lat="43.96708" lon="3.00182">
        <ele>755.8</ele>
        <time>2026-04-30T09:00:38.000Z</time>
      </trkpt>
      <trkpt lat="43.96708" lon="3.00183">
        <ele>755.6</ele>
        <time>2026-04-30T09:00:39.000Z</time>
      </trkpt>
      <trkpt lat="43.96709" lon="3.00184">
        <ele>755.5</ele>
        <time>2026-04-30T09:00:40.000Z</time>
      </trkpt>
      <trkpt lat="43.96709" lon="3.00186">
        <ele>755.4</ele>
        <time>2026-04-30T09:00:41.000Z</time>
      </trkpt>
      <trkpt lat="43.96709" lon="3.00187">
        <ele>754.9</ele>
        <time>2026-04-30T09:00:42.000Z</time>
      </trkpt>
      <trkpt lat="43.9671" lon="3.00188">
        <ele>754.3</ele>
        <time>2026-04-30T09:00:43.000Z</time>
      </trkpt>
      <trkpt lat="43.96709" lon="3.00188">
        <ele>754</ele>
        <time>2026-04-30T09:00:44.000Z</time>
      </trkpt>
      <trkpt lat="43.96709" lon="3.00189">
        <ele>753.6</ele>
        <time>2026-04-30T09:00:45.000Z</time>
      </trkpt>
      <trkpt lat="43.96709" lon="3.0019">
        <ele>753.4</ele>
        <time>2026-04-30T09:00:46.000Z</time>
      </trkpt>
      <trkpt lat="43.96708" lon="3.00191">
        <ele>753.2</ele>
        <time>2026-04-30T09:00:47.000Z</time>
      </trkpt>
      <trkpt lat="43.96708" lon="3.00192">
        <ele>753.2</ele>
        <time>2026-04-30T09:00:48.000Z</time>
      </trkpt>
      <trkpt lat="43.96707" lon="3.00194">
        <ele>752.8</ele>
        <time>2026-04-30T09:00:49.000Z</time>
      </trkpt>
      <trkpt lat="43.96707" lon="3.00195">
        <ele>752.2</ele>
        <time>2026-04-30T09:00:50.000Z</time>
      </trkpt>
      <trkpt lat="43.96706" lon="3.00196">
        <ele>751.9</ele>
        <time>2026-04-30T09:00:51.000Z</time>
      </trkpt>
      <trkpt lat="43.96706" lon="3.00197">
        <ele>751.5</ele>
        <time>2026-04-30T09:00:52.000Z</time>
      </trkpt>
      <trkpt lat="43.96705" lon="3.00199">
        <ele>751.5</ele>
        <time>2026-04-30T09:00:53.000Z</time>
      </trkpt>
      <trkpt lat="43.96704" lon="3.002">
        <ele>751.4</ele>
        <time>2026-04-30T09:00:54.000Z</time>
      </trkpt>
      <trkpt lat="43.96704" lon="3.00201">
        <ele>750.8</ele>
        <time>2026-04-30T09:00:55.000Z</time>
      </trkpt>
      <trkpt lat="43.96704" lon="3.00202">
        <ele>750.6</ele>
        <time>2026-04-30T09:00:56.000Z</time>
      </trkpt>
      <trkpt lat="43.96703" lon="3.00203">
        <ele>750.6</ele>
        <time>2026-04-30T09:00:57.000Z</time>
      </trkpt>
      <trkpt lat="43.96702" lon="3.00203">
        <ele>750.2</ele>
        <time>2026-04-30T09:00:58.000Z</time>
      </trkpt>
      <trkpt lat="43.96701" lon="3.00205">
        <ele>750.2</ele>
        <time>2026-04-30T09:00:59.000Z</time>
      </trkpt>
      <trkpt lat="43.96699" lon="3.00207">
        <ele>749.8</ele>
        <time>2026-04-30T09:01:00.000Z</time>
      </trkpt>
      <trkpt lat="43.96698" lon="3.00208">
        <ele>749.5</ele>
        <time>2026-04-30T09:01:01.000Z</time>
      </trkpt>
      <trkpt lat="43.96698" lon="3.0021">
        <ele>749.4</ele>
        <time>2026-04-30T09:01:02.000Z</time>
      </trkpt>
      <trkpt lat="43.96698" lon="3.00211">
        <ele>749.5</ele>
        <time>2026-04-30T09:01:03.000Z</time>
      </trkpt>
      <trkpt lat="43.96698" lon="3.00213">
        <ele>749.4</ele>
        <time>2026-04-30T09:01:04.000Z</time>
      </trkpt>
      <trkpt lat="43.96698" lon="3.00215">
        <ele>749.6</ele>
        <time>2026-04-30T09:01:05.000Z</time>
      </trkpt>
      <trkpt lat="43.96698" lon="3.00217">
        <ele>749.5</ele>
        <time>2026-04-30T09:01:06.000Z</time>
      </trkpt>
      <trkpt lat="43.96698" lon="3.00219">
        <ele>749.2</ele>
        <time>2026-04-30T09:01:07.000Z</time>
      </trkpt>
      <trkpt lat="43.96698" lon="3.0022">
        <ele>749.2</ele>
        <time>2026-04-30T09:01:08.000Z</time>
      </trkpt>
      <trkpt lat="43.96697" lon="3.0022">
        <ele>748.9</ele>
        <time>2026-04-30T09:01:09.000Z</time>
      </trkpt>
      <trkpt lat="43.96696" lon="3.00221">
        <ele>748.5</ele>
        <time>2026-04-30T09:01:10.000Z</time>
      </trkpt>
      <trkpt lat="43.96696" lon="3.00222">
        <ele>748.4</ele>
        <time>2026-04-30T09:01:11.000Z</time>
      </trkpt>
      <trkpt lat="43.96695" lon="3.00224">
        <ele>748.5</ele>
        <time>2026-04-30T09:01:12.000Z</time>
      </trkpt>
      <trkpt lat="43.96694" lon="3.00228">
        <ele>748.6</ele>
        <time>2026-04-30T09:01:13.999Z</time>
      </trkpt>
      <trkpt lat="43.96694" lon="3.00229">
        <ele>748.5</ele>
        <time>2026-04-30T09:01:14.999Z</time>
      </trkpt>
      <trkpt lat="43.96694" lon="3.00229">
        <ele>748.5</ele>
        <time>2026-04-30T09:01:15.999Z</time>
      </trkpt>
      <trkpt lat="43.96694" lon="3.0023">
        <ele>748.5</ele>
        <time>2026-04-30T09:01:16.999Z</time>
      </trkpt>
      <trkpt lat="43.96693" lon="3.00231">
        <ele>748.6</ele>
        <time>2026-04-30T09:01:17.999Z</time>
      </trkpt>
      <trkpt lat="43.96693" lon="3.00233">
        <ele>748.4</ele>
        <time>2026-04-30T09:01:18.999Z</time>
      </trkpt>
      <trkpt lat="43.96692" lon="3.00234">
        <ele>748.5</ele>
        <time>2026-04-30T09:01:19.999Z</time>
      </trkpt>
      <trkpt lat="43.96692" lon="3.00235">
        <ele>748.3</ele>
        <time>2026-04-30T09:01:20.999Z</time>
      </trkpt>
      <trkpt lat="43.96691" lon="3.00236">
        <ele>748.1</ele>
        <time>2026-04-30T09:01:21.999Z</time>
      </trkpt>
      <trkpt lat="43.96692" lon="3.00237">
        <ele>748.3</ele>
        <time>2026-04-30T09:01:22.999Z</time>
      </trkpt>
      <trkpt lat="43.96692" lon="3.00238">
        <ele>747.9</ele>
        <time>2026-04-30T09:01:23.999Z</time>
      </trkpt>
      <trkpt lat="43.96693" lon="3.0024">
        <ele>747.4</ele>
        <time>2026-04-30T09:01:24.999Z</time>
      </trkpt>
      <trkpt lat="43.96693" lon="3.00241">
        <ele>747.1</ele>
        <time>2026-04-30T09:01:25.999Z</time>
      </trkpt>
      <trkpt lat="43.96693" lon="3.00243">
        <ele>747</ele>
        <time>2026-04-30T09:01:26.999Z</time>
      </trkpt>
      <trkpt lat="43.96694" lon="3.00244">
        <ele>747</ele>
        <time>2026-04-30T09:01:27.999Z</time>
      </trkpt>
      <trkpt lat="43.96694" lon="3.00244">
        <ele>746.8</ele>
        <time>2026-04-30T09:01:28.999Z</time>
      </trkpt>
      <trkpt lat="43.96694" lon="3.00245">
        <ele>746.4</ele>
        <time>2026-04-30T09:01:29.999Z</time>
      </trkpt>
      <trkpt lat="43.96694" lon="3.00247">
        <ele>746</ele>
        <time>2026-04-30T09:01:30.999Z</time>
      </trkpt>
      <trkpt lat="43.96694" lon="3.00248">
        <ele>745.7</ele>
        <time>2026-04-30T09:01:31.999Z</time>
      </trkpt>
      <trkpt lat="43.96694" lon="3.00249">
        <ele>745.5</ele>
        <time>2026-04-30T09:01:32.999Z</time>
      </trkpt>
      <trkpt lat="43.96693" lon="3.0025">
        <ele>745.2</ele>
        <time>2026-04-30T09:01:33.999Z</time>
      </trkpt>
      <trkpt lat="43.96692" lon="3.0025">
        <ele>744.8</ele>
        <time>2026-04-30T09:01:34.999Z</time>
      </trkpt>
      <trkpt lat="43.96691" lon="3.00251">
        <ele>744.3</ele>
        <time>2026-04-30T09:01:35.999Z</time>
      </trkpt>
      <trkpt lat="43.96691" lon="3.00252">
        <ele>744.1</ele>
        <time>2026-04-30T09:01:36.999Z</time>
      </trkpt>
      <trkpt lat="43.96691" lon="3.00253">
        <ele>743.8</ele>
        <time>2026-04-30T09:01:37.999Z</time>
      </trkpt>
      <trkpt lat="43.96691" lon="3.00254">
        <ele>743.6</ele>
        <time>2026-04-30T09:01:38.999Z</time>
      </trkpt>
      <trkpt lat="43.96692" lon="3.00255">
        <ele>743.2</ele>
        <time>2026-04-30T09:01:39.999Z</time>
      </trkpt>
      <trkpt lat="43.96692" lon="3.00256">
        <ele>743</ele>
        <time>2026-04-30T09:01:40.999Z</time>
      </trkpt>
      <trkpt lat="43.96692" lon="3.00257">
        <ele>742.8</ele>
        <time>2026-04-30T09:01:41.999Z</time>
      </trkpt>
      <trkpt lat="43.96692" lon="3.00258">
        <ele>742.5</ele>
        <time>2026-04-30T09:01:42.999Z</time>
      </trkpt>
      <trkpt lat="43.96692" lon="3.00259">
        <ele>741.7</ele>
        <time>2026-04-30T09:01:43.999Z</time>
      </trkpt>
      <trkpt lat="43.96691" lon="3.00259">
        <ele>741.1</ele>
        <time>2026-04-30T09:01:44.999Z</time>
      </trkpt>
      <trkpt lat="43.96691" lon="3.00261">
        <ele>741</ele>
        <time>2026-04-30T09:01:45.999Z</time>
      </trkpt>
      <trkpt lat="43.96692" lon="3.00263">
        <ele>740.6</ele>
        <time>2026-04-30T09:01:46.999Z</time>
      </trkpt>
      <trkpt lat="43.96692" lon="3.00264">
        <ele>740.1</ele>
        <time>2026-04-30T09:01:47.999Z</time>
      </trkpt>
      <trkpt lat="43.96692" lon="3.00266">
        <ele>739.8</ele>
        <time>2026-04-30T09:01:48.999Z</time>
      </trkpt>
      <trkpt lat="43.96693" lon="3.00269">
        <ele>739.5</ele>
        <time>2026-04-30T09:01:49.999Z</time>
      </trkpt>
      <trkpt lat="43.96693" lon="3.0027">
        <ele>739.3</ele>
        <time>2026-04-30T09:01:50.999Z</time>
      </trkpt>
      <trkpt lat="43.96693" lon="3.00271">
        <ele>739.1</ele>
        <time>2026-04-30T09:01:51.999Z</time>
      </trkpt>
      <trkpt lat="43.96693" lon="3.00273">
        <ele>738.9</ele>
        <time>2026-04-30T09:01:52.999Z</time>
      </trkpt>
      <trkpt lat="43.96694" lon="3.00274">
        <ele>739.1</ele>
        <time>2026-04-30T09:01:53.999Z</time>
      </trkpt>
      <trkpt lat="43.96694" lon="3.00275">
        <ele>739.2</ele>
        <time>2026-04-30T09:01:54.999Z</time>
      </trkpt>
      <trkpt lat="43.96695" lon="3.00276">
        <ele>738.9</ele>
        <time>2026-04-30T09:01:55.999Z</time>
      </trkpt>
      <trkpt lat="43.96696" lon="3.00277">
        <ele>738.5</ele>
        <time>2026-04-30T09:01:56.999Z</time>
      </trkpt>
      <trkpt lat="43.96697" lon="3.00277">
        <ele>738.3</ele>
        <time>2026-04-30T09:01:57.999Z</time>
      </trkpt>
      <trkpt lat="43.96697" lon="3.00278">
        <ele>738.1</ele>
        <time>2026-04-30T09:01:58.999Z</time>
      </trkpt>
      <trkpt lat="43.96697" lon="3.00278">
        <ele>737.9</ele>
        <time>2026-04-30T09:01:59.999Z</time>
      </trkpt>
      <trkpt lat="43.96698" lon="3.00279">
        <ele>737.4</ele>
        <time>2026-04-30T09:02:00.999Z</time>
      </trkpt>
      <trkpt lat="43.96698" lon="3.0028">
        <ele>737</ele>
        <time>2026-04-30T09:02:01.999Z</time>
      </trkpt>
      <trkpt lat="43.96698" lon="3.00282">
        <ele>736.7</ele>
        <time>2026-04-30T09:02:02.999Z</time>
      </trkpt>
      <trkpt lat="43.96699" lon="3.00283">
        <ele>736.7</ele>
        <time>2026-04-30T09:02:03.999Z</time>
      </trkpt>
      <trkpt lat="43.96699" lon="3.00284">
        <ele>736.6</ele>
        <time>2026-04-30T09:02:04.999Z</time>
      </trkpt>
      <trkpt lat="43.967" lon="3.00284">
        <ele>736.5</ele>
        <time>2026-04-30T09:02:05.999Z</time>
      </trkpt>
      <trkpt lat="43.96702" lon="3.00285">
        <ele>736.2</ele>
        <time>2026-04-30T09:02:06.999Z</time>
      </trkpt>
      <trkpt lat="43.96703" lon="3.00286">
        <ele>735.8</ele>
        <time>2026-04-30T09:02:07.999Z</time>
      </trkpt>
      <trkpt lat="43.96705" lon="3.00287">
        <ele>735.7</ele>
        <time>2026-04-30T09:02:08.999Z</time>
      </trkpt>
      <trkpt lat="43.96706" lon="3.00287">
        <ele>735.6</ele>
        <time>2026-04-30T09:02:09.999Z</time>
      </trkpt>
      <trkpt lat="43.96707" lon="3.00288">
        <ele>735.4</ele>
        <time>2026-04-30T09:02:10.999Z</time>
      </trkpt>
      <trkpt lat="43.96707" lon="3.00287">
        <ele>735.1</ele>
        <time>2026-04-30T09:02:11.999Z</time>
      </trkpt>
      <trkpt lat="43.96707" lon="3.00288">
        <ele>734.9</ele>
        <time>2026-04-30T09:02:12.999Z</time>
      </trkpt>
      <trkpt lat="43.96708" lon="3.00289">
        <ele>734.8</ele>
        <time>2026-04-30T09:02:13.999Z</time>
      </trkpt>
      <trkpt lat="43.96709" lon="3.00289">
        <ele>734.6</ele>
        <time>2026-04-30T09:02:14.999Z</time>
      </trkpt>
      <trkpt lat="43.9671" lon="3.0029">
        <ele>734.4</ele>
        <time>2026-04-30T09:02:15.999Z</time>
      </trkpt>
      <trkpt lat="43.96712" lon="3.0029">
        <ele>734.2</ele>
        <time>2026-04-30T09:02:16.999Z</time>
      </trkpt>
      <trkpt lat="43.96713" lon="3.00291">
        <ele>734.1</ele>
        <time>2026-04-30T09:02:17.999Z</time>
      </trkpt>
      <trkpt lat="43.96714" lon="3.0029">
        <ele>734</ele>
        <time>2026-04-30T09:02:18.999Z</time>
      </trkpt>
      <trkpt lat="43.96715" lon="3.00291">
        <ele>734.3</ele>
        <time>2026-04-30T09:02:19.999Z</time>
      </trkpt>
      <trkpt lat="43.96715" lon="3.00292">
        <ele>734.2</ele>
        <time>2026-04-30T09:02:20.999Z</time>
      </trkpt>
      <trkpt lat="43.96716" lon="3.00293">
        <ele>733.8</ele>
        <time>2026-04-30T09:02:21.999Z</time>
      </trkpt>
      <trkpt lat="43.96716" lon="3.00295">
        <ele>733.4</ele>
        <time>2026-04-30T09:02:22.999Z</time>
      </trkpt>
      <trkpt lat="43.96717" lon="3.00296">
        <ele>733.1</ele>
        <time>2026-04-30T09:02:23.999Z</time>
      </trkpt>
      <trkpt lat="43.96717" lon="3.00297">
        <ele>732.9</ele>
        <time>2026-04-30T09:02:24.999Z</time>
      </trkpt>
      <trkpt lat="43.96718" lon="3.00299">
        <ele>732.8</ele>
        <time>2026-04-30T09:02:25.999Z</time>
      </trkpt>
      <trkpt lat="43.96718" lon="3.00301">
        <ele>732.8</ele>
        <time>2026-04-30T09:02:26.999Z</time>
      </trkpt>
      <trkpt lat="43.96718" lon="3.00302">
        <ele>732.9</ele>
        <time>2026-04-30T09:02:27.999Z</time>
      </trkpt>
      <trkpt lat="43.96718" lon="3.00303">
        <ele>733.1</ele>
        <time>2026-04-30T09:02:28.999Z</time>
      </trkpt>
      <trkpt lat="43.96719" lon="3.00305">
        <ele>732.9</ele>
        <time>2026-04-30T09:02:29.999Z</time>
      </trkpt>
      <trkpt lat="43.9672" lon="3.00306">
        <ele>733</ele>
        <time>2026-04-30T09:02:30.999Z</time>
      </trkpt>
      <trkpt lat="43.9672" lon="3.00307">
        <ele>732.9</ele>
        <time>2026-04-30T09:02:31.999Z</time>
      </trkpt>
      <trkpt lat="43.9672" lon="3.00308">
        <ele>732.7</ele>
        <time>2026-04-30T09:02:32.999Z</time>
      </trkpt>
      <trkpt lat="43.9672" lon="3.00309">
        <ele>732.7</ele>
        <time>2026-04-30T09:02:33.999Z</time>
      </trkpt>
      <trkpt lat="43.9672" lon="3.00311">
        <ele>732.7</ele>
        <time>2026-04-30T09:02:34.999Z</time>
      </trkpt>
      <trkpt lat="43.96721" lon="3.00312">
        <ele>732.6</ele>
        <time>2026-04-30T09:02:35.999Z</time>
      </trkpt>
      <trkpt lat="43.96722" lon="3.00313">
        <ele>732.5</ele>
        <time>2026-04-30T09:02:36.999Z</time>
      </trkpt>
      <trkpt lat="43.96723" lon="3.00314">
        <ele>732.4</ele>
        <time>2026-04-30T09:02:37.999Z</time>
      </trkpt>
      <trkpt lat="43.96724" lon="3.00315">
        <ele>732.1</ele>
        <time>2026-04-30T09:02:38.999Z</time>
      </trkpt>
      <trkpt lat="43.96725" lon="3.00315">
        <ele>731.8</ele>
        <time>2026-04-30T09:02:39.999Z</time>
      </trkpt>
      <trkpt lat="43.96726" lon="3.00316">
        <ele>731.2</ele>
        <time>2026-04-30T09:02:40.999Z</time>
      </trkpt>
      <trkpt lat="43.96727" lon="3.00317">
        <ele>730.4</ele>
        <time>2026-04-30T09:02:41.999Z</time>
      </trkpt>
      <trkpt lat="43.96727" lon="3.00318">
        <ele>730.1</ele>
        <time>2026-04-30T09:02:42.999Z</time>
      </trkpt>
      <trkpt lat="43.96728" lon="3.00319">
        <ele>729.9</ele>
        <time>2026-04-30T09:02:43.999Z</time>
      </trkpt>
      <trkpt lat="43.96729" lon="3.0032">
        <ele>729.6</ele>
        <time>2026-04-30T09:02:44.999Z</time>
      </trkpt>
      <trkpt lat="43.96729" lon="3.00321">
        <ele>729.3</ele>
        <time>2026-04-30T09:02:45.999Z</time>
      </trkpt>
      <trkpt lat="43.9673" lon="3.00322">
        <ele>729</ele>
        <time>2026-04-30T09:02:46.999Z</time>
      </trkpt>
      <trkpt lat="43.9673" lon="3.00324">
        <ele>728.6</ele>
        <time>2026-04-30T09:02:47.999Z</time>
      </trkpt>
      <trkpt lat="43.96731" lon="3.00325">
        <ele>728.1</ele>
        <time>2026-04-30T09:02:48.999Z</time>
      </trkpt>
      <trkpt lat="43.96731" lon="3.00326">
        <ele>727.7</ele>
        <time>2026-04-30T09:02:49.999Z</time>
      </trkpt>
      <trkpt lat="43.96732" lon="3.00328">
        <ele>727.5</ele>
        <time>2026-04-30T09:02:50.999Z</time>
      </trkpt>
      <trkpt lat="43.96732" lon="3.00329">
        <ele>727.6</ele>
        <time>2026-04-30T09:02:51.999Z</time>
      </trkpt>
      <trkpt lat="43.96733" lon="3.00331">
        <ele>727.3</ele>
        <time>2026-04-30T09:02:52.999Z</time>
      </trkpt>
      <trkpt lat="43.96734" lon="3.00331">
        <ele>727.3</ele>
        <time>2026-04-30T09:02:53.999Z</time>
      </trkpt>
      <trkpt lat="43.96735" lon="3.00333">
        <ele>727</ele>
        <time>2026-04-30T09:02:54.999Z</time>
      </trkpt>
      <trkpt lat="43.96736" lon="3.00333">
        <ele>726.9</ele>
        <time>2026-04-30T09:02:55.999Z</time>
      </trkpt>
      <trkpt lat="43.96737" lon="3.00334">
        <ele>726.9</ele>
        <time>2026-04-30T09:02:56.999Z</time>
      </trkpt>
      <trkpt lat="43.96738" lon="3.00334">
        <ele>726.6</ele>
        <time>2026-04-30T09:02:57.999Z</time>
      </trkpt>
      <trkpt lat="43.96739" lon="3.00334">
        <ele>726.4</ele>
        <time>2026-04-30T09:02:58.999Z</time>
      </trkpt>
      <trkpt lat="43.9674" lon="3.00334">
        <ele>726.2</ele>
        <time>2026-04-30T09:02:59.999Z</time>
      </trkpt>
      <trkpt lat="43.96741" lon="3.00335">
        <ele>725.8</ele>
        <time>2026-04-30T09:03:00.999Z</time>
      </trkpt>
      <trkpt lat="43.96743" lon="3.00336">
        <ele>725.7</ele>
        <time>2026-04-30T09:03:01.999Z</time>
      </trkpt>
      <trkpt lat="43.96743" lon="3.00336">
        <ele>725.6</ele>
        <time>2026-04-30T09:03:02.999Z</time>
      </trkpt>
      <trkpt lat="43.96744" lon="3.00337">
        <ele>725.4</ele>
        <time>2026-04-30T09:03:03.999Z</time>
      </trkpt>
      <trkpt lat="43.96745" lon="3.00337">
        <ele>724.9</ele>
        <time>2026-04-30T09:03:04.999Z</time>
      </trkpt>
      <trkpt lat="43.96746" lon="3.00338">
        <ele>724.7</ele>
        <time>2026-04-30T09:03:05.999Z</time>
      </trkpt>
      <trkpt lat="43.96747" lon="3.00337">
        <ele>724.6</ele>
        <time>2026-04-30T09:03:06.999Z</time>
      </trkpt>
      <trkpt lat="43.96747" lon="3.00337">
        <ele>724.5</ele>
        <time>2026-04-30T09:03:07.999Z</time>
      </trkpt>
      <trkpt lat="43.96748" lon="3.00338">
        <ele>724.2</ele>
        <time>2026-04-30T09:03:08.999Z</time>
      </trkpt>
      <trkpt lat="43.96749" lon="3.00338">
        <ele>724</ele>
        <time>2026-04-30T09:03:09.999Z</time>
      </trkpt>
      <trkpt lat="43.9675" lon="3.00337">
        <ele>724</ele>
        <time>2026-04-30T09:03:10.999Z</time>
      </trkpt>
      <trkpt lat="43.9675" lon="3.00338">
        <ele>723.9</ele>
        <time>2026-04-30T09:03:11.999Z</time>
      </trkpt>
      <trkpt lat="43.96749" lon="3.00339">
        <ele>723.6</ele>
        <time>2026-04-30T09:03:12.999Z</time>
      </trkpt>
      <trkpt lat="43.96749" lon="3.00341">
        <ele>723.5</ele>
        <time>2026-04-30T09:03:13.999Z</time>
      </trkpt>
      <trkpt lat="43.96748" lon="3.00343">
        <ele>723.4</ele>
        <time>2026-04-30T09:03:14.999Z</time>
      </trkpt>
      <trkpt lat="43.96748" lon="3.00344">
        <ele>722.7</ele>
        <time>2026-04-30T09:03:15.999Z</time>
      </trkpt>
      <trkpt lat="43.96748" lon="3.00346">
        <ele>722.2</ele>
        <time>2026-04-30T09:03:16.999Z</time>
      </trkpt>
      <trkpt lat="43.96747" lon="3.00347">
        <ele>721.9</ele>
        <time>2026-04-30T09:03:17.999Z</time>
      </trkpt>
      <trkpt lat="43.96747" lon="3.00348">
        <ele>721.3</ele>
        <time>2026-04-30T09:03:18.999Z</time>
      </trkpt>
      <trkpt lat="43.96746" lon="3.00348">
        <ele>721</ele>
        <time>2026-04-30T09:03:19.999Z</time>
      </trkpt>
      <trkpt lat="43.96745" lon="3.00348">
        <ele>720.9</ele>
        <time>2026-04-30T09:03:20.999Z</time>
      </trkpt>
      <trkpt lat="43.96745" lon="3.00348">
        <ele>720.7</ele>
        <time>2026-04-30T09:03:21.999Z</time>
      </trkpt>
      <trkpt lat="43.96744" lon="3.00348">
        <ele>720.4</ele>
        <time>2026-04-30T09:03:22.999Z</time>
      </trkpt>
      <trkpt lat="43.96744" lon="3.00348">
        <ele>720.5</ele>
        <time>2026-04-30T09:03:23.999Z</time>
      </trkpt>
      <trkpt lat="43.96743" lon="3.00348">
        <ele>720.5</ele>
        <time>2026-04-30T09:03:24.999Z</time>
      </trkpt>
      <trkpt lat="43.96742" lon="3.00349">
        <ele>720.8</ele>
        <time>2026-04-30T09:03:25.999Z</time>
      </trkpt>
      <trkpt lat="43.96741" lon="3.0035">
        <ele>720.7</ele>
        <time>2026-04-30T09:03:26.999Z</time>
      </trkpt>
      <trkpt lat="43.96741" lon="3.0035">
        <ele>720.7</ele>
        <time>2026-04-30T09:03:27.999Z</time>
      </trkpt>
      <trkpt lat="43.9674" lon="3.0035">
        <ele>721.1</ele>
        <time>2026-04-30T09:03:28.999Z</time>
      </trkpt>
      <trkpt lat="43.9674" lon="3.00352">
        <ele>721.2</ele>
        <time>2026-04-30T09:03:29.999Z</time>
      </trkpt>
      <trkpt lat="43.9674" lon="3.00353">
        <ele>720.9</ele>
        <time>2026-04-30T09:03:30.999Z</time>
      </trkpt>
      <trkpt lat="43.9674" lon="3.00354">
        <ele>720.8</ele>
        <time>2026-04-30T09:03:31.999Z</time>
      </trkpt>
      <trkpt lat="43.96738" lon="3.00354">
        <ele>720.5</ele>
        <time>2026-04-30T09:03:32.999Z</time>
      </trkpt>
      <trkpt lat="43.96738" lon="3.00354">
        <ele>720.7</ele>
        <time>2026-04-30T09:03:33.999Z</time>
      </trkpt>
      <trkpt lat="43.96738" lon="3.00355">
        <ele>721.2</ele>
        <time>2026-04-30T09:03:34.999Z</time>
      </trkpt>
      <trkpt lat="43.96738" lon="3.00355">
        <ele>721.5</ele>
        <time>2026-04-30T09:03:35.999Z</time>
      </trkpt>
      <trkpt lat="43.96738" lon="3.00354">
        <ele>721.6</ele>
        <time>2026-04-30T09:03:36.999Z</time>
      </trkpt>
      <trkpt lat="43.96738" lon="3.00354">
        <ele>721.5</ele>
        <time>2026-04-30T09:03:37.999Z</time>
      </trkpt>
      <trkpt lat="43.96738" lon="3.00354">
        <ele>721.5</ele>
        <time>2026-04-30T09:03:38.999Z</time>
      </trkpt>
      <trkpt lat="43.96738" lon="3.00354">
        <ele>721.6</ele>
        <time>2026-04-30T09:03:39.999Z</time>
      </trkpt>
      <trkpt lat="43.96738" lon="3.00354">
        <ele>721.5</ele>
        <time>2026-04-30T09:03:40.999Z</time>
      </trkpt>
      <trkpt lat="43.96738" lon="3.00354">
        <ele>721.5</ele>
        <time>2026-04-30T09:03:41.999Z</time>
      </trkpt>
      <trkpt lat="43.96738" lon="3.00354">
        <ele>721.6</ele>
        <time>2026-04-30T09:03:42.999Z</time>
      </trkpt>
      <trkpt lat="43.96737" lon="3.00354">
        <ele>721.7</ele>
        <time>2026-04-30T09:03:43.999Z</time>
      </trkpt>
      <trkpt lat="43.96737" lon="3.00354">
        <ele>721.8</ele>
        <time>2026-04-30T09:03:44.999Z</time>
      </trkpt>
      <trkpt lat="43.96737" lon="3.00355">
        <ele>721.9</ele>
        <time>2026-04-30T09:03:45.999Z</time>
      </trkpt>
      <trkpt lat="43.96737" lon="3.00355">
        <ele>721.7</ele>
        <time>2026-04-30T09:03:46.999Z</time>
      </trkpt>
      <trkpt lat="43.96737" lon="3.00355">
        <ele>721.8</ele>
        <time>2026-04-30T09:03:47.999Z</time>
      </trkpt>
      <trkpt lat="43.96737" lon="3.00355">
        <ele>721.7</ele>
        <time>2026-04-30T09:03:48.999Z</time>
      </trkpt>
      <trkpt lat="43.96737" lon="3.00356">
        <ele>721.7</ele>
        <time>2026-04-30T09:03:49.999Z</time>
      </trkpt>
      <trkpt lat="43.96736" lon="3.00356">
        <ele>721.7</ele>
        <time>2026-04-30T09:03:50.999Z</time>
      </trkpt>
      <trkpt lat="43.96736" lon="3.00357">
        <ele>721.6</ele>
        <time>2026-04-30T09:03:51.999Z</time>
      </trkpt>
      <trkpt lat="43.96735" lon="3.00359">
        <ele>721.6</ele>
        <time>2026-04-30T09:03:52.999Z</time>
      </trkpt>
      <trkpt lat="43.96734" lon="3.00362">
        <ele>721.4</ele>
        <time>2026-04-30T09:03:53.999Z</time>
      </trkpt>
      <trkpt lat="43.96733" lon="3.00363">
        <ele>721.4</ele>
        <time>2026-04-30T09:03:54.999Z</time>
      </trkpt>
      <trkpt lat="43.96732" lon="3.00365">
        <ele>721.5</ele>
        <time>2026-04-30T09:03:55.999Z</time>
      </trkpt>
      <trkpt lat="43.96731" lon="3.00367">
        <ele>721.9</ele>
        <time>2026-04-30T09:03:56.999Z</time>
      </trkpt>
      <trkpt lat="43.9673" lon="3.00368">
        <ele>722.1</ele>
        <time>2026-04-30T09:03:57.999Z</time>
      </trkpt>
      <trkpt lat="43.96729" lon="3.00369">
        <ele>722.1</ele>
        <time>2026-04-30T09:03:58.999Z</time>
      </trkpt>
      <trkpt lat="43.96729" lon="3.0037">
        <ele>722</ele>
        <time>2026-04-30T09:03:59.999Z</time>
      </trkpt>
      <trkpt lat="43.96729" lon="3.00372">
        <ele>722</ele>
        <time>2026-04-30T09:04:00.999Z</time>
      </trkpt>
      <trkpt lat="43.96729" lon="3.00373">
        <ele>721.9</ele>
        <time>2026-04-30T09:04:01.999Z</time>
      </trkpt>
      <trkpt lat="43.96729" lon="3.00374">
        <ele>721.7</ele>
        <time>2026-04-30T09:04:02.999Z</time>
      </trkpt>
      <trkpt lat="43.96729" lon="3.00375">
        <ele>721.6</ele>
        <time>2026-04-30T09:04:03.999Z</time>
      </trkpt>
      <trkpt lat="43.9673" lon="3.00376">
        <ele>721.6</ele>
        <time>2026-04-30T09:04:04.999Z</time>
      </trkpt>
      <trkpt lat="43.9673" lon="3.00378">
        <ele>721.4</ele>
        <time>2026-04-30T09:04:05.999Z</time>
      </trkpt>
      <trkpt lat="43.9673" lon="3.00379">
        <ele>721.1</ele>
        <time>2026-04-30T09:04:06.999Z</time>
      </trkpt>
      <trkpt lat="43.96731" lon="3.00379">
        <ele>721</ele>
        <time>2026-04-30T09:04:07.999Z</time>
      </trkpt>
      <trkpt lat="43.96731" lon="3.0038">
        <ele>720.8</ele>
        <time>2026-04-30T09:04:08.999Z</time>
      </trkpt>
      <trkpt lat="43.96732" lon="3.00382">
        <ele>720.4</ele>
        <time>2026-04-30T09:04:09.999Z</time>
      </trkpt>
      <trkpt lat="43.96732" lon="3.00384">
        <ele>719.9</ele>
        <time>2026-04-30T09:04:10.999Z</time>
      </trkpt>
      <trkpt lat="43.96732" lon="3.00385">
        <ele>719.5</ele>
        <time>2026-04-30T09:04:11.999Z</time>
      </trkpt>
      <trkpt lat="43.96733" lon="3.00386">
        <ele>719.2</ele>
        <time>2026-04-30T09:04:12.999Z</time>
      </trkpt>
      <trkpt lat="43.96733" lon="3.00387">
        <ele>718.9</ele>
        <time>2026-04-30T09:04:13.999Z</time>
      </trkpt>
      <trkpt lat="43.96733" lon="3.00388">
        <ele>718.4</ele>
        <time>2026-04-30T09:04:14.999Z</time>
      </trkpt>
      <trkpt lat="43.96734" lon="3.00389">
        <ele>718</ele>
        <time>2026-04-30T09:04:15.999Z</time>
      </trkpt>
      <trkpt lat="43.96734" lon="3.00391">
        <ele>717.9</ele>
        <time>2026-04-30T09:04:16.999Z</time>
      </trkpt>
      <trkpt lat="43.96735" lon="3.00391">
        <ele>717.6</ele>
        <time>2026-04-30T09:04:17.999Z</time>
      </trkpt>
      <trkpt lat="43.96735" lon="3.00392">
        <ele>717.5</ele>
        <time>2026-04-30T09:04:18.999Z</time>
      </trkpt>
      <trkpt lat="43.96735" lon="3.00394">
        <ele>717.6</ele>
        <time>2026-04-30T09:04:19.999Z</time>
      </trkpt>
      <trkpt lat="43.96735" lon="3.00395">
        <ele>717.5</ele>
        <time>2026-04-30T09:04:20.999Z</time>
      </trkpt>
      <trkpt lat="43.96735" lon="3.00396">
        <ele>717.2</ele>
        <time>2026-04-30T09:04:21.999Z</time>
      </trkpt>
      <trkpt lat="43.96735" lon="3.00397">
        <ele>716.8</ele>
        <time>2026-04-30T09:04:22.999Z</time>
      </trkpt>
      <trkpt lat="43.96735" lon="3.00399">
        <ele>716.6</ele>
        <time>2026-04-30T09:04:23.999Z</time>
      </trkpt>
      <trkpt lat="43.96735" lon="3.00401">
        <ele>716.4</ele>
        <time>2026-04-30T09:04:24.999Z</time>
      </trkpt>
      <trkpt lat="43.96736" lon="3.00402">
        <ele>715.9</ele>
        <time>2026-04-30T09:04:25.999Z</time>
      </trkpt>
      <trkpt lat="43.96737" lon="3.00404">
        <ele>715.8</ele>
        <time>2026-04-30T09:04:26.999Z</time>
      </trkpt>
      <trkpt lat="43.96737" lon="3.00406">
        <ele>715.5</ele>
        <time>2026-04-30T09:04:27.999Z</time>
      </trkpt>
      <trkpt lat="43.96738" lon="3.00407">
        <ele>714.9</ele>
        <time>2026-04-30T09:04:28.999Z</time>
      </trkpt>
      <trkpt lat="43.96738" lon="3.00408">
        <ele>714.6</ele>
        <time>2026-04-30T09:04:29.999Z</time>
      </trkpt>
      <trkpt lat="43.96739" lon="3.00409">
        <ele>714.1</ele>
        <time>2026-04-30T09:04:30.999Z</time>
      </trkpt>
      <trkpt lat="43.96739" lon="3.0041">
        <ele>713.8</ele>
        <time>2026-04-30T09:04:31.999Z</time>
      </trkpt>
      <trkpt lat="43.9674" lon="3.00411">
        <ele>713.5</ele>
        <time>2026-04-30T09:04:32.999Z</time>
      </trkpt>
      <trkpt lat="43.96741" lon="3.00412">
        <ele>713.3</ele>
        <time>2026-04-30T09:04:33.999Z</time>
      </trkpt>
      <trkpt lat="43.96741" lon="3.00413">
        <ele>713.1</ele>
        <time>2026-04-30T09:04:34.999Z</time>
      </trkpt>
      <trkpt lat="43.96742" lon="3.00413">
        <ele>713</ele>
        <time>2026-04-30T09:04:35.999Z</time>
      </trkpt>
      <trkpt lat="43.96743" lon="3.00414">
        <ele>712.7</ele>
        <time>2026-04-30T09:04:36.999Z</time>
      </trkpt>
      <trkpt lat="43.96744" lon="3.00416">
        <ele>712.1</ele>
        <time>2026-04-30T09:04:37.999Z</time>
      </trkpt>
      <trkpt lat="43.96745" lon="3.00417">
        <ele>711.8</ele>
        <time>2026-04-30T09:04:38.999Z</time>
      </trkpt>
      <trkpt lat="43.96745" lon="3.00418">
        <ele>711.5</ele>
        <time>2026-04-30T09:04:39.999Z</time>
      </trkpt>
      <trkpt lat="43.96745" lon="3.00419">
        <ele>711.5</ele>
        <time>2026-04-30T09:04:40.999Z</time>
      </trkpt>
      <trkpt lat="43.96746" lon="3.0042">
        <ele>711.4</ele>
        <time>2026-04-30T09:04:41.999Z</time>
      </trkpt>
      <trkpt lat="43.96747" lon="3.0042">
        <ele>711.4</ele>
        <time>2026-04-30T09:04:42.999Z</time>
      </trkpt>
      <trkpt lat="43.96748" lon="3.00422">
        <ele>711.3</ele>
        <time>2026-04-30T09:04:43.999Z</time>
      </trkpt>
      <trkpt lat="43.9675" lon="3.00423">
        <ele>711.1</ele>
        <time>2026-04-30T09:04:44.999Z</time>
      </trkpt>
      <trkpt lat="43.96751" lon="3.00424">
        <ele>710.6</ele>
        <time>2026-04-30T09:04:45.999Z</time>
      </trkpt>
      <trkpt lat="43.96751" lon="3.00426">
        <ele>710.3</ele>
        <time>2026-04-30T09:04:46.999Z</time>
      </trkpt>
      <trkpt lat="43.96752" lon="3.00427">
        <ele>710.2</ele>
        <time>2026-04-30T09:04:47.999Z</time>
      </trkpt>
      <trkpt lat="43.96753" lon="3.00428">
        <ele>709.9</ele>
        <time>2026-04-30T09:04:48.999Z</time>
      </trkpt>
      <trkpt lat="43.96753" lon="3.00429">
        <ele>709.4</ele>
        <time>2026-04-30T09:04:49.999Z</time>
      </trkpt>
      <trkpt lat="43.96753" lon="3.0043">
        <ele>709.1</ele>
        <time>2026-04-30T09:04:50.999Z</time>
      </trkpt>
      <trkpt lat="43.96754" lon="3.00431">
        <ele>708.6</ele>
        <time>2026-04-30T09:04:51.999Z</time>
      </trkpt>
      <trkpt lat="43.96755" lon="3.00432">
        <ele>708.5</ele>
        <time>2026-04-30T09:04:52.999Z</time>
      </trkpt>
      <trkpt lat="43.96756" lon="3.00434">
        <ele>708.8</ele>
        <time>2026-04-30T09:04:53.999Z</time>
      </trkpt>
      <trkpt lat="43.96757" lon="3.00436">
        <ele>708.9</ele>
        <time>2026-04-30T09:04:54.999Z</time>
      </trkpt>
      <trkpt lat="43.96757" lon="3.00437">
        <ele>708.6</ele>
        <time>2026-04-30T09:04:55.999Z</time>
      </trkpt>
      <trkpt lat="43.96758" lon="3.00439">
        <ele>708.3</ele>
        <time>2026-04-30T09:04:56.999Z</time>
      </trkpt>
      <trkpt lat="43.96758" lon="3.00441">
        <ele>707.8</ele>
        <time>2026-04-30T09:04:57.999Z</time>
      </trkpt>
      <trkpt lat="43.96758" lon="3.00442">
        <ele>707.6</ele>
        <time>2026-04-30T09:04:58.999Z</time>
      </trkpt>
      <trkpt lat="43.96758" lon="3.00443">
        <ele>707.8</ele>
        <time>2026-04-30T09:04:59.999Z</time>
      </trkpt>
      <trkpt lat="43.96759" lon="3.00445">
        <ele>708.1</ele>
        <time>2026-04-30T09:05:00.999Z</time>
      </trkpt>
      <trkpt lat="43.96759" lon="3.00446">
        <ele>707.9</ele>
        <time>2026-04-30T09:05:01.999Z</time>
      </trkpt>
      <trkpt lat="43.96759" lon="3.00448">
        <ele>707.6</ele>
        <time>2026-04-30T09:05:02.999Z</time>
      </trkpt>
      <trkpt lat="43.9676" lon="3.0045">
        <ele>707.6</ele>
        <time>2026-04-30T09:05:03.999Z</time>
      </trkpt>
      <trkpt lat="43.9676" lon="3.00452">
        <ele>707.8</ele>
        <time>2026-04-30T09:05:04.999Z</time>
      </trkpt>
      <trkpt lat="43.96761" lon="3.00454">
        <ele>707.9</ele>
        <time>2026-04-30T09:05:05.999Z</time>
      </trkpt>
      <trkpt lat="43.96762" lon="3.00455">
        <ele>707.7</ele>
        <time>2026-04-30T09:05:06.999Z</time>
      </trkpt>
      <trkpt lat="43.96763" lon="3.00456">
        <ele>707.5</ele>
        <time>2026-04-30T09:05:07.999Z</time>
      </trkpt>
      <trkpt lat="43.96764" lon="3.00457">
        <ele>707.5</ele>
        <time>2026-04-30T09:05:08.999Z</time>
      </trkpt>
      <trkpt lat="43.96765" lon="3.00458">
        <ele>707.3</ele>
        <time>2026-04-30T09:05:09.999Z</time>
      </trkpt>
      <trkpt lat="43.96766" lon="3.00458">
        <ele>707</ele>
        <time>2026-04-30T09:05:10.999Z</time>
      </trkpt>
      <trkpt lat="43.96767" lon="3.0046">
        <ele>706.5</ele>
        <time>2026-04-30T09:05:11.999Z</time>
      </trkpt>
      <trkpt lat="43.96769" lon="3.00461">
        <ele>706.1</ele>
        <time>2026-04-30T09:05:12.999Z</time>
      </trkpt>
      <trkpt lat="43.9677" lon="3.00463">
        <ele>705.9</ele>
        <time>2026-04-30T09:05:13.999Z</time>
      </trkpt>
      <trkpt lat="43.9677" lon="3.00464">
        <ele>705.6</ele>
        <time>2026-04-30T09:05:14.999Z</time>
      </trkpt>
      <trkpt lat="43.96771" lon="3.00465">
        <ele>705.6</ele>
        <time>2026-04-30T09:05:15.999Z</time>
      </trkpt>
      <trkpt lat="43.96771" lon="3.00466">
        <ele>705.9</ele>
        <time>2026-04-30T09:05:16.999Z</time>
      </trkpt>
      <trkpt lat="43.96772" lon="3.00467">
        <ele>705.9</ele>
        <time>2026-04-30T09:05:17.999Z</time>
      </trkpt>
      <trkpt lat="43.96772" lon="3.00468">
        <ele>705.9</ele>
        <time>2026-04-30T09:05:18.999Z</time>
      </trkpt>
      <trkpt lat="43.96772" lon="3.00469">
        <ele>705.5</ele>
        <time>2026-04-30T09:05:19.999Z</time>
      </trkpt>
      <trkpt lat="43.96772" lon="3.0047">
        <ele>705.5</ele>
        <time>2026-04-30T09:05:20.999Z</time>
      </trkpt>
      <trkpt lat="43.96772" lon="3.00471">
        <ele>706</ele>
        <time>2026-04-30T09:05:21.999Z</time>
      </trkpt>
      <trkpt lat="43.96773" lon="3.00472">
        <ele>705.6</ele>
        <time>2026-04-30T09:05:22.999Z</time>
      </trkpt>
      <trkpt lat="43.96774" lon="3.00473">
        <ele>705</ele>
        <time>2026-04-30T09:05:23.999Z</time>
      </trkpt>
      <trkpt lat="43.96774" lon="3.00474">
        <ele>704.5</ele>
        <time>2026-04-30T09:05:24.999Z</time>
      </trkpt>
      <trkpt lat="43.96774" lon="3.00475">
        <ele>704.3</ele>
        <time>2026-04-30T09:05:25.999Z</time>
      </trkpt>
      <trkpt lat="43.96774" lon="3.00477">
        <ele>704.3</ele>
        <time>2026-04-30T09:05:26.999Z</time>
      </trkpt>
      <trkpt lat="43.96774" lon="3.00478">
        <ele>704.3</ele>
        <time>2026-04-30T09:05:27.999Z</time>
      </trkpt>
      <trkpt lat="43.96774" lon="3.00478">
        <ele>704.6</ele>
        <time>2026-04-30T09:05:28.999Z</time>
      </trkpt>
      <trkpt lat="43.96774" lon="3.00478">
        <ele>704.4</ele>
        <time>2026-04-30T09:05:29.999Z</time>
      </trkpt>
      <trkpt lat="43.96774" lon="3.00479">
        <ele>704</ele>
        <time>2026-04-30T09:05:30.999Z</time>
      </trkpt>
      <trkpt lat="43.96774" lon="3.00479">
        <ele>703.5</ele>
        <time>2026-04-30T09:05:31.999Z</time>
      </trkpt>
      <trkpt lat="43.96774" lon="3.0048">
        <ele>703</ele>
        <time>2026-04-30T09:05:32.999Z</time>
      </trkpt>
      <trkpt lat="43.96774" lon="3.0048">
        <ele>702.3</ele>
        <time>2026-04-30T09:05:33.999Z</time>
      </trkpt>
      <trkpt lat="43.96774" lon="3.00481">
        <ele>702</ele>
        <time>2026-04-30T09:05:34.999Z</time>
      </trkpt>
      <trkpt lat="43.96774" lon="3.00481">
        <ele>702</ele>
        <time>2026-04-30T09:05:35.999Z</time>
      </trkpt>
      <trkpt lat="43.96774" lon="3.00482">
        <ele>701.7</ele>
        <time>2026-04-30T09:05:36.999Z</time>
      </trkpt>
      <trkpt lat="43.96774" lon="3.00482">
        <ele>701</ele>
        <time>2026-04-30T09:05:37.999Z</time>
      </trkpt>
      <trkpt lat="43.96774" lon="3.00483">
        <ele>700.4</ele>
        <time>2026-04-30T09:05:38.999Z</time>
      </trkpt>
      <trkpt lat="43.96774" lon="3.00484">
        <ele>700</ele>
        <time>2026-04-30T09:05:39.999Z</time>
      </trkpt>
      <trkpt lat="43.96774" lon="3.00484">
        <ele>699.6</ele>
        <time>2026-04-30T09:05:40.999Z</time>
      </trkpt>
      <trkpt lat="43.96775" lon="3.00485">
        <ele>699.2</ele>
        <time>2026-04-30T09:05:41.999Z</time>
      </trkpt>
      <trkpt lat="43.96775" lon="3.00485">
        <ele>698.7</ele>
        <time>2026-04-30T09:05:42.999Z</time>
      </trkpt>
      <trkpt lat="43.96775" lon="3.00486">
        <ele>698.7</ele>
        <time>2026-04-30T09:05:43.999Z</time>
      </trkpt>
      <trkpt lat="43.96775" lon="3.00486">
        <ele>698.6</ele>
        <time>2026-04-30T09:05:44.999Z</time>
      </trkpt>
      <trkpt lat="43.96775" lon="3.00486">
        <ele>698.3</ele>
        <time>2026-04-30T09:05:45.999Z</time>
      </trkpt>
      <trkpt lat="43.96775" lon="3.00486">
        <ele>698.6</ele>
        <time>2026-04-30T09:05:46.999Z</time>
      </trkpt>
      <trkpt lat="43.96775" lon="3.00486">
        <ele>698.8</ele>
        <time>2026-04-30T09:05:47.999Z</time>
      </trkpt>
      <trkpt lat="43.96776" lon="3.00487">
        <ele>698.4</ele>
        <time>2026-04-30T09:05:48.999Z</time>
      </trkpt>
      <trkpt lat="43.96776" lon="3.00487">
        <ele>697.9</ele>
        <time>2026-04-30T09:05:49.999Z</time>
      </trkpt>
      <trkpt lat="43.96778" lon="3.00492">
        <ele>697.6</ele>
        <time>2026-04-30T09:05:50.999Z</time>
      </trkpt>
      <trkpt lat="43.96778" lon="3.00496">
        <ele>697</ele>
        <time>2026-04-30T09:05:51.999Z</time>
      </trkpt>
      <trkpt lat="43.96779" lon="3.005">
        <ele>696.5</ele>
        <time>2026-04-30T09:05:52.999Z</time>
      </trkpt>
      <trkpt lat="43.96779" lon="3.00502">
        <ele>696.3</ele>
        <time>2026-04-30T09:05:53.999Z</time>
      </trkpt>
      <trkpt lat="43.96779" lon="3.00503">
        <ele>695.9</ele>
        <time>2026-04-30T09:05:54.999Z</time>
      </trkpt>
      <trkpt lat="43.96779" lon="3.00504">
        <ele>695</ele>
        <time>2026-04-30T09:05:55.999Z</time>
      </trkpt>
      <trkpt lat="43.96779" lon="3.00504">
        <ele>694.8</ele>
        <time>2026-04-30T09:05:56.999Z</time>
      </trkpt>
      <trkpt lat="43.96779" lon="3.00505">
        <ele>694.6</ele>
        <time>2026-04-30T09:05:57.999Z</time>
      </trkpt>
      <trkpt lat="43.96779" lon="3.00506">
        <ele>694.3</ele>
        <time>2026-04-30T09:05:58.999Z</time>
      </trkpt>
      <trkpt lat="43.96779" lon="3.00507">
        <ele>694.1</ele>
        <time>2026-04-30T09:05:59.999Z</time>
      </trkpt>
      <trkpt lat="43.96779" lon="3.00509">
        <ele>693.8</ele>
        <time>2026-04-30T09:06:00.999Z</time>
      </trkpt>
      <trkpt lat="43.96779" lon="3.0051">
        <ele>693.5</ele>
        <time>2026-04-30T09:06:01.999Z</time>
      </trkpt>
      <trkpt lat="43.96779" lon="3.00511">
        <ele>693.7</ele>
        <time>2026-04-30T09:06:02.999Z</time>
      </trkpt>
      <trkpt lat="43.96779" lon="3.00512">
        <ele>693.6</ele>
        <time>2026-04-30T09:06:03.999Z</time>
      </trkpt>
      <trkpt lat="43.96779" lon="3.00513">
        <ele>693</ele>
        <time>2026-04-30T09:06:04.999Z</time>
      </trkpt>
      <trkpt lat="43.96779" lon="3.00514">
        <ele>692.8</ele>
        <time>2026-04-30T09:06:05.999Z</time>
      </trkpt>
      <trkpt lat="43.9678" lon="3.00518">
        <ele>692.6</ele>
        <time>2026-04-30T09:06:06.999Z</time>
      </trkpt>
      <trkpt lat="43.96781" lon="3.00523">
        <ele>692.2</ele>
        <time>2026-04-30T09:06:07.999Z</time>
      </trkpt>
      <trkpt lat="43.96782" lon="3.00527">
        <ele>691.7</ele>
        <time>2026-04-30T09:06:08.999Z</time>
      </trkpt>
      <trkpt lat="43.96782" lon="3.0053">
        <ele>691.9</ele>
        <time>2026-04-30T09:06:09.999Z</time>
      </trkpt>
      <trkpt lat="43.96782" lon="3.00534">
        <ele>691.7</ele>
        <time>2026-04-30T09:06:10.999Z</time>
      </trkpt>
      <trkpt lat="43.96782" lon="3.00537">
        <ele>691.4</ele>
        <time>2026-04-30T09:06:11.999Z</time>
      </trkpt>
      <trkpt lat="43.96783" lon="3.00539">
        <ele>690.8</ele>
        <time>2026-04-30T09:06:12.999Z</time>
      </trkpt>
      <trkpt lat="43.96783" lon="3.00541">
        <ele>690.4</ele>
        <time>2026-04-30T09:06:13.999Z</time>
      </trkpt>
      <trkpt lat="43.96784" lon="3.00543">
        <ele>690.3</ele>
        <time>2026-04-30T09:06:14.999Z</time>
      </trkpt>
      <trkpt lat="43.96784" lon="3.00545">
        <ele>690.7</ele>
        <time>2026-04-30T09:06:15.999Z</time>
      </trkpt>
      <trkpt lat="43.96783" lon="3.00548">
        <ele>691</ele>
        <time>2026-04-30T09:06:16.999Z</time>
      </trkpt>
      <trkpt lat="43.96783" lon="3.0055">
        <ele>691.1</ele>
        <time>2026-04-30T09:06:17.999Z</time>
      </trkpt>
      <trkpt lat="43.96783" lon="3.00553">
        <ele>691</ele>
        <time>2026-04-30T09:06:18.999Z</time>
      </trkpt>
      <trkpt lat="43.96783" lon="3.00555">
        <ele>690.7</ele>
        <time>2026-04-30T09:06:19.999Z</time>
      </trkpt>
      <trkpt lat="43.96782" lon="3.00558">
        <ele>691</ele>
        <time>2026-04-30T09:06:20.999Z</time>
      </trkpt>
      <trkpt lat="43.96782" lon="3.0056">
        <ele>691.1</ele>
        <time>2026-04-30T09:06:21.999Z</time>
      </trkpt>
      <trkpt lat="43.96783" lon="3.00562">
        <ele>691.1</ele>
        <time>2026-04-30T09:06:22.999Z</time>
      </trkpt>
      <trkpt lat="43.96783" lon="3.00563">
        <ele>691.3</ele>
        <time>2026-04-30T09:06:23.999Z</time>
      </trkpt>
      <trkpt lat="43.96783" lon="3.00565">
        <ele>691.3</ele>
        <time>2026-04-30T09:06:24.999Z</time>
      </trkpt>
      <trkpt lat="43.96784" lon="3.00566">
        <ele>691.1</ele>
        <time>2026-04-30T09:06:25.999Z</time>
      </trkpt>
      <trkpt lat="43.96785" lon="3.00569">
        <ele>691.1</ele>
        <time>2026-04-30T09:06:26.999Z</time>
      </trkpt>
      <trkpt lat="43.96786" lon="3.00571">
        <ele>690.7</ele>
        <time>2026-04-30T09:06:27.999Z</time>
      </trkpt>
      <trkpt lat="43.96786" lon="3.00573">
        <ele>690.6</ele>
        <time>2026-04-30T09:06:28.999Z</time>
      </trkpt>
      <trkpt lat="43.96787" lon="3.00574">
        <ele>690.8</ele>
        <time>2026-04-30T09:06:29.999Z</time>
      </trkpt>
      <trkpt lat="43.96787" lon="3.00575">
        <ele>690.7</ele>
        <time>2026-04-30T09:06:30.999Z</time>
      </trkpt>
      <trkpt lat="43.96788" lon="3.00576">
        <ele>691</ele>
        <time>2026-04-30T09:06:31.999Z</time>
      </trkpt>
      <trkpt lat="43.96789" lon="3.00578">
        <ele>690.7</ele>
        <time>2026-04-30T09:06:32.999Z</time>
      </trkpt>
      <trkpt lat="43.96789" lon="3.00579">
        <ele>690.6</ele>
        <time>2026-04-30T09:06:33.999Z</time>
      </trkpt>
      <trkpt lat="43.96789" lon="3.0058">
        <ele>691</ele>
        <time>2026-04-30T09:06:34.999Z</time>
      </trkpt>
      <trkpt lat="43.9679" lon="3.00582">
        <ele>691</ele>
        <time>2026-04-30T09:06:35.999Z</time>
      </trkpt>
      <trkpt lat="43.96791" lon="3.00584">
        <ele>691.1</ele>
        <time>2026-04-30T09:06:36.999Z</time>
      </trkpt>
      <trkpt lat="43.96792" lon="3.00587">
        <ele>690.8</ele>
        <time>2026-04-30T09:06:37.999Z</time>
      </trkpt>
      <trkpt lat="43.96793" lon="3.00589">
        <ele>690.5</ele>
        <time>2026-04-30T09:06:38.999Z</time>
      </trkpt>
      <trkpt lat="43.96794" lon="3.0059">
        <ele>690.5</ele>
        <time>2026-04-30T09:06:39.999Z</time>
      </trkpt>
      <trkpt lat="43.96795" lon="3.00591">
        <ele>690.2</ele>
        <time>2026-04-30T09:06:40.999Z</time>
      </trkpt>
      <trkpt lat="43.96795" lon="3.00592">
        <ele>690</ele>
        <time>2026-04-30T09:06:41.999Z</time>
      </trkpt>
      <trkpt lat="43.96795" lon="3.00593">
        <ele>689.9</ele>
        <time>2026-04-30T09:06:42.999Z</time>
      </trkpt>
      <trkpt lat="43.96796" lon="3.00595">
        <ele>689.9</ele>
        <time>2026-04-30T09:06:43.999Z</time>
      </trkpt>
      <trkpt lat="43.96797" lon="3.00596">
        <ele>689.7</ele>
        <time>2026-04-30T09:06:44.999Z</time>
      </trkpt>
      <trkpt lat="43.96797" lon="3.00598">
        <ele>689.7</ele>
        <time>2026-04-30T09:06:45.999Z</time>
      </trkpt>
      <trkpt lat="43.96798" lon="3.00599">
        <ele>689.9</ele>
        <time>2026-04-30T09:06:46.999Z</time>
      </trkpt>
      <trkpt lat="43.96798" lon="3.006">
        <ele>690</ele>
        <time>2026-04-30T09:06:47.999Z</time>
      </trkpt>
      <trkpt lat="43.96798" lon="3.00601">
        <ele>690.2</ele>
        <time>2026-04-30T09:06:48.999Z</time>
      </trkpt>
      <trkpt lat="43.96799" lon="3.00601">
        <ele>690.1</ele>
        <time>2026-04-30T09:06:49.999Z</time>
      </trkpt>
      <trkpt lat="43.96799" lon="3.006">
        <ele>689.3</ele>
        <time>2026-04-30T09:06:50.999Z</time>
      </trkpt>
      <trkpt lat="43.96799" lon="3.006">
        <ele>688.6</ele>
        <time>2026-04-30T09:06:51.999Z</time>
      </trkpt>
      <trkpt lat="43.968" lon="3.00601">
        <ele>688.3</ele>
        <time>2026-04-30T09:06:52.999Z</time>
      </trkpt>
      <trkpt lat="43.96801" lon="3.00603">
        <ele>688.2</ele>
        <time>2026-04-30T09:06:53.999Z</time>
      </trkpt>
      <trkpt lat="43.96801" lon="3.00605">
        <ele>688.3</ele>
        <time>2026-04-30T09:06:54.999Z</time>
      </trkpt>
      <trkpt lat="43.96802" lon="3.00606">
        <ele>688.6</ele>
        <time>2026-04-30T09:06:55.999Z</time>
      </trkpt>
      <trkpt lat="43.96802" lon="3.00607">
        <ele>688.6</ele>
        <time>2026-04-30T09:06:56.999Z</time>
      </trkpt>
      <trkpt lat="43.96803" lon="3.00609">
        <ele>688.6</ele>
        <time>2026-04-30T09:06:57.999Z</time>
      </trkpt>
      <trkpt lat="43.96803" lon="3.00611">
        <ele>688.5</ele>
        <time>2026-04-30T09:06:58.999Z</time>
      </trkpt>
      <trkpt lat="43.96803" lon="3.00612">
        <ele>688.7</ele>
        <time>2026-04-30T09:06:59.999Z</time>
      </trkpt>
      <trkpt lat="43.96803" lon="3.00612">
        <ele>688.7</ele>
        <time>2026-04-30T09:07:00.999Z</time>
      </trkpt>
      <trkpt lat="43.96803" lon="3.00613">
        <ele>688.5</ele>
        <time>2026-04-30T09:07:01.999Z</time>
      </trkpt>
      <trkpt lat="43.96804" lon="3.00615">
        <ele>688.8</ele>
        <time>2026-04-30T09:07:02.999Z</time>
      </trkpt>
      <trkpt lat="43.96804" lon="3.00618">
        <ele>688.7</ele>
        <time>2026-04-30T09:07:03.999Z</time>
      </trkpt>
      <trkpt lat="43.96805" lon="3.0062">
        <ele>688.6</ele>
        <time>2026-04-30T09:07:04.999Z</time>
      </trkpt>
      <trkpt lat="43.96805" lon="3.00621">
        <ele>688.3</ele>
        <time>2026-04-30T09:07:05.999Z</time>
      </trkpt>
      <trkpt lat="43.96806" lon="3.00623">
        <ele>688</ele>
        <time>2026-04-30T09:07:06.999Z</time>
      </trkpt>
      <trkpt lat="43.96807" lon="3.00624">
        <ele>688</ele>
        <time>2026-04-30T09:07:07.999Z</time>
      </trkpt>
      <trkpt lat="43.96807" lon="3.00624">
        <ele>688.2</ele>
        <time>2026-04-30T09:07:08.999Z</time>
      </trkpt>
      <trkpt lat="43.96808" lon="3.00626">
        <ele>688.5</ele>
        <time>2026-04-30T09:07:09.999Z</time>
      </trkpt>
      <trkpt lat="43.96808" lon="3.00627">
        <ele>688.5</ele>
        <time>2026-04-30T09:07:10.999Z</time>
      </trkpt>
      <trkpt lat="43.96809" lon="3.00628">
        <ele>688.5</ele>
        <time>2026-04-30T09:07:11.999Z</time>
      </trkpt>
      <trkpt lat="43.9681" lon="3.00629">
        <ele>688.3</ele>
        <time>2026-04-30T09:07:12.999Z</time>
      </trkpt>
      <trkpt lat="43.96811" lon="3.00629">
        <ele>688.2</ele>
        <time>2026-04-30T09:07:13.999Z</time>
      </trkpt>
      <trkpt lat="43.96811" lon="3.00631">
        <ele>688.1</ele>
        <time>2026-04-30T09:07:14.999Z</time>
      </trkpt>
      <trkpt lat="43.96812" lon="3.00633">
        <ele>687.9</ele>
        <time>2026-04-30T09:07:15.999Z</time>
      </trkpt>
      <trkpt lat="43.96813" lon="3.00634">
        <ele>687.7</ele>
        <time>2026-04-30T09:07:16.999Z</time>
      </trkpt>
      <trkpt lat="43.96814" lon="3.00635">
        <ele>687.5</ele>
        <time>2026-04-30T09:07:17.999Z</time>
      </trkpt>
      <trkpt lat="43.96814" lon="3.00636">
        <ele>687.1</ele>
        <time>2026-04-30T09:07:18.999Z</time>
      </trkpt>
      <trkpt lat="43.96815" lon="3.00637">
        <ele>686.9</ele>
        <time>2026-04-30T09:07:19.999Z</time>
      </trkpt>
      <trkpt lat="43.96815" lon="3.00638">
        <ele>686.6</ele>
        <time>2026-04-30T09:07:20.999Z</time>
      </trkpt>
      <trkpt lat="43.96816" lon="3.00639">
        <ele>686.5</ele>
        <time>2026-04-30T09:07:21.999Z</time>
      </trkpt>
      <trkpt lat="43.96817" lon="3.0064">
        <ele>686.5</ele>
        <time>2026-04-30T09:07:22.999Z</time>
      </trkpt>
      <trkpt lat="43.96818" lon="3.00641">
        <ele>686.7</ele>
        <time>2026-04-30T09:07:23.999Z</time>
      </trkpt>
      <trkpt lat="43.96818" lon="3.00642">
        <ele>686.8</ele>
        <time>2026-04-30T09:07:24.999Z</time>
      </trkpt>
      <trkpt lat="43.9682" lon="3.00642">
        <ele>686.9</ele>
        <time>2026-04-30T09:07:25.999Z</time>
      </trkpt>
      <trkpt lat="43.9682" lon="3.00643">
        <ele>686.7</ele>
        <time>2026-04-30T09:07:26.999Z</time>
      </trkpt>
      <trkpt lat="43.96822" lon="3.00644">
        <ele>686.6</ele>
        <time>2026-04-30T09:07:27.999Z</time>
      </trkpt>
      <trkpt lat="43.96823" lon="3.00646">
        <ele>686</ele>
        <time>2026-04-30T09:07:28.999Z</time>
      </trkpt>
      <trkpt lat="43.96824" lon="3.00646">
        <ele>685.8</ele>
        <time>2026-04-30T09:07:29.999Z</time>
      </trkpt>
      <trkpt lat="43.96824" lon="3.00647">
        <ele>685.6</ele>
        <time>2026-04-30T09:07:30.999Z</time>
      </trkpt>
      <trkpt lat="43.96824" lon="3.00648">
        <ele>685.9</ele>
        <time>2026-04-30T09:07:31.999Z</time>
      </trkpt>
      <trkpt lat="43.96824" lon="3.00649">
        <ele>686</ele>
        <time>2026-04-30T09:07:32.999Z</time>
      </trkpt>
      <trkpt lat="43.96824" lon="3.0065">
        <ele>686</ele>
        <time>2026-04-30T09:07:33.999Z</time>
      </trkpt>
      <trkpt lat="43.96825" lon="3.00652">
        <ele>686.2</ele>
        <time>2026-04-30T09:07:34.999Z</time>
      </trkpt>
      <trkpt lat="43.96825" lon="3.00653">
        <ele>686.1</ele>
        <time>2026-04-30T09:07:35.999Z</time>
      </trkpt>
      <trkpt lat="43.96826" lon="3.00655">
        <ele>685.2</ele>
        <time>2026-04-30T09:07:36.999Z</time>
      </trkpt>
      <trkpt lat="43.96827" lon="3.00656">
        <ele>684.8</ele>
        <time>2026-04-30T09:07:37.999Z</time>
      </trkpt>
      <trkpt lat="43.96828" lon="3.00657">
        <ele>685</ele>
        <time>2026-04-30T09:07:38.999Z</time>
      </trkpt>
      <trkpt lat="43.96828" lon="3.00659">
        <ele>685.1</ele>
        <time>2026-04-30T09:07:39.999Z</time>
      </trkpt>
      <trkpt lat="43.96828" lon="3.0066">
        <ele>684.9</ele>
        <time>2026-04-30T09:07:40.999Z</time>
      </trkpt>
      <trkpt lat="43.96829" lon="3.00661">
        <ele>684.6</ele>
        <time>2026-04-30T09:07:41.999Z</time>
      </trkpt>
      <trkpt lat="43.9683" lon="3.00662">
        <ele>684</ele>
        <time>2026-04-30T09:07:42.999Z</time>
      </trkpt>
      <trkpt lat="43.96831" lon="3.00663">
        <ele>683.4</ele>
        <time>2026-04-30T09:07:43.999Z</time>
      </trkpt>
      <trkpt lat="43.96832" lon="3.00664">
        <ele>683.1</ele>
        <time>2026-04-30T09:07:44.999Z</time>
      </trkpt>
      <trkpt lat="43.96832" lon="3.00666">
        <ele>682.5</ele>
        <time>2026-04-30T09:07:45.999Z</time>
      </trkpt>
      <trkpt lat="43.96833" lon="3.00667">
        <ele>682.1</ele>
        <time>2026-04-30T09:07:46.999Z</time>
      </trkpt>
      <trkpt lat="43.96833" lon="3.00668">
        <ele>682.1</ele>
        <time>2026-04-30T09:07:47.999Z</time>
      </trkpt>
      <trkpt lat="43.96834" lon="3.00669">
        <ele>682.1</ele>
        <time>2026-04-30T09:07:48.999Z</time>
      </trkpt>
      <trkpt lat="43.96834" lon="3.0067">
        <ele>681.9</ele>
        <time>2026-04-30T09:07:49.999Z</time>
      </trkpt>
      <trkpt lat="43.96835" lon="3.00671">
        <ele>681.8</ele>
        <time>2026-04-30T09:07:50.999Z</time>
      </trkpt>
      <trkpt lat="43.96836" lon="3.00671">
        <ele>681.6</ele>
        <time>2026-04-30T09:07:51.999Z</time>
      </trkpt>
      <trkpt lat="43.96837" lon="3.00672">
        <ele>681.5</ele>
        <time>2026-04-30T09:07:52.999Z</time>
      </trkpt>
      <trkpt lat="43.96837" lon="3.00672">
        <ele>681.4</ele>
        <time>2026-04-30T09:07:53.999Z</time>
      </trkpt>
      <trkpt lat="43.96838" lon="3.00673">
        <ele>681.5</ele>
        <time>2026-04-30T09:07:54.999Z</time>
      </trkpt>
      <trkpt lat="43.96838" lon="3.00673">
        <ele>681.4</ele>
        <time>2026-04-30T09:07:55.999Z</time>
      </trkpt>
      <trkpt lat="43.96838" lon="3.00673">
        <ele>681.4</ele>
        <time>2026-04-30T09:07:56.999Z</time>
      </trkpt>
      <trkpt lat="43.96838" lon="3.00673">
        <ele>681.2</ele>
        <time>2026-04-30T09:07:57.999Z</time>
      </trkpt>
      <trkpt lat="43.96838" lon="3.00673">
        <ele>681</ele>
        <time>2026-04-30T09:07:58.999Z</time>
      </trkpt>
      <trkpt lat="43.96838" lon="3.00673">
        <ele>680.7</ele>
        <time>2026-04-30T09:07:59.999Z</time>
      </trkpt>
      <trkpt lat="43.96838" lon="3.00674">
        <ele>680.4</ele>
        <time>2026-04-30T09:08:00.999Z</time>
      </trkpt>
      <trkpt lat="43.96838" lon="3.00674">
        <ele>680</ele>
        <time>2026-04-30T09:08:01.999Z</time>
      </trkpt>
      <trkpt lat="43.96838" lon="3.00674">
        <ele>679.7</ele>
        <time>2026-04-30T09:08:02.999Z</time>
      </trkpt>
      <trkpt lat="43.96839" lon="3.00675">
        <ele>679.8</ele>
        <time>2026-04-30T09:08:03.999Z</time>
      </trkpt>
      <trkpt lat="43.96839" lon="3.00675">
        <ele>679.9</ele>
        <time>2026-04-30T09:08:04.999Z</time>
      </trkpt>
      <trkpt lat="43.96839" lon="3.00675">
        <ele>680</ele>
        <time>2026-04-30T09:08:05.999Z</time>
      </trkpt>
      <trkpt lat="43.96839" lon="3.00676">
        <ele>680.1</ele>
        <time>2026-04-30T09:08:06.999Z</time>
      </trkpt>
      <trkpt lat="43.9684" lon="3.00677">
        <ele>680.1</ele>
        <time>2026-04-30T09:08:07.999Z</time>
      </trkpt>
      <trkpt lat="43.9684" lon="3.00677">
        <ele>679.8</ele>
        <time>2026-04-30T09:08:08.999Z</time>
      </trkpt>
      <trkpt lat="43.9684" lon="3.00678">
        <ele>679.5</ele>
        <time>2026-04-30T09:08:09.999Z</time>
      </trkpt>
      <trkpt lat="43.96842" lon="3.00679">
        <ele>679.2</ele>
        <time>2026-04-30T09:08:10.999Z</time>
      </trkpt>
      <trkpt lat="43.96843" lon="3.0068">
        <ele>678.8</ele>
        <time>2026-04-30T09:08:11.999Z</time>
      </trkpt>
      <trkpt lat="43.96845" lon="3.00681">
        <ele>678.3</ele>
        <time>2026-04-30T09:08:12.999Z</time>
      </trkpt>
      <trkpt lat="43.96846" lon="3.00681">
        <ele>677.9</ele>
        <time>2026-04-30T09:08:13.999Z</time>
      </trkpt>
      <trkpt lat="43.96848" lon="3.00681">
        <ele>677.5</ele>
        <time>2026-04-30T09:08:14.999Z</time>
      </trkpt>
      <trkpt lat="43.9685" lon="3.00682">
        <ele>677.5</ele>
        <time>2026-04-30T09:08:15.999Z</time>
      </trkpt>
      <trkpt lat="43.96851" lon="3.00683">
        <ele>677.5</ele>
        <time>2026-04-30T09:08:16.999Z</time>
      </trkpt>
      <trkpt lat="43.96853" lon="3.00684">
        <ele>677.6</ele>
        <time>2026-04-30T09:08:17.999Z</time>
      </trkpt>
      <trkpt lat="43.96854" lon="3.00685">
        <ele>677.4</ele>
        <time>2026-04-30T09:08:18.999Z</time>
      </trkpt>
      <trkpt lat="43.96855" lon="3.00687">
        <ele>677.3</ele>
        <time>2026-04-30T09:08:19.999Z</time>
      </trkpt>
      <trkpt lat="43.96855" lon="3.00688">
        <ele>677.3</ele>
        <time>2026-04-30T09:08:20.999Z</time>
      </trkpt>
      <trkpt lat="43.96855" lon="3.00689">
        <ele>677.2</ele>
        <time>2026-04-30T09:08:21.999Z</time>
      </trkpt>
      <trkpt lat="43.96855" lon="3.0069">
        <ele>677.1</ele>
        <time>2026-04-30T09:08:22.999Z</time>
      </trkpt>
      <trkpt lat="43.96855" lon="3.00692">
        <ele>677.3</ele>
        <time>2026-04-30T09:08:23.999Z</time>
      </trkpt>
      <trkpt lat="43.96856" lon="3.00694">
        <ele>677.2</ele>
        <time>2026-04-30T09:08:24.999Z</time>
      </trkpt>
      <trkpt lat="43.96856" lon="3.00696">
        <ele>676.8</ele>
        <time>2026-04-30T09:08:25.999Z</time>
      </trkpt>
      <trkpt lat="43.96857" lon="3.00697">
        <ele>676.5</ele>
        <time>2026-04-30T09:08:26.999Z</time>
      </trkpt>
      <trkpt lat="43.96858" lon="3.00698">
        <ele>675.8</ele>
        <time>2026-04-30T09:08:27.999Z</time>
      </trkpt>
      <trkpt lat="43.96858" lon="3.00699">
        <ele>675.3</ele>
        <time>2026-04-30T09:08:28.999Z</time>
      </trkpt>
      <trkpt lat="43.96858" lon="3.007">
        <ele>675.4</ele>
        <time>2026-04-30T09:08:29.999Z</time>
      </trkpt>
      <trkpt lat="43.96859" lon="3.00702">
        <ele>675.7</ele>
        <time>2026-04-30T09:08:30.999Z</time>
      </trkpt>
      <trkpt lat="43.96859" lon="3.00704">
        <ele>676</ele>
        <time>2026-04-30T09:08:31.999Z</time>
      </trkpt>
      <trkpt lat="43.96859" lon="3.00706">
        <ele>675.5</ele>
        <time>2026-04-30T09:08:32.999Z</time>
      </trkpt>
      <trkpt lat="43.96859" lon="3.00707">
        <ele>674.9</ele>
        <time>2026-04-30T09:08:33.999Z</time>
      </trkpt>
      <trkpt lat="43.96859" lon="3.00708">
        <ele>674.6</ele>
        <time>2026-04-30T09:08:34.999Z</time>
      </trkpt>
      <trkpt lat="43.96859" lon="3.00708">
        <ele>675.2</ele>
        <time>2026-04-30T09:08:35.999Z</time>
      </trkpt>
      <trkpt lat="43.96859" lon="3.00708">
        <ele>675.2</ele>
        <time>2026-04-30T09:08:36.999Z</time>
      </trkpt>
      <trkpt lat="43.96859" lon="3.00709">
        <ele>674.9</ele>
        <time>2026-04-30T09:08:37.999Z</time>
      </trkpt>
      <trkpt lat="43.9686" lon="3.00709">
        <ele>674.7</ele>
        <time>2026-04-30T09:08:38.999Z</time>
      </trkpt>
      <trkpt lat="43.9686" lon="3.00709">
        <ele>674.3</ele>
        <time>2026-04-30T09:08:39.999Z</time>
      </trkpt>
      <trkpt lat="43.9686" lon="3.0071">
        <ele>674.1</ele>
        <time>2026-04-30T09:08:40.999Z</time>
      </trkpt>
      <trkpt lat="43.96861" lon="3.0071">
        <ele>673.7</ele>
        <time>2026-04-30T09:08:41.999Z</time>
      </trkpt>
      <trkpt lat="43.96861" lon="3.00711">
        <ele>673.9</ele>
        <time>2026-04-30T09:08:42.999Z</time>
      </trkpt>
      <trkpt lat="43.96861" lon="3.00711">
        <ele>673.9</ele>
        <time>2026-04-30T09:08:43.999Z</time>
      </trkpt>
      <trkpt lat="43.96862" lon="3.00714">
        <ele>673.3</ele>
        <time>2026-04-30T09:08:44.999Z</time>
      </trkpt>
      <trkpt lat="43.96864" lon="3.00717">
        <ele>672.8</ele>
        <time>2026-04-30T09:08:45.999Z</time>
      </trkpt>
      <trkpt lat="43.96865" lon="3.00719">
        <ele>672.4</ele>
        <time>2026-04-30T09:08:46.999Z</time>
      </trkpt>
      <trkpt lat="43.96865" lon="3.0072">
        <ele>672.1</ele>
        <time>2026-04-30T09:08:47.999Z</time>
      </trkpt>
      <trkpt lat="43.96866" lon="3.00722">
        <ele>671.9</ele>
        <time>2026-04-30T09:08:48.999Z</time>
      </trkpt>
      <trkpt lat="43.96866" lon="3.00723">
        <ele>671.6</ele>
        <time>2026-04-30T09:08:49.999Z</time>
      </trkpt>
      <trkpt lat="43.96867" lon="3.00724">
        <ele>671.1</ele>
        <time>2026-04-30T09:08:50.999Z</time>
      </trkpt>
      <trkpt lat="43.96867" lon="3.00726">
        <ele>670.7</ele>
        <time>2026-04-30T09:08:51.999Z</time>
      </trkpt>
      <trkpt lat="43.96868" lon="3.00728">
        <ele>670.2</ele>
        <time>2026-04-30T09:08:52.999Z</time>
      </trkpt>
      <trkpt lat="43.96869" lon="3.00729">
        <ele>669.4</ele>
        <time>2026-04-30T09:08:53.999Z</time>
      </trkpt>
      <trkpt lat="43.96869" lon="3.0073">
        <ele>668.8</ele>
        <time>2026-04-30T09:08:54.999Z</time>
      </trkpt>
      <trkpt lat="43.96869" lon="3.0073">
        <ele>668.5</ele>
        <time>2026-04-30T09:08:55.999Z</time>
      </trkpt>
      <trkpt lat="43.96869" lon="3.0073">
        <ele>668.1</ele>
        <time>2026-04-30T09:08:56.999Z</time>
      </trkpt>
      <trkpt lat="43.9687" lon="3.0073">
        <ele>667.9</ele>
        <time>2026-04-30T09:08:57.999Z</time>
      </trkpt>
      <trkpt lat="43.9687" lon="3.00731">
        <ele>667.6</ele>
        <time>2026-04-30T09:08:58.999Z</time>
      </trkpt>
      <trkpt lat="43.9687" lon="3.00731">
        <ele>667.2</ele>
        <time>2026-04-30T09:08:59.999Z</time>
      </trkpt>
      <trkpt lat="43.9687" lon="3.00732">
        <ele>667</ele>
        <time>2026-04-30T09:09:00.999Z</time>
      </trkpt>
      <trkpt lat="43.9687" lon="3.00732">
        <ele>666.9</ele>
        <time>2026-04-30T09:09:01.999Z</time>
      </trkpt>
      <trkpt lat="43.96871" lon="3.00733">
        <ele>666.8</ele>
        <time>2026-04-30T09:09:02.999Z</time>
      </trkpt>
      <trkpt lat="43.96871" lon="3.00733">
        <ele>666.6</ele>
        <time>2026-04-30T09:09:03.999Z</time>
      </trkpt>
      <trkpt lat="43.96871" lon="3.00734">
        <ele>666.3</ele>
        <time>2026-04-30T09:09:04.999Z</time>
      </trkpt>
      <trkpt lat="43.96871" lon="3.00734">
        <ele>666.1</ele>
        <time>2026-04-30T09:09:05.999Z</time>
      </trkpt>
      <trkpt lat="43.96872" lon="3.00735">
        <ele>666</ele>
        <time>2026-04-30T09:09:06.999Z</time>
      </trkpt>
      <trkpt lat="43.96872" lon="3.00735">
        <ele>665.8</ele>
        <time>2026-04-30T09:09:07.999Z</time>
      </trkpt>
      <trkpt lat="43.96874" lon="3.00739">
        <ele>665.4</ele>
        <time>2026-04-30T09:09:08.999Z</time>
      </trkpt>
      <trkpt lat="43.96875" lon="3.00742">
        <ele>664.6</ele>
        <time>2026-04-30T09:09:09.999Z</time>
      </trkpt>
      <trkpt lat="43.96876" lon="3.00745">
        <ele>664.4</ele>
        <time>2026-04-30T09:09:10.999Z</time>
      </trkpt>
      <trkpt lat="43.96878" lon="3.00747">
        <ele>664</ele>
        <time>2026-04-30T09:09:11.999Z</time>
      </trkpt>
      <trkpt lat="43.96879" lon="3.00748">
        <ele>663.8</ele>
        <time>2026-04-30T09:09:12.999Z</time>
      </trkpt>
      <trkpt lat="43.96879" lon="3.0075">
        <ele>663.3</ele>
        <time>2026-04-30T09:09:13.999Z</time>
      </trkpt>
      <trkpt lat="43.9688" lon="3.00753">
        <ele>662.8</ele>
        <time>2026-04-30T09:09:14.999Z</time>
      </trkpt>
      <trkpt lat="43.9688" lon="3.00755">
        <ele>662.7</ele>
        <time>2026-04-30T09:09:15.999Z</time>
      </trkpt>
      <trkpt lat="43.9688" lon="3.00758">
        <ele>662.4</ele>
        <time>2026-04-30T09:09:16.999Z</time>
      </trkpt>
      <trkpt lat="43.96881" lon="3.0076">
        <ele>661.9</ele>
        <time>2026-04-30T09:09:17.999Z</time>
      </trkpt>
      <trkpt lat="43.96881" lon="3.00763">
        <ele>661.5</ele>
        <time>2026-04-30T09:09:18.999Z</time>
      </trkpt>
      <trkpt lat="43.96882" lon="3.00765">
        <ele>661.3</ele>
        <time>2026-04-30T09:09:19.999Z</time>
      </trkpt>
      <trkpt lat="43.96881" lon="3.00767">
        <ele>661.4</ele>
        <time>2026-04-30T09:09:20.999Z</time>
      </trkpt>
      <trkpt lat="43.96881" lon="3.00769">
        <ele>661.2</ele>
        <time>2026-04-30T09:09:21.999Z</time>
      </trkpt>
      <trkpt lat="43.96881" lon="3.00771">
        <ele>661.2</ele>
        <time>2026-04-30T09:09:22.999Z</time>
      </trkpt>
      <trkpt lat="43.96881" lon="3.00773">
        <ele>661</ele>
        <time>2026-04-30T09:09:23.999Z</time>
      </trkpt>
      <trkpt lat="43.96882" lon="3.00775">
        <ele>660.6</ele>
        <time>2026-04-30T09:09:24.999Z</time>
      </trkpt>
      <trkpt lat="43.96882" lon="3.00776">
        <ele>660.4</ele>
        <time>2026-04-30T09:09:25.999Z</time>
      </trkpt>
      <trkpt lat="43.96883" lon="3.00778">
        <ele>659.9</ele>
        <time>2026-04-30T09:09:26.999Z</time>
      </trkpt>
      <trkpt lat="43.96883" lon="3.00779">
        <ele>659.9</ele>
        <time>2026-04-30T09:09:27.999Z</time>
      </trkpt>
      <trkpt lat="43.96883" lon="3.00781">
        <ele>660</ele>
        <time>2026-04-30T09:09:28.999Z</time>
      </trkpt>
      <trkpt lat="43.96884" lon="3.00782">
        <ele>660</ele>
        <time>2026-04-30T09:09:29.999Z</time>
      </trkpt>
      <trkpt lat="43.96884" lon="3.00782">
        <ele>659.9</ele>
        <time>2026-04-30T09:09:30.999Z</time>
      </trkpt>
      <trkpt lat="43.96884" lon="3.00782">
        <ele>659.8</ele>
        <time>2026-04-30T09:09:31.999Z</time>
      </trkpt>
      <trkpt lat="43.96884" lon="3.00783">
        <ele>659.6</ele>
        <time>2026-04-30T09:09:32.999Z</time>
      </trkpt>
      <trkpt lat="43.96884" lon="3.00783">
        <ele>659.4</ele>
        <time>2026-04-30T09:09:33.999Z</time>
      </trkpt>
      <trkpt lat="43.96884" lon="3.00783">
        <ele>659.4</ele>
        <time>2026-04-30T09:09:34.999Z</time>
      </trkpt>
      <trkpt lat="43.96884" lon="3.00783">
        <ele>659.1</ele>
        <time>2026-04-30T09:09:35.999Z</time>
      </trkpt>
      <trkpt lat="43.96884" lon="3.00783">
        <ele>659</ele>
        <time>2026-04-30T09:09:36.999Z</time>
      </trkpt>
      <trkpt lat="43.96885" lon="3.00783">
        <ele>658.9</ele>
        <time>2026-04-30T09:09:37.999Z</time>
      </trkpt>
      <trkpt lat="43.96885" lon="3.00783">
        <ele>659</ele>
        <time>2026-04-30T09:09:38.999Z</time>
      </trkpt>
      <trkpt lat="43.96885" lon="3.00783">
        <ele>659</ele>
        <time>2026-04-30T09:09:39.999Z</time>
      </trkpt>
      <trkpt lat="43.96884" lon="3.00783">
        <ele>658.9</ele>
        <time>2026-04-30T09:09:40.999Z</time>
      </trkpt>
      <trkpt lat="43.96885" lon="3.00782">
        <ele>659.1</ele>
        <time>2026-04-30T09:09:41.999Z</time>
      </trkpt>
      <trkpt lat="43.96885" lon="3.00783">
        <ele>659.1</ele>
        <time>2026-04-30T09:09:42.999Z</time>
      </trkpt>
      <trkpt lat="43.96885" lon="3.00783">
        <ele>659.1</ele>
        <time>2026-04-30T09:09:43.999Z</time>
      </trkpt>
      <trkpt lat="43.96885" lon="3.00783">
        <ele>659.3</ele>
        <time>2026-04-30T09:09:44.999Z</time>
      </trkpt>
      <trkpt lat="43.96885" lon="3.00783">
        <ele>659.6</ele>
        <time>2026-04-30T09:09:45.999Z</time>
      </trkpt>
      <trkpt lat="43.96885" lon="3.00783">
        <ele>659.5</ele>
        <time>2026-04-30T09:09:46.999Z</time>
      </trkpt>
      <trkpt lat="43.96885" lon="3.00784">
        <ele>659</ele>
        <time>2026-04-30T09:09:47.999Z</time>
      </trkpt>
      <trkpt lat="43.96886" lon="3.00785">
        <ele>658.5</ele>
        <time>2026-04-30T09:09:48.999Z</time>
      </trkpt>
      <trkpt lat="43.96887" lon="3.00787">
        <ele>658.4</ele>
        <time>2026-04-30T09:09:49.999Z</time>
      </trkpt>
      <trkpt lat="43.96887" lon="3.00788">
        <ele>658.5</ele>
        <time>2026-04-30T09:09:50.999Z</time>
      </trkpt>
      <trkpt lat="43.96887" lon="3.00789">
        <ele>658.4</ele>
        <time>2026-04-30T09:09:51.999Z</time>
      </trkpt>
      <trkpt lat="43.96887" lon="3.00789">
        <ele>658.7</ele>
        <time>2026-04-30T09:09:52.999Z</time>
      </trkpt>
      <trkpt lat="43.96887" lon="3.00789">
        <ele>658.6</ele>
        <time>2026-04-30T09:09:53.999Z</time>
      </trkpt>
      <trkpt lat="43.96887" lon="3.00789">
        <ele>658.3</ele>
        <time>2026-04-30T09:09:54.999Z</time>
      </trkpt>
      <trkpt lat="43.96887" lon="3.0079">
        <ele>658.2</ele>
        <time>2026-04-30T09:09:55.999Z</time>
      </trkpt>
      <trkpt lat="43.96887" lon="3.00791">
        <ele>658.2</ele>
        <time>2026-04-30T09:09:56.999Z</time>
      </trkpt>
      <trkpt lat="43.96888" lon="3.00793">
        <ele>658</ele>
        <time>2026-04-30T09:09:57.999Z</time>
      </trkpt>
      <trkpt lat="43.96888" lon="3.00794">
        <ele>657.7</ele>
        <time>2026-04-30T09:09:58.999Z</time>
      </trkpt>
      <trkpt lat="43.96888" lon="3.00795">
        <ele>657.8</ele>
        <time>2026-04-30T09:09:59.999Z</time>
      </trkpt>
      <trkpt lat="43.96888" lon="3.00796">
        <ele>657.7</ele>
        <time>2026-04-30T09:10:00.999Z</time>
      </trkpt>
      <trkpt lat="43.96888" lon="3.00798">
        <ele>657.6</ele>
        <time>2026-04-30T09:10:01.999Z</time>
      </trkpt>
      <trkpt lat="43.96888" lon="3.008">
        <ele>657.5</ele>
        <time>2026-04-30T09:10:02.999Z</time>
      </trkpt>
      <trkpt lat="43.96888" lon="3.00802">
        <ele>657.1</ele>
        <time>2026-04-30T09:10:03.999Z</time>
      </trkpt>
      <trkpt lat="43.96889" lon="3.00804">
        <ele>656.6</ele>
        <time>2026-04-30T09:10:04.999Z</time>
      </trkpt>
      <trkpt lat="43.9689" lon="3.00806">
        <ele>656.3</ele>
        <time>2026-04-30T09:10:05.999Z</time>
      </trkpt>
      <trkpt lat="43.9689" lon="3.00807">
        <ele>656.2</ele>
        <time>2026-04-30T09:10:06.999Z</time>
      </trkpt>
      <trkpt lat="43.96891" lon="3.00808">
        <ele>656.5</ele>
        <time>2026-04-30T09:10:07.999Z</time>
      </trkpt>
      <trkpt lat="43.96891" lon="3.0081">
        <ele>656.8</ele>
        <time>2026-04-30T09:10:08.999Z</time>
      </trkpt>
      <trkpt lat="43.96892" lon="3.00812">
        <ele>656.9</ele>
        <time>2026-04-30T09:10:09.999Z</time>
      </trkpt>
      <trkpt lat="43.96893" lon="3.00814">
        <ele>656.6</ele>
        <time>2026-04-30T09:10:10.999Z</time>
      </trkpt>
      <trkpt lat="43.96893" lon="3.00816">
        <ele>656.6</ele>
        <time>2026-04-30T09:10:11.999Z</time>
      </trkpt>
      <trkpt lat="43.96894" lon="3.00816">
        <ele>656.4</ele>
        <time>2026-04-30T09:10:12.999Z</time>
      </trkpt>
      <trkpt lat="43.96894" lon="3.00817">
        <ele>655.9</ele>
        <time>2026-04-30T09:10:13.999Z</time>
      </trkpt>
      <trkpt lat="43.96895" lon="3.00818">
        <ele>655.2</ele>
        <time>2026-04-30T09:10:14.999Z</time>
      </trkpt>
      <trkpt lat="43.96895" lon="3.00819">
        <ele>654.3</ele>
        <time>2026-04-30T09:10:15.999Z</time>
      </trkpt>
      <trkpt lat="43.96896" lon="3.0082">
        <ele>654.1</ele>
        <time>2026-04-30T09:10:16.999Z</time>
      </trkpt>
      <trkpt lat="43.96896" lon="3.00821">
        <ele>653.8</ele>
        <time>2026-04-30T09:10:17.999Z</time>
      </trkpt>
      <trkpt lat="43.96896" lon="3.00822">
        <ele>653.3</ele>
        <time>2026-04-30T09:10:18.999Z</time>
      </trkpt>
      <trkpt lat="43.96897" lon="3.00822">
        <ele>652.8</ele>
        <time>2026-04-30T09:10:19.999Z</time>
      </trkpt>
      <trkpt lat="43.96896" lon="3.00823">
        <ele>652.2</ele>
        <time>2026-04-30T09:10:20.999Z</time>
      </trkpt>
      <trkpt lat="43.96896" lon="3.00825">
        <ele>652</ele>
        <time>2026-04-30T09:10:21.999Z</time>
      </trkpt>
      <trkpt lat="43.96897" lon="3.00827">
        <ele>651.8</ele>
        <time>2026-04-30T09:10:22.999Z</time>
      </trkpt>
      <trkpt lat="43.96897" lon="3.00828">
        <ele>651.4</ele>
        <time>2026-04-30T09:10:23.999Z</time>
      </trkpt>
      <trkpt lat="43.96897" lon="3.00831">
        <ele>651.2</ele>
        <time>2026-04-30T09:10:24.999Z</time>
      </trkpt>
      <trkpt lat="43.96898" lon="3.00833">
        <ele>651.3</ele>
        <time>2026-04-30T09:10:25.999Z</time>
      </trkpt>
      <trkpt lat="43.96898" lon="3.00835">
        <ele>651.2</ele>
        <time>2026-04-30T09:10:26.999Z</time>
      </trkpt>
      <trkpt lat="43.96898" lon="3.00837">
        <ele>651.1</ele>
        <time>2026-04-30T09:10:27.999Z</time>
      </trkpt>
      <trkpt lat="43.96898" lon="3.00839">
        <ele>651.4</ele>
        <time>2026-04-30T09:10:28.999Z</time>
      </trkpt>
      <trkpt lat="43.96898" lon="3.00841">
        <ele>651.5</ele>
        <time>2026-04-30T09:10:29.999Z</time>
      </trkpt>
      <trkpt lat="43.96899" lon="3.00842">
        <ele>651.8</ele>
        <time>2026-04-30T09:10:30.999Z</time>
      </trkpt>
      <trkpt lat="43.96899" lon="3.00843">
        <ele>652</ele>
        <time>2026-04-30T09:10:31.999Z</time>
      </trkpt>
      <trkpt lat="43.96899" lon="3.00844">
        <ele>652.1</ele>
        <time>2026-04-30T09:10:32.999Z</time>
      </trkpt>
      <trkpt lat="43.96899" lon="3.00845">
        <ele>652.6</ele>
        <time>2026-04-30T09:10:33.999Z</time>
      </trkpt>
      <trkpt lat="43.96899" lon="3.00846">
        <ele>652.6</ele>
        <time>2026-04-30T09:10:34.999Z</time>
      </trkpt>
      <trkpt lat="43.96899" lon="3.00847">
        <ele>652.7</ele>
        <time>2026-04-30T09:10:35.999Z</time>
      </trkpt>
      <trkpt lat="43.969" lon="3.00847">
        <ele>652.7</ele>
        <time>2026-04-30T09:10:36.999Z</time>
      </trkpt>
      <trkpt lat="43.969" lon="3.00849">
        <ele>652.6</ele>
        <time>2026-04-30T09:10:37.999Z</time>
      </trkpt>
      <trkpt lat="43.96899" lon="3.00851">
        <ele>652.6</ele>
        <time>2026-04-30T09:10:38.999Z</time>
      </trkpt>
      <trkpt lat="43.96898" lon="3.00852">
        <ele>653.1</ele>
        <time>2026-04-30T09:10:39.999Z</time>
      </trkpt>
      <trkpt lat="43.96898" lon="3.00853">
        <ele>653.3</ele>
        <time>2026-04-30T09:10:40.999Z</time>
      </trkpt>
      <trkpt lat="43.96898" lon="3.00853">
        <ele>653.4</ele>
        <time>2026-04-30T09:10:41.999Z</time>
      </trkpt>
      <trkpt lat="43.96898" lon="3.00854">
        <ele>653.1</ele>
        <time>2026-04-30T09:10:42.999Z</time>
      </trkpt>
      <trkpt lat="43.96898" lon="3.00854">
        <ele>652.8</ele>
        <time>2026-04-30T09:10:43.999Z</time>
      </trkpt>
      <trkpt lat="43.96899" lon="3.00855">
        <ele>652.7</ele>
        <time>2026-04-30T09:10:44.999Z</time>
      </trkpt>
      <trkpt lat="43.96899" lon="3.00855">
        <ele>652.4</ele>
        <time>2026-04-30T09:10:45.999Z</time>
      </trkpt>
      <trkpt lat="43.96899" lon="3.00855">
        <ele>651.9</ele>
        <time>2026-04-30T09:10:46.999Z</time>
      </trkpt>
      <trkpt lat="43.96899" lon="3.00855">
        <ele>651.7</ele>
        <time>2026-04-30T09:10:47.999Z</time>
      </trkpt>
      <trkpt lat="43.96899" lon="3.00856">
        <ele>651.5</ele>
        <time>2026-04-30T09:10:48.999Z</time>
      </trkpt>
      <trkpt lat="43.96899" lon="3.00856">
        <ele>651.1</ele>
        <time>2026-04-30T09:10:49.999Z</time>
      </trkpt>
      <trkpt lat="43.96899" lon="3.00856">
        <ele>650.9</ele>
        <time>2026-04-30T09:10:50.999Z</time>
      </trkpt>
      <trkpt lat="43.96899" lon="3.00857">
        <ele>650.6</ele>
        <time>2026-04-30T09:10:51.999Z</time>
      </trkpt>
      <trkpt lat="43.969" lon="3.00857">
        <ele>650.3</ele>
        <time>2026-04-30T09:10:52.999Z</time>
      </trkpt>
      <trkpt lat="43.969" lon="3.00858">
        <ele>649.9</ele>
        <time>2026-04-30T09:10:53.999Z</time>
      </trkpt>
      <trkpt lat="43.969" lon="3.00859">
        <ele>649.8</ele>
        <time>2026-04-30T09:10:54.999Z</time>
      </trkpt>
      <trkpt lat="43.969" lon="3.0086">
        <ele>649.7</ele>
        <time>2026-04-30T09:10:55.999Z</time>
      </trkpt>
      <trkpt lat="43.969" lon="3.0086">
        <ele>649.3</ele>
        <time>2026-04-30T09:10:56.999Z</time>
      </trkpt>
      <trkpt lat="43.969" lon="3.00861">
        <ele>649.4</ele>
        <time>2026-04-30T09:10:57.999Z</time>
      </trkpt>
      <trkpt lat="43.969" lon="3.00861">
        <ele>649.1</ele>
        <time>2026-04-30T09:10:58.999Z</time>
      </trkpt>
      <trkpt lat="43.969" lon="3.00862">
        <ele>648.6</ele>
        <time>2026-04-30T09:10:59.999Z</time>
      </trkpt>
      <trkpt lat="43.969" lon="3.00863">
        <ele>648.4</ele>
        <time>2026-04-30T09:11:00.999Z</time>
      </trkpt>
      <trkpt lat="43.96901" lon="3.00864">
        <ele>648.9</ele>
        <time>2026-04-30T09:11:01.999Z</time>
      </trkpt>
      <trkpt lat="43.96901" lon="3.00864">
        <ele>648.7</ele>
        <time>2026-04-30T09:11:02.999Z</time>
      </trkpt>
      <trkpt lat="43.96901" lon="3.00868">
        <ele>648.5</ele>
        <time>2026-04-30T09:11:03.999Z</time>
      </trkpt>
      <trkpt lat="43.96901" lon="3.00871">
        <ele>648.3</ele>
        <time>2026-04-30T09:11:04.999Z</time>
      </trkpt>
      <trkpt lat="43.96901" lon="3.00873">
        <ele>648.2</ele>
        <time>2026-04-30T09:11:05.999Z</time>
      </trkpt>
      <trkpt lat="43.969" lon="3.00874">
        <ele>647.8</ele>
        <time>2026-04-30T09:11:06.999Z</time>
      </trkpt>
      <trkpt lat="43.96901" lon="3.00875">
        <ele>647.5</ele>
        <time>2026-04-30T09:11:07.999Z</time>
      </trkpt>
      <trkpt lat="43.969" lon="3.00877">
        <ele>647</ele>
        <time>2026-04-30T09:11:08.999Z</time>
      </trkpt>
      <trkpt lat="43.96901" lon="3.00879">
        <ele>646.5</ele>
        <time>2026-04-30T09:11:09.999Z</time>
      </trkpt>
      <trkpt lat="43.96901" lon="3.0088">
        <ele>646.2</ele>
        <time>2026-04-30T09:11:10.999Z</time>
      </trkpt>
      <trkpt lat="43.96901" lon="3.00882">
        <ele>645.8</ele>
        <time>2026-04-30T09:11:11.999Z</time>
      </trkpt>
      <trkpt lat="43.96901" lon="3.00884">
        <ele>645.4</ele>
        <time>2026-04-30T09:11:12.999Z</time>
      </trkpt>
      <trkpt lat="43.96901" lon="3.00886">
        <ele>645.1</ele>
        <time>2026-04-30T09:11:13.999Z</time>
      </trkpt>
      <trkpt lat="43.96901" lon="3.00889">
        <ele>644.9</ele>
        <time>2026-04-30T09:11:14.999Z</time>
      </trkpt>
      <trkpt lat="43.96901" lon="3.0089">
        <ele>644.7</ele>
        <time>2026-04-30T09:11:15.999Z</time>
      </trkpt>
      <trkpt lat="43.96902" lon="3.00892">
        <ele>644.4</ele>
        <time>2026-04-30T09:11:16.999Z</time>
      </trkpt>
      <trkpt lat="43.96902" lon="3.00893">
        <ele>644.1</ele>
        <time>2026-04-30T09:11:17.999Z</time>
      </trkpt>
      <trkpt lat="43.96903" lon="3.00894">
        <ele>644</ele>
        <time>2026-04-30T09:11:18.999Z</time>
      </trkpt>
      <trkpt lat="43.96903" lon="3.00895">
        <ele>643.6</ele>
        <time>2026-04-30T09:11:19.999Z</time>
      </trkpt>
      <trkpt lat="43.96903" lon="3.00895">
        <ele>643.6</ele>
        <time>2026-04-30T09:11:20.999Z</time>
      </trkpt>
      <trkpt lat="43.96903" lon="3.00896">
        <ele>643.5</ele>
        <time>2026-04-30T09:11:21.999Z</time>
      </trkpt>
      <trkpt lat="43.96904" lon="3.00897">
        <ele>643.4</ele>
        <time>2026-04-30T09:11:22.999Z</time>
      </trkpt>
      <trkpt lat="43.96905" lon="3.00899">
        <ele>642.8</ele>
        <time>2026-04-30T09:11:23.999Z</time>
      </trkpt>
      <trkpt lat="43.96905" lon="3.009">
        <ele>642.4</ele>
        <time>2026-04-30T09:11:24.999Z</time>
      </trkpt>
      <trkpt lat="43.96905" lon="3.009">
        <ele>642.2</ele>
        <time>2026-04-30T09:11:25.999Z</time>
      </trkpt>
      <trkpt lat="43.96906" lon="3.00901">
        <ele>642.2</ele>
        <time>2026-04-30T09:11:26.999Z</time>
      </trkpt>
      <trkpt lat="43.96906" lon="3.00902">
        <ele>642</ele>
        <time>2026-04-30T09:11:27.999Z</time>
      </trkpt>
      <trkpt lat="43.96907" lon="3.00903">
        <ele>641.7</ele>
        <time>2026-04-30T09:11:28.999Z</time>
      </trkpt>
      <trkpt lat="43.96908" lon="3.00904">
        <ele>641.5</ele>
        <time>2026-04-30T09:11:29.999Z</time>
      </trkpt>
      <trkpt lat="43.96909" lon="3.00905">
        <ele>640.8</ele>
        <time>2026-04-30T09:11:30.999Z</time>
      </trkpt>
      <trkpt lat="43.96909" lon="3.00906">
        <ele>640.4</ele>
        <time>2026-04-30T09:11:31.999Z</time>
      </trkpt>
      <trkpt lat="43.9691" lon="3.00907">
        <ele>639.8</ele>
        <time>2026-04-30T09:11:32.999Z</time>
      </trkpt>
      <trkpt lat="43.9691" lon="3.00909">
        <ele>639.3</ele>
        <time>2026-04-30T09:11:33.999Z</time>
      </trkpt>
      <trkpt lat="43.9691" lon="3.0091">
        <ele>639.3</ele>
        <time>2026-04-30T09:11:34.999Z</time>
      </trkpt>
      <trkpt lat="43.9691" lon="3.0091">
        <ele>639</ele>
        <time>2026-04-30T09:11:35.999Z</time>
      </trkpt>
      <trkpt lat="43.9691" lon="3.0091">
        <ele>639.1</ele>
        <time>2026-04-30T09:11:36.999Z</time>
      </trkpt>
      <trkpt lat="43.96911" lon="3.0091">
        <ele>639</ele>
        <time>2026-04-30T09:11:37.999Z</time>
      </trkpt>
      <trkpt lat="43.96912" lon="3.00911">
        <ele>639</ele>
        <time>2026-04-30T09:11:38.999Z</time>
      </trkpt>
      <trkpt lat="43.96912" lon="3.00913">
        <ele>639.1</ele>
        <time>2026-04-30T09:11:39.999Z</time>
      </trkpt>
      <trkpt lat="43.96913" lon="3.00915">
        <ele>639.1</ele>
        <time>2026-04-30T09:11:40.999Z</time>
      </trkpt>
      <trkpt lat="43.96914" lon="3.00916">
        <ele>639.1</ele>
        <time>2026-04-30T09:11:41.999Z</time>
      </trkpt>
      <trkpt lat="43.96914" lon="3.00917">
        <ele>639.3</ele>
        <time>2026-04-30T09:11:42.999Z</time>
      </trkpt>
      <trkpt lat="43.96915" lon="3.00917">
        <ele>639.3</ele>
        <time>2026-04-30T09:11:43.999Z</time>
      </trkpt>
      <trkpt lat="43.96915" lon="3.00918">
        <ele>639.2</ele>
        <time>2026-04-30T09:11:44.999Z</time>
      </trkpt>
      <trkpt lat="43.96916" lon="3.00919">
        <ele>639.2</ele>
        <time>2026-04-30T09:11:45.999Z</time>
      </trkpt>
      <trkpt lat="43.96917" lon="3.00919">
        <ele>639</ele>
        <time>2026-04-30T09:11:46.999Z</time>
      </trkpt>
      <trkpt lat="43.96918" lon="3.0092">
        <ele>638.6</ele>
        <time>2026-04-30T09:11:47.999Z</time>
      </trkpt>
      <trkpt lat="43.96919" lon="3.00921">
        <ele>638.3</ele>
        <time>2026-04-30T09:11:48.999Z</time>
      </trkpt>
      <trkpt lat="43.9692" lon="3.00921">
        <ele>638</ele>
        <time>2026-04-30T09:11:49.999Z</time>
      </trkpt>
      <trkpt lat="43.96921" lon="3.00921">
        <ele>637.3</ele>
        <time>2026-04-30T09:11:50.999Z</time>
      </trkpt>
      <trkpt lat="43.96922" lon="3.00921">
        <ele>636.7</ele>
        <time>2026-04-30T09:11:51.999Z</time>
      </trkpt>
      <trkpt lat="43.96923" lon="3.00922">
        <ele>636</ele>
        <time>2026-04-30T09:11:52.999Z</time>
      </trkpt>
      <trkpt lat="43.96923" lon="3.00923">
        <ele>636.5</ele>
        <time>2026-04-30T09:11:53.999Z</time>
      </trkpt>
      <trkpt lat="43.96924" lon="3.00924">
        <ele>636.2</ele>
        <time>2026-04-30T09:11:54.999Z</time>
      </trkpt>
      <trkpt lat="43.96925" lon="3.00925">
        <ele>635.8</ele>
        <time>2026-04-30T09:11:55.999Z</time>
      </trkpt>
      <trkpt lat="43.96927" lon="3.00926">
        <ele>635.7</ele>
        <time>2026-04-30T09:11:56.999Z</time>
      </trkpt>
      <trkpt lat="43.96929" lon="3.00927">
        <ele>635.4</ele>
        <time>2026-04-30T09:11:57.999Z</time>
      </trkpt>
      <trkpt lat="43.9693" lon="3.00927">
        <ele>635.3</ele>
        <time>2026-04-30T09:11:58.999Z</time>
      </trkpt>
      <trkpt lat="43.9693" lon="3.00928">
        <ele>635</ele>
        <time>2026-04-30T09:11:59.999Z</time>
      </trkpt>
      <trkpt lat="43.9693" lon="3.00929">
        <ele>634.6</ele>
        <time>2026-04-30T09:12:00.999Z</time>
      </trkpt>
      <trkpt lat="43.96931" lon="3.0093">
        <ele>634.3</ele>
        <time>2026-04-30T09:12:01.999Z</time>
      </trkpt>
      <trkpt lat="43.96933" lon="3.0093">
        <ele>633.7</ele>
        <time>2026-04-30T09:12:02.999Z</time>
      </trkpt>
      <trkpt lat="43.96935" lon="3.0093">
        <ele>633.1</ele>
        <time>2026-04-30T09:12:03.999Z</time>
      </trkpt>
      <trkpt lat="43.96936" lon="3.00931">
        <ele>632.6</ele>
        <time>2026-04-30T09:12:04.999Z</time>
      </trkpt>
      <trkpt lat="43.96936" lon="3.00932">
        <ele>632.2</ele>
        <time>2026-04-30T09:12:05.999Z</time>
      </trkpt>
      <trkpt lat="43.96937" lon="3.00933">
        <ele>631.8</ele>
        <time>2026-04-30T09:12:06.999Z</time>
      </trkpt>
      <trkpt lat="43.96938" lon="3.00934">
        <ele>631.4</ele>
        <time>2026-04-30T09:12:07.999Z</time>
      </trkpt>
      <trkpt lat="43.96938" lon="3.00935">
        <ele>631.4</ele>
        <time>2026-04-30T09:12:08.999Z</time>
      </trkpt>
      <trkpt lat="43.96939" lon="3.00936">
        <ele>631</ele>
        <time>2026-04-30T09:12:09.999Z</time>
      </trkpt>
      <trkpt lat="43.96939" lon="3.00937">
        <ele>630.5</ele>
        <time>2026-04-30T09:12:10.999Z</time>
      </trkpt>
      <trkpt lat="43.9694" lon="3.00938">
        <ele>630</ele>
        <time>2026-04-30T09:12:11.999Z</time>
      </trkpt>
      <trkpt lat="43.9694" lon="3.00937">
        <ele>629.9</ele>
        <time>2026-04-30T09:12:12.999Z</time>
      </trkpt>
      <trkpt lat="43.9694" lon="3.00936">
        <ele>629.5</ele>
        <time>2026-04-30T09:12:13.999Z</time>
      </trkpt>
      <trkpt lat="43.96939" lon="3.00936">
        <ele>630</ele>
        <time>2026-04-30T09:12:14.999Z</time>
      </trkpt>
      <trkpt lat="43.96939" lon="3.00937">
        <ele>630</ele>
        <time>2026-04-30T09:12:15.999Z</time>
      </trkpt>
      <trkpt lat="43.96938" lon="3.00938">
        <ele>630.1</ele>
        <time>2026-04-30T09:12:16.999Z</time>
      </trkpt>
      <trkpt lat="43.96937" lon="3.00938">
        <ele>629.9</ele>
        <time>2026-04-30T09:12:17.999Z</time>
      </trkpt>
      <trkpt lat="43.96936" lon="3.00939">
        <ele>629.3</ele>
        <time>2026-04-30T09:12:18.999Z</time>
      </trkpt>
      <trkpt lat="43.96935" lon="3.0094">
        <ele>628.8</ele>
        <time>2026-04-30T09:12:19.999Z</time>
      </trkpt>
      <trkpt lat="43.96934" lon="3.00942">
        <ele>628.4</ele>
        <time>2026-04-30T09:12:20.999Z</time>
      </trkpt>
      <trkpt lat="43.96933" lon="3.00942">
        <ele>628.3</ele>
        <time>2026-04-30T09:12:21.999Z</time>
      </trkpt>
      <trkpt lat="43.96931" lon="3.00943">
        <ele>628.2</ele>
        <time>2026-04-30T09:12:22.999Z</time>
      </trkpt>
      <trkpt lat="43.9693" lon="3.00943">
        <ele>628.1</ele>
        <time>2026-04-30T09:12:23.999Z</time>
      </trkpt>
      <trkpt lat="43.96928" lon="3.00943">
        <ele>627.7</ele>
        <time>2026-04-30T09:12:24.999Z</time>
      </trkpt>
      <trkpt lat="43.96927" lon="3.00943">
        <ele>627.2</ele>
        <time>2026-04-30T09:12:25.999Z</time>
      </trkpt>
      <trkpt lat="43.96926" lon="3.00943">
        <ele>627.2</ele>
        <time>2026-04-30T09:12:26.999Z</time>
      </trkpt>
      <trkpt lat="43.96925" lon="3.00944">
        <ele>627.4</ele>
        <time>2026-04-30T09:12:27.999Z</time>
      </trkpt>
      <trkpt lat="43.96924" lon="3.00944">
        <ele>627.3</ele>
        <time>2026-04-30T09:12:28.999Z</time>
      </trkpt>
      <trkpt lat="43.96923" lon="3.00945">
        <ele>627</ele>
        <time>2026-04-30T09:12:29.999Z</time>
      </trkpt>
      <trkpt lat="43.96923" lon="3.00946">
        <ele>627.3</ele>
        <time>2026-04-30T09:12:30.999Z</time>
      </trkpt>
      <trkpt lat="43.96922" lon="3.00948">
        <ele>626.9</ele>
        <time>2026-04-30T09:12:31.999Z</time>
      </trkpt>
      <trkpt lat="43.96922" lon="3.0095">
        <ele>626.5</ele>
        <time>2026-04-30T09:12:32.999Z</time>
      </trkpt>
      <trkpt lat="43.96921" lon="3.00952">
        <ele>626.2</ele>
        <time>2026-04-30T09:12:33.999Z</time>
      </trkpt>
      <trkpt lat="43.96921" lon="3.00954">
        <ele>625.8</ele>
        <time>2026-04-30T09:12:34.999Z</time>
      </trkpt>
      <trkpt lat="43.96921" lon="3.00957">
        <ele>625.8</ele>
        <time>2026-04-30T09:12:35.999Z</time>
      </trkpt>
      <trkpt lat="43.96921" lon="3.00959">
        <ele>625.7</ele>
        <time>2026-04-30T09:12:36.999Z</time>
      </trkpt>
      <trkpt lat="43.96921" lon="3.00961">
        <ele>625.7</ele>
        <time>2026-04-30T09:12:37.999Z</time>
      </trkpt>
      <trkpt lat="43.96921" lon="3.00962">
        <ele>625.1</ele>
        <time>2026-04-30T09:12:38.999Z</time>
      </trkpt>
      <trkpt lat="43.9692" lon="3.00964">
        <ele>624.4</ele>
        <time>2026-04-30T09:12:39.999Z</time>
      </trkpt>
      <trkpt lat="43.9692" lon="3.00964">
        <ele>623.8</ele>
        <time>2026-04-30T09:12:40.999Z</time>
      </trkpt>
      <trkpt lat="43.96919" lon="3.00965">
        <ele>623.3</ele>
        <time>2026-04-30T09:12:41.999Z</time>
      </trkpt>
      <trkpt lat="43.96919" lon="3.00967">
        <ele>622.7</ele>
        <time>2026-04-30T09:12:42.999Z</time>
      </trkpt>
      <trkpt lat="43.96919" lon="3.00968">
        <ele>622.5</ele>
        <time>2026-04-30T09:12:43.999Z</time>
      </trkpt>
      <trkpt lat="43.9692" lon="3.00968">
        <ele>622</ele>
        <time>2026-04-30T09:12:44.999Z</time>
      </trkpt>
      <trkpt lat="43.96921" lon="3.0097">
        <ele>621.8</ele>
        <time>2026-04-30T09:12:45.999Z</time>
      </trkpt>
      <trkpt lat="43.96921" lon="3.00971">
        <ele>621.5</ele>
        <time>2026-04-30T09:12:46.999Z</time>
      </trkpt>
      <trkpt lat="43.96922" lon="3.00973">
        <ele>620.4</ele>
        <time>2026-04-30T09:12:47.999Z</time>
      </trkpt>
      <trkpt lat="43.96922" lon="3.00974">
        <ele>619.8</ele>
        <time>2026-04-30T09:12:48.999Z</time>
      </trkpt>
      <trkpt lat="43.96923" lon="3.00975">
        <ele>619.3</ele>
        <time>2026-04-30T09:12:49.999Z</time>
      </trkpt>
      <trkpt lat="43.96923" lon="3.00975">
        <ele>619.1</ele>
        <time>2026-04-30T09:12:50.999Z</time>
      </trkpt>
      <trkpt lat="43.96924" lon="3.00975">
        <ele>618.3</ele>
        <time>2026-04-30T09:12:51.999Z</time>
      </trkpt>
      <trkpt lat="43.96924" lon="3.00976">
        <ele>617.8</ele>
        <time>2026-04-30T09:12:52.999Z</time>
      </trkpt>
      <trkpt lat="43.96924" lon="3.00977">
        <ele>617.4</ele>
        <time>2026-04-30T09:12:53.999Z</time>
      </trkpt>
      <trkpt lat="43.96924" lon="3.00978">
        <ele>616.8</ele>
        <time>2026-04-30T09:12:54.999Z</time>
      </trkpt>
      <trkpt lat="43.96925" lon="3.00979">
        <ele>616.6</ele>
        <time>2026-04-30T09:12:55.999Z</time>
      </trkpt>
      <trkpt lat="43.96925" lon="3.0098">
        <ele>616.4</ele>
        <time>2026-04-30T09:12:56.999Z</time>
      </trkpt>
      <trkpt lat="43.96925" lon="3.00981">
        <ele>616.1</ele>
        <time>2026-04-30T09:12:57.999Z</time>
      </trkpt>
      <trkpt lat="43.96925" lon="3.00983">
        <ele>615.7</ele>
        <time>2026-04-30T09:12:58.999Z</time>
      </trkpt>
      <trkpt lat="43.96926" lon="3.00984">
        <ele>615.2</ele>
        <time>2026-04-30T09:12:59.999Z</time>
      </trkpt>
      <trkpt lat="43.96926" lon="3.00985">
        <ele>614.9</ele>
        <time>2026-04-30T09:13:00.999Z</time>
      </trkpt>
      <trkpt lat="43.96926" lon="3.00987">
        <ele>614.7</ele>
        <time>2026-04-30T09:13:01.999Z</time>
      </trkpt>
      <trkpt lat="43.96927" lon="3.00989">
        <ele>614.7</ele>
        <time>2026-04-30T09:13:02.999Z</time>
      </trkpt>
      <trkpt lat="43.96928" lon="3.00991">
        <ele>614.4</ele>
        <time>2026-04-30T09:13:03.999Z</time>
      </trkpt>
      <trkpt lat="43.96928" lon="3.00993">
        <ele>614</ele>
        <time>2026-04-30T09:13:04.999Z</time>
      </trkpt>
      <trkpt lat="43.96929" lon="3.00994">
        <ele>613.6</ele>
        <time>2026-04-30T09:13:05.999Z</time>
      </trkpt>
      <trkpt lat="43.9693" lon="3.00995">
        <ele>613.4</ele>
        <time>2026-04-30T09:13:06.999Z</time>
      </trkpt>
      <trkpt lat="43.9693" lon="3.00997">
        <ele>613</ele>
        <time>2026-04-30T09:13:07.999Z</time>
      </trkpt>
      <trkpt lat="43.9693" lon="3.00999">
        <ele>612.9</ele>
        <time>2026-04-30T09:13:08.999Z</time>
      </trkpt>
      <trkpt lat="43.96931" lon="3.01001">
        <ele>612.9</ele>
        <time>2026-04-30T09:13:09.999Z</time>
      </trkpt>
      <trkpt lat="43.96932" lon="3.01003">
        <ele>613.3</ele>
        <time>2026-04-30T09:13:10.999Z</time>
      </trkpt>
      <trkpt lat="43.96932" lon="3.01003">
        <ele>613.1</ele>
        <time>2026-04-30T09:13:11.999Z</time>
      </trkpt>
      <trkpt lat="43.96932" lon="3.01004">
        <ele>613.1</ele>
        <time>2026-04-30T09:13:12.999Z</time>
      </trkpt>
      <trkpt lat="43.96932" lon="3.01005">
        <ele>613.2</ele>
        <time>2026-04-30T09:13:13.999Z</time>
      </trkpt>
      <trkpt lat="43.96932" lon="3.01006">
        <ele>613.5</ele>
        <time>2026-04-30T09:13:14.999Z</time>
      </trkpt>
      <trkpt lat="43.96932" lon="3.01008">
        <ele>613.2</ele>
        <time>2026-04-30T09:13:15.999Z</time>
      </trkpt>
      <trkpt lat="43.96932" lon="3.01009">
        <ele>613.4</ele>
        <time>2026-04-30T09:13:16.999Z</time>
      </trkpt>
      <trkpt lat="43.96932" lon="3.01009">
        <ele>613.5</ele>
        <time>2026-04-30T09:13:17.999Z</time>
      </trkpt>
      <trkpt lat="43.96932" lon="3.0101">
        <ele>613.5</ele>
        <time>2026-04-30T09:13:18.999Z</time>
      </trkpt>
      <trkpt lat="43.96931" lon="3.01011">
        <ele>613.2</ele>
        <time>2026-04-30T09:13:19.999Z</time>
      </trkpt>
      <trkpt lat="43.96931" lon="3.01012">
        <ele>612.9</ele>
        <time>2026-04-30T09:13:20.999Z</time>
      </trkpt>
      <trkpt lat="43.96931" lon="3.01013">
        <ele>612.9</ele>
        <time>2026-04-30T09:13:21.999Z</time>
      </trkpt>
      <trkpt lat="43.9693" lon="3.01013">
        <ele>612.4</ele>
        <time>2026-04-30T09:13:22.999Z</time>
      </trkpt>
      <trkpt lat="43.96929" lon="3.01014">
        <ele>612.1</ele>
        <time>2026-04-30T09:13:23.999Z</time>
      </trkpt>
      <trkpt lat="43.96929" lon="3.01015">
        <ele>611.7</ele>
        <time>2026-04-30T09:13:24.999Z</time>
      </trkpt>
      <trkpt lat="43.96928" lon="3.01017">
        <ele>611.7</ele>
        <time>2026-04-30T09:13:25.999Z</time>
      </trkpt>
      <trkpt lat="43.96928" lon="3.01017">
        <ele>611.4</ele>
        <time>2026-04-30T09:13:26.999Z</time>
      </trkpt>
      <trkpt lat="43.96927" lon="3.01018">
        <ele>611.3</ele>
        <time>2026-04-30T09:13:27.999Z</time>
      </trkpt>
      <trkpt lat="43.96927" lon="3.01019">
        <ele>611.3</ele>
        <time>2026-04-30T09:13:28.999Z</time>
      </trkpt>
      <trkpt lat="43.96926" lon="3.0102">
        <ele>611.4</ele>
        <time>2026-04-30T09:13:29.999Z</time>
      </trkpt>
      <trkpt lat="43.96926" lon="3.01021">
        <ele>611.3</ele>
        <time>2026-04-30T09:13:30.999Z</time>
      </trkpt>
      <trkpt lat="43.96926" lon="3.01023">
        <ele>611.3</ele>
        <time>2026-04-30T09:13:31.999Z</time>
      </trkpt>
      <trkpt lat="43.96925" lon="3.01024">
        <ele>611</ele>
        <time>2026-04-30T09:13:32.999Z</time>
      </trkpt>
      <trkpt lat="43.96925" lon="3.01026">
        <ele>611</ele>
        <time>2026-04-30T09:13:33.999Z</time>
      </trkpt>
      <trkpt lat="43.96925" lon="3.01027">
        <ele>610.7</ele>
        <time>2026-04-30T09:13:34.999Z</time>
      </trkpt>
      <trkpt lat="43.96925" lon="3.01028">
        <ele>610.8</ele>
        <time>2026-04-30T09:13:35.999Z</time>
      </trkpt>
      <trkpt lat="43.96925" lon="3.0103">
        <ele>610.5</ele>
        <time>2026-04-30T09:13:36.999Z</time>
      </trkpt>
      <trkpt lat="43.96925" lon="3.0103">
        <ele>610.1</ele>
        <time>2026-04-30T09:13:37.999Z</time>
      </trkpt>
      <trkpt lat="43.96924" lon="3.0103">
        <ele>610.2</ele>
        <time>2026-04-30T09:13:38.999Z</time>
      </trkpt>
      <trkpt lat="43.96924" lon="3.01029">
        <ele>610.6</ele>
        <time>2026-04-30T09:13:39.999Z</time>
      </trkpt>
      <trkpt lat="43.96923" lon="3.0103">
        <ele>610.3</ele>
        <time>2026-04-30T09:13:40.999Z</time>
      </trkpt>
      <trkpt lat="43.96923" lon="3.0103">
        <ele>610.2</ele>
        <time>2026-04-30T09:13:41.999Z</time>
      </trkpt>
      <trkpt lat="43.96923" lon="3.0103">
        <ele>610.4</ele>
        <time>2026-04-30T09:13:42.999Z</time>
      </trkpt>
      <trkpt lat="43.96923" lon="3.0103">
        <ele>610.5</ele>
        <time>2026-04-30T09:13:43.999Z</time>
      </trkpt>
      <trkpt lat="43.96923" lon="3.0103">
        <ele>610.6</ele>
        <time>2026-04-30T09:13:44.999Z</time>
      </trkpt>
      <trkpt lat="43.96923" lon="3.0103">
        <ele>610.5</ele>
        <time>2026-04-30T09:13:45.999Z</time>
      </trkpt>
      <trkpt lat="43.96923" lon="3.0103">
        <ele>610.3</ele>
        <time>2026-04-30T09:13:46.999Z</time>
      </trkpt>
      <trkpt lat="43.96923" lon="3.0103">
        <ele>609.9</ele>
        <time>2026-04-30T09:13:47.999Z</time>
      </trkpt>
      <trkpt lat="43.96923" lon="3.0103">
        <ele>609.8</ele>
        <time>2026-04-30T09:13:48.999Z</time>
      </trkpt>
      <trkpt lat="43.96923" lon="3.01031">
        <ele>609.3</ele>
        <time>2026-04-30T09:13:49.999Z</time>
      </trkpt>
      <trkpt lat="43.96923" lon="3.01031">
        <ele>609</ele>
        <time>2026-04-30T09:13:50.999Z</time>
      </trkpt>
      <trkpt lat="43.96923" lon="3.01031">
        <ele>608.4</ele>
        <time>2026-04-30T09:13:51.999Z</time>
      </trkpt>
      <trkpt lat="43.96923" lon="3.01031">
        <ele>607.9</ele>
        <time>2026-04-30T09:13:52.999Z</time>
      </trkpt>
      <trkpt lat="43.96923" lon="3.01031">
        <ele>606.9</ele>
        <time>2026-04-30T09:13:53.999Z</time>
      </trkpt>
      <trkpt lat="43.96923" lon="3.01031">
        <ele>606</ele>
        <time>2026-04-30T09:13:54.999Z</time>
      </trkpt>
      <trkpt lat="43.96923" lon="3.01032">
        <ele>605</ele>
        <time>2026-04-30T09:13:55.999Z</time>
      </trkpt>
      <trkpt lat="43.96923" lon="3.01032">
        <ele>604.3</ele>
        <time>2026-04-30T09:13:56.999Z</time>
      </trkpt>
      <trkpt lat="43.96923" lon="3.01032">
        <ele>604.2</ele>
        <time>2026-04-30T09:13:57.999Z</time>
      </trkpt>
      <trkpt lat="43.96924" lon="3.01032">
        <ele>603.7</ele>
        <time>2026-04-30T09:13:58.999Z</time>
      </trkpt>
      <trkpt lat="43.96924" lon="3.01033">
        <ele>603.4</ele>
        <time>2026-04-30T09:13:59.999Z</time>
      </trkpt>
      <trkpt lat="43.96924" lon="3.01033">
        <ele>603.4</ele>
        <time>2026-04-30T09:14:00.999Z</time>
      </trkpt>
      <trkpt lat="43.96924" lon="3.01033">
        <ele>603.4</ele>
        <time>2026-04-30T09:14:01.999Z</time>
      </trkpt>
      <trkpt lat="43.96924" lon="3.01033">
        <ele>603.6</ele>
        <time>2026-04-30T09:14:02.999Z</time>
      </trkpt>
      <trkpt lat="43.96924" lon="3.01033">
        <ele>603.5</ele>
        <time>2026-04-30T09:14:03.999Z</time>
      </trkpt>
      <trkpt lat="43.96924" lon="3.01033">
        <ele>603.5</ele>
        <time>2026-04-30T09:14:04.999Z</time>
      </trkpt>
      <trkpt lat="43.96924" lon="3.01033">
        <ele>603.6</ele>
        <time>2026-04-30T09:14:05.999Z</time>
      </trkpt>
      <trkpt lat="43.96924" lon="3.01033">
        <ele>603.5</ele>
        <time>2026-04-30T09:14:06.999Z</time>
      </trkpt>
      <trkpt lat="43.96924" lon="3.01033">
        <ele>603.4</ele>
        <time>2026-04-30T09:14:07.999Z</time>
      </trkpt>
      <trkpt lat="43.96924" lon="3.01033">
        <ele>603.6</ele>
        <time>2026-04-30T09:14:08.999Z</time>
      </trkpt>
      <trkpt lat="43.96925" lon="3.01034">
        <ele>604.1</ele>
        <time>2026-04-30T09:14:09.999Z</time>
      </trkpt>
      <trkpt lat="43.96925" lon="3.01034">
        <ele>604.6</ele>
        <time>2026-04-30T09:14:10.999Z</time>
      </trkpt>
      <trkpt lat="43.96925" lon="3.01034">
        <ele>605</ele>
        <time>2026-04-30T09:14:11.999Z</time>
      </trkpt>
      <trkpt lat="43.96926" lon="3.01035">
        <ele>605.3</ele>
        <time>2026-04-30T09:14:12.999Z</time>
      </trkpt>
      <trkpt lat="43.96926" lon="3.01035">
        <ele>605.6</ele>
        <time>2026-04-30T09:14:13.999Z</time>
      </trkpt>
      <trkpt lat="43.96926" lon="3.01035">
        <ele>605.9</ele>
        <time>2026-04-30T09:14:14.999Z</time>
      </trkpt>
      <trkpt lat="43.96926" lon="3.01036">
        <ele>606.2</ele>
        <time>2026-04-30T09:14:15.999Z</time>
      </trkpt>
      <trkpt lat="43.96926" lon="3.01036">
        <ele>606.3</ele>
        <time>2026-04-30T09:14:16.999Z</time>
      </trkpt>
      <trkpt lat="43.96926" lon="3.01036">
        <ele>606.5</ele>
        <time>2026-04-30T09:14:17.999Z</time>
      </trkpt>
      <trkpt lat="43.96926" lon="3.01036">
        <ele>606.4</ele>
        <time>2026-04-30T09:14:18.999Z</time>
      </trkpt>
      <trkpt lat="43.96926" lon="3.01036">
        <ele>606.1</ele>
        <time>2026-04-30T09:14:19.999Z</time>
      </trkpt>
      <trkpt lat="43.96927" lon="3.01037">
        <ele>605.9</ele>
        <time>2026-04-30T09:14:20.999Z</time>
      </trkpt>
      <trkpt lat="43.96927" lon="3.01037">
        <ele>605.8</ele>
        <time>2026-04-30T09:14:21.999Z</time>
      </trkpt>
      <trkpt lat="43.96927" lon="3.01037">
        <ele>606.2</ele>
        <time>2026-04-30T09:14:22.999Z</time>
      </trkpt>
      <trkpt lat="43.96927" lon="3.01037">
        <ele>606.3</ele>
        <time>2026-04-30T09:14:23.999Z</time>
      </trkpt>
      <trkpt lat="43.96927" lon="3.01037">
        <ele>606.4</ele>
        <time>2026-04-30T09:14:24.999Z</time>
      </trkpt>
      <trkpt lat="43.96927" lon="3.01038">
        <ele>606.5</ele>
        <time>2026-04-30T09:14:25.999Z</time>
      </trkpt>
      <trkpt lat="43.96927" lon="3.01038">
        <ele>606.4</ele>
        <time>2026-04-30T09:14:26.999Z</time>
      </trkpt>
      <trkpt lat="43.96927" lon="3.01038">
        <ele>606.4</ele>
        <time>2026-04-30T09:14:27.999Z</time>
      </trkpt>
      <trkpt lat="43.96927" lon="3.01039">
        <ele>606.3</ele>
        <time>2026-04-30T09:14:28.999Z</time>
      </trkpt>
      <trkpt lat="43.96927" lon="3.01039">
        <ele>606.3</ele>
        <time>2026-04-30T09:14:29.999Z</time>
      </trkpt>
      <trkpt lat="43.96928" lon="3.01039">
        <ele>606.2</ele>
        <time>2026-04-30T09:14:30.999Z</time>
      </trkpt>
      <trkpt lat="43.96928" lon="3.01039">
        <ele>606.1</ele>
        <time>2026-04-30T09:14:31.999Z</time>
      </trkpt>
      <trkpt lat="43.96928" lon="3.0104">
        <ele>606.1</ele>
        <time>2026-04-30T09:14:32.999Z</time>
      </trkpt>
      <trkpt lat="43.96928" lon="3.0104">
        <ele>606.3</ele>
        <time>2026-04-30T09:14:33.999Z</time>
      </trkpt>
      <trkpt lat="43.96928" lon="3.01041">
        <ele>606.1</ele>
        <time>2026-04-30T09:14:34.999Z</time>
      </trkpt>
      <trkpt lat="43.96928" lon="3.01042">
        <ele>605.6</ele>
        <time>2026-04-30T09:14:35.999Z</time>
      </trkpt>
      <trkpt lat="43.96929" lon="3.01042">
        <ele>605</ele>
        <time>2026-04-30T09:14:36.999Z</time>
      </trkpt>
      <trkpt lat="43.96929" lon="3.01042">
        <ele>604.5</ele>
        <time>2026-04-30T09:14:37.999Z</time>
      </trkpt>
      <trkpt lat="43.96929" lon="3.01042">
        <ele>604.4</ele>
        <time>2026-04-30T09:14:38.999Z</time>
      </trkpt>
      <trkpt lat="43.96929" lon="3.01043">
        <ele>604.3</ele>
        <time>2026-04-30T09:14:40.999Z</time>
      </trkpt>
      <trkpt lat="43.96929" lon="3.01045">
        <ele>604.5</ele>
        <time>2026-04-30T09:14:41.999Z</time>
      </trkpt>
      <trkpt lat="43.96929" lon="3.01046">
        <ele>604.8</ele>
        <time>2026-04-30T09:14:42.999Z</time>
      </trkpt>
      <trkpt lat="43.9693" lon="3.01048">
        <ele>604.9</ele>
        <time>2026-04-30T09:14:43.999Z</time>
      </trkpt>
      <trkpt lat="43.9693" lon="3.01048">
        <ele>605.1</ele>
        <time>2026-04-30T09:14:44.999Z</time>
      </trkpt>
      <trkpt lat="43.9693" lon="3.01049">
        <ele>604.7</ele>
        <time>2026-04-30T09:14:45.999Z</time>
      </trkpt>
      <trkpt lat="43.9693" lon="3.0105">
        <ele>604.7</ele>
        <time>2026-04-30T09:14:46.999Z</time>
      </trkpt>
      <trkpt lat="43.9693" lon="3.0105">
        <ele>604.1</ele>
        <time>2026-04-30T09:14:47.999Z</time>
      </trkpt>
      <trkpt lat="43.9693" lon="3.0105">
        <ele>603.8</ele>
        <time>2026-04-30T09:14:48.999Z</time>
      </trkpt>
      <trkpt lat="43.96931" lon="3.01051">
        <ele>603.2</ele>
        <time>2026-04-30T09:14:49.999Z</time>
      </trkpt>
      <trkpt lat="43.96931" lon="3.01051">
        <ele>602.7</ele>
        <time>2026-04-30T09:14:50.999Z</time>
      </trkpt>
      <trkpt lat="43.96931" lon="3.01052">
        <ele>602.3</ele>
        <time>2026-04-30T09:14:51.999Z</time>
      </trkpt>
      <trkpt lat="43.96931" lon="3.01052">
        <ele>602</ele>
        <time>2026-04-30T09:14:52.999Z</time>
      </trkpt>
      <trkpt lat="43.96931" lon="3.01053">
        <ele>601.3</ele>
        <time>2026-04-30T09:14:53.999Z</time>
      </trkpt>
      <trkpt lat="43.96931" lon="3.01053">
        <ele>601.1</ele>
        <time>2026-04-30T09:14:54.999Z</time>
      </trkpt>
      <trkpt lat="43.96931" lon="3.01054">
        <ele>600.8</ele>
        <time>2026-04-30T09:14:55.999Z</time>
      </trkpt>
      <trkpt lat="43.96931" lon="3.01054">
        <ele>600.2</ele>
        <time>2026-04-30T09:14:56.999Z</time>
      </trkpt>
      <trkpt lat="43.96931" lon="3.01055">
        <ele>599.9</ele>
        <time>2026-04-30T09:14:57.999Z</time>
      </trkpt>
      <trkpt lat="43.96931" lon="3.01056">
        <ele>599.7</ele>
        <time>2026-04-30T09:14:58.999Z</time>
      </trkpt>
      <trkpt lat="43.96932" lon="3.01059">
        <ele>599.8</ele>
        <time>2026-04-30T09:14:59.999Z</time>
      </trkpt>
      <trkpt lat="43.96932" lon="3.01064">
        <ele>599.3</ele>
        <time>2026-04-30T09:15:00.999Z</time>
      </trkpt>
      <trkpt lat="43.96933" lon="3.01067">
        <ele>598.7</ele>
        <time>2026-04-30T09:15:01.999Z</time>
      </trkpt>
      <trkpt lat="43.96932" lon="3.01067">
        <ele>598.1</ele>
        <time>2026-04-30T09:15:02.999Z</time>
      </trkpt>
      <trkpt lat="43.96932" lon="3.01068">
        <ele>597.7</ele>
        <time>2026-04-30T09:15:03.999Z</time>
      </trkpt>
      <trkpt lat="43.96932" lon="3.01068">
        <ele>597.2</ele>
        <time>2026-04-30T09:15:04.999Z</time>
      </trkpt>
      <trkpt lat="43.96933" lon="3.01069">
        <ele>596.7</ele>
        <time>2026-04-30T09:15:05.999Z</time>
      </trkpt>
      <trkpt lat="43.96933" lon="3.01069">
        <ele>596.1</ele>
        <time>2026-04-30T09:15:06.999Z</time>
      </trkpt>
      <trkpt lat="43.96933" lon="3.0107">
        <ele>596.2</ele>
        <time>2026-04-30T09:15:07.999Z</time>
      </trkpt>
      <trkpt lat="43.96933" lon="3.0107">
        <ele>596.2</ele>
        <time>2026-04-30T09:15:08.999Z</time>
      </trkpt>
      <trkpt lat="43.96933" lon="3.0107">
        <ele>595.2</ele>
        <time>2026-04-30T09:15:09.999Z</time>
      </trkpt>
      <trkpt lat="43.96933" lon="3.0107">
        <ele>594.3</ele>
        <time>2026-04-30T09:15:10.999Z</time>
      </trkpt>
      <trkpt lat="43.96933" lon="3.01071">
        <ele>593.8</ele>
        <time>2026-04-30T09:15:11.999Z</time>
      </trkpt>
      <trkpt lat="43.96933" lon="3.01071">
        <ele>593.4</ele>
        <time>2026-04-30T09:15:12.999Z</time>
      </trkpt>
      <trkpt lat="43.96934" lon="3.01071">
        <ele>592.9</ele>
        <time>2026-04-30T09:15:13.999Z</time>
      </trkpt>
      <trkpt lat="43.96934" lon="3.01073">
        <ele>592.5</ele>
        <time>2026-04-30T09:15:14.999Z</time>
      </trkpt>
      <trkpt lat="43.96934" lon="3.01073">
        <ele>592.5</ele>
        <time>2026-04-30T09:15:15.999Z</time>
      </trkpt>
      <trkpt lat="43.96934" lon="3.01074">
        <ele>592.2</ele>
        <time>2026-04-30T09:15:16.999Z</time>
      </trkpt>
      <trkpt lat="43.96935" lon="3.01075">
        <ele>591.6</ele>
        <time>2026-04-30T09:15:17.999Z</time>
      </trkpt>
      <trkpt lat="43.96935" lon="3.01076">
        <ele>591.2</ele>
        <time>2026-04-30T09:15:18.999Z</time>
      </trkpt>
      <trkpt lat="43.96935" lon="3.01077">
        <ele>591</ele>
        <time>2026-04-30T09:15:19.999Z</time>
      </trkpt>
      <trkpt lat="43.96935" lon="3.01078">
        <ele>590.9</ele>
        <time>2026-04-30T09:15:20.999Z</time>
      </trkpt>
      <trkpt lat="43.96936" lon="3.01079">
        <ele>590.6</ele>
        <time>2026-04-30T09:15:21.999Z</time>
      </trkpt>
      <trkpt lat="43.96936" lon="3.01079">
        <ele>590.2</ele>
        <time>2026-04-30T09:15:22.999Z</time>
      </trkpt>
      <trkpt lat="43.96936" lon="3.0108">
        <ele>590</ele>
        <time>2026-04-30T09:15:23.999Z</time>
      </trkpt>
      <trkpt lat="43.96937" lon="3.01081">
        <ele>589.6</ele>
        <time>2026-04-30T09:15:24.999Z</time>
      </trkpt>
      <trkpt lat="43.96937" lon="3.01081">
        <ele>589</ele>
        <time>2026-04-30T09:15:25.999Z</time>
      </trkpt>
      <trkpt lat="43.96937" lon="3.01082">
        <ele>588.5</ele>
        <time>2026-04-30T09:15:26.999Z</time>
      </trkpt>
      <trkpt lat="43.96937" lon="3.01083">
        <ele>588.1</ele>
        <time>2026-04-30T09:15:27.999Z</time>
      </trkpt>
      <trkpt lat="43.96938" lon="3.01083">
        <ele>587.4</ele>
        <time>2026-04-30T09:15:28.999Z</time>
      </trkpt>
      <trkpt lat="43.96938" lon="3.01084">
        <ele>587</ele>
        <time>2026-04-30T09:15:29.999Z</time>
      </trkpt>
      <trkpt lat="43.96938" lon="3.01084">
        <ele>586.5</ele>
        <time>2026-04-30T09:15:30.999Z</time>
      </trkpt>
      <trkpt lat="43.96938" lon="3.01085">
        <ele>586.4</ele>
        <time>2026-04-30T09:15:31.999Z</time>
      </trkpt>
      <trkpt lat="43.96938" lon="3.01085">
        <ele>586</ele>
        <time>2026-04-30T09:15:32.999Z</time>
      </trkpt>
      <trkpt lat="43.96938" lon="3.01086">
        <ele>585.9</ele>
        <time>2026-04-30T09:15:33.999Z</time>
      </trkpt>
      <trkpt lat="43.96938" lon="3.01087">
        <ele>585.2</ele>
        <time>2026-04-30T09:15:34.999Z</time>
      </trkpt>
      <trkpt lat="43.96939" lon="3.01088">
        <ele>585</ele>
        <time>2026-04-30T09:15:35.999Z</time>
      </trkpt>
      <trkpt lat="43.96939" lon="3.01088">
        <ele>584.7</ele>
        <time>2026-04-30T09:15:36.999Z</time>
      </trkpt>
      <trkpt lat="43.96939" lon="3.01089">
        <ele>584.5</ele>
        <time>2026-04-30T09:15:37.999Z</time>
      </trkpt>
      <trkpt lat="43.96939" lon="3.01089">
        <ele>584.6</ele>
        <time>2026-04-30T09:15:38.999Z</time>
      </trkpt>
      <trkpt lat="43.96939" lon="3.01089">
        <ele>584.6</ele>
        <time>2026-04-30T09:15:39.999Z</time>
      </trkpt>
      <trkpt lat="43.9694" lon="3.01093">
        <ele>584.4</ele>
        <time>2026-04-30T09:15:40.999Z</time>
      </trkpt>
      <trkpt lat="43.96942" lon="3.01097">
        <ele>584</ele>
        <time>2026-04-30T09:15:41.999Z</time>
      </trkpt>
      <trkpt lat="43.96944" lon="3.01101">
        <ele>583.5</ele>
        <time>2026-04-30T09:15:42.999Z</time>
      </trkpt>
      <trkpt lat="43.96945" lon="3.01103">
        <ele>583.8</ele>
        <time>2026-04-30T09:15:43.999Z</time>
      </trkpt>
      <trkpt lat="43.96945" lon="3.01108">
        <ele>583.5</ele>
        <time>2026-04-30T09:15:44.999Z</time>
      </trkpt>
      <trkpt lat="43.96946" lon="3.01109">
        <ele>583.5</ele>
        <time>2026-04-30T09:15:45.999Z</time>
      </trkpt>
      <trkpt lat="43.96946" lon="3.01113">
        <ele>582.9</ele>
        <time>2026-04-30T09:15:46.999Z</time>
      </trkpt>
      <trkpt lat="43.96947" lon="3.01115">
        <ele>582.8</ele>
        <time>2026-04-30T09:15:47.999Z</time>
      </trkpt>
      <trkpt lat="43.96948" lon="3.01118">
        <ele>583.3</ele>
        <time>2026-04-30T09:15:48.999Z</time>
      </trkpt>
      <trkpt lat="43.96948" lon="3.0112">
        <ele>583.4</ele>
        <time>2026-04-30T09:15:49.999Z</time>
      </trkpt>
      <trkpt lat="43.96949" lon="3.01121">
        <ele>582.8</ele>
        <time>2026-04-30T09:15:50.999Z</time>
      </trkpt>
      <trkpt lat="43.9695" lon="3.01123">
        <ele>582.1</ele>
        <time>2026-04-30T09:15:51.999Z</time>
      </trkpt>
      <trkpt lat="43.9695" lon="3.01123">
        <ele>582.3</ele>
        <time>2026-04-30T09:15:52.999Z</time>
      </trkpt>
      <trkpt lat="43.96951" lon="3.01125">
        <ele>582.3</ele>
        <time>2026-04-30T09:15:53.999Z</time>
      </trkpt>
      <trkpt lat="43.96951" lon="3.01125">
        <ele>582.7</ele>
        <time>2026-04-30T09:15:54.999Z</time>
      </trkpt>
      <trkpt lat="43.96951" lon="3.01126">
        <ele>583</ele>
        <time>2026-04-30T09:15:55.999Z</time>
      </trkpt>
      <trkpt lat="43.9695" lon="3.01127">
        <ele>583.3</ele>
        <time>2026-04-30T09:15:56.999Z</time>
      </trkpt>
      <trkpt lat="43.9695" lon="3.01128">
        <ele>583.5</ele>
        <time>2026-04-30T09:15:57.999Z</time>
      </trkpt>
      <trkpt lat="43.9695" lon="3.01129">
        <ele>583.4</ele>
        <time>2026-04-30T09:15:58.999Z</time>
      </trkpt>
      <trkpt lat="43.96949" lon="3.01129">
        <ele>583.2</ele>
        <time>2026-04-30T09:15:59.999Z</time>
      </trkpt>
      <trkpt lat="43.96949" lon="3.01129">
        <ele>583.1</ele>
        <time>2026-04-30T09:16:00.999Z</time>
      </trkpt>
      <trkpt lat="43.96949" lon="3.01129">
        <ele>583.2</ele>
        <time>2026-04-30T09:16:01.999Z</time>
      </trkpt>
      <trkpt lat="43.96949" lon="3.01129">
        <ele>583.1</ele>
        <time>2026-04-30T09:16:02.999Z</time>
      </trkpt>
      <trkpt lat="43.96949" lon="3.01129">
        <ele>583.1</ele>
        <time>2026-04-30T09:16:03.999Z</time>
      </trkpt>
      <trkpt lat="43.96949" lon="3.0113">
        <ele>583</ele>
        <time>2026-04-30T09:16:04.999Z</time>
      </trkpt>
      <trkpt lat="43.96949" lon="3.0113">
        <ele>583.1</ele>
        <time>2026-04-30T09:16:05.999Z</time>
      </trkpt>
      <trkpt lat="43.96949" lon="3.0113">
        <ele>583.4</ele>
        <time>2026-04-30T09:16:06.999Z</time>
      </trkpt>
      <trkpt lat="43.96949" lon="3.0113">
        <ele>583.3</ele>
        <time>2026-04-30T09:16:07.999Z</time>
      </trkpt>
      <trkpt lat="43.96949" lon="3.0113">
        <ele>583.6</ele>
        <time>2026-04-30T09:16:08.999Z</time>
      </trkpt>
      <trkpt lat="43.96949" lon="3.0113">
        <ele>583.8</ele>
        <time>2026-04-30T09:16:09.999Z</time>
      </trkpt>
      <trkpt lat="43.96949" lon="3.0113">
        <ele>584.1</ele>
        <time>2026-04-30T09:16:10.999Z</time>
      </trkpt>
      <trkpt lat="43.96949" lon="3.01131">
        <ele>584.6</ele>
        <time>2026-04-30T09:16:11.999Z</time>
      </trkpt>
      <trkpt lat="43.96949" lon="3.01131">
        <ele>584.9</ele>
        <time>2026-04-30T09:16:12.999Z</time>
      </trkpt>
      <trkpt lat="43.96949" lon="3.01131">
        <ele>585.1</ele>
        <time>2026-04-30T09:16:13.999Z</time>
      </trkpt>
      <trkpt lat="43.96949" lon="3.01131">
        <ele>585.3</ele>
        <time>2026-04-30T09:16:14.999Z</time>
      </trkpt>
      <trkpt lat="43.96949" lon="3.01132">
        <ele>585</ele>
        <time>2026-04-30T09:16:15.999Z</time>
      </trkpt>
      <trkpt lat="43.9695" lon="3.01132">
        <ele>585.1</ele>
        <time>2026-04-30T09:16:16.999Z</time>
      </trkpt>
      <trkpt lat="43.9695" lon="3.01132">
        <ele>584.8</ele>
        <time>2026-04-30T09:16:17.999Z</time>
      </trkpt>
      <trkpt lat="43.9695" lon="3.01133">
        <ele>584.6</ele>
        <time>2026-04-30T09:16:18.999Z</time>
      </trkpt>
      <trkpt lat="43.9695" lon="3.01133">
        <ele>584.4</ele>
        <time>2026-04-30T09:16:19.999Z</time>
      </trkpt>
      <trkpt lat="43.96951" lon="3.01135">
        <ele>584.2</ele>
        <time>2026-04-30T09:16:20.999Z</time>
      </trkpt>
      <trkpt lat="43.96952" lon="3.01137">
        <ele>584.3</ele>
        <time>2026-04-30T09:16:21.999Z</time>
      </trkpt>
      <trkpt lat="43.96952" lon="3.01138">
        <ele>584.5</ele>
        <time>2026-04-30T09:16:22.999Z</time>
      </trkpt>
      <trkpt lat="43.96952" lon="3.01139">
        <ele>584.8</ele>
        <time>2026-04-30T09:16:23.999Z</time>
      </trkpt>
      <trkpt lat="43.96953" lon="3.0114">
        <ele>584.4</ele>
        <time>2026-04-30T09:16:24.999Z</time>
      </trkpt>
      <trkpt lat="43.96953" lon="3.0114">
        <ele>584</ele>
        <time>2026-04-30T09:16:25.999Z</time>
      </trkpt>
      <trkpt lat="43.96954" lon="3.0114">
        <ele>583.2</ele>
        <time>2026-04-30T09:16:26.999Z</time>
      </trkpt>
      <trkpt lat="43.96954" lon="3.01141">
        <ele>582.8</ele>
        <time>2026-04-30T09:16:27.999Z</time>
      </trkpt>
      <trkpt lat="43.96953" lon="3.01143">
        <ele>582.5</ele>
        <time>2026-04-30T09:16:28.999Z</time>
      </trkpt>
      <trkpt lat="43.96953" lon="3.01144">
        <ele>582.2</ele>
        <time>2026-04-30T09:16:29.999Z</time>
      </trkpt>
      <trkpt lat="43.96953" lon="3.01145">
        <ele>581.7</ele>
        <time>2026-04-30T09:16:30.999Z</time>
      </trkpt>
      <trkpt lat="43.96953" lon="3.01146">
        <ele>581.6</ele>
        <time>2026-04-30T09:16:31.999Z</time>
      </trkpt>
      <trkpt lat="43.96954" lon="3.01148">
        <ele>581.6</ele>
        <time>2026-04-30T09:16:32.999Z</time>
      </trkpt>
      <trkpt lat="43.96954" lon="3.0115">
        <ele>581.5</ele>
        <time>2026-04-30T09:16:33.999Z</time>
      </trkpt>
      <trkpt lat="43.96954" lon="3.01152">
        <ele>581.3</ele>
        <time>2026-04-30T09:16:34.999Z</time>
      </trkpt>
      <trkpt lat="43.96954" lon="3.01153">
        <ele>580.9</ele>
        <time>2026-04-30T09:16:35.999Z</time>
      </trkpt>
      <trkpt lat="43.96954" lon="3.01155">
        <ele>580.4</ele>
        <time>2026-04-30T09:16:36.999Z</time>
      </trkpt>
      <trkpt lat="43.96953" lon="3.01157">
        <ele>579.8</ele>
        <time>2026-04-30T09:16:37.999Z</time>
      </trkpt>
      <trkpt lat="43.96953" lon="3.01158">
        <ele>579.5</ele>
        <time>2026-04-30T09:16:38.999Z</time>
      </trkpt>
      <trkpt lat="43.96954" lon="3.01159">
        <ele>579.1</ele>
        <time>2026-04-30T09:16:39.999Z</time>
      </trkpt>
      <trkpt lat="43.96954" lon="3.01161">
        <ele>578.5</ele>
        <time>2026-04-30T09:16:40.999Z</time>
      </trkpt>
      <trkpt lat="43.96955" lon="3.01162">
        <ele>577.7</ele>
        <time>2026-04-30T09:16:41.999Z</time>
      </trkpt>
      <trkpt lat="43.96956" lon="3.01163">
        <ele>577.2</ele>
        <time>2026-04-30T09:16:42.999Z</time>
      </trkpt>
      <trkpt lat="43.96956" lon="3.01165">
        <ele>577.2</ele>
        <time>2026-04-30T09:16:43.999Z</time>
      </trkpt>
      <trkpt lat="43.96956" lon="3.01166">
        <ele>577.1</ele>
        <time>2026-04-30T09:16:44.999Z</time>
      </trkpt>
      <trkpt lat="43.96957" lon="3.01167">
        <ele>577</ele>
        <time>2026-04-30T09:16:45.999Z</time>
      </trkpt>
      <trkpt lat="43.96957" lon="3.01168">
        <ele>577</ele>
        <time>2026-04-30T09:16:46.999Z</time>
      </trkpt>
      <trkpt lat="43.96958" lon="3.01168">
        <ele>576.4</ele>
        <time>2026-04-30T09:16:47.999Z</time>
      </trkpt>
      <trkpt lat="43.96959" lon="3.01169">
        <ele>575.9</ele>
        <time>2026-04-30T09:16:48.999Z</time>
      </trkpt>
      <trkpt lat="43.9696" lon="3.0117">
        <ele>575.5</ele>
        <time>2026-04-30T09:16:49.999Z</time>
      </trkpt>
      <trkpt lat="43.96961" lon="3.0117">
        <ele>575.1</ele>
        <time>2026-04-30T09:16:50.999Z</time>
      </trkpt>
      <trkpt lat="43.96962" lon="3.0117">
        <ele>574.7</ele>
        <time>2026-04-30T09:16:51.999Z</time>
      </trkpt>
      <trkpt lat="43.96963" lon="3.01169">
        <ele>574.6</ele>
        <time>2026-04-30T09:16:52.999Z</time>
      </trkpt>
      <trkpt lat="43.96963" lon="3.0117">
        <ele>574.4</ele>
        <time>2026-04-30T09:16:53.999Z</time>
      </trkpt>
      <trkpt lat="43.96963" lon="3.0117">
        <ele>573.9</ele>
        <time>2026-04-30T09:16:54.999Z</time>
      </trkpt>
      <trkpt lat="43.96963" lon="3.0117">
        <ele>573.6</ele>
        <time>2026-04-30T09:16:55.999Z</time>
      </trkpt>
      <trkpt lat="43.96963" lon="3.0117">
        <ele>573.7</ele>
        <time>2026-04-30T09:16:56.999Z</time>
      </trkpt>
      <trkpt lat="43.96963" lon="3.0117">
        <ele>573.2</ele>
        <time>2026-04-30T09:16:57.999Z</time>
      </trkpt>
      <trkpt lat="43.96964" lon="3.0117">
        <ele>573</ele>
        <time>2026-04-30T09:16:58.999Z</time>
      </trkpt>
      <trkpt lat="43.96964" lon="3.01171">
        <ele>572.5</ele>
        <time>2026-04-30T09:16:59.999Z</time>
      </trkpt>
      <trkpt lat="43.96964" lon="3.01171">
        <ele>572.1</ele>
        <time>2026-04-30T09:17:00.999Z</time>
      </trkpt>
      <trkpt lat="43.96964" lon="3.01173">
        <ele>572.1</ele>
        <time>2026-04-30T09:17:01.999Z</time>
      </trkpt>
      <trkpt lat="43.96964" lon="3.01175">
        <ele>572</ele>
        <time>2026-04-30T09:17:02.999Z</time>
      </trkpt>
      <trkpt lat="43.96964" lon="3.01176">
        <ele>571.9</ele>
        <time>2026-04-30T09:17:03.999Z</time>
      </trkpt>
      <trkpt lat="43.96964" lon="3.01175">
        <ele>570.9</ele>
        <time>2026-04-30T09:17:04.999Z</time>
      </trkpt>
      <trkpt lat="43.96963" lon="3.01175">
        <ele>570.4</ele>
        <time>2026-04-30T09:17:05.999Z</time>
      </trkpt>
      <trkpt lat="43.96962" lon="3.01175">
        <ele>569.7</ele>
        <time>2026-04-30T09:17:06.999Z</time>
      </trkpt>
      <trkpt lat="43.96961" lon="3.01175">
        <ele>569.6</ele>
        <time>2026-04-30T09:17:07.999Z</time>
      </trkpt>
      <trkpt lat="43.96961" lon="3.01176">
        <ele>569.4</ele>
        <time>2026-04-30T09:17:08.999Z</time>
      </trkpt>
      <trkpt lat="43.9696" lon="3.01177">
        <ele>569.2</ele>
        <time>2026-04-30T09:17:09.999Z</time>
      </trkpt>
      <trkpt lat="43.96959" lon="3.01177">
        <ele>568.7</ele>
        <time>2026-04-30T09:17:10.999Z</time>
      </trkpt>
      <trkpt lat="43.96958" lon="3.01177">
        <ele>568.4</ele>
        <time>2026-04-30T09:17:11.999Z</time>
      </trkpt>
      <trkpt lat="43.96957" lon="3.01178">
        <ele>568.4</ele>
        <time>2026-04-30T09:17:12.999Z</time>
      </trkpt>
      <trkpt lat="43.96956" lon="3.01179">
        <ele>568.7</ele>
        <time>2026-04-30T09:17:13.999Z</time>
      </trkpt>
      <trkpt lat="43.96955" lon="3.01179">
        <ele>568.9</ele>
        <time>2026-04-30T09:17:14.999Z</time>
      </trkpt>
      <trkpt lat="43.96955" lon="3.01178">
        <ele>569</ele>
        <time>2026-04-30T09:17:15.999Z</time>
      </trkpt>
      <trkpt lat="43.96955" lon="3.01178">
        <ele>569.1</ele>
        <time>2026-04-30T09:17:16.999Z</time>
      </trkpt>
      <trkpt lat="43.96954" lon="3.01179">
        <ele>568.9</ele>
        <time>2026-04-30T09:17:17.999Z</time>
      </trkpt>
      <trkpt lat="43.96954" lon="3.0118">
        <ele>568.5</ele>
        <time>2026-04-30T09:17:18.999Z</time>
      </trkpt>
      <trkpt lat="43.96953" lon="3.01181">
        <ele>568.3</ele>
        <time>2026-04-30T09:17:19.999Z</time>
      </trkpt>
      <trkpt lat="43.96952" lon="3.01182">
        <ele>567.9</ele>
        <time>2026-04-30T09:17:20.999Z</time>
      </trkpt>
      <trkpt lat="43.96951" lon="3.01183">
        <ele>567.6</ele>
        <time>2026-04-30T09:17:21.999Z</time>
      </trkpt>
      <trkpt lat="43.96951" lon="3.01184">
        <ele>567.4</ele>
        <time>2026-04-30T09:17:22.999Z</time>
      </trkpt>
      <trkpt lat="43.9695" lon="3.01185">
        <ele>567.3</ele>
        <time>2026-04-30T09:17:23.999Z</time>
      </trkpt>
      <trkpt lat="43.9695" lon="3.01186">
        <ele>567.2</ele>
        <time>2026-04-30T09:17:24.999Z</time>
      </trkpt>
      <trkpt lat="43.96949" lon="3.01187">
        <ele>567.3</ele>
        <time>2026-04-30T09:17:25.999Z</time>
      </trkpt>
      <trkpt lat="43.96948" lon="3.01188">
        <ele>566.9</ele>
        <time>2026-04-30T09:17:26.999Z</time>
      </trkpt>
      <trkpt lat="43.96948" lon="3.0119">
        <ele>566.4</ele>
        <time>2026-04-30T09:17:27.999Z</time>
      </trkpt>
      <trkpt lat="43.96947" lon="3.01191">
        <ele>566</ele>
        <time>2026-04-30T09:17:28.999Z</time>
      </trkpt>
      <trkpt lat="43.96947" lon="3.01193">
        <ele>565.4</ele>
        <time>2026-04-30T09:17:30.000Z</time>
      </trkpt>
      <trkpt lat="43.96947" lon="3.01194">
        <ele>564.9</ele>
        <time>2026-04-30T09:17:31.000Z</time>
      </trkpt>
      <trkpt lat="43.96947" lon="3.01195">
        <ele>564.5</ele>
        <time>2026-04-30T09:17:32.000Z</time>
      </trkpt>
      <trkpt lat="43.96947" lon="3.01197">
        <ele>564.5</ele>
        <time>2026-04-30T09:17:33.000Z</time>
      </trkpt>
      <trkpt lat="43.96947" lon="3.01198">
        <ele>564.2</ele>
        <time>2026-04-30T09:17:34.000Z</time>
      </trkpt>
      <trkpt lat="43.96947" lon="3.012">
        <ele>563.8</ele>
        <time>2026-04-30T09:17:35.000Z</time>
      </trkpt>
      <trkpt lat="43.96947" lon="3.01203">
        <ele>563.5</ele>
        <time>2026-04-30T09:17:36.000Z</time>
      </trkpt>
      <trkpt lat="43.96947" lon="3.01204">
        <ele>563.4</ele>
        <time>2026-04-30T09:17:37.000Z</time>
      </trkpt>
      <trkpt lat="43.96947" lon="3.01205">
        <ele>563.4</ele>
        <time>2026-04-30T09:17:38.000Z</time>
      </trkpt>
      <trkpt lat="43.96946" lon="3.01207">
        <ele>563.3</ele>
        <time>2026-04-30T09:17:39.000Z</time>
      </trkpt>
      <trkpt lat="43.96946" lon="3.01208">
        <ele>562.9</ele>
        <time>2026-04-30T09:17:40.000Z</time>
      </trkpt>
      <trkpt lat="43.96946" lon="3.0121">
        <ele>562.3</ele>
        <time>2026-04-30T09:17:41.000Z</time>
      </trkpt>
      <trkpt lat="43.96945" lon="3.01211">
        <ele>562.4</ele>
        <time>2026-04-30T09:17:42.000Z</time>
      </trkpt>
      <trkpt lat="43.96945" lon="3.01212">
        <ele>562.4</ele>
        <time>2026-04-30T09:17:43.000Z</time>
      </trkpt>
      <trkpt lat="43.96945" lon="3.01214">
        <ele>562.4</ele>
        <time>2026-04-30T09:17:44.000Z</time>
      </trkpt>
      <trkpt lat="43.96945" lon="3.01216">
        <ele>562.4</ele>
        <time>2026-04-30T09:17:45.000Z</time>
      </trkpt>
      <trkpt lat="43.96945" lon="3.01218">
        <ele>562.1</ele>
        <time>2026-04-30T09:17:46.000Z</time>
      </trkpt>
      <trkpt lat="43.96945" lon="3.01219">
        <ele>562</ele>
        <time>2026-04-30T09:17:47.000Z</time>
      </trkpt>
      <trkpt lat="43.96944" lon="3.01221">
        <ele>561.9</ele>
        <time>2026-04-30T09:17:48.000Z</time>
      </trkpt>
      <trkpt lat="43.96944" lon="3.01222">
        <ele>561.6</ele>
        <time>2026-04-30T09:17:49.000Z</time>
      </trkpt>
      <trkpt lat="43.96943" lon="3.01224">
        <ele>561.4</ele>
        <time>2026-04-30T09:17:50.000Z</time>
      </trkpt>
      <trkpt lat="43.96943" lon="3.01226">
        <ele>561</ele>
        <time>2026-04-30T09:17:51.000Z</time>
      </trkpt>
      <trkpt lat="43.96943" lon="3.01228">
        <ele>560.4</ele>
        <time>2026-04-30T09:17:52.000Z</time>
      </trkpt>
      <trkpt lat="43.96943" lon="3.01231">
        <ele>560.1</ele>
        <time>2026-04-30T09:17:53.000Z</time>
      </trkpt>
      <trkpt lat="43.96943" lon="3.01232">
        <ele>559.7</ele>
        <time>2026-04-30T09:17:54.000Z</time>
      </trkpt>
      <trkpt lat="43.96943" lon="3.01234">
        <ele>559.4</ele>
        <time>2026-04-30T09:17:55.000Z</time>
      </trkpt>
      <trkpt lat="43.96943" lon="3.01235">
        <ele>559</ele>
        <time>2026-04-30T09:17:56.000Z</time>
      </trkpt>
      <trkpt lat="43.96942" lon="3.01236">
        <ele>558.7</ele>
        <time>2026-04-30T09:17:57.000Z</time>
      </trkpt>
      <trkpt lat="43.96942" lon="3.01238">
        <ele>558.6</ele>
        <time>2026-04-30T09:17:58.000Z</time>
      </trkpt>
      <trkpt lat="43.96942" lon="3.01239">
        <ele>557.9</ele>
        <time>2026-04-30T09:17:59.000Z</time>
      </trkpt>
      <trkpt lat="43.96943" lon="3.0124">
        <ele>557.2</ele>
        <time>2026-04-30T09:18:00.000Z</time>
      </trkpt>
      <trkpt lat="43.96945" lon="3.01242">
        <ele>557.1</ele>
        <time>2026-04-30T09:18:01.000Z</time>
      </trkpt>
      <trkpt lat="43.96946" lon="3.01243">
        <ele>556.7</ele>
        <time>2026-04-30T09:18:02.000Z</time>
      </trkpt>
      <trkpt lat="43.96948" lon="3.01244">
        <ele>556.7</ele>
        <time>2026-04-30T09:18:03.000Z</time>
      </trkpt>
      <trkpt lat="43.96949" lon="3.01246">
        <ele>556.6</ele>
        <time>2026-04-30T09:18:04.000Z</time>
      </trkpt>
      <trkpt lat="43.96949" lon="3.01247">
        <ele>556</ele>
        <time>2026-04-30T09:18:05.000Z</time>
      </trkpt>
      <trkpt lat="43.9695" lon="3.01248">
        <ele>555.5</ele>
        <time>2026-04-30T09:18:06.000Z</time>
      </trkpt>
      <trkpt lat="43.96951" lon="3.01249">
        <ele>555.1</ele>
        <time>2026-04-30T09:18:07.000Z</time>
      </trkpt>
      <trkpt lat="43.96951" lon="3.0125">
        <ele>555</ele>
        <time>2026-04-30T09:18:08.000Z</time>
      </trkpt>
      <trkpt lat="43.96951" lon="3.01252">
        <ele>554.8</ele>
        <time>2026-04-30T09:18:09.000Z</time>
      </trkpt>
      <trkpt lat="43.96951" lon="3.01254">
        <ele>554.5</ele>
        <time>2026-04-30T09:18:10.000Z</time>
      </trkpt>
      <trkpt lat="43.96952" lon="3.01256">
        <ele>554.4</ele>
        <time>2026-04-30T09:18:11.000Z</time>
      </trkpt>
      <trkpt lat="43.96952" lon="3.01258">
        <ele>554.2</ele>
        <time>2026-04-30T09:18:12.000Z</time>
      </trkpt>
      <trkpt lat="43.96953" lon="3.0126">
        <ele>554.1</ele>
        <time>2026-04-30T09:18:13.000Z</time>
      </trkpt>
      <trkpt lat="43.96954" lon="3.01261">
        <ele>553.9</ele>
        <time>2026-04-30T09:18:14.000Z</time>
      </trkpt>
      <trkpt lat="43.96955" lon="3.01263">
        <ele>553.6</ele>
        <time>2026-04-30T09:18:15.000Z</time>
      </trkpt>
      <trkpt lat="43.96956" lon="3.01266">
        <ele>553</ele>
        <time>2026-04-30T09:18:16.000Z</time>
      </trkpt>
      <trkpt lat="43.96957" lon="3.01267">
        <ele>552.8</ele>
        <time>2026-04-30T09:18:17.000Z</time>
      </trkpt>
      <trkpt lat="43.96957" lon="3.01269">
        <ele>552.6</ele>
        <time>2026-04-30T09:18:18.000Z</time>
      </trkpt>
      <trkpt lat="43.96958" lon="3.0127">
        <ele>552.4</ele>
        <time>2026-04-30T09:18:19.000Z</time>
      </trkpt>
      <trkpt lat="43.96958" lon="3.01272">
        <ele>552.2</ele>
        <time>2026-04-30T09:18:20.000Z</time>
      </trkpt>
      <trkpt lat="43.96959" lon="3.01273">
        <ele>551.9</ele>
        <time>2026-04-30T09:18:21.000Z</time>
      </trkpt>
      <trkpt lat="43.96959" lon="3.01274">
        <ele>551.6</ele>
        <time>2026-04-30T09:18:22.000Z</time>
      </trkpt>
      <trkpt lat="43.9696" lon="3.01275">
        <ele>551.2</ele>
        <time>2026-04-30T09:18:23.000Z</time>
      </trkpt>
      <trkpt lat="43.9696" lon="3.01276">
        <ele>551.6</ele>
        <time>2026-04-30T09:18:24.000Z</time>
      </trkpt>
      <trkpt lat="43.9696" lon="3.01277">
        <ele>551.7</ele>
        <time>2026-04-30T09:18:25.000Z</time>
      </trkpt>
      <trkpt lat="43.96961" lon="3.01278">
        <ele>551.3</ele>
        <time>2026-04-30T09:18:26.000Z</time>
      </trkpt>
      <trkpt lat="43.96962" lon="3.0128">
        <ele>551.2</ele>
        <time>2026-04-30T09:18:27.000Z</time>
      </trkpt>
      <trkpt lat="43.96963" lon="3.01281">
        <ele>550.9</ele>
        <time>2026-04-30T09:18:28.000Z</time>
      </trkpt>
      <trkpt lat="43.96964" lon="3.01283">
        <ele>550.6</ele>
        <time>2026-04-30T09:18:29.000Z</time>
      </trkpt>
      <trkpt lat="43.96965" lon="3.01284">
        <ele>550.7</ele>
        <time>2026-04-30T09:18:30.000Z</time>
      </trkpt>
      <trkpt lat="43.96965" lon="3.01284">
        <ele>550.1</ele>
        <time>2026-04-30T09:18:31.000Z</time>
      </trkpt>
      <trkpt lat="43.96965" lon="3.01285">
        <ele>550</ele>
        <time>2026-04-30T09:18:32.000Z</time>
      </trkpt>
      <trkpt lat="43.96966" lon="3.01286">
        <ele>549.9</ele>
        <time>2026-04-30T09:18:33.000Z</time>
      </trkpt>
      <trkpt lat="43.96966" lon="3.01287">
        <ele>549.7</ele>
        <time>2026-04-30T09:18:34.000Z</time>
      </trkpt>
      <trkpt lat="43.96967" lon="3.01289">
        <ele>549.5</ele>
        <time>2026-04-30T09:18:35.000Z</time>
      </trkpt>
      <trkpt lat="43.96967" lon="3.0129">
        <ele>549.4</ele>
        <time>2026-04-30T09:18:36.000Z</time>
      </trkpt>
      <trkpt lat="43.96969" lon="3.01292">
        <ele>549.3</ele>
        <time>2026-04-30T09:18:37.000Z</time>
      </trkpt>
      <trkpt lat="43.9697" lon="3.01294">
        <ele>549.2</ele>
        <time>2026-04-30T09:18:38.000Z</time>
      </trkpt>
      <trkpt lat="43.9697" lon="3.01296">
        <ele>549.1</ele>
        <time>2026-04-30T09:18:39.000Z</time>
      </trkpt>
      <trkpt lat="43.96971" lon="3.01298">
        <ele>549.4</ele>
        <time>2026-04-30T09:18:40.000Z</time>
      </trkpt>
      <trkpt lat="43.96971" lon="3.01299">
        <ele>549.5</ele>
        <time>2026-04-30T09:18:41.000Z</time>
      </trkpt>
      <trkpt lat="43.96972" lon="3.013">
        <ele>549.5</ele>
        <time>2026-04-30T09:18:42.000Z</time>
      </trkpt>
      <trkpt lat="43.96972" lon="3.01302">
        <ele>549.3</ele>
        <time>2026-04-30T09:18:43.000Z</time>
      </trkpt>
      <trkpt lat="43.96973" lon="3.01303">
        <ele>549.4</ele>
        <time>2026-04-30T09:18:44.000Z</time>
      </trkpt>
      <trkpt lat="43.96973" lon="3.01303">
        <ele>549.6</ele>
        <time>2026-04-30T09:18:45.000Z</time>
      </trkpt>
      <trkpt lat="43.96973" lon="3.01304">
        <ele>549.4</ele>
        <time>2026-04-30T09:18:46.000Z</time>
      </trkpt>
      <trkpt lat="43.96973" lon="3.01306">
        <ele>549</ele>
        <time>2026-04-30T09:18:47.000Z</time>
      </trkpt>
      <trkpt lat="43.96974" lon="3.01307">
        <ele>548.7</ele>
        <time>2026-04-30T09:18:48.000Z</time>
      </trkpt>
      <trkpt lat="43.96975" lon="3.01309">
        <ele>548.4</ele>
        <time>2026-04-30T09:18:49.000Z</time>
      </trkpt>
      <trkpt lat="43.96975" lon="3.01311">
        <ele>548.3</ele>
        <time>2026-04-30T09:18:50.000Z</time>
      </trkpt>
      <trkpt lat="43.96976" lon="3.01312">
        <ele>548.6</ele>
        <time>2026-04-30T09:18:51.000Z</time>
      </trkpt>
      <trkpt lat="43.96977" lon="3.01314">
        <ele>548.5</ele>
        <time>2026-04-30T09:18:52.000Z</time>
      </trkpt>
      <trkpt lat="43.96977" lon="3.01315">
        <ele>548.1</ele>
        <time>2026-04-30T09:18:53.000Z</time>
      </trkpt>
      <trkpt lat="43.96977" lon="3.01316">
        <ele>547.7</ele>
        <time>2026-04-30T09:18:54.000Z</time>
      </trkpt>
      <trkpt lat="43.96978" lon="3.01317">
        <ele>547.6</ele>
        <time>2026-04-30T09:18:55.000Z</time>
      </trkpt>
      <trkpt lat="43.96979" lon="3.01318">
        <ele>547.5</ele>
        <time>2026-04-30T09:18:56.000Z</time>
      </trkpt>
      <trkpt lat="43.96979" lon="3.01319">
        <ele>547.3</ele>
        <time>2026-04-30T09:18:57.000Z</time>
      </trkpt>
      <trkpt lat="43.9698" lon="3.0132">
        <ele>547.2</ele>
        <time>2026-04-30T09:18:58.000Z</time>
      </trkpt>
      <trkpt lat="43.9698" lon="3.01321">
        <ele>547.4</ele>
        <time>2026-04-30T09:18:59.000Z</time>
      </trkpt>
      <trkpt lat="43.96981" lon="3.01322">
        <ele>547.3</ele>
        <time>2026-04-30T09:19:00.000Z</time>
      </trkpt>
      <trkpt lat="43.96981" lon="3.01323">
        <ele>547.2</ele>
        <time>2026-04-30T09:19:01.000Z</time>
      </trkpt>
      <trkpt lat="43.96981" lon="3.01325">
        <ele>547.1</ele>
        <time>2026-04-30T09:19:02.000Z</time>
      </trkpt>
      <trkpt lat="43.96982" lon="3.01326">
        <ele>547</ele>
        <time>2026-04-30T09:19:03.000Z</time>
      </trkpt>
      <trkpt lat="43.96982" lon="3.01328">
        <ele>547.1</ele>
        <time>2026-04-30T09:19:04.000Z</time>
      </trkpt>
      <trkpt lat="43.96983" lon="3.0133">
        <ele>547</ele>
        <time>2026-04-30T09:19:05.000Z</time>
      </trkpt>
      <trkpt lat="43.96984" lon="3.01333">
        <ele>546.8</ele>
        <time>2026-04-30T09:19:06.000Z</time>
      </trkpt>
      <trkpt lat="43.96985" lon="3.01336">
        <ele>546.8</ele>
        <time>2026-04-30T09:19:07.000Z</time>
      </trkpt>
      <trkpt lat="43.96986" lon="3.01338">
        <ele>546.9</ele>
        <time>2026-04-30T09:19:08.000Z</time>
      </trkpt>
      <trkpt lat="43.96986" lon="3.01339">
        <ele>547.3</ele>
        <time>2026-04-30T09:19:09.000Z</time>
      </trkpt>
      <trkpt lat="43.96987" lon="3.01341">
        <ele>547.2</ele>
        <time>2026-04-30T09:19:10.000Z</time>
      </trkpt>
      <trkpt lat="43.96987" lon="3.01342">
        <ele>547.2</ele>
        <time>2026-04-30T09:19:11.000Z</time>
      </trkpt>
      <trkpt lat="43.96987" lon="3.01343">
        <ele>546.9</ele>
        <time>2026-04-30T09:19:12.000Z</time>
      </trkpt>
      <trkpt lat="43.96987" lon="3.01344">
        <ele>546.5</ele>
        <time>2026-04-30T09:19:13.000Z</time>
      </trkpt>
      <trkpt lat="43.96987" lon="3.01345">
        <ele>546.3</ele>
        <time>2026-04-30T09:19:14.000Z</time>
      </trkpt>
      <trkpt lat="43.96988" lon="3.01346">
        <ele>546.1</ele>
        <time>2026-04-30T09:19:15.000Z</time>
      </trkpt>
      <trkpt lat="43.9699" lon="3.01347">
        <ele>545.7</ele>
        <time>2026-04-30T09:19:16.000Z</time>
      </trkpt>
      <trkpt lat="43.96991" lon="3.01347">
        <ele>545.6</ele>
        <time>2026-04-30T09:19:17.000Z</time>
      </trkpt>
      <trkpt lat="43.96992" lon="3.01349">
        <ele>545.5</ele>
        <time>2026-04-30T09:19:18.000Z</time>
      </trkpt>
      <trkpt lat="43.96993" lon="3.0135">
        <ele>545.3</ele>
        <time>2026-04-30T09:19:19.000Z</time>
      </trkpt>
      <trkpt lat="43.96993" lon="3.0135">
        <ele>545.3</ele>
        <time>2026-04-30T09:19:20.000Z</time>
      </trkpt>
      <trkpt lat="43.96994" lon="3.01351">
        <ele>545</ele>
        <time>2026-04-30T09:19:21.000Z</time>
      </trkpt>
      <trkpt lat="43.96995" lon="3.01352">
        <ele>545</ele>
        <time>2026-04-30T09:19:22.000Z</time>
      </trkpt>
      <trkpt lat="43.96995" lon="3.01354">
        <ele>544.9</ele>
        <time>2026-04-30T09:19:23.000Z</time>
      </trkpt>
      <trkpt lat="43.96996" lon="3.01355">
        <ele>544.9</ele>
        <time>2026-04-30T09:19:24.000Z</time>
      </trkpt>
      <trkpt lat="43.96997" lon="3.01357">
        <ele>544.9</ele>
        <time>2026-04-30T09:19:25.000Z</time>
      </trkpt>
      <trkpt lat="43.96998" lon="3.01358">
        <ele>544.8</ele>
        <time>2026-04-30T09:19:26.000Z</time>
      </trkpt>
      <trkpt lat="43.96998" lon="3.01359">
        <ele>544.8</ele>
        <time>2026-04-30T09:19:27.000Z</time>
      </trkpt>
      <trkpt lat="43.96998" lon="3.01361">
        <ele>544.4</ele>
        <time>2026-04-30T09:19:28.000Z</time>
      </trkpt>
      <trkpt lat="43.96998" lon="3.01362">
        <ele>544.1</ele>
        <time>2026-04-30T09:19:29.000Z</time>
      </trkpt>
      <trkpt lat="43.96998" lon="3.01363">
        <ele>543.8</ele>
        <time>2026-04-30T09:19:30.000Z</time>
      </trkpt>
      <trkpt lat="43.96998" lon="3.01365">
        <ele>543.5</ele>
        <time>2026-04-30T09:19:31.000Z</time>
      </trkpt>
      <trkpt lat="43.97" lon="3.0137">
        <ele>543.6</ele>
        <time>2026-04-30T09:19:33.000Z</time>
      </trkpt>
      <trkpt lat="43.97001" lon="3.01371">
        <ele>543.8</ele>
        <time>2026-04-30T09:19:34.000Z</time>
      </trkpt>
      <trkpt lat="43.97001" lon="3.01373">
        <ele>543.8</ele>
        <time>2026-04-30T09:19:35.000Z</time>
      </trkpt>
      <trkpt lat="43.97001" lon="3.01374">
        <ele>544</ele>
        <time>2026-04-30T09:19:36.000Z</time>
      </trkpt>
      <trkpt lat="43.97002" lon="3.01376">
        <ele>543.9</ele>
        <time>2026-04-30T09:19:37.000Z</time>
      </trkpt>
      <trkpt lat="43.97002" lon="3.01377">
        <ele>543.6</ele>
        <time>2026-04-30T09:19:38.000Z</time>
      </trkpt>
      <trkpt lat="43.97002" lon="3.01379">
        <ele>543.4</ele>
        <time>2026-04-30T09:19:39.000Z</time>
      </trkpt>
      <trkpt lat="43.97003" lon="3.0138">
        <ele>543.1</ele>
        <time>2026-04-30T09:19:40.000Z</time>
      </trkpt>
      <trkpt lat="43.97003" lon="3.01381">
        <ele>542.9</ele>
        <time>2026-04-30T09:19:41.000Z</time>
      </trkpt>
      <trkpt lat="43.97004" lon="3.01382">
        <ele>542.8</ele>
        <time>2026-04-30T09:19:42.000Z</time>
      </trkpt>
      <trkpt lat="43.97005" lon="3.01382">
        <ele>542.8</ele>
        <time>2026-04-30T09:19:43.000Z</time>
      </trkpt>
      <trkpt lat="43.97005" lon="3.01384">
        <ele>543.3</ele>
        <time>2026-04-30T09:19:44.000Z</time>
      </trkpt>
      <trkpt lat="43.97006" lon="3.01385">
        <ele>543.6</ele>
        <time>2026-04-30T09:19:45.000Z</time>
      </trkpt>
      <trkpt lat="43.97006" lon="3.01386">
        <ele>543.6</ele>
        <time>2026-04-30T09:19:46.000Z</time>
      </trkpt>
      <trkpt lat="43.97006" lon="3.01387">
        <ele>543.6</ele>
        <time>2026-04-30T09:19:47.000Z</time>
      </trkpt>
      <trkpt lat="43.97006" lon="3.01388">
        <ele>543.7</ele>
        <time>2026-04-30T09:19:48.000Z</time>
      </trkpt>
      <trkpt lat="43.97007" lon="3.01389">
        <ele>543.6</ele>
        <time>2026-04-30T09:19:49.000Z</time>
      </trkpt>
      <trkpt lat="43.97007" lon="3.0139">
        <ele>543.3</ele>
        <time>2026-04-30T09:19:50.000Z</time>
      </trkpt>
      <trkpt lat="43.97008" lon="3.01392">
        <ele>542.8</ele>
        <time>2026-04-30T09:19:51.000Z</time>
      </trkpt>
      <trkpt lat="43.97009" lon="3.01393">
        <ele>542.5</ele>
        <time>2026-04-30T09:19:52.000Z</time>
      </trkpt>
      <trkpt lat="43.9701" lon="3.01394">
        <ele>542.4</ele>
        <time>2026-04-30T09:19:53.000Z</time>
      </trkpt>
      <trkpt lat="43.97011" lon="3.01395">
        <ele>542.1</ele>
        <time>2026-04-30T09:19:54.000Z</time>
      </trkpt>
      <trkpt lat="43.97012" lon="3.01397">
        <ele>541.6</ele>
        <time>2026-04-30T09:19:55.000Z</time>
      </trkpt>
      <trkpt lat="43.97012" lon="3.01399">
        <ele>540.9</ele>
        <time>2026-04-30T09:19:56.000Z</time>
      </trkpt>
      <trkpt lat="43.97013" lon="3.014">
        <ele>540.7</ele>
        <time>2026-04-30T09:19:57.000Z</time>
      </trkpt>
      <trkpt lat="43.97013" lon="3.01401">
        <ele>540.4</ele>
        <time>2026-04-30T09:19:58.000Z</time>
      </trkpt>
      <trkpt lat="43.97014" lon="3.01403">
        <ele>540.3</ele>
        <time>2026-04-30T09:19:59.000Z</time>
      </trkpt>
      <trkpt lat="43.97014" lon="3.01406">
        <ele>540.6</ele>
        <time>2026-04-30T09:20:00.000Z</time>
      </trkpt>
      <trkpt lat="43.97015" lon="3.01408">
        <ele>539.9</ele>
        <time>2026-04-30T09:20:01.000Z</time>
      </trkpt>
      <trkpt lat="43.97015" lon="3.0141">
        <ele>539.6</ele>
        <time>2026-04-30T09:20:02.000Z</time>
      </trkpt>
      <trkpt lat="43.97015" lon="3.01412">
        <ele>539.4</ele>
        <time>2026-04-30T09:20:03.000Z</time>
      </trkpt>
      <trkpt lat="43.97015" lon="3.01414">
        <ele>539.2</ele>
        <time>2026-04-30T09:20:04.000Z</time>
      </trkpt>
      <trkpt lat="43.97016" lon="3.01415">
        <ele>539.1</ele>
        <time>2026-04-30T09:20:05.000Z</time>
      </trkpt>
      <trkpt lat="43.97016" lon="3.01416">
        <ele>539.3</ele>
        <time>2026-04-30T09:20:06.000Z</time>
      </trkpt>
      <trkpt lat="43.97017" lon="3.01417">
        <ele>539.4</ele>
        <time>2026-04-30T09:20:07.000Z</time>
      </trkpt>
      <trkpt lat="43.97018" lon="3.01418">
        <ele>539.4</ele>
        <time>2026-04-30T09:20:08.000Z</time>
      </trkpt>
      <trkpt lat="43.97019" lon="3.0142">
        <ele>539.7</ele>
        <time>2026-04-30T09:20:09.000Z</time>
      </trkpt>
      <trkpt lat="43.9702" lon="3.01421">
        <ele>540.3</ele>
        <time>2026-04-30T09:20:10.000Z</time>
      </trkpt>
      <trkpt lat="43.97021" lon="3.01423">
        <ele>540.5</ele>
        <time>2026-04-30T09:20:11.000Z</time>
      </trkpt>
      <trkpt lat="43.97021" lon="3.01425">
        <ele>540.4</ele>
        <time>2026-04-30T09:20:12.000Z</time>
      </trkpt>
      <trkpt lat="43.97021" lon="3.01427">
        <ele>540.3</ele>
        <time>2026-04-30T09:20:13.000Z</time>
      </trkpt>
      <trkpt lat="43.97021" lon="3.01429">
        <ele>540.1</ele>
        <time>2026-04-30T09:20:14.000Z</time>
      </trkpt>
      <trkpt lat="43.97021" lon="3.0143">
        <ele>540</ele>
        <time>2026-04-30T09:20:15.000Z</time>
      </trkpt>
      <trkpt lat="43.97022" lon="3.01431">
        <ele>539.8</ele>
        <time>2026-04-30T09:20:16.000Z</time>
      </trkpt>
      <trkpt lat="43.97022" lon="3.01432">
        <ele>539.7</ele>
        <time>2026-04-30T09:20:17.000Z</time>
      </trkpt>
      <trkpt lat="43.97023" lon="3.01433">
        <ele>540.1</ele>
        <time>2026-04-30T09:20:18.000Z</time>
      </trkpt>
      <trkpt lat="43.97024" lon="3.01435">
        <ele>540</ele>
        <time>2026-04-30T09:20:19.000Z</time>
      </trkpt>
      <trkpt lat="43.97024" lon="3.01437">
        <ele>539.8</ele>
        <time>2026-04-30T09:20:20.000Z</time>
      </trkpt>
      <trkpt lat="43.97025" lon="3.01439">
        <ele>539.9</ele>
        <time>2026-04-30T09:20:21.000Z</time>
      </trkpt>
      <trkpt lat="43.97025" lon="3.01441">
        <ele>539.8</ele>
        <time>2026-04-30T09:20:22.000Z</time>
      </trkpt>
      <trkpt lat="43.97026" lon="3.01441">
        <ele>539.8</ele>
        <time>2026-04-30T09:20:23.000Z</time>
      </trkpt>
      <trkpt lat="43.97026" lon="3.01443">
        <ele>539.5</ele>
        <time>2026-04-30T09:20:24.000Z</time>
      </trkpt>
      <trkpt lat="43.97027" lon="3.01444">
        <ele>539.4</ele>
        <time>2026-04-30T09:20:25.000Z</time>
      </trkpt>
      <trkpt lat="43.97027" lon="3.01445">
        <ele>539.2</ele>
        <time>2026-04-30T09:20:26.000Z</time>
      </trkpt>
      <trkpt lat="43.97028" lon="3.01447">
        <ele>539.4</ele>
        <time>2026-04-30T09:20:27.000Z</time>
      </trkpt>
      <trkpt lat="43.97029" lon="3.01448">
        <ele>539.3</ele>
        <time>2026-04-30T09:20:28.000Z</time>
      </trkpt>
      <trkpt lat="43.9703" lon="3.0145">
        <ele>539.4</ele>
        <time>2026-04-30T09:20:29.000Z</time>
      </trkpt>
      <trkpt lat="43.97032" lon="3.01451">
        <ele>539.2</ele>
        <time>2026-04-30T09:20:30.000Z</time>
      </trkpt>
      <trkpt lat="43.97032" lon="3.01452">
        <ele>539.4</ele>
        <time>2026-04-30T09:20:31.000Z</time>
      </trkpt>
      <trkpt lat="43.97032" lon="3.01453">
        <ele>539.3</ele>
        <time>2026-04-30T09:20:32.000Z</time>
      </trkpt>
      <trkpt lat="43.97033" lon="3.01454">
        <ele>538.7</ele>
        <time>2026-04-30T09:20:33.000Z</time>
      </trkpt>
      <trkpt lat="43.97033" lon="3.01455">
        <ele>538.4</ele>
        <time>2026-04-30T09:20:34.000Z</time>
      </trkpt>
      <trkpt lat="43.97034" lon="3.01456">
        <ele>537.9</ele>
        <time>2026-04-30T09:20:35.000Z</time>
      </trkpt>
      <trkpt lat="43.97035" lon="3.01457">
        <ele>537.3</ele>
        <time>2026-04-30T09:20:36.000Z</time>
      </trkpt>
      <trkpt lat="43.97036" lon="3.01459">
        <ele>537.2</ele>
        <time>2026-04-30T09:20:37.000Z</time>
      </trkpt>
      <trkpt lat="43.97037" lon="3.01461">
        <ele>537.7</ele>
        <time>2026-04-30T09:20:38.000Z</time>
      </trkpt>
      <trkpt lat="43.97037" lon="3.01462">
        <ele>538.2</ele>
        <time>2026-04-30T09:20:39.000Z</time>
      </trkpt>
      <trkpt lat="43.97037" lon="3.01463">
        <ele>538.5</ele>
        <time>2026-04-30T09:20:40.000Z</time>
      </trkpt>
      <trkpt lat="43.97037" lon="3.01463">
        <ele>538.4</ele>
        <time>2026-04-30T09:20:41.000Z</time>
      </trkpt>
      <trkpt lat="43.97036" lon="3.01464">
        <ele>538.4</ele>
        <time>2026-04-30T09:20:42.000Z</time>
      </trkpt>
      <trkpt lat="43.97035" lon="3.01466">
        <ele>538.3</ele>
        <time>2026-04-30T09:20:43.000Z</time>
      </trkpt>
      <trkpt lat="43.97035" lon="3.01468">
        <ele>538.1</ele>
        <time>2026-04-30T09:20:44.000Z</time>
      </trkpt>
      <trkpt lat="43.97036" lon="3.0147">
        <ele>537.6</ele>
        <time>2026-04-30T09:20:45.000Z</time>
      </trkpt>
      <trkpt lat="43.97036" lon="3.01472">
        <ele>537.3</ele>
        <time>2026-04-30T09:20:46.000Z</time>
      </trkpt>
      <trkpt lat="43.97036" lon="3.01474">
        <ele>537.6</ele>
        <time>2026-04-30T09:20:47.000Z</time>
      </trkpt>
      <trkpt lat="43.97036" lon="3.01476">
        <ele>538</ele>
        <time>2026-04-30T09:20:48.000Z</time>
      </trkpt>
      <trkpt lat="43.97034" lon="3.01477">
        <ele>538</ele>
        <time>2026-04-30T09:20:49.000Z</time>
      </trkpt>
      <trkpt lat="43.97034" lon="3.01478">
        <ele>538.4</ele>
        <time>2026-04-30T09:20:50.000Z</time>
      </trkpt>
      <trkpt lat="43.97033" lon="3.01479">
        <ele>538.5</ele>
        <time>2026-04-30T09:20:51.000Z</time>
      </trkpt>
      <trkpt lat="43.97033" lon="3.01481">
        <ele>539</ele>
        <time>2026-04-30T09:20:52.000Z</time>
      </trkpt>
      <trkpt lat="43.97032" lon="3.01481">
        <ele>539.2</ele>
        <time>2026-04-30T09:20:53.000Z</time>
      </trkpt>
      <trkpt lat="43.97032" lon="3.01481">
        <ele>539.7</ele>
        <time>2026-04-30T09:20:54.000Z</time>
      </trkpt>
      <trkpt lat="43.97032" lon="3.01481">
        <ele>539.9</ele>
        <time>2026-04-30T09:20:55.000Z</time>
      </trkpt>
      <trkpt lat="43.97032" lon="3.01481">
        <ele>539.6</ele>
        <time>2026-04-30T09:20:56.000Z</time>
      </trkpt>
      <trkpt lat="43.97032" lon="3.01481">
        <ele>539</ele>
        <time>2026-04-30T09:20:57.000Z</time>
      </trkpt>
      <trkpt lat="43.97032" lon="3.0148">
        <ele>538.5</ele>
        <time>2026-04-30T09:20:58.000Z</time>
      </trkpt>
      <trkpt lat="43.97032" lon="3.0148">
        <ele>538.4</ele>
        <time>2026-04-30T09:20:59.000Z</time>
      </trkpt>
      <trkpt lat="43.97032" lon="3.0148">
        <ele>538.7</ele>
        <time>2026-04-30T09:21:00.000Z</time>
      </trkpt>
      <trkpt lat="43.97032" lon="3.0148">
        <ele>538.9</ele>
        <time>2026-04-30T09:21:01.000Z</time>
      </trkpt>
      <trkpt lat="43.97032" lon="3.01481">
        <ele>538.8</ele>
        <time>2026-04-30T09:21:02.000Z</time>
      </trkpt>
      <trkpt lat="43.97032" lon="3.01481">
        <ele>538.8</ele>
        <time>2026-04-30T09:21:03.000Z</time>
      </trkpt>
      <trkpt lat="43.97032" lon="3.01481">
        <ele>538.7</ele>
        <time>2026-04-30T09:21:04.000Z</time>
      </trkpt>
      <trkpt lat="43.97031" lon="3.01482">
        <ele>538.7</ele>
        <time>2026-04-30T09:21:05.000Z</time>
      </trkpt>
      <trkpt lat="43.97031" lon="3.01482">
        <ele>538.7</ele>
        <time>2026-04-30T09:21:06.000Z</time>
      </trkpt>
      <trkpt lat="43.97031" lon="3.01482">
        <ele>538.7</ele>
        <time>2026-04-30T09:21:07.000Z</time>
      </trkpt>
      <trkpt lat="43.97031" lon="3.01483">
        <ele>538.8</ele>
        <time>2026-04-30T09:21:08.000Z</time>
      </trkpt>
      <trkpt lat="43.97029" lon="3.01485">
        <ele>538.9</ele>
        <time>2026-04-30T09:21:09.000Z</time>
      </trkpt>
      <trkpt lat="43.97028" lon="3.01488">
        <ele>539.3</ele>
        <time>2026-04-30T09:21:10.000Z</time>
      </trkpt>
      <trkpt lat="43.97026" lon="3.01491">
        <ele>539.6</ele>
        <time>2026-04-30T09:21:11.000Z</time>
      </trkpt>
      <trkpt lat="43.97025" lon="3.01492">
        <ele>539.9</ele>
        <time>2026-04-30T09:21:12.000Z</time>
      </trkpt>
      <trkpt lat="43.97024" lon="3.01494">
        <ele>539.7</ele>
        <time>2026-04-30T09:21:13.000Z</time>
      </trkpt>
      <trkpt lat="43.97023" lon="3.01495">
        <ele>539.5</ele>
        <time>2026-04-30T09:21:14.000Z</time>
      </trkpt>
      <trkpt lat="43.97022" lon="3.01495">
        <ele>539.7</ele>
        <time>2026-04-30T09:21:15.000Z</time>
      </trkpt>
      <trkpt lat="43.97022" lon="3.01497">
        <ele>539.8</ele>
        <time>2026-04-30T09:21:16.000Z</time>
      </trkpt>
      <trkpt lat="43.97021" lon="3.01498">
        <ele>539.5</ele>
        <time>2026-04-30T09:21:17.000Z</time>
      </trkpt>
      <trkpt lat="43.9702" lon="3.01499">
        <ele>539.5</ele>
        <time>2026-04-30T09:21:18.000Z</time>
      </trkpt>
      <trkpt lat="43.9702" lon="3.01501">
        <ele>540</ele>
        <time>2026-04-30T09:21:19.000Z</time>
      </trkpt>
      <trkpt lat="43.97019" lon="3.01503">
        <ele>540</ele>
        <time>2026-04-30T09:21:20.000Z</time>
      </trkpt>
      <trkpt lat="43.97018" lon="3.01504">
        <ele>540.2</ele>
        <time>2026-04-30T09:21:21.000Z</time>
      </trkpt>
      <trkpt lat="43.97017" lon="3.01505">
        <ele>540.4</ele>
        <time>2026-04-30T09:21:22.000Z</time>
      </trkpt>
      <trkpt lat="43.97016" lon="3.01506">
        <ele>540.6</ele>
        <time>2026-04-30T09:21:23.000Z</time>
      </trkpt>
      <trkpt lat="43.97015" lon="3.01507">
        <ele>540.6</ele>
        <time>2026-04-30T09:21:24.000Z</time>
      </trkpt>
      <trkpt lat="43.97014" lon="3.01509">
        <ele>540.4</ele>
        <time>2026-04-30T09:21:25.000Z</time>
      </trkpt>
      <trkpt lat="43.97013" lon="3.0151">
        <ele>540.1</ele>
        <time>2026-04-30T09:21:26.000Z</time>
      </trkpt>
      <trkpt lat="43.97012" lon="3.01512">
        <ele>539.8</ele>
        <time>2026-04-30T09:21:27.000Z</time>
      </trkpt>
      <trkpt lat="43.97011" lon="3.01514">
        <ele>539.7</ele>
        <time>2026-04-30T09:21:28.000Z</time>
      </trkpt>
      <trkpt lat="43.97011" lon="3.01516">
        <ele>539.5</ele>
        <time>2026-04-30T09:21:29.000Z</time>
      </trkpt>
      <trkpt lat="43.97011" lon="3.01518">
        <ele>539.9</ele>
        <time>2026-04-30T09:21:30.000Z</time>
      </trkpt>
      <trkpt lat="43.97011" lon="3.01519">
        <ele>539.7</ele>
        <time>2026-04-30T09:21:31.000Z</time>
      </trkpt>
      <trkpt lat="43.97012" lon="3.01521">
        <ele>539.3</ele>
        <time>2026-04-30T09:21:32.000Z</time>
      </trkpt>
      <trkpt lat="43.97012" lon="3.01522">
        <ele>538.9</ele>
        <time>2026-04-30T09:21:33.000Z</time>
      </trkpt>
      <trkpt lat="43.97012" lon="3.01523">
        <ele>538.8</ele>
        <time>2026-04-30T09:21:34.000Z</time>
      </trkpt>
      <trkpt lat="43.97012" lon="3.01524">
        <ele>538.7</ele>
        <time>2026-04-30T09:21:35.000Z</time>
      </trkpt>
      <trkpt lat="43.97013" lon="3.01525">
        <ele>538.4</ele>
        <time>2026-04-30T09:21:36.000Z</time>
      </trkpt>
      <trkpt lat="43.97014" lon="3.01525">
        <ele>538.4</ele>
        <time>2026-04-30T09:21:37.000Z</time>
      </trkpt>
      <trkpt lat="43.97014" lon="3.01526">
        <ele>538.6</ele>
        <time>2026-04-30T09:21:38.000Z</time>
      </trkpt>
      <trkpt lat="43.97015" lon="3.01527">
        <ele>538.8</ele>
        <time>2026-04-30T09:21:39.000Z</time>
      </trkpt>
      <trkpt lat="43.97015" lon="3.01529">
        <ele>538.5</ele>
        <time>2026-04-30T09:21:40.000Z</time>
      </trkpt>
      <trkpt lat="43.97016" lon="3.01531">
        <ele>538.6</ele>
        <time>2026-04-30T09:21:41.000Z</time>
      </trkpt>
      <trkpt lat="43.97016" lon="3.01531">
        <ele>538.5</ele>
        <time>2026-04-30T09:21:42.000Z</time>
      </trkpt>
      <trkpt lat="43.97016" lon="3.01531">
        <ele>538.7</ele>
        <time>2026-04-30T09:21:43.000Z</time>
      </trkpt>
      <trkpt lat="43.97017" lon="3.01532">
        <ele>538.8</ele>
        <time>2026-04-30T09:21:44.000Z</time>
      </trkpt>
      <trkpt lat="43.97017" lon="3.01533">
        <ele>539.4</ele>
        <time>2026-04-30T09:21:45.000Z</time>
      </trkpt>
      <trkpt lat="43.97017" lon="3.01535">
        <ele>539.7</ele>
        <time>2026-04-30T09:21:46.000Z</time>
      </trkpt>
      <trkpt lat="43.97017" lon="3.01536">
        <ele>540.3</ele>
        <time>2026-04-30T09:21:47.000Z</time>
      </trkpt>
      <trkpt lat="43.97018" lon="3.01536">
        <ele>540.8</ele>
        <time>2026-04-30T09:21:48.000Z</time>
      </trkpt>
      <trkpt lat="43.97019" lon="3.01536">
        <ele>540.9</ele>
        <time>2026-04-30T09:21:49.000Z</time>
      </trkpt>
      <trkpt lat="43.97019" lon="3.01535">
        <ele>541</ele>
        <time>2026-04-30T09:21:50.000Z</time>
      </trkpt>
      <trkpt lat="43.9702" lon="3.01534">
        <ele>541.3</ele>
        <time>2026-04-30T09:21:51.000Z</time>
      </trkpt>
      <trkpt lat="43.97022" lon="3.01532">
        <ele>541.3</ele>
        <time>2026-04-30T09:21:52.000Z</time>
      </trkpt>
      <trkpt lat="43.97022" lon="3.0153">
        <ele>541.3</ele>
        <time>2026-04-30T09:21:53.000Z</time>
      </trkpt>
      <trkpt lat="43.97022" lon="3.0153">
        <ele>541.1</ele>
        <time>2026-04-30T09:21:54.000Z</time>
      </trkpt>
      <trkpt lat="43.97022" lon="3.0153">
        <ele>541</ele>
        <time>2026-04-30T09:21:55.000Z</time>
      </trkpt>
      <trkpt lat="43.97022" lon="3.01529">
        <ele>540.6</ele>
        <time>2026-04-30T09:21:56.000Z</time>
      </trkpt>
      <trkpt lat="43.97022" lon="3.01529">
        <ele>540.3</ele>
        <time>2026-04-30T09:21:57.000Z</time>
      </trkpt>
      <trkpt lat="43.97023" lon="3.01528">
        <ele>540.1</ele>
        <time>2026-04-30T09:21:58.000Z</time>
      </trkpt>
      <trkpt lat="43.97024" lon="3.01527">
        <ele>539.8</ele>
        <time>2026-04-30T09:21:59.000Z</time>
      </trkpt>
      <trkpt lat="43.97026" lon="3.01526">
        <ele>539.7</ele>
        <time>2026-04-30T09:22:00.000Z</time>
      </trkpt>
      <trkpt lat="43.97027" lon="3.01524">
        <ele>539.5</ele>
        <time>2026-04-30T09:22:01.000Z</time>
      </trkpt>
      <trkpt lat="43.97028" lon="3.01523">
        <ele>539.5</ele>
        <time>2026-04-30T09:22:02.000Z</time>
      </trkpt>
      <trkpt lat="43.97028" lon="3.01521">
        <ele>539.7</ele>
        <time>2026-04-30T09:22:03.000Z</time>
      </trkpt>
      <trkpt lat="43.97029" lon="3.0152">
        <ele>539.7</ele>
        <time>2026-04-30T09:22:04.000Z</time>
      </trkpt>
      <trkpt lat="43.9703" lon="3.01518">
        <ele>539.8</ele>
        <time>2026-04-30T09:22:05.000Z</time>
      </trkpt>
      <trkpt lat="43.97031" lon="3.01517">
        <ele>539.8</ele>
        <time>2026-04-30T09:22:06.000Z</time>
      </trkpt>
      <trkpt lat="43.97032" lon="3.01516">
        <ele>539.7</ele>
        <time>2026-04-30T09:22:07.000Z</time>
      </trkpt>
      <trkpt lat="43.97032" lon="3.01516">
        <ele>539.2</ele>
        <time>2026-04-30T09:22:08.000Z</time>
      </trkpt>
      <trkpt lat="43.97033" lon="3.01515">
        <ele>539.3</ele>
        <time>2026-04-30T09:22:09.000Z</time>
      </trkpt>
      <trkpt lat="43.97034" lon="3.01514">
        <ele>539.7</ele>
        <time>2026-04-30T09:22:10.000Z</time>
      </trkpt>
      <trkpt lat="43.97035" lon="3.01513">
        <ele>540.1</ele>
        <time>2026-04-30T09:22:11.000Z</time>
      </trkpt>
      <trkpt lat="43.97036" lon="3.01511">
        <ele>540.1</ele>
        <time>2026-04-30T09:22:12.000Z</time>
      </trkpt>
      <trkpt lat="43.97036" lon="3.0151">
        <ele>540.3</ele>
        <time>2026-04-30T09:22:13.000Z</time>
      </trkpt>
      <trkpt lat="43.97036" lon="3.01509">
        <ele>540.2</ele>
        <time>2026-04-30T09:22:14.000Z</time>
      </trkpt>
      <trkpt lat="43.97036" lon="3.01508">
        <ele>540.2</ele>
        <time>2026-04-30T09:22:15.000Z</time>
      </trkpt>
      <trkpt lat="43.97036" lon="3.01507">
        <ele>540.4</ele>
        <time>2026-04-30T09:22:16.000Z</time>
      </trkpt>
      <trkpt lat="43.97036" lon="3.01505">
        <ele>540.2</ele>
        <time>2026-04-30T09:22:17.000Z</time>
      </trkpt>
      <trkpt lat="43.97036" lon="3.01503">
        <ele>540</ele>
        <time>2026-04-30T09:22:18.000Z</time>
      </trkpt>
      <trkpt lat="43.97036" lon="3.01501">
        <ele>539.7</ele>
        <time>2026-04-30T09:22:19.000Z</time>
      </trkpt>
      <trkpt lat="43.97036" lon="3.015">
        <ele>539.7</ele>
        <time>2026-04-30T09:22:20.000Z</time>
      </trkpt>
      <trkpt lat="43.97036" lon="3.01499">
        <ele>539.4</ele>
        <time>2026-04-30T09:22:21.000Z</time>
      </trkpt>
      <trkpt lat="43.97035" lon="3.015">
        <ele>538.9</ele>
        <time>2026-04-30T09:22:22.000Z</time>
      </trkpt>
      <trkpt lat="43.97034" lon="3.01501">
        <ele>538.8</ele>
        <time>2026-04-30T09:22:23.000Z</time>
      </trkpt>
      <trkpt lat="43.97034" lon="3.01501">
        <ele>539.2</ele>
        <time>2026-04-30T09:22:24.000Z</time>
      </trkpt>
      <trkpt lat="43.97034" lon="3.01501">
        <ele>539.1</ele>
        <time>2026-04-30T09:22:25.000Z</time>
      </trkpt>
      <trkpt lat="43.97034" lon="3.015">
        <ele>539.1</ele>
        <time>2026-04-30T09:22:26.000Z</time>
      </trkpt>
      <trkpt lat="43.97034" lon="3.015">
        <ele>538.8</ele>
        <time>2026-04-30T09:22:27.000Z</time>
      </trkpt>
      <trkpt lat="43.97034" lon="3.01499">
        <ele>538.3</ele>
        <time>2026-04-30T09:22:29.000Z</time>
      </trkpt>
      <trkpt lat="43.97034" lon="3.01499">
        <ele>538.3</ele>
        <time>2026-04-30T09:22:30.000Z</time>
      </trkpt>
      <trkpt lat="43.97034" lon="3.01499">
        <ele>538.2</ele>
        <time>2026-04-30T09:22:31.000Z</time>
      </trkpt>
      <trkpt lat="43.97034" lon="3.01499">
        <ele>538.3</ele>
        <time>2026-04-30T09:22:32.000Z</time>
      </trkpt>
      <trkpt lat="43.97034" lon="3.01499">
        <ele>538.5</ele>
        <time>2026-04-30T09:22:33.000Z</time>
      </trkpt>
      <trkpt lat="43.97034" lon="3.01499">
        <ele>538.9</ele>
        <time>2026-04-30T09:22:34.000Z</time>
      </trkpt>
      <trkpt lat="43.97034" lon="3.01499">
        <ele>539</ele>
        <time>2026-04-30T09:22:35.000Z</time>
      </trkpt>
      <trkpt lat="43.97034" lon="3.01499">
        <ele>539.2</ele>
        <time>2026-04-30T09:22:36.000Z</time>
      </trkpt>
      <trkpt lat="43.97034" lon="3.01499">
        <ele>539.4</ele>
        <time>2026-04-30T09:22:37.000Z</time>
      </trkpt>
      <trkpt lat="43.97034" lon="3.01499">
        <ele>539.5</ele>
        <time>2026-04-30T09:22:38.000Z</time>
      </trkpt>
      <trkpt lat="43.97034" lon="3.01499">
        <ele>539.4</ele>
        <time>2026-04-30T09:22:39.000Z</time>
      </trkpt>
      <trkpt lat="43.97034" lon="3.01499">
        <ele>539.5</ele>
        <time>2026-04-30T09:22:40.000Z</time>
      </trkpt>
      <trkpt lat="43.97034" lon="3.01499">
        <ele>539.6</ele>
        <time>2026-04-30T09:22:42.000Z</time>
      </trkpt>
      <trkpt lat="43.97034" lon="3.01499">
        <ele>539.7</ele>
        <time>2026-04-30T09:22:43.000Z</time>
      </trkpt>
      <trkpt lat="43.97034" lon="3.01499">
        <ele>539.8</ele>
        <time>2026-04-30T09:22:44.000Z</time>
      </trkpt>
      <trkpt lat="43.97034" lon="3.01499">
        <ele>540</ele>
        <time>2026-04-30T09:22:45.000Z</time>
      </trkpt>
      <trkpt lat="43.97034" lon="3.01499">
        <ele>540</ele>
        <time>2026-04-30T09:22:46.000Z</time>
      </trkpt>
      <trkpt lat="43.97034" lon="3.015">
        <ele>540.1</ele>
        <time>2026-04-30T09:22:47.000Z</time>
      </trkpt>
      <trkpt lat="43.97034" lon="3.01499">
        <ele>540.3</ele>
        <time>2026-04-30T09:22:48.000Z</time>
      </trkpt>
      <trkpt lat="43.97034" lon="3.01499">
        <ele>540.2</ele>
        <time>2026-04-30T09:22:49.000Z</time>
      </trkpt>
      <trkpt lat="43.97034" lon="3.01499">
        <ele>540.1</ele>
        <time>2026-04-30T09:22:50.000Z</time>
      </trkpt>
      <trkpt lat="43.97034" lon="3.01499">
        <ele>540.1</ele>
        <time>2026-04-30T09:22:51.000Z</time>
      </trkpt>
      <trkpt lat="43.97034" lon="3.01499">
        <ele>540.1</ele>
        <time>2026-04-30T09:22:52.000Z</time>
      </trkpt>
      <trkpt lat="43.97034" lon="3.01499">
        <ele>540</ele>
        <time>2026-04-30T09:22:53.000Z</time>
      </trkpt>
      <trkpt lat="43.97034" lon="3.01499">
        <ele>539.7</ele>
        <time>2026-04-30T09:22:54.000Z</time>
      </trkpt>
      <trkpt lat="43.97034" lon="3.01499">
        <ele>539.5</ele>
        <time>2026-04-30T09:22:55.000Z</time>
      </trkpt>
      <trkpt lat="43.97034" lon="3.01499">
        <ele>539.3</ele>
        <time>2026-04-30T09:22:56.000Z</time>
      </trkpt>
      <trkpt lat="43.97034" lon="3.01499">
        <ele>539.2</ele>
        <time>2026-04-30T09:22:57.000Z</time>
      </trkpt>
      <trkpt lat="43.97034" lon="3.015">
        <ele>539.1</ele>
        <time>2026-04-30T09:22:58.000Z</time>
      </trkpt>
      <trkpt lat="43.97035" lon="3.015">
        <ele>539</ele>
        <time>2026-04-30T09:22:59.000Z</time>
      </trkpt>
      <trkpt lat="43.97035" lon="3.01502">
        <ele>539.7</ele>
        <time>2026-04-30T09:23:01.000Z</time>
      </trkpt>
      <trkpt lat="43.97035" lon="3.01502">
        <ele>539.5</ele>
        <time>2026-04-30T09:23:02.000Z</time>
      </trkpt>
      <trkpt lat="43.97035" lon="3.01503">
        <ele>539.6</ele>
        <time>2026-04-30T09:23:03.000Z</time>
      </trkpt>
      <trkpt lat="43.97035" lon="3.01505">
        <ele>539.8</ele>
        <time>2026-04-30T09:23:04.000Z</time>
      </trkpt>
      <trkpt lat="43.97035" lon="3.01505">
        <ele>539.9</ele>
        <time>2026-04-30T09:23:05.000Z</time>
      </trkpt>
      <trkpt lat="43.97036" lon="3.01506">
        <ele>539.8</ele>
        <time>2026-04-30T09:23:06.000Z</time>
      </trkpt>
      <trkpt lat="43.97036" lon="3.01506">
        <ele>539.8</ele>
        <time>2026-04-30T09:23:07.000Z</time>
      </trkpt>
      <trkpt lat="43.97036" lon="3.01506">
        <ele>539.7</ele>
        <time>2026-04-30T09:23:08.000Z</time>
      </trkpt>
      <trkpt lat="43.97035" lon="3.01506">
        <ele>539.4</ele>
        <time>2026-04-30T09:23:09.000Z</time>
      </trkpt>
      <trkpt lat="43.97035" lon="3.01506">
        <ele>539.3</ele>
        <time>2026-04-30T09:23:10.000Z</time>
      </trkpt>
      <trkpt lat="43.97035" lon="3.01506">
        <ele>539.3</ele>
        <time>2026-04-30T09:23:11.000Z</time>
      </trkpt>
      <trkpt lat="43.97036" lon="3.01506">
        <ele>539.3</ele>
        <time>2026-04-30T09:23:12.000Z</time>
      </trkpt>
      <trkpt lat="43.97036" lon="3.01506">
        <ele>539.3</ele>
        <time>2026-04-30T09:23:13.000Z</time>
      </trkpt>
      <trkpt lat="43.97036" lon="3.01506">
        <ele>539</ele>
        <time>2026-04-30T09:23:14.000Z</time>
      </trkpt>
      <trkpt lat="43.97036" lon="3.01506">
        <ele>538.7</ele>
        <time>2026-04-30T09:23:15.000Z</time>
      </trkpt>
      <trkpt lat="43.97036" lon="3.01506">
        <ele>538.3</ele>
        <time>2026-04-30T09:23:16.000Z</time>
      </trkpt>
      <trkpt lat="43.97036" lon="3.01506">
        <ele>538.1</ele>
        <time>2026-04-30T09:23:17.000Z</time>
      </trkpt>
      <trkpt lat="43.97036" lon="3.01506">
        <ele>537.9</ele>
        <time>2026-04-30T09:23:18.000Z</time>
      </trkpt>
      <trkpt lat="43.97036" lon="3.01506">
        <ele>537.7</ele>
        <time>2026-04-30T09:23:19.000Z</time>
      </trkpt>
      <trkpt lat="43.97036" lon="3.01506">
        <ele>537.5</ele>
        <time>2026-04-30T09:23:20.000Z</time>
      </trkpt>
      <trkpt lat="43.97036" lon="3.01506">
        <ele>537.1</ele>
        <time>2026-04-30T09:23:21.000Z</time>
      </trkpt>
      <trkpt lat="43.97036" lon="3.01506">
        <ele>536.6</ele>
        <time>2026-04-30T09:23:22.000Z</time>
      </trkpt>
      <trkpt lat="43.97035" lon="3.01506">
        <ele>536.2</ele>
        <time>2026-04-30T09:23:23.000Z</time>
      </trkpt>
      <trkpt lat="43.97035" lon="3.01506">
        <ele>535.8</ele>
        <time>2026-04-30T09:23:24.000Z</time>
      </trkpt>
      <trkpt lat="43.97035" lon="3.01506">
        <ele>535.7</ele>
        <time>2026-04-30T09:23:25.000Z</time>
      </trkpt>
      <trkpt lat="43.97036" lon="3.01506">
        <ele>535.9</ele>
        <time>2026-04-30T09:23:26.000Z</time>
      </trkpt>
      <trkpt lat="43.97036" lon="3.01506">
        <ele>535.9</ele>
        <time>2026-04-30T09:23:27.000Z</time>
      </trkpt>
      <trkpt lat="43.97036" lon="3.01506">
        <ele>535.8</ele>
        <time>2026-04-30T09:23:28.000Z</time>
      </trkpt>
      <trkpt lat="43.97036" lon="3.01506">
        <ele>535.7</ele>
        <time>2026-04-30T09:23:29.000Z</time>
      </trkpt>
      <trkpt lat="43.97036" lon="3.01506">
        <ele>535.7</ele>
        <time>2026-04-30T09:23:30.000Z</time>
      </trkpt>
      <trkpt lat="43.97036" lon="3.01506">
        <ele>535.8</ele>
        <time>2026-04-30T09:23:31.000Z</time>
      </trkpt>
      <trkpt lat="43.97036" lon="3.01507">
        <ele>535.8</ele>
        <time>2026-04-30T09:23:32.000Z</time>
      </trkpt>
      <trkpt lat="43.97036" lon="3.01507">
        <ele>535.8</ele>
        <time>2026-04-30T09:23:33.000Z</time>
      </trkpt>
      <trkpt lat="43.97036" lon="3.01507">
        <ele>535.9</ele>
        <time>2026-04-30T09:23:34.000Z</time>
      </trkpt>
      <trkpt lat="43.97036" lon="3.01507">
        <ele>535.9</ele>
        <time>2026-04-30T09:23:35.000Z</time>
      </trkpt>
      <trkpt lat="43.97036" lon="3.01507">
        <ele>535.9</ele>
        <time>2026-04-30T09:23:36.000Z</time>
      </trkpt>
      <trkpt lat="43.97036" lon="3.01507">
        <ele>535.9</ele>
        <time>2026-04-30T09:23:37.000Z</time>
      </trkpt>
      <trkpt lat="43.97036" lon="3.01507">
        <ele>535.9</ele>
        <time>2026-04-30T09:23:38.000Z</time>
      </trkpt>
      <trkpt lat="43.97035" lon="3.01507">
        <ele>536.2</ele>
        <time>2026-04-30T09:23:39.000Z</time>
      </trkpt>
      <trkpt lat="43.97035" lon="3.01507">
        <ele>536.3</ele>
        <time>2026-04-30T09:23:40.000Z</time>
      </trkpt>
      <trkpt lat="43.97035" lon="3.01507">
        <ele>536.6</ele>
        <time>2026-04-30T09:23:41.000Z</time>
      </trkpt>
      <trkpt lat="43.97035" lon="3.01507">
        <ele>536.6</ele>
        <time>2026-04-30T09:23:42.000Z</time>
      </trkpt>
      <trkpt lat="43.97035" lon="3.01507">
        <ele>536.8</ele>
        <time>2026-04-30T09:23:43.000Z</time>
      </trkpt>
      <trkpt lat="43.97035" lon="3.01507">
        <ele>536.8</ele>
        <time>2026-04-30T09:23:44.000Z</time>
      </trkpt>
      <trkpt lat="43.97035" lon="3.01507">
        <ele>536.9</ele>
        <time>2026-04-30T09:23:45.000Z</time>
      </trkpt>
      <trkpt lat="43.97035" lon="3.01507">
        <ele>536.6</ele>
        <time>2026-04-30T09:23:46.000Z</time>
      </trkpt>
      <trkpt lat="43.97035" lon="3.01507">
        <ele>536.4</ele>
        <time>2026-04-30T09:23:47.000Z</time>
      </trkpt>
      <trkpt lat="43.97035" lon="3.01507">
        <ele>536.4</ele>
        <time>2026-04-30T09:23:48.000Z</time>
      </trkpt>
      <trkpt lat="43.97035" lon="3.01507">
        <ele>536.4</ele>
        <time>2026-04-30T09:23:49.000Z</time>
      </trkpt>
      <trkpt lat="43.97035" lon="3.01507">
        <ele>536.3</ele>
        <time>2026-04-30T09:23:50.000Z</time>
      </trkpt>
      <trkpt lat="43.97035" lon="3.01507">
        <ele>536.3</ele>
        <time>2026-04-30T09:23:51.000Z</time>
      </trkpt>
      <trkpt lat="43.97035" lon="3.01507">
        <ele>536.3</ele>
        <time>2026-04-30T09:23:52.000Z</time>
      </trkpt>
      <trkpt lat="43.97035" lon="3.01507">
        <ele>536.7</ele>
        <time>2026-04-30T09:23:53.000Z</time>
      </trkpt>
      <trkpt lat="43.97035" lon="3.01507">
        <ele>537</ele>
        <time>2026-04-30T09:23:54.000Z</time>
      </trkpt>
      <trkpt lat="43.97035" lon="3.01507">
        <ele>537</ele>
        <time>2026-04-30T09:23:55.000Z</time>
      </trkpt>
      <trkpt lat="43.97035" lon="3.01507">
        <ele>537.1</ele>
        <time>2026-04-30T09:23:56.000Z</time>
      </trkpt>
      <trkpt lat="43.97035" lon="3.01506">
        <ele>537.1</ele>
        <time>2026-04-30T09:23:57.000Z</time>
      </trkpt>
      <trkpt lat="43.97035" lon="3.01506">
        <ele>537.2</ele>
        <time>2026-04-30T09:23:58.000Z</time>
      </trkpt>
      <trkpt lat="43.97035" lon="3.01506">
        <ele>537.3</ele>
        <time>2026-04-30T09:23:59.000Z</time>
      </trkpt>
      <trkpt lat="43.97035" lon="3.01506">
        <ele>537.2</ele>
        <time>2026-04-30T09:24:00.000Z</time>
      </trkpt>
      <trkpt lat="43.97035" lon="3.01506">
        <ele>537.1</ele>
        <time>2026-04-30T09:24:01.000Z</time>
      </trkpt>
      <trkpt lat="43.97035" lon="3.01506">
        <ele>537</ele>
        <time>2026-04-30T09:24:02.000Z</time>
      </trkpt>
      <trkpt lat="43.97035" lon="3.01506">
        <ele>536.9</ele>
        <time>2026-04-30T09:24:03.000Z</time>
      </trkpt>
      <trkpt lat="43.97035" lon="3.01506">
        <ele>537.1</ele>
        <time>2026-04-30T09:24:04.000Z</time>
      </trkpt>
      <trkpt lat="43.97035" lon="3.01506">
        <ele>537.1</ele>
        <time>2026-04-30T09:24:05.000Z</time>
      </trkpt>
      <trkpt lat="43.97035" lon="3.01506">
        <ele>536.8</ele>
        <time>2026-04-30T09:24:06.000Z</time>
      </trkpt>
      <trkpt lat="43.97035" lon="3.01506">
        <ele>536.6</ele>
        <time>2026-04-30T09:24:07.000Z</time>
      </trkpt>
      <trkpt lat="43.97035" lon="3.01507">
        <ele>536.5</ele>
        <time>2026-04-30T09:24:08.000Z</time>
      </trkpt>
      <trkpt lat="43.97035" lon="3.01507">
        <ele>536.5</ele>
        <time>2026-04-30T09:24:09.000Z</time>
      </trkpt>
      <trkpt lat="43.97035" lon="3.01507">
        <ele>536.4</ele>
        <time>2026-04-30T09:24:10.000Z</time>
      </trkpt>
      <trkpt lat="43.97035" lon="3.01507">
        <ele>536.3</ele>
        <time>2026-04-30T09:24:11.000Z</time>
      </trkpt>
      <trkpt lat="43.97035" lon="3.01507">
        <ele>536.1</ele>
        <time>2026-04-30T09:24:12.000Z</time>
      </trkpt>
      <trkpt lat="43.97035" lon="3.01507">
        <ele>536</ele>
        <time>2026-04-30T09:24:13.000Z</time>
      </trkpt>
      <trkpt lat="43.97035" lon="3.01507">
        <ele>535.9</ele>
        <time>2026-04-30T09:24:14.000Z</time>
      </trkpt>
      <trkpt lat="43.97035" lon="3.01507">
        <ele>535.8</ele>
        <time>2026-04-30T09:24:15.000Z</time>
      </trkpt>
      <trkpt lat="43.97035" lon="3.01507">
        <ele>535.7</ele>
        <time>2026-04-30T09:24:16.000Z</time>
      </trkpt>
      <trkpt lat="43.97035" lon="3.01507">
        <ele>535.5</ele>
        <time>2026-04-30T09:24:17.000Z</time>
      </trkpt>
      <trkpt lat="43.97035" lon="3.01507">
        <ele>535.7</ele>
        <time>2026-04-30T09:24:18.000Z</time>
      </trkpt>
      <trkpt lat="43.97035" lon="3.01507">
        <ele>535.6</ele>
        <time>2026-04-30T09:24:19.000Z</time>
      </trkpt>
      <trkpt lat="43.97035" lon="3.01507">
        <ele>535.5</ele>
        <time>2026-04-30T09:24:20.000Z</time>
      </trkpt>
      <trkpt lat="43.97035" lon="3.01507">
        <ele>535.4</ele>
        <time>2026-04-30T09:24:21.000Z</time>
      </trkpt>
      <trkpt lat="43.97035" lon="3.01507">
        <ele>535.3</ele>
        <time>2026-04-30T09:24:22.000Z</time>
      </trkpt>
      <trkpt lat="43.97035" lon="3.01507">
        <ele>535.3</ele>
        <time>2026-04-30T09:24:23.000Z</time>
      </trkpt>
      <trkpt lat="43.97035" lon="3.01507">
        <ele>535.3</ele>
        <time>2026-04-30T09:24:24.000Z</time>
      </trkpt>
      <trkpt lat="43.97035" lon="3.01507">
        <ele>535.2</ele>
        <time>2026-04-30T09:24:25.000Z</time>
      </trkpt>
      <trkpt lat="43.97035" lon="3.01507">
        <ele>535.3</ele>
        <time>2026-04-30T09:24:26.000Z</time>
      </trkpt>
      <trkpt lat="43.97035" lon="3.01507">
        <ele>535.3</ele>
        <time>2026-04-30T09:24:27.000Z</time>
      </trkpt>
      <trkpt lat="43.97035" lon="3.01507">
        <ele>535.3</ele>
        <time>2026-04-30T09:24:28.000Z</time>
      </trkpt>
      <trkpt lat="43.97035" lon="3.01507">
        <ele>535.6</ele>
        <time>2026-04-30T09:24:29.000Z</time>
      </trkpt>
      <trkpt lat="43.97035" lon="3.01507">
        <ele>535.6</ele>
        <time>2026-04-30T09:24:30.000Z</time>
      </trkpt>
      <trkpt lat="43.97035" lon="3.01507">
        <ele>535.8</ele>
        <time>2026-04-30T09:24:31.000Z</time>
      </trkpt>
      <trkpt lat="43.97035" lon="3.01507">
        <ele>535.8</ele>
        <time>2026-04-30T09:24:32.000Z</time>
      </trkpt>
      <trkpt lat="43.97035" lon="3.01507">
        <ele>535.7</ele>
        <time>2026-04-30T09:24:33.000Z</time>
      </trkpt>
      <trkpt lat="43.97035" lon="3.01507">
        <ele>535.7</ele>
        <time>2026-04-30T09:24:34.000Z</time>
      </trkpt>
      <trkpt lat="43.97035" lon="3.01507">
        <ele>535.6</ele>
        <time>2026-04-30T09:24:35.000Z</time>
      </trkpt>
      <trkpt lat="43.97035" lon="3.01507">
        <ele>535.7</ele>
        <time>2026-04-30T09:24:36.000Z</time>
      </trkpt>
      <trkpt lat="43.97035" lon="3.01507">
        <ele>535.9</ele>
        <time>2026-04-30T09:24:37.000Z</time>
      </trkpt>
      <trkpt lat="43.97035" lon="3.01507">
        <ele>535.9</ele>
        <time>2026-04-30T09:24:38.000Z</time>
      </trkpt>
      <trkpt lat="43.97035" lon="3.01507">
        <ele>536</ele>
        <time>2026-04-30T09:24:39.000Z</time>
      </trkpt>
      <trkpt lat="43.97035" lon="3.01507">
        <ele>536.2</ele>
        <time>2026-04-30T09:24:40.000Z</time>
      </trkpt>
      <trkpt lat="43.97035" lon="3.01507">
        <ele>536.3</ele>
        <time>2026-04-30T09:24:41.000Z</time>
      </trkpt>
      <trkpt lat="43.97035" lon="3.01507">
        <ele>536.2</ele>
        <time>2026-04-30T09:24:42.000Z</time>
      </trkpt>
      <trkpt lat="43.97035" lon="3.01507">
        <ele>536.2</ele>
        <time>2026-04-30T09:24:43.000Z</time>
      </trkpt>
      <trkpt lat="43.97035" lon="3.01507">
        <ele>536.4</ele>
        <time>2026-04-30T09:24:44.000Z</time>
      </trkpt>
      <trkpt lat="43.97035" lon="3.01507">
        <ele>536.4</ele>
        <time>2026-04-30T09:24:45.000Z</time>
      </trkpt>
      <trkpt lat="43.97035" lon="3.01507">
        <ele>536.3</ele>
        <time>2026-04-30T09:24:46.000Z</time>
      </trkpt>
      <trkpt lat="43.97035" lon="3.01507">
        <ele>536.3</ele>
        <time>2026-04-30T09:24:47.000Z</time>
      </trkpt>
      <trkpt lat="43.97035" lon="3.01507">
        <ele>536.3</ele>
        <time>2026-04-30T09:24:48.000Z</time>
      </trkpt>
      <trkpt lat="43.97035" lon="3.01507">
        <ele>536.4</ele>
        <time>2026-04-30T09:24:49.000Z</time>
      </trkpt>
      <trkpt lat="43.97035" lon="3.01507">
        <ele>536.5</ele>
        <time>2026-04-30T09:24:50.000Z</time>
      </trkpt>
      <trkpt lat="43.97035" lon="3.01507">
        <ele>536.5</ele>
        <time>2026-04-30T09:24:51.000Z</time>
      </trkpt>
      <trkpt lat="43.97035" lon="3.01507">
        <ele>536.1</ele>
        <time>2026-04-30T09:24:52.000Z</time>
      </trkpt>
      <trkpt lat="43.97035" lon="3.01507">
        <ele>536</ele>
        <time>2026-04-30T09:24:53.000Z</time>
      </trkpt>
      <trkpt lat="43.97035" lon="3.01507">
        <ele>536</ele>
        <time>2026-04-30T09:24:54.000Z</time>
      </trkpt>
      <trkpt lat="43.97035" lon="3.01507">
        <ele>535.8</ele>
        <time>2026-04-30T09:24:55.000Z</time>
      </trkpt>
      <trkpt lat="43.97035" lon="3.01507">
        <ele>535.8</ele>
        <time>2026-04-30T09:24:56.000Z</time>
      </trkpt>
      <trkpt lat="43.97035" lon="3.01507">
        <ele>535.7</ele>
        <time>2026-04-30T09:24:57.000Z</time>
      </trkpt>
      <trkpt lat="43.97035" lon="3.01507">
        <ele>536.1</ele>
        <time>2026-04-30T09:24:58.000Z</time>
      </trkpt>
      <trkpt lat="43.97035" lon="3.01507">
        <ele>536.4</ele>
        <time>2026-04-30T09:24:59.000Z</time>
      </trkpt>
      <trkpt lat="43.97035" lon="3.01507">
        <ele>536.5</ele>
        <time>2026-04-30T09:25:00.000Z</time>
      </trkpt>
      <trkpt lat="43.97035" lon="3.01507">
        <ele>536.7</ele>
        <time>2026-04-30T09:25:01.000Z</time>
      </trkpt>
      <trkpt lat="43.97035" lon="3.01507">
        <ele>536.9</ele>
        <time>2026-04-30T09:25:02.000Z</time>
      </trkpt>
      <trkpt lat="43.97035" lon="3.01507">
        <ele>537</ele>
        <time>2026-04-30T09:25:03.000Z</time>
      </trkpt>
      <trkpt lat="43.97035" lon="3.01507">
        <ele>537</ele>
        <time>2026-04-30T09:25:04.000Z</time>
      </trkpt>
      <trkpt lat="43.97035" lon="3.01507">
        <ele>537.1</ele>
        <time>2026-04-30T09:25:05.000Z</time>
      </trkpt>
      <trkpt lat="43.97035" lon="3.01507">
        <ele>537.3</ele>
        <time>2026-04-30T09:25:06.000Z</time>
      </trkpt>
      <trkpt lat="43.97035" lon="3.01507">
        <ele>537.5</ele>
        <time>2026-04-30T09:25:07.000Z</time>
      </trkpt>
      <trkpt lat="43.97035" lon="3.01507">
        <ele>537.5</ele>
        <time>2026-04-30T09:25:08.000Z</time>
      </trkpt>
      <trkpt lat="43.97035" lon="3.01507">
        <ele>537.6</ele>
        <time>2026-04-30T09:25:09.000Z</time>
      </trkpt>
      <trkpt lat="43.97035" lon="3.01507">
        <ele>537.7</ele>
        <time>2026-04-30T09:25:10.000Z</time>
      </trkpt>
      <trkpt lat="43.97035" lon="3.01507">
        <ele>537.7</ele>
        <time>2026-04-30T09:25:11.000Z</time>
      </trkpt>
      <trkpt lat="43.97035" lon="3.01507">
        <ele>537.5</ele>
        <time>2026-04-30T09:25:12.000Z</time>
      </trkpt>
      <trkpt lat="43.97035" lon="3.01507">
        <ele>537.3</ele>
        <time>2026-04-30T09:25:13.000Z</time>
      </trkpt>
      <trkpt lat="43.97035" lon="3.01507">
        <ele>537.2</ele>
        <time>2026-04-30T09:25:14.000Z</time>
      </trkpt>
      <trkpt lat="43.97035" lon="3.01507">
        <ele>537.4</ele>
        <time>2026-04-30T09:25:15.000Z</time>
      </trkpt>
      <trkpt lat="43.97035" lon="3.01507">
        <ele>537.4</ele>
        <time>2026-04-30T09:25:16.000Z</time>
      </trkpt>
      <trkpt lat="43.97035" lon="3.01507">
        <ele>537.6</ele>
        <time>2026-04-30T09:25:17.000Z</time>
      </trkpt>
      <trkpt lat="43.97035" lon="3.01507">
        <ele>537.8</ele>
        <time>2026-04-30T09:25:18.000Z</time>
      </trkpt>
      <trkpt lat="43.97035" lon="3.01507">
        <ele>537.9</ele>
        <time>2026-04-30T09:25:19.000Z</time>
      </trkpt>
      <trkpt lat="43.97035" lon="3.01507">
        <ele>537.9</ele>
        <time>2026-04-30T09:25:20.000Z</time>
      </trkpt>
      <trkpt lat="43.97035" lon="3.01507">
        <ele>537.5</ele>
        <time>2026-04-30T09:25:21.000Z</time>
      </trkpt>
      <trkpt lat="43.97035" lon="3.01507">
        <ele>537.4</ele>
        <time>2026-04-30T09:25:22.000Z</time>
      </trkpt>
      <trkpt lat="43.97035" lon="3.01507">
        <ele>537.4</ele>
        <time>2026-04-30T09:25:23.000Z</time>
      </trkpt>
      <trkpt lat="43.97035" lon="3.01507">
        <ele>537.7</ele>
        <time>2026-04-30T09:25:24.000Z</time>
      </trkpt>
      <trkpt lat="43.97035" lon="3.01507">
        <ele>537.9</ele>
        <time>2026-04-30T09:25:25.000Z</time>
      </trkpt>
      <trkpt lat="43.97035" lon="3.01507">
        <ele>538</ele>
        <time>2026-04-30T09:25:26.000Z</time>
      </trkpt>
      <trkpt lat="43.97035" lon="3.01507">
        <ele>538</ele>
        <time>2026-04-30T09:25:27.000Z</time>
      </trkpt>
      <trkpt lat="43.97035" lon="3.01507">
        <ele>538</ele>
        <time>2026-04-30T09:25:28.000Z</time>
      </trkpt>
      <trkpt lat="43.97035" lon="3.01508">
        <ele>537.8</ele>
        <time>2026-04-30T09:25:29.000Z</time>
      </trkpt>
      <trkpt lat="43.97035" lon="3.01508">
        <ele>537.5</ele>
        <time>2026-04-30T09:25:30.000Z</time>
      </trkpt>
      <trkpt lat="43.97035" lon="3.01508">
        <ele>537.4</ele>
        <time>2026-04-30T09:25:31.000Z</time>
      </trkpt>
      <trkpt lat="43.97035" lon="3.01508">
        <ele>537.3</ele>
        <time>2026-04-30T09:25:32.000Z</time>
      </trkpt>
      <trkpt lat="43.97035" lon="3.01508">
        <ele>537.1</ele>
        <time>2026-04-30T09:25:33.000Z</time>
      </trkpt>
      <trkpt lat="43.97035" lon="3.01508">
        <ele>536.7</ele>
        <time>2026-04-30T09:25:34.000Z</time>
      </trkpt>
      <trkpt lat="43.97035" lon="3.01508">
        <ele>536.7</ele>
        <time>2026-04-30T09:25:35.000Z</time>
      </trkpt>
      <trkpt lat="43.97035" lon="3.01508">
        <ele>536.4</ele>
        <time>2026-04-30T09:25:36.000Z</time>
      </trkpt>
      <trkpt lat="43.97035" lon="3.01508">
        <ele>536.1</ele>
        <time>2026-04-30T09:25:37.000Z</time>
      </trkpt>
      <trkpt lat="43.97035" lon="3.01508">
        <ele>536</ele>
        <time>2026-04-30T09:25:38.000Z</time>
      </trkpt>
      <trkpt lat="43.97036" lon="3.01508">
        <ele>536</ele>
        <time>2026-04-30T09:25:39.000Z</time>
      </trkpt>
      <trkpt lat="43.97036" lon="3.01508">
        <ele>536.3</ele>
        <time>2026-04-30T09:25:40.000Z</time>
      </trkpt>
      <trkpt lat="43.97036" lon="3.01508">
        <ele>536.4</ele>
        <time>2026-04-30T09:25:41.000Z</time>
      </trkpt>
      <trkpt lat="43.97036" lon="3.01508">
        <ele>536.5</ele>
        <time>2026-04-30T09:25:42.000Z</time>
      </trkpt>
      <trkpt lat="43.97036" lon="3.01508">
        <ele>536.5</ele>
        <time>2026-04-30T09:25:43.000Z</time>
      </trkpt>
      <trkpt lat="43.97036" lon="3.01508">
        <ele>536.6</ele>
        <time>2026-04-30T09:25:44.000Z</time>
      </trkpt>
      <trkpt lat="43.97036" lon="3.01508">
        <ele>536.6</ele>
        <time>2026-04-30T09:25:45.000Z</time>
      </trkpt>
      <trkpt lat="43.97036" lon="3.01508">
        <ele>536.5</ele>
        <time>2026-04-30T09:25:46.000Z</time>
      </trkpt>
      <trkpt lat="43.97036" lon="3.01508">
        <ele>536.7</ele>
        <time>2026-04-30T09:25:47.000Z</time>
      </trkpt>
      <trkpt lat="43.97036" lon="3.01508">
        <ele>536.8</ele>
        <time>2026-04-30T09:25:48.000Z</time>
      </trkpt>
      <trkpt lat="43.97036" lon="3.01508">
        <ele>536.9</ele>
        <time>2026-04-30T09:25:49.000Z</time>
      </trkpt>
      <trkpt lat="43.97036" lon="3.01508">
        <ele>537</ele>
        <time>2026-04-30T09:25:50.000Z</time>
      </trkpt>
      <trkpt lat="43.97036" lon="3.01508">
        <ele>537</ele>
        <time>2026-04-30T09:25:51.000Z</time>
      </trkpt>
      <trkpt lat="43.97036" lon="3.01508">
        <ele>537</ele>
        <time>2026-04-30T09:25:52.000Z</time>
      </trkpt>
      <trkpt lat="43.97036" lon="3.01508">
        <ele>537.1</ele>
        <time>2026-04-30T09:25:53.000Z</time>
      </trkpt>
      <trkpt lat="43.97036" lon="3.01508">
        <ele>537.4</ele>
        <time>2026-04-30T09:25:54.000Z</time>
      </trkpt>
      <trkpt lat="43.97036" lon="3.01508">
        <ele>537.3</ele>
        <time>2026-04-30T09:25:55.000Z</time>
      </trkpt>
      <trkpt lat="43.97036" lon="3.01508">
        <ele>537.1</ele>
        <time>2026-04-30T09:25:56.000Z</time>
      </trkpt>
      <trkpt lat="43.97036" lon="3.01508">
        <ele>537.1</ele>
        <time>2026-04-30T09:25:57.000Z</time>
      </trkpt>
      <trkpt lat="43.97036" lon="3.01508">
        <ele>536.8</ele>
        <time>2026-04-30T09:25:58.000Z</time>
      </trkpt>
      <trkpt lat="43.97036" lon="3.01508">
        <ele>536.7</ele>
        <time>2026-04-30T09:25:59.000Z</time>
      </trkpt>
      <trkpt lat="43.97036" lon="3.01508">
        <ele>537</ele>
        <time>2026-04-30T09:26:00.000Z</time>
      </trkpt>
      <trkpt lat="43.97036" lon="3.01508">
        <ele>536.9</ele>
        <time>2026-04-30T09:26:01.000Z</time>
      </trkpt>
      <trkpt lat="43.97036" lon="3.01508">
        <ele>536.9</ele>
        <time>2026-04-30T09:26:02.000Z</time>
      </trkpt>
      <trkpt lat="43.97035" lon="3.01508">
        <ele>536.9</ele>
        <time>2026-04-30T09:26:03.000Z</time>
      </trkpt>
      <trkpt lat="43.97035" lon="3.01508">
        <ele>536.8</ele>
        <time>2026-04-30T09:26:04.000Z</time>
      </trkpt>
      <trkpt lat="43.97035" lon="3.01508">
        <ele>536.7</ele>
        <time>2026-04-30T09:26:05.000Z</time>
      </trkpt>
      <trkpt lat="43.97035" lon="3.01508">
        <ele>536.8</ele>
        <time>2026-04-30T09:26:06.000Z</time>
      </trkpt>
      <trkpt lat="43.97035" lon="3.01508">
        <ele>536.6</ele>
        <time>2026-04-30T09:26:07.000Z</time>
      </trkpt>
      <trkpt lat="43.97036" lon="3.01507">
        <ele>536.6</ele>
        <time>2026-04-30T09:26:08.000Z</time>
      </trkpt>
      <trkpt lat="43.97036" lon="3.01507">
        <ele>536.5</ele>
        <time>2026-04-30T09:26:09.000Z</time>
      </trkpt>
      <trkpt lat="43.97036" lon="3.01507">
        <ele>536.7</ele>
        <time>2026-04-30T09:26:10.000Z</time>
      </trkpt>
      <trkpt lat="43.97036" lon="3.01507">
        <ele>536.5</ele>
        <time>2026-04-30T09:26:11.000Z</time>
      </trkpt>
      <trkpt lat="43.97036" lon="3.01507">
        <ele>536.1</ele>
        <time>2026-04-30T09:26:12.000Z</time>
      </trkpt>
      <trkpt lat="43.97036" lon="3.01507">
        <ele>536</ele>
        <time>2026-04-30T09:26:13.000Z</time>
      </trkpt>
      <trkpt lat="43.97036" lon="3.01507">
        <ele>535.7</ele>
        <time>2026-04-30T09:26:14.000Z</time>
      </trkpt>
      <trkpt lat="43.97036" lon="3.01507">
        <ele>535.5</ele>
        <time>2026-04-30T09:26:15.000Z</time>
      </trkpt>
      <trkpt lat="43.97036" lon="3.01507">
        <ele>535.4</ele>
        <time>2026-04-30T09:26:16.000Z</time>
      </trkpt>
      <trkpt lat="43.97036" lon="3.01507">
        <ele>535.4</ele>
        <time>2026-04-30T09:26:17.000Z</time>
      </trkpt>
      <trkpt lat="43.97036" lon="3.01507">
        <ele>535.3</ele>
        <time>2026-04-30T09:26:18.000Z</time>
      </trkpt>
      <trkpt lat="43.97036" lon="3.01507">
        <ele>535.2</ele>
        <time>2026-04-30T09:26:19.000Z</time>
      </trkpt>
      <trkpt lat="43.97036" lon="3.01507">
        <ele>535</ele>
        <time>2026-04-30T09:26:20.000Z</time>
      </trkpt>
      <trkpt lat="43.97036" lon="3.01507">
        <ele>534.9</ele>
        <time>2026-04-30T09:26:21.000Z</time>
      </trkpt>
      <trkpt lat="43.97036" lon="3.01507">
        <ele>534.8</ele>
        <time>2026-04-30T09:26:22.000Z</time>
      </trkpt>
      <trkpt lat="43.97036" lon="3.01507">
        <ele>534.6</ele>
        <time>2026-04-30T09:26:23.000Z</time>
      </trkpt>
      <trkpt lat="43.97036" lon="3.01507">
        <ele>534.2</ele>
        <time>2026-04-30T09:26:24.000Z</time>
      </trkpt>
      <trkpt lat="43.97036" lon="3.01507">
        <ele>534.6</ele>
        <time>2026-04-30T09:26:25.000Z</time>
      </trkpt>
      <trkpt lat="43.97036" lon="3.01507">
        <ele>534.8</ele>
        <time>2026-04-30T09:26:26.000Z</time>
      </trkpt>
      <trkpt lat="43.97036" lon="3.01507">
        <ele>535</ele>
        <time>2026-04-30T09:26:27.000Z</time>
      </trkpt>
      <trkpt lat="43.97036" lon="3.01507">
        <ele>535.2</ele>
        <time>2026-04-30T09:26:28.000Z</time>
      </trkpt>
      <trkpt lat="43.97036" lon="3.01507">
        <ele>535.4</ele>
        <time>2026-04-30T09:26:29.000Z</time>
      </trkpt>
      <trkpt lat="43.97036" lon="3.01507">
        <ele>535.8</ele>
        <time>2026-04-30T09:26:30.000Z</time>
      </trkpt>
      <trkpt lat="43.97036" lon="3.01507">
        <ele>535.8</ele>
        <time>2026-04-30T09:26:31.000Z</time>
      </trkpt>
      <trkpt lat="43.97036" lon="3.01507">
        <ele>535.7</ele>
        <time>2026-04-30T09:26:32.000Z</time>
      </trkpt>
      <trkpt lat="43.97036" lon="3.01507">
        <ele>535.8</ele>
        <time>2026-04-30T09:26:33.000Z</time>
      </trkpt>
      <trkpt lat="43.97036" lon="3.01507">
        <ele>536</ele>
        <time>2026-04-30T09:26:34.000Z</time>
      </trkpt>
      <trkpt lat="43.97036" lon="3.01507">
        <ele>536.2</ele>
        <time>2026-04-30T09:26:35.000Z</time>
      </trkpt>
      <trkpt lat="43.97036" lon="3.01507">
        <ele>536.4</ele>
        <time>2026-04-30T09:26:36.000Z</time>
      </trkpt>
      <trkpt lat="43.97036" lon="3.01507">
        <ele>537</ele>
        <time>2026-04-30T09:26:37.000Z</time>
      </trkpt>
      <trkpt lat="43.97036" lon="3.01507">
        <ele>537.3</ele>
        <time>2026-04-30T09:26:38.000Z</time>
      </trkpt>
      <trkpt lat="43.97036" lon="3.01507">
        <ele>537.6</ele>
        <time>2026-04-30T09:26:39.000Z</time>
      </trkpt>
      <trkpt lat="43.97035" lon="3.01506">
        <ele>538.3</ele>
        <time>2026-04-30T09:26:40.000Z</time>
      </trkpt>
      <trkpt lat="43.97035" lon="3.01507">
        <ele>539</ele>
        <time>2026-04-30T09:26:41.000Z</time>
      </trkpt>
      <trkpt lat="43.97035" lon="3.01508">
        <ele>539</ele>
        <time>2026-04-30T09:26:42.000Z</time>
      </trkpt>
      <trkpt lat="43.97035" lon="3.01508">
        <ele>539.2</ele>
        <time>2026-04-30T09:26:43.000Z</time>
      </trkpt>
      <trkpt lat="43.97035" lon="3.01508">
        <ele>539.3</ele>
        <time>2026-04-30T09:26:44.000Z</time>
      </trkpt>
      <trkpt lat="43.97035" lon="3.01508">
        <ele>539.4</ele>
        <time>2026-04-30T09:26:45.000Z</time>
      </trkpt>
      <trkpt lat="43.97035" lon="3.01508">
        <ele>539.8</ele>
        <time>2026-04-30T09:26:46.000Z</time>
      </trkpt>
      <trkpt lat="43.97035" lon="3.01508">
        <ele>540.2</ele>
        <time>2026-04-30T09:26:47.000Z</time>
      </trkpt>
      <trkpt lat="43.97035" lon="3.01508">
        <ele>540.8</ele>
        <time>2026-04-30T09:26:48.000Z</time>
      </trkpt>
      <trkpt lat="43.97035" lon="3.01508">
        <ele>541.1</ele>
        <time>2026-04-30T09:26:49.000Z</time>
      </trkpt>
      <trkpt lat="43.97035" lon="3.01507">
        <ele>541</ele>
        <time>2026-04-30T09:26:50.000Z</time>
      </trkpt>
      <trkpt lat="43.97035" lon="3.01508">
        <ele>540.6</ele>
        <time>2026-04-30T09:26:51.000Z</time>
      </trkpt>
      <trkpt lat="43.97035" lon="3.01508">
        <ele>540.6</ele>
        <time>2026-04-30T09:26:52.000Z</time>
      </trkpt>
      <trkpt lat="43.97035" lon="3.01507">
        <ele>540.7</ele>
        <time>2026-04-30T09:26:53.000Z</time>
      </trkpt>
      <trkpt lat="43.97035" lon="3.01508">
        <ele>540.9</ele>
        <time>2026-04-30T09:26:54.000Z</time>
      </trkpt>
      <trkpt lat="43.97035" lon="3.01508">
        <ele>540.9</ele>
        <time>2026-04-30T09:26:55.000Z</time>
      </trkpt>
      <trkpt lat="43.97035" lon="3.01508">
        <ele>541.1</ele>
        <time>2026-04-30T09:26:56.000Z</time>
      </trkpt>
      <trkpt lat="43.97035" lon="3.01508">
        <ele>541.1</ele>
        <time>2026-04-30T09:26:57.000Z</time>
      </trkpt>
      <trkpt lat="43.97035" lon="3.01508">
        <ele>541.2</ele>
        <time>2026-04-30T09:26:58.000Z</time>
      </trkpt>
      <trkpt lat="43.97035" lon="3.01508">
        <ele>541.1</ele>
        <time>2026-04-30T09:26:59.000Z</time>
      </trkpt>
      <trkpt lat="43.97035" lon="3.01508">
        <ele>541.3</ele>
        <time>2026-04-30T09:27:00.000Z</time>
      </trkpt>
      <trkpt lat="43.97035" lon="3.01508">
        <ele>541.3</ele>
        <time>2026-04-30T09:27:01.000Z</time>
      </trkpt>
      <trkpt lat="43.97035" lon="3.01507">
        <ele>541.4</ele>
        <time>2026-04-30T09:27:02.000Z</time>
      </trkpt>
      <trkpt lat="43.97035" lon="3.01507">
        <ele>541.5</ele>
        <time>2026-04-30T09:27:03.000Z</time>
      </trkpt>
      <trkpt lat="43.97035" lon="3.01507">
        <ele>541.4</ele>
        <time>2026-04-30T09:27:04.000Z</time>
      </trkpt>
      <trkpt lat="43.97035" lon="3.01507">
        <ele>541.2</ele>
        <time>2026-04-30T09:27:05.000Z</time>
      </trkpt>
      <trkpt lat="43.97035" lon="3.01507">
        <ele>541</ele>
        <time>2026-04-30T09:27:06.000Z</time>
      </trkpt>
      <trkpt lat="43.97035" lon="3.01507">
        <ele>541</ele>
        <time>2026-04-30T09:27:07.000Z</time>
      </trkpt>
      <trkpt lat="43.97035" lon="3.01507">
        <ele>541.1</ele>
        <time>2026-04-30T09:27:08.000Z</time>
      </trkpt>
      <trkpt lat="43.97035" lon="3.01507">
        <ele>541.4</ele>
        <time>2026-04-30T09:27:09.000Z</time>
      </trkpt>
      <trkpt lat="43.97035" lon="3.01507">
        <ele>540.9</ele>
        <time>2026-04-30T09:27:10.000Z</time>
      </trkpt>
      <trkpt lat="43.97035" lon="3.01507">
        <ele>540.9</ele>
        <time>2026-04-30T09:27:11.000Z</time>
      </trkpt>
      <trkpt lat="43.97035" lon="3.01507">
        <ele>541.1</ele>
        <time>2026-04-30T09:27:12.000Z</time>
      </trkpt>
      <trkpt lat="43.97035" lon="3.01507">
        <ele>541.2</ele>
        <time>2026-04-30T09:27:13.000Z</time>
      </trkpt>
      <trkpt lat="43.97035" lon="3.01507">
        <ele>541.3</ele>
        <time>2026-04-30T09:27:14.000Z</time>
      </trkpt>
      <trkpt lat="43.97035" lon="3.01507">
        <ele>541.3</ele>
        <time>2026-04-30T09:27:15.000Z</time>
      </trkpt>
      <trkpt lat="43.97035" lon="3.01507">
        <ele>541.3</ele>
        <time>2026-04-30T09:27:16.000Z</time>
      </trkpt>
      <trkpt lat="43.97035" lon="3.01507">
        <ele>541.4</ele>
        <time>2026-04-30T09:27:17.000Z</time>
      </trkpt>
      <trkpt lat="43.97035" lon="3.01507">
        <ele>541.5</ele>
        <time>2026-04-30T09:27:18.000Z</time>
      </trkpt>
      <trkpt lat="43.97035" lon="3.01507">
        <ele>541.6</ele>
        <time>2026-04-30T09:27:19.000Z</time>
      </trkpt>
      <trkpt lat="43.97035" lon="3.01507">
        <ele>541.8</ele>
        <time>2026-04-30T09:27:20.000Z</time>
      </trkpt>
      <trkpt lat="43.97035" lon="3.01507">
        <ele>541.9</ele>
        <time>2026-04-30T09:27:21.000Z</time>
      </trkpt>
      <trkpt lat="43.97035" lon="3.01507">
        <ele>541.9</ele>
        <time>2026-04-30T09:27:22.000Z</time>
      </trkpt>
      <trkpt lat="43.97035" lon="3.01507">
        <ele>541.8</ele>
        <time>2026-04-30T09:27:23.000Z</time>
      </trkpt>
      <trkpt lat="43.97035" lon="3.01507">
        <ele>541.8</ele>
        <time>2026-04-30T09:27:24.000Z</time>
      </trkpt>
      <trkpt lat="43.97035" lon="3.01507">
        <ele>541.9</ele>
        <time>2026-04-30T09:27:25.000Z</time>
      </trkpt>
      <trkpt lat="43.97035" lon="3.01507">
        <ele>542</ele>
        <time>2026-04-30T09:27:26.000Z</time>
      </trkpt>
      <trkpt lat="43.97035" lon="3.01507">
        <ele>542</ele>
        <time>2026-04-30T09:27:27.000Z</time>
      </trkpt>
      <trkpt lat="43.97036" lon="3.01507">
        <ele>542.1</ele>
        <time>2026-04-30T09:27:28.000Z</time>
      </trkpt>
      <trkpt lat="43.97036" lon="3.01507">
        <ele>542.2</ele>
        <time>2026-04-30T09:27:29.000Z</time>
      </trkpt>
      <trkpt lat="43.97035" lon="3.01507">
        <ele>542.3</ele>
        <time>2026-04-30T09:27:30.000Z</time>
      </trkpt>
      <trkpt lat="43.97035" lon="3.01507">
        <ele>542.2</ele>
        <time>2026-04-30T09:27:31.000Z</time>
      </trkpt>
      <trkpt lat="43.97035" lon="3.01508">
        <ele>542.4</ele>
        <time>2026-04-30T09:27:32.000Z</time>
      </trkpt>
      <trkpt lat="43.97035" lon="3.01508">
        <ele>542.3</ele>
        <time>2026-04-30T09:27:33.000Z</time>
      </trkpt>
      <trkpt lat="43.97035" lon="3.01508">
        <ele>542.6</ele>
        <time>2026-04-30T09:27:34.000Z</time>
      </trkpt>
      <trkpt lat="43.97035" lon="3.01508">
        <ele>542.6</ele>
        <time>2026-04-30T09:27:35.000Z</time>
      </trkpt>
      <trkpt lat="43.97035" lon="3.01508">
        <ele>542.4</ele>
        <time>2026-04-30T09:27:36.000Z</time>
      </trkpt>
      <trkpt lat="43.97035" lon="3.01507">
        <ele>542.3</ele>
        <time>2026-04-30T09:27:37.000Z</time>
      </trkpt>
      <trkpt lat="43.97035" lon="3.01507">
        <ele>542.2</ele>
        <time>2026-04-30T09:27:38.000Z</time>
      </trkpt>
      <trkpt lat="43.97035" lon="3.01507">
        <ele>542.3</ele>
        <time>2026-04-30T09:27:39.000Z</time>
      </trkpt>
      <trkpt lat="43.97035" lon="3.01507">
        <ele>542.4</ele>
        <time>2026-04-30T09:27:40.000Z</time>
      </trkpt>
      <trkpt lat="43.97035" lon="3.01507">
        <ele>542.3</ele>
        <time>2026-04-30T09:27:41.000Z</time>
      </trkpt>
      <trkpt lat="43.97035" lon="3.01507">
        <ele>542.2</ele>
        <time>2026-04-30T09:27:42.000Z</time>
      </trkpt>
      <trkpt lat="43.97035" lon="3.01507">
        <ele>542.1</ele>
        <time>2026-04-30T09:27:43.000Z</time>
      </trkpt>
      <trkpt lat="43.97035" lon="3.01507">
        <ele>541.7</ele>
        <time>2026-04-30T09:27:44.000Z</time>
      </trkpt>
      <trkpt lat="43.97035" lon="3.01507">
        <ele>541.4</ele>
        <time>2026-04-30T09:27:45.000Z</time>
      </trkpt>
      <trkpt lat="43.97035" lon="3.01507">
        <ele>541.3</ele>
        <time>2026-04-30T09:27:46.000Z</time>
      </trkpt>
      <trkpt lat="43.97035" lon="3.01507">
        <ele>541</ele>
        <time>2026-04-30T09:27:47.000Z</time>
      </trkpt>
      <trkpt lat="43.97035" lon="3.01507">
        <ele>540.9</ele>
        <time>2026-04-30T09:27:48.000Z</time>
      </trkpt>
      <trkpt lat="43.97035" lon="3.01507">
        <ele>540.8</ele>
        <time>2026-04-30T09:27:49.000Z</time>
      </trkpt>
      <trkpt lat="43.97035" lon="3.01507">
        <ele>540.5</ele>
        <time>2026-04-30T09:27:50.000Z</time>
      </trkpt>
      <trkpt lat="43.97035" lon="3.01507">
        <ele>540.2</ele>
        <time>2026-04-30T09:27:51.000Z</time>
      </trkpt>
      <trkpt lat="43.97035" lon="3.01507">
        <ele>539.7</ele>
        <time>2026-04-30T09:27:52.000Z</time>
      </trkpt>
      <trkpt lat="43.97035" lon="3.01507">
        <ele>539.1</ele>
        <time>2026-04-30T09:27:53.000Z</time>
      </trkpt>
      <trkpt lat="43.97035" lon="3.01507">
        <ele>538.7</ele>
        <time>2026-04-30T09:27:54.000Z</time>
      </trkpt>
      <trkpt lat="43.97035" lon="3.01507">
        <ele>538.4</ele>
        <time>2026-04-30T09:27:55.000Z</time>
      </trkpt>
      <trkpt lat="43.97035" lon="3.01507">
        <ele>538.1</ele>
        <time>2026-04-30T09:27:56.000Z</time>
      </trkpt>
      <trkpt lat="43.97035" lon="3.01507">
        <ele>537.8</ele>
        <time>2026-04-30T09:27:57.000Z</time>
      </trkpt>
      <trkpt lat="43.97035" lon="3.01507">
        <ele>537.4</ele>
        <time>2026-04-30T09:27:58.000Z</time>
      </trkpt>
      <trkpt lat="43.97035" lon="3.01507">
        <ele>537.2</ele>
        <time>2026-04-30T09:27:59.000Z</time>
      </trkpt>
      <trkpt lat="43.97035" lon="3.01507">
        <ele>537.1</ele>
        <time>2026-04-30T09:28:00.000Z</time>
      </trkpt>
      <trkpt lat="43.97035" lon="3.01507">
        <ele>536.9</ele>
        <time>2026-04-30T09:28:01.000Z</time>
      </trkpt>
      <trkpt lat="43.97035" lon="3.01507">
        <ele>536.5</ele>
        <time>2026-04-30T09:28:02.000Z</time>
      </trkpt>
      <trkpt lat="43.97035" lon="3.01507">
        <ele>536.2</ele>
        <time>2026-04-30T09:28:03.000Z</time>
      </trkpt>
      <trkpt lat="43.97035" lon="3.01507">
        <ele>536</ele>
        <time>2026-04-30T09:28:04.000Z</time>
      </trkpt>
      <trkpt lat="43.97035" lon="3.01507">
        <ele>536</ele>
        <time>2026-04-30T09:28:05.000Z</time>
      </trkpt>
      <trkpt lat="43.97035" lon="3.01507">
        <ele>536.1</ele>
        <time>2026-04-30T09:28:06.000Z</time>
      </trkpt>
      <trkpt lat="43.97035" lon="3.01507">
        <ele>536.1</ele>
        <time>2026-04-30T09:28:07.000Z</time>
      </trkpt>
      <trkpt lat="43.97035" lon="3.01507">
        <ele>536.3</ele>
        <time>2026-04-30T09:28:08.000Z</time>
      </trkpt>
      <trkpt lat="43.97035" lon="3.01507">
        <ele>536.5</ele>
        <time>2026-04-30T09:28:09.000Z</time>
      </trkpt>
      <trkpt lat="43.97035" lon="3.01507">
        <ele>536.7</ele>
        <time>2026-04-30T09:28:10.000Z</time>
      </trkpt>
      <trkpt lat="43.97035" lon="3.01507">
        <ele>536.8</ele>
        <time>2026-04-30T09:28:11.000Z</time>
      </trkpt>
      <trkpt lat="43.97036" lon="3.01506">
        <ele>536.8</ele>
        <time>2026-04-30T09:28:12.000Z</time>
      </trkpt>
      <trkpt lat="43.97036" lon="3.01506">
        <ele>536.8</ele>
        <time>2026-04-30T09:28:13.000Z</time>
      </trkpt>
      <trkpt lat="43.97036" lon="3.01506">
        <ele>536.8</ele>
        <time>2026-04-30T09:28:14.000Z</time>
      </trkpt>
      <trkpt lat="43.97036" lon="3.01506">
        <ele>536.8</ele>
        <time>2026-04-30T09:28:15.000Z</time>
      </trkpt>
      <trkpt lat="43.97036" lon="3.01506">
        <ele>536.5</ele>
        <time>2026-04-30T09:28:16.000Z</time>
      </trkpt>
      <trkpt lat="43.97036" lon="3.01506">
        <ele>537.1</ele>
        <time>2026-04-30T09:28:17.000Z</time>
      </trkpt>
      <trkpt lat="43.97036" lon="3.01506">
        <ele>537.7</ele>
        <time>2026-04-30T09:28:18.000Z</time>
      </trkpt>
      <trkpt lat="43.97036" lon="3.01506">
        <ele>538.1</ele>
        <time>2026-04-30T09:28:19.000Z</time>
      </trkpt>
      <trkpt lat="43.97036" lon="3.01506">
        <ele>538.3</ele>
        <time>2026-04-30T09:28:20.000Z</time>
      </trkpt>
      <trkpt lat="43.97036" lon="3.01506">
        <ele>538.5</ele>
        <time>2026-04-30T09:28:21.000Z</time>
      </trkpt>
      <trkpt lat="43.97035" lon="3.01506">
        <ele>538.7</ele>
        <time>2026-04-30T09:28:22.000Z</time>
      </trkpt>
      <trkpt lat="43.97035" lon="3.01506">
        <ele>538.7</ele>
        <time>2026-04-30T09:28:23.000Z</time>
      </trkpt>
      <trkpt lat="43.97035" lon="3.01506">
        <ele>538.8</ele>
        <time>2026-04-30T09:28:24.000Z</time>
      </trkpt>
      <trkpt lat="43.97035" lon="3.01506">
        <ele>538.8</ele>
        <time>2026-04-30T09:28:25.000Z</time>
      </trkpt>
      <trkpt lat="43.97035" lon="3.01506">
        <ele>538.9</ele>
        <time>2026-04-30T09:28:26.000Z</time>
      </trkpt>
      <trkpt lat="43.97035" lon="3.01506">
        <ele>538.8</ele>
        <time>2026-04-30T09:28:27.000Z</time>
      </trkpt>
      <trkpt lat="43.97035" lon="3.01506">
        <ele>538.6</ele>
        <time>2026-04-30T09:28:28.000Z</time>
      </trkpt>
      <trkpt lat="43.97035" lon="3.01506">
        <ele>538.5</ele>
        <time>2026-04-30T09:28:29.000Z</time>
      </trkpt>
      <trkpt lat="43.97035" lon="3.01506">
        <ele>538.5</ele>
        <time>2026-04-30T09:28:30.000Z</time>
      </trkpt>
      <trkpt lat="43.97035" lon="3.01506">
        <ele>538.6</ele>
        <time>2026-04-30T09:28:31.000Z</time>
      </trkpt>
      <trkpt lat="43.97035" lon="3.01506">
        <ele>539</ele>
        <time>2026-04-30T09:28:32.000Z</time>
      </trkpt>
      <trkpt lat="43.97035" lon="3.01506">
        <ele>539.1</ele>
        <time>2026-04-30T09:28:33.000Z</time>
      </trkpt>
      <trkpt lat="43.97035" lon="3.01506">
        <ele>539.2</ele>
        <time>2026-04-30T09:28:34.000Z</time>
      </trkpt>
      <trkpt lat="43.97035" lon="3.01506">
        <ele>539.2</ele>
        <time>2026-04-30T09:28:35.000Z</time>
      </trkpt>
      <trkpt lat="43.97035" lon="3.01506">
        <ele>539.3</ele>
        <time>2026-04-30T09:28:36.000Z</time>
      </trkpt>
      <trkpt lat="43.97035" lon="3.01506">
        <ele>539.2</ele>
        <time>2026-04-30T09:28:37.000Z</time>
      </trkpt>
      <trkpt lat="43.97035" lon="3.01506">
        <ele>539.4</ele>
        <time>2026-04-30T09:28:38.000Z</time>
      </trkpt>
      <trkpt lat="43.97035" lon="3.01507">
        <ele>539.4</ele>
        <time>2026-04-30T09:28:39.000Z</time>
      </trkpt>
      <trkpt lat="43.97035" lon="3.01507">
        <ele>539.1</ele>
        <time>2026-04-30T09:28:40.000Z</time>
      </trkpt>
      <trkpt lat="43.97035" lon="3.01507">
        <ele>539.2</ele>
        <time>2026-04-30T09:28:41.000Z</time>
      </trkpt>
      <trkpt lat="43.97035" lon="3.01507">
        <ele>539.3</ele>
        <time>2026-04-30T09:28:42.000Z</time>
      </trkpt>
      <trkpt lat="43.97035" lon="3.01507">
        <ele>539.2</ele>
        <time>2026-04-30T09:28:43.000Z</time>
      </trkpt>
      <trkpt lat="43.97035" lon="3.01507">
        <ele>539.3</ele>
        <time>2026-04-30T09:28:44.000Z</time>
      </trkpt>
      <trkpt lat="43.97035" lon="3.01507">
        <ele>539.3</ele>
        <time>2026-04-30T09:28:45.000Z</time>
      </trkpt>
      <trkpt lat="43.97035" lon="3.01507">
        <ele>539.4</ele>
        <time>2026-04-30T09:28:46.000Z</time>
      </trkpt>
      <trkpt lat="43.97034" lon="3.01507">
        <ele>539.5</ele>
        <time>2026-04-30T09:28:47.000Z</time>
      </trkpt>
      <trkpt lat="43.97034" lon="3.01507">
        <ele>539.5</ele>
        <time>2026-04-30T09:28:48.000Z</time>
      </trkpt>
      <trkpt lat="43.97034" lon="3.01507">
        <ele>539.6</ele>
        <time>2026-04-30T09:28:49.000Z</time>
      </trkpt>
      <trkpt lat="43.97034" lon="3.01507">
        <ele>539.7</ele>
        <time>2026-04-30T09:28:50.000Z</time>
      </trkpt>
      <trkpt lat="43.97034" lon="3.01507">
        <ele>539.5</ele>
        <time>2026-04-30T09:28:51.000Z</time>
      </trkpt>
      <trkpt lat="43.97034" lon="3.01507">
        <ele>539.6</ele>
        <time>2026-04-30T09:28:52.000Z</time>
      </trkpt>
      <trkpt lat="43.97034" lon="3.01507">
        <ele>539.6</ele>
        <time>2026-04-30T09:28:53.000Z</time>
      </trkpt>
      <trkpt lat="43.97034" lon="3.01507">
        <ele>539.6</ele>
        <time>2026-04-30T09:28:54.000Z</time>
      </trkpt>
      <trkpt lat="43.97034" lon="3.01507">
        <ele>539.7</ele>
        <time>2026-04-30T09:28:55.000Z</time>
      </trkpt>
      <trkpt lat="43.97034" lon="3.01507">
        <ele>540</ele>
        <time>2026-04-30T09:28:56.000Z</time>
      </trkpt>
      <trkpt lat="43.97034" lon="3.01507">
        <ele>540.1</ele>
        <time>2026-04-30T09:28:57.000Z</time>
      </trkpt>
      <trkpt lat="43.97034" lon="3.01507">
        <ele>540.1</ele>
        <time>2026-04-30T09:28:58.000Z</time>
      </trkpt>
      <trkpt lat="43.97034" lon="3.01507">
        <ele>540.1</ele>
        <time>2026-04-30T09:28:59.000Z</time>
      </trkpt>
      <trkpt lat="43.97034" lon="3.01507">
        <ele>539.7</ele>
        <time>2026-04-30T09:29:00.000Z</time>
      </trkpt>
      <trkpt lat="43.97034" lon="3.01507">
        <ele>539.6</ele>
        <time>2026-04-30T09:29:01.000Z</time>
      </trkpt>
      <trkpt lat="43.97034" lon="3.01507">
        <ele>539.6</ele>
        <time>2026-04-30T09:29:02.000Z</time>
      </trkpt>
      <trkpt lat="43.97035" lon="3.01507">
        <ele>539.4</ele>
        <time>2026-04-30T09:29:03.000Z</time>
      </trkpt>
      <trkpt lat="43.97035" lon="3.01507">
        <ele>539.5</ele>
        <time>2026-04-30T09:29:04.000Z</time>
      </trkpt>
      <trkpt lat="43.97034" lon="3.01507">
        <ele>539.5</ele>
        <time>2026-04-30T09:29:05.000Z</time>
      </trkpt>
      <trkpt lat="43.97034" lon="3.01507">
        <ele>539.2</ele>
        <time>2026-04-30T09:29:06.000Z</time>
      </trkpt>
      <trkpt lat="43.97034" lon="3.01507">
        <ele>538.9</ele>
        <time>2026-04-30T09:29:07.000Z</time>
      </trkpt>
      <trkpt lat="43.97034" lon="3.01507">
        <ele>538.8</ele>
        <time>2026-04-30T09:29:08.000Z</time>
      </trkpt>
      <trkpt lat="43.97034" lon="3.01507">
        <ele>538.8</ele>
        <time>2026-04-30T09:29:09.000Z</time>
      </trkpt>
      <trkpt lat="43.97035" lon="3.01507">
        <ele>538.8</ele>
        <time>2026-04-30T09:29:10.000Z</time>
      </trkpt>
      <trkpt lat="43.97035" lon="3.01507">
        <ele>538.8</ele>
        <time>2026-04-30T09:29:11.000Z</time>
      </trkpt>
      <trkpt lat="43.97035" lon="3.01507">
        <ele>538.6</ele>
        <time>2026-04-30T09:29:12.000Z</time>
      </trkpt>
      <trkpt lat="43.97035" lon="3.01507">
        <ele>538.6</ele>
        <time>2026-04-30T09:29:13.000Z</time>
      </trkpt>
      <trkpt lat="43.97035" lon="3.01507">
        <ele>538.3</ele>
        <time>2026-04-30T09:29:14.000Z</time>
      </trkpt>
      <trkpt lat="43.97035" lon="3.01507">
        <ele>538.1</ele>
        <time>2026-04-30T09:29:15.000Z</time>
      </trkpt>
      <trkpt lat="43.97035" lon="3.01507">
        <ele>538.1</ele>
        <time>2026-04-30T09:29:16.000Z</time>
      </trkpt>
      <trkpt lat="43.97035" lon="3.01507">
        <ele>537.8</ele>
        <time>2026-04-30T09:29:17.000Z</time>
      </trkpt>
      <trkpt lat="43.97035" lon="3.01507">
        <ele>537.4</ele>
        <time>2026-04-30T09:29:18.000Z</time>
      </trkpt>
      <trkpt lat="43.97035" lon="3.01507">
        <ele>537.2</ele>
        <time>2026-04-30T09:29:19.000Z</time>
      </trkpt>
      <trkpt lat="43.97035" lon="3.01507">
        <ele>537.2</ele>
        <time>2026-04-30T09:29:20.000Z</time>
      </trkpt>
      <trkpt lat="43.97035" lon="3.01507">
        <ele>537.1</ele>
        <time>2026-04-30T09:29:21.000Z</time>
      </trkpt>
      <trkpt lat="43.97035" lon="3.01507">
        <ele>537</ele>
        <time>2026-04-30T09:29:22.000Z</time>
      </trkpt>
      <trkpt lat="43.97035" lon="3.01507">
        <ele>537</ele>
        <time>2026-04-30T09:29:23.000Z</time>
      </trkpt>
      <trkpt lat="43.97035" lon="3.01507">
        <ele>536.9</ele>
        <time>2026-04-30T09:29:24.000Z</time>
      </trkpt>
      <trkpt lat="43.97035" lon="3.01507">
        <ele>537</ele>
        <time>2026-04-30T09:29:25.000Z</time>
      </trkpt>
      <trkpt lat="43.97035" lon="3.01507">
        <ele>536.8</ele>
        <time>2026-04-30T09:29:26.000Z</time>
      </trkpt>
      <trkpt lat="43.97035" lon="3.01507">
        <ele>536.5</ele>
        <time>2026-04-30T09:29:27.000Z</time>
      </trkpt>
      <trkpt lat="43.97035" lon="3.01507">
        <ele>536.4</ele>
        <time>2026-04-30T09:29:28.000Z</time>
      </trkpt>
      <trkpt lat="43.97035" lon="3.01507">
        <ele>536.3</ele>
        <time>2026-04-30T09:29:29.000Z</time>
      </trkpt>
      <trkpt lat="43.97035" lon="3.01507">
        <ele>536.3</ele>
        <time>2026-04-30T09:29:30.000Z</time>
      </trkpt>
      <trkpt lat="43.97035" lon="3.01507">
        <ele>536.2</ele>
        <time>2026-04-30T09:29:31.000Z</time>
      </trkpt>
      <trkpt lat="43.97035" lon="3.01507">
        <ele>536.2</ele>
        <time>2026-04-30T09:29:32.000Z</time>
      </trkpt>
      <trkpt lat="43.97035" lon="3.01507">
        <ele>536.2</ele>
        <time>2026-04-30T09:29:33.000Z</time>
      </trkpt>
      <trkpt lat="43.97035" lon="3.01507">
        <ele>536.2</ele>
        <time>2026-04-30T09:29:34.000Z</time>
      </trkpt>
      <trkpt lat="43.97035" lon="3.01507">
        <ele>536.3</ele>
        <time>2026-04-30T09:29:35.000Z</time>
      </trkpt>
      <trkpt lat="43.97035" lon="3.01507">
        <ele>536.4</ele>
        <time>2026-04-30T09:29:36.000Z</time>
      </trkpt>
      <trkpt lat="43.97035" lon="3.01507">
        <ele>536.4</ele>
        <time>2026-04-30T09:29:37.000Z</time>
      </trkpt>
      <trkpt lat="43.97035" lon="3.01507">
        <ele>536.2</ele>
        <time>2026-04-30T09:29:38.000Z</time>
      </trkpt>
      <trkpt lat="43.97035" lon="3.01507">
        <ele>536.1</ele>
        <time>2026-04-30T09:29:39.000Z</time>
      </trkpt>
      <trkpt lat="43.97035" lon="3.01507">
        <ele>536.2</ele>
        <time>2026-04-30T09:29:40.000Z</time>
      </trkpt>
      <trkpt lat="43.97035" lon="3.01507">
        <ele>536</ele>
        <time>2026-04-30T09:29:41.000Z</time>
      </trkpt>
      <trkpt lat="43.97035" lon="3.01507">
        <ele>535.7</ele>
        <time>2026-04-30T09:29:42.000Z</time>
      </trkpt>
      <trkpt lat="43.97035" lon="3.01507">
        <ele>535.6</ele>
        <time>2026-04-30T09:29:43.000Z</time>
      </trkpt>
      <trkpt lat="43.97035" lon="3.01507">
        <ele>535.4</ele>
        <time>2026-04-30T09:29:44.000Z</time>
      </trkpt>
      <trkpt lat="43.97035" lon="3.01507">
        <ele>535.2</ele>
        <time>2026-04-30T09:29:45.000Z</time>
      </trkpt>
      <trkpt lat="43.97035" lon="3.01507">
        <ele>535.1</ele>
        <time>2026-04-30T09:29:46.000Z</time>
      </trkpt>
      <trkpt lat="43.97035" lon="3.01507">
        <ele>535</ele>
        <time>2026-04-30T09:29:47.000Z</time>
      </trkpt>
      <trkpt lat="43.97035" lon="3.01507">
        <ele>534.9</ele>
        <time>2026-04-30T09:29:48.000Z</time>
      </trkpt>
      <trkpt lat="43.97035" lon="3.01507">
        <ele>534.8</ele>
        <time>2026-04-30T09:29:49.000Z</time>
      </trkpt>
      <trkpt lat="43.97035" lon="3.01507">
        <ele>534.4</ele>
        <time>2026-04-30T09:29:50.000Z</time>
      </trkpt>
      <trkpt lat="43.97035" lon="3.01507">
        <ele>534.2</ele>
        <time>2026-04-30T09:29:51.000Z</time>
      </trkpt>
      <trkpt lat="43.97035" lon="3.01507">
        <ele>534.2</ele>
        <time>2026-04-30T09:29:52.000Z</time>
      </trkpt>
      <trkpt lat="43.97035" lon="3.01507">
        <ele>534.2</ele>
        <time>2026-04-30T09:29:53.000Z</time>
      </trkpt>
      <trkpt lat="43.97035" lon="3.01507">
        <ele>534.1</ele>
        <time>2026-04-30T09:29:54.000Z</time>
      </trkpt>
      <trkpt lat="43.97035" lon="3.01507">
        <ele>534.1</ele>
        <time>2026-04-30T09:29:55.000Z</time>
      </trkpt>
      <trkpt lat="43.97035" lon="3.01506">
        <ele>534.3</ele>
        <time>2026-04-30T09:29:56.000Z</time>
      </trkpt>
      <trkpt lat="43.97035" lon="3.01506">
        <ele>534.3</ele>
        <time>2026-04-30T09:29:57.000Z</time>
      </trkpt>
      <trkpt lat="43.97035" lon="3.01506">
        <ele>534.6</ele>
        <time>2026-04-30T09:29:58.000Z</time>
      </trkpt>
      <trkpt lat="43.97035" lon="3.01506">
        <ele>534.9</ele>
        <time>2026-04-30T09:29:59.000Z</time>
      </trkpt>
      <trkpt lat="43.97035" lon="3.01506">
        <ele>534.9</ele>
        <time>2026-04-30T09:30:00.000Z</time>
      </trkpt>
      <trkpt lat="43.97035" lon="3.01506">
        <ele>535</ele>
        <time>2026-04-30T09:30:01.000Z</time>
      </trkpt>
      <trkpt lat="43.97035" lon="3.01506">
        <ele>535.3</ele>
        <time>2026-04-30T09:30:02.000Z</time>
      </trkpt>
      <trkpt lat="43.97035" lon="3.01506">
        <ele>535.5</ele>
        <time>2026-04-30T09:30:03.000Z</time>
      </trkpt>
      <trkpt lat="43.97035" lon="3.01506">
        <ele>535.7</ele>
        <time>2026-04-30T09:30:04.000Z</time>
      </trkpt>
      <trkpt lat="43.97035" lon="3.01506">
        <ele>535.7</ele>
        <time>2026-04-30T09:30:05.000Z</time>
      </trkpt>
      <trkpt lat="43.97035" lon="3.01506">
        <ele>535.9</ele>
        <time>2026-04-30T09:30:06.000Z</time>
      </trkpt>
      <trkpt lat="43.97035" lon="3.01506">
        <ele>536.2</ele>
        <time>2026-04-30T09:30:07.000Z</time>
      </trkpt>
      <trkpt lat="43.97035" lon="3.01506">
        <ele>536.3</ele>
        <time>2026-04-30T09:30:08.000Z</time>
      </trkpt>
      <trkpt lat="43.97035" lon="3.01507">
        <ele>536.3</ele>
        <time>2026-04-30T09:30:09.000Z</time>
      </trkpt>
      <trkpt lat="43.97035" lon="3.01506">
        <ele>536.5</ele>
        <time>2026-04-30T09:30:10.000Z</time>
      </trkpt>
      <trkpt lat="43.97035" lon="3.01506">
        <ele>536.7</ele>
        <time>2026-04-30T09:30:11.000Z</time>
      </trkpt>
      <trkpt lat="43.97035" lon="3.01506">
        <ele>537</ele>
        <time>2026-04-30T09:30:12.000Z</time>
      </trkpt>
      <trkpt lat="43.97035" lon="3.01506">
        <ele>537.3</ele>
        <time>2026-04-30T09:30:13.000Z</time>
      </trkpt>
      <trkpt lat="43.97035" lon="3.01506">
        <ele>537.5</ele>
        <time>2026-04-30T09:30:14.000Z</time>
      </trkpt>
      <trkpt lat="43.97035" lon="3.01506">
        <ele>537.6</ele>
        <time>2026-04-30T09:30:15.000Z</time>
      </trkpt>
      <trkpt lat="43.97035" lon="3.01506">
        <ele>537.7</ele>
        <time>2026-04-30T09:30:16.000Z</time>
      </trkpt>
      <trkpt lat="43.97035" lon="3.01506">
        <ele>537.7</ele>
        <time>2026-04-30T09:30:17.000Z</time>
      </trkpt>
      <trkpt lat="43.97035" lon="3.01506">
        <ele>537.9</ele>
        <time>2026-04-30T09:30:18.000Z</time>
      </trkpt>
      <trkpt lat="43.97035" lon="3.01506">
        <ele>538.1</ele>
        <time>2026-04-30T09:30:19.000Z</time>
      </trkpt>
      <trkpt lat="43.97035" lon="3.01506">
        <ele>538.2</ele>
        <time>2026-04-30T09:30:20.000Z</time>
      </trkpt>
      <trkpt lat="43.97035" lon="3.01506">
        <ele>538.5</ele>
        <time>2026-04-30T09:30:21.000Z</time>
      </trkpt>
      <trkpt lat="43.97035" lon="3.01506">
        <ele>538.5</ele>
        <time>2026-04-30T09:30:22.000Z</time>
      </trkpt>
      <trkpt lat="43.97035" lon="3.01506">
        <ele>538.7</ele>
        <time>2026-04-30T09:30:23.000Z</time>
      </trkpt>
      <trkpt lat="43.97035" lon="3.01506">
        <ele>538.7</ele>
        <time>2026-04-30T09:30:24.000Z</time>
      </trkpt>
      <trkpt lat="43.97035" lon="3.01506">
        <ele>538.8</ele>
        <time>2026-04-30T09:30:25.000Z</time>
      </trkpt>
      <trkpt lat="43.97035" lon="3.01507">
        <ele>538.9</ele>
        <time>2026-04-30T09:30:26.000Z</time>
      </trkpt>
      <trkpt lat="43.97035" lon="3.01507">
        <ele>538.9</ele>
        <time>2026-04-30T09:30:27.000Z</time>
      </trkpt>
      <trkpt lat="43.97035" lon="3.01507">
        <ele>539.2</ele>
        <time>2026-04-30T09:30:28.000Z</time>
      </trkpt>
      <trkpt lat="43.97035" lon="3.01507">
        <ele>539.4</ele>
        <time>2026-04-30T09:30:29.000Z</time>
      </trkpt>
      <trkpt lat="43.97035" lon="3.01507">
        <ele>539.6</ele>
        <time>2026-04-30T09:30:30.000Z</time>
      </trkpt>
      <trkpt lat="43.97034" lon="3.01507">
        <ele>539.7</ele>
        <time>2026-04-30T09:30:31.000Z</time>
      </trkpt>
      <trkpt lat="43.97034" lon="3.01507">
        <ele>539.8</ele>
        <time>2026-04-30T09:30:32.000Z</time>
      </trkpt>
      <trkpt lat="43.97034" lon="3.01507">
        <ele>540</ele>
        <time>2026-04-30T09:30:33.000Z</time>
      </trkpt>
      <trkpt lat="43.97034" lon="3.01508">
        <ele>540.2</ele>
        <time>2026-04-30T09:30:34.000Z</time>
      </trkpt>
      <trkpt lat="43.97034" lon="3.01508">
        <ele>540.5</ele>
        <time>2026-04-30T09:30:35.000Z</time>
      </trkpt>
      <trkpt lat="43.97034" lon="3.01508">
        <ele>540.9</ele>
        <time>2026-04-30T09:30:36.000Z</time>
      </trkpt>
      <trkpt lat="43.97034" lon="3.01508">
        <ele>541.2</ele>
        <time>2026-04-30T09:30:37.000Z</time>
      </trkpt>
      <trkpt lat="43.97034" lon="3.01508">
        <ele>541.5</ele>
        <time>2026-04-30T09:30:38.000Z</time>
      </trkpt>
      <trkpt lat="43.97034" lon="3.01508">
        <ele>541.7</ele>
        <time>2026-04-30T09:30:39.000Z</time>
      </trkpt>
      <trkpt lat="43.97034" lon="3.01508">
        <ele>541.9</ele>
        <time>2026-04-30T09:30:40.000Z</time>
      </trkpt>
      <trkpt lat="43.97034" lon="3.01508">
        <ele>542</ele>
        <time>2026-04-30T09:30:41.000Z</time>
      </trkpt>
      <trkpt lat="43.97034" lon="3.01508">
        <ele>542.1</ele>
        <time>2026-04-30T09:30:42.000Z</time>
      </trkpt>
      <trkpt lat="43.97034" lon="3.01508">
        <ele>542.2</ele>
        <time>2026-04-30T09:30:43.000Z</time>
      </trkpt>
      <trkpt lat="43.97034" lon="3.01508">
        <ele>542.2</ele>
        <time>2026-04-30T09:30:44.000Z</time>
      </trkpt>
      <trkpt lat="43.97034" lon="3.01508">
        <ele>542.5</ele>
        <time>2026-04-30T09:30:45.000Z</time>
      </trkpt>
      <trkpt lat="43.97034" lon="3.01508">
        <ele>542.7</ele>
        <time>2026-04-30T09:30:46.000Z</time>
      </trkpt>
      <trkpt lat="43.97034" lon="3.01508">
        <ele>542.6</ele>
        <time>2026-04-30T09:30:47.000Z</time>
      </trkpt>
      <trkpt lat="43.97034" lon="3.01508">
        <ele>542.8</ele>
        <time>2026-04-30T09:30:48.000Z</time>
      </trkpt>
      <trkpt lat="43.97034" lon="3.01508">
        <ele>542.7</ele>
        <time>2026-04-30T09:30:49.000Z</time>
      </trkpt>
      <trkpt lat="43.97034" lon="3.01508">
        <ele>542.6</ele>
        <time>2026-04-30T09:30:50.000Z</time>
      </trkpt>
      <trkpt lat="43.97034" lon="3.01508">
        <ele>542.9</ele>
        <time>2026-04-30T09:30:51.000Z</time>
      </trkpt>
      <trkpt lat="43.97034" lon="3.01508">
        <ele>543.4</ele>
        <time>2026-04-30T09:30:52.000Z</time>
      </trkpt>
      <trkpt lat="43.97034" lon="3.01508">
        <ele>543.5</ele>
        <time>2026-04-30T09:30:53.000Z</time>
      </trkpt>
      <trkpt lat="43.97034" lon="3.01508">
        <ele>543.7</ele>
        <time>2026-04-30T09:30:54.000Z</time>
      </trkpt>
      <trkpt lat="43.97034" lon="3.01508">
        <ele>544.1</ele>
        <time>2026-04-30T09:30:55.000Z</time>
      </trkpt>
      <trkpt lat="43.97034" lon="3.01508">
        <ele>544.3</ele>
        <time>2026-04-30T09:30:56.000Z</time>
      </trkpt>
      <trkpt lat="43.97034" lon="3.01508">
        <ele>544.5</ele>
        <time>2026-04-30T09:30:57.000Z</time>
      </trkpt>
      <trkpt lat="43.97034" lon="3.01508">
        <ele>544.6</ele>
        <time>2026-04-30T09:30:58.000Z</time>
      </trkpt>
      <trkpt lat="43.97034" lon="3.01508">
        <ele>544.7</ele>
        <time>2026-04-30T09:30:59.000Z</time>
      </trkpt>
      <trkpt lat="43.97034" lon="3.01508">
        <ele>545</ele>
        <time>2026-04-30T09:31:00.000Z</time>
      </trkpt>
      <trkpt lat="43.97034" lon="3.01508">
        <ele>545.2</ele>
        <time>2026-04-30T09:31:01.000Z</time>
      </trkpt>
      <trkpt lat="43.97034" lon="3.01509">
        <ele>545.4</ele>
        <time>2026-04-30T09:31:02.000Z</time>
      </trkpt>
      <trkpt lat="43.97034" lon="3.01509">
        <ele>545.7</ele>
        <time>2026-04-30T09:31:03.000Z</time>
      </trkpt>
      <trkpt lat="43.97034" lon="3.01509">
        <ele>546</ele>
        <time>2026-04-30T09:31:04.000Z</time>
      </trkpt>
      <trkpt lat="43.97034" lon="3.01509">
        <ele>546.3</ele>
        <time>2026-04-30T09:31:05.000Z</time>
      </trkpt>
      <trkpt lat="43.97034" lon="3.01509">
        <ele>546.5</ele>
        <time>2026-04-30T09:31:06.000Z</time>
      </trkpt>
      <trkpt lat="43.97034" lon="3.01509">
        <ele>546.4</ele>
        <time>2026-04-30T09:31:07.000Z</time>
      </trkpt>
      <trkpt lat="43.97034" lon="3.01509">
        <ele>546.2</ele>
        <time>2026-04-30T09:31:08.000Z</time>
      </trkpt>
      <trkpt lat="43.97034" lon="3.01509">
        <ele>545.9</ele>
        <time>2026-04-30T09:31:09.000Z</time>
      </trkpt>
      <trkpt lat="43.97034" lon="3.01509">
        <ele>545.7</ele>
        <time>2026-04-30T09:31:10.000Z</time>
      </trkpt>
      <trkpt lat="43.97034" lon="3.01509">
        <ele>545.6</ele>
        <time>2026-04-30T09:31:11.000Z</time>
      </trkpt>
      <trkpt lat="43.97033" lon="3.01509">
        <ele>545.3</ele>
        <time>2026-04-30T09:31:12.000Z</time>
      </trkpt>
      <trkpt lat="43.97033" lon="3.01509">
        <ele>544.9</ele>
        <time>2026-04-30T09:31:13.000Z</time>
      </trkpt>
      <trkpt lat="43.97033" lon="3.01509">
        <ele>544.7</ele>
        <time>2026-04-30T09:31:14.000Z</time>
      </trkpt>
      <trkpt lat="43.97033" lon="3.01509">
        <ele>544.7</ele>
        <time>2026-04-30T09:31:15.000Z</time>
      </trkpt>
      <trkpt lat="43.97034" lon="3.01509">
        <ele>544.5</ele>
        <time>2026-04-30T09:31:16.000Z</time>
      </trkpt>
      <trkpt lat="43.97033" lon="3.0151">
        <ele>544.4</ele>
        <time>2026-04-30T09:31:17.000Z</time>
      </trkpt>
      <trkpt lat="43.97033" lon="3.0151">
        <ele>544.2</ele>
        <time>2026-04-30T09:31:18.000Z</time>
      </trkpt>
      <trkpt lat="43.97033" lon="3.0151">
        <ele>544</ele>
        <time>2026-04-30T09:31:19.000Z</time>
      </trkpt>
      <trkpt lat="43.97033" lon="3.01511">
        <ele>543.9</ele>
        <time>2026-04-30T09:31:20.000Z</time>
      </trkpt>
      <trkpt lat="43.97033" lon="3.01512">
        <ele>543.7</ele>
        <time>2026-04-30T09:31:21.000Z</time>
      </trkpt>
      <trkpt lat="43.97033" lon="3.01512">
        <ele>543.6</ele>
        <time>2026-04-30T09:31:22.000Z</time>
      </trkpt>
      <trkpt lat="43.97032" lon="3.01513">
        <ele>543.2</ele>
        <time>2026-04-30T09:31:23.000Z</time>
      </trkpt>
      <trkpt lat="43.97032" lon="3.01513">
        <ele>542.6</ele>
        <time>2026-04-30T09:31:24.000Z</time>
      </trkpt>
      <trkpt lat="43.97033" lon="3.01513">
        <ele>542.4</ele>
        <time>2026-04-30T09:31:25.000Z</time>
      </trkpt>
      <trkpt lat="43.97033" lon="3.01512">
        <ele>542.6</ele>
        <time>2026-04-30T09:31:26.000Z</time>
      </trkpt>
      <trkpt lat="43.97033" lon="3.01512">
        <ele>542.5</ele>
        <time>2026-04-30T09:31:27.000Z</time>
      </trkpt>
      <trkpt lat="43.97033" lon="3.01512">
        <ele>542.5</ele>
        <time>2026-04-30T09:31:28.000Z</time>
      </trkpt>
      <trkpt lat="43.97033" lon="3.01512">
        <ele>542.6</ele>
        <time>2026-04-30T09:31:29.000Z</time>
      </trkpt>
      <trkpt lat="43.97033" lon="3.01512">
        <ele>542.6</ele>
        <time>2026-04-30T09:31:30.000Z</time>
      </trkpt>
      <trkpt lat="43.97032" lon="3.0151">
        <ele>542.3</ele>
        <time>2026-04-30T09:31:31.000Z</time>
      </trkpt>
      <trkpt lat="43.97033" lon="3.01509">
        <ele>542.4</ele>
        <time>2026-04-30T09:31:32.000Z</time>
      </trkpt>
      <trkpt lat="43.97033" lon="3.01509">
        <ele>542.7</ele>
        <time>2026-04-30T09:31:33.000Z</time>
      </trkpt>
      <trkpt lat="43.97032" lon="3.01509">
        <ele>542.9</ele>
        <time>2026-04-30T09:31:34.000Z</time>
      </trkpt>
      <trkpt lat="43.97032" lon="3.01509">
        <ele>543.2</ele>
        <time>2026-04-30T09:31:35.000Z</time>
      </trkpt>
      <trkpt lat="43.97032" lon="3.01509">
        <ele>543.2</ele>
        <time>2026-04-30T09:31:36.000Z</time>
      </trkpt>
      <trkpt lat="43.97032" lon="3.01509">
        <ele>543.2</ele>
        <time>2026-04-30T09:31:37.000Z</time>
      </trkpt>
      <trkpt lat="43.97032" lon="3.01509">
        <ele>542.9</ele>
        <time>2026-04-30T09:31:38.000Z</time>
      </trkpt>
      <trkpt lat="43.97032" lon="3.01509">
        <ele>543.2</ele>
        <time>2026-04-30T09:31:39.000Z</time>
      </trkpt>
      <trkpt lat="43.97032" lon="3.01509">
        <ele>543.4</ele>
        <time>2026-04-30T09:31:40.000Z</time>
      </trkpt>
      <trkpt lat="43.97032" lon="3.01509">
        <ele>543.7</ele>
        <time>2026-04-30T09:31:41.000Z</time>
      </trkpt>
      <trkpt lat="43.97032" lon="3.01509">
        <ele>543.8</ele>
        <time>2026-04-30T09:31:42.000Z</time>
      </trkpt>
      <trkpt lat="43.97032" lon="3.01509">
        <ele>543.7</ele>
        <time>2026-04-30T09:31:43.000Z</time>
      </trkpt>
      <trkpt lat="43.97032" lon="3.01509">
        <ele>543.4</ele>
        <time>2026-04-30T09:31:44.000Z</time>
      </trkpt>
      <trkpt lat="43.97032" lon="3.01509">
        <ele>542.9</ele>
        <time>2026-04-30T09:31:45.000Z</time>
      </trkpt>
      <trkpt lat="43.97032" lon="3.01509">
        <ele>542.2</ele>
        <time>2026-04-30T09:31:46.000Z</time>
      </trkpt>
      <trkpt lat="43.97032" lon="3.01509">
        <ele>542</ele>
        <time>2026-04-30T09:31:47.000Z</time>
      </trkpt>
      <trkpt lat="43.97032" lon="3.01509">
        <ele>541.6</ele>
        <time>2026-04-30T09:31:48.000Z</time>
      </trkpt>
      <trkpt lat="43.97032" lon="3.01509">
        <ele>541.9</ele>
        <time>2026-04-30T09:31:49.000Z</time>
      </trkpt>
      <trkpt lat="43.97032" lon="3.01509">
        <ele>541.8</ele>
        <time>2026-04-30T09:31:50.000Z</time>
      </trkpt>
      <trkpt lat="43.97032" lon="3.01509">
        <ele>541.5</ele>
        <time>2026-04-30T09:31:51.000Z</time>
      </trkpt>
      <trkpt lat="43.97032" lon="3.01509">
        <ele>540.9</ele>
        <time>2026-04-30T09:31:52.000Z</time>
      </trkpt>
      <trkpt lat="43.97032" lon="3.01509">
        <ele>540.7</ele>
        <time>2026-04-30T09:31:53.000Z</time>
      </trkpt>
      <trkpt lat="43.97033" lon="3.01508">
        <ele>540.6</ele>
        <time>2026-04-30T09:31:54.000Z</time>
      </trkpt>
      <trkpt lat="43.97033" lon="3.01508">
        <ele>540.6</ele>
        <time>2026-04-30T09:31:55.000Z</time>
      </trkpt>
      <trkpt lat="43.97033" lon="3.01508">
        <ele>540.7</ele>
        <time>2026-04-30T09:31:56.000Z</time>
      </trkpt>
      <trkpt lat="43.97033" lon="3.01508">
        <ele>540.7</ele>
        <time>2026-04-30T09:31:57.000Z</time>
      </trkpt>
      <trkpt lat="43.97033" lon="3.01508">
        <ele>540.6</ele>
        <time>2026-04-30T09:31:58.000Z</time>
      </trkpt>
      <trkpt lat="43.97033" lon="3.01508">
        <ele>540.1</ele>
        <time>2026-04-30T09:31:59.000Z</time>
      </trkpt>
      <trkpt lat="43.97033" lon="3.01508">
        <ele>540</ele>
        <time>2026-04-30T09:32:00.000Z</time>
      </trkpt>
      <trkpt lat="43.97033" lon="3.01508">
        <ele>540.2</ele>
        <time>2026-04-30T09:32:01.000Z</time>
      </trkpt>
      <trkpt lat="43.97033" lon="3.01508">
        <ele>540.4</ele>
        <time>2026-04-30T09:32:02.000Z</time>
      </trkpt>
      <trkpt lat="43.97033" lon="3.01508">
        <ele>540.8</ele>
        <time>2026-04-30T09:32:03.000Z</time>
      </trkpt>
      <trkpt lat="43.97033" lon="3.01508">
        <ele>541</ele>
        <time>2026-04-30T09:32:04.000Z</time>
      </trkpt>
      <trkpt lat="43.97033" lon="3.01508">
        <ele>541.3</ele>
        <time>2026-04-30T09:32:05.000Z</time>
      </trkpt>
      <trkpt lat="43.97033" lon="3.01508">
        <ele>541.7</ele>
        <time>2026-04-30T09:32:06.000Z</time>
      </trkpt>
      <trkpt lat="43.97033" lon="3.01508">
        <ele>542.1</ele>
        <time>2026-04-30T09:32:07.000Z</time>
      </trkpt>
      <trkpt lat="43.97033" lon="3.01508">
        <ele>542.1</ele>
        <time>2026-04-30T09:32:08.000Z</time>
      </trkpt>
      <trkpt lat="43.97033" lon="3.01508">
        <ele>542.2</ele>
        <time>2026-04-30T09:32:09.000Z</time>
      </trkpt>
      <trkpt lat="43.97033" lon="3.01507">
        <ele>542.1</ele>
        <time>2026-04-30T09:32:10.000Z</time>
      </trkpt>
      <trkpt lat="43.97033" lon="3.01507">
        <ele>541.9</ele>
        <time>2026-04-30T09:32:11.000Z</time>
      </trkpt>
      <trkpt lat="43.97033" lon="3.01507">
        <ele>541.8</ele>
        <time>2026-04-30T09:32:12.000Z</time>
      </trkpt>
      <trkpt lat="43.97034" lon="3.01507">
        <ele>541.2</ele>
        <time>2026-04-30T09:32:13.000Z</time>
      </trkpt>
      <trkpt lat="43.97033" lon="3.01507">
        <ele>540.9</ele>
        <time>2026-04-30T09:32:14.000Z</time>
      </trkpt>
      <trkpt lat="43.97033" lon="3.01507">
        <ele>540.7</ele>
        <time>2026-04-30T09:32:15.000Z</time>
      </trkpt>
      <trkpt lat="43.97033" lon="3.01507">
        <ele>540</ele>
        <time>2026-04-30T09:32:16.000Z</time>
      </trkpt>
      <trkpt lat="43.97033" lon="3.01507">
        <ele>539.8</ele>
        <time>2026-04-30T09:32:17.000Z</time>
      </trkpt>
      <trkpt lat="43.97033" lon="3.01507">
        <ele>539.7</ele>
        <time>2026-04-30T09:32:18.000Z</time>
      </trkpt>
      <trkpt lat="43.97033" lon="3.01507">
        <ele>539.5</ele>
        <time>2026-04-30T09:32:19.000Z</time>
      </trkpt>
      <trkpt lat="43.97034" lon="3.01507">
        <ele>539.2</ele>
        <time>2026-04-30T09:32:20.000Z</time>
      </trkpt>
      <trkpt lat="43.97034" lon="3.01507">
        <ele>539</ele>
        <time>2026-04-30T09:32:21.000Z</time>
      </trkpt>
      <trkpt lat="43.97034" lon="3.01507">
        <ele>538.8</ele>
        <time>2026-04-30T09:32:22.000Z</time>
      </trkpt>
      <trkpt lat="43.97033" lon="3.01507">
        <ele>538.7</ele>
        <time>2026-04-30T09:32:23.000Z</time>
      </trkpt>
      <trkpt lat="43.97033" lon="3.01507">
        <ele>538.9</ele>
        <time>2026-04-30T09:32:24.000Z</time>
      </trkpt>
      <trkpt lat="43.97033" lon="3.01507">
        <ele>538.9</ele>
        <time>2026-04-30T09:32:25.000Z</time>
      </trkpt>
      <trkpt lat="43.97033" lon="3.01507">
        <ele>539.1</ele>
        <time>2026-04-30T09:32:26.000Z</time>
      </trkpt>
      <trkpt lat="43.97033" lon="3.01507">
        <ele>539.4</ele>
        <time>2026-04-30T09:32:27.000Z</time>
      </trkpt>
      <trkpt lat="43.97033" lon="3.01507">
        <ele>539.6</ele>
        <time>2026-04-30T09:32:28.000Z</time>
      </trkpt>
      <trkpt lat="43.97033" lon="3.01507">
        <ele>539.3</ele>
        <time>2026-04-30T09:32:29.000Z</time>
      </trkpt>
      <trkpt lat="43.97033" lon="3.01507">
        <ele>539.3</ele>
        <time>2026-04-30T09:32:30.000Z</time>
      </trkpt>
      <trkpt lat="43.97033" lon="3.01507">
        <ele>539.5</ele>
        <time>2026-04-30T09:32:31.000Z</time>
      </trkpt>
      <trkpt lat="43.97033" lon="3.01507">
        <ele>539.6</ele>
        <time>2026-04-30T09:32:32.000Z</time>
      </trkpt>
      <trkpt lat="43.97033" lon="3.01507">
        <ele>539.5</ele>
        <time>2026-04-30T09:32:33.000Z</time>
      </trkpt>
      <trkpt lat="43.97034" lon="3.01508">
        <ele>539.5</ele>
        <time>2026-04-30T09:32:34.000Z</time>
      </trkpt>
      <trkpt lat="43.97034" lon="3.01507">
        <ele>539.6</ele>
        <time>2026-04-30T09:32:35.000Z</time>
      </trkpt>
      <trkpt lat="43.97034" lon="3.01508">
        <ele>539.9</ele>
        <time>2026-04-30T09:32:36.000Z</time>
      </trkpt>
      <trkpt lat="43.97034" lon="3.01508">
        <ele>539.6</ele>
        <time>2026-04-30T09:32:37.000Z</time>
      </trkpt>
      <trkpt lat="43.97034" lon="3.01509">
        <ele>539.6</ele>
        <time>2026-04-30T09:32:38.000Z</time>
      </trkpt>
      <trkpt lat="43.97034" lon="3.01509">
        <ele>539.4</ele>
        <time>2026-04-30T09:32:39.000Z</time>
      </trkpt>
      <trkpt lat="43.97034" lon="3.01509">
        <ele>539.2</ele>
        <time>2026-04-30T09:32:40.000Z</time>
      </trkpt>
      <trkpt lat="43.97034" lon="3.01509">
        <ele>538.8</ele>
        <time>2026-04-30T09:32:41.000Z</time>
      </trkpt>
      <trkpt lat="43.97034" lon="3.01509">
        <ele>538.6</ele>
        <time>2026-04-30T09:32:42.000Z</time>
      </trkpt>
      <trkpt lat="43.97034" lon="3.01511">
        <ele>538.6</ele>
        <time>2026-04-30T09:32:43.000Z</time>
      </trkpt>
      <trkpt lat="43.97033" lon="3.01512">
        <ele>538.7</ele>
        <time>2026-04-30T09:32:44.000Z</time>
      </trkpt>
      <trkpt lat="43.97033" lon="3.01514">
        <ele>538.9</ele>
        <time>2026-04-30T09:32:45.000Z</time>
      </trkpt>
      <trkpt lat="43.97032" lon="3.01515">
        <ele>539.1</ele>
        <time>2026-04-30T09:32:46.000Z</time>
      </trkpt>
      <trkpt lat="43.97031" lon="3.01516">
        <ele>539.3</ele>
        <time>2026-04-30T09:32:47.000Z</time>
      </trkpt>
      <trkpt lat="43.97029" lon="3.01517">
        <ele>539.4</ele>
        <time>2026-04-30T09:32:48.000Z</time>
      </trkpt>
      <trkpt lat="43.97028" lon="3.01517">
        <ele>539.8</ele>
        <time>2026-04-30T09:32:49.000Z</time>
      </trkpt>
      <trkpt lat="43.97027" lon="3.01518">
        <ele>540</ele>
        <time>2026-04-30T09:32:50.000Z</time>
      </trkpt>
      <trkpt lat="43.97026" lon="3.0152">
        <ele>540.1</ele>
        <time>2026-04-30T09:32:51.000Z</time>
      </trkpt>
      <trkpt lat="43.97026" lon="3.01521">
        <ele>540.2</ele>
        <time>2026-04-30T09:32:52.000Z</time>
      </trkpt>
      <trkpt lat="43.97025" lon="3.01523">
        <ele>540.3</ele>
        <time>2026-04-30T09:32:53.000Z</time>
      </trkpt>
      <trkpt lat="43.97024" lon="3.01525">
        <ele>540.4</ele>
        <time>2026-04-30T09:32:54.000Z</time>
      </trkpt>
      <trkpt lat="43.97024" lon="3.01526">
        <ele>540.3</ele>
        <time>2026-04-30T09:32:55.000Z</time>
      </trkpt>
      <trkpt lat="43.97023" lon="3.01528">
        <ele>540.3</ele>
        <time>2026-04-30T09:32:56.000Z</time>
      </trkpt>
      <trkpt lat="43.97023" lon="3.0153">
        <ele>540.4</ele>
        <time>2026-04-30T09:32:57.000Z</time>
      </trkpt>
      <trkpt lat="43.97022" lon="3.01531">
        <ele>540.6</ele>
        <time>2026-04-30T09:32:58.000Z</time>
      </trkpt>
      <trkpt lat="43.97021" lon="3.01531">
        <ele>540.8</ele>
        <time>2026-04-30T09:32:59.000Z</time>
      </trkpt>
      <trkpt lat="43.9702" lon="3.01531">
        <ele>540.7</ele>
        <time>2026-04-30T09:33:00.000Z</time>
      </trkpt>
      <trkpt lat="43.9702" lon="3.01532">
        <ele>540.9</ele>
        <time>2026-04-30T09:33:01.000Z</time>
      </trkpt>
      <trkpt lat="43.97019" lon="3.01534">
        <ele>541.2</ele>
        <time>2026-04-30T09:33:02.000Z</time>
      </trkpt>
      <trkpt lat="43.97018" lon="3.01536">
        <ele>541.3</ele>
        <time>2026-04-30T09:33:03.000Z</time>
      </trkpt>
      <trkpt lat="43.97017" lon="3.01537">
        <ele>541.5</ele>
        <time>2026-04-30T09:33:04.000Z</time>
      </trkpt>
      <trkpt lat="43.97017" lon="3.01536">
        <ele>541.2</ele>
        <time>2026-04-30T09:33:05.000Z</time>
      </trkpt>
      <trkpt lat="43.97017" lon="3.01536">
        <ele>540.6</ele>
        <time>2026-04-30T09:33:06.000Z</time>
      </trkpt>
      <trkpt lat="43.97017" lon="3.01535">
        <ele>540.6</ele>
        <time>2026-04-30T09:33:07.000Z</time>
      </trkpt>
      <trkpt lat="43.97016" lon="3.01534">
        <ele>540.7</ele>
        <time>2026-04-30T09:33:08.000Z</time>
      </trkpt>
      <trkpt lat="43.97016" lon="3.01534">
        <ele>540.8</ele>
        <time>2026-04-30T09:33:09.000Z</time>
      </trkpt>
      <trkpt lat="43.97016" lon="3.01535">
        <ele>540.9</ele>
        <time>2026-04-30T09:33:10.000Z</time>
      </trkpt>
      <trkpt lat="43.97016" lon="3.01536">
        <ele>540.7</ele>
        <time>2026-04-30T09:33:11.000Z</time>
      </trkpt>
      <trkpt lat="43.97015" lon="3.01537">
        <ele>541</ele>
        <time>2026-04-30T09:33:12.000Z</time>
      </trkpt>
      <trkpt lat="43.97015" lon="3.01538">
        <ele>540.6</ele>
        <time>2026-04-30T09:33:13.000Z</time>
      </trkpt>
      <trkpt lat="43.97014" lon="3.01539">
        <ele>541.4</ele>
        <time>2026-04-30T09:33:14.000Z</time>
      </trkpt>
      <trkpt lat="43.97013" lon="3.0154">
        <ele>541.8</ele>
        <time>2026-04-30T09:33:15.000Z</time>
      </trkpt>
      <trkpt lat="43.97012" lon="3.01541">
        <ele>541.6</ele>
        <time>2026-04-30T09:33:16.000Z</time>
      </trkpt>
      <trkpt lat="43.97011" lon="3.01542">
        <ele>541.5</ele>
        <time>2026-04-30T09:33:17.000Z</time>
      </trkpt>
      <trkpt lat="43.9701" lon="3.01542">
        <ele>541.4</ele>
        <time>2026-04-30T09:33:18.000Z</time>
      </trkpt>
      <trkpt lat="43.97008" lon="3.01543">
        <ele>541.3</ele>
        <time>2026-04-30T09:33:19.000Z</time>
      </trkpt>
      <trkpt lat="43.97007" lon="3.01543">
        <ele>541.2</ele>
        <time>2026-04-30T09:33:20.000Z</time>
      </trkpt>
      <trkpt lat="43.97006" lon="3.01544">
        <ele>541.6</ele>
        <time>2026-04-30T09:33:21.000Z</time>
      </trkpt>
      <trkpt lat="43.97005" lon="3.01544">
        <ele>541.8</ele>
        <time>2026-04-30T09:33:22.000Z</time>
      </trkpt>
      <trkpt lat="43.97003" lon="3.01545">
        <ele>541.6</ele>
        <time>2026-04-30T09:33:23.000Z</time>
      </trkpt>
      <trkpt lat="43.96999" lon="3.01545">
        <ele>541.9</ele>
        <time>2026-04-30T09:33:25.000Z</time>
      </trkpt>
      <trkpt lat="43.96998" lon="3.01545">
        <ele>542.1</ele>
        <time>2026-04-30T09:33:26.000Z</time>
      </trkpt>
      <trkpt lat="43.96997" lon="3.01546">
        <ele>541</ele>
        <time>2026-04-30T09:33:27.000Z</time>
      </trkpt>
      <trkpt lat="43.96996" lon="3.01546">
        <ele>540.6</ele>
        <time>2026-04-30T09:33:28.000Z</time>
      </trkpt>
      <trkpt lat="43.96996" lon="3.01546">
        <ele>540</ele>
        <time>2026-04-30T09:33:29.000Z</time>
      </trkpt>
      <trkpt lat="43.96994" lon="3.01546">
        <ele>540.7</ele>
        <time>2026-04-30T09:33:30.000Z</time>
      </trkpt>
      <trkpt lat="43.96994" lon="3.01545">
        <ele>540.8</ele>
        <time>2026-04-30T09:33:31.000Z</time>
      </trkpt>
      <trkpt lat="43.96993" lon="3.01546">
        <ele>541.3</ele>
        <time>2026-04-30T09:33:32.000Z</time>
      </trkpt>
      <trkpt lat="43.96993" lon="3.01546">
        <ele>541.4</ele>
        <time>2026-04-30T09:33:33.000Z</time>
      </trkpt>
      <trkpt lat="43.96992" lon="3.01546">
        <ele>541.6</ele>
        <time>2026-04-30T09:33:34.000Z</time>
      </trkpt>
      <trkpt lat="43.9699" lon="3.01548">
        <ele>542.3</ele>
        <time>2026-04-30T09:33:35.000Z</time>
      </trkpt>
      <trkpt lat="43.9699" lon="3.01548">
        <ele>542.7</ele>
        <time>2026-04-30T09:33:36.000Z</time>
      </trkpt>
      <trkpt lat="43.96989" lon="3.01549">
        <ele>542.7</ele>
        <time>2026-04-30T09:33:37.000Z</time>
      </trkpt>
      <trkpt lat="43.96989" lon="3.0155">
        <ele>542.6</ele>
        <time>2026-04-30T09:33:38.000Z</time>
      </trkpt>
      <trkpt lat="43.96987" lon="3.01552">
        <ele>542.4</ele>
        <time>2026-04-30T09:33:39.999Z</time>
      </trkpt>
      <trkpt lat="43.96986" lon="3.01552">
        <ele>542.5</ele>
        <time>2026-04-30T09:33:40.999Z</time>
      </trkpt>
      <trkpt lat="43.96985" lon="3.01552">
        <ele>542.9</ele>
        <time>2026-04-30T09:33:41.999Z</time>
      </trkpt>
      <trkpt lat="43.96984" lon="3.01552">
        <ele>543</ele>
        <time>2026-04-30T09:33:42.999Z</time>
      </trkpt>
      <trkpt lat="43.96984" lon="3.01553">
        <ele>542.7</ele>
        <time>2026-04-30T09:33:43.999Z</time>
      </trkpt>
      <trkpt lat="43.96984" lon="3.01553">
        <ele>542.5</ele>
        <time>2026-04-30T09:33:44.999Z</time>
      </trkpt>
      <trkpt lat="43.96983" lon="3.01553">
        <ele>542.6</ele>
        <time>2026-04-30T09:33:45.999Z</time>
      </trkpt>
      <trkpt lat="43.96982" lon="3.01554">
        <ele>542.9</ele>
        <time>2026-04-30T09:33:46.999Z</time>
      </trkpt>
      <trkpt lat="43.9698" lon="3.01554">
        <ele>543.2</ele>
        <time>2026-04-30T09:33:47.999Z</time>
      </trkpt>
      <trkpt lat="43.96979" lon="3.01555">
        <ele>543.1</ele>
        <time>2026-04-30T09:33:48.999Z</time>
      </trkpt>
      <trkpt lat="43.96978" lon="3.01555">
        <ele>542.7</ele>
        <time>2026-04-30T09:33:49.999Z</time>
      </trkpt>
      <trkpt lat="43.96977" lon="3.01555">
        <ele>542.5</ele>
        <time>2026-04-30T09:33:50.999Z</time>
      </trkpt>
      <trkpt lat="43.96976" lon="3.01555">
        <ele>542.4</ele>
        <time>2026-04-30T09:33:51.999Z</time>
      </trkpt>
      <trkpt lat="43.96974" lon="3.01555">
        <ele>542.6</ele>
        <time>2026-04-30T09:33:52.999Z</time>
      </trkpt>
      <trkpt lat="43.96973" lon="3.01555">
        <ele>542.5</ele>
        <time>2026-04-30T09:33:53.999Z</time>
      </trkpt>
      <trkpt lat="43.96972" lon="3.01555">
        <ele>542.7</ele>
        <time>2026-04-30T09:33:54.999Z</time>
      </trkpt>
      <trkpt lat="43.96971" lon="3.01555">
        <ele>542.4</ele>
        <time>2026-04-30T09:33:55.999Z</time>
      </trkpt>
      <trkpt lat="43.9697" lon="3.01555">
        <ele>542.2</ele>
        <time>2026-04-30T09:33:56.999Z</time>
      </trkpt>
      <trkpt lat="43.96968" lon="3.01555">
        <ele>542.3</ele>
        <time>2026-04-30T09:33:57.999Z</time>
      </trkpt>
      <trkpt lat="43.96967" lon="3.01556">
        <ele>542.3</ele>
        <time>2026-04-30T09:33:58.999Z</time>
      </trkpt>
      <trkpt lat="43.96966" lon="3.01555">
        <ele>542.3</ele>
        <time>2026-04-30T09:33:59.999Z</time>
      </trkpt>
      <trkpt lat="43.96965" lon="3.01555">
        <ele>542.3</ele>
        <time>2026-04-30T09:34:00.999Z</time>
      </trkpt>
      <trkpt lat="43.96964" lon="3.01555">
        <ele>542.2</ele>
        <time>2026-04-30T09:34:01.999Z</time>
      </trkpt>
      <trkpt lat="43.96964" lon="3.01555">
        <ele>541.5</ele>
        <time>2026-04-30T09:34:02.999Z</time>
      </trkpt>
      <trkpt lat="43.96963" lon="3.01555">
        <ele>541.1</ele>
        <time>2026-04-30T09:34:03.999Z</time>
      </trkpt>
      <trkpt lat="43.96961" lon="3.01554">
        <ele>541</ele>
        <time>2026-04-30T09:34:04.999Z</time>
      </trkpt>
      <trkpt lat="43.96959" lon="3.01553">
        <ele>540.9</ele>
        <time>2026-04-30T09:34:05.999Z</time>
      </trkpt>
      <trkpt lat="43.96958" lon="3.01554">
        <ele>541.3</ele>
        <time>2026-04-30T09:34:06.999Z</time>
      </trkpt>
      <trkpt lat="43.96957" lon="3.01555">
        <ele>541.4</ele>
        <time>2026-04-30T09:34:07.999Z</time>
      </trkpt>
      <trkpt lat="43.96956" lon="3.01554">
        <ele>541.5</ele>
        <time>2026-04-30T09:34:08.999Z</time>
      </trkpt>
      <trkpt lat="43.96955" lon="3.01553">
        <ele>541.6</ele>
        <time>2026-04-30T09:34:09.999Z</time>
      </trkpt>
      <trkpt lat="43.96954" lon="3.01553">
        <ele>541.5</ele>
        <time>2026-04-30T09:34:10.999Z</time>
      </trkpt>
      <trkpt lat="43.96952" lon="3.01552">
        <ele>541.2</ele>
        <time>2026-04-30T09:34:11.999Z</time>
      </trkpt>
      <trkpt lat="43.9695" lon="3.01552">
        <ele>540.8</ele>
        <time>2026-04-30T09:34:12.999Z</time>
      </trkpt>
      <trkpt lat="43.96948" lon="3.01551">
        <ele>540.5</ele>
        <time>2026-04-30T09:34:13.999Z</time>
      </trkpt>
      <trkpt lat="43.96947" lon="3.0155">
        <ele>540.2</ele>
        <time>2026-04-30T09:34:14.999Z</time>
      </trkpt>
      <trkpt lat="43.96945" lon="3.0155">
        <ele>540.2</ele>
        <time>2026-04-30T09:34:15.999Z</time>
      </trkpt>
      <trkpt lat="43.96944" lon="3.01551">
        <ele>540.4</ele>
        <time>2026-04-30T09:34:16.999Z</time>
      </trkpt>
      <trkpt lat="43.96943" lon="3.01551">
        <ele>540.9</ele>
        <time>2026-04-30T09:34:17.999Z</time>
      </trkpt>
      <trkpt lat="43.96942" lon="3.01553">
        <ele>541.3</ele>
        <time>2026-04-30T09:34:18.999Z</time>
      </trkpt>
      <trkpt lat="43.96942" lon="3.01554">
        <ele>541.5</ele>
        <time>2026-04-30T09:34:19.999Z</time>
      </trkpt>
      <trkpt lat="43.96941" lon="3.01554">
        <ele>541.6</ele>
        <time>2026-04-30T09:34:20.999Z</time>
      </trkpt>
      <trkpt lat="43.96939" lon="3.01555">
        <ele>541.4</ele>
        <time>2026-04-30T09:34:21.999Z</time>
      </trkpt>
      <trkpt lat="43.96938" lon="3.01554">
        <ele>541.7</ele>
        <time>2026-04-30T09:34:22.999Z</time>
      </trkpt>
      <trkpt lat="43.96937" lon="3.01554">
        <ele>542.1</ele>
        <time>2026-04-30T09:34:23.999Z</time>
      </trkpt>
      <trkpt lat="43.96935" lon="3.01553">
        <ele>542.4</ele>
        <time>2026-04-30T09:34:24.999Z</time>
      </trkpt>
      <trkpt lat="43.96935" lon="3.01553">
        <ele>542.8</ele>
        <time>2026-04-30T09:34:25.999Z</time>
      </trkpt>
      <trkpt lat="43.96934" lon="3.01552">
        <ele>542.8</ele>
        <time>2026-04-30T09:34:26.999Z</time>
      </trkpt>
      <trkpt lat="43.96934" lon="3.01552">
        <ele>542.6</ele>
        <time>2026-04-30T09:34:27.999Z</time>
      </trkpt>
      <trkpt lat="43.96933" lon="3.01552">
        <ele>542.4</ele>
        <time>2026-04-30T09:34:28.999Z</time>
      </trkpt>
      <trkpt lat="43.96932" lon="3.01553">
        <ele>542.2</ele>
        <time>2026-04-30T09:34:29.999Z</time>
      </trkpt>
      <trkpt lat="43.9693" lon="3.01554">
        <ele>541.9</ele>
        <time>2026-04-30T09:34:30.999Z</time>
      </trkpt>
      <trkpt lat="43.96929" lon="3.01554">
        <ele>542</ele>
        <time>2026-04-30T09:34:31.999Z</time>
      </trkpt>
      <trkpt lat="43.96928" lon="3.01554">
        <ele>542</ele>
        <time>2026-04-30T09:34:32.999Z</time>
      </trkpt>
      <trkpt lat="43.96927" lon="3.01555">
        <ele>542.1</ele>
        <time>2026-04-30T09:34:33.999Z</time>
      </trkpt>
      <trkpt lat="43.96926" lon="3.01555">
        <ele>542.1</ele>
        <time>2026-04-30T09:34:34.999Z</time>
      </trkpt>
      <trkpt lat="43.96924" lon="3.01555">
        <ele>542.4</ele>
        <time>2026-04-30T09:34:35.999Z</time>
      </trkpt>
      <trkpt lat="43.96923" lon="3.01555">
        <ele>542.6</ele>
        <time>2026-04-30T09:34:36.999Z</time>
      </trkpt>
      <trkpt lat="43.96922" lon="3.01555">
        <ele>542.3</ele>
        <time>2026-04-30T09:34:37.999Z</time>
      </trkpt>
      <trkpt lat="43.9692" lon="3.01554">
        <ele>542.2</ele>
        <time>2026-04-30T09:34:38.999Z</time>
      </trkpt>
      <trkpt lat="43.96919" lon="3.01554">
        <ele>541.9</ele>
        <time>2026-04-30T09:34:39.999Z</time>
      </trkpt>
      <trkpt lat="43.96917" lon="3.01553">
        <ele>541.4</ele>
        <time>2026-04-30T09:34:40.999Z</time>
      </trkpt>
      <trkpt lat="43.96916" lon="3.01553">
        <ele>541</ele>
        <time>2026-04-30T09:34:41.999Z</time>
      </trkpt>
      <trkpt lat="43.96915" lon="3.01553">
        <ele>540.9</ele>
        <time>2026-04-30T09:34:42.999Z</time>
      </trkpt>
      <trkpt lat="43.96914" lon="3.01553">
        <ele>541.1</ele>
        <time>2026-04-30T09:34:43.999Z</time>
      </trkpt>
      <trkpt lat="43.96912" lon="3.01553">
        <ele>541.1</ele>
        <time>2026-04-30T09:34:44.999Z</time>
      </trkpt>
      <trkpt lat="43.96911" lon="3.01554">
        <ele>541.4</ele>
        <time>2026-04-30T09:34:45.999Z</time>
      </trkpt>
      <trkpt lat="43.9691" lon="3.01554">
        <ele>541.7</ele>
        <time>2026-04-30T09:34:46.999Z</time>
      </trkpt>
      <trkpt lat="43.96909" lon="3.01554">
        <ele>542.3</ele>
        <time>2026-04-30T09:34:47.999Z</time>
      </trkpt>
      <trkpt lat="43.96907" lon="3.01554">
        <ele>543</ele>
        <time>2026-04-30T09:34:48.999Z</time>
      </trkpt>
      <trkpt lat="43.96905" lon="3.01555">
        <ele>543.5</ele>
        <time>2026-04-30T09:34:49.999Z</time>
      </trkpt>
      <trkpt lat="43.96904" lon="3.01555">
        <ele>543.7</ele>
        <time>2026-04-30T09:34:50.999Z</time>
      </trkpt>
      <trkpt lat="43.96902" lon="3.01555">
        <ele>543.7</ele>
        <time>2026-04-30T09:34:51.999Z</time>
      </trkpt>
      <trkpt lat="43.96901" lon="3.01555">
        <ele>543.8</ele>
        <time>2026-04-30T09:34:52.999Z</time>
      </trkpt>
      <trkpt lat="43.969" lon="3.01554">
        <ele>543.8</ele>
        <time>2026-04-30T09:34:53.999Z</time>
      </trkpt>
      <trkpt lat="43.96899" lon="3.01555">
        <ele>544</ele>
        <time>2026-04-30T09:34:54.999Z</time>
      </trkpt>
      <trkpt lat="43.96898" lon="3.01555">
        <ele>544.2</ele>
        <time>2026-04-30T09:34:55.999Z</time>
      </trkpt>
      <trkpt lat="43.96897" lon="3.01554">
        <ele>544.6</ele>
        <time>2026-04-30T09:34:56.999Z</time>
      </trkpt>
      <trkpt lat="43.96896" lon="3.01555">
        <ele>544.3</ele>
        <time>2026-04-30T09:34:57.999Z</time>
      </trkpt>
      <trkpt lat="43.96894" lon="3.01555">
        <ele>544.1</ele>
        <time>2026-04-30T09:34:58.999Z</time>
      </trkpt>
      <trkpt lat="43.96892" lon="3.01555">
        <ele>544</ele>
        <time>2026-04-30T09:34:59.999Z</time>
      </trkpt>
      <trkpt lat="43.96891" lon="3.01554">
        <ele>543.7</ele>
        <time>2026-04-30T09:35:00.999Z</time>
      </trkpt>
      <trkpt lat="43.96891" lon="3.01554">
        <ele>543</ele>
        <time>2026-04-30T09:35:01.999Z</time>
      </trkpt>
      <trkpt lat="43.9689" lon="3.01555">
        <ele>542.8</ele>
        <time>2026-04-30T09:35:02.999Z</time>
      </trkpt>
      <trkpt lat="43.9689" lon="3.01556">
        <ele>542.8</ele>
        <time>2026-04-30T09:35:03.999Z</time>
      </trkpt>
      <trkpt lat="43.96889" lon="3.01557">
        <ele>542.6</ele>
        <time>2026-04-30T09:35:04.999Z</time>
      </trkpt>
      <trkpt lat="43.96887" lon="3.01557">
        <ele>543</ele>
        <time>2026-04-30T09:35:05.999Z</time>
      </trkpt>
      <trkpt lat="43.96886" lon="3.01558">
        <ele>543</ele>
        <time>2026-04-30T09:35:06.999Z</time>
      </trkpt>
      <trkpt lat="43.96885" lon="3.01559">
        <ele>543.1</ele>
        <time>2026-04-30T09:35:07.999Z</time>
      </trkpt>
      <trkpt lat="43.96884" lon="3.0156">
        <ele>543.2</ele>
        <time>2026-04-30T09:35:08.999Z</time>
      </trkpt>
      <trkpt lat="43.96882" lon="3.01561">
        <ele>543.6</ele>
        <time>2026-04-30T09:35:09.999Z</time>
      </trkpt>
      <trkpt lat="43.96881" lon="3.0156">
        <ele>543.7</ele>
        <time>2026-04-30T09:35:10.999Z</time>
      </trkpt>
      <trkpt lat="43.9688" lon="3.01561">
        <ele>543.9</ele>
        <time>2026-04-30T09:35:11.999Z</time>
      </trkpt>
      <trkpt lat="43.96878" lon="3.01563">
        <ele>544.1</ele>
        <time>2026-04-30T09:35:12.999Z</time>
      </trkpt>
      <trkpt lat="43.96877" lon="3.01565">
        <ele>544</ele>
        <time>2026-04-30T09:35:13.999Z</time>
      </trkpt>
      <trkpt lat="43.96876" lon="3.01566">
        <ele>544</ele>
        <time>2026-04-30T09:35:14.999Z</time>
      </trkpt>
      <trkpt lat="43.96875" lon="3.01567">
        <ele>544.3</ele>
        <time>2026-04-30T09:35:15.999Z</time>
      </trkpt>
      <trkpt lat="43.96874" lon="3.01568">
        <ele>544.3</ele>
        <time>2026-04-30T09:35:16.999Z</time>
      </trkpt>
      <trkpt lat="43.96872" lon="3.01569">
        <ele>544.5</ele>
        <time>2026-04-30T09:35:17.999Z</time>
      </trkpt>
      <trkpt lat="43.96871" lon="3.0157">
        <ele>544.4</ele>
        <time>2026-04-30T09:35:18.999Z</time>
      </trkpt>
      <trkpt lat="43.9687" lon="3.0157">
        <ele>544.1</ele>
        <time>2026-04-30T09:35:19.999Z</time>
      </trkpt>
      <trkpt lat="43.96869" lon="3.0157">
        <ele>543.7</ele>
        <time>2026-04-30T09:35:20.999Z</time>
      </trkpt>
      <trkpt lat="43.96868" lon="3.01571">
        <ele>543.6</ele>
        <time>2026-04-30T09:35:21.999Z</time>
      </trkpt>
      <trkpt lat="43.96867" lon="3.01571">
        <ele>544</ele>
        <time>2026-04-30T09:35:22.999Z</time>
      </trkpt>
      <trkpt lat="43.96866" lon="3.01572">
        <ele>543.9</ele>
        <time>2026-04-30T09:35:23.999Z</time>
      </trkpt>
      <trkpt lat="43.96865" lon="3.01574">
        <ele>543.9</ele>
        <time>2026-04-30T09:35:24.999Z</time>
      </trkpt>
      <trkpt lat="43.96864" lon="3.01576">
        <ele>544</ele>
        <time>2026-04-30T09:35:25.999Z</time>
      </trkpt>
      <trkpt lat="43.96863" lon="3.01577">
        <ele>544.1</ele>
        <time>2026-04-30T09:35:26.999Z</time>
      </trkpt>
      <trkpt lat="43.96862" lon="3.01579">
        <ele>544.3</ele>
        <time>2026-04-30T09:35:27.999Z</time>
      </trkpt>
      <trkpt lat="43.96861" lon="3.0158">
        <ele>544.8</ele>
        <time>2026-04-30T09:35:28.999Z</time>
      </trkpt>
      <trkpt lat="43.9686" lon="3.01581">
        <ele>544.6</ele>
        <time>2026-04-30T09:35:29.999Z</time>
      </trkpt>
      <trkpt lat="43.9686" lon="3.01582">
        <ele>544.6</ele>
        <time>2026-04-30T09:35:30.999Z</time>
      </trkpt>
      <trkpt lat="43.9686" lon="3.01584">
        <ele>544.7</ele>
        <time>2026-04-30T09:35:31.999Z</time>
      </trkpt>
      <trkpt lat="43.96859" lon="3.01585">
        <ele>544.9</ele>
        <time>2026-04-30T09:35:32.999Z</time>
      </trkpt>
      <trkpt lat="43.96858" lon="3.01586">
        <ele>544.9</ele>
        <time>2026-04-30T09:35:33.999Z</time>
      </trkpt>
      <trkpt lat="43.96858" lon="3.01587">
        <ele>544.7</ele>
        <time>2026-04-30T09:35:34.999Z</time>
      </trkpt>
      <trkpt lat="43.96857" lon="3.01589">
        <ele>544.5</ele>
        <time>2026-04-30T09:35:35.999Z</time>
      </trkpt>
      <trkpt lat="43.96856" lon="3.0159">
        <ele>544.4</ele>
        <time>2026-04-30T09:35:36.999Z</time>
      </trkpt>
      <trkpt lat="43.96855" lon="3.01592">
        <ele>544.9</ele>
        <time>2026-04-30T09:35:37.999Z</time>
      </trkpt>
      <trkpt lat="43.96854" lon="3.01593">
        <ele>545.2</ele>
        <time>2026-04-30T09:35:38.999Z</time>
      </trkpt>
      <trkpt lat="43.96854" lon="3.01594">
        <ele>545.4</ele>
        <time>2026-04-30T09:35:39.999Z</time>
      </trkpt>
      <trkpt lat="43.96853" lon="3.01595">
        <ele>545.2</ele>
        <time>2026-04-30T09:35:40.999Z</time>
      </trkpt>
      <trkpt lat="43.96853" lon="3.01597">
        <ele>545.4</ele>
        <time>2026-04-30T09:35:41.999Z</time>
      </trkpt>
      <trkpt lat="43.96852" lon="3.01599">
        <ele>545.6</ele>
        <time>2026-04-30T09:35:42.999Z</time>
      </trkpt>
      <trkpt lat="43.96852" lon="3.016">
        <ele>545.7</ele>
        <time>2026-04-30T09:35:43.999Z</time>
      </trkpt>
      <trkpt lat="43.9685" lon="3.01601">
        <ele>546.1</ele>
        <time>2026-04-30T09:35:44.999Z</time>
      </trkpt>
      <trkpt lat="43.96849" lon="3.01601">
        <ele>546.3</ele>
        <time>2026-04-30T09:35:45.999Z</time>
      </trkpt>
      <trkpt lat="43.96848" lon="3.01603">
        <ele>546.1</ele>
        <time>2026-04-30T09:35:46.999Z</time>
      </trkpt>
      <trkpt lat="43.96847" lon="3.01603">
        <ele>546.1</ele>
        <time>2026-04-30T09:35:47.999Z</time>
      </trkpt>
      <trkpt lat="43.96847" lon="3.01604">
        <ele>545.9</ele>
        <time>2026-04-30T09:35:48.999Z</time>
      </trkpt>
      <trkpt lat="43.96847" lon="3.01605">
        <ele>546.2</ele>
        <time>2026-04-30T09:35:49.999Z</time>
      </trkpt>
      <trkpt lat="43.96846" lon="3.01607">
        <ele>546.3</ele>
        <time>2026-04-30T09:35:50.999Z</time>
      </trkpt>
      <trkpt lat="43.96844" lon="3.01609">
        <ele>546.6</ele>
        <time>2026-04-30T09:35:51.999Z</time>
      </trkpt>
      <trkpt lat="43.96843" lon="3.0161">
        <ele>546.4</ele>
        <time>2026-04-30T09:35:52.999Z</time>
      </trkpt>
      <trkpt lat="43.96842" lon="3.01612">
        <ele>546.3</ele>
        <time>2026-04-30T09:35:53.999Z</time>
      </trkpt>
      <trkpt lat="43.96842" lon="3.01613">
        <ele>546.1</ele>
        <time>2026-04-30T09:35:54.999Z</time>
      </trkpt>
      <trkpt lat="43.96841" lon="3.01614">
        <ele>545.7</ele>
        <time>2026-04-30T09:35:55.999Z</time>
      </trkpt>
      <trkpt lat="43.96841" lon="3.01615">
        <ele>545.5</ele>
        <time>2026-04-30T09:35:56.999Z</time>
      </trkpt>
      <trkpt lat="43.9684" lon="3.01617">
        <ele>545.6</ele>
        <time>2026-04-30T09:35:57.999Z</time>
      </trkpt>
      <trkpt lat="43.9684" lon="3.01618">
        <ele>545.5</ele>
        <time>2026-04-30T09:35:58.999Z</time>
      </trkpt>
      <trkpt lat="43.96839" lon="3.0162">
        <ele>545.4</ele>
        <time>2026-04-30T09:35:59.999Z</time>
      </trkpt>
      <trkpt lat="43.96838" lon="3.01621">
        <ele>545.3</ele>
        <time>2026-04-30T09:36:00.999Z</time>
      </trkpt>
      <trkpt lat="43.96837" lon="3.01622">
        <ele>545.1</ele>
        <time>2026-04-30T09:36:01.999Z</time>
      </trkpt>
      <trkpt lat="43.96836" lon="3.01624">
        <ele>545</ele>
        <time>2026-04-30T09:36:02.999Z</time>
      </trkpt>
      <trkpt lat="43.96835" lon="3.01625">
        <ele>545.2</ele>
        <time>2026-04-30T09:36:03.999Z</time>
      </trkpt>
      <trkpt lat="43.96835" lon="3.01627">
        <ele>545</ele>
        <time>2026-04-30T09:36:04.999Z</time>
      </trkpt>
      <trkpt lat="43.96834" lon="3.01628">
        <ele>544.6</ele>
        <time>2026-04-30T09:36:05.999Z</time>
      </trkpt>
      <trkpt lat="43.96834" lon="3.01629">
        <ele>544.6</ele>
        <time>2026-04-30T09:36:06.999Z</time>
      </trkpt>
      <trkpt lat="43.96833" lon="3.01631">
        <ele>544</ele>
        <time>2026-04-30T09:36:07.999Z</time>
      </trkpt>
      <trkpt lat="43.96833" lon="3.01632">
        <ele>543.8</ele>
        <time>2026-04-30T09:36:08.999Z</time>
      </trkpt>
      <trkpt lat="43.96833" lon="3.01634">
        <ele>543.9</ele>
        <time>2026-04-30T09:36:09.999Z</time>
      </trkpt>
      <trkpt lat="43.96832" lon="3.01635">
        <ele>543.7</ele>
        <time>2026-04-30T09:36:10.999Z</time>
      </trkpt>
      <trkpt lat="43.96831" lon="3.01637">
        <ele>544</ele>
        <time>2026-04-30T09:36:11.999Z</time>
      </trkpt>
      <trkpt lat="43.9683" lon="3.01637">
        <ele>543.9</ele>
        <time>2026-04-30T09:36:12.999Z</time>
      </trkpt>
      <trkpt lat="43.9683" lon="3.01638">
        <ele>543.7</ele>
        <time>2026-04-30T09:36:13.999Z</time>
      </trkpt>
      <trkpt lat="43.9683" lon="3.0164">
        <ele>543.9</ele>
        <time>2026-04-30T09:36:14.999Z</time>
      </trkpt>
      <trkpt lat="43.96829" lon="3.01641">
        <ele>544</ele>
        <time>2026-04-30T09:36:15.999Z</time>
      </trkpt>
      <trkpt lat="43.96828" lon="3.01643">
        <ele>543.4</ele>
        <time>2026-04-30T09:36:16.999Z</time>
      </trkpt>
      <trkpt lat="43.96827" lon="3.01645">
        <ele>543.4</ele>
        <time>2026-04-30T09:36:17.999Z</time>
      </trkpt>
      <trkpt lat="43.96826" lon="3.01646">
        <ele>543.4</ele>
        <time>2026-04-30T09:36:18.999Z</time>
      </trkpt>
      <trkpt lat="43.96825" lon="3.01647">
        <ele>542.9</ele>
        <time>2026-04-30T09:36:19.999Z</time>
      </trkpt>
      <trkpt lat="43.96824" lon="3.01648">
        <ele>542.7</ele>
        <time>2026-04-30T09:36:20.999Z</time>
      </trkpt>
      <trkpt lat="43.96824" lon="3.0165">
        <ele>542.5</ele>
        <time>2026-04-30T09:36:21.999Z</time>
      </trkpt>
      <trkpt lat="43.96824" lon="3.01652">
        <ele>542.6</ele>
        <time>2026-04-30T09:36:22.999Z</time>
      </trkpt>
      <trkpt lat="43.96824" lon="3.01653">
        <ele>542.5</ele>
        <time>2026-04-30T09:36:23.999Z</time>
      </trkpt>
      <trkpt lat="43.96823" lon="3.01654">
        <ele>542.3</ele>
        <time>2026-04-30T09:36:24.999Z</time>
      </trkpt>
      <trkpt lat="43.96822" lon="3.01655">
        <ele>542.2</ele>
        <time>2026-04-30T09:36:25.999Z</time>
      </trkpt>
      <trkpt lat="43.96822" lon="3.01657">
        <ele>542.8</ele>
        <time>2026-04-30T09:36:26.999Z</time>
      </trkpt>
      <trkpt lat="43.96821" lon="3.01659">
        <ele>542.6</ele>
        <time>2026-04-30T09:36:27.999Z</time>
      </trkpt>
      <trkpt lat="43.9682" lon="3.0166">
        <ele>542.4</ele>
        <time>2026-04-30T09:36:28.999Z</time>
      </trkpt>
      <trkpt lat="43.9682" lon="3.01662">
        <ele>542.4</ele>
        <time>2026-04-30T09:36:29.999Z</time>
      </trkpt>
      <trkpt lat="43.96819" lon="3.01663">
        <ele>542.4</ele>
        <time>2026-04-30T09:36:30.999Z</time>
      </trkpt>
      <trkpt lat="43.96819" lon="3.01664">
        <ele>542.9</ele>
        <time>2026-04-30T09:36:31.999Z</time>
      </trkpt>
      <trkpt lat="43.96818" lon="3.01666">
        <ele>543.5</ele>
        <time>2026-04-30T09:36:32.999Z</time>
      </trkpt>
      <trkpt lat="43.96817" lon="3.01669">
        <ele>543.4</ele>
        <time>2026-04-30T09:36:33.999Z</time>
      </trkpt>
      <trkpt lat="43.96816" lon="3.01671">
        <ele>543.5</ele>
        <time>2026-04-30T09:36:34.999Z</time>
      </trkpt>
      <trkpt lat="43.96816" lon="3.01672">
        <ele>543.9</ele>
        <time>2026-04-30T09:36:35.999Z</time>
      </trkpt>
      <trkpt lat="43.96816" lon="3.01673">
        <ele>543.7</ele>
        <time>2026-04-30T09:36:36.999Z</time>
      </trkpt>
      <trkpt lat="43.96816" lon="3.01674">
        <ele>543.4</ele>
        <time>2026-04-30T09:36:37.999Z</time>
      </trkpt>
      <trkpt lat="43.96816" lon="3.01676">
        <ele>542.8</ele>
        <time>2026-04-30T09:36:38.999Z</time>
      </trkpt>
      <trkpt lat="43.96816" lon="3.01677">
        <ele>542.3</ele>
        <time>2026-04-30T09:36:39.999Z</time>
      </trkpt>
      <trkpt lat="43.96815" lon="3.01678">
        <ele>542</ele>
        <time>2026-04-30T09:36:40.999Z</time>
      </trkpt>
      <trkpt lat="43.96815" lon="3.01679">
        <ele>542.1</ele>
        <time>2026-04-30T09:36:41.999Z</time>
      </trkpt>
      <trkpt lat="43.96814" lon="3.01681">
        <ele>542.3</ele>
        <time>2026-04-30T09:36:42.999Z</time>
      </trkpt>
      <trkpt lat="43.96814" lon="3.01682">
        <ele>542</ele>
        <time>2026-04-30T09:36:43.999Z</time>
      </trkpt>
      <trkpt lat="43.96813" lon="3.01684">
        <ele>542.1</ele>
        <time>2026-04-30T09:36:44.999Z</time>
      </trkpt>
      <trkpt lat="43.96813" lon="3.01686">
        <ele>542.1</ele>
        <time>2026-04-30T09:36:45.999Z</time>
      </trkpt>
      <trkpt lat="43.96812" lon="3.01687">
        <ele>542.3</ele>
        <time>2026-04-30T09:36:46.999Z</time>
      </trkpt>
      <trkpt lat="43.96812" lon="3.01688">
        <ele>542.3</ele>
        <time>2026-04-30T09:36:47.999Z</time>
      </trkpt>
      <trkpt lat="43.96811" lon="3.0169">
        <ele>542.5</ele>
        <time>2026-04-30T09:36:48.999Z</time>
      </trkpt>
      <trkpt lat="43.96811" lon="3.01692">
        <ele>543</ele>
        <time>2026-04-30T09:36:49.999Z</time>
      </trkpt>
      <trkpt lat="43.9681" lon="3.01693">
        <ele>543.3</ele>
        <time>2026-04-30T09:36:50.999Z</time>
      </trkpt>
      <trkpt lat="43.96809" lon="3.01695">
        <ele>543.5</ele>
        <time>2026-04-30T09:36:51.999Z</time>
      </trkpt>
      <trkpt lat="43.96809" lon="3.01696">
        <ele>543.5</ele>
        <time>2026-04-30T09:36:52.999Z</time>
      </trkpt>
      <trkpt lat="43.96808" lon="3.01697">
        <ele>543.5</ele>
        <time>2026-04-30T09:36:53.999Z</time>
      </trkpt>
      <trkpt lat="43.96807" lon="3.01698">
        <ele>543.6</ele>
        <time>2026-04-30T09:36:54.999Z</time>
      </trkpt>
      <trkpt lat="43.96807" lon="3.01699">
        <ele>543.6</ele>
        <time>2026-04-30T09:36:55.999Z</time>
      </trkpt>
      <trkpt lat="43.96806" lon="3.01701">
        <ele>543.3</ele>
        <time>2026-04-30T09:36:56.999Z</time>
      </trkpt>
      <trkpt lat="43.96806" lon="3.01702">
        <ele>543.3</ele>
        <time>2026-04-30T09:36:57.999Z</time>
      </trkpt>
      <trkpt lat="43.96806" lon="3.01704">
        <ele>543.5</ele>
        <time>2026-04-30T09:36:58.999Z</time>
      </trkpt>
      <trkpt lat="43.96805" lon="3.01705">
        <ele>543.5</ele>
        <time>2026-04-30T09:36:59.999Z</time>
      </trkpt>
      <trkpt lat="43.96804" lon="3.01707">
        <ele>543.3</ele>
        <time>2026-04-30T09:37:00.999Z</time>
      </trkpt>
      <trkpt lat="43.96804" lon="3.01708">
        <ele>543.4</ele>
        <time>2026-04-30T09:37:01.999Z</time>
      </trkpt>
      <trkpt lat="43.96804" lon="3.01709">
        <ele>543.5</ele>
        <time>2026-04-30T09:37:02.999Z</time>
      </trkpt>
      <trkpt lat="43.96804" lon="3.0171">
        <ele>543.5</ele>
        <time>2026-04-30T09:37:03.999Z</time>
      </trkpt>
      <trkpt lat="43.96803" lon="3.01711">
        <ele>543.4</ele>
        <time>2026-04-30T09:37:04.999Z</time>
      </trkpt>
      <trkpt lat="43.96803" lon="3.01712">
        <ele>543.5</ele>
        <time>2026-04-30T09:37:05.999Z</time>
      </trkpt>
      <trkpt lat="43.96802" lon="3.01714">
        <ele>543.4</ele>
        <time>2026-04-30T09:37:06.999Z</time>
      </trkpt>
      <trkpt lat="43.96801" lon="3.01717">
        <ele>543</ele>
        <time>2026-04-30T09:37:07.999Z</time>
      </trkpt>
      <trkpt lat="43.96801" lon="3.01719">
        <ele>543</ele>
        <time>2026-04-30T09:37:08.999Z</time>
      </trkpt>
      <trkpt lat="43.968" lon="3.0172">
        <ele>543.2</ele>
        <time>2026-04-30T09:37:09.999Z</time>
      </trkpt>
      <trkpt lat="43.968" lon="3.01721">
        <ele>542.8</ele>
        <time>2026-04-30T09:37:10.999Z</time>
      </trkpt>
      <trkpt lat="43.96799" lon="3.01721">
        <ele>542.7</ele>
        <time>2026-04-30T09:37:11.999Z</time>
      </trkpt>
      <trkpt lat="43.96799" lon="3.01723">
        <ele>542.6</ele>
        <time>2026-04-30T09:37:12.999Z</time>
      </trkpt>
      <trkpt lat="43.96799" lon="3.01724">
        <ele>542.4</ele>
        <time>2026-04-30T09:37:13.999Z</time>
      </trkpt>
      <trkpt lat="43.96799" lon="3.01727">
        <ele>542.3</ele>
        <time>2026-04-30T09:37:14.999Z</time>
      </trkpt>
      <trkpt lat="43.96798" lon="3.01729">
        <ele>542.4</ele>
        <time>2026-04-30T09:37:15.999Z</time>
      </trkpt>
      <trkpt lat="43.96798" lon="3.0173">
        <ele>542.5</ele>
        <time>2026-04-30T09:37:16.999Z</time>
      </trkpt>
      <trkpt lat="43.96798" lon="3.01731">
        <ele>542.7</ele>
        <time>2026-04-30T09:37:17.999Z</time>
      </trkpt>
      <trkpt lat="43.96797" lon="3.01732">
        <ele>542.8</ele>
        <time>2026-04-30T09:37:18.999Z</time>
      </trkpt>
      <trkpt lat="43.96797" lon="3.01734">
        <ele>542.8</ele>
        <time>2026-04-30T09:37:19.999Z</time>
      </trkpt>
      <trkpt lat="43.96796" lon="3.01736">
        <ele>542.8</ele>
        <time>2026-04-30T09:37:20.999Z</time>
      </trkpt>
      <trkpt lat="43.96796" lon="3.01738">
        <ele>542.7</ele>
        <time>2026-04-30T09:37:21.999Z</time>
      </trkpt>
      <trkpt lat="43.96796" lon="3.0174">
        <ele>542.7</ele>
        <time>2026-04-30T09:37:22.999Z</time>
      </trkpt>
      <trkpt lat="43.96796" lon="3.01742">
        <ele>542.5</ele>
        <time>2026-04-30T09:37:23.999Z</time>
      </trkpt>
      <trkpt lat="43.96796" lon="3.01744">
        <ele>542.2</ele>
        <time>2026-04-30T09:37:24.999Z</time>
      </trkpt>
      <trkpt lat="43.96796" lon="3.01746">
        <ele>542.2</ele>
        <time>2026-04-30T09:37:25.999Z</time>
      </trkpt>
      <trkpt lat="43.96796" lon="3.01748">
        <ele>542.4</ele>
        <time>2026-04-30T09:37:26.999Z</time>
      </trkpt>
      <trkpt lat="43.96796" lon="3.01749">
        <ele>542.6</ele>
        <time>2026-04-30T09:37:27.999Z</time>
      </trkpt>
      <trkpt lat="43.96796" lon="3.0175">
        <ele>542.7</ele>
        <time>2026-04-30T09:37:28.999Z</time>
      </trkpt>
      <trkpt lat="43.96796" lon="3.01751">
        <ele>542.7</ele>
        <time>2026-04-30T09:37:29.999Z</time>
      </trkpt>
      <trkpt lat="43.96797" lon="3.01753">
        <ele>542.6</ele>
        <time>2026-04-30T09:37:30.999Z</time>
      </trkpt>
      <trkpt lat="43.96797" lon="3.01755">
        <ele>542.6</ele>
        <time>2026-04-30T09:37:31.999Z</time>
      </trkpt>
      <trkpt lat="43.96798" lon="3.01756">
        <ele>542.7</ele>
        <time>2026-04-30T09:37:32.999Z</time>
      </trkpt>
      <trkpt lat="43.96799" lon="3.01757">
        <ele>542.7</ele>
        <time>2026-04-30T09:37:33.999Z</time>
      </trkpt>
      <trkpt lat="43.96799" lon="3.01758">
        <ele>542.7</ele>
        <time>2026-04-30T09:37:34.999Z</time>
      </trkpt>
      <trkpt lat="43.968" lon="3.01759">
        <ele>542.8</ele>
        <time>2026-04-30T09:37:35.999Z</time>
      </trkpt>
      <trkpt lat="43.968" lon="3.0176">
        <ele>542.7</ele>
        <time>2026-04-30T09:37:36.999Z</time>
      </trkpt>
      <trkpt lat="43.96801" lon="3.01762">
        <ele>542.8</ele>
        <time>2026-04-30T09:37:37.999Z</time>
      </trkpt>
      <trkpt lat="43.96802" lon="3.01763">
        <ele>542.9</ele>
        <time>2026-04-30T09:37:38.999Z</time>
      </trkpt>
      <trkpt lat="43.96802" lon="3.01764">
        <ele>542.8</ele>
        <time>2026-04-30T09:37:39.999Z</time>
      </trkpt>
      <trkpt lat="43.96802" lon="3.01765">
        <ele>542.4</ele>
        <time>2026-04-30T09:37:40.999Z</time>
      </trkpt>
      <trkpt lat="43.96803" lon="3.01765">
        <ele>542.1</ele>
        <time>2026-04-30T09:37:41.999Z</time>
      </trkpt>
      <trkpt lat="43.96804" lon="3.01767">
        <ele>541.3</ele>
        <time>2026-04-30T09:37:42.999Z</time>
      </trkpt>
      <trkpt lat="43.96806" lon="3.01768">
        <ele>540.8</ele>
        <time>2026-04-30T09:37:43.999Z</time>
      </trkpt>
      <trkpt lat="43.96806" lon="3.01768">
        <ele>540.7</ele>
        <time>2026-04-30T09:37:44.999Z</time>
      </trkpt>
      <trkpt lat="43.96807" lon="3.0177">
        <ele>540.7</ele>
        <time>2026-04-30T09:37:45.999Z</time>
      </trkpt>
      <trkpt lat="43.96808" lon="3.01771">
        <ele>540.9</ele>
        <time>2026-04-30T09:37:46.999Z</time>
      </trkpt>
      <trkpt lat="43.96809" lon="3.01772">
        <ele>541.1</ele>
        <time>2026-04-30T09:37:47.999Z</time>
      </trkpt>
      <trkpt lat="43.9681" lon="3.01773">
        <ele>541.3</ele>
        <time>2026-04-30T09:37:48.999Z</time>
      </trkpt>
      <trkpt lat="43.9681" lon="3.01774">
        <ele>541.2</ele>
        <time>2026-04-30T09:37:49.999Z</time>
      </trkpt>
      <trkpt lat="43.96811" lon="3.01775">
        <ele>541</ele>
        <time>2026-04-30T09:37:50.999Z</time>
      </trkpt>
      <trkpt lat="43.96812" lon="3.01777">
        <ele>540.9</ele>
        <time>2026-04-30T09:37:51.999Z</time>
      </trkpt>
      <trkpt lat="43.96812" lon="3.0178">
        <ele>540.9</ele>
        <time>2026-04-30T09:37:52.999Z</time>
      </trkpt>
      <trkpt lat="43.96813" lon="3.01781">
        <ele>541.1</ele>
        <time>2026-04-30T09:37:53.999Z</time>
      </trkpt>
      <trkpt lat="43.96813" lon="3.01783">
        <ele>541.2</ele>
        <time>2026-04-30T09:37:54.999Z</time>
      </trkpt>
      <trkpt lat="43.96813" lon="3.01784">
        <ele>541.3</ele>
        <time>2026-04-30T09:37:55.999Z</time>
      </trkpt>
      <trkpt lat="43.96814" lon="3.01786">
        <ele>540.8</ele>
        <time>2026-04-30T09:37:56.999Z</time>
      </trkpt>
      <trkpt lat="43.96815" lon="3.01788">
        <ele>540.7</ele>
        <time>2026-04-30T09:37:57.999Z</time>
      </trkpt>
      <trkpt lat="43.96815" lon="3.0179">
        <ele>540.6</ele>
        <time>2026-04-30T09:37:58.999Z</time>
      </trkpt>
      <trkpt lat="43.96816" lon="3.01792">
        <ele>540.9</ele>
        <time>2026-04-30T09:37:59.999Z</time>
      </trkpt>
      <trkpt lat="43.96817" lon="3.01793">
        <ele>541.4</ele>
        <time>2026-04-30T09:38:00.999Z</time>
      </trkpt>
      <trkpt lat="43.96817" lon="3.01795">
        <ele>541.5</ele>
        <time>2026-04-30T09:38:01.999Z</time>
      </trkpt>
      <trkpt lat="43.96818" lon="3.01795">
        <ele>542.3</ele>
        <time>2026-04-30T09:38:02.999Z</time>
      </trkpt>
      <trkpt lat="43.96819" lon="3.01796">
        <ele>543</ele>
        <time>2026-04-30T09:38:03.999Z</time>
      </trkpt>
      <trkpt lat="43.9682" lon="3.01797">
        <ele>543.2</ele>
        <time>2026-04-30T09:38:04.999Z</time>
      </trkpt>
      <trkpt lat="43.96821" lon="3.01799">
        <ele>543.2</ele>
        <time>2026-04-30T09:38:05.999Z</time>
      </trkpt>
      <trkpt lat="43.96821" lon="3.01801">
        <ele>543.5</ele>
        <time>2026-04-30T09:38:06.999Z</time>
      </trkpt>
      <trkpt lat="43.96822" lon="3.01802">
        <ele>543.3</ele>
        <time>2026-04-30T09:38:07.999Z</time>
      </trkpt>
      <trkpt lat="43.96822" lon="3.01803">
        <ele>543.2</ele>
        <time>2026-04-30T09:38:08.999Z</time>
      </trkpt>
      <trkpt lat="43.96823" lon="3.01804">
        <ele>543</ele>
        <time>2026-04-30T09:38:09.999Z</time>
      </trkpt>
      <trkpt lat="43.96823" lon="3.01805">
        <ele>542.6</ele>
        <time>2026-04-30T09:38:10.999Z</time>
      </trkpt>
      <trkpt lat="43.96824" lon="3.01807">
        <ele>542.5</ele>
        <time>2026-04-30T09:38:11.999Z</time>
      </trkpt>
      <trkpt lat="43.96825" lon="3.01808">
        <ele>542.6</ele>
        <time>2026-04-30T09:38:12.999Z</time>
      </trkpt>
      <trkpt lat="43.96825" lon="3.01809">
        <ele>542.9</ele>
        <time>2026-04-30T09:38:13.999Z</time>
      </trkpt>
      <trkpt lat="43.96826" lon="3.0181">
        <ele>543.1</ele>
        <time>2026-04-30T09:38:14.999Z</time>
      </trkpt>
      <trkpt lat="43.96826" lon="3.01811">
        <ele>543.5</ele>
        <time>2026-04-30T09:38:15.999Z</time>
      </trkpt>
      <trkpt lat="43.96826" lon="3.01813">
        <ele>543.6</ele>
        <time>2026-04-30T09:38:16.999Z</time>
      </trkpt>
      <trkpt lat="43.96826" lon="3.01815">
        <ele>543.8</ele>
        <time>2026-04-30T09:38:17.999Z</time>
      </trkpt>
      <trkpt lat="43.96825" lon="3.01816">
        <ele>544.2</ele>
        <time>2026-04-30T09:38:18.999Z</time>
      </trkpt>
      <trkpt lat="43.96825" lon="3.01818">
        <ele>544.6</ele>
        <time>2026-04-30T09:38:19.999Z</time>
      </trkpt>
      <trkpt lat="43.96825" lon="3.01819">
        <ele>544.6</ele>
        <time>2026-04-30T09:38:20.999Z</time>
      </trkpt>
      <trkpt lat="43.96825" lon="3.0182">
        <ele>544.8</ele>
        <time>2026-04-30T09:38:21.999Z</time>
      </trkpt>
      <trkpt lat="43.96824" lon="3.01821">
        <ele>545.2</ele>
        <time>2026-04-30T09:38:22.999Z</time>
      </trkpt>
      <trkpt lat="43.96823" lon="3.01823">
        <ele>546.1</ele>
        <time>2026-04-30T09:38:23.999Z</time>
      </trkpt>
      <trkpt lat="43.96822" lon="3.01824">
        <ele>546.7</ele>
        <time>2026-04-30T09:38:24.999Z</time>
      </trkpt>
      <trkpt lat="43.96821" lon="3.01825">
        <ele>547</ele>
        <time>2026-04-30T09:38:25.999Z</time>
      </trkpt>
      <trkpt lat="43.9682" lon="3.01827">
        <ele>547.1</ele>
        <time>2026-04-30T09:38:26.999Z</time>
      </trkpt>
      <trkpt lat="43.9682" lon="3.01828">
        <ele>546.9</ele>
        <time>2026-04-30T09:38:27.999Z</time>
      </trkpt>
      <trkpt lat="43.96819" lon="3.01829">
        <ele>546.6</ele>
        <time>2026-04-30T09:38:28.999Z</time>
      </trkpt>
      <trkpt lat="43.96819" lon="3.01831">
        <ele>546.8</ele>
        <time>2026-04-30T09:38:29.999Z</time>
      </trkpt>
      <trkpt lat="43.96818" lon="3.01833">
        <ele>546.6</ele>
        <time>2026-04-30T09:38:30.999Z</time>
      </trkpt>
      <trkpt lat="43.96818" lon="3.01834">
        <ele>546.7</ele>
        <time>2026-04-30T09:38:31.999Z</time>
      </trkpt>
      <trkpt lat="43.96817" lon="3.01835">
        <ele>546.7</ele>
        <time>2026-04-30T09:38:32.999Z</time>
      </trkpt>
      <trkpt lat="43.96816" lon="3.01837">
        <ele>546.7</ele>
        <time>2026-04-30T09:38:33.999Z</time>
      </trkpt>
      <trkpt lat="43.96815" lon="3.01838">
        <ele>547.1</ele>
        <time>2026-04-30T09:38:34.999Z</time>
      </trkpt>
      <trkpt lat="43.96814" lon="3.01839">
        <ele>547.4</ele>
        <time>2026-04-30T09:38:35.999Z</time>
      </trkpt>
      <trkpt lat="43.96813" lon="3.01839">
        <ele>547.6</ele>
        <time>2026-04-30T09:38:36.999Z</time>
      </trkpt>
      <trkpt lat="43.96812" lon="3.01839">
        <ele>547.4</ele>
        <time>2026-04-30T09:38:37.999Z</time>
      </trkpt>
      <trkpt lat="43.96811" lon="3.01839">
        <ele>547.4</ele>
        <time>2026-04-30T09:38:38.999Z</time>
      </trkpt>
      <trkpt lat="43.9681" lon="3.0184">
        <ele>547.4</ele>
        <time>2026-04-30T09:38:39.999Z</time>
      </trkpt>
      <trkpt lat="43.96809" lon="3.01841">
        <ele>547.8</ele>
        <time>2026-04-30T09:38:40.999Z</time>
      </trkpt>
      <trkpt lat="43.96807" lon="3.01843">
        <ele>547.9</ele>
        <time>2026-04-30T09:38:41.999Z</time>
      </trkpt>
      <trkpt lat="43.96807" lon="3.01844">
        <ele>547.8</ele>
        <time>2026-04-30T09:38:42.999Z</time>
      </trkpt>
      <trkpt lat="43.96806" lon="3.01845">
        <ele>547.7</ele>
        <time>2026-04-30T09:38:43.999Z</time>
      </trkpt>
      <trkpt lat="43.96806" lon="3.01846">
        <ele>547.7</ele>
        <time>2026-04-30T09:38:44.999Z</time>
      </trkpt>
      <trkpt lat="43.96806" lon="3.01847">
        <ele>547.7</ele>
        <time>2026-04-30T09:38:45.999Z</time>
      </trkpt>
      <trkpt lat="43.96805" lon="3.01849">
        <ele>547.7</ele>
        <time>2026-04-30T09:38:46.999Z</time>
      </trkpt>
      <trkpt lat="43.96804" lon="3.0185">
        <ele>548</ele>
        <time>2026-04-30T09:38:47.999Z</time>
      </trkpt>
      <trkpt lat="43.96803" lon="3.01852">
        <ele>548.5</ele>
        <time>2026-04-30T09:38:48.999Z</time>
      </trkpt>
      <trkpt lat="43.96802" lon="3.01853">
        <ele>549</ele>
        <time>2026-04-30T09:38:49.999Z</time>
      </trkpt>
      <trkpt lat="43.96801" lon="3.01855">
        <ele>549</ele>
        <time>2026-04-30T09:38:50.999Z</time>
      </trkpt>
      <trkpt lat="43.96801" lon="3.01857">
        <ele>548.8</ele>
        <time>2026-04-30T09:38:51.999Z</time>
      </trkpt>
      <trkpt lat="43.96802" lon="3.01859">
        <ele>548.8</ele>
        <time>2026-04-30T09:38:52.999Z</time>
      </trkpt>
      <trkpt lat="43.96803" lon="3.01859">
        <ele>548.2</ele>
        <time>2026-04-30T09:38:53.999Z</time>
      </trkpt>
      <trkpt lat="43.96804" lon="3.01859">
        <ele>548</ele>
        <time>2026-04-30T09:38:54.999Z</time>
      </trkpt>
      <trkpt lat="43.96804" lon="3.01859">
        <ele>547.9</ele>
        <time>2026-04-30T09:38:55.999Z</time>
      </trkpt>
      <trkpt lat="43.96804" lon="3.0186">
        <ele>547.9</ele>
        <time>2026-04-30T09:38:56.999Z</time>
      </trkpt>
      <trkpt lat="43.96806" lon="3.01861">
        <ele>548.5</ele>
        <time>2026-04-30T09:38:57.999Z</time>
      </trkpt>
      <trkpt lat="43.96806" lon="3.01862">
        <ele>549.2</ele>
        <time>2026-04-30T09:38:58.999Z</time>
      </trkpt>
      <trkpt lat="43.96806" lon="3.01863">
        <ele>549.6</ele>
        <time>2026-04-30T09:38:59.999Z</time>
      </trkpt>
      <trkpt lat="43.96808" lon="3.01861">
        <ele>549</ele>
        <time>2026-04-30T09:39:00.999Z</time>
      </trkpt>
      <trkpt lat="43.96809" lon="3.01863">
        <ele>548.5</ele>
        <time>2026-04-30T09:39:01.999Z</time>
      </trkpt>
      <trkpt lat="43.9681" lon="3.01864">
        <ele>548.1</ele>
        <time>2026-04-30T09:39:02.999Z</time>
      </trkpt>
      <trkpt lat="43.96812" lon="3.01866">
        <ele>547.4</ele>
        <time>2026-04-30T09:39:03.999Z</time>
      </trkpt>
      <trkpt lat="43.96813" lon="3.01868">
        <ele>546.8</ele>
        <time>2026-04-30T09:39:04.999Z</time>
      </trkpt>
      <trkpt lat="43.96813" lon="3.0187">
        <ele>546.4</ele>
        <time>2026-04-30T09:39:05.999Z</time>
      </trkpt>
      <trkpt lat="43.96813" lon="3.01871">
        <ele>546.5</ele>
        <time>2026-04-30T09:39:06.999Z</time>
      </trkpt>
      <trkpt lat="43.96814" lon="3.01873">
        <ele>546.4</ele>
        <time>2026-04-30T09:39:07.999Z</time>
      </trkpt>
      <trkpt lat="43.96813" lon="3.01875">
        <ele>546.6</ele>
        <time>2026-04-30T09:39:08.999Z</time>
      </trkpt>
      <trkpt lat="43.96814" lon="3.01876">
        <ele>546.8</ele>
        <time>2026-04-30T09:39:09.999Z</time>
      </trkpt>
      <trkpt lat="43.96814" lon="3.01876">
        <ele>546.4</ele>
        <time>2026-04-30T09:39:10.999Z</time>
      </trkpt>
      <trkpt lat="43.96815" lon="3.01878">
        <ele>546.9</ele>
        <time>2026-04-30T09:39:11.999Z</time>
      </trkpt>
      <trkpt lat="43.96816" lon="3.01879">
        <ele>547.4</ele>
        <time>2026-04-30T09:39:12.999Z</time>
      </trkpt>
      <trkpt lat="43.96817" lon="3.0188">
        <ele>547.8</ele>
        <time>2026-04-30T09:39:13.999Z</time>
      </trkpt>
      <trkpt lat="43.96817" lon="3.01881">
        <ele>548.1</ele>
        <time>2026-04-30T09:39:14.999Z</time>
      </trkpt>
      <trkpt lat="43.96818" lon="3.01882">
        <ele>548.2</ele>
        <time>2026-04-30T09:39:15.999Z</time>
      </trkpt>
      <trkpt lat="43.96818" lon="3.01884">
        <ele>548.1</ele>
        <time>2026-04-30T09:39:16.999Z</time>
      </trkpt>
      <trkpt lat="43.96819" lon="3.01886">
        <ele>548.3</ele>
        <time>2026-04-30T09:39:17.999Z</time>
      </trkpt>
      <trkpt lat="43.96819" lon="3.01887">
        <ele>548.2</ele>
        <time>2026-04-30T09:39:18.999Z</time>
      </trkpt>
      <trkpt lat="43.96819" lon="3.01888">
        <ele>547.9</ele>
        <time>2026-04-30T09:39:19.999Z</time>
      </trkpt>
      <trkpt lat="43.9682" lon="3.01889">
        <ele>547.4</ele>
        <time>2026-04-30T09:39:20.999Z</time>
      </trkpt>
      <trkpt lat="43.9682" lon="3.0189">
        <ele>547.2</ele>
        <time>2026-04-30T09:39:21.999Z</time>
      </trkpt>
      <trkpt lat="43.9682" lon="3.01892">
        <ele>547</ele>
        <time>2026-04-30T09:39:22.999Z</time>
      </trkpt>
      <trkpt lat="43.96821" lon="3.01893">
        <ele>547.1</ele>
        <time>2026-04-30T09:39:23.999Z</time>
      </trkpt>
      <trkpt lat="43.96823" lon="3.01895">
        <ele>546.9</ele>
        <time>2026-04-30T09:39:24.999Z</time>
      </trkpt>
      <trkpt lat="43.96824" lon="3.01896">
        <ele>546.7</ele>
        <time>2026-04-30T09:39:25.999Z</time>
      </trkpt>
      <trkpt lat="43.96825" lon="3.01898">
        <ele>546.6</ele>
        <time>2026-04-30T09:39:26.999Z</time>
      </trkpt>
      <trkpt lat="43.96825" lon="3.01898">
        <ele>546.4</ele>
        <time>2026-04-30T09:39:27.999Z</time>
      </trkpt>
      <trkpt lat="43.96826" lon="3.019">
        <ele>546.3</ele>
        <time>2026-04-30T09:39:28.999Z</time>
      </trkpt>
      <trkpt lat="43.96827" lon="3.01902">
        <ele>545.8</ele>
        <time>2026-04-30T09:39:29.999Z</time>
      </trkpt>
      <trkpt lat="43.96828" lon="3.01903">
        <ele>545.8</ele>
        <time>2026-04-30T09:39:30.999Z</time>
      </trkpt>
      <trkpt lat="43.96829" lon="3.01904">
        <ele>545.9</ele>
        <time>2026-04-30T09:39:31.999Z</time>
      </trkpt>
      <trkpt lat="43.9683" lon="3.01905">
        <ele>545.7</ele>
        <time>2026-04-30T09:39:32.999Z</time>
      </trkpt>
      <trkpt lat="43.96831" lon="3.01904">
        <ele>545.7</ele>
        <time>2026-04-30T09:39:33.999Z</time>
      </trkpt>
      <trkpt lat="43.96834" lon="3.01902">
        <ele>545.1</ele>
        <time>2026-04-30T09:39:34.999Z</time>
      </trkpt>
      <trkpt lat="43.96835" lon="3.01901">
        <ele>544.5</ele>
        <time>2026-04-30T09:39:35.999Z</time>
      </trkpt>
      <trkpt lat="43.96835" lon="3.01901">
        <ele>544</ele>
        <time>2026-04-30T09:39:36.999Z</time>
      </trkpt>
      <trkpt lat="43.96836" lon="3.01901">
        <ele>543.6</ele>
        <time>2026-04-30T09:39:37.999Z</time>
      </trkpt>
      <trkpt lat="43.96837" lon="3.01901">
        <ele>543</ele>
        <time>2026-04-30T09:39:38.999Z</time>
      </trkpt>
      <trkpt lat="43.96837" lon="3.01902">
        <ele>543</ele>
        <time>2026-04-30T09:39:39.999Z</time>
      </trkpt>
      <trkpt lat="43.96838" lon="3.01904">
        <ele>543.1</ele>
        <time>2026-04-30T09:39:40.999Z</time>
      </trkpt>
      <trkpt lat="43.9684" lon="3.01905">
        <ele>543.2</ele>
        <time>2026-04-30T09:39:41.999Z</time>
      </trkpt>
      <trkpt lat="43.9684" lon="3.01906">
        <ele>543.3</ele>
        <time>2026-04-30T09:39:42.999Z</time>
      </trkpt>
      <trkpt lat="43.9684" lon="3.01906">
        <ele>543.6</ele>
        <time>2026-04-30T09:39:43.999Z</time>
      </trkpt>
      <trkpt lat="43.96841" lon="3.01908">
        <ele>543.8</ele>
        <time>2026-04-30T09:39:44.999Z</time>
      </trkpt>
      <trkpt lat="43.96842" lon="3.01909">
        <ele>543.7</ele>
        <time>2026-04-30T09:39:45.999Z</time>
      </trkpt>
      <trkpt lat="43.96843" lon="3.0191">
        <ele>544</ele>
        <time>2026-04-30T09:39:46.999Z</time>
      </trkpt>
      <trkpt lat="43.96844" lon="3.0191">
        <ele>544.1</ele>
        <time>2026-04-30T09:39:47.999Z</time>
      </trkpt>
      <trkpt lat="43.96845" lon="3.01909">
        <ele>544.5</ele>
        <time>2026-04-30T09:39:48.999Z</time>
      </trkpt>
      <trkpt lat="43.96846" lon="3.0191">
        <ele>545</ele>
        <time>2026-04-30T09:39:49.999Z</time>
      </trkpt>
      <trkpt lat="43.96847" lon="3.01909">
        <ele>546.2</ele>
        <time>2026-04-30T09:39:50.999Z</time>
      </trkpt>
      <trkpt lat="43.96848" lon="3.01907">
        <ele>547.1</ele>
        <time>2026-04-30T09:39:51.999Z</time>
      </trkpt>
      <trkpt lat="43.96849" lon="3.01906">
        <ele>547.8</ele>
        <time>2026-04-30T09:39:52.999Z</time>
      </trkpt>
      <trkpt lat="43.96849" lon="3.01905">
        <ele>548.2</ele>
        <time>2026-04-30T09:39:53.999Z</time>
      </trkpt>
      <trkpt lat="43.9685" lon="3.01904">
        <ele>548.2</ele>
        <time>2026-04-30T09:39:54.999Z</time>
      </trkpt>
      <trkpt lat="43.9685" lon="3.01903">
        <ele>548.6</ele>
        <time>2026-04-30T09:39:55.999Z</time>
      </trkpt>
      <trkpt lat="43.9685" lon="3.01902">
        <ele>548.6</ele>
        <time>2026-04-30T09:39:56.999Z</time>
      </trkpt>
      <trkpt lat="43.96851" lon="3.019">
        <ele>548.8</ele>
        <time>2026-04-30T09:39:57.999Z</time>
      </trkpt>
      <trkpt lat="43.96851" lon="3.019">
        <ele>549.2</ele>
        <time>2026-04-30T09:39:58.999Z</time>
      </trkpt>
      <trkpt lat="43.96852" lon="3.01899">
        <ele>549.5</ele>
        <time>2026-04-30T09:39:59.999Z</time>
      </trkpt>
      <trkpt lat="43.96852" lon="3.01899">
        <ele>549.7</ele>
        <time>2026-04-30T09:40:00.999Z</time>
      </trkpt>
      <trkpt lat="43.96853" lon="3.01898">
        <ele>549.7</ele>
        <time>2026-04-30T09:40:01.999Z</time>
      </trkpt>
      <trkpt lat="43.96854" lon="3.01898">
        <ele>549.8</ele>
        <time>2026-04-30T09:40:02.999Z</time>
      </trkpt>
      <trkpt lat="43.96855" lon="3.01897">
        <ele>549.8</ele>
        <time>2026-04-30T09:40:03.999Z</time>
      </trkpt>
      <trkpt lat="43.96856" lon="3.01896">
        <ele>549.9</ele>
        <time>2026-04-30T09:40:04.999Z</time>
      </trkpt>
      <trkpt lat="43.96857" lon="3.01895">
        <ele>550</ele>
        <time>2026-04-30T09:40:05.999Z</time>
      </trkpt>
      <trkpt lat="43.96858" lon="3.01894">
        <ele>549.9</ele>
        <time>2026-04-30T09:40:06.999Z</time>
      </trkpt>
      <trkpt lat="43.96859" lon="3.01893">
        <ele>549.9</ele>
        <time>2026-04-30T09:40:07.999Z</time>
      </trkpt>
      <trkpt lat="43.9686" lon="3.01893">
        <ele>549.8</ele>
        <time>2026-04-30T09:40:08.999Z</time>
      </trkpt>
      <trkpt lat="43.96861" lon="3.01892">
        <ele>549.7</ele>
        <time>2026-04-30T09:40:09.999Z</time>
      </trkpt>
      <trkpt lat="43.96862" lon="3.01891">
        <ele>549.5</ele>
        <time>2026-04-30T09:40:10.999Z</time>
      </trkpt>
      <trkpt lat="43.96863" lon="3.0189">
        <ele>549.5</ele>
        <time>2026-04-30T09:40:11.999Z</time>
      </trkpt>
      <trkpt lat="43.96864" lon="3.01889">
        <ele>549.4</ele>
        <time>2026-04-30T09:40:12.999Z</time>
      </trkpt>
      <trkpt lat="43.96864" lon="3.01888">
        <ele>549.2</ele>
        <time>2026-04-30T09:40:13.999Z</time>
      </trkpt>
      <trkpt lat="43.96865" lon="3.01887">
        <ele>549.1</ele>
        <time>2026-04-30T09:40:14.999Z</time>
      </trkpt>
      <trkpt lat="43.96866" lon="3.01886">
        <ele>549.9</ele>
        <time>2026-04-30T09:40:15.999Z</time>
      </trkpt>
      <trkpt lat="43.96868" lon="3.01886">
        <ele>550.8</ele>
        <time>2026-04-30T09:40:16.999Z</time>
      </trkpt>
      <trkpt lat="43.96869" lon="3.01885">
        <ele>551.7</ele>
        <time>2026-04-30T09:40:17.999Z</time>
      </trkpt>
      <trkpt lat="43.9687" lon="3.01885">
        <ele>551.3</ele>
        <time>2026-04-30T09:40:18.999Z</time>
      </trkpt>
      <trkpt lat="43.96871" lon="3.01885">
        <ele>551</ele>
        <time>2026-04-30T09:40:19.999Z</time>
      </trkpt>
      <trkpt lat="43.96871" lon="3.01885">
        <ele>551.7</ele>
        <time>2026-04-30T09:40:20.999Z</time>
      </trkpt>
      <trkpt lat="43.96872" lon="3.01885">
        <ele>552.2</ele>
        <time>2026-04-30T09:40:21.999Z</time>
      </trkpt>
      <trkpt lat="43.96872" lon="3.01884">
        <ele>552.2</ele>
        <time>2026-04-30T09:40:22.999Z</time>
      </trkpt>
      <trkpt lat="43.96873" lon="3.01884">
        <ele>552</ele>
        <time>2026-04-30T09:40:23.999Z</time>
      </trkpt>
      <trkpt lat="43.96874" lon="3.01883">
        <ele>552</ele>
        <time>2026-04-30T09:40:24.999Z</time>
      </trkpt>
      <trkpt lat="43.96875" lon="3.01882">
        <ele>551.5</ele>
        <time>2026-04-30T09:40:25.999Z</time>
      </trkpt>
      <trkpt lat="43.96876" lon="3.01881">
        <ele>551.3</ele>
        <time>2026-04-30T09:40:26.999Z</time>
      </trkpt>
      <trkpt lat="43.96877" lon="3.01881">
        <ele>550.9</ele>
        <time>2026-04-30T09:40:27.999Z</time>
      </trkpt>
      <trkpt lat="43.96878" lon="3.01879">
        <ele>551</ele>
        <time>2026-04-30T09:40:28.999Z</time>
      </trkpt>
      <trkpt lat="43.96879" lon="3.01878">
        <ele>551.1</ele>
        <time>2026-04-30T09:40:29.999Z</time>
      </trkpt>
      <trkpt lat="43.9688" lon="3.01878">
        <ele>551.4</ele>
        <time>2026-04-30T09:40:30.999Z</time>
      </trkpt>
      <trkpt lat="43.96881" lon="3.01877">
        <ele>551.8</ele>
        <time>2026-04-30T09:40:31.999Z</time>
      </trkpt>
      <trkpt lat="43.96883" lon="3.01876">
        <ele>552.2</ele>
        <time>2026-04-30T09:40:32.999Z</time>
      </trkpt>
      <trkpt lat="43.96883" lon="3.01876">
        <ele>552.3</ele>
        <time>2026-04-30T09:40:33.999Z</time>
      </trkpt>
      <trkpt lat="43.96884" lon="3.01875">
        <ele>552.4</ele>
        <time>2026-04-30T09:40:34.999Z</time>
      </trkpt>
      <trkpt lat="43.96885" lon="3.01874">
        <ele>552.3</ele>
        <time>2026-04-30T09:40:35.999Z</time>
      </trkpt>
      <trkpt lat="43.96886" lon="3.01874">
        <ele>552.3</ele>
        <time>2026-04-30T09:40:36.999Z</time>
      </trkpt>
      <trkpt lat="43.96887" lon="3.01873">
        <ele>552</ele>
        <time>2026-04-30T09:40:37.999Z</time>
      </trkpt>
      <trkpt lat="43.96888" lon="3.01872">
        <ele>552.3</ele>
        <time>2026-04-30T09:40:38.999Z</time>
      </trkpt>
      <trkpt lat="43.9689" lon="3.01871">
        <ele>552.6</ele>
        <time>2026-04-30T09:40:39.999Z</time>
      </trkpt>
      <trkpt lat="43.96892" lon="3.01871">
        <ele>552.5</ele>
        <time>2026-04-30T09:40:40.999Z</time>
      </trkpt>
      <trkpt lat="43.96893" lon="3.01872">
        <ele>552.6</ele>
        <time>2026-04-30T09:40:41.999Z</time>
      </trkpt>
      <trkpt lat="43.96895" lon="3.01874">
        <ele>551.6</ele>
        <time>2026-04-30T09:40:42.999Z</time>
      </trkpt>
      <trkpt lat="43.96896" lon="3.01876">
        <ele>551.8</ele>
        <time>2026-04-30T09:40:43.999Z</time>
      </trkpt>
      <trkpt lat="43.96896" lon="3.01876">
        <ele>551.4</ele>
        <time>2026-04-30T09:40:44.999Z</time>
      </trkpt>
      <trkpt lat="43.96896" lon="3.01875">
        <ele>551.9</ele>
        <time>2026-04-30T09:40:45.999Z</time>
      </trkpt>
      <trkpt lat="43.96897" lon="3.01875">
        <ele>551.8</ele>
        <time>2026-04-30T09:40:46.999Z</time>
      </trkpt>
      <trkpt lat="43.96897" lon="3.01875">
        <ele>551.4</ele>
        <time>2026-04-30T09:40:47.999Z</time>
      </trkpt>
      <trkpt lat="43.96897" lon="3.01877">
        <ele>552.2</ele>
        <time>2026-04-30T09:40:48.999Z</time>
      </trkpt>
      <trkpt lat="43.96899" lon="3.01879">
        <ele>552.5</ele>
        <time>2026-04-30T09:40:49.999Z</time>
      </trkpt>
      <trkpt lat="43.969" lon="3.01881">
        <ele>552.6</ele>
        <time>2026-04-30T09:40:50.999Z</time>
      </trkpt>
      <trkpt lat="43.96901" lon="3.01882">
        <ele>552.5</ele>
        <time>2026-04-30T09:40:51.999Z</time>
      </trkpt>
      <trkpt lat="43.96902" lon="3.01883">
        <ele>552.4</ele>
        <time>2026-04-30T09:40:52.999Z</time>
      </trkpt>
      <trkpt lat="43.96903" lon="3.01885">
        <ele>552.4</ele>
        <time>2026-04-30T09:40:53.999Z</time>
      </trkpt>
      <trkpt lat="43.96903" lon="3.01886">
        <ele>552.2</ele>
        <time>2026-04-30T09:40:54.999Z</time>
      </trkpt>
      <trkpt lat="43.96903" lon="3.01887">
        <ele>552</ele>
        <time>2026-04-30T09:40:55.999Z</time>
      </trkpt>
      <trkpt lat="43.96904" lon="3.01889">
        <ele>551.9</ele>
        <time>2026-04-30T09:40:56.999Z</time>
      </trkpt>
      <trkpt lat="43.96904" lon="3.0189">
        <ele>551.8</ele>
        <time>2026-04-30T09:40:57.999Z</time>
      </trkpt>
      <trkpt lat="43.96905" lon="3.01892">
        <ele>551.4</ele>
        <time>2026-04-30T09:40:58.999Z</time>
      </trkpt>
      <trkpt lat="43.96905" lon="3.01894">
        <ele>551.4</ele>
        <time>2026-04-30T09:40:59.999Z</time>
      </trkpt>
      <trkpt lat="43.96906" lon="3.01895">
        <ele>551.2</ele>
        <time>2026-04-30T09:41:00.999Z</time>
      </trkpt>
      <trkpt lat="43.96906" lon="3.01896">
        <ele>551</ele>
        <time>2026-04-30T09:41:01.999Z</time>
      </trkpt>
      <trkpt lat="43.96907" lon="3.01896">
        <ele>551</ele>
        <time>2026-04-30T09:41:02.999Z</time>
      </trkpt>
      <trkpt lat="43.96907" lon="3.01898">
        <ele>551.2</ele>
        <time>2026-04-30T09:41:03.999Z</time>
      </trkpt>
      <trkpt lat="43.96908" lon="3.019">
        <ele>552</ele>
        <time>2026-04-30T09:41:04.999Z</time>
      </trkpt>
      <trkpt lat="43.96908" lon="3.01901">
        <ele>552.3</ele>
        <time>2026-04-30T09:41:05.999Z</time>
      </trkpt>
      <trkpt lat="43.96908" lon="3.01903">
        <ele>552.5</ele>
        <time>2026-04-30T09:41:06.999Z</time>
      </trkpt>
      <trkpt lat="43.96908" lon="3.01904">
        <ele>553</ele>
        <time>2026-04-30T09:41:07.999Z</time>
      </trkpt>
      <trkpt lat="43.96909" lon="3.01905">
        <ele>553.3</ele>
        <time>2026-04-30T09:41:08.999Z</time>
      </trkpt>
      <trkpt lat="43.96909" lon="3.01906">
        <ele>553.1</ele>
        <time>2026-04-30T09:41:09.999Z</time>
      </trkpt>
      <trkpt lat="43.9691" lon="3.01908">
        <ele>553.1</ele>
        <time>2026-04-30T09:41:10.999Z</time>
      </trkpt>
      <trkpt lat="43.96911" lon="3.01908">
        <ele>553</ele>
        <time>2026-04-30T09:41:11.999Z</time>
      </trkpt>
      <trkpt lat="43.96911" lon="3.01909">
        <ele>552.9</ele>
        <time>2026-04-30T09:41:12.999Z</time>
      </trkpt>
      <trkpt lat="43.96912" lon="3.01911">
        <ele>552.9</ele>
        <time>2026-04-30T09:41:13.999Z</time>
      </trkpt>
      <trkpt lat="43.96912" lon="3.01913">
        <ele>552.7</ele>
        <time>2026-04-30T09:41:14.999Z</time>
      </trkpt>
      <trkpt lat="43.96912" lon="3.01914">
        <ele>552.6</ele>
        <time>2026-04-30T09:41:15.999Z</time>
      </trkpt>
      <trkpt lat="43.96912" lon="3.01916">
        <ele>552.6</ele>
        <time>2026-04-30T09:41:16.999Z</time>
      </trkpt>
      <trkpt lat="43.96912" lon="3.01917">
        <ele>552.4</ele>
        <time>2026-04-30T09:41:17.999Z</time>
      </trkpt>
      <trkpt lat="43.96913" lon="3.01918">
        <ele>552.1</ele>
        <time>2026-04-30T09:41:18.999Z</time>
      </trkpt>
      <trkpt lat="43.96913" lon="3.0192">
        <ele>552.1</ele>
        <time>2026-04-30T09:41:19.999Z</time>
      </trkpt>
      <trkpt lat="43.96913" lon="3.01921">
        <ele>552.2</ele>
        <time>2026-04-30T09:41:20.999Z</time>
      </trkpt>
      <trkpt lat="43.96913" lon="3.01923">
        <ele>551.8</ele>
        <time>2026-04-30T09:41:21.999Z</time>
      </trkpt>
      <trkpt lat="43.96914" lon="3.01924">
        <ele>551.6</ele>
        <time>2026-04-30T09:41:22.999Z</time>
      </trkpt>
      <trkpt lat="43.96914" lon="3.01926">
        <ele>551.7</ele>
        <time>2026-04-30T09:41:23.999Z</time>
      </trkpt>
      <trkpt lat="43.96914" lon="3.01927">
        <ele>551.7</ele>
        <time>2026-04-30T09:41:24.999Z</time>
      </trkpt>
      <trkpt lat="43.96915" lon="3.01929">
        <ele>551.7</ele>
        <time>2026-04-30T09:41:25.999Z</time>
      </trkpt>
      <trkpt lat="43.96915" lon="3.0193">
        <ele>551.8</ele>
        <time>2026-04-30T09:41:26.999Z</time>
      </trkpt>
      <trkpt lat="43.96916" lon="3.01931">
        <ele>551.8</ele>
        <time>2026-04-30T09:41:27.999Z</time>
      </trkpt>
      <trkpt lat="43.96917" lon="3.01932">
        <ele>551.9</ele>
        <time>2026-04-30T09:41:28.999Z</time>
      </trkpt>
      <trkpt lat="43.96918" lon="3.01933">
        <ele>552</ele>
        <time>2026-04-30T09:41:29.999Z</time>
      </trkpt>
      <trkpt lat="43.96918" lon="3.01934">
        <ele>552</ele>
        <time>2026-04-30T09:41:30.999Z</time>
      </trkpt>
      <trkpt lat="43.96919" lon="3.01935">
        <ele>551.8</ele>
        <time>2026-04-30T09:41:31.999Z</time>
      </trkpt>
      <trkpt lat="43.96919" lon="3.01935">
        <ele>551</ele>
        <time>2026-04-30T09:41:32.999Z</time>
      </trkpt>
      <trkpt lat="43.96919" lon="3.01935">
        <ele>550.6</ele>
        <time>2026-04-30T09:41:33.999Z</time>
      </trkpt>
      <trkpt lat="43.96919" lon="3.01936">
        <ele>550</ele>
        <time>2026-04-30T09:41:34.999Z</time>
      </trkpt>
      <trkpt lat="43.96919" lon="3.01937">
        <ele>549.7</ele>
        <time>2026-04-30T09:41:35.999Z</time>
      </trkpt>
      <trkpt lat="43.96921" lon="3.01939">
        <ele>549.5</ele>
        <time>2026-04-30T09:41:36.999Z</time>
      </trkpt>
      <trkpt lat="43.96921" lon="3.0194">
        <ele>549.6</ele>
        <time>2026-04-30T09:41:37.999Z</time>
      </trkpt>
      <trkpt lat="43.96921" lon="3.01941">
        <ele>552.2</ele>
        <time>2026-04-30T09:41:38.999Z</time>
      </trkpt>
      <trkpt lat="43.96921" lon="3.01941">
        <ele>552.1</ele>
        <time>2026-04-30T09:41:39.999Z</time>
      </trkpt>
      <trkpt lat="43.96922" lon="3.01942">
        <ele>551.8</ele>
        <time>2026-04-30T09:41:40.999Z</time>
      </trkpt>
      <trkpt lat="43.96922" lon="3.01942">
        <ele>551.5</ele>
        <time>2026-04-30T09:41:41.999Z</time>
      </trkpt>
      <trkpt lat="43.96923" lon="3.01945">
        <ele>551</ele>
        <time>2026-04-30T09:41:42.999Z</time>
      </trkpt>
      <trkpt lat="43.96924" lon="3.01947">
        <ele>550.7</ele>
        <time>2026-04-30T09:41:43.999Z</time>
      </trkpt>
      <trkpt lat="43.96924" lon="3.01949">
        <ele>550.6</ele>
        <time>2026-04-30T09:41:44.999Z</time>
      </trkpt>
      <trkpt lat="43.96925" lon="3.01951">
        <ele>550.9</ele>
        <time>2026-04-30T09:41:45.999Z</time>
      </trkpt>
      <trkpt lat="43.96926" lon="3.01952">
        <ele>550.7</ele>
        <time>2026-04-30T09:41:46.999Z</time>
      </trkpt>
      <trkpt lat="43.96927" lon="3.01952">
        <ele>550.4</ele>
        <time>2026-04-30T09:41:47.999Z</time>
      </trkpt>
      <trkpt lat="43.96927" lon="3.01953">
        <ele>552.1</ele>
        <time>2026-04-30T09:41:48.999Z</time>
      </trkpt>
      <trkpt lat="43.96927" lon="3.01955">
        <ele>552</ele>
        <time>2026-04-30T09:41:49.999Z</time>
      </trkpt>
      <trkpt lat="43.96928" lon="3.01956">
        <ele>551.9</ele>
        <time>2026-04-30T09:41:50.999Z</time>
      </trkpt>
      <trkpt lat="43.96929" lon="3.01957">
        <ele>552</ele>
        <time>2026-04-30T09:41:51.999Z</time>
      </trkpt>
      <trkpt lat="43.96929" lon="3.01958">
        <ele>551.9</ele>
        <time>2026-04-30T09:41:52.999Z</time>
      </trkpt>
      <trkpt lat="43.9693" lon="3.01959">
        <ele>551.5</ele>
        <time>2026-04-30T09:41:53.999Z</time>
      </trkpt>
      <trkpt lat="43.9693" lon="3.01959">
        <ele>550.9</ele>
        <time>2026-04-30T09:41:54.999Z</time>
      </trkpt>
      <trkpt lat="43.96932" lon="3.01961">
        <ele>550.8</ele>
        <time>2026-04-30T09:41:55.999Z</time>
      </trkpt>
      <trkpt lat="43.96933" lon="3.01963">
        <ele>550.5</ele>
        <time>2026-04-30T09:41:56.999Z</time>
      </trkpt>
      <trkpt lat="43.96935" lon="3.01965">
        <ele>550.3</ele>
        <time>2026-04-30T09:41:57.999Z</time>
      </trkpt>
      <trkpt lat="43.96936" lon="3.01966">
        <ele>550.1</ele>
        <time>2026-04-30T09:41:58.999Z</time>
      </trkpt>
      <trkpt lat="43.96937" lon="3.01967">
        <ele>550.1</ele>
        <time>2026-04-30T09:41:59.999Z</time>
      </trkpt>
      <trkpt lat="43.96938" lon="3.01969">
        <ele>550</ele>
        <time>2026-04-30T09:42:00.999Z</time>
      </trkpt>
      <trkpt lat="43.96938" lon="3.01971">
        <ele>550.4</ele>
        <time>2026-04-30T09:42:01.999Z</time>
      </trkpt>
      <trkpt lat="43.96937" lon="3.01972">
        <ele>550.7</ele>
        <time>2026-04-30T09:42:02.999Z</time>
      </trkpt>
      <trkpt lat="43.96937" lon="3.01974">
        <ele>551.2</ele>
        <time>2026-04-30T09:42:03.999Z</time>
      </trkpt>
      <trkpt lat="43.96937" lon="3.01975">
        <ele>552.2</ele>
        <time>2026-04-30T09:42:04.999Z</time>
      </trkpt>
      <trkpt lat="43.96937" lon="3.01975">
        <ele>552.1</ele>
        <time>2026-04-30T09:42:05.999Z</time>
      </trkpt>
      <trkpt lat="43.96937" lon="3.01976">
        <ele>551.8</ele>
        <time>2026-04-30T09:42:06.999Z</time>
      </trkpt>
      <trkpt lat="43.96938" lon="3.01978">
        <ele>551.3</ele>
        <time>2026-04-30T09:42:07.999Z</time>
      </trkpt>
      <trkpt lat="43.9694" lon="3.01978">
        <ele>551.2</ele>
        <time>2026-04-30T09:42:08.999Z</time>
      </trkpt>
      <trkpt lat="43.96941" lon="3.0198">
        <ele>550.6</ele>
        <time>2026-04-30T09:42:09.999Z</time>
      </trkpt>
      <trkpt lat="43.96943" lon="3.01981">
        <ele>549.8</ele>
        <time>2026-04-30T09:42:10.999Z</time>
      </trkpt>
      <trkpt lat="43.96944" lon="3.01983">
        <ele>549</ele>
        <time>2026-04-30T09:42:11.999Z</time>
      </trkpt>
      <trkpt lat="43.96945" lon="3.01984">
        <ele>548.5</ele>
        <time>2026-04-30T09:42:12.999Z</time>
      </trkpt>
      <trkpt lat="43.96946" lon="3.01985">
        <ele>548.3</ele>
        <time>2026-04-30T09:42:13.999Z</time>
      </trkpt>
      <trkpt lat="43.96946" lon="3.01987">
        <ele>547.8</ele>
        <time>2026-04-30T09:42:14.999Z</time>
      </trkpt>
      <trkpt lat="43.96947" lon="3.01988">
        <ele>547.3</ele>
        <time>2026-04-30T09:42:15.999Z</time>
      </trkpt>
      <trkpt lat="43.96947" lon="3.01989">
        <ele>547.1</ele>
        <time>2026-04-30T09:42:16.999Z</time>
      </trkpt>
      <trkpt lat="43.96948" lon="3.0199">
        <ele>546.6</ele>
        <time>2026-04-30T09:42:17.999Z</time>
      </trkpt>
      <trkpt lat="43.96949" lon="3.01992">
        <ele>547.1</ele>
        <time>2026-04-30T09:42:18.999Z</time>
      </trkpt>
      <trkpt lat="43.9695" lon="3.01994">
        <ele>547.2</ele>
        <time>2026-04-30T09:42:19.999Z</time>
      </trkpt>
      <trkpt lat="43.9695" lon="3.01994">
        <ele>547.7</ele>
        <time>2026-04-30T09:42:20.999Z</time>
      </trkpt>
      <trkpt lat="43.96951" lon="3.01995">
        <ele>547.9</ele>
        <time>2026-04-30T09:42:21.999Z</time>
      </trkpt>
      <trkpt lat="43.96951" lon="3.01995">
        <ele>547.6</ele>
        <time>2026-04-30T09:42:22.999Z</time>
      </trkpt>
      <trkpt lat="43.96951" lon="3.01995">
        <ele>547.4</ele>
        <time>2026-04-30T09:42:23.999Z</time>
      </trkpt>
      <trkpt lat="43.96952" lon="3.01996">
        <ele>547.4</ele>
        <time>2026-04-30T09:42:24.999Z</time>
      </trkpt>
      <trkpt lat="43.96952" lon="3.01997">
        <ele>547.6</ele>
        <time>2026-04-30T09:42:25.999Z</time>
      </trkpt>
      <trkpt lat="43.96953" lon="3.01998">
        <ele>547.6</ele>
        <time>2026-04-30T09:42:26.999Z</time>
      </trkpt>
      <trkpt lat="43.96953" lon="3.01999">
        <ele>547.7</ele>
        <time>2026-04-30T09:42:27.999Z</time>
      </trkpt>
      <trkpt lat="43.96953" lon="3.02001">
        <ele>547.6</ele>
        <time>2026-04-30T09:42:28.999Z</time>
      </trkpt>
      <trkpt lat="43.96952" lon="3.02004">
        <ele>547.3</ele>
        <time>2026-04-30T09:42:29.999Z</time>
      </trkpt>
      <trkpt lat="43.96953" lon="3.02005">
        <ele>547</ele>
        <time>2026-04-30T09:42:30.999Z</time>
      </trkpt>
      <trkpt lat="43.96954" lon="3.02007">
        <ele>546.9</ele>
        <time>2026-04-30T09:42:31.999Z</time>
      </trkpt>
      <trkpt lat="43.96955" lon="3.02008">
        <ele>546.8</ele>
        <time>2026-04-30T09:42:32.999Z</time>
      </trkpt>
      <trkpt lat="43.96955" lon="3.02011">
        <ele>546.4</ele>
        <time>2026-04-30T09:42:33.999Z</time>
      </trkpt>
      <trkpt lat="43.96957" lon="3.02013">
        <ele>546.4</ele>
        <time>2026-04-30T09:42:34.999Z</time>
      </trkpt>
      <trkpt lat="43.96958" lon="3.02015">
        <ele>547.1</ele>
        <time>2026-04-30T09:42:35.999Z</time>
      </trkpt>
      <trkpt lat="43.96958" lon="3.02018">
        <ele>548</ele>
        <time>2026-04-30T09:42:36.999Z</time>
      </trkpt>
      <trkpt lat="43.96959" lon="3.02019">
        <ele>548.9</ele>
        <time>2026-04-30T09:42:37.999Z</time>
      </trkpt>
      <trkpt lat="43.96959" lon="3.02021">
        <ele>549.1</ele>
        <time>2026-04-30T09:42:38.999Z</time>
      </trkpt>
      <trkpt lat="43.9696" lon="3.02022">
        <ele>549.1</ele>
        <time>2026-04-30T09:42:39.999Z</time>
      </trkpt>
      <trkpt lat="43.9696" lon="3.02024">
        <ele>549.3</ele>
        <time>2026-04-30T09:42:40.999Z</time>
      </trkpt>
      <trkpt lat="43.96961" lon="3.02026">
        <ele>549.8</ele>
        <time>2026-04-30T09:42:41.999Z</time>
      </trkpt>
      <trkpt lat="43.96961" lon="3.02028">
        <ele>550.1</ele>
        <time>2026-04-30T09:42:42.999Z</time>
      </trkpt>
      <trkpt lat="43.96962" lon="3.02031">
        <ele>550.6</ele>
        <time>2026-04-30T09:42:43.999Z</time>
      </trkpt>
      <trkpt lat="43.96962" lon="3.02032">
        <ele>550.4</ele>
        <time>2026-04-30T09:42:44.999Z</time>
      </trkpt>
      <trkpt lat="43.96962" lon="3.02033">
        <ele>550.6</ele>
        <time>2026-04-30T09:42:45.999Z</time>
      </trkpt>
      <trkpt lat="43.96963" lon="3.02034">
        <ele>550.4</ele>
        <time>2026-04-30T09:42:46.999Z</time>
      </trkpt>
      <trkpt lat="43.96964" lon="3.02036">
        <ele>550.2</ele>
        <time>2026-04-30T09:42:47.999Z</time>
      </trkpt>
      <trkpt lat="43.96965" lon="3.02037">
        <ele>550.3</ele>
        <time>2026-04-30T09:42:48.999Z</time>
      </trkpt>
      <trkpt lat="43.96966" lon="3.02038">
        <ele>550.4</ele>
        <time>2026-04-30T09:42:49.999Z</time>
      </trkpt>
      <trkpt lat="43.96967" lon="3.02039">
        <ele>550.3</ele>
        <time>2026-04-30T09:42:50.999Z</time>
      </trkpt>
      <trkpt lat="43.96968" lon="3.0204">
        <ele>550.5</ele>
        <time>2026-04-30T09:42:51.999Z</time>
      </trkpt>
      <trkpt lat="43.96968" lon="3.0204">
        <ele>550.7</ele>
        <time>2026-04-30T09:42:52.999Z</time>
      </trkpt>
      <trkpt lat="43.96969" lon="3.02041">
        <ele>550.8</ele>
        <time>2026-04-30T09:42:53.999Z</time>
      </trkpt>
      <trkpt lat="43.9697" lon="3.02042">
        <ele>550.6</ele>
        <time>2026-04-30T09:42:54.999Z</time>
      </trkpt>
      <trkpt lat="43.96971" lon="3.02044">
        <ele>550.3</ele>
        <time>2026-04-30T09:42:55.999Z</time>
      </trkpt>
      <trkpt lat="43.96972" lon="3.02046">
        <ele>550.3</ele>
        <time>2026-04-30T09:42:56.999Z</time>
      </trkpt>
      <trkpt lat="43.96973" lon="3.02048">
        <ele>550.7</ele>
        <time>2026-04-30T09:42:57.999Z</time>
      </trkpt>
      <trkpt lat="43.96974" lon="3.02049">
        <ele>551.2</ele>
        <time>2026-04-30T09:42:58.999Z</time>
      </trkpt>
      <trkpt lat="43.96974" lon="3.0205">
        <ele>551</ele>
        <time>2026-04-30T09:42:59.999Z</time>
      </trkpt>
      <trkpt lat="43.96974" lon="3.02052">
        <ele>550.9</ele>
        <time>2026-04-30T09:43:00.999Z</time>
      </trkpt>
      <trkpt lat="43.96975" lon="3.02053">
        <ele>550.9</ele>
        <time>2026-04-30T09:43:01.999Z</time>
      </trkpt>
      <trkpt lat="43.96976" lon="3.02054">
        <ele>551.1</ele>
        <time>2026-04-30T09:43:02.999Z</time>
      </trkpt>
      <trkpt lat="43.96976" lon="3.02056">
        <ele>551.2</ele>
        <time>2026-04-30T09:43:03.999Z</time>
      </trkpt>
      <trkpt lat="43.96977" lon="3.02057">
        <ele>551.4</ele>
        <time>2026-04-30T09:43:04.999Z</time>
      </trkpt>
      <trkpt lat="43.96977" lon="3.02059">
        <ele>551.7</ele>
        <time>2026-04-30T09:43:05.999Z</time>
      </trkpt>
      <trkpt lat="43.96977" lon="3.02061">
        <ele>552.1</ele>
        <time>2026-04-30T09:43:06.999Z</time>
      </trkpt>
      <trkpt lat="43.96978" lon="3.02063">
        <ele>552.8</ele>
        <time>2026-04-30T09:43:07.999Z</time>
      </trkpt>
      <trkpt lat="43.96979" lon="3.02064">
        <ele>553.4</ele>
        <time>2026-04-30T09:43:08.999Z</time>
      </trkpt>
      <trkpt lat="43.9698" lon="3.02064">
        <ele>553.6</ele>
        <time>2026-04-30T09:43:09.999Z</time>
      </trkpt>
      <trkpt lat="43.96981" lon="3.02065">
        <ele>553.5</ele>
        <time>2026-04-30T09:43:10.999Z</time>
      </trkpt>
      <trkpt lat="43.96982" lon="3.02066">
        <ele>553.7</ele>
        <time>2026-04-30T09:43:11.999Z</time>
      </trkpt>
      <trkpt lat="43.96982" lon="3.02067">
        <ele>553.3</ele>
        <time>2026-04-30T09:43:12.999Z</time>
      </trkpt>
      <trkpt lat="43.96984" lon="3.02069">
        <ele>553.2</ele>
        <time>2026-04-30T09:43:13.999Z</time>
      </trkpt>
      <trkpt lat="43.96985" lon="3.02071">
        <ele>553.5</ele>
        <time>2026-04-30T09:43:14.999Z</time>
      </trkpt>
      <trkpt lat="43.96984" lon="3.02073">
        <ele>553</ele>
        <time>2026-04-30T09:43:15.999Z</time>
      </trkpt>
      <trkpt lat="43.96985" lon="3.02076">
        <ele>552.9</ele>
        <time>2026-04-30T09:43:16.999Z</time>
      </trkpt>
      <trkpt lat="43.96985" lon="3.02078">
        <ele>552.3</ele>
        <time>2026-04-30T09:43:17.999Z</time>
      </trkpt>
      <trkpt lat="43.96985" lon="3.02079">
        <ele>552.6</ele>
        <time>2026-04-30T09:43:18.999Z</time>
      </trkpt>
      <trkpt lat="43.96985" lon="3.0208">
        <ele>552.2</ele>
        <time>2026-04-30T09:43:19.999Z</time>
      </trkpt>
      <trkpt lat="43.96986" lon="3.02081">
        <ele>552</ele>
        <time>2026-04-30T09:43:20.999Z</time>
      </trkpt>
      <trkpt lat="43.96986" lon="3.02081">
        <ele>551.7</ele>
        <time>2026-04-30T09:43:21.999Z</time>
      </trkpt>
      <trkpt lat="43.96987" lon="3.02083">
        <ele>551.7</ele>
        <time>2026-04-30T09:43:22.999Z</time>
      </trkpt>
      <trkpt lat="43.96988" lon="3.02085">
        <ele>551.3</ele>
        <time>2026-04-30T09:43:23.999Z</time>
      </trkpt>
      <trkpt lat="43.96988" lon="3.02086">
        <ele>551.2</ele>
        <time>2026-04-30T09:43:24.999Z</time>
      </trkpt>
      <trkpt lat="43.96988" lon="3.02087">
        <ele>551.1</ele>
        <time>2026-04-30T09:43:25.999Z</time>
      </trkpt>
      <trkpt lat="43.96989" lon="3.02089">
        <ele>550.9</ele>
        <time>2026-04-30T09:43:26.999Z</time>
      </trkpt>
      <trkpt lat="43.96989" lon="3.0209">
        <ele>550.4</ele>
        <time>2026-04-30T09:43:27.999Z</time>
      </trkpt>
      <trkpt lat="43.9699" lon="3.02092">
        <ele>550.1</ele>
        <time>2026-04-30T09:43:28.999Z</time>
      </trkpt>
      <trkpt lat="43.96991" lon="3.02092">
        <ele>549.9</ele>
        <time>2026-04-30T09:43:29.999Z</time>
      </trkpt>
      <trkpt lat="43.96991" lon="3.02093">
        <ele>549.7</ele>
        <time>2026-04-30T09:43:30.999Z</time>
      </trkpt>
      <trkpt lat="43.96993" lon="3.02094">
        <ele>549.2</ele>
        <time>2026-04-30T09:43:31.999Z</time>
      </trkpt>
      <trkpt lat="43.96994" lon="3.02095">
        <ele>549</ele>
        <time>2026-04-30T09:43:32.999Z</time>
      </trkpt>
      <trkpt lat="43.96995" lon="3.02096">
        <ele>548.9</ele>
        <time>2026-04-30T09:43:33.999Z</time>
      </trkpt>
      <trkpt lat="43.96996" lon="3.02097">
        <ele>548.5</ele>
        <time>2026-04-30T09:43:34.999Z</time>
      </trkpt>
      <trkpt lat="43.96997" lon="3.02098">
        <ele>548.3</ele>
        <time>2026-04-30T09:43:35.999Z</time>
      </trkpt>
      <trkpt lat="43.96997" lon="3.021">
        <ele>547.9</ele>
        <time>2026-04-30T09:43:36.999Z</time>
      </trkpt>
      <trkpt lat="43.96997" lon="3.02101">
        <ele>548</ele>
        <time>2026-04-30T09:43:37.999Z</time>
      </trkpt>
      <trkpt lat="43.96997" lon="3.02102">
        <ele>547.7</ele>
        <time>2026-04-30T09:43:38.999Z</time>
      </trkpt>
      <trkpt lat="43.96997" lon="3.02103">
        <ele>547</ele>
        <time>2026-04-30T09:43:39.999Z</time>
      </trkpt>
      <trkpt lat="43.96997" lon="3.02104">
        <ele>547.2</ele>
        <time>2026-04-30T09:43:40.999Z</time>
      </trkpt>
      <trkpt lat="43.96997" lon="3.02106">
        <ele>547.4</ele>
        <time>2026-04-30T09:43:41.999Z</time>
      </trkpt>
      <trkpt lat="43.96998" lon="3.02107">
        <ele>547.6</ele>
        <time>2026-04-30T09:43:42.999Z</time>
      </trkpt>
      <trkpt lat="43.97" lon="3.0211">
        <ele>548</ele>
        <time>2026-04-30T09:43:43.999Z</time>
      </trkpt>
      <trkpt lat="43.97" lon="3.02111">
        <ele>547.9</ele>
        <time>2026-04-30T09:43:44.999Z</time>
      </trkpt>
      <trkpt lat="43.97002" lon="3.02113">
        <ele>548.6</ele>
        <time>2026-04-30T09:43:45.999Z</time>
      </trkpt>
      <trkpt lat="43.97002" lon="3.02115">
        <ele>548.6</ele>
        <time>2026-04-30T09:43:46.999Z</time>
      </trkpt>
      <trkpt lat="43.97003" lon="3.02116">
        <ele>549.1</ele>
        <time>2026-04-30T09:43:47.999Z</time>
      </trkpt>
      <trkpt lat="43.97004" lon="3.02117">
        <ele>549.9</ele>
        <time>2026-04-30T09:43:48.999Z</time>
      </trkpt>
      <trkpt lat="43.97005" lon="3.02118">
        <ele>550.6</ele>
        <time>2026-04-30T09:43:49.999Z</time>
      </trkpt>
      <trkpt lat="43.97006" lon="3.02119">
        <ele>551.3</ele>
        <time>2026-04-30T09:43:50.999Z</time>
      </trkpt>
      <trkpt lat="43.97007" lon="3.02121">
        <ele>551.5</ele>
        <time>2026-04-30T09:43:51.999Z</time>
      </trkpt>
      <trkpt lat="43.97008" lon="3.02122">
        <ele>551.7</ele>
        <time>2026-04-30T09:43:52.999Z</time>
      </trkpt>
      <trkpt lat="43.97008" lon="3.02123">
        <ele>551.6</ele>
        <time>2026-04-30T09:43:53.999Z</time>
      </trkpt>
      <trkpt lat="43.97009" lon="3.02124">
        <ele>551.8</ele>
        <time>2026-04-30T09:43:54.999Z</time>
      </trkpt>
      <trkpt lat="43.97009" lon="3.02125">
        <ele>551.7</ele>
        <time>2026-04-30T09:43:55.999Z</time>
      </trkpt>
      <trkpt lat="43.97009" lon="3.02126">
        <ele>551.1</ele>
        <time>2026-04-30T09:43:56.999Z</time>
      </trkpt>
      <trkpt lat="43.9701" lon="3.02128">
        <ele>551.3</ele>
        <time>2026-04-30T09:43:57.999Z</time>
      </trkpt>
      <trkpt lat="43.9701" lon="3.0213">
        <ele>551.3</ele>
        <time>2026-04-30T09:43:58.999Z</time>
      </trkpt>
      <trkpt lat="43.9701" lon="3.02131">
        <ele>551.3</ele>
        <time>2026-04-30T09:43:59.999Z</time>
      </trkpt>
      <trkpt lat="43.9701" lon="3.02131">
        <ele>551.4</ele>
        <time>2026-04-30T09:44:00.999Z</time>
      </trkpt>
      <trkpt lat="43.9701" lon="3.02132">
        <ele>551</ele>
        <time>2026-04-30T09:44:01.999Z</time>
      </trkpt>
      <trkpt lat="43.9701" lon="3.02133">
        <ele>550.3</ele>
        <time>2026-04-30T09:44:02.999Z</time>
      </trkpt>
      <trkpt lat="43.97011" lon="3.02135">
        <ele>550.1</ele>
        <time>2026-04-30T09:44:03.999Z</time>
      </trkpt>
      <trkpt lat="43.97011" lon="3.02137">
        <ele>550.2</ele>
        <time>2026-04-30T09:44:04.999Z</time>
      </trkpt>
      <trkpt lat="43.97011" lon="3.02139">
        <ele>550.2</ele>
        <time>2026-04-30T09:44:05.999Z</time>
      </trkpt>
      <trkpt lat="43.97012" lon="3.02141">
        <ele>550.2</ele>
        <time>2026-04-30T09:44:06.999Z</time>
      </trkpt>
      <trkpt lat="43.97012" lon="3.02143">
        <ele>550</ele>
        <time>2026-04-30T09:44:07.999Z</time>
      </trkpt>
      <trkpt lat="43.97013" lon="3.02144">
        <ele>550.1</ele>
        <time>2026-04-30T09:44:08.999Z</time>
      </trkpt>
      <trkpt lat="43.97014" lon="3.02144">
        <ele>549.9</ele>
        <time>2026-04-30T09:44:09.999Z</time>
      </trkpt>
      <trkpt lat="43.97016" lon="3.02145">
        <ele>550</ele>
        <time>2026-04-30T09:44:10.999Z</time>
      </trkpt>
      <trkpt lat="43.97017" lon="3.02146">
        <ele>550.2</ele>
        <time>2026-04-30T09:44:11.999Z</time>
      </trkpt>
      <trkpt lat="43.97018" lon="3.02148">
        <ele>550.2</ele>
        <time>2026-04-30T09:44:12.999Z</time>
      </trkpt>
      <trkpt lat="43.97019" lon="3.02149">
        <ele>549.9</ele>
        <time>2026-04-30T09:44:13.999Z</time>
      </trkpt>
      <trkpt lat="43.9702" lon="3.02151">
        <ele>549.8</ele>
        <time>2026-04-30T09:44:14.999Z</time>
      </trkpt>
      <trkpt lat="43.9702" lon="3.02152">
        <ele>549.6</ele>
        <time>2026-04-30T09:44:15.999Z</time>
      </trkpt>
      <trkpt lat="43.9702" lon="3.02153">
        <ele>549.5</ele>
        <time>2026-04-30T09:44:16.999Z</time>
      </trkpt>
      <trkpt lat="43.9702" lon="3.02154">
        <ele>549.6</ele>
        <time>2026-04-30T09:44:17.999Z</time>
      </trkpt>
      <trkpt lat="43.97021" lon="3.02155">
        <ele>549.9</ele>
        <time>2026-04-30T09:44:18.999Z</time>
      </trkpt>
      <trkpt lat="43.97022" lon="3.02157">
        <ele>549.9</ele>
        <time>2026-04-30T09:44:19.999Z</time>
      </trkpt>
      <trkpt lat="43.97023" lon="3.02158">
        <ele>549.6</ele>
        <time>2026-04-30T09:44:20.999Z</time>
      </trkpt>
      <trkpt lat="43.97024" lon="3.0216">
        <ele>549.7</ele>
        <time>2026-04-30T09:44:21.999Z</time>
      </trkpt>
      <trkpt lat="43.97024" lon="3.02161">
        <ele>549.4</ele>
        <time>2026-04-30T09:44:22.999Z</time>
      </trkpt>
      <trkpt lat="43.97024" lon="3.02162">
        <ele>549.8</ele>
        <time>2026-04-30T09:44:23.999Z</time>
      </trkpt>
      <trkpt lat="43.97025" lon="3.02164">
        <ele>550.1</ele>
        <time>2026-04-30T09:44:24.999Z</time>
      </trkpt>
      <trkpt lat="43.97025" lon="3.02165">
        <ele>550</ele>
        <time>2026-04-30T09:44:25.999Z</time>
      </trkpt>
      <trkpt lat="43.97026" lon="3.02166">
        <ele>549.9</ele>
        <time>2026-04-30T09:44:26.999Z</time>
      </trkpt>
      <trkpt lat="43.97027" lon="3.02167">
        <ele>549.9</ele>
        <time>2026-04-30T09:44:27.999Z</time>
      </trkpt>
      <trkpt lat="43.97028" lon="3.02168">
        <ele>550</ele>
        <time>2026-04-30T09:44:28.999Z</time>
      </trkpt>
      <trkpt lat="43.97029" lon="3.0217">
        <ele>549.8</ele>
        <time>2026-04-30T09:44:29.999Z</time>
      </trkpt>
      <trkpt lat="43.9703" lon="3.02171">
        <ele>549.7</ele>
        <time>2026-04-30T09:44:30.999Z</time>
      </trkpt>
      <trkpt lat="43.9703" lon="3.02172">
        <ele>549.7</ele>
        <time>2026-04-30T09:44:31.999Z</time>
      </trkpt>
      <trkpt lat="43.97031" lon="3.02173">
        <ele>549.6</ele>
        <time>2026-04-30T09:44:32.999Z</time>
      </trkpt>
      <trkpt lat="43.97032" lon="3.02175">
        <ele>549.9</ele>
        <time>2026-04-30T09:44:33.999Z</time>
      </trkpt>
      <trkpt lat="43.97033" lon="3.02176">
        <ele>550.1</ele>
        <time>2026-04-30T09:44:34.999Z</time>
      </trkpt>
      <trkpt lat="43.97034" lon="3.02178">
        <ele>550.2</ele>
        <time>2026-04-30T09:44:35.999Z</time>
      </trkpt>
      <trkpt lat="43.97034" lon="3.02179">
        <ele>550</ele>
        <time>2026-04-30T09:44:36.999Z</time>
      </trkpt>
      <trkpt lat="43.97035" lon="3.0218">
        <ele>549.8</ele>
        <time>2026-04-30T09:44:37.999Z</time>
      </trkpt>
      <trkpt lat="43.97036" lon="3.02181">
        <ele>549.8</ele>
        <time>2026-04-30T09:44:38.999Z</time>
      </trkpt>
      <trkpt lat="43.97037" lon="3.02182">
        <ele>549.8</ele>
        <time>2026-04-30T09:44:39.999Z</time>
      </trkpt>
      <trkpt lat="43.97038" lon="3.02182">
        <ele>549.7</ele>
        <time>2026-04-30T09:44:40.999Z</time>
      </trkpt>
      <trkpt lat="43.97039" lon="3.02183">
        <ele>549.7</ele>
        <time>2026-04-30T09:44:41.999Z</time>
      </trkpt>
      <trkpt lat="43.9704" lon="3.02184">
        <ele>549.4</ele>
        <time>2026-04-30T09:44:42.999Z</time>
      </trkpt>
      <trkpt lat="43.97041" lon="3.02185">
        <ele>549.4</ele>
        <time>2026-04-30T09:44:43.999Z</time>
      </trkpt>
      <trkpt lat="43.97042" lon="3.02187">
        <ele>549.2</ele>
        <time>2026-04-30T09:44:44.999Z</time>
      </trkpt>
      <trkpt lat="43.97042" lon="3.02188">
        <ele>549.1</ele>
        <time>2026-04-30T09:44:45.999Z</time>
      </trkpt>
      <trkpt lat="43.97044" lon="3.02189">
        <ele>549.1</ele>
        <time>2026-04-30T09:44:46.999Z</time>
      </trkpt>
      <trkpt lat="43.97045" lon="3.0219">
        <ele>548.9</ele>
        <time>2026-04-30T09:44:47.999Z</time>
      </trkpt>
      <trkpt lat="43.97047" lon="3.02192">
        <ele>548.8</ele>
        <time>2026-04-30T09:44:48.999Z</time>
      </trkpt>
      <trkpt lat="43.97048" lon="3.02193">
        <ele>548.9</ele>
        <time>2026-04-30T09:44:49.999Z</time>
      </trkpt>
      <trkpt lat="43.97048" lon="3.02194">
        <ele>548.8</ele>
        <time>2026-04-30T09:44:50.999Z</time>
      </trkpt>
      <trkpt lat="43.97049" lon="3.02195">
        <ele>549</ele>
        <time>2026-04-30T09:44:51.999Z</time>
      </trkpt>
      <trkpt lat="43.9705" lon="3.02196">
        <ele>548.9</ele>
        <time>2026-04-30T09:44:52.999Z</time>
      </trkpt>
      <trkpt lat="43.97051" lon="3.02198">
        <ele>549.1</ele>
        <time>2026-04-30T09:44:53.999Z</time>
      </trkpt>
      <trkpt lat="43.97052" lon="3.02198">
        <ele>549.3</ele>
        <time>2026-04-30T09:44:54.999Z</time>
      </trkpt>
      <trkpt lat="43.97052" lon="3.02199">
        <ele>549.5</ele>
        <time>2026-04-30T09:44:55.999Z</time>
      </trkpt>
      <trkpt lat="43.97052" lon="3.02201">
        <ele>549.3</ele>
        <time>2026-04-30T09:44:56.999Z</time>
      </trkpt>
      <trkpt lat="43.97053" lon="3.02203">
        <ele>550.1</ele>
        <time>2026-04-30T09:44:57.999Z</time>
      </trkpt>
      <trkpt lat="43.97054" lon="3.02204">
        <ele>550.4</ele>
        <time>2026-04-30T09:44:58.999Z</time>
      </trkpt>
      <trkpt lat="43.97052" lon="3.02207">
        <ele>550.9</ele>
        <time>2026-04-30T09:44:59.999Z</time>
      </trkpt>
      <trkpt lat="43.97051" lon="3.02208">
        <ele>551.1</ele>
        <time>2026-04-30T09:45:00.999Z</time>
      </trkpt>
      <trkpt lat="43.97051" lon="3.0221">
        <ele>551.2</ele>
        <time>2026-04-30T09:45:01.999Z</time>
      </trkpt>
      <trkpt lat="43.97051" lon="3.02212">
        <ele>551.7</ele>
        <time>2026-04-30T09:45:02.999Z</time>
      </trkpt>
      <trkpt lat="43.97051" lon="3.02213">
        <ele>551.7</ele>
        <time>2026-04-30T09:45:03.999Z</time>
      </trkpt>
      <trkpt lat="43.97051" lon="3.02214">
        <ele>551.9</ele>
        <time>2026-04-30T09:45:04.999Z</time>
      </trkpt>
      <trkpt lat="43.97051" lon="3.02215">
        <ele>552.2</ele>
        <time>2026-04-30T09:45:05.999Z</time>
      </trkpt>
      <trkpt lat="43.97051" lon="3.02216">
        <ele>552.5</ele>
        <time>2026-04-30T09:45:06.999Z</time>
      </trkpt>
      <trkpt lat="43.97052" lon="3.02216">
        <ele>553.3</ele>
        <time>2026-04-30T09:45:07.999Z</time>
      </trkpt>
      <trkpt lat="43.97052" lon="3.02217">
        <ele>554.1</ele>
        <time>2026-04-30T09:45:08.999Z</time>
      </trkpt>
      <trkpt lat="43.97052" lon="3.02217">
        <ele>553.7</ele>
        <time>2026-04-30T09:45:09.999Z</time>
      </trkpt>
      <trkpt lat="43.97052" lon="3.02217">
        <ele>553.9</ele>
        <time>2026-04-30T09:45:10.999Z</time>
      </trkpt>
      <trkpt lat="43.97052" lon="3.02217">
        <ele>554</ele>
        <time>2026-04-30T09:45:11.999Z</time>
      </trkpt>
      <trkpt lat="43.97052" lon="3.02217">
        <ele>553.9</ele>
        <time>2026-04-30T09:45:12.999Z</time>
      </trkpt>
      <trkpt lat="43.97052" lon="3.02217">
        <ele>553.7</ele>
        <time>2026-04-30T09:45:13.999Z</time>
      </trkpt>
      <trkpt lat="43.97052" lon="3.02217">
        <ele>553.6</ele>
        <time>2026-04-30T09:45:14.999Z</time>
      </trkpt>
      <trkpt lat="43.97052" lon="3.02217">
        <ele>553.6</ele>
        <time>2026-04-30T09:45:15.999Z</time>
      </trkpt>
      <trkpt lat="43.97052" lon="3.02217">
        <ele>553.5</ele>
        <time>2026-04-30T09:45:16.999Z</time>
      </trkpt>
      <trkpt lat="43.97052" lon="3.02217">
        <ele>553.4</ele>
        <time>2026-04-30T09:45:17.999Z</time>
      </trkpt>
      <trkpt lat="43.97052" lon="3.02217">
        <ele>553.3</ele>
        <time>2026-04-30T09:45:18.999Z</time>
      </trkpt>
      <trkpt lat="43.97052" lon="3.02217">
        <ele>553</ele>
        <time>2026-04-30T09:45:19.999Z</time>
      </trkpt>
      <trkpt lat="43.97052" lon="3.02217">
        <ele>552.9</ele>
        <time>2026-04-30T09:45:20.999Z</time>
      </trkpt>
      <trkpt lat="43.97052" lon="3.02216">
        <ele>553</ele>
        <time>2026-04-30T09:45:21.999Z</time>
      </trkpt>
      <trkpt lat="43.97052" lon="3.02215">
        <ele>553.1</ele>
        <time>2026-04-30T09:45:22.999Z</time>
      </trkpt>
      <trkpt lat="43.97052" lon="3.02214">
        <ele>553.3</ele>
        <time>2026-04-30T09:45:23.999Z</time>
      </trkpt>
      <trkpt lat="43.97052" lon="3.02214">
        <ele>553.4</ele>
        <time>2026-04-30T09:45:24.999Z</time>
      </trkpt>
      <trkpt lat="43.97052" lon="3.02214">
        <ele>553.3</ele>
        <time>2026-04-30T09:45:25.999Z</time>
      </trkpt>
      <trkpt lat="43.97052" lon="3.02214">
        <ele>553.5</ele>
        <time>2026-04-30T09:45:26.999Z</time>
      </trkpt>
      <trkpt lat="43.97052" lon="3.02214">
        <ele>553.5</ele>
        <time>2026-04-30T09:45:27.999Z</time>
      </trkpt>
      <trkpt lat="43.97052" lon="3.02214">
        <ele>553.6</ele>
        <time>2026-04-30T09:45:28.999Z</time>
      </trkpt>
      <trkpt lat="43.97053" lon="3.02214">
        <ele>553.7</ele>
        <time>2026-04-30T09:45:29.999Z</time>
      </trkpt>
      <trkpt lat="43.97053" lon="3.02214">
        <ele>553.9</ele>
        <time>2026-04-30T09:45:30.999Z</time>
      </trkpt>
      <trkpt lat="43.97053" lon="3.02214">
        <ele>554.1</ele>
        <time>2026-04-30T09:45:31.999Z</time>
      </trkpt>
      <trkpt lat="43.97053" lon="3.02214">
        <ele>554.4</ele>
        <time>2026-04-30T09:45:32.999Z</time>
      </trkpt>
      <trkpt lat="43.97053" lon="3.02214">
        <ele>554.5</ele>
        <time>2026-04-30T09:45:33.999Z</time>
      </trkpt>
      <trkpt lat="43.97053" lon="3.02214">
        <ele>554.4</ele>
        <time>2026-04-30T09:45:34.999Z</time>
      </trkpt>
      <trkpt lat="43.97053" lon="3.02214">
        <ele>554.2</ele>
        <time>2026-04-30T09:45:35.999Z</time>
      </trkpt>
      <trkpt lat="43.97053" lon="3.02214">
        <ele>553.9</ele>
        <time>2026-04-30T09:45:36.999Z</time>
      </trkpt>
      <trkpt lat="43.97052" lon="3.02215">
        <ele>553.7</ele>
        <time>2026-04-30T09:45:37.999Z</time>
      </trkpt>
      <trkpt lat="43.97052" lon="3.02216">
        <ele>553.5</ele>
        <time>2026-04-30T09:45:38.999Z</time>
      </trkpt>
      <trkpt lat="43.97052" lon="3.02216">
        <ele>553.4</ele>
        <time>2026-04-30T09:45:39.999Z</time>
      </trkpt>
      <trkpt lat="43.97052" lon="3.02216">
        <ele>553.6</ele>
        <time>2026-04-30T09:45:40.999Z</time>
      </trkpt>
      <trkpt lat="43.97052" lon="3.02215">
        <ele>553.7</ele>
        <time>2026-04-30T09:45:41.999Z</time>
      </trkpt>
      <trkpt lat="43.97052" lon="3.02215">
        <ele>553.6</ele>
        <time>2026-04-30T09:45:42.999Z</time>
      </trkpt>
      <trkpt lat="43.97053" lon="3.02214">
        <ele>553.7</ele>
        <time>2026-04-30T09:45:43.999Z</time>
      </trkpt>
      <trkpt lat="43.97053" lon="3.02215">
        <ele>553.6</ele>
        <time>2026-04-30T09:45:44.999Z</time>
      </trkpt>
      <trkpt lat="43.97053" lon="3.02215">
        <ele>553.6</ele>
        <time>2026-04-30T09:45:45.999Z</time>
      </trkpt>
      <trkpt lat="43.97053" lon="3.02215">
        <ele>554.1</ele>
        <time>2026-04-30T09:45:46.999Z</time>
      </trkpt>
      <trkpt lat="43.97053" lon="3.02215">
        <ele>554.5</ele>
        <time>2026-04-30T09:45:47.999Z</time>
      </trkpt>
      <trkpt lat="43.97053" lon="3.02215">
        <ele>554.7</ele>
        <time>2026-04-30T09:45:48.999Z</time>
      </trkpt>
      <trkpt lat="43.97053" lon="3.02215">
        <ele>555</ele>
        <time>2026-04-30T09:45:49.999Z</time>
      </trkpt>
      <trkpt lat="43.97053" lon="3.02215">
        <ele>555.2</ele>
        <time>2026-04-30T09:45:50.999Z</time>
      </trkpt>
      <trkpt lat="43.97053" lon="3.02215">
        <ele>555.6</ele>
        <time>2026-04-30T09:45:51.999Z</time>
      </trkpt>
      <trkpt lat="43.97053" lon="3.02215">
        <ele>555.9</ele>
        <time>2026-04-30T09:45:52.999Z</time>
      </trkpt>
      <trkpt lat="43.97053" lon="3.02215">
        <ele>556.3</ele>
        <time>2026-04-30T09:45:53.999Z</time>
      </trkpt>
      <trkpt lat="43.97053" lon="3.02215">
        <ele>556.6</ele>
        <time>2026-04-30T09:45:54.999Z</time>
      </trkpt>
      <trkpt lat="43.97053" lon="3.02215">
        <ele>556.8</ele>
        <time>2026-04-30T09:45:55.999Z</time>
      </trkpt>
      <trkpt lat="43.97053" lon="3.02215">
        <ele>556.9</ele>
        <time>2026-04-30T09:45:56.999Z</time>
      </trkpt>
      <trkpt lat="43.97053" lon="3.02215">
        <ele>556.9</ele>
        <time>2026-04-30T09:45:57.999Z</time>
      </trkpt>
      <trkpt lat="43.97053" lon="3.02215">
        <ele>557</ele>
        <time>2026-04-30T09:45:58.999Z</time>
      </trkpt>
      <trkpt lat="43.97053" lon="3.02215">
        <ele>557.1</ele>
        <time>2026-04-30T09:45:59.999Z</time>
      </trkpt>
      <trkpt lat="43.97053" lon="3.02215">
        <ele>557.2</ele>
        <time>2026-04-30T09:46:00.999Z</time>
      </trkpt>
      <trkpt lat="43.97053" lon="3.02215">
        <ele>557.3</ele>
        <time>2026-04-30T09:46:01.999Z</time>
      </trkpt>
      <trkpt lat="43.97053" lon="3.02215">
        <ele>557.7</ele>
        <time>2026-04-30T09:46:02.999Z</time>
      </trkpt>
      <trkpt lat="43.97053" lon="3.02215">
        <ele>557.8</ele>
        <time>2026-04-30T09:46:03.999Z</time>
      </trkpt>
      <trkpt lat="43.97053" lon="3.02215">
        <ele>557.8</ele>
        <time>2026-04-30T09:46:04.999Z</time>
      </trkpt>
      <trkpt lat="43.97052" lon="3.02213">
        <ele>558.1</ele>
        <time>2026-04-30T09:46:06.999Z</time>
      </trkpt>
      <trkpt lat="43.97052" lon="3.02212">
        <ele>558.4</ele>
        <time>2026-04-30T09:46:07.999Z</time>
      </trkpt>
      <trkpt lat="43.97051" lon="3.02212">
        <ele>557.6</ele>
        <time>2026-04-30T09:46:08.999Z</time>
      </trkpt>
      <trkpt lat="43.97052" lon="3.02212">
        <ele>557.9</ele>
        <time>2026-04-30T09:46:09.999Z</time>
      </trkpt>
      <trkpt lat="43.97052" lon="3.02212">
        <ele>558.1</ele>
        <time>2026-04-30T09:46:10.999Z</time>
      </trkpt>
      <trkpt lat="43.97051" lon="3.02212">
        <ele>558.2</ele>
        <time>2026-04-30T09:46:11.999Z</time>
      </trkpt>
      <trkpt lat="43.97051" lon="3.02211">
        <ele>558.2</ele>
        <time>2026-04-30T09:46:12.999Z</time>
      </trkpt>
      <trkpt lat="43.97051" lon="3.02211">
        <ele>558.3</ele>
        <time>2026-04-30T09:46:13.999Z</time>
      </trkpt>
      <trkpt lat="43.97051" lon="3.02211">
        <ele>558.6</ele>
        <time>2026-04-30T09:46:14.999Z</time>
      </trkpt>
      <trkpt lat="43.97051" lon="3.02212">
        <ele>558.6</ele>
        <time>2026-04-30T09:46:15.999Z</time>
      </trkpt>
      <trkpt lat="43.97051" lon="3.02211">
        <ele>558.7</ele>
        <time>2026-04-30T09:46:16.999Z</time>
      </trkpt>
      <trkpt lat="43.97051" lon="3.02211">
        <ele>558.7</ele>
        <time>2026-04-30T09:46:17.999Z</time>
      </trkpt>
      <trkpt lat="43.97051" lon="3.02212">
        <ele>558.7</ele>
        <time>2026-04-30T09:46:18.999Z</time>
      </trkpt>
      <trkpt lat="43.97051" lon="3.02212">
        <ele>558.9</ele>
        <time>2026-04-30T09:46:19.999Z</time>
      </trkpt>
      <trkpt lat="43.97051" lon="3.02212">
        <ele>559</ele>
        <time>2026-04-30T09:46:20.999Z</time>
      </trkpt>
      <trkpt lat="43.97051" lon="3.02212">
        <ele>559</ele>
        <time>2026-04-30T09:46:21.999Z</time>
      </trkpt>
      <trkpt lat="43.97051" lon="3.02212">
        <ele>559.1</ele>
        <time>2026-04-30T09:46:22.999Z</time>
      </trkpt>
      <trkpt lat="43.97051" lon="3.02212">
        <ele>559.1</ele>
        <time>2026-04-30T09:46:23.999Z</time>
      </trkpt>
      <trkpt lat="43.97051" lon="3.02212">
        <ele>559</ele>
        <time>2026-04-30T09:46:24.999Z</time>
      </trkpt>
      <trkpt lat="43.97051" lon="3.02212">
        <ele>559.1</ele>
        <time>2026-04-30T09:46:25.999Z</time>
      </trkpt>
      <trkpt lat="43.97051" lon="3.02212">
        <ele>559.2</ele>
        <time>2026-04-30T09:46:26.999Z</time>
      </trkpt>
      <trkpt lat="43.97051" lon="3.02212">
        <ele>559.3</ele>
        <time>2026-04-30T09:46:27.999Z</time>
      </trkpt>
      <trkpt lat="43.97051" lon="3.02212">
        <ele>559.3</ele>
        <time>2026-04-30T09:46:28.999Z</time>
      </trkpt>
      <trkpt lat="43.97051" lon="3.02212">
        <ele>559.1</ele>
        <time>2026-04-30T09:46:29.999Z</time>
      </trkpt>
      <trkpt lat="43.97051" lon="3.02212">
        <ele>558.9</ele>
        <time>2026-04-30T09:46:30.999Z</time>
      </trkpt>
      <trkpt lat="43.97051" lon="3.02212">
        <ele>558.7</ele>
        <time>2026-04-30T09:46:31.999Z</time>
      </trkpt>
      <trkpt lat="43.97051" lon="3.02213">
        <ele>558.7</ele>
        <time>2026-04-30T09:46:32.999Z</time>
      </trkpt>
      <trkpt lat="43.97051" lon="3.02213">
        <ele>559.2</ele>
        <time>2026-04-30T09:46:33.999Z</time>
      </trkpt>
      <trkpt lat="43.97051" lon="3.02213">
        <ele>559.4</ele>
        <time>2026-04-30T09:46:34.999Z</time>
      </trkpt>
      <trkpt lat="43.97051" lon="3.02213">
        <ele>559.2</ele>
        <time>2026-04-30T09:46:35.999Z</time>
      </trkpt>
      <trkpt lat="43.97051" lon="3.02213">
        <ele>558.9</ele>
        <time>2026-04-30T09:46:36.999Z</time>
      </trkpt>
      <trkpt lat="43.97051" lon="3.02213">
        <ele>558.6</ele>
        <time>2026-04-30T09:46:37.999Z</time>
      </trkpt>
      <trkpt lat="43.97051" lon="3.02213">
        <ele>558.5</ele>
        <time>2026-04-30T09:46:38.999Z</time>
      </trkpt>
      <trkpt lat="43.97051" lon="3.02213">
        <ele>558.3</ele>
        <time>2026-04-30T09:46:39.999Z</time>
      </trkpt>
      <trkpt lat="43.97051" lon="3.02213">
        <ele>558.2</ele>
        <time>2026-04-30T09:46:40.999Z</time>
      </trkpt>
      <trkpt lat="43.97051" lon="3.02212">
        <ele>558.1</ele>
        <time>2026-04-30T09:46:41.999Z</time>
      </trkpt>
      <trkpt lat="43.97052" lon="3.02212">
        <ele>558.2</ele>
        <time>2026-04-30T09:46:42.999Z</time>
      </trkpt>
      <trkpt lat="43.97052" lon="3.02212">
        <ele>558.3</ele>
        <time>2026-04-30T09:46:43.999Z</time>
      </trkpt>
      <trkpt lat="43.97052" lon="3.02211">
        <ele>558.5</ele>
        <time>2026-04-30T09:46:44.999Z</time>
      </trkpt>
      <trkpt lat="43.97052" lon="3.02211">
        <ele>558.7</ele>
        <time>2026-04-30T09:46:45.999Z</time>
      </trkpt>
      <trkpt lat="43.97052" lon="3.02211">
        <ele>559</ele>
        <time>2026-04-30T09:46:46.999Z</time>
      </trkpt>
      <trkpt lat="43.97052" lon="3.02211">
        <ele>559.1</ele>
        <time>2026-04-30T09:46:47.999Z</time>
      </trkpt>
      <trkpt lat="43.97052" lon="3.02211">
        <ele>559.4</ele>
        <time>2026-04-30T09:46:48.999Z</time>
      </trkpt>
      <trkpt lat="43.97052" lon="3.02211">
        <ele>559.6</ele>
        <time>2026-04-30T09:46:49.999Z</time>
      </trkpt>
      <trkpt lat="43.97052" lon="3.02211">
        <ele>559.8</ele>
        <time>2026-04-30T09:46:50.999Z</time>
      </trkpt>
      <trkpt lat="43.97052" lon="3.02211">
        <ele>560</ele>
        <time>2026-04-30T09:46:51.999Z</time>
      </trkpt>
      <trkpt lat="43.97052" lon="3.02211">
        <ele>560.2</ele>
        <time>2026-04-30T09:46:52.999Z</time>
      </trkpt>
      <trkpt lat="43.97052" lon="3.02211">
        <ele>560.2</ele>
        <time>2026-04-30T09:46:53.999Z</time>
      </trkpt>
      <trkpt lat="43.97052" lon="3.02211">
        <ele>560.2</ele>
        <time>2026-04-30T09:46:54.999Z</time>
      </trkpt>
      <trkpt lat="43.97052" lon="3.02211">
        <ele>560.2</ele>
        <time>2026-04-30T09:46:55.999Z</time>
      </trkpt>
      <trkpt lat="43.97052" lon="3.02211">
        <ele>560.1</ele>
        <time>2026-04-30T09:46:56.999Z</time>
      </trkpt>
      <trkpt lat="43.97052" lon="3.02211">
        <ele>560.1</ele>
        <time>2026-04-30T09:46:57.999Z</time>
      </trkpt>
      <trkpt lat="43.97052" lon="3.02211">
        <ele>560.2</ele>
        <time>2026-04-30T09:46:58.999Z</time>
      </trkpt>
      <trkpt lat="43.97052" lon="3.02211">
        <ele>560.6</ele>
        <time>2026-04-30T09:46:59.999Z</time>
      </trkpt>
      <trkpt lat="43.97052" lon="3.02211">
        <ele>560.9</ele>
        <time>2026-04-30T09:47:00.999Z</time>
      </trkpt>
      <trkpt lat="43.97052" lon="3.02211">
        <ele>560.9</ele>
        <time>2026-04-30T09:47:01.999Z</time>
      </trkpt>
      <trkpt lat="43.97052" lon="3.02211">
        <ele>561.1</ele>
        <time>2026-04-30T09:47:02.999Z</time>
      </trkpt>
      <trkpt lat="43.97052" lon="3.02211">
        <ele>561.3</ele>
        <time>2026-04-30T09:47:03.999Z</time>
      </trkpt>
      <trkpt lat="43.97052" lon="3.02211">
        <ele>561.3</ele>
        <time>2026-04-30T09:47:04.999Z</time>
      </trkpt>
      <trkpt lat="43.97052" lon="3.02211">
        <ele>561.5</ele>
        <time>2026-04-30T09:47:05.999Z</time>
      </trkpt>
      <trkpt lat="43.97052" lon="3.02211">
        <ele>562</ele>
        <time>2026-04-30T09:47:06.999Z</time>
      </trkpt>
      <trkpt lat="43.97052" lon="3.02211">
        <ele>562.3</ele>
        <time>2026-04-30T09:47:07.999Z</time>
      </trkpt>
      <trkpt lat="43.97052" lon="3.02211">
        <ele>562.7</ele>
        <time>2026-04-30T09:47:08.999Z</time>
      </trkpt>
      <trkpt lat="43.97052" lon="3.02211">
        <ele>562.8</ele>
        <time>2026-04-30T09:47:09.999Z</time>
      </trkpt>
      <trkpt lat="43.97052" lon="3.02211">
        <ele>562.8</ele>
        <time>2026-04-30T09:47:10.999Z</time>
      </trkpt>
      <trkpt lat="43.97052" lon="3.02211">
        <ele>562.9</ele>
        <time>2026-04-30T09:47:11.999Z</time>
      </trkpt>
      <trkpt lat="43.97052" lon="3.02211">
        <ele>562.9</ele>
        <time>2026-04-30T09:47:12.999Z</time>
      </trkpt>
      <trkpt lat="43.97052" lon="3.02211">
        <ele>563</ele>
        <time>2026-04-30T09:47:13.999Z</time>
      </trkpt>
      <trkpt lat="43.97052" lon="3.02211">
        <ele>563.1</ele>
        <time>2026-04-30T09:47:14.999Z</time>
      </trkpt>
      <trkpt lat="43.97052" lon="3.02211">
        <ele>563.2</ele>
        <time>2026-04-30T09:47:15.999Z</time>
      </trkpt>
      <trkpt lat="43.97052" lon="3.02211">
        <ele>563.3</ele>
        <time>2026-04-30T09:47:16.999Z</time>
      </trkpt>
      <trkpt lat="43.97052" lon="3.02211">
        <ele>563.5</ele>
        <time>2026-04-30T09:47:17.999Z</time>
      </trkpt>
      <trkpt lat="43.97052" lon="3.02211">
        <ele>563.6</ele>
        <time>2026-04-30T09:47:18.999Z</time>
      </trkpt>
      <trkpt lat="43.97052" lon="3.02211">
        <ele>563.8</ele>
        <time>2026-04-30T09:47:19.999Z</time>
      </trkpt>
      <trkpt lat="43.97052" lon="3.02211">
        <ele>563.9</ele>
        <time>2026-04-30T09:47:20.999Z</time>
      </trkpt>
      <trkpt lat="43.97052" lon="3.02211">
        <ele>563.8</ele>
        <time>2026-04-30T09:47:21.999Z</time>
      </trkpt>
      <trkpt lat="43.97052" lon="3.02211">
        <ele>563.5</ele>
        <time>2026-04-30T09:47:22.999Z</time>
      </trkpt>
      <trkpt lat="43.97052" lon="3.02211">
        <ele>563.3</ele>
        <time>2026-04-30T09:47:23.999Z</time>
      </trkpt>
      <trkpt lat="43.97052" lon="3.02211">
        <ele>563.5</ele>
        <time>2026-04-30T09:47:24.999Z</time>
      </trkpt>
      <trkpt lat="43.97052" lon="3.02211">
        <ele>563.4</ele>
        <time>2026-04-30T09:47:25.999Z</time>
      </trkpt>
      <trkpt lat="43.97052" lon="3.02211">
        <ele>563.4</ele>
        <time>2026-04-30T09:47:26.999Z</time>
      </trkpt>
      <trkpt lat="43.97052" lon="3.02211">
        <ele>563</ele>
        <time>2026-04-30T09:47:27.999Z</time>
      </trkpt>
      <trkpt lat="43.97052" lon="3.02211">
        <ele>562.6</ele>
        <time>2026-04-30T09:47:28.999Z</time>
      </trkpt>
      <trkpt lat="43.97052" lon="3.02211">
        <ele>562.5</ele>
        <time>2026-04-30T09:47:29.999Z</time>
      </trkpt>
      <trkpt lat="43.97052" lon="3.02211">
        <ele>562.5</ele>
        <time>2026-04-30T09:47:30.999Z</time>
      </trkpt>
      <trkpt lat="43.97053" lon="3.02211">
        <ele>562.3</ele>
        <time>2026-04-30T09:47:31.999Z</time>
      </trkpt>
      <trkpt lat="43.97053" lon="3.02211">
        <ele>562.3</ele>
        <time>2026-04-30T09:47:32.999Z</time>
      </trkpt>
      <trkpt lat="43.97053" lon="3.02211">
        <ele>562.3</ele>
        <time>2026-04-30T09:47:33.999Z</time>
      </trkpt>
      <trkpt lat="43.97053" lon="3.02212">
        <ele>562.3</ele>
        <time>2026-04-30T09:47:34.999Z</time>
      </trkpt>
      <trkpt lat="43.97053" lon="3.02212">
        <ele>562.4</ele>
        <time>2026-04-30T09:47:35.999Z</time>
      </trkpt>
      <trkpt lat="43.97053" lon="3.02212">
        <ele>562.4</ele>
        <time>2026-04-30T09:47:36.999Z</time>
      </trkpt>
      <trkpt lat="43.97053" lon="3.02212">
        <ele>562.7</ele>
        <time>2026-04-30T09:47:37.999Z</time>
      </trkpt>
      <trkpt lat="43.97053" lon="3.02212">
        <ele>562.7</ele>
        <time>2026-04-30T09:47:38.999Z</time>
      </trkpt>
      <trkpt lat="43.97053" lon="3.02212">
        <ele>562.8</ele>
        <time>2026-04-30T09:47:39.999Z</time>
      </trkpt>
      <trkpt lat="43.97053" lon="3.02212">
        <ele>562.8</ele>
        <time>2026-04-30T09:47:40.999Z</time>
      </trkpt>
      <trkpt lat="43.97053" lon="3.02212">
        <ele>562.9</ele>
        <time>2026-04-30T09:47:41.999Z</time>
      </trkpt>
      <trkpt lat="43.97053" lon="3.02211">
        <ele>562.7</ele>
        <time>2026-04-30T09:47:42.999Z</time>
      </trkpt>
      <trkpt lat="43.97053" lon="3.02211">
        <ele>562.8</ele>
        <time>2026-04-30T09:47:43.999Z</time>
      </trkpt>
      <trkpt lat="43.97053" lon="3.02211">
        <ele>562.5</ele>
        <time>2026-04-30T09:47:44.999Z</time>
      </trkpt>
      <trkpt lat="43.97053" lon="3.02211">
        <ele>562</ele>
        <time>2026-04-30T09:47:45.999Z</time>
      </trkpt>
      <trkpt lat="43.97053" lon="3.02211">
        <ele>561.5</ele>
        <time>2026-04-30T09:47:46.999Z</time>
      </trkpt>
      <trkpt lat="43.97053" lon="3.02212">
        <ele>561.5</ele>
        <time>2026-04-30T09:47:47.999Z</time>
      </trkpt>
      <trkpt lat="43.97052" lon="3.02211">
        <ele>561.6</ele>
        <time>2026-04-30T09:47:48.999Z</time>
      </trkpt>
      <trkpt lat="43.97052" lon="3.02211">
        <ele>561.8</ele>
        <time>2026-04-30T09:47:49.999Z</time>
      </trkpt>
      <trkpt lat="43.97052" lon="3.02211">
        <ele>562</ele>
        <time>2026-04-30T09:47:50.999Z</time>
      </trkpt>
      <trkpt lat="43.97052" lon="3.02211">
        <ele>562.1</ele>
        <time>2026-04-30T09:47:51.999Z</time>
      </trkpt>
      <trkpt lat="43.97052" lon="3.02211">
        <ele>562.1</ele>
        <time>2026-04-30T09:47:52.999Z</time>
      </trkpt>
      <trkpt lat="43.97052" lon="3.02211">
        <ele>561.9</ele>
        <time>2026-04-30T09:47:53.999Z</time>
      </trkpt>
      <trkpt lat="43.97052" lon="3.02211">
        <ele>561.9</ele>
        <time>2026-04-30T09:47:54.999Z</time>
      </trkpt>
      <trkpt lat="43.97053" lon="3.02211">
        <ele>561.9</ele>
        <time>2026-04-30T09:47:55.999Z</time>
      </trkpt>
      <trkpt lat="43.97053" lon="3.02211">
        <ele>561.8</ele>
        <time>2026-04-30T09:47:56.999Z</time>
      </trkpt>
      <trkpt lat="43.97053" lon="3.02211">
        <ele>561.4</ele>
        <time>2026-04-30T09:47:57.999Z</time>
      </trkpt>
      <trkpt lat="43.97053" lon="3.02211">
        <ele>560.9</ele>
        <time>2026-04-30T09:47:58.999Z</time>
      </trkpt>
      <trkpt lat="43.97053" lon="3.02211">
        <ele>560.3</ele>
        <time>2026-04-30T09:47:59.999Z</time>
      </trkpt>
      <trkpt lat="43.97053" lon="3.02211">
        <ele>560</ele>
        <time>2026-04-30T09:48:00.999Z</time>
      </trkpt>
      <trkpt lat="43.97053" lon="3.02211">
        <ele>559.7</ele>
        <time>2026-04-30T09:48:01.999Z</time>
      </trkpt>
      <trkpt lat="43.97053" lon="3.02211">
        <ele>559.7</ele>
        <time>2026-04-30T09:48:02.999Z</time>
      </trkpt>
      <trkpt lat="43.97053" lon="3.02211">
        <ele>559.8</ele>
        <time>2026-04-30T09:48:03.999Z</time>
      </trkpt>
      <trkpt lat="43.97053" lon="3.02211">
        <ele>559.9</ele>
        <time>2026-04-30T09:48:04.999Z</time>
      </trkpt>
      <trkpt lat="43.97053" lon="3.02211">
        <ele>560</ele>
        <time>2026-04-30T09:48:05.999Z</time>
      </trkpt>
      <trkpt lat="43.97053" lon="3.02211">
        <ele>560.2</ele>
        <time>2026-04-30T09:48:06.999Z</time>
      </trkpt>
      <trkpt lat="43.97053" lon="3.02211">
        <ele>560.2</ele>
        <time>2026-04-30T09:48:07.999Z</time>
      </trkpt>
      <trkpt lat="43.97053" lon="3.02211">
        <ele>560.2</ele>
        <time>2026-04-30T09:48:08.999Z</time>
      </trkpt>
      <trkpt lat="43.97053" lon="3.02211">
        <ele>560.3</ele>
        <time>2026-04-30T09:48:09.999Z</time>
      </trkpt>
      <trkpt lat="43.97053" lon="3.02211">
        <ele>560.6</ele>
        <time>2026-04-30T09:48:10.999Z</time>
      </trkpt>
      <trkpt lat="43.97053" lon="3.02211">
        <ele>560.8</ele>
        <time>2026-04-30T09:48:11.999Z</time>
      </trkpt>
      <trkpt lat="43.97053" lon="3.02211">
        <ele>560.8</ele>
        <time>2026-04-30T09:48:12.999Z</time>
      </trkpt>
      <trkpt lat="43.97053" lon="3.02211">
        <ele>561</ele>
        <time>2026-04-30T09:48:13.999Z</time>
      </trkpt>
      <trkpt lat="43.97053" lon="3.02211">
        <ele>561</ele>
        <time>2026-04-30T09:48:14.999Z</time>
      </trkpt>
      <trkpt lat="43.97053" lon="3.02212">
        <ele>560.7</ele>
        <time>2026-04-30T09:48:15.999Z</time>
      </trkpt>
      <trkpt lat="43.97053" lon="3.02212">
        <ele>560.7</ele>
        <time>2026-04-30T09:48:16.999Z</time>
      </trkpt>
      <trkpt lat="43.97053" lon="3.02212">
        <ele>560.7</ele>
        <time>2026-04-30T09:48:17.999Z</time>
      </trkpt>
      <trkpt lat="43.97053" lon="3.02212">
        <ele>560.9</ele>
        <time>2026-04-30T09:48:18.999Z</time>
      </trkpt>
      <trkpt lat="43.97053" lon="3.02212">
        <ele>560.8</ele>
        <time>2026-04-30T09:48:19.999Z</time>
      </trkpt>
      <trkpt lat="43.97054" lon="3.02212">
        <ele>560.5</ele>
        <time>2026-04-30T09:48:20.999Z</time>
      </trkpt>
      <trkpt lat="43.97054" lon="3.02212">
        <ele>560.1</ele>
        <time>2026-04-30T09:48:21.999Z</time>
      </trkpt>
      <trkpt lat="43.97054" lon="3.02213">
        <ele>559.8</ele>
        <time>2026-04-30T09:48:22.999Z</time>
      </trkpt>
      <trkpt lat="43.97054" lon="3.02213">
        <ele>559.6</ele>
        <time>2026-04-30T09:48:23.999Z</time>
      </trkpt>
      <trkpt lat="43.97054" lon="3.02213">
        <ele>559.3</ele>
        <time>2026-04-30T09:48:24.999Z</time>
      </trkpt>
      <trkpt lat="43.97054" lon="3.02213">
        <ele>559.2</ele>
        <time>2026-04-30T09:48:26.000Z</time>
      </trkpt>
      <trkpt lat="43.97054" lon="3.02214">
        <ele>558.9</ele>
        <time>2026-04-30T09:48:27.000Z</time>
      </trkpt>
      <trkpt lat="43.97054" lon="3.02214">
        <ele>558.7</ele>
        <time>2026-04-30T09:48:28.000Z</time>
      </trkpt>
      <trkpt lat="43.97055" lon="3.02215">
        <ele>558.5</ele>
        <time>2026-04-30T09:48:29.000Z</time>
      </trkpt>
      <trkpt lat="43.97056" lon="3.02216">
        <ele>558.5</ele>
        <time>2026-04-30T09:48:30.000Z</time>
      </trkpt>
      <trkpt lat="43.97058" lon="3.02218">
        <ele>558.7</ele>
        <time>2026-04-30T09:48:31.000Z</time>
      </trkpt>
      <trkpt lat="43.97059" lon="3.02219">
        <ele>558.3</ele>
        <time>2026-04-30T09:48:32.000Z</time>
      </trkpt>
      <trkpt lat="43.9706" lon="3.02219">
        <ele>558</ele>
        <time>2026-04-30T09:48:33.000Z</time>
      </trkpt>
      <trkpt lat="43.9706" lon="3.0222">
        <ele>557.7</ele>
        <time>2026-04-30T09:48:34.000Z</time>
      </trkpt>
      <trkpt lat="43.97061" lon="3.02221">
        <ele>557.6</ele>
        <time>2026-04-30T09:48:35.000Z</time>
      </trkpt>
      <trkpt lat="43.97061" lon="3.02222">
        <ele>557.4</ele>
        <time>2026-04-30T09:48:36.000Z</time>
      </trkpt>
      <trkpt lat="43.97062" lon="3.02223">
        <ele>557.2</ele>
        <time>2026-04-30T09:48:37.000Z</time>
      </trkpt>
      <trkpt lat="43.97062" lon="3.02223">
        <ele>557.1</ele>
        <time>2026-04-30T09:48:38.000Z</time>
      </trkpt>
      <trkpt lat="43.97063" lon="3.02222">
        <ele>557.1</ele>
        <time>2026-04-30T09:48:39.000Z</time>
      </trkpt>
      <trkpt lat="43.97063" lon="3.02222">
        <ele>557</ele>
        <time>2026-04-30T09:48:40.000Z</time>
      </trkpt>
      <trkpt lat="43.97063" lon="3.02222">
        <ele>556.8</ele>
        <time>2026-04-30T09:48:41.000Z</time>
      </trkpt>
      <trkpt lat="43.97063" lon="3.02222">
        <ele>556.4</ele>
        <time>2026-04-30T09:48:42.000Z</time>
      </trkpt>
      <trkpt lat="43.97063" lon="3.02223">
        <ele>556.2</ele>
        <time>2026-04-30T09:48:43.000Z</time>
      </trkpt>
      <trkpt lat="43.97064" lon="3.02223">
        <ele>556</ele>
        <time>2026-04-30T09:48:44.000Z</time>
      </trkpt>
      <trkpt lat="43.97066" lon="3.02224">
        <ele>556.2</ele>
        <time>2026-04-30T09:48:45.000Z</time>
      </trkpt>
      <trkpt lat="43.97067" lon="3.02225">
        <ele>556.1</ele>
        <time>2026-04-30T09:48:46.000Z</time>
      </trkpt>
      <trkpt lat="43.97068" lon="3.02226">
        <ele>556.3</ele>
        <time>2026-04-30T09:48:47.000Z</time>
      </trkpt>
      <trkpt lat="43.97069" lon="3.02226">
        <ele>556.6</ele>
        <time>2026-04-30T09:48:48.000Z</time>
      </trkpt>
      <trkpt lat="43.9707" lon="3.02227">
        <ele>556.7</ele>
        <time>2026-04-30T09:48:49.000Z</time>
      </trkpt>
      <trkpt lat="43.97071" lon="3.02228">
        <ele>556.8</ele>
        <time>2026-04-30T09:48:50.000Z</time>
      </trkpt>
      <trkpt lat="43.97072" lon="3.02228">
        <ele>556.6</ele>
        <time>2026-04-30T09:48:51.000Z</time>
      </trkpt>
      <trkpt lat="43.97073" lon="3.02229">
        <ele>556.7</ele>
        <time>2026-04-30T09:48:52.000Z</time>
      </trkpt>
      <trkpt lat="43.97073" lon="3.0223">
        <ele>556.8</ele>
        <time>2026-04-30T09:48:53.000Z</time>
      </trkpt>
      <trkpt lat="43.97074" lon="3.02231">
        <ele>557.2</ele>
        <time>2026-04-30T09:48:54.000Z</time>
      </trkpt>
      <trkpt lat="43.97075" lon="3.02232">
        <ele>557.5</ele>
        <time>2026-04-30T09:48:55.000Z</time>
      </trkpt>
      <trkpt lat="43.97076" lon="3.02234">
        <ele>557.7</ele>
        <time>2026-04-30T09:48:56.000Z</time>
      </trkpt>
      <trkpt lat="43.97077" lon="3.02234">
        <ele>557.9</ele>
        <time>2026-04-30T09:48:57.000Z</time>
      </trkpt>
      <trkpt lat="43.97078" lon="3.02235">
        <ele>558.2</ele>
        <time>2026-04-30T09:48:58.000Z</time>
      </trkpt>
      <trkpt lat="43.97079" lon="3.02236">
        <ele>558.2</ele>
        <time>2026-04-30T09:48:59.000Z</time>
      </trkpt>
      <trkpt lat="43.9708" lon="3.02236">
        <ele>558.1</ele>
        <time>2026-04-30T09:49:00.000Z</time>
      </trkpt>
      <trkpt lat="43.97081" lon="3.02237">
        <ele>558.5</ele>
        <time>2026-04-30T09:49:01.000Z</time>
      </trkpt>
      <trkpt lat="43.97082" lon="3.02237">
        <ele>558.5</ele>
        <time>2026-04-30T09:49:02.000Z</time>
      </trkpt>
      <trkpt lat="43.97083" lon="3.02238">
        <ele>558.4</ele>
        <time>2026-04-30T09:49:03.000Z</time>
      </trkpt>
      <trkpt lat="43.97084" lon="3.02239">
        <ele>558</ele>
        <time>2026-04-30T09:49:04.000Z</time>
      </trkpt>
      <trkpt lat="43.97085" lon="3.0224">
        <ele>557.7</ele>
        <time>2026-04-30T09:49:05.000Z</time>
      </trkpt>
      <trkpt lat="43.97086" lon="3.0224">
        <ele>557.7</ele>
        <time>2026-04-30T09:49:06.000Z</time>
      </trkpt>
      <trkpt lat="43.97086" lon="3.02241">
        <ele>558.2</ele>
        <time>2026-04-30T09:49:07.000Z</time>
      </trkpt>
      <trkpt lat="43.97086" lon="3.02241">
        <ele>557.5</ele>
        <time>2026-04-30T09:49:08.000Z</time>
      </trkpt>
      <trkpt lat="43.97085" lon="3.02242">
        <ele>557</ele>
        <time>2026-04-30T09:49:09.000Z</time>
      </trkpt>
      <trkpt lat="43.97085" lon="3.02242">
        <ele>556.5</ele>
        <time>2026-04-30T09:49:10.000Z</time>
      </trkpt>
      <trkpt lat="43.97086" lon="3.02243">
        <ele>556.2</ele>
        <time>2026-04-30T09:49:11.000Z</time>
      </trkpt>
      <trkpt lat="43.97087" lon="3.02244">
        <ele>555.8</ele>
        <time>2026-04-30T09:49:12.000Z</time>
      </trkpt>
      <trkpt lat="43.97088" lon="3.02245">
        <ele>555.7</ele>
        <time>2026-04-30T09:49:13.000Z</time>
      </trkpt>
      <trkpt lat="43.97088" lon="3.02245">
        <ele>555.8</ele>
        <time>2026-04-30T09:49:14.000Z</time>
      </trkpt>
      <trkpt lat="43.97089" lon="3.02246">
        <ele>555.9</ele>
        <time>2026-04-30T09:49:15.000Z</time>
      </trkpt>
      <trkpt lat="43.97089" lon="3.02247">
        <ele>555.9</ele>
        <time>2026-04-30T09:49:16.000Z</time>
      </trkpt>
      <trkpt lat="43.9709" lon="3.02249">
        <ele>555.8</ele>
        <time>2026-04-30T09:49:17.000Z</time>
      </trkpt>
      <trkpt lat="43.97092" lon="3.02251">
        <ele>556.6</ele>
        <time>2026-04-30T09:49:19.000Z</time>
      </trkpt>
      <trkpt lat="43.97092" lon="3.02252">
        <ele>556.5</ele>
        <time>2026-04-30T09:49:20.000Z</time>
      </trkpt>
      <trkpt lat="43.97093" lon="3.02253">
        <ele>556.6</ele>
        <time>2026-04-30T09:49:21.000Z</time>
      </trkpt>
      <trkpt lat="43.97095" lon="3.02253">
        <ele>556.7</ele>
        <time>2026-04-30T09:49:22.000Z</time>
      </trkpt>
      <trkpt lat="43.97095" lon="3.02254">
        <ele>556.5</ele>
        <time>2026-04-30T09:49:23.000Z</time>
      </trkpt>
      <trkpt lat="43.97096" lon="3.02255">
        <ele>556.4</ele>
        <time>2026-04-30T09:49:24.000Z</time>
      </trkpt>
      <trkpt lat="43.97096" lon="3.02256">
        <ele>556.9</ele>
        <time>2026-04-30T09:49:25.000Z</time>
      </trkpt>
      <trkpt lat="43.97097" lon="3.02257">
        <ele>556.9</ele>
        <time>2026-04-30T09:49:26.000Z</time>
      </trkpt>
      <trkpt lat="43.97098" lon="3.02258">
        <ele>557.2</ele>
        <time>2026-04-30T09:49:27.000Z</time>
      </trkpt>
      <trkpt lat="43.97099" lon="3.02259">
        <ele>557.4</ele>
        <time>2026-04-30T09:49:28.000Z</time>
      </trkpt>
      <trkpt lat="43.97099" lon="3.02259">
        <ele>557.8</ele>
        <time>2026-04-30T09:49:29.000Z</time>
      </trkpt>
      <trkpt lat="43.97099" lon="3.0226">
        <ele>557.8</ele>
        <time>2026-04-30T09:49:30.000Z</time>
      </trkpt>
      <trkpt lat="43.971" lon="3.02261">
        <ele>557.9</ele>
        <time>2026-04-30T09:49:31.000Z</time>
      </trkpt>
      <trkpt lat="43.971" lon="3.02263">
        <ele>558.1</ele>
        <time>2026-04-30T09:49:32.000Z</time>
      </trkpt>
      <trkpt lat="43.97101" lon="3.02264">
        <ele>558.6</ele>
        <time>2026-04-30T09:49:33.000Z</time>
      </trkpt>
      <trkpt lat="43.97101" lon="3.02266">
        <ele>558.8</ele>
        <time>2026-04-30T09:49:34.000Z</time>
      </trkpt>
      <trkpt lat="43.97102" lon="3.02267">
        <ele>559</ele>
        <time>2026-04-30T09:49:35.000Z</time>
      </trkpt>
      <trkpt lat="43.97102" lon="3.02268">
        <ele>559.2</ele>
        <time>2026-04-30T09:49:36.000Z</time>
      </trkpt>
      <trkpt lat="43.97102" lon="3.02269">
        <ele>559.7</ele>
        <time>2026-04-30T09:49:37.000Z</time>
      </trkpt>
      <trkpt lat="43.97103" lon="3.0227">
        <ele>559.8</ele>
        <time>2026-04-30T09:49:38.000Z</time>
      </trkpt>
      <trkpt lat="43.97103" lon="3.02272">
        <ele>560</ele>
        <time>2026-04-30T09:49:39.000Z</time>
      </trkpt>
      <trkpt lat="43.97103" lon="3.02274">
        <ele>560.1</ele>
        <time>2026-04-30T09:49:40.000Z</time>
      </trkpt>
      <trkpt lat="43.97104" lon="3.02275">
        <ele>560.4</ele>
        <time>2026-04-30T09:49:41.000Z</time>
      </trkpt>
      <trkpt lat="43.97104" lon="3.02275">
        <ele>560.2</ele>
        <time>2026-04-30T09:49:42.000Z</time>
      </trkpt>
      <trkpt lat="43.97104" lon="3.02275">
        <ele>559.8</ele>
        <time>2026-04-30T09:49:43.000Z</time>
      </trkpt>
      <trkpt lat="43.97104" lon="3.02276">
        <ele>560.1</ele>
        <time>2026-04-30T09:49:44.000Z</time>
      </trkpt>
      <trkpt lat="43.97104" lon="3.02276">
        <ele>561.5</ele>
        <time>2026-04-30T09:49:45.000Z</time>
      </trkpt>
      <trkpt lat="43.97104" lon="3.02277">
        <ele>561.4</ele>
        <time>2026-04-30T09:49:46.000Z</time>
      </trkpt>
      <trkpt lat="43.97105" lon="3.02278">
        <ele>561.4</ele>
        <time>2026-04-30T09:49:47.000Z</time>
      </trkpt>
      <trkpt lat="43.97105" lon="3.0228">
        <ele>561.2</ele>
        <time>2026-04-30T09:49:48.000Z</time>
      </trkpt>
      <trkpt lat="43.97106" lon="3.02281">
        <ele>560.7</ele>
        <time>2026-04-30T09:49:49.000Z</time>
      </trkpt>
      <trkpt lat="43.97107" lon="3.02282">
        <ele>560.4</ele>
        <time>2026-04-30T09:49:50.000Z</time>
      </trkpt>
      <trkpt lat="43.97108" lon="3.02282">
        <ele>560.2</ele>
        <time>2026-04-30T09:49:51.000Z</time>
      </trkpt>
      <trkpt lat="43.97108" lon="3.02282">
        <ele>560.1</ele>
        <time>2026-04-30T09:49:52.000Z</time>
      </trkpt>
      <trkpt lat="43.97109" lon="3.02281">
        <ele>559.6</ele>
        <time>2026-04-30T09:49:53.000Z</time>
      </trkpt>
      <trkpt lat="43.97108" lon="3.02281">
        <ele>559.4</ele>
        <time>2026-04-30T09:49:54.000Z</time>
      </trkpt>
      <trkpt lat="43.97108" lon="3.02281">
        <ele>559.8</ele>
        <time>2026-04-30T09:49:55.000Z</time>
      </trkpt>
      <trkpt lat="43.97108" lon="3.02281">
        <ele>559.7</ele>
        <time>2026-04-30T09:49:56.000Z</time>
      </trkpt>
      <trkpt lat="43.97108" lon="3.02281">
        <ele>559.7</ele>
        <time>2026-04-30T09:49:57.000Z</time>
      </trkpt>
      <trkpt lat="43.97108" lon="3.0228">
        <ele>559.6</ele>
        <time>2026-04-30T09:49:58.000Z</time>
      </trkpt>
      <trkpt lat="43.97108" lon="3.0228">
        <ele>559.8</ele>
        <time>2026-04-30T09:49:59.000Z</time>
      </trkpt>
      <trkpt lat="43.97108" lon="3.0228">
        <ele>559.9</ele>
        <time>2026-04-30T09:50:00.000Z</time>
      </trkpt>
      <trkpt lat="43.97108" lon="3.0228">
        <ele>559.7</ele>
        <time>2026-04-30T09:50:01.000Z</time>
      </trkpt>
      <trkpt lat="43.97108" lon="3.0228">
        <ele>559.7</ele>
        <time>2026-04-30T09:50:02.000Z</time>
      </trkpt>
      <trkpt lat="43.97107" lon="3.0228">
        <ele>559.4</ele>
        <time>2026-04-30T09:50:03.000Z</time>
      </trkpt>
      <trkpt lat="43.97107" lon="3.0228">
        <ele>559.1</ele>
        <time>2026-04-30T09:50:04.000Z</time>
      </trkpt>
      <trkpt lat="43.97107" lon="3.02279">
        <ele>559</ele>
        <time>2026-04-30T09:50:05.000Z</time>
      </trkpt>
      <trkpt lat="43.97107" lon="3.02279">
        <ele>558.8</ele>
        <time>2026-04-30T09:50:06.000Z</time>
      </trkpt>
      <trkpt lat="43.97107" lon="3.0228">
        <ele>558.8</ele>
        <time>2026-04-30T09:50:07.000Z</time>
      </trkpt>
      <trkpt lat="43.97107" lon="3.0228">
        <ele>558.8</ele>
        <time>2026-04-30T09:50:08.000Z</time>
      </trkpt>
      <trkpt lat="43.97107" lon="3.0228">
        <ele>559</ele>
        <time>2026-04-30T09:50:09.000Z</time>
      </trkpt>
      <trkpt lat="43.97108" lon="3.0228">
        <ele>559.1</ele>
        <time>2026-04-30T09:50:10.000Z</time>
      </trkpt>
      <trkpt lat="43.97109" lon="3.02282">
        <ele>559.6</ele>
        <time>2026-04-30T09:50:11.000Z</time>
      </trkpt>
      <trkpt lat="43.97111" lon="3.02283">
        <ele>560.1</ele>
        <time>2026-04-30T09:50:12.000Z</time>
      </trkpt>
      <trkpt lat="43.97112" lon="3.02285">
        <ele>560.2</ele>
        <time>2026-04-30T09:50:13.000Z</time>
      </trkpt>
      <trkpt lat="43.97114" lon="3.02286">
        <ele>560.3</ele>
        <time>2026-04-30T09:50:14.000Z</time>
      </trkpt>
      <trkpt lat="43.97115" lon="3.02286">
        <ele>560.1</ele>
        <time>2026-04-30T09:50:15.000Z</time>
      </trkpt>
      <trkpt lat="43.97118" lon="3.02288">
        <ele>560.1</ele>
        <time>2026-04-30T09:50:16.000Z</time>
      </trkpt>
      <trkpt lat="43.97119" lon="3.02289">
        <ele>560.4</ele>
        <time>2026-04-30T09:50:17.000Z</time>
      </trkpt>
      <trkpt lat="43.97121" lon="3.0229">
        <ele>560.2</ele>
        <time>2026-04-30T09:50:18.000Z</time>
      </trkpt>
      <trkpt lat="43.97122" lon="3.02291">
        <ele>560.3</ele>
        <time>2026-04-30T09:50:19.000Z</time>
      </trkpt>
      <trkpt lat="43.97123" lon="3.02292">
        <ele>560</ele>
        <time>2026-04-30T09:50:20.000Z</time>
      </trkpt>
      <trkpt lat="43.97124" lon="3.02294">
        <ele>559.7</ele>
        <time>2026-04-30T09:50:21.000Z</time>
      </trkpt>
      <trkpt lat="43.97125" lon="3.02296">
        <ele>560</ele>
        <time>2026-04-30T09:50:22.000Z</time>
      </trkpt>
      <trkpt lat="43.97126" lon="3.02298">
        <ele>559.9</ele>
        <time>2026-04-30T09:50:23.000Z</time>
      </trkpt>
      <trkpt lat="43.97126" lon="3.023">
        <ele>559.6</ele>
        <time>2026-04-30T09:50:24.000Z</time>
      </trkpt>
      <trkpt lat="43.97123" lon="3.02303">
        <ele>559.1</ele>
        <time>2026-04-30T09:50:26.000Z</time>
      </trkpt>
      <trkpt lat="43.97122" lon="3.02306">
        <ele>559</ele>
        <time>2026-04-30T09:50:27.000Z</time>
      </trkpt>
      <trkpt lat="43.97121" lon="3.02307">
        <ele>558.5</ele>
        <time>2026-04-30T09:50:28.000Z</time>
      </trkpt>
      <trkpt lat="43.9712" lon="3.02309">
        <ele>558</ele>
        <time>2026-04-30T09:50:29.000Z</time>
      </trkpt>
      <trkpt lat="43.97119" lon="3.02311">
        <ele>557.4</ele>
        <time>2026-04-30T09:50:30.000Z</time>
      </trkpt>
      <trkpt lat="43.97118" lon="3.02314">
        <ele>558</ele>
        <time>2026-04-30T09:50:31.000Z</time>
      </trkpt>
      <trkpt lat="43.97118" lon="3.02316">
        <ele>559.4</ele>
        <time>2026-04-30T09:50:32.000Z</time>
      </trkpt>
      <trkpt lat="43.97118" lon="3.02318">
        <ele>559.9</ele>
        <time>2026-04-30T09:50:33.000Z</time>
      </trkpt>
      <trkpt lat="43.97118" lon="3.0232">
        <ele>560.1</ele>
        <time>2026-04-30T09:50:34.000Z</time>
      </trkpt>
      <trkpt lat="43.97118" lon="3.02322">
        <ele>560.4</ele>
        <time>2026-04-30T09:50:35.000Z</time>
      </trkpt>
      <trkpt lat="43.97117" lon="3.02324">
        <ele>560.7</ele>
        <time>2026-04-30T09:50:36.000Z</time>
      </trkpt>
      <trkpt lat="43.97118" lon="3.02327">
        <ele>561.4</ele>
        <time>2026-04-30T09:50:37.000Z</time>
      </trkpt>
      <trkpt lat="43.97118" lon="3.02328">
        <ele>562.5</ele>
        <time>2026-04-30T09:50:38.000Z</time>
      </trkpt>
      <trkpt lat="43.97117" lon="3.0233">
        <ele>562.6</ele>
        <time>2026-04-30T09:50:39.000Z</time>
      </trkpt>
      <trkpt lat="43.97117" lon="3.02331">
        <ele>562.9</ele>
        <time>2026-04-30T09:50:40.000Z</time>
      </trkpt>
      <trkpt lat="43.97117" lon="3.02332">
        <ele>562.9</ele>
        <time>2026-04-30T09:50:41.000Z</time>
      </trkpt>
      <trkpt lat="43.97117" lon="3.02333">
        <ele>563.6</ele>
        <time>2026-04-30T09:50:42.000Z</time>
      </trkpt>
      <trkpt lat="43.97118" lon="3.02335">
        <ele>564</ele>
        <time>2026-04-30T09:50:43.000Z</time>
      </trkpt>
      <trkpt lat="43.97118" lon="3.02338">
        <ele>564.7</ele>
        <time>2026-04-30T09:50:44.000Z</time>
      </trkpt>
      <trkpt lat="43.97118" lon="3.0234">
        <ele>565</ele>
        <time>2026-04-30T09:50:45.000Z</time>
      </trkpt>
      <trkpt lat="43.97118" lon="3.02342">
        <ele>565.4</ele>
        <time>2026-04-30T09:50:46.000Z</time>
      </trkpt>
      <trkpt lat="43.97119" lon="3.02343">
        <ele>565.8</ele>
        <time>2026-04-30T09:50:47.000Z</time>
      </trkpt>
      <trkpt lat="43.97119" lon="3.02345">
        <ele>566.1</ele>
        <time>2026-04-30T09:50:48.000Z</time>
      </trkpt>
      <trkpt lat="43.97119" lon="3.02346">
        <ele>566.2</ele>
        <time>2026-04-30T09:50:49.000Z</time>
      </trkpt>
      <trkpt lat="43.9712" lon="3.02347">
        <ele>566</ele>
        <time>2026-04-30T09:50:50.000Z</time>
      </trkpt>
      <trkpt lat="43.9712" lon="3.02349">
        <ele>566.5</ele>
        <time>2026-04-30T09:50:51.000Z</time>
      </trkpt>
      <trkpt lat="43.97121" lon="3.02351">
        <ele>566.7</ele>
        <time>2026-04-30T09:50:52.000Z</time>
      </trkpt>
      <trkpt lat="43.97121" lon="3.02352">
        <ele>567</ele>
        <time>2026-04-30T09:50:53.000Z</time>
      </trkpt>
      <trkpt lat="43.97122" lon="3.02354">
        <ele>567.2</ele>
        <time>2026-04-30T09:50:54.000Z</time>
      </trkpt>
      <trkpt lat="43.97122" lon="3.02355">
        <ele>567.3</ele>
        <time>2026-04-30T09:50:55.000Z</time>
      </trkpt>
      <trkpt lat="43.97122" lon="3.02357">
        <ele>567</ele>
        <time>2026-04-30T09:50:56.000Z</time>
      </trkpt>
      <trkpt lat="43.97122" lon="3.02358">
        <ele>566.1</ele>
        <time>2026-04-30T09:50:57.000Z</time>
      </trkpt>
      <trkpt lat="43.97123" lon="3.0236">
        <ele>565.9</ele>
        <time>2026-04-30T09:50:58.000Z</time>
      </trkpt>
      <trkpt lat="43.97124" lon="3.02362">
        <ele>566</ele>
        <time>2026-04-30T09:50:59.000Z</time>
      </trkpt>
      <trkpt lat="43.97125" lon="3.02364">
        <ele>566.1</ele>
        <time>2026-04-30T09:51:00.000Z</time>
      </trkpt>
      <trkpt lat="43.97126" lon="3.02365">
        <ele>565.9</ele>
        <time>2026-04-30T09:51:01.000Z</time>
      </trkpt>
      <trkpt lat="43.97127" lon="3.02365">
        <ele>565.4</ele>
        <time>2026-04-30T09:51:02.000Z</time>
      </trkpt>
      <trkpt lat="43.97127" lon="3.02366">
        <ele>565</ele>
        <time>2026-04-30T09:51:03.000Z</time>
      </trkpt>
      <trkpt lat="43.97127" lon="3.02367">
        <ele>564.8</ele>
        <time>2026-04-30T09:51:04.000Z</time>
      </trkpt>
      <trkpt lat="43.97128" lon="3.02369">
        <ele>564.8</ele>
        <time>2026-04-30T09:51:05.000Z</time>
      </trkpt>
      <trkpt lat="43.97128" lon="3.0237">
        <ele>565.2</ele>
        <time>2026-04-30T09:51:06.000Z</time>
      </trkpt>
      <trkpt lat="43.97128" lon="3.02371">
        <ele>565.4</ele>
        <time>2026-04-30T09:51:07.000Z</time>
      </trkpt>
      <trkpt lat="43.97129" lon="3.02373">
        <ele>566</ele>
        <time>2026-04-30T09:51:08.000Z</time>
      </trkpt>
      <trkpt lat="43.97129" lon="3.02374">
        <ele>566.7</ele>
        <time>2026-04-30T09:51:09.000Z</time>
      </trkpt>
      <trkpt lat="43.9713" lon="3.02375">
        <ele>567</ele>
        <time>2026-04-30T09:51:10.000Z</time>
      </trkpt>
      <trkpt lat="43.97131" lon="3.02376">
        <ele>567</ele>
        <time>2026-04-30T09:51:11.000Z</time>
      </trkpt>
      <trkpt lat="43.97132" lon="3.02379">
        <ele>567.1</ele>
        <time>2026-04-30T09:51:12.000Z</time>
      </trkpt>
      <trkpt lat="43.97133" lon="3.02381">
        <ele>566.6</ele>
        <time>2026-04-30T09:51:13.000Z</time>
      </trkpt>
      <trkpt lat="43.97133" lon="3.02383">
        <ele>566.6</ele>
        <time>2026-04-30T09:51:14.000Z</time>
      </trkpt>
      <trkpt lat="43.97134" lon="3.02384">
        <ele>566.8</ele>
        <time>2026-04-30T09:51:15.000Z</time>
      </trkpt>
      <trkpt lat="43.97134" lon="3.02385">
        <ele>566.8</ele>
        <time>2026-04-30T09:51:16.000Z</time>
      </trkpt>
      <trkpt lat="43.97134" lon="3.02386">
        <ele>566.5</ele>
        <time>2026-04-30T09:51:17.000Z</time>
      </trkpt>
      <trkpt lat="43.97135" lon="3.02386">
        <ele>566.5</ele>
        <time>2026-04-30T09:51:18.000Z</time>
      </trkpt>
      <trkpt lat="43.97135" lon="3.02389">
        <ele>566.8</ele>
        <time>2026-04-30T09:51:19.000Z</time>
      </trkpt>
      <trkpt lat="43.97135" lon="3.02391">
        <ele>566.7</ele>
        <time>2026-04-30T09:51:20.000Z</time>
      </trkpt>
      <trkpt lat="43.97135" lon="3.02393">
        <ele>566.7</ele>
        <time>2026-04-30T09:51:21.000Z</time>
      </trkpt>
      <trkpt lat="43.97136" lon="3.02395">
        <ele>566.9</ele>
        <time>2026-04-30T09:51:22.000Z</time>
      </trkpt>
      <trkpt lat="43.97136" lon="3.02397">
        <ele>566.9</ele>
        <time>2026-04-30T09:51:23.000Z</time>
      </trkpt>
      <trkpt lat="43.97137" lon="3.02398">
        <ele>567.2</ele>
        <time>2026-04-30T09:51:24.000Z</time>
      </trkpt>
      <trkpt lat="43.97137" lon="3.02399">
        <ele>567.3</ele>
        <time>2026-04-30T09:51:25.000Z</time>
      </trkpt>
      <trkpt lat="43.97137" lon="3.024">
        <ele>567.2</ele>
        <time>2026-04-30T09:51:26.000Z</time>
      </trkpt>
      <trkpt lat="43.97137" lon="3.02401">
        <ele>567.1</ele>
        <time>2026-04-30T09:51:27.000Z</time>
      </trkpt>
      <trkpt lat="43.97137" lon="3.02403">
        <ele>566.9</ele>
        <time>2026-04-30T09:51:28.000Z</time>
      </trkpt>
      <trkpt lat="43.97137" lon="3.02406">
        <ele>566.7</ele>
        <time>2026-04-30T09:51:29.000Z</time>
      </trkpt>
      <trkpt lat="43.97138" lon="3.02409">
        <ele>566.8</ele>
        <time>2026-04-30T09:51:30.000Z</time>
      </trkpt>
      <trkpt lat="43.97138" lon="3.02411">
        <ele>567.3</ele>
        <time>2026-04-30T09:51:31.000Z</time>
      </trkpt>
      <trkpt lat="43.97138" lon="3.02413">
        <ele>567.6</ele>
        <time>2026-04-30T09:51:32.000Z</time>
      </trkpt>
      <trkpt lat="43.97138" lon="3.02414">
        <ele>567.8</ele>
        <time>2026-04-30T09:51:33.000Z</time>
      </trkpt>
      <trkpt lat="43.97138" lon="3.02416">
        <ele>568</ele>
        <time>2026-04-30T09:51:34.000Z</time>
      </trkpt>
      <trkpt lat="43.97137" lon="3.02417">
        <ele>567.9</ele>
        <time>2026-04-30T09:51:35.000Z</time>
      </trkpt>
      <trkpt lat="43.97138" lon="3.0242">
        <ele>567.7</ele>
        <time>2026-04-30T09:51:36.000Z</time>
      </trkpt>
      <trkpt lat="43.97138" lon="3.02422">
        <ele>567.1</ele>
        <time>2026-04-30T09:51:37.000Z</time>
      </trkpt>
      <trkpt lat="43.97137" lon="3.02423">
        <ele>567.2</ele>
        <time>2026-04-30T09:51:38.000Z</time>
      </trkpt>
      <trkpt lat="43.97137" lon="3.02424">
        <ele>567.1</ele>
        <time>2026-04-30T09:51:39.000Z</time>
      </trkpt>
      <trkpt lat="43.97137" lon="3.02425">
        <ele>566.3</ele>
        <time>2026-04-30T09:51:40.000Z</time>
      </trkpt>
      <trkpt lat="43.97138" lon="3.02426">
        <ele>566.2</ele>
        <time>2026-04-30T09:51:41.000Z</time>
      </trkpt>
      <trkpt lat="43.97138" lon="3.02428">
        <ele>565.9</ele>
        <time>2026-04-30T09:51:42.000Z</time>
      </trkpt>
      <trkpt lat="43.97137" lon="3.02429">
        <ele>565.7</ele>
        <time>2026-04-30T09:51:43.000Z</time>
      </trkpt>
      <trkpt lat="43.97137" lon="3.0243">
        <ele>566</ele>
        <time>2026-04-30T09:51:44.000Z</time>
      </trkpt>
      <trkpt lat="43.97137" lon="3.02432">
        <ele>565.9</ele>
        <time>2026-04-30T09:51:45.000Z</time>
      </trkpt>
      <trkpt lat="43.97137" lon="3.02434">
        <ele>565.9</ele>
        <time>2026-04-30T09:51:46.000Z</time>
      </trkpt>
      <trkpt lat="43.97137" lon="3.02435">
        <ele>565.9</ele>
        <time>2026-04-30T09:51:47.000Z</time>
      </trkpt>
      <trkpt lat="43.97138" lon="3.02437">
        <ele>566.2</ele>
        <time>2026-04-30T09:51:48.000Z</time>
      </trkpt>
      <trkpt lat="43.97137" lon="3.02439">
        <ele>566.7</ele>
        <time>2026-04-30T09:51:49.000Z</time>
      </trkpt>
      <trkpt lat="43.97137" lon="3.02441">
        <ele>566.7</ele>
        <time>2026-04-30T09:51:50.000Z</time>
      </trkpt>
      <trkpt lat="43.97137" lon="3.02442">
        <ele>566.6</ele>
        <time>2026-04-30T09:51:51.000Z</time>
      </trkpt>
      <trkpt lat="43.97137" lon="3.02444">
        <ele>566.9</ele>
        <time>2026-04-30T09:51:52.000Z</time>
      </trkpt>
      <trkpt lat="43.97137" lon="3.02446">
        <ele>567</ele>
        <time>2026-04-30T09:51:53.000Z</time>
      </trkpt>
      <trkpt lat="43.97137" lon="3.02448">
        <ele>567</ele>
        <time>2026-04-30T09:51:54.000Z</time>
      </trkpt>
      <trkpt lat="43.97137" lon="3.0245">
        <ele>567.1</ele>
        <time>2026-04-30T09:51:55.000Z</time>
      </trkpt>
      <trkpt lat="43.97137" lon="3.02452">
        <ele>567.2</ele>
        <time>2026-04-30T09:51:56.000Z</time>
      </trkpt>
      <trkpt lat="43.97136" lon="3.02454">
        <ele>567.6</ele>
        <time>2026-04-30T09:51:57.000Z</time>
      </trkpt>
      <trkpt lat="43.97136" lon="3.02455">
        <ele>567.7</ele>
        <time>2026-04-30T09:51:58.000Z</time>
      </trkpt>
      <trkpt lat="43.97137" lon="3.02456">
        <ele>568.1</ele>
        <time>2026-04-30T09:51:59.000Z</time>
      </trkpt>
      <trkpt lat="43.97137" lon="3.02458">
        <ele>568.4</ele>
        <time>2026-04-30T09:52:00.000Z</time>
      </trkpt>
      <trkpt lat="43.97137" lon="3.0246">
        <ele>569</ele>
        <time>2026-04-30T09:52:01.000Z</time>
      </trkpt>
      <trkpt lat="43.97137" lon="3.02462">
        <ele>569.3</ele>
        <time>2026-04-30T09:52:02.000Z</time>
      </trkpt>
      <trkpt lat="43.97136" lon="3.02464">
        <ele>569.5</ele>
        <time>2026-04-30T09:52:03.000Z</time>
      </trkpt>
      <trkpt lat="43.97136" lon="3.02466">
        <ele>570.3</ele>
        <time>2026-04-30T09:52:04.000Z</time>
      </trkpt>
      <trkpt lat="43.97136" lon="3.02468">
        <ele>570.6</ele>
        <time>2026-04-30T09:52:05.000Z</time>
      </trkpt>
      <trkpt lat="43.97135" lon="3.02469">
        <ele>570.6</ele>
        <time>2026-04-30T09:52:06.000Z</time>
      </trkpt>
      <trkpt lat="43.97135" lon="3.0247">
        <ele>570.5</ele>
        <time>2026-04-30T09:52:07.000Z</time>
      </trkpt>
      <trkpt lat="43.97135" lon="3.02472">
        <ele>570.3</ele>
        <time>2026-04-30T09:52:08.000Z</time>
      </trkpt>
      <trkpt lat="43.97136" lon="3.02474">
        <ele>570.1</ele>
        <time>2026-04-30T09:52:09.000Z</time>
      </trkpt>
      <trkpt lat="43.97136" lon="3.02476">
        <ele>570.1</ele>
        <time>2026-04-30T09:52:10.000Z</time>
      </trkpt>
      <trkpt lat="43.97136" lon="3.02478">
        <ele>569.7</ele>
        <time>2026-04-30T09:52:11.000Z</time>
      </trkpt>
      <trkpt lat="43.97137" lon="3.0248">
        <ele>569.7</ele>
        <time>2026-04-30T09:52:12.000Z</time>
      </trkpt>
      <trkpt lat="43.97137" lon="3.02481">
        <ele>569.3</ele>
        <time>2026-04-30T09:52:13.000Z</time>
      </trkpt>
      <trkpt lat="43.97137" lon="3.02482">
        <ele>568.6</ele>
        <time>2026-04-30T09:52:14.000Z</time>
      </trkpt>
      <trkpt lat="43.97137" lon="3.02483">
        <ele>567.8</ele>
        <time>2026-04-30T09:52:15.000Z</time>
      </trkpt>
      <trkpt lat="43.97137" lon="3.02484">
        <ele>567.9</ele>
        <time>2026-04-30T09:52:16.000Z</time>
      </trkpt>
      <trkpt lat="43.97138" lon="3.02485">
        <ele>567.9</ele>
        <time>2026-04-30T09:52:17.000Z</time>
      </trkpt>
      <trkpt lat="43.97138" lon="3.02488">
        <ele>567.8</ele>
        <time>2026-04-30T09:52:18.000Z</time>
      </trkpt>
      <trkpt lat="43.97139" lon="3.02489">
        <ele>568</ele>
        <time>2026-04-30T09:52:19.000Z</time>
      </trkpt>
      <trkpt lat="43.97139" lon="3.02491">
        <ele>568</ele>
        <time>2026-04-30T09:52:20.000Z</time>
      </trkpt>
      <trkpt lat="43.97139" lon="3.02493">
        <ele>568</ele>
        <time>2026-04-30T09:52:21.000Z</time>
      </trkpt>
      <trkpt lat="43.97139" lon="3.02495">
        <ele>568.1</ele>
        <time>2026-04-30T09:52:22.000Z</time>
      </trkpt>
      <trkpt lat="43.97139" lon="3.02497">
        <ele>568.5</ele>
        <time>2026-04-30T09:52:23.000Z</time>
      </trkpt>
      <trkpt lat="43.9714" lon="3.02498">
        <ele>568.7</ele>
        <time>2026-04-30T09:52:24.000Z</time>
      </trkpt>
      <trkpt lat="43.9714" lon="3.025">
        <ele>568.1</ele>
        <time>2026-04-30T09:52:25.000Z</time>
      </trkpt>
      <trkpt lat="43.97141" lon="3.02502">
        <ele>567.8</ele>
        <time>2026-04-30T09:52:26.000Z</time>
      </trkpt>
      <trkpt lat="43.97143" lon="3.02504">
        <ele>568.2</ele>
        <time>2026-04-30T09:52:27.000Z</time>
      </trkpt>
      <trkpt lat="43.97144" lon="3.02505">
        <ele>568.2</ele>
        <time>2026-04-30T09:52:28.000Z</time>
      </trkpt>
      <trkpt lat="43.97146" lon="3.02506">
        <ele>568.4</ele>
        <time>2026-04-30T09:52:29.000Z</time>
      </trkpt>
      <trkpt lat="43.97146" lon="3.02507">
        <ele>568.5</ele>
        <time>2026-04-30T09:52:30.000Z</time>
      </trkpt>
      <trkpt lat="43.97147" lon="3.02509">
        <ele>569</ele>
        <time>2026-04-30T09:52:31.000Z</time>
      </trkpt>
      <trkpt lat="43.97147" lon="3.0251">
        <ele>569</ele>
        <time>2026-04-30T09:52:32.000Z</time>
      </trkpt>
      <trkpt lat="43.97149" lon="3.0251">
        <ele>568.4</ele>
        <time>2026-04-30T09:52:33.000Z</time>
      </trkpt>
      <trkpt lat="43.9715" lon="3.02511">
        <ele>568.7</ele>
        <time>2026-04-30T09:52:34.000Z</time>
      </trkpt>
      <trkpt lat="43.97151" lon="3.02511">
        <ele>569.2</ele>
        <time>2026-04-30T09:52:35.000Z</time>
      </trkpt>
      <trkpt lat="43.97152" lon="3.02512">
        <ele>569.5</ele>
        <time>2026-04-30T09:52:36.000Z</time>
      </trkpt>
      <trkpt lat="43.97153" lon="3.02512">
        <ele>570.1</ele>
        <time>2026-04-30T09:52:37.000Z</time>
      </trkpt>
      <trkpt lat="43.97155" lon="3.02513">
        <ele>570.4</ele>
        <time>2026-04-30T09:52:38.000Z</time>
      </trkpt>
      <trkpt lat="43.97156" lon="3.02514">
        <ele>570.9</ele>
        <time>2026-04-30T09:52:39.000Z</time>
      </trkpt>
      <trkpt lat="43.97157" lon="3.02515">
        <ele>571.4</ele>
        <time>2026-04-30T09:52:40.000Z</time>
      </trkpt>
      <trkpt lat="43.97158" lon="3.02516">
        <ele>572</ele>
        <time>2026-04-30T09:52:41.000Z</time>
      </trkpt>
      <trkpt lat="43.9716" lon="3.02517">
        <ele>572.1</ele>
        <time>2026-04-30T09:52:42.000Z</time>
      </trkpt>
      <trkpt lat="43.97161" lon="3.02518">
        <ele>572.3</ele>
        <time>2026-04-30T09:52:43.000Z</time>
      </trkpt>
      <trkpt lat="43.97162" lon="3.02518">
        <ele>572.5</ele>
        <time>2026-04-30T09:52:44.000Z</time>
      </trkpt>
      <trkpt lat="43.97163" lon="3.02519">
        <ele>573</ele>
        <time>2026-04-30T09:52:45.000Z</time>
      </trkpt>
      <trkpt lat="43.97164" lon="3.02521">
        <ele>573.4</ele>
        <time>2026-04-30T09:52:46.000Z</time>
      </trkpt>
      <trkpt lat="43.97166" lon="3.02523">
        <ele>573.8</ele>
        <time>2026-04-30T09:52:47.000Z</time>
      </trkpt>
      <trkpt lat="43.97166" lon="3.02524">
        <ele>574</ele>
        <time>2026-04-30T09:52:48.000Z</time>
      </trkpt>
      <trkpt lat="43.97168" lon="3.02525">
        <ele>574.1</ele>
        <time>2026-04-30T09:52:49.000Z</time>
      </trkpt>
      <trkpt lat="43.97168" lon="3.02525">
        <ele>574.1</ele>
        <time>2026-04-30T09:52:50.000Z</time>
      </trkpt>
      <trkpt lat="43.97169" lon="3.02527">
        <ele>574</ele>
        <time>2026-04-30T09:52:51.000Z</time>
      </trkpt>
      <trkpt lat="43.97169" lon="3.02529">
        <ele>573.7</ele>
        <time>2026-04-30T09:52:52.000Z</time>
      </trkpt>
      <trkpt lat="43.97169" lon="3.02531">
        <ele>573.8</ele>
        <time>2026-04-30T09:52:53.000Z</time>
      </trkpt>
      <trkpt lat="43.97169" lon="3.02533">
        <ele>574.1</ele>
        <time>2026-04-30T09:52:54.000Z</time>
      </trkpt>
      <trkpt lat="43.97169" lon="3.02534">
        <ele>574.4</ele>
        <time>2026-04-30T09:52:55.000Z</time>
      </trkpt>
      <trkpt lat="43.9717" lon="3.02536">
        <ele>574.1</ele>
        <time>2026-04-30T09:52:56.000Z</time>
      </trkpt>
      <trkpt lat="43.9717" lon="3.02537">
        <ele>574.1</ele>
        <time>2026-04-30T09:52:57.000Z</time>
      </trkpt>
      <trkpt lat="43.97171" lon="3.02539">
        <ele>574.1</ele>
        <time>2026-04-30T09:52:58.000Z</time>
      </trkpt>
      <trkpt lat="43.97171" lon="3.0254">
        <ele>573.9</ele>
        <time>2026-04-30T09:52:59.000Z</time>
      </trkpt>
      <trkpt lat="43.97172" lon="3.02542">
        <ele>573.7</ele>
        <time>2026-04-30T09:53:00.000Z</time>
      </trkpt>
      <trkpt lat="43.97173" lon="3.02544">
        <ele>573.9</ele>
        <time>2026-04-30T09:53:01.000Z</time>
      </trkpt>
      <trkpt lat="43.97173" lon="3.02546">
        <ele>574.1</ele>
        <time>2026-04-30T09:53:02.000Z</time>
      </trkpt>
      <trkpt lat="43.97174" lon="3.02547">
        <ele>574.3</ele>
        <time>2026-04-30T09:53:03.000Z</time>
      </trkpt>
      <trkpt lat="43.97174" lon="3.02549">
        <ele>574.8</ele>
        <time>2026-04-30T09:53:04.000Z</time>
      </trkpt>
      <trkpt lat="43.97174" lon="3.02551">
        <ele>575</ele>
        <time>2026-04-30T09:53:05.000Z</time>
      </trkpt>
      <trkpt lat="43.97175" lon="3.02553">
        <ele>575</ele>
        <time>2026-04-30T09:53:06.000Z</time>
      </trkpt>
      <trkpt lat="43.97175" lon="3.02554">
        <ele>574.5</ele>
        <time>2026-04-30T09:53:07.000Z</time>
      </trkpt>
      <trkpt lat="43.97176" lon="3.02556">
        <ele>573.9</ele>
        <time>2026-04-30T09:53:08.000Z</time>
      </trkpt>
      <trkpt lat="43.97176" lon="3.02558">
        <ele>573.9</ele>
        <time>2026-04-30T09:53:09.000Z</time>
      </trkpt>
      <trkpt lat="43.97177" lon="3.02559">
        <ele>573.8</ele>
        <time>2026-04-30T09:53:10.000Z</time>
      </trkpt>
      <trkpt lat="43.97177" lon="3.02564">
        <ele>573.6</ele>
        <time>2026-04-30T09:53:12.000Z</time>
      </trkpt>
      <trkpt lat="43.97176" lon="3.02567">
        <ele>573.4</ele>
        <time>2026-04-30T09:53:13.000Z</time>
      </trkpt>
      <trkpt lat="43.97175" lon="3.02569">
        <ele>573.1</ele>
        <time>2026-04-30T09:53:14.000Z</time>
      </trkpt>
      <trkpt lat="43.97174" lon="3.02571">
        <ele>572</ele>
        <time>2026-04-30T09:53:15.000Z</time>
      </trkpt>
      <trkpt lat="43.97173" lon="3.02572">
        <ele>571.3</ele>
        <time>2026-04-30T09:53:16.000Z</time>
      </trkpt>
      <trkpt lat="43.97172" lon="3.02572">
        <ele>570.9</ele>
        <time>2026-04-30T09:53:17.000Z</time>
      </trkpt>
      <trkpt lat="43.97172" lon="3.02573">
        <ele>570.7</ele>
        <time>2026-04-30T09:53:18.000Z</time>
      </trkpt>
      <trkpt lat="43.97172" lon="3.02573">
        <ele>570.5</ele>
        <time>2026-04-30T09:53:19.000Z</time>
      </trkpt>
      <trkpt lat="43.97172" lon="3.02574">
        <ele>570.6</ele>
        <time>2026-04-30T09:53:20.000Z</time>
      </trkpt>
      <trkpt lat="43.97171" lon="3.02576">
        <ele>570.8</ele>
        <time>2026-04-30T09:53:21.000Z</time>
      </trkpt>
      <trkpt lat="43.97171" lon="3.02577">
        <ele>570.9</ele>
        <time>2026-04-30T09:53:22.000Z</time>
      </trkpt>
      <trkpt lat="43.97171" lon="3.02578">
        <ele>570.2</ele>
        <time>2026-04-30T09:53:23.000Z</time>
      </trkpt>
      <trkpt lat="43.9717" lon="3.0258">
        <ele>569.8</ele>
        <time>2026-04-30T09:53:24.000Z</time>
      </trkpt>
      <trkpt lat="43.9717" lon="3.02581">
        <ele>569.3</ele>
        <time>2026-04-30T09:53:25.000Z</time>
      </trkpt>
      <trkpt lat="43.9717" lon="3.02584">
        <ele>569.5</ele>
        <time>2026-04-30T09:53:26.000Z</time>
      </trkpt>
      <trkpt lat="43.97169" lon="3.02586">
        <ele>569.2</ele>
        <time>2026-04-30T09:53:27.000Z</time>
      </trkpt>
      <trkpt lat="43.97168" lon="3.02587">
        <ele>569.2</ele>
        <time>2026-04-30T09:53:28.000Z</time>
      </trkpt>
      <trkpt lat="43.97168" lon="3.02589">
        <ele>569</ele>
        <time>2026-04-30T09:53:29.000Z</time>
      </trkpt>
      <trkpt lat="43.97168" lon="3.0259">
        <ele>568.9</ele>
        <time>2026-04-30T09:53:30.000Z</time>
      </trkpt>
      <trkpt lat="43.97167" lon="3.02591">
        <ele>568.4</ele>
        <time>2026-04-30T09:53:31.000Z</time>
      </trkpt>
      <trkpt lat="43.97167" lon="3.02593">
        <ele>568</ele>
        <time>2026-04-30T09:53:32.000Z</time>
      </trkpt>
      <trkpt lat="43.97167" lon="3.02595">
        <ele>568.8</ele>
        <time>2026-04-30T09:53:33.000Z</time>
      </trkpt>
      <trkpt lat="43.97167" lon="3.02598">
        <ele>569.2</ele>
        <time>2026-04-30T09:53:34.000Z</time>
      </trkpt>
      <trkpt lat="43.97168" lon="3.026">
        <ele>569.7</ele>
        <time>2026-04-30T09:53:35.000Z</time>
      </trkpt>
      <trkpt lat="43.97167" lon="3.02601">
        <ele>570.1</ele>
        <time>2026-04-30T09:53:36.000Z</time>
      </trkpt>
      <trkpt lat="43.97167" lon="3.02602">
        <ele>570.8</ele>
        <time>2026-04-30T09:53:37.000Z</time>
      </trkpt>
      <trkpt lat="43.97166" lon="3.02603">
        <ele>570.3</ele>
        <time>2026-04-30T09:53:38.000Z</time>
      </trkpt>
      <trkpt lat="43.97165" lon="3.02605">
        <ele>569</ele>
        <time>2026-04-30T09:53:39.000Z</time>
      </trkpt>
      <trkpt lat="43.97165" lon="3.02607">
        <ele>567.8</ele>
        <time>2026-04-30T09:53:40.000Z</time>
      </trkpt>
      <trkpt lat="43.97164" lon="3.02609">
        <ele>567.5</ele>
        <time>2026-04-30T09:53:41.000Z</time>
      </trkpt>
      <trkpt lat="43.97163" lon="3.02611">
        <ele>566.9</ele>
        <time>2026-04-30T09:53:42.000Z</time>
      </trkpt>
      <trkpt lat="43.97163" lon="3.02613">
        <ele>566.5</ele>
        <time>2026-04-30T09:53:43.000Z</time>
      </trkpt>
      <trkpt lat="43.97162" lon="3.02614">
        <ele>566.7</ele>
        <time>2026-04-30T09:53:44.000Z</time>
      </trkpt>
      <trkpt lat="43.97162" lon="3.02616">
        <ele>567.3</ele>
        <time>2026-04-30T09:53:45.000Z</time>
      </trkpt>
      <trkpt lat="43.97162" lon="3.02617">
        <ele>567.8</ele>
        <time>2026-04-30T09:53:46.000Z</time>
      </trkpt>
      <trkpt lat="43.9716" lon="3.02619">
        <ele>568.1</ele>
        <time>2026-04-30T09:53:47.000Z</time>
      </trkpt>
      <trkpt lat="43.9716" lon="3.0262">
        <ele>567.9</ele>
        <time>2026-04-30T09:53:48.000Z</time>
      </trkpt>
      <trkpt lat="43.9716" lon="3.02622">
        <ele>567.3</ele>
        <time>2026-04-30T09:53:49.000Z</time>
      </trkpt>
      <trkpt lat="43.9716" lon="3.02624">
        <ele>567.1</ele>
        <time>2026-04-30T09:53:50.000Z</time>
      </trkpt>
      <trkpt lat="43.97159" lon="3.02626">
        <ele>567.1</ele>
        <time>2026-04-30T09:53:51.000Z</time>
      </trkpt>
      <trkpt lat="43.9716" lon="3.02627">
        <ele>567.1</ele>
        <time>2026-04-30T09:53:52.000Z</time>
      </trkpt>
      <trkpt lat="43.97159" lon="3.02629">
        <ele>567.5</ele>
        <time>2026-04-30T09:53:53.000Z</time>
      </trkpt>
      <trkpt lat="43.97159" lon="3.02631">
        <ele>567.6</ele>
        <time>2026-04-30T09:53:54.000Z</time>
      </trkpt>
      <trkpt lat="43.97158" lon="3.02633">
        <ele>567.6</ele>
        <time>2026-04-30T09:53:55.000Z</time>
      </trkpt>
      <trkpt lat="43.97157" lon="3.02636">
        <ele>567.9</ele>
        <time>2026-04-30T09:53:56.000Z</time>
      </trkpt>
      <trkpt lat="43.97157" lon="3.02638">
        <ele>567.6</ele>
        <time>2026-04-30T09:53:57.000Z</time>
      </trkpt>
      <trkpt lat="43.97157" lon="3.02639">
        <ele>568</ele>
        <time>2026-04-30T09:53:58.000Z</time>
      </trkpt>
      <trkpt lat="43.97157" lon="3.0264">
        <ele>567.5</ele>
        <time>2026-04-30T09:53:59.000Z</time>
      </trkpt>
      <trkpt lat="43.97157" lon="3.02641">
        <ele>567.2</ele>
        <time>2026-04-30T09:54:00.000Z</time>
      </trkpt>
      <trkpt lat="43.97157" lon="3.02644">
        <ele>567</ele>
        <time>2026-04-30T09:54:01.000Z</time>
      </trkpt>
      <trkpt lat="43.97157" lon="3.02647">
        <ele>567</ele>
        <time>2026-04-30T09:54:02.000Z</time>
      </trkpt>
      <trkpt lat="43.97157" lon="3.02649">
        <ele>566.9</ele>
        <time>2026-04-30T09:54:03.000Z</time>
      </trkpt>
      <trkpt lat="43.97158" lon="3.02651">
        <ele>567.2</ele>
        <time>2026-04-30T09:54:04.000Z</time>
      </trkpt>
      <trkpt lat="43.97158" lon="3.02652">
        <ele>567.5</ele>
        <time>2026-04-30T09:54:05.000Z</time>
      </trkpt>
      <trkpt lat="43.97158" lon="3.02654">
        <ele>568</ele>
        <time>2026-04-30T09:54:06.000Z</time>
      </trkpt>
      <trkpt lat="43.97158" lon="3.02656">
        <ele>568.8</ele>
        <time>2026-04-30T09:54:07.000Z</time>
      </trkpt>
      <trkpt lat="43.97157" lon="3.02657">
        <ele>568.8</ele>
        <time>2026-04-30T09:54:08.000Z</time>
      </trkpt>
      <trkpt lat="43.97157" lon="3.02658">
        <ele>568.5</ele>
        <time>2026-04-30T09:54:09.000Z</time>
      </trkpt>
      <trkpt lat="43.97158" lon="3.02659">
        <ele>568.4</ele>
        <time>2026-04-30T09:54:10.000Z</time>
      </trkpt>
      <trkpt lat="43.97158" lon="3.02661">
        <ele>568.6</ele>
        <time>2026-04-30T09:54:11.000Z</time>
      </trkpt>
      <trkpt lat="43.97159" lon="3.02663">
        <ele>569</ele>
        <time>2026-04-30T09:54:12.000Z</time>
      </trkpt>
      <trkpt lat="43.97159" lon="3.02666">
        <ele>569.3</ele>
        <time>2026-04-30T09:54:13.000Z</time>
      </trkpt>
      <trkpt lat="43.97159" lon="3.02667">
        <ele>569.5</ele>
        <time>2026-04-30T09:54:14.000Z</time>
      </trkpt>
      <trkpt lat="43.97158" lon="3.02669">
        <ele>569.6</ele>
        <time>2026-04-30T09:54:15.000Z</time>
      </trkpt>
      <trkpt lat="43.97158" lon="3.0267">
        <ele>570</ele>
        <time>2026-04-30T09:54:16.000Z</time>
      </trkpt>
      <trkpt lat="43.97157" lon="3.02671">
        <ele>570.5</ele>
        <time>2026-04-30T09:54:17.000Z</time>
      </trkpt>
      <trkpt lat="43.97157" lon="3.0267">
        <ele>570.9</ele>
        <time>2026-04-30T09:54:18.000Z</time>
      </trkpt>
      <trkpt lat="43.97157" lon="3.02669">
        <ele>571</ele>
        <time>2026-04-30T09:54:19.000Z</time>
      </trkpt>
      <trkpt lat="43.97157" lon="3.02668">
        <ele>570.9</ele>
        <time>2026-04-30T09:54:20.000Z</time>
      </trkpt>
      <trkpt lat="43.97157" lon="3.02668">
        <ele>570.7</ele>
        <time>2026-04-30T09:54:21.000Z</time>
      </trkpt>
      <trkpt lat="43.97158" lon="3.02671">
        <ele>570</ele>
        <time>2026-04-30T09:54:22.000Z</time>
      </trkpt>
      <trkpt lat="43.97158" lon="3.02674">
        <ele>569.6</ele>
        <time>2026-04-30T09:54:23.000Z</time>
      </trkpt>
      <trkpt lat="43.97158" lon="3.02673">
        <ele>569.1</ele>
        <time>2026-04-30T09:54:24.000Z</time>
      </trkpt>
      <trkpt lat="43.97159" lon="3.02673">
        <ele>568.4</ele>
        <time>2026-04-30T09:54:25.000Z</time>
      </trkpt>
      <trkpt lat="43.97158" lon="3.02673">
        <ele>567.9</ele>
        <time>2026-04-30T09:54:26.000Z</time>
      </trkpt>
      <trkpt lat="43.97159" lon="3.02673">
        <ele>567.6</ele>
        <time>2026-04-30T09:54:27.000Z</time>
      </trkpt>
      <trkpt lat="43.97159" lon="3.02673">
        <ele>567.4</ele>
        <time>2026-04-30T09:54:28.000Z</time>
      </trkpt>
      <trkpt lat="43.97159" lon="3.02674">
        <ele>567.3</ele>
        <time>2026-04-30T09:54:29.000Z</time>
      </trkpt>
      <trkpt lat="43.97158" lon="3.02676">
        <ele>567.2</ele>
        <time>2026-04-30T09:54:30.000Z</time>
      </trkpt>
      <trkpt lat="43.97158" lon="3.02679">
        <ele>567.5</ele>
        <time>2026-04-30T09:54:31.000Z</time>
      </trkpt>
      <trkpt lat="43.97157" lon="3.02682">
        <ele>568</ele>
        <time>2026-04-30T09:54:32.000Z</time>
      </trkpt>
      <trkpt lat="43.97156" lon="3.02684">
        <ele>568.3</ele>
        <time>2026-04-30T09:54:33.000Z</time>
      </trkpt>
      <trkpt lat="43.97155" lon="3.02686">
        <ele>568.5</ele>
        <time>2026-04-30T09:54:34.000Z</time>
      </trkpt>
      <trkpt lat="43.97155" lon="3.02688">
        <ele>568.9</ele>
        <time>2026-04-30T09:54:35.000Z</time>
      </trkpt>
      <trkpt lat="43.97156" lon="3.02689">
        <ele>569</ele>
        <time>2026-04-30T09:54:36.000Z</time>
      </trkpt>
      <trkpt lat="43.97156" lon="3.02691">
        <ele>569</ele>
        <time>2026-04-30T09:54:37.000Z</time>
      </trkpt>
      <trkpt lat="43.97155" lon="3.02693">
        <ele>569</ele>
        <time>2026-04-30T09:54:38.000Z</time>
      </trkpt>
      <trkpt lat="43.97155" lon="3.02694">
        <ele>569.3</ele>
        <time>2026-04-30T09:54:39.000Z</time>
      </trkpt>
      <trkpt lat="43.97155" lon="3.02696">
        <ele>569.5</ele>
        <time>2026-04-30T09:54:40.000Z</time>
      </trkpt>
      <trkpt lat="43.97154" lon="3.02698">
        <ele>569.6</ele>
        <time>2026-04-30T09:54:41.000Z</time>
      </trkpt>
      <trkpt lat="43.97153" lon="3.027">
        <ele>569.8</ele>
        <time>2026-04-30T09:54:42.000Z</time>
      </trkpt>
      <trkpt lat="43.97152" lon="3.02702">
        <ele>570.2</ele>
        <time>2026-04-30T09:54:43.000Z</time>
      </trkpt>
      <trkpt lat="43.97151" lon="3.02703">
        <ele>570.4</ele>
        <time>2026-04-30T09:54:44.000Z</time>
      </trkpt>
      <trkpt lat="43.9715" lon="3.02705">
        <ele>570.7</ele>
        <time>2026-04-30T09:54:45.000Z</time>
      </trkpt>
      <trkpt lat="43.97149" lon="3.02707">
        <ele>570.5</ele>
        <time>2026-04-30T09:54:46.000Z</time>
      </trkpt>
      <trkpt lat="43.97149" lon="3.02708">
        <ele>570.6</ele>
        <time>2026-04-30T09:54:47.000Z</time>
      </trkpt>
      <trkpt lat="43.9715" lon="3.02708">
        <ele>570.5</ele>
        <time>2026-04-30T09:54:48.000Z</time>
      </trkpt>
      <trkpt lat="43.9715" lon="3.02708">
        <ele>570.4</ele>
        <time>2026-04-30T09:54:49.000Z</time>
      </trkpt>
      <trkpt lat="43.97151" lon="3.02708">
        <ele>570.4</ele>
        <time>2026-04-30T09:54:50.000Z</time>
      </trkpt>
      <trkpt lat="43.97151" lon="3.02708">
        <ele>570.6</ele>
        <time>2026-04-30T09:54:51.000Z</time>
      </trkpt>
      <trkpt lat="43.97151" lon="3.02708">
        <ele>570.5</ele>
        <time>2026-04-30T09:54:52.000Z</time>
      </trkpt>
      <trkpt lat="43.97153" lon="3.02707">
        <ele>570.4</ele>
        <time>2026-04-30T09:54:53.000Z</time>
      </trkpt>
      <trkpt lat="43.97154" lon="3.02707">
        <ele>570.9</ele>
        <time>2026-04-30T09:54:54.000Z</time>
      </trkpt>
      <trkpt lat="43.97155" lon="3.02708">
        <ele>571.4</ele>
        <time>2026-04-30T09:54:55.000Z</time>
      </trkpt>
      <trkpt lat="43.97156" lon="3.02709">
        <ele>571.5</ele>
        <time>2026-04-30T09:54:56.000Z</time>
      </trkpt>
      <trkpt lat="43.97156" lon="3.02709">
        <ele>571.4</ele>
        <time>2026-04-30T09:54:57.000Z</time>
      </trkpt>
      <trkpt lat="43.97157" lon="3.0271">
        <ele>571.2</ele>
        <time>2026-04-30T09:54:58.000Z</time>
      </trkpt>
      <trkpt lat="43.97157" lon="3.02711">
        <ele>571.2</ele>
        <time>2026-04-30T09:54:59.000Z</time>
      </trkpt>
      <trkpt lat="43.97158" lon="3.02713">
        <ele>571.2</ele>
        <time>2026-04-30T09:55:00.000Z</time>
      </trkpt>
      <trkpt lat="43.97159" lon="3.02715">
        <ele>571.5</ele>
        <time>2026-04-30T09:55:01.000Z</time>
      </trkpt>
      <trkpt lat="43.97159" lon="3.02717">
        <ele>571.7</ele>
        <time>2026-04-30T09:55:02.000Z</time>
      </trkpt>
      <trkpt lat="43.9716" lon="3.02718">
        <ele>571.5</ele>
        <time>2026-04-30T09:55:03.000Z</time>
      </trkpt>
      <trkpt lat="43.97161" lon="3.0272">
        <ele>571</ele>
        <time>2026-04-30T09:55:05.000Z</time>
      </trkpt>
      <trkpt lat="43.97162" lon="3.02722">
        <ele>570.8</ele>
        <time>2026-04-30T09:55:06.000Z</time>
      </trkpt>
      <trkpt lat="43.97163" lon="3.02724">
        <ele>570.8</ele>
        <time>2026-04-30T09:55:07.000Z</time>
      </trkpt>
      <trkpt lat="43.97164" lon="3.02726">
        <ele>570.7</ele>
        <time>2026-04-30T09:55:08.000Z</time>
      </trkpt>
      <trkpt lat="43.97165" lon="3.02729">
        <ele>571.1</ele>
        <time>2026-04-30T09:55:09.000Z</time>
      </trkpt>
      <trkpt lat="43.97166" lon="3.0273">
        <ele>571.5</ele>
        <time>2026-04-30T09:55:10.000Z</time>
      </trkpt>
      <trkpt lat="43.97167" lon="3.0273">
        <ele>571.7</ele>
        <time>2026-04-30T09:55:11.000Z</time>
      </trkpt>
      <trkpt lat="43.97168" lon="3.02731">
        <ele>570.8</ele>
        <time>2026-04-30T09:55:12.000Z</time>
      </trkpt>
      <trkpt lat="43.97168" lon="3.02731">
        <ele>569.9</ele>
        <time>2026-04-30T09:55:13.000Z</time>
      </trkpt>
      <trkpt lat="43.97169" lon="3.02732">
        <ele>569.6</ele>
        <time>2026-04-30T09:55:14.000Z</time>
      </trkpt>
      <trkpt lat="43.9717" lon="3.02734">
        <ele>569.1</ele>
        <time>2026-04-30T09:55:15.000Z</time>
      </trkpt>
      <trkpt lat="43.9717" lon="3.02735">
        <ele>568.7</ele>
        <time>2026-04-30T09:55:16.000Z</time>
      </trkpt>
      <trkpt lat="43.97171" lon="3.02736">
        <ele>568.3</ele>
        <time>2026-04-30T09:55:17.000Z</time>
      </trkpt>
      <trkpt lat="43.97172" lon="3.02736">
        <ele>568.2</ele>
        <time>2026-04-30T09:55:18.000Z</time>
      </trkpt>
      <trkpt lat="43.97172" lon="3.02737">
        <ele>568.6</ele>
        <time>2026-04-30T09:55:19.000Z</time>
      </trkpt>
      <trkpt lat="43.97172" lon="3.02738">
        <ele>569</ele>
        <time>2026-04-30T09:55:20.000Z</time>
      </trkpt>
      <trkpt lat="43.97173" lon="3.02739">
        <ele>568.9</ele>
        <time>2026-04-30T09:55:21.000Z</time>
      </trkpt>
      <trkpt lat="43.97174" lon="3.02741">
        <ele>569.4</ele>
        <time>2026-04-30T09:55:22.000Z</time>
      </trkpt>
      <trkpt lat="43.97175" lon="3.02743">
        <ele>569.7</ele>
        <time>2026-04-30T09:55:23.000Z</time>
      </trkpt>
      <trkpt lat="43.97176" lon="3.02744">
        <ele>570</ele>
        <time>2026-04-30T09:55:24.000Z</time>
      </trkpt>
      <trkpt lat="43.97177" lon="3.02745">
        <ele>569.5</ele>
        <time>2026-04-30T09:55:25.000Z</time>
      </trkpt>
      <trkpt lat="43.97177" lon="3.02747">
        <ele>569.1</ele>
        <time>2026-04-30T09:55:26.000Z</time>
      </trkpt>
      <trkpt lat="43.97178" lon="3.02748">
        <ele>568.9</ele>
        <time>2026-04-30T09:55:27.000Z</time>
      </trkpt>
      <trkpt lat="43.97178" lon="3.02748">
        <ele>568.3</ele>
        <time>2026-04-30T09:55:28.000Z</time>
      </trkpt>
      <trkpt lat="43.9718" lon="3.0275">
        <ele>567.9</ele>
        <time>2026-04-30T09:55:29.000Z</time>
      </trkpt>
      <trkpt lat="43.97181" lon="3.02752">
        <ele>568.1</ele>
        <time>2026-04-30T09:55:30.000Z</time>
      </trkpt>
      <trkpt lat="43.97182" lon="3.02753">
        <ele>568.5</ele>
        <time>2026-04-30T09:55:31.000Z</time>
      </trkpt>
      <trkpt lat="43.97182" lon="3.02755">
        <ele>568.6</ele>
        <time>2026-04-30T09:55:32.000Z</time>
      </trkpt>
      <trkpt lat="43.97183" lon="3.02756">
        <ele>569.1</ele>
        <time>2026-04-30T09:55:33.000Z</time>
      </trkpt>
      <trkpt lat="43.97184" lon="3.02758">
        <ele>569.3</ele>
        <time>2026-04-30T09:55:34.000Z</time>
      </trkpt>
      <trkpt lat="43.97185" lon="3.02759">
        <ele>569</ele>
        <time>2026-04-30T09:55:35.000Z</time>
      </trkpt>
      <trkpt lat="43.97186" lon="3.02761">
        <ele>569</ele>
        <time>2026-04-30T09:55:36.000Z</time>
      </trkpt>
      <trkpt lat="43.97187" lon="3.02761">
        <ele>569.2</ele>
        <time>2026-04-30T09:55:37.000Z</time>
      </trkpt>
      <trkpt lat="43.97188" lon="3.02761">
        <ele>569.4</ele>
        <time>2026-04-30T09:55:38.000Z</time>
      </trkpt>
      <trkpt lat="43.97188" lon="3.02763">
        <ele>569.8</ele>
        <time>2026-04-30T09:55:39.000Z</time>
      </trkpt>
      <trkpt lat="43.97189" lon="3.02765">
        <ele>570.2</ele>
        <time>2026-04-30T09:55:40.000Z</time>
      </trkpt>
      <trkpt lat="43.9719" lon="3.02766">
        <ele>570.2</ele>
        <time>2026-04-30T09:55:41.000Z</time>
      </trkpt>
      <trkpt lat="43.97191" lon="3.02768">
        <ele>570.5</ele>
        <time>2026-04-30T09:55:42.000Z</time>
      </trkpt>
      <trkpt lat="43.97191" lon="3.02768">
        <ele>570.5</ele>
        <time>2026-04-30T09:55:43.000Z</time>
      </trkpt>
      <trkpt lat="43.97192" lon="3.02769">
        <ele>570.5</ele>
        <time>2026-04-30T09:55:44.000Z</time>
      </trkpt>
      <trkpt lat="43.97193" lon="3.02771">
        <ele>570.6</ele>
        <time>2026-04-30T09:55:45.000Z</time>
      </trkpt>
      <trkpt lat="43.97193" lon="3.02773">
        <ele>570.4</ele>
        <time>2026-04-30T09:55:46.000Z</time>
      </trkpt>
      <trkpt lat="43.97194" lon="3.02775">
        <ele>570.3</ele>
        <time>2026-04-30T09:55:47.000Z</time>
      </trkpt>
      <trkpt lat="43.97194" lon="3.02777">
        <ele>570.2</ele>
        <time>2026-04-30T09:55:48.000Z</time>
      </trkpt>
      <trkpt lat="43.97195" lon="3.0278">
        <ele>569.7</ele>
        <time>2026-04-30T09:55:49.000Z</time>
      </trkpt>
      <trkpt lat="43.97195" lon="3.02781">
        <ele>569.4</ele>
        <time>2026-04-30T09:55:50.000Z</time>
      </trkpt>
      <trkpt lat="43.97196" lon="3.02782">
        <ele>569.4</ele>
        <time>2026-04-30T09:55:51.000Z</time>
      </trkpt>
      <trkpt lat="43.97196" lon="3.02783">
        <ele>569.9</ele>
        <time>2026-04-30T09:55:52.000Z</time>
      </trkpt>
      <trkpt lat="43.97197" lon="3.02784">
        <ele>570.4</ele>
        <time>2026-04-30T09:55:53.000Z</time>
      </trkpt>
      <trkpt lat="43.97198" lon="3.02785">
        <ele>570.4</ele>
        <time>2026-04-30T09:55:54.000Z</time>
      </trkpt>
      <trkpt lat="43.97198" lon="3.02785">
        <ele>570.2</ele>
        <time>2026-04-30T09:55:55.000Z</time>
      </trkpt>
      <trkpt lat="43.97199" lon="3.02786">
        <ele>570.1</ele>
        <time>2026-04-30T09:55:56.000Z</time>
      </trkpt>
      <trkpt lat="43.97201" lon="3.02788">
        <ele>569.7</ele>
        <time>2026-04-30T09:55:57.000Z</time>
      </trkpt>
      <trkpt lat="43.97203" lon="3.0279">
        <ele>569.2</ele>
        <time>2026-04-30T09:55:58.000Z</time>
      </trkpt>
      <trkpt lat="43.97204" lon="3.02792">
        <ele>569.3</ele>
        <time>2026-04-30T09:55:59.000Z</time>
      </trkpt>
      <trkpt lat="43.97205" lon="3.02793">
        <ele>569.6</ele>
        <time>2026-04-30T09:56:00.000Z</time>
      </trkpt>
      <trkpt lat="43.97207" lon="3.02794">
        <ele>569.8</ele>
        <time>2026-04-30T09:56:01.000Z</time>
      </trkpt>
      <trkpt lat="43.97207" lon="3.02794">
        <ele>569.8</ele>
        <time>2026-04-30T09:56:02.000Z</time>
      </trkpt>
      <trkpt lat="43.97208" lon="3.02794">
        <ele>570.2</ele>
        <time>2026-04-30T09:56:03.000Z</time>
      </trkpt>
      <trkpt lat="43.97209" lon="3.02794">
        <ele>570.3</ele>
        <time>2026-04-30T09:56:04.000Z</time>
      </trkpt>
      <trkpt lat="43.97211" lon="3.02794">
        <ele>570.5</ele>
        <time>2026-04-30T09:56:05.000Z</time>
      </trkpt>
      <trkpt lat="43.97212" lon="3.02795">
        <ele>571</ele>
        <time>2026-04-30T09:56:06.000Z</time>
      </trkpt>
      <trkpt lat="43.97214" lon="3.02795">
        <ele>571.2</ele>
        <time>2026-04-30T09:56:07.000Z</time>
      </trkpt>
      <trkpt lat="43.97215" lon="3.02796">
        <ele>571.9</ele>
        <time>2026-04-30T09:56:08.000Z</time>
      </trkpt>
      <trkpt lat="43.97217" lon="3.02798">
        <ele>572.5</ele>
        <time>2026-04-30T09:56:09.000Z</time>
      </trkpt>
      <trkpt lat="43.97218" lon="3.028">
        <ele>573.5</ele>
        <time>2026-04-30T09:56:10.000Z</time>
      </trkpt>
      <trkpt lat="43.97219" lon="3.02802">
        <ele>573.8</ele>
        <time>2026-04-30T09:56:11.000Z</time>
      </trkpt>
      <trkpt lat="43.97221" lon="3.02803">
        <ele>574.1</ele>
        <time>2026-04-30T09:56:12.000Z</time>
      </trkpt>
      <trkpt lat="43.97221" lon="3.02803">
        <ele>573.8</ele>
        <time>2026-04-30T09:56:13.000Z</time>
      </trkpt>
      <trkpt lat="43.97222" lon="3.02804">
        <ele>574</ele>
        <time>2026-04-30T09:56:14.000Z</time>
      </trkpt>
      <trkpt lat="43.97223" lon="3.02805">
        <ele>573.9</ele>
        <time>2026-04-30T09:56:15.000Z</time>
      </trkpt>
      <trkpt lat="43.97225" lon="3.02805">
        <ele>574.1</ele>
        <time>2026-04-30T09:56:16.000Z</time>
      </trkpt>
      <trkpt lat="43.97226" lon="3.02806">
        <ele>574.5</ele>
        <time>2026-04-30T09:56:17.000Z</time>
      </trkpt>
      <trkpt lat="43.97228" lon="3.02807">
        <ele>573.8</ele>
        <time>2026-04-30T09:56:18.000Z</time>
      </trkpt>
      <trkpt lat="43.97228" lon="3.02809">
        <ele>572.7</ele>
        <time>2026-04-30T09:56:19.000Z</time>
      </trkpt>
      <trkpt lat="43.97229" lon="3.02809">
        <ele>572.2</ele>
        <time>2026-04-30T09:56:20.000Z</time>
      </trkpt>
      <trkpt lat="43.97229" lon="3.02811">
        <ele>572.3</ele>
        <time>2026-04-30T09:56:21.000Z</time>
      </trkpt>
      <trkpt lat="43.9723" lon="3.02811">
        <ele>572.3</ele>
        <time>2026-04-30T09:56:22.000Z</time>
      </trkpt>
      <trkpt lat="43.9723" lon="3.02812">
        <ele>572</ele>
        <time>2026-04-30T09:56:23.000Z</time>
      </trkpt>
      <trkpt lat="43.9723" lon="3.02813">
        <ele>572.6</ele>
        <time>2026-04-30T09:56:24.000Z</time>
      </trkpt>
      <trkpt lat="43.97231" lon="3.02814">
        <ele>573</ele>
        <time>2026-04-30T09:56:25.000Z</time>
      </trkpt>
      <trkpt lat="43.97232" lon="3.02815">
        <ele>573.1</ele>
        <time>2026-04-30T09:56:26.000Z</time>
      </trkpt>
      <trkpt lat="43.97233" lon="3.02816">
        <ele>573.3</ele>
        <time>2026-04-30T09:56:27.000Z</time>
      </trkpt>
      <trkpt lat="43.97234" lon="3.02817">
        <ele>573.5</ele>
        <time>2026-04-30T09:56:28.000Z</time>
      </trkpt>
      <trkpt lat="43.97234" lon="3.02818">
        <ele>573.3</ele>
        <time>2026-04-30T09:56:29.000Z</time>
      </trkpt>
      <trkpt lat="43.97235" lon="3.02819">
        <ele>572.8</ele>
        <time>2026-04-30T09:56:30.000Z</time>
      </trkpt>
      <trkpt lat="43.97236" lon="3.0282">
        <ele>572.8</ele>
        <time>2026-04-30T09:56:31.000Z</time>
      </trkpt>
      <trkpt lat="43.97236" lon="3.02822">
        <ele>572.8</ele>
        <time>2026-04-30T09:56:32.000Z</time>
      </trkpt>
      <trkpt lat="43.97237" lon="3.02823">
        <ele>572.6</ele>
        <time>2026-04-30T09:56:33.000Z</time>
      </trkpt>
      <trkpt lat="43.97239" lon="3.02828">
        <ele>571.9</ele>
        <time>2026-04-30T09:56:35.000Z</time>
      </trkpt>
      <trkpt lat="43.97239" lon="3.02831">
        <ele>571.6</ele>
        <time>2026-04-30T09:56:36.000Z</time>
      </trkpt>
      <trkpt lat="43.9724" lon="3.02833">
        <ele>571.6</ele>
        <time>2026-04-30T09:56:37.000Z</time>
      </trkpt>
      <trkpt lat="43.9724" lon="3.02834">
        <ele>571.8</ele>
        <time>2026-04-30T09:56:38.000Z</time>
      </trkpt>
      <trkpt lat="43.97241" lon="3.02836">
        <ele>571.6</ele>
        <time>2026-04-30T09:56:39.000Z</time>
      </trkpt>
      <trkpt lat="43.9724" lon="3.02836">
        <ele>572</ele>
        <time>2026-04-30T09:56:40.000Z</time>
      </trkpt>
      <trkpt lat="43.97241" lon="3.02837">
        <ele>573.3</ele>
        <time>2026-04-30T09:56:41.000Z</time>
      </trkpt>
      <trkpt lat="43.97242" lon="3.02838">
        <ele>573.7</ele>
        <time>2026-04-30T09:56:42.000Z</time>
      </trkpt>
      <trkpt lat="43.97242" lon="3.02839">
        <ele>574.1</ele>
        <time>2026-04-30T09:56:43.000Z</time>
      </trkpt>
      <trkpt lat="43.97243" lon="3.02841">
        <ele>574.9</ele>
        <time>2026-04-30T09:56:44.000Z</time>
      </trkpt>
      <trkpt lat="43.97244" lon="3.02842">
        <ele>575.2</ele>
        <time>2026-04-30T09:56:45.000Z</time>
      </trkpt>
      <trkpt lat="43.97245" lon="3.02843">
        <ele>575.6</ele>
        <time>2026-04-30T09:56:46.000Z</time>
      </trkpt>
      <trkpt lat="43.97245" lon="3.02844">
        <ele>576.3</ele>
        <time>2026-04-30T09:56:47.000Z</time>
      </trkpt>
      <trkpt lat="43.97246" lon="3.02845">
        <ele>576.5</ele>
        <time>2026-04-30T09:56:48.000Z</time>
      </trkpt>
      <trkpt lat="43.97247" lon="3.02846">
        <ele>576.7</ele>
        <time>2026-04-30T09:56:49.000Z</time>
      </trkpt>
      <trkpt lat="43.97248" lon="3.02847">
        <ele>576.9</ele>
        <time>2026-04-30T09:56:50.000Z</time>
      </trkpt>
      <trkpt lat="43.97249" lon="3.02848">
        <ele>577</ele>
        <time>2026-04-30T09:56:51.000Z</time>
      </trkpt>
      <trkpt lat="43.97249" lon="3.02849">
        <ele>577.2</ele>
        <time>2026-04-30T09:56:52.000Z</time>
      </trkpt>
      <trkpt lat="43.97249" lon="3.0285">
        <ele>577.6</ele>
        <time>2026-04-30T09:56:53.000Z</time>
      </trkpt>
      <trkpt lat="43.9725" lon="3.02851">
        <ele>577.7</ele>
        <time>2026-04-30T09:56:54.000Z</time>
      </trkpt>
      <trkpt lat="43.9725" lon="3.02852">
        <ele>577.6</ele>
        <time>2026-04-30T09:56:55.000Z</time>
      </trkpt>
      <trkpt lat="43.9725" lon="3.02853">
        <ele>577.3</ele>
        <time>2026-04-30T09:56:56.000Z</time>
      </trkpt>
      <trkpt lat="43.97251" lon="3.02854">
        <ele>576.8</ele>
        <time>2026-04-30T09:56:57.000Z</time>
      </trkpt>
      <trkpt lat="43.97251" lon="3.02855">
        <ele>576.7</ele>
        <time>2026-04-30T09:56:58.000Z</time>
      </trkpt>
      <trkpt lat="43.97251" lon="3.02856">
        <ele>576.8</ele>
        <time>2026-04-30T09:56:59.000Z</time>
      </trkpt>
      <trkpt lat="43.97252" lon="3.02857">
        <ele>576.9</ele>
        <time>2026-04-30T09:57:00.000Z</time>
      </trkpt>
      <trkpt lat="43.97252" lon="3.02859">
        <ele>577</ele>
        <time>2026-04-30T09:57:01.000Z</time>
      </trkpt>
      <trkpt lat="43.97252" lon="3.0286">
        <ele>576.9</ele>
        <time>2026-04-30T09:57:02.000Z</time>
      </trkpt>
      <trkpt lat="43.97253" lon="3.02861">
        <ele>576.8</ele>
        <time>2026-04-30T09:57:03.000Z</time>
      </trkpt>
      <trkpt lat="43.97253" lon="3.02862">
        <ele>576.8</ele>
        <time>2026-04-30T09:57:04.000Z</time>
      </trkpt>
      <trkpt lat="43.97253" lon="3.02863">
        <ele>576.8</ele>
        <time>2026-04-30T09:57:05.000Z</time>
      </trkpt>
      <trkpt lat="43.97254" lon="3.02865">
        <ele>576.8</ele>
        <time>2026-04-30T09:57:06.000Z</time>
      </trkpt>
      <trkpt lat="43.97254" lon="3.02867">
        <ele>576</ele>
        <time>2026-04-30T09:57:07.000Z</time>
      </trkpt>
      <trkpt lat="43.97254" lon="3.02869">
        <ele>575.8</ele>
        <time>2026-04-30T09:57:08.000Z</time>
      </trkpt>
      <trkpt lat="43.97254" lon="3.0287">
        <ele>575.6</ele>
        <time>2026-04-30T09:57:09.000Z</time>
      </trkpt>
      <trkpt lat="43.97254" lon="3.02871">
        <ele>575.8</ele>
        <time>2026-04-30T09:57:10.000Z</time>
      </trkpt>
      <trkpt lat="43.97255" lon="3.02873">
        <ele>575.9</ele>
        <time>2026-04-30T09:57:11.000Z</time>
      </trkpt>
      <trkpt lat="43.97255" lon="3.02874">
        <ele>575.6</ele>
        <time>2026-04-30T09:57:12.000Z</time>
      </trkpt>
      <trkpt lat="43.97255" lon="3.02876">
        <ele>575.6</ele>
        <time>2026-04-30T09:57:13.000Z</time>
      </trkpt>
      <trkpt lat="43.97255" lon="3.02878">
        <ele>575.9</ele>
        <time>2026-04-30T09:57:14.000Z</time>
      </trkpt>
      <trkpt lat="43.97256" lon="3.0288">
        <ele>576.3</ele>
        <time>2026-04-30T09:57:15.000Z</time>
      </trkpt>
      <trkpt lat="43.97257" lon="3.02881">
        <ele>576.3</ele>
        <time>2026-04-30T09:57:16.000Z</time>
      </trkpt>
      <trkpt lat="43.97257" lon="3.02882">
        <ele>576.8</ele>
        <time>2026-04-30T09:57:17.000Z</time>
      </trkpt>
      <trkpt lat="43.97256" lon="3.02883">
        <ele>577.2</ele>
        <time>2026-04-30T09:57:18.000Z</time>
      </trkpt>
      <trkpt lat="43.97257" lon="3.02882">
        <ele>577.3</ele>
        <time>2026-04-30T09:57:19.000Z</time>
      </trkpt>
      <trkpt lat="43.97257" lon="3.02883">
        <ele>577.6</ele>
        <time>2026-04-30T09:57:20.000Z</time>
      </trkpt>
      <trkpt lat="43.97257" lon="3.02884">
        <ele>577.7</ele>
        <time>2026-04-30T09:57:21.000Z</time>
      </trkpt>
      <trkpt lat="43.97258" lon="3.02886">
        <ele>577.7</ele>
        <time>2026-04-30T09:57:22.000Z</time>
      </trkpt>
      <trkpt lat="43.97258" lon="3.02888">
        <ele>577.4</ele>
        <time>2026-04-30T09:57:23.000Z</time>
      </trkpt>
      <trkpt lat="43.97259" lon="3.02888">
        <ele>577.3</ele>
        <time>2026-04-30T09:57:24.000Z</time>
      </trkpt>
      <trkpt lat="43.9726" lon="3.02888">
        <ele>577.3</ele>
        <time>2026-04-30T09:57:25.000Z</time>
      </trkpt>
      <trkpt lat="43.97262" lon="3.02889">
        <ele>577.1</ele>
        <time>2026-04-30T09:57:26.000Z</time>
      </trkpt>
      <trkpt lat="43.97263" lon="3.02889">
        <ele>576.8</ele>
        <time>2026-04-30T09:57:27.000Z</time>
      </trkpt>
      <trkpt lat="43.97265" lon="3.0289">
        <ele>576.9</ele>
        <time>2026-04-30T09:57:28.000Z</time>
      </trkpt>
      <trkpt lat="43.97266" lon="3.0289">
        <ele>576.7</ele>
        <time>2026-04-30T09:57:29.000Z</time>
      </trkpt>
      <trkpt lat="43.97267" lon="3.0289">
        <ele>576.8</ele>
        <time>2026-04-30T09:57:30.000Z</time>
      </trkpt>
      <trkpt lat="43.97268" lon="3.0289">
        <ele>576.8</ele>
        <time>2026-04-30T09:57:31.000Z</time>
      </trkpt>
      <trkpt lat="43.97269" lon="3.0289">
        <ele>576.7</ele>
        <time>2026-04-30T09:57:32.000Z</time>
      </trkpt>
      <trkpt lat="43.97271" lon="3.0289">
        <ele>577.1</ele>
        <time>2026-04-30T09:57:33.000Z</time>
      </trkpt>
      <trkpt lat="43.97272" lon="3.0289">
        <ele>577.1</ele>
        <time>2026-04-30T09:57:34.000Z</time>
      </trkpt>
      <trkpt lat="43.97273" lon="3.0289">
        <ele>576.9</ele>
        <time>2026-04-30T09:57:35.000Z</time>
      </trkpt>
      <trkpt lat="43.97274" lon="3.0289">
        <ele>576.8</ele>
        <time>2026-04-30T09:57:36.000Z</time>
      </trkpt>
      <trkpt lat="43.97276" lon="3.02889">
        <ele>576.8</ele>
        <time>2026-04-30T09:57:37.000Z</time>
      </trkpt>
      <trkpt lat="43.97277" lon="3.02889">
        <ele>576.5</ele>
        <time>2026-04-30T09:57:38.000Z</time>
      </trkpt>
      <trkpt lat="43.97278" lon="3.02889">
        <ele>576.9</ele>
        <time>2026-04-30T09:57:39.000Z</time>
      </trkpt>
      <trkpt lat="43.97279" lon="3.02889">
        <ele>576.6</ele>
        <time>2026-04-30T09:57:40.000Z</time>
      </trkpt>
      <trkpt lat="43.9728" lon="3.02889">
        <ele>576.7</ele>
        <time>2026-04-30T09:57:41.000Z</time>
      </trkpt>
      <trkpt lat="43.97281" lon="3.02889">
        <ele>576.7</ele>
        <time>2026-04-30T09:57:42.000Z</time>
      </trkpt>
      <trkpt lat="43.97282" lon="3.0289">
        <ele>577.2</ele>
        <time>2026-04-30T09:57:43.000Z</time>
      </trkpt>
      <trkpt lat="43.97283" lon="3.0289">
        <ele>577.5</ele>
        <time>2026-04-30T09:57:44.000Z</time>
      </trkpt>
      <trkpt lat="43.97285" lon="3.02891">
        <ele>577.4</ele>
        <time>2026-04-30T09:57:45.000Z</time>
      </trkpt>
      <trkpt lat="43.97286" lon="3.02891">
        <ele>577.2</ele>
        <time>2026-04-30T09:57:46.000Z</time>
      </trkpt>
      <trkpt lat="43.97286" lon="3.02892">
        <ele>577.6</ele>
        <time>2026-04-30T09:57:47.000Z</time>
      </trkpt>
      <trkpt lat="43.97287" lon="3.02893">
        <ele>578</ele>
        <time>2026-04-30T09:57:48.000Z</time>
      </trkpt>
      <trkpt lat="43.97288" lon="3.02894">
        <ele>578.7</ele>
        <time>2026-04-30T09:57:49.000Z</time>
      </trkpt>
      <trkpt lat="43.97288" lon="3.02895">
        <ele>579.1</ele>
        <time>2026-04-30T09:57:50.000Z</time>
      </trkpt>
      <trkpt lat="43.97289" lon="3.02896">
        <ele>579.4</ele>
        <time>2026-04-30T09:57:51.000Z</time>
      </trkpt>
      <trkpt lat="43.97289" lon="3.02896">
        <ele>579.9</ele>
        <time>2026-04-30T09:57:52.000Z</time>
      </trkpt>
      <trkpt lat="43.97289" lon="3.02897">
        <ele>580.3</ele>
        <time>2026-04-30T09:57:53.000Z</time>
      </trkpt>
      <trkpt lat="43.9729" lon="3.02898">
        <ele>580.6</ele>
        <time>2026-04-30T09:57:54.000Z</time>
      </trkpt>
      <trkpt lat="43.9729" lon="3.02899">
        <ele>580.9</ele>
        <time>2026-04-30T09:57:55.000Z</time>
      </trkpt>
      <trkpt lat="43.9729" lon="3.029">
        <ele>581.3</ele>
        <time>2026-04-30T09:57:56.000Z</time>
      </trkpt>
      <trkpt lat="43.9729" lon="3.02901">
        <ele>581.9</ele>
        <time>2026-04-30T09:57:57.000Z</time>
      </trkpt>
      <trkpt lat="43.9729" lon="3.02902">
        <ele>582.2</ele>
        <time>2026-04-30T09:57:58.000Z</time>
      </trkpt>
      <trkpt lat="43.97291" lon="3.02903">
        <ele>582.6</ele>
        <time>2026-04-30T09:57:59.000Z</time>
      </trkpt>
      <trkpt lat="43.97291" lon="3.02903">
        <ele>582.9</ele>
        <time>2026-04-30T09:58:00.000Z</time>
      </trkpt>
      <trkpt lat="43.97292" lon="3.02904">
        <ele>582.9</ele>
        <time>2026-04-30T09:58:01.000Z</time>
      </trkpt>
      <trkpt lat="43.97292" lon="3.02904">
        <ele>582.6</ele>
        <time>2026-04-30T09:58:02.000Z</time>
      </trkpt>
      <trkpt lat="43.97292" lon="3.02905">
        <ele>582.6</ele>
        <time>2026-04-30T09:58:03.000Z</time>
      </trkpt>
      <trkpt lat="43.97293" lon="3.02906">
        <ele>582.6</ele>
        <time>2026-04-30T09:58:04.000Z</time>
      </trkpt>
      <trkpt lat="43.97293" lon="3.02906">
        <ele>582.8</ele>
        <time>2026-04-30T09:58:05.000Z</time>
      </trkpt>
      <trkpt lat="43.97294" lon="3.02907">
        <ele>582.7</ele>
        <time>2026-04-30T09:58:06.000Z</time>
      </trkpt>
      <trkpt lat="43.97294" lon="3.02907">
        <ele>582.6</ele>
        <time>2026-04-30T09:58:07.000Z</time>
      </trkpt>
      <trkpt lat="43.97295" lon="3.02908">
        <ele>582.7</ele>
        <time>2026-04-30T09:58:08.000Z</time>
      </trkpt>
      <trkpt lat="43.97296" lon="3.0291">
        <ele>583.1</ele>
        <time>2026-04-30T09:58:09.000Z</time>
      </trkpt>
      <trkpt lat="43.97297" lon="3.02911">
        <ele>583.6</ele>
        <time>2026-04-30T09:58:10.000Z</time>
      </trkpt>
      <trkpt lat="43.97297" lon="3.02913">
        <ele>584.4</ele>
        <time>2026-04-30T09:58:11.000Z</time>
      </trkpt>
      <trkpt lat="43.97298" lon="3.02914">
        <ele>584.9</ele>
        <time>2026-04-30T09:58:12.000Z</time>
      </trkpt>
      <trkpt lat="43.97298" lon="3.02915">
        <ele>584.9</ele>
        <time>2026-04-30T09:58:13.000Z</time>
      </trkpt>
      <trkpt lat="43.97299" lon="3.02915">
        <ele>585.1</ele>
        <time>2026-04-30T09:58:14.000Z</time>
      </trkpt>
      <trkpt lat="43.973" lon="3.02916">
        <ele>585</ele>
        <time>2026-04-30T09:58:15.000Z</time>
      </trkpt>
      <trkpt lat="43.973" lon="3.02916">
        <ele>584.9</ele>
        <time>2026-04-30T09:58:16.000Z</time>
      </trkpt>
      <trkpt lat="43.97301" lon="3.02916">
        <ele>584.7</ele>
        <time>2026-04-30T09:58:17.000Z</time>
      </trkpt>
      <trkpt lat="43.97301" lon="3.02916">
        <ele>584.7</ele>
        <time>2026-04-30T09:58:18.000Z</time>
      </trkpt>
      <trkpt lat="43.97301" lon="3.02917">
        <ele>584.4</ele>
        <time>2026-04-30T09:58:19.000Z</time>
      </trkpt>
      <trkpt lat="43.97302" lon="3.02918">
        <ele>584</ele>
        <time>2026-04-30T09:58:20.000Z</time>
      </trkpt>
      <trkpt lat="43.97302" lon="3.02919">
        <ele>583.5</ele>
        <time>2026-04-30T09:58:21.000Z</time>
      </trkpt>
      <trkpt lat="43.97303" lon="3.0292">
        <ele>583.1</ele>
        <time>2026-04-30T09:58:22.000Z</time>
      </trkpt>
      <trkpt lat="43.97303" lon="3.02921">
        <ele>583</ele>
        <time>2026-04-30T09:58:23.000Z</time>
      </trkpt>
      <trkpt lat="43.97303" lon="3.02922">
        <ele>582.7</ele>
        <time>2026-04-30T09:58:24.000Z</time>
      </trkpt>
      <trkpt lat="43.97304" lon="3.02923">
        <ele>582.5</ele>
        <time>2026-04-30T09:58:25.000Z</time>
      </trkpt>
      <trkpt lat="43.97304" lon="3.02925">
        <ele>582.3</ele>
        <time>2026-04-30T09:58:26.000Z</time>
      </trkpt>
      <trkpt lat="43.97305" lon="3.02926">
        <ele>582.3</ele>
        <time>2026-04-30T09:58:27.000Z</time>
      </trkpt>
      <trkpt lat="43.97305" lon="3.02926">
        <ele>582.5</ele>
        <time>2026-04-30T09:58:28.000Z</time>
      </trkpt>
      <trkpt lat="43.97306" lon="3.02926">
        <ele>582.4</ele>
        <time>2026-04-30T09:58:29.000Z</time>
      </trkpt>
      <trkpt lat="43.97307" lon="3.02926">
        <ele>582.2</ele>
        <time>2026-04-30T09:58:30.000Z</time>
      </trkpt>
      <trkpt lat="43.97308" lon="3.02927">
        <ele>582.3</ele>
        <time>2026-04-30T09:58:31.000Z</time>
      </trkpt>
      <trkpt lat="43.97309" lon="3.02928">
        <ele>582.3</ele>
        <time>2026-04-30T09:58:32.000Z</time>
      </trkpt>
      <trkpt lat="43.9731" lon="3.02928">
        <ele>582.3</ele>
        <time>2026-04-30T09:58:33.000Z</time>
      </trkpt>
      <trkpt lat="43.9731" lon="3.02929">
        <ele>582.3</ele>
        <time>2026-04-30T09:58:34.000Z</time>
      </trkpt>
      <trkpt lat="43.97311" lon="3.0293">
        <ele>582.7</ele>
        <time>2026-04-30T09:58:35.000Z</time>
      </trkpt>
      <trkpt lat="43.97312" lon="3.02931">
        <ele>583</ele>
        <time>2026-04-30T09:58:36.000Z</time>
      </trkpt>
      <trkpt lat="43.97313" lon="3.02932">
        <ele>583.1</ele>
        <time>2026-04-30T09:58:37.000Z</time>
      </trkpt>
      <trkpt lat="43.97314" lon="3.02933">
        <ele>583.2</ele>
        <time>2026-04-30T09:58:38.000Z</time>
      </trkpt>
      <trkpt lat="43.97315" lon="3.02934">
        <ele>583.1</ele>
        <time>2026-04-30T09:58:39.000Z</time>
      </trkpt>
      <trkpt lat="43.97315" lon="3.02934">
        <ele>583.1</ele>
        <time>2026-04-30T09:58:40.000Z</time>
      </trkpt>
      <trkpt lat="43.97315" lon="3.02935">
        <ele>583.1</ele>
        <time>2026-04-30T09:58:41.000Z</time>
      </trkpt>
      <trkpt lat="43.97316" lon="3.02935">
        <ele>583.3</ele>
        <time>2026-04-30T09:58:42.000Z</time>
      </trkpt>
      <trkpt lat="43.97317" lon="3.02935">
        <ele>583.7</ele>
        <time>2026-04-30T09:58:43.000Z</time>
      </trkpt>
      <trkpt lat="43.97318" lon="3.02936">
        <ele>584.3</ele>
        <time>2026-04-30T09:58:44.000Z</time>
      </trkpt>
      <trkpt lat="43.97319" lon="3.02936">
        <ele>585</ele>
        <time>2026-04-30T09:58:45.000Z</time>
      </trkpt>
      <trkpt lat="43.9732" lon="3.02937">
        <ele>585.3</ele>
        <time>2026-04-30T09:58:46.000Z</time>
      </trkpt>
      <trkpt lat="43.9732" lon="3.02936">
        <ele>585.6</ele>
        <time>2026-04-30T09:58:47.000Z</time>
      </trkpt>
      <trkpt lat="43.9732" lon="3.02936">
        <ele>586</ele>
        <time>2026-04-30T09:58:48.000Z</time>
      </trkpt>
      <trkpt lat="43.97321" lon="3.02935">
        <ele>586.3</ele>
        <time>2026-04-30T09:58:49.000Z</time>
      </trkpt>
      <trkpt lat="43.97321" lon="3.02935">
        <ele>585.8</ele>
        <time>2026-04-30T09:58:50.000Z</time>
      </trkpt>
      <trkpt lat="43.97322" lon="3.02936">
        <ele>586</ele>
        <time>2026-04-30T09:58:51.000Z</time>
      </trkpt>
      <trkpt lat="43.97322" lon="3.02937">
        <ele>586.6</ele>
        <time>2026-04-30T09:58:52.000Z</time>
      </trkpt>
      <trkpt lat="43.97322" lon="3.02936">
        <ele>587</ele>
        <time>2026-04-30T09:58:53.000Z</time>
      </trkpt>
      <trkpt lat="43.97321" lon="3.02935">
        <ele>586</ele>
        <time>2026-04-30T09:58:54.000Z</time>
      </trkpt>
      <trkpt lat="43.97322" lon="3.02935">
        <ele>585.9</ele>
        <time>2026-04-30T09:58:55.000Z</time>
      </trkpt>
      <trkpt lat="43.97322" lon="3.02936">
        <ele>586.1</ele>
        <time>2026-04-30T09:58:56.000Z</time>
      </trkpt>
      <trkpt lat="43.97323" lon="3.02936">
        <ele>586.5</ele>
        <time>2026-04-30T09:58:57.000Z</time>
      </trkpt>
      <trkpt lat="43.97324" lon="3.02938">
        <ele>585.5</ele>
        <time>2026-04-30T09:58:58.000Z</time>
      </trkpt>
      <trkpt lat="43.97326" lon="3.02938">
        <ele>585.2</ele>
        <time>2026-04-30T09:58:59.000Z</time>
      </trkpt>
      <trkpt lat="43.97328" lon="3.02939">
        <ele>585.4</ele>
        <time>2026-04-30T09:59:00.000Z</time>
      </trkpt>
      <trkpt lat="43.97329" lon="3.02939">
        <ele>586.2</ele>
        <time>2026-04-30T09:59:01.000Z</time>
      </trkpt>
      <trkpt lat="43.9733" lon="3.02939">
        <ele>586.2</ele>
        <time>2026-04-30T09:59:02.000Z</time>
      </trkpt>
      <trkpt lat="43.97331" lon="3.02939">
        <ele>586</ele>
        <time>2026-04-30T09:59:03.000Z</time>
      </trkpt>
      <trkpt lat="43.97332" lon="3.02939">
        <ele>585.8</ele>
        <time>2026-04-30T09:59:04.000Z</time>
      </trkpt>
      <trkpt lat="43.97332" lon="3.02939">
        <ele>585.6</ele>
        <time>2026-04-30T09:59:05.000Z</time>
      </trkpt>
      <trkpt lat="43.97331" lon="3.02939">
        <ele>585.8</ele>
        <time>2026-04-30T09:59:06.000Z</time>
      </trkpt>
      <trkpt lat="43.9733" lon="3.02938">
        <ele>585.3</ele>
        <time>2026-04-30T09:59:07.000Z</time>
      </trkpt>
      <trkpt lat="43.97329" lon="3.02937">
        <ele>586</ele>
        <time>2026-04-30T09:59:08.000Z</time>
      </trkpt>
      <trkpt lat="43.97328" lon="3.02937">
        <ele>586.5</ele>
        <time>2026-04-30T09:59:09.000Z</time>
      </trkpt>
      <trkpt lat="43.97328" lon="3.02937">
        <ele>584.5</ele>
        <time>2026-04-30T09:59:10.000Z</time>
      </trkpt>
      <trkpt lat="43.97328" lon="3.02937">
        <ele>585</ele>
        <time>2026-04-30T09:59:11.000Z</time>
      </trkpt>
      <trkpt lat="43.97328" lon="3.02937">
        <ele>585.8</ele>
        <time>2026-04-30T09:59:12.000Z</time>
      </trkpt>
      <trkpt lat="43.97329" lon="3.02938">
        <ele>586.1</ele>
        <time>2026-04-30T09:59:13.000Z</time>
      </trkpt>
      <trkpt lat="43.97329" lon="3.02938">
        <ele>586.5</ele>
        <time>2026-04-30T09:59:14.000Z</time>
      </trkpt>
      <trkpt lat="43.97329" lon="3.02938">
        <ele>587</ele>
        <time>2026-04-30T09:59:15.000Z</time>
      </trkpt>
      <trkpt lat="43.97329" lon="3.02938">
        <ele>587.3</ele>
        <time>2026-04-30T09:59:16.000Z</time>
      </trkpt>
      <trkpt lat="43.97329" lon="3.02938">
        <ele>587.8</ele>
        <time>2026-04-30T09:59:17.000Z</time>
      </trkpt>
      <trkpt lat="43.97329" lon="3.02938">
        <ele>588.1</ele>
        <time>2026-04-30T09:59:18.000Z</time>
      </trkpt>
      <trkpt lat="43.97329" lon="3.02938">
        <ele>588.4</ele>
        <time>2026-04-30T09:59:19.000Z</time>
      </trkpt>
      <trkpt lat="43.97329" lon="3.02939">
        <ele>588.7</ele>
        <time>2026-04-30T09:59:20.000Z</time>
      </trkpt>
      <trkpt lat="43.97331" lon="3.02939">
        <ele>589.1</ele>
        <time>2026-04-30T09:59:21.000Z</time>
      </trkpt>
      <trkpt lat="43.97332" lon="3.0294">
        <ele>589.3</ele>
        <time>2026-04-30T09:59:22.000Z</time>
      </trkpt>
      <trkpt lat="43.97333" lon="3.02941">
        <ele>589.3</ele>
        <time>2026-04-30T09:59:23.000Z</time>
      </trkpt>
      <trkpt lat="43.97334" lon="3.02942">
        <ele>589.3</ele>
        <time>2026-04-30T09:59:24.000Z</time>
      </trkpt>
      <trkpt lat="43.97336" lon="3.02943">
        <ele>589.3</ele>
        <time>2026-04-30T09:59:25.000Z</time>
      </trkpt>
      <trkpt lat="43.97337" lon="3.02944">
        <ele>589.2</ele>
        <time>2026-04-30T09:59:26.000Z</time>
      </trkpt>
      <trkpt lat="43.97338" lon="3.02945">
        <ele>589.2</ele>
        <time>2026-04-30T09:59:27.000Z</time>
      </trkpt>
      <trkpt lat="43.97339" lon="3.02945">
        <ele>589.1</ele>
        <time>2026-04-30T09:59:28.000Z</time>
      </trkpt>
      <trkpt lat="43.9734" lon="3.02946">
        <ele>589</ele>
        <time>2026-04-30T09:59:29.000Z</time>
      </trkpt>
      <trkpt lat="43.97342" lon="3.02947">
        <ele>588.9</ele>
        <time>2026-04-30T09:59:30.000Z</time>
      </trkpt>
      <trkpt lat="43.97343" lon="3.02948">
        <ele>589</ele>
        <time>2026-04-30T09:59:31.000Z</time>
      </trkpt>
      <trkpt lat="43.97344" lon="3.02949">
        <ele>589.1</ele>
        <time>2026-04-30T09:59:32.000Z</time>
      </trkpt>
      <trkpt lat="43.97346" lon="3.02949">
        <ele>589.3</ele>
        <time>2026-04-30T09:59:33.000Z</time>
      </trkpt>
      <trkpt lat="43.97347" lon="3.0295">
        <ele>589.5</ele>
        <time>2026-04-30T09:59:34.000Z</time>
      </trkpt>
      <trkpt lat="43.97348" lon="3.02951">
        <ele>589.4</ele>
        <time>2026-04-30T09:59:35.000Z</time>
      </trkpt>
      <trkpt lat="43.97349" lon="3.02952">
        <ele>589.4</ele>
        <time>2026-04-30T09:59:36.000Z</time>
      </trkpt>
      <trkpt lat="43.9735" lon="3.02953">
        <ele>589.2</ele>
        <time>2026-04-30T09:59:37.000Z</time>
      </trkpt>
      <trkpt lat="43.97351" lon="3.02953">
        <ele>588.9</ele>
        <time>2026-04-30T09:59:38.000Z</time>
      </trkpt>
      <trkpt lat="43.97352" lon="3.02953">
        <ele>588.8</ele>
        <time>2026-04-30T09:59:39.000Z</time>
      </trkpt>
      <trkpt lat="43.97352" lon="3.02954">
        <ele>588.6</ele>
        <time>2026-04-30T09:59:40.000Z</time>
      </trkpt>
      <trkpt lat="43.97353" lon="3.02954">
        <ele>588.3</ele>
        <time>2026-04-30T09:59:41.000Z</time>
      </trkpt>
      <trkpt lat="43.97354" lon="3.02955">
        <ele>588.4</ele>
        <time>2026-04-30T09:59:42.000Z</time>
      </trkpt>
      <trkpt lat="43.97355" lon="3.02956">
        <ele>588.3</ele>
        <time>2026-04-30T09:59:43.000Z</time>
      </trkpt>
      <trkpt lat="43.97357" lon="3.02956">
        <ele>588.3</ele>
        <time>2026-04-30T09:59:44.000Z</time>
      </trkpt>
      <trkpt lat="43.97358" lon="3.02957">
        <ele>588.6</ele>
        <time>2026-04-30T09:59:45.000Z</time>
      </trkpt>
      <trkpt lat="43.97359" lon="3.02958">
        <ele>588.6</ele>
        <time>2026-04-30T09:59:46.000Z</time>
      </trkpt>
      <trkpt lat="43.97359" lon="3.02958">
        <ele>588.2</ele>
        <time>2026-04-30T09:59:47.000Z</time>
      </trkpt>
      <trkpt lat="43.97359" lon="3.02958">
        <ele>588.1</ele>
        <time>2026-04-30T09:59:48.000Z</time>
      </trkpt>
      <trkpt lat="43.9736" lon="3.02957">
        <ele>587.8</ele>
        <time>2026-04-30T09:59:49.000Z</time>
      </trkpt>
      <trkpt lat="43.97361" lon="3.02957">
        <ele>587.7</ele>
        <time>2026-04-30T09:59:50.000Z</time>
      </trkpt>
      <trkpt lat="43.97362" lon="3.02958">
        <ele>587.6</ele>
        <time>2026-04-30T09:59:51.000Z</time>
      </trkpt>
      <trkpt lat="43.97363" lon="3.02958">
        <ele>587.5</ele>
        <time>2026-04-30T09:59:52.000Z</time>
      </trkpt>
      <trkpt lat="43.97363" lon="3.02959">
        <ele>587.4</ele>
        <time>2026-04-30T09:59:53.000Z</time>
      </trkpt>
      <trkpt lat="43.97364" lon="3.0296">
        <ele>587.2</ele>
        <time>2026-04-30T09:59:54.000Z</time>
      </trkpt>
      <trkpt lat="43.97365" lon="3.02961">
        <ele>587.1</ele>
        <time>2026-04-30T09:59:55.000Z</time>
      </trkpt>
      <trkpt lat="43.97366" lon="3.02961">
        <ele>586.9</ele>
        <time>2026-04-30T09:59:56.000Z</time>
      </trkpt>
      <trkpt lat="43.97366" lon="3.02962">
        <ele>586.5</ele>
        <time>2026-04-30T09:59:57.000Z</time>
      </trkpt>
      <trkpt lat="43.97366" lon="3.02964">
        <ele>586.2</ele>
        <time>2026-04-30T09:59:58.000Z</time>
      </trkpt>
      <trkpt lat="43.97367" lon="3.02965">
        <ele>587</ele>
        <time>2026-04-30T10:00:00.000Z</time>
      </trkpt>
      <trkpt lat="43.97368" lon="3.02966">
        <ele>586.7</ele>
        <time>2026-04-30T10:00:01.000Z</time>
      </trkpt>
      <trkpt lat="43.97369" lon="3.02966">
        <ele>586.5</ele>
        <time>2026-04-30T10:00:02.000Z</time>
      </trkpt>
      <trkpt lat="43.9737" lon="3.02968">
        <ele>586.2</ele>
        <time>2026-04-30T10:00:03.000Z</time>
      </trkpt>
      <trkpt lat="43.97371" lon="3.02969">
        <ele>586.5</ele>
        <time>2026-04-30T10:00:04.000Z</time>
      </trkpt>
      <trkpt lat="43.97371" lon="3.02971">
        <ele>586.9</ele>
        <time>2026-04-30T10:00:05.000Z</time>
      </trkpt>
      <trkpt lat="43.97372" lon="3.02971">
        <ele>587.1</ele>
        <time>2026-04-30T10:00:06.000Z</time>
      </trkpt>
      <trkpt lat="43.97373" lon="3.02972">
        <ele>587.4</ele>
        <time>2026-04-30T10:00:07.000Z</time>
      </trkpt>
      <trkpt lat="43.97374" lon="3.02972">
        <ele>587.7</ele>
        <time>2026-04-30T10:00:08.000Z</time>
      </trkpt>
      <trkpt lat="43.97374" lon="3.02972">
        <ele>588</ele>
        <time>2026-04-30T10:00:09.000Z</time>
      </trkpt>
      <trkpt lat="43.97375" lon="3.02972">
        <ele>588</ele>
        <time>2026-04-30T10:00:10.000Z</time>
      </trkpt>
      <trkpt lat="43.97376" lon="3.02972">
        <ele>588.1</ele>
        <time>2026-04-30T10:00:11.000Z</time>
      </trkpt>
      <trkpt lat="43.97377" lon="3.02972">
        <ele>588.4</ele>
        <time>2026-04-30T10:00:12.000Z</time>
      </trkpt>
      <trkpt lat="43.97378" lon="3.02972">
        <ele>588.3</ele>
        <time>2026-04-30T10:00:13.000Z</time>
      </trkpt>
      <trkpt lat="43.97378" lon="3.02972">
        <ele>587.8</ele>
        <time>2026-04-30T10:00:14.000Z</time>
      </trkpt>
      <trkpt lat="43.97379" lon="3.02972">
        <ele>588.4</ele>
        <time>2026-04-30T10:00:15.000Z</time>
      </trkpt>
      <trkpt lat="43.97379" lon="3.02972">
        <ele>588.7</ele>
        <time>2026-04-30T10:00:16.000Z</time>
      </trkpt>
      <trkpt lat="43.9738" lon="3.02973">
        <ele>588.5</ele>
        <time>2026-04-30T10:00:17.000Z</time>
      </trkpt>
      <trkpt lat="43.9738" lon="3.02974">
        <ele>588</ele>
        <time>2026-04-30T10:00:18.000Z</time>
      </trkpt>
      <trkpt lat="43.97381" lon="3.02976">
        <ele>587.9</ele>
        <time>2026-04-30T10:00:19.000Z</time>
      </trkpt>
      <trkpt lat="43.97382" lon="3.02976">
        <ele>589</ele>
        <time>2026-04-30T10:00:20.000Z</time>
      </trkpt>
      <trkpt lat="43.97382" lon="3.02977">
        <ele>589.5</ele>
        <time>2026-04-30T10:00:21.000Z</time>
      </trkpt>
      <trkpt lat="43.97384" lon="3.02978">
        <ele>589.7</ele>
        <time>2026-04-30T10:00:22.000Z</time>
      </trkpt>
      <trkpt lat="43.97385" lon="3.0298">
        <ele>590.2</ele>
        <time>2026-04-30T10:00:23.000Z</time>
      </trkpt>
      <trkpt lat="43.97384" lon="3.02981">
        <ele>589.9</ele>
        <time>2026-04-30T10:00:24.000Z</time>
      </trkpt>
      <trkpt lat="43.97385" lon="3.02982">
        <ele>589.8</ele>
        <time>2026-04-30T10:00:25.000Z</time>
      </trkpt>
      <trkpt lat="43.97386" lon="3.02983">
        <ele>589.6</ele>
        <time>2026-04-30T10:00:26.000Z</time>
      </trkpt>
      <trkpt lat="43.97387" lon="3.02984">
        <ele>589.9</ele>
        <time>2026-04-30T10:00:27.000Z</time>
      </trkpt>
      <trkpt lat="43.97388" lon="3.02985">
        <ele>590</ele>
        <time>2026-04-30T10:00:28.000Z</time>
      </trkpt>
      <trkpt lat="43.97388" lon="3.02987">
        <ele>590.4</ele>
        <time>2026-04-30T10:00:29.000Z</time>
      </trkpt>
      <trkpt lat="43.97389" lon="3.02989">
        <ele>590.5</ele>
        <time>2026-04-30T10:00:30.000Z</time>
      </trkpt>
      <trkpt lat="43.9739" lon="3.02991">
        <ele>591</ele>
        <time>2026-04-30T10:00:31.000Z</time>
      </trkpt>
      <trkpt lat="43.9739" lon="3.02994">
        <ele>591.7</ele>
        <time>2026-04-30T10:00:32.000Z</time>
      </trkpt>
      <trkpt lat="43.9739" lon="3.02996">
        <ele>592</ele>
        <time>2026-04-30T10:00:33.000Z</time>
      </trkpt>
      <trkpt lat="43.97391" lon="3.02998">
        <ele>592.6</ele>
        <time>2026-04-30T10:00:34.000Z</time>
      </trkpt>
      <trkpt lat="43.97391" lon="3.02999">
        <ele>592.9</ele>
        <time>2026-04-30T10:00:35.000Z</time>
      </trkpt>
      <trkpt lat="43.97392" lon="3.03001">
        <ele>592.6</ele>
        <time>2026-04-30T10:00:36.000Z</time>
      </trkpt>
      <trkpt lat="43.97392" lon="3.03002">
        <ele>592.5</ele>
        <time>2026-04-30T10:00:37.000Z</time>
      </trkpt>
      <trkpt lat="43.97392" lon="3.03004">
        <ele>591.8</ele>
        <time>2026-04-30T10:00:38.000Z</time>
      </trkpt>
      <trkpt lat="43.97392" lon="3.03005">
        <ele>591.6</ele>
        <time>2026-04-30T10:00:39.000Z</time>
      </trkpt>
      <trkpt lat="43.97393" lon="3.03008">
        <ele>591.7</ele>
        <time>2026-04-30T10:00:40.000Z</time>
      </trkpt>
      <trkpt lat="43.97393" lon="3.0301">
        <ele>592.2</ele>
        <time>2026-04-30T10:00:41.000Z</time>
      </trkpt>
      <trkpt lat="43.97394" lon="3.03011">
        <ele>592.6</ele>
        <time>2026-04-30T10:00:42.000Z</time>
      </trkpt>
      <trkpt lat="43.97394" lon="3.03012">
        <ele>592.6</ele>
        <time>2026-04-30T10:00:43.000Z</time>
      </trkpt>
      <trkpt lat="43.97395" lon="3.03012">
        <ele>592.7</ele>
        <time>2026-04-30T10:00:44.000Z</time>
      </trkpt>
      <trkpt lat="43.97396" lon="3.03013">
        <ele>592.8</ele>
        <time>2026-04-30T10:00:45.000Z</time>
      </trkpt>
      <trkpt lat="43.97396" lon="3.03014">
        <ele>593</ele>
        <time>2026-04-30T10:00:46.000Z</time>
      </trkpt>
      <trkpt lat="43.97397" lon="3.03015">
        <ele>592.9</ele>
        <time>2026-04-30T10:00:47.000Z</time>
      </trkpt>
      <trkpt lat="43.97397" lon="3.03017">
        <ele>592.9</ele>
        <time>2026-04-30T10:00:48.000Z</time>
      </trkpt>
      <trkpt lat="43.97397" lon="3.03019">
        <ele>592.8</ele>
        <time>2026-04-30T10:00:49.000Z</time>
      </trkpt>
      <trkpt lat="43.97398" lon="3.0302">
        <ele>592.8</ele>
        <time>2026-04-30T10:00:50.000Z</time>
      </trkpt>
      <trkpt lat="43.97398" lon="3.03022">
        <ele>592.9</ele>
        <time>2026-04-30T10:00:51.000Z</time>
      </trkpt>
      <trkpt lat="43.97398" lon="3.03022">
        <ele>593</ele>
        <time>2026-04-30T10:00:52.000Z</time>
      </trkpt>
      <trkpt lat="43.97399" lon="3.03024">
        <ele>593</ele>
        <time>2026-04-30T10:00:53.000Z</time>
      </trkpt>
      <trkpt lat="43.97398" lon="3.03025">
        <ele>592.8</ele>
        <time>2026-04-30T10:00:54.000Z</time>
      </trkpt>
      <trkpt lat="43.97399" lon="3.03026">
        <ele>592.2</ele>
        <time>2026-04-30T10:00:55.000Z</time>
      </trkpt>
      <trkpt lat="43.97399" lon="3.03028">
        <ele>592.2</ele>
        <time>2026-04-30T10:00:56.000Z</time>
      </trkpt>
      <trkpt lat="43.974" lon="3.0303">
        <ele>592.5</ele>
        <time>2026-04-30T10:00:57.000Z</time>
      </trkpt>
      <trkpt lat="43.974" lon="3.03031">
        <ele>592.4</ele>
        <time>2026-04-30T10:00:58.000Z</time>
      </trkpt>
      <trkpt lat="43.97401" lon="3.03033">
        <ele>592.5</ele>
        <time>2026-04-30T10:00:59.000Z</time>
      </trkpt>
      <trkpt lat="43.97402" lon="3.03034">
        <ele>591.9</ele>
        <time>2026-04-30T10:01:00.000Z</time>
      </trkpt>
      <trkpt lat="43.97402" lon="3.03036">
        <ele>592.2</ele>
        <time>2026-04-30T10:01:01.000Z</time>
      </trkpt>
      <trkpt lat="43.97403" lon="3.03037">
        <ele>592.4</ele>
        <time>2026-04-30T10:01:02.000Z</time>
      </trkpt>
      <trkpt lat="43.97403" lon="3.03039">
        <ele>592.9</ele>
        <time>2026-04-30T10:01:03.000Z</time>
      </trkpt>
      <trkpt lat="43.97404" lon="3.0304">
        <ele>593.2</ele>
        <time>2026-04-30T10:01:04.000Z</time>
      </trkpt>
      <trkpt lat="43.97404" lon="3.03041">
        <ele>593.7</ele>
        <time>2026-04-30T10:01:05.000Z</time>
      </trkpt>
      <trkpt lat="43.97404" lon="3.03042">
        <ele>594</ele>
        <time>2026-04-30T10:01:06.000Z</time>
      </trkpt>
      <trkpt lat="43.97403" lon="3.03043">
        <ele>594.5</ele>
        <time>2026-04-30T10:01:07.000Z</time>
      </trkpt>
      <trkpt lat="43.97404" lon="3.03044">
        <ele>594.6</ele>
        <time>2026-04-30T10:01:08.000Z</time>
      </trkpt>
      <trkpt lat="43.97404" lon="3.03045">
        <ele>594.6</ele>
        <time>2026-04-30T10:01:09.000Z</time>
      </trkpt>
      <trkpt lat="43.97405" lon="3.03047">
        <ele>594.6</ele>
        <time>2026-04-30T10:01:10.000Z</time>
      </trkpt>
      <trkpt lat="43.97405" lon="3.03048">
        <ele>594.8</ele>
        <time>2026-04-30T10:01:11.000Z</time>
      </trkpt>
      <trkpt lat="43.97405" lon="3.03049">
        <ele>594.7</ele>
        <time>2026-04-30T10:01:12.000Z</time>
      </trkpt>
      <trkpt lat="43.97405" lon="3.0305">
        <ele>595.2</ele>
        <time>2026-04-30T10:01:13.000Z</time>
      </trkpt>
      <trkpt lat="43.97406" lon="3.03052">
        <ele>595.5</ele>
        <time>2026-04-30T10:01:14.000Z</time>
      </trkpt>
      <trkpt lat="43.97406" lon="3.03053">
        <ele>595.7</ele>
        <time>2026-04-30T10:01:15.000Z</time>
      </trkpt>
      <trkpt lat="43.97407" lon="3.03054">
        <ele>595.9</ele>
        <time>2026-04-30T10:01:16.000Z</time>
      </trkpt>
      <trkpt lat="43.97408" lon="3.03055">
        <ele>596</ele>
        <time>2026-04-30T10:01:17.000Z</time>
      </trkpt>
      <trkpt lat="43.97408" lon="3.03057">
        <ele>596.1</ele>
        <time>2026-04-30T10:01:18.000Z</time>
      </trkpt>
      <trkpt lat="43.97409" lon="3.03058">
        <ele>596.5</ele>
        <time>2026-04-30T10:01:19.000Z</time>
      </trkpt>
      <trkpt lat="43.97409" lon="3.03059">
        <ele>596.8</ele>
        <time>2026-04-30T10:01:20.000Z</time>
      </trkpt>
      <trkpt lat="43.9741" lon="3.03061">
        <ele>597.1</ele>
        <time>2026-04-30T10:01:21.000Z</time>
      </trkpt>
      <trkpt lat="43.9741" lon="3.03062">
        <ele>597.3</ele>
        <time>2026-04-30T10:01:22.000Z</time>
      </trkpt>
      <trkpt lat="43.9741" lon="3.03063">
        <ele>597.5</ele>
        <time>2026-04-30T10:01:23.000Z</time>
      </trkpt>
      <trkpt lat="43.9741" lon="3.03064">
        <ele>597.7</ele>
        <time>2026-04-30T10:01:24.000Z</time>
      </trkpt>
      <trkpt lat="43.97411" lon="3.03065">
        <ele>597.8</ele>
        <time>2026-04-30T10:01:25.000Z</time>
      </trkpt>
      <trkpt lat="43.97411" lon="3.03066">
        <ele>598</ele>
        <time>2026-04-30T10:01:26.000Z</time>
      </trkpt>
      <trkpt lat="43.97412" lon="3.03067">
        <ele>598.4</ele>
        <time>2026-04-30T10:01:27.000Z</time>
      </trkpt>
      <trkpt lat="43.97412" lon="3.03069">
        <ele>599.2</ele>
        <time>2026-04-30T10:01:28.000Z</time>
      </trkpt>
      <trkpt lat="43.97413" lon="3.03069">
        <ele>599.7</ele>
        <time>2026-04-30T10:01:29.000Z</time>
      </trkpt>
      <trkpt lat="43.97413" lon="3.0307">
        <ele>599.8</ele>
        <time>2026-04-30T10:01:30.000Z</time>
      </trkpt>
      <trkpt lat="43.97413" lon="3.0307">
        <ele>600.2</ele>
        <time>2026-04-30T10:01:31.000Z</time>
      </trkpt>
      <trkpt lat="43.97413" lon="3.03071">
        <ele>600.8</ele>
        <time>2026-04-30T10:01:32.000Z</time>
      </trkpt>
      <trkpt lat="43.97413" lon="3.03072">
        <ele>601.5</ele>
        <time>2026-04-30T10:01:33.000Z</time>
      </trkpt>
      <trkpt lat="43.97414" lon="3.03073">
        <ele>602.1</ele>
        <time>2026-04-30T10:01:34.000Z</time>
      </trkpt>
      <trkpt lat="43.97414" lon="3.03074">
        <ele>602.4</ele>
        <time>2026-04-30T10:01:35.000Z</time>
      </trkpt>
      <trkpt lat="43.97415" lon="3.03075">
        <ele>602.8</ele>
        <time>2026-04-30T10:01:36.000Z</time>
      </trkpt>
      <trkpt lat="43.97416" lon="3.03077">
        <ele>603</ele>
        <time>2026-04-30T10:01:37.000Z</time>
      </trkpt>
      <trkpt lat="43.97417" lon="3.03078">
        <ele>603.1</ele>
        <time>2026-04-30T10:01:38.000Z</time>
      </trkpt>
      <trkpt lat="43.97417" lon="3.03079">
        <ele>603.4</ele>
        <time>2026-04-30T10:01:39.000Z</time>
      </trkpt>
      <trkpt lat="43.97417" lon="3.03081">
        <ele>603.3</ele>
        <time>2026-04-30T10:01:40.000Z</time>
      </trkpt>
      <trkpt lat="43.97418" lon="3.03082">
        <ele>603.1</ele>
        <time>2026-04-30T10:01:41.000Z</time>
      </trkpt>
      <trkpt lat="43.97418" lon="3.03083">
        <ele>603.3</ele>
        <time>2026-04-30T10:01:42.000Z</time>
      </trkpt>
      <trkpt lat="43.97419" lon="3.03084">
        <ele>603.5</ele>
        <time>2026-04-30T10:01:43.000Z</time>
      </trkpt>
      <trkpt lat="43.97419" lon="3.03085">
        <ele>603.7</ele>
        <time>2026-04-30T10:01:44.000Z</time>
      </trkpt>
      <trkpt lat="43.97419" lon="3.03086">
        <ele>604.2</ele>
        <time>2026-04-30T10:01:45.000Z</time>
      </trkpt>
      <trkpt lat="43.97419" lon="3.03087">
        <ele>604.3</ele>
        <time>2026-04-30T10:01:46.000Z</time>
      </trkpt>
      <trkpt lat="43.9742" lon="3.03089">
        <ele>604.3</ele>
        <time>2026-04-30T10:01:47.000Z</time>
      </trkpt>
      <trkpt lat="43.9742" lon="3.03091">
        <ele>604.2</ele>
        <time>2026-04-30T10:01:48.000Z</time>
      </trkpt>
      <trkpt lat="43.9742" lon="3.03092">
        <ele>603.9</ele>
        <time>2026-04-30T10:01:49.000Z</time>
      </trkpt>
      <trkpt lat="43.9742" lon="3.03097">
        <ele>604.4</ele>
        <time>2026-04-30T10:01:51.000Z</time>
      </trkpt>
      <trkpt lat="43.9742" lon="3.03099">
        <ele>604.5</ele>
        <time>2026-04-30T10:01:52.000Z</time>
      </trkpt>
      <trkpt lat="43.9742" lon="3.031">
        <ele>604.3</ele>
        <time>2026-04-30T10:01:53.000Z</time>
      </trkpt>
      <trkpt lat="43.9742" lon="3.03102">
        <ele>604.2</ele>
        <time>2026-04-30T10:01:54.000Z</time>
      </trkpt>
      <trkpt lat="43.9742" lon="3.03103">
        <ele>603.8</ele>
        <time>2026-04-30T10:01:55.000Z</time>
      </trkpt>
      <trkpt lat="43.9742" lon="3.03104">
        <ele>603.6</ele>
        <time>2026-04-30T10:01:56.000Z</time>
      </trkpt>
      <trkpt lat="43.9742" lon="3.03104">
        <ele>603.4</ele>
        <time>2026-04-30T10:01:57.000Z</time>
      </trkpt>
      <trkpt lat="43.9742" lon="3.03105">
        <ele>603.2</ele>
        <time>2026-04-30T10:01:58.000Z</time>
      </trkpt>
      <trkpt lat="43.9742" lon="3.03106">
        <ele>602.8</ele>
        <time>2026-04-30T10:01:59.000Z</time>
      </trkpt>
      <trkpt lat="43.97421" lon="3.03107">
        <ele>602.5</ele>
        <time>2026-04-30T10:02:00.000Z</time>
      </trkpt>
      <trkpt lat="43.97421" lon="3.03108">
        <ele>602.5</ele>
        <time>2026-04-30T10:02:01.000Z</time>
      </trkpt>
      <trkpt lat="43.97422" lon="3.03109">
        <ele>602.6</ele>
        <time>2026-04-30T10:02:02.000Z</time>
      </trkpt>
      <trkpt lat="43.97422" lon="3.0311">
        <ele>602.6</ele>
        <time>2026-04-30T10:02:03.000Z</time>
      </trkpt>
      <trkpt lat="43.97423" lon="3.03111">
        <ele>602.6</ele>
        <time>2026-04-30T10:02:04.000Z</time>
      </trkpt>
      <trkpt lat="43.97423" lon="3.03112">
        <ele>602.1</ele>
        <time>2026-04-30T10:02:05.000Z</time>
      </trkpt>
      <trkpt lat="43.97423" lon="3.03113">
        <ele>601.9</ele>
        <time>2026-04-30T10:02:06.000Z</time>
      </trkpt>
      <trkpt lat="43.97422" lon="3.03115">
        <ele>601.8</ele>
        <time>2026-04-30T10:02:07.000Z</time>
      </trkpt>
      <trkpt lat="43.97422" lon="3.03116">
        <ele>601.9</ele>
        <time>2026-04-30T10:02:08.000Z</time>
      </trkpt>
      <trkpt lat="43.97422" lon="3.03117">
        <ele>602.1</ele>
        <time>2026-04-30T10:02:09.000Z</time>
      </trkpt>
      <trkpt lat="43.97421" lon="3.03118">
        <ele>602</ele>
        <time>2026-04-30T10:02:10.000Z</time>
      </trkpt>
      <trkpt lat="43.97421" lon="3.03119">
        <ele>602.1</ele>
        <time>2026-04-30T10:02:11.000Z</time>
      </trkpt>
      <trkpt lat="43.9742" lon="3.03122">
        <ele>602.3</ele>
        <time>2026-04-30T10:02:12.000Z</time>
      </trkpt>
      <trkpt lat="43.9742" lon="3.03124">
        <ele>602.6</ele>
        <time>2026-04-30T10:02:13.000Z</time>
      </trkpt>
      <trkpt lat="43.97419" lon="3.03126">
        <ele>602.8</ele>
        <time>2026-04-30T10:02:14.000Z</time>
      </trkpt>
      <trkpt lat="43.97419" lon="3.03127">
        <ele>604.4</ele>
        <time>2026-04-30T10:02:15.000Z</time>
      </trkpt>
      <trkpt lat="43.97419" lon="3.03128">
        <ele>605.8</ele>
        <time>2026-04-30T10:02:16.000Z</time>
      </trkpt>
      <trkpt lat="43.97419" lon="3.03128">
        <ele>606.1</ele>
        <time>2026-04-30T10:02:17.000Z</time>
      </trkpt>
      <trkpt lat="43.97418" lon="3.03127">
        <ele>606</ele>
        <time>2026-04-30T10:02:18.000Z</time>
      </trkpt>
      <trkpt lat="43.97418" lon="3.03128">
        <ele>606.6</ele>
        <time>2026-04-30T10:02:19.000Z</time>
      </trkpt>
      <trkpt lat="43.97417" lon="3.0313">
        <ele>606.6</ele>
        <time>2026-04-30T10:02:20.000Z</time>
      </trkpt>
      <trkpt lat="43.97417" lon="3.03132">
        <ele>606.7</ele>
        <time>2026-04-30T10:02:21.000Z</time>
      </trkpt>
      <trkpt lat="43.97417" lon="3.03134">
        <ele>606.6</ele>
        <time>2026-04-30T10:02:22.000Z</time>
      </trkpt>
      <trkpt lat="43.97417" lon="3.03136">
        <ele>606.8</ele>
        <time>2026-04-30T10:02:23.000Z</time>
      </trkpt>
      <trkpt lat="43.97416" lon="3.03138">
        <ele>607</ele>
        <time>2026-04-30T10:02:24.000Z</time>
      </trkpt>
      <trkpt lat="43.97415" lon="3.03139">
        <ele>607.2</ele>
        <time>2026-04-30T10:02:25.000Z</time>
      </trkpt>
      <trkpt lat="43.97415" lon="3.0314">
        <ele>607</ele>
        <time>2026-04-30T10:02:26.000Z</time>
      </trkpt>
      <trkpt lat="43.97415" lon="3.03142">
        <ele>607.1</ele>
        <time>2026-04-30T10:02:27.000Z</time>
      </trkpt>
      <trkpt lat="43.97415" lon="3.03144">
        <ele>607.3</ele>
        <time>2026-04-30T10:02:28.000Z</time>
      </trkpt>
      <trkpt lat="43.97415" lon="3.03145">
        <ele>607.1</ele>
        <time>2026-04-30T10:02:29.000Z</time>
      </trkpt>
      <trkpt lat="43.97414" lon="3.03147">
        <ele>606.8</ele>
        <time>2026-04-30T10:02:30.000Z</time>
      </trkpt>
      <trkpt lat="43.97415" lon="3.03148">
        <ele>606.7</ele>
        <time>2026-04-30T10:02:31.000Z</time>
      </trkpt>
      <trkpt lat="43.97415" lon="3.03149">
        <ele>606.8</ele>
        <time>2026-04-30T10:02:32.000Z</time>
      </trkpt>
      <trkpt lat="43.97415" lon="3.03152">
        <ele>606.5</ele>
        <time>2026-04-30T10:02:33.999Z</time>
      </trkpt>
      <trkpt lat="43.97416" lon="3.03153">
        <ele>606.5</ele>
        <time>2026-04-30T10:02:34.999Z</time>
      </trkpt>
      <trkpt lat="43.97416" lon="3.03155">
        <ele>606.2</ele>
        <time>2026-04-30T10:02:35.999Z</time>
      </trkpt>
      <trkpt lat="43.97417" lon="3.03157">
        <ele>606.2</ele>
        <time>2026-04-30T10:02:36.999Z</time>
      </trkpt>
      <trkpt lat="43.97417" lon="3.03158">
        <ele>606.2</ele>
        <time>2026-04-30T10:02:37.999Z</time>
      </trkpt>
      <trkpt lat="43.97416" lon="3.03159">
        <ele>605.8</ele>
        <time>2026-04-30T10:02:38.999Z</time>
      </trkpt>
      <trkpt lat="43.97417" lon="3.03161">
        <ele>605.3</ele>
        <time>2026-04-30T10:02:39.999Z</time>
      </trkpt>
      <trkpt lat="43.97418" lon="3.03162">
        <ele>605</ele>
        <time>2026-04-30T10:02:40.999Z</time>
      </trkpt>
      <trkpt lat="43.97419" lon="3.03163">
        <ele>604.9</ele>
        <time>2026-04-30T10:02:41.999Z</time>
      </trkpt>
      <trkpt lat="43.9742" lon="3.03164">
        <ele>604.5</ele>
        <time>2026-04-30T10:02:42.999Z</time>
      </trkpt>
      <trkpt lat="43.9742" lon="3.03165">
        <ele>604.2</ele>
        <time>2026-04-30T10:02:43.999Z</time>
      </trkpt>
      <trkpt lat="43.97421" lon="3.03167">
        <ele>604.2</ele>
        <time>2026-04-30T10:02:44.999Z</time>
      </trkpt>
      <trkpt lat="43.97421" lon="3.03169">
        <ele>603.8</ele>
        <time>2026-04-30T10:02:45.999Z</time>
      </trkpt>
      <trkpt lat="43.97421" lon="3.0317">
        <ele>603.8</ele>
        <time>2026-04-30T10:02:46.999Z</time>
      </trkpt>
      <trkpt lat="43.97422" lon="3.03172">
        <ele>603.6</ele>
        <time>2026-04-30T10:02:47.999Z</time>
      </trkpt>
      <trkpt lat="43.97423" lon="3.03174">
        <ele>603.8</ele>
        <time>2026-04-30T10:02:48.999Z</time>
      </trkpt>
      <trkpt lat="43.97424" lon="3.03175">
        <ele>604.1</ele>
        <time>2026-04-30T10:02:49.999Z</time>
      </trkpt>
      <trkpt lat="43.97425" lon="3.03176">
        <ele>604.5</ele>
        <time>2026-04-30T10:02:50.999Z</time>
      </trkpt>
      <trkpt lat="43.97425" lon="3.03177">
        <ele>604.6</ele>
        <time>2026-04-30T10:02:51.999Z</time>
      </trkpt>
      <trkpt lat="43.97425" lon="3.03179">
        <ele>604.4</ele>
        <time>2026-04-30T10:02:52.999Z</time>
      </trkpt>
      <trkpt lat="43.97425" lon="3.0318">
        <ele>604.4</ele>
        <time>2026-04-30T10:02:53.999Z</time>
      </trkpt>
      <trkpt lat="43.97426" lon="3.03182">
        <ele>604.2</ele>
        <time>2026-04-30T10:02:54.999Z</time>
      </trkpt>
      <trkpt lat="43.97426" lon="3.03183">
        <ele>604.4</ele>
        <time>2026-04-30T10:02:55.999Z</time>
      </trkpt>
      <trkpt lat="43.97426" lon="3.03185">
        <ele>604.5</ele>
        <time>2026-04-30T10:02:56.999Z</time>
      </trkpt>
      <trkpt lat="43.97426" lon="3.03187">
        <ele>605</ele>
        <time>2026-04-30T10:02:57.999Z</time>
      </trkpt>
      <trkpt lat="43.97426" lon="3.03188">
        <ele>605.3</ele>
        <time>2026-04-30T10:02:58.999Z</time>
      </trkpt>
      <trkpt lat="43.97426" lon="3.03187">
        <ele>605.5</ele>
        <time>2026-04-30T10:02:59.999Z</time>
      </trkpt>
      <trkpt lat="43.97426" lon="3.03187">
        <ele>604.9</ele>
        <time>2026-04-30T10:03:00.999Z</time>
      </trkpt>
      <trkpt lat="43.97425" lon="3.03188">
        <ele>604.6</ele>
        <time>2026-04-30T10:03:01.999Z</time>
      </trkpt>
      <trkpt lat="43.97424" lon="3.0319">
        <ele>604</ele>
        <time>2026-04-30T10:03:02.999Z</time>
      </trkpt>
      <trkpt lat="43.97424" lon="3.03191">
        <ele>604.1</ele>
        <time>2026-04-30T10:03:03.999Z</time>
      </trkpt>
      <trkpt lat="43.97423" lon="3.03192">
        <ele>603.9</ele>
        <time>2026-04-30T10:03:04.999Z</time>
      </trkpt>
      <trkpt lat="43.97424" lon="3.03194">
        <ele>603.4</ele>
        <time>2026-04-30T10:03:05.999Z</time>
      </trkpt>
      <trkpt lat="43.97424" lon="3.03195">
        <ele>602.9</ele>
        <time>2026-04-30T10:03:06.999Z</time>
      </trkpt>
      <trkpt lat="43.97424" lon="3.03196">
        <ele>602.3</ele>
        <time>2026-04-30T10:03:07.999Z</time>
      </trkpt>
      <trkpt lat="43.97424" lon="3.03198">
        <ele>602.4</ele>
        <time>2026-04-30T10:03:08.999Z</time>
      </trkpt>
      <trkpt lat="43.97425" lon="3.032">
        <ele>602.8</ele>
        <time>2026-04-30T10:03:09.999Z</time>
      </trkpt>
      <trkpt lat="43.97425" lon="3.03201">
        <ele>602.5</ele>
        <time>2026-04-30T10:03:10.999Z</time>
      </trkpt>
      <trkpt lat="43.97425" lon="3.03202">
        <ele>602.1</ele>
        <time>2026-04-30T10:03:11.999Z</time>
      </trkpt>
      <trkpt lat="43.97425" lon="3.03204">
        <ele>601.8</ele>
        <time>2026-04-30T10:03:12.999Z</time>
      </trkpt>
      <trkpt lat="43.97425" lon="3.03205">
        <ele>601.5</ele>
        <time>2026-04-30T10:03:13.999Z</time>
      </trkpt>
      <trkpt lat="43.97425" lon="3.03207">
        <ele>601.1</ele>
        <time>2026-04-30T10:03:14.999Z</time>
      </trkpt>
      <trkpt lat="43.97425" lon="3.03209">
        <ele>600.8</ele>
        <time>2026-04-30T10:03:15.999Z</time>
      </trkpt>
      <trkpt lat="43.97426" lon="3.03212">
        <ele>601</ele>
        <time>2026-04-30T10:03:16.999Z</time>
      </trkpt>
      <trkpt lat="43.97428" lon="3.03214">
        <ele>601.3</ele>
        <time>2026-04-30T10:03:17.999Z</time>
      </trkpt>
      <trkpt lat="43.97428" lon="3.03215">
        <ele>601.4</ele>
        <time>2026-04-30T10:03:18.999Z</time>
      </trkpt>
      <trkpt lat="43.97428" lon="3.03217">
        <ele>601.6</ele>
        <time>2026-04-30T10:03:19.999Z</time>
      </trkpt>
      <trkpt lat="43.97428" lon="3.03218">
        <ele>602.1</ele>
        <time>2026-04-30T10:03:20.999Z</time>
      </trkpt>
      <trkpt lat="43.97428" lon="3.0322">
        <ele>602.7</ele>
        <time>2026-04-30T10:03:21.999Z</time>
      </trkpt>
      <trkpt lat="43.97428" lon="3.03221">
        <ele>603</ele>
        <time>2026-04-30T10:03:22.999Z</time>
      </trkpt>
      <trkpt lat="43.97428" lon="3.03222">
        <ele>602.9</ele>
        <time>2026-04-30T10:03:23.999Z</time>
      </trkpt>
      <trkpt lat="43.97429" lon="3.03222">
        <ele>602.4</ele>
        <time>2026-04-30T10:03:24.999Z</time>
      </trkpt>
      <trkpt lat="43.97429" lon="3.03224">
        <ele>602.5</ele>
        <time>2026-04-30T10:03:25.999Z</time>
      </trkpt>
      <trkpt lat="43.97429" lon="3.03225">
        <ele>601.6</ele>
        <time>2026-04-30T10:03:26.999Z</time>
      </trkpt>
      <trkpt lat="43.9743" lon="3.03227">
        <ele>601.5</ele>
        <time>2026-04-30T10:03:27.999Z</time>
      </trkpt>
      <trkpt lat="43.9743" lon="3.03228">
        <ele>601.4</ele>
        <time>2026-04-30T10:03:28.999Z</time>
      </trkpt>
      <trkpt lat="43.97431" lon="3.03229">
        <ele>601.3</ele>
        <time>2026-04-30T10:03:29.999Z</time>
      </trkpt>
      <trkpt lat="43.97432" lon="3.03232">
        <ele>600.8</ele>
        <time>2026-04-30T10:03:30.999Z</time>
      </trkpt>
      <trkpt lat="43.97432" lon="3.03233">
        <ele>600.4</ele>
        <time>2026-04-30T10:03:31.999Z</time>
      </trkpt>
      <trkpt lat="43.97433" lon="3.03235">
        <ele>600</ele>
        <time>2026-04-30T10:03:32.999Z</time>
      </trkpt>
      <trkpt lat="43.97433" lon="3.03236">
        <ele>599.8</ele>
        <time>2026-04-30T10:03:33.999Z</time>
      </trkpt>
      <trkpt lat="43.97433" lon="3.03237">
        <ele>600.3</ele>
        <time>2026-04-30T10:03:34.999Z</time>
      </trkpt>
      <trkpt lat="43.97433" lon="3.03238">
        <ele>600.5</ele>
        <time>2026-04-30T10:03:35.999Z</time>
      </trkpt>
      <trkpt lat="43.97432" lon="3.03239">
        <ele>600.5</ele>
        <time>2026-04-30T10:03:36.999Z</time>
      </trkpt>
      <trkpt lat="43.97432" lon="3.0324">
        <ele>600.3</ele>
        <time>2026-04-30T10:03:37.999Z</time>
      </trkpt>
      <trkpt lat="43.97431" lon="3.03241">
        <ele>600</ele>
        <time>2026-04-30T10:03:38.999Z</time>
      </trkpt>
      <trkpt lat="43.97431" lon="3.03241">
        <ele>599.4</ele>
        <time>2026-04-30T10:03:39.999Z</time>
      </trkpt>
      <trkpt lat="43.97431" lon="3.03242">
        <ele>598.9</ele>
        <time>2026-04-30T10:03:40.999Z</time>
      </trkpt>
      <trkpt lat="43.97432" lon="3.03243">
        <ele>598.2</ele>
        <time>2026-04-30T10:03:41.999Z</time>
      </trkpt>
      <trkpt lat="43.97431" lon="3.03245">
        <ele>597.9</ele>
        <time>2026-04-30T10:03:42.999Z</time>
      </trkpt>
      <trkpt lat="43.97431" lon="3.03248">
        <ele>597.4</ele>
        <time>2026-04-30T10:03:43.999Z</time>
      </trkpt>
      <trkpt lat="43.97431" lon="3.0325">
        <ele>597.6</ele>
        <time>2026-04-30T10:03:44.999Z</time>
      </trkpt>
      <trkpt lat="43.97431" lon="3.03251">
        <ele>597.4</ele>
        <time>2026-04-30T10:03:45.999Z</time>
      </trkpt>
      <trkpt lat="43.97431" lon="3.0325">
        <ele>596.4</ele>
        <time>2026-04-30T10:03:46.999Z</time>
      </trkpt>
      <trkpt lat="43.9743" lon="3.0325">
        <ele>595.7</ele>
        <time>2026-04-30T10:03:47.999Z</time>
      </trkpt>
      <trkpt lat="43.97429" lon="3.03249">
        <ele>595.3</ele>
        <time>2026-04-30T10:03:48.999Z</time>
      </trkpt>
      <trkpt lat="43.97429" lon="3.03248">
        <ele>594.9</ele>
        <time>2026-04-30T10:03:49.999Z</time>
      </trkpt>
      <trkpt lat="43.97428" lon="3.03247">
        <ele>594.5</ele>
        <time>2026-04-30T10:03:50.999Z</time>
      </trkpt>
      <trkpt lat="43.97428" lon="3.03247">
        <ele>595.3</ele>
        <time>2026-04-30T10:03:51.999Z</time>
      </trkpt>
      <trkpt lat="43.97428" lon="3.03246">
        <ele>594.9</ele>
        <time>2026-04-30T10:03:52.999Z</time>
      </trkpt>
      <trkpt lat="43.97427" lon="3.03246">
        <ele>594.5</ele>
        <time>2026-04-30T10:03:53.999Z</time>
      </trkpt>
      <trkpt lat="43.97426" lon="3.03246">
        <ele>594.5</ele>
        <time>2026-04-30T10:03:54.999Z</time>
      </trkpt>
      <trkpt lat="43.97425" lon="3.03248">
        <ele>594.4</ele>
        <time>2026-04-30T10:03:55.999Z</time>
      </trkpt>
      <trkpt lat="43.97424" lon="3.0325">
        <ele>594.3</ele>
        <time>2026-04-30T10:03:56.999Z</time>
      </trkpt>
      <trkpt lat="43.97423" lon="3.03251">
        <ele>593.6</ele>
        <time>2026-04-30T10:03:57.999Z</time>
      </trkpt>
      <trkpt lat="43.97422" lon="3.03251">
        <ele>593</ele>
        <time>2026-04-30T10:03:58.999Z</time>
      </trkpt>
      <trkpt lat="43.97422" lon="3.03252">
        <ele>592.4</ele>
        <time>2026-04-30T10:03:59.999Z</time>
      </trkpt>
      <trkpt lat="43.97422" lon="3.03254">
        <ele>592</ele>
        <time>2026-04-30T10:04:00.999Z</time>
      </trkpt>
      <trkpt lat="43.97421" lon="3.03255">
        <ele>592</ele>
        <time>2026-04-30T10:04:01.999Z</time>
      </trkpt>
      <trkpt lat="43.97421" lon="3.03256">
        <ele>592.3</ele>
        <time>2026-04-30T10:04:02.999Z</time>
      </trkpt>
      <trkpt lat="43.9742" lon="3.03257">
        <ele>592.4</ele>
        <time>2026-04-30T10:04:03.999Z</time>
      </trkpt>
      <trkpt lat="43.97419" lon="3.03258">
        <ele>592.3</ele>
        <time>2026-04-30T10:04:04.999Z</time>
      </trkpt>
      <trkpt lat="43.97417" lon="3.03259">
        <ele>592.1</ele>
        <time>2026-04-30T10:04:05.999Z</time>
      </trkpt>
      <trkpt lat="43.97416" lon="3.0326">
        <ele>591.7</ele>
        <time>2026-04-30T10:04:06.999Z</time>
      </trkpt>
      <trkpt lat="43.97416" lon="3.0326">
        <ele>590.9</ele>
        <time>2026-04-30T10:04:07.999Z</time>
      </trkpt>
      <trkpt lat="43.97416" lon="3.0326">
        <ele>590.9</ele>
        <time>2026-04-30T10:04:08.999Z</time>
      </trkpt>
      <trkpt lat="43.97416" lon="3.0326">
        <ele>591</ele>
        <time>2026-04-30T10:04:09.999Z</time>
      </trkpt>
      <trkpt lat="43.97416" lon="3.0326">
        <ele>592</ele>
        <time>2026-04-30T10:04:10.999Z</time>
      </trkpt>
      <trkpt lat="43.97415" lon="3.0326">
        <ele>592.1</ele>
        <time>2026-04-30T10:04:11.999Z</time>
      </trkpt>
      <trkpt lat="43.97415" lon="3.0326">
        <ele>592.3</ele>
        <time>2026-04-30T10:04:12.999Z</time>
      </trkpt>
      <trkpt lat="43.97415" lon="3.0326">
        <ele>592.7</ele>
        <time>2026-04-30T10:04:13.999Z</time>
      </trkpt>
      <trkpt lat="43.97414" lon="3.03259">
        <ele>592.8</ele>
        <time>2026-04-30T10:04:14.999Z</time>
      </trkpt>
      <trkpt lat="43.97412" lon="3.03258">
        <ele>592.7</ele>
        <time>2026-04-30T10:04:15.999Z</time>
      </trkpt>
      <trkpt lat="43.97412" lon="3.03257">
        <ele>592.7</ele>
        <time>2026-04-30T10:04:16.999Z</time>
      </trkpt>
      <trkpt lat="43.97411" lon="3.03257">
        <ele>592.7</ele>
        <time>2026-04-30T10:04:17.999Z</time>
      </trkpt>
      <trkpt lat="43.9741" lon="3.03257">
        <ele>593</ele>
        <time>2026-04-30T10:04:18.999Z</time>
      </trkpt>
      <trkpt lat="43.97411" lon="3.03258">
        <ele>593.6</ele>
        <time>2026-04-30T10:04:19.999Z</time>
      </trkpt>
      <trkpt lat="43.97411" lon="3.03258">
        <ele>593.7</ele>
        <time>2026-04-30T10:04:20.999Z</time>
      </trkpt>
      <trkpt lat="43.97411" lon="3.03258">
        <ele>593.7</ele>
        <time>2026-04-30T10:04:21.999Z</time>
      </trkpt>
      <trkpt lat="43.97411" lon="3.03258">
        <ele>593.4</ele>
        <time>2026-04-30T10:04:22.999Z</time>
      </trkpt>
      <trkpt lat="43.97411" lon="3.03258">
        <ele>593.5</ele>
        <time>2026-04-30T10:04:23.999Z</time>
      </trkpt>
      <trkpt lat="43.97411" lon="3.03257">
        <ele>593.7</ele>
        <time>2026-04-30T10:04:24.999Z</time>
      </trkpt>
      <trkpt lat="43.97412" lon="3.03258">
        <ele>594.2</ele>
        <time>2026-04-30T10:04:25.999Z</time>
      </trkpt>
      <trkpt lat="43.97412" lon="3.03258">
        <ele>594.9</ele>
        <time>2026-04-30T10:04:26.999Z</time>
      </trkpt>
      <trkpt lat="43.97411" lon="3.03259">
        <ele>595.5</ele>
        <time>2026-04-30T10:04:27.999Z</time>
      </trkpt>
      <trkpt lat="43.9741" lon="3.03259">
        <ele>596.2</ele>
        <time>2026-04-30T10:04:28.999Z</time>
      </trkpt>
      <trkpt lat="43.97409" lon="3.03259">
        <ele>596.1</ele>
        <time>2026-04-30T10:04:29.999Z</time>
      </trkpt>
      <trkpt lat="43.97408" lon="3.03258">
        <ele>595.8</ele>
        <time>2026-04-30T10:04:30.999Z</time>
      </trkpt>
      <trkpt lat="43.97407" lon="3.03257">
        <ele>595.7</ele>
        <time>2026-04-30T10:04:31.999Z</time>
      </trkpt>
      <trkpt lat="43.97406" lon="3.03257">
        <ele>595.5</ele>
        <time>2026-04-30T10:04:32.999Z</time>
      </trkpt>
      <trkpt lat="43.97405" lon="3.03256">
        <ele>595.3</ele>
        <time>2026-04-30T10:04:33.999Z</time>
      </trkpt>
      <trkpt lat="43.97404" lon="3.03256">
        <ele>595.1</ele>
        <time>2026-04-30T10:04:34.999Z</time>
      </trkpt>
      <trkpt lat="43.97403" lon="3.03256">
        <ele>595.2</ele>
        <time>2026-04-30T10:04:35.999Z</time>
      </trkpt>
      <trkpt lat="43.97402" lon="3.03255">
        <ele>595.1</ele>
        <time>2026-04-30T10:04:36.999Z</time>
      </trkpt>
      <trkpt lat="43.97401" lon="3.03255">
        <ele>595.4</ele>
        <time>2026-04-30T10:04:37.999Z</time>
      </trkpt>
      <trkpt lat="43.974" lon="3.03255">
        <ele>595.6</ele>
        <time>2026-04-30T10:04:38.999Z</time>
      </trkpt>
      <trkpt lat="43.97398" lon="3.03256">
        <ele>595.9</ele>
        <time>2026-04-30T10:04:39.999Z</time>
      </trkpt>
      <trkpt lat="43.97397" lon="3.03256">
        <ele>596.1</ele>
        <time>2026-04-30T10:04:40.999Z</time>
      </trkpt>
      <trkpt lat="43.97396" lon="3.03257">
        <ele>596.2</ele>
        <time>2026-04-30T10:04:41.999Z</time>
      </trkpt>
      <trkpt lat="43.97395" lon="3.03258">
        <ele>595.8</ele>
        <time>2026-04-30T10:04:42.999Z</time>
      </trkpt>
      <trkpt lat="43.97395" lon="3.03257">
        <ele>596</ele>
        <time>2026-04-30T10:04:43.999Z</time>
      </trkpt>
      <trkpt lat="43.97394" lon="3.03257">
        <ele>595.7</ele>
        <time>2026-04-30T10:04:44.999Z</time>
      </trkpt>
      <trkpt lat="43.97393" lon="3.03257">
        <ele>595.4</ele>
        <time>2026-04-30T10:04:45.999Z</time>
      </trkpt>
      <trkpt lat="43.97391" lon="3.03256">
        <ele>595.2</ele>
        <time>2026-04-30T10:04:46.999Z</time>
      </trkpt>
      <trkpt lat="43.97389" lon="3.03256">
        <ele>595.5</ele>
        <time>2026-04-30T10:04:47.999Z</time>
      </trkpt>
      <trkpt lat="43.97388" lon="3.03257">
        <ele>595.8</ele>
        <time>2026-04-30T10:04:48.999Z</time>
      </trkpt>
      <trkpt lat="43.97384" lon="3.03258">
        <ele>596.4</ele>
        <time>2026-04-30T10:04:50.999Z</time>
      </trkpt>
      <trkpt lat="43.97381" lon="3.03258">
        <ele>596.6</ele>
        <time>2026-04-30T10:04:51.999Z</time>
      </trkpt>
      <trkpt lat="43.9738" lon="3.03257">
        <ele>594.3</ele>
        <time>2026-04-30T10:04:52.999Z</time>
      </trkpt>
      <trkpt lat="43.97378" lon="3.03258">
        <ele>594.3</ele>
        <time>2026-04-30T10:04:53.999Z</time>
      </trkpt>
      <trkpt lat="43.97378" lon="3.03259">
        <ele>594.2</ele>
        <time>2026-04-30T10:04:54.999Z</time>
      </trkpt>
      <trkpt lat="43.97376" lon="3.0326">
        <ele>593.1</ele>
        <time>2026-04-30T10:04:55.999Z</time>
      </trkpt>
      <trkpt lat="43.97375" lon="3.0326">
        <ele>594.1</ele>
        <time>2026-04-30T10:04:56.999Z</time>
      </trkpt>
      <trkpt lat="43.97373" lon="3.0326">
        <ele>594.8</ele>
        <time>2026-04-30T10:04:57.999Z</time>
      </trkpt>
      <trkpt lat="43.97372" lon="3.03259">
        <ele>595.5</ele>
        <time>2026-04-30T10:04:58.999Z</time>
      </trkpt>
      <trkpt lat="43.97371" lon="3.03259">
        <ele>595.6</ele>
        <time>2026-04-30T10:04:59.999Z</time>
      </trkpt>
      <trkpt lat="43.97371" lon="3.0326">
        <ele>595.5</ele>
        <time>2026-04-30T10:05:00.999Z</time>
      </trkpt>
      <trkpt lat="43.9737" lon="3.0326">
        <ele>595</ele>
        <time>2026-04-30T10:05:01.999Z</time>
      </trkpt>
      <trkpt lat="43.97371" lon="3.03259">
        <ele>594.5</ele>
        <time>2026-04-30T10:05:02.999Z</time>
      </trkpt>
      <trkpt lat="43.9737" lon="3.03258">
        <ele>594.1</ele>
        <time>2026-04-30T10:05:03.999Z</time>
      </trkpt>
      <trkpt lat="43.9737" lon="3.03258">
        <ele>594.4</ele>
        <time>2026-04-30T10:05:04.999Z</time>
      </trkpt>
      <trkpt lat="43.97369" lon="3.03257">
        <ele>594.5</ele>
        <time>2026-04-30T10:05:05.999Z</time>
      </trkpt>
      <trkpt lat="43.97369" lon="3.03257">
        <ele>594.5</ele>
        <time>2026-04-30T10:05:06.999Z</time>
      </trkpt>
      <trkpt lat="43.97368" lon="3.03257">
        <ele>594.6</ele>
        <time>2026-04-30T10:05:07.999Z</time>
      </trkpt>
      <trkpt lat="43.97367" lon="3.03257">
        <ele>594.7</ele>
        <time>2026-04-30T10:05:08.999Z</time>
      </trkpt>
      <trkpt lat="43.97366" lon="3.03256">
        <ele>594.4</ele>
        <time>2026-04-30T10:05:09.999Z</time>
      </trkpt>
      <trkpt lat="43.97365" lon="3.03257">
        <ele>594.2</ele>
        <time>2026-04-30T10:05:10.999Z</time>
      </trkpt>
      <trkpt lat="43.97364" lon="3.03258">
        <ele>594.6</ele>
        <time>2026-04-30T10:05:12.999Z</time>
      </trkpt>
      <trkpt lat="43.97364" lon="3.03259">
        <ele>593.9</ele>
        <time>2026-04-30T10:05:13.999Z</time>
      </trkpt>
      <trkpt lat="43.97364" lon="3.03259">
        <ele>593.8</ele>
        <time>2026-04-30T10:05:14.999Z</time>
      </trkpt>
      <trkpt lat="43.97364" lon="3.0326">
        <ele>593.9</ele>
        <time>2026-04-30T10:05:15.999Z</time>
      </trkpt>
      <trkpt lat="43.97365" lon="3.0326">
        <ele>594</ele>
        <time>2026-04-30T10:05:16.999Z</time>
      </trkpt>
      <trkpt lat="43.97365" lon="3.03262">
        <ele>594.6</ele>
        <time>2026-04-30T10:05:17.999Z</time>
      </trkpt>
      <trkpt lat="43.97366" lon="3.03262">
        <ele>594.8</ele>
        <time>2026-04-30T10:05:18.999Z</time>
      </trkpt>
      <trkpt lat="43.97367" lon="3.03263">
        <ele>594.8</ele>
        <time>2026-04-30T10:05:19.999Z</time>
      </trkpt>
      <trkpt lat="43.97368" lon="3.03264">
        <ele>594.7</ele>
        <time>2026-04-30T10:05:20.999Z</time>
      </trkpt>
      <trkpt lat="43.97369" lon="3.03265">
        <ele>594.4</ele>
        <time>2026-04-30T10:05:21.999Z</time>
      </trkpt>
      <trkpt lat="43.9737" lon="3.03266">
        <ele>593.8</ele>
        <time>2026-04-30T10:05:22.999Z</time>
      </trkpt>
      <trkpt lat="43.97371" lon="3.03267">
        <ele>593.7</ele>
        <time>2026-04-30T10:05:23.999Z</time>
      </trkpt>
      <trkpt lat="43.97372" lon="3.03268">
        <ele>593.1</ele>
        <time>2026-04-30T10:05:24.999Z</time>
      </trkpt>
      <trkpt lat="43.97373" lon="3.03269">
        <ele>592.9</ele>
        <time>2026-04-30T10:05:25.999Z</time>
      </trkpt>
      <trkpt lat="43.97373" lon="3.0327">
        <ele>592.3</ele>
        <time>2026-04-30T10:05:26.999Z</time>
      </trkpt>
      <trkpt lat="43.97373" lon="3.03271">
        <ele>592.8</ele>
        <time>2026-04-30T10:05:27.999Z</time>
      </trkpt>
      <trkpt lat="43.97374" lon="3.03272">
        <ele>592.9</ele>
        <time>2026-04-30T10:05:28.999Z</time>
      </trkpt>
      <trkpt lat="43.97375" lon="3.03272">
        <ele>592.8</ele>
        <time>2026-04-30T10:05:29.999Z</time>
      </trkpt>
      <trkpt lat="43.97375" lon="3.03273">
        <ele>593</ele>
        <time>2026-04-30T10:05:30.999Z</time>
      </trkpt>
      <trkpt lat="43.97375" lon="3.03274">
        <ele>593.2</ele>
        <time>2026-04-30T10:05:31.999Z</time>
      </trkpt>
      <trkpt lat="43.97375" lon="3.03274">
        <ele>593.4</ele>
        <time>2026-04-30T10:05:32.999Z</time>
      </trkpt>
      <trkpt lat="43.97376" lon="3.03275">
        <ele>593.7</ele>
        <time>2026-04-30T10:05:33.999Z</time>
      </trkpt>
      <trkpt lat="43.97377" lon="3.03277">
        <ele>594</ele>
        <time>2026-04-30T10:05:34.999Z</time>
      </trkpt>
      <trkpt lat="43.97378" lon="3.03278">
        <ele>594.1</ele>
        <time>2026-04-30T10:05:35.999Z</time>
      </trkpt>
      <trkpt lat="43.97378" lon="3.03279">
        <ele>594.2</ele>
        <time>2026-04-30T10:05:36.999Z</time>
      </trkpt>
      <trkpt lat="43.97378" lon="3.03281">
        <ele>594.4</ele>
        <time>2026-04-30T10:05:37.999Z</time>
      </trkpt>
      <trkpt lat="43.97379" lon="3.03284">
        <ele>594.6</ele>
        <time>2026-04-30T10:05:38.999Z</time>
      </trkpt>
      <trkpt lat="43.9738" lon="3.03286">
        <ele>594.7</ele>
        <time>2026-04-30T10:05:39.999Z</time>
      </trkpt>
      <trkpt lat="43.9738" lon="3.03287">
        <ele>594.5</ele>
        <time>2026-04-30T10:05:40.999Z</time>
      </trkpt>
      <trkpt lat="43.97381" lon="3.03287">
        <ele>594.2</ele>
        <time>2026-04-30T10:05:41.999Z</time>
      </trkpt>
      <trkpt lat="43.9738" lon="3.03289">
        <ele>594.5</ele>
        <time>2026-04-30T10:05:42.999Z</time>
      </trkpt>
      <trkpt lat="43.97379" lon="3.03291">
        <ele>594.9</ele>
        <time>2026-04-30T10:05:43.999Z</time>
      </trkpt>
      <trkpt lat="43.9738" lon="3.03294">
        <ele>595.2</ele>
        <time>2026-04-30T10:05:44.999Z</time>
      </trkpt>
      <trkpt lat="43.9738" lon="3.03296">
        <ele>595.4</ele>
        <time>2026-04-30T10:05:45.999Z</time>
      </trkpt>
      <trkpt lat="43.97381" lon="3.03299">
        <ele>595.6</ele>
        <time>2026-04-30T10:05:46.999Z</time>
      </trkpt>
      <trkpt lat="43.97381" lon="3.03301">
        <ele>596.1</ele>
        <time>2026-04-30T10:05:47.999Z</time>
      </trkpt>
      <trkpt lat="43.97382" lon="3.03301">
        <ele>596.2</ele>
        <time>2026-04-30T10:05:48.999Z</time>
      </trkpt>
      <trkpt lat="43.97382" lon="3.03302">
        <ele>595.8</ele>
        <time>2026-04-30T10:05:49.999Z</time>
      </trkpt>
      <trkpt lat="43.97383" lon="3.03303">
        <ele>595.3</ele>
        <time>2026-04-30T10:05:50.999Z</time>
      </trkpt>
      <trkpt lat="43.97384" lon="3.03303">
        <ele>595.1</ele>
        <time>2026-04-30T10:05:51.999Z</time>
      </trkpt>
      <trkpt lat="43.97384" lon="3.03304">
        <ele>595.7</ele>
        <time>2026-04-30T10:05:52.999Z</time>
      </trkpt>
      <trkpt lat="43.97384" lon="3.03306">
        <ele>595.9</ele>
        <time>2026-04-30T10:05:53.999Z</time>
      </trkpt>
      <trkpt lat="43.97383" lon="3.03308">
        <ele>595.9</ele>
        <time>2026-04-30T10:05:54.999Z</time>
      </trkpt>
      <trkpt lat="43.97384" lon="3.0331">
        <ele>595.2</ele>
        <time>2026-04-30T10:05:55.999Z</time>
      </trkpt>
      <trkpt lat="43.97385" lon="3.03311">
        <ele>594.8</ele>
        <time>2026-04-30T10:05:56.999Z</time>
      </trkpt>
      <trkpt lat="43.97385" lon="3.03312">
        <ele>594.8</ele>
        <time>2026-04-30T10:05:57.999Z</time>
      </trkpt>
      <trkpt lat="43.97386" lon="3.03313">
        <ele>595.1</ele>
        <time>2026-04-30T10:05:58.999Z</time>
      </trkpt>
      <trkpt lat="43.97386" lon="3.03314">
        <ele>595.5</ele>
        <time>2026-04-30T10:05:59.999Z</time>
      </trkpt>
      <trkpt lat="43.97388" lon="3.03315">
        <ele>595.7</ele>
        <time>2026-04-30T10:06:00.999Z</time>
      </trkpt>
      <trkpt lat="43.97389" lon="3.03316">
        <ele>595.9</ele>
        <time>2026-04-30T10:06:01.999Z</time>
      </trkpt>
      <trkpt lat="43.9739" lon="3.03316">
        <ele>595.5</ele>
        <time>2026-04-30T10:06:02.999Z</time>
      </trkpt>
      <trkpt lat="43.97391" lon="3.03317">
        <ele>595.2</ele>
        <time>2026-04-30T10:06:03.999Z</time>
      </trkpt>
      <trkpt lat="43.97391" lon="3.03319">
        <ele>595.1</ele>
        <time>2026-04-30T10:06:04.999Z</time>
      </trkpt>
      <trkpt lat="43.97392" lon="3.0332">
        <ele>594.6</ele>
        <time>2026-04-30T10:06:05.999Z</time>
      </trkpt>
      <trkpt lat="43.97393" lon="3.03322">
        <ele>594.1</ele>
        <time>2026-04-30T10:06:06.999Z</time>
      </trkpt>
      <trkpt lat="43.97394" lon="3.03323">
        <ele>594</ele>
        <time>2026-04-30T10:06:07.999Z</time>
      </trkpt>
      <trkpt lat="43.97395" lon="3.03324">
        <ele>593.8</ele>
        <time>2026-04-30T10:06:08.999Z</time>
      </trkpt>
      <trkpt lat="43.97395" lon="3.03325">
        <ele>593.7</ele>
        <time>2026-04-30T10:06:09.999Z</time>
      </trkpt>
      <trkpt lat="43.97397" lon="3.03327">
        <ele>593.9</ele>
        <time>2026-04-30T10:06:10.999Z</time>
      </trkpt>
      <trkpt lat="43.97397" lon="3.03328">
        <ele>594.3</ele>
        <time>2026-04-30T10:06:11.999Z</time>
      </trkpt>
      <trkpt lat="43.97398" lon="3.0333">
        <ele>594.4</ele>
        <time>2026-04-30T10:06:12.999Z</time>
      </trkpt>
      <trkpt lat="43.97399" lon="3.0333">
        <ele>594.5</ele>
        <time>2026-04-30T10:06:13.999Z</time>
      </trkpt>
      <trkpt lat="43.974" lon="3.0333">
        <ele>594.7</ele>
        <time>2026-04-30T10:06:14.999Z</time>
      </trkpt>
      <trkpt lat="43.97401" lon="3.03331">
        <ele>595.1</ele>
        <time>2026-04-30T10:06:15.999Z</time>
      </trkpt>
      <trkpt lat="43.97402" lon="3.03332">
        <ele>595.4</ele>
        <time>2026-04-30T10:06:16.999Z</time>
      </trkpt>
      <trkpt lat="43.97403" lon="3.03334">
        <ele>595.1</ele>
        <time>2026-04-30T10:06:17.999Z</time>
      </trkpt>
      <trkpt lat="43.97404" lon="3.03335">
        <ele>595.2</ele>
        <time>2026-04-30T10:06:18.999Z</time>
      </trkpt>
      <trkpt lat="43.97405" lon="3.03335">
        <ele>595.4</ele>
        <time>2026-04-30T10:06:19.999Z</time>
      </trkpt>
      <trkpt lat="43.97407" lon="3.03335">
        <ele>595.7</ele>
        <time>2026-04-30T10:06:20.999Z</time>
      </trkpt>
      <trkpt lat="43.97408" lon="3.03335">
        <ele>596.2</ele>
        <time>2026-04-30T10:06:21.999Z</time>
      </trkpt>
      <trkpt lat="43.97409" lon="3.03335">
        <ele>596</ele>
        <time>2026-04-30T10:06:22.999Z</time>
      </trkpt>
      <trkpt lat="43.97411" lon="3.03336">
        <ele>596.5</ele>
        <time>2026-04-30T10:06:23.999Z</time>
      </trkpt>
      <trkpt lat="43.97413" lon="3.03336">
        <ele>596.6</ele>
        <time>2026-04-30T10:06:24.999Z</time>
      </trkpt>
      <trkpt lat="43.97415" lon="3.03336">
        <ele>596.3</ele>
        <time>2026-04-30T10:06:25.999Z</time>
      </trkpt>
      <trkpt lat="43.97416" lon="3.03337">
        <ele>596.2</ele>
        <time>2026-04-30T10:06:26.999Z</time>
      </trkpt>
      <trkpt lat="43.97416" lon="3.03338">
        <ele>595.7</ele>
        <time>2026-04-30T10:06:27.999Z</time>
      </trkpt>
      <trkpt lat="43.97417" lon="3.03338">
        <ele>595.6</ele>
        <time>2026-04-30T10:06:28.999Z</time>
      </trkpt>
      <trkpt lat="43.97418" lon="3.03339">
        <ele>595.7</ele>
        <time>2026-04-30T10:06:29.999Z</time>
      </trkpt>
      <trkpt lat="43.97419" lon="3.0334">
        <ele>595.7</ele>
        <time>2026-04-30T10:06:30.999Z</time>
      </trkpt>
      <trkpt lat="43.97419" lon="3.0334">
        <ele>595.5</ele>
        <time>2026-04-30T10:06:31.999Z</time>
      </trkpt>
      <trkpt lat="43.9742" lon="3.0334">
        <ele>595.2</ele>
        <time>2026-04-30T10:06:32.999Z</time>
      </trkpt>
      <trkpt lat="43.97421" lon="3.03341">
        <ele>594.9</ele>
        <time>2026-04-30T10:06:33.999Z</time>
      </trkpt>
      <trkpt lat="43.97423" lon="3.03341">
        <ele>595</ele>
        <time>2026-04-30T10:06:34.999Z</time>
      </trkpt>
      <trkpt lat="43.97424" lon="3.03342">
        <ele>595</ele>
        <time>2026-04-30T10:06:35.999Z</time>
      </trkpt>
      <trkpt lat="43.97425" lon="3.03342">
        <ele>594.7</ele>
        <time>2026-04-30T10:06:36.999Z</time>
      </trkpt>
      <trkpt lat="43.97427" lon="3.03342">
        <ele>594.5</ele>
        <time>2026-04-30T10:06:37.999Z</time>
      </trkpt>
      <trkpt lat="43.97429" lon="3.03342">
        <ele>594.7</ele>
        <time>2026-04-30T10:06:38.999Z</time>
      </trkpt>
      <trkpt lat="43.9743" lon="3.03342">
        <ele>594.8</ele>
        <time>2026-04-30T10:06:39.999Z</time>
      </trkpt>
      <trkpt lat="43.97431" lon="3.03342">
        <ele>595.3</ele>
        <time>2026-04-30T10:06:40.999Z</time>
      </trkpt>
      <trkpt lat="43.97432" lon="3.03343">
        <ele>595.7</ele>
        <time>2026-04-30T10:06:41.999Z</time>
      </trkpt>
      <trkpt lat="43.97433" lon="3.03343">
        <ele>596.5</ele>
        <time>2026-04-30T10:06:42.999Z</time>
      </trkpt>
      <trkpt lat="43.97435" lon="3.03343">
        <ele>596.5</ele>
        <time>2026-04-30T10:06:43.999Z</time>
      </trkpt>
      <trkpt lat="43.97436" lon="3.03344">
        <ele>595.9</ele>
        <time>2026-04-30T10:06:44.999Z</time>
      </trkpt>
      <trkpt lat="43.97436" lon="3.03342">
        <ele>595.9</ele>
        <time>2026-04-30T10:06:45.999Z</time>
      </trkpt>
      <trkpt lat="43.97436" lon="3.0334">
        <ele>596.1</ele>
        <time>2026-04-30T10:06:46.999Z</time>
      </trkpt>
      <trkpt lat="43.97437" lon="3.03339">
        <ele>596.5</ele>
        <time>2026-04-30T10:06:47.999Z</time>
      </trkpt>
      <trkpt lat="43.97437" lon="3.03338">
        <ele>596.6</ele>
        <time>2026-04-30T10:06:48.999Z</time>
      </trkpt>
      <trkpt lat="43.97438" lon="3.03337">
        <ele>596.9</ele>
        <time>2026-04-30T10:06:49.999Z</time>
      </trkpt>
      <trkpt lat="43.97439" lon="3.03336">
        <ele>597.3</ele>
        <time>2026-04-30T10:06:50.999Z</time>
      </trkpt>
      <trkpt lat="43.97439" lon="3.03334">
        <ele>596.9</ele>
        <time>2026-04-30T10:06:51.999Z</time>
      </trkpt>
      <trkpt lat="43.9744" lon="3.03333">
        <ele>596.9</ele>
        <time>2026-04-30T10:06:52.999Z</time>
      </trkpt>
      <trkpt lat="43.97441" lon="3.03331">
        <ele>597.1</ele>
        <time>2026-04-30T10:06:53.999Z</time>
      </trkpt>
      <trkpt lat="43.97442" lon="3.0333">
        <ele>597.3</ele>
        <time>2026-04-30T10:06:54.999Z</time>
      </trkpt>
      <trkpt lat="43.97443" lon="3.03329">
        <ele>597.9</ele>
        <time>2026-04-30T10:06:55.999Z</time>
      </trkpt>
      <trkpt lat="43.97443" lon="3.03328">
        <ele>597.9</ele>
        <time>2026-04-30T10:06:56.999Z</time>
      </trkpt>
      <trkpt lat="43.97444" lon="3.03328">
        <ele>598.4</ele>
        <time>2026-04-30T10:06:57.999Z</time>
      </trkpt>
      <trkpt lat="43.97445" lon="3.03329">
        <ele>598.4</ele>
        <time>2026-04-30T10:06:58.999Z</time>
      </trkpt>
      <trkpt lat="43.97445" lon="3.0333">
        <ele>598.3</ele>
        <time>2026-04-30T10:06:59.999Z</time>
      </trkpt>
      <trkpt lat="43.97446" lon="3.03331">
        <ele>598.2</ele>
        <time>2026-04-30T10:07:00.999Z</time>
      </trkpt>
      <trkpt lat="43.97446" lon="3.03332">
        <ele>598.1</ele>
        <time>2026-04-30T10:07:01.999Z</time>
      </trkpt>
      <trkpt lat="43.97447" lon="3.03334">
        <ele>598.3</ele>
        <time>2026-04-30T10:07:02.999Z</time>
      </trkpt>
      <trkpt lat="43.97447" lon="3.03334">
        <ele>598.8</ele>
        <time>2026-04-30T10:07:03.999Z</time>
      </trkpt>
      <trkpt lat="43.97448" lon="3.03335">
        <ele>598.9</ele>
        <time>2026-04-30T10:07:04.999Z</time>
      </trkpt>
      <trkpt lat="43.97449" lon="3.03335">
        <ele>599.2</ele>
        <time>2026-04-30T10:07:05.999Z</time>
      </trkpt>
      <trkpt lat="43.9745" lon="3.03334">
        <ele>599.2</ele>
        <time>2026-04-30T10:07:06.999Z</time>
      </trkpt>
      <trkpt lat="43.9745" lon="3.03334">
        <ele>599.7</ele>
        <time>2026-04-30T10:07:07.999Z</time>
      </trkpt>
      <trkpt lat="43.9745" lon="3.03334">
        <ele>600.1</ele>
        <time>2026-04-30T10:07:08.999Z</time>
      </trkpt>
      <trkpt lat="43.9745" lon="3.03333">
        <ele>600.2</ele>
        <time>2026-04-30T10:07:09.999Z</time>
      </trkpt>
      <trkpt lat="43.9745" lon="3.03333">
        <ele>600</ele>
        <time>2026-04-30T10:07:10.999Z</time>
      </trkpt>
      <trkpt lat="43.9745" lon="3.03333">
        <ele>600.1</ele>
        <time>2026-04-30T10:07:12.999Z</time>
      </trkpt>
      <trkpt lat="43.97449" lon="3.03333">
        <ele>600.4</ele>
        <time>2026-04-30T10:07:13.999Z</time>
      </trkpt>
      <trkpt lat="43.97449" lon="3.03334">
        <ele>600.7</ele>
        <time>2026-04-30T10:07:14.999Z</time>
      </trkpt>
      <trkpt lat="43.97449" lon="3.03335">
        <ele>600.1</ele>
        <time>2026-04-30T10:07:15.999Z</time>
      </trkpt>
      <trkpt lat="43.97449" lon="3.03336">
        <ele>599.8</ele>
        <time>2026-04-30T10:07:16.999Z</time>
      </trkpt>
      <trkpt lat="43.97449" lon="3.03336">
        <ele>599.4</ele>
        <time>2026-04-30T10:07:17.999Z</time>
      </trkpt>
      <trkpt lat="43.9745" lon="3.03337">
        <ele>599.2</ele>
        <time>2026-04-30T10:07:18.999Z</time>
      </trkpt>
      <trkpt lat="43.9745" lon="3.03338">
        <ele>599.1</ele>
        <time>2026-04-30T10:07:19.999Z</time>
      </trkpt>
      <trkpt lat="43.9745" lon="3.03338">
        <ele>597.7</ele>
        <time>2026-04-30T10:07:20.999Z</time>
      </trkpt>
      <trkpt lat="43.9745" lon="3.03338">
        <ele>597.3</ele>
        <time>2026-04-30T10:07:21.999Z</time>
      </trkpt>
      <trkpt lat="43.9745" lon="3.03338">
        <ele>597.3</ele>
        <time>2026-04-30T10:07:22.999Z</time>
      </trkpt>
      <trkpt lat="43.9745" lon="3.03338">
        <ele>597.3</ele>
        <time>2026-04-30T10:07:23.999Z</time>
      </trkpt>
      <trkpt lat="43.97451" lon="3.03339">
        <ele>597.1</ele>
        <time>2026-04-30T10:07:24.999Z</time>
      </trkpt>
      <trkpt lat="43.97452" lon="3.0334">
        <ele>597.1</ele>
        <time>2026-04-30T10:07:25.999Z</time>
      </trkpt>
      <trkpt lat="43.97453" lon="3.0334">
        <ele>597</ele>
        <time>2026-04-30T10:07:26.999Z</time>
      </trkpt>
      <trkpt lat="43.97453" lon="3.0334">
        <ele>596.7</ele>
        <time>2026-04-30T10:07:27.999Z</time>
      </trkpt>
      <trkpt lat="43.97453" lon="3.0334">
        <ele>596.7</ele>
        <time>2026-04-30T10:07:28.999Z</time>
      </trkpt>
      <trkpt lat="43.97453" lon="3.03338">
        <ele>597</ele>
        <time>2026-04-30T10:07:29.999Z</time>
      </trkpt>
      <trkpt lat="43.97454" lon="3.03337">
        <ele>597.2</ele>
        <time>2026-04-30T10:07:30.999Z</time>
      </trkpt>
      <trkpt lat="43.97454" lon="3.03337">
        <ele>597.2</ele>
        <time>2026-04-30T10:07:31.999Z</time>
      </trkpt>
      <trkpt lat="43.97455" lon="3.03337">
        <ele>597.2</ele>
        <time>2026-04-30T10:07:32.999Z</time>
      </trkpt>
      <trkpt lat="43.97455" lon="3.03337">
        <ele>597.3</ele>
        <time>2026-04-30T10:07:33.999Z</time>
      </trkpt>
      <trkpt lat="43.97455" lon="3.03337">
        <ele>597.4</ele>
        <time>2026-04-30T10:07:34.999Z</time>
      </trkpt>
      <trkpt lat="43.97456" lon="3.03338">
        <ele>597.7</ele>
        <time>2026-04-30T10:07:35.999Z</time>
      </trkpt>
      <trkpt lat="43.97457" lon="3.03338">
        <ele>597.7</ele>
        <time>2026-04-30T10:07:36.999Z</time>
      </trkpt>
      <trkpt lat="43.97457" lon="3.03339">
        <ele>597.6</ele>
        <time>2026-04-30T10:07:37.999Z</time>
      </trkpt>
      <trkpt lat="43.97458" lon="3.03339">
        <ele>598.9</ele>
        <time>2026-04-30T10:07:38.999Z</time>
      </trkpt>
      <trkpt lat="43.97458" lon="3.0334">
        <ele>600.5</ele>
        <time>2026-04-30T10:07:39.999Z</time>
      </trkpt>
      <trkpt lat="43.97458" lon="3.0334">
        <ele>600.9</ele>
        <time>2026-04-30T10:07:40.999Z</time>
      </trkpt>
      <trkpt lat="43.97458" lon="3.0334">
        <ele>601</ele>
        <time>2026-04-30T10:07:41.999Z</time>
      </trkpt>
      <trkpt lat="43.97457" lon="3.0334">
        <ele>601.3</ele>
        <time>2026-04-30T10:07:42.999Z</time>
      </trkpt>
      <trkpt lat="43.97457" lon="3.03341">
        <ele>601.2</ele>
        <time>2026-04-30T10:07:43.999Z</time>
      </trkpt>
      <trkpt lat="43.97457" lon="3.03342">
        <ele>601.3</ele>
        <time>2026-04-30T10:07:44.999Z</time>
      </trkpt>
      <trkpt lat="43.97458" lon="3.03342">
        <ele>601</ele>
        <time>2026-04-30T10:07:45.999Z</time>
      </trkpt>
      <trkpt lat="43.97457" lon="3.03343">
        <ele>600.7</ele>
        <time>2026-04-30T10:07:46.999Z</time>
      </trkpt>
      <trkpt lat="43.97457" lon="3.03343">
        <ele>600.6</ele>
        <time>2026-04-30T10:07:47.999Z</time>
      </trkpt>
      <trkpt lat="43.97457" lon="3.03343">
        <ele>600.6</ele>
        <time>2026-04-30T10:07:48.999Z</time>
      </trkpt>
      <trkpt lat="43.97457" lon="3.03343">
        <ele>600.6</ele>
        <time>2026-04-30T10:07:49.999Z</time>
      </trkpt>
      <trkpt lat="43.97457" lon="3.03343">
        <ele>600.6</ele>
        <time>2026-04-30T10:07:50.999Z</time>
      </trkpt>
      <trkpt lat="43.97457" lon="3.03343">
        <ele>600.7</ele>
        <time>2026-04-30T10:07:51.999Z</time>
      </trkpt>
      <trkpt lat="43.97457" lon="3.03343">
        <ele>600.9</ele>
        <time>2026-04-30T10:07:52.999Z</time>
      </trkpt>
      <trkpt lat="43.97457" lon="3.03343">
        <ele>601.2</ele>
        <time>2026-04-30T10:07:53.999Z</time>
      </trkpt>
      <trkpt lat="43.97457" lon="3.03343">
        <ele>601.1</ele>
        <time>2026-04-30T10:07:54.999Z</time>
      </trkpt>
      <trkpt lat="43.97457" lon="3.03343">
        <ele>601.2</ele>
        <time>2026-04-30T10:07:55.999Z</time>
      </trkpt>
      <trkpt lat="43.97457" lon="3.03343">
        <ele>601.2</ele>
        <time>2026-04-30T10:07:56.999Z</time>
      </trkpt>
      <trkpt lat="43.97457" lon="3.03343">
        <ele>601.3</ele>
        <time>2026-04-30T10:07:57.999Z</time>
      </trkpt>
      <trkpt lat="43.97457" lon="3.03343">
        <ele>601.4</ele>
        <time>2026-04-30T10:07:58.999Z</time>
      </trkpt>
      <trkpt lat="43.97457" lon="3.03343">
        <ele>601.5</ele>
        <time>2026-04-30T10:07:59.999Z</time>
      </trkpt>
      <trkpt lat="43.97457" lon="3.03343">
        <ele>601.8</ele>
        <time>2026-04-30T10:08:00.999Z</time>
      </trkpt>
      <trkpt lat="43.97457" lon="3.03343">
        <ele>601.9</ele>
        <time>2026-04-30T10:08:01.999Z</time>
      </trkpt>
      <trkpt lat="43.97458" lon="3.03343">
        <ele>601.8</ele>
        <time>2026-04-30T10:08:02.999Z</time>
      </trkpt>
      <trkpt lat="43.97458" lon="3.03343">
        <ele>601.9</ele>
        <time>2026-04-30T10:08:03.999Z</time>
      </trkpt>
      <trkpt lat="43.97458" lon="3.03343">
        <ele>601.9</ele>
        <time>2026-04-30T10:08:04.999Z</time>
      </trkpt>
      <trkpt lat="43.97458" lon="3.03343">
        <ele>601.5</ele>
        <time>2026-04-30T10:08:05.999Z</time>
      </trkpt>
      <trkpt lat="43.97458" lon="3.03343">
        <ele>601.4</ele>
        <time>2026-04-30T10:08:06.999Z</time>
      </trkpt>
      <trkpt lat="43.97458" lon="3.03343">
        <ele>601.4</ele>
        <time>2026-04-30T10:08:07.999Z</time>
      </trkpt>
      <trkpt lat="43.97458" lon="3.03344">
        <ele>601.6</ele>
        <time>2026-04-30T10:08:08.999Z</time>
      </trkpt>
      <trkpt lat="43.97458" lon="3.03345">
        <ele>601.6</ele>
        <time>2026-04-30T10:08:09.999Z</time>
      </trkpt>
      <trkpt lat="43.97459" lon="3.03346">
        <ele>601.4</ele>
        <time>2026-04-30T10:08:10.999Z</time>
      </trkpt>
      <trkpt lat="43.9746" lon="3.03346">
        <ele>601.4</ele>
        <time>2026-04-30T10:08:11.999Z</time>
      </trkpt>
      <trkpt lat="43.9746" lon="3.03346">
        <ele>601.5</ele>
        <time>2026-04-30T10:08:12.999Z</time>
      </trkpt>
      <trkpt lat="43.97461" lon="3.03347">
        <ele>601.5</ele>
        <time>2026-04-30T10:08:13.999Z</time>
      </trkpt>
      <trkpt lat="43.97462" lon="3.03348">
        <ele>601.5</ele>
        <time>2026-04-30T10:08:14.999Z</time>
      </trkpt>
      <trkpt lat="43.97463" lon="3.03349">
        <ele>601.3</ele>
        <time>2026-04-30T10:08:15.999Z</time>
      </trkpt>
      <trkpt lat="43.97464" lon="3.03349">
        <ele>601.4</ele>
        <time>2026-04-30T10:08:16.999Z</time>
      </trkpt>
      <trkpt lat="43.97465" lon="3.0335">
        <ele>601.5</ele>
        <time>2026-04-30T10:08:17.999Z</time>
      </trkpt>
      <trkpt lat="43.97465" lon="3.0335">
        <ele>601.3</ele>
        <time>2026-04-30T10:08:18.999Z</time>
      </trkpt>
      <trkpt lat="43.97466" lon="3.0335">
        <ele>601.3</ele>
        <time>2026-04-30T10:08:19.999Z</time>
      </trkpt>
      <trkpt lat="43.97466" lon="3.0335">
        <ele>601.5</ele>
        <time>2026-04-30T10:08:20.999Z</time>
      </trkpt>
      <trkpt lat="43.97466" lon="3.03351">
        <ele>601.7</ele>
        <time>2026-04-30T10:08:21.999Z</time>
      </trkpt>
      <trkpt lat="43.97466" lon="3.03351">
        <ele>602.2</ele>
        <time>2026-04-30T10:08:22.999Z</time>
      </trkpt>
      <trkpt lat="43.97467" lon="3.03352">
        <ele>602.2</ele>
        <time>2026-04-30T10:08:23.999Z</time>
      </trkpt>
      <trkpt lat="43.97467" lon="3.03352">
        <ele>602.2</ele>
        <time>2026-04-30T10:08:24.999Z</time>
      </trkpt>
      <trkpt lat="43.97468" lon="3.03351">
        <ele>602</ele>
        <time>2026-04-30T10:08:25.999Z</time>
      </trkpt>
      <trkpt lat="43.97468" lon="3.03352">
        <ele>602</ele>
        <time>2026-04-30T10:08:26.999Z</time>
      </trkpt>
      <trkpt lat="43.97469" lon="3.03352">
        <ele>602</ele>
        <time>2026-04-30T10:08:27.999Z</time>
      </trkpt>
      <trkpt lat="43.97469" lon="3.03352">
        <ele>601.8</ele>
        <time>2026-04-30T10:08:28.999Z</time>
      </trkpt>
      <trkpt lat="43.97469" lon="3.03352">
        <ele>601.5</ele>
        <time>2026-04-30T10:08:29.999Z</time>
      </trkpt>
      <trkpt lat="43.9747" lon="3.03352">
        <ele>601.3</ele>
        <time>2026-04-30T10:08:30.999Z</time>
      </trkpt>
      <trkpt lat="43.9747" lon="3.03353">
        <ele>601.1</ele>
        <time>2026-04-30T10:08:31.999Z</time>
      </trkpt>
      <trkpt lat="43.97471" lon="3.03353">
        <ele>601.1</ele>
        <time>2026-04-30T10:08:32.999Z</time>
      </trkpt>
      <trkpt lat="43.97471" lon="3.03353">
        <ele>601.2</ele>
        <time>2026-04-30T10:08:33.999Z</time>
      </trkpt>
      <trkpt lat="43.97472" lon="3.03354">
        <ele>601.2</ele>
        <time>2026-04-30T10:08:34.999Z</time>
      </trkpt>
      <trkpt lat="43.97472" lon="3.03354">
        <ele>601.3</ele>
        <time>2026-04-30T10:08:35.999Z</time>
      </trkpt>
      <trkpt lat="43.97472" lon="3.03355">
        <ele>601.4</ele>
        <time>2026-04-30T10:08:36.999Z</time>
      </trkpt>
      <trkpt lat="43.97472" lon="3.03356">
        <ele>601.3</ele>
        <time>2026-04-30T10:08:37.999Z</time>
      </trkpt>
      <trkpt lat="43.97472" lon="3.03357">
        <ele>601.7</ele>
        <time>2026-04-30T10:08:38.999Z</time>
      </trkpt>
      <trkpt lat="43.97472" lon="3.03358">
        <ele>601.8</ele>
        <time>2026-04-30T10:08:39.999Z</time>
      </trkpt>
      <trkpt lat="43.97472" lon="3.03358">
        <ele>602.5</ele>
        <time>2026-04-30T10:08:40.999Z</time>
      </trkpt>
      <trkpt lat="43.97472" lon="3.03358">
        <ele>602.9</ele>
        <time>2026-04-30T10:08:41.999Z</time>
      </trkpt>
      <trkpt lat="43.97472" lon="3.03358">
        <ele>603.2</ele>
        <time>2026-04-30T10:08:42.999Z</time>
      </trkpt>
      <trkpt lat="43.97471" lon="3.03358">
        <ele>603.5</ele>
        <time>2026-04-30T10:08:43.999Z</time>
      </trkpt>
      <trkpt lat="43.97472" lon="3.03358">
        <ele>603.6</ele>
        <time>2026-04-30T10:08:44.999Z</time>
      </trkpt>
      <trkpt lat="43.97472" lon="3.03358">
        <ele>603.5</ele>
        <time>2026-04-30T10:08:45.999Z</time>
      </trkpt>
      <trkpt lat="43.97472" lon="3.03357">
        <ele>603.4</ele>
        <time>2026-04-30T10:08:46.999Z</time>
      </trkpt>
      <trkpt lat="43.97472" lon="3.03357">
        <ele>603.4</ele>
        <time>2026-04-30T10:08:47.999Z</time>
      </trkpt>
      <trkpt lat="43.97472" lon="3.03357">
        <ele>603.8</ele>
        <time>2026-04-30T10:08:48.999Z</time>
      </trkpt>
      <trkpt lat="43.97472" lon="3.03357">
        <ele>603.9</ele>
        <time>2026-04-30T10:08:49.999Z</time>
      </trkpt>
      <trkpt lat="43.97473" lon="3.03358">
        <ele>604</ele>
        <time>2026-04-30T10:08:50.999Z</time>
      </trkpt>
      <trkpt lat="43.97474" lon="3.03359">
        <ele>604.1</ele>
        <time>2026-04-30T10:08:51.999Z</time>
      </trkpt>
      <trkpt lat="43.97475" lon="3.0336">
        <ele>604.3</ele>
        <time>2026-04-30T10:08:52.999Z</time>
      </trkpt>
      <trkpt lat="43.97476" lon="3.03361">
        <ele>604.7</ele>
        <time>2026-04-30T10:08:53.999Z</time>
      </trkpt>
      <trkpt lat="43.97477" lon="3.03361">
        <ele>604.9</ele>
        <time>2026-04-30T10:08:54.999Z</time>
      </trkpt>
      <trkpt lat="43.97477" lon="3.03361">
        <ele>604.8</ele>
        <time>2026-04-30T10:08:55.999Z</time>
      </trkpt>
      <trkpt lat="43.97478" lon="3.03361">
        <ele>605.1</ele>
        <time>2026-04-30T10:08:56.999Z</time>
      </trkpt>
      <trkpt lat="43.97479" lon="3.03361">
        <ele>605.4</ele>
        <time>2026-04-30T10:08:57.999Z</time>
      </trkpt>
      <trkpt lat="43.97479" lon="3.0336">
        <ele>605.6</ele>
        <time>2026-04-30T10:08:58.999Z</time>
      </trkpt>
      <trkpt lat="43.9748" lon="3.0336">
        <ele>605.8</ele>
        <time>2026-04-30T10:08:59.999Z</time>
      </trkpt>
      <trkpt lat="43.9748" lon="3.03359">
        <ele>605.8</ele>
        <time>2026-04-30T10:09:00.999Z</time>
      </trkpt>
      <trkpt lat="43.97481" lon="3.03359">
        <ele>605.8</ele>
        <time>2026-04-30T10:09:01.999Z</time>
      </trkpt>
      <trkpt lat="43.97481" lon="3.03359">
        <ele>606</ele>
        <time>2026-04-30T10:09:02.999Z</time>
      </trkpt>
      <trkpt lat="43.97481" lon="3.03359">
        <ele>606.1</ele>
        <time>2026-04-30T10:09:03.999Z</time>
      </trkpt>
      <trkpt lat="43.97481" lon="3.0336">
        <ele>606.5</ele>
        <time>2026-04-30T10:09:04.999Z</time>
      </trkpt>
      <trkpt lat="43.97481" lon="3.0336">
        <ele>606.9</ele>
        <time>2026-04-30T10:09:05.999Z</time>
      </trkpt>
      <trkpt lat="43.97482" lon="3.03361">
        <ele>607.1</ele>
        <time>2026-04-30T10:09:06.999Z</time>
      </trkpt>
      <trkpt lat="43.97483" lon="3.03363">
        <ele>607.3</ele>
        <time>2026-04-30T10:09:07.999Z</time>
      </trkpt>
      <trkpt lat="43.97484" lon="3.03364">
        <ele>607.4</ele>
        <time>2026-04-30T10:09:08.999Z</time>
      </trkpt>
      <trkpt lat="43.97485" lon="3.03364">
        <ele>607.4</ele>
        <time>2026-04-30T10:09:09.999Z</time>
      </trkpt>
      <trkpt lat="43.97486" lon="3.03364">
        <ele>607.4</ele>
        <time>2026-04-30T10:09:10.999Z</time>
      </trkpt>
      <trkpt lat="43.97486" lon="3.03364">
        <ele>607.4</ele>
        <time>2026-04-30T10:09:11.999Z</time>
      </trkpt>
      <trkpt lat="43.97487" lon="3.03364">
        <ele>607.8</ele>
        <time>2026-04-30T10:09:12.999Z</time>
      </trkpt>
      <trkpt lat="43.97488" lon="3.03364">
        <ele>608.4</ele>
        <time>2026-04-30T10:09:13.999Z</time>
      </trkpt>
      <trkpt lat="43.97488" lon="3.03364">
        <ele>608.9</ele>
        <time>2026-04-30T10:09:14.999Z</time>
      </trkpt>
      <trkpt lat="43.97488" lon="3.03364">
        <ele>609.1</ele>
        <time>2026-04-30T10:09:15.999Z</time>
      </trkpt>
      <trkpt lat="43.97488" lon="3.03364">
        <ele>609.6</ele>
        <time>2026-04-30T10:09:16.999Z</time>
      </trkpt>
      <trkpt lat="43.97488" lon="3.03364">
        <ele>609.5</ele>
        <time>2026-04-30T10:09:17.999Z</time>
      </trkpt>
      <trkpt lat="43.97488" lon="3.03364">
        <ele>609.4</ele>
        <time>2026-04-30T10:09:18.999Z</time>
      </trkpt>
      <trkpt lat="43.97488" lon="3.03365">
        <ele>609.2</ele>
        <time>2026-04-30T10:09:19.999Z</time>
      </trkpt>
      <trkpt lat="43.97488" lon="3.03365">
        <ele>609.2</ele>
        <time>2026-04-30T10:09:20.999Z</time>
      </trkpt>
      <trkpt lat="43.97489" lon="3.03365">
        <ele>609.7</ele>
        <time>2026-04-30T10:09:21.999Z</time>
      </trkpt>
      <trkpt lat="43.97489" lon="3.03365">
        <ele>610</ele>
        <time>2026-04-30T10:09:22.999Z</time>
      </trkpt>
      <trkpt lat="43.97489" lon="3.03365">
        <ele>610.4</ele>
        <time>2026-04-30T10:09:23.999Z</time>
      </trkpt>
      <trkpt lat="43.9749" lon="3.03365">
        <ele>610.7</ele>
        <time>2026-04-30T10:09:24.999Z</time>
      </trkpt>
      <trkpt lat="43.9749" lon="3.03365">
        <ele>610.9</ele>
        <time>2026-04-30T10:09:25.999Z</time>
      </trkpt>
      <trkpt lat="43.97491" lon="3.03365">
        <ele>611</ele>
        <time>2026-04-30T10:09:26.999Z</time>
      </trkpt>
      <trkpt lat="43.97491" lon="3.03365">
        <ele>611</ele>
        <time>2026-04-30T10:09:27.999Z</time>
      </trkpt>
      <trkpt lat="43.97491" lon="3.03365">
        <ele>610.9</ele>
        <time>2026-04-30T10:09:28.999Z</time>
      </trkpt>
      <trkpt lat="43.97492" lon="3.03366">
        <ele>610.9</ele>
        <time>2026-04-30T10:09:29.999Z</time>
      </trkpt>
      <trkpt lat="43.97492" lon="3.03366">
        <ele>611.1</ele>
        <time>2026-04-30T10:09:30.999Z</time>
      </trkpt>
      <trkpt lat="43.97492" lon="3.03366">
        <ele>611.4</ele>
        <time>2026-04-30T10:09:31.999Z</time>
      </trkpt>
      <trkpt lat="43.97493" lon="3.03366">
        <ele>611.6</ele>
        <time>2026-04-30T10:09:32.999Z</time>
      </trkpt>
      <trkpt lat="43.97493" lon="3.03366">
        <ele>611.8</ele>
        <time>2026-04-30T10:09:33.999Z</time>
      </trkpt>
      <trkpt lat="43.97493" lon="3.03366">
        <ele>612.1</ele>
        <time>2026-04-30T10:09:34.999Z</time>
      </trkpt>
      <trkpt lat="43.97493" lon="3.03366">
        <ele>612.3</ele>
        <time>2026-04-30T10:09:35.999Z</time>
      </trkpt>
      <trkpt lat="43.97493" lon="3.03366">
        <ele>612.5</ele>
        <time>2026-04-30T10:09:36.999Z</time>
      </trkpt>
      <trkpt lat="43.97493" lon="3.03366">
        <ele>612.7</ele>
        <time>2026-04-30T10:09:37.999Z</time>
      </trkpt>
      <trkpt lat="43.97493" lon="3.03366">
        <ele>612.8</ele>
        <time>2026-04-30T10:09:38.999Z</time>
      </trkpt>
      <trkpt lat="43.97493" lon="3.03365">
        <ele>612.9</ele>
        <time>2026-04-30T10:09:39.999Z</time>
      </trkpt>
      <trkpt lat="43.97493" lon="3.03365">
        <ele>613.1</ele>
        <time>2026-04-30T10:09:40.999Z</time>
      </trkpt>
      <trkpt lat="43.97494" lon="3.03365">
        <ele>613.3</ele>
        <time>2026-04-30T10:09:41.999Z</time>
      </trkpt>
      <trkpt lat="43.97494" lon="3.03365">
        <ele>613.4</ele>
        <time>2026-04-30T10:09:42.999Z</time>
      </trkpt>
      <trkpt lat="43.97494" lon="3.03365">
        <ele>613.4</ele>
        <time>2026-04-30T10:09:43.999Z</time>
      </trkpt>
      <trkpt lat="43.97495" lon="3.03365">
        <ele>613.3</ele>
        <time>2026-04-30T10:09:44.999Z</time>
      </trkpt>
      <trkpt lat="43.97496" lon="3.03365">
        <ele>613.3</ele>
        <time>2026-04-30T10:09:45.999Z</time>
      </trkpt>
      <trkpt lat="43.97498" lon="3.03366">
        <ele>613.3</ele>
        <time>2026-04-30T10:09:46.999Z</time>
      </trkpt>
      <trkpt lat="43.97498" lon="3.03367">
        <ele>613.5</ele>
        <time>2026-04-30T10:09:47.999Z</time>
      </trkpt>
      <trkpt lat="43.97498" lon="3.03367">
        <ele>613.7</ele>
        <time>2026-04-30T10:09:48.999Z</time>
      </trkpt>
      <trkpt lat="43.97499" lon="3.03367">
        <ele>613.9</ele>
        <time>2026-04-30T10:09:49.999Z</time>
      </trkpt>
      <trkpt lat="43.97499" lon="3.03367">
        <ele>614.4</ele>
        <time>2026-04-30T10:09:50.999Z</time>
      </trkpt>
      <trkpt lat="43.975" lon="3.03368">
        <ele>615</ele>
        <time>2026-04-30T10:09:51.999Z</time>
      </trkpt>
      <trkpt lat="43.97501" lon="3.03368">
        <ele>615.4</ele>
        <time>2026-04-30T10:09:52.999Z</time>
      </trkpt>
      <trkpt lat="43.97502" lon="3.03368">
        <ele>615.6</ele>
        <time>2026-04-30T10:09:53.999Z</time>
      </trkpt>
      <trkpt lat="43.97503" lon="3.03368">
        <ele>615.7</ele>
        <time>2026-04-30T10:09:54.999Z</time>
      </trkpt>
      <trkpt lat="43.97504" lon="3.03369">
        <ele>616</ele>
        <time>2026-04-30T10:09:55.999Z</time>
      </trkpt>
      <trkpt lat="43.97504" lon="3.0337">
        <ele>616.4</ele>
        <time>2026-04-30T10:09:56.999Z</time>
      </trkpt>
      <trkpt lat="43.97505" lon="3.03371">
        <ele>616.7</ele>
        <time>2026-04-30T10:09:57.999Z</time>
      </trkpt>
      <trkpt lat="43.97506" lon="3.03372">
        <ele>617.1</ele>
        <time>2026-04-30T10:09:58.999Z</time>
      </trkpt>
      <trkpt lat="43.97506" lon="3.03372">
        <ele>617.6</ele>
        <time>2026-04-30T10:09:59.999Z</time>
      </trkpt>
      <trkpt lat="43.97507" lon="3.03373">
        <ele>617.9</ele>
        <time>2026-04-30T10:10:00.999Z</time>
      </trkpt>
      <trkpt lat="43.97508" lon="3.03373">
        <ele>618.2</ele>
        <time>2026-04-30T10:10:01.999Z</time>
      </trkpt>
      <trkpt lat="43.97508" lon="3.03373">
        <ele>618.7</ele>
        <time>2026-04-30T10:10:02.999Z</time>
      </trkpt>
      <trkpt lat="43.97508" lon="3.03373">
        <ele>618.6</ele>
        <time>2026-04-30T10:10:03.999Z</time>
      </trkpt>
      <trkpt lat="43.97509" lon="3.03372">
        <ele>618.4</ele>
        <time>2026-04-30T10:10:04.999Z</time>
      </trkpt>
      <trkpt lat="43.97509" lon="3.03372">
        <ele>618.4</ele>
        <time>2026-04-30T10:10:05.999Z</time>
      </trkpt>
      <trkpt lat="43.97509" lon="3.03372">
        <ele>618.2</ele>
        <time>2026-04-30T10:10:06.999Z</time>
      </trkpt>
      <trkpt lat="43.97509" lon="3.03372">
        <ele>618.4</ele>
        <time>2026-04-30T10:10:07.999Z</time>
      </trkpt>
      <trkpt lat="43.97509" lon="3.03372">
        <ele>618.7</ele>
        <time>2026-04-30T10:10:08.999Z</time>
      </trkpt>
      <trkpt lat="43.97509" lon="3.03371">
        <ele>618.8</ele>
        <time>2026-04-30T10:10:09.999Z</time>
      </trkpt>
      <trkpt lat="43.97509" lon="3.03371">
        <ele>618.9</ele>
        <time>2026-04-30T10:10:10.999Z</time>
      </trkpt>
      <trkpt lat="43.97509" lon="3.03371">
        <ele>619.1</ele>
        <time>2026-04-30T10:10:11.999Z</time>
      </trkpt>
      <trkpt lat="43.97509" lon="3.03371">
        <ele>619.3</ele>
        <time>2026-04-30T10:10:12.999Z</time>
      </trkpt>
      <trkpt lat="43.9751" lon="3.03371">
        <ele>619.3</ele>
        <time>2026-04-30T10:10:13.999Z</time>
      </trkpt>
      <trkpt lat="43.9751" lon="3.03371">
        <ele>619.4</ele>
        <time>2026-04-30T10:10:14.999Z</time>
      </trkpt>
      <trkpt lat="43.9751" lon="3.03371">
        <ele>619.5</ele>
        <time>2026-04-30T10:10:15.999Z</time>
      </trkpt>
      <trkpt lat="43.9751" lon="3.03372">
        <ele>619.5</ele>
        <time>2026-04-30T10:10:16.999Z</time>
      </trkpt>
      <trkpt lat="43.9751" lon="3.03373">
        <ele>620</ele>
        <time>2026-04-30T10:10:17.999Z</time>
      </trkpt>
      <trkpt lat="43.97511" lon="3.03373">
        <ele>620.4</ele>
        <time>2026-04-30T10:10:18.999Z</time>
      </trkpt>
      <trkpt lat="43.97512" lon="3.03373">
        <ele>620.9</ele>
        <time>2026-04-30T10:10:19.999Z</time>
      </trkpt>
      <trkpt lat="43.97513" lon="3.03374">
        <ele>621.1</ele>
        <time>2026-04-30T10:10:20.999Z</time>
      </trkpt>
      <trkpt lat="43.97513" lon="3.03373">
        <ele>621.2</ele>
        <time>2026-04-30T10:10:21.999Z</time>
      </trkpt>
      <trkpt lat="43.97514" lon="3.03372">
        <ele>621.2</ele>
        <time>2026-04-30T10:10:22.999Z</time>
      </trkpt>
      <trkpt lat="43.97515" lon="3.03372">
        <ele>621.1</ele>
        <time>2026-04-30T10:10:23.999Z</time>
      </trkpt>
      <trkpt lat="43.97516" lon="3.03372">
        <ele>621.3</ele>
        <time>2026-04-30T10:10:24.999Z</time>
      </trkpt>
      <trkpt lat="43.97516" lon="3.03372">
        <ele>621.6</ele>
        <time>2026-04-30T10:10:25.999Z</time>
      </trkpt>
      <trkpt lat="43.97516" lon="3.03373">
        <ele>622</ele>
        <time>2026-04-30T10:10:26.999Z</time>
      </trkpt>
      <trkpt lat="43.97517" lon="3.03373">
        <ele>622.3</ele>
        <time>2026-04-30T10:10:27.999Z</time>
      </trkpt>
      <trkpt lat="43.97518" lon="3.03371">
        <ele>622.5</ele>
        <time>2026-04-30T10:10:28.999Z</time>
      </trkpt>
      <trkpt lat="43.97518" lon="3.03371">
        <ele>622.9</ele>
        <time>2026-04-30T10:10:29.999Z</time>
      </trkpt>
      <trkpt lat="43.97518" lon="3.03371">
        <ele>623.1</ele>
        <time>2026-04-30T10:10:30.999Z</time>
      </trkpt>
      <trkpt lat="43.97519" lon="3.03371">
        <ele>623.5</ele>
        <time>2026-04-30T10:10:31.999Z</time>
      </trkpt>
      <trkpt lat="43.97519" lon="3.03372">
        <ele>623.9</ele>
        <time>2026-04-30T10:10:32.999Z</time>
      </trkpt>
      <trkpt lat="43.97519" lon="3.03372">
        <ele>623.8</ele>
        <time>2026-04-30T10:10:33.999Z</time>
      </trkpt>
      <trkpt lat="43.97519" lon="3.03371">
        <ele>623.9</ele>
        <time>2026-04-30T10:10:34.999Z</time>
      </trkpt>
      <trkpt lat="43.97519" lon="3.03371">
        <ele>623.8</ele>
        <time>2026-04-30T10:10:35.999Z</time>
      </trkpt>
      <trkpt lat="43.97519" lon="3.03371">
        <ele>623.5</ele>
        <time>2026-04-30T10:10:36.999Z</time>
      </trkpt>
      <trkpt lat="43.9752" lon="3.03371">
        <ele>623.2</ele>
        <time>2026-04-30T10:10:37.999Z</time>
      </trkpt>
      <trkpt lat="43.9752" lon="3.03371">
        <ele>622.7</ele>
        <time>2026-04-30T10:10:38.999Z</time>
      </trkpt>
      <trkpt lat="43.9752" lon="3.03371">
        <ele>622.6</ele>
        <time>2026-04-30T10:10:39.999Z</time>
      </trkpt>
      <trkpt lat="43.9752" lon="3.03371">
        <ele>622.2</ele>
        <time>2026-04-30T10:10:40.999Z</time>
      </trkpt>
      <trkpt lat="43.9752" lon="3.03371">
        <ele>622.1</ele>
        <time>2026-04-30T10:10:41.999Z</time>
      </trkpt>
      <trkpt lat="43.97521" lon="3.03372">
        <ele>622</ele>
        <time>2026-04-30T10:10:42.999Z</time>
      </trkpt>
      <trkpt lat="43.97522" lon="3.03372">
        <ele>621.9</ele>
        <time>2026-04-30T10:10:43.999Z</time>
      </trkpt>
      <trkpt lat="43.97523" lon="3.03372">
        <ele>621.7</ele>
        <time>2026-04-30T10:10:44.999Z</time>
      </trkpt>
      <trkpt lat="43.97523" lon="3.03373">
        <ele>621.8</ele>
        <time>2026-04-30T10:10:45.999Z</time>
      </trkpt>
      <trkpt lat="43.97523" lon="3.03373">
        <ele>622.2</ele>
        <time>2026-04-30T10:10:46.999Z</time>
      </trkpt>
      <trkpt lat="43.97523" lon="3.03373">
        <ele>622.6</ele>
        <time>2026-04-30T10:10:47.999Z</time>
      </trkpt>
      <trkpt lat="43.97523" lon="3.03372">
        <ele>622.7</ele>
        <time>2026-04-30T10:10:48.999Z</time>
      </trkpt>
      <trkpt lat="43.97523" lon="3.03372">
        <ele>623.1</ele>
        <time>2026-04-30T10:10:49.999Z</time>
      </trkpt>
      <trkpt lat="43.97523" lon="3.03372">
        <ele>623.3</ele>
        <time>2026-04-30T10:10:50.999Z</time>
      </trkpt>
      <trkpt lat="43.97523" lon="3.03373">
        <ele>623.3</ele>
        <time>2026-04-30T10:10:51.999Z</time>
      </trkpt>
      <trkpt lat="43.97523" lon="3.03373">
        <ele>623.6</ele>
        <time>2026-04-30T10:10:52.999Z</time>
      </trkpt>
      <trkpt lat="43.97523" lon="3.03374">
        <ele>624</ele>
        <time>2026-04-30T10:10:53.999Z</time>
      </trkpt>
      <trkpt lat="43.97523" lon="3.03375">
        <ele>624.1</ele>
        <time>2026-04-30T10:10:54.999Z</time>
      </trkpt>
      <trkpt lat="43.97523" lon="3.03376">
        <ele>624</ele>
        <time>2026-04-30T10:10:55.999Z</time>
      </trkpt>
      <trkpt lat="43.97523" lon="3.03378">
        <ele>623.9</ele>
        <time>2026-04-30T10:10:56.999Z</time>
      </trkpt>
      <trkpt lat="43.97523" lon="3.0338">
        <ele>624.3</ele>
        <time>2026-04-30T10:10:57.999Z</time>
      </trkpt>
      <trkpt lat="43.97523" lon="3.03381">
        <ele>624.6</ele>
        <time>2026-04-30T10:10:58.999Z</time>
      </trkpt>
      <trkpt lat="43.97523" lon="3.03383">
        <ele>624.6</ele>
        <time>2026-04-30T10:10:59.999Z</time>
      </trkpt>
      <trkpt lat="43.97523" lon="3.03385">
        <ele>624.6</ele>
        <time>2026-04-30T10:11:00.999Z</time>
      </trkpt>
      <trkpt lat="43.97524" lon="3.03386">
        <ele>624.5</ele>
        <time>2026-04-30T10:11:01.999Z</time>
      </trkpt>
      <trkpt lat="43.97525" lon="3.03388">
        <ele>624.7</ele>
        <time>2026-04-30T10:11:02.999Z</time>
      </trkpt>
      <trkpt lat="43.97525" lon="3.0339">
        <ele>624.5</ele>
        <time>2026-04-30T10:11:03.999Z</time>
      </trkpt>
      <trkpt lat="43.97525" lon="3.03391">
        <ele>624.3</ele>
        <time>2026-04-30T10:11:04.999Z</time>
      </trkpt>
      <trkpt lat="43.97526" lon="3.03393">
        <ele>624.1</ele>
        <time>2026-04-30T10:11:05.999Z</time>
      </trkpt>
      <trkpt lat="43.97527" lon="3.03394">
        <ele>624.3</ele>
        <time>2026-04-30T10:11:06.999Z</time>
      </trkpt>
      <trkpt lat="43.97527" lon="3.03395">
        <ele>624</ele>
        <time>2026-04-30T10:11:07.999Z</time>
      </trkpt>
      <trkpt lat="43.97527" lon="3.03396">
        <ele>623.8</ele>
        <time>2026-04-30T10:11:08.999Z</time>
      </trkpt>
      <trkpt lat="43.97527" lon="3.03397">
        <ele>623.7</ele>
        <time>2026-04-30T10:11:09.999Z</time>
      </trkpt>
      <trkpt lat="43.97527" lon="3.03398">
        <ele>623.6</ele>
        <time>2026-04-30T10:11:10.999Z</time>
      </trkpt>
      <trkpt lat="43.97528" lon="3.03398">
        <ele>623.8</ele>
        <time>2026-04-30T10:11:11.999Z</time>
      </trkpt>
      <trkpt lat="43.97529" lon="3.03398">
        <ele>624.3</ele>
        <time>2026-04-30T10:11:12.999Z</time>
      </trkpt>
      <trkpt lat="43.97529" lon="3.03398">
        <ele>624.8</ele>
        <time>2026-04-30T10:11:13.999Z</time>
      </trkpt>
      <trkpt lat="43.9753" lon="3.03398">
        <ele>625.3</ele>
        <time>2026-04-30T10:11:14.999Z</time>
      </trkpt>
      <trkpt lat="43.97529" lon="3.03398">
        <ele>625.7</ele>
        <time>2026-04-30T10:11:15.999Z</time>
      </trkpt>
      <trkpt lat="43.97529" lon="3.03398">
        <ele>626.1</ele>
        <time>2026-04-30T10:11:16.999Z</time>
      </trkpt>
      <trkpt lat="43.97529" lon="3.03397">
        <ele>626.6</ele>
        <time>2026-04-30T10:11:17.999Z</time>
      </trkpt>
      <trkpt lat="43.97529" lon="3.03397">
        <ele>627.1</ele>
        <time>2026-04-30T10:11:18.999Z</time>
      </trkpt>
      <trkpt lat="43.9753" lon="3.03399">
        <ele>627.1</ele>
        <time>2026-04-30T10:11:19.999Z</time>
      </trkpt>
      <trkpt lat="43.9753" lon="3.03401">
        <ele>626.9</ele>
        <time>2026-04-30T10:11:20.999Z</time>
      </trkpt>
      <trkpt lat="43.97531" lon="3.03403">
        <ele>626.6</ele>
        <time>2026-04-30T10:11:21.999Z</time>
      </trkpt>
      <trkpt lat="43.97531" lon="3.03404">
        <ele>626.3</ele>
        <time>2026-04-30T10:11:22.999Z</time>
      </trkpt>
      <trkpt lat="43.97532" lon="3.03404">
        <ele>626.3</ele>
        <time>2026-04-30T10:11:23.999Z</time>
      </trkpt>
      <trkpt lat="43.97533" lon="3.03405">
        <ele>626.6</ele>
        <time>2026-04-30T10:11:24.999Z</time>
      </trkpt>
      <trkpt lat="43.97533" lon="3.03406">
        <ele>626.6</ele>
        <time>2026-04-30T10:11:25.999Z</time>
      </trkpt>
      <trkpt lat="43.97533" lon="3.03408">
        <ele>626.6</ele>
        <time>2026-04-30T10:11:26.999Z</time>
      </trkpt>
      <trkpt lat="43.97534" lon="3.03409">
        <ele>626.3</ele>
        <time>2026-04-30T10:11:27.999Z</time>
      </trkpt>
      <trkpt lat="43.97535" lon="3.03411">
        <ele>626</ele>
        <time>2026-04-30T10:11:28.999Z</time>
      </trkpt>
      <trkpt lat="43.97535" lon="3.03412">
        <ele>625.4</ele>
        <time>2026-04-30T10:11:29.999Z</time>
      </trkpt>
      <trkpt lat="43.97534" lon="3.03414">
        <ele>625.4</ele>
        <time>2026-04-30T10:11:30.999Z</time>
      </trkpt>
      <trkpt lat="43.97535" lon="3.03415">
        <ele>625.4</ele>
        <time>2026-04-30T10:11:31.999Z</time>
      </trkpt>
      <trkpt lat="43.97535" lon="3.03417">
        <ele>625.3</ele>
        <time>2026-04-30T10:11:32.999Z</time>
      </trkpt>
      <trkpt lat="43.97535" lon="3.03418">
        <ele>625.4</ele>
        <time>2026-04-30T10:11:33.999Z</time>
      </trkpt>
      <trkpt lat="43.97536" lon="3.0342">
        <ele>625.4</ele>
        <time>2026-04-30T10:11:34.999Z</time>
      </trkpt>
      <trkpt lat="43.97536" lon="3.03421">
        <ele>625.4</ele>
        <time>2026-04-30T10:11:35.999Z</time>
      </trkpt>
      <trkpt lat="43.97536" lon="3.03423">
        <ele>625.7</ele>
        <time>2026-04-30T10:11:36.999Z</time>
      </trkpt>
      <trkpt lat="43.97536" lon="3.03425">
        <ele>626</ele>
        <time>2026-04-30T10:11:37.999Z</time>
      </trkpt>
      <trkpt lat="43.97536" lon="3.03426">
        <ele>626.1</ele>
        <time>2026-04-30T10:11:38.999Z</time>
      </trkpt>
      <trkpt lat="43.97536" lon="3.03427">
        <ele>626.1</ele>
        <time>2026-04-30T10:11:39.999Z</time>
      </trkpt>
      <trkpt lat="43.97537" lon="3.03428">
        <ele>626</ele>
        <time>2026-04-30T10:11:40.999Z</time>
      </trkpt>
      <trkpt lat="43.97538" lon="3.03429">
        <ele>626.1</ele>
        <time>2026-04-30T10:11:41.999Z</time>
      </trkpt>
      <trkpt lat="43.97538" lon="3.03429">
        <ele>626.2</ele>
        <time>2026-04-30T10:11:42.999Z</time>
      </trkpt>
      <trkpt lat="43.97538" lon="3.03428">
        <ele>626.3</ele>
        <time>2026-04-30T10:11:43.999Z</time>
      </trkpt>
      <trkpt lat="43.97538" lon="3.03428">
        <ele>626.5</ele>
        <time>2026-04-30T10:11:44.999Z</time>
      </trkpt>
      <trkpt lat="43.97538" lon="3.03428">
        <ele>626.4</ele>
        <time>2026-04-30T10:11:45.999Z</time>
      </trkpt>
      <trkpt lat="43.97538" lon="3.03428">
        <ele>626.7</ele>
        <time>2026-04-30T10:11:46.999Z</time>
      </trkpt>
      <trkpt lat="43.97538" lon="3.03429">
        <ele>626.4</ele>
        <time>2026-04-30T10:11:47.999Z</time>
      </trkpt>
      <trkpt lat="43.97538" lon="3.03429">
        <ele>626</ele>
        <time>2026-04-30T10:11:48.999Z</time>
      </trkpt>
      <trkpt lat="43.97538" lon="3.03429">
        <ele>626.1</ele>
        <time>2026-04-30T10:11:49.999Z</time>
      </trkpt>
      <trkpt lat="43.97538" lon="3.03429">
        <ele>626.6</ele>
        <time>2026-04-30T10:11:50.999Z</time>
      </trkpt>
      <trkpt lat="43.97538" lon="3.03429">
        <ele>627</ele>
        <time>2026-04-30T10:11:51.999Z</time>
      </trkpt>
      <trkpt lat="43.97538" lon="3.03429">
        <ele>627.5</ele>
        <time>2026-04-30T10:11:52.999Z</time>
      </trkpt>
      <trkpt lat="43.97538" lon="3.03428">
        <ele>627.6</ele>
        <time>2026-04-30T10:11:53.999Z</time>
      </trkpt>
      <trkpt lat="43.97538" lon="3.03428">
        <ele>627.7</ele>
        <time>2026-04-30T10:11:54.999Z</time>
      </trkpt>
      <trkpt lat="43.97539" lon="3.03429">
        <ele>628</ele>
        <time>2026-04-30T10:11:55.999Z</time>
      </trkpt>
      <trkpt lat="43.97539" lon="3.0343">
        <ele>628.4</ele>
        <time>2026-04-30T10:11:56.999Z</time>
      </trkpt>
      <trkpt lat="43.9754" lon="3.03432">
        <ele>628.6</ele>
        <time>2026-04-30T10:11:57.999Z</time>
      </trkpt>
      <trkpt lat="43.97541" lon="3.03434">
        <ele>628.5</ele>
        <time>2026-04-30T10:11:58.999Z</time>
      </trkpt>
      <trkpt lat="43.97541" lon="3.03436">
        <ele>628.4</ele>
        <time>2026-04-30T10:11:59.999Z</time>
      </trkpt>
      <trkpt lat="43.97542" lon="3.03438">
        <ele>628.3</ele>
        <time>2026-04-30T10:12:00.999Z</time>
      </trkpt>
      <trkpt lat="43.97543" lon="3.0344">
        <ele>628.2</ele>
        <time>2026-04-30T10:12:01.999Z</time>
      </trkpt>
      <trkpt lat="43.97543" lon="3.03441">
        <ele>628.2</ele>
        <time>2026-04-30T10:12:02.999Z</time>
      </trkpt>
      <trkpt lat="43.97543" lon="3.03442">
        <ele>628.3</ele>
        <time>2026-04-30T10:12:03.999Z</time>
      </trkpt>
      <trkpt lat="43.97543" lon="3.03442">
        <ele>628.3</ele>
        <time>2026-04-30T10:12:04.999Z</time>
      </trkpt>
      <trkpt lat="43.97544" lon="3.03443">
        <ele>628.3</ele>
        <time>2026-04-30T10:12:05.999Z</time>
      </trkpt>
      <trkpt lat="43.97544" lon="3.03443">
        <ele>628.4</ele>
        <time>2026-04-30T10:12:06.999Z</time>
      </trkpt>
      <trkpt lat="43.97545" lon="3.03443">
        <ele>628.2</ele>
        <time>2026-04-30T10:12:07.999Z</time>
      </trkpt>
      <trkpt lat="43.97544" lon="3.03443">
        <ele>627.9</ele>
        <time>2026-04-30T10:12:08.999Z</time>
      </trkpt>
      <trkpt lat="43.97544" lon="3.03443">
        <ele>627.7</ele>
        <time>2026-04-30T10:12:09.999Z</time>
      </trkpt>
      <trkpt lat="43.97544" lon="3.03443">
        <ele>627</ele>
        <time>2026-04-30T10:12:10.999Z</time>
      </trkpt>
      <trkpt lat="43.97544" lon="3.03443">
        <ele>627</ele>
        <time>2026-04-30T10:12:11.999Z</time>
      </trkpt>
      <trkpt lat="43.97544" lon="3.03443">
        <ele>627.1</ele>
        <time>2026-04-30T10:12:12.999Z</time>
      </trkpt>
      <trkpt lat="43.97544" lon="3.03443">
        <ele>627.1</ele>
        <time>2026-04-30T10:12:13.999Z</time>
      </trkpt>
      <trkpt lat="43.97544" lon="3.03443">
        <ele>627.1</ele>
        <time>2026-04-30T10:12:14.999Z</time>
      </trkpt>
      <trkpt lat="43.97544" lon="3.03443">
        <ele>627.1</ele>
        <time>2026-04-30T10:12:15.999Z</time>
      </trkpt>
      <trkpt lat="43.97545" lon="3.03443">
        <ele>627.1</ele>
        <time>2026-04-30T10:12:16.999Z</time>
      </trkpt>
      <trkpt lat="43.97545" lon="3.03443">
        <ele>627.2</ele>
        <time>2026-04-30T10:12:17.999Z</time>
      </trkpt>
      <trkpt lat="43.97545" lon="3.03443">
        <ele>627.3</ele>
        <time>2026-04-30T10:12:18.999Z</time>
      </trkpt>
      <trkpt lat="43.97545" lon="3.03443">
        <ele>627.5</ele>
        <time>2026-04-30T10:12:19.999Z</time>
      </trkpt>
      <trkpt lat="43.97545" lon="3.03443">
        <ele>627.6</ele>
        <time>2026-04-30T10:12:20.999Z</time>
      </trkpt>
      <trkpt lat="43.97545" lon="3.03443">
        <ele>628</ele>
        <time>2026-04-30T10:12:21.999Z</time>
      </trkpt>
      <trkpt lat="43.97545" lon="3.03443">
        <ele>628.3</ele>
        <time>2026-04-30T10:12:22.999Z</time>
      </trkpt>
      <trkpt lat="43.97545" lon="3.03443">
        <ele>628.4</ele>
        <time>2026-04-30T10:12:23.999Z</time>
      </trkpt>
      <trkpt lat="43.97545" lon="3.03443">
        <ele>628.3</ele>
        <time>2026-04-30T10:12:24.999Z</time>
      </trkpt>
      <trkpt lat="43.97545" lon="3.03443">
        <ele>628.5</ele>
        <time>2026-04-30T10:12:25.999Z</time>
      </trkpt>
      <trkpt lat="43.97545" lon="3.03443">
        <ele>628.5</ele>
        <time>2026-04-30T10:12:26.999Z</time>
      </trkpt>
      <trkpt lat="43.97545" lon="3.03443">
        <ele>628.5</ele>
        <time>2026-04-30T10:12:27.999Z</time>
      </trkpt>
      <trkpt lat="43.97545" lon="3.03443">
        <ele>628.5</ele>
        <time>2026-04-30T10:12:28.999Z</time>
      </trkpt>
      <trkpt lat="43.97545" lon="3.03443">
        <ele>628.2</ele>
        <time>2026-04-30T10:12:29.999Z</time>
      </trkpt>
      <trkpt lat="43.97546" lon="3.03444">
        <ele>627.9</ele>
        <time>2026-04-30T10:12:30.999Z</time>
      </trkpt>
      <trkpt lat="43.97546" lon="3.03445">
        <ele>627.8</ele>
        <time>2026-04-30T10:12:31.999Z</time>
      </trkpt>
      <trkpt lat="43.97546" lon="3.03446">
        <ele>627.6</ele>
        <time>2026-04-30T10:12:32.999Z</time>
      </trkpt>
      <trkpt lat="43.97547" lon="3.03447">
        <ele>627.7</ele>
        <time>2026-04-30T10:12:33.999Z</time>
      </trkpt>
      <trkpt lat="43.97547" lon="3.03449">
        <ele>627.8</ele>
        <time>2026-04-30T10:12:35.999Z</time>
      </trkpt>
      <trkpt lat="43.97549" lon="3.03447">
        <ele>627.5</ele>
        <time>2026-04-30T10:12:36.999Z</time>
      </trkpt>
      <trkpt lat="43.97551" lon="3.03447">
        <ele>627.6</ele>
        <time>2026-04-30T10:12:37.999Z</time>
      </trkpt>
      <trkpt lat="43.97551" lon="3.03447">
        <ele>627.6</ele>
        <time>2026-04-30T10:12:38.999Z</time>
      </trkpt>
      <trkpt lat="43.97551" lon="3.03447">
        <ele>627.4</ele>
        <time>2026-04-30T10:12:39.999Z</time>
      </trkpt>
      <trkpt lat="43.97551" lon="3.03448">
        <ele>627.1</ele>
        <time>2026-04-30T10:12:40.999Z</time>
      </trkpt>
      <trkpt lat="43.97551" lon="3.03449">
        <ele>626.7</ele>
        <time>2026-04-30T10:12:41.999Z</time>
      </trkpt>
      <trkpt lat="43.97551" lon="3.03451">
        <ele>626.3</ele>
        <time>2026-04-30T10:12:42.999Z</time>
      </trkpt>
      <trkpt lat="43.97551" lon="3.03452">
        <ele>626.3</ele>
        <time>2026-04-30T10:12:43.999Z</time>
      </trkpt>
      <trkpt lat="43.97552" lon="3.03454">
        <ele>626.9</ele>
        <time>2026-04-30T10:12:44.999Z</time>
      </trkpt>
      <trkpt lat="43.97552" lon="3.03454">
        <ele>626.6</ele>
        <time>2026-04-30T10:12:45.999Z</time>
      </trkpt>
      <trkpt lat="43.97552" lon="3.03455">
        <ele>626.8</ele>
        <time>2026-04-30T10:12:46.999Z</time>
      </trkpt>
      <trkpt lat="43.97552" lon="3.03456">
        <ele>626.2</ele>
        <time>2026-04-30T10:12:47.999Z</time>
      </trkpt>
      <trkpt lat="43.97553" lon="3.03457">
        <ele>625.4</ele>
        <time>2026-04-30T10:12:48.999Z</time>
      </trkpt>
      <trkpt lat="43.97553" lon="3.03456">
        <ele>625.5</ele>
        <time>2026-04-30T10:12:49.999Z</time>
      </trkpt>
      <trkpt lat="43.97554" lon="3.03456">
        <ele>625.7</ele>
        <time>2026-04-30T10:12:50.999Z</time>
      </trkpt>
      <trkpt lat="43.97554" lon="3.03457">
        <ele>625.9</ele>
        <time>2026-04-30T10:12:51.999Z</time>
      </trkpt>
      <trkpt lat="43.97554" lon="3.03458">
        <ele>625.9</ele>
        <time>2026-04-30T10:12:52.999Z</time>
      </trkpt>
      <trkpt lat="43.97554" lon="3.03459">
        <ele>625.3</ele>
        <time>2026-04-30T10:12:53.999Z</time>
      </trkpt>
      <trkpt lat="43.97555" lon="3.03459">
        <ele>625.6</ele>
        <time>2026-04-30T10:12:54.999Z</time>
      </trkpt>
      <trkpt lat="43.97555" lon="3.03459">
        <ele>626</ele>
        <time>2026-04-30T10:12:55.999Z</time>
      </trkpt>
      <trkpt lat="43.97555" lon="3.0346">
        <ele>625.4</ele>
        <time>2026-04-30T10:12:56.999Z</time>
      </trkpt>
      <trkpt lat="43.97556" lon="3.03461">
        <ele>625.5</ele>
        <time>2026-04-30T10:12:57.999Z</time>
      </trkpt>
      <trkpt lat="43.97556" lon="3.03462">
        <ele>625.6</ele>
        <time>2026-04-30T10:12:58.999Z</time>
      </trkpt>
      <trkpt lat="43.97556" lon="3.03462">
        <ele>624.8</ele>
        <time>2026-04-30T10:12:59.999Z</time>
      </trkpt>
      <trkpt lat="43.97557" lon="3.03463">
        <ele>624.3</ele>
        <time>2026-04-30T10:13:00.999Z</time>
      </trkpt>
      <trkpt lat="43.97557" lon="3.03463">
        <ele>624</ele>
        <time>2026-04-30T10:13:01.999Z</time>
      </trkpt>
      <trkpt lat="43.97558" lon="3.03464">
        <ele>623.8</ele>
        <time>2026-04-30T10:13:02.999Z</time>
      </trkpt>
      <trkpt lat="43.97559" lon="3.03465">
        <ele>623.7</ele>
        <time>2026-04-30T10:13:03.999Z</time>
      </trkpt>
      <trkpt lat="43.97559" lon="3.03465">
        <ele>623.4</ele>
        <time>2026-04-30T10:13:04.999Z</time>
      </trkpt>
      <trkpt lat="43.97559" lon="3.03466">
        <ele>622.8</ele>
        <time>2026-04-30T10:13:05.999Z</time>
      </trkpt>
      <trkpt lat="43.9756" lon="3.03467">
        <ele>623.1</ele>
        <time>2026-04-30T10:13:06.999Z</time>
      </trkpt>
      <trkpt lat="43.97561" lon="3.03467">
        <ele>623.1</ele>
        <time>2026-04-30T10:13:07.999Z</time>
      </trkpt>
      <trkpt lat="43.97561" lon="3.03468">
        <ele>623.1</ele>
        <time>2026-04-30T10:13:08.999Z</time>
      </trkpt>
      <trkpt lat="43.97562" lon="3.03469">
        <ele>623.4</ele>
        <time>2026-04-30T10:13:09.999Z</time>
      </trkpt>
      <trkpt lat="43.97562" lon="3.0347">
        <ele>623.3</ele>
        <time>2026-04-30T10:13:10.999Z</time>
      </trkpt>
      <trkpt lat="43.97563" lon="3.0347">
        <ele>623.2</ele>
        <time>2026-04-30T10:13:11.999Z</time>
      </trkpt>
      <trkpt lat="43.97564" lon="3.03471">
        <ele>623.1</ele>
        <time>2026-04-30T10:13:12.999Z</time>
      </trkpt>
      <trkpt lat="43.97564" lon="3.03472">
        <ele>623.2</ele>
        <time>2026-04-30T10:13:13.999Z</time>
      </trkpt>
      <trkpt lat="43.97565" lon="3.03473">
        <ele>623.4</ele>
        <time>2026-04-30T10:13:14.999Z</time>
      </trkpt>
      <trkpt lat="43.97566" lon="3.03474">
        <ele>623.5</ele>
        <time>2026-04-30T10:13:15.999Z</time>
      </trkpt>
      <trkpt lat="43.97566" lon="3.03474">
        <ele>623.1</ele>
        <time>2026-04-30T10:13:16.999Z</time>
      </trkpt>
      <trkpt lat="43.97567" lon="3.03474">
        <ele>623.2</ele>
        <time>2026-04-30T10:13:17.999Z</time>
      </trkpt>
      <trkpt lat="43.97567" lon="3.03475">
        <ele>622.9</ele>
        <time>2026-04-30T10:13:18.999Z</time>
      </trkpt>
      <trkpt lat="43.97568" lon="3.03476">
        <ele>622.5</ele>
        <time>2026-04-30T10:13:19.999Z</time>
      </trkpt>
      <trkpt lat="43.97569" lon="3.03476">
        <ele>622.9</ele>
        <time>2026-04-30T10:13:20.999Z</time>
      </trkpt>
      <trkpt lat="43.97569" lon="3.03476">
        <ele>622.9</ele>
        <time>2026-04-30T10:13:21.999Z</time>
      </trkpt>
      <trkpt lat="43.9757" lon="3.03476">
        <ele>623.1</ele>
        <time>2026-04-30T10:13:22.999Z</time>
      </trkpt>
      <trkpt lat="43.9757" lon="3.03476">
        <ele>624.5</ele>
        <time>2026-04-30T10:13:23.999Z</time>
      </trkpt>
      <trkpt lat="43.9757" lon="3.03476">
        <ele>624.1</ele>
        <time>2026-04-30T10:13:24.999Z</time>
      </trkpt>
      <trkpt lat="43.97571" lon="3.03476">
        <ele>623.8</ele>
        <time>2026-04-30T10:13:25.999Z</time>
      </trkpt>
      <trkpt lat="43.97576" lon="3.03476">
        <ele>624.8</ele>
        <time>2026-04-30T10:13:26.999Z</time>
      </trkpt>
      <trkpt lat="43.97576" lon="3.03476">
        <ele>625.1</ele>
        <time>2026-04-30T10:13:27.999Z</time>
      </trkpt>
      <trkpt lat="43.97577" lon="3.03477">
        <ele>625.2</ele>
        <time>2026-04-30T10:13:28.999Z</time>
      </trkpt>
      <trkpt lat="43.97578" lon="3.03477">
        <ele>625.2</ele>
        <time>2026-04-30T10:13:29.999Z</time>
      </trkpt>
      <trkpt lat="43.97579" lon="3.03477">
        <ele>625.2</ele>
        <time>2026-04-30T10:13:30.999Z</time>
      </trkpt>
      <trkpt lat="43.9758" lon="3.03477">
        <ele>625</ele>
        <time>2026-04-30T10:13:31.999Z</time>
      </trkpt>
      <trkpt lat="43.97582" lon="3.03477">
        <ele>625</ele>
        <time>2026-04-30T10:13:32.999Z</time>
      </trkpt>
      <trkpt lat="43.97584" lon="3.03477">
        <ele>624.8</ele>
        <time>2026-04-30T10:13:33.999Z</time>
      </trkpt>
      <trkpt lat="43.97585" lon="3.03478">
        <ele>624.9</ele>
        <time>2026-04-30T10:13:34.999Z</time>
      </trkpt>
      <trkpt lat="43.97586" lon="3.03477">
        <ele>625</ele>
        <time>2026-04-30T10:13:35.999Z</time>
      </trkpt>
      <trkpt lat="43.97588" lon="3.03478">
        <ele>625.1</ele>
        <time>2026-04-30T10:13:36.999Z</time>
      </trkpt>
      <trkpt lat="43.97589" lon="3.03478">
        <ele>625.1</ele>
        <time>2026-04-30T10:13:37.999Z</time>
      </trkpt>
      <trkpt lat="43.9759" lon="3.03478">
        <ele>624.9</ele>
        <time>2026-04-30T10:13:38.999Z</time>
      </trkpt>
      <trkpt lat="43.97591" lon="3.03478">
        <ele>624.6</ele>
        <time>2026-04-30T10:13:39.999Z</time>
      </trkpt>
      <trkpt lat="43.97592" lon="3.03478">
        <ele>624.4</ele>
        <time>2026-04-30T10:13:40.999Z</time>
      </trkpt>
      <trkpt lat="43.97594" lon="3.03478">
        <ele>624.3</ele>
        <time>2026-04-30T10:13:41.999Z</time>
      </trkpt>
      <trkpt lat="43.97595" lon="3.0348">
        <ele>624.5</ele>
        <time>2026-04-30T10:13:42.999Z</time>
      </trkpt>
      <trkpt lat="43.97596" lon="3.03482">
        <ele>624.5</ele>
        <time>2026-04-30T10:13:43.999Z</time>
      </trkpt>
      <trkpt lat="43.97597" lon="3.03483">
        <ele>624.3</ele>
        <time>2026-04-30T10:13:44.999Z</time>
      </trkpt>
      <trkpt lat="43.97598" lon="3.03484">
        <ele>623.9</ele>
        <time>2026-04-30T10:13:45.999Z</time>
      </trkpt>
      <trkpt lat="43.97599" lon="3.03485">
        <ele>623.6</ele>
        <time>2026-04-30T10:13:46.999Z</time>
      </trkpt>
      <trkpt lat="43.976" lon="3.03484">
        <ele>622.6</ele>
        <time>2026-04-30T10:13:47.999Z</time>
      </trkpt>
      <trkpt lat="43.97601" lon="3.03484">
        <ele>622.4</ele>
        <time>2026-04-30T10:13:48.999Z</time>
      </trkpt>
      <trkpt lat="43.97602" lon="3.03484">
        <ele>622.6</ele>
        <time>2026-04-30T10:13:49.999Z</time>
      </trkpt>
      <trkpt lat="43.97603" lon="3.03484">
        <ele>623.3</ele>
        <time>2026-04-30T10:13:50.999Z</time>
      </trkpt>
      <trkpt lat="43.97604" lon="3.03484">
        <ele>623.4</ele>
        <time>2026-04-30T10:13:51.999Z</time>
      </trkpt>
      <trkpt lat="43.97605" lon="3.03484">
        <ele>623</ele>
        <time>2026-04-30T10:13:52.999Z</time>
      </trkpt>
      <trkpt lat="43.97606" lon="3.03484">
        <ele>622.8</ele>
        <time>2026-04-30T10:13:53.999Z</time>
      </trkpt>
      <trkpt lat="43.97607" lon="3.03485">
        <ele>622.8</ele>
        <time>2026-04-30T10:13:54.999Z</time>
      </trkpt>
      <trkpt lat="43.97608" lon="3.03486">
        <ele>622.5</ele>
        <time>2026-04-30T10:13:55.999Z</time>
      </trkpt>
      <trkpt lat="43.97609" lon="3.03487">
        <ele>622.1</ele>
        <time>2026-04-30T10:13:56.999Z</time>
      </trkpt>
      <trkpt lat="43.9761" lon="3.03488">
        <ele>622</ele>
        <time>2026-04-30T10:13:57.999Z</time>
      </trkpt>
      <trkpt lat="43.97611" lon="3.03489">
        <ele>622.3</ele>
        <time>2026-04-30T10:13:58.999Z</time>
      </trkpt>
      <trkpt lat="43.97611" lon="3.0349">
        <ele>622.4</ele>
        <time>2026-04-30T10:13:59.999Z</time>
      </trkpt>
      <trkpt lat="43.97612" lon="3.03491">
        <ele>622.8</ele>
        <time>2026-04-30T10:14:00.999Z</time>
      </trkpt>
      <trkpt lat="43.97612" lon="3.03491">
        <ele>622.4</ele>
        <time>2026-04-30T10:14:01.999Z</time>
      </trkpt>
      <trkpt lat="43.97612" lon="3.03493">
        <ele>622</ele>
        <time>2026-04-30T10:14:02.999Z</time>
      </trkpt>
      <trkpt lat="43.97613" lon="3.03494">
        <ele>622.3</ele>
        <time>2026-04-30T10:14:03.999Z</time>
      </trkpt>
      <trkpt lat="43.97614" lon="3.03495">
        <ele>623.1</ele>
        <time>2026-04-30T10:14:04.999Z</time>
      </trkpt>
      <trkpt lat="43.97615" lon="3.03497">
        <ele>623.6</ele>
        <time>2026-04-30T10:14:05.999Z</time>
      </trkpt>
      <trkpt lat="43.97616" lon="3.03497">
        <ele>623.7</ele>
        <time>2026-04-30T10:14:06.999Z</time>
      </trkpt>
      <trkpt lat="43.97617" lon="3.03498">
        <ele>624</ele>
        <time>2026-04-30T10:14:07.999Z</time>
      </trkpt>
      <trkpt lat="43.97618" lon="3.03498">
        <ele>624.3</ele>
        <time>2026-04-30T10:14:08.999Z</time>
      </trkpt>
      <trkpt lat="43.97618" lon="3.03498">
        <ele>624.4</ele>
        <time>2026-04-30T10:14:09.999Z</time>
      </trkpt>
      <trkpt lat="43.97618" lon="3.03499">
        <ele>624.5</ele>
        <time>2026-04-30T10:14:10.999Z</time>
      </trkpt>
      <trkpt lat="43.97619" lon="3.03499">
        <ele>624.5</ele>
        <time>2026-04-30T10:14:11.999Z</time>
      </trkpt>
      <trkpt lat="43.97619" lon="3.035">
        <ele>624.4</ele>
        <time>2026-04-30T10:14:12.999Z</time>
      </trkpt>
      <trkpt lat="43.9762" lon="3.03501">
        <ele>624.7</ele>
        <time>2026-04-30T10:14:13.999Z</time>
      </trkpt>
      <trkpt lat="43.97621" lon="3.03502">
        <ele>624.7</ele>
        <time>2026-04-30T10:14:14.999Z</time>
      </trkpt>
      <trkpt lat="43.97622" lon="3.03503">
        <ele>624.4</ele>
        <time>2026-04-30T10:14:15.999Z</time>
      </trkpt>
      <trkpt lat="43.97622" lon="3.03505">
        <ele>624.6</ele>
        <time>2026-04-30T10:14:16.999Z</time>
      </trkpt>
      <trkpt lat="43.97623" lon="3.03506">
        <ele>624.9</ele>
        <time>2026-04-30T10:14:17.999Z</time>
      </trkpt>
      <trkpt lat="43.97623" lon="3.03508">
        <ele>624.9</ele>
        <time>2026-04-30T10:14:18.999Z</time>
      </trkpt>
      <trkpt lat="43.97623" lon="3.03509">
        <ele>625.1</ele>
        <time>2026-04-30T10:14:19.999Z</time>
      </trkpt>
      <trkpt lat="43.97624" lon="3.0351">
        <ele>625.5</ele>
        <time>2026-04-30T10:14:20.999Z</time>
      </trkpt>
      <trkpt lat="43.97625" lon="3.03511">
        <ele>626.2</ele>
        <time>2026-04-30T10:14:21.999Z</time>
      </trkpt>
      <trkpt lat="43.97626" lon="3.03511">
        <ele>626.3</ele>
        <time>2026-04-30T10:14:22.999Z</time>
      </trkpt>
      <trkpt lat="43.97626" lon="3.03511">
        <ele>626.4</ele>
        <time>2026-04-30T10:14:23.999Z</time>
      </trkpt>
      <trkpt lat="43.97627" lon="3.03512">
        <ele>626.6</ele>
        <time>2026-04-30T10:14:24.999Z</time>
      </trkpt>
      <trkpt lat="43.97628" lon="3.03512">
        <ele>626.7</ele>
        <time>2026-04-30T10:14:25.999Z</time>
      </trkpt>
      <trkpt lat="43.97629" lon="3.03512">
        <ele>626.1</ele>
        <time>2026-04-30T10:14:26.999Z</time>
      </trkpt>
      <trkpt lat="43.9763" lon="3.03513">
        <ele>625.8</ele>
        <time>2026-04-30T10:14:27.999Z</time>
      </trkpt>
      <trkpt lat="43.9763" lon="3.03513">
        <ele>625.7</ele>
        <time>2026-04-30T10:14:28.999Z</time>
      </trkpt>
      <trkpt lat="43.9763" lon="3.03513">
        <ele>625.8</ele>
        <time>2026-04-30T10:14:29.999Z</time>
      </trkpt>
      <trkpt lat="43.97631" lon="3.03514">
        <ele>626</ele>
        <time>2026-04-30T10:14:30.999Z</time>
      </trkpt>
      <trkpt lat="43.97632" lon="3.03515">
        <ele>626.3</ele>
        <time>2026-04-30T10:14:31.999Z</time>
      </trkpt>
      <trkpt lat="43.97632" lon="3.03516">
        <ele>626.2</ele>
        <time>2026-04-30T10:14:32.999Z</time>
      </trkpt>
      <trkpt lat="43.97633" lon="3.03517">
        <ele>626.1</ele>
        <time>2026-04-30T10:14:33.999Z</time>
      </trkpt>
      <trkpt lat="43.97634" lon="3.03518">
        <ele>626.1</ele>
        <time>2026-04-30T10:14:34.999Z</time>
      </trkpt>
      <trkpt lat="43.97635" lon="3.03518">
        <ele>625.9</ele>
        <time>2026-04-30T10:14:35.999Z</time>
      </trkpt>
      <trkpt lat="43.97635" lon="3.0352">
        <ele>626</ele>
        <time>2026-04-30T10:14:36.999Z</time>
      </trkpt>
      <trkpt lat="43.97636" lon="3.03521">
        <ele>625.9</ele>
        <time>2026-04-30T10:14:37.999Z</time>
      </trkpt>
      <trkpt lat="43.97637" lon="3.03522">
        <ele>625.6</ele>
        <time>2026-04-30T10:14:38.999Z</time>
      </trkpt>
      <trkpt lat="43.97638" lon="3.03522">
        <ele>625.7</ele>
        <time>2026-04-30T10:14:39.999Z</time>
      </trkpt>
      <trkpt lat="43.97638" lon="3.03524">
        <ele>625.7</ele>
        <time>2026-04-30T10:14:40.999Z</time>
      </trkpt>
      <trkpt lat="43.97638" lon="3.03525">
        <ele>626</ele>
        <time>2026-04-30T10:14:41.999Z</time>
      </trkpt>
      <trkpt lat="43.97638" lon="3.03526">
        <ele>626.6</ele>
        <time>2026-04-30T10:14:42.999Z</time>
      </trkpt>
      <trkpt lat="43.97639" lon="3.03527">
        <ele>627.1</ele>
        <time>2026-04-30T10:14:43.999Z</time>
      </trkpt>
      <trkpt lat="43.9764" lon="3.03527">
        <ele>627.5</ele>
        <time>2026-04-30T10:14:44.999Z</time>
      </trkpt>
      <trkpt lat="43.97641" lon="3.03529">
        <ele>627.8</ele>
        <time>2026-04-30T10:14:45.999Z</time>
      </trkpt>
      <trkpt lat="43.97642" lon="3.0353">
        <ele>628.1</ele>
        <time>2026-04-30T10:14:46.999Z</time>
      </trkpt>
      <trkpt lat="43.97643" lon="3.03531">
        <ele>628.4</ele>
        <time>2026-04-30T10:14:47.999Z</time>
      </trkpt>
      <trkpt lat="43.97644" lon="3.03532">
        <ele>628.6</ele>
        <time>2026-04-30T10:14:48.999Z</time>
      </trkpt>
      <trkpt lat="43.97645" lon="3.03533">
        <ele>628.4</ele>
        <time>2026-04-30T10:14:49.999Z</time>
      </trkpt>
      <trkpt lat="43.97646" lon="3.03534">
        <ele>628.3</ele>
        <time>2026-04-30T10:14:50.999Z</time>
      </trkpt>
      <trkpt lat="43.97647" lon="3.03535">
        <ele>628.2</ele>
        <time>2026-04-30T10:14:51.999Z</time>
      </trkpt>
      <trkpt lat="43.97647" lon="3.03537">
        <ele>628.1</ele>
        <time>2026-04-30T10:14:52.999Z</time>
      </trkpt>
      <trkpt lat="43.97648" lon="3.03537">
        <ele>628.1</ele>
        <time>2026-04-30T10:14:53.999Z</time>
      </trkpt>
      <trkpt lat="43.97649" lon="3.03539">
        <ele>627.9</ele>
        <time>2026-04-30T10:14:54.999Z</time>
      </trkpt>
      <trkpt lat="43.9765" lon="3.03541">
        <ele>627.8</ele>
        <time>2026-04-30T10:14:55.999Z</time>
      </trkpt>
      <trkpt lat="43.9765" lon="3.03542">
        <ele>627.7</ele>
        <time>2026-04-30T10:14:56.999Z</time>
      </trkpt>
      <trkpt lat="43.97651" lon="3.03542">
        <ele>628.3</ele>
        <time>2026-04-30T10:14:57.999Z</time>
      </trkpt>
      <trkpt lat="43.97652" lon="3.03543">
        <ele>628.5</ele>
        <time>2026-04-30T10:14:58.999Z</time>
      </trkpt>
      <trkpt lat="43.97652" lon="3.03543">
        <ele>628.8</ele>
        <time>2026-04-30T10:14:59.999Z</time>
      </trkpt>
      <trkpt lat="43.97653" lon="3.03543">
        <ele>628.9</ele>
        <time>2026-04-30T10:15:00.999Z</time>
      </trkpt>
      <trkpt lat="43.97654" lon="3.03544">
        <ele>628.9</ele>
        <time>2026-04-30T10:15:01.999Z</time>
      </trkpt>
      <trkpt lat="43.97655" lon="3.03545">
        <ele>629.2</ele>
        <time>2026-04-30T10:15:02.999Z</time>
      </trkpt>
      <trkpt lat="43.97655" lon="3.03546">
        <ele>629.1</ele>
        <time>2026-04-30T10:15:03.999Z</time>
      </trkpt>
      <trkpt lat="43.97655" lon="3.03547">
        <ele>628.7</ele>
        <time>2026-04-30T10:15:04.999Z</time>
      </trkpt>
      <trkpt lat="43.97656" lon="3.03546">
        <ele>629.7</ele>
        <time>2026-04-30T10:15:05.999Z</time>
      </trkpt>
      <trkpt lat="43.97657" lon="3.03546">
        <ele>630.5</ele>
        <time>2026-04-30T10:15:06.999Z</time>
      </trkpt>
      <trkpt lat="43.97657" lon="3.03545">
        <ele>631.2</ele>
        <time>2026-04-30T10:15:07.999Z</time>
      </trkpt>
      <trkpt lat="43.97659" lon="3.03545">
        <ele>631.4</ele>
        <time>2026-04-30T10:15:08.999Z</time>
      </trkpt>
      <trkpt lat="43.97659" lon="3.03545">
        <ele>631.6</ele>
        <time>2026-04-30T10:15:09.999Z</time>
      </trkpt>
      <trkpt lat="43.9766" lon="3.03545">
        <ele>631.6</ele>
        <time>2026-04-30T10:15:10.999Z</time>
      </trkpt>
      <trkpt lat="43.97661" lon="3.03545">
        <ele>631.7</ele>
        <time>2026-04-30T10:15:11.999Z</time>
      </trkpt>
      <trkpt lat="43.97661" lon="3.03544">
        <ele>632</ele>
        <time>2026-04-30T10:15:12.999Z</time>
      </trkpt>
      <trkpt lat="43.97662" lon="3.03544">
        <ele>632.2</ele>
        <time>2026-04-30T10:15:13.999Z</time>
      </trkpt>
      <trkpt lat="43.97662" lon="3.03543">
        <ele>632.1</ele>
        <time>2026-04-30T10:15:14.999Z</time>
      </trkpt>
      <trkpt lat="43.97662" lon="3.03543">
        <ele>632.3</ele>
        <time>2026-04-30T10:15:15.999Z</time>
      </trkpt>
      <trkpt lat="43.97663" lon="3.03543">
        <ele>632.5</ele>
        <time>2026-04-30T10:15:16.999Z</time>
      </trkpt>
      <trkpt lat="43.97663" lon="3.03543">
        <ele>632.5</ele>
        <time>2026-04-30T10:15:17.999Z</time>
      </trkpt>
      <trkpt lat="43.97664" lon="3.03542">
        <ele>632.6</ele>
        <time>2026-04-30T10:15:18.999Z</time>
      </trkpt>
      <trkpt lat="43.97665" lon="3.03541">
        <ele>632.9</ele>
        <time>2026-04-30T10:15:19.999Z</time>
      </trkpt>
      <trkpt lat="43.97666" lon="3.03541">
        <ele>633.4</ele>
        <time>2026-04-30T10:15:20.999Z</time>
      </trkpt>
      <trkpt lat="43.97667" lon="3.03541">
        <ele>633.4</ele>
        <time>2026-04-30T10:15:21.999Z</time>
      </trkpt>
      <trkpt lat="43.97667" lon="3.0354">
        <ele>633.6</ele>
        <time>2026-04-30T10:15:22.999Z</time>
      </trkpt>
      <trkpt lat="43.97667" lon="3.03539">
        <ele>634.2</ele>
        <time>2026-04-30T10:15:23.999Z</time>
      </trkpt>
      <trkpt lat="43.97667" lon="3.03539">
        <ele>634.7</ele>
        <time>2026-04-30T10:15:24.999Z</time>
      </trkpt>
      <trkpt lat="43.97667" lon="3.03538">
        <ele>635.4</ele>
        <time>2026-04-30T10:15:25.999Z</time>
      </trkpt>
      <trkpt lat="43.97668" lon="3.03538">
        <ele>636.6</ele>
        <time>2026-04-30T10:15:26.999Z</time>
      </trkpt>
      <trkpt lat="43.9767" lon="3.03538">
        <ele>637.3</ele>
        <time>2026-04-30T10:15:27.999Z</time>
      </trkpt>
      <trkpt lat="43.9767" lon="3.03536">
        <ele>637.8</ele>
        <time>2026-04-30T10:15:28.999Z</time>
      </trkpt>
      <trkpt lat="43.97671" lon="3.03537">
        <ele>636.4</ele>
        <time>2026-04-30T10:15:29.999Z</time>
      </trkpt>
      <trkpt lat="43.97671" lon="3.03536">
        <ele>636.4</ele>
        <time>2026-04-30T10:15:30.999Z</time>
      </trkpt>
      <trkpt lat="43.97671" lon="3.03535">
        <ele>636.7</ele>
        <time>2026-04-30T10:15:31.999Z</time>
      </trkpt>
      <trkpt lat="43.97672" lon="3.03534">
        <ele>636.8</ele>
        <time>2026-04-30T10:15:32.999Z</time>
      </trkpt>
      <trkpt lat="43.97674" lon="3.03534">
        <ele>637.2</ele>
        <time>2026-04-30T10:15:33.999Z</time>
      </trkpt>
      <trkpt lat="43.97675" lon="3.03533">
        <ele>637.9</ele>
        <time>2026-04-30T10:15:34.999Z</time>
      </trkpt>
      <trkpt lat="43.97676" lon="3.03532">
        <ele>639</ele>
        <time>2026-04-30T10:15:35.999Z</time>
      </trkpt>
      <trkpt lat="43.97677" lon="3.03531">
        <ele>640.1</ele>
        <time>2026-04-30T10:15:36.999Z</time>
      </trkpt>
      <trkpt lat="43.97677" lon="3.03531">
        <ele>640.6</ele>
        <time>2026-04-30T10:15:37.999Z</time>
      </trkpt>
      <trkpt lat="43.97677" lon="3.03532">
        <ele>640.6</ele>
        <time>2026-04-30T10:15:38.999Z</time>
      </trkpt>
      <trkpt lat="43.97676" lon="3.03535">
        <ele>639.8</ele>
        <time>2026-04-30T10:15:39.999Z</time>
      </trkpt>
      <trkpt lat="43.97675" lon="3.03537">
        <ele>638.6</ele>
        <time>2026-04-30T10:15:40.999Z</time>
      </trkpt>
      <trkpt lat="43.97674" lon="3.0354">
        <ele>636.9</ele>
        <time>2026-04-30T10:15:41.999Z</time>
      </trkpt>
      <trkpt lat="43.97673" lon="3.03542">
        <ele>636.8</ele>
        <time>2026-04-30T10:15:42.999Z</time>
      </trkpt>
      <trkpt lat="43.97673" lon="3.03543">
        <ele>632.6</ele>
        <time>2026-04-30T10:15:43.999Z</time>
      </trkpt>
      <trkpt lat="43.97673" lon="3.03543">
        <ele>633.1</ele>
        <time>2026-04-30T10:15:44.999Z</time>
      </trkpt>
      <trkpt lat="43.97672" lon="3.03544">
        <ele>634.4</ele>
        <time>2026-04-30T10:15:45.999Z</time>
      </trkpt>
      <trkpt lat="43.97672" lon="3.03544">
        <ele>635.7</ele>
        <time>2026-04-30T10:15:46.999Z</time>
      </trkpt>
      <trkpt lat="43.97672" lon="3.03544">
        <ele>636.9</ele>
        <time>2026-04-30T10:15:47.999Z</time>
      </trkpt>
      <trkpt lat="43.97672" lon="3.03544">
        <ele>638</ele>
        <time>2026-04-30T10:15:48.999Z</time>
      </trkpt>
      <trkpt lat="43.97674" lon="3.03542">
        <ele>638.6</ele>
        <time>2026-04-30T10:15:49.999Z</time>
      </trkpt>
      <trkpt lat="43.97674" lon="3.03541">
        <ele>639.2</ele>
        <time>2026-04-30T10:15:50.999Z</time>
      </trkpt>
      <trkpt lat="43.97675" lon="3.03539">
        <ele>639.5</ele>
        <time>2026-04-30T10:15:51.999Z</time>
      </trkpt>
      <trkpt lat="43.97675" lon="3.03538">
        <ele>639.9</ele>
        <time>2026-04-30T10:15:52.999Z</time>
      </trkpt>
      <trkpt lat="43.97676" lon="3.03538">
        <ele>640.3</ele>
        <time>2026-04-30T10:15:53.999Z</time>
      </trkpt>
      <trkpt lat="43.97678" lon="3.03538">
        <ele>640.5</ele>
        <time>2026-04-30T10:15:54.999Z</time>
      </trkpt>
      <trkpt lat="43.9768" lon="3.03538">
        <ele>640.8</ele>
        <time>2026-04-30T10:15:55.999Z</time>
      </trkpt>
      <trkpt lat="43.9768" lon="3.03538">
        <ele>641.4</ele>
        <time>2026-04-30T10:15:56.999Z</time>
      </trkpt>
      <trkpt lat="43.97681" lon="3.03538">
        <ele>641.4</ele>
        <time>2026-04-30T10:15:57.999Z</time>
      </trkpt>
      <trkpt lat="43.97681" lon="3.03538">
        <ele>641.6</ele>
        <time>2026-04-30T10:15:58.999Z</time>
      </trkpt>
      <trkpt lat="43.97682" lon="3.03539">
        <ele>641.5</ele>
        <time>2026-04-30T10:15:59.999Z</time>
      </trkpt>
      <trkpt lat="43.97684" lon="3.03539">
        <ele>641.6</ele>
        <time>2026-04-30T10:16:00.999Z</time>
      </trkpt>
      <trkpt lat="43.97685" lon="3.0354">
        <ele>641.6</ele>
        <time>2026-04-30T10:16:01.999Z</time>
      </trkpt>
      <trkpt lat="43.97686" lon="3.03539">
        <ele>641.9</ele>
        <time>2026-04-30T10:16:02.999Z</time>
      </trkpt>
      <trkpt lat="43.97688" lon="3.03539">
        <ele>642.1</ele>
        <time>2026-04-30T10:16:03.999Z</time>
      </trkpt>
      <trkpt lat="43.97689" lon="3.0354">
        <ele>642.1</ele>
        <time>2026-04-30T10:16:04.999Z</time>
      </trkpt>
      <trkpt lat="43.9769" lon="3.03541">
        <ele>642.2</ele>
        <time>2026-04-30T10:16:05.999Z</time>
      </trkpt>
      <trkpt lat="43.9769" lon="3.03543">
        <ele>642.2</ele>
        <time>2026-04-30T10:16:06.999Z</time>
      </trkpt>
      <trkpt lat="43.97691" lon="3.03544">
        <ele>642.3</ele>
        <time>2026-04-30T10:16:07.999Z</time>
      </trkpt>
      <trkpt lat="43.97692" lon="3.03545">
        <ele>642.5</ele>
        <time>2026-04-30T10:16:08.999Z</time>
      </trkpt>
      <trkpt lat="43.97693" lon="3.03546">
        <ele>642.9</ele>
        <time>2026-04-30T10:16:09.999Z</time>
      </trkpt>
      <trkpt lat="43.97694" lon="3.03547">
        <ele>643.5</ele>
        <time>2026-04-30T10:16:10.999Z</time>
      </trkpt>
      <trkpt lat="43.97695" lon="3.03548">
        <ele>643.6</ele>
        <time>2026-04-30T10:16:11.999Z</time>
      </trkpt>
      <trkpt lat="43.97695" lon="3.03548">
        <ele>643.6</ele>
        <time>2026-04-30T10:16:12.999Z</time>
      </trkpt>
      <trkpt lat="43.97696" lon="3.03549">
        <ele>643.5</ele>
        <time>2026-04-30T10:16:13.999Z</time>
      </trkpt>
      <trkpt lat="43.97696" lon="3.03551">
        <ele>643.1</ele>
        <time>2026-04-30T10:16:14.999Z</time>
      </trkpt>
      <trkpt lat="43.97696" lon="3.03552">
        <ele>642.9</ele>
        <time>2026-04-30T10:16:15.999Z</time>
      </trkpt>
      <trkpt lat="43.97697" lon="3.03553">
        <ele>642.8</ele>
        <time>2026-04-30T10:16:16.999Z</time>
      </trkpt>
      <trkpt lat="43.97697" lon="3.03554">
        <ele>642.7</ele>
        <time>2026-04-30T10:16:17.999Z</time>
      </trkpt>
      <trkpt lat="43.97697" lon="3.03555">
        <ele>642.8</ele>
        <time>2026-04-30T10:16:18.999Z</time>
      </trkpt>
      <trkpt lat="43.97697" lon="3.03556">
        <ele>642.8</ele>
        <time>2026-04-30T10:16:19.999Z</time>
      </trkpt>
      <trkpt lat="43.97698" lon="3.03558">
        <ele>642.7</ele>
        <time>2026-04-30T10:16:20.999Z</time>
      </trkpt>
      <trkpt lat="43.97699" lon="3.03559">
        <ele>642.6</ele>
        <time>2026-04-30T10:16:21.999Z</time>
      </trkpt>
      <trkpt lat="43.977" lon="3.03559">
        <ele>642.3</ele>
        <time>2026-04-30T10:16:22.999Z</time>
      </trkpt>
      <trkpt lat="43.97701" lon="3.03559">
        <ele>642.1</ele>
        <time>2026-04-30T10:16:23.999Z</time>
      </trkpt>
      <trkpt lat="43.97702" lon="3.03559">
        <ele>641.8</ele>
        <time>2026-04-30T10:16:24.999Z</time>
      </trkpt>
      <trkpt lat="43.97703" lon="3.03559">
        <ele>641.9</ele>
        <time>2026-04-30T10:16:25.999Z</time>
      </trkpt>
      <trkpt lat="43.97705" lon="3.03558">
        <ele>642.5</ele>
        <time>2026-04-30T10:16:26.999Z</time>
      </trkpt>
      <trkpt lat="43.97705" lon="3.03559">
        <ele>642.7</ele>
        <time>2026-04-30T10:16:27.999Z</time>
      </trkpt>
      <trkpt lat="43.97706" lon="3.03559">
        <ele>642.4</ele>
        <time>2026-04-30T10:16:28.999Z</time>
      </trkpt>
      <trkpt lat="43.97706" lon="3.03559">
        <ele>641.9</ele>
        <time>2026-04-30T10:16:29.999Z</time>
      </trkpt>
      <trkpt lat="43.97706" lon="3.03558">
        <ele>641.5</ele>
        <time>2026-04-30T10:16:30.999Z</time>
      </trkpt>
      <trkpt lat="43.97706" lon="3.03558">
        <ele>641.3</ele>
        <time>2026-04-30T10:16:31.999Z</time>
      </trkpt>
      <trkpt lat="43.97705" lon="3.03557">
        <ele>641.3</ele>
        <time>2026-04-30T10:16:32.999Z</time>
      </trkpt>
      <trkpt lat="43.97705" lon="3.03557">
        <ele>641.3</ele>
        <time>2026-04-30T10:16:33.999Z</time>
      </trkpt>
      <trkpt lat="43.97705" lon="3.03557">
        <ele>641.2</ele>
        <time>2026-04-30T10:16:34.999Z</time>
      </trkpt>
      <trkpt lat="43.97705" lon="3.03557">
        <ele>641.2</ele>
        <time>2026-04-30T10:16:35.999Z</time>
      </trkpt>
      <trkpt lat="43.97704" lon="3.03558">
        <ele>641.3</ele>
        <time>2026-04-30T10:16:36.999Z</time>
      </trkpt>
      <trkpt lat="43.97704" lon="3.03559">
        <ele>641.3</ele>
        <time>2026-04-30T10:16:37.999Z</time>
      </trkpt>
      <trkpt lat="43.97704" lon="3.03559">
        <ele>641.4</ele>
        <time>2026-04-30T10:16:39.000Z</time>
      </trkpt>
      <trkpt lat="43.97704" lon="3.03559">
        <ele>641.2</ele>
        <time>2026-04-30T10:16:40.000Z</time>
      </trkpt>
      <trkpt lat="43.97704" lon="3.03559">
        <ele>641.1</ele>
        <time>2026-04-30T10:16:41.000Z</time>
      </trkpt>
      <trkpt lat="43.97704" lon="3.03559">
        <ele>641</ele>
        <time>2026-04-30T10:16:42.000Z</time>
      </trkpt>
      <trkpt lat="43.97704" lon="3.0356">
        <ele>641</ele>
        <time>2026-04-30T10:16:43.000Z</time>
      </trkpt>
      <trkpt lat="43.97705" lon="3.03561">
        <ele>641.4</ele>
        <time>2026-04-30T10:16:44.000Z</time>
      </trkpt>
      <trkpt lat="43.97706" lon="3.03561">
        <ele>641.7</ele>
        <time>2026-04-30T10:16:45.000Z</time>
      </trkpt>
      <trkpt lat="43.97707" lon="3.03562">
        <ele>642.1</ele>
        <time>2026-04-30T10:16:46.000Z</time>
      </trkpt>
      <trkpt lat="43.97708" lon="3.03563">
        <ele>642.4</ele>
        <time>2026-04-30T10:16:47.000Z</time>
      </trkpt>
      <trkpt lat="43.97709" lon="3.03564">
        <ele>642.7</ele>
        <time>2026-04-30T10:16:48.000Z</time>
      </trkpt>
      <trkpt lat="43.9771" lon="3.03565">
        <ele>642.8</ele>
        <time>2026-04-30T10:16:49.000Z</time>
      </trkpt>
      <trkpt lat="43.97712" lon="3.03566">
        <ele>642.8</ele>
        <time>2026-04-30T10:16:50.000Z</time>
      </trkpt>
      <trkpt lat="43.97713" lon="3.03567">
        <ele>642.8</ele>
        <time>2026-04-30T10:16:51.000Z</time>
      </trkpt>
      <trkpt lat="43.97714" lon="3.03569">
        <ele>642.8</ele>
        <time>2026-04-30T10:16:52.000Z</time>
      </trkpt>
      <trkpt lat="43.97716" lon="3.0357">
        <ele>642.7</ele>
        <time>2026-04-30T10:16:53.000Z</time>
      </trkpt>
      <trkpt lat="43.97717" lon="3.0357">
        <ele>642.6</ele>
        <time>2026-04-30T10:16:54.000Z</time>
      </trkpt>
      <trkpt lat="43.97718" lon="3.03571">
        <ele>642.3</ele>
        <time>2026-04-30T10:16:55.000Z</time>
      </trkpt>
      <trkpt lat="43.97719" lon="3.0357">
        <ele>642.1</ele>
        <time>2026-04-30T10:16:56.000Z</time>
      </trkpt>
      <trkpt lat="43.9772" lon="3.0357">
        <ele>642.1</ele>
        <time>2026-04-30T10:16:57.000Z</time>
      </trkpt>
      <trkpt lat="43.97721" lon="3.03571">
        <ele>642</ele>
        <time>2026-04-30T10:16:58.000Z</time>
      </trkpt>
      <trkpt lat="43.97722" lon="3.03571">
        <ele>642.2</ele>
        <time>2026-04-30T10:16:59.000Z</time>
      </trkpt>
      <trkpt lat="43.97724" lon="3.03571">
        <ele>642.3</ele>
        <time>2026-04-30T10:17:00.000Z</time>
      </trkpt>
      <trkpt lat="43.97725" lon="3.03572">
        <ele>642.3</ele>
        <time>2026-04-30T10:17:01.000Z</time>
      </trkpt>
      <trkpt lat="43.97726" lon="3.03573">
        <ele>642.4</ele>
        <time>2026-04-30T10:17:02.000Z</time>
      </trkpt>
      <trkpt lat="43.97729" lon="3.03574">
        <ele>642.9</ele>
        <time>2026-04-30T10:17:04.000Z</time>
      </trkpt>
      <trkpt lat="43.97731" lon="3.03574">
        <ele>643.1</ele>
        <time>2026-04-30T10:17:05.000Z</time>
      </trkpt>
      <trkpt lat="43.97731" lon="3.03574">
        <ele>643.4</ele>
        <time>2026-04-30T10:17:06.000Z</time>
      </trkpt>
      <trkpt lat="43.97731" lon="3.03575">
        <ele>643.5</ele>
        <time>2026-04-30T10:17:07.000Z</time>
      </trkpt>
      <trkpt lat="43.97731" lon="3.03576">
        <ele>643.5</ele>
        <time>2026-04-30T10:17:08.000Z</time>
      </trkpt>
      <trkpt lat="43.9773" lon="3.03576">
        <ele>643.7</ele>
        <time>2026-04-30T10:17:09.000Z</time>
      </trkpt>
      <trkpt lat="43.9773" lon="3.03576">
        <ele>644.2</ele>
        <time>2026-04-30T10:17:10.000Z</time>
      </trkpt>
      <trkpt lat="43.9773" lon="3.03576">
        <ele>644.2</ele>
        <time>2026-04-30T10:17:11.000Z</time>
      </trkpt>
      <trkpt lat="43.9773" lon="3.03576">
        <ele>644.4</ele>
        <time>2026-04-30T10:17:12.000Z</time>
      </trkpt>
      <trkpt lat="43.97729" lon="3.03576">
        <ele>644.4</ele>
        <time>2026-04-30T10:17:13.000Z</time>
      </trkpt>
      <trkpt lat="43.9773" lon="3.03576">
        <ele>644.4</ele>
        <time>2026-04-30T10:17:14.000Z</time>
      </trkpt>
      <trkpt lat="43.9773" lon="3.03576">
        <ele>645.3</ele>
        <time>2026-04-30T10:17:15.000Z</time>
      </trkpt>
      <trkpt lat="43.97728" lon="3.03575">
        <ele>645.7</ele>
        <time>2026-04-30T10:17:16.000Z</time>
      </trkpt>
      <trkpt lat="43.97728" lon="3.03575">
        <ele>645.9</ele>
        <time>2026-04-30T10:17:17.000Z</time>
      </trkpt>
      <trkpt lat="43.97728" lon="3.03574">
        <ele>645.8</ele>
        <time>2026-04-30T10:17:18.000Z</time>
      </trkpt>
      <trkpt lat="43.97729" lon="3.03574">
        <ele>645.7</ele>
        <time>2026-04-30T10:17:19.000Z</time>
      </trkpt>
      <trkpt lat="43.97728" lon="3.03573">
        <ele>644.9</ele>
        <time>2026-04-30T10:17:20.000Z</time>
      </trkpt>
      <trkpt lat="43.97729" lon="3.03573">
        <ele>645</ele>
        <time>2026-04-30T10:17:21.000Z</time>
      </trkpt>
      <trkpt lat="43.97728" lon="3.03571">
        <ele>644.7</ele>
        <time>2026-04-30T10:17:22.000Z</time>
      </trkpt>
      <trkpt lat="43.97728" lon="3.0357">
        <ele>644.6</ele>
        <time>2026-04-30T10:17:23.000Z</time>
      </trkpt>
      <trkpt lat="43.97727" lon="3.03565">
        <ele>645.9</ele>
        <time>2026-04-30T10:17:24.000Z</time>
      </trkpt>
      <trkpt lat="43.97727" lon="3.03564">
        <ele>646</ele>
        <time>2026-04-30T10:17:25.000Z</time>
      </trkpt>
      <trkpt lat="43.97727" lon="3.03564">
        <ele>645.4</ele>
        <time>2026-04-30T10:17:26.000Z</time>
      </trkpt>
      <trkpt lat="43.97727" lon="3.03564">
        <ele>650.6</ele>
        <time>2026-04-30T10:17:27.000Z</time>
      </trkpt>
      <trkpt lat="43.97727" lon="3.03564">
        <ele>650.4</ele>
        <time>2026-04-30T10:17:28.000Z</time>
      </trkpt>
      <trkpt lat="43.97727" lon="3.03563">
        <ele>650</ele>
        <time>2026-04-30T10:17:29.000Z</time>
      </trkpt>
      <trkpt lat="43.97728" lon="3.03563">
        <ele>649.8</ele>
        <time>2026-04-30T10:17:30.000Z</time>
      </trkpt>
      <trkpt lat="43.97729" lon="3.03562">
        <ele>649.3</ele>
        <time>2026-04-30T10:17:31.000Z</time>
      </trkpt>
      <trkpt lat="43.9773" lon="3.03562">
        <ele>648.7</ele>
        <time>2026-04-30T10:17:32.000Z</time>
      </trkpt>
      <trkpt lat="43.97731" lon="3.03562">
        <ele>648.2</ele>
        <time>2026-04-30T10:17:33.000Z</time>
      </trkpt>
      <trkpt lat="43.97732" lon="3.03562">
        <ele>648.2</ele>
        <time>2026-04-30T10:17:34.000Z</time>
      </trkpt>
      <trkpt lat="43.97734" lon="3.03563">
        <ele>648.5</ele>
        <time>2026-04-30T10:17:35.000Z</time>
      </trkpt>
      <trkpt lat="43.97735" lon="3.03564">
        <ele>648.3</ele>
        <time>2026-04-30T10:17:36.000Z</time>
      </trkpt>
      <trkpt lat="43.97737" lon="3.03565">
        <ele>648.1</ele>
        <time>2026-04-30T10:17:37.000Z</time>
      </trkpt>
      <trkpt lat="43.97739" lon="3.03567">
        <ele>647.9</ele>
        <time>2026-04-30T10:17:38.000Z</time>
      </trkpt>
      <trkpt lat="43.9774" lon="3.03568">
        <ele>647.8</ele>
        <time>2026-04-30T10:17:39.000Z</time>
      </trkpt>
      <trkpt lat="43.97742" lon="3.03568">
        <ele>647.8</ele>
        <time>2026-04-30T10:17:40.000Z</time>
      </trkpt>
      <trkpt lat="43.97744" lon="3.03568">
        <ele>647.6</ele>
        <time>2026-04-30T10:17:41.000Z</time>
      </trkpt>
      <trkpt lat="43.97746" lon="3.03569">
        <ele>647.2</ele>
        <time>2026-04-30T10:17:42.000Z</time>
      </trkpt>
      <trkpt lat="43.97747" lon="3.0357">
        <ele>646.2</ele>
        <time>2026-04-30T10:17:43.000Z</time>
      </trkpt>
      <trkpt lat="43.97749" lon="3.03571">
        <ele>644.9</ele>
        <time>2026-04-30T10:17:44.000Z</time>
      </trkpt>
      <trkpt lat="43.97749" lon="3.03571">
        <ele>644.9</ele>
        <time>2026-04-30T10:17:45.000Z</time>
      </trkpt>
      <trkpt lat="43.9775" lon="3.03571">
        <ele>644.9</ele>
        <time>2026-04-30T10:17:46.000Z</time>
      </trkpt>
      <trkpt lat="43.9775" lon="3.03572">
        <ele>645</ele>
        <time>2026-04-30T10:17:47.000Z</time>
      </trkpt>
      <trkpt lat="43.97751" lon="3.03572">
        <ele>645.2</ele>
        <time>2026-04-30T10:17:48.000Z</time>
      </trkpt>
      <trkpt lat="43.97752" lon="3.03572">
        <ele>645.4</ele>
        <time>2026-04-30T10:17:49.000Z</time>
      </trkpt>
      <trkpt lat="43.97751" lon="3.03572">
        <ele>645.6</ele>
        <time>2026-04-30T10:17:50.000Z</time>
      </trkpt>
      <trkpt lat="43.97751" lon="3.03571">
        <ele>644.9</ele>
        <time>2026-04-30T10:17:51.000Z</time>
      </trkpt>
      <trkpt lat="43.9775" lon="3.0357">
        <ele>646.1</ele>
        <time>2026-04-30T10:17:52.000Z</time>
      </trkpt>
      <trkpt lat="43.97749" lon="3.0357">
        <ele>646.7</ele>
        <time>2026-04-30T10:17:53.000Z</time>
      </trkpt>
      <trkpt lat="43.97749" lon="3.0357">
        <ele>646.9</ele>
        <time>2026-04-30T10:17:54.000Z</time>
      </trkpt>
      <trkpt lat="43.9775" lon="3.0357">
        <ele>647.4</ele>
        <time>2026-04-30T10:17:56.000Z</time>
      </trkpt>
      <trkpt lat="43.97751" lon="3.0357">
        <ele>647.2</ele>
        <time>2026-04-30T10:17:57.000Z</time>
      </trkpt>
      <trkpt lat="43.97752" lon="3.0357">
        <ele>646.6</ele>
        <time>2026-04-30T10:17:58.000Z</time>
      </trkpt>
      <trkpt lat="43.97752" lon="3.0357">
        <ele>646.2</ele>
        <time>2026-04-30T10:17:59.000Z</time>
      </trkpt>
      <trkpt lat="43.97751" lon="3.0357">
        <ele>646.6</ele>
        <time>2026-04-30T10:18:00.000Z</time>
      </trkpt>
      <trkpt lat="43.9775" lon="3.03569">
        <ele>647</ele>
        <time>2026-04-30T10:18:01.000Z</time>
      </trkpt>
      <trkpt lat="43.97749" lon="3.03569">
        <ele>647.3</ele>
        <time>2026-04-30T10:18:02.000Z</time>
      </trkpt>
      <trkpt lat="43.97747" lon="3.03568">
        <ele>647.7</ele>
        <time>2026-04-30T10:18:03.000Z</time>
      </trkpt>
      <trkpt lat="43.97746" lon="3.03569">
        <ele>647.9</ele>
        <time>2026-04-30T10:18:04.000Z</time>
      </trkpt>
      <trkpt lat="43.97746" lon="3.03569">
        <ele>647.9</ele>
        <time>2026-04-30T10:18:05.000Z</time>
      </trkpt>
      <trkpt lat="43.97745" lon="3.03569">
        <ele>647.9</ele>
        <time>2026-04-30T10:18:06.000Z</time>
      </trkpt>
      <trkpt lat="43.97745" lon="3.03569">
        <ele>647.5</ele>
        <time>2026-04-30T10:18:07.000Z</time>
      </trkpt>
      <trkpt lat="43.97745" lon="3.0357">
        <ele>651</ele>
        <time>2026-04-30T10:18:08.000Z</time>
      </trkpt>
      <trkpt lat="43.97744" lon="3.03569">
        <ele>650.3</ele>
        <time>2026-04-30T10:18:09.000Z</time>
      </trkpt>
      <trkpt lat="43.97743" lon="3.03569">
        <ele>650.1</ele>
        <time>2026-04-30T10:18:10.000Z</time>
      </trkpt>
      <trkpt lat="43.97743" lon="3.0357">
        <ele>650</ele>
        <time>2026-04-30T10:18:11.000Z</time>
      </trkpt>
      <trkpt lat="43.97742" lon="3.03569">
        <ele>649.6</ele>
        <time>2026-04-30T10:18:12.000Z</time>
      </trkpt>
      <trkpt lat="43.97741" lon="3.03569">
        <ele>649.6</ele>
        <time>2026-04-30T10:18:13.000Z</time>
      </trkpt>
      <trkpt lat="43.9774" lon="3.03568">
        <ele>649.4</ele>
        <time>2026-04-30T10:18:14.000Z</time>
      </trkpt>
      <trkpt lat="43.97737" lon="3.03567">
        <ele>649.5</ele>
        <time>2026-04-30T10:18:15.000Z</time>
      </trkpt>
      <trkpt lat="43.97735" lon="3.03565">
        <ele>649.8</ele>
        <time>2026-04-30T10:18:16.000Z</time>
      </trkpt>
      <trkpt lat="43.97733" lon="3.03564">
        <ele>650.4</ele>
        <time>2026-04-30T10:18:17.000Z</time>
      </trkpt>
      <trkpt lat="43.97732" lon="3.03563">
        <ele>650.3</ele>
        <time>2026-04-30T10:18:18.000Z</time>
      </trkpt>
      <trkpt lat="43.97731" lon="3.03562">
        <ele>649.7</ele>
        <time>2026-04-30T10:18:19.000Z</time>
      </trkpt>
      <trkpt lat="43.9773" lon="3.0356">
        <ele>649.2</ele>
        <time>2026-04-30T10:18:20.000Z</time>
      </trkpt>
      <trkpt lat="43.9773" lon="3.0356">
        <ele>649.1</ele>
        <time>2026-04-30T10:18:21.000Z</time>
      </trkpt>
      <trkpt lat="43.97729" lon="3.03558">
        <ele>649</ele>
        <time>2026-04-30T10:18:22.000Z</time>
      </trkpt>
      <trkpt lat="43.97729" lon="3.03556">
        <ele>649.4</ele>
        <time>2026-04-30T10:18:23.000Z</time>
      </trkpt>
      <trkpt lat="43.97728" lon="3.03555">
        <ele>649.5</ele>
        <time>2026-04-30T10:18:24.000Z</time>
      </trkpt>
      <trkpt lat="43.97729" lon="3.03554">
        <ele>649.2</ele>
        <time>2026-04-30T10:18:25.000Z</time>
      </trkpt>
      <trkpt lat="43.97729" lon="3.03552">
        <ele>649</ele>
        <time>2026-04-30T10:18:26.000Z</time>
      </trkpt>
      <trkpt lat="43.97729" lon="3.0355">
        <ele>649</ele>
        <time>2026-04-30T10:18:27.000Z</time>
      </trkpt>
      <trkpt lat="43.97729" lon="3.03548">
        <ele>649.3</ele>
        <time>2026-04-30T10:18:28.000Z</time>
      </trkpt>
      <trkpt lat="43.97728" lon="3.03545">
        <ele>649.5</ele>
        <time>2026-04-30T10:18:29.000Z</time>
      </trkpt>
      <trkpt lat="43.97728" lon="3.03543">
        <ele>649.8</ele>
        <time>2026-04-30T10:18:30.000Z</time>
      </trkpt>
      <trkpt lat="43.97728" lon="3.03542">
        <ele>649.5</ele>
        <time>2026-04-30T10:18:31.000Z</time>
      </trkpt>
      <trkpt lat="43.97727" lon="3.03541">
        <ele>649.5</ele>
        <time>2026-04-30T10:18:32.000Z</time>
      </trkpt>
      <trkpt lat="43.97727" lon="3.0354">
        <ele>649.3</ele>
        <time>2026-04-30T10:18:33.000Z</time>
      </trkpt>
      <trkpt lat="43.97727" lon="3.03539">
        <ele>649.3</ele>
        <time>2026-04-30T10:18:34.000Z</time>
      </trkpt>
      <trkpt lat="43.97727" lon="3.03537">
        <ele>649</ele>
        <time>2026-04-30T10:18:35.000Z</time>
      </trkpt>
      <trkpt lat="43.97727" lon="3.03536">
        <ele>648.9</ele>
        <time>2026-04-30T10:18:36.000Z</time>
      </trkpt>
      <trkpt lat="43.97727" lon="3.03534">
        <ele>648.6</ele>
        <time>2026-04-30T10:18:37.000Z</time>
      </trkpt>
      <trkpt lat="43.97727" lon="3.03532">
        <ele>648.7</ele>
        <time>2026-04-30T10:18:38.000Z</time>
      </trkpt>
      <trkpt lat="43.97727" lon="3.0353">
        <ele>649</ele>
        <time>2026-04-30T10:18:39.000Z</time>
      </trkpt>
      <trkpt lat="43.97726" lon="3.03527">
        <ele>649.1</ele>
        <time>2026-04-30T10:18:40.000Z</time>
      </trkpt>
      <trkpt lat="43.97726" lon="3.03525">
        <ele>649.3</ele>
        <time>2026-04-30T10:18:41.000Z</time>
      </trkpt>
      <trkpt lat="43.97725" lon="3.03523">
        <ele>649.3</ele>
        <time>2026-04-30T10:18:42.000Z</time>
      </trkpt>
      <trkpt lat="43.97725" lon="3.03521">
        <ele>649</ele>
        <time>2026-04-30T10:18:43.000Z</time>
      </trkpt>
      <trkpt lat="43.97725" lon="3.03519">
        <ele>648.6</ele>
        <time>2026-04-30T10:18:44.000Z</time>
      </trkpt>
      <trkpt lat="43.97725" lon="3.03518">
        <ele>648.7</ele>
        <time>2026-04-30T10:18:45.000Z</time>
      </trkpt>
      <trkpt lat="43.97725" lon="3.03516">
        <ele>648.7</ele>
        <time>2026-04-30T10:18:46.000Z</time>
      </trkpt>
      <trkpt lat="43.97724" lon="3.03514">
        <ele>648.5</ele>
        <time>2026-04-30T10:18:47.000Z</time>
      </trkpt>
      <trkpt lat="43.97724" lon="3.03513">
        <ele>648.1</ele>
        <time>2026-04-30T10:18:48.000Z</time>
      </trkpt>
      <trkpt lat="43.97724" lon="3.03512">
        <ele>647.5</ele>
        <time>2026-04-30T10:18:49.000Z</time>
      </trkpt>
      <trkpt lat="43.97724" lon="3.03511">
        <ele>647.1</ele>
        <time>2026-04-30T10:18:50.000Z</time>
      </trkpt>
      <trkpt lat="43.97723" lon="3.03509">
        <ele>647.3</ele>
        <time>2026-04-30T10:18:51.000Z</time>
      </trkpt>
      <trkpt lat="43.97723" lon="3.03508">
        <ele>647.2</ele>
        <time>2026-04-30T10:18:52.000Z</time>
      </trkpt>
      <trkpt lat="43.97723" lon="3.03507">
        <ele>646.6</ele>
        <time>2026-04-30T10:18:53.000Z</time>
      </trkpt>
      <trkpt lat="43.97723" lon="3.03507">
        <ele>645.5</ele>
        <time>2026-04-30T10:18:54.000Z</time>
      </trkpt>
      <trkpt lat="43.97722" lon="3.03507">
        <ele>645.3</ele>
        <time>2026-04-30T10:18:55.000Z</time>
      </trkpt>
      <trkpt lat="43.97722" lon="3.03508">
        <ele>645.2</ele>
        <time>2026-04-30T10:18:56.000Z</time>
      </trkpt>
      <trkpt lat="43.97722" lon="3.03509">
        <ele>644.7</ele>
        <time>2026-04-30T10:18:57.000Z</time>
      </trkpt>
      <trkpt lat="43.97723" lon="3.0351">
        <ele>643.9</ele>
        <time>2026-04-30T10:18:58.000Z</time>
      </trkpt>
      <trkpt lat="43.97723" lon="3.0351">
        <ele>643.6</ele>
        <time>2026-04-30T10:18:59.000Z</time>
      </trkpt>
      <trkpt lat="43.97723" lon="3.0351">
        <ele>643.2</ele>
        <time>2026-04-30T10:19:00.000Z</time>
      </trkpt>
      <trkpt lat="43.97723" lon="3.0351">
        <ele>643.4</ele>
        <time>2026-04-30T10:19:01.000Z</time>
      </trkpt>
      <trkpt lat="43.97723" lon="3.0351">
        <ele>643.5</ele>
        <time>2026-04-30T10:19:02.000Z</time>
      </trkpt>
      <trkpt lat="43.97723" lon="3.0351">
        <ele>643.5</ele>
        <time>2026-04-30T10:19:03.000Z</time>
      </trkpt>
      <trkpt lat="43.97723" lon="3.0351">
        <ele>644.5</ele>
        <time>2026-04-30T10:19:04.000Z</time>
      </trkpt>
      <trkpt lat="43.97723" lon="3.0351">
        <ele>644.2</ele>
        <time>2026-04-30T10:19:05.000Z</time>
      </trkpt>
      <trkpt lat="43.97723" lon="3.0351">
        <ele>644.1</ele>
        <time>2026-04-30T10:19:06.000Z</time>
      </trkpt>
      <trkpt lat="43.97723" lon="3.0351">
        <ele>644.1</ele>
        <time>2026-04-30T10:19:07.000Z</time>
      </trkpt>
      <trkpt lat="43.97723" lon="3.0351">
        <ele>644.1</ele>
        <time>2026-04-30T10:19:08.000Z</time>
      </trkpt>
      <trkpt lat="43.97723" lon="3.03509">
        <ele>644</ele>
        <time>2026-04-30T10:19:09.000Z</time>
      </trkpt>
      <trkpt lat="43.97723" lon="3.03509">
        <ele>643.3</ele>
        <time>2026-04-30T10:19:10.000Z</time>
      </trkpt>
      <trkpt lat="43.97723" lon="3.03509">
        <ele>642.7</ele>
        <time>2026-04-30T10:19:11.000Z</time>
      </trkpt>
      <trkpt lat="43.97723" lon="3.03509">
        <ele>642.3</ele>
        <time>2026-04-30T10:19:12.000Z</time>
      </trkpt>
      <trkpt lat="43.97723" lon="3.03509">
        <ele>641.6</ele>
        <time>2026-04-30T10:19:13.000Z</time>
      </trkpt>
      <trkpt lat="43.97723" lon="3.03509">
        <ele>641.2</ele>
        <time>2026-04-30T10:19:14.000Z</time>
      </trkpt>
      <trkpt lat="43.97723" lon="3.03509">
        <ele>641.2</ele>
        <time>2026-04-30T10:19:15.000Z</time>
      </trkpt>
      <trkpt lat="43.97723" lon="3.03509">
        <ele>641.5</ele>
        <time>2026-04-30T10:19:16.000Z</time>
      </trkpt>
      <trkpt lat="43.97723" lon="3.03509">
        <ele>641.8</ele>
        <time>2026-04-30T10:19:17.000Z</time>
      </trkpt>
      <trkpt lat="43.97723" lon="3.03509">
        <ele>642</ele>
        <time>2026-04-30T10:19:18.000Z</time>
      </trkpt>
      <trkpt lat="43.97723" lon="3.03509">
        <ele>641.9</ele>
        <time>2026-04-30T10:19:19.000Z</time>
      </trkpt>
      <trkpt lat="43.97723" lon="3.03509">
        <ele>641.9</ele>
        <time>2026-04-30T10:19:20.000Z</time>
      </trkpt>
      <trkpt lat="43.97723" lon="3.03509">
        <ele>642</ele>
        <time>2026-04-30T10:19:21.000Z</time>
      </trkpt>
      <trkpt lat="43.97723" lon="3.03509">
        <ele>642.1</ele>
        <time>2026-04-30T10:19:22.000Z</time>
      </trkpt>
      <trkpt lat="43.97723" lon="3.03509">
        <ele>642.2</ele>
        <time>2026-04-30T10:19:23.000Z</time>
      </trkpt>
      <trkpt lat="43.97723" lon="3.03509">
        <ele>642.5</ele>
        <time>2026-04-30T10:19:24.000Z</time>
      </trkpt>
      <trkpt lat="43.97723" lon="3.03508">
        <ele>642.8</ele>
        <time>2026-04-30T10:19:25.000Z</time>
      </trkpt>
      <trkpt lat="43.97723" lon="3.03506">
        <ele>643</ele>
        <time>2026-04-30T10:19:26.000Z</time>
      </trkpt>
      <trkpt lat="43.97722" lon="3.03504">
        <ele>643.4</ele>
        <time>2026-04-30T10:19:27.000Z</time>
      </trkpt>
      <trkpt lat="43.97722" lon="3.03498">
        <ele>643.6</ele>
        <time>2026-04-30T10:19:29.000Z</time>
      </trkpt>
      <trkpt lat="43.97721" lon="3.03496">
        <ele>643.5</ele>
        <time>2026-04-30T10:19:30.000Z</time>
      </trkpt>
      <trkpt lat="43.97722" lon="3.03495">
        <ele>643.1</ele>
        <time>2026-04-30T10:19:31.000Z</time>
      </trkpt>
      <trkpt lat="43.97722" lon="3.03494">
        <ele>643</ele>
        <time>2026-04-30T10:19:32.000Z</time>
      </trkpt>
      <trkpt lat="43.97721" lon="3.03491">
        <ele>643</ele>
        <time>2026-04-30T10:19:33.000Z</time>
      </trkpt>
      <trkpt lat="43.97721" lon="3.03488">
        <ele>643</ele>
        <time>2026-04-30T10:19:34.000Z</time>
      </trkpt>
      <trkpt lat="43.9772" lon="3.03486">
        <ele>643.3</ele>
        <time>2026-04-30T10:19:35.000Z</time>
      </trkpt>
      <trkpt lat="43.9772" lon="3.03485">
        <ele>643.6</ele>
        <time>2026-04-30T10:19:36.000Z</time>
      </trkpt>
      <trkpt lat="43.9772" lon="3.03484">
        <ele>643.9</ele>
        <time>2026-04-30T10:19:37.000Z</time>
      </trkpt>
      <trkpt lat="43.97719" lon="3.03483">
        <ele>643.9</ele>
        <time>2026-04-30T10:19:38.000Z</time>
      </trkpt>
      <trkpt lat="43.97719" lon="3.03482">
        <ele>644.2</ele>
        <time>2026-04-30T10:19:39.000Z</time>
      </trkpt>
      <trkpt lat="43.97718" lon="3.0348">
        <ele>644.4</ele>
        <time>2026-04-30T10:19:40.000Z</time>
      </trkpt>
      <trkpt lat="43.97717" lon="3.03478">
        <ele>644.7</ele>
        <time>2026-04-30T10:19:41.000Z</time>
      </trkpt>
      <trkpt lat="43.97717" lon="3.03476">
        <ele>644.9</ele>
        <time>2026-04-30T10:19:42.000Z</time>
      </trkpt>
      <trkpt lat="43.97716" lon="3.03474">
        <ele>645.7</ele>
        <time>2026-04-30T10:19:43.000Z</time>
      </trkpt>
      <trkpt lat="43.97716" lon="3.03473">
        <ele>645.5</ele>
        <time>2026-04-30T10:19:44.000Z</time>
      </trkpt>
      <trkpt lat="43.97716" lon="3.03471">
        <ele>645.7</ele>
        <time>2026-04-30T10:19:45.000Z</time>
      </trkpt>
      <trkpt lat="43.97715" lon="3.03469">
        <ele>646.7</ele>
        <time>2026-04-30T10:19:46.000Z</time>
      </trkpt>
      <trkpt lat="43.97715" lon="3.03468">
        <ele>647.2</ele>
        <time>2026-04-30T10:19:47.000Z</time>
      </trkpt>
      <trkpt lat="43.97714" lon="3.03466">
        <ele>647.2</ele>
        <time>2026-04-30T10:19:48.000Z</time>
      </trkpt>
      <trkpt lat="43.97714" lon="3.03465">
        <ele>647.4</ele>
        <time>2026-04-30T10:19:49.000Z</time>
      </trkpt>
      <trkpt lat="43.97714" lon="3.03464">
        <ele>647.7</ele>
        <time>2026-04-30T10:19:50.000Z</time>
      </trkpt>
      <trkpt lat="43.97714" lon="3.03464">
        <ele>647.9</ele>
        <time>2026-04-30T10:19:51.000Z</time>
      </trkpt>
      <trkpt lat="43.97714" lon="3.03463">
        <ele>647.6</ele>
        <time>2026-04-30T10:19:52.000Z</time>
      </trkpt>
      <trkpt lat="43.97713" lon="3.03461">
        <ele>647.2</ele>
        <time>2026-04-30T10:19:53.000Z</time>
      </trkpt>
      <trkpt lat="43.97713" lon="3.0346">
        <ele>647</ele>
        <time>2026-04-30T10:19:54.000Z</time>
      </trkpt>
      <trkpt lat="43.97713" lon="3.03458">
        <ele>647.3</ele>
        <time>2026-04-30T10:19:55.000Z</time>
      </trkpt>
      <trkpt lat="43.97713" lon="3.03457">
        <ele>647.6</ele>
        <time>2026-04-30T10:19:56.000Z</time>
      </trkpt>
      <trkpt lat="43.97712" lon="3.03456">
        <ele>647.9</ele>
        <time>2026-04-30T10:19:57.000Z</time>
      </trkpt>
      <trkpt lat="43.97712" lon="3.03454">
        <ele>648.2</ele>
        <time>2026-04-30T10:19:58.000Z</time>
      </trkpt>
      <trkpt lat="43.97712" lon="3.03452">
        <ele>648.6</ele>
        <time>2026-04-30T10:19:59.000Z</time>
      </trkpt>
      <trkpt lat="43.97711" lon="3.0345">
        <ele>648.4</ele>
        <time>2026-04-30T10:20:00.000Z</time>
      </trkpt>
      <trkpt lat="43.9771" lon="3.03448">
        <ele>648</ele>
        <time>2026-04-30T10:20:01.000Z</time>
      </trkpt>
      <trkpt lat="43.9771" lon="3.03446">
        <ele>647.9</ele>
        <time>2026-04-30T10:20:02.000Z</time>
      </trkpt>
      <trkpt lat="43.97709" lon="3.03444">
        <ele>647.9</ele>
        <time>2026-04-30T10:20:03.000Z</time>
      </trkpt>
      <trkpt lat="43.97709" lon="3.03441">
        <ele>648.1</ele>
        <time>2026-04-30T10:20:04.000Z</time>
      </trkpt>
      <trkpt lat="43.97709" lon="3.03439">
        <ele>648.1</ele>
        <time>2026-04-30T10:20:05.000Z</time>
      </trkpt>
      <trkpt lat="43.97709" lon="3.03437">
        <ele>648.5</ele>
        <time>2026-04-30T10:20:06.000Z</time>
      </trkpt>
      <trkpt lat="43.97708" lon="3.03435">
        <ele>648.7</ele>
        <time>2026-04-30T10:20:07.000Z</time>
      </trkpt>
      <trkpt lat="43.97708" lon="3.03433">
        <ele>649.5</ele>
        <time>2026-04-30T10:20:08.000Z</time>
      </trkpt>
      <trkpt lat="43.97708" lon="3.03432">
        <ele>650</ele>
        <time>2026-04-30T10:20:09.000Z</time>
      </trkpt>
      <trkpt lat="43.97708" lon="3.03431">
        <ele>650.3</ele>
        <time>2026-04-30T10:20:10.000Z</time>
      </trkpt>
      <trkpt lat="43.97707" lon="3.03429">
        <ele>650.4</ele>
        <time>2026-04-30T10:20:11.000Z</time>
      </trkpt>
      <trkpt lat="43.97707" lon="3.03427">
        <ele>649.9</ele>
        <time>2026-04-30T10:20:12.000Z</time>
      </trkpt>
      <trkpt lat="43.97707" lon="3.03425">
        <ele>649.6</ele>
        <time>2026-04-30T10:20:13.000Z</time>
      </trkpt>
      <trkpt lat="43.97706" lon="3.03422">
        <ele>649.7</ele>
        <time>2026-04-30T10:20:14.000Z</time>
      </trkpt>
      <trkpt lat="43.97705" lon="3.03419">
        <ele>651</ele>
        <time>2026-04-30T10:20:15.000Z</time>
      </trkpt>
      <trkpt lat="43.97705" lon="3.03417">
        <ele>651.5</ele>
        <time>2026-04-30T10:20:16.000Z</time>
      </trkpt>
      <trkpt lat="43.97705" lon="3.03415">
        <ele>651.2</ele>
        <time>2026-04-30T10:20:17.000Z</time>
      </trkpt>
      <trkpt lat="43.97705" lon="3.03413">
        <ele>651</ele>
        <time>2026-04-30T10:20:18.000Z</time>
      </trkpt>
      <trkpt lat="43.97705" lon="3.03412">
        <ele>650.7</ele>
        <time>2026-04-30T10:20:19.000Z</time>
      </trkpt>
      <trkpt lat="43.97705" lon="3.0341">
        <ele>650.3</ele>
        <time>2026-04-30T10:20:20.000Z</time>
      </trkpt>
      <trkpt lat="43.97705" lon="3.03408">
        <ele>650</ele>
        <time>2026-04-30T10:20:21.000Z</time>
      </trkpt>
      <trkpt lat="43.97705" lon="3.03406">
        <ele>649.6</ele>
        <time>2026-04-30T10:20:22.000Z</time>
      </trkpt>
      <trkpt lat="43.97704" lon="3.03404">
        <ele>649.6</ele>
        <time>2026-04-30T10:20:23.000Z</time>
      </trkpt>
      <trkpt lat="43.97704" lon="3.03402">
        <ele>649.7</ele>
        <time>2026-04-30T10:20:24.000Z</time>
      </trkpt>
      <trkpt lat="43.97703" lon="3.034">
        <ele>650</ele>
        <time>2026-04-30T10:20:25.000Z</time>
      </trkpt>
      <trkpt lat="43.97703" lon="3.03398">
        <ele>650.3</ele>
        <time>2026-04-30T10:20:26.000Z</time>
      </trkpt>
      <trkpt lat="43.97704" lon="3.03396">
        <ele>650</ele>
        <time>2026-04-30T10:20:27.000Z</time>
      </trkpt>
      <trkpt lat="43.97704" lon="3.03395">
        <ele>649.5</ele>
        <time>2026-04-30T10:20:28.000Z</time>
      </trkpt>
      <trkpt lat="43.97704" lon="3.03394">
        <ele>649.3</ele>
        <time>2026-04-30T10:20:29.000Z</time>
      </trkpt>
      <trkpt lat="43.97704" lon="3.03393">
        <ele>649</ele>
        <time>2026-04-30T10:20:30.000Z</time>
      </trkpt>
      <trkpt lat="43.97704" lon="3.03391">
        <ele>648.8</ele>
        <time>2026-04-30T10:20:31.000Z</time>
      </trkpt>
      <trkpt lat="43.97704" lon="3.03388">
        <ele>648.4</ele>
        <time>2026-04-30T10:20:32.000Z</time>
      </trkpt>
      <trkpt lat="43.97703" lon="3.03386">
        <ele>648</ele>
        <time>2026-04-30T10:20:33.000Z</time>
      </trkpt>
      <trkpt lat="43.97703" lon="3.03383">
        <ele>648.3</ele>
        <time>2026-04-30T10:20:34.000Z</time>
      </trkpt>
      <trkpt lat="43.97702" lon="3.03381">
        <ele>648.4</ele>
        <time>2026-04-30T10:20:35.000Z</time>
      </trkpt>
      <trkpt lat="43.97702" lon="3.03379">
        <ele>648.8</ele>
        <time>2026-04-30T10:20:36.000Z</time>
      </trkpt>
      <trkpt lat="43.97702" lon="3.03378">
        <ele>648.5</ele>
        <time>2026-04-30T10:20:37.000Z</time>
      </trkpt>
      <trkpt lat="43.97702" lon="3.03376">
        <ele>648</ele>
        <time>2026-04-30T10:20:38.000Z</time>
      </trkpt>
      <trkpt lat="43.97702" lon="3.03375">
        <ele>647.5</ele>
        <time>2026-04-30T10:20:39.000Z</time>
      </trkpt>
      <trkpt lat="43.97702" lon="3.03373">
        <ele>647.4</ele>
        <time>2026-04-30T10:20:40.000Z</time>
      </trkpt>
      <trkpt lat="43.97701" lon="3.03372">
        <ele>647.5</ele>
        <time>2026-04-30T10:20:41.000Z</time>
      </trkpt>
      <trkpt lat="43.97701" lon="3.03369">
        <ele>648</ele>
        <time>2026-04-30T10:20:42.000Z</time>
      </trkpt>
      <trkpt lat="43.97701" lon="3.03367">
        <ele>648.3</ele>
        <time>2026-04-30T10:20:43.000Z</time>
      </trkpt>
      <trkpt lat="43.97701" lon="3.03365">
        <ele>648.8</ele>
        <time>2026-04-30T10:20:44.000Z</time>
      </trkpt>
      <trkpt lat="43.97701" lon="3.03363">
        <ele>649.5</ele>
        <time>2026-04-30T10:20:45.000Z</time>
      </trkpt>
      <trkpt lat="43.97701" lon="3.03361">
        <ele>650.2</ele>
        <time>2026-04-30T10:20:46.000Z</time>
      </trkpt>
      <trkpt lat="43.977" lon="3.0336">
        <ele>650.1</ele>
        <time>2026-04-30T10:20:47.000Z</time>
      </trkpt>
      <trkpt lat="43.97699" lon="3.03358">
        <ele>650.4</ele>
        <time>2026-04-30T10:20:48.000Z</time>
      </trkpt>
      <trkpt lat="43.97699" lon="3.03358">
        <ele>650.9</ele>
        <time>2026-04-30T10:20:49.000Z</time>
      </trkpt>
      <trkpt lat="43.97699" lon="3.03357">
        <ele>651.3</ele>
        <time>2026-04-30T10:20:50.000Z</time>
      </trkpt>
      <trkpt lat="43.97699" lon="3.03355">
        <ele>651.5</ele>
        <time>2026-04-30T10:20:51.000Z</time>
      </trkpt>
      <trkpt lat="43.97698" lon="3.03353">
        <ele>651.3</ele>
        <time>2026-04-30T10:20:52.000Z</time>
      </trkpt>
      <trkpt lat="43.97698" lon="3.03351">
        <ele>650.9</ele>
        <time>2026-04-30T10:20:53.000Z</time>
      </trkpt>
      <trkpt lat="43.97697" lon="3.03348">
        <ele>650.9</ele>
        <time>2026-04-30T10:20:54.000Z</time>
      </trkpt>
      <trkpt lat="43.97697" lon="3.03346">
        <ele>651.3</ele>
        <time>2026-04-30T10:20:55.000Z</time>
      </trkpt>
      <trkpt lat="43.97697" lon="3.03345">
        <ele>651.4</ele>
        <time>2026-04-30T10:20:56.000Z</time>
      </trkpt>
      <trkpt lat="43.97697" lon="3.03344">
        <ele>651.4</ele>
        <time>2026-04-30T10:20:57.000Z</time>
      </trkpt>
      <trkpt lat="43.97696" lon="3.03342">
        <ele>651.3</ele>
        <time>2026-04-30T10:20:58.000Z</time>
      </trkpt>
      <trkpt lat="43.97695" lon="3.03341">
        <ele>651.5</ele>
        <time>2026-04-30T10:20:59.000Z</time>
      </trkpt>
      <trkpt lat="43.97694" lon="3.0334">
        <ele>651.6</ele>
        <time>2026-04-30T10:21:00.000Z</time>
      </trkpt>
      <trkpt lat="43.97693" lon="3.03338">
        <ele>651.6</ele>
        <time>2026-04-30T10:21:01.000Z</time>
      </trkpt>
      <trkpt lat="43.97693" lon="3.03336">
        <ele>652</ele>
        <time>2026-04-30T10:21:02.000Z</time>
      </trkpt>
      <trkpt lat="43.97692" lon="3.03334">
        <ele>652.2</ele>
        <time>2026-04-30T10:21:03.000Z</time>
      </trkpt>
      <trkpt lat="43.97691" lon="3.03332">
        <ele>652.6</ele>
        <time>2026-04-30T10:21:04.000Z</time>
      </trkpt>
      <trkpt lat="43.97691" lon="3.03329">
        <ele>652.9</ele>
        <time>2026-04-30T10:21:05.000Z</time>
      </trkpt>
      <trkpt lat="43.9769" lon="3.03327">
        <ele>653</ele>
        <time>2026-04-30T10:21:06.000Z</time>
      </trkpt>
      <trkpt lat="43.9769" lon="3.03326">
        <ele>653.6</ele>
        <time>2026-04-30T10:21:07.000Z</time>
      </trkpt>
      <trkpt lat="43.9769" lon="3.03326">
        <ele>654.2</ele>
        <time>2026-04-30T10:21:08.000Z</time>
      </trkpt>
      <trkpt lat="43.9769" lon="3.03326">
        <ele>654.5</ele>
        <time>2026-04-30T10:21:09.000Z</time>
      </trkpt>
      <trkpt lat="43.9769" lon="3.03327">
        <ele>654.2</ele>
        <time>2026-04-30T10:21:10.000Z</time>
      </trkpt>
      <trkpt lat="43.9769" lon="3.03327">
        <ele>653.9</ele>
        <time>2026-04-30T10:21:11.000Z</time>
      </trkpt>
      <trkpt lat="43.9769" lon="3.03326">
        <ele>653.8</ele>
        <time>2026-04-30T10:21:12.000Z</time>
      </trkpt>
      <trkpt lat="43.9769" lon="3.03325">
        <ele>654</ele>
        <time>2026-04-30T10:21:13.000Z</time>
      </trkpt>
      <trkpt lat="43.97689" lon="3.03323">
        <ele>654</ele>
        <time>2026-04-30T10:21:14.000Z</time>
      </trkpt>
      <trkpt lat="43.97688" lon="3.03322">
        <ele>653.7</ele>
        <time>2026-04-30T10:21:15.000Z</time>
      </trkpt>
      <trkpt lat="43.97688" lon="3.0332">
        <ele>653.6</ele>
        <time>2026-04-30T10:21:16.000Z</time>
      </trkpt>
      <trkpt lat="43.97688" lon="3.03319">
        <ele>653</ele>
        <time>2026-04-30T10:21:17.000Z</time>
      </trkpt>
      <trkpt lat="43.97687" lon="3.03318">
        <ele>652.7</ele>
        <time>2026-04-30T10:21:18.000Z</time>
      </trkpt>
      <trkpt lat="43.97685" lon="3.03317">
        <ele>652.5</ele>
        <time>2026-04-30T10:21:19.000Z</time>
      </trkpt>
      <trkpt lat="43.97684" lon="3.03316">
        <ele>652.7</ele>
        <time>2026-04-30T10:21:20.000Z</time>
      </trkpt>
      <trkpt lat="43.97683" lon="3.03314">
        <ele>652.9</ele>
        <time>2026-04-30T10:21:21.000Z</time>
      </trkpt>
      <trkpt lat="43.97682" lon="3.03311">
        <ele>653.3</ele>
        <time>2026-04-30T10:21:22.000Z</time>
      </trkpt>
      <trkpt lat="43.97682" lon="3.03309">
        <ele>653.6</ele>
        <time>2026-04-30T10:21:23.000Z</time>
      </trkpt>
      <trkpt lat="43.97681" lon="3.03306">
        <ele>653.6</ele>
        <time>2026-04-30T10:21:24.000Z</time>
      </trkpt>
      <trkpt lat="43.97681" lon="3.03304">
        <ele>653.8</ele>
        <time>2026-04-30T10:21:25.000Z</time>
      </trkpt>
      <trkpt lat="43.97681" lon="3.03302">
        <ele>653.6</ele>
        <time>2026-04-30T10:21:26.000Z</time>
      </trkpt>
      <trkpt lat="43.9768" lon="3.033">
        <ele>653.7</ele>
        <time>2026-04-30T10:21:27.000Z</time>
      </trkpt>
      <trkpt lat="43.97679" lon="3.03298">
        <ele>653</ele>
        <time>2026-04-30T10:21:28.000Z</time>
      </trkpt>
      <trkpt lat="43.97679" lon="3.03296">
        <ele>652.8</ele>
        <time>2026-04-30T10:21:29.000Z</time>
      </trkpt>
      <trkpt lat="43.97679" lon="3.03295">
        <ele>652.4</ele>
        <time>2026-04-30T10:21:30.000Z</time>
      </trkpt>
      <trkpt lat="43.97678" lon="3.03293">
        <ele>651.9</ele>
        <time>2026-04-30T10:21:31.000Z</time>
      </trkpt>
      <trkpt lat="43.97677" lon="3.03291">
        <ele>652.1</ele>
        <time>2026-04-30T10:21:32.000Z</time>
      </trkpt>
      <trkpt lat="43.97676" lon="3.03289">
        <ele>652</ele>
        <time>2026-04-30T10:21:33.000Z</time>
      </trkpt>
      <trkpt lat="43.97676" lon="3.03287">
        <ele>651.9</ele>
        <time>2026-04-30T10:21:34.000Z</time>
      </trkpt>
      <trkpt lat="43.97676" lon="3.03285">
        <ele>652.2</ele>
        <time>2026-04-30T10:21:35.000Z</time>
      </trkpt>
      <trkpt lat="43.97676" lon="3.03283">
        <ele>652.6</ele>
        <time>2026-04-30T10:21:36.000Z</time>
      </trkpt>
      <trkpt lat="43.97675" lon="3.03281">
        <ele>652.4</ele>
        <time>2026-04-30T10:21:37.000Z</time>
      </trkpt>
      <trkpt lat="43.97675" lon="3.03278">
        <ele>652.5</ele>
        <time>2026-04-30T10:21:38.000Z</time>
      </trkpt>
      <trkpt lat="43.97674" lon="3.03276">
        <ele>652.8</ele>
        <time>2026-04-30T10:21:39.000Z</time>
      </trkpt>
      <trkpt lat="43.97674" lon="3.03274">
        <ele>652.6</ele>
        <time>2026-04-30T10:21:40.000Z</time>
      </trkpt>
      <trkpt lat="43.97674" lon="3.03272">
        <ele>652.7</ele>
        <time>2026-04-30T10:21:41.000Z</time>
      </trkpt>
      <trkpt lat="43.97674" lon="3.03271">
        <ele>653.3</ele>
        <time>2026-04-30T10:21:42.000Z</time>
      </trkpt>
      <trkpt lat="43.97674" lon="3.0327">
        <ele>653</ele>
        <time>2026-04-30T10:21:43.000Z</time>
      </trkpt>
      <trkpt lat="43.97673" lon="3.03268">
        <ele>653.2</ele>
        <time>2026-04-30T10:21:44.000Z</time>
      </trkpt>
      <trkpt lat="43.97673" lon="3.03267">
        <ele>653.5</ele>
        <time>2026-04-30T10:21:45.000Z</time>
      </trkpt>
      <trkpt lat="43.97672" lon="3.03264">
        <ele>654.3</ele>
        <time>2026-04-30T10:21:46.000Z</time>
      </trkpt>
      <trkpt lat="43.97671" lon="3.03263">
        <ele>655.2</ele>
        <time>2026-04-30T10:21:47.000Z</time>
      </trkpt>
      <trkpt lat="43.97672" lon="3.03261">
        <ele>655.9</ele>
        <time>2026-04-30T10:21:48.000Z</time>
      </trkpt>
      <trkpt lat="43.97672" lon="3.03259">
        <ele>656.5</ele>
        <time>2026-04-30T10:21:49.000Z</time>
      </trkpt>
      <trkpt lat="43.97672" lon="3.03258">
        <ele>657.3</ele>
        <time>2026-04-30T10:21:50.000Z</time>
      </trkpt>
      <trkpt lat="43.97672" lon="3.03257">
        <ele>657.9</ele>
        <time>2026-04-30T10:21:51.000Z</time>
      </trkpt>
      <trkpt lat="43.97672" lon="3.03255">
        <ele>658.4</ele>
        <time>2026-04-30T10:21:52.000Z</time>
      </trkpt>
      <trkpt lat="43.97672" lon="3.03253">
        <ele>658.8</ele>
        <time>2026-04-30T10:21:53.000Z</time>
      </trkpt>
      <trkpt lat="43.97671" lon="3.03251">
        <ele>658.5</ele>
        <time>2026-04-30T10:21:54.000Z</time>
      </trkpt>
      <trkpt lat="43.97671" lon="3.03248">
        <ele>658</ele>
        <time>2026-04-30T10:21:55.000Z</time>
      </trkpt>
      <trkpt lat="43.97671" lon="3.03246">
        <ele>657.8</ele>
        <time>2026-04-30T10:21:56.000Z</time>
      </trkpt>
      <trkpt lat="43.9767" lon="3.03243">
        <ele>657.6</ele>
        <time>2026-04-30T10:21:57.000Z</time>
      </trkpt>
      <trkpt lat="43.9767" lon="3.03241">
        <ele>657.3</ele>
        <time>2026-04-30T10:21:58.000Z</time>
      </trkpt>
      <trkpt lat="43.9767" lon="3.0324">
        <ele>657.4</ele>
        <time>2026-04-30T10:21:59.000Z</time>
      </trkpt>
      <trkpt lat="43.97669" lon="3.03239">
        <ele>658</ele>
        <time>2026-04-30T10:22:00.000Z</time>
      </trkpt>
      <trkpt lat="43.97669" lon="3.03238">
        <ele>658.3</ele>
        <time>2026-04-30T10:22:01.000Z</time>
      </trkpt>
      <trkpt lat="43.97668" lon="3.03236">
        <ele>658.6</ele>
        <time>2026-04-30T10:22:02.000Z</time>
      </trkpt>
      <trkpt lat="43.97667" lon="3.03235">
        <ele>658.8</ele>
        <time>2026-04-30T10:22:03.000Z</time>
      </trkpt>
      <trkpt lat="43.97666" lon="3.03233">
        <ele>658.5</ele>
        <time>2026-04-30T10:22:04.000Z</time>
      </trkpt>
      <trkpt lat="43.97665" lon="3.0323">
        <ele>658.3</ele>
        <time>2026-04-30T10:22:05.000Z</time>
      </trkpt>
      <trkpt lat="43.97663" lon="3.03228">
        <ele>657.9</ele>
        <time>2026-04-30T10:22:06.000Z</time>
      </trkpt>
      <trkpt lat="43.97662" lon="3.03226">
        <ele>657.8</ele>
        <time>2026-04-30T10:22:07.000Z</time>
      </trkpt>
      <trkpt lat="43.97661" lon="3.03224">
        <ele>657.3</ele>
        <time>2026-04-30T10:22:08.000Z</time>
      </trkpt>
      <trkpt lat="43.97661" lon="3.03223">
        <ele>657.7</ele>
        <time>2026-04-30T10:22:09.000Z</time>
      </trkpt>
      <trkpt lat="43.97661" lon="3.03221">
        <ele>658</ele>
        <time>2026-04-30T10:22:10.000Z</time>
      </trkpt>
      <trkpt lat="43.9766" lon="3.0322">
        <ele>658.6</ele>
        <time>2026-04-30T10:22:11.000Z</time>
      </trkpt>
      <trkpt lat="43.97659" lon="3.03219">
        <ele>659.1</ele>
        <time>2026-04-30T10:22:12.000Z</time>
      </trkpt>
      <trkpt lat="43.97657" lon="3.03218">
        <ele>659.9</ele>
        <time>2026-04-30T10:22:13.000Z</time>
      </trkpt>
      <trkpt lat="43.97656" lon="3.03218">
        <ele>660.5</ele>
        <time>2026-04-30T10:22:14.000Z</time>
      </trkpt>
      <trkpt lat="43.97654" lon="3.03216">
        <ele>660.6</ele>
        <time>2026-04-30T10:22:15.000Z</time>
      </trkpt>
      <trkpt lat="43.97654" lon="3.03215">
        <ele>661</ele>
        <time>2026-04-30T10:22:16.000Z</time>
      </trkpt>
      <trkpt lat="43.97653" lon="3.03215">
        <ele>661.4</ele>
        <time>2026-04-30T10:22:17.000Z</time>
      </trkpt>
      <trkpt lat="43.97653" lon="3.03214">
        <ele>661.7</ele>
        <time>2026-04-30T10:22:18.000Z</time>
      </trkpt>
      <trkpt lat="43.97652" lon="3.03213">
        <ele>661.8</ele>
        <time>2026-04-30T10:22:19.000Z</time>
      </trkpt>
      <trkpt lat="43.9765" lon="3.03212">
        <ele>661.5</ele>
        <time>2026-04-30T10:22:20.000Z</time>
      </trkpt>
      <trkpt lat="43.97649" lon="3.03211">
        <ele>662</ele>
        <time>2026-04-30T10:22:21.000Z</time>
      </trkpt>
      <trkpt lat="43.97647" lon="3.03209">
        <ele>661.4</ele>
        <time>2026-04-30T10:22:22.000Z</time>
      </trkpt>
      <trkpt lat="43.97646" lon="3.03208">
        <ele>661.4</ele>
        <time>2026-04-30T10:22:23.000Z</time>
      </trkpt>
      <trkpt lat="43.97646" lon="3.03206">
        <ele>661.2</ele>
        <time>2026-04-30T10:22:24.000Z</time>
      </trkpt>
      <trkpt lat="43.97646" lon="3.03205">
        <ele>661</ele>
        <time>2026-04-30T10:22:25.000Z</time>
      </trkpt>
      <trkpt lat="43.97645" lon="3.03203">
        <ele>661</ele>
        <time>2026-04-30T10:22:26.000Z</time>
      </trkpt>
      <trkpt lat="43.97645" lon="3.03203">
        <ele>661.3</ele>
        <time>2026-04-30T10:22:27.000Z</time>
      </trkpt>
      <trkpt lat="43.97644" lon="3.03202">
        <ele>661.9</ele>
        <time>2026-04-30T10:22:28.000Z</time>
      </trkpt>
      <trkpt lat="43.97643" lon="3.03201">
        <ele>662.7</ele>
        <time>2026-04-30T10:22:29.000Z</time>
      </trkpt>
      <trkpt lat="43.97642" lon="3.032">
        <ele>663</ele>
        <time>2026-04-30T10:22:30.000Z</time>
      </trkpt>
      <trkpt lat="43.97641" lon="3.03199">
        <ele>663.4</ele>
        <time>2026-04-30T10:22:31.000Z</time>
      </trkpt>
      <trkpt lat="43.9764" lon="3.03198">
        <ele>664.2</ele>
        <time>2026-04-30T10:22:32.000Z</time>
      </trkpt>
      <trkpt lat="43.97639" lon="3.03197">
        <ele>664.6</ele>
        <time>2026-04-30T10:22:33.000Z</time>
      </trkpt>
      <trkpt lat="43.97638" lon="3.03195">
        <ele>664.8</ele>
        <time>2026-04-30T10:22:34.000Z</time>
      </trkpt>
      <trkpt lat="43.97637" lon="3.03194">
        <ele>665</ele>
        <time>2026-04-30T10:22:35.000Z</time>
      </trkpt>
      <trkpt lat="43.97636" lon="3.03192">
        <ele>665.4</ele>
        <time>2026-04-30T10:22:36.000Z</time>
      </trkpt>
      <trkpt lat="43.97635" lon="3.03191">
        <ele>665.6</ele>
        <time>2026-04-30T10:22:37.000Z</time>
      </trkpt>
      <trkpt lat="43.97633" lon="3.0319">
        <ele>666.3</ele>
        <time>2026-04-30T10:22:38.000Z</time>
      </trkpt>
      <trkpt lat="43.97632" lon="3.03188">
        <ele>666.3</ele>
        <time>2026-04-30T10:22:39.000Z</time>
      </trkpt>
      <trkpt lat="43.97632" lon="3.03186">
        <ele>666.5</ele>
        <time>2026-04-30T10:22:40.000Z</time>
      </trkpt>
      <trkpt lat="43.97631" lon="3.03185">
        <ele>667</ele>
        <time>2026-04-30T10:22:41.000Z</time>
      </trkpt>
      <trkpt lat="43.97631" lon="3.03183">
        <ele>667.9</ele>
        <time>2026-04-30T10:22:42.000Z</time>
      </trkpt>
      <trkpt lat="43.9763" lon="3.03182">
        <ele>668.5</ele>
        <time>2026-04-30T10:22:43.000Z</time>
      </trkpt>
      <trkpt lat="43.97628" lon="3.03181">
        <ele>668.7</ele>
        <time>2026-04-30T10:22:44.000Z</time>
      </trkpt>
      <trkpt lat="43.97628" lon="3.03179">
        <ele>668.7</ele>
        <time>2026-04-30T10:22:45.000Z</time>
      </trkpt>
      <trkpt lat="43.97627" lon="3.03178">
        <ele>668.6</ele>
        <time>2026-04-30T10:22:46.000Z</time>
      </trkpt>
      <trkpt lat="43.97626" lon="3.03176">
        <ele>668.7</ele>
        <time>2026-04-30T10:22:47.000Z</time>
      </trkpt>
      <trkpt lat="43.97625" lon="3.03175">
        <ele>668.5</ele>
        <time>2026-04-30T10:22:48.000Z</time>
      </trkpt>
      <trkpt lat="43.97624" lon="3.03175">
        <ele>668.3</ele>
        <time>2026-04-30T10:22:49.000Z</time>
      </trkpt>
      <trkpt lat="43.97624" lon="3.03174">
        <ele>667.9</ele>
        <time>2026-04-30T10:22:50.000Z</time>
      </trkpt>
      <trkpt lat="43.97623" lon="3.03173">
        <ele>667.7</ele>
        <time>2026-04-30T10:22:51.000Z</time>
      </trkpt>
      <trkpt lat="43.97621" lon="3.03172">
        <ele>667.4</ele>
        <time>2026-04-30T10:22:52.000Z</time>
      </trkpt>
      <trkpt lat="43.9762" lon="3.03172">
        <ele>667.7</ele>
        <time>2026-04-30T10:22:53.000Z</time>
      </trkpt>
      <trkpt lat="43.9762" lon="3.03171">
        <ele>668.4</ele>
        <time>2026-04-30T10:22:54.000Z</time>
      </trkpt>
      <trkpt lat="43.97619" lon="3.0317">
        <ele>668.4</ele>
        <time>2026-04-30T10:22:55.000Z</time>
      </trkpt>
      <trkpt lat="43.97618" lon="3.03169">
        <ele>668.3</ele>
        <time>2026-04-30T10:22:56.000Z</time>
      </trkpt>
      <trkpt lat="43.97617" lon="3.03168">
        <ele>668.2</ele>
        <time>2026-04-30T10:22:57.000Z</time>
      </trkpt>
      <trkpt lat="43.97616" lon="3.03167">
        <ele>667.7</ele>
        <time>2026-04-30T10:22:58.000Z</time>
      </trkpt>
      <trkpt lat="43.97615" lon="3.03165">
        <ele>667.9</ele>
        <time>2026-04-30T10:22:59.000Z</time>
      </trkpt>
      <trkpt lat="43.97615" lon="3.03163">
        <ele>667.7</ele>
        <time>2026-04-30T10:23:00.000Z</time>
      </trkpt>
      <trkpt lat="43.97614" lon="3.03161">
        <ele>667.1</ele>
        <time>2026-04-30T10:23:01.000Z</time>
      </trkpt>
      <trkpt lat="43.97614" lon="3.03161">
        <ele>666.8</ele>
        <time>2026-04-30T10:23:02.000Z</time>
      </trkpt>
      <trkpt lat="43.97613" lon="3.03159">
        <ele>666.5</ele>
        <time>2026-04-30T10:23:03.000Z</time>
      </trkpt>
      <trkpt lat="43.97613" lon="3.03159">
        <ele>666.4</ele>
        <time>2026-04-30T10:23:04.000Z</time>
      </trkpt>
      <trkpt lat="43.97611" lon="3.03158">
        <ele>666.2</ele>
        <time>2026-04-30T10:23:05.000Z</time>
      </trkpt>
      <trkpt lat="43.97611" lon="3.03157">
        <ele>666.5</ele>
        <time>2026-04-30T10:23:06.000Z</time>
      </trkpt>
      <trkpt lat="43.9761" lon="3.03157">
        <ele>666.4</ele>
        <time>2026-04-30T10:23:07.000Z</time>
      </trkpt>
      <trkpt lat="43.97609" lon="3.03156">
        <ele>666.5</ele>
        <time>2026-04-30T10:23:08.000Z</time>
      </trkpt>
      <trkpt lat="43.97608" lon="3.03155">
        <ele>666.7</ele>
        <time>2026-04-30T10:23:09.000Z</time>
      </trkpt>
      <trkpt lat="43.97608" lon="3.03154">
        <ele>666.8</ele>
        <time>2026-04-30T10:23:10.000Z</time>
      </trkpt>
      <trkpt lat="43.97607" lon="3.03153">
        <ele>666.7</ele>
        <time>2026-04-30T10:23:11.000Z</time>
      </trkpt>
      <trkpt lat="43.97606" lon="3.03153">
        <ele>666.5</ele>
        <time>2026-04-30T10:23:12.000Z</time>
      </trkpt>
      <trkpt lat="43.97605" lon="3.03153">
        <ele>666.6</ele>
        <time>2026-04-30T10:23:13.000Z</time>
      </trkpt>
      <trkpt lat="43.97603" lon="3.03152">
        <ele>666.7</ele>
        <time>2026-04-30T10:23:14.000Z</time>
      </trkpt>
      <trkpt lat="43.97602" lon="3.03152">
        <ele>667</ele>
        <time>2026-04-30T10:23:15.000Z</time>
      </trkpt>
      <trkpt lat="43.976" lon="3.03152">
        <ele>667.8</ele>
        <time>2026-04-30T10:23:16.000Z</time>
      </trkpt>
      <trkpt lat="43.976" lon="3.03153">
        <ele>668.3</ele>
        <time>2026-04-30T10:23:17.000Z</time>
      </trkpt>
      <trkpt lat="43.976" lon="3.03152">
        <ele>668.7</ele>
        <time>2026-04-30T10:23:18.000Z</time>
      </trkpt>
      <trkpt lat="43.976" lon="3.03152">
        <ele>668.8</ele>
        <time>2026-04-30T10:23:19.000Z</time>
      </trkpt>
      <trkpt lat="43.976" lon="3.03152">
        <ele>669.1</ele>
        <time>2026-04-30T10:23:20.000Z</time>
      </trkpt>
      <trkpt lat="43.976" lon="3.03152">
        <ele>669</ele>
        <time>2026-04-30T10:23:21.000Z</time>
      </trkpt>
      <trkpt lat="43.976" lon="3.03151">
        <ele>669</ele>
        <time>2026-04-30T10:23:22.000Z</time>
      </trkpt>
      <trkpt lat="43.97599" lon="3.0315">
        <ele>668.8</ele>
        <time>2026-04-30T10:23:23.000Z</time>
      </trkpt>
      <trkpt lat="43.97599" lon="3.03148">
        <ele>668.6</ele>
        <time>2026-04-30T10:23:24.000Z</time>
      </trkpt>
      <trkpt lat="43.97599" lon="3.03147">
        <ele>668.5</ele>
        <time>2026-04-30T10:23:25.000Z</time>
      </trkpt>
      <trkpt lat="43.97599" lon="3.03147">
        <ele>668.3</ele>
        <time>2026-04-30T10:23:26.000Z</time>
      </trkpt>
      <trkpt lat="43.97598" lon="3.03147">
        <ele>668.5</ele>
        <time>2026-04-30T10:23:27.000Z</time>
      </trkpt>
      <trkpt lat="43.97598" lon="3.03147">
        <ele>668.7</ele>
        <time>2026-04-30T10:23:28.000Z</time>
      </trkpt>
      <trkpt lat="43.97598" lon="3.03147">
        <ele>668.7</ele>
        <time>2026-04-30T10:23:29.000Z</time>
      </trkpt>
      <trkpt lat="43.97596" lon="3.03146">
        <ele>668.7</ele>
        <time>2026-04-30T10:23:30.000Z</time>
      </trkpt>
      <trkpt lat="43.97595" lon="3.03146">
        <ele>669</ele>
        <time>2026-04-30T10:23:31.000Z</time>
      </trkpt>
      <trkpt lat="43.97595" lon="3.03146">
        <ele>669</ele>
        <time>2026-04-30T10:23:32.000Z</time>
      </trkpt>
      <trkpt lat="43.97594" lon="3.03146">
        <ele>669.3</ele>
        <time>2026-04-30T10:23:33.000Z</time>
      </trkpt>
      <trkpt lat="43.97593" lon="3.03146">
        <ele>669.3</ele>
        <time>2026-04-30T10:23:34.000Z</time>
      </trkpt>
      <trkpt lat="43.97592" lon="3.03145">
        <ele>669.2</ele>
        <time>2026-04-30T10:23:35.000Z</time>
      </trkpt>
      <trkpt lat="43.97592" lon="3.03143">
        <ele>669.3</ele>
        <time>2026-04-30T10:23:36.000Z</time>
      </trkpt>
      <trkpt lat="43.9759" lon="3.03141">
        <ele>669.4</ele>
        <time>2026-04-30T10:23:37.000Z</time>
      </trkpt>
      <trkpt lat="43.9759" lon="3.03139">
        <ele>669.6</ele>
        <time>2026-04-30T10:23:38.000Z</time>
      </trkpt>
      <trkpt lat="43.97589" lon="3.03139">
        <ele>670</ele>
        <time>2026-04-30T10:23:39.000Z</time>
      </trkpt>
      <trkpt lat="43.97588" lon="3.03138">
        <ele>670.6</ele>
        <time>2026-04-30T10:23:40.000Z</time>
      </trkpt>
      <trkpt lat="43.97588" lon="3.03138">
        <ele>670.9</ele>
        <time>2026-04-30T10:23:41.000Z</time>
      </trkpt>
      <trkpt lat="43.97587" lon="3.03137">
        <ele>671</ele>
        <time>2026-04-30T10:23:42.000Z</time>
      </trkpt>
      <trkpt lat="43.97587" lon="3.03136">
        <ele>671.1</ele>
        <time>2026-04-30T10:23:43.000Z</time>
      </trkpt>
      <trkpt lat="43.97586" lon="3.03135">
        <ele>671.3</ele>
        <time>2026-04-30T10:23:44.000Z</time>
      </trkpt>
      <trkpt lat="43.97586" lon="3.03134">
        <ele>671.5</ele>
        <time>2026-04-30T10:23:45.000Z</time>
      </trkpt>
      <trkpt lat="43.97586" lon="3.03133">
        <ele>671.8</ele>
        <time>2026-04-30T10:23:46.000Z</time>
      </trkpt>
      <trkpt lat="43.97586" lon="3.03133">
        <ele>671.6</ele>
        <time>2026-04-30T10:23:47.000Z</time>
      </trkpt>
      <trkpt lat="43.97585" lon="3.03132">
        <ele>671.5</ele>
        <time>2026-04-30T10:23:48.000Z</time>
      </trkpt>
      <trkpt lat="43.97584" lon="3.03132">
        <ele>671.2</ele>
        <time>2026-04-30T10:23:49.000Z</time>
      </trkpt>
      <trkpt lat="43.97584" lon="3.03131">
        <ele>671.1</ele>
        <time>2026-04-30T10:23:50.000Z</time>
      </trkpt>
      <trkpt lat="43.97583" lon="3.03131">
        <ele>671.3</ele>
        <time>2026-04-30T10:23:51.000Z</time>
      </trkpt>
      <trkpt lat="43.97582" lon="3.03131">
        <ele>671.4</ele>
        <time>2026-04-30T10:23:52.000Z</time>
      </trkpt>
      <trkpt lat="43.97582" lon="3.03131">
        <ele>671.1</ele>
        <time>2026-04-30T10:23:53.000Z</time>
      </trkpt>
      <trkpt lat="43.97581" lon="3.03131">
        <ele>671.8</ele>
        <time>2026-04-30T10:23:54.000Z</time>
      </trkpt>
      <trkpt lat="43.97581" lon="3.0313">
        <ele>671.8</ele>
        <time>2026-04-30T10:23:55.000Z</time>
      </trkpt>
      <trkpt lat="43.97581" lon="3.0313">
        <ele>672</ele>
        <time>2026-04-30T10:23:56.000Z</time>
      </trkpt>
      <trkpt lat="43.97581" lon="3.03129">
        <ele>672.3</ele>
        <time>2026-04-30T10:23:57.000Z</time>
      </trkpt>
      <trkpt lat="43.97581" lon="3.03129">
        <ele>672.7</ele>
        <time>2026-04-30T10:23:58.000Z</time>
      </trkpt>
      <trkpt lat="43.97579" lon="3.03127">
        <ele>672.7</ele>
        <time>2026-04-30T10:23:59.000Z</time>
      </trkpt>
      <trkpt lat="43.97579" lon="3.03125">
        <ele>672.8</ele>
        <time>2026-04-30T10:24:00.000Z</time>
      </trkpt>
      <trkpt lat="43.97577" lon="3.03124">
        <ele>672.8</ele>
        <time>2026-04-30T10:24:01.000Z</time>
      </trkpt>
      <trkpt lat="43.97576" lon="3.03123">
        <ele>672.9</ele>
        <time>2026-04-30T10:24:02.000Z</time>
      </trkpt>
      <trkpt lat="43.97575" lon="3.03121">
        <ele>673</ele>
        <time>2026-04-30T10:24:03.000Z</time>
      </trkpt>
      <trkpt lat="43.97574" lon="3.0312">
        <ele>673.3</ele>
        <time>2026-04-30T10:24:04.000Z</time>
      </trkpt>
      <trkpt lat="43.97573" lon="3.03119">
        <ele>673.5</ele>
        <time>2026-04-30T10:24:05.000Z</time>
      </trkpt>
      <trkpt lat="43.97572" lon="3.03118">
        <ele>673.6</ele>
        <time>2026-04-30T10:24:06.000Z</time>
      </trkpt>
      <trkpt lat="43.97571" lon="3.03117">
        <ele>673.3</ele>
        <time>2026-04-30T10:24:07.000Z</time>
      </trkpt>
      <trkpt lat="43.9757" lon="3.03115">
        <ele>673.3</ele>
        <time>2026-04-30T10:24:08.000Z</time>
      </trkpt>
      <trkpt lat="43.9757" lon="3.03114">
        <ele>673.5</ele>
        <time>2026-04-30T10:24:09.000Z</time>
      </trkpt>
      <trkpt lat="43.97569" lon="3.03112">
        <ele>673.8</ele>
        <time>2026-04-30T10:24:10.000Z</time>
      </trkpt>
      <trkpt lat="43.97568" lon="3.03111">
        <ele>674.1</ele>
        <time>2026-04-30T10:24:11.000Z</time>
      </trkpt>
      <trkpt lat="43.97567" lon="3.03109">
        <ele>674.6</ele>
        <time>2026-04-30T10:24:12.000Z</time>
      </trkpt>
      <trkpt lat="43.97567" lon="3.03107">
        <ele>674.8</ele>
        <time>2026-04-30T10:24:13.000Z</time>
      </trkpt>
      <trkpt lat="43.97567" lon="3.03105">
        <ele>674.7</ele>
        <time>2026-04-30T10:24:14.000Z</time>
      </trkpt>
      <trkpt lat="43.97566" lon="3.03104">
        <ele>674.4</ele>
        <time>2026-04-30T10:24:15.000Z</time>
      </trkpt>
      <trkpt lat="43.97566" lon="3.03103">
        <ele>674.7</ele>
        <time>2026-04-30T10:24:16.000Z</time>
      </trkpt>
      <trkpt lat="43.97565" lon="3.03103">
        <ele>674.7</ele>
        <time>2026-04-30T10:24:17.000Z</time>
      </trkpt>
      <trkpt lat="43.97565" lon="3.03102">
        <ele>674.2</ele>
        <time>2026-04-30T10:24:18.000Z</time>
      </trkpt>
      <trkpt lat="43.97564" lon="3.03101">
        <ele>674.4</ele>
        <time>2026-04-30T10:24:19.000Z</time>
      </trkpt>
      <trkpt lat="43.97563" lon="3.031">
        <ele>674.5</ele>
        <time>2026-04-30T10:24:20.000Z</time>
      </trkpt>
      <trkpt lat="43.97562" lon="3.03099">
        <ele>674.9</ele>
        <time>2026-04-30T10:24:21.000Z</time>
      </trkpt>
      <trkpt lat="43.97561" lon="3.03099">
        <ele>675.2</ele>
        <time>2026-04-30T10:24:22.000Z</time>
      </trkpt>
      <trkpt lat="43.97561" lon="3.03098">
        <ele>675.4</ele>
        <time>2026-04-30T10:24:23.000Z</time>
      </trkpt>
      <trkpt lat="43.9756" lon="3.03097">
        <ele>675.7</ele>
        <time>2026-04-30T10:24:24.000Z</time>
      </trkpt>
      <trkpt lat="43.9756" lon="3.03095">
        <ele>676</ele>
        <time>2026-04-30T10:24:25.000Z</time>
      </trkpt>
      <trkpt lat="43.97559" lon="3.03095">
        <ele>676.1</ele>
        <time>2026-04-30T10:24:26.000Z</time>
      </trkpt>
      <trkpt lat="43.97559" lon="3.03094">
        <ele>676.1</ele>
        <time>2026-04-30T10:24:27.000Z</time>
      </trkpt>
      <trkpt lat="43.97558" lon="3.03092">
        <ele>676.1</ele>
        <time>2026-04-30T10:24:28.000Z</time>
      </trkpt>
      <trkpt lat="43.97558" lon="3.03091">
        <ele>676.5</ele>
        <time>2026-04-30T10:24:29.000Z</time>
      </trkpt>
      <trkpt lat="43.97557" lon="3.0309">
        <ele>676.8</ele>
        <time>2026-04-30T10:24:30.000Z</time>
      </trkpt>
      <trkpt lat="43.97556" lon="3.03089">
        <ele>677</ele>
        <time>2026-04-30T10:24:31.000Z</time>
      </trkpt>
      <trkpt lat="43.97555" lon="3.03087">
        <ele>677.5</ele>
        <time>2026-04-30T10:24:32.000Z</time>
      </trkpt>
      <trkpt lat="43.97554" lon="3.03086">
        <ele>677.9</ele>
        <time>2026-04-30T10:24:33.000Z</time>
      </trkpt>
      <trkpt lat="43.97553" lon="3.03085">
        <ele>678.2</ele>
        <time>2026-04-30T10:24:34.000Z</time>
      </trkpt>
      <trkpt lat="43.97552" lon="3.03084">
        <ele>678.4</ele>
        <time>2026-04-30T10:24:35.000Z</time>
      </trkpt>
      <trkpt lat="43.97551" lon="3.03083">
        <ele>679</ele>
        <time>2026-04-30T10:24:36.000Z</time>
      </trkpt>
      <trkpt lat="43.97552" lon="3.0308">
        <ele>678.9</ele>
        <time>2026-04-30T10:24:37.000Z</time>
      </trkpt>
      <trkpt lat="43.97552" lon="3.03079">
        <ele>679.4</ele>
        <time>2026-04-30T10:24:38.000Z</time>
      </trkpt>
      <trkpt lat="43.97551" lon="3.03078">
        <ele>679.6</ele>
        <time>2026-04-30T10:24:39.000Z</time>
      </trkpt>
      <trkpt lat="43.97549" lon="3.03078">
        <ele>680</ele>
        <time>2026-04-30T10:24:40.000Z</time>
      </trkpt>
      <trkpt lat="43.97548" lon="3.03078">
        <ele>680.3</ele>
        <time>2026-04-30T10:24:41.000Z</time>
      </trkpt>
      <trkpt lat="43.97548" lon="3.03079">
        <ele>680.7</ele>
        <time>2026-04-30T10:24:42.000Z</time>
      </trkpt>
      <trkpt lat="43.97548" lon="3.0308">
        <ele>681.3</ele>
        <time>2026-04-30T10:24:43.000Z</time>
      </trkpt>
      <trkpt lat="43.97549" lon="3.03081">
        <ele>681.8</ele>
        <time>2026-04-30T10:24:44.000Z</time>
      </trkpt>
      <trkpt lat="43.97549" lon="3.03081">
        <ele>682</ele>
        <time>2026-04-30T10:24:45.000Z</time>
      </trkpt>
      <trkpt lat="43.97549" lon="3.03081">
        <ele>681.8</ele>
        <time>2026-04-30T10:24:46.000Z</time>
      </trkpt>
      <trkpt lat="43.97548" lon="3.0308">
        <ele>681.7</ele>
        <time>2026-04-30T10:24:47.000Z</time>
      </trkpt>
      <trkpt lat="43.97548" lon="3.03078">
        <ele>681.9</ele>
        <time>2026-04-30T10:24:48.000Z</time>
      </trkpt>
      <trkpt lat="43.97548" lon="3.03077">
        <ele>682</ele>
        <time>2026-04-30T10:24:49.000Z</time>
      </trkpt>
      <trkpt lat="43.97548" lon="3.03076">
        <ele>682.3</ele>
        <time>2026-04-30T10:24:50.000Z</time>
      </trkpt>
      <trkpt lat="43.97549" lon="3.03075">
        <ele>682.2</ele>
        <time>2026-04-30T10:24:51.000Z</time>
      </trkpt>
      <trkpt lat="43.97549" lon="3.03074">
        <ele>682</ele>
        <time>2026-04-30T10:24:52.000Z</time>
      </trkpt>
      <trkpt lat="43.97548" lon="3.03072">
        <ele>682</ele>
        <time>2026-04-30T10:24:53.000Z</time>
      </trkpt>
      <trkpt lat="43.97548" lon="3.0307">
        <ele>681.8</ele>
        <time>2026-04-30T10:24:54.000Z</time>
      </trkpt>
      <trkpt lat="43.97548" lon="3.03068">
        <ele>682</ele>
        <time>2026-04-30T10:24:55.000Z</time>
      </trkpt>
      <trkpt lat="43.97548" lon="3.03066">
        <ele>682</ele>
        <time>2026-04-30T10:24:56.000Z</time>
      </trkpt>
      <trkpt lat="43.97548" lon="3.03064">
        <ele>681.8</ele>
        <time>2026-04-30T10:24:57.000Z</time>
      </trkpt>
      <trkpt lat="43.97548" lon="3.03062">
        <ele>681.8</ele>
        <time>2026-04-30T10:24:58.000Z</time>
      </trkpt>
      <trkpt lat="43.97549" lon="3.03061">
        <ele>681.3</ele>
        <time>2026-04-30T10:24:59.000Z</time>
      </trkpt>
      <trkpt lat="43.97549" lon="3.03059">
        <ele>681.3</ele>
        <time>2026-04-30T10:25:00.000Z</time>
      </trkpt>
      <trkpt lat="43.9755" lon="3.03058">
        <ele>681.2</ele>
        <time>2026-04-30T10:25:01.000Z</time>
      </trkpt>
      <trkpt lat="43.9755" lon="3.03056">
        <ele>681.1</ele>
        <time>2026-04-30T10:25:02.000Z</time>
      </trkpt>
      <trkpt lat="43.9755" lon="3.03055">
        <ele>681.4</ele>
        <time>2026-04-30T10:25:03.000Z</time>
      </trkpt>
      <trkpt lat="43.9755" lon="3.03053">
        <ele>681.5</ele>
        <time>2026-04-30T10:25:04.000Z</time>
      </trkpt>
      <trkpt lat="43.9755" lon="3.03052">
        <ele>681.2</ele>
        <time>2026-04-30T10:25:05.000Z</time>
      </trkpt>
      <trkpt lat="43.9755" lon="3.0305">
        <ele>681</ele>
        <time>2026-04-30T10:25:06.000Z</time>
      </trkpt>
      <trkpt lat="43.9755" lon="3.03049">
        <ele>681.1</ele>
        <time>2026-04-30T10:25:07.000Z</time>
      </trkpt>
      <trkpt lat="43.9755" lon="3.03047">
        <ele>681.3</ele>
        <time>2026-04-30T10:25:08.000Z</time>
      </trkpt>
      <trkpt lat="43.9755" lon="3.03046">
        <ele>681.6</ele>
        <time>2026-04-30T10:25:09.000Z</time>
      </trkpt>
      <trkpt lat="43.97551" lon="3.03044">
        <ele>681.8</ele>
        <time>2026-04-30T10:25:10.000Z</time>
      </trkpt>
      <trkpt lat="43.97551" lon="3.03044">
        <ele>682</ele>
        <time>2026-04-30T10:25:11.000Z</time>
      </trkpt>
      <trkpt lat="43.97551" lon="3.03042">
        <ele>682.2</ele>
        <time>2026-04-30T10:25:12.000Z</time>
      </trkpt>
      <trkpt lat="43.97551" lon="3.03042">
        <ele>682.1</ele>
        <time>2026-04-30T10:25:13.000Z</time>
      </trkpt>
      <trkpt lat="43.97551" lon="3.03042">
        <ele>681.8</ele>
        <time>2026-04-30T10:25:14.000Z</time>
      </trkpt>
      <trkpt lat="43.97551" lon="3.03043">
        <ele>681.7</ele>
        <time>2026-04-30T10:25:15.000Z</time>
      </trkpt>
      <trkpt lat="43.97551" lon="3.03043">
        <ele>681.3</ele>
        <time>2026-04-30T10:25:16.000Z</time>
      </trkpt>
      <trkpt lat="43.9755" lon="3.03043">
        <ele>681.1</ele>
        <time>2026-04-30T10:25:17.000Z</time>
      </trkpt>
      <trkpt lat="43.9755" lon="3.03043">
        <ele>680.9</ele>
        <time>2026-04-30T10:25:18.000Z</time>
      </trkpt>
      <trkpt lat="43.9755" lon="3.03043">
        <ele>680.8</ele>
        <time>2026-04-30T10:25:19.000Z</time>
      </trkpt>
      <trkpt lat="43.9755" lon="3.03043">
        <ele>680.8</ele>
        <time>2026-04-30T10:25:20.000Z</time>
      </trkpt>
      <trkpt lat="43.97551" lon="3.03042">
        <ele>680.9</ele>
        <time>2026-04-30T10:25:21.000Z</time>
      </trkpt>
      <trkpt lat="43.97551" lon="3.0304">
        <ele>680.8</ele>
        <time>2026-04-30T10:25:22.000Z</time>
      </trkpt>
      <trkpt lat="43.97551" lon="3.03039">
        <ele>680.9</ele>
        <time>2026-04-30T10:25:23.000Z</time>
      </trkpt>
      <trkpt lat="43.97551" lon="3.03037">
        <ele>680.9</ele>
        <time>2026-04-30T10:25:24.000Z</time>
      </trkpt>
      <trkpt lat="43.9755" lon="3.03037">
        <ele>680.9</ele>
        <time>2026-04-30T10:25:25.000Z</time>
      </trkpt>
      <trkpt lat="43.9755" lon="3.03037">
        <ele>681.2</ele>
        <time>2026-04-30T10:25:26.000Z</time>
      </trkpt>
      <trkpt lat="43.9755" lon="3.03037">
        <ele>681.5</ele>
        <time>2026-04-30T10:25:27.000Z</time>
      </trkpt>
      <trkpt lat="43.9755" lon="3.03036">
        <ele>682</ele>
        <time>2026-04-30T10:25:28.000Z</time>
      </trkpt>
      <trkpt lat="43.97551" lon="3.03036">
        <ele>682.3</ele>
        <time>2026-04-30T10:25:29.000Z</time>
      </trkpt>
      <trkpt lat="43.97551" lon="3.03036">
        <ele>682.4</ele>
        <time>2026-04-30T10:25:30.000Z</time>
      </trkpt>
      <trkpt lat="43.97551" lon="3.03036">
        <ele>682.5</ele>
        <time>2026-04-30T10:25:31.000Z</time>
      </trkpt>
      <trkpt lat="43.97551" lon="3.03035">
        <ele>682.5</ele>
        <time>2026-04-30T10:25:32.000Z</time>
      </trkpt>
      <trkpt lat="43.97551" lon="3.03034">
        <ele>682.6</ele>
        <time>2026-04-30T10:25:33.000Z</time>
      </trkpt>
      <trkpt lat="43.97551" lon="3.03032">
        <ele>682.4</ele>
        <time>2026-04-30T10:25:34.000Z</time>
      </trkpt>
      <trkpt lat="43.97552" lon="3.0303">
        <ele>682.4</ele>
        <time>2026-04-30T10:25:35.000Z</time>
      </trkpt>
      <trkpt lat="43.97553" lon="3.03028">
        <ele>682.4</ele>
        <time>2026-04-30T10:25:36.000Z</time>
      </trkpt>
      <trkpt lat="43.97554" lon="3.03026">
        <ele>682.4</ele>
        <time>2026-04-30T10:25:37.000Z</time>
      </trkpt>
      <trkpt lat="43.97554" lon="3.03024">
        <ele>682.2</ele>
        <time>2026-04-30T10:25:38.000Z</time>
      </trkpt>
      <trkpt lat="43.97555" lon="3.03022">
        <ele>681.9</ele>
        <time>2026-04-30T10:25:39.000Z</time>
      </trkpt>
      <trkpt lat="43.97556" lon="3.03021">
        <ele>681.7</ele>
        <time>2026-04-30T10:25:40.000Z</time>
      </trkpt>
      <trkpt lat="43.97556" lon="3.03019">
        <ele>681.6</ele>
        <time>2026-04-30T10:25:41.000Z</time>
      </trkpt>
      <trkpt lat="43.97557" lon="3.03017">
        <ele>681.9</ele>
        <time>2026-04-30T10:25:42.000Z</time>
      </trkpt>
      <trkpt lat="43.97557" lon="3.03016">
        <ele>682.1</ele>
        <time>2026-04-30T10:25:43.000Z</time>
      </trkpt>
      <trkpt lat="43.97558" lon="3.03015">
        <ele>682.3</ele>
        <time>2026-04-30T10:25:44.000Z</time>
      </trkpt>
      <trkpt lat="43.97558" lon="3.03013">
        <ele>682.5</ele>
        <time>2026-04-30T10:25:45.000Z</time>
      </trkpt>
      <trkpt lat="43.97559" lon="3.03012">
        <ele>682.5</ele>
        <time>2026-04-30T10:25:46.000Z</time>
      </trkpt>
      <trkpt lat="43.97559" lon="3.0301">
        <ele>682.9</ele>
        <time>2026-04-30T10:25:47.000Z</time>
      </trkpt>
      <trkpt lat="43.97559" lon="3.03009">
        <ele>683.1</ele>
        <time>2026-04-30T10:25:48.000Z</time>
      </trkpt>
      <trkpt lat="43.97559" lon="3.03007">
        <ele>682.9</ele>
        <time>2026-04-30T10:25:49.000Z</time>
      </trkpt>
      <trkpt lat="43.9756" lon="3.03005">
        <ele>683.2</ele>
        <time>2026-04-30T10:25:50.000Z</time>
      </trkpt>
      <trkpt lat="43.9756" lon="3.03004">
        <ele>683.2</ele>
        <time>2026-04-30T10:25:51.000Z</time>
      </trkpt>
      <trkpt lat="43.97561" lon="3.03002">
        <ele>683.4</ele>
        <time>2026-04-30T10:25:52.000Z</time>
      </trkpt>
      <trkpt lat="43.97562" lon="3.03001">
        <ele>683.2</ele>
        <time>2026-04-30T10:25:53.000Z</time>
      </trkpt>
      <trkpt lat="43.97562" lon="3.02999">
        <ele>683.1</ele>
        <time>2026-04-30T10:25:54.000Z</time>
      </trkpt>
      <trkpt lat="43.97563" lon="3.02998">
        <ele>683.1</ele>
        <time>2026-04-30T10:25:55.000Z</time>
      </trkpt>
      <trkpt lat="43.97564" lon="3.02996">
        <ele>683.1</ele>
        <time>2026-04-30T10:25:56.000Z</time>
      </trkpt>
      <trkpt lat="43.97564" lon="3.02995">
        <ele>683</ele>
        <time>2026-04-30T10:25:57.000Z</time>
      </trkpt>
      <trkpt lat="43.97565" lon="3.02994">
        <ele>683</ele>
        <time>2026-04-30T10:25:58.000Z</time>
      </trkpt>
      <trkpt lat="43.97566" lon="3.02992">
        <ele>682.8</ele>
        <time>2026-04-30T10:25:59.000Z</time>
      </trkpt>
      <trkpt lat="43.97566" lon="3.02991">
        <ele>683.2</ele>
        <time>2026-04-30T10:26:00.000Z</time>
      </trkpt>
      <trkpt lat="43.97566" lon="3.0299">
        <ele>683</ele>
        <time>2026-04-30T10:26:01.000Z</time>
      </trkpt>
      <trkpt lat="43.97567" lon="3.02989">
        <ele>683.2</ele>
        <time>2026-04-30T10:26:02.000Z</time>
      </trkpt>
      <trkpt lat="43.97567" lon="3.02988">
        <ele>683.3</ele>
        <time>2026-04-30T10:26:03.000Z</time>
      </trkpt>
      <trkpt lat="43.97567" lon="3.02987">
        <ele>683.4</ele>
        <time>2026-04-30T10:26:04.000Z</time>
      </trkpt>
      <trkpt lat="43.97567" lon="3.02987">
        <ele>684</ele>
        <time>2026-04-30T10:26:05.000Z</time>
      </trkpt>
      <trkpt lat="43.97567" lon="3.02987">
        <ele>684.3</ele>
        <time>2026-04-30T10:26:06.000Z</time>
      </trkpt>
      <trkpt lat="43.97567" lon="3.02987">
        <ele>684.7</ele>
        <time>2026-04-30T10:26:07.000Z</time>
      </trkpt>
      <trkpt lat="43.97568" lon="3.02985">
        <ele>685.3</ele>
        <time>2026-04-30T10:26:08.000Z</time>
      </trkpt>
      <trkpt lat="43.97569" lon="3.02984">
        <ele>685.4</ele>
        <time>2026-04-30T10:26:09.000Z</time>
      </trkpt>
      <trkpt lat="43.97569" lon="3.02982">
        <ele>685.7</ele>
        <time>2026-04-30T10:26:10.000Z</time>
      </trkpt>
      <trkpt lat="43.9757" lon="3.02981">
        <ele>686</ele>
        <time>2026-04-30T10:26:11.000Z</time>
      </trkpt>
      <trkpt lat="43.97571" lon="3.02979">
        <ele>686.2</ele>
        <time>2026-04-30T10:26:12.000Z</time>
      </trkpt>
      <trkpt lat="43.97572" lon="3.02977">
        <ele>686.3</ele>
        <time>2026-04-30T10:26:13.000Z</time>
      </trkpt>
      <trkpt lat="43.97573" lon="3.02975">
        <ele>686.3</ele>
        <time>2026-04-30T10:26:14.000Z</time>
      </trkpt>
      <trkpt lat="43.97574" lon="3.02974">
        <ele>686.3</ele>
        <time>2026-04-30T10:26:15.000Z</time>
      </trkpt>
      <trkpt lat="43.97574" lon="3.02973">
        <ele>686.2</ele>
        <time>2026-04-30T10:26:16.000Z</time>
      </trkpt>
      <trkpt lat="43.97575" lon="3.02972">
        <ele>686</ele>
        <time>2026-04-30T10:26:17.000Z</time>
      </trkpt>
      <trkpt lat="43.97575" lon="3.0297">
        <ele>685.9</ele>
        <time>2026-04-30T10:26:18.000Z</time>
      </trkpt>
      <trkpt lat="43.97576" lon="3.02969">
        <ele>685.9</ele>
        <time>2026-04-30T10:26:19.000Z</time>
      </trkpt>
      <trkpt lat="43.97577" lon="3.02968">
        <ele>685.9</ele>
        <time>2026-04-30T10:26:20.000Z</time>
      </trkpt>
      <trkpt lat="43.97577" lon="3.02967">
        <ele>686</ele>
        <time>2026-04-30T10:26:21.000Z</time>
      </trkpt>
      <trkpt lat="43.97578" lon="3.02965">
        <ele>685.8</ele>
        <time>2026-04-30T10:26:22.000Z</time>
      </trkpt>
      <trkpt lat="43.97579" lon="3.02964">
        <ele>685.7</ele>
        <time>2026-04-30T10:26:23.000Z</time>
      </trkpt>
      <trkpt lat="43.9758" lon="3.02962">
        <ele>685.8</ele>
        <time>2026-04-30T10:26:24.000Z</time>
      </trkpt>
      <trkpt lat="43.9758" lon="3.02961">
        <ele>686.2</ele>
        <time>2026-04-30T10:26:25.000Z</time>
      </trkpt>
      <trkpt lat="43.9758" lon="3.0296">
        <ele>686.3</ele>
        <time>2026-04-30T10:26:26.000Z</time>
      </trkpt>
      <trkpt lat="43.97581" lon="3.02959">
        <ele>686.3</ele>
        <time>2026-04-30T10:26:27.000Z</time>
      </trkpt>
      <trkpt lat="43.97581" lon="3.02957">
        <ele>686.1</ele>
        <time>2026-04-30T10:26:28.000Z</time>
      </trkpt>
      <trkpt lat="43.97581" lon="3.02955">
        <ele>685.9</ele>
        <time>2026-04-30T10:26:29.000Z</time>
      </trkpt>
      <trkpt lat="43.97582" lon="3.02954">
        <ele>686</ele>
        <time>2026-04-30T10:26:30.000Z</time>
      </trkpt>
      <trkpt lat="43.97583" lon="3.02953">
        <ele>686.1</ele>
        <time>2026-04-30T10:26:31.000Z</time>
      </trkpt>
      <trkpt lat="43.97584" lon="3.02952">
        <ele>686.3</ele>
        <time>2026-04-30T10:26:32.000Z</time>
      </trkpt>
      <trkpt lat="43.97585" lon="3.02951">
        <ele>686.2</ele>
        <time>2026-04-30T10:26:33.000Z</time>
      </trkpt>
      <trkpt lat="43.97585" lon="3.0295">
        <ele>686</ele>
        <time>2026-04-30T10:26:34.000Z</time>
      </trkpt>
      <trkpt lat="43.97585" lon="3.02948">
        <ele>686.1</ele>
        <time>2026-04-30T10:26:35.000Z</time>
      </trkpt>
      <trkpt lat="43.97585" lon="3.02947">
        <ele>686.1</ele>
        <time>2026-04-30T10:26:36.000Z</time>
      </trkpt>
      <trkpt lat="43.97585" lon="3.02945">
        <ele>686.2</ele>
        <time>2026-04-30T10:26:37.000Z</time>
      </trkpt>
      <trkpt lat="43.97586" lon="3.02943">
        <ele>686.7</ele>
        <time>2026-04-30T10:26:38.000Z</time>
      </trkpt>
      <trkpt lat="43.97586" lon="3.02942">
        <ele>687.1</ele>
        <time>2026-04-30T10:26:39.000Z</time>
      </trkpt>
      <trkpt lat="43.97587" lon="3.02941">
        <ele>687.5</ele>
        <time>2026-04-30T10:26:40.000Z</time>
      </trkpt>
      <trkpt lat="43.97588" lon="3.02939">
        <ele>687.9</ele>
        <time>2026-04-30T10:26:41.000Z</time>
      </trkpt>
      <trkpt lat="43.97588" lon="3.02937">
        <ele>687.8</ele>
        <time>2026-04-30T10:26:42.000Z</time>
      </trkpt>
      <trkpt lat="43.97588" lon="3.02936">
        <ele>688.1</ele>
        <time>2026-04-30T10:26:43.000Z</time>
      </trkpt>
      <trkpt lat="43.97589" lon="3.02934">
        <ele>688.4</ele>
        <time>2026-04-30T10:26:44.000Z</time>
      </trkpt>
      <trkpt lat="43.97589" lon="3.02933">
        <ele>688.7</ele>
        <time>2026-04-30T10:26:45.000Z</time>
      </trkpt>
      <trkpt lat="43.97589" lon="3.02932">
        <ele>688.3</ele>
        <time>2026-04-30T10:26:46.000Z</time>
      </trkpt>
      <trkpt lat="43.97589" lon="3.0293">
        <ele>688.1</ele>
        <time>2026-04-30T10:26:47.000Z</time>
      </trkpt>
      <trkpt lat="43.97589" lon="3.02929">
        <ele>687.7</ele>
        <time>2026-04-30T10:26:48.000Z</time>
      </trkpt>
      <trkpt lat="43.97589" lon="3.02927">
        <ele>687.5</ele>
        <time>2026-04-30T10:26:49.000Z</time>
      </trkpt>
      <trkpt lat="43.9759" lon="3.02926">
        <ele>687.3</ele>
        <time>2026-04-30T10:26:50.000Z</time>
      </trkpt>
      <trkpt lat="43.9759" lon="3.02924">
        <ele>687.2</ele>
        <time>2026-04-30T10:26:51.000Z</time>
      </trkpt>
      <trkpt lat="43.97589" lon="3.02922">
        <ele>687.1</ele>
        <time>2026-04-30T10:26:52.000Z</time>
      </trkpt>
      <trkpt lat="43.97589" lon="3.02921">
        <ele>687.1</ele>
        <time>2026-04-30T10:26:53.000Z</time>
      </trkpt>
      <trkpt lat="43.97589" lon="3.0292">
        <ele>687.2</ele>
        <time>2026-04-30T10:26:54.000Z</time>
      </trkpt>
      <trkpt lat="43.97589" lon="3.02919">
        <ele>686.8</ele>
        <time>2026-04-30T10:26:55.000Z</time>
      </trkpt>
      <trkpt lat="43.97588" lon="3.02918">
        <ele>686.7</ele>
        <time>2026-04-30T10:26:56.000Z</time>
      </trkpt>
      <trkpt lat="43.97587" lon="3.02916">
        <ele>686.5</ele>
        <time>2026-04-30T10:26:57.000Z</time>
      </trkpt>
      <trkpt lat="43.97587" lon="3.02914">
        <ele>687</ele>
        <time>2026-04-30T10:26:58.000Z</time>
      </trkpt>
      <trkpt lat="43.97586" lon="3.02913">
        <ele>687.6</ele>
        <time>2026-04-30T10:26:59.000Z</time>
      </trkpt>
      <trkpt lat="43.97587" lon="3.02912">
        <ele>687.5</ele>
        <time>2026-04-30T10:27:00.000Z</time>
      </trkpt>
      <trkpt lat="43.97586" lon="3.02911">
        <ele>687.7</ele>
        <time>2026-04-30T10:27:01.000Z</time>
      </trkpt>
      <trkpt lat="43.97586" lon="3.02909">
        <ele>687.7</ele>
        <time>2026-04-30T10:27:02.000Z</time>
      </trkpt>
      <trkpt lat="43.97585" lon="3.02907">
        <ele>688</ele>
        <time>2026-04-30T10:27:03.000Z</time>
      </trkpt>
      <trkpt lat="43.97584" lon="3.02906">
        <ele>688.4</ele>
        <time>2026-04-30T10:27:04.000Z</time>
      </trkpt>
      <trkpt lat="43.97584" lon="3.02904">
        <ele>688.7</ele>
        <time>2026-04-30T10:27:05.000Z</time>
      </trkpt>
      <trkpt lat="43.97583" lon="3.02903">
        <ele>688.7</ele>
        <time>2026-04-30T10:27:06.000Z</time>
      </trkpt>
      <trkpt lat="43.97583" lon="3.02902">
        <ele>688.7</ele>
        <time>2026-04-30T10:27:07.000Z</time>
      </trkpt>
      <trkpt lat="43.97582" lon="3.02902">
        <ele>688.6</ele>
        <time>2026-04-30T10:27:08.000Z</time>
      </trkpt>
      <trkpt lat="43.97581" lon="3.02901">
        <ele>688.4</ele>
        <time>2026-04-30T10:27:09.000Z</time>
      </trkpt>
      <trkpt lat="43.97581" lon="3.029">
        <ele>687.9</ele>
        <time>2026-04-30T10:27:10.000Z</time>
      </trkpt>
      <trkpt lat="43.97581" lon="3.02899">
        <ele>688.2</ele>
        <time>2026-04-30T10:27:11.000Z</time>
      </trkpt>
      <trkpt lat="43.97581" lon="3.02899">
        <ele>688.2</ele>
        <time>2026-04-30T10:27:12.000Z</time>
      </trkpt>
      <trkpt lat="43.9758" lon="3.02899">
        <ele>688.6</ele>
        <time>2026-04-30T10:27:13.000Z</time>
      </trkpt>
      <trkpt lat="43.9758" lon="3.02897">
        <ele>688.9</ele>
        <time>2026-04-30T10:27:14.000Z</time>
      </trkpt>
      <trkpt lat="43.97579" lon="3.02896">
        <ele>689.6</ele>
        <time>2026-04-30T10:27:15.000Z</time>
      </trkpt>
      <trkpt lat="43.97579" lon="3.02895">
        <ele>689.4</ele>
        <time>2026-04-30T10:27:16.000Z</time>
      </trkpt>
      <trkpt lat="43.97578" lon="3.02894">
        <ele>689.5</ele>
        <time>2026-04-30T10:27:17.000Z</time>
      </trkpt>
      <trkpt lat="43.97577" lon="3.02893">
        <ele>689.5</ele>
        <time>2026-04-30T10:27:18.000Z</time>
      </trkpt>
      <trkpt lat="43.97577" lon="3.02891">
        <ele>689.4</ele>
        <time>2026-04-30T10:27:19.000Z</time>
      </trkpt>
      <trkpt lat="43.97577" lon="3.0289">
        <ele>689.3</ele>
        <time>2026-04-30T10:27:20.000Z</time>
      </trkpt>
      <trkpt lat="43.97577" lon="3.02889">
        <ele>689.1</ele>
        <time>2026-04-30T10:27:21.000Z</time>
      </trkpt>
      <trkpt lat="43.97576" lon="3.02889">
        <ele>688.4</ele>
        <time>2026-04-30T10:27:22.000Z</time>
      </trkpt>
      <trkpt lat="43.97575" lon="3.02888">
        <ele>688.2</ele>
        <time>2026-04-30T10:27:23.000Z</time>
      </trkpt>
      <trkpt lat="43.97574" lon="3.02887">
        <ele>688.9</ele>
        <time>2026-04-30T10:27:24.000Z</time>
      </trkpt>
      <trkpt lat="43.97573" lon="3.02886">
        <ele>689</ele>
        <time>2026-04-30T10:27:25.000Z</time>
      </trkpt>
      <trkpt lat="43.97572" lon="3.02885">
        <ele>689.2</ele>
        <time>2026-04-30T10:27:26.000Z</time>
      </trkpt>
      <trkpt lat="43.97572" lon="3.02884">
        <ele>689.2</ele>
        <time>2026-04-30T10:27:27.000Z</time>
      </trkpt>
      <trkpt lat="43.97571" lon="3.02882">
        <ele>689.4</ele>
        <time>2026-04-30T10:27:28.000Z</time>
      </trkpt>
      <trkpt lat="43.9757" lon="3.02881">
        <ele>689.4</ele>
        <time>2026-04-30T10:27:29.000Z</time>
      </trkpt>
      <trkpt lat="43.97569" lon="3.02881">
        <ele>689.3</ele>
        <time>2026-04-30T10:27:30.000Z</time>
      </trkpt>
      <trkpt lat="43.97568" lon="3.0288">
        <ele>689</ele>
        <time>2026-04-30T10:27:31.000Z</time>
      </trkpt>
      <trkpt lat="43.97567" lon="3.0288">
        <ele>689.1</ele>
        <time>2026-04-30T10:27:32.000Z</time>
      </trkpt>
      <trkpt lat="43.97566" lon="3.02879">
        <ele>689.1</ele>
        <time>2026-04-30T10:27:33.000Z</time>
      </trkpt>
      <trkpt lat="43.97566" lon="3.02878">
        <ele>689.5</ele>
        <time>2026-04-30T10:27:34.000Z</time>
      </trkpt>
      <trkpt lat="43.97565" lon="3.02876">
        <ele>690.3</ele>
        <time>2026-04-30T10:27:35.000Z</time>
      </trkpt>
      <trkpt lat="43.97565" lon="3.02874">
        <ele>690.5</ele>
        <time>2026-04-30T10:27:36.000Z</time>
      </trkpt>
      <trkpt lat="43.97564" lon="3.02873">
        <ele>690.5</ele>
        <time>2026-04-30T10:27:37.000Z</time>
      </trkpt>
      <trkpt lat="43.97563" lon="3.02872">
        <ele>690.8</ele>
        <time>2026-04-30T10:27:38.000Z</time>
      </trkpt>
      <trkpt lat="43.97563" lon="3.0287">
        <ele>690.8</ele>
        <time>2026-04-30T10:27:39.000Z</time>
      </trkpt>
      <trkpt lat="43.97563" lon="3.02869">
        <ele>690.9</ele>
        <time>2026-04-30T10:27:40.000Z</time>
      </trkpt>
      <trkpt lat="43.97562" lon="3.02867">
        <ele>690.9</ele>
        <time>2026-04-30T10:27:41.000Z</time>
      </trkpt>
      <trkpt lat="43.97562" lon="3.02865">
        <ele>691</ele>
        <time>2026-04-30T10:27:42.000Z</time>
      </trkpt>
      <trkpt lat="43.97562" lon="3.02863">
        <ele>691</ele>
        <time>2026-04-30T10:27:43.000Z</time>
      </trkpt>
      <trkpt lat="43.97562" lon="3.02862">
        <ele>691.2</ele>
        <time>2026-04-30T10:27:44.000Z</time>
      </trkpt>
      <trkpt lat="43.97562" lon="3.0286">
        <ele>691.6</ele>
        <time>2026-04-30T10:27:45.000Z</time>
      </trkpt>
      <trkpt lat="43.97562" lon="3.02859">
        <ele>691.5</ele>
        <time>2026-04-30T10:27:46.000Z</time>
      </trkpt>
      <trkpt lat="43.97562" lon="3.02858">
        <ele>691.7</ele>
        <time>2026-04-30T10:27:47.000Z</time>
      </trkpt>
      <trkpt lat="43.97562" lon="3.02857">
        <ele>691.5</ele>
        <time>2026-04-30T10:27:48.000Z</time>
      </trkpt>
      <trkpt lat="43.97563" lon="3.02856">
        <ele>691.8</ele>
        <time>2026-04-30T10:27:49.000Z</time>
      </trkpt>
      <trkpt lat="43.97563" lon="3.02854">
        <ele>692.2</ele>
        <time>2026-04-30T10:27:50.000Z</time>
      </trkpt>
      <trkpt lat="43.97563" lon="3.02852">
        <ele>692.4</ele>
        <time>2026-04-30T10:27:51.000Z</time>
      </trkpt>
      <trkpt lat="43.97564" lon="3.02851">
        <ele>692.4</ele>
        <time>2026-04-30T10:27:52.000Z</time>
      </trkpt>
      <trkpt lat="43.97563" lon="3.02849">
        <ele>692.5</ele>
        <time>2026-04-30T10:27:53.000Z</time>
      </trkpt>
      <trkpt lat="43.97563" lon="3.02847">
        <ele>692.6</ele>
        <time>2026-04-30T10:27:54.000Z</time>
      </trkpt>
      <trkpt lat="43.97563" lon="3.02846">
        <ele>692.3</ele>
        <time>2026-04-30T10:27:55.000Z</time>
      </trkpt>
      <trkpt lat="43.97564" lon="3.02845">
        <ele>692.3</ele>
        <time>2026-04-30T10:27:56.000Z</time>
      </trkpt>
      <trkpt lat="43.97563" lon="3.02843">
        <ele>692</ele>
        <time>2026-04-30T10:27:57.000Z</time>
      </trkpt>
      <trkpt lat="43.97564" lon="3.02841">
        <ele>692.2</ele>
        <time>2026-04-30T10:27:58.000Z</time>
      </trkpt>
      <trkpt lat="43.97564" lon="3.0284">
        <ele>692.3</ele>
        <time>2026-04-30T10:27:59.000Z</time>
      </trkpt>
      <trkpt lat="43.97565" lon="3.02838">
        <ele>692.7</ele>
        <time>2026-04-30T10:28:00.000Z</time>
      </trkpt>
      <trkpt lat="43.97565" lon="3.02837">
        <ele>693.2</ele>
        <time>2026-04-30T10:28:01.000Z</time>
      </trkpt>
      <trkpt lat="43.97565" lon="3.02836">
        <ele>693.7</ele>
        <time>2026-04-30T10:28:02.000Z</time>
      </trkpt>
      <trkpt lat="43.97565" lon="3.02834">
        <ele>693.8</ele>
        <time>2026-04-30T10:28:03.000Z</time>
      </trkpt>
      <trkpt lat="43.97564" lon="3.02832">
        <ele>693.8</ele>
        <time>2026-04-30T10:28:04.000Z</time>
      </trkpt>
      <trkpt lat="43.97565" lon="3.02831">
        <ele>694</ele>
        <time>2026-04-30T10:28:05.000Z</time>
      </trkpt>
      <trkpt lat="43.97565" lon="3.0283">
        <ele>694.1</ele>
        <time>2026-04-30T10:28:06.000Z</time>
      </trkpt>
      <trkpt lat="43.97565" lon="3.02829">
        <ele>694.2</ele>
        <time>2026-04-30T10:28:07.000Z</time>
      </trkpt>
      <trkpt lat="43.97565" lon="3.02827">
        <ele>694.5</ele>
        <time>2026-04-30T10:28:08.000Z</time>
      </trkpt>
      <trkpt lat="43.97566" lon="3.02825">
        <ele>694.6</ele>
        <time>2026-04-30T10:28:09.000Z</time>
      </trkpt>
      <trkpt lat="43.97567" lon="3.02822">
        <ele>694.5</ele>
        <time>2026-04-30T10:28:10.000Z</time>
      </trkpt>
      <trkpt lat="43.97568" lon="3.02821">
        <ele>694.5</ele>
        <time>2026-04-30T10:28:11.000Z</time>
      </trkpt>
      <trkpt lat="43.97569" lon="3.0282">
        <ele>694.6</ele>
        <time>2026-04-30T10:28:12.000Z</time>
      </trkpt>
      <trkpt lat="43.97569" lon="3.02819">
        <ele>694.6</ele>
        <time>2026-04-30T10:28:13.000Z</time>
      </trkpt>
      <trkpt lat="43.97569" lon="3.02817">
        <ele>694.7</ele>
        <time>2026-04-30T10:28:14.000Z</time>
      </trkpt>
      <trkpt lat="43.97569" lon="3.02816">
        <ele>694.5</ele>
        <time>2026-04-30T10:28:15.000Z</time>
      </trkpt>
      <trkpt lat="43.97569" lon="3.02814">
        <ele>694.4</ele>
        <time>2026-04-30T10:28:16.000Z</time>
      </trkpt>
      <trkpt lat="43.97569" lon="3.02813">
        <ele>694.3</ele>
        <time>2026-04-30T10:28:17.000Z</time>
      </trkpt>
      <trkpt lat="43.9757" lon="3.02812">
        <ele>694.3</ele>
        <time>2026-04-30T10:28:18.000Z</time>
      </trkpt>
      <trkpt lat="43.9757" lon="3.02811">
        <ele>694.4</ele>
        <time>2026-04-30T10:28:19.000Z</time>
      </trkpt>
      <trkpt lat="43.9757" lon="3.0281">
        <ele>694.5</ele>
        <time>2026-04-30T10:28:20.000Z</time>
      </trkpt>
      <trkpt lat="43.9757" lon="3.02809">
        <ele>694.7</ele>
        <time>2026-04-30T10:28:21.000Z</time>
      </trkpt>
      <trkpt lat="43.9757" lon="3.02807">
        <ele>694.7</ele>
        <time>2026-04-30T10:28:22.000Z</time>
      </trkpt>
      <trkpt lat="43.9757" lon="3.02806">
        <ele>694.7</ele>
        <time>2026-04-30T10:28:23.000Z</time>
      </trkpt>
      <trkpt lat="43.9757" lon="3.02804">
        <ele>694.5</ele>
        <time>2026-04-30T10:28:24.000Z</time>
      </trkpt>
      <trkpt lat="43.97571" lon="3.02803">
        <ele>694.7</ele>
        <time>2026-04-30T10:28:25.000Z</time>
      </trkpt>
      <trkpt lat="43.97571" lon="3.02801">
        <ele>695</ele>
        <time>2026-04-30T10:28:26.000Z</time>
      </trkpt>
      <trkpt lat="43.97572" lon="3.028">
        <ele>695.3</ele>
        <time>2026-04-30T10:28:27.000Z</time>
      </trkpt>
      <trkpt lat="43.97573" lon="3.02798">
        <ele>695.7</ele>
        <time>2026-04-30T10:28:28.000Z</time>
      </trkpt>
      <trkpt lat="43.97574" lon="3.02797">
        <ele>696.4</ele>
        <time>2026-04-30T10:28:29.000Z</time>
      </trkpt>
      <trkpt lat="43.97574" lon="3.02795">
        <ele>696.7</ele>
        <time>2026-04-30T10:28:30.000Z</time>
      </trkpt>
      <trkpt lat="43.97575" lon="3.02794">
        <ele>696.6</ele>
        <time>2026-04-30T10:28:31.000Z</time>
      </trkpt>
      <trkpt lat="43.97576" lon="3.02792">
        <ele>696.4</ele>
        <time>2026-04-30T10:28:32.000Z</time>
      </trkpt>
      <trkpt lat="43.97577" lon="3.02791">
        <ele>696</ele>
        <time>2026-04-30T10:28:33.000Z</time>
      </trkpt>
      <trkpt lat="43.97577" lon="3.0279">
        <ele>696</ele>
        <time>2026-04-30T10:28:34.000Z</time>
      </trkpt>
      <trkpt lat="43.97577" lon="3.0279">
        <ele>696.1</ele>
        <time>2026-04-30T10:28:35.000Z</time>
      </trkpt>
      <trkpt lat="43.97577" lon="3.02788">
        <ele>695.9</ele>
        <time>2026-04-30T10:28:36.000Z</time>
      </trkpt>
      <trkpt lat="43.97577" lon="3.02787">
        <ele>696.2</ele>
        <time>2026-04-30T10:28:37.000Z</time>
      </trkpt>
      <trkpt lat="43.97578" lon="3.02786">
        <ele>696.3</ele>
        <time>2026-04-30T10:28:38.000Z</time>
      </trkpt>
      <trkpt lat="43.97578" lon="3.02785">
        <ele>696.2</ele>
        <time>2026-04-30T10:28:39.000Z</time>
      </trkpt>
      <trkpt lat="43.97579" lon="3.02783">
        <ele>696.2</ele>
        <time>2026-04-30T10:28:40.000Z</time>
      </trkpt>
      <trkpt lat="43.97579" lon="3.02782">
        <ele>696.4</ele>
        <time>2026-04-30T10:28:41.000Z</time>
      </trkpt>
      <trkpt lat="43.97578" lon="3.02781">
        <ele>696.6</ele>
        <time>2026-04-30T10:28:42.000Z</time>
      </trkpt>
      <trkpt lat="43.97578" lon="3.02779">
        <ele>696.4</ele>
        <time>2026-04-30T10:28:43.000Z</time>
      </trkpt>
      <trkpt lat="43.97578" lon="3.02778">
        <ele>696.3</ele>
        <time>2026-04-30T10:28:44.000Z</time>
      </trkpt>
      <trkpt lat="43.97578" lon="3.02776">
        <ele>696</ele>
        <time>2026-04-30T10:28:45.000Z</time>
      </trkpt>
      <trkpt lat="43.97578" lon="3.02774">
        <ele>696</ele>
        <time>2026-04-30T10:28:46.000Z</time>
      </trkpt>
      <trkpt lat="43.97578" lon="3.02772">
        <ele>696.3</ele>
        <time>2026-04-30T10:28:47.000Z</time>
      </trkpt>
      <trkpt lat="43.97578" lon="3.02771">
        <ele>696.5</ele>
        <time>2026-04-30T10:28:48.000Z</time>
      </trkpt>
      <trkpt lat="43.97578" lon="3.0277">
        <ele>696.9</ele>
        <time>2026-04-30T10:28:49.000Z</time>
      </trkpt>
      <trkpt lat="43.97577" lon="3.02769">
        <ele>697.4</ele>
        <time>2026-04-30T10:28:50.000Z</time>
      </trkpt>
      <trkpt lat="43.97577" lon="3.02767">
        <ele>698</ele>
        <time>2026-04-30T10:28:51.000Z</time>
      </trkpt>
      <trkpt lat="43.97577" lon="3.02765">
        <ele>698.4</ele>
        <time>2026-04-30T10:28:52.000Z</time>
      </trkpt>
      <trkpt lat="43.97577" lon="3.02764">
        <ele>698.6</ele>
        <time>2026-04-30T10:28:53.000Z</time>
      </trkpt>
      <trkpt lat="43.97577" lon="3.02763">
        <ele>698.8</ele>
        <time>2026-04-30T10:28:54.000Z</time>
      </trkpt>
      <trkpt lat="43.97577" lon="3.02762">
        <ele>699.4</ele>
        <time>2026-04-30T10:28:55.000Z</time>
      </trkpt>
      <trkpt lat="43.97577" lon="3.0276">
        <ele>699.7</ele>
        <time>2026-04-30T10:28:56.000Z</time>
      </trkpt>
      <trkpt lat="43.97577" lon="3.02759">
        <ele>699.9</ele>
        <time>2026-04-30T10:28:57.000Z</time>
      </trkpt>
      <trkpt lat="43.97577" lon="3.02757">
        <ele>699.6</ele>
        <time>2026-04-30T10:28:58.000Z</time>
      </trkpt>
      <trkpt lat="43.97577" lon="3.02756">
        <ele>699.7</ele>
        <time>2026-04-30T10:28:59.000Z</time>
      </trkpt>
      <trkpt lat="43.97577" lon="3.02755">
        <ele>699.5</ele>
        <time>2026-04-30T10:29:00.000Z</time>
      </trkpt>
      <trkpt lat="43.97577" lon="3.02754">
        <ele>699.2</ele>
        <time>2026-04-30T10:29:01.000Z</time>
      </trkpt>
      <trkpt lat="43.97577" lon="3.02752">
        <ele>699</ele>
        <time>2026-04-30T10:29:02.000Z</time>
      </trkpt>
      <trkpt lat="43.97576" lon="3.02751">
        <ele>698.8</ele>
        <time>2026-04-30T10:29:03.000Z</time>
      </trkpt>
      <trkpt lat="43.97575" lon="3.02749">
        <ele>698.9</ele>
        <time>2026-04-30T10:29:04.000Z</time>
      </trkpt>
      <trkpt lat="43.97575" lon="3.02748">
        <ele>699.1</ele>
        <time>2026-04-30T10:29:05.000Z</time>
      </trkpt>
      <trkpt lat="43.97574" lon="3.02747">
        <ele>699.1</ele>
        <time>2026-04-30T10:29:06.000Z</time>
      </trkpt>
      <trkpt lat="43.97574" lon="3.02746">
        <ele>699.2</ele>
        <time>2026-04-30T10:29:07.000Z</time>
      </trkpt>
      <trkpt lat="43.97573" lon="3.02744">
        <ele>699.3</ele>
        <time>2026-04-30T10:29:08.000Z</time>
      </trkpt>
      <trkpt lat="43.97573" lon="3.02743">
        <ele>699.4</ele>
        <time>2026-04-30T10:29:09.000Z</time>
      </trkpt>
      <trkpt lat="43.97573" lon="3.02742">
        <ele>699.6</ele>
        <time>2026-04-30T10:29:10.000Z</time>
      </trkpt>
      <trkpt lat="43.97573" lon="3.0274">
        <ele>699.6</ele>
        <time>2026-04-30T10:29:11.000Z</time>
      </trkpt>
      <trkpt lat="43.97572" lon="3.02738">
        <ele>699.8</ele>
        <time>2026-04-30T10:29:12.000Z</time>
      </trkpt>
      <trkpt lat="43.97572" lon="3.02737">
        <ele>700.1</ele>
        <time>2026-04-30T10:29:13.000Z</time>
      </trkpt>
      <trkpt lat="43.97571" lon="3.02736">
        <ele>700</ele>
        <time>2026-04-30T10:29:14.000Z</time>
      </trkpt>
      <trkpt lat="43.97571" lon="3.02734">
        <ele>699.9</ele>
        <time>2026-04-30T10:29:15.000Z</time>
      </trkpt>
      <trkpt lat="43.9757" lon="3.02733">
        <ele>699.7</ele>
        <time>2026-04-30T10:29:16.000Z</time>
      </trkpt>
      <trkpt lat="43.9757" lon="3.02732">
        <ele>699.6</ele>
        <time>2026-04-30T10:29:17.000Z</time>
      </trkpt>
      <trkpt lat="43.97569" lon="3.0273">
        <ele>699.6</ele>
        <time>2026-04-30T10:29:18.000Z</time>
      </trkpt>
      <trkpt lat="43.97569" lon="3.02729">
        <ele>699.7</ele>
        <time>2026-04-30T10:29:19.000Z</time>
      </trkpt>
      <trkpt lat="43.97568" lon="3.02728">
        <ele>699.9</ele>
        <time>2026-04-30T10:29:20.000Z</time>
      </trkpt>
      <trkpt lat="43.97568" lon="3.02727">
        <ele>700</ele>
        <time>2026-04-30T10:29:21.000Z</time>
      </trkpt>
      <trkpt lat="43.97568" lon="3.02726">
        <ele>700.2</ele>
        <time>2026-04-30T10:29:22.000Z</time>
      </trkpt>
      <trkpt lat="43.97568" lon="3.02724">
        <ele>700.2</ele>
        <time>2026-04-30T10:29:23.000Z</time>
      </trkpt>
      <trkpt lat="43.97567" lon="3.02722">
        <ele>700.8</ele>
        <time>2026-04-30T10:29:24.000Z</time>
      </trkpt>
      <trkpt lat="43.97566" lon="3.02721">
        <ele>700.9</ele>
        <time>2026-04-30T10:29:25.000Z</time>
      </trkpt>
      <trkpt lat="43.97566" lon="3.02719">
        <ele>701.1</ele>
        <time>2026-04-30T10:29:26.000Z</time>
      </trkpt>
      <trkpt lat="43.97566" lon="3.02717">
        <ele>701.4</ele>
        <time>2026-04-30T10:29:27.000Z</time>
      </trkpt>
      <trkpt lat="43.97565" lon="3.02715">
        <ele>701.8</ele>
        <time>2026-04-30T10:29:28.000Z</time>
      </trkpt>
      <trkpt lat="43.97565" lon="3.02714">
        <ele>702</ele>
        <time>2026-04-30T10:29:29.000Z</time>
      </trkpt>
      <trkpt lat="43.97565" lon="3.02712">
        <ele>702.3</ele>
        <time>2026-04-30T10:29:30.000Z</time>
      </trkpt>
      <trkpt lat="43.97565" lon="3.02711">
        <ele>702.6</ele>
        <time>2026-04-30T10:29:31.000Z</time>
      </trkpt>
      <trkpt lat="43.97565" lon="3.0271">
        <ele>702.8</ele>
        <time>2026-04-30T10:29:32.000Z</time>
      </trkpt>
      <trkpt lat="43.97565" lon="3.02708">
        <ele>702.9</ele>
        <time>2026-04-30T10:29:33.000Z</time>
      </trkpt>
      <trkpt lat="43.97565" lon="3.02706">
        <ele>703.1</ele>
        <time>2026-04-30T10:29:34.000Z</time>
      </trkpt>
      <trkpt lat="43.97564" lon="3.02705">
        <ele>703.2</ele>
        <time>2026-04-30T10:29:35.000Z</time>
      </trkpt>
      <trkpt lat="43.97563" lon="3.02703">
        <ele>703.4</ele>
        <time>2026-04-30T10:29:36.000Z</time>
      </trkpt>
      <trkpt lat="43.97563" lon="3.02701">
        <ele>703.2</ele>
        <time>2026-04-30T10:29:37.000Z</time>
      </trkpt>
      <trkpt lat="43.97563" lon="3.027">
        <ele>703.3</ele>
        <time>2026-04-30T10:29:38.000Z</time>
      </trkpt>
      <trkpt lat="43.97563" lon="3.02698">
        <ele>703.8</ele>
        <time>2026-04-30T10:29:39.000Z</time>
      </trkpt>
      <trkpt lat="43.97563" lon="3.02697">
        <ele>703.7</ele>
        <time>2026-04-30T10:29:40.000Z</time>
      </trkpt>
      <trkpt lat="43.97563" lon="3.02696">
        <ele>703.4</ele>
        <time>2026-04-30T10:29:41.000Z</time>
      </trkpt>
      <trkpt lat="43.97562" lon="3.02694">
        <ele>703.6</ele>
        <time>2026-04-30T10:29:42.000Z</time>
      </trkpt>
      <trkpt lat="43.97562" lon="3.02693">
        <ele>703.9</ele>
        <time>2026-04-30T10:29:43.000Z</time>
      </trkpt>
      <trkpt lat="43.97563" lon="3.02692">
        <ele>703.7</ele>
        <time>2026-04-30T10:29:44.000Z</time>
      </trkpt>
      <trkpt lat="43.97563" lon="3.0269">
        <ele>703.9</ele>
        <time>2026-04-30T10:29:45.000Z</time>
      </trkpt>
      <trkpt lat="43.97564" lon="3.02689">
        <ele>703.7</ele>
        <time>2026-04-30T10:29:46.000Z</time>
      </trkpt>
      <trkpt lat="43.97564" lon="3.02687">
        <ele>703.9</ele>
        <time>2026-04-30T10:29:47.000Z</time>
      </trkpt>
      <trkpt lat="43.97563" lon="3.02685">
        <ele>704.1</ele>
        <time>2026-04-30T10:29:48.000Z</time>
      </trkpt>
      <trkpt lat="43.97563" lon="3.02683">
        <ele>704.1</ele>
        <time>2026-04-30T10:29:49.000Z</time>
      </trkpt>
      <trkpt lat="43.97562" lon="3.02682">
        <ele>703.9</ele>
        <time>2026-04-30T10:29:50.000Z</time>
      </trkpt>
      <trkpt lat="43.97561" lon="3.02681">
        <ele>704</ele>
        <time>2026-04-30T10:29:51.000Z</time>
      </trkpt>
      <trkpt lat="43.97561" lon="3.02679">
        <ele>703.8</ele>
        <time>2026-04-30T10:29:52.000Z</time>
      </trkpt>
      <trkpt lat="43.97561" lon="3.02678">
        <ele>703.7</ele>
        <time>2026-04-30T10:29:53.000Z</time>
      </trkpt>
      <trkpt lat="43.9756" lon="3.02677">
        <ele>704</ele>
        <time>2026-04-30T10:29:54.000Z</time>
      </trkpt>
      <trkpt lat="43.97561" lon="3.02675">
        <ele>703.7</ele>
        <time>2026-04-30T10:29:55.000Z</time>
      </trkpt>
      <trkpt lat="43.97561" lon="3.02674">
        <ele>703.6</ele>
        <time>2026-04-30T10:29:56.000Z</time>
      </trkpt>
      <trkpt lat="43.97562" lon="3.02672">
        <ele>703.5</ele>
        <time>2026-04-30T10:29:57.000Z</time>
      </trkpt>
      <trkpt lat="43.97562" lon="3.02672">
        <ele>703.7</ele>
        <time>2026-04-30T10:29:58.000Z</time>
      </trkpt>
      <trkpt lat="43.97561" lon="3.02671">
        <ele>703.7</ele>
        <time>2026-04-30T10:29:59.000Z</time>
      </trkpt>
      <trkpt lat="43.97561" lon="3.02669">
        <ele>703.8</ele>
        <time>2026-04-30T10:30:00.000Z</time>
      </trkpt>
      <trkpt lat="43.97562" lon="3.02668">
        <ele>703.7</ele>
        <time>2026-04-30T10:30:01.000Z</time>
      </trkpt>
      <trkpt lat="43.97562" lon="3.02667">
        <ele>703.6</ele>
        <time>2026-04-30T10:30:02.000Z</time>
      </trkpt>
      <trkpt lat="43.97563" lon="3.02667">
        <ele>703.4</ele>
        <time>2026-04-30T10:30:03.000Z</time>
      </trkpt>
      <trkpt lat="43.97565" lon="3.02667">
        <ele>703.2</ele>
        <time>2026-04-30T10:30:04.000Z</time>
      </trkpt>
      <trkpt lat="43.97567" lon="3.02667">
        <ele>703.2</ele>
        <time>2026-04-30T10:30:05.000Z</time>
      </trkpt>
      <trkpt lat="43.97567" lon="3.02666">
        <ele>703.3</ele>
        <time>2026-04-30T10:30:06.000Z</time>
      </trkpt>
      <trkpt lat="43.97568" lon="3.02666">
        <ele>703.1</ele>
        <time>2026-04-30T10:30:07.000Z</time>
      </trkpt>
      <trkpt lat="43.9757" lon="3.02666">
        <ele>703</ele>
        <time>2026-04-30T10:30:08.000Z</time>
      </trkpt>
      <trkpt lat="43.97571" lon="3.02666">
        <ele>702.6</ele>
        <time>2026-04-30T10:30:09.000Z</time>
      </trkpt>
      <trkpt lat="43.97571" lon="3.02666">
        <ele>702.2</ele>
        <time>2026-04-30T10:30:10.000Z</time>
      </trkpt>
      <trkpt lat="43.97572" lon="3.02666">
        <ele>701.7</ele>
        <time>2026-04-30T10:30:11.000Z</time>
      </trkpt>
      <trkpt lat="43.97573" lon="3.02668">
        <ele>701.7</ele>
        <time>2026-04-30T10:30:12.000Z</time>
      </trkpt>
      <trkpt lat="43.97574" lon="3.02669">
        <ele>702.2</ele>
        <time>2026-04-30T10:30:13.000Z</time>
      </trkpt>
      <trkpt lat="43.97574" lon="3.02669">
        <ele>702.2</ele>
        <time>2026-04-30T10:30:14.000Z</time>
      </trkpt>
      <trkpt lat="43.97574" lon="3.0267">
        <ele>702.1</ele>
        <time>2026-04-30T10:30:15.000Z</time>
      </trkpt>
      <trkpt lat="43.97574" lon="3.0267">
        <ele>701.9</ele>
        <time>2026-04-30T10:30:16.000Z</time>
      </trkpt>
      <trkpt lat="43.97575" lon="3.02671">
        <ele>701.9</ele>
        <time>2026-04-30T10:30:17.000Z</time>
      </trkpt>
      <trkpt lat="43.97576" lon="3.02672">
        <ele>701.8</ele>
        <time>2026-04-30T10:30:18.000Z</time>
      </trkpt>
      <trkpt lat="43.97576" lon="3.02673">
        <ele>702</ele>
        <time>2026-04-30T10:30:19.000Z</time>
      </trkpt>
      <trkpt lat="43.97577" lon="3.02674">
        <ele>702.3</ele>
        <time>2026-04-30T10:30:20.000Z</time>
      </trkpt>
      <trkpt lat="43.97577" lon="3.02674">
        <ele>702.3</ele>
        <time>2026-04-30T10:30:21.000Z</time>
      </trkpt>
      <trkpt lat="43.97578" lon="3.02675">
        <ele>702.4</ele>
        <time>2026-04-30T10:30:22.000Z</time>
      </trkpt>
      <trkpt lat="43.97578" lon="3.02676">
        <ele>702.4</ele>
        <time>2026-04-30T10:30:23.000Z</time>
      </trkpt>
      <trkpt lat="43.97578" lon="3.02678">
        <ele>702.6</ele>
        <time>2026-04-30T10:30:24.000Z</time>
      </trkpt>
      <trkpt lat="43.97579" lon="3.02679">
        <ele>702.7</ele>
        <time>2026-04-30T10:30:25.000Z</time>
      </trkpt>
      <trkpt lat="43.97579" lon="3.02681">
        <ele>702.8</ele>
        <time>2026-04-30T10:30:26.000Z</time>
      </trkpt>
      <trkpt lat="43.9758" lon="3.02683">
        <ele>702.8</ele>
        <time>2026-04-30T10:30:27.000Z</time>
      </trkpt>
      <trkpt lat="43.9758" lon="3.02684">
        <ele>702.9</ele>
        <time>2026-04-30T10:30:28.000Z</time>
      </trkpt>
      <trkpt lat="43.97581" lon="3.02686">
        <ele>703.1</ele>
        <time>2026-04-30T10:30:29.000Z</time>
      </trkpt>
      <trkpt lat="43.97581" lon="3.02687">
        <ele>703.4</ele>
        <time>2026-04-30T10:30:30.000Z</time>
      </trkpt>
      <trkpt lat="43.97582" lon="3.02688">
        <ele>703.6</ele>
        <time>2026-04-30T10:30:31.000Z</time>
      </trkpt>
      <trkpt lat="43.97582" lon="3.0269">
        <ele>704.1</ele>
        <time>2026-04-30T10:30:32.000Z</time>
      </trkpt>
      <trkpt lat="43.97583" lon="3.02691">
        <ele>704.2</ele>
        <time>2026-04-30T10:30:33.000Z</time>
      </trkpt>
      <trkpt lat="43.97583" lon="3.02692">
        <ele>704.3</ele>
        <time>2026-04-30T10:30:34.000Z</time>
      </trkpt>
      <trkpt lat="43.97584" lon="3.02694">
        <ele>704.4</ele>
        <time>2026-04-30T10:30:35.000Z</time>
      </trkpt>
      <trkpt lat="43.97585" lon="3.02695">
        <ele>704.3</ele>
        <time>2026-04-30T10:30:36.000Z</time>
      </trkpt>
      <trkpt lat="43.97586" lon="3.02697">
        <ele>703.9</ele>
        <time>2026-04-30T10:30:37.999Z</time>
      </trkpt>
      <trkpt lat="43.97586" lon="3.02698">
        <ele>703.9</ele>
        <time>2026-04-30T10:30:38.999Z</time>
      </trkpt>
      <trkpt lat="43.97587" lon="3.027">
        <ele>704</ele>
        <time>2026-04-30T10:30:39.999Z</time>
      </trkpt>
      <trkpt lat="43.97587" lon="3.02701">
        <ele>704.1</ele>
        <time>2026-04-30T10:30:40.999Z</time>
      </trkpt>
      <trkpt lat="43.97588" lon="3.02702">
        <ele>704.4</ele>
        <time>2026-04-30T10:30:41.999Z</time>
      </trkpt>
      <trkpt lat="43.97589" lon="3.02704">
        <ele>704.6</ele>
        <time>2026-04-30T10:30:42.999Z</time>
      </trkpt>
      <trkpt lat="43.9759" lon="3.02705">
        <ele>704.9</ele>
        <time>2026-04-30T10:30:43.999Z</time>
      </trkpt>
      <trkpt lat="43.97591" lon="3.02706">
        <ele>705.1</ele>
        <time>2026-04-30T10:30:44.999Z</time>
      </trkpt>
      <trkpt lat="43.97592" lon="3.02707">
        <ele>704.9</ele>
        <time>2026-04-30T10:30:45.999Z</time>
      </trkpt>
      <trkpt lat="43.97592" lon="3.02708">
        <ele>705</ele>
        <time>2026-04-30T10:30:46.999Z</time>
      </trkpt>
      <trkpt lat="43.97593" lon="3.02709">
        <ele>705.1</ele>
        <time>2026-04-30T10:30:47.999Z</time>
      </trkpt>
      <trkpt lat="43.97594" lon="3.0271">
        <ele>705.2</ele>
        <time>2026-04-30T10:30:48.999Z</time>
      </trkpt>
      <trkpt lat="43.97595" lon="3.02711">
        <ele>705.3</ele>
        <time>2026-04-30T10:30:49.999Z</time>
      </trkpt>
      <trkpt lat="43.97596" lon="3.02712">
        <ele>705.3</ele>
        <time>2026-04-30T10:30:50.999Z</time>
      </trkpt>
      <trkpt lat="43.97597" lon="3.02712">
        <ele>705.5</ele>
        <time>2026-04-30T10:30:51.999Z</time>
      </trkpt>
      <trkpt lat="43.97598" lon="3.02713">
        <ele>705.8</ele>
        <time>2026-04-30T10:30:52.999Z</time>
      </trkpt>
      <trkpt lat="43.97598" lon="3.02715">
        <ele>706.3</ele>
        <time>2026-04-30T10:30:53.999Z</time>
      </trkpt>
      <trkpt lat="43.976" lon="3.02716">
        <ele>706.6</ele>
        <time>2026-04-30T10:30:54.999Z</time>
      </trkpt>
      <trkpt lat="43.976" lon="3.02716">
        <ele>706.9</ele>
        <time>2026-04-30T10:30:55.999Z</time>
      </trkpt>
      <trkpt lat="43.97601" lon="3.02717">
        <ele>707.1</ele>
        <time>2026-04-30T10:30:56.999Z</time>
      </trkpt>
      <trkpt lat="43.97601" lon="3.02718">
        <ele>707.1</ele>
        <time>2026-04-30T10:30:57.999Z</time>
      </trkpt>
      <trkpt lat="43.97602" lon="3.02718">
        <ele>707.1</ele>
        <time>2026-04-30T10:30:58.999Z</time>
      </trkpt>
      <trkpt lat="43.97604" lon="3.0272">
        <ele>707.3</ele>
        <time>2026-04-30T10:30:59.999Z</time>
      </trkpt>
      <trkpt lat="43.97604" lon="3.0272">
        <ele>707.4</ele>
        <time>2026-04-30T10:31:00.999Z</time>
      </trkpt>
      <trkpt lat="43.97605" lon="3.02721">
        <ele>707.5</ele>
        <time>2026-04-30T10:31:01.999Z</time>
      </trkpt>
      <trkpt lat="43.97606" lon="3.02722">
        <ele>707.6</ele>
        <time>2026-04-30T10:31:02.999Z</time>
      </trkpt>
      <trkpt lat="43.97607" lon="3.02723">
        <ele>707.9</ele>
        <time>2026-04-30T10:31:03.999Z</time>
      </trkpt>
      <trkpt lat="43.97608" lon="3.02723">
        <ele>708</ele>
        <time>2026-04-30T10:31:04.999Z</time>
      </trkpt>
      <trkpt lat="43.97609" lon="3.02724">
        <ele>708</ele>
        <time>2026-04-30T10:31:05.999Z</time>
      </trkpt>
      <trkpt lat="43.97609" lon="3.02725">
        <ele>707.9</ele>
        <time>2026-04-30T10:31:06.999Z</time>
      </trkpt>
      <trkpt lat="43.9761" lon="3.02726">
        <ele>708.3</ele>
        <time>2026-04-30T10:31:07.999Z</time>
      </trkpt>
      <trkpt lat="43.97611" lon="3.02727">
        <ele>708.2</ele>
        <time>2026-04-30T10:31:08.999Z</time>
      </trkpt>
      <trkpt lat="43.97612" lon="3.02727">
        <ele>708</ele>
        <time>2026-04-30T10:31:09.999Z</time>
      </trkpt>
      <trkpt lat="43.97613" lon="3.02728">
        <ele>707.8</ele>
        <time>2026-04-30T10:31:10.999Z</time>
      </trkpt>
      <trkpt lat="43.97613" lon="3.02729">
        <ele>708.1</ele>
        <time>2026-04-30T10:31:11.999Z</time>
      </trkpt>
      <trkpt lat="43.97614" lon="3.0273">
        <ele>708.4</ele>
        <time>2026-04-30T10:31:12.999Z</time>
      </trkpt>
      <trkpt lat="43.97614" lon="3.02731">
        <ele>708.3</ele>
        <time>2026-04-30T10:31:13.999Z</time>
      </trkpt>
      <trkpt lat="43.97615" lon="3.02731">
        <ele>708.1</ele>
        <time>2026-04-30T10:31:14.999Z</time>
      </trkpt>
      <trkpt lat="43.97615" lon="3.02732">
        <ele>708.2</ele>
        <time>2026-04-30T10:31:15.999Z</time>
      </trkpt>
      <trkpt lat="43.97616" lon="3.02734">
        <ele>708.4</ele>
        <time>2026-04-30T10:31:16.999Z</time>
      </trkpt>
      <trkpt lat="43.97617" lon="3.02735">
        <ele>708.7</ele>
        <time>2026-04-30T10:31:17.999Z</time>
      </trkpt>
      <trkpt lat="43.97618" lon="3.02736">
        <ele>708.7</ele>
        <time>2026-04-30T10:31:18.999Z</time>
      </trkpt>
      <trkpt lat="43.97618" lon="3.02737">
        <ele>708.7</ele>
        <time>2026-04-30T10:31:19.999Z</time>
      </trkpt>
      <trkpt lat="43.97619" lon="3.02738">
        <ele>708.8</ele>
        <time>2026-04-30T10:31:20.999Z</time>
      </trkpt>
      <trkpt lat="43.9762" lon="3.02739">
        <ele>708.8</ele>
        <time>2026-04-30T10:31:21.999Z</time>
      </trkpt>
      <trkpt lat="43.97621" lon="3.0274">
        <ele>709</ele>
        <time>2026-04-30T10:31:22.999Z</time>
      </trkpt>
      <trkpt lat="43.97622" lon="3.0274">
        <ele>709</ele>
        <time>2026-04-30T10:31:23.999Z</time>
      </trkpt>
      <trkpt lat="43.97622" lon="3.02742">
        <ele>708.8</ele>
        <time>2026-04-30T10:31:24.999Z</time>
      </trkpt>
      <trkpt lat="43.97623" lon="3.02743">
        <ele>709</ele>
        <time>2026-04-30T10:31:25.999Z</time>
      </trkpt>
      <trkpt lat="43.97624" lon="3.02744">
        <ele>709.2</ele>
        <time>2026-04-30T10:31:26.999Z</time>
      </trkpt>
      <trkpt lat="43.97625" lon="3.02745">
        <ele>709.5</ele>
        <time>2026-04-30T10:31:27.999Z</time>
      </trkpt>
      <trkpt lat="43.97626" lon="3.02746">
        <ele>709.7</ele>
        <time>2026-04-30T10:31:28.999Z</time>
      </trkpt>
      <trkpt lat="43.97627" lon="3.02746">
        <ele>710.2</ele>
        <time>2026-04-30T10:31:29.999Z</time>
      </trkpt>
      <trkpt lat="43.97628" lon="3.02744">
        <ele>710.4</ele>
        <time>2026-04-30T10:31:30.999Z</time>
      </trkpt>
      <trkpt lat="43.97628" lon="3.02742">
        <ele>710.5</ele>
        <time>2026-04-30T10:31:31.999Z</time>
      </trkpt>
      <trkpt lat="43.97628" lon="3.02741">
        <ele>710.5</ele>
        <time>2026-04-30T10:31:32.999Z</time>
      </trkpt>
      <trkpt lat="43.97628" lon="3.02739">
        <ele>710.7</ele>
        <time>2026-04-30T10:31:33.999Z</time>
      </trkpt>
      <trkpt lat="43.97628" lon="3.02738">
        <ele>710.9</ele>
        <time>2026-04-30T10:31:34.999Z</time>
      </trkpt>
      <trkpt lat="43.97628" lon="3.02736">
        <ele>711.2</ele>
        <time>2026-04-30T10:31:35.999Z</time>
      </trkpt>
      <trkpt lat="43.97627" lon="3.02734">
        <ele>711.3</ele>
        <time>2026-04-30T10:31:36.999Z</time>
      </trkpt>
      <trkpt lat="43.97627" lon="3.02733">
        <ele>711.5</ele>
        <time>2026-04-30T10:31:37.999Z</time>
      </trkpt>
      <trkpt lat="43.97626" lon="3.02733">
        <ele>711.8</ele>
        <time>2026-04-30T10:31:38.999Z</time>
      </trkpt>
      <trkpt lat="43.97627" lon="3.02734">
        <ele>711.7</ele>
        <time>2026-04-30T10:31:39.999Z</time>
      </trkpt>
      <trkpt lat="43.97628" lon="3.02734">
        <ele>711.4</ele>
        <time>2026-04-30T10:31:40.999Z</time>
      </trkpt>
      <trkpt lat="43.97628" lon="3.02734">
        <ele>711</ele>
        <time>2026-04-30T10:31:41.999Z</time>
      </trkpt>
      <trkpt lat="43.97628" lon="3.02734">
        <ele>711</ele>
        <time>2026-04-30T10:31:42.999Z</time>
      </trkpt>
      <trkpt lat="43.97628" lon="3.02734">
        <ele>710</ele>
        <time>2026-04-30T10:31:43.999Z</time>
      </trkpt>
      <trkpt lat="43.97628" lon="3.02734">
        <ele>710.2</ele>
        <time>2026-04-30T10:31:44.999Z</time>
      </trkpt>
      <trkpt lat="43.97628" lon="3.02734">
        <ele>710.3</ele>
        <time>2026-04-30T10:31:45.999Z</time>
      </trkpt>
      <trkpt lat="43.97628" lon="3.02734">
        <ele>710.5</ele>
        <time>2026-04-30T10:31:46.999Z</time>
      </trkpt>
      <trkpt lat="43.97628" lon="3.02734">
        <ele>710.6</ele>
        <time>2026-04-30T10:31:47.999Z</time>
      </trkpt>
      <trkpt lat="43.97628" lon="3.02734">
        <ele>710.7</ele>
        <time>2026-04-30T10:31:48.999Z</time>
      </trkpt>
      <trkpt lat="43.97628" lon="3.02734">
        <ele>711</ele>
        <time>2026-04-30T10:31:49.999Z</time>
      </trkpt>
      <trkpt lat="43.97628" lon="3.02734">
        <ele>711.2</ele>
        <time>2026-04-30T10:31:50.999Z</time>
      </trkpt>
      <trkpt lat="43.97628" lon="3.02734">
        <ele>711.5</ele>
        <time>2026-04-30T10:31:51.999Z</time>
      </trkpt>
      <trkpt lat="43.97628" lon="3.02734">
        <ele>711.6</ele>
        <time>2026-04-30T10:31:52.999Z</time>
      </trkpt>
      <trkpt lat="43.97628" lon="3.02733">
        <ele>711.7</ele>
        <time>2026-04-30T10:31:53.999Z</time>
      </trkpt>
      <trkpt lat="43.97628" lon="3.02733">
        <ele>711.9</ele>
        <time>2026-04-30T10:31:54.999Z</time>
      </trkpt>
      <trkpt lat="43.97628" lon="3.02732">
        <ele>712.2</ele>
        <time>2026-04-30T10:31:55.999Z</time>
      </trkpt>
      <trkpt lat="43.97628" lon="3.0273">
        <ele>712.3</ele>
        <time>2026-04-30T10:31:56.999Z</time>
      </trkpt>
      <trkpt lat="43.97629" lon="3.02729">
        <ele>712.6</ele>
        <time>2026-04-30T10:31:57.999Z</time>
      </trkpt>
      <trkpt lat="43.97629" lon="3.02726">
        <ele>713</ele>
        <time>2026-04-30T10:31:58.999Z</time>
      </trkpt>
      <trkpt lat="43.97629" lon="3.02725">
        <ele>713.7</ele>
        <time>2026-04-30T10:31:59.999Z</time>
      </trkpt>
      <trkpt lat="43.97628" lon="3.02724">
        <ele>714.1</ele>
        <time>2026-04-30T10:32:00.999Z</time>
      </trkpt>
      <trkpt lat="43.97628" lon="3.02723">
        <ele>714.8</ele>
        <time>2026-04-30T10:32:01.999Z</time>
      </trkpt>
      <trkpt lat="43.97628" lon="3.02722">
        <ele>715</ele>
        <time>2026-04-30T10:32:02.999Z</time>
      </trkpt>
      <trkpt lat="43.97628" lon="3.02721">
        <ele>715.3</ele>
        <time>2026-04-30T10:32:03.999Z</time>
      </trkpt>
      <trkpt lat="43.97628" lon="3.02721">
        <ele>715.6</ele>
        <time>2026-04-30T10:32:04.999Z</time>
      </trkpt>
      <trkpt lat="43.97628" lon="3.0272">
        <ele>715.9</ele>
        <time>2026-04-30T10:32:05.999Z</time>
      </trkpt>
      <trkpt lat="43.97627" lon="3.02719">
        <ele>716.2</ele>
        <time>2026-04-30T10:32:06.999Z</time>
      </trkpt>
      <trkpt lat="43.97628" lon="3.02718">
        <ele>716.4</ele>
        <time>2026-04-30T10:32:07.999Z</time>
      </trkpt>
      <trkpt lat="43.97627" lon="3.02717">
        <ele>716.8</ele>
        <time>2026-04-30T10:32:08.999Z</time>
      </trkpt>
      <trkpt lat="43.97628" lon="3.02716">
        <ele>717</ele>
        <time>2026-04-30T10:32:09.999Z</time>
      </trkpt>
      <trkpt lat="43.97628" lon="3.02715">
        <ele>716.4</ele>
        <time>2026-04-30T10:32:10.999Z</time>
      </trkpt>
      <trkpt lat="43.97627" lon="3.02713">
        <ele>715.6</ele>
        <time>2026-04-30T10:32:11.999Z</time>
      </trkpt>
      <trkpt lat="43.97627" lon="3.02712">
        <ele>716.1</ele>
        <time>2026-04-30T10:32:12.999Z</time>
      </trkpt>
      <trkpt lat="43.97626" lon="3.02712">
        <ele>716.2</ele>
        <time>2026-04-30T10:32:13.999Z</time>
      </trkpt>
      <trkpt lat="43.97625" lon="3.02712">
        <ele>716.5</ele>
        <time>2026-04-30T10:32:14.999Z</time>
      </trkpt>
      <trkpt lat="43.97624" lon="3.02711">
        <ele>715.9</ele>
        <time>2026-04-30T10:32:15.999Z</time>
      </trkpt>
      <trkpt lat="43.97625" lon="3.02711">
        <ele>716</ele>
        <time>2026-04-30T10:32:16.999Z</time>
      </trkpt>
      <trkpt lat="43.97625" lon="3.02711">
        <ele>716</ele>
        <time>2026-04-30T10:32:17.999Z</time>
      </trkpt>
      <trkpt lat="43.97626" lon="3.0271">
        <ele>715.6</ele>
        <time>2026-04-30T10:32:18.999Z</time>
      </trkpt>
      <trkpt lat="43.97626" lon="3.0271">
        <ele>717.2</ele>
        <time>2026-04-30T10:32:19.999Z</time>
      </trkpt>
      <trkpt lat="43.97626" lon="3.02711">
        <ele>717.4</ele>
        <time>2026-04-30T10:32:20.999Z</time>
      </trkpt>
      <trkpt lat="43.97626" lon="3.0271">
        <ele>717</ele>
        <time>2026-04-30T10:32:21.999Z</time>
      </trkpt>
      <trkpt lat="43.97626" lon="3.02709">
        <ele>716.6</ele>
        <time>2026-04-30T10:32:22.999Z</time>
      </trkpt>
      <trkpt lat="43.97627" lon="3.02707">
        <ele>716.6</ele>
        <time>2026-04-30T10:32:23.999Z</time>
      </trkpt>
      <trkpt lat="43.97627" lon="3.02707">
        <ele>716.5</ele>
        <time>2026-04-30T10:32:24.999Z</time>
      </trkpt>
      <trkpt lat="43.97626" lon="3.02706">
        <ele>716.6</ele>
        <time>2026-04-30T10:32:25.999Z</time>
      </trkpt>
      <trkpt lat="43.97625" lon="3.02705">
        <ele>716.5</ele>
        <time>2026-04-30T10:32:26.999Z</time>
      </trkpt>
      <trkpt lat="43.97624" lon="3.02704">
        <ele>716.6</ele>
        <time>2026-04-30T10:32:27.999Z</time>
      </trkpt>
      <trkpt lat="43.97623" lon="3.02703">
        <ele>716.5</ele>
        <time>2026-04-30T10:32:28.999Z</time>
      </trkpt>
      <trkpt lat="43.97623" lon="3.02702">
        <ele>716.8</ele>
        <time>2026-04-30T10:32:29.999Z</time>
      </trkpt>
      <trkpt lat="43.97623" lon="3.02701">
        <ele>716.7</ele>
        <time>2026-04-30T10:32:30.999Z</time>
      </trkpt>
      <trkpt lat="43.97623" lon="3.027">
        <ele>716.2</ele>
        <time>2026-04-30T10:32:31.999Z</time>
      </trkpt>
      <trkpt lat="43.97622" lon="3.02696">
        <ele>716.2</ele>
        <time>2026-04-30T10:32:32.999Z</time>
      </trkpt>
      <trkpt lat="43.97622" lon="3.02694">
        <ele>716.6</ele>
        <time>2026-04-30T10:32:33.999Z</time>
      </trkpt>
      <trkpt lat="43.97622" lon="3.02693">
        <ele>716.3</ele>
        <time>2026-04-30T10:32:34.999Z</time>
      </trkpt>
      <trkpt lat="43.97621" lon="3.0269">
        <ele>716</ele>
        <time>2026-04-30T10:32:35.999Z</time>
      </trkpt>
      <trkpt lat="43.97621" lon="3.02689">
        <ele>716</ele>
        <time>2026-04-30T10:32:36.999Z</time>
      </trkpt>
      <trkpt lat="43.97621" lon="3.02687">
        <ele>715.9</ele>
        <time>2026-04-30T10:32:37.999Z</time>
      </trkpt>
      <trkpt lat="43.97621" lon="3.02686">
        <ele>715.9</ele>
        <time>2026-04-30T10:32:38.999Z</time>
      </trkpt>
      <trkpt lat="43.97621" lon="3.02684">
        <ele>715.7</ele>
        <time>2026-04-30T10:32:39.999Z</time>
      </trkpt>
      <trkpt lat="43.97621" lon="3.02682">
        <ele>715.7</ele>
        <time>2026-04-30T10:32:40.999Z</time>
      </trkpt>
      <trkpt lat="43.97621" lon="3.02681">
        <ele>715.5</ele>
        <time>2026-04-30T10:32:41.999Z</time>
      </trkpt>
      <trkpt lat="43.97621" lon="3.02679">
        <ele>716.1</ele>
        <time>2026-04-30T10:32:42.999Z</time>
      </trkpt>
      <trkpt lat="43.9762" lon="3.02677">
        <ele>716.4</ele>
        <time>2026-04-30T10:32:43.999Z</time>
      </trkpt>
      <trkpt lat="43.9762" lon="3.02676">
        <ele>716.1</ele>
        <time>2026-04-30T10:32:44.999Z</time>
      </trkpt>
      <trkpt lat="43.97619" lon="3.02675">
        <ele>716.4</ele>
        <time>2026-04-30T10:32:45.999Z</time>
      </trkpt>
      <trkpt lat="43.9762" lon="3.02675">
        <ele>716.1</ele>
        <time>2026-04-30T10:32:46.999Z</time>
      </trkpt>
      <trkpt lat="43.9762" lon="3.02676">
        <ele>716</ele>
        <time>2026-04-30T10:32:47.999Z</time>
      </trkpt>
      <trkpt lat="43.9762" lon="3.02676">
        <ele>715.8</ele>
        <time>2026-04-30T10:32:48.999Z</time>
      </trkpt>
      <trkpt lat="43.9762" lon="3.02676">
        <ele>716.6</ele>
        <time>2026-04-30T10:32:49.999Z</time>
      </trkpt>
      <trkpt lat="43.9762" lon="3.02676">
        <ele>716.7</ele>
        <time>2026-04-30T10:32:50.999Z</time>
      </trkpt>
      <trkpt lat="43.9762" lon="3.02676">
        <ele>716.7</ele>
        <time>2026-04-30T10:32:51.999Z</time>
      </trkpt>
      <trkpt lat="43.9762" lon="3.02676">
        <ele>717.2</ele>
        <time>2026-04-30T10:32:52.999Z</time>
      </trkpt>
      <trkpt lat="43.9762" lon="3.02676">
        <ele>717.6</ele>
        <time>2026-04-30T10:32:53.999Z</time>
      </trkpt>
      <trkpt lat="43.9762" lon="3.02676">
        <ele>718.1</ele>
        <time>2026-04-30T10:32:54.999Z</time>
      </trkpt>
      <trkpt lat="43.97619" lon="3.02674">
        <ele>717.8</ele>
        <time>2026-04-30T10:32:55.999Z</time>
      </trkpt>
      <trkpt lat="43.97619" lon="3.02672">
        <ele>718.2</ele>
        <time>2026-04-30T10:32:56.999Z</time>
      </trkpt>
      <trkpt lat="43.97619" lon="3.0267">
        <ele>718.4</ele>
        <time>2026-04-30T10:32:57.999Z</time>
      </trkpt>
      <trkpt lat="43.9762" lon="3.02668">
        <ele>718.6</ele>
        <time>2026-04-30T10:32:58.999Z</time>
      </trkpt>
      <trkpt lat="43.9762" lon="3.02667">
        <ele>718.7</ele>
        <time>2026-04-30T10:32:59.999Z</time>
      </trkpt>
      <trkpt lat="43.9762" lon="3.02666">
        <ele>719.1</ele>
        <time>2026-04-30T10:33:00.999Z</time>
      </trkpt>
      <trkpt lat="43.97619" lon="3.02666">
        <ele>719.6</ele>
        <time>2026-04-30T10:33:01.999Z</time>
      </trkpt>
      <trkpt lat="43.97619" lon="3.02667">
        <ele>720.2</ele>
        <time>2026-04-30T10:33:02.999Z</time>
      </trkpt>
      <trkpt lat="43.97618" lon="3.02668">
        <ele>720.9</ele>
        <time>2026-04-30T10:33:03.999Z</time>
      </trkpt>
      <trkpt lat="43.97619" lon="3.02668">
        <ele>721.3</ele>
        <time>2026-04-30T10:33:04.999Z</time>
      </trkpt>
      <trkpt lat="43.97618" lon="3.02668">
        <ele>721.4</ele>
        <time>2026-04-30T10:33:05.999Z</time>
      </trkpt>
      <trkpt lat="43.97618" lon="3.02669">
        <ele>721</ele>
        <time>2026-04-30T10:33:06.999Z</time>
      </trkpt>
      <trkpt lat="43.97618" lon="3.02669">
        <ele>721.1</ele>
        <time>2026-04-30T10:33:07.999Z</time>
      </trkpt>
      <trkpt lat="43.97618" lon="3.02669">
        <ele>721.3</ele>
        <time>2026-04-30T10:33:08.999Z</time>
      </trkpt>
      <trkpt lat="43.97618" lon="3.02669">
        <ele>721.4</ele>
        <time>2026-04-30T10:33:09.999Z</time>
      </trkpt>
      <trkpt lat="43.97619" lon="3.02669">
        <ele>721.4</ele>
        <time>2026-04-30T10:33:10.999Z</time>
      </trkpt>
      <trkpt lat="43.97619" lon="3.02669">
        <ele>721.4</ele>
        <time>2026-04-30T10:33:11.999Z</time>
      </trkpt>
      <trkpt lat="43.97619" lon="3.02669">
        <ele>721.5</ele>
        <time>2026-04-30T10:33:12.999Z</time>
      </trkpt>
      <trkpt lat="43.97619" lon="3.02669">
        <ele>721.4</ele>
        <time>2026-04-30T10:33:13.999Z</time>
      </trkpt>
      <trkpt lat="43.97619" lon="3.02669">
        <ele>721.6</ele>
        <time>2026-04-30T10:33:14.999Z</time>
      </trkpt>
      <trkpt lat="43.97619" lon="3.0267">
        <ele>721.5</ele>
        <time>2026-04-30T10:33:15.999Z</time>
      </trkpt>
      <trkpt lat="43.97619" lon="3.0267">
        <ele>721.3</ele>
        <time>2026-04-30T10:33:16.999Z</time>
      </trkpt>
      <trkpt lat="43.97619" lon="3.0267">
        <ele>721.5</ele>
        <time>2026-04-30T10:33:17.999Z</time>
      </trkpt>
      <trkpt lat="43.97619" lon="3.0267">
        <ele>721.4</ele>
        <time>2026-04-30T10:33:18.999Z</time>
      </trkpt>
      <trkpt lat="43.97619" lon="3.0267">
        <ele>721.6</ele>
        <time>2026-04-30T10:33:19.999Z</time>
      </trkpt>
      <trkpt lat="43.97619" lon="3.0267">
        <ele>721.7</ele>
        <time>2026-04-30T10:33:20.999Z</time>
      </trkpt>
      <trkpt lat="43.97619" lon="3.0267">
        <ele>721.7</ele>
        <time>2026-04-30T10:33:21.999Z</time>
      </trkpt>
      <trkpt lat="43.97619" lon="3.0267">
        <ele>721.8</ele>
        <time>2026-04-30T10:33:22.999Z</time>
      </trkpt>
      <trkpt lat="43.97619" lon="3.0267">
        <ele>722</ele>
        <time>2026-04-30T10:33:23.999Z</time>
      </trkpt>
      <trkpt lat="43.9762" lon="3.02669">
        <ele>722</ele>
        <time>2026-04-30T10:33:24.999Z</time>
      </trkpt>
      <trkpt lat="43.9762" lon="3.02668">
        <ele>722</ele>
        <time>2026-04-30T10:33:25.999Z</time>
      </trkpt>
      <trkpt lat="43.9762" lon="3.02667">
        <ele>722.1</ele>
        <time>2026-04-30T10:33:26.999Z</time>
      </trkpt>
      <trkpt lat="43.9762" lon="3.02667">
        <ele>722.2</ele>
        <time>2026-04-30T10:33:27.999Z</time>
      </trkpt>
      <trkpt lat="43.9762" lon="3.02667">
        <ele>722.1</ele>
        <time>2026-04-30T10:33:28.999Z</time>
      </trkpt>
      <trkpt lat="43.9762" lon="3.02667">
        <ele>722.1</ele>
        <time>2026-04-30T10:33:29.999Z</time>
      </trkpt>
      <trkpt lat="43.97621" lon="3.02666">
        <ele>722.5</ele>
        <time>2026-04-30T10:33:31.999Z</time>
      </trkpt>
      <trkpt lat="43.97622" lon="3.02664">
        <ele>723</ele>
        <time>2026-04-30T10:33:32.999Z</time>
      </trkpt>
      <trkpt lat="43.97622" lon="3.02663">
        <ele>723.3</ele>
        <time>2026-04-30T10:33:33.999Z</time>
      </trkpt>
      <trkpt lat="43.97623" lon="3.02662">
        <ele>723.4</ele>
        <time>2026-04-30T10:33:34.999Z</time>
      </trkpt>
      <trkpt lat="43.97624" lon="3.02662">
        <ele>723.6</ele>
        <time>2026-04-30T10:33:35.999Z</time>
      </trkpt>
      <trkpt lat="43.97625" lon="3.02662">
        <ele>723.6</ele>
        <time>2026-04-30T10:33:36.999Z</time>
      </trkpt>
      <trkpt lat="43.97625" lon="3.02662">
        <ele>723.6</ele>
        <time>2026-04-30T10:33:37.999Z</time>
      </trkpt>
      <trkpt lat="43.97625" lon="3.02662">
        <ele>723.6</ele>
        <time>2026-04-30T10:33:38.999Z</time>
      </trkpt>
      <trkpt lat="43.97626" lon="3.02661">
        <ele>723.4</ele>
        <time>2026-04-30T10:33:39.999Z</time>
      </trkpt>
      <trkpt lat="43.97626" lon="3.0266">
        <ele>723.2</ele>
        <time>2026-04-30T10:33:40.999Z</time>
      </trkpt>
      <trkpt lat="43.97628" lon="3.02659">
        <ele>722.8</ele>
        <time>2026-04-30T10:33:41.999Z</time>
      </trkpt>
      <trkpt lat="43.97629" lon="3.02658">
        <ele>722.1</ele>
        <time>2026-04-30T10:33:42.999Z</time>
      </trkpt>
      <trkpt lat="43.9763" lon="3.02658">
        <ele>721.9</ele>
        <time>2026-04-30T10:33:43.999Z</time>
      </trkpt>
      <trkpt lat="43.97631" lon="3.02657">
        <ele>721.5</ele>
        <time>2026-04-30T10:33:44.999Z</time>
      </trkpt>
      <trkpt lat="43.97632" lon="3.02658">
        <ele>721.1</ele>
        <time>2026-04-30T10:33:45.999Z</time>
      </trkpt>
      <trkpt lat="43.97633" lon="3.02657">
        <ele>720.8</ele>
        <time>2026-04-30T10:33:46.999Z</time>
      </trkpt>
      <trkpt lat="43.97634" lon="3.02658">
        <ele>720.6</ele>
        <time>2026-04-30T10:33:47.999Z</time>
      </trkpt>
      <trkpt lat="43.97635" lon="3.02659">
        <ele>720.6</ele>
        <time>2026-04-30T10:33:48.999Z</time>
      </trkpt>
      <trkpt lat="43.97636" lon="3.0266">
        <ele>721</ele>
        <time>2026-04-30T10:33:49.999Z</time>
      </trkpt>
      <trkpt lat="43.97637" lon="3.0266">
        <ele>721.1</ele>
        <time>2026-04-30T10:33:50.999Z</time>
      </trkpt>
      <trkpt lat="43.97638" lon="3.02661">
        <ele>721.2</ele>
        <time>2026-04-30T10:33:51.999Z</time>
      </trkpt>
      <trkpt lat="43.97639" lon="3.02661">
        <ele>721.5</ele>
        <time>2026-04-30T10:33:52.999Z</time>
      </trkpt>
      <trkpt lat="43.9764" lon="3.02661">
        <ele>721.9</ele>
        <time>2026-04-30T10:33:53.999Z</time>
      </trkpt>
      <trkpt lat="43.97641" lon="3.0266">
        <ele>722</ele>
        <time>2026-04-30T10:33:54.999Z</time>
      </trkpt>
      <trkpt lat="43.97642" lon="3.0266">
        <ele>722.1</ele>
        <time>2026-04-30T10:33:55.999Z</time>
      </trkpt>
      <trkpt lat="43.97642" lon="3.02662">
        <ele>722.2</ele>
        <time>2026-04-30T10:33:56.999Z</time>
      </trkpt>
      <trkpt lat="43.97643" lon="3.02662">
        <ele>722.3</ele>
        <time>2026-04-30T10:33:57.999Z</time>
      </trkpt>
      <trkpt lat="43.97643" lon="3.02661">
        <ele>722.2</ele>
        <time>2026-04-30T10:33:58.999Z</time>
      </trkpt>
      <trkpt lat="43.97642" lon="3.02661">
        <ele>722.3</ele>
        <time>2026-04-30T10:33:59.999Z</time>
      </trkpt>
      <trkpt lat="43.97642" lon="3.0266">
        <ele>722.4</ele>
        <time>2026-04-30T10:34:00.999Z</time>
      </trkpt>
      <trkpt lat="43.97643" lon="3.02659">
        <ele>722.4</ele>
        <time>2026-04-30T10:34:01.999Z</time>
      </trkpt>
      <trkpt lat="43.97642" lon="3.02659">
        <ele>723</ele>
        <time>2026-04-30T10:34:02.999Z</time>
      </trkpt>
      <trkpt lat="43.97642" lon="3.02659">
        <ele>723.1</ele>
        <time>2026-04-30T10:34:03.999Z</time>
      </trkpt>
      <trkpt lat="43.97642" lon="3.0266">
        <ele>723.2</ele>
        <time>2026-04-30T10:34:04.999Z</time>
      </trkpt>
      <trkpt lat="43.97641" lon="3.02661">
        <ele>723</ele>
        <time>2026-04-30T10:34:05.999Z</time>
      </trkpt>
      <trkpt lat="43.97641" lon="3.02661">
        <ele>723.3</ele>
        <time>2026-04-30T10:34:06.999Z</time>
      </trkpt>
      <trkpt lat="43.97642" lon="3.02662">
        <ele>723.4</ele>
        <time>2026-04-30T10:34:07.999Z</time>
      </trkpt>
      <trkpt lat="43.97642" lon="3.02664">
        <ele>723.5</ele>
        <time>2026-04-30T10:34:08.999Z</time>
      </trkpt>
      <trkpt lat="43.97642" lon="3.02665">
        <ele>723.4</ele>
        <time>2026-04-30T10:34:09.999Z</time>
      </trkpt>
      <trkpt lat="43.97643" lon="3.02667">
        <ele>723.9</ele>
        <time>2026-04-30T10:34:10.999Z</time>
      </trkpt>
      <trkpt lat="43.97644" lon="3.0267">
        <ele>724.4</ele>
        <time>2026-04-30T10:34:11.999Z</time>
      </trkpt>
      <trkpt lat="43.97644" lon="3.02672">
        <ele>724.9</ele>
        <time>2026-04-30T10:34:12.999Z</time>
      </trkpt>
      <trkpt lat="43.97645" lon="3.02673">
        <ele>725.1</ele>
        <time>2026-04-30T10:34:13.999Z</time>
      </trkpt>
      <trkpt lat="43.97646" lon="3.02674">
        <ele>725.4</ele>
        <time>2026-04-30T10:34:14.999Z</time>
      </trkpt>
      <trkpt lat="43.97647" lon="3.02675">
        <ele>725.9</ele>
        <time>2026-04-30T10:34:15.999Z</time>
      </trkpt>
      <trkpt lat="43.97647" lon="3.02676">
        <ele>726.2</ele>
        <time>2026-04-30T10:34:16.999Z</time>
      </trkpt>
      <trkpt lat="43.97648" lon="3.02677">
        <ele>726.5</ele>
        <time>2026-04-30T10:34:17.999Z</time>
      </trkpt>
      <trkpt lat="43.97648" lon="3.02677">
        <ele>726.9</ele>
        <time>2026-04-30T10:34:18.999Z</time>
      </trkpt>
      <trkpt lat="43.97649" lon="3.02677">
        <ele>727</ele>
        <time>2026-04-30T10:34:19.999Z</time>
      </trkpt>
      <trkpt lat="43.9765" lon="3.02678">
        <ele>727.5</ele>
        <time>2026-04-30T10:34:20.999Z</time>
      </trkpt>
      <trkpt lat="43.97651" lon="3.02678">
        <ele>727.8</ele>
        <time>2026-04-30T10:34:21.999Z</time>
      </trkpt>
      <trkpt lat="43.97652" lon="3.02679">
        <ele>728.3</ele>
        <time>2026-04-30T10:34:22.999Z</time>
      </trkpt>
      <trkpt lat="43.97653" lon="3.02678">
        <ele>728.7</ele>
        <time>2026-04-30T10:34:23.999Z</time>
      </trkpt>
      <trkpt lat="43.97654" lon="3.02678">
        <ele>729.5</ele>
        <time>2026-04-30T10:34:24.999Z</time>
      </trkpt>
      <trkpt lat="43.97655" lon="3.02678">
        <ele>729.9</ele>
        <time>2026-04-30T10:34:25.999Z</time>
      </trkpt>
      <trkpt lat="43.97655" lon="3.02679">
        <ele>730.2</ele>
        <time>2026-04-30T10:34:26.999Z</time>
      </trkpt>
      <trkpt lat="43.97656" lon="3.0268">
        <ele>730.6</ele>
        <time>2026-04-30T10:34:27.999Z</time>
      </trkpt>
      <trkpt lat="43.97657" lon="3.02681">
        <ele>731.4</ele>
        <time>2026-04-30T10:34:28.999Z</time>
      </trkpt>
      <trkpt lat="43.97658" lon="3.02682">
        <ele>731.8</ele>
        <time>2026-04-30T10:34:29.999Z</time>
      </trkpt>
      <trkpt lat="43.97659" lon="3.02682">
        <ele>732.3</ele>
        <time>2026-04-30T10:34:30.999Z</time>
      </trkpt>
      <trkpt lat="43.9766" lon="3.02683">
        <ele>733.2</ele>
        <time>2026-04-30T10:34:31.999Z</time>
      </trkpt>
      <trkpt lat="43.97662" lon="3.02683">
        <ele>733.4</ele>
        <time>2026-04-30T10:34:32.999Z</time>
      </trkpt>
      <trkpt lat="43.97662" lon="3.02683">
        <ele>733.9</ele>
        <time>2026-04-30T10:34:33.999Z</time>
      </trkpt>
      <trkpt lat="43.97663" lon="3.02683">
        <ele>734</ele>
        <time>2026-04-30T10:34:34.999Z</time>
      </trkpt>
      <trkpt lat="43.97663" lon="3.02684">
        <ele>733.8</ele>
        <time>2026-04-30T10:34:35.999Z</time>
      </trkpt>
      <trkpt lat="43.97664" lon="3.02684">
        <ele>733.7</ele>
        <time>2026-04-30T10:34:36.999Z</time>
      </trkpt>
      <trkpt lat="43.97665" lon="3.02684">
        <ele>733.9</ele>
        <time>2026-04-30T10:34:37.999Z</time>
      </trkpt>
      <trkpt lat="43.97665" lon="3.02685">
        <ele>733.8</ele>
        <time>2026-04-30T10:34:38.999Z</time>
      </trkpt>
      <trkpt lat="43.97666" lon="3.02685">
        <ele>734.1</ele>
        <time>2026-04-30T10:34:39.999Z</time>
      </trkpt>
      <trkpt lat="43.97667" lon="3.02685">
        <ele>734.1</ele>
        <time>2026-04-30T10:34:40.999Z</time>
      </trkpt>
      <trkpt lat="43.97668" lon="3.02685">
        <ele>734.3</ele>
        <time>2026-04-30T10:34:41.999Z</time>
      </trkpt>
      <trkpt lat="43.97668" lon="3.02685">
        <ele>734.2</ele>
        <time>2026-04-30T10:34:42.999Z</time>
      </trkpt>
      <trkpt lat="43.97669" lon="3.02685">
        <ele>734.4</ele>
        <time>2026-04-30T10:34:43.999Z</time>
      </trkpt>
      <trkpt lat="43.9767" lon="3.02685">
        <ele>734.5</ele>
        <time>2026-04-30T10:34:44.999Z</time>
      </trkpt>
      <trkpt lat="43.97671" lon="3.02686">
        <ele>734.6</ele>
        <time>2026-04-30T10:34:45.999Z</time>
      </trkpt>
      <trkpt lat="43.97671" lon="3.02686">
        <ele>735</ele>
        <time>2026-04-30T10:34:46.999Z</time>
      </trkpt>
      <trkpt lat="43.97672" lon="3.02687">
        <ele>735.1</ele>
        <time>2026-04-30T10:34:47.999Z</time>
      </trkpt>
      <trkpt lat="43.97673" lon="3.02687">
        <ele>735.1</ele>
        <time>2026-04-30T10:34:48.999Z</time>
      </trkpt>
      <trkpt lat="43.97673" lon="3.02688">
        <ele>735.4</ele>
        <time>2026-04-30T10:34:49.999Z</time>
      </trkpt>
      <trkpt lat="43.97673" lon="3.02689">
        <ele>735.7</ele>
        <time>2026-04-30T10:34:50.999Z</time>
      </trkpt>
      <trkpt lat="43.97674" lon="3.0269">
        <ele>735.5</ele>
        <time>2026-04-30T10:34:51.999Z</time>
      </trkpt>
      <trkpt lat="43.97674" lon="3.02691">
        <ele>735.5</ele>
        <time>2026-04-30T10:34:52.999Z</time>
      </trkpt>
      <trkpt lat="43.97674" lon="3.02692">
        <ele>736.2</ele>
        <time>2026-04-30T10:34:53.999Z</time>
      </trkpt>
      <trkpt lat="43.97675" lon="3.02693">
        <ele>736.7</ele>
        <time>2026-04-30T10:34:54.999Z</time>
      </trkpt>
      <trkpt lat="43.97675" lon="3.02694">
        <ele>736.6</ele>
        <time>2026-04-30T10:34:55.999Z</time>
      </trkpt>
      <trkpt lat="43.97676" lon="3.02695">
        <ele>736.9</ele>
        <time>2026-04-30T10:34:56.999Z</time>
      </trkpt>
      <trkpt lat="43.97676" lon="3.02696">
        <ele>737.2</ele>
        <time>2026-04-30T10:34:57.999Z</time>
      </trkpt>
      <trkpt lat="43.97677" lon="3.02696">
        <ele>737.4</ele>
        <time>2026-04-30T10:34:58.999Z</time>
      </trkpt>
      <trkpt lat="43.97678" lon="3.02697">
        <ele>737.3</ele>
        <time>2026-04-30T10:34:59.999Z</time>
      </trkpt>
      <trkpt lat="43.97679" lon="3.02698">
        <ele>737.5</ele>
        <time>2026-04-30T10:35:00.999Z</time>
      </trkpt>
      <trkpt lat="43.9768" lon="3.02698">
        <ele>737.7</ele>
        <time>2026-04-30T10:35:01.999Z</time>
      </trkpt>
      <trkpt lat="43.9768" lon="3.02698">
        <ele>738.1</ele>
        <time>2026-04-30T10:35:02.999Z</time>
      </trkpt>
      <trkpt lat="43.97681" lon="3.02699">
        <ele>738.1</ele>
        <time>2026-04-30T10:35:03.999Z</time>
      </trkpt>
      <trkpt lat="43.97683" lon="3.027">
        <ele>738.1</ele>
        <time>2026-04-30T10:35:04.999Z</time>
      </trkpt>
      <trkpt lat="43.97683" lon="3.027">
        <ele>738.2</ele>
        <time>2026-04-30T10:35:05.999Z</time>
      </trkpt>
      <trkpt lat="43.97684" lon="3.02701">
        <ele>738.5</ele>
        <time>2026-04-30T10:35:06.999Z</time>
      </trkpt>
      <trkpt lat="43.97685" lon="3.02701">
        <ele>739</ele>
        <time>2026-04-30T10:35:07.999Z</time>
      </trkpt>
      <trkpt lat="43.97685" lon="3.02702">
        <ele>739.1</ele>
        <time>2026-04-30T10:35:08.999Z</time>
      </trkpt>
      <trkpt lat="43.97685" lon="3.02701">
        <ele>738.9</ele>
        <time>2026-04-30T10:35:09.999Z</time>
      </trkpt>
      <trkpt lat="43.97686" lon="3.02701">
        <ele>738.6</ele>
        <time>2026-04-30T10:35:10.999Z</time>
      </trkpt>
      <trkpt lat="43.97686" lon="3.02702">
        <ele>738.5</ele>
        <time>2026-04-30T10:35:11.999Z</time>
      </trkpt>
      <trkpt lat="43.97688" lon="3.02703">
        <ele>738.2</ele>
        <time>2026-04-30T10:35:12.999Z</time>
      </trkpt>
      <trkpt lat="43.97688" lon="3.02704">
        <ele>738.1</ele>
        <time>2026-04-30T10:35:13.999Z</time>
      </trkpt>
      <trkpt lat="43.97689" lon="3.02705">
        <ele>738.3</ele>
        <time>2026-04-30T10:35:14.999Z</time>
      </trkpt>
      <trkpt lat="43.9769" lon="3.02705">
        <ele>738.1</ele>
        <time>2026-04-30T10:35:15.999Z</time>
      </trkpt>
      <trkpt lat="43.9769" lon="3.02706">
        <ele>738.7</ele>
        <time>2026-04-30T10:35:16.999Z</time>
      </trkpt>
      <trkpt lat="43.9769" lon="3.02707">
        <ele>739.3</ele>
        <time>2026-04-30T10:35:17.999Z</time>
      </trkpt>
      <trkpt lat="43.97691" lon="3.02709">
        <ele>740.6</ele>
        <time>2026-04-30T10:35:18.999Z</time>
      </trkpt>
      <trkpt lat="43.97692" lon="3.0271">
        <ele>741.4</ele>
        <time>2026-04-30T10:35:19.999Z</time>
      </trkpt>
      <trkpt lat="43.97692" lon="3.0271">
        <ele>741.8</ele>
        <time>2026-04-30T10:35:20.999Z</time>
      </trkpt>
      <trkpt lat="43.97693" lon="3.0271">
        <ele>742.1</ele>
        <time>2026-04-30T10:35:21.999Z</time>
      </trkpt>
      <trkpt lat="43.97694" lon="3.02711">
        <ele>742.4</ele>
        <time>2026-04-30T10:35:22.999Z</time>
      </trkpt>
      <trkpt lat="43.97695" lon="3.02711">
        <ele>742.9</ele>
        <time>2026-04-30T10:35:23.999Z</time>
      </trkpt>
      <trkpt lat="43.97696" lon="3.02712">
        <ele>743.3</ele>
        <time>2026-04-30T10:35:24.999Z</time>
      </trkpt>
      <trkpt lat="43.97697" lon="3.02713">
        <ele>743.6</ele>
        <time>2026-04-30T10:35:25.999Z</time>
      </trkpt>
      <trkpt lat="43.97697" lon="3.02714">
        <ele>743.8</ele>
        <time>2026-04-30T10:35:26.999Z</time>
      </trkpt>
      <trkpt lat="43.97698" lon="3.02715">
        <ele>743.9</ele>
        <time>2026-04-30T10:35:27.999Z</time>
      </trkpt>
      <trkpt lat="43.97699" lon="3.02716">
        <ele>743.8</ele>
        <time>2026-04-30T10:35:28.999Z</time>
      </trkpt>
      <trkpt lat="43.977" lon="3.02717">
        <ele>743.4</ele>
        <time>2026-04-30T10:35:29.999Z</time>
      </trkpt>
      <trkpt lat="43.977" lon="3.02718">
        <ele>743.5</ele>
        <time>2026-04-30T10:35:30.999Z</time>
      </trkpt>
      <trkpt lat="43.97701" lon="3.02719">
        <ele>743.7</ele>
        <time>2026-04-30T10:35:31.999Z</time>
      </trkpt>
      <trkpt lat="43.97702" lon="3.02719">
        <ele>744.1</ele>
        <time>2026-04-30T10:35:32.999Z</time>
      </trkpt>
      <trkpt lat="43.97702" lon="3.02719">
        <ele>744.8</ele>
        <time>2026-04-30T10:35:33.999Z</time>
      </trkpt>
      <trkpt lat="43.97702" lon="3.0272">
        <ele>745.1</ele>
        <time>2026-04-30T10:35:34.999Z</time>
      </trkpt>
      <trkpt lat="43.97703" lon="3.02722">
        <ele>745.6</ele>
        <time>2026-04-30T10:35:35.999Z</time>
      </trkpt>
      <trkpt lat="43.97703" lon="3.02723">
        <ele>746.1</ele>
        <time>2026-04-30T10:35:36.999Z</time>
      </trkpt>
      <trkpt lat="43.97704" lon="3.02723">
        <ele>746.3</ele>
        <time>2026-04-30T10:35:37.999Z</time>
      </trkpt>
      <trkpt lat="43.97704" lon="3.02723">
        <ele>746.6</ele>
        <time>2026-04-30T10:35:38.999Z</time>
      </trkpt>
      <trkpt lat="43.97705" lon="3.02724">
        <ele>746.9</ele>
        <time>2026-04-30T10:35:39.999Z</time>
      </trkpt>
      <trkpt lat="43.97706" lon="3.02725">
        <ele>747.1</ele>
        <time>2026-04-30T10:35:40.999Z</time>
      </trkpt>
      <trkpt lat="43.97706" lon="3.02726">
        <ele>746.9</ele>
        <time>2026-04-30T10:35:41.999Z</time>
      </trkpt>
      <trkpt lat="43.97707" lon="3.02726">
        <ele>747.2</ele>
        <time>2026-04-30T10:35:42.999Z</time>
      </trkpt>
      <trkpt lat="43.97708" lon="3.02727">
        <ele>747.1</ele>
        <time>2026-04-30T10:35:43.999Z</time>
      </trkpt>
      <trkpt lat="43.97709" lon="3.02728">
        <ele>747.4</ele>
        <time>2026-04-30T10:35:44.999Z</time>
      </trkpt>
      <trkpt lat="43.97709" lon="3.02729">
        <ele>747.8</ele>
        <time>2026-04-30T10:35:45.999Z</time>
      </trkpt>
      <trkpt lat="43.9771" lon="3.0273">
        <ele>747.9</ele>
        <time>2026-04-30T10:35:46.999Z</time>
      </trkpt>
      <trkpt lat="43.97711" lon="3.02731">
        <ele>748</ele>
        <time>2026-04-30T10:35:47.999Z</time>
      </trkpt>
      <trkpt lat="43.97712" lon="3.02732">
        <ele>748.2</ele>
        <time>2026-04-30T10:35:48.999Z</time>
      </trkpt>
      <trkpt lat="43.97712" lon="3.02733">
        <ele>748.2</ele>
        <time>2026-04-30T10:35:49.999Z</time>
      </trkpt>
      <trkpt lat="43.97713" lon="3.02733">
        <ele>748</ele>
        <time>2026-04-30T10:35:50.999Z</time>
      </trkpt>
      <trkpt lat="43.97714" lon="3.02734">
        <ele>748.2</ele>
        <time>2026-04-30T10:35:51.999Z</time>
      </trkpt>
      <trkpt lat="43.97714" lon="3.02735">
        <ele>748.3</ele>
        <time>2026-04-30T10:35:52.999Z</time>
      </trkpt>
      <trkpt lat="43.97714" lon="3.02736">
        <ele>748.5</ele>
        <time>2026-04-30T10:35:53.999Z</time>
      </trkpt>
      <trkpt lat="43.97714" lon="3.02736">
        <ele>749.1</ele>
        <time>2026-04-30T10:35:54.999Z</time>
      </trkpt>
      <trkpt lat="43.97714" lon="3.02737">
        <ele>749.3</ele>
        <time>2026-04-30T10:35:55.999Z</time>
      </trkpt>
      <trkpt lat="43.97714" lon="3.02737">
        <ele>749.7</ele>
        <time>2026-04-30T10:35:56.999Z</time>
      </trkpt>
      <trkpt lat="43.97715" lon="3.02739">
        <ele>750.5</ele>
        <time>2026-04-30T10:35:57.999Z</time>
      </trkpt>
      <trkpt lat="43.97715" lon="3.0274">
        <ele>750.9</ele>
        <time>2026-04-30T10:35:58.999Z</time>
      </trkpt>
      <trkpt lat="43.97716" lon="3.02741">
        <ele>751.2</ele>
        <time>2026-04-30T10:35:59.999Z</time>
      </trkpt>
      <trkpt lat="43.97716" lon="3.02742">
        <ele>751</ele>
        <time>2026-04-30T10:36:00.999Z</time>
      </trkpt>
      <trkpt lat="43.97717" lon="3.02743">
        <ele>751</ele>
        <time>2026-04-30T10:36:01.999Z</time>
      </trkpt>
      <trkpt lat="43.97717" lon="3.02744">
        <ele>751</ele>
        <time>2026-04-30T10:36:02.999Z</time>
      </trkpt>
      <trkpt lat="43.97718" lon="3.02745">
        <ele>751.1</ele>
        <time>2026-04-30T10:36:03.999Z</time>
      </trkpt>
      <trkpt lat="43.97718" lon="3.02746">
        <ele>750.9</ele>
        <time>2026-04-30T10:36:04.999Z</time>
      </trkpt>
      <trkpt lat="43.97719" lon="3.02747">
        <ele>751.3</ele>
        <time>2026-04-30T10:36:05.999Z</time>
      </trkpt>
      <trkpt lat="43.9772" lon="3.02747">
        <ele>751.2</ele>
        <time>2026-04-30T10:36:06.999Z</time>
      </trkpt>
      <trkpt lat="43.97721" lon="3.02747">
        <ele>751.1</ele>
        <time>2026-04-30T10:36:07.999Z</time>
      </trkpt>
      <trkpt lat="43.97721" lon="3.02748">
        <ele>751.2</ele>
        <time>2026-04-30T10:36:08.999Z</time>
      </trkpt>
      <trkpt lat="43.97722" lon="3.02749">
        <ele>751.4</ele>
        <time>2026-04-30T10:36:09.999Z</time>
      </trkpt>
      <trkpt lat="43.97723" lon="3.0275">
        <ele>751.8</ele>
        <time>2026-04-30T10:36:10.999Z</time>
      </trkpt>
      <trkpt lat="43.97724" lon="3.02751">
        <ele>752.1</ele>
        <time>2026-04-30T10:36:11.999Z</time>
      </trkpt>
      <trkpt lat="43.97725" lon="3.02753">
        <ele>752.4</ele>
        <time>2026-04-30T10:36:12.999Z</time>
      </trkpt>
      <trkpt lat="43.97726" lon="3.02754">
        <ele>753</ele>
        <time>2026-04-30T10:36:13.999Z</time>
      </trkpt>
      <trkpt lat="43.97726" lon="3.02755">
        <ele>753.1</ele>
        <time>2026-04-30T10:36:14.999Z</time>
      </trkpt>
      <trkpt lat="43.97727" lon="3.02756">
        <ele>753</ele>
        <time>2026-04-30T10:36:15.999Z</time>
      </trkpt>
      <trkpt lat="43.97728" lon="3.02757">
        <ele>753</ele>
        <time>2026-04-30T10:36:16.999Z</time>
      </trkpt>
      <trkpt lat="43.97728" lon="3.02759">
        <ele>753.2</ele>
        <time>2026-04-30T10:36:17.999Z</time>
      </trkpt>
      <trkpt lat="43.97729" lon="3.02759">
        <ele>753.4</ele>
        <time>2026-04-30T10:36:18.999Z</time>
      </trkpt>
      <trkpt lat="43.9773" lon="3.0276">
        <ele>753.6</ele>
        <time>2026-04-30T10:36:19.999Z</time>
      </trkpt>
      <trkpt lat="43.9773" lon="3.02761">
        <ele>754.1</ele>
        <time>2026-04-30T10:36:20.999Z</time>
      </trkpt>
      <trkpt lat="43.97731" lon="3.02762">
        <ele>754.4</ele>
        <time>2026-04-30T10:36:21.999Z</time>
      </trkpt>
      <trkpt lat="43.97731" lon="3.02763">
        <ele>754.4</ele>
        <time>2026-04-30T10:36:22.999Z</time>
      </trkpt>
      <trkpt lat="43.97732" lon="3.02764">
        <ele>754.4</ele>
        <time>2026-04-30T10:36:23.999Z</time>
      </trkpt>
      <trkpt lat="43.97733" lon="3.02765">
        <ele>754.5</ele>
        <time>2026-04-30T10:36:24.999Z</time>
      </trkpt>
      <trkpt lat="43.97734" lon="3.02766">
        <ele>754.7</ele>
        <time>2026-04-30T10:36:25.999Z</time>
      </trkpt>
      <trkpt lat="43.97734" lon="3.02768">
        <ele>755.2</ele>
        <time>2026-04-30T10:36:26.999Z</time>
      </trkpt>
      <trkpt lat="43.97735" lon="3.0277">
        <ele>755.4</ele>
        <time>2026-04-30T10:36:27.999Z</time>
      </trkpt>
      <trkpt lat="43.97736" lon="3.02771">
        <ele>755.5</ele>
        <time>2026-04-30T10:36:28.999Z</time>
      </trkpt>
      <trkpt lat="43.97736" lon="3.02772">
        <ele>755.6</ele>
        <time>2026-04-30T10:36:29.999Z</time>
      </trkpt>
      <trkpt lat="43.97736" lon="3.02774">
        <ele>755.5</ele>
        <time>2026-04-30T10:36:30.999Z</time>
      </trkpt>
      <trkpt lat="43.97737" lon="3.02776">
        <ele>755.4</ele>
        <time>2026-04-30T10:36:31.999Z</time>
      </trkpt>
      <trkpt lat="43.97737" lon="3.02778">
        <ele>755.6</ele>
        <time>2026-04-30T10:36:32.999Z</time>
      </trkpt>
      <trkpt lat="43.97737" lon="3.02779">
        <ele>755.5</ele>
        <time>2026-04-30T10:36:33.999Z</time>
      </trkpt>
      <trkpt lat="43.97738" lon="3.0278">
        <ele>755.5</ele>
        <time>2026-04-30T10:36:34.999Z</time>
      </trkpt>
      <trkpt lat="43.97739" lon="3.0278">
        <ele>755.5</ele>
        <time>2026-04-30T10:36:35.999Z</time>
      </trkpt>
      <trkpt lat="43.9774" lon="3.02781">
        <ele>755.8</ele>
        <time>2026-04-30T10:36:36.999Z</time>
      </trkpt>
      <trkpt lat="43.9774" lon="3.02782">
        <ele>756</ele>
        <time>2026-04-30T10:36:37.999Z</time>
      </trkpt>
      <trkpt lat="43.97741" lon="3.02782">
        <ele>756</ele>
        <time>2026-04-30T10:36:38.999Z</time>
      </trkpt>
      <trkpt lat="43.97741" lon="3.02783">
        <ele>756</ele>
        <time>2026-04-30T10:36:39.999Z</time>
      </trkpt>
      <trkpt lat="43.97741" lon="3.02784">
        <ele>756</ele>
        <time>2026-04-30T10:36:40.999Z</time>
      </trkpt>
      <trkpt lat="43.97742" lon="3.02786">
        <ele>756.7</ele>
        <time>2026-04-30T10:36:41.999Z</time>
      </trkpt>
      <trkpt lat="43.97743" lon="3.02788">
        <ele>757.2</ele>
        <time>2026-04-30T10:36:42.999Z</time>
      </trkpt>
      <trkpt lat="43.97744" lon="3.02789">
        <ele>757.4</ele>
        <time>2026-04-30T10:36:43.999Z</time>
      </trkpt>
      <trkpt lat="43.97745" lon="3.02789">
        <ele>757.3</ele>
        <time>2026-04-30T10:36:44.999Z</time>
      </trkpt>
      <trkpt lat="43.97746" lon="3.0279">
        <ele>757.4</ele>
        <time>2026-04-30T10:36:45.999Z</time>
      </trkpt>
      <trkpt lat="43.97746" lon="3.02792">
        <ele>757.4</ele>
        <time>2026-04-30T10:36:46.999Z</time>
      </trkpt>
      <trkpt lat="43.97746" lon="3.02793">
        <ele>757.1</ele>
        <time>2026-04-30T10:36:47.999Z</time>
      </trkpt>
      <trkpt lat="43.97747" lon="3.02793">
        <ele>757.1</ele>
        <time>2026-04-30T10:36:48.999Z</time>
      </trkpt>
      <trkpt lat="43.97748" lon="3.02794">
        <ele>757.3</ele>
        <time>2026-04-30T10:36:49.999Z</time>
      </trkpt>
      <trkpt lat="43.97748" lon="3.02796">
        <ele>757.5</ele>
        <time>2026-04-30T10:36:50.999Z</time>
      </trkpt>
      <trkpt lat="43.97749" lon="3.02797">
        <ele>757.7</ele>
        <time>2026-04-30T10:36:51.999Z</time>
      </trkpt>
      <trkpt lat="43.9775" lon="3.02797">
        <ele>757.8</ele>
        <time>2026-04-30T10:36:52.999Z</time>
      </trkpt>
      <trkpt lat="43.9775" lon="3.02797">
        <ele>757.8</ele>
        <time>2026-04-30T10:36:53.999Z</time>
      </trkpt>
      <trkpt lat="43.97751" lon="3.02798">
        <ele>757.9</ele>
        <time>2026-04-30T10:36:54.999Z</time>
      </trkpt>
      <trkpt lat="43.97753" lon="3.02799">
        <ele>757.7</ele>
        <time>2026-04-30T10:36:55.999Z</time>
      </trkpt>
      <trkpt lat="43.97754" lon="3.028">
        <ele>757.4</ele>
        <time>2026-04-30T10:36:56.999Z</time>
      </trkpt>
      <trkpt lat="43.97755" lon="3.02801">
        <ele>757.4</ele>
        <time>2026-04-30T10:36:57.999Z</time>
      </trkpt>
      <trkpt lat="43.97755" lon="3.02803">
        <ele>757.3</ele>
        <time>2026-04-30T10:36:58.999Z</time>
      </trkpt>
      <trkpt lat="43.97756" lon="3.02804">
        <ele>757.1</ele>
        <time>2026-04-30T10:36:59.999Z</time>
      </trkpt>
      <trkpt lat="43.97756" lon="3.02807">
        <ele>757.3</ele>
        <time>2026-04-30T10:37:00.999Z</time>
      </trkpt>
      <trkpt lat="43.97757" lon="3.02808">
        <ele>757.3</ele>
        <time>2026-04-30T10:37:01.999Z</time>
      </trkpt>
      <trkpt lat="43.97757" lon="3.0281">
        <ele>757.2</ele>
        <time>2026-04-30T10:37:02.999Z</time>
      </trkpt>
      <trkpt lat="43.97757" lon="3.02812">
        <ele>757.2</ele>
        <time>2026-04-30T10:37:03.999Z</time>
      </trkpt>
      <trkpt lat="43.97758" lon="3.02814">
        <ele>757.1</ele>
        <time>2026-04-30T10:37:04.999Z</time>
      </trkpt>
      <trkpt lat="43.97758" lon="3.02816">
        <ele>757.2</ele>
        <time>2026-04-30T10:37:05.999Z</time>
      </trkpt>
      <trkpt lat="43.97758" lon="3.02818">
        <ele>757.5</ele>
        <time>2026-04-30T10:37:06.999Z</time>
      </trkpt>
      <trkpt lat="43.97758" lon="3.02819">
        <ele>757.6</ele>
        <time>2026-04-30T10:37:07.999Z</time>
      </trkpt>
      <trkpt lat="43.97758" lon="3.0282">
        <ele>757.7</ele>
        <time>2026-04-30T10:37:08.999Z</time>
      </trkpt>
      <trkpt lat="43.97758" lon="3.02822">
        <ele>758.3</ele>
        <time>2026-04-30T10:37:09.999Z</time>
      </trkpt>
      <trkpt lat="43.97759" lon="3.02823">
        <ele>759.1</ele>
        <time>2026-04-30T10:37:10.999Z</time>
      </trkpt>
      <trkpt lat="43.9776" lon="3.02825">
        <ele>759.3</ele>
        <time>2026-04-30T10:37:11.999Z</time>
      </trkpt>
      <trkpt lat="43.97761" lon="3.02826">
        <ele>759.5</ele>
        <time>2026-04-30T10:37:12.999Z</time>
      </trkpt>
      <trkpt lat="43.97761" lon="3.02827">
        <ele>759.9</ele>
        <time>2026-04-30T10:37:13.999Z</time>
      </trkpt>
      <trkpt lat="43.97762" lon="3.02829">
        <ele>760.1</ele>
        <time>2026-04-30T10:37:14.999Z</time>
      </trkpt>
      <trkpt lat="43.97762" lon="3.0283">
        <ele>760.2</ele>
        <time>2026-04-30T10:37:15.999Z</time>
      </trkpt>
      <trkpt lat="43.97763" lon="3.02831">
        <ele>760.1</ele>
        <time>2026-04-30T10:37:16.999Z</time>
      </trkpt>
      <trkpt lat="43.97763" lon="3.02832">
        <ele>760.2</ele>
        <time>2026-04-30T10:37:17.999Z</time>
      </trkpt>
      <trkpt lat="43.97764" lon="3.02833">
        <ele>760.2</ele>
        <time>2026-04-30T10:37:18.999Z</time>
      </trkpt>
      <trkpt lat="43.97765" lon="3.02834">
        <ele>760.2</ele>
        <time>2026-04-30T10:37:19.999Z</time>
      </trkpt>
      <trkpt lat="43.97766" lon="3.02835">
        <ele>760.1</ele>
        <time>2026-04-30T10:37:20.999Z</time>
      </trkpt>
      <trkpt lat="43.97766" lon="3.02836">
        <ele>760.4</ele>
        <time>2026-04-30T10:37:21.999Z</time>
      </trkpt>
      <trkpt lat="43.97767" lon="3.02836">
        <ele>760.6</ele>
        <time>2026-04-30T10:37:22.999Z</time>
      </trkpt>
      <trkpt lat="43.97767" lon="3.02838">
        <ele>760.9</ele>
        <time>2026-04-30T10:37:23.999Z</time>
      </trkpt>
      <trkpt lat="43.97768" lon="3.0284">
        <ele>761.3</ele>
        <time>2026-04-30T10:37:24.999Z</time>
      </trkpt>
      <trkpt lat="43.97768" lon="3.02842">
        <ele>761.5</ele>
        <time>2026-04-30T10:37:25.999Z</time>
      </trkpt>
      <trkpt lat="43.97769" lon="3.02843">
        <ele>761.8</ele>
        <time>2026-04-30T10:37:26.999Z</time>
      </trkpt>
      <trkpt lat="43.9777" lon="3.02844">
        <ele>761.9</ele>
        <time>2026-04-30T10:37:27.999Z</time>
      </trkpt>
      <trkpt lat="43.97772" lon="3.02845">
        <ele>761.6</ele>
        <time>2026-04-30T10:37:28.999Z</time>
      </trkpt>
      <trkpt lat="43.97772" lon="3.02848">
        <ele>762.1</ele>
        <time>2026-04-30T10:37:29.999Z</time>
      </trkpt>
      <trkpt lat="43.97772" lon="3.0285">
        <ele>762.7</ele>
        <time>2026-04-30T10:37:30.999Z</time>
      </trkpt>
      <trkpt lat="43.97772" lon="3.02852">
        <ele>763.3</ele>
        <time>2026-04-30T10:37:31.999Z</time>
      </trkpt>
      <trkpt lat="43.97772" lon="3.02854">
        <ele>764.1</ele>
        <time>2026-04-30T10:37:32.999Z</time>
      </trkpt>
      <trkpt lat="43.97772" lon="3.02856">
        <ele>764.5</ele>
        <time>2026-04-30T10:37:33.999Z</time>
      </trkpt>
      <trkpt lat="43.97772" lon="3.02857">
        <ele>764.8</ele>
        <time>2026-04-30T10:37:34.999Z</time>
      </trkpt>
      <trkpt lat="43.97771" lon="3.02859">
        <ele>765</ele>
        <time>2026-04-30T10:37:35.999Z</time>
      </trkpt>
      <trkpt lat="43.97771" lon="3.02861">
        <ele>765.2</ele>
        <time>2026-04-30T10:37:36.999Z</time>
      </trkpt>
      <trkpt lat="43.97771" lon="3.02863">
        <ele>765.7</ele>
        <time>2026-04-30T10:37:37.999Z</time>
      </trkpt>
      <trkpt lat="43.97772" lon="3.02865">
        <ele>766.2</ele>
        <time>2026-04-30T10:37:38.999Z</time>
      </trkpt>
      <trkpt lat="43.97772" lon="3.02866">
        <ele>766.7</ele>
        <time>2026-04-30T10:37:39.999Z</time>
      </trkpt>
      <trkpt lat="43.97772" lon="3.02867">
        <ele>766.8</ele>
        <time>2026-04-30T10:37:40.999Z</time>
      </trkpt>
      <trkpt lat="43.97773" lon="3.02868">
        <ele>766.8</ele>
        <time>2026-04-30T10:37:41.999Z</time>
      </trkpt>
      <trkpt lat="43.97773" lon="3.02869">
        <ele>766.8</ele>
        <time>2026-04-30T10:37:42.999Z</time>
      </trkpt>
      <trkpt lat="43.97773" lon="3.02871">
        <ele>767.1</ele>
        <time>2026-04-30T10:37:43.999Z</time>
      </trkpt>
      <trkpt lat="43.97774" lon="3.02872">
        <ele>767.2</ele>
        <time>2026-04-30T10:37:44.999Z</time>
      </trkpt>
      <trkpt lat="43.97774" lon="3.02873">
        <ele>767.1</ele>
        <time>2026-04-30T10:37:45.999Z</time>
      </trkpt>
      <trkpt lat="43.97774" lon="3.02874">
        <ele>767.5</ele>
        <time>2026-04-30T10:37:46.999Z</time>
      </trkpt>
      <trkpt lat="43.97774" lon="3.02876">
        <ele>768</ele>
        <time>2026-04-30T10:37:47.999Z</time>
      </trkpt>
      <trkpt lat="43.97774" lon="3.02878">
        <ele>768.4</ele>
        <time>2026-04-30T10:37:48.999Z</time>
      </trkpt>
      <trkpt lat="43.97774" lon="3.0288">
        <ele>768.5</ele>
        <time>2026-04-30T10:37:49.999Z</time>
      </trkpt>
      <trkpt lat="43.97774" lon="3.02881">
        <ele>769</ele>
        <time>2026-04-30T10:37:50.999Z</time>
      </trkpt>
      <trkpt lat="43.97775" lon="3.02882">
        <ele>769.1</ele>
        <time>2026-04-30T10:37:51.999Z</time>
      </trkpt>
      <trkpt lat="43.97775" lon="3.02883">
        <ele>768.9</ele>
        <time>2026-04-30T10:37:52.999Z</time>
      </trkpt>
      <trkpt lat="43.97776" lon="3.02884">
        <ele>768.4</ele>
        <time>2026-04-30T10:37:53.999Z</time>
      </trkpt>
      <trkpt lat="43.97777" lon="3.02885">
        <ele>768.3</ele>
        <time>2026-04-30T10:37:54.999Z</time>
      </trkpt>
      <trkpt lat="43.97777" lon="3.02887">
        <ele>768</ele>
        <time>2026-04-30T10:37:55.999Z</time>
      </trkpt>
      <trkpt lat="43.97777" lon="3.02888">
        <ele>767.6</ele>
        <time>2026-04-30T10:37:56.999Z</time>
      </trkpt>
      <trkpt lat="43.97778" lon="3.02889">
        <ele>767.5</ele>
        <time>2026-04-30T10:37:57.999Z</time>
      </trkpt>
      <trkpt lat="43.97779" lon="3.02891">
        <ele>767.4</ele>
        <time>2026-04-30T10:37:58.999Z</time>
      </trkpt>
      <trkpt lat="43.97779" lon="3.02894">
        <ele>767</ele>
        <time>2026-04-30T10:37:59.999Z</time>
      </trkpt>
      <trkpt lat="43.97779" lon="3.02895">
        <ele>767</ele>
        <time>2026-04-30T10:38:00.999Z</time>
      </trkpt>
      <trkpt lat="43.97779" lon="3.02896">
        <ele>766.9</ele>
        <time>2026-04-30T10:38:01.999Z</time>
      </trkpt>
      <trkpt lat="43.97779" lon="3.02898">
        <ele>766.7</ele>
        <time>2026-04-30T10:38:02.999Z</time>
      </trkpt>
      <trkpt lat="43.9778" lon="3.02899">
        <ele>766.7</ele>
        <time>2026-04-30T10:38:03.999Z</time>
      </trkpt>
      <trkpt lat="43.9778" lon="3.029">
        <ele>766.9</ele>
        <time>2026-04-30T10:38:04.999Z</time>
      </trkpt>
      <trkpt lat="43.9778" lon="3.02902">
        <ele>767</ele>
        <time>2026-04-30T10:38:05.999Z</time>
      </trkpt>
      <trkpt lat="43.97781" lon="3.02903">
        <ele>767.3</ele>
        <time>2026-04-30T10:38:06.999Z</time>
      </trkpt>
      <trkpt lat="43.97781" lon="3.02905">
        <ele>767.5</ele>
        <time>2026-04-30T10:38:07.999Z</time>
      </trkpt>
      <trkpt lat="43.97781" lon="3.02906">
        <ele>767.4</ele>
        <time>2026-04-30T10:38:08.999Z</time>
      </trkpt>
      <trkpt lat="43.97781" lon="3.02907">
        <ele>767.5</ele>
        <time>2026-04-30T10:38:09.999Z</time>
      </trkpt>
      <trkpt lat="43.97782" lon="3.02908">
        <ele>767.6</ele>
        <time>2026-04-30T10:38:10.999Z</time>
      </trkpt>
      <trkpt lat="43.97782" lon="3.02909">
        <ele>767.7</ele>
        <time>2026-04-30T10:38:11.999Z</time>
      </trkpt>
      <trkpt lat="43.97783" lon="3.0291">
        <ele>767.9</ele>
        <time>2026-04-30T10:38:12.999Z</time>
      </trkpt>
      <trkpt lat="43.97783" lon="3.02911">
        <ele>768.1</ele>
        <time>2026-04-30T10:38:13.999Z</time>
      </trkpt>
      <trkpt lat="43.97783" lon="3.02912">
        <ele>768.4</ele>
        <time>2026-04-30T10:38:14.999Z</time>
      </trkpt>
      <trkpt lat="43.97784" lon="3.02913">
        <ele>768.9</ele>
        <time>2026-04-30T10:38:15.999Z</time>
      </trkpt>
      <trkpt lat="43.97785" lon="3.02914">
        <ele>769.2</ele>
        <time>2026-04-30T10:38:16.999Z</time>
      </trkpt>
      <trkpt lat="43.97785" lon="3.02915">
        <ele>769.5</ele>
        <time>2026-04-30T10:38:17.999Z</time>
      </trkpt>
      <trkpt lat="43.97785" lon="3.02916">
        <ele>769.9</ele>
        <time>2026-04-30T10:38:18.999Z</time>
      </trkpt>
      <trkpt lat="43.97786" lon="3.02918">
        <ele>770</ele>
        <time>2026-04-30T10:38:19.999Z</time>
      </trkpt>
      <trkpt lat="43.97786" lon="3.02918">
        <ele>770.2</ele>
        <time>2026-04-30T10:38:20.999Z</time>
      </trkpt>
      <trkpt lat="43.97786" lon="3.02918">
        <ele>770.3</ele>
        <time>2026-04-30T10:38:21.999Z</time>
      </trkpt>
      <trkpt lat="43.97787" lon="3.02918">
        <ele>770.1</ele>
        <time>2026-04-30T10:38:22.999Z</time>
      </trkpt>
      <trkpt lat="43.97787" lon="3.02919">
        <ele>770.1</ele>
        <time>2026-04-30T10:38:23.999Z</time>
      </trkpt>
      <trkpt lat="43.97788" lon="3.0292">
        <ele>769.9</ele>
        <time>2026-04-30T10:38:24.999Z</time>
      </trkpt>
      <trkpt lat="43.97789" lon="3.02921">
        <ele>770</ele>
        <time>2026-04-30T10:38:25.999Z</time>
      </trkpt>
      <trkpt lat="43.9779" lon="3.02922">
        <ele>770.6</ele>
        <time>2026-04-30T10:38:26.999Z</time>
      </trkpt>
      <trkpt lat="43.9779" lon="3.02923">
        <ele>770.8</ele>
        <time>2026-04-30T10:38:27.999Z</time>
      </trkpt>
      <trkpt lat="43.9779" lon="3.02925">
        <ele>771.1</ele>
        <time>2026-04-30T10:38:28.999Z</time>
      </trkpt>
      <trkpt lat="43.9779" lon="3.02926">
        <ele>771.4</ele>
        <time>2026-04-30T10:38:29.999Z</time>
      </trkpt>
      <trkpt lat="43.9779" lon="3.02927">
        <ele>771.6</ele>
        <time>2026-04-30T10:38:30.999Z</time>
      </trkpt>
      <trkpt lat="43.9779" lon="3.02928">
        <ele>771.9</ele>
        <time>2026-04-30T10:38:31.999Z</time>
      </trkpt>
      <trkpt lat="43.9779" lon="3.02928">
        <ele>772.2</ele>
        <time>2026-04-30T10:38:32.999Z</time>
      </trkpt>
      <trkpt lat="43.9779" lon="3.02929">
        <ele>772.7</ele>
        <time>2026-04-30T10:38:33.999Z</time>
      </trkpt>
      <trkpt lat="43.97791" lon="3.0293">
        <ele>773.1</ele>
        <time>2026-04-30T10:38:34.999Z</time>
      </trkpt>
      <trkpt lat="43.97791" lon="3.02931">
        <ele>773.3</ele>
        <time>2026-04-30T10:38:35.999Z</time>
      </trkpt>
      <trkpt lat="43.97792" lon="3.02931">
        <ele>773.5</ele>
        <time>2026-04-30T10:38:36.999Z</time>
      </trkpt>
      <trkpt lat="43.97792" lon="3.02933">
        <ele>773.8</ele>
        <time>2026-04-30T10:38:37.999Z</time>
      </trkpt>
      <trkpt lat="43.97792" lon="3.02934">
        <ele>774</ele>
        <time>2026-04-30T10:38:38.999Z</time>
      </trkpt>
      <trkpt lat="43.97792" lon="3.02934">
        <ele>774.1</ele>
        <time>2026-04-30T10:38:39.999Z</time>
      </trkpt>
      <trkpt lat="43.97793" lon="3.02935">
        <ele>774.1</ele>
        <time>2026-04-30T10:38:40.999Z</time>
      </trkpt>
      <trkpt lat="43.97794" lon="3.02936">
        <ele>774.1</ele>
        <time>2026-04-30T10:38:41.999Z</time>
      </trkpt>
      <trkpt lat="43.97794" lon="3.02937">
        <ele>774.1</ele>
        <time>2026-04-30T10:38:42.999Z</time>
      </trkpt>
      <trkpt lat="43.97795" lon="3.02937">
        <ele>774</ele>
        <time>2026-04-30T10:38:43.999Z</time>
      </trkpt>
      <trkpt lat="43.97795" lon="3.02938">
        <ele>773.9</ele>
        <time>2026-04-30T10:38:44.999Z</time>
      </trkpt>
      <trkpt lat="43.97795" lon="3.0294">
        <ele>774.2</ele>
        <time>2026-04-30T10:38:45.999Z</time>
      </trkpt>
      <trkpt lat="43.97795" lon="3.02942">
        <ele>774.4</ele>
        <time>2026-04-30T10:38:46.999Z</time>
      </trkpt>
      <trkpt lat="43.97795" lon="3.02943">
        <ele>774.5</ele>
        <time>2026-04-30T10:38:47.999Z</time>
      </trkpt>
      <trkpt lat="43.97795" lon="3.02944">
        <ele>774.6</ele>
        <time>2026-04-30T10:38:48.999Z</time>
      </trkpt>
      <trkpt lat="43.97796" lon="3.02946">
        <ele>774.7</ele>
        <time>2026-04-30T10:38:49.999Z</time>
      </trkpt>
      <trkpt lat="43.97796" lon="3.02946">
        <ele>775.1</ele>
        <time>2026-04-30T10:38:50.999Z</time>
      </trkpt>
      <trkpt lat="43.97796" lon="3.02947">
        <ele>775.7</ele>
        <time>2026-04-30T10:38:51.999Z</time>
      </trkpt>
      <trkpt lat="43.97796" lon="3.02947">
        <ele>776</ele>
        <time>2026-04-30T10:38:52.999Z</time>
      </trkpt>
      <trkpt lat="43.97796" lon="3.02948">
        <ele>776.5</ele>
        <time>2026-04-30T10:38:53.999Z</time>
      </trkpt>
      <trkpt lat="43.97797" lon="3.02949">
        <ele>776.9</ele>
        <time>2026-04-30T10:38:54.999Z</time>
      </trkpt>
      <trkpt lat="43.97797" lon="3.02951">
        <ele>777.1</ele>
        <time>2026-04-30T10:38:55.999Z</time>
      </trkpt>
      <trkpt lat="43.97797" lon="3.02952">
        <ele>777.5</ele>
        <time>2026-04-30T10:38:56.999Z</time>
      </trkpt>
      <trkpt lat="43.97798" lon="3.02953">
        <ele>778</ele>
        <time>2026-04-30T10:38:57.999Z</time>
      </trkpt>
      <trkpt lat="43.97798" lon="3.02954">
        <ele>778.6</ele>
        <time>2026-04-30T10:38:58.999Z</time>
      </trkpt>
      <trkpt lat="43.97798" lon="3.02955">
        <ele>779</ele>
        <time>2026-04-30T10:38:59.999Z</time>
      </trkpt>
      <trkpt lat="43.97799" lon="3.02956">
        <ele>779</ele>
        <time>2026-04-30T10:39:00.999Z</time>
      </trkpt>
      <trkpt lat="43.978" lon="3.02957">
        <ele>778.7</ele>
        <time>2026-04-30T10:39:01.999Z</time>
      </trkpt>
      <trkpt lat="43.97801" lon="3.02958">
        <ele>778.7</ele>
        <time>2026-04-30T10:39:02.999Z</time>
      </trkpt>
      <trkpt lat="43.97801" lon="3.02958">
        <ele>778.9</ele>
        <time>2026-04-30T10:39:03.999Z</time>
      </trkpt>
      <trkpt lat="43.97801" lon="3.0296">
        <ele>778.6</ele>
        <time>2026-04-30T10:39:04.999Z</time>
      </trkpt>
      <trkpt lat="43.97801" lon="3.02961">
        <ele>778.7</ele>
        <time>2026-04-30T10:39:05.999Z</time>
      </trkpt>
      <trkpt lat="43.97801" lon="3.02961">
        <ele>779</ele>
        <time>2026-04-30T10:39:06.999Z</time>
      </trkpt>
      <trkpt lat="43.97802" lon="3.02963">
        <ele>779.3</ele>
        <time>2026-04-30T10:39:07.999Z</time>
      </trkpt>
      <trkpt lat="43.97801" lon="3.02964">
        <ele>779.4</ele>
        <time>2026-04-30T10:39:08.999Z</time>
      </trkpt>
      <trkpt lat="43.97802" lon="3.02965">
        <ele>779.8</ele>
        <time>2026-04-30T10:39:09.999Z</time>
      </trkpt>
      <trkpt lat="43.97802" lon="3.02966">
        <ele>780.2</ele>
        <time>2026-04-30T10:39:10.999Z</time>
      </trkpt>
      <trkpt lat="43.97802" lon="3.02967">
        <ele>780.5</ele>
        <time>2026-04-30T10:39:11.999Z</time>
      </trkpt>
      <trkpt lat="43.97802" lon="3.02968">
        <ele>780.7</ele>
        <time>2026-04-30T10:39:12.999Z</time>
      </trkpt>
      <trkpt lat="43.97802" lon="3.02969">
        <ele>781.3</ele>
        <time>2026-04-30T10:39:13.999Z</time>
      </trkpt>
      <trkpt lat="43.97802" lon="3.0297">
        <ele>781.7</ele>
        <time>2026-04-30T10:39:14.999Z</time>
      </trkpt>
      <trkpt lat="43.97802" lon="3.02972">
        <ele>782.2</ele>
        <time>2026-04-30T10:39:15.999Z</time>
      </trkpt>
      <trkpt lat="43.97803" lon="3.02974">
        <ele>782.6</ele>
        <time>2026-04-30T10:39:16.999Z</time>
      </trkpt>
      <trkpt lat="43.97803" lon="3.02975">
        <ele>782.7</ele>
        <time>2026-04-30T10:39:17.999Z</time>
      </trkpt>
      <trkpt lat="43.97803" lon="3.02975">
        <ele>783</ele>
        <time>2026-04-30T10:39:18.999Z</time>
      </trkpt>
      <trkpt lat="43.97803" lon="3.02976">
        <ele>783.2</ele>
        <time>2026-04-30T10:39:19.999Z</time>
      </trkpt>
      <trkpt lat="43.97804" lon="3.02977">
        <ele>783.3</ele>
        <time>2026-04-30T10:39:20.999Z</time>
      </trkpt>
      <trkpt lat="43.97804" lon="3.02978">
        <ele>783.5</ele>
        <time>2026-04-30T10:39:21.999Z</time>
      </trkpt>
      <trkpt lat="43.97804" lon="3.02979">
        <ele>783.4</ele>
        <time>2026-04-30T10:39:22.999Z</time>
      </trkpt>
      <trkpt lat="43.97804" lon="3.0298">
        <ele>783.6</ele>
        <time>2026-04-30T10:39:23.999Z</time>
      </trkpt>
      <trkpt lat="43.97805" lon="3.02981">
        <ele>783.5</ele>
        <time>2026-04-30T10:39:24.999Z</time>
      </trkpt>
      <trkpt lat="43.97805" lon="3.02982">
        <ele>783.6</ele>
        <time>2026-04-30T10:39:25.999Z</time>
      </trkpt>
      <trkpt lat="43.97806" lon="3.02982">
        <ele>783.4</ele>
        <time>2026-04-30T10:39:26.999Z</time>
      </trkpt>
      <trkpt lat="43.97806" lon="3.02983">
        <ele>783</ele>
        <time>2026-04-30T10:39:27.999Z</time>
      </trkpt>
      <trkpt lat="43.97806" lon="3.02983">
        <ele>783.1</ele>
        <time>2026-04-30T10:39:28.999Z</time>
      </trkpt>
      <trkpt lat="43.97807" lon="3.02983">
        <ele>783.2</ele>
        <time>2026-04-30T10:39:29.999Z</time>
      </trkpt>
      <trkpt lat="43.97808" lon="3.02984">
        <ele>783.2</ele>
        <time>2026-04-30T10:39:30.999Z</time>
      </trkpt>
      <trkpt lat="43.97809" lon="3.02985">
        <ele>783.3</ele>
        <time>2026-04-30T10:39:31.999Z</time>
      </trkpt>
      <trkpt lat="43.97809" lon="3.02985">
        <ele>783.3</ele>
        <time>2026-04-30T10:39:32.999Z</time>
      </trkpt>
      <trkpt lat="43.97809" lon="3.02985">
        <ele>783.3</ele>
        <time>2026-04-30T10:39:33.999Z</time>
      </trkpt>
      <trkpt lat="43.97809" lon="3.02986">
        <ele>783.4</ele>
        <time>2026-04-30T10:39:34.999Z</time>
      </trkpt>
      <trkpt lat="43.97809" lon="3.02987">
        <ele>783.3</ele>
        <time>2026-04-30T10:39:35.999Z</time>
      </trkpt>
      <trkpt lat="43.97809" lon="3.02988">
        <ele>783.2</ele>
        <time>2026-04-30T10:39:36.999Z</time>
      </trkpt>
      <trkpt lat="43.97809" lon="3.02989">
        <ele>783</ele>
        <time>2026-04-30T10:39:37.999Z</time>
      </trkpt>
      <trkpt lat="43.9781" lon="3.0299">
        <ele>783.1</ele>
        <time>2026-04-30T10:39:38.999Z</time>
      </trkpt>
      <trkpt lat="43.9781" lon="3.02992">
        <ele>783.3</ele>
        <time>2026-04-30T10:39:39.999Z</time>
      </trkpt>
      <trkpt lat="43.9781" lon="3.02993">
        <ele>783.5</ele>
        <time>2026-04-30T10:39:40.999Z</time>
      </trkpt>
      <trkpt lat="43.9781" lon="3.02994">
        <ele>783.8</ele>
        <time>2026-04-30T10:39:41.999Z</time>
      </trkpt>
      <trkpt lat="43.9781" lon="3.02995">
        <ele>784</ele>
        <time>2026-04-30T10:39:42.999Z</time>
      </trkpt>
      <trkpt lat="43.97809" lon="3.02995">
        <ele>784.4</ele>
        <time>2026-04-30T10:39:43.999Z</time>
      </trkpt>
      <trkpt lat="43.97809" lon="3.02996">
        <ele>784.7</ele>
        <time>2026-04-30T10:39:44.999Z</time>
      </trkpt>
      <trkpt lat="43.97809" lon="3.02996">
        <ele>784.6</ele>
        <time>2026-04-30T10:39:45.999Z</time>
      </trkpt>
      <trkpt lat="43.97809" lon="3.02996">
        <ele>784.9</ele>
        <time>2026-04-30T10:39:46.999Z</time>
      </trkpt>
      <trkpt lat="43.97809" lon="3.02996">
        <ele>785</ele>
        <time>2026-04-30T10:39:47.999Z</time>
      </trkpt>
      <trkpt lat="43.97809" lon="3.02996">
        <ele>785.3</ele>
        <time>2026-04-30T10:39:48.999Z</time>
      </trkpt>
      <trkpt lat="43.97809" lon="3.02997">
        <ele>785.3</ele>
        <time>2026-04-30T10:39:49.999Z</time>
      </trkpt>
      <trkpt lat="43.97809" lon="3.02997">
        <ele>785.3</ele>
        <time>2026-04-30T10:39:50.999Z</time>
      </trkpt>
      <trkpt lat="43.97809" lon="3.02997">
        <ele>785.3</ele>
        <time>2026-04-30T10:39:51.999Z</time>
      </trkpt>
      <trkpt lat="43.97809" lon="3.02997">
        <ele>785.4</ele>
        <time>2026-04-30T10:39:52.999Z</time>
      </trkpt>
      <trkpt lat="43.97809" lon="3.02997">
        <ele>785.4</ele>
        <time>2026-04-30T10:39:53.999Z</time>
      </trkpt>
      <trkpt lat="43.97809" lon="3.02997">
        <ele>785.1</ele>
        <time>2026-04-30T10:39:54.999Z</time>
      </trkpt>
      <trkpt lat="43.97809" lon="3.02997">
        <ele>785.4</ele>
        <time>2026-04-30T10:39:55.999Z</time>
      </trkpt>
      <trkpt lat="43.97809" lon="3.02997">
        <ele>785.6</ele>
        <time>2026-04-30T10:39:56.999Z</time>
      </trkpt>
      <trkpt lat="43.97809" lon="3.02997">
        <ele>785.8</ele>
        <time>2026-04-30T10:39:57.999Z</time>
      </trkpt>
      <trkpt lat="43.97809" lon="3.02997">
        <ele>786.1</ele>
        <time>2026-04-30T10:39:58.999Z</time>
      </trkpt>
      <trkpt lat="43.97809" lon="3.02997">
        <ele>786.5</ele>
        <time>2026-04-30T10:39:59.999Z</time>
      </trkpt>
      <trkpt lat="43.97809" lon="3.02997">
        <ele>787.1</ele>
        <time>2026-04-30T10:40:00.999Z</time>
      </trkpt>
      <trkpt lat="43.97809" lon="3.02997">
        <ele>787.5</ele>
        <time>2026-04-30T10:40:01.999Z</time>
      </trkpt>
      <trkpt lat="43.97809" lon="3.02997">
        <ele>787.7</ele>
        <time>2026-04-30T10:40:02.999Z</time>
      </trkpt>
      <trkpt lat="43.97809" lon="3.02997">
        <ele>787.8</ele>
        <time>2026-04-30T10:40:03.999Z</time>
      </trkpt>
      <trkpt lat="43.97809" lon="3.02997">
        <ele>787.8</ele>
        <time>2026-04-30T10:40:04.999Z</time>
      </trkpt>
      <trkpt lat="43.97809" lon="3.02997">
        <ele>787.9</ele>
        <time>2026-04-30T10:40:05.999Z</time>
      </trkpt>
      <trkpt lat="43.97809" lon="3.02997">
        <ele>788.2</ele>
        <time>2026-04-30T10:40:06.999Z</time>
      </trkpt>
      <trkpt lat="43.97809" lon="3.02998">
        <ele>788.5</ele>
        <time>2026-04-30T10:40:07.999Z</time>
      </trkpt>
      <trkpt lat="43.97809" lon="3.02998">
        <ele>788.3</ele>
        <time>2026-04-30T10:40:08.999Z</time>
      </trkpt>
      <trkpt lat="43.97809" lon="3.02998">
        <ele>788.4</ele>
        <time>2026-04-30T10:40:09.999Z</time>
      </trkpt>
      <trkpt lat="43.97809" lon="3.02999">
        <ele>788.6</ele>
        <time>2026-04-30T10:40:10.999Z</time>
      </trkpt>
      <trkpt lat="43.97809" lon="3.03">
        <ele>789</ele>
        <time>2026-04-30T10:40:11.999Z</time>
      </trkpt>
      <trkpt lat="43.97809" lon="3.03">
        <ele>789.4</ele>
        <time>2026-04-30T10:40:12.999Z</time>
      </trkpt>
      <trkpt lat="43.97808" lon="3.03">
        <ele>789.7</ele>
        <time>2026-04-30T10:40:13.999Z</time>
      </trkpt>
      <trkpt lat="43.97809" lon="3.03001">
        <ele>789.9</ele>
        <time>2026-04-30T10:40:14.999Z</time>
      </trkpt>
      <trkpt lat="43.97809" lon="3.03">
        <ele>790.1</ele>
        <time>2026-04-30T10:40:15.999Z</time>
      </trkpt>
      <trkpt lat="43.97808" lon="3.03">
        <ele>790.4</ele>
        <time>2026-04-30T10:40:16.999Z</time>
      </trkpt>
      <trkpt lat="43.97808" lon="3.03">
        <ele>790.7</ele>
        <time>2026-04-30T10:40:17.999Z</time>
      </trkpt>
      <trkpt lat="43.97808" lon="3.03">
        <ele>791.3</ele>
        <time>2026-04-30T10:40:18.999Z</time>
      </trkpt>
      <trkpt lat="43.97807" lon="3.03001">
        <ele>791.6</ele>
        <time>2026-04-30T10:40:19.999Z</time>
      </trkpt>
      <trkpt lat="43.97807" lon="3.03">
        <ele>791.2</ele>
        <time>2026-04-30T10:40:20.999Z</time>
      </trkpt>
      <trkpt lat="43.97808" lon="3.03">
        <ele>791.2</ele>
        <time>2026-04-30T10:40:21.999Z</time>
      </trkpt>
      <trkpt lat="43.97808" lon="3.03">
        <ele>791</ele>
        <time>2026-04-30T10:40:22.999Z</time>
      </trkpt>
      <trkpt lat="43.97809" lon="3.02999">
        <ele>790.9</ele>
        <time>2026-04-30T10:40:23.999Z</time>
      </trkpt>
      <trkpt lat="43.97809" lon="3.02999">
        <ele>790.7</ele>
        <time>2026-04-30T10:40:24.999Z</time>
      </trkpt>
      <trkpt lat="43.9781" lon="3.02999">
        <ele>790.6</ele>
        <time>2026-04-30T10:40:25.999Z</time>
      </trkpt>
      <trkpt lat="43.97811" lon="3.03">
        <ele>790.7</ele>
        <time>2026-04-30T10:40:26.999Z</time>
      </trkpt>
      <trkpt lat="43.97812" lon="3.03001">
        <ele>790.6</ele>
        <time>2026-04-30T10:40:28.999Z</time>
      </trkpt>
      <trkpt lat="43.97813" lon="3.03002">
        <ele>790.3</ele>
        <time>2026-04-30T10:40:29.999Z</time>
      </trkpt>
      <trkpt lat="43.97813" lon="3.03002">
        <ele>790.3</ele>
        <time>2026-04-30T10:40:30.999Z</time>
      </trkpt>
      <trkpt lat="43.97813" lon="3.03001">
        <ele>790.1</ele>
        <time>2026-04-30T10:40:31.999Z</time>
      </trkpt>
      <trkpt lat="43.97812" lon="3.03">
        <ele>790.1</ele>
        <time>2026-04-30T10:40:32.999Z</time>
      </trkpt>
      <trkpt lat="43.97812" lon="3.03">
        <ele>789.8</ele>
        <time>2026-04-30T10:40:33.999Z</time>
      </trkpt>
      <trkpt lat="43.97812" lon="3.03">
        <ele>787.6</ele>
        <time>2026-04-30T10:40:34.999Z</time>
      </trkpt>
      <trkpt lat="43.97812" lon="3.03">
        <ele>787.5</ele>
        <time>2026-04-30T10:40:35.999Z</time>
      </trkpt>
      <trkpt lat="43.97813" lon="3.03">
        <ele>787.5</ele>
        <time>2026-04-30T10:40:36.999Z</time>
      </trkpt>
      <trkpt lat="43.97813" lon="3.03">
        <ele>787.2</ele>
        <time>2026-04-30T10:40:37.999Z</time>
      </trkpt>
      <trkpt lat="43.97813" lon="3.03">
        <ele>787</ele>
        <time>2026-04-30T10:40:38.999Z</time>
      </trkpt>
      <trkpt lat="43.97812" lon="3.03">
        <ele>787</ele>
        <time>2026-04-30T10:40:39.999Z</time>
      </trkpt>
      <trkpt lat="43.97813" lon="3.03">
        <ele>786.8</ele>
        <time>2026-04-30T10:40:40.999Z</time>
      </trkpt>
      <trkpt lat="43.97813" lon="3.03001">
        <ele>786.7</ele>
        <time>2026-04-30T10:40:41.999Z</time>
      </trkpt>
      <trkpt lat="43.97813" lon="3.03001">
        <ele>786.5</ele>
        <time>2026-04-30T10:40:42.999Z</time>
      </trkpt>
      <trkpt lat="43.97813" lon="3.03003">
        <ele>786.4</ele>
        <time>2026-04-30T10:40:43.999Z</time>
      </trkpt>
      <trkpt lat="43.97813" lon="3.03003">
        <ele>786.4</ele>
        <time>2026-04-30T10:40:44.999Z</time>
      </trkpt>
      <trkpt lat="43.97813" lon="3.03003">
        <ele>786.3</ele>
        <time>2026-04-30T10:40:45.999Z</time>
      </trkpt>
      <trkpt lat="43.97814" lon="3.03003">
        <ele>786.2</ele>
        <time>2026-04-30T10:40:46.999Z</time>
      </trkpt>
      <trkpt lat="43.97814" lon="3.03003">
        <ele>786</ele>
        <time>2026-04-30T10:40:47.999Z</time>
      </trkpt>
      <trkpt lat="43.97814" lon="3.03004">
        <ele>785.9</ele>
        <time>2026-04-30T10:40:48.999Z</time>
      </trkpt>
      <trkpt lat="43.97814" lon="3.03003">
        <ele>786.4</ele>
        <time>2026-04-30T10:40:49.999Z</time>
      </trkpt>
      <trkpt lat="43.97814" lon="3.03002">
        <ele>786.7</ele>
        <time>2026-04-30T10:40:50.999Z</time>
      </trkpt>
      <trkpt lat="43.97813" lon="3.03001">
        <ele>786.4</ele>
        <time>2026-04-30T10:40:51.999Z</time>
      </trkpt>
      <trkpt lat="43.97812" lon="3.03">
        <ele>786.4</ele>
        <time>2026-04-30T10:40:52.999Z</time>
      </trkpt>
      <trkpt lat="43.97811" lon="3.02999">
        <ele>786.6</ele>
        <time>2026-04-30T10:40:53.999Z</time>
      </trkpt>
      <trkpt lat="43.97811" lon="3.02999">
        <ele>786.9</ele>
        <time>2026-04-30T10:40:54.999Z</time>
      </trkpt>
      <trkpt lat="43.9781" lon="3.02999">
        <ele>787.3</ele>
        <time>2026-04-30T10:40:55.999Z</time>
      </trkpt>
      <trkpt lat="43.9781" lon="3.02998">
        <ele>787.9</ele>
        <time>2026-04-30T10:40:56.999Z</time>
      </trkpt>
      <trkpt lat="43.9781" lon="3.02998">
        <ele>788.4</ele>
        <time>2026-04-30T10:40:57.999Z</time>
      </trkpt>
      <trkpt lat="43.9781" lon="3.02998">
        <ele>788.8</ele>
        <time>2026-04-30T10:40:58.999Z</time>
      </trkpt>
      <trkpt lat="43.9781" lon="3.02998">
        <ele>789.2</ele>
        <time>2026-04-30T10:40:59.999Z</time>
      </trkpt>
      <trkpt lat="43.9781" lon="3.02998">
        <ele>789</ele>
        <time>2026-04-30T10:41:00.999Z</time>
      </trkpt>
      <trkpt lat="43.9781" lon="3.02998">
        <ele>789.2</ele>
        <time>2026-04-30T10:41:01.999Z</time>
      </trkpt>
      <trkpt lat="43.9781" lon="3.02998">
        <ele>789.3</ele>
        <time>2026-04-30T10:41:02.999Z</time>
      </trkpt>
      <trkpt lat="43.9781" lon="3.02998">
        <ele>789.4</ele>
        <time>2026-04-30T10:41:03.999Z</time>
      </trkpt>
      <trkpt lat="43.9781" lon="3.02998">
        <ele>789.1</ele>
        <time>2026-04-30T10:41:04.999Z</time>
      </trkpt>
      <trkpt lat="43.9781" lon="3.02998">
        <ele>788.9</ele>
        <time>2026-04-30T10:41:05.999Z</time>
      </trkpt>
      <trkpt lat="43.9781" lon="3.02998">
        <ele>788.8</ele>
        <time>2026-04-30T10:41:06.999Z</time>
      </trkpt>
      <trkpt lat="43.9781" lon="3.02998">
        <ele>788.8</ele>
        <time>2026-04-30T10:41:07.999Z</time>
      </trkpt>
      <trkpt lat="43.97811" lon="3.02998">
        <ele>788.7</ele>
        <time>2026-04-30T10:41:08.999Z</time>
      </trkpt>
      <trkpt lat="43.97811" lon="3.02998">
        <ele>789.1</ele>
        <time>2026-04-30T10:41:09.999Z</time>
      </trkpt>
      <trkpt lat="43.97811" lon="3.02998">
        <ele>789.1</ele>
        <time>2026-04-30T10:41:10.999Z</time>
      </trkpt>
      <trkpt lat="43.97811" lon="3.02998">
        <ele>789.2</ele>
        <time>2026-04-30T10:41:11.999Z</time>
      </trkpt>
      <trkpt lat="43.97811" lon="3.02998">
        <ele>789.2</ele>
        <time>2026-04-30T10:41:12.999Z</time>
      </trkpt>
      <trkpt lat="43.97811" lon="3.02998">
        <ele>789.1</ele>
        <time>2026-04-30T10:41:13.999Z</time>
      </trkpt>
      <trkpt lat="43.97811" lon="3.02998">
        <ele>788.8</ele>
        <time>2026-04-30T10:41:14.999Z</time>
      </trkpt>
      <trkpt lat="43.97811" lon="3.02998">
        <ele>788.7</ele>
        <time>2026-04-30T10:41:15.999Z</time>
      </trkpt>
      <trkpt lat="43.97811" lon="3.02998">
        <ele>788.4</ele>
        <time>2026-04-30T10:41:16.999Z</time>
      </trkpt>
      <trkpt lat="43.97811" lon="3.02998">
        <ele>788.1</ele>
        <time>2026-04-30T10:41:17.999Z</time>
      </trkpt>
      <trkpt lat="43.97811" lon="3.02998">
        <ele>788.1</ele>
        <time>2026-04-30T10:41:18.999Z</time>
      </trkpt>
      <trkpt lat="43.97811" lon="3.02998">
        <ele>788.2</ele>
        <time>2026-04-30T10:41:19.999Z</time>
      </trkpt>
      <trkpt lat="43.97811" lon="3.02998">
        <ele>788.3</ele>
        <time>2026-04-30T10:41:20.999Z</time>
      </trkpt>
      <trkpt lat="43.97811" lon="3.02998">
        <ele>788.4</ele>
        <time>2026-04-30T10:41:21.999Z</time>
      </trkpt>
      <trkpt lat="43.97811" lon="3.02998">
        <ele>788.3</ele>
        <time>2026-04-30T10:41:22.999Z</time>
      </trkpt>
      <trkpt lat="43.97811" lon="3.02998">
        <ele>788</ele>
        <time>2026-04-30T10:41:23.999Z</time>
      </trkpt>
      <trkpt lat="43.97811" lon="3.02998">
        <ele>787.7</ele>
        <time>2026-04-30T10:41:24.999Z</time>
      </trkpt>
      <trkpt lat="43.97811" lon="3.02998">
        <ele>787.6</ele>
        <time>2026-04-30T10:41:25.999Z</time>
      </trkpt>
      <trkpt lat="43.97811" lon="3.02998">
        <ele>787.5</ele>
        <time>2026-04-30T10:41:26.999Z</time>
      </trkpt>
      <trkpt lat="43.97811" lon="3.02998">
        <ele>787.6</ele>
        <time>2026-04-30T10:41:27.999Z</time>
      </trkpt>
      <trkpt lat="43.97811" lon="3.02998">
        <ele>787.9</ele>
        <time>2026-04-30T10:41:28.999Z</time>
      </trkpt>
      <trkpt lat="43.97811" lon="3.02998">
        <ele>788</ele>
        <time>2026-04-30T10:41:29.999Z</time>
      </trkpt>
      <trkpt lat="43.97811" lon="3.02998">
        <ele>788</ele>
        <time>2026-04-30T10:41:30.999Z</time>
      </trkpt>
      <trkpt lat="43.97811" lon="3.02998">
        <ele>788</ele>
        <time>2026-04-30T10:41:31.999Z</time>
      </trkpt>
      <trkpt lat="43.97811" lon="3.02998">
        <ele>787.9</ele>
        <time>2026-04-30T10:41:32.999Z</time>
      </trkpt>
      <trkpt lat="43.97811" lon="3.02998">
        <ele>787.8</ele>
        <time>2026-04-30T10:41:33.999Z</time>
      </trkpt>
      <trkpt lat="43.97811" lon="3.02998">
        <ele>787.5</ele>
        <time>2026-04-30T10:41:34.999Z</time>
      </trkpt>
      <trkpt lat="43.97811" lon="3.02998">
        <ele>787.2</ele>
        <time>2026-04-30T10:41:35.999Z</time>
      </trkpt>
      <trkpt lat="43.97811" lon="3.02998">
        <ele>787</ele>
        <time>2026-04-30T10:41:36.999Z</time>
      </trkpt>
      <trkpt lat="43.97811" lon="3.02998">
        <ele>786.9</ele>
        <time>2026-04-30T10:41:37.999Z</time>
      </trkpt>
      <trkpt lat="43.97811" lon="3.02998">
        <ele>786.6</ele>
        <time>2026-04-30T10:41:38.999Z</time>
      </trkpt>
      <trkpt lat="43.97811" lon="3.02998">
        <ele>786.6</ele>
        <time>2026-04-30T10:41:39.999Z</time>
      </trkpt>
      <trkpt lat="43.97811" lon="3.02998">
        <ele>786.6</ele>
        <time>2026-04-30T10:41:40.999Z</time>
      </trkpt>
      <trkpt lat="43.97811" lon="3.02998">
        <ele>786.5</ele>
        <time>2026-04-30T10:41:41.999Z</time>
      </trkpt>
      <trkpt lat="43.97811" lon="3.02998">
        <ele>786.4</ele>
        <time>2026-04-30T10:41:42.999Z</time>
      </trkpt>
      <trkpt lat="43.97811" lon="3.02998">
        <ele>786.3</ele>
        <time>2026-04-30T10:41:43.999Z</time>
      </trkpt>
      <trkpt lat="43.97811" lon="3.02998">
        <ele>786.3</ele>
        <time>2026-04-30T10:41:44.999Z</time>
      </trkpt>
      <trkpt lat="43.97811" lon="3.02998">
        <ele>786.4</ele>
        <time>2026-04-30T10:41:45.999Z</time>
      </trkpt>
      <trkpt lat="43.97811" lon="3.02998">
        <ele>786.3</ele>
        <time>2026-04-30T10:41:46.999Z</time>
      </trkpt>
      <trkpt lat="43.97811" lon="3.02998">
        <ele>786.3</ele>
        <time>2026-04-30T10:41:47.999Z</time>
      </trkpt>
      <trkpt lat="43.97811" lon="3.02998">
        <ele>786.2</ele>
        <time>2026-04-30T10:41:48.999Z</time>
      </trkpt>
      <trkpt lat="43.97811" lon="3.02998">
        <ele>786.2</ele>
        <time>2026-04-30T10:41:49.999Z</time>
      </trkpt>
      <trkpt lat="43.97811" lon="3.02998">
        <ele>786.2</ele>
        <time>2026-04-30T10:41:50.999Z</time>
      </trkpt>
      <trkpt lat="43.97811" lon="3.02998">
        <ele>786.1</ele>
        <time>2026-04-30T10:41:51.999Z</time>
      </trkpt>
      <trkpt lat="43.97812" lon="3.02998">
        <ele>786.1</ele>
        <time>2026-04-30T10:41:52.999Z</time>
      </trkpt>
      <trkpt lat="43.97812" lon="3.02998">
        <ele>786</ele>
        <time>2026-04-30T10:41:53.999Z</time>
      </trkpt>
      <trkpt lat="43.97812" lon="3.02997">
        <ele>786</ele>
        <time>2026-04-30T10:41:54.999Z</time>
      </trkpt>
      <trkpt lat="43.97812" lon="3.02997">
        <ele>785.9</ele>
        <time>2026-04-30T10:41:55.999Z</time>
      </trkpt>
      <trkpt lat="43.97812" lon="3.02997">
        <ele>785.8</ele>
        <time>2026-04-30T10:41:56.999Z</time>
      </trkpt>
      <trkpt lat="43.97812" lon="3.02998">
        <ele>785.6</ele>
        <time>2026-04-30T10:41:57.999Z</time>
      </trkpt>
      <trkpt lat="43.97811" lon="3.02998">
        <ele>785.7</ele>
        <time>2026-04-30T10:41:58.999Z</time>
      </trkpt>
      <trkpt lat="43.97811" lon="3.02998">
        <ele>785.8</ele>
        <time>2026-04-30T10:41:59.999Z</time>
      </trkpt>
      <trkpt lat="43.97811" lon="3.02998">
        <ele>785.7</ele>
        <time>2026-04-30T10:42:00.999Z</time>
      </trkpt>
      <trkpt lat="43.97811" lon="3.02998">
        <ele>785.4</ele>
        <time>2026-04-30T10:42:01.999Z</time>
      </trkpt>
      <trkpt lat="43.97811" lon="3.02998">
        <ele>785</ele>
        <time>2026-04-30T10:42:02.999Z</time>
      </trkpt>
      <trkpt lat="43.97811" lon="3.02998">
        <ele>784.7</ele>
        <time>2026-04-30T10:42:03.999Z</time>
      </trkpt>
      <trkpt lat="43.97811" lon="3.02998">
        <ele>784.6</ele>
        <time>2026-04-30T10:42:04.999Z</time>
      </trkpt>
      <trkpt lat="43.97811" lon="3.02998">
        <ele>784.5</ele>
        <time>2026-04-30T10:42:05.999Z</time>
      </trkpt>
      <trkpt lat="43.97811" lon="3.02998">
        <ele>784.3</ele>
        <time>2026-04-30T10:42:06.999Z</time>
      </trkpt>
      <trkpt lat="43.97811" lon="3.02998">
        <ele>784</ele>
        <time>2026-04-30T10:42:07.999Z</time>
      </trkpt>
      <trkpt lat="43.97811" lon="3.02998">
        <ele>784</ele>
        <time>2026-04-30T10:42:08.999Z</time>
      </trkpt>
      <trkpt lat="43.97811" lon="3.02998">
        <ele>783.9</ele>
        <time>2026-04-30T10:42:09.999Z</time>
      </trkpt>
      <trkpt lat="43.97811" lon="3.02999">
        <ele>783.7</ele>
        <time>2026-04-30T10:42:10.999Z</time>
      </trkpt>
      <trkpt lat="43.97811" lon="3.02999">
        <ele>783.7</ele>
        <time>2026-04-30T10:42:11.999Z</time>
      </trkpt>
      <trkpt lat="43.97811" lon="3.02999">
        <ele>783.7</ele>
        <time>2026-04-30T10:42:12.999Z</time>
      </trkpt>
      <trkpt lat="43.97811" lon="3.02998">
        <ele>783.8</ele>
        <time>2026-04-30T10:42:13.999Z</time>
      </trkpt>
      <trkpt lat="43.97811" lon="3.02998">
        <ele>783.8</ele>
        <time>2026-04-30T10:42:14.999Z</time>
      </trkpt>
      <trkpt lat="43.97811" lon="3.02998">
        <ele>783.9</ele>
        <time>2026-04-30T10:42:15.999Z</time>
      </trkpt>
      <trkpt lat="43.97811" lon="3.02998">
        <ele>784</ele>
        <time>2026-04-30T10:42:16.999Z</time>
      </trkpt>
      <trkpt lat="43.97811" lon="3.02998">
        <ele>784.1</ele>
        <time>2026-04-30T10:42:17.999Z</time>
      </trkpt>
      <trkpt lat="43.97811" lon="3.02999">
        <ele>784.4</ele>
        <time>2026-04-30T10:42:18.999Z</time>
      </trkpt>
      <trkpt lat="43.97812" lon="3.02998">
        <ele>784.5</ele>
        <time>2026-04-30T10:42:19.999Z</time>
      </trkpt>
      <trkpt lat="43.97812" lon="3.02998">
        <ele>784.9</ele>
        <time>2026-04-30T10:42:20.999Z</time>
      </trkpt>
      <trkpt lat="43.97812" lon="3.02998">
        <ele>784.9</ele>
        <time>2026-04-30T10:42:21.999Z</time>
      </trkpt>
      <trkpt lat="43.97812" lon="3.02999">
        <ele>785</ele>
        <time>2026-04-30T10:42:22.999Z</time>
      </trkpt>
      <trkpt lat="43.97812" lon="3.02999">
        <ele>785</ele>
        <time>2026-04-30T10:42:23.999Z</time>
      </trkpt>
      <trkpt lat="43.97812" lon="3.02999">
        <ele>785</ele>
        <time>2026-04-30T10:42:24.999Z</time>
      </trkpt>
      <trkpt lat="43.97812" lon="3.02999">
        <ele>785</ele>
        <time>2026-04-30T10:42:25.999Z</time>
      </trkpt>
      <trkpt lat="43.97812" lon="3.02999">
        <ele>785.1</ele>
        <time>2026-04-30T10:42:26.999Z</time>
      </trkpt>
      <trkpt lat="43.97812" lon="3.02999">
        <ele>785</ele>
        <time>2026-04-30T10:42:27.999Z</time>
      </trkpt>
      <trkpt lat="43.97812" lon="3.02999">
        <ele>785.1</ele>
        <time>2026-04-30T10:42:28.999Z</time>
      </trkpt>
      <trkpt lat="43.97812" lon="3.02999">
        <ele>785.1</ele>
        <time>2026-04-30T10:42:29.999Z</time>
      </trkpt>
      <trkpt lat="43.97812" lon="3.02999">
        <ele>785</ele>
        <time>2026-04-30T10:42:30.999Z</time>
      </trkpt>
      <trkpt lat="43.97812" lon="3.02999">
        <ele>785.1</ele>
        <time>2026-04-30T10:42:31.999Z</time>
      </trkpt>
      <trkpt lat="43.97812" lon="3.03">
        <ele>785.3</ele>
        <time>2026-04-30T10:42:32.999Z</time>
      </trkpt>
      <trkpt lat="43.97812" lon="3.03">
        <ele>785.3</ele>
        <time>2026-04-30T10:42:33.999Z</time>
      </trkpt>
      <trkpt lat="43.97812" lon="3.03">
        <ele>785.2</ele>
        <time>2026-04-30T10:42:34.999Z</time>
      </trkpt>
      <trkpt lat="43.97812" lon="3.03">
        <ele>785.1</ele>
        <time>2026-04-30T10:42:35.999Z</time>
      </trkpt>
      <trkpt lat="43.97812" lon="3.03">
        <ele>785</ele>
        <time>2026-04-30T10:42:36.999Z</time>
      </trkpt>
      <trkpt lat="43.97812" lon="3.03">
        <ele>785.2</ele>
        <time>2026-04-30T10:42:37.999Z</time>
      </trkpt>
      <trkpt lat="43.97812" lon="3.03">
        <ele>785.2</ele>
        <time>2026-04-30T10:42:38.999Z</time>
      </trkpt>
      <trkpt lat="43.97812" lon="3.03">
        <ele>785.3</ele>
        <time>2026-04-30T10:42:39.999Z</time>
      </trkpt>
      <trkpt lat="43.97812" lon="3.02999">
        <ele>785.3</ele>
        <time>2026-04-30T10:42:40.999Z</time>
      </trkpt>
      <trkpt lat="43.97812" lon="3.02999">
        <ele>785.2</ele>
        <time>2026-04-30T10:42:41.999Z</time>
      </trkpt>
      <trkpt lat="43.97812" lon="3.02999">
        <ele>785.3</ele>
        <time>2026-04-30T10:42:42.999Z</time>
      </trkpt>
      <trkpt lat="43.97812" lon="3.02999">
        <ele>785.2</ele>
        <time>2026-04-30T10:42:43.999Z</time>
      </trkpt>
      <trkpt lat="43.97812" lon="3.02999">
        <ele>785.4</ele>
        <time>2026-04-30T10:42:44.999Z</time>
      </trkpt>
      <trkpt lat="43.97812" lon="3.02999">
        <ele>785.6</ele>
        <time>2026-04-30T10:42:45.999Z</time>
      </trkpt>
      <trkpt lat="43.97813" lon="3.02999">
        <ele>785.6</ele>
        <time>2026-04-30T10:42:46.999Z</time>
      </trkpt>
      <trkpt lat="43.97813" lon="3.02999">
        <ele>785.7</ele>
        <time>2026-04-30T10:42:47.999Z</time>
      </trkpt>
      <trkpt lat="43.97813" lon="3.02999">
        <ele>785.8</ele>
        <time>2026-04-30T10:42:48.999Z</time>
      </trkpt>
      <trkpt lat="43.97813" lon="3.02998">
        <ele>785.7</ele>
        <time>2026-04-30T10:42:49.999Z</time>
      </trkpt>
      <trkpt lat="43.97813" lon="3.02998">
        <ele>785.7</ele>
        <time>2026-04-30T10:42:50.999Z</time>
      </trkpt>
      <trkpt lat="43.97814" lon="3.02998">
        <ele>785.9</ele>
        <time>2026-04-30T10:42:51.999Z</time>
      </trkpt>
      <trkpt lat="43.97814" lon="3.02998">
        <ele>785.9</ele>
        <time>2026-04-30T10:42:52.999Z</time>
      </trkpt>
      <trkpt lat="43.97814" lon="3.02997">
        <ele>785.9</ele>
        <time>2026-04-30T10:42:53.999Z</time>
      </trkpt>
      <trkpt lat="43.97814" lon="3.02997">
        <ele>785.9</ele>
        <time>2026-04-30T10:42:54.999Z</time>
      </trkpt>
      <trkpt lat="43.97814" lon="3.02997">
        <ele>786.2</ele>
        <time>2026-04-30T10:42:55.999Z</time>
      </trkpt>
      <trkpt lat="43.97814" lon="3.02996">
        <ele>786.5</ele>
        <time>2026-04-30T10:42:56.999Z</time>
      </trkpt>
      <trkpt lat="43.97814" lon="3.02996">
        <ele>786.5</ele>
        <time>2026-04-30T10:42:57.999Z</time>
      </trkpt>
      <trkpt lat="43.97815" lon="3.02994">
        <ele>786.6</ele>
        <time>2026-04-30T10:42:58.999Z</time>
      </trkpt>
      <trkpt lat="43.97815" lon="3.02992">
        <ele>786.7</ele>
        <time>2026-04-30T10:42:59.999Z</time>
      </trkpt>
      <trkpt lat="43.97815" lon="3.0299">
        <ele>786.6</ele>
        <time>2026-04-30T10:43:00.999Z</time>
      </trkpt>
      <trkpt lat="43.97815" lon="3.02988">
        <ele>786.7</ele>
        <time>2026-04-30T10:43:01.999Z</time>
      </trkpt>
      <trkpt lat="43.97816" lon="3.02987">
        <ele>786.5</ele>
        <time>2026-04-30T10:43:02.999Z</time>
      </trkpt>
      <trkpt lat="43.97816" lon="3.02986">
        <ele>786.5</ele>
        <time>2026-04-30T10:43:03.999Z</time>
      </trkpt>
      <trkpt lat="43.97817" lon="3.02985">
        <ele>786.5</ele>
        <time>2026-04-30T10:43:04.999Z</time>
      </trkpt>
      <trkpt lat="43.97817" lon="3.02983">
        <ele>786.2</ele>
        <time>2026-04-30T10:43:05.999Z</time>
      </trkpt>
      <trkpt lat="43.97817" lon="3.02983">
        <ele>786.2</ele>
        <time>2026-04-30T10:43:06.999Z</time>
      </trkpt>
      <trkpt lat="43.97816" lon="3.02982">
        <ele>786.5</ele>
        <time>2026-04-30T10:43:07.999Z</time>
      </trkpt>
      <trkpt lat="43.97816" lon="3.02981">
        <ele>786.6</ele>
        <time>2026-04-30T10:43:08.999Z</time>
      </trkpt>
      <trkpt lat="43.97816" lon="3.02981">
        <ele>786.6</ele>
        <time>2026-04-30T10:43:09.999Z</time>
      </trkpt>
      <trkpt lat="43.97816" lon="3.02981">
        <ele>786.7</ele>
        <time>2026-04-30T10:43:10.999Z</time>
      </trkpt>
      <trkpt lat="43.97816" lon="3.02981">
        <ele>786.9</ele>
        <time>2026-04-30T10:43:11.999Z</time>
      </trkpt>
      <trkpt lat="43.97816" lon="3.02981">
        <ele>787</ele>
        <time>2026-04-30T10:43:12.999Z</time>
      </trkpt>
      <trkpt lat="43.97816" lon="3.02981">
        <ele>787.2</ele>
        <time>2026-04-30T10:43:13.999Z</time>
      </trkpt>
      <trkpt lat="43.97816" lon="3.02981">
        <ele>787.4</ele>
        <time>2026-04-30T10:43:14.999Z</time>
      </trkpt>
      <trkpt lat="43.97816" lon="3.0298">
        <ele>787.7</ele>
        <time>2026-04-30T10:43:15.999Z</time>
      </trkpt>
      <trkpt lat="43.97816" lon="3.0298">
        <ele>787.9</ele>
        <time>2026-04-30T10:43:16.999Z</time>
      </trkpt>
      <trkpt lat="43.97816" lon="3.0298">
        <ele>788</ele>
        <time>2026-04-30T10:43:17.999Z</time>
      </trkpt>
      <trkpt lat="43.97816" lon="3.02979">
        <ele>787.9</ele>
        <time>2026-04-30T10:43:18.999Z</time>
      </trkpt>
      <trkpt lat="43.97816" lon="3.02977">
        <ele>787.9</ele>
        <time>2026-04-30T10:43:19.999Z</time>
      </trkpt>
      <trkpt lat="43.97817" lon="3.02975">
        <ele>788.1</ele>
        <time>2026-04-30T10:43:20.999Z</time>
      </trkpt>
      <trkpt lat="43.97818" lon="3.02973">
        <ele>788.3</ele>
        <time>2026-04-30T10:43:21.999Z</time>
      </trkpt>
      <trkpt lat="43.97819" lon="3.02972">
        <ele>788.2</ele>
        <time>2026-04-30T10:43:22.999Z</time>
      </trkpt>
      <trkpt lat="43.97819" lon="3.02971">
        <ele>788.1</ele>
        <time>2026-04-30T10:43:23.999Z</time>
      </trkpt>
      <trkpt lat="43.9782" lon="3.0297">
        <ele>788.1</ele>
        <time>2026-04-30T10:43:24.999Z</time>
      </trkpt>
      <trkpt lat="43.97819" lon="3.02968">
        <ele>788</ele>
        <time>2026-04-30T10:43:25.999Z</time>
      </trkpt>
      <trkpt lat="43.97819" lon="3.02967">
        <ele>788</ele>
        <time>2026-04-30T10:43:26.999Z</time>
      </trkpt>
      <trkpt lat="43.97819" lon="3.02965">
        <ele>787.8</ele>
        <time>2026-04-30T10:43:27.999Z</time>
      </trkpt>
      <trkpt lat="43.97819" lon="3.02963">
        <ele>787.7</ele>
        <time>2026-04-30T10:43:28.999Z</time>
      </trkpt>
      <trkpt lat="43.97819" lon="3.02962">
        <ele>787.8</ele>
        <time>2026-04-30T10:43:29.999Z</time>
      </trkpt>
      <trkpt lat="43.97819" lon="3.02961">
        <ele>788</ele>
        <time>2026-04-30T10:43:30.999Z</time>
      </trkpt>
      <trkpt lat="43.97819" lon="3.02959">
        <ele>787.9</ele>
        <time>2026-04-30T10:43:31.999Z</time>
      </trkpt>
      <trkpt lat="43.97819" lon="3.02958">
        <ele>787.8</ele>
        <time>2026-04-30T10:43:32.999Z</time>
      </trkpt>
      <trkpt lat="43.97819" lon="3.02958">
        <ele>787.9</ele>
        <time>2026-04-30T10:43:33.999Z</time>
      </trkpt>
      <trkpt lat="43.9782" lon="3.02957">
        <ele>787.9</ele>
        <time>2026-04-30T10:43:34.999Z</time>
      </trkpt>
      <trkpt lat="43.9782" lon="3.02957">
        <ele>788.3</ele>
        <time>2026-04-30T10:43:35.999Z</time>
      </trkpt>
      <trkpt lat="43.9782" lon="3.02957">
        <ele>788.3</ele>
        <time>2026-04-30T10:43:36.999Z</time>
      </trkpt>
      <trkpt lat="43.97819" lon="3.02956">
        <ele>788.5</ele>
        <time>2026-04-30T10:43:37.999Z</time>
      </trkpt>
      <trkpt lat="43.97819" lon="3.02955">
        <ele>788.9</ele>
        <time>2026-04-30T10:43:38.999Z</time>
      </trkpt>
      <trkpt lat="43.97819" lon="3.02954">
        <ele>789.4</ele>
        <time>2026-04-30T10:43:39.999Z</time>
      </trkpt>
      <trkpt lat="43.9782" lon="3.02953">
        <ele>789.6</ele>
        <time>2026-04-30T10:43:40.999Z</time>
      </trkpt>
      <trkpt lat="43.97821" lon="3.02952">
        <ele>790</ele>
        <time>2026-04-30T10:43:41.999Z</time>
      </trkpt>
      <trkpt lat="43.97821" lon="3.02951">
        <ele>790.5</ele>
        <time>2026-04-30T10:43:42.999Z</time>
      </trkpt>
      <trkpt lat="43.97822" lon="3.0295">
        <ele>790.8</ele>
        <time>2026-04-30T10:43:43.999Z</time>
      </trkpt>
      <trkpt lat="43.97822" lon="3.02949">
        <ele>791.2</ele>
        <time>2026-04-30T10:43:44.999Z</time>
      </trkpt>
      <trkpt lat="43.97822" lon="3.02947">
        <ele>791.2</ele>
        <time>2026-04-30T10:43:45.999Z</time>
      </trkpt>
      <trkpt lat="43.97821" lon="3.02946">
        <ele>791.3</ele>
        <time>2026-04-30T10:43:46.999Z</time>
      </trkpt>
      <trkpt lat="43.97821" lon="3.02945">
        <ele>791.6</ele>
        <time>2026-04-30T10:43:47.999Z</time>
      </trkpt>
      <trkpt lat="43.97821" lon="3.02944">
        <ele>792.1</ele>
        <time>2026-04-30T10:43:48.999Z</time>
      </trkpt>
      <trkpt lat="43.97821" lon="3.02944">
        <ele>792.1</ele>
        <time>2026-04-30T10:43:49.999Z</time>
      </trkpt>
      <trkpt lat="43.97821" lon="3.02943">
        <ele>792.2</ele>
        <time>2026-04-30T10:43:50.999Z</time>
      </trkpt>
      <trkpt lat="43.97821" lon="3.02942">
        <ele>792.1</ele>
        <time>2026-04-30T10:43:52.999Z</time>
      </trkpt>
      <trkpt lat="43.97821" lon="3.02941">
        <ele>792.5</ele>
        <time>2026-04-30T10:43:53.999Z</time>
      </trkpt>
      <trkpt lat="43.97821" lon="3.02941">
        <ele>792.6</ele>
        <time>2026-04-30T10:43:54.999Z</time>
      </trkpt>
      <trkpt lat="43.97821" lon="3.02941">
        <ele>792.9</ele>
        <time>2026-04-30T10:43:55.999Z</time>
      </trkpt>
      <trkpt lat="43.97821" lon="3.0294">
        <ele>793.5</ele>
        <time>2026-04-30T10:43:56.999Z</time>
      </trkpt>
      <trkpt lat="43.97821" lon="3.0294">
        <ele>793.9</ele>
        <time>2026-04-30T10:43:57.999Z</time>
      </trkpt>
      <trkpt lat="43.97821" lon="3.02938">
        <ele>794.5</ele>
        <time>2026-04-30T10:43:58.999Z</time>
      </trkpt>
      <trkpt lat="43.97821" lon="3.02935">
        <ele>795.2</ele>
        <time>2026-04-30T10:43:59.999Z</time>
      </trkpt>
      <trkpt lat="43.97822" lon="3.02934">
        <ele>795.6</ele>
        <time>2026-04-30T10:44:00.999Z</time>
      </trkpt>
      <trkpt lat="43.97823" lon="3.02932">
        <ele>795.5</ele>
        <time>2026-04-30T10:44:01.999Z</time>
      </trkpt>
      <trkpt lat="43.97823" lon="3.02931">
        <ele>795.5</ele>
        <time>2026-04-30T10:44:02.999Z</time>
      </trkpt>
      <trkpt lat="43.97822" lon="3.02929">
        <ele>795.5</ele>
        <time>2026-04-30T10:44:03.999Z</time>
      </trkpt>
      <trkpt lat="43.97823" lon="3.02928">
        <ele>795.7</ele>
        <time>2026-04-30T10:44:04.999Z</time>
      </trkpt>
      <trkpt lat="43.97823" lon="3.02927">
        <ele>795.5</ele>
        <time>2026-04-30T10:44:05.999Z</time>
      </trkpt>
      <trkpt lat="43.97824" lon="3.02926">
        <ele>795.5</ele>
        <time>2026-04-30T10:44:06.999Z</time>
      </trkpt>
      <trkpt lat="43.97824" lon="3.02925">
        <ele>795.2</ele>
        <time>2026-04-30T10:44:07.999Z</time>
      </trkpt>
      <trkpt lat="43.97824" lon="3.02923">
        <ele>795.3</ele>
        <time>2026-04-30T10:44:08.999Z</time>
      </trkpt>
      <trkpt lat="43.97825" lon="3.02922">
        <ele>795.2</ele>
        <time>2026-04-30T10:44:09.999Z</time>
      </trkpt>
      <trkpt lat="43.97824" lon="3.02921">
        <ele>795.3</ele>
        <time>2026-04-30T10:44:10.999Z</time>
      </trkpt>
      <trkpt lat="43.97824" lon="3.0292">
        <ele>795.3</ele>
        <time>2026-04-30T10:44:11.999Z</time>
      </trkpt>
      <trkpt lat="43.97824" lon="3.02919">
        <ele>795.8</ele>
        <time>2026-04-30T10:44:12.999Z</time>
      </trkpt>
      <trkpt lat="43.97824" lon="3.02918">
        <ele>795.7</ele>
        <time>2026-04-30T10:44:13.999Z</time>
      </trkpt>
      <trkpt lat="43.97824" lon="3.02918">
        <ele>796</ele>
        <time>2026-04-30T10:44:14.999Z</time>
      </trkpt>
      <trkpt lat="43.97823" lon="3.02917">
        <ele>796.1</ele>
        <time>2026-04-30T10:44:15.999Z</time>
      </trkpt>
      <trkpt lat="43.97823" lon="3.02915">
        <ele>796.3</ele>
        <time>2026-04-30T10:44:16.999Z</time>
      </trkpt>
      <trkpt lat="43.97823" lon="3.02913">
        <ele>796.3</ele>
        <time>2026-04-30T10:44:17.999Z</time>
      </trkpt>
      <trkpt lat="43.97822" lon="3.02913">
        <ele>796.3</ele>
        <time>2026-04-30T10:44:18.999Z</time>
      </trkpt>
      <trkpt lat="43.97823" lon="3.02912">
        <ele>796.7</ele>
        <time>2026-04-30T10:44:19.999Z</time>
      </trkpt>
      <trkpt lat="43.97823" lon="3.02911">
        <ele>797</ele>
        <time>2026-04-30T10:44:20.999Z</time>
      </trkpt>
      <trkpt lat="43.97823" lon="3.0291">
        <ele>797.5</ele>
        <time>2026-04-30T10:44:21.999Z</time>
      </trkpt>
      <trkpt lat="43.97823" lon="3.02908">
        <ele>798.1</ele>
        <time>2026-04-30T10:44:22.999Z</time>
      </trkpt>
      <trkpt lat="43.97824" lon="3.02908">
        <ele>798.1</ele>
        <time>2026-04-30T10:44:23.999Z</time>
      </trkpt>
      <trkpt lat="43.97824" lon="3.02907">
        <ele>798.1</ele>
        <time>2026-04-30T10:44:24.999Z</time>
      </trkpt>
      <trkpt lat="43.97824" lon="3.02907">
        <ele>798</ele>
        <time>2026-04-30T10:44:25.999Z</time>
      </trkpt>
      <trkpt lat="43.97824" lon="3.02907">
        <ele>797.9</ele>
        <time>2026-04-30T10:44:26.999Z</time>
      </trkpt>
      <trkpt lat="43.97824" lon="3.02907">
        <ele>797.9</ele>
        <time>2026-04-30T10:44:27.999Z</time>
      </trkpt>
      <trkpt lat="43.97824" lon="3.02907">
        <ele>798.3</ele>
        <time>2026-04-30T10:44:28.999Z</time>
      </trkpt>
      <trkpt lat="43.97824" lon="3.02907">
        <ele>798.7</ele>
        <time>2026-04-30T10:44:29.999Z</time>
      </trkpt>
      <trkpt lat="43.97824" lon="3.02907">
        <ele>798.8</ele>
        <time>2026-04-30T10:44:30.999Z</time>
      </trkpt>
      <trkpt lat="43.97824" lon="3.02907">
        <ele>799.4</ele>
        <time>2026-04-30T10:44:31.999Z</time>
      </trkpt>
      <trkpt lat="43.97824" lon="3.02906">
        <ele>799.5</ele>
        <time>2026-04-30T10:44:32.999Z</time>
      </trkpt>
      <trkpt lat="43.97824" lon="3.02905">
        <ele>799.6</ele>
        <time>2026-04-30T10:44:33.999Z</time>
      </trkpt>
      <trkpt lat="43.97824" lon="3.02904">
        <ele>799.9</ele>
        <time>2026-04-30T10:44:34.999Z</time>
      </trkpt>
      <trkpt lat="43.97824" lon="3.02903">
        <ele>800.2</ele>
        <time>2026-04-30T10:44:35.999Z</time>
      </trkpt>
      <trkpt lat="43.97824" lon="3.02902">
        <ele>800.5</ele>
        <time>2026-04-30T10:44:36.999Z</time>
      </trkpt>
      <trkpt lat="43.97824" lon="3.02902">
        <ele>800.8</ele>
        <time>2026-04-30T10:44:37.999Z</time>
      </trkpt>
      <trkpt lat="43.97824" lon="3.02901">
        <ele>801</ele>
        <time>2026-04-30T10:44:38.999Z</time>
      </trkpt>
      <trkpt lat="43.97824" lon="3.02901">
        <ele>801.6</ele>
        <time>2026-04-30T10:44:39.999Z</time>
      </trkpt>
      <trkpt lat="43.97824" lon="3.02901">
        <ele>802</ele>
        <time>2026-04-30T10:44:40.999Z</time>
      </trkpt>
      <trkpt lat="43.97824" lon="3.02901">
        <ele>802.7</ele>
        <time>2026-04-30T10:44:42.999Z</time>
      </trkpt>
      <trkpt lat="43.97824" lon="3.029">
        <ele>802.7</ele>
        <time>2026-04-30T10:44:43.999Z</time>
      </trkpt>
      <trkpt lat="43.97823" lon="3.02899">
        <ele>802.5</ele>
        <time>2026-04-30T10:44:44.999Z</time>
      </trkpt>
      <trkpt lat="43.97824" lon="3.02897">
        <ele>802.3</ele>
        <time>2026-04-30T10:44:45.999Z</time>
      </trkpt>
      <trkpt lat="43.97823" lon="3.02895">
        <ele>802.2</ele>
        <time>2026-04-30T10:44:46.999Z</time>
      </trkpt>
      <trkpt lat="43.97823" lon="3.02895">
        <ele>802.3</ele>
        <time>2026-04-30T10:44:47.999Z</time>
      </trkpt>
      <trkpt lat="43.97823" lon="3.02893">
        <ele>802.9</ele>
        <time>2026-04-30T10:44:49.999Z</time>
      </trkpt>
      <trkpt lat="43.97824" lon="3.02891">
        <ele>803</ele>
        <time>2026-04-30T10:44:50.999Z</time>
      </trkpt>
      <trkpt lat="43.97825" lon="3.0289">
        <ele>803.1</ele>
        <time>2026-04-30T10:44:51.999Z</time>
      </trkpt>
      <trkpt lat="43.97825" lon="3.02889">
        <ele>803.2</ele>
        <time>2026-04-30T10:44:52.999Z</time>
      </trkpt>
      <trkpt lat="43.97825" lon="3.02887">
        <ele>803.2</ele>
        <time>2026-04-30T10:44:53.999Z</time>
      </trkpt>
      <trkpt lat="43.97825" lon="3.02886">
        <ele>803.2</ele>
        <time>2026-04-30T10:44:54.999Z</time>
      </trkpt>
      <trkpt lat="43.97825" lon="3.02885">
        <ele>803.2</ele>
        <time>2026-04-30T10:44:55.999Z</time>
      </trkpt>
      <trkpt lat="43.97824" lon="3.02885">
        <ele>803.1</ele>
        <time>2026-04-30T10:44:56.999Z</time>
      </trkpt>
      <trkpt lat="43.97824" lon="3.02884">
        <ele>803.1</ele>
        <time>2026-04-30T10:44:57.999Z</time>
      </trkpt>
      <trkpt lat="43.97824" lon="3.02884">
        <ele>803.1</ele>
        <time>2026-04-30T10:44:58.999Z</time>
      </trkpt>
      <trkpt lat="43.97824" lon="3.02884">
        <ele>803.2</ele>
        <time>2026-04-30T10:44:59.999Z</time>
      </trkpt>
      <trkpt lat="43.97824" lon="3.02884">
        <ele>803.3</ele>
        <time>2026-04-30T10:45:00.999Z</time>
      </trkpt>
      <trkpt lat="43.97824" lon="3.02884">
        <ele>803.3</ele>
        <time>2026-04-30T10:45:01.999Z</time>
      </trkpt>
      <trkpt lat="43.97824" lon="3.02883">
        <ele>803.3</ele>
        <time>2026-04-30T10:45:02.999Z</time>
      </trkpt>
      <trkpt lat="43.97824" lon="3.02883">
        <ele>803.2</ele>
        <time>2026-04-30T10:45:03.999Z</time>
      </trkpt>
      <trkpt lat="43.97824" lon="3.02882">
        <ele>803.3</ele>
        <time>2026-04-30T10:45:04.999Z</time>
      </trkpt>
      <trkpt lat="43.97824" lon="3.02879">
        <ele>803.2</ele>
        <time>2026-04-30T10:45:06.999Z</time>
      </trkpt>
      <trkpt lat="43.97824" lon="3.02878">
        <ele>803.4</ele>
        <time>2026-04-30T10:45:07.999Z</time>
      </trkpt>
      <trkpt lat="43.97824" lon="3.02877">
        <ele>803.4</ele>
        <time>2026-04-30T10:45:08.999Z</time>
      </trkpt>
      <trkpt lat="43.97824" lon="3.02876">
        <ele>803.4</ele>
        <time>2026-04-30T10:45:09.999Z</time>
      </trkpt>
      <trkpt lat="43.97824" lon="3.02875">
        <ele>803.3</ele>
        <time>2026-04-30T10:45:10.999Z</time>
      </trkpt>
      <trkpt lat="43.97824" lon="3.02874">
        <ele>803.3</ele>
        <time>2026-04-30T10:45:11.999Z</time>
      </trkpt>
      <trkpt lat="43.97824" lon="3.02873">
        <ele>803.2</ele>
        <time>2026-04-30T10:45:12.999Z</time>
      </trkpt>
      <trkpt lat="43.97823" lon="3.02873">
        <ele>803.3</ele>
        <time>2026-04-30T10:45:13.999Z</time>
      </trkpt>
      <trkpt lat="43.97823" lon="3.02873">
        <ele>803.4</ele>
        <time>2026-04-30T10:45:14.999Z</time>
      </trkpt>
      <trkpt lat="43.97823" lon="3.02872">
        <ele>803.4</ele>
        <time>2026-04-30T10:45:15.999Z</time>
      </trkpt>
      <trkpt lat="43.97823" lon="3.02872">
        <ele>803.3</ele>
        <time>2026-04-30T10:45:16.999Z</time>
      </trkpt>
      <trkpt lat="43.97823" lon="3.02871">
        <ele>803.3</ele>
        <time>2026-04-30T10:45:17.999Z</time>
      </trkpt>
      <trkpt lat="43.97823" lon="3.02871">
        <ele>803.2</ele>
        <time>2026-04-30T10:45:18.999Z</time>
      </trkpt>
      <trkpt lat="43.97823" lon="3.02869">
        <ele>803.2</ele>
        <time>2026-04-30T10:45:19.999Z</time>
      </trkpt>
      <trkpt lat="43.97823" lon="3.02867">
        <ele>803.2</ele>
        <time>2026-04-30T10:45:20.999Z</time>
      </trkpt>
      <trkpt lat="43.97823" lon="3.02867">
        <ele>803.2</ele>
        <time>2026-04-30T10:45:21.999Z</time>
      </trkpt>
      <trkpt lat="43.97823" lon="3.02866">
        <ele>803.3</ele>
        <time>2026-04-30T10:45:22.999Z</time>
      </trkpt>
      <trkpt lat="43.97822" lon="3.02864">
        <ele>803.6</ele>
        <time>2026-04-30T10:45:23.999Z</time>
      </trkpt>
      <trkpt lat="43.97822" lon="3.02862">
        <ele>803.8</ele>
        <time>2026-04-30T10:45:24.999Z</time>
      </trkpt>
      <trkpt lat="43.97822" lon="3.02861">
        <ele>803.8</ele>
        <time>2026-04-30T10:45:25.999Z</time>
      </trkpt>
      <trkpt lat="43.97822" lon="3.0286">
        <ele>804.1</ele>
        <time>2026-04-30T10:45:26.999Z</time>
      </trkpt>
      <trkpt lat="43.97821" lon="3.02858">
        <ele>804.2</ele>
        <time>2026-04-30T10:45:27.999Z</time>
      </trkpt>
      <trkpt lat="43.97822" lon="3.02858">
        <ele>804.2</ele>
        <time>2026-04-30T10:45:28.999Z</time>
      </trkpt>
      <trkpt lat="43.97821" lon="3.02857">
        <ele>804.5</ele>
        <time>2026-04-30T10:45:29.999Z</time>
      </trkpt>
      <trkpt lat="43.97821" lon="3.02857">
        <ele>804.5</ele>
        <time>2026-04-30T10:45:30.999Z</time>
      </trkpt>
      <trkpt lat="43.97821" lon="3.02856">
        <ele>804.6</ele>
        <time>2026-04-30T10:45:31.999Z</time>
      </trkpt>
      <trkpt lat="43.9782" lon="3.02856">
        <ele>804.8</ele>
        <time>2026-04-30T10:45:33.999Z</time>
      </trkpt>
      <trkpt lat="43.9782" lon="3.02856">
        <ele>805</ele>
        <time>2026-04-30T10:45:34.999Z</time>
      </trkpt>
      <trkpt lat="43.9782" lon="3.02856">
        <ele>805</ele>
        <time>2026-04-30T10:45:35.999Z</time>
      </trkpt>
      <trkpt lat="43.9782" lon="3.02856">
        <ele>805.2</ele>
        <time>2026-04-30T10:45:36.999Z</time>
      </trkpt>
      <trkpt lat="43.9782" lon="3.02856">
        <ele>805.4</ele>
        <time>2026-04-30T10:45:37.999Z</time>
      </trkpt>
      <trkpt lat="43.97821" lon="3.02855">
        <ele>805.6</ele>
        <time>2026-04-30T10:45:38.999Z</time>
      </trkpt>
      <trkpt lat="43.97821" lon="3.02853">
        <ele>805.6</ele>
        <time>2026-04-30T10:45:39.999Z</time>
      </trkpt>
      <trkpt lat="43.97822" lon="3.02851">
        <ele>805.3</ele>
        <time>2026-04-30T10:45:40.999Z</time>
      </trkpt>
      <trkpt lat="43.97822" lon="3.02849">
        <ele>805.4</ele>
        <time>2026-04-30T10:45:41.999Z</time>
      </trkpt>
      <trkpt lat="43.97822" lon="3.02848">
        <ele>805.6</ele>
        <time>2026-04-30T10:45:42.999Z</time>
      </trkpt>
      <trkpt lat="43.97822" lon="3.02847">
        <ele>805.8</ele>
        <time>2026-04-30T10:45:43.999Z</time>
      </trkpt>
      <trkpt lat="43.97822" lon="3.02846">
        <ele>805.9</ele>
        <time>2026-04-30T10:45:44.999Z</time>
      </trkpt>
      <trkpt lat="43.97823" lon="3.02845">
        <ele>805.6</ele>
        <time>2026-04-30T10:45:45.999Z</time>
      </trkpt>
      <trkpt lat="43.97823" lon="3.02844">
        <ele>805.6</ele>
        <time>2026-04-30T10:45:46.999Z</time>
      </trkpt>
      <trkpt lat="43.97823" lon="3.02842">
        <ele>805.7</ele>
        <time>2026-04-30T10:45:47.999Z</time>
      </trkpt>
      <trkpt lat="43.97823" lon="3.02841">
        <ele>806.1</ele>
        <time>2026-04-30T10:45:48.999Z</time>
      </trkpt>
      <trkpt lat="43.97823" lon="3.0284">
        <ele>806.1</ele>
        <time>2026-04-30T10:45:49.999Z</time>
      </trkpt>
      <trkpt lat="43.97823" lon="3.02839">
        <ele>806.5</ele>
        <time>2026-04-30T10:45:50.999Z</time>
      </trkpt>
      <trkpt lat="43.97823" lon="3.02837">
        <ele>807.1</ele>
        <time>2026-04-30T10:45:51.999Z</time>
      </trkpt>
      <trkpt lat="43.97823" lon="3.02835">
        <ele>807.4</ele>
        <time>2026-04-30T10:45:52.999Z</time>
      </trkpt>
      <trkpt lat="43.97823" lon="3.02833">
        <ele>807.7</ele>
        <time>2026-04-30T10:45:53.999Z</time>
      </trkpt>
      <trkpt lat="43.97824" lon="3.02833">
        <ele>808.1</ele>
        <time>2026-04-30T10:45:54.999Z</time>
      </trkpt>
      <trkpt lat="43.97823" lon="3.02832">
        <ele>808.4</ele>
        <time>2026-04-30T10:45:55.999Z</time>
      </trkpt>
      <trkpt lat="43.97823" lon="3.02831">
        <ele>808.5</ele>
        <time>2026-04-30T10:45:56.999Z</time>
      </trkpt>
      <trkpt lat="43.97822" lon="3.02829">
        <ele>808.8</ele>
        <time>2026-04-30T10:45:57.999Z</time>
      </trkpt>
      <trkpt lat="43.97822" lon="3.02827">
        <ele>809.1</ele>
        <time>2026-04-30T10:45:58.999Z</time>
      </trkpt>
      <trkpt lat="43.97821" lon="3.02826">
        <ele>809.2</ele>
        <time>2026-04-30T10:45:59.999Z</time>
      </trkpt>
      <trkpt lat="43.97821" lon="3.02824">
        <ele>809.5</ele>
        <time>2026-04-30T10:46:00.999Z</time>
      </trkpt>
      <trkpt lat="43.97821" lon="3.02823">
        <ele>809.8</ele>
        <time>2026-04-30T10:46:01.999Z</time>
      </trkpt>
      <trkpt lat="43.97821" lon="3.02823">
        <ele>810.1</ele>
        <time>2026-04-30T10:46:02.999Z</time>
      </trkpt>
      <trkpt lat="43.97821" lon="3.02823">
        <ele>810.5</ele>
        <time>2026-04-30T10:46:03.999Z</time>
      </trkpt>
      <trkpt lat="43.9782" lon="3.02822">
        <ele>810.7</ele>
        <time>2026-04-30T10:46:04.999Z</time>
      </trkpt>
      <trkpt lat="43.9782" lon="3.02821">
        <ele>810.8</ele>
        <time>2026-04-30T10:46:06.000Z</time>
      </trkpt>
      <trkpt lat="43.9782" lon="3.02821">
        <ele>811</ele>
        <time>2026-04-30T10:46:07.000Z</time>
      </trkpt>
      <trkpt lat="43.9782" lon="3.0282">
        <ele>811.4</ele>
        <time>2026-04-30T10:46:08.000Z</time>
      </trkpt>
      <trkpt lat="43.9782" lon="3.02819">
        <ele>811.7</ele>
        <time>2026-04-30T10:46:09.000Z</time>
      </trkpt>
      <trkpt lat="43.9782" lon="3.02818">
        <ele>812.2</ele>
        <time>2026-04-30T10:46:10.000Z</time>
      </trkpt>
      <trkpt lat="43.97821" lon="3.02818">
        <ele>812.8</ele>
        <time>2026-04-30T10:46:11.000Z</time>
      </trkpt>
      <trkpt lat="43.97821" lon="3.02818">
        <ele>813</ele>
        <time>2026-04-30T10:46:12.000Z</time>
      </trkpt>
      <trkpt lat="43.97822" lon="3.02818">
        <ele>813.1</ele>
        <time>2026-04-30T10:46:13.000Z</time>
      </trkpt>
      <trkpt lat="43.97823" lon="3.02819">
        <ele>811.9</ele>
        <time>2026-04-30T10:46:15.000Z</time>
      </trkpt>
      <trkpt lat="43.97824" lon="3.0282">
        <ele>812</ele>
        <time>2026-04-30T10:46:16.000Z</time>
      </trkpt>
      <trkpt lat="43.97824" lon="3.0282">
        <ele>812</ele>
        <time>2026-04-30T10:46:17.000Z</time>
      </trkpt>
      <trkpt lat="43.97825" lon="3.02821">
        <ele>811.7</ele>
        <time>2026-04-30T10:46:18.000Z</time>
      </trkpt>
      <trkpt lat="43.97826" lon="3.02821">
        <ele>811.7</ele>
        <time>2026-04-30T10:46:19.000Z</time>
      </trkpt>
      <trkpt lat="43.97827" lon="3.02821">
        <ele>812</ele>
        <time>2026-04-30T10:46:20.000Z</time>
      </trkpt>
      <trkpt lat="43.97828" lon="3.02822">
        <ele>812.1</ele>
        <time>2026-04-30T10:46:21.000Z</time>
      </trkpt>
      <trkpt lat="43.97828" lon="3.02822">
        <ele>812.2</ele>
        <time>2026-04-30T10:46:22.000Z</time>
      </trkpt>
      <trkpt lat="43.97828" lon="3.02822">
        <ele>812.1</ele>
        <time>2026-04-30T10:46:23.000Z</time>
      </trkpt>
      <trkpt lat="43.97829" lon="3.02823">
        <ele>812.1</ele>
        <time>2026-04-30T10:46:25.000Z</time>
      </trkpt>
      <trkpt lat="43.97829" lon="3.02824">
        <ele>812.3</ele>
        <time>2026-04-30T10:46:26.000Z</time>
      </trkpt>
      <trkpt lat="43.9783" lon="3.02824">
        <ele>812.5</ele>
        <time>2026-04-30T10:46:27.000Z</time>
      </trkpt>
      <trkpt lat="43.97831" lon="3.02826">
        <ele>812.7</ele>
        <time>2026-04-30T10:46:28.000Z</time>
      </trkpt>
      <trkpt lat="43.97832" lon="3.02827">
        <ele>812.8</ele>
        <time>2026-04-30T10:46:29.000Z</time>
      </trkpt>
      <trkpt lat="43.97833" lon="3.02828">
        <ele>812.8</ele>
        <time>2026-04-30T10:46:30.000Z</time>
      </trkpt>
      <trkpt lat="43.97834" lon="3.0283">
        <ele>813.4</ele>
        <time>2026-04-30T10:46:31.000Z</time>
      </trkpt>
      <trkpt lat="43.97835" lon="3.02831">
        <ele>813.8</ele>
        <time>2026-04-30T10:46:32.000Z</time>
      </trkpt>
      <trkpt lat="43.97836" lon="3.02831">
        <ele>813.9</ele>
        <time>2026-04-30T10:46:33.000Z</time>
      </trkpt>
      <trkpt lat="43.97836" lon="3.02832">
        <ele>814.5</ele>
        <time>2026-04-30T10:46:34.000Z</time>
      </trkpt>
      <trkpt lat="43.97837" lon="3.02833">
        <ele>814.4</ele>
        <time>2026-04-30T10:46:35.000Z</time>
      </trkpt>
      <trkpt lat="43.97838" lon="3.02833">
        <ele>814.6</ele>
        <time>2026-04-30T10:46:36.000Z</time>
      </trkpt>
      <trkpt lat="43.97838" lon="3.02833">
        <ele>814.6</ele>
        <time>2026-04-30T10:46:37.000Z</time>
      </trkpt>
      <trkpt lat="43.97839" lon="3.02833">
        <ele>815</ele>
        <time>2026-04-30T10:46:38.000Z</time>
      </trkpt>
      <trkpt lat="43.9784" lon="3.02832">
        <ele>815.6</ele>
        <time>2026-04-30T10:46:39.000Z</time>
      </trkpt>
      <trkpt lat="43.97841" lon="3.02833">
        <ele>815.8</ele>
        <time>2026-04-30T10:46:40.000Z</time>
      </trkpt>
      <trkpt lat="43.97842" lon="3.02832">
        <ele>815.9</ele>
        <time>2026-04-30T10:46:41.000Z</time>
      </trkpt>
      <trkpt lat="43.97843" lon="3.02832">
        <ele>815.8</ele>
        <time>2026-04-30T10:46:42.000Z</time>
      </trkpt>
      <trkpt lat="43.97844" lon="3.02832">
        <ele>815.9</ele>
        <time>2026-04-30T10:46:43.000Z</time>
      </trkpt>
      <trkpt lat="43.97845" lon="3.02832">
        <ele>816</ele>
        <time>2026-04-30T10:46:44.000Z</time>
      </trkpt>
      <trkpt lat="43.97846" lon="3.02833">
        <ele>815.7</ele>
        <time>2026-04-30T10:46:45.000Z</time>
      </trkpt>
      <trkpt lat="43.97847" lon="3.02832">
        <ele>815.5</ele>
        <time>2026-04-30T10:46:46.000Z</time>
      </trkpt>
      <trkpt lat="43.97847" lon="3.02832">
        <ele>815.5</ele>
        <time>2026-04-30T10:46:47.000Z</time>
      </trkpt>
      <trkpt lat="43.97848" lon="3.0283">
        <ele>815.7</ele>
        <time>2026-04-30T10:46:48.000Z</time>
      </trkpt>
      <trkpt lat="43.97848" lon="3.02829">
        <ele>815.9</ele>
        <time>2026-04-30T10:46:49.000Z</time>
      </trkpt>
      <trkpt lat="43.97849" lon="3.02828">
        <ele>815.5</ele>
        <time>2026-04-30T10:46:50.000Z</time>
      </trkpt>
      <trkpt lat="43.9785" lon="3.02826">
        <ele>814.9</ele>
        <time>2026-04-30T10:46:51.000Z</time>
      </trkpt>
      <trkpt lat="43.97851" lon="3.02826">
        <ele>814.3</ele>
        <time>2026-04-30T10:46:52.000Z</time>
      </trkpt>
      <trkpt lat="43.97852" lon="3.02826">
        <ele>813.8</ele>
        <time>2026-04-30T10:46:53.000Z</time>
      </trkpt>
      <trkpt lat="43.97854" lon="3.02826">
        <ele>813.8</ele>
        <time>2026-04-30T10:46:54.000Z</time>
      </trkpt>
      <trkpt lat="43.97855" lon="3.02826">
        <ele>814.1</ele>
        <time>2026-04-30T10:46:55.000Z</time>
      </trkpt>
      <trkpt lat="43.97857" lon="3.02826">
        <ele>814.2</ele>
        <time>2026-04-30T10:46:56.000Z</time>
      </trkpt>
      <trkpt lat="43.97858" lon="3.02827">
        <ele>814.2</ele>
        <time>2026-04-30T10:46:57.000Z</time>
      </trkpt>
      <trkpt lat="43.9786" lon="3.02828">
        <ele>814.4</ele>
        <time>2026-04-30T10:46:58.000Z</time>
      </trkpt>
      <trkpt lat="43.97861" lon="3.02829">
        <ele>814.5</ele>
        <time>2026-04-30T10:46:59.000Z</time>
      </trkpt>
      <trkpt lat="43.97863" lon="3.0283">
        <ele>814.5</ele>
        <time>2026-04-30T10:47:00.000Z</time>
      </trkpt>
      <trkpt lat="43.97863" lon="3.02831">
        <ele>814.1</ele>
        <time>2026-04-30T10:47:01.000Z</time>
      </trkpt>
      <trkpt lat="43.97863" lon="3.02831">
        <ele>813.3</ele>
        <time>2026-04-30T10:47:02.000Z</time>
      </trkpt>
      <trkpt lat="43.97863" lon="3.02831">
        <ele>813.1</ele>
        <time>2026-04-30T10:47:03.000Z</time>
      </trkpt>
      <trkpt lat="43.97863" lon="3.02832">
        <ele>813.2</ele>
        <time>2026-04-30T10:47:04.000Z</time>
      </trkpt>
      <trkpt lat="43.97863" lon="3.02833">
        <ele>813.1</ele>
        <time>2026-04-30T10:47:05.000Z</time>
      </trkpt>
      <trkpt lat="43.97863" lon="3.02835">
        <ele>813.3</ele>
        <time>2026-04-30T10:47:06.000Z</time>
      </trkpt>
      <trkpt lat="43.97863" lon="3.02836">
        <ele>813.5</ele>
        <time>2026-04-30T10:47:07.000Z</time>
      </trkpt>
      <trkpt lat="43.97862" lon="3.02837">
        <ele>814</ele>
        <time>2026-04-30T10:47:08.000Z</time>
      </trkpt>
      <trkpt lat="43.97862" lon="3.02838">
        <ele>814.6</ele>
        <time>2026-04-30T10:47:09.000Z</time>
      </trkpt>
      <trkpt lat="43.97862" lon="3.0284">
        <ele>814.5</ele>
        <time>2026-04-30T10:47:10.000Z</time>
      </trkpt>
      <trkpt lat="43.97861" lon="3.02841">
        <ele>814.4</ele>
        <time>2026-04-30T10:47:11.000Z</time>
      </trkpt>
      <trkpt lat="43.97861" lon="3.02842">
        <ele>814.2</ele>
        <time>2026-04-30T10:47:12.000Z</time>
      </trkpt>
      <trkpt lat="43.9786" lon="3.02841">
        <ele>813.9</ele>
        <time>2026-04-30T10:47:13.000Z</time>
      </trkpt>
      <trkpt lat="43.97858" lon="3.02849">
        <ele>817.6</ele>
        <time>2026-04-30T10:47:14.000Z</time>
      </trkpt>
      <trkpt lat="43.97857" lon="3.02848">
        <ele>817.7</ele>
        <time>2026-04-30T10:47:15.000Z</time>
      </trkpt>
      <trkpt lat="43.97856" lon="3.02847">
        <ele>818</ele>
        <time>2026-04-30T10:47:16.000Z</time>
      </trkpt>
      <trkpt lat="43.97856" lon="3.02847">
        <ele>818.2</ele>
        <time>2026-04-30T10:47:17.000Z</time>
      </trkpt>
      <trkpt lat="43.97855" lon="3.02846">
        <ele>818.3</ele>
        <time>2026-04-30T10:47:18.000Z</time>
      </trkpt>
      <trkpt lat="43.97855" lon="3.02846">
        <ele>818.8</ele>
        <time>2026-04-30T10:47:19.000Z</time>
      </trkpt>
      <trkpt lat="43.97854" lon="3.02846">
        <ele>819</ele>
        <time>2026-04-30T10:47:20.000Z</time>
      </trkpt>
      <trkpt lat="43.97854" lon="3.02846">
        <ele>819</ele>
        <time>2026-04-30T10:47:21.000Z</time>
      </trkpt>
      <trkpt lat="43.97854" lon="3.02847">
        <ele>819.8</ele>
        <time>2026-04-30T10:47:22.000Z</time>
      </trkpt>
      <trkpt lat="43.97854" lon="3.02846">
        <ele>819.6</ele>
        <time>2026-04-30T10:47:23.000Z</time>
      </trkpt>
      <trkpt lat="43.97854" lon="3.02846">
        <ele>819.6</ele>
        <time>2026-04-30T10:47:24.000Z</time>
      </trkpt>
      <trkpt lat="43.97855" lon="3.02846">
        <ele>819.9</ele>
        <time>2026-04-30T10:47:25.000Z</time>
      </trkpt>
      <trkpt lat="43.97854" lon="3.02845">
        <ele>819.9</ele>
        <time>2026-04-30T10:47:26.000Z</time>
      </trkpt>
      <trkpt lat="43.97854" lon="3.02845">
        <ele>820</ele>
        <time>2026-04-30T10:47:27.000Z</time>
      </trkpt>
      <trkpt lat="43.97854" lon="3.02845">
        <ele>820.2</ele>
        <time>2026-04-30T10:47:28.000Z</time>
      </trkpt>
      <trkpt lat="43.97854" lon="3.02845">
        <ele>820.4</ele>
        <time>2026-04-30T10:47:29.000Z</time>
      </trkpt>
      <trkpt lat="43.97854" lon="3.02845">
        <ele>820.7</ele>
        <time>2026-04-30T10:47:30.000Z</time>
      </trkpt>
      <trkpt lat="43.97854" lon="3.02844">
        <ele>820.9</ele>
        <time>2026-04-30T10:47:31.000Z</time>
      </trkpt>
      <trkpt lat="43.97854" lon="3.02845">
        <ele>821</ele>
        <time>2026-04-30T10:47:32.000Z</time>
      </trkpt>
      <trkpt lat="43.97854" lon="3.02845">
        <ele>820.7</ele>
        <time>2026-04-30T10:47:33.000Z</time>
      </trkpt>
      <trkpt lat="43.97854" lon="3.02844">
        <ele>820.7</ele>
        <time>2026-04-30T10:47:34.000Z</time>
      </trkpt>
      <trkpt lat="43.97854" lon="3.02844">
        <ele>820.8</ele>
        <time>2026-04-30T10:47:35.000Z</time>
      </trkpt>
      <trkpt lat="43.97854" lon="3.02844">
        <ele>820.7</ele>
        <time>2026-04-30T10:47:36.000Z</time>
      </trkpt>
      <trkpt lat="43.97854" lon="3.02844">
        <ele>820.8</ele>
        <time>2026-04-30T10:47:37.000Z</time>
      </trkpt>
      <trkpt lat="43.97854" lon="3.02844">
        <ele>820.9</ele>
        <time>2026-04-30T10:47:38.000Z</time>
      </trkpt>
      <trkpt lat="43.97854" lon="3.02844">
        <ele>821.3</ele>
        <time>2026-04-30T10:47:39.000Z</time>
      </trkpt>
      <trkpt lat="43.97854" lon="3.02844">
        <ele>821.4</ele>
        <time>2026-04-30T10:47:40.000Z</time>
      </trkpt>
      <trkpt lat="43.97854" lon="3.02844">
        <ele>821.3</ele>
        <time>2026-04-30T10:47:41.000Z</time>
      </trkpt>
      <trkpt lat="43.97854" lon="3.02844">
        <ele>821.3</ele>
        <time>2026-04-30T10:47:42.000Z</time>
      </trkpt>
      <trkpt lat="43.97854" lon="3.02845">
        <ele>821.6</ele>
        <time>2026-04-30T10:47:43.000Z</time>
      </trkpt>
      <trkpt lat="43.97854" lon="3.02845">
        <ele>821.6</ele>
        <time>2026-04-30T10:47:44.000Z</time>
      </trkpt>
      <trkpt lat="43.97854" lon="3.02845">
        <ele>821.7</ele>
        <time>2026-04-30T10:47:45.000Z</time>
      </trkpt>
      <trkpt lat="43.97855" lon="3.02845">
        <ele>821.6</ele>
        <time>2026-04-30T10:47:46.000Z</time>
      </trkpt>
      <trkpt lat="43.97855" lon="3.02845">
        <ele>821.2</ele>
        <time>2026-04-30T10:47:47.000Z</time>
      </trkpt>
      <trkpt lat="43.97855" lon="3.02845">
        <ele>821.2</ele>
        <time>2026-04-30T10:47:48.000Z</time>
      </trkpt>
      <trkpt lat="43.97855" lon="3.02845">
        <ele>821.3</ele>
        <time>2026-04-30T10:47:49.000Z</time>
      </trkpt>
      <trkpt lat="43.97855" lon="3.02846">
        <ele>821.4</ele>
        <time>2026-04-30T10:47:50.000Z</time>
      </trkpt>
      <trkpt lat="43.97855" lon="3.02846">
        <ele>821.4</ele>
        <time>2026-04-30T10:47:51.000Z</time>
      </trkpt>
      <trkpt lat="43.97856" lon="3.02846">
        <ele>821.5</ele>
        <time>2026-04-30T10:47:52.000Z</time>
      </trkpt>
      <trkpt lat="43.97856" lon="3.02846">
        <ele>821.5</ele>
        <time>2026-04-30T10:47:53.000Z</time>
      </trkpt>
      <trkpt lat="43.97856" lon="3.02847">
        <ele>821.6</ele>
        <time>2026-04-30T10:47:54.000Z</time>
      </trkpt>
      <trkpt lat="43.97855" lon="3.02849">
        <ele>821.4</ele>
        <time>2026-04-30T10:47:55.000Z</time>
      </trkpt>
      <trkpt lat="43.97856" lon="3.0285">
        <ele>821.5</ele>
        <time>2026-04-30T10:47:56.000Z</time>
      </trkpt>
      <trkpt lat="43.97855" lon="3.02851">
        <ele>821.4</ele>
        <time>2026-04-30T10:47:57.000Z</time>
      </trkpt>
      <trkpt lat="43.97855" lon="3.02853">
        <ele>821.3</ele>
        <time>2026-04-30T10:47:58.000Z</time>
      </trkpt>
      <trkpt lat="43.97854" lon="3.02856">
        <ele>821.2</ele>
        <time>2026-04-30T10:47:59.000Z</time>
      </trkpt>
      <trkpt lat="43.97854" lon="3.02858">
        <ele>821.2</ele>
        <time>2026-04-30T10:48:00.000Z</time>
      </trkpt>
      <trkpt lat="43.97853" lon="3.0286">
        <ele>821.4</ele>
        <time>2026-04-30T10:48:01.000Z</time>
      </trkpt>
      <trkpt lat="43.97853" lon="3.02861">
        <ele>821.4</ele>
        <time>2026-04-30T10:48:02.000Z</time>
      </trkpt>
      <trkpt lat="43.97854" lon="3.02862">
        <ele>821.2</ele>
        <time>2026-04-30T10:48:03.000Z</time>
      </trkpt>
      <trkpt lat="43.97854" lon="3.02862">
        <ele>821</ele>
        <time>2026-04-30T10:48:04.000Z</time>
      </trkpt>
      <trkpt lat="43.97854" lon="3.02862">
        <ele>820.8</ele>
        <time>2026-04-30T10:48:05.000Z</time>
      </trkpt>
      <trkpt lat="43.97854" lon="3.02862">
        <ele>820.8</ele>
        <time>2026-04-30T10:48:06.000Z</time>
      </trkpt>
      <trkpt lat="43.97854" lon="3.02862">
        <ele>820.5</ele>
        <time>2026-04-30T10:48:07.000Z</time>
      </trkpt>
      <trkpt lat="43.97854" lon="3.02862">
        <ele>820.2</ele>
        <time>2026-04-30T10:48:08.000Z</time>
      </trkpt>
      <trkpt lat="43.97854" lon="3.02862">
        <ele>819.9</ele>
        <time>2026-04-30T10:48:09.000Z</time>
      </trkpt>
      <trkpt lat="43.97854" lon="3.02863">
        <ele>820.2</ele>
        <time>2026-04-30T10:48:10.000Z</time>
      </trkpt>
      <trkpt lat="43.97854" lon="3.02863">
        <ele>819.9</ele>
        <time>2026-04-30T10:48:11.000Z</time>
      </trkpt>
      <trkpt lat="43.97853" lon="3.02863">
        <ele>819.9</ele>
        <time>2026-04-30T10:48:12.000Z</time>
      </trkpt>
      <trkpt lat="43.97853" lon="3.02864">
        <ele>819.8</ele>
        <time>2026-04-30T10:48:13.000Z</time>
      </trkpt>
      <trkpt lat="43.97853" lon="3.02864">
        <ele>819.9</ele>
        <time>2026-04-30T10:48:14.000Z</time>
      </trkpt>
      <trkpt lat="43.97853" lon="3.02865">
        <ele>820.1</ele>
        <time>2026-04-30T10:48:15.000Z</time>
      </trkpt>
      <trkpt lat="43.97853" lon="3.02865">
        <ele>820.3</ele>
        <time>2026-04-30T10:48:16.000Z</time>
      </trkpt>
      <trkpt lat="43.97854" lon="3.02865">
        <ele>820.5</ele>
        <time>2026-04-30T10:48:17.000Z</time>
      </trkpt>
      <trkpt lat="43.97854" lon="3.02866">
        <ele>820.5</ele>
        <time>2026-04-30T10:48:18.000Z</time>
      </trkpt>
      <trkpt lat="43.97853" lon="3.02866">
        <ele>820.4</ele>
        <time>2026-04-30T10:48:19.000Z</time>
      </trkpt>
      <trkpt lat="43.97854" lon="3.02866">
        <ele>820.4</ele>
        <time>2026-04-30T10:48:20.000Z</time>
      </trkpt>
      <trkpt lat="43.97854" lon="3.02866">
        <ele>820.3</ele>
        <time>2026-04-30T10:48:21.000Z</time>
      </trkpt>
      <trkpt lat="43.97854" lon="3.02866">
        <ele>820.4</ele>
        <time>2026-04-30T10:48:22.000Z</time>
      </trkpt>
      <trkpt lat="43.97854" lon="3.02866">
        <ele>820.6</ele>
        <time>2026-04-30T10:48:23.000Z</time>
      </trkpt>
      <trkpt lat="43.97854" lon="3.02867">
        <ele>821.3</ele>
        <time>2026-04-30T10:48:24.000Z</time>
      </trkpt>
      <trkpt lat="43.97854" lon="3.02867">
        <ele>821.8</ele>
        <time>2026-04-30T10:48:25.000Z</time>
      </trkpt>
      <trkpt lat="43.97854" lon="3.02867">
        <ele>822.1</ele>
        <time>2026-04-30T10:48:26.000Z</time>
      </trkpt>
      <trkpt lat="43.97854" lon="3.02867">
        <ele>822.3</ele>
        <time>2026-04-30T10:48:27.000Z</time>
      </trkpt>
      <trkpt lat="43.97854" lon="3.02867">
        <ele>822.5</ele>
        <time>2026-04-30T10:48:28.000Z</time>
      </trkpt>
      <trkpt lat="43.97854" lon="3.02867">
        <ele>823</ele>
        <time>2026-04-30T10:48:29.000Z</time>
      </trkpt>
      <trkpt lat="43.97854" lon="3.02867">
        <ele>823.3</ele>
        <time>2026-04-30T10:48:30.000Z</time>
      </trkpt>
      <trkpt lat="43.97854" lon="3.02867">
        <ele>823.5</ele>
        <time>2026-04-30T10:48:31.000Z</time>
      </trkpt>
      <trkpt lat="43.97854" lon="3.02867">
        <ele>823.8</ele>
        <time>2026-04-30T10:48:32.000Z</time>
      </trkpt>
      <trkpt lat="43.97854" lon="3.02867">
        <ele>824</ele>
        <time>2026-04-30T10:48:33.000Z</time>
      </trkpt>
      <trkpt lat="43.97854" lon="3.02867">
        <ele>824.3</ele>
        <time>2026-04-30T10:48:34.000Z</time>
      </trkpt>
      <trkpt lat="43.97854" lon="3.02867">
        <ele>824.7</ele>
        <time>2026-04-30T10:48:35.000Z</time>
      </trkpt>
      <trkpt lat="43.97853" lon="3.02867">
        <ele>824.8</ele>
        <time>2026-04-30T10:48:36.000Z</time>
      </trkpt>
      <trkpt lat="43.97853" lon="3.02866">
        <ele>825</ele>
        <time>2026-04-30T10:48:37.000Z</time>
      </trkpt>
      <trkpt lat="43.97853" lon="3.02866">
        <ele>825.3</ele>
        <time>2026-04-30T10:48:38.000Z</time>
      </trkpt>
      <trkpt lat="43.97853" lon="3.02866">
        <ele>825.5</ele>
        <time>2026-04-30T10:48:39.000Z</time>
      </trkpt>
      <trkpt lat="43.97853" lon="3.02866">
        <ele>825.8</ele>
        <time>2026-04-30T10:48:40.000Z</time>
      </trkpt>
      <trkpt lat="43.97853" lon="3.02866">
        <ele>825.9</ele>
        <time>2026-04-30T10:48:41.000Z</time>
      </trkpt>
      <trkpt lat="43.97853" lon="3.02865">
        <ele>826</ele>
        <time>2026-04-30T10:48:42.000Z</time>
      </trkpt>
      <trkpt lat="43.97853" lon="3.02865">
        <ele>825.7</ele>
        <time>2026-04-30T10:48:43.000Z</time>
      </trkpt>
      <trkpt lat="43.97853" lon="3.02865">
        <ele>825.5</ele>
        <time>2026-04-30T10:48:44.000Z</time>
      </trkpt>
      <trkpt lat="43.97853" lon="3.02864">
        <ele>825.2</ele>
        <time>2026-04-30T10:48:45.000Z</time>
      </trkpt>
      <trkpt lat="43.97853" lon="3.02864">
        <ele>825</ele>
        <time>2026-04-30T10:48:46.000Z</time>
      </trkpt>
      <trkpt lat="43.97853" lon="3.02864">
        <ele>825.1</ele>
        <time>2026-04-30T10:48:47.000Z</time>
      </trkpt>
      <trkpt lat="43.97853" lon="3.02864">
        <ele>825.2</ele>
        <time>2026-04-30T10:48:48.000Z</time>
      </trkpt>
      <trkpt lat="43.97853" lon="3.02864">
        <ele>825.3</ele>
        <time>2026-04-30T10:48:49.000Z</time>
      </trkpt>
      <trkpt lat="43.97853" lon="3.02864">
        <ele>825.3</ele>
        <time>2026-04-30T10:48:50.000Z</time>
      </trkpt>
      <trkpt lat="43.97853" lon="3.02864">
        <ele>825.4</ele>
        <time>2026-04-30T10:48:51.000Z</time>
      </trkpt>
      <trkpt lat="43.97854" lon="3.02864">
        <ele>825.7</ele>
        <time>2026-04-30T10:48:52.000Z</time>
      </trkpt>
      <trkpt lat="43.97854" lon="3.02864">
        <ele>825.8</ele>
        <time>2026-04-30T10:48:53.000Z</time>
      </trkpt>
      <trkpt lat="43.97854" lon="3.02863">
        <ele>825.9</ele>
        <time>2026-04-30T10:48:54.000Z</time>
      </trkpt>
      <trkpt lat="43.97854" lon="3.02863">
        <ele>825.8</ele>
        <time>2026-04-30T10:48:55.000Z</time>
      </trkpt>
      <trkpt lat="43.97854" lon="3.02863">
        <ele>825.6</ele>
        <time>2026-04-30T10:48:56.000Z</time>
      </trkpt>
      <trkpt lat="43.97854" lon="3.02863">
        <ele>825.4</ele>
        <time>2026-04-30T10:48:57.000Z</time>
      </trkpt>
      <trkpt lat="43.97854" lon="3.02863">
        <ele>825.3</ele>
        <time>2026-04-30T10:48:58.000Z</time>
      </trkpt>
      <trkpt lat="43.97854" lon="3.02863">
        <ele>825.2</ele>
        <time>2026-04-30T10:48:59.000Z</time>
      </trkpt>
      <trkpt lat="43.97854" lon="3.02863">
        <ele>825.2</ele>
        <time>2026-04-30T10:49:00.000Z</time>
      </trkpt>
      <trkpt lat="43.97854" lon="3.02863">
        <ele>825.1</ele>
        <time>2026-04-30T10:49:01.000Z</time>
      </trkpt>
      <trkpt lat="43.97854" lon="3.02863">
        <ele>825.1</ele>
        <time>2026-04-30T10:49:02.000Z</time>
      </trkpt>
      <trkpt lat="43.97854" lon="3.02863">
        <ele>825.1</ele>
        <time>2026-04-30T10:49:03.000Z</time>
      </trkpt>
      <trkpt lat="43.97854" lon="3.02863">
        <ele>825</ele>
        <time>2026-04-30T10:49:04.000Z</time>
      </trkpt>
      <trkpt lat="43.97854" lon="3.02863">
        <ele>824.9</ele>
        <time>2026-04-30T10:49:05.000Z</time>
      </trkpt>
      <trkpt lat="43.97855" lon="3.02863">
        <ele>825</ele>
        <time>2026-04-30T10:49:06.000Z</time>
      </trkpt>
      <trkpt lat="43.97855" lon="3.02863">
        <ele>825</ele>
        <time>2026-04-30T10:49:07.000Z</time>
      </trkpt>
      <trkpt lat="43.97855" lon="3.02863">
        <ele>825.4</ele>
        <time>2026-04-30T10:49:08.000Z</time>
      </trkpt>
      <trkpt lat="43.97855" lon="3.02863">
        <ele>825.9</ele>
        <time>2026-04-30T10:49:09.000Z</time>
      </trkpt>
      <trkpt lat="43.97855" lon="3.02863">
        <ele>825.7</ele>
        <time>2026-04-30T10:49:10.000Z</time>
      </trkpt>
      <trkpt lat="43.97855" lon="3.02863">
        <ele>825.8</ele>
        <time>2026-04-30T10:49:12.000Z</time>
      </trkpt>
      <trkpt lat="43.97855" lon="3.02863">
        <ele>825.7</ele>
        <time>2026-04-30T10:49:13.000Z</time>
      </trkpt>
      <trkpt lat="43.97855" lon="3.02863">
        <ele>825.7</ele>
        <time>2026-04-30T10:49:14.000Z</time>
      </trkpt>
      <trkpt lat="43.97855" lon="3.02863">
        <ele>825.5</ele>
        <time>2026-04-30T10:49:15.000Z</time>
      </trkpt>
      <trkpt lat="43.97855" lon="3.02863">
        <ele>825.4</ele>
        <time>2026-04-30T10:49:16.000Z</time>
      </trkpt>
      <trkpt lat="43.97855" lon="3.02863">
        <ele>825.3</ele>
        <time>2026-04-30T10:49:17.000Z</time>
      </trkpt>
      <trkpt lat="43.97855" lon="3.02863">
        <ele>825.2</ele>
        <time>2026-04-30T10:49:18.000Z</time>
      </trkpt>
      <trkpt lat="43.97855" lon="3.02863">
        <ele>825.2</ele>
        <time>2026-04-30T10:49:19.000Z</time>
      </trkpt>
      <trkpt lat="43.97855" lon="3.02863">
        <ele>825.1</ele>
        <time>2026-04-30T10:49:20.000Z</time>
      </trkpt>
      <trkpt lat="43.97855" lon="3.02863">
        <ele>825</ele>
        <time>2026-04-30T10:49:21.000Z</time>
      </trkpt>
      <trkpt lat="43.97855" lon="3.02863">
        <ele>825.1</ele>
        <time>2026-04-30T10:49:22.000Z</time>
      </trkpt>
      <trkpt lat="43.97855" lon="3.02863">
        <ele>825.2</ele>
        <time>2026-04-30T10:49:23.000Z</time>
      </trkpt>
      <trkpt lat="43.97855" lon="3.02863">
        <ele>825.2</ele>
        <time>2026-04-30T10:49:24.000Z</time>
      </trkpt>
      <trkpt lat="43.97855" lon="3.02863">
        <ele>825.2</ele>
        <time>2026-04-30T10:49:25.000Z</time>
      </trkpt>
      <trkpt lat="43.97855" lon="3.02863">
        <ele>825.3</ele>
        <time>2026-04-30T10:49:26.000Z</time>
      </trkpt>
      <trkpt lat="43.97855" lon="3.02863">
        <ele>825.2</ele>
        <time>2026-04-30T10:49:27.000Z</time>
      </trkpt>
      <trkpt lat="43.97855" lon="3.02863">
        <ele>825.1</ele>
        <time>2026-04-30T10:49:28.000Z</time>
      </trkpt>
      <trkpt lat="43.97855" lon="3.02863">
        <ele>825.1</ele>
        <time>2026-04-30T10:49:29.000Z</time>
      </trkpt>
      <trkpt lat="43.97855" lon="3.02863">
        <ele>824.8</ele>
        <time>2026-04-30T10:49:30.000Z</time>
      </trkpt>
      <trkpt lat="43.97855" lon="3.02863">
        <ele>824.5</ele>
        <time>2026-04-30T10:49:31.000Z</time>
      </trkpt>
      <trkpt lat="43.97855" lon="3.02863">
        <ele>824.2</ele>
        <time>2026-04-30T10:49:32.000Z</time>
      </trkpt>
      <trkpt lat="43.97855" lon="3.02863">
        <ele>824.2</ele>
        <time>2026-04-30T10:49:33.000Z</time>
      </trkpt>
      <trkpt lat="43.97855" lon="3.02863">
        <ele>824.3</ele>
        <time>2026-04-30T10:49:34.000Z</time>
      </trkpt>
      <trkpt lat="43.97855" lon="3.02863">
        <ele>824.3</ele>
        <time>2026-04-30T10:49:35.000Z</time>
      </trkpt>
      <trkpt lat="43.97855" lon="3.02863">
        <ele>824.3</ele>
        <time>2026-04-30T10:49:36.000Z</time>
      </trkpt>
      <trkpt lat="43.97854" lon="3.02863">
        <ele>824.2</ele>
        <time>2026-04-30T10:49:37.000Z</time>
      </trkpt>
      <trkpt lat="43.97854" lon="3.02863">
        <ele>824.3</ele>
        <time>2026-04-30T10:49:38.000Z</time>
      </trkpt>
      <trkpt lat="43.97854" lon="3.02863">
        <ele>824.3</ele>
        <time>2026-04-30T10:49:39.000Z</time>
      </trkpt>
      <trkpt lat="43.97854" lon="3.02863">
        <ele>824.4</ele>
        <time>2026-04-30T10:49:40.000Z</time>
      </trkpt>
      <trkpt lat="43.97854" lon="3.02863">
        <ele>824.5</ele>
        <time>2026-04-30T10:49:41.000Z</time>
      </trkpt>
      <trkpt lat="43.97854" lon="3.02863">
        <ele>824.5</ele>
        <time>2026-04-30T10:49:42.000Z</time>
      </trkpt>
      <trkpt lat="43.97854" lon="3.02863">
        <ele>824.6</ele>
        <time>2026-04-30T10:49:43.000Z</time>
      </trkpt>
      <trkpt lat="43.97854" lon="3.02863">
        <ele>824.6</ele>
        <time>2026-04-30T10:49:44.000Z</time>
      </trkpt>
      <trkpt lat="43.97854" lon="3.02863">
        <ele>824.6</ele>
        <time>2026-04-30T10:49:45.000Z</time>
      </trkpt>
      <trkpt lat="43.97854" lon="3.02864">
        <ele>824.8</ele>
        <time>2026-04-30T10:49:46.000Z</time>
      </trkpt>
      <trkpt lat="43.97854" lon="3.02864">
        <ele>824.8</ele>
        <time>2026-04-30T10:49:47.000Z</time>
      </trkpt>
      <trkpt lat="43.97855" lon="3.02864">
        <ele>824.8</ele>
        <time>2026-04-30T10:49:48.000Z</time>
      </trkpt>
      <trkpt lat="43.97855" lon="3.02864">
        <ele>824.8</ele>
        <time>2026-04-30T10:49:49.000Z</time>
      </trkpt>
      <trkpt lat="43.97855" lon="3.02864">
        <ele>824.7</ele>
        <time>2026-04-30T10:49:50.000Z</time>
      </trkpt>
      <trkpt lat="43.97855" lon="3.02864">
        <ele>824.7</ele>
        <time>2026-04-30T10:49:51.000Z</time>
      </trkpt>
      <trkpt lat="43.97855" lon="3.02864">
        <ele>824.7</ele>
        <time>2026-04-30T10:49:52.000Z</time>
      </trkpt>
      <trkpt lat="43.97855" lon="3.02864">
        <ele>824.8</ele>
        <time>2026-04-30T10:49:53.000Z</time>
      </trkpt>
      <trkpt lat="43.97855" lon="3.02864">
        <ele>824.9</ele>
        <time>2026-04-30T10:49:54.000Z</time>
      </trkpt>
      <trkpt lat="43.97855" lon="3.02864">
        <ele>824.9</ele>
        <time>2026-04-30T10:49:55.000Z</time>
      </trkpt>
      <trkpt lat="43.97855" lon="3.02864">
        <ele>824.9</ele>
        <time>2026-04-30T10:49:56.000Z</time>
      </trkpt>
      <trkpt lat="43.97855" lon="3.02864">
        <ele>824.9</ele>
        <time>2026-04-30T10:49:57.000Z</time>
      </trkpt>
      <trkpt lat="43.97855" lon="3.02864">
        <ele>824.8</ele>
        <time>2026-04-30T10:49:58.000Z</time>
      </trkpt>
      <trkpt lat="43.97855" lon="3.02864">
        <ele>824.8</ele>
        <time>2026-04-30T10:49:59.000Z</time>
      </trkpt>
      <trkpt lat="43.97855" lon="3.02865">
        <ele>824.8</ele>
        <time>2026-04-30T10:50:00.000Z</time>
      </trkpt>
      <trkpt lat="43.97855" lon="3.02865">
        <ele>824.7</ele>
        <time>2026-04-30T10:50:01.000Z</time>
      </trkpt>
      <trkpt lat="43.97855" lon="3.02865">
        <ele>824.6</ele>
        <time>2026-04-30T10:50:02.000Z</time>
      </trkpt>
      <trkpt lat="43.97855" lon="3.02865">
        <ele>824.5</ele>
        <time>2026-04-30T10:50:03.000Z</time>
      </trkpt>
      <trkpt lat="43.97855" lon="3.02865">
        <ele>824.3</ele>
        <time>2026-04-30T10:50:04.000Z</time>
      </trkpt>
      <trkpt lat="43.97855" lon="3.02865">
        <ele>824.2</ele>
        <time>2026-04-30T10:50:05.000Z</time>
      </trkpt>
      <trkpt lat="43.97855" lon="3.02865">
        <ele>824.1</ele>
        <time>2026-04-30T10:50:06.000Z</time>
      </trkpt>
      <trkpt lat="43.97855" lon="3.02865">
        <ele>824.1</ele>
        <time>2026-04-30T10:50:07.000Z</time>
      </trkpt>
      <trkpt lat="43.97855" lon="3.02865">
        <ele>824.1</ele>
        <time>2026-04-30T10:50:08.000Z</time>
      </trkpt>
      <trkpt lat="43.97855" lon="3.02865">
        <ele>824</ele>
        <time>2026-04-30T10:50:09.000Z</time>
      </trkpt>
      <trkpt lat="43.97855" lon="3.02865">
        <ele>824</ele>
        <time>2026-04-30T10:50:10.000Z</time>
      </trkpt>
      <trkpt lat="43.97855" lon="3.02865">
        <ele>824.1</ele>
        <time>2026-04-30T10:50:11.000Z</time>
      </trkpt>
      <trkpt lat="43.97855" lon="3.02865">
        <ele>824.4</ele>
        <time>2026-04-30T10:50:12.000Z</time>
      </trkpt>
      <trkpt lat="43.97855" lon="3.02865">
        <ele>824.6</ele>
        <time>2026-04-30T10:50:13.000Z</time>
      </trkpt>
      <trkpt lat="43.97855" lon="3.02865">
        <ele>824.7</ele>
        <time>2026-04-30T10:50:14.000Z</time>
      </trkpt>
      <trkpt lat="43.97855" lon="3.02865">
        <ele>824.5</ele>
        <time>2026-04-30T10:50:15.000Z</time>
      </trkpt>
      <trkpt lat="43.97855" lon="3.02865">
        <ele>824.1</ele>
        <time>2026-04-30T10:50:16.000Z</time>
      </trkpt>
      <trkpt lat="43.97855" lon="3.02865">
        <ele>823.8</ele>
        <time>2026-04-30T10:50:17.000Z</time>
      </trkpt>
      <trkpt lat="43.97855" lon="3.02865">
        <ele>823.7</ele>
        <time>2026-04-30T10:50:18.000Z</time>
      </trkpt>
      <trkpt lat="43.97855" lon="3.02865">
        <ele>823.6</ele>
        <time>2026-04-30T10:50:19.000Z</time>
      </trkpt>
      <trkpt lat="43.97855" lon="3.02865">
        <ele>823.4</ele>
        <time>2026-04-30T10:50:20.000Z</time>
      </trkpt>
      <trkpt lat="43.97855" lon="3.02865">
        <ele>823.3</ele>
        <time>2026-04-30T10:50:21.000Z</time>
      </trkpt>
      <trkpt lat="43.97855" lon="3.02865">
        <ele>823.3</ele>
        <time>2026-04-30T10:50:22.000Z</time>
      </trkpt>
      <trkpt lat="43.97855" lon="3.02865">
        <ele>823.3</ele>
        <time>2026-04-30T10:50:23.000Z</time>
      </trkpt>
      <trkpt lat="43.97855" lon="3.02865">
        <ele>823.6</ele>
        <time>2026-04-30T10:50:24.000Z</time>
      </trkpt>
      <trkpt lat="43.97855" lon="3.02865">
        <ele>823.9</ele>
        <time>2026-04-30T10:50:25.000Z</time>
      </trkpt>
      <trkpt lat="43.97855" lon="3.02865">
        <ele>824.3</ele>
        <time>2026-04-30T10:50:26.000Z</time>
      </trkpt>
      <trkpt lat="43.97855" lon="3.02865">
        <ele>824.5</ele>
        <time>2026-04-30T10:50:27.000Z</time>
      </trkpt>
      <trkpt lat="43.97855" lon="3.02865">
        <ele>824.5</ele>
        <time>2026-04-30T10:50:28.000Z</time>
      </trkpt>
      <trkpt lat="43.97855" lon="3.02865">
        <ele>824.6</ele>
        <time>2026-04-30T10:50:29.000Z</time>
      </trkpt>
      <trkpt lat="43.97855" lon="3.02865">
        <ele>824.7</ele>
        <time>2026-04-30T10:50:30.000Z</time>
      </trkpt>
      <trkpt lat="43.97855" lon="3.02865">
        <ele>824.4</ele>
        <time>2026-04-30T10:50:31.000Z</time>
      </trkpt>
      <trkpt lat="43.97855" lon="3.02865">
        <ele>824.6</ele>
        <time>2026-04-30T10:50:32.000Z</time>
      </trkpt>
      <trkpt lat="43.97855" lon="3.02865">
        <ele>824.6</ele>
        <time>2026-04-30T10:50:33.000Z</time>
      </trkpt>
      <trkpt lat="43.97855" lon="3.02865">
        <ele>824.7</ele>
        <time>2026-04-30T10:50:34.000Z</time>
      </trkpt>
      <trkpt lat="43.97855" lon="3.02865">
        <ele>824.8</ele>
        <time>2026-04-30T10:50:35.000Z</time>
      </trkpt>
      <trkpt lat="43.97855" lon="3.02865">
        <ele>824.7</ele>
        <time>2026-04-30T10:50:36.000Z</time>
      </trkpt>
      <trkpt lat="43.97855" lon="3.02865">
        <ele>824.6</ele>
        <time>2026-04-30T10:50:37.000Z</time>
      </trkpt>
      <trkpt lat="43.97855" lon="3.02865">
        <ele>824.6</ele>
        <time>2026-04-30T10:50:38.000Z</time>
      </trkpt>
      <trkpt lat="43.97855" lon="3.02865">
        <ele>824.5</ele>
        <time>2026-04-30T10:50:39.000Z</time>
      </trkpt>
      <trkpt lat="43.97855" lon="3.02865">
        <ele>824.6</ele>
        <time>2026-04-30T10:50:40.000Z</time>
      </trkpt>
      <trkpt lat="43.97855" lon="3.02865">
        <ele>824.8</ele>
        <time>2026-04-30T10:50:41.000Z</time>
      </trkpt>
      <trkpt lat="43.97855" lon="3.02865">
        <ele>824.8</ele>
        <time>2026-04-30T10:50:42.000Z</time>
      </trkpt>
      <trkpt lat="43.97855" lon="3.02865">
        <ele>824.5</ele>
        <time>2026-04-30T10:50:43.000Z</time>
      </trkpt>
      <trkpt lat="43.97855" lon="3.02865">
        <ele>824.4</ele>
        <time>2026-04-30T10:50:44.000Z</time>
      </trkpt>
      <trkpt lat="43.97855" lon="3.02865">
        <ele>824.5</ele>
        <time>2026-04-30T10:50:45.000Z</time>
      </trkpt>
      <trkpt lat="43.97855" lon="3.02864">
        <ele>824.5</ele>
        <time>2026-04-30T10:50:46.000Z</time>
      </trkpt>
      <trkpt lat="43.97855" lon="3.02864">
        <ele>824.6</ele>
        <time>2026-04-30T10:50:47.000Z</time>
      </trkpt>
      <trkpt lat="43.97855" lon="3.02864">
        <ele>824.6</ele>
        <time>2026-04-30T10:50:48.000Z</time>
      </trkpt>
      <trkpt lat="43.97855" lon="3.02864">
        <ele>824.7</ele>
        <time>2026-04-30T10:50:49.000Z</time>
      </trkpt>
      <trkpt lat="43.97855" lon="3.02864">
        <ele>824.6</ele>
        <time>2026-04-30T10:50:50.000Z</time>
      </trkpt>
      <trkpt lat="43.97855" lon="3.02864">
        <ele>824.7</ele>
        <time>2026-04-30T10:50:51.000Z</time>
      </trkpt>
      <trkpt lat="43.97855" lon="3.02864">
        <ele>824.8</ele>
        <time>2026-04-30T10:50:52.000Z</time>
      </trkpt>
      <trkpt lat="43.97855" lon="3.02864">
        <ele>824.9</ele>
        <time>2026-04-30T10:50:53.000Z</time>
      </trkpt>
      <trkpt lat="43.97854" lon="3.02864">
        <ele>825.1</ele>
        <time>2026-04-30T10:50:54.000Z</time>
      </trkpt>
      <trkpt lat="43.97854" lon="3.02864">
        <ele>825.3</ele>
        <time>2026-04-30T10:50:55.000Z</time>
      </trkpt>
      <trkpt lat="43.97854" lon="3.02864">
        <ele>825.3</ele>
        <time>2026-04-30T10:50:56.000Z</time>
      </trkpt>
      <trkpt lat="43.97855" lon="3.02864">
        <ele>825.4</ele>
        <time>2026-04-30T10:50:57.000Z</time>
      </trkpt>
      <trkpt lat="43.97854" lon="3.02864">
        <ele>825.4</ele>
        <time>2026-04-30T10:50:58.000Z</time>
      </trkpt>
      <trkpt lat="43.97855" lon="3.02865">
        <ele>825.6</ele>
        <time>2026-04-30T10:50:59.000Z</time>
      </trkpt>
      <trkpt lat="43.97855" lon="3.02865">
        <ele>825.6</ele>
        <time>2026-04-30T10:51:00.000Z</time>
      </trkpt>
      <trkpt lat="43.97855" lon="3.02865">
        <ele>825.5</ele>
        <time>2026-04-30T10:51:01.000Z</time>
      </trkpt>
      <trkpt lat="43.97855" lon="3.02865">
        <ele>825.5</ele>
        <time>2026-04-30T10:51:02.000Z</time>
      </trkpt>
      <trkpt lat="43.97855" lon="3.02865">
        <ele>825.5</ele>
        <time>2026-04-30T10:51:03.000Z</time>
      </trkpt>
      <trkpt lat="43.97855" lon="3.02865">
        <ele>825.6</ele>
        <time>2026-04-30T10:51:04.000Z</time>
      </trkpt>
      <trkpt lat="43.97855" lon="3.02865">
        <ele>825.4</ele>
        <time>2026-04-30T10:51:05.000Z</time>
      </trkpt>
      <trkpt lat="43.97855" lon="3.02865">
        <ele>825.5</ele>
        <time>2026-04-30T10:51:06.000Z</time>
      </trkpt>
      <trkpt lat="43.97855" lon="3.02864">
        <ele>825.8</ele>
        <time>2026-04-30T10:51:07.000Z</time>
      </trkpt>
      <trkpt lat="43.97855" lon="3.02864">
        <ele>826</ele>
        <time>2026-04-30T10:51:08.000Z</time>
      </trkpt>
      <trkpt lat="43.97855" lon="3.02864">
        <ele>826.1</ele>
        <time>2026-04-30T10:51:09.000Z</time>
      </trkpt>
      <trkpt lat="43.97855" lon="3.02864">
        <ele>826.3</ele>
        <time>2026-04-30T10:51:10.000Z</time>
      </trkpt>
      <trkpt lat="43.97855" lon="3.02864">
        <ele>826.3</ele>
        <time>2026-04-30T10:51:11.000Z</time>
      </trkpt>
      <trkpt lat="43.97855" lon="3.02864">
        <ele>826.2</ele>
        <time>2026-04-30T10:51:12.000Z</time>
      </trkpt>
      <trkpt lat="43.97855" lon="3.02864">
        <ele>826.2</ele>
        <time>2026-04-30T10:51:13.000Z</time>
      </trkpt>
      <trkpt lat="43.97855" lon="3.02864">
        <ele>826.3</ele>
        <time>2026-04-30T10:51:14.000Z</time>
      </trkpt>
      <trkpt lat="43.97855" lon="3.02864">
        <ele>826.4</ele>
        <time>2026-04-30T10:51:15.000Z</time>
      </trkpt>
      <trkpt lat="43.97855" lon="3.02865">
        <ele>826.7</ele>
        <time>2026-04-30T10:51:16.000Z</time>
      </trkpt>
      <trkpt lat="43.97855" lon="3.02865">
        <ele>826.9</ele>
        <time>2026-04-30T10:51:17.000Z</time>
      </trkpt>
      <trkpt lat="43.97855" lon="3.02865">
        <ele>826.9</ele>
        <time>2026-04-30T10:51:18.000Z</time>
      </trkpt>
      <trkpt lat="43.97855" lon="3.02865">
        <ele>827.1</ele>
        <time>2026-04-30T10:51:19.000Z</time>
      </trkpt>
      <trkpt lat="43.97855" lon="3.02865">
        <ele>827.1</ele>
        <time>2026-04-30T10:51:20.000Z</time>
      </trkpt>
      <trkpt lat="43.97855" lon="3.02865">
        <ele>827.2</ele>
        <time>2026-04-30T10:51:21.000Z</time>
      </trkpt>
      <trkpt lat="43.97855" lon="3.02865">
        <ele>827.2</ele>
        <time>2026-04-30T10:51:22.000Z</time>
      </trkpt>
      <trkpt lat="43.97855" lon="3.02865">
        <ele>827.1</ele>
        <time>2026-04-30T10:51:23.000Z</time>
      </trkpt>
      <trkpt lat="43.97855" lon="3.02865">
        <ele>827</ele>
        <time>2026-04-30T10:51:24.000Z</time>
      </trkpt>
      <trkpt lat="43.97855" lon="3.02864">
        <ele>827</ele>
        <time>2026-04-30T10:51:25.000Z</time>
      </trkpt>
      <trkpt lat="43.97855" lon="3.02864">
        <ele>827.1</ele>
        <time>2026-04-30T10:51:26.000Z</time>
      </trkpt>
      <trkpt lat="43.97855" lon="3.02864">
        <ele>827.4</ele>
        <time>2026-04-30T10:51:27.000Z</time>
      </trkpt>
      <trkpt lat="43.97855" lon="3.02864">
        <ele>827.5</ele>
        <time>2026-04-30T10:51:28.000Z</time>
      </trkpt>
      <trkpt lat="43.97855" lon="3.02864">
        <ele>827.6</ele>
        <time>2026-04-30T10:51:29.000Z</time>
      </trkpt>
      <trkpt lat="43.97855" lon="3.02864">
        <ele>827.6</ele>
        <time>2026-04-30T10:51:30.000Z</time>
      </trkpt>
      <trkpt lat="43.97855" lon="3.02864">
        <ele>827.6</ele>
        <time>2026-04-30T10:51:31.000Z</time>
      </trkpt>
      <trkpt lat="43.97855" lon="3.02864">
        <ele>827.6</ele>
        <time>2026-04-30T10:51:32.000Z</time>
      </trkpt>
      <trkpt lat="43.97854" lon="3.02864">
        <ele>827.5</ele>
        <time>2026-04-30T10:51:33.000Z</time>
      </trkpt>
      <trkpt lat="43.97854" lon="3.02864">
        <ele>827.6</ele>
        <time>2026-04-30T10:51:34.000Z</time>
      </trkpt>
      <trkpt lat="43.97854" lon="3.02864">
        <ele>827.6</ele>
        <time>2026-04-30T10:51:35.000Z</time>
      </trkpt>
      <trkpt lat="43.97854" lon="3.02864">
        <ele>827.5</ele>
        <time>2026-04-30T10:51:36.000Z</time>
      </trkpt>
      <trkpt lat="43.97854" lon="3.02864">
        <ele>827.5</ele>
        <time>2026-04-30T10:51:37.000Z</time>
      </trkpt>
      <trkpt lat="43.97854" lon="3.02864">
        <ele>827.3</ele>
        <time>2026-04-30T10:51:38.000Z</time>
      </trkpt>
      <trkpt lat="43.97854" lon="3.02864">
        <ele>827.2</ele>
        <time>2026-04-30T10:51:39.000Z</time>
      </trkpt>
      <trkpt lat="43.97854" lon="3.02864">
        <ele>827.3</ele>
        <time>2026-04-30T10:51:40.000Z</time>
      </trkpt>
      <trkpt lat="43.97854" lon="3.02864">
        <ele>827.4</ele>
        <time>2026-04-30T10:51:41.000Z</time>
      </trkpt>
      <trkpt lat="43.97854" lon="3.02864">
        <ele>827.4</ele>
        <time>2026-04-30T10:51:42.000Z</time>
      </trkpt>
      <trkpt lat="43.97854" lon="3.02864">
        <ele>827.4</ele>
        <time>2026-04-30T10:51:43.000Z</time>
      </trkpt>
      <trkpt lat="43.97854" lon="3.02864">
        <ele>827.3</ele>
        <time>2026-04-30T10:51:44.000Z</time>
      </trkpt>
      <trkpt lat="43.97854" lon="3.02864">
        <ele>827.3</ele>
        <time>2026-04-30T10:51:45.000Z</time>
      </trkpt>
      <trkpt lat="43.97854" lon="3.02864">
        <ele>827.3</ele>
        <time>2026-04-30T10:51:46.000Z</time>
      </trkpt>
      <trkpt lat="43.97854" lon="3.02864">
        <ele>827.3</ele>
        <time>2026-04-30T10:51:47.000Z</time>
      </trkpt>
      <trkpt lat="43.97854" lon="3.02864">
        <ele>827.1</ele>
        <time>2026-04-30T10:51:48.000Z</time>
      </trkpt>
      <trkpt lat="43.97854" lon="3.02864">
        <ele>827.1</ele>
        <time>2026-04-30T10:51:49.000Z</time>
      </trkpt>
      <trkpt lat="43.97855" lon="3.02864">
        <ele>827.1</ele>
        <time>2026-04-30T10:51:50.000Z</time>
      </trkpt>
      <trkpt lat="43.97855" lon="3.02864">
        <ele>827</ele>
        <time>2026-04-30T10:51:51.000Z</time>
      </trkpt>
      <trkpt lat="43.97855" lon="3.02864">
        <ele>827</ele>
        <time>2026-04-30T10:51:52.000Z</time>
      </trkpt>
      <trkpt lat="43.97855" lon="3.02864">
        <ele>826.9</ele>
        <time>2026-04-30T10:51:53.000Z</time>
      </trkpt>
      <trkpt lat="43.97855" lon="3.02864">
        <ele>826.8</ele>
        <time>2026-04-30T10:51:54.000Z</time>
      </trkpt>
      <trkpt lat="43.97855" lon="3.02864">
        <ele>827</ele>
        <time>2026-04-30T10:51:55.000Z</time>
      </trkpt>
      <trkpt lat="43.97855" lon="3.02864">
        <ele>827.1</ele>
        <time>2026-04-30T10:51:56.000Z</time>
      </trkpt>
      <trkpt lat="43.97855" lon="3.02864">
        <ele>827.1</ele>
        <time>2026-04-30T10:51:57.000Z</time>
      </trkpt>
      <trkpt lat="43.97855" lon="3.02864">
        <ele>827.1</ele>
        <time>2026-04-30T10:51:58.000Z</time>
      </trkpt>
      <trkpt lat="43.97855" lon="3.02864">
        <ele>827.2</ele>
        <time>2026-04-30T10:51:59.000Z</time>
      </trkpt>
      <trkpt lat="43.97855" lon="3.02864">
        <ele>826.8</ele>
        <time>2026-04-30T10:52:00.000Z</time>
      </trkpt>
      <trkpt lat="43.97855" lon="3.02864">
        <ele>826.6</ele>
        <time>2026-04-30T10:52:01.000Z</time>
      </trkpt>
      <trkpt lat="43.97855" lon="3.02864">
        <ele>826.5</ele>
        <time>2026-04-30T10:52:02.000Z</time>
      </trkpt>
      <trkpt lat="43.97855" lon="3.02863">
        <ele>826.5</ele>
        <time>2026-04-30T10:52:03.000Z</time>
      </trkpt>
      <trkpt lat="43.97855" lon="3.02864">
        <ele>826.4</ele>
        <time>2026-04-30T10:52:04.000Z</time>
      </trkpt>
      <trkpt lat="43.97855" lon="3.02863">
        <ele>826.3</ele>
        <time>2026-04-30T10:52:05.000Z</time>
      </trkpt>
      <trkpt lat="43.97855" lon="3.02863">
        <ele>826.2</ele>
        <time>2026-04-30T10:52:06.000Z</time>
      </trkpt>
      <trkpt lat="43.97855" lon="3.02864">
        <ele>826.1</ele>
        <time>2026-04-30T10:52:07.000Z</time>
      </trkpt>
      <trkpt lat="43.97855" lon="3.02864">
        <ele>826.2</ele>
        <time>2026-04-30T10:52:08.000Z</time>
      </trkpt>
      <trkpt lat="43.97855" lon="3.02864">
        <ele>826.2</ele>
        <time>2026-04-30T10:52:09.000Z</time>
      </trkpt>
      <trkpt lat="43.97855" lon="3.02863">
        <ele>826</ele>
        <time>2026-04-30T10:52:10.000Z</time>
      </trkpt>
      <trkpt lat="43.97855" lon="3.02863">
        <ele>825.8</ele>
        <time>2026-04-30T10:52:11.000Z</time>
      </trkpt>
      <trkpt lat="43.97855" lon="3.02863">
        <ele>825.9</ele>
        <time>2026-04-30T10:52:12.000Z</time>
      </trkpt>
      <trkpt lat="43.97855" lon="3.02863">
        <ele>826</ele>
        <time>2026-04-30T10:52:13.000Z</time>
      </trkpt>
      <trkpt lat="43.97855" lon="3.02863">
        <ele>825.9</ele>
        <time>2026-04-30T10:52:14.000Z</time>
      </trkpt>
      <trkpt lat="43.97855" lon="3.02863">
        <ele>825.9</ele>
        <time>2026-04-30T10:52:15.000Z</time>
      </trkpt>
      <trkpt lat="43.97855" lon="3.02863">
        <ele>825.7</ele>
        <time>2026-04-30T10:52:16.000Z</time>
      </trkpt>
      <trkpt lat="43.97855" lon="3.02863">
        <ele>825.6</ele>
        <time>2026-04-30T10:52:17.000Z</time>
      </trkpt>
      <trkpt lat="43.97855" lon="3.02863">
        <ele>825.6</ele>
        <time>2026-04-30T10:52:18.000Z</time>
      </trkpt>
      <trkpt lat="43.97855" lon="3.02863">
        <ele>825.5</ele>
        <time>2026-04-30T10:52:19.000Z</time>
      </trkpt>
      <trkpt lat="43.97855" lon="3.02863">
        <ele>825.3</ele>
        <time>2026-04-30T10:52:20.000Z</time>
      </trkpt>
      <trkpt lat="43.97855" lon="3.02863">
        <ele>825.2</ele>
        <time>2026-04-30T10:52:21.000Z</time>
      </trkpt>
      <trkpt lat="43.97855" lon="3.02863">
        <ele>825.1</ele>
        <time>2026-04-30T10:52:22.000Z</time>
      </trkpt>
      <trkpt lat="43.97855" lon="3.02863">
        <ele>825.1</ele>
        <time>2026-04-30T10:52:23.000Z</time>
      </trkpt>
      <trkpt lat="43.97855" lon="3.02863">
        <ele>824.9</ele>
        <time>2026-04-30T10:52:24.000Z</time>
      </trkpt>
      <trkpt lat="43.97855" lon="3.02863">
        <ele>824.7</ele>
        <time>2026-04-30T10:52:25.000Z</time>
      </trkpt>
      <trkpt lat="43.97855" lon="3.02863">
        <ele>824.6</ele>
        <time>2026-04-30T10:52:26.000Z</time>
      </trkpt>
      <trkpt lat="43.97855" lon="3.02863">
        <ele>824.5</ele>
        <time>2026-04-30T10:52:27.000Z</time>
      </trkpt>
      <trkpt lat="43.97855" lon="3.02863">
        <ele>824.5</ele>
        <time>2026-04-30T10:52:28.000Z</time>
      </trkpt>
      <trkpt lat="43.97855" lon="3.02863">
        <ele>824.6</ele>
        <time>2026-04-30T10:52:29.000Z</time>
      </trkpt>
      <trkpt lat="43.97855" lon="3.02863">
        <ele>824.7</ele>
        <time>2026-04-30T10:52:30.000Z</time>
      </trkpt>
      <trkpt lat="43.97855" lon="3.02863">
        <ele>824.9</ele>
        <time>2026-04-30T10:52:31.000Z</time>
      </trkpt>
      <trkpt lat="43.97855" lon="3.02863">
        <ele>825.1</ele>
        <time>2026-04-30T10:52:32.000Z</time>
      </trkpt>
      <trkpt lat="43.97855" lon="3.02863">
        <ele>825.2</ele>
        <time>2026-04-30T10:52:33.000Z</time>
      </trkpt>
      <trkpt lat="43.97855" lon="3.02863">
        <ele>825.3</ele>
        <time>2026-04-30T10:52:34.000Z</time>
      </trkpt>
      <trkpt lat="43.97855" lon="3.02863">
        <ele>825.4</ele>
        <time>2026-04-30T10:52:35.000Z</time>
      </trkpt>
      <trkpt lat="43.97855" lon="3.02863">
        <ele>825.4</ele>
        <time>2026-04-30T10:52:36.000Z</time>
      </trkpt>
      <trkpt lat="43.97855" lon="3.02863">
        <ele>825.3</ele>
        <time>2026-04-30T10:52:37.000Z</time>
      </trkpt>
      <trkpt lat="43.97855" lon="3.02863">
        <ele>825.2</ele>
        <time>2026-04-30T10:52:38.000Z</time>
      </trkpt>
      <trkpt lat="43.97855" lon="3.02863">
        <ele>825.3</ele>
        <time>2026-04-30T10:52:39.000Z</time>
      </trkpt>
      <trkpt lat="43.97855" lon="3.02863">
        <ele>825.4</ele>
        <time>2026-04-30T10:52:40.000Z</time>
      </trkpt>
      <trkpt lat="43.97855" lon="3.02863">
        <ele>825.5</ele>
        <time>2026-04-30T10:52:41.000Z</time>
      </trkpt>
      <trkpt lat="43.97855" lon="3.02863">
        <ele>825.6</ele>
        <time>2026-04-30T10:52:42.000Z</time>
      </trkpt>
      <trkpt lat="43.97855" lon="3.02863">
        <ele>825.7</ele>
        <time>2026-04-30T10:52:43.000Z</time>
      </trkpt>
      <trkpt lat="43.97855" lon="3.02863">
        <ele>825.7</ele>
        <time>2026-04-30T10:52:44.000Z</time>
      </trkpt>
      <trkpt lat="43.97855" lon="3.02863">
        <ele>825.8</ele>
        <time>2026-04-30T10:52:45.000Z</time>
      </trkpt>
      <trkpt lat="43.97855" lon="3.02863">
        <ele>825.8</ele>
        <time>2026-04-30T10:52:46.000Z</time>
      </trkpt>
      <trkpt lat="43.97855" lon="3.02863">
        <ele>825.8</ele>
        <time>2026-04-30T10:52:47.000Z</time>
      </trkpt>
      <trkpt lat="43.97855" lon="3.02863">
        <ele>825.9</ele>
        <time>2026-04-30T10:52:48.000Z</time>
      </trkpt>
      <trkpt lat="43.97855" lon="3.02863">
        <ele>826</ele>
        <time>2026-04-30T10:52:49.000Z</time>
      </trkpt>
      <trkpt lat="43.97855" lon="3.02863">
        <ele>825.9</ele>
        <time>2026-04-30T10:52:50.000Z</time>
      </trkpt>
      <trkpt lat="43.97855" lon="3.02863">
        <ele>825.8</ele>
        <time>2026-04-30T10:52:51.000Z</time>
      </trkpt>
      <trkpt lat="43.97855" lon="3.02863">
        <ele>825.8</ele>
        <time>2026-04-30T10:52:52.000Z</time>
      </trkpt>
      <trkpt lat="43.97855" lon="3.02863">
        <ele>825.9</ele>
        <time>2026-04-30T10:52:53.000Z</time>
      </trkpt>
      <trkpt lat="43.97855" lon="3.02863">
        <ele>826</ele>
        <time>2026-04-30T10:52:54.000Z</time>
      </trkpt>
      <trkpt lat="43.97855" lon="3.02863">
        <ele>826.1</ele>
        <time>2026-04-30T10:52:55.000Z</time>
      </trkpt>
      <trkpt lat="43.97855" lon="3.02863">
        <ele>826.2</ele>
        <time>2026-04-30T10:52:56.000Z</time>
      </trkpt>
      <trkpt lat="43.97855" lon="3.02863">
        <ele>826.1</ele>
        <time>2026-04-30T10:52:57.000Z</time>
      </trkpt>
      <trkpt lat="43.97855" lon="3.02863">
        <ele>826.1</ele>
        <time>2026-04-30T10:52:58.000Z</time>
      </trkpt>
      <trkpt lat="43.97855" lon="3.02863">
        <ele>826.1</ele>
        <time>2026-04-30T10:52:59.000Z</time>
      </trkpt>
      <trkpt lat="43.97855" lon="3.02862">
        <ele>826.1</ele>
        <time>2026-04-30T10:53:00.000Z</time>
      </trkpt>
      <trkpt lat="43.97855" lon="3.02862">
        <ele>826.1</ele>
        <time>2026-04-30T10:53:01.000Z</time>
      </trkpt>
      <trkpt lat="43.97855" lon="3.02862">
        <ele>826.1</ele>
        <time>2026-04-30T10:53:02.000Z</time>
      </trkpt>
      <trkpt lat="43.97855" lon="3.02862">
        <ele>826.2</ele>
        <time>2026-04-30T10:53:03.000Z</time>
      </trkpt>
      <trkpt lat="43.97855" lon="3.02862">
        <ele>826.2</ele>
        <time>2026-04-30T10:53:04.000Z</time>
      </trkpt>
      <trkpt lat="43.97855" lon="3.02862">
        <ele>826.2</ele>
        <time>2026-04-30T10:53:05.000Z</time>
      </trkpt>
      <trkpt lat="43.97855" lon="3.02862">
        <ele>826.4</ele>
        <time>2026-04-30T10:53:06.000Z</time>
      </trkpt>
      <trkpt lat="43.97855" lon="3.02862">
        <ele>826.5</ele>
        <time>2026-04-30T10:53:07.000Z</time>
      </trkpt>
      <trkpt lat="43.97855" lon="3.02862">
        <ele>826.8</ele>
        <time>2026-04-30T10:53:08.000Z</time>
      </trkpt>
      <trkpt lat="43.97855" lon="3.02862">
        <ele>827</ele>
        <time>2026-04-30T10:53:09.000Z</time>
      </trkpt>
      <trkpt lat="43.97855" lon="3.02862">
        <ele>827</ele>
        <time>2026-04-30T10:53:10.000Z</time>
      </trkpt>
      <trkpt lat="43.97855" lon="3.02862">
        <ele>827</ele>
        <time>2026-04-30T10:53:11.000Z</time>
      </trkpt>
      <trkpt lat="43.97855" lon="3.02862">
        <ele>827.1</ele>
        <time>2026-04-30T10:53:12.000Z</time>
      </trkpt>
      <trkpt lat="43.97855" lon="3.02862">
        <ele>827.3</ele>
        <time>2026-04-30T10:53:13.000Z</time>
      </trkpt>
      <trkpt lat="43.97855" lon="3.02862">
        <ele>827.5</ele>
        <time>2026-04-30T10:53:14.000Z</time>
      </trkpt>
      <trkpt lat="43.97855" lon="3.02862">
        <ele>827.7</ele>
        <time>2026-04-30T10:53:15.000Z</time>
      </trkpt>
      <trkpt lat="43.97855" lon="3.02862">
        <ele>827.6</ele>
        <time>2026-04-30T10:53:16.000Z</time>
      </trkpt>
      <trkpt lat="43.97855" lon="3.02862">
        <ele>827.3</ele>
        <time>2026-04-30T10:53:17.000Z</time>
      </trkpt>
      <trkpt lat="43.97855" lon="3.02862">
        <ele>827.2</ele>
        <time>2026-04-30T10:53:18.000Z</time>
      </trkpt>
      <trkpt lat="43.97855" lon="3.02862">
        <ele>827.3</ele>
        <time>2026-04-30T10:53:19.000Z</time>
      </trkpt>
      <trkpt lat="43.97855" lon="3.02862">
        <ele>827.4</ele>
        <time>2026-04-30T10:53:20.000Z</time>
      </trkpt>
      <trkpt lat="43.97855" lon="3.02862">
        <ele>827.5</ele>
        <time>2026-04-30T10:53:21.000Z</time>
      </trkpt>
      <trkpt lat="43.97855" lon="3.02862">
        <ele>827.5</ele>
        <time>2026-04-30T10:53:22.000Z</time>
      </trkpt>
      <trkpt lat="43.97855" lon="3.02862">
        <ele>827.6</ele>
        <time>2026-04-30T10:53:23.000Z</time>
      </trkpt>
      <trkpt lat="43.97855" lon="3.02862">
        <ele>827.6</ele>
        <time>2026-04-30T10:53:24.000Z</time>
      </trkpt>
      <trkpt lat="43.97855" lon="3.02862">
        <ele>827.3</ele>
        <time>2026-04-30T10:53:25.000Z</time>
      </trkpt>
      <trkpt lat="43.97855" lon="3.02862">
        <ele>827.3</ele>
        <time>2026-04-30T10:53:26.000Z</time>
      </trkpt>
      <trkpt lat="43.97855" lon="3.02862">
        <ele>827.2</ele>
        <time>2026-04-30T10:53:27.000Z</time>
      </trkpt>
      <trkpt lat="43.97855" lon="3.02862">
        <ele>827.1</ele>
        <time>2026-04-30T10:53:28.000Z</time>
      </trkpt>
      <trkpt lat="43.97855" lon="3.02862">
        <ele>826.9</ele>
        <time>2026-04-30T10:53:29.000Z</time>
      </trkpt>
      <trkpt lat="43.97855" lon="3.02862">
        <ele>826.7</ele>
        <time>2026-04-30T10:53:30.000Z</time>
      </trkpt>
      <trkpt lat="43.97855" lon="3.02862">
        <ele>826.7</ele>
        <time>2026-04-30T10:53:31.000Z</time>
      </trkpt>
      <trkpt lat="43.97855" lon="3.02862">
        <ele>826.6</ele>
        <time>2026-04-30T10:53:32.000Z</time>
      </trkpt>
      <trkpt lat="43.97855" lon="3.02862">
        <ele>826.6</ele>
        <time>2026-04-30T10:53:33.000Z</time>
      </trkpt>
      <trkpt lat="43.97855" lon="3.02862">
        <ele>826.6</ele>
        <time>2026-04-30T10:53:34.000Z</time>
      </trkpt>
      <trkpt lat="43.97855" lon="3.02862">
        <ele>826.8</ele>
        <time>2026-04-30T10:53:35.000Z</time>
      </trkpt>
      <trkpt lat="43.97855" lon="3.02862">
        <ele>827</ele>
        <time>2026-04-30T10:53:36.000Z</time>
      </trkpt>
      <trkpt lat="43.97855" lon="3.02862">
        <ele>827.3</ele>
        <time>2026-04-30T10:53:37.000Z</time>
      </trkpt>
      <trkpt lat="43.97855" lon="3.02862">
        <ele>827.4</ele>
        <time>2026-04-30T10:53:38.000Z</time>
      </trkpt>
      <trkpt lat="43.97855" lon="3.02861">
        <ele>827.7</ele>
        <time>2026-04-30T10:53:39.000Z</time>
      </trkpt>
      <trkpt lat="43.97855" lon="3.02861">
        <ele>827.8</ele>
        <time>2026-04-30T10:53:40.000Z</time>
      </trkpt>
      <trkpt lat="43.97855" lon="3.02861">
        <ele>827.8</ele>
        <time>2026-04-30T10:53:41.000Z</time>
      </trkpt>
      <trkpt lat="43.97855" lon="3.02861">
        <ele>827.9</ele>
        <time>2026-04-30T10:53:42.000Z</time>
      </trkpt>
      <trkpt lat="43.97855" lon="3.02861">
        <ele>827.9</ele>
        <time>2026-04-30T10:53:43.000Z</time>
      </trkpt>
      <trkpt lat="43.97855" lon="3.02861">
        <ele>827.9</ele>
        <time>2026-04-30T10:53:44.000Z</time>
      </trkpt>
      <trkpt lat="43.97855" lon="3.02861">
        <ele>827.9</ele>
        <time>2026-04-30T10:53:45.000Z</time>
      </trkpt>
      <trkpt lat="43.97855" lon="3.02861">
        <ele>828.1</ele>
        <time>2026-04-30T10:53:46.000Z</time>
      </trkpt>
      <trkpt lat="43.97855" lon="3.02861">
        <ele>828.2</ele>
        <time>2026-04-30T10:53:47.000Z</time>
      </trkpt>
      <trkpt lat="43.97855" lon="3.02861">
        <ele>828.2</ele>
        <time>2026-04-30T10:53:48.000Z</time>
      </trkpt>
      <trkpt lat="43.97855" lon="3.02861">
        <ele>828.3</ele>
        <time>2026-04-30T10:53:49.000Z</time>
      </trkpt>
      <trkpt lat="43.97855" lon="3.02861">
        <ele>828.4</ele>
        <time>2026-04-30T10:53:50.000Z</time>
      </trkpt>
      <trkpt lat="43.97855" lon="3.02861">
        <ele>828.4</ele>
        <time>2026-04-30T10:53:51.000Z</time>
      </trkpt>
      <trkpt lat="43.97855" lon="3.02861">
        <ele>828.6</ele>
        <time>2026-04-30T10:53:52.000Z</time>
      </trkpt>
      <trkpt lat="43.97855" lon="3.02861">
        <ele>828.4</ele>
        <time>2026-04-30T10:53:53.000Z</time>
      </trkpt>
      <trkpt lat="43.97855" lon="3.02861">
        <ele>828.2</ele>
        <time>2026-04-30T10:53:54.000Z</time>
      </trkpt>
      <trkpt lat="43.97855" lon="3.02862">
        <ele>827.9</ele>
        <time>2026-04-30T10:53:55.000Z</time>
      </trkpt>
      <trkpt lat="43.97855" lon="3.02862">
        <ele>827.8</ele>
        <time>2026-04-30T10:53:56.000Z</time>
      </trkpt>
      <trkpt lat="43.97855" lon="3.02862">
        <ele>827.8</ele>
        <time>2026-04-30T10:53:57.000Z</time>
      </trkpt>
      <trkpt lat="43.97855" lon="3.02862">
        <ele>827.8</ele>
        <time>2026-04-30T10:53:58.000Z</time>
      </trkpt>
      <trkpt lat="43.97855" lon="3.02862">
        <ele>827.8</ele>
        <time>2026-04-30T10:53:59.000Z</time>
      </trkpt>
      <trkpt lat="43.97855" lon="3.02862">
        <ele>827.9</ele>
        <time>2026-04-30T10:54:00.000Z</time>
      </trkpt>
      <trkpt lat="43.97855" lon="3.02861">
        <ele>827.9</ele>
        <time>2026-04-30T10:54:01.000Z</time>
      </trkpt>
      <trkpt lat="43.97855" lon="3.02861">
        <ele>827.9</ele>
        <time>2026-04-30T10:54:02.000Z</time>
      </trkpt>
      <trkpt lat="43.97855" lon="3.02861">
        <ele>828</ele>
        <time>2026-04-30T10:54:03.000Z</time>
      </trkpt>
      <trkpt lat="43.97855" lon="3.02861">
        <ele>828.1</ele>
        <time>2026-04-30T10:54:04.000Z</time>
      </trkpt>
      <trkpt lat="43.97855" lon="3.02861">
        <ele>828.2</ele>
        <time>2026-04-30T10:54:05.000Z</time>
      </trkpt>
      <trkpt lat="43.97855" lon="3.02861">
        <ele>828.3</ele>
        <time>2026-04-30T10:54:06.000Z</time>
      </trkpt>
      <trkpt lat="43.97855" lon="3.02861">
        <ele>828.6</ele>
        <time>2026-04-30T10:54:07.000Z</time>
      </trkpt>
      <trkpt lat="43.97855" lon="3.02862">
        <ele>828.7</ele>
        <time>2026-04-30T10:54:08.000Z</time>
      </trkpt>
      <trkpt lat="43.97855" lon="3.02862">
        <ele>828.8</ele>
        <time>2026-04-30T10:54:09.000Z</time>
      </trkpt>
      <trkpt lat="43.97855" lon="3.02862">
        <ele>828.9</ele>
        <time>2026-04-30T10:54:10.000Z</time>
      </trkpt>
      <trkpt lat="43.97855" lon="3.02862">
        <ele>829</ele>
        <time>2026-04-30T10:54:11.000Z</time>
      </trkpt>
      <trkpt lat="43.97855" lon="3.02861">
        <ele>828.9</ele>
        <time>2026-04-30T10:54:12.000Z</time>
      </trkpt>
      <trkpt lat="43.97855" lon="3.02861">
        <ele>829.1</ele>
        <time>2026-04-30T10:54:13.000Z</time>
      </trkpt>
      <trkpt lat="43.97855" lon="3.02861">
        <ele>829.3</ele>
        <time>2026-04-30T10:54:14.000Z</time>
      </trkpt>
      <trkpt lat="43.97855" lon="3.02861">
        <ele>829.5</ele>
        <time>2026-04-30T10:54:15.000Z</time>
      </trkpt>
      <trkpt lat="43.97855" lon="3.02861">
        <ele>829.4</ele>
        <time>2026-04-30T10:54:16.000Z</time>
      </trkpt>
      <trkpt lat="43.97855" lon="3.02861">
        <ele>829.4</ele>
        <time>2026-04-30T10:54:17.000Z</time>
      </trkpt>
      <trkpt lat="43.97855" lon="3.02861">
        <ele>829.6</ele>
        <time>2026-04-30T10:54:18.000Z</time>
      </trkpt>
      <trkpt lat="43.97855" lon="3.02861">
        <ele>829.4</ele>
        <time>2026-04-30T10:54:19.000Z</time>
      </trkpt>
      <trkpt lat="43.97855" lon="3.02861">
        <ele>829.4</ele>
        <time>2026-04-30T10:54:20.000Z</time>
      </trkpt>
      <trkpt lat="43.97855" lon="3.02861">
        <ele>829.3</ele>
        <time>2026-04-30T10:54:21.000Z</time>
      </trkpt>
      <trkpt lat="43.97855" lon="3.02861">
        <ele>829.3</ele>
        <time>2026-04-30T10:54:22.000Z</time>
      </trkpt>
      <trkpt lat="43.97855" lon="3.02861">
        <ele>829.4</ele>
        <time>2026-04-30T10:54:23.000Z</time>
      </trkpt>
      <trkpt lat="43.97855" lon="3.02861">
        <ele>829.4</ele>
        <time>2026-04-30T10:54:24.000Z</time>
      </trkpt>
      <trkpt lat="43.97855" lon="3.02861">
        <ele>829.3</ele>
        <time>2026-04-30T10:54:25.000Z</time>
      </trkpt>
      <trkpt lat="43.97855" lon="3.02861">
        <ele>829.2</ele>
        <time>2026-04-30T10:54:26.000Z</time>
      </trkpt>
      <trkpt lat="43.97855" lon="3.02861">
        <ele>829.2</ele>
        <time>2026-04-30T10:54:27.000Z</time>
      </trkpt>
      <trkpt lat="43.97855" lon="3.02861">
        <ele>829.2</ele>
        <time>2026-04-30T10:54:28.000Z</time>
      </trkpt>
      <trkpt lat="43.97855" lon="3.02861">
        <ele>829.2</ele>
        <time>2026-04-30T10:54:29.000Z</time>
      </trkpt>
      <trkpt lat="43.97855" lon="3.02861">
        <ele>829.1</ele>
        <time>2026-04-30T10:54:30.000Z</time>
      </trkpt>
      <trkpt lat="43.97855" lon="3.02861">
        <ele>829.1</ele>
        <time>2026-04-30T10:54:31.000Z</time>
      </trkpt>
      <trkpt lat="43.97855" lon="3.02861">
        <ele>828.9</ele>
        <time>2026-04-30T10:54:32.000Z</time>
      </trkpt>
      <trkpt lat="43.97855" lon="3.02861">
        <ele>828.9</ele>
        <time>2026-04-30T10:54:33.000Z</time>
      </trkpt>
      <trkpt lat="43.97855" lon="3.02861">
        <ele>828.7</ele>
        <time>2026-04-30T10:54:34.000Z</time>
      </trkpt>
      <trkpt lat="43.97855" lon="3.02861">
        <ele>828.6</ele>
        <time>2026-04-30T10:54:35.000Z</time>
      </trkpt>
      <trkpt lat="43.97855" lon="3.02861">
        <ele>828.6</ele>
        <time>2026-04-30T10:54:36.000Z</time>
      </trkpt>
      <trkpt lat="43.97855" lon="3.02861">
        <ele>828.7</ele>
        <time>2026-04-30T10:54:37.000Z</time>
      </trkpt>
      <trkpt lat="43.97855" lon="3.02861">
        <ele>828.7</ele>
        <time>2026-04-30T10:54:38.000Z</time>
      </trkpt>
      <trkpt lat="43.97855" lon="3.02861">
        <ele>828.8</ele>
        <time>2026-04-30T10:54:39.000Z</time>
      </trkpt>
      <trkpt lat="43.97855" lon="3.02861">
        <ele>829.1</ele>
        <time>2026-04-30T10:54:40.000Z</time>
      </trkpt>
      <trkpt lat="43.97855" lon="3.02861">
        <ele>829.3</ele>
        <time>2026-04-30T10:54:41.000Z</time>
      </trkpt>
      <trkpt lat="43.97855" lon="3.02861">
        <ele>829.4</ele>
        <time>2026-04-30T10:54:42.000Z</time>
      </trkpt>
      <trkpt lat="43.97855" lon="3.02861">
        <ele>829.6</ele>
        <time>2026-04-30T10:54:43.000Z</time>
      </trkpt>
      <trkpt lat="43.97855" lon="3.02861">
        <ele>829.8</ele>
        <time>2026-04-30T10:54:44.000Z</time>
      </trkpt>
      <trkpt lat="43.97855" lon="3.02861">
        <ele>830</ele>
        <time>2026-04-30T10:54:45.000Z</time>
      </trkpt>
      <trkpt lat="43.97855" lon="3.02861">
        <ele>830.1</ele>
        <time>2026-04-30T10:54:46.000Z</time>
      </trkpt>
      <trkpt lat="43.97855" lon="3.02861">
        <ele>830.1</ele>
        <time>2026-04-30T10:54:47.000Z</time>
      </trkpt>
      <trkpt lat="43.97855" lon="3.02861">
        <ele>830.1</ele>
        <time>2026-04-30T10:54:48.000Z</time>
      </trkpt>
      <trkpt lat="43.97855" lon="3.02861">
        <ele>830.1</ele>
        <time>2026-04-30T10:54:49.000Z</time>
      </trkpt>
      <trkpt lat="43.97855" lon="3.02861">
        <ele>830.2</ele>
        <time>2026-04-30T10:54:50.000Z</time>
      </trkpt>
      <trkpt lat="43.97855" lon="3.02861">
        <ele>830.2</ele>
        <time>2026-04-30T10:54:51.000Z</time>
      </trkpt>
      <trkpt lat="43.97855" lon="3.02861">
        <ele>830.2</ele>
        <time>2026-04-30T10:54:52.000Z</time>
      </trkpt>
      <trkpt lat="43.97855" lon="3.02861">
        <ele>830.4</ele>
        <time>2026-04-30T10:54:53.000Z</time>
      </trkpt>
      <trkpt lat="43.97855" lon="3.02861">
        <ele>830.6</ele>
        <time>2026-04-30T10:54:54.000Z</time>
      </trkpt>
      <trkpt lat="43.97855" lon="3.02862">
        <ele>830.8</ele>
        <time>2026-04-30T10:54:55.000Z</time>
      </trkpt>
      <trkpt lat="43.97855" lon="3.02862">
        <ele>830.9</ele>
        <time>2026-04-30T10:54:56.000Z</time>
      </trkpt>
      <trkpt lat="43.97854" lon="3.02862">
        <ele>831</ele>
        <time>2026-04-30T10:54:57.000Z</time>
      </trkpt>
      <trkpt lat="43.97854" lon="3.02862">
        <ele>831.3</ele>
        <time>2026-04-30T10:54:58.000Z</time>
      </trkpt>
      <trkpt lat="43.97854" lon="3.02862">
        <ele>831.4</ele>
        <time>2026-04-30T10:54:59.000Z</time>
      </trkpt>
      <trkpt lat="43.97854" lon="3.02862">
        <ele>831.5</ele>
        <time>2026-04-30T10:55:00.000Z</time>
      </trkpt>
      <trkpt lat="43.97854" lon="3.02862">
        <ele>831.6</ele>
        <time>2026-04-30T10:55:01.000Z</time>
      </trkpt>
      <trkpt lat="43.97854" lon="3.02862">
        <ele>831.5</ele>
        <time>2026-04-30T10:55:02.000Z</time>
      </trkpt>
      <trkpt lat="43.97854" lon="3.02862">
        <ele>831.5</ele>
        <time>2026-04-30T10:55:03.000Z</time>
      </trkpt>
      <trkpt lat="43.97854" lon="3.02862">
        <ele>831.5</ele>
        <time>2026-04-30T10:55:04.000Z</time>
      </trkpt>
      <trkpt lat="43.97854" lon="3.02862">
        <ele>831.5</ele>
        <time>2026-04-30T10:55:05.000Z</time>
      </trkpt>
      <trkpt lat="43.97854" lon="3.02862">
        <ele>831.5</ele>
        <time>2026-04-30T10:55:06.000Z</time>
      </trkpt>
      <trkpt lat="43.97854" lon="3.02862">
        <ele>831.3</ele>
        <time>2026-04-30T10:55:07.000Z</time>
      </trkpt>
      <trkpt lat="43.97854" lon="3.02862">
        <ele>831.1</ele>
        <time>2026-04-30T10:55:08.000Z</time>
      </trkpt>
      <trkpt lat="43.97854" lon="3.02863">
        <ele>830.6</ele>
        <time>2026-04-30T10:55:09.000Z</time>
      </trkpt>
      <trkpt lat="43.97855" lon="3.02863">
        <ele>829.8</ele>
        <time>2026-04-30T10:55:10.000Z</time>
      </trkpt>
      <trkpt lat="43.97855" lon="3.02863">
        <ele>829.4</ele>
        <time>2026-04-30T10:55:11.000Z</time>
      </trkpt>
      <trkpt lat="43.97855" lon="3.02863">
        <ele>829.1</ele>
        <time>2026-04-30T10:55:12.000Z</time>
      </trkpt>
      <trkpt lat="43.97855" lon="3.02863">
        <ele>829</ele>
        <time>2026-04-30T10:55:13.000Z</time>
      </trkpt>
      <trkpt lat="43.97855" lon="3.02863">
        <ele>828.9</ele>
        <time>2026-04-30T10:55:14.000Z</time>
      </trkpt>
      <trkpt lat="43.97855" lon="3.02864">
        <ele>828.8</ele>
        <time>2026-04-30T10:55:15.000Z</time>
      </trkpt>
      <trkpt lat="43.97855" lon="3.02864">
        <ele>828.6</ele>
        <time>2026-04-30T10:55:16.000Z</time>
      </trkpt>
      <trkpt lat="43.97855" lon="3.02864">
        <ele>828.4</ele>
        <time>2026-04-30T10:55:17.000Z</time>
      </trkpt>
      <trkpt lat="43.97855" lon="3.02864">
        <ele>828.3</ele>
        <time>2026-04-30T10:55:18.000Z</time>
      </trkpt>
      <trkpt lat="43.97855" lon="3.02864">
        <ele>828.1</ele>
        <time>2026-04-30T10:55:19.000Z</time>
      </trkpt>
      <trkpt lat="43.97855" lon="3.02864">
        <ele>827.8</ele>
        <time>2026-04-30T10:55:20.000Z</time>
      </trkpt>
      <trkpt lat="43.97855" lon="3.02864">
        <ele>827.4</ele>
        <time>2026-04-30T10:55:21.000Z</time>
      </trkpt>
      <trkpt lat="43.97855" lon="3.02864">
        <ele>827</ele>
        <time>2026-04-30T10:55:22.000Z</time>
      </trkpt>
      <trkpt lat="43.97855" lon="3.02864">
        <ele>826.8</ele>
        <time>2026-04-30T10:55:23.000Z</time>
      </trkpt>
      <trkpt lat="43.97855" lon="3.02864">
        <ele>826.8</ele>
        <time>2026-04-30T10:55:24.000Z</time>
      </trkpt>
      <trkpt lat="43.97856" lon="3.02864">
        <ele>826.6</ele>
        <time>2026-04-30T10:55:25.000Z</time>
      </trkpt>
      <trkpt lat="43.97856" lon="3.02864">
        <ele>826.2</ele>
        <time>2026-04-30T10:55:26.000Z</time>
      </trkpt>
      <trkpt lat="43.97856" lon="3.02864">
        <ele>825.9</ele>
        <time>2026-04-30T10:55:27.000Z</time>
      </trkpt>
      <trkpt lat="43.97856" lon="3.02865">
        <ele>825.9</ele>
        <time>2026-04-30T10:55:28.000Z</time>
      </trkpt>
      <trkpt lat="43.97856" lon="3.02865">
        <ele>825.7</ele>
        <time>2026-04-30T10:55:29.000Z</time>
      </trkpt>
      <trkpt lat="43.97856" lon="3.02865">
        <ele>825.6</ele>
        <time>2026-04-30T10:55:30.000Z</time>
      </trkpt>
      <trkpt lat="43.97856" lon="3.02865">
        <ele>825.6</ele>
        <time>2026-04-30T10:55:31.000Z</time>
      </trkpt>
      <trkpt lat="43.97856" lon="3.02865">
        <ele>825.7</ele>
        <time>2026-04-30T10:55:32.000Z</time>
      </trkpt>
      <trkpt lat="43.97856" lon="3.02865">
        <ele>825.7</ele>
        <time>2026-04-30T10:55:33.000Z</time>
      </trkpt>
      <trkpt lat="43.97856" lon="3.02865">
        <ele>825.6</ele>
        <time>2026-04-30T10:55:34.000Z</time>
      </trkpt>
      <trkpt lat="43.97856" lon="3.02865">
        <ele>825.7</ele>
        <time>2026-04-30T10:55:35.000Z</time>
      </trkpt>
      <trkpt lat="43.97856" lon="3.02865">
        <ele>825.9</ele>
        <time>2026-04-30T10:55:36.000Z</time>
      </trkpt>
      <trkpt lat="43.97856" lon="3.02865">
        <ele>826.1</ele>
        <time>2026-04-30T10:55:37.000Z</time>
      </trkpt>
      <trkpt lat="43.97856" lon="3.02865">
        <ele>826.4</ele>
        <time>2026-04-30T10:55:38.000Z</time>
      </trkpt>
      <trkpt lat="43.97857" lon="3.02866">
        <ele>826.7</ele>
        <time>2026-04-30T10:55:39.000Z</time>
      </trkpt>
      <trkpt lat="43.97857" lon="3.02866">
        <ele>827</ele>
        <time>2026-04-30T10:55:40.000Z</time>
      </trkpt>
      <trkpt lat="43.97856" lon="3.02865">
        <ele>826.9</ele>
        <time>2026-04-30T10:55:41.000Z</time>
      </trkpt>
      <trkpt lat="43.97857" lon="3.02865">
        <ele>826.9</ele>
        <time>2026-04-30T10:55:42.000Z</time>
      </trkpt>
      <trkpt lat="43.97857" lon="3.02866">
        <ele>827.1</ele>
        <time>2026-04-30T10:55:43.000Z</time>
      </trkpt>
      <trkpt lat="43.97857" lon="3.02866">
        <ele>827.2</ele>
        <time>2026-04-30T10:55:44.000Z</time>
      </trkpt>
      <trkpt lat="43.97857" lon="3.02866">
        <ele>827.3</ele>
        <time>2026-04-30T10:55:45.000Z</time>
      </trkpt>
      <trkpt lat="43.97857" lon="3.02866">
        <ele>827.4</ele>
        <time>2026-04-30T10:55:46.000Z</time>
      </trkpt>
      <trkpt lat="43.97857" lon="3.02866">
        <ele>827.5</ele>
        <time>2026-04-30T10:55:47.000Z</time>
      </trkpt>
      <trkpt lat="43.97857" lon="3.02866">
        <ele>827.5</ele>
        <time>2026-04-30T10:55:48.000Z</time>
      </trkpt>
      <trkpt lat="43.97857" lon="3.02866">
        <ele>827.2</ele>
        <time>2026-04-30T10:55:49.000Z</time>
      </trkpt>
      <trkpt lat="43.97857" lon="3.02866">
        <ele>826.9</ele>
        <time>2026-04-30T10:55:50.000Z</time>
      </trkpt>
      <trkpt lat="43.97857" lon="3.02866">
        <ele>826.8</ele>
        <time>2026-04-30T10:55:51.000Z</time>
      </trkpt>
      <trkpt lat="43.97857" lon="3.02866">
        <ele>826.8</ele>
        <time>2026-04-30T10:55:52.000Z</time>
      </trkpt>
      <trkpt lat="43.97857" lon="3.02866">
        <ele>826.8</ele>
        <time>2026-04-30T10:55:53.000Z</time>
      </trkpt>
      <trkpt lat="43.97857" lon="3.02867">
        <ele>826.9</ele>
        <time>2026-04-30T10:55:54.000Z</time>
      </trkpt>
      <trkpt lat="43.97857" lon="3.02866">
        <ele>826.8</ele>
        <time>2026-04-30T10:55:55.000Z</time>
      </trkpt>
      <trkpt lat="43.97857" lon="3.02866">
        <ele>826.7</ele>
        <time>2026-04-30T10:55:56.000Z</time>
      </trkpt>
      <trkpt lat="43.97857" lon="3.02866">
        <ele>826.7</ele>
        <time>2026-04-30T10:55:57.000Z</time>
      </trkpt>
      <trkpt lat="43.97857" lon="3.02866">
        <ele>826.7</ele>
        <time>2026-04-30T10:55:58.000Z</time>
      </trkpt>
      <trkpt lat="43.97857" lon="3.02867">
        <ele>826.6</ele>
        <time>2026-04-30T10:55:59.000Z</time>
      </trkpt>
      <trkpt lat="43.97857" lon="3.02867">
        <ele>826.6</ele>
        <time>2026-04-30T10:56:00.000Z</time>
      </trkpt>
      <trkpt lat="43.97857" lon="3.02867">
        <ele>826.3</ele>
        <time>2026-04-30T10:56:01.000Z</time>
      </trkpt>
      <trkpt lat="43.97857" lon="3.02867">
        <ele>826</ele>
        <time>2026-04-30T10:56:02.000Z</time>
      </trkpt>
      <trkpt lat="43.97857" lon="3.02867">
        <ele>825.7</ele>
        <time>2026-04-30T10:56:03.000Z</time>
      </trkpt>
      <trkpt lat="43.97857" lon="3.02867">
        <ele>825.7</ele>
        <time>2026-04-30T10:56:04.000Z</time>
      </trkpt>
      <trkpt lat="43.97857" lon="3.02867">
        <ele>825.8</ele>
        <time>2026-04-30T10:56:05.000Z</time>
      </trkpt>
      <trkpt lat="43.97857" lon="3.02867">
        <ele>825.9</ele>
        <time>2026-04-30T10:56:06.000Z</time>
      </trkpt>
      <trkpt lat="43.97857" lon="3.02867">
        <ele>825.9</ele>
        <time>2026-04-30T10:56:07.000Z</time>
      </trkpt>
      <trkpt lat="43.97857" lon="3.02867">
        <ele>825.9</ele>
        <time>2026-04-30T10:56:08.000Z</time>
      </trkpt>
      <trkpt lat="43.97857" lon="3.02867">
        <ele>825.9</ele>
        <time>2026-04-30T10:56:09.000Z</time>
      </trkpt>
      <trkpt lat="43.97857" lon="3.02867">
        <ele>826</ele>
        <time>2026-04-30T10:56:10.000Z</time>
      </trkpt>
      <trkpt lat="43.97858" lon="3.02867">
        <ele>825.9</ele>
        <time>2026-04-30T10:56:11.000Z</time>
      </trkpt>
      <trkpt lat="43.97857" lon="3.02867">
        <ele>825.6</ele>
        <time>2026-04-30T10:56:12.000Z</time>
      </trkpt>
      <trkpt lat="43.97857" lon="3.02867">
        <ele>825.6</ele>
        <time>2026-04-30T10:56:13.000Z</time>
      </trkpt>
      <trkpt lat="43.97857" lon="3.02867">
        <ele>825.3</ele>
        <time>2026-04-30T10:56:14.000Z</time>
      </trkpt>
      <trkpt lat="43.97857" lon="3.02867">
        <ele>825.2</ele>
        <time>2026-04-30T10:56:15.000Z</time>
      </trkpt>
      <trkpt lat="43.97857" lon="3.02867">
        <ele>825.1</ele>
        <time>2026-04-30T10:56:16.000Z</time>
      </trkpt>
      <trkpt lat="43.97857" lon="3.02867">
        <ele>825.2</ele>
        <time>2026-04-30T10:56:17.000Z</time>
      </trkpt>
      <trkpt lat="43.97857" lon="3.02867">
        <ele>825.3</ele>
        <time>2026-04-30T10:56:18.000Z</time>
      </trkpt>
      <trkpt lat="43.97857" lon="3.02867">
        <ele>825.3</ele>
        <time>2026-04-30T10:56:19.000Z</time>
      </trkpt>
      <trkpt lat="43.97857" lon="3.02867">
        <ele>825.3</ele>
        <time>2026-04-30T10:56:20.000Z</time>
      </trkpt>
      <trkpt lat="43.97857" lon="3.02867">
        <ele>825.4</ele>
        <time>2026-04-30T10:56:21.000Z</time>
      </trkpt>
      <trkpt lat="43.97857" lon="3.02867">
        <ele>825.3</ele>
        <time>2026-04-30T10:56:22.000Z</time>
      </trkpt>
      <trkpt lat="43.97857" lon="3.02867">
        <ele>825.3</ele>
        <time>2026-04-30T10:56:23.000Z</time>
      </trkpt>
      <trkpt lat="43.97857" lon="3.02867">
        <ele>825.3</ele>
        <time>2026-04-30T10:56:24.000Z</time>
      </trkpt>
      <trkpt lat="43.97857" lon="3.02867">
        <ele>825.3</ele>
        <time>2026-04-30T10:56:25.000Z</time>
      </trkpt>
      <trkpt lat="43.97857" lon="3.02867">
        <ele>825.3</ele>
        <time>2026-04-30T10:56:26.000Z</time>
      </trkpt>
      <trkpt lat="43.97857" lon="3.02867">
        <ele>825.3</ele>
        <time>2026-04-30T10:56:27.000Z</time>
      </trkpt>
      <trkpt lat="43.97857" lon="3.02867">
        <ele>825.4</ele>
        <time>2026-04-30T10:56:28.000Z</time>
      </trkpt>
      <trkpt lat="43.97857" lon="3.02867">
        <ele>825.4</ele>
        <time>2026-04-30T10:56:29.000Z</time>
      </trkpt>
      <trkpt lat="43.97857" lon="3.02867">
        <ele>825.5</ele>
        <time>2026-04-30T10:56:30.000Z</time>
      </trkpt>
      <trkpt lat="43.97857" lon="3.02867">
        <ele>825.6</ele>
        <time>2026-04-30T10:56:31.000Z</time>
      </trkpt>
      <trkpt lat="43.97857" lon="3.02867">
        <ele>825.4</ele>
        <time>2026-04-30T10:56:32.000Z</time>
      </trkpt>
      <trkpt lat="43.97857" lon="3.02867">
        <ele>825.3</ele>
        <time>2026-04-30T10:56:33.000Z</time>
      </trkpt>
      <trkpt lat="43.97857" lon="3.02867">
        <ele>825.4</ele>
        <time>2026-04-30T10:56:34.000Z</time>
      </trkpt>
      <trkpt lat="43.97857" lon="3.02867">
        <ele>825.2</ele>
        <time>2026-04-30T10:56:35.000Z</time>
      </trkpt>
      <trkpt lat="43.97857" lon="3.02867">
        <ele>825.2</ele>
        <time>2026-04-30T10:56:36.000Z</time>
      </trkpt>
      <trkpt lat="43.97857" lon="3.02867">
        <ele>825.2</ele>
        <time>2026-04-30T10:56:37.000Z</time>
      </trkpt>
      <trkpt lat="43.97857" lon="3.02867">
        <ele>825.2</ele>
        <time>2026-04-30T10:56:38.000Z</time>
      </trkpt>
      <trkpt lat="43.97857" lon="3.02867">
        <ele>825.2</ele>
        <time>2026-04-30T10:56:39.000Z</time>
      </trkpt>
      <trkpt lat="43.97857" lon="3.02867">
        <ele>825.1</ele>
        <time>2026-04-30T10:56:40.000Z</time>
      </trkpt>
      <trkpt lat="43.97857" lon="3.02867">
        <ele>825.2</ele>
        <time>2026-04-30T10:56:41.000Z</time>
      </trkpt>
      <trkpt lat="43.97857" lon="3.02867">
        <ele>825.2</ele>
        <time>2026-04-30T10:56:42.000Z</time>
      </trkpt>
      <trkpt lat="43.97857" lon="3.02867">
        <ele>825.1</ele>
        <time>2026-04-30T10:56:43.000Z</time>
      </trkpt>
      <trkpt lat="43.97857" lon="3.02867">
        <ele>825</ele>
        <time>2026-04-30T10:56:44.000Z</time>
      </trkpt>
      <trkpt lat="43.97857" lon="3.02866">
        <ele>824.8</ele>
        <time>2026-04-30T10:56:45.000Z</time>
      </trkpt>
      <trkpt lat="43.97857" lon="3.02866">
        <ele>824.5</ele>
        <time>2026-04-30T10:56:46.000Z</time>
      </trkpt>
      <trkpt lat="43.97856" lon="3.02866">
        <ele>824.2</ele>
        <time>2026-04-30T10:56:47.000Z</time>
      </trkpt>
      <trkpt lat="43.97856" lon="3.02866">
        <ele>824</ele>
        <time>2026-04-30T10:56:48.000Z</time>
      </trkpt>
      <trkpt lat="43.97856" lon="3.02866">
        <ele>824</ele>
        <time>2026-04-30T10:56:49.000Z</time>
      </trkpt>
      <trkpt lat="43.97856" lon="3.02865">
        <ele>824.1</ele>
        <time>2026-04-30T10:56:50.000Z</time>
      </trkpt>
      <trkpt lat="43.97856" lon="3.02864">
        <ele>824.3</ele>
        <time>2026-04-30T10:56:51.000Z</time>
      </trkpt>
      <trkpt lat="43.97856" lon="3.02864">
        <ele>824.6</ele>
        <time>2026-04-30T10:56:52.000Z</time>
      </trkpt>
      <trkpt lat="43.97856" lon="3.02865">
        <ele>824.7</ele>
        <time>2026-04-30T10:56:53.000Z</time>
      </trkpt>
      <trkpt lat="43.97856" lon="3.02865">
        <ele>824.7</ele>
        <time>2026-04-30T10:56:54.000Z</time>
      </trkpt>
      <trkpt lat="43.97856" lon="3.02865">
        <ele>824.7</ele>
        <time>2026-04-30T10:56:55.000Z</time>
      </trkpt>
      <trkpt lat="43.97856" lon="3.02865">
        <ele>824.6</ele>
        <time>2026-04-30T10:56:56.000Z</time>
      </trkpt>
      <trkpt lat="43.97856" lon="3.02865">
        <ele>824.6</ele>
        <time>2026-04-30T10:56:57.000Z</time>
      </trkpt>
      <trkpt lat="43.97856" lon="3.02865">
        <ele>824.6</ele>
        <time>2026-04-30T10:56:58.000Z</time>
      </trkpt>
      <trkpt lat="43.97856" lon="3.02865">
        <ele>824.6</ele>
        <time>2026-04-30T10:56:59.000Z</time>
      </trkpt>
      <trkpt lat="43.97856" lon="3.02865">
        <ele>824.7</ele>
        <time>2026-04-30T10:57:00.000Z</time>
      </trkpt>
      <trkpt lat="43.97856" lon="3.02865">
        <ele>824.7</ele>
        <time>2026-04-30T10:57:01.000Z</time>
      </trkpt>
      <trkpt lat="43.97856" lon="3.02865">
        <ele>824.8</ele>
        <time>2026-04-30T10:57:02.000Z</time>
      </trkpt>
      <trkpt lat="43.97856" lon="3.02865">
        <ele>824.9</ele>
        <time>2026-04-30T10:57:03.000Z</time>
      </trkpt>
      <trkpt lat="43.97856" lon="3.02865">
        <ele>824.8</ele>
        <time>2026-04-30T10:57:04.000Z</time>
      </trkpt>
      <trkpt lat="43.97856" lon="3.02865">
        <ele>824.6</ele>
        <time>2026-04-30T10:57:05.000Z</time>
      </trkpt>
      <trkpt lat="43.97856" lon="3.02865">
        <ele>824.5</ele>
        <time>2026-04-30T10:57:06.000Z</time>
      </trkpt>
      <trkpt lat="43.97856" lon="3.02865">
        <ele>824.3</ele>
        <time>2026-04-30T10:57:07.000Z</time>
      </trkpt>
      <trkpt lat="43.97856" lon="3.02865">
        <ele>824.3</ele>
        <time>2026-04-30T10:57:08.000Z</time>
      </trkpt>
      <trkpt lat="43.97856" lon="3.02865">
        <ele>824.4</ele>
        <time>2026-04-30T10:57:09.000Z</time>
      </trkpt>
      <trkpt lat="43.97856" lon="3.02865">
        <ele>824.5</ele>
        <time>2026-04-30T10:57:10.000Z</time>
      </trkpt>
      <trkpt lat="43.97856" lon="3.02865">
        <ele>824.5</ele>
        <time>2026-04-30T10:57:11.000Z</time>
      </trkpt>
      <trkpt lat="43.97856" lon="3.02865">
        <ele>824.6</ele>
        <time>2026-04-30T10:57:12.000Z</time>
      </trkpt>
      <trkpt lat="43.97856" lon="3.02865">
        <ele>824.6</ele>
        <time>2026-04-30T10:57:13.000Z</time>
      </trkpt>
      <trkpt lat="43.97856" lon="3.02865">
        <ele>824.7</ele>
        <time>2026-04-30T10:57:14.000Z</time>
      </trkpt>
      <trkpt lat="43.97856" lon="3.02865">
        <ele>824.8</ele>
        <time>2026-04-30T10:57:15.000Z</time>
      </trkpt>
      <trkpt lat="43.97856" lon="3.02865">
        <ele>824.9</ele>
        <time>2026-04-30T10:57:16.000Z</time>
      </trkpt>
      <trkpt lat="43.97856" lon="3.02865">
        <ele>824.9</ele>
        <time>2026-04-30T10:57:17.000Z</time>
      </trkpt>
      <trkpt lat="43.97856" lon="3.02865">
        <ele>824.9</ele>
        <time>2026-04-30T10:57:18.000Z</time>
      </trkpt>
      <trkpt lat="43.97856" lon="3.02865">
        <ele>824.9</ele>
        <time>2026-04-30T10:57:19.000Z</time>
      </trkpt>
      <trkpt lat="43.97856" lon="3.02866">
        <ele>824.8</ele>
        <time>2026-04-30T10:57:20.000Z</time>
      </trkpt>
      <trkpt lat="43.97856" lon="3.02866">
        <ele>824.9</ele>
        <time>2026-04-30T10:57:21.000Z</time>
      </trkpt>
      <trkpt lat="43.97856" lon="3.02866">
        <ele>825</ele>
        <time>2026-04-30T10:57:22.000Z</time>
      </trkpt>
      <trkpt lat="43.97856" lon="3.02866">
        <ele>825.1</ele>
        <time>2026-04-30T10:57:23.000Z</time>
      </trkpt>
      <trkpt lat="43.97856" lon="3.02866">
        <ele>825.3</ele>
        <time>2026-04-30T10:57:24.000Z</time>
      </trkpt>
      <trkpt lat="43.97856" lon="3.02866">
        <ele>825.3</ele>
        <time>2026-04-30T10:57:25.000Z</time>
      </trkpt>
      <trkpt lat="43.97856" lon="3.02866">
        <ele>825.3</ele>
        <time>2026-04-30T10:57:26.000Z</time>
      </trkpt>
      <trkpt lat="43.97856" lon="3.02866">
        <ele>825.3</ele>
        <time>2026-04-30T10:57:27.000Z</time>
      </trkpt>
      <trkpt lat="43.97856" lon="3.02866">
        <ele>825.3</ele>
        <time>2026-04-30T10:57:28.000Z</time>
      </trkpt>
      <trkpt lat="43.97857" lon="3.02866">
        <ele>825.2</ele>
        <time>2026-04-30T10:57:29.000Z</time>
      </trkpt>
      <trkpt lat="43.97857" lon="3.02866">
        <ele>825.2</ele>
        <time>2026-04-30T10:57:30.000Z</time>
      </trkpt>
      <trkpt lat="43.97857" lon="3.02866">
        <ele>825.1</ele>
        <time>2026-04-30T10:57:31.000Z</time>
      </trkpt>
      <trkpt lat="43.97857" lon="3.02866">
        <ele>825.2</ele>
        <time>2026-04-30T10:57:32.000Z</time>
      </trkpt>
      <trkpt lat="43.97857" lon="3.02866">
        <ele>825.3</ele>
        <time>2026-04-30T10:57:33.000Z</time>
      </trkpt>
      <trkpt lat="43.97857" lon="3.02866">
        <ele>825.3</ele>
        <time>2026-04-30T10:57:34.000Z</time>
      </trkpt>
      <trkpt lat="43.97857" lon="3.02866">
        <ele>825.4</ele>
        <time>2026-04-30T10:57:35.000Z</time>
      </trkpt>
      <trkpt lat="43.97857" lon="3.02866">
        <ele>825.5</ele>
        <time>2026-04-30T10:57:36.000Z</time>
      </trkpt>
      <trkpt lat="43.97857" lon="3.02866">
        <ele>825.6</ele>
        <time>2026-04-30T10:57:37.000Z</time>
      </trkpt>
      <trkpt lat="43.97857" lon="3.02866">
        <ele>825.7</ele>
        <time>2026-04-30T10:57:38.000Z</time>
      </trkpt>
      <trkpt lat="43.97857" lon="3.02866">
        <ele>825.7</ele>
        <time>2026-04-30T10:57:39.000Z</time>
      </trkpt>
      <trkpt lat="43.97857" lon="3.02866">
        <ele>825.7</ele>
        <time>2026-04-30T10:57:40.000Z</time>
      </trkpt>
      <trkpt lat="43.97857" lon="3.02866">
        <ele>825.7</ele>
        <time>2026-04-30T10:57:41.000Z</time>
      </trkpt>
      <trkpt lat="43.97857" lon="3.02866">
        <ele>825.6</ele>
        <time>2026-04-30T10:57:42.000Z</time>
      </trkpt>
      <trkpt lat="43.97857" lon="3.02866">
        <ele>825.6</ele>
        <time>2026-04-30T10:57:43.000Z</time>
      </trkpt>
      <trkpt lat="43.97857" lon="3.02866">
        <ele>825.5</ele>
        <time>2026-04-30T10:57:44.000Z</time>
      </trkpt>
      <trkpt lat="43.97857" lon="3.02866">
        <ele>825.4</ele>
        <time>2026-04-30T10:57:45.000Z</time>
      </trkpt>
      <trkpt lat="43.97857" lon="3.02866">
        <ele>825.5</ele>
        <time>2026-04-30T10:57:46.000Z</time>
      </trkpt>
      <trkpt lat="43.97857" lon="3.02866">
        <ele>825.4</ele>
        <time>2026-04-30T10:57:47.000Z</time>
      </trkpt>
      <trkpt lat="43.97857" lon="3.02866">
        <ele>825.4</ele>
        <time>2026-04-30T10:57:48.000Z</time>
      </trkpt>
      <trkpt lat="43.97857" lon="3.02866">
        <ele>825.3</ele>
        <time>2026-04-30T10:57:49.000Z</time>
      </trkpt>
      <trkpt lat="43.97857" lon="3.02866">
        <ele>825.3</ele>
        <time>2026-04-30T10:57:50.000Z</time>
      </trkpt>
      <trkpt lat="43.97857" lon="3.02866">
        <ele>825.4</ele>
        <time>2026-04-30T10:57:51.000Z</time>
      </trkpt>
      <trkpt lat="43.97857" lon="3.02866">
        <ele>825.5</ele>
        <time>2026-04-30T10:57:52.000Z</time>
      </trkpt>
      <trkpt lat="43.97857" lon="3.02866">
        <ele>825.5</ele>
        <time>2026-04-30T10:57:53.000Z</time>
      </trkpt>
      <trkpt lat="43.97857" lon="3.02866">
        <ele>825.5</ele>
        <time>2026-04-30T10:57:54.000Z</time>
      </trkpt>
      <trkpt lat="43.97857" lon="3.02866">
        <ele>825.4</ele>
        <time>2026-04-30T10:57:55.000Z</time>
      </trkpt>
      <trkpt lat="43.97857" lon="3.02866">
        <ele>825.4</ele>
        <time>2026-04-30T10:57:56.000Z</time>
      </trkpt>
      <trkpt lat="43.97857" lon="3.02866">
        <ele>825.4</ele>
        <time>2026-04-30T10:57:57.000Z</time>
      </trkpt>
      <trkpt lat="43.97857" lon="3.02866">
        <ele>825.4</ele>
        <time>2026-04-30T10:57:58.000Z</time>
      </trkpt>
      <trkpt lat="43.97857" lon="3.02866">
        <ele>825.3</ele>
        <time>2026-04-30T10:57:59.000Z</time>
      </trkpt>
      <trkpt lat="43.97857" lon="3.02866">
        <ele>825.3</ele>
        <time>2026-04-30T10:58:00.000Z</time>
      </trkpt>
      <trkpt lat="43.97857" lon="3.02866">
        <ele>825.4</ele>
        <time>2026-04-30T10:58:01.000Z</time>
      </trkpt>
      <trkpt lat="43.97857" lon="3.02866">
        <ele>825.3</ele>
        <time>2026-04-30T10:58:02.000Z</time>
      </trkpt>
      <trkpt lat="43.97857" lon="3.02866">
        <ele>825.2</ele>
        <time>2026-04-30T10:58:03.000Z</time>
      </trkpt>
      <trkpt lat="43.97857" lon="3.02866">
        <ele>825.1</ele>
        <time>2026-04-30T10:58:04.000Z</time>
      </trkpt>
      <trkpt lat="43.97857" lon="3.02866">
        <ele>825</ele>
        <time>2026-04-30T10:58:05.000Z</time>
      </trkpt>
      <trkpt lat="43.97857" lon="3.02866">
        <ele>825</ele>
        <time>2026-04-30T10:58:06.000Z</time>
      </trkpt>
      <trkpt lat="43.97857" lon="3.02866">
        <ele>825.1</ele>
        <time>2026-04-30T10:58:07.000Z</time>
      </trkpt>
      <trkpt lat="43.97857" lon="3.02865">
        <ele>825.1</ele>
        <time>2026-04-30T10:58:08.000Z</time>
      </trkpt>
      <trkpt lat="43.97857" lon="3.02865">
        <ele>825.1</ele>
        <time>2026-04-30T10:58:09.000Z</time>
      </trkpt>
      <trkpt lat="43.97857" lon="3.02865">
        <ele>825.2</ele>
        <time>2026-04-30T10:58:10.000Z</time>
      </trkpt>
      <trkpt lat="43.97857" lon="3.02865">
        <ele>825.3</ele>
        <time>2026-04-30T10:58:11.000Z</time>
      </trkpt>
      <trkpt lat="43.97857" lon="3.02865">
        <ele>825.4</ele>
        <time>2026-04-30T10:58:12.000Z</time>
      </trkpt>
      <trkpt lat="43.97857" lon="3.02865">
        <ele>825.6</ele>
        <time>2026-04-30T10:58:13.000Z</time>
      </trkpt>
      <trkpt lat="43.97857" lon="3.02865">
        <ele>825.6</ele>
        <time>2026-04-30T10:58:14.000Z</time>
      </trkpt>
      <trkpt lat="43.97857" lon="3.02865">
        <ele>825.6</ele>
        <time>2026-04-30T10:58:15.000Z</time>
      </trkpt>
      <trkpt lat="43.97857" lon="3.02865">
        <ele>825.6</ele>
        <time>2026-04-30T10:58:16.000Z</time>
      </trkpt>
      <trkpt lat="43.97857" lon="3.02865">
        <ele>825.5</ele>
        <time>2026-04-30T10:58:17.000Z</time>
      </trkpt>
      <trkpt lat="43.97857" lon="3.02865">
        <ele>825.5</ele>
        <time>2026-04-30T10:58:18.000Z</time>
      </trkpt>
      <trkpt lat="43.97857" lon="3.02865">
        <ele>825.3</ele>
        <time>2026-04-30T10:58:19.000Z</time>
      </trkpt>
      <trkpt lat="43.97857" lon="3.02865">
        <ele>825.1</ele>
        <time>2026-04-30T10:58:20.000Z</time>
      </trkpt>
      <trkpt lat="43.97857" lon="3.02865">
        <ele>825.1</ele>
        <time>2026-04-30T10:58:21.000Z</time>
      </trkpt>
      <trkpt lat="43.97857" lon="3.02865">
        <ele>825</ele>
        <time>2026-04-30T10:58:22.000Z</time>
      </trkpt>
      <trkpt lat="43.97857" lon="3.02865">
        <ele>824.9</ele>
        <time>2026-04-30T10:58:23.000Z</time>
      </trkpt>
      <trkpt lat="43.97857" lon="3.02865">
        <ele>824.8</ele>
        <time>2026-04-30T10:58:24.000Z</time>
      </trkpt>
      <trkpt lat="43.97857" lon="3.02865">
        <ele>824.8</ele>
        <time>2026-04-30T10:58:25.000Z</time>
      </trkpt>
      <trkpt lat="43.97857" lon="3.02865">
        <ele>824.7</ele>
        <time>2026-04-30T10:58:26.000Z</time>
      </trkpt>
      <trkpt lat="43.97857" lon="3.02865">
        <ele>824.7</ele>
        <time>2026-04-30T10:58:27.000Z</time>
      </trkpt>
      <trkpt lat="43.97857" lon="3.02865">
        <ele>824.7</ele>
        <time>2026-04-30T10:58:28.000Z</time>
      </trkpt>
      <trkpt lat="43.97857" lon="3.02865">
        <ele>824.8</ele>
        <time>2026-04-30T10:58:29.000Z</time>
      </trkpt>
      <trkpt lat="43.97857" lon="3.02865">
        <ele>824.9</ele>
        <time>2026-04-30T10:58:30.000Z</time>
      </trkpt>
      <trkpt lat="43.97857" lon="3.02865">
        <ele>824.9</ele>
        <time>2026-04-30T10:58:31.000Z</time>
      </trkpt>
      <trkpt lat="43.97857" lon="3.02865">
        <ele>824.7</ele>
        <time>2026-04-30T10:58:32.000Z</time>
      </trkpt>
      <trkpt lat="43.97857" lon="3.02865">
        <ele>824.7</ele>
        <time>2026-04-30T10:58:33.000Z</time>
      </trkpt>
      <trkpt lat="43.97857" lon="3.02865">
        <ele>824.5</ele>
        <time>2026-04-30T10:58:34.000Z</time>
      </trkpt>
      <trkpt lat="43.97857" lon="3.02865">
        <ele>824.4</ele>
        <time>2026-04-30T10:58:35.000Z</time>
      </trkpt>
      <trkpt lat="43.97857" lon="3.02865">
        <ele>824.3</ele>
        <time>2026-04-30T10:58:36.000Z</time>
      </trkpt>
      <trkpt lat="43.97857" lon="3.02865">
        <ele>824.2</ele>
        <time>2026-04-30T10:58:37.000Z</time>
      </trkpt>
      <trkpt lat="43.97857" lon="3.02865">
        <ele>824.1</ele>
        <time>2026-04-30T10:58:38.000Z</time>
      </trkpt>
      <trkpt lat="43.97857" lon="3.02865">
        <ele>824</ele>
        <time>2026-04-30T10:58:39.000Z</time>
      </trkpt>
      <trkpt lat="43.97857" lon="3.02865">
        <ele>823.9</ele>
        <time>2026-04-30T10:58:40.000Z</time>
      </trkpt>
      <trkpt lat="43.97857" lon="3.02865">
        <ele>823.8</ele>
        <time>2026-04-30T10:58:41.000Z</time>
      </trkpt>
      <trkpt lat="43.97857" lon="3.02865">
        <ele>823.8</ele>
        <time>2026-04-30T10:58:42.000Z</time>
      </trkpt>
      <trkpt lat="43.97857" lon="3.02865">
        <ele>823.9</ele>
        <time>2026-04-30T10:58:43.000Z</time>
      </trkpt>
      <trkpt lat="43.97857" lon="3.02865">
        <ele>824</ele>
        <time>2026-04-30T10:58:44.000Z</time>
      </trkpt>
      <trkpt lat="43.97857" lon="3.02865">
        <ele>824.1</ele>
        <time>2026-04-30T10:58:45.000Z</time>
      </trkpt>
      <trkpt lat="43.97857" lon="3.02865">
        <ele>824.3</ele>
        <time>2026-04-30T10:58:46.000Z</time>
      </trkpt>
      <trkpt lat="43.97857" lon="3.02865">
        <ele>824.5</ele>
        <time>2026-04-30T10:58:47.000Z</time>
      </trkpt>
      <trkpt lat="43.97857" lon="3.02865">
        <ele>824.7</ele>
        <time>2026-04-30T10:58:48.000Z</time>
      </trkpt>
      <trkpt lat="43.97857" lon="3.02865">
        <ele>824.8</ele>
        <time>2026-04-30T10:58:49.000Z</time>
      </trkpt>
      <trkpt lat="43.97857" lon="3.02865">
        <ele>824.8</ele>
        <time>2026-04-30T10:58:50.000Z</time>
      </trkpt>
      <trkpt lat="43.97857" lon="3.02865">
        <ele>824.8</ele>
        <time>2026-04-30T10:58:51.000Z</time>
      </trkpt>
      <trkpt lat="43.97857" lon="3.02865">
        <ele>824.8</ele>
        <time>2026-04-30T10:58:52.000Z</time>
      </trkpt>
      <trkpt lat="43.97857" lon="3.02865">
        <ele>824.9</ele>
        <time>2026-04-30T10:58:53.000Z</time>
      </trkpt>
      <trkpt lat="43.97857" lon="3.02865">
        <ele>824.9</ele>
        <time>2026-04-30T10:58:54.000Z</time>
      </trkpt>
      <trkpt lat="43.97857" lon="3.02865">
        <ele>824.9</ele>
        <time>2026-04-30T10:58:55.000Z</time>
      </trkpt>
      <trkpt lat="43.97857" lon="3.02865">
        <ele>824.8</ele>
        <time>2026-04-30T10:58:56.000Z</time>
      </trkpt>
      <trkpt lat="43.97857" lon="3.02865">
        <ele>824.7</ele>
        <time>2026-04-30T10:58:57.000Z</time>
      </trkpt>
      <trkpt lat="43.97857" lon="3.02865">
        <ele>824.7</ele>
        <time>2026-04-30T10:58:58.000Z</time>
      </trkpt>
      <trkpt lat="43.97857" lon="3.02865">
        <ele>824.6</ele>
        <time>2026-04-30T10:58:59.000Z</time>
      </trkpt>
      <trkpt lat="43.97857" lon="3.02865">
        <ele>824.6</ele>
        <time>2026-04-30T10:59:00.000Z</time>
      </trkpt>
      <trkpt lat="43.97857" lon="3.02865">
        <ele>824.6</ele>
        <time>2026-04-30T10:59:01.000Z</time>
      </trkpt>
      <trkpt lat="43.97857" lon="3.02865">
        <ele>824.5</ele>
        <time>2026-04-30T10:59:02.000Z</time>
      </trkpt>
      <trkpt lat="43.97857" lon="3.02865">
        <ele>824.5</ele>
        <time>2026-04-30T10:59:03.000Z</time>
      </trkpt>
      <trkpt lat="43.97857" lon="3.02865">
        <ele>824.5</ele>
        <time>2026-04-30T10:59:04.000Z</time>
      </trkpt>
      <trkpt lat="43.97857" lon="3.02865">
        <ele>824.4</ele>
        <time>2026-04-30T10:59:05.000Z</time>
      </trkpt>
      <trkpt lat="43.97857" lon="3.02865">
        <ele>824.3</ele>
        <time>2026-04-30T10:59:06.000Z</time>
      </trkpt>
      <trkpt lat="43.97857" lon="3.02865">
        <ele>824.3</ele>
        <time>2026-04-30T10:59:07.000Z</time>
      </trkpt>
      <trkpt lat="43.97857" lon="3.02865">
        <ele>824.2</ele>
        <time>2026-04-30T10:59:08.000Z</time>
      </trkpt>
      <trkpt lat="43.97857" lon="3.02865">
        <ele>824.1</ele>
        <time>2026-04-30T10:59:09.000Z</time>
      </trkpt>
      <trkpt lat="43.97857" lon="3.02865">
        <ele>824.1</ele>
        <time>2026-04-30T10:59:10.000Z</time>
      </trkpt>
      <trkpt lat="43.97857" lon="3.02865">
        <ele>824.1</ele>
        <time>2026-04-30T10:59:11.000Z</time>
      </trkpt>
      <trkpt lat="43.97857" lon="3.02865">
        <ele>824.1</ele>
        <time>2026-04-30T10:59:12.000Z</time>
      </trkpt>
      <trkpt lat="43.97857" lon="3.02865">
        <ele>824.1</ele>
        <time>2026-04-30T10:59:13.000Z</time>
      </trkpt>
      <trkpt lat="43.97857" lon="3.02865">
        <ele>824</ele>
        <time>2026-04-30T10:59:14.000Z</time>
      </trkpt>
      <trkpt lat="43.97857" lon="3.02865">
        <ele>823.9</ele>
        <time>2026-04-30T10:59:15.000Z</time>
      </trkpt>
      <trkpt lat="43.97857" lon="3.02865">
        <ele>823.8</ele>
        <time>2026-04-30T10:59:16.000Z</time>
      </trkpt>
      <trkpt lat="43.97857" lon="3.02865">
        <ele>823.7</ele>
        <time>2026-04-30T10:59:17.000Z</time>
      </trkpt>
      <trkpt lat="43.97857" lon="3.02865">
        <ele>823.7</ele>
        <time>2026-04-30T10:59:18.000Z</time>
      </trkpt>
      <trkpt lat="43.97857" lon="3.02865">
        <ele>823.8</ele>
        <time>2026-04-30T10:59:19.000Z</time>
      </trkpt>
      <trkpt lat="43.97857" lon="3.02865">
        <ele>823.9</ele>
        <time>2026-04-30T10:59:20.000Z</time>
      </trkpt>
      <trkpt lat="43.97857" lon="3.02865">
        <ele>823.9</ele>
        <time>2026-04-30T10:59:21.000Z</time>
      </trkpt>
      <trkpt lat="43.97857" lon="3.02865">
        <ele>823.9</ele>
        <time>2026-04-30T10:59:22.000Z</time>
      </trkpt>
      <trkpt lat="43.97857" lon="3.02865">
        <ele>823.8</ele>
        <time>2026-04-30T10:59:23.000Z</time>
      </trkpt>
      <trkpt lat="43.97857" lon="3.02865">
        <ele>823.7</ele>
        <time>2026-04-30T10:59:24.000Z</time>
      </trkpt>
      <trkpt lat="43.97857" lon="3.02865">
        <ele>823.5</ele>
        <time>2026-04-30T10:59:25.000Z</time>
      </trkpt>
      <trkpt lat="43.97857" lon="3.02865">
        <ele>823.3</ele>
        <time>2026-04-30T10:59:26.000Z</time>
      </trkpt>
      <trkpt lat="43.97857" lon="3.02865">
        <ele>823.1</ele>
        <time>2026-04-30T10:59:27.000Z</time>
      </trkpt>
      <trkpt lat="43.97857" lon="3.02865">
        <ele>823</ele>
        <time>2026-04-30T10:59:28.000Z</time>
      </trkpt>
      <trkpt lat="43.97857" lon="3.02865">
        <ele>823</ele>
        <time>2026-04-30T10:59:29.000Z</time>
      </trkpt>
      <trkpt lat="43.97857" lon="3.02865">
        <ele>823.1</ele>
        <time>2026-04-30T10:59:30.000Z</time>
      </trkpt>
      <trkpt lat="43.97857" lon="3.02865">
        <ele>823.2</ele>
        <time>2026-04-30T10:59:31.000Z</time>
      </trkpt>
      <trkpt lat="43.97857" lon="3.02865">
        <ele>823.2</ele>
        <time>2026-04-30T10:59:32.000Z</time>
      </trkpt>
      <trkpt lat="43.97857" lon="3.02865">
        <ele>823.3</ele>
        <time>2026-04-30T10:59:33.000Z</time>
      </trkpt>
      <trkpt lat="43.97857" lon="3.02865">
        <ele>823.3</ele>
        <time>2026-04-30T10:59:34.000Z</time>
      </trkpt>
      <trkpt lat="43.97857" lon="3.02865">
        <ele>823.2</ele>
        <time>2026-04-30T10:59:35.000Z</time>
      </trkpt>
      <trkpt lat="43.97857" lon="3.02865">
        <ele>823.2</ele>
        <time>2026-04-30T10:59:36.000Z</time>
      </trkpt>
      <trkpt lat="43.97857" lon="3.02865">
        <ele>823.2</ele>
        <time>2026-04-30T10:59:37.000Z</time>
      </trkpt>
      <trkpt lat="43.97857" lon="3.02865">
        <ele>823.2</ele>
        <time>2026-04-30T10:59:38.000Z</time>
      </trkpt>
      <trkpt lat="43.97857" lon="3.02865">
        <ele>823.1</ele>
        <time>2026-04-30T10:59:39.000Z</time>
      </trkpt>
      <trkpt lat="43.97857" lon="3.02865">
        <ele>823.1</ele>
        <time>2026-04-30T10:59:40.000Z</time>
      </trkpt>
      <trkpt lat="43.97857" lon="3.02865">
        <ele>823.1</ele>
        <time>2026-04-30T10:59:41.000Z</time>
      </trkpt>
      <trkpt lat="43.97857" lon="3.02865">
        <ele>823.2</ele>
        <time>2026-04-30T10:59:42.000Z</time>
      </trkpt>
      <trkpt lat="43.97857" lon="3.02865">
        <ele>823.3</ele>
        <time>2026-04-30T10:59:43.000Z</time>
      </trkpt>
      <trkpt lat="43.97857" lon="3.02865">
        <ele>823.3</ele>
        <time>2026-04-30T10:59:44.000Z</time>
      </trkpt>
      <trkpt lat="43.97857" lon="3.02865">
        <ele>823.4</ele>
        <time>2026-04-30T10:59:45.000Z</time>
      </trkpt>
      <trkpt lat="43.97857" lon="3.02865">
        <ele>823.4</ele>
        <time>2026-04-30T10:59:46.000Z</time>
      </trkpt>
      <trkpt lat="43.97857" lon="3.02865">
        <ele>823.4</ele>
        <time>2026-04-30T10:59:47.000Z</time>
      </trkpt>
      <trkpt lat="43.97857" lon="3.02865">
        <ele>823.4</ele>
        <time>2026-04-30T10:59:48.000Z</time>
      </trkpt>
      <trkpt lat="43.97857" lon="3.02865">
        <ele>823.5</ele>
        <time>2026-04-30T10:59:49.000Z</time>
      </trkpt>
      <trkpt lat="43.97857" lon="3.02865">
        <ele>823.5</ele>
        <time>2026-04-30T10:59:50.000Z</time>
      </trkpt>
      <trkpt lat="43.97857" lon="3.02865">
        <ele>823.6</ele>
        <time>2026-04-30T10:59:51.000Z</time>
      </trkpt>
      <trkpt lat="43.97857" lon="3.02865">
        <ele>823.7</ele>
        <time>2026-04-30T10:59:52.000Z</time>
      </trkpt>
      <trkpt lat="43.97857" lon="3.02865">
        <ele>823.7</ele>
        <time>2026-04-30T10:59:53.000Z</time>
      </trkpt>
      <trkpt lat="43.97857" lon="3.02865">
        <ele>823.8</ele>
        <time>2026-04-30T10:59:54.000Z</time>
      </trkpt>
      <trkpt lat="43.97857" lon="3.02865">
        <ele>823.8</ele>
        <time>2026-04-30T10:59:55.000Z</time>
      </trkpt>
      <trkpt lat="43.97857" lon="3.02865">
        <ele>823.8</ele>
        <time>2026-04-30T10:59:56.000Z</time>
      </trkpt>
      <trkpt lat="43.97857" lon="3.02865">
        <ele>823.8</ele>
        <time>2026-04-30T10:59:57.000Z</time>
      </trkpt>
      <trkpt lat="43.97857" lon="3.02865">
        <ele>823.9</ele>
        <time>2026-04-30T10:59:58.000Z</time>
      </trkpt>
      <trkpt lat="43.97857" lon="3.02865">
        <ele>823.8</ele>
        <time>2026-04-30T10:59:59.000Z</time>
      </trkpt>
      <trkpt lat="43.97857" lon="3.02865">
        <ele>823.7</ele>
        <time>2026-04-30T11:00:00.000Z</time>
      </trkpt>
      <trkpt lat="43.97857" lon="3.02865">
        <ele>823.5</ele>
        <time>2026-04-30T11:00:01.000Z</time>
      </trkpt>
      <trkpt lat="43.97857" lon="3.02865">
        <ele>823.3</ele>
        <time>2026-04-30T11:00:02.000Z</time>
      </trkpt>
      <trkpt lat="43.97857" lon="3.02865">
        <ele>823.1</ele>
        <time>2026-04-30T11:00:03.000Z</time>
      </trkpt>
      <trkpt lat="43.97857" lon="3.02865">
        <ele>823</ele>
        <time>2026-04-30T11:00:04.000Z</time>
      </trkpt>
      <trkpt lat="43.97857" lon="3.02865">
        <ele>823</ele>
        <time>2026-04-30T11:00:05.000Z</time>
      </trkpt>
      <trkpt lat="43.97857" lon="3.02865">
        <ele>823</ele>
        <time>2026-04-30T11:00:06.000Z</time>
      </trkpt>
      <trkpt lat="43.97857" lon="3.02865">
        <ele>823.1</ele>
        <time>2026-04-30T11:00:07.000Z</time>
      </trkpt>
      <trkpt lat="43.97857" lon="3.02865">
        <ele>823.1</ele>
        <time>2026-04-30T11:00:08.000Z</time>
      </trkpt>
      <trkpt lat="43.97857" lon="3.02865">
        <ele>823.3</ele>
        <time>2026-04-30T11:00:09.000Z</time>
      </trkpt>
      <trkpt lat="43.97857" lon="3.02865">
        <ele>823.3</ele>
        <time>2026-04-30T11:00:10.000Z</time>
      </trkpt>
      <trkpt lat="43.97857" lon="3.02865">
        <ele>823.2</ele>
        <time>2026-04-30T11:00:11.000Z</time>
      </trkpt>
      <trkpt lat="43.97856" lon="3.02865">
        <ele>823.4</ele>
        <time>2026-04-30T11:00:13.000Z</time>
      </trkpt>
      <trkpt lat="43.97856" lon="3.02865">
        <ele>823.4</ele>
        <time>2026-04-30T11:00:14.000Z</time>
      </trkpt>
      <trkpt lat="43.97856" lon="3.02865">
        <ele>823.6</ele>
        <time>2026-04-30T11:00:15.000Z</time>
      </trkpt>
      <trkpt lat="43.97856" lon="3.02865">
        <ele>823.9</ele>
        <time>2026-04-30T11:00:16.000Z</time>
      </trkpt>
      <trkpt lat="43.97856" lon="3.02865">
        <ele>824.1</ele>
        <time>2026-04-30T11:00:17.000Z</time>
      </trkpt>
      <trkpt lat="43.97856" lon="3.02865">
        <ele>824.2</ele>
        <time>2026-04-30T11:00:18.000Z</time>
      </trkpt>
      <trkpt lat="43.97856" lon="3.02865">
        <ele>824.4</ele>
        <time>2026-04-30T11:00:19.000Z</time>
      </trkpt>
      <trkpt lat="43.97856" lon="3.02865">
        <ele>824.6</ele>
        <time>2026-04-30T11:00:20.000Z</time>
      </trkpt>
      <trkpt lat="43.97856" lon="3.02865">
        <ele>824.9</ele>
        <time>2026-04-30T11:00:21.000Z</time>
      </trkpt>
      <trkpt lat="43.97856" lon="3.02865">
        <ele>825</ele>
        <time>2026-04-30T11:00:22.000Z</time>
      </trkpt>
      <trkpt lat="43.97856" lon="3.02865">
        <ele>825</ele>
        <time>2026-04-30T11:00:23.000Z</time>
      </trkpt>
      <trkpt lat="43.97856" lon="3.02865">
        <ele>825.1</ele>
        <time>2026-04-30T11:00:24.000Z</time>
      </trkpt>
      <trkpt lat="43.97856" lon="3.02865">
        <ele>825.1</ele>
        <time>2026-04-30T11:00:25.000Z</time>
      </trkpt>
      <trkpt lat="43.97856" lon="3.02865">
        <ele>825.1</ele>
        <time>2026-04-30T11:00:26.000Z</time>
      </trkpt>
      <trkpt lat="43.97856" lon="3.02865">
        <ele>825.1</ele>
        <time>2026-04-30T11:00:27.000Z</time>
      </trkpt>
      <trkpt lat="43.97856" lon="3.02865">
        <ele>825</ele>
        <time>2026-04-30T11:00:28.000Z</time>
      </trkpt>
      <trkpt lat="43.97856" lon="3.02864">
        <ele>824.9</ele>
        <time>2026-04-30T11:00:29.000Z</time>
      </trkpt>
      <trkpt lat="43.97856" lon="3.02864">
        <ele>825</ele>
        <time>2026-04-30T11:00:30.000Z</time>
      </trkpt>
      <trkpt lat="43.97856" lon="3.02864">
        <ele>825.1</ele>
        <time>2026-04-30T11:00:31.000Z</time>
      </trkpt>
      <trkpt lat="43.97856" lon="3.02864">
        <ele>825.2</ele>
        <time>2026-04-30T11:00:32.000Z</time>
      </trkpt>
      <trkpt lat="43.97856" lon="3.02864">
        <ele>825.2</ele>
        <time>2026-04-30T11:00:33.000Z</time>
      </trkpt>
      <trkpt lat="43.97856" lon="3.02864">
        <ele>825.1</ele>
        <time>2026-04-30T11:00:34.000Z</time>
      </trkpt>
      <trkpt lat="43.97856" lon="3.02864">
        <ele>825.1</ele>
        <time>2026-04-30T11:00:35.000Z</time>
      </trkpt>
      <trkpt lat="43.97856" lon="3.02864">
        <ele>825.1</ele>
        <time>2026-04-30T11:00:36.000Z</time>
      </trkpt>
      <trkpt lat="43.97856" lon="3.02864">
        <ele>825.1</ele>
        <time>2026-04-30T11:00:37.000Z</time>
      </trkpt>
      <trkpt lat="43.97856" lon="3.02864">
        <ele>825.3</ele>
        <time>2026-04-30T11:00:38.000Z</time>
      </trkpt>
      <trkpt lat="43.97856" lon="3.02864">
        <ele>825.5</ele>
        <time>2026-04-30T11:00:39.000Z</time>
      </trkpt>
      <trkpt lat="43.97856" lon="3.02864">
        <ele>825.6</ele>
        <time>2026-04-30T11:00:40.000Z</time>
      </trkpt>
      <trkpt lat="43.97856" lon="3.02864">
        <ele>825.7</ele>
        <time>2026-04-30T11:00:41.000Z</time>
      </trkpt>
      <trkpt lat="43.97856" lon="3.02864">
        <ele>825.8</ele>
        <time>2026-04-30T11:00:42.000Z</time>
      </trkpt>
      <trkpt lat="43.97856" lon="3.02864">
        <ele>826.1</ele>
        <time>2026-04-30T11:00:43.000Z</time>
      </trkpt>
      <trkpt lat="43.97856" lon="3.02864">
        <ele>826.2</ele>
        <time>2026-04-30T11:00:44.000Z</time>
      </trkpt>
      <trkpt lat="43.97856" lon="3.02864">
        <ele>826.2</ele>
        <time>2026-04-30T11:00:45.000Z</time>
      </trkpt>
      <trkpt lat="43.97856" lon="3.02864">
        <ele>826.3</ele>
        <time>2026-04-30T11:00:46.000Z</time>
      </trkpt>
      <trkpt lat="43.97856" lon="3.02864">
        <ele>826.4</ele>
        <time>2026-04-30T11:00:47.000Z</time>
      </trkpt>
      <trkpt lat="43.97856" lon="3.02864">
        <ele>826.7</ele>
        <time>2026-04-30T11:00:48.000Z</time>
      </trkpt>
      <trkpt lat="43.97856" lon="3.02864">
        <ele>827</ele>
        <time>2026-04-30T11:00:49.000Z</time>
      </trkpt>
      <trkpt lat="43.97856" lon="3.02864">
        <ele>827.2</ele>
        <time>2026-04-30T11:00:50.000Z</time>
      </trkpt>
      <trkpt lat="43.97856" lon="3.02864">
        <ele>827.4</ele>
        <time>2026-04-30T11:00:51.000Z</time>
      </trkpt>
      <trkpt lat="43.97856" lon="3.02864">
        <ele>827.7</ele>
        <time>2026-04-30T11:00:52.000Z</time>
      </trkpt>
      <trkpt lat="43.97856" lon="3.02864">
        <ele>827.8</ele>
        <time>2026-04-30T11:00:53.000Z</time>
      </trkpt>
      <trkpt lat="43.97856" lon="3.02864">
        <ele>827.8</ele>
        <time>2026-04-30T11:00:54.000Z</time>
      </trkpt>
      <trkpt lat="43.97856" lon="3.02864">
        <ele>827.7</ele>
        <time>2026-04-30T11:00:55.000Z</time>
      </trkpt>
      <trkpt lat="43.97856" lon="3.02864">
        <ele>827.5</ele>
        <time>2026-04-30T11:00:56.000Z</time>
      </trkpt>
      <trkpt lat="43.97856" lon="3.02864">
        <ele>827.4</ele>
        <time>2026-04-30T11:00:57.000Z</time>
      </trkpt>
      <trkpt lat="43.97856" lon="3.02864">
        <ele>827.3</ele>
        <time>2026-04-30T11:00:58.000Z</time>
      </trkpt>
      <trkpt lat="43.97856" lon="3.02864">
        <ele>827.1</ele>
        <time>2026-04-30T11:00:59.000Z</time>
      </trkpt>
      <trkpt lat="43.97856" lon="3.02864">
        <ele>827.1</ele>
        <time>2026-04-30T11:01:00.000Z</time>
      </trkpt>
      <trkpt lat="43.97856" lon="3.02864">
        <ele>827.2</ele>
        <time>2026-04-30T11:01:01.000Z</time>
      </trkpt>
      <trkpt lat="43.97856" lon="3.02864">
        <ele>827.5</ele>
        <time>2026-04-30T11:01:02.000Z</time>
      </trkpt>
      <trkpt lat="43.97856" lon="3.02864">
        <ele>827.7</ele>
        <time>2026-04-30T11:01:03.000Z</time>
      </trkpt>
      <trkpt lat="43.97856" lon="3.02864">
        <ele>828</ele>
        <time>2026-04-30T11:01:04.000Z</time>
      </trkpt>
      <trkpt lat="43.97856" lon="3.02863">
        <ele>828.2</ele>
        <time>2026-04-30T11:01:05.000Z</time>
      </trkpt>
      <trkpt lat="43.97856" lon="3.02863">
        <ele>828.3</ele>
        <time>2026-04-30T11:01:06.000Z</time>
      </trkpt>
      <trkpt lat="43.97856" lon="3.02863">
        <ele>828.6</ele>
        <time>2026-04-30T11:01:07.000Z</time>
      </trkpt>
      <trkpt lat="43.97856" lon="3.02863">
        <ele>828.9</ele>
        <time>2026-04-30T11:01:08.000Z</time>
      </trkpt>
      <trkpt lat="43.97856" lon="3.02863">
        <ele>829.2</ele>
        <time>2026-04-30T11:01:09.000Z</time>
      </trkpt>
      <trkpt lat="43.97856" lon="3.02863">
        <ele>829.3</ele>
        <time>2026-04-30T11:01:10.000Z</time>
      </trkpt>
      <trkpt lat="43.97856" lon="3.02863">
        <ele>829.4</ele>
        <time>2026-04-30T11:01:11.000Z</time>
      </trkpt>
      <trkpt lat="43.97856" lon="3.02863">
        <ele>829.6</ele>
        <time>2026-04-30T11:01:12.000Z</time>
      </trkpt>
      <trkpt lat="43.97856" lon="3.02863">
        <ele>830</ele>
        <time>2026-04-30T11:01:13.000Z</time>
      </trkpt>
      <trkpt lat="43.97856" lon="3.02863">
        <ele>830.3</ele>
        <time>2026-04-30T11:01:14.000Z</time>
      </trkpt>
      <trkpt lat="43.97856" lon="3.02863">
        <ele>830.6</ele>
        <time>2026-04-30T11:01:15.000Z</time>
      </trkpt>
      <trkpt lat="43.97856" lon="3.02863">
        <ele>830.7</ele>
        <time>2026-04-30T11:01:16.000Z</time>
      </trkpt>
      <trkpt lat="43.97856" lon="3.02863">
        <ele>831</ele>
        <time>2026-04-30T11:01:17.000Z</time>
      </trkpt>
      <trkpt lat="43.97856" lon="3.02863">
        <ele>831.3</ele>
        <time>2026-04-30T11:01:18.000Z</time>
      </trkpt>
      <trkpt lat="43.97856" lon="3.02863">
        <ele>831.6</ele>
        <time>2026-04-30T11:01:19.000Z</time>
      </trkpt>
      <trkpt lat="43.97856" lon="3.02863">
        <ele>831.5</ele>
        <time>2026-04-30T11:01:20.000Z</time>
      </trkpt>
      <trkpt lat="43.97856" lon="3.02863">
        <ele>831.4</ele>
        <time>2026-04-30T11:01:21.000Z</time>
      </trkpt>
      <trkpt lat="43.97856" lon="3.02863">
        <ele>831.4</ele>
        <time>2026-04-30T11:01:22.000Z</time>
      </trkpt>
      <trkpt lat="43.97856" lon="3.02863">
        <ele>831.3</ele>
        <time>2026-04-30T11:01:23.000Z</time>
      </trkpt>
      <trkpt lat="43.97856" lon="3.02863">
        <ele>831.4</ele>
        <time>2026-04-30T11:01:24.000Z</time>
      </trkpt>
      <trkpt lat="43.97856" lon="3.02863">
        <ele>831.3</ele>
        <time>2026-04-30T11:01:25.000Z</time>
      </trkpt>
      <trkpt lat="43.97856" lon="3.02863">
        <ele>831.4</ele>
        <time>2026-04-30T11:01:26.000Z</time>
      </trkpt>
      <trkpt lat="43.97856" lon="3.02863">
        <ele>831.4</ele>
        <time>2026-04-30T11:01:27.000Z</time>
      </trkpt>
      <trkpt lat="43.97856" lon="3.02863">
        <ele>831.5</ele>
        <time>2026-04-30T11:01:28.000Z</time>
      </trkpt>
      <trkpt lat="43.97856" lon="3.02863">
        <ele>831.5</ele>
        <time>2026-04-30T11:01:29.000Z</time>
      </trkpt>
      <trkpt lat="43.97856" lon="3.02863">
        <ele>831.4</ele>
        <time>2026-04-30T11:01:30.000Z</time>
      </trkpt>
      <trkpt lat="43.97856" lon="3.02862">
        <ele>831.4</ele>
        <time>2026-04-30T11:01:31.000Z</time>
      </trkpt>
      <trkpt lat="43.97856" lon="3.02862">
        <ele>831.1</ele>
        <time>2026-04-30T11:01:32.000Z</time>
      </trkpt>
      <trkpt lat="43.97856" lon="3.02862">
        <ele>831</ele>
        <time>2026-04-30T11:01:33.000Z</time>
      </trkpt>
      <trkpt lat="43.97856" lon="3.02862">
        <ele>831.1</ele>
        <time>2026-04-30T11:01:34.000Z</time>
      </trkpt>
      <trkpt lat="43.97856" lon="3.02862">
        <ele>831.2</ele>
        <time>2026-04-30T11:01:35.000Z</time>
      </trkpt>
      <trkpt lat="43.97856" lon="3.02862">
        <ele>831.3</ele>
        <time>2026-04-30T11:01:36.000Z</time>
      </trkpt>
      <trkpt lat="43.97856" lon="3.02862">
        <ele>831.4</ele>
        <time>2026-04-30T11:01:37.000Z</time>
      </trkpt>
      <trkpt lat="43.97856" lon="3.02862">
        <ele>831.5</ele>
        <time>2026-04-30T11:01:38.000Z</time>
      </trkpt>
      <trkpt lat="43.97856" lon="3.02862">
        <ele>831.5</ele>
        <time>2026-04-30T11:01:39.000Z</time>
      </trkpt>
      <trkpt lat="43.97856" lon="3.02862">
        <ele>831.6</ele>
        <time>2026-04-30T11:01:40.000Z</time>
      </trkpt>
      <trkpt lat="43.97856" lon="3.02862">
        <ele>831.5</ele>
        <time>2026-04-30T11:01:41.000Z</time>
      </trkpt>
      <trkpt lat="43.97856" lon="3.02862">
        <ele>831.6</ele>
        <time>2026-04-30T11:01:42.000Z</time>
      </trkpt>
      <trkpt lat="43.97856" lon="3.02862">
        <ele>831.8</ele>
        <time>2026-04-30T11:01:43.000Z</time>
      </trkpt>
      <trkpt lat="43.97856" lon="3.02862">
        <ele>831.8</ele>
        <time>2026-04-30T11:01:44.000Z</time>
      </trkpt>
      <trkpt lat="43.97856" lon="3.02861">
        <ele>831.7</ele>
        <time>2026-04-30T11:01:45.000Z</time>
      </trkpt>
      <trkpt lat="43.97856" lon="3.02861">
        <ele>831.8</ele>
        <time>2026-04-30T11:01:46.000Z</time>
      </trkpt>
      <trkpt lat="43.97856" lon="3.02861">
        <ele>831.8</ele>
        <time>2026-04-30T11:01:47.000Z</time>
      </trkpt>
      <trkpt lat="43.97856" lon="3.02861">
        <ele>831.8</ele>
        <time>2026-04-30T11:01:48.000Z</time>
      </trkpt>
      <trkpt lat="43.97856" lon="3.02861">
        <ele>831.7</ele>
        <time>2026-04-30T11:01:49.000Z</time>
      </trkpt>
      <trkpt lat="43.97856" lon="3.02861">
        <ele>831.3</ele>
        <time>2026-04-30T11:01:50.999Z</time>
      </trkpt>
      <trkpt lat="43.97856" lon="3.02861">
        <ele>831.4</ele>
        <time>2026-04-30T11:01:51.999Z</time>
      </trkpt>
      <trkpt lat="43.97856" lon="3.02861">
        <ele>831.3</ele>
        <time>2026-04-30T11:01:52.999Z</time>
      </trkpt>
      <trkpt lat="43.97856" lon="3.02861">
        <ele>831.3</ele>
        <time>2026-04-30T11:01:53.999Z</time>
      </trkpt>
      <trkpt lat="43.97856" lon="3.02861">
        <ele>831.3</ele>
        <time>2026-04-30T11:01:54.999Z</time>
      </trkpt>
      <trkpt lat="43.97856" lon="3.02861">
        <ele>831.4</ele>
        <time>2026-04-30T11:01:55.999Z</time>
      </trkpt>
      <trkpt lat="43.97856" lon="3.02861">
        <ele>831.6</ele>
        <time>2026-04-30T11:01:56.999Z</time>
      </trkpt>
      <trkpt lat="43.97856" lon="3.02861">
        <ele>831.5</ele>
        <time>2026-04-30T11:01:57.999Z</time>
      </trkpt>
      <trkpt lat="43.97856" lon="3.02861">
        <ele>831.5</ele>
        <time>2026-04-30T11:01:58.999Z</time>
      </trkpt>
      <trkpt lat="43.97856" lon="3.02861">
        <ele>831.5</ele>
        <time>2026-04-30T11:01:59.999Z</time>
      </trkpt>
      <trkpt lat="43.97856" lon="3.02861">
        <ele>831.5</ele>
        <time>2026-04-30T11:02:00.999Z</time>
      </trkpt>
      <trkpt lat="43.97856" lon="3.02861">
        <ele>831.5</ele>
        <time>2026-04-30T11:02:01.999Z</time>
      </trkpt>
      <trkpt lat="43.97856" lon="3.02862">
        <ele>831.6</ele>
        <time>2026-04-30T11:02:02.999Z</time>
      </trkpt>
      <trkpt lat="43.97856" lon="3.02862">
        <ele>831.5</ele>
        <time>2026-04-30T11:02:03.999Z</time>
      </trkpt>
      <trkpt lat="43.97856" lon="3.02862">
        <ele>831.6</ele>
        <time>2026-04-30T11:02:04.999Z</time>
      </trkpt>
      <trkpt lat="43.97856" lon="3.02862">
        <ele>831.3</ele>
        <time>2026-04-30T11:02:05.999Z</time>
      </trkpt>
      <trkpt lat="43.97856" lon="3.02862">
        <ele>831.1</ele>
        <time>2026-04-30T11:02:06.999Z</time>
      </trkpt>
      <trkpt lat="43.97856" lon="3.02862">
        <ele>830.8</ele>
        <time>2026-04-30T11:02:07.999Z</time>
      </trkpt>
      <trkpt lat="43.97856" lon="3.02862">
        <ele>830.5</ele>
        <time>2026-04-30T11:02:08.999Z</time>
      </trkpt>
      <trkpt lat="43.97856" lon="3.02862">
        <ele>830.4</ele>
        <time>2026-04-30T11:02:09.999Z</time>
      </trkpt>
      <trkpt lat="43.97856" lon="3.02862">
        <ele>830.3</ele>
        <time>2026-04-30T11:02:10.999Z</time>
      </trkpt>
      <trkpt lat="43.97856" lon="3.02862">
        <ele>830.2</ele>
        <time>2026-04-30T11:02:11.999Z</time>
      </trkpt>
      <trkpt lat="43.97856" lon="3.02862">
        <ele>829.8</ele>
        <time>2026-04-30T11:02:12.999Z</time>
      </trkpt>
      <trkpt lat="43.97856" lon="3.02862">
        <ele>829.6</ele>
        <time>2026-04-30T11:02:13.999Z</time>
      </trkpt>
      <trkpt lat="43.97856" lon="3.02862">
        <ele>829.6</ele>
        <time>2026-04-30T11:02:14.999Z</time>
      </trkpt>
      <trkpt lat="43.97856" lon="3.02862">
        <ele>829.4</ele>
        <time>2026-04-30T11:02:15.999Z</time>
      </trkpt>
      <trkpt lat="43.97856" lon="3.02862">
        <ele>829.5</ele>
        <time>2026-04-30T11:02:16.999Z</time>
      </trkpt>
      <trkpt lat="43.97856" lon="3.02862">
        <ele>829.5</ele>
        <time>2026-04-30T11:02:17.999Z</time>
      </trkpt>
      <trkpt lat="43.97856" lon="3.02861">
        <ele>829.6</ele>
        <time>2026-04-30T11:02:18.999Z</time>
      </trkpt>
      <trkpt lat="43.97856" lon="3.02861">
        <ele>829.4</ele>
        <time>2026-04-30T11:02:19.999Z</time>
      </trkpt>
      <trkpt lat="43.97856" lon="3.02861">
        <ele>829.2</ele>
        <time>2026-04-30T11:02:20.999Z</time>
      </trkpt>
      <trkpt lat="43.97856" lon="3.02861">
        <ele>829.2</ele>
        <time>2026-04-30T11:02:21.999Z</time>
      </trkpt>
      <trkpt lat="43.97856" lon="3.02861">
        <ele>829</ele>
        <time>2026-04-30T11:02:22.999Z</time>
      </trkpt>
      <trkpt lat="43.97856" lon="3.02861">
        <ele>829</ele>
        <time>2026-04-30T11:02:23.999Z</time>
      </trkpt>
      <trkpt lat="43.97856" lon="3.02861">
        <ele>828.7</ele>
        <time>2026-04-30T11:02:24.999Z</time>
      </trkpt>
      <trkpt lat="43.97856" lon="3.02861">
        <ele>828.6</ele>
        <time>2026-04-30T11:02:25.999Z</time>
      </trkpt>
      <trkpt lat="43.97856" lon="3.02861">
        <ele>828.5</ele>
        <time>2026-04-30T11:02:26.999Z</time>
      </trkpt>
      <trkpt lat="43.97856" lon="3.02861">
        <ele>828.6</ele>
        <time>2026-04-30T11:02:27.999Z</time>
      </trkpt>
      <trkpt lat="43.97856" lon="3.0286">
        <ele>828.5</ele>
        <time>2026-04-30T11:02:28.999Z</time>
      </trkpt>
      <trkpt lat="43.97856" lon="3.0286">
        <ele>828.5</ele>
        <time>2026-04-30T11:02:29.999Z</time>
      </trkpt>
      <trkpt lat="43.97856" lon="3.0286">
        <ele>828.6</ele>
        <time>2026-04-30T11:02:30.999Z</time>
      </trkpt>
      <trkpt lat="43.97856" lon="3.0286">
        <ele>828.6</ele>
        <time>2026-04-30T11:02:31.999Z</time>
      </trkpt>
      <trkpt lat="43.97856" lon="3.0286">
        <ele>828.7</ele>
        <time>2026-04-30T11:02:32.999Z</time>
      </trkpt>
      <trkpt lat="43.97856" lon="3.0286">
        <ele>828.4</ele>
        <time>2026-04-30T11:02:33.999Z</time>
      </trkpt>
      <trkpt lat="43.97857" lon="3.0286">
        <ele>828.3</ele>
        <time>2026-04-30T11:02:34.999Z</time>
      </trkpt>
      <trkpt lat="43.97857" lon="3.0286">
        <ele>828.4</ele>
        <time>2026-04-30T11:02:35.999Z</time>
      </trkpt>
      <trkpt lat="43.97857" lon="3.0286">
        <ele>828.4</ele>
        <time>2026-04-30T11:02:36.999Z</time>
      </trkpt>
      <trkpt lat="43.97857" lon="3.0286">
        <ele>828.5</ele>
        <time>2026-04-30T11:02:37.999Z</time>
      </trkpt>
      <trkpt lat="43.97857" lon="3.0286">
        <ele>828.6</ele>
        <time>2026-04-30T11:02:38.999Z</time>
      </trkpt>
      <trkpt lat="43.97857" lon="3.0286">
        <ele>828.7</ele>
        <time>2026-04-30T11:02:39.999Z</time>
      </trkpt>
      <trkpt lat="43.97857" lon="3.0286">
        <ele>828.8</ele>
        <time>2026-04-30T11:02:40.999Z</time>
      </trkpt>
      <trkpt lat="43.97857" lon="3.0286">
        <ele>828.8</ele>
        <time>2026-04-30T11:02:41.999Z</time>
      </trkpt>
      <trkpt lat="43.97857" lon="3.0286">
        <ele>828.9</ele>
        <time>2026-04-30T11:02:42.999Z</time>
      </trkpt>
      <trkpt lat="43.97857" lon="3.0286">
        <ele>828.8</ele>
        <time>2026-04-30T11:02:43.999Z</time>
      </trkpt>
      <trkpt lat="43.97857" lon="3.0286">
        <ele>828.7</ele>
        <time>2026-04-30T11:02:44.999Z</time>
      </trkpt>
      <trkpt lat="43.97857" lon="3.0286">
        <ele>828.8</ele>
        <time>2026-04-30T11:02:45.999Z</time>
      </trkpt>
      <trkpt lat="43.97857" lon="3.0286">
        <ele>828.7</ele>
        <time>2026-04-30T11:02:46.999Z</time>
      </trkpt>
      <trkpt lat="43.97857" lon="3.02859">
        <ele>828.8</ele>
        <time>2026-04-30T11:02:47.999Z</time>
      </trkpt>
      <trkpt lat="43.97857" lon="3.02859">
        <ele>828.8</ele>
        <time>2026-04-30T11:02:48.999Z</time>
      </trkpt>
      <trkpt lat="43.97857" lon="3.02859">
        <ele>828.8</ele>
        <time>2026-04-30T11:02:49.999Z</time>
      </trkpt>
      <trkpt lat="43.97857" lon="3.02859">
        <ele>828.8</ele>
        <time>2026-04-30T11:02:50.999Z</time>
      </trkpt>
      <trkpt lat="43.97857" lon="3.02859">
        <ele>828.8</ele>
        <time>2026-04-30T11:02:51.999Z</time>
      </trkpt>
      <trkpt lat="43.97857" lon="3.02859">
        <ele>828.8</ele>
        <time>2026-04-30T11:02:52.999Z</time>
      </trkpt>
      <trkpt lat="43.97857" lon="3.02859">
        <ele>828.8</ele>
        <time>2026-04-30T11:02:53.999Z</time>
      </trkpt>
      <trkpt lat="43.97857" lon="3.02859">
        <ele>828.8</ele>
        <time>2026-04-30T11:02:54.999Z</time>
      </trkpt>
      <trkpt lat="43.97857" lon="3.02859">
        <ele>828.8</ele>
        <time>2026-04-30T11:02:55.999Z</time>
      </trkpt>
      <trkpt lat="43.97857" lon="3.02859">
        <ele>828.9</ele>
        <time>2026-04-30T11:02:56.999Z</time>
      </trkpt>
      <trkpt lat="43.97857" lon="3.02859">
        <ele>828.9</ele>
        <time>2026-04-30T11:02:57.999Z</time>
      </trkpt>
      <trkpt lat="43.97857" lon="3.02859">
        <ele>829</ele>
        <time>2026-04-30T11:02:58.999Z</time>
      </trkpt>
      <trkpt lat="43.97857" lon="3.02859">
        <ele>829</ele>
        <time>2026-04-30T11:02:59.999Z</time>
      </trkpt>
      <trkpt lat="43.97857" lon="3.02859">
        <ele>828.7</ele>
        <time>2026-04-30T11:03:00.999Z</time>
      </trkpt>
      <trkpt lat="43.97857" lon="3.02859">
        <ele>828.6</ele>
        <time>2026-04-30T11:03:01.999Z</time>
      </trkpt>
      <trkpt lat="43.97857" lon="3.02859">
        <ele>828.5</ele>
        <time>2026-04-30T11:03:02.999Z</time>
      </trkpt>
      <trkpt lat="43.97857" lon="3.0286">
        <ele>828.3</ele>
        <time>2026-04-30T11:03:03.999Z</time>
      </trkpt>
      <trkpt lat="43.97857" lon="3.0286">
        <ele>828.4</ele>
        <time>2026-04-30T11:03:04.999Z</time>
      </trkpt>
      <trkpt lat="43.97857" lon="3.0286">
        <ele>828.4</ele>
        <time>2026-04-30T11:03:05.999Z</time>
      </trkpt>
      <trkpt lat="43.97857" lon="3.0286">
        <ele>828.7</ele>
        <time>2026-04-30T11:03:06.999Z</time>
      </trkpt>
      <trkpt lat="43.97857" lon="3.0286">
        <ele>829</ele>
        <time>2026-04-30T11:03:07.999Z</time>
      </trkpt>
      <trkpt lat="43.97857" lon="3.0286">
        <ele>829.4</ele>
        <time>2026-04-30T11:03:08.999Z</time>
      </trkpt>
      <trkpt lat="43.97857" lon="3.0286">
        <ele>829.6</ele>
        <time>2026-04-30T11:03:09.999Z</time>
      </trkpt>
      <trkpt lat="43.97857" lon="3.0286">
        <ele>829.8</ele>
        <time>2026-04-30T11:03:10.999Z</time>
      </trkpt>
      <trkpt lat="43.97857" lon="3.0286">
        <ele>829.9</ele>
        <time>2026-04-30T11:03:11.999Z</time>
      </trkpt>
      <trkpt lat="43.97857" lon="3.02859">
        <ele>830.1</ele>
        <time>2026-04-30T11:03:12.999Z</time>
      </trkpt>
      <trkpt lat="43.97857" lon="3.02859">
        <ele>830.4</ele>
        <time>2026-04-30T11:03:13.999Z</time>
      </trkpt>
      <trkpt lat="43.97857" lon="3.02859">
        <ele>830.4</ele>
        <time>2026-04-30T11:03:14.999Z</time>
      </trkpt>
      <trkpt lat="43.97857" lon="3.02859">
        <ele>830.2</ele>
        <time>2026-04-30T11:03:15.999Z</time>
      </trkpt>
      <trkpt lat="43.97857" lon="3.02859">
        <ele>830.4</ele>
        <time>2026-04-30T11:03:16.999Z</time>
      </trkpt>
      <trkpt lat="43.97857" lon="3.02859">
        <ele>830.4</ele>
        <time>2026-04-30T11:03:17.999Z</time>
      </trkpt>
      <trkpt lat="43.97857" lon="3.02859">
        <ele>830.3</ele>
        <time>2026-04-30T11:03:18.999Z</time>
      </trkpt>
      <trkpt lat="43.97857" lon="3.02859">
        <ele>830.2</ele>
        <time>2026-04-30T11:03:19.999Z</time>
      </trkpt>
      <trkpt lat="43.97857" lon="3.02859">
        <ele>830.3</ele>
        <time>2026-04-30T11:03:20.999Z</time>
      </trkpt>
      <trkpt lat="43.97857" lon="3.02859">
        <ele>830.4</ele>
        <time>2026-04-30T11:03:21.999Z</time>
      </trkpt>
      <trkpt lat="43.97857" lon="3.02859">
        <ele>830.3</ele>
        <time>2026-04-30T11:03:22.999Z</time>
      </trkpt>
      <trkpt lat="43.97857" lon="3.02859">
        <ele>830.3</ele>
        <time>2026-04-30T11:03:23.999Z</time>
      </trkpt>
      <trkpt lat="43.97857" lon="3.0286">
        <ele>830</ele>
        <time>2026-04-30T11:03:24.999Z</time>
      </trkpt>
      <trkpt lat="43.97856" lon="3.0286">
        <ele>830.1</ele>
        <time>2026-04-30T11:03:25.999Z</time>
      </trkpt>
      <trkpt lat="43.97856" lon="3.0286">
        <ele>830.3</ele>
        <time>2026-04-30T11:03:26.999Z</time>
      </trkpt>
      <trkpt lat="43.97856" lon="3.0286">
        <ele>830.5</ele>
        <time>2026-04-30T11:03:27.999Z</time>
      </trkpt>
      <trkpt lat="43.97856" lon="3.0286">
        <ele>830.8</ele>
        <time>2026-04-30T11:03:28.999Z</time>
      </trkpt>
      <trkpt lat="43.97856" lon="3.0286">
        <ele>831.2</ele>
        <time>2026-04-30T11:03:29.999Z</time>
      </trkpt>
      <trkpt lat="43.97856" lon="3.0286">
        <ele>831.4</ele>
        <time>2026-04-30T11:03:30.999Z</time>
      </trkpt>
      <trkpt lat="43.97856" lon="3.0286">
        <ele>831.6</ele>
        <time>2026-04-30T11:03:31.999Z</time>
      </trkpt>
      <trkpt lat="43.97856" lon="3.0286">
        <ele>831.6</ele>
        <time>2026-04-30T11:03:32.999Z</time>
      </trkpt>
      <trkpt lat="43.97856" lon="3.0286">
        <ele>831.2</ele>
        <time>2026-04-30T11:03:33.999Z</time>
      </trkpt>
      <trkpt lat="43.97856" lon="3.0286">
        <ele>830.9</ele>
        <time>2026-04-30T11:03:34.999Z</time>
      </trkpt>
      <trkpt lat="43.97856" lon="3.0286">
        <ele>830.7</ele>
        <time>2026-04-30T11:03:35.999Z</time>
      </trkpt>
      <trkpt lat="43.97856" lon="3.0286">
        <ele>830.6</ele>
        <time>2026-04-30T11:03:36.999Z</time>
      </trkpt>
      <trkpt lat="43.97856" lon="3.0286">
        <ele>830.6</ele>
        <time>2026-04-30T11:03:37.999Z</time>
      </trkpt>
      <trkpt lat="43.97856" lon="3.0286">
        <ele>830.3</ele>
        <time>2026-04-30T11:03:38.999Z</time>
      </trkpt>
      <trkpt lat="43.97856" lon="3.0286">
        <ele>830.2</ele>
        <time>2026-04-30T11:03:39.999Z</time>
      </trkpt>
      <trkpt lat="43.97855" lon="3.0286">
        <ele>830.2</ele>
        <time>2026-04-30T11:03:40.999Z</time>
      </trkpt>
      <trkpt lat="43.97855" lon="3.0286">
        <ele>830.3</ele>
        <time>2026-04-30T11:03:41.999Z</time>
      </trkpt>
      <trkpt lat="43.97855" lon="3.0286">
        <ele>830.3</ele>
        <time>2026-04-30T11:03:42.999Z</time>
      </trkpt>
      <trkpt lat="43.97855" lon="3.0286">
        <ele>830.2</ele>
        <time>2026-04-30T11:03:43.999Z</time>
      </trkpt>
      <trkpt lat="43.97855" lon="3.0286">
        <ele>830.4</ele>
        <time>2026-04-30T11:03:44.999Z</time>
      </trkpt>
      <trkpt lat="43.97855" lon="3.0286">
        <ele>830.5</ele>
        <time>2026-04-30T11:03:45.999Z</time>
      </trkpt>
      <trkpt lat="43.97855" lon="3.0286">
        <ele>830.4</ele>
        <time>2026-04-30T11:03:46.999Z</time>
      </trkpt>
      <trkpt lat="43.97855" lon="3.02861">
        <ele>830</ele>
        <time>2026-04-30T11:03:47.999Z</time>
      </trkpt>
      <trkpt lat="43.97855" lon="3.0286">
        <ele>830</ele>
        <time>2026-04-30T11:03:48.999Z</time>
      </trkpt>
      <trkpt lat="43.97855" lon="3.0286">
        <ele>829.9</ele>
        <time>2026-04-30T11:03:49.999Z</time>
      </trkpt>
      <trkpt lat="43.97855" lon="3.0286">
        <ele>830</ele>
        <time>2026-04-30T11:03:50.999Z</time>
      </trkpt>
      <trkpt lat="43.97855" lon="3.0286">
        <ele>830.1</ele>
        <time>2026-04-30T11:03:51.999Z</time>
      </trkpt>
      <trkpt lat="43.97855" lon="3.0286">
        <ele>830.3</ele>
        <time>2026-04-30T11:03:52.999Z</time>
      </trkpt>
      <trkpt lat="43.97855" lon="3.0286">
        <ele>830.6</ele>
        <time>2026-04-30T11:03:53.999Z</time>
      </trkpt>
      <trkpt lat="43.97855" lon="3.0286">
        <ele>830.6</ele>
        <time>2026-04-30T11:03:54.999Z</time>
      </trkpt>
      <trkpt lat="43.97855" lon="3.02861">
        <ele>830.7</ele>
        <time>2026-04-30T11:03:55.999Z</time>
      </trkpt>
      <trkpt lat="43.97855" lon="3.02861">
        <ele>830.7</ele>
        <time>2026-04-30T11:03:56.999Z</time>
      </trkpt>
      <trkpt lat="43.97855" lon="3.02861">
        <ele>830.7</ele>
        <time>2026-04-30T11:03:57.999Z</time>
      </trkpt>
      <trkpt lat="43.97855" lon="3.02861">
        <ele>830.8</ele>
        <time>2026-04-30T11:03:58.999Z</time>
      </trkpt>
      <trkpt lat="43.97855" lon="3.02861">
        <ele>830.8</ele>
        <time>2026-04-30T11:03:59.999Z</time>
      </trkpt>
      <trkpt lat="43.97855" lon="3.02861">
        <ele>830.9</ele>
        <time>2026-04-30T11:04:00.999Z</time>
      </trkpt>
      <trkpt lat="43.97855" lon="3.02861">
        <ele>830.7</ele>
        <time>2026-04-30T11:04:01.999Z</time>
      </trkpt>
      <trkpt lat="43.97855" lon="3.02861">
        <ele>830.3</ele>
        <time>2026-04-30T11:04:02.999Z</time>
      </trkpt>
      <trkpt lat="43.97855" lon="3.0286">
        <ele>829.9</ele>
        <time>2026-04-30T11:04:03.999Z</time>
      </trkpt>
      <trkpt lat="43.97855" lon="3.0286">
        <ele>829.6</ele>
        <time>2026-04-30T11:04:04.999Z</time>
      </trkpt>
      <trkpt lat="43.97855" lon="3.0286">
        <ele>829.6</ele>
        <time>2026-04-30T11:04:05.999Z</time>
      </trkpt>
      <trkpt lat="43.97855" lon="3.0286">
        <ele>829.6</ele>
        <time>2026-04-30T11:04:06.999Z</time>
      </trkpt>
      <trkpt lat="43.97855" lon="3.0286">
        <ele>829.5</ele>
        <time>2026-04-30T11:04:07.999Z</time>
      </trkpt>
      <trkpt lat="43.97855" lon="3.0286">
        <ele>829.4</ele>
        <time>2026-04-30T11:04:08.999Z</time>
      </trkpt>
      <trkpt lat="43.97855" lon="3.0286">
        <ele>829.4</ele>
        <time>2026-04-30T11:04:09.999Z</time>
      </trkpt>
      <trkpt lat="43.97855" lon="3.0286">
        <ele>829.3</ele>
        <time>2026-04-30T11:04:10.999Z</time>
      </trkpt>
      <trkpt lat="43.97855" lon="3.0286">
        <ele>829.4</ele>
        <time>2026-04-30T11:04:11.999Z</time>
      </trkpt>
      <trkpt lat="43.97855" lon="3.0286">
        <ele>829.5</ele>
        <time>2026-04-30T11:04:12.999Z</time>
      </trkpt>
      <trkpt lat="43.97855" lon="3.0286">
        <ele>829.4</ele>
        <time>2026-04-30T11:04:13.999Z</time>
      </trkpt>
      <trkpt lat="43.97855" lon="3.02861">
        <ele>829.2</ele>
        <time>2026-04-30T11:04:14.999Z</time>
      </trkpt>
      <trkpt lat="43.97855" lon="3.02861">
        <ele>829.4</ele>
        <time>2026-04-30T11:04:15.999Z</time>
      </trkpt>
      <trkpt lat="43.97855" lon="3.02861">
        <ele>829.7</ele>
        <time>2026-04-30T11:04:16.999Z</time>
      </trkpt>
      <trkpt lat="43.97855" lon="3.02861">
        <ele>829.7</ele>
        <time>2026-04-30T11:04:17.999Z</time>
      </trkpt>
      <trkpt lat="43.97855" lon="3.02861">
        <ele>829.8</ele>
        <time>2026-04-30T11:04:18.999Z</time>
      </trkpt>
      <trkpt lat="43.97855" lon="3.02861">
        <ele>829.9</ele>
        <time>2026-04-30T11:04:19.999Z</time>
      </trkpt>
      <trkpt lat="43.97855" lon="3.02861">
        <ele>830.1</ele>
        <time>2026-04-30T11:04:20.999Z</time>
      </trkpt>
      <trkpt lat="43.97855" lon="3.02861">
        <ele>830.1</ele>
        <time>2026-04-30T11:04:21.999Z</time>
      </trkpt>
      <trkpt lat="43.97855" lon="3.02861">
        <ele>830</ele>
        <time>2026-04-30T11:04:22.999Z</time>
      </trkpt>
      <trkpt lat="43.97855" lon="3.02861">
        <ele>830</ele>
        <time>2026-04-30T11:04:23.999Z</time>
      </trkpt>
      <trkpt lat="43.97855" lon="3.02861">
        <ele>829.9</ele>
        <time>2026-04-30T11:04:24.999Z</time>
      </trkpt>
      <trkpt lat="43.97855" lon="3.02861">
        <ele>829.9</ele>
        <time>2026-04-30T11:04:25.999Z</time>
      </trkpt>
      <trkpt lat="43.97855" lon="3.02861">
        <ele>829.5</ele>
        <time>2026-04-30T11:04:26.999Z</time>
      </trkpt>
      <trkpt lat="43.97855" lon="3.02861">
        <ele>829.4</ele>
        <time>2026-04-30T11:04:27.999Z</time>
      </trkpt>
      <trkpt lat="43.97855" lon="3.02861">
        <ele>829.3</ele>
        <time>2026-04-30T11:04:28.999Z</time>
      </trkpt>
      <trkpt lat="43.97855" lon="3.02861">
        <ele>829.2</ele>
        <time>2026-04-30T11:04:29.999Z</time>
      </trkpt>
      <trkpt lat="43.97855" lon="3.02861">
        <ele>829.2</ele>
        <time>2026-04-30T11:04:30.999Z</time>
      </trkpt>
      <trkpt lat="43.97855" lon="3.02861">
        <ele>829.1</ele>
        <time>2026-04-30T11:04:31.999Z</time>
      </trkpt>
      <trkpt lat="43.97855" lon="3.02861">
        <ele>829</ele>
        <time>2026-04-30T11:04:32.999Z</time>
      </trkpt>
      <trkpt lat="43.97855" lon="3.02861">
        <ele>828.9</ele>
        <time>2026-04-30T11:04:33.999Z</time>
      </trkpt>
      <trkpt lat="43.97855" lon="3.02861">
        <ele>828.8</ele>
        <time>2026-04-30T11:04:34.999Z</time>
      </trkpt>
      <trkpt lat="43.97855" lon="3.02861">
        <ele>828.7</ele>
        <time>2026-04-30T11:04:35.999Z</time>
      </trkpt>
      <trkpt lat="43.97855" lon="3.02861">
        <ele>828.4</ele>
        <time>2026-04-30T11:04:36.999Z</time>
      </trkpt>
      <trkpt lat="43.97856" lon="3.02861">
        <ele>828.1</ele>
        <time>2026-04-30T11:04:37.999Z</time>
      </trkpt>
      <trkpt lat="43.97856" lon="3.02861">
        <ele>828.1</ele>
        <time>2026-04-30T11:04:38.999Z</time>
      </trkpt>
      <trkpt lat="43.97856" lon="3.02861">
        <ele>828</ele>
        <time>2026-04-30T11:04:39.999Z</time>
      </trkpt>
      <trkpt lat="43.97856" lon="3.02861">
        <ele>828.1</ele>
        <time>2026-04-30T11:04:40.999Z</time>
      </trkpt>
      <trkpt lat="43.97856" lon="3.02861">
        <ele>828.2</ele>
        <time>2026-04-30T11:04:41.999Z</time>
      </trkpt>
      <trkpt lat="43.97856" lon="3.02861">
        <ele>828.2</ele>
        <time>2026-04-30T11:04:42.999Z</time>
      </trkpt>
      <trkpt lat="43.97856" lon="3.02861">
        <ele>828.1</ele>
        <time>2026-04-30T11:04:43.999Z</time>
      </trkpt>
      <trkpt lat="43.97856" lon="3.02861">
        <ele>828.1</ele>
        <time>2026-04-30T11:04:44.999Z</time>
      </trkpt>
      <trkpt lat="43.97856" lon="3.02861">
        <ele>828</ele>
        <time>2026-04-30T11:04:45.999Z</time>
      </trkpt>
      <trkpt lat="43.97856" lon="3.02861">
        <ele>828.1</ele>
        <time>2026-04-30T11:04:46.999Z</time>
      </trkpt>
      <trkpt lat="43.97856" lon="3.02861">
        <ele>828.2</ele>
        <time>2026-04-30T11:04:47.999Z</time>
      </trkpt>
      <trkpt lat="43.97856" lon="3.02861">
        <ele>828.2</ele>
        <time>2026-04-30T11:04:48.999Z</time>
      </trkpt>
      <trkpt lat="43.97856" lon="3.02861">
        <ele>828.4</ele>
        <time>2026-04-30T11:04:49.999Z</time>
      </trkpt>
      <trkpt lat="43.97856" lon="3.02861">
        <ele>828.4</ele>
        <time>2026-04-30T11:04:50.999Z</time>
      </trkpt>
      <trkpt lat="43.97856" lon="3.02861">
        <ele>828.5</ele>
        <time>2026-04-30T11:04:51.999Z</time>
      </trkpt>
      <trkpt lat="43.97856" lon="3.02861">
        <ele>828.6</ele>
        <time>2026-04-30T11:04:52.999Z</time>
      </trkpt>
      <trkpt lat="43.97856" lon="3.02861">
        <ele>828.5</ele>
        <time>2026-04-30T11:04:53.999Z</time>
      </trkpt>
      <trkpt lat="43.97856" lon="3.02861">
        <ele>828.6</ele>
        <time>2026-04-30T11:04:54.999Z</time>
      </trkpt>
      <trkpt lat="43.97856" lon="3.02861">
        <ele>828.6</ele>
        <time>2026-04-30T11:04:55.999Z</time>
      </trkpt>
      <trkpt lat="43.97856" lon="3.02861">
        <ele>828.6</ele>
        <time>2026-04-30T11:04:56.999Z</time>
      </trkpt>
      <trkpt lat="43.97856" lon="3.02861">
        <ele>828.7</ele>
        <time>2026-04-30T11:04:57.999Z</time>
      </trkpt>
      <trkpt lat="43.97856" lon="3.02861">
        <ele>828.9</ele>
        <time>2026-04-30T11:04:58.999Z</time>
      </trkpt>
      <trkpt lat="43.97856" lon="3.02861">
        <ele>829.2</ele>
        <time>2026-04-30T11:04:59.999Z</time>
      </trkpt>
      <trkpt lat="43.97856" lon="3.02861">
        <ele>829.4</ele>
        <time>2026-04-30T11:05:00.999Z</time>
      </trkpt>
      <trkpt lat="43.97856" lon="3.02861">
        <ele>829.7</ele>
        <time>2026-04-30T11:05:01.999Z</time>
      </trkpt>
      <trkpt lat="43.97856" lon="3.02861">
        <ele>829.9</ele>
        <time>2026-04-30T11:05:02.999Z</time>
      </trkpt>
      <trkpt lat="43.97856" lon="3.02861">
        <ele>830</ele>
        <time>2026-04-30T11:05:03.999Z</time>
      </trkpt>
      <trkpt lat="43.97856" lon="3.02861">
        <ele>829.9</ele>
        <time>2026-04-30T11:05:04.999Z</time>
      </trkpt>
      <trkpt lat="43.97856" lon="3.02861">
        <ele>830</ele>
        <time>2026-04-30T11:05:05.999Z</time>
      </trkpt>
      <trkpt lat="43.97856" lon="3.02861">
        <ele>829.9</ele>
        <time>2026-04-30T11:05:06.999Z</time>
      </trkpt>
      <trkpt lat="43.97856" lon="3.02861">
        <ele>830</ele>
        <time>2026-04-30T11:05:07.999Z</time>
      </trkpt>
      <trkpt lat="43.97856" lon="3.02861">
        <ele>829.9</ele>
        <time>2026-04-30T11:05:08.999Z</time>
      </trkpt>
      <trkpt lat="43.97856" lon="3.02861">
        <ele>829.8</ele>
        <time>2026-04-30T11:05:09.999Z</time>
      </trkpt>
      <trkpt lat="43.97856" lon="3.02861">
        <ele>829.9</ele>
        <time>2026-04-30T11:05:10.999Z</time>
      </trkpt>
      <trkpt lat="43.97856" lon="3.02861">
        <ele>830.1</ele>
        <time>2026-04-30T11:05:11.999Z</time>
      </trkpt>
      <trkpt lat="43.97856" lon="3.02861">
        <ele>830.2</ele>
        <time>2026-04-30T11:05:12.999Z</time>
      </trkpt>
      <trkpt lat="43.97856" lon="3.02861">
        <ele>830.3</ele>
        <time>2026-04-30T11:05:13.999Z</time>
      </trkpt>
      <trkpt lat="43.97856" lon="3.02861">
        <ele>830.4</ele>
        <time>2026-04-30T11:05:14.999Z</time>
      </trkpt>
      <trkpt lat="43.97856" lon="3.02861">
        <ele>830.3</ele>
        <time>2026-04-30T11:05:15.999Z</time>
      </trkpt>
      <trkpt lat="43.97856" lon="3.02861">
        <ele>830.3</ele>
        <time>2026-04-30T11:05:16.999Z</time>
      </trkpt>
      <trkpt lat="43.97856" lon="3.02861">
        <ele>830.2</ele>
        <time>2026-04-30T11:05:17.999Z</time>
      </trkpt>
      <trkpt lat="43.97856" lon="3.02861">
        <ele>830.3</ele>
        <time>2026-04-30T11:05:18.999Z</time>
      </trkpt>
      <trkpt lat="43.97856" lon="3.0286">
        <ele>830.3</ele>
        <time>2026-04-30T11:05:19.999Z</time>
      </trkpt>
      <trkpt lat="43.97856" lon="3.0286">
        <ele>830.5</ele>
        <time>2026-04-30T11:05:20.999Z</time>
      </trkpt>
      <trkpt lat="43.97856" lon="3.0286">
        <ele>830.5</ele>
        <time>2026-04-30T11:05:21.999Z</time>
      </trkpt>
      <trkpt lat="43.97856" lon="3.0286">
        <ele>830.8</ele>
        <time>2026-04-30T11:05:22.999Z</time>
      </trkpt>
      <trkpt lat="43.97856" lon="3.0286">
        <ele>831.1</ele>
        <time>2026-04-30T11:05:23.999Z</time>
      </trkpt>
      <trkpt lat="43.97856" lon="3.0286">
        <ele>831.2</ele>
        <time>2026-04-30T11:05:24.999Z</time>
      </trkpt>
      <trkpt lat="43.97856" lon="3.0286">
        <ele>831</ele>
        <time>2026-04-30T11:05:25.999Z</time>
      </trkpt>
      <trkpt lat="43.97856" lon="3.0286">
        <ele>830.8</ele>
        <time>2026-04-30T11:05:26.999Z</time>
      </trkpt>
      <trkpt lat="43.97856" lon="3.0286">
        <ele>830.5</ele>
        <time>2026-04-30T11:05:27.999Z</time>
      </trkpt>
      <trkpt lat="43.97856" lon="3.0286">
        <ele>830.4</ele>
        <time>2026-04-30T11:05:28.999Z</time>
      </trkpt>
      <trkpt lat="43.97856" lon="3.0286">
        <ele>830.2</ele>
        <time>2026-04-30T11:05:29.999Z</time>
      </trkpt>
      <trkpt lat="43.97856" lon="3.0286">
        <ele>830.1</ele>
        <time>2026-04-30T11:05:30.999Z</time>
      </trkpt>
      <trkpt lat="43.97856" lon="3.02859">
        <ele>829.8</ele>
        <time>2026-04-30T11:05:31.999Z</time>
      </trkpt>
      <trkpt lat="43.97856" lon="3.02859">
        <ele>829.8</ele>
        <time>2026-04-30T11:05:32.999Z</time>
      </trkpt>
      <trkpt lat="43.97856" lon="3.0286">
        <ele>829.8</ele>
        <time>2026-04-30T11:05:33.999Z</time>
      </trkpt>
      <trkpt lat="43.97856" lon="3.0286">
        <ele>829.6</ele>
        <time>2026-04-30T11:05:34.999Z</time>
      </trkpt>
      <trkpt lat="43.97856" lon="3.0286">
        <ele>829.5</ele>
        <time>2026-04-30T11:05:35.999Z</time>
      </trkpt>
      <trkpt lat="43.97856" lon="3.0286">
        <ele>829.4</ele>
        <time>2026-04-30T11:05:36.999Z</time>
      </trkpt>
      <trkpt lat="43.97856" lon="3.0286">
        <ele>829.4</ele>
        <time>2026-04-30T11:05:37.999Z</time>
      </trkpt>
      <trkpt lat="43.97856" lon="3.0286">
        <ele>829.2</ele>
        <time>2026-04-30T11:05:38.999Z</time>
      </trkpt>
      <trkpt lat="43.97856" lon="3.0286">
        <ele>829</ele>
        <time>2026-04-30T11:05:39.999Z</time>
      </trkpt>
      <trkpt lat="43.97856" lon="3.0286">
        <ele>828.8</ele>
        <time>2026-04-30T11:05:40.999Z</time>
      </trkpt>
      <trkpt lat="43.97856" lon="3.0286">
        <ele>828.9</ele>
        <time>2026-04-30T11:05:41.999Z</time>
      </trkpt>
      <trkpt lat="43.97856" lon="3.0286">
        <ele>829</ele>
        <time>2026-04-30T11:05:42.999Z</time>
      </trkpt>
      <trkpt lat="43.97856" lon="3.0286">
        <ele>829</ele>
        <time>2026-04-30T11:05:43.999Z</time>
      </trkpt>
      <trkpt lat="43.97856" lon="3.0286">
        <ele>829</ele>
        <time>2026-04-30T11:05:44.999Z</time>
      </trkpt>
      <trkpt lat="43.97856" lon="3.0286">
        <ele>829</ele>
        <time>2026-04-30T11:05:45.999Z</time>
      </trkpt>
      <trkpt lat="43.97856" lon="3.0286">
        <ele>829.3</ele>
        <time>2026-04-30T11:05:46.999Z</time>
      </trkpt>
      <trkpt lat="43.97856" lon="3.0286">
        <ele>829.4</ele>
        <time>2026-04-30T11:05:47.999Z</time>
      </trkpt>
      <trkpt lat="43.97856" lon="3.0286">
        <ele>829.5</ele>
        <time>2026-04-30T11:05:48.999Z</time>
      </trkpt>
      <trkpt lat="43.97856" lon="3.0286">
        <ele>829.5</ele>
        <time>2026-04-30T11:05:49.999Z</time>
      </trkpt>
      <trkpt lat="43.97856" lon="3.0286">
        <ele>829.4</ele>
        <time>2026-04-30T11:05:50.999Z</time>
      </trkpt>
      <trkpt lat="43.97856" lon="3.0286">
        <ele>829.3</ele>
        <time>2026-04-30T11:05:51.999Z</time>
      </trkpt>
      <trkpt lat="43.97856" lon="3.0286">
        <ele>829.2</ele>
        <time>2026-04-30T11:05:52.999Z</time>
      </trkpt>
      <trkpt lat="43.97856" lon="3.0286">
        <ele>828.9</ele>
        <time>2026-04-30T11:05:53.999Z</time>
      </trkpt>
      <trkpt lat="43.97855" lon="3.0286">
        <ele>828.8</ele>
        <time>2026-04-30T11:05:54.999Z</time>
      </trkpt>
      <trkpt lat="43.97855" lon="3.0286">
        <ele>828.8</ele>
        <time>2026-04-30T11:05:55.999Z</time>
      </trkpt>
      <trkpt lat="43.97855" lon="3.0286">
        <ele>828.7</ele>
        <time>2026-04-30T11:05:56.999Z</time>
      </trkpt>
      <trkpt lat="43.97855" lon="3.0286">
        <ele>828.6</ele>
        <time>2026-04-30T11:05:57.999Z</time>
      </trkpt>
      <trkpt lat="43.97855" lon="3.0286">
        <ele>828.5</ele>
        <time>2026-04-30T11:05:58.999Z</time>
      </trkpt>
      <trkpt lat="43.97855" lon="3.0286">
        <ele>828.4</ele>
        <time>2026-04-30T11:05:59.999Z</time>
      </trkpt>
      <trkpt lat="43.97855" lon="3.0286">
        <ele>828.3</ele>
        <time>2026-04-30T11:06:00.999Z</time>
      </trkpt>
      <trkpt lat="43.97855" lon="3.0286">
        <ele>828.4</ele>
        <time>2026-04-30T11:06:01.999Z</time>
      </trkpt>
      <trkpt lat="43.97855" lon="3.0286">
        <ele>828.3</ele>
        <time>2026-04-30T11:06:02.999Z</time>
      </trkpt>
      <trkpt lat="43.97856" lon="3.0286">
        <ele>828.3</ele>
        <time>2026-04-30T11:06:03.999Z</time>
      </trkpt>
      <trkpt lat="43.97856" lon="3.0286">
        <ele>828.4</ele>
        <time>2026-04-30T11:06:04.999Z</time>
      </trkpt>
      <trkpt lat="43.97856" lon="3.0286">
        <ele>828.5</ele>
        <time>2026-04-30T11:06:05.999Z</time>
      </trkpt>
      <trkpt lat="43.97856" lon="3.0286">
        <ele>828.2</ele>
        <time>2026-04-30T11:06:06.999Z</time>
      </trkpt>
      <trkpt lat="43.97856" lon="3.02861">
        <ele>828.1</ele>
        <time>2026-04-30T11:06:07.999Z</time>
      </trkpt>
      <trkpt lat="43.97856" lon="3.02861">
        <ele>828</ele>
        <time>2026-04-30T11:06:08.999Z</time>
      </trkpt>
      <trkpt lat="43.97856" lon="3.02861">
        <ele>827.8</ele>
        <time>2026-04-30T11:06:09.999Z</time>
      </trkpt>
      <trkpt lat="43.97856" lon="3.02861">
        <ele>827.7</ele>
        <time>2026-04-30T11:06:10.999Z</time>
      </trkpt>
      <trkpt lat="43.97856" lon="3.02861">
        <ele>827.5</ele>
        <time>2026-04-30T11:06:11.999Z</time>
      </trkpt>
      <trkpt lat="43.97856" lon="3.02861">
        <ele>827.5</ele>
        <time>2026-04-30T11:06:12.999Z</time>
      </trkpt>
      <trkpt lat="43.97856" lon="3.02861">
        <ele>827.5</ele>
        <time>2026-04-30T11:06:13.999Z</time>
      </trkpt>
      <trkpt lat="43.97856" lon="3.02861">
        <ele>827.5</ele>
        <time>2026-04-30T11:06:14.999Z</time>
      </trkpt>
      <trkpt lat="43.97856" lon="3.02861">
        <ele>827.6</ele>
        <time>2026-04-30T11:06:15.999Z</time>
      </trkpt>
      <trkpt lat="43.97856" lon="3.02861">
        <ele>827.7</ele>
        <time>2026-04-30T11:06:16.999Z</time>
      </trkpt>
      <trkpt lat="43.97856" lon="3.02861">
        <ele>827.7</ele>
        <time>2026-04-30T11:06:17.999Z</time>
      </trkpt>
      <trkpt lat="43.97856" lon="3.02861">
        <ele>827.6</ele>
        <time>2026-04-30T11:06:18.999Z</time>
      </trkpt>
      <trkpt lat="43.97856" lon="3.02861">
        <ele>827.5</ele>
        <time>2026-04-30T11:06:19.999Z</time>
      </trkpt>
      <trkpt lat="43.97856" lon="3.02861">
        <ele>827.2</ele>
        <time>2026-04-30T11:06:20.999Z</time>
      </trkpt>
      <trkpt lat="43.97856" lon="3.02861">
        <ele>827</ele>
        <time>2026-04-30T11:06:21.999Z</time>
      </trkpt>
      <trkpt lat="43.97856" lon="3.02861">
        <ele>827</ele>
        <time>2026-04-30T11:06:22.999Z</time>
      </trkpt>
      <trkpt lat="43.97856" lon="3.02861">
        <ele>826.8</ele>
        <time>2026-04-30T11:06:23.999Z</time>
      </trkpt>
      <trkpt lat="43.97856" lon="3.02861">
        <ele>827</ele>
        <time>2026-04-30T11:06:24.999Z</time>
      </trkpt>
      <trkpt lat="43.97856" lon="3.02861">
        <ele>827.1</ele>
        <time>2026-04-30T11:06:25.999Z</time>
      </trkpt>
      <trkpt lat="43.97856" lon="3.02861">
        <ele>827.1</ele>
        <time>2026-04-30T11:06:26.999Z</time>
      </trkpt>
      <trkpt lat="43.97856" lon="3.02861">
        <ele>827.2</ele>
        <time>2026-04-30T11:06:27.999Z</time>
      </trkpt>
      <trkpt lat="43.97856" lon="3.02861">
        <ele>827.2</ele>
        <time>2026-04-30T11:06:28.999Z</time>
      </trkpt>
      <trkpt lat="43.97856" lon="3.02861">
        <ele>827.1</ele>
        <time>2026-04-30T11:06:29.999Z</time>
      </trkpt>
      <trkpt lat="43.97856" lon="3.02861">
        <ele>827</ele>
        <time>2026-04-30T11:06:30.999Z</time>
      </trkpt>
      <trkpt lat="43.97856" lon="3.02861">
        <ele>826.6</ele>
        <time>2026-04-30T11:06:31.999Z</time>
      </trkpt>
      <trkpt lat="43.97856" lon="3.02861">
        <ele>826.6</ele>
        <time>2026-04-30T11:06:32.999Z</time>
      </trkpt>
      <trkpt lat="43.97856" lon="3.02861">
        <ele>826.6</ele>
        <time>2026-04-30T11:06:33.999Z</time>
      </trkpt>
      <trkpt lat="43.97855" lon="3.02861">
        <ele>826.8</ele>
        <time>2026-04-30T11:06:34.999Z</time>
      </trkpt>
      <trkpt lat="43.97855" lon="3.02861">
        <ele>827</ele>
        <time>2026-04-30T11:06:35.999Z</time>
      </trkpt>
      <trkpt lat="43.97855" lon="3.02862">
        <ele>827.2</ele>
        <time>2026-04-30T11:06:36.999Z</time>
      </trkpt>
      <trkpt lat="43.97855" lon="3.02862">
        <ele>827.4</ele>
        <time>2026-04-30T11:06:37.999Z</time>
      </trkpt>
      <trkpt lat="43.97855" lon="3.02862">
        <ele>827.3</ele>
        <time>2026-04-30T11:06:38.999Z</time>
      </trkpt>
      <trkpt lat="43.97855" lon="3.02862">
        <ele>827.2</ele>
        <time>2026-04-30T11:06:39.999Z</time>
      </trkpt>
      <trkpt lat="43.97855" lon="3.02862">
        <ele>827</ele>
        <time>2026-04-30T11:06:40.999Z</time>
      </trkpt>
      <trkpt lat="43.97855" lon="3.02863">
        <ele>826.7</ele>
        <time>2026-04-30T11:06:41.999Z</time>
      </trkpt>
      <trkpt lat="43.97855" lon="3.02863">
        <ele>826.6</ele>
        <time>2026-04-30T11:06:42.999Z</time>
      </trkpt>
      <trkpt lat="43.97855" lon="3.02863">
        <ele>826.4</ele>
        <time>2026-04-30T11:06:43.999Z</time>
      </trkpt>
      <trkpt lat="43.97855" lon="3.02863">
        <ele>826.3</ele>
        <time>2026-04-30T11:06:44.999Z</time>
      </trkpt>
      <trkpt lat="43.97855" lon="3.02863">
        <ele>826.2</ele>
        <time>2026-04-30T11:06:45.999Z</time>
      </trkpt>
      <trkpt lat="43.97855" lon="3.02863">
        <ele>826.2</ele>
        <time>2026-04-30T11:06:46.999Z</time>
      </trkpt>
      <trkpt lat="43.97855" lon="3.02863">
        <ele>826.3</ele>
        <time>2026-04-30T11:06:47.999Z</time>
      </trkpt>
      <trkpt lat="43.97855" lon="3.02864">
        <ele>826.4</ele>
        <time>2026-04-30T11:06:48.999Z</time>
      </trkpt>
      <trkpt lat="43.97855" lon="3.02864">
        <ele>826.2</ele>
        <time>2026-04-30T11:06:49.999Z</time>
      </trkpt>
      <trkpt lat="43.97855" lon="3.02864">
        <ele>826.1</ele>
        <time>2026-04-30T11:06:50.999Z</time>
      </trkpt>
      <trkpt lat="43.97855" lon="3.02864">
        <ele>826.2</ele>
        <time>2026-04-30T11:06:51.999Z</time>
      </trkpt>
      <trkpt lat="43.97855" lon="3.02864">
        <ele>826.3</ele>
        <time>2026-04-30T11:06:52.999Z</time>
      </trkpt>
      <trkpt lat="43.97855" lon="3.02864">
        <ele>826.1</ele>
        <time>2026-04-30T11:06:53.999Z</time>
      </trkpt>
      <trkpt lat="43.97855" lon="3.02864">
        <ele>825.9</ele>
        <time>2026-04-30T11:06:54.999Z</time>
      </trkpt>
      <trkpt lat="43.97855" lon="3.02864">
        <ele>825.7</ele>
        <time>2026-04-30T11:06:55.999Z</time>
      </trkpt>
      <trkpt lat="43.97855" lon="3.02864">
        <ele>825.6</ele>
        <time>2026-04-30T11:06:56.999Z</time>
      </trkpt>
      <trkpt lat="43.97854" lon="3.02864">
        <ele>825.6</ele>
        <time>2026-04-30T11:06:57.999Z</time>
      </trkpt>
      <trkpt lat="43.97854" lon="3.02865">
        <ele>825.5</ele>
        <time>2026-04-30T11:06:58.999Z</time>
      </trkpt>
      <trkpt lat="43.97854" lon="3.02865">
        <ele>825.4</ele>
        <time>2026-04-30T11:06:59.999Z</time>
      </trkpt>
      <trkpt lat="43.97854" lon="3.02865">
        <ele>825.2</ele>
        <time>2026-04-30T11:07:00.999Z</time>
      </trkpt>
      <trkpt lat="43.97854" lon="3.02865">
        <ele>825</ele>
        <time>2026-04-30T11:07:01.999Z</time>
      </trkpt>
      <trkpt lat="43.97854" lon="3.02865">
        <ele>824.9</ele>
        <time>2026-04-30T11:07:02.999Z</time>
      </trkpt>
      <trkpt lat="43.97854" lon="3.02865">
        <ele>824.8</ele>
        <time>2026-04-30T11:07:03.999Z</time>
      </trkpt>
      <trkpt lat="43.97854" lon="3.02865">
        <ele>824.8</ele>
        <time>2026-04-30T11:07:04.999Z</time>
      </trkpt>
      <trkpt lat="43.97854" lon="3.02865">
        <ele>824.5</ele>
        <time>2026-04-30T11:07:05.999Z</time>
      </trkpt>
      <trkpt lat="43.97854" lon="3.02865">
        <ele>824.5</ele>
        <time>2026-04-30T11:07:06.999Z</time>
      </trkpt>
      <trkpt lat="43.97854" lon="3.02865">
        <ele>824.7</ele>
        <time>2026-04-30T11:07:07.999Z</time>
      </trkpt>
      <trkpt lat="43.97854" lon="3.02865">
        <ele>825</ele>
        <time>2026-04-30T11:07:08.999Z</time>
      </trkpt>
      <trkpt lat="43.97854" lon="3.02865">
        <ele>825.3</ele>
        <time>2026-04-30T11:07:09.999Z</time>
      </trkpt>
      <trkpt lat="43.97854" lon="3.02865">
        <ele>825.7</ele>
        <time>2026-04-30T11:07:10.999Z</time>
      </trkpt>
      <trkpt lat="43.97855" lon="3.02865">
        <ele>825.9</ele>
        <time>2026-04-30T11:07:11.999Z</time>
      </trkpt>
      <trkpt lat="43.97855" lon="3.02864">
        <ele>826.2</ele>
        <time>2026-04-30T11:07:12.999Z</time>
      </trkpt>
      <trkpt lat="43.97855" lon="3.02864">
        <ele>826.4</ele>
        <time>2026-04-30T11:07:13.999Z</time>
      </trkpt>
      <trkpt lat="43.97855" lon="3.02864">
        <ele>826.7</ele>
        <time>2026-04-30T11:07:14.999Z</time>
      </trkpt>
      <trkpt lat="43.97855" lon="3.02864">
        <ele>826.9</ele>
        <time>2026-04-30T11:07:15.999Z</time>
      </trkpt>
      <trkpt lat="43.97855" lon="3.02864">
        <ele>827.1</ele>
        <time>2026-04-30T11:07:16.999Z</time>
      </trkpt>
      <trkpt lat="43.97855" lon="3.02864">
        <ele>827.5</ele>
        <time>2026-04-30T11:07:17.999Z</time>
      </trkpt>
      <trkpt lat="43.97855" lon="3.02864">
        <ele>828</ele>
        <time>2026-04-30T11:07:18.999Z</time>
      </trkpt>
      <trkpt lat="43.97855" lon="3.02864">
        <ele>828.2</ele>
        <time>2026-04-30T11:07:19.999Z</time>
      </trkpt>
      <trkpt lat="43.97855" lon="3.02864">
        <ele>828.4</ele>
        <time>2026-04-30T11:07:20.999Z</time>
      </trkpt>
      <trkpt lat="43.97855" lon="3.02864">
        <ele>828.6</ele>
        <time>2026-04-30T11:07:21.999Z</time>
      </trkpt>
      <trkpt lat="43.97855" lon="3.02864">
        <ele>828.6</ele>
        <time>2026-04-30T11:07:22.999Z</time>
      </trkpt>
      <trkpt lat="43.97855" lon="3.02864">
        <ele>828.6</ele>
        <time>2026-04-30T11:07:23.999Z</time>
      </trkpt>
      <trkpt lat="43.97855" lon="3.02864">
        <ele>828.4</ele>
        <time>2026-04-30T11:07:24.999Z</time>
      </trkpt>
      <trkpt lat="43.97855" lon="3.02864">
        <ele>828.1</ele>
        <time>2026-04-30T11:07:25.999Z</time>
      </trkpt>
      <trkpt lat="43.97855" lon="3.02864">
        <ele>827.8</ele>
        <time>2026-04-30T11:07:26.999Z</time>
      </trkpt>
      <trkpt lat="43.97855" lon="3.02865">
        <ele>827.4</ele>
        <time>2026-04-30T11:07:27.999Z</time>
      </trkpt>
      <trkpt lat="43.97855" lon="3.02865">
        <ele>827.2</ele>
        <time>2026-04-30T11:07:28.999Z</time>
      </trkpt>
      <trkpt lat="43.97855" lon="3.02864">
        <ele>827.4</ele>
        <time>2026-04-30T11:07:29.999Z</time>
      </trkpt>
      <trkpt lat="43.97855" lon="3.02864">
        <ele>827.5</ele>
        <time>2026-04-30T11:07:30.999Z</time>
      </trkpt>
      <trkpt lat="43.97855" lon="3.02864">
        <ele>827.6</ele>
        <time>2026-04-30T11:07:31.999Z</time>
      </trkpt>
      <trkpt lat="43.97855" lon="3.02864">
        <ele>827.4</ele>
        <time>2026-04-30T11:07:32.999Z</time>
      </trkpt>
      <trkpt lat="43.97855" lon="3.02864">
        <ele>827.3</ele>
        <time>2026-04-30T11:07:33.999Z</time>
      </trkpt>
      <trkpt lat="43.97855" lon="3.02864">
        <ele>827.5</ele>
        <time>2026-04-30T11:07:34.999Z</time>
      </trkpt>
      <trkpt lat="43.97855" lon="3.02863">
        <ele>827.4</ele>
        <time>2026-04-30T11:07:35.999Z</time>
      </trkpt>
      <trkpt lat="43.97855" lon="3.02863">
        <ele>827.4</ele>
        <time>2026-04-30T11:07:36.999Z</time>
      </trkpt>
      <trkpt lat="43.97855" lon="3.02863">
        <ele>827.5</ele>
        <time>2026-04-30T11:07:37.999Z</time>
      </trkpt>
      <trkpt lat="43.97855" lon="3.02862">
        <ele>827.6</ele>
        <time>2026-04-30T11:07:38.999Z</time>
      </trkpt>
      <trkpt lat="43.97855" lon="3.02862">
        <ele>827.7</ele>
        <time>2026-04-30T11:07:39.999Z</time>
      </trkpt>
      <trkpt lat="43.97855" lon="3.02862">
        <ele>827.5</ele>
        <time>2026-04-30T11:07:40.999Z</time>
      </trkpt>
      <trkpt lat="43.97855" lon="3.02862">
        <ele>827.3</ele>
        <time>2026-04-30T11:07:41.999Z</time>
      </trkpt>
      <trkpt lat="43.97855" lon="3.02862">
        <ele>826.9</ele>
        <time>2026-04-30T11:07:42.999Z</time>
      </trkpt>
      <trkpt lat="43.97855" lon="3.02862">
        <ele>826.8</ele>
        <time>2026-04-30T11:07:43.999Z</time>
      </trkpt>
      <trkpt lat="43.97855" lon="3.02862">
        <ele>826.8</ele>
        <time>2026-04-30T11:07:44.999Z</time>
      </trkpt>
      <trkpt lat="43.97855" lon="3.02862">
        <ele>826.7</ele>
        <time>2026-04-30T11:07:45.999Z</time>
      </trkpt>
      <trkpt lat="43.97855" lon="3.02863">
        <ele>826.7</ele>
        <time>2026-04-30T11:07:46.999Z</time>
      </trkpt>
      <trkpt lat="43.97855" lon="3.02863">
        <ele>827</ele>
        <time>2026-04-30T11:07:47.999Z</time>
      </trkpt>
      <trkpt lat="43.97855" lon="3.02863">
        <ele>827</ele>
        <time>2026-04-30T11:07:48.999Z</time>
      </trkpt>
      <trkpt lat="43.97855" lon="3.02864">
        <ele>826.8</ele>
        <time>2026-04-30T11:07:49.999Z</time>
      </trkpt>
      <trkpt lat="43.97855" lon="3.02864">
        <ele>826.7</ele>
        <time>2026-04-30T11:07:50.999Z</time>
      </trkpt>
      <trkpt lat="43.97855" lon="3.02864">
        <ele>826.7</ele>
        <time>2026-04-30T11:07:51.999Z</time>
      </trkpt>
      <trkpt lat="43.97856" lon="3.02866">
        <ele>826.7</ele>
        <time>2026-04-30T11:07:52.999Z</time>
      </trkpt>
      <trkpt lat="43.97857" lon="3.02866">
        <ele>826.6</ele>
        <time>2026-04-30T11:07:53.999Z</time>
      </trkpt>
      <trkpt lat="43.97857" lon="3.02865">
        <ele>826.5</ele>
        <time>2026-04-30T11:07:54.999Z</time>
      </trkpt>
      <trkpt lat="43.97858" lon="3.02866">
        <ele>826.5</ele>
        <time>2026-04-30T11:07:55.999Z</time>
      </trkpt>
      <trkpt lat="43.97858" lon="3.02866">
        <ele>826.5</ele>
        <time>2026-04-30T11:07:56.999Z</time>
      </trkpt>
      <trkpt lat="43.97858" lon="3.02866">
        <ele>826.6</ele>
        <time>2026-04-30T11:07:57.999Z</time>
      </trkpt>
      <trkpt lat="43.97858" lon="3.02866">
        <ele>826.6</ele>
        <time>2026-04-30T11:07:58.999Z</time>
      </trkpt>
      <trkpt lat="43.97858" lon="3.02866">
        <ele>826.6</ele>
        <time>2026-04-30T11:07:59.999Z</time>
      </trkpt>
      <trkpt lat="43.97858" lon="3.02865">
        <ele>826.7</ele>
        <time>2026-04-30T11:08:00.999Z</time>
      </trkpt>
      <trkpt lat="43.97858" lon="3.02865">
        <ele>826.9</ele>
        <time>2026-04-30T11:08:01.999Z</time>
      </trkpt>
      <trkpt lat="43.97858" lon="3.02865">
        <ele>827</ele>
        <time>2026-04-30T11:08:02.999Z</time>
      </trkpt>
      <trkpt lat="43.97858" lon="3.02865">
        <ele>827.2</ele>
        <time>2026-04-30T11:08:03.999Z</time>
      </trkpt>
      <trkpt lat="43.97858" lon="3.02865">
        <ele>827.3</ele>
        <time>2026-04-30T11:08:04.999Z</time>
      </trkpt>
      <trkpt lat="43.97858" lon="3.02865">
        <ele>827.3</ele>
        <time>2026-04-30T11:08:05.999Z</time>
      </trkpt>
      <trkpt lat="43.97858" lon="3.02865">
        <ele>827.3</ele>
        <time>2026-04-30T11:08:06.999Z</time>
      </trkpt>
      <trkpt lat="43.97858" lon="3.02865">
        <ele>827.3</ele>
        <time>2026-04-30T11:08:07.999Z</time>
      </trkpt>
      <trkpt lat="43.97858" lon="3.02865">
        <ele>827.3</ele>
        <time>2026-04-30T11:08:08.999Z</time>
      </trkpt>
      <trkpt lat="43.97858" lon="3.02865">
        <ele>827.4</ele>
        <time>2026-04-30T11:08:09.999Z</time>
      </trkpt>
      <trkpt lat="43.97858" lon="3.02865">
        <ele>827.3</ele>
        <time>2026-04-30T11:08:10.999Z</time>
      </trkpt>
      <trkpt lat="43.97858" lon="3.02865">
        <ele>827.2</ele>
        <time>2026-04-30T11:08:11.999Z</time>
      </trkpt>
      <trkpt lat="43.97858" lon="3.02865">
        <ele>826.8</ele>
        <time>2026-04-30T11:08:12.999Z</time>
      </trkpt>
      <trkpt lat="43.97858" lon="3.02865">
        <ele>826.6</ele>
        <time>2026-04-30T11:08:13.999Z</time>
      </trkpt>
      <trkpt lat="43.97858" lon="3.02865">
        <ele>826.5</ele>
        <time>2026-04-30T11:08:14.999Z</time>
      </trkpt>
      <trkpt lat="43.97858" lon="3.02865">
        <ele>826.5</ele>
        <time>2026-04-30T11:08:15.999Z</time>
      </trkpt>
      <trkpt lat="43.97858" lon="3.02865">
        <ele>826.4</ele>
        <time>2026-04-30T11:08:16.999Z</time>
      </trkpt>
      <trkpt lat="43.97857" lon="3.02865">
        <ele>826.5</ele>
        <time>2026-04-30T11:08:17.999Z</time>
      </trkpt>
      <trkpt lat="43.97857" lon="3.02865">
        <ele>826.5</ele>
        <time>2026-04-30T11:08:18.999Z</time>
      </trkpt>
      <trkpt lat="43.97857" lon="3.02865">
        <ele>826.4</ele>
        <time>2026-04-30T11:08:19.999Z</time>
      </trkpt>
      <trkpt lat="43.97857" lon="3.02865">
        <ele>826.4</ele>
        <time>2026-04-30T11:08:20.999Z</time>
      </trkpt>
      <trkpt lat="43.97857" lon="3.02865">
        <ele>826.4</ele>
        <time>2026-04-30T11:08:21.999Z</time>
      </trkpt>
      <trkpt lat="43.97857" lon="3.02865">
        <ele>826.4</ele>
        <time>2026-04-30T11:08:22.999Z</time>
      </trkpt>
      <trkpt lat="43.97857" lon="3.02865">
        <ele>826.4</ele>
        <time>2026-04-30T11:08:23.999Z</time>
      </trkpt>
      <trkpt lat="43.97857" lon="3.02865">
        <ele>826.3</ele>
        <time>2026-04-30T11:08:24.999Z</time>
      </trkpt>
      <trkpt lat="43.97857" lon="3.02865">
        <ele>826.2</ele>
        <time>2026-04-30T11:08:25.999Z</time>
      </trkpt>
      <trkpt lat="43.97857" lon="3.02865">
        <ele>826.4</ele>
        <time>2026-04-30T11:08:26.999Z</time>
      </trkpt>
      <trkpt lat="43.97857" lon="3.02865">
        <ele>826.4</ele>
        <time>2026-04-30T11:08:27.999Z</time>
      </trkpt>
      <trkpt lat="43.97857" lon="3.02865">
        <ele>826.5</ele>
        <time>2026-04-30T11:08:28.999Z</time>
      </trkpt>
      <trkpt lat="43.97857" lon="3.02865">
        <ele>826.3</ele>
        <time>2026-04-30T11:08:29.999Z</time>
      </trkpt>
      <trkpt lat="43.97857" lon="3.02865">
        <ele>826.3</ele>
        <time>2026-04-30T11:08:30.999Z</time>
      </trkpt>
      <trkpt lat="43.97857" lon="3.02865">
        <ele>826.1</ele>
        <time>2026-04-30T11:08:31.999Z</time>
      </trkpt>
      <trkpt lat="43.97857" lon="3.02865">
        <ele>826</ele>
        <time>2026-04-30T11:08:32.999Z</time>
      </trkpt>
      <trkpt lat="43.97857" lon="3.02865">
        <ele>826</ele>
        <time>2026-04-30T11:08:33.999Z</time>
      </trkpt>
      <trkpt lat="43.97857" lon="3.02865">
        <ele>826.4</ele>
        <time>2026-04-30T11:08:34.999Z</time>
      </trkpt>
      <trkpt lat="43.97857" lon="3.02865">
        <ele>826.3</ele>
        <time>2026-04-30T11:08:35.999Z</time>
      </trkpt>
      <trkpt lat="43.97857" lon="3.02865">
        <ele>826.3</ele>
        <time>2026-04-30T11:08:36.999Z</time>
      </trkpt>
      <trkpt lat="43.97857" lon="3.02865">
        <ele>826.3</ele>
        <time>2026-04-30T11:08:37.999Z</time>
      </trkpt>
      <trkpt lat="43.97857" lon="3.02865">
        <ele>826.3</ele>
        <time>2026-04-30T11:08:38.999Z</time>
      </trkpt>
      <trkpt lat="43.97857" lon="3.02865">
        <ele>826.3</ele>
        <time>2026-04-30T11:08:39.999Z</time>
      </trkpt>
      <trkpt lat="43.97857" lon="3.02865">
        <ele>826.2</ele>
        <time>2026-04-30T11:08:40.999Z</time>
      </trkpt>
      <trkpt lat="43.97857" lon="3.02865">
        <ele>826</ele>
        <time>2026-04-30T11:08:41.999Z</time>
      </trkpt>
      <trkpt lat="43.97857" lon="3.02865">
        <ele>826.2</ele>
        <time>2026-04-30T11:08:42.999Z</time>
      </trkpt>
      <trkpt lat="43.97857" lon="3.02865">
        <ele>826.3</ele>
        <time>2026-04-30T11:08:43.999Z</time>
      </trkpt>
      <trkpt lat="43.97857" lon="3.02865">
        <ele>826.4</ele>
        <time>2026-04-30T11:08:44.999Z</time>
      </trkpt>
      <trkpt lat="43.97857" lon="3.02865">
        <ele>826.2</ele>
        <time>2026-04-30T11:08:45.999Z</time>
      </trkpt>
      <trkpt lat="43.97857" lon="3.02865">
        <ele>826.1</ele>
        <time>2026-04-30T11:08:46.999Z</time>
      </trkpt>
      <trkpt lat="43.97857" lon="3.02865">
        <ele>825.9</ele>
        <time>2026-04-30T11:08:47.999Z</time>
      </trkpt>
      <trkpt lat="43.97857" lon="3.02865">
        <ele>825.9</ele>
        <time>2026-04-30T11:08:48.999Z</time>
      </trkpt>
      <trkpt lat="43.97857" lon="3.02865">
        <ele>825.8</ele>
        <time>2026-04-30T11:08:49.999Z</time>
      </trkpt>
      <trkpt lat="43.97857" lon="3.02865">
        <ele>825.7</ele>
        <time>2026-04-30T11:08:50.999Z</time>
      </trkpt>
      <trkpt lat="43.97857" lon="3.02865">
        <ele>825.6</ele>
        <time>2026-04-30T11:08:51.999Z</time>
      </trkpt>
      <trkpt lat="43.97857" lon="3.02865">
        <ele>825.4</ele>
        <time>2026-04-30T11:08:52.999Z</time>
      </trkpt>
      <trkpt lat="43.97857" lon="3.02865">
        <ele>825.4</ele>
        <time>2026-04-30T11:08:53.999Z</time>
      </trkpt>
      <trkpt lat="43.97857" lon="3.02865">
        <ele>825.3</ele>
        <time>2026-04-30T11:08:54.999Z</time>
      </trkpt>
      <trkpt lat="43.97857" lon="3.02865">
        <ele>825.1</ele>
        <time>2026-04-30T11:08:55.999Z</time>
      </trkpt>
      <trkpt lat="43.97857" lon="3.02865">
        <ele>825</ele>
        <time>2026-04-30T11:08:56.999Z</time>
      </trkpt>
      <trkpt lat="43.97857" lon="3.02865">
        <ele>824.9</ele>
        <time>2026-04-30T11:08:57.999Z</time>
      </trkpt>
      <trkpt lat="43.97857" lon="3.02865">
        <ele>824.9</ele>
        <time>2026-04-30T11:08:58.999Z</time>
      </trkpt>
      <trkpt lat="43.97857" lon="3.02865">
        <ele>825.2</ele>
        <time>2026-04-30T11:08:59.999Z</time>
      </trkpt>
      <trkpt lat="43.97857" lon="3.02865">
        <ele>825.4</ele>
        <time>2026-04-30T11:09:00.999Z</time>
      </trkpt>
      <trkpt lat="43.97857" lon="3.02865">
        <ele>825.5</ele>
        <time>2026-04-30T11:09:01.999Z</time>
      </trkpt>
      <trkpt lat="43.97857" lon="3.02865">
        <ele>825.7</ele>
        <time>2026-04-30T11:09:02.999Z</time>
      </trkpt>
      <trkpt lat="43.97857" lon="3.02865">
        <ele>825.7</ele>
        <time>2026-04-30T11:09:03.999Z</time>
      </trkpt>
      <trkpt lat="43.97857" lon="3.02865">
        <ele>825.6</ele>
        <time>2026-04-30T11:09:04.999Z</time>
      </trkpt>
      <trkpt lat="43.97857" lon="3.02865">
        <ele>825.5</ele>
        <time>2026-04-30T11:09:05.999Z</time>
      </trkpt>
      <trkpt lat="43.97857" lon="3.02865">
        <ele>825.3</ele>
        <time>2026-04-30T11:09:06.999Z</time>
      </trkpt>
      <trkpt lat="43.97857" lon="3.02865">
        <ele>825.4</ele>
        <time>2026-04-30T11:09:07.999Z</time>
      </trkpt>
      <trkpt lat="43.97857" lon="3.02865">
        <ele>825.5</ele>
        <time>2026-04-30T11:09:08.999Z</time>
      </trkpt>
      <trkpt lat="43.97857" lon="3.02865">
        <ele>825.9</ele>
        <time>2026-04-30T11:09:09.999Z</time>
      </trkpt>
      <trkpt lat="43.97857" lon="3.02865">
        <ele>826.1</ele>
        <time>2026-04-30T11:09:10.999Z</time>
      </trkpt>
      <trkpt lat="43.97857" lon="3.02865">
        <ele>826.3</ele>
        <time>2026-04-30T11:09:11.999Z</time>
      </trkpt>
      <trkpt lat="43.97857" lon="3.02865">
        <ele>826.3</ele>
        <time>2026-04-30T11:09:12.999Z</time>
      </trkpt>
      <trkpt lat="43.97857" lon="3.02865">
        <ele>826.4</ele>
        <time>2026-04-30T11:09:13.999Z</time>
      </trkpt>
      <trkpt lat="43.97857" lon="3.02865">
        <ele>826.6</ele>
        <time>2026-04-30T11:09:14.999Z</time>
      </trkpt>
      <trkpt lat="43.97857" lon="3.02865">
        <ele>826.8</ele>
        <time>2026-04-30T11:09:15.999Z</time>
      </trkpt>
      <trkpt lat="43.97857" lon="3.02865">
        <ele>826.8</ele>
        <time>2026-04-30T11:09:16.999Z</time>
      </trkpt>
      <trkpt lat="43.97857" lon="3.02865">
        <ele>826.8</ele>
        <time>2026-04-30T11:09:17.999Z</time>
      </trkpt>
      <trkpt lat="43.97857" lon="3.02865">
        <ele>826.8</ele>
        <time>2026-04-30T11:09:18.999Z</time>
      </trkpt>
      <trkpt lat="43.97857" lon="3.02865">
        <ele>826.7</ele>
        <time>2026-04-30T11:09:19.999Z</time>
      </trkpt>
      <trkpt lat="43.97857" lon="3.02865">
        <ele>826.5</ele>
        <time>2026-04-30T11:09:20.999Z</time>
      </trkpt>
      <trkpt lat="43.97856" lon="3.02865">
        <ele>826.6</ele>
        <time>2026-04-30T11:09:21.999Z</time>
      </trkpt>
      <trkpt lat="43.97856" lon="3.02865">
        <ele>826.5</ele>
        <time>2026-04-30T11:09:22.999Z</time>
      </trkpt>
      <trkpt lat="43.97856" lon="3.02865">
        <ele>826.5</ele>
        <time>2026-04-30T11:09:23.999Z</time>
      </trkpt>
      <trkpt lat="43.97856" lon="3.02865">
        <ele>826.6</ele>
        <time>2026-04-30T11:09:24.999Z</time>
      </trkpt>
      <trkpt lat="43.97856" lon="3.02865">
        <ele>826.7</ele>
        <time>2026-04-30T11:09:25.999Z</time>
      </trkpt>
      <trkpt lat="43.97857" lon="3.02865">
        <ele>826.6</ele>
        <time>2026-04-30T11:09:26.999Z</time>
      </trkpt>
      <trkpt lat="43.97857" lon="3.02865">
        <ele>826.7</ele>
        <time>2026-04-30T11:09:27.999Z</time>
      </trkpt>
      <trkpt lat="43.97857" lon="3.02865">
        <ele>826.8</ele>
        <time>2026-04-30T11:09:28.999Z</time>
      </trkpt>
      <trkpt lat="43.97857" lon="3.02865">
        <ele>826.6</ele>
        <time>2026-04-30T11:09:29.999Z</time>
      </trkpt>
      <trkpt lat="43.97857" lon="3.02865">
        <ele>826.6</ele>
        <time>2026-04-30T11:09:30.999Z</time>
      </trkpt>
      <trkpt lat="43.97857" lon="3.02865">
        <ele>826.6</ele>
        <time>2026-04-30T11:09:31.999Z</time>
      </trkpt>
      <trkpt lat="43.97857" lon="3.02865">
        <ele>826.8</ele>
        <time>2026-04-30T11:09:32.999Z</time>
      </trkpt>
      <trkpt lat="43.97857" lon="3.02865">
        <ele>827</ele>
        <time>2026-04-30T11:09:33.999Z</time>
      </trkpt>
      <trkpt lat="43.97857" lon="3.02865">
        <ele>827.2</ele>
        <time>2026-04-30T11:09:34.999Z</time>
      </trkpt>
      <trkpt lat="43.97857" lon="3.02865">
        <ele>827.7</ele>
        <time>2026-04-30T11:09:35.999Z</time>
      </trkpt>
      <trkpt lat="43.97857" lon="3.02866">
        <ele>827.9</ele>
        <time>2026-04-30T11:09:36.999Z</time>
      </trkpt>
      <trkpt lat="43.97856" lon="3.02866">
        <ele>827.9</ele>
        <time>2026-04-30T11:09:37.999Z</time>
      </trkpt>
      <trkpt lat="43.97856" lon="3.02866">
        <ele>827.8</ele>
        <time>2026-04-30T11:09:38.999Z</time>
      </trkpt>
      <trkpt lat="43.97856" lon="3.02866">
        <ele>827.6</ele>
        <time>2026-04-30T11:09:39.999Z</time>
      </trkpt>
      <trkpt lat="43.97856" lon="3.02866">
        <ele>827.5</ele>
        <time>2026-04-30T11:09:40.999Z</time>
      </trkpt>
      <trkpt lat="43.97856" lon="3.02866">
        <ele>827.8</ele>
        <time>2026-04-30T11:09:41.999Z</time>
      </trkpt>
      <trkpt lat="43.97856" lon="3.02866">
        <ele>827.9</ele>
        <time>2026-04-30T11:09:42.999Z</time>
      </trkpt>
      <trkpt lat="43.97856" lon="3.02866">
        <ele>827.7</ele>
        <time>2026-04-30T11:09:43.999Z</time>
      </trkpt>
      <trkpt lat="43.97856" lon="3.02866">
        <ele>827.6</ele>
        <time>2026-04-30T11:09:44.999Z</time>
      </trkpt>
      <trkpt lat="43.97856" lon="3.02866">
        <ele>827.4</ele>
        <time>2026-04-30T11:09:45.999Z</time>
      </trkpt>
      <trkpt lat="43.97856" lon="3.02866">
        <ele>827.4</ele>
        <time>2026-04-30T11:09:46.999Z</time>
      </trkpt>
      <trkpt lat="43.97856" lon="3.02866">
        <ele>827.4</ele>
        <time>2026-04-30T11:09:47.999Z</time>
      </trkpt>
      <trkpt lat="43.97856" lon="3.02866">
        <ele>827.6</ele>
        <time>2026-04-30T11:09:48.999Z</time>
      </trkpt>
      <trkpt lat="43.97856" lon="3.02866">
        <ele>827.7</ele>
        <time>2026-04-30T11:09:49.999Z</time>
      </trkpt>
      <trkpt lat="43.97856" lon="3.02866">
        <ele>827.9</ele>
        <time>2026-04-30T11:09:50.999Z</time>
      </trkpt>
      <trkpt lat="43.97856" lon="3.02866">
        <ele>828.2</ele>
        <time>2026-04-30T11:09:51.999Z</time>
      </trkpt>
      <trkpt lat="43.97856" lon="3.02866">
        <ele>828.4</ele>
        <time>2026-04-30T11:09:52.999Z</time>
      </trkpt>
      <trkpt lat="43.97856" lon="3.02866">
        <ele>828.7</ele>
        <time>2026-04-30T11:09:53.999Z</time>
      </trkpt>
      <trkpt lat="43.97856" lon="3.02866">
        <ele>828.9</ele>
        <time>2026-04-30T11:09:54.999Z</time>
      </trkpt>
      <trkpt lat="43.97856" lon="3.02866">
        <ele>828.9</ele>
        <time>2026-04-30T11:09:55.999Z</time>
      </trkpt>
      <trkpt lat="43.97856" lon="3.02866">
        <ele>828.8</ele>
        <time>2026-04-30T11:09:56.999Z</time>
      </trkpt>
      <trkpt lat="43.97856" lon="3.02866">
        <ele>828.5</ele>
        <time>2026-04-30T11:09:57.999Z</time>
      </trkpt>
      <trkpt lat="43.97856" lon="3.02866">
        <ele>828.3</ele>
        <time>2026-04-30T11:09:58.999Z</time>
      </trkpt>
      <trkpt lat="43.97856" lon="3.02866">
        <ele>828.1</ele>
        <time>2026-04-30T11:09:59.999Z</time>
      </trkpt>
      <trkpt lat="43.97856" lon="3.02867">
        <ele>828.2</ele>
        <time>2026-04-30T11:10:00.999Z</time>
      </trkpt>
      <trkpt lat="43.97856" lon="3.02867">
        <ele>828.2</ele>
        <time>2026-04-30T11:10:01.999Z</time>
      </trkpt>
      <trkpt lat="43.97856" lon="3.02867">
        <ele>828.1</ele>
        <time>2026-04-30T11:10:02.999Z</time>
      </trkpt>
      <trkpt lat="43.97856" lon="3.02867">
        <ele>828.1</ele>
        <time>2026-04-30T11:10:03.999Z</time>
      </trkpt>
      <trkpt lat="43.97856" lon="3.02867">
        <ele>828.1</ele>
        <time>2026-04-30T11:10:04.999Z</time>
      </trkpt>
      <trkpt lat="43.97856" lon="3.02867">
        <ele>827.8</ele>
        <time>2026-04-30T11:10:05.999Z</time>
      </trkpt>
      <trkpt lat="43.97856" lon="3.02867">
        <ele>827.6</ele>
        <time>2026-04-30T11:10:06.999Z</time>
      </trkpt>
      <trkpt lat="43.97856" lon="3.02867">
        <ele>827.4</ele>
        <time>2026-04-30T11:10:07.999Z</time>
      </trkpt>
      <trkpt lat="43.97856" lon="3.02867">
        <ele>827.4</ele>
        <time>2026-04-30T11:10:08.999Z</time>
      </trkpt>
      <trkpt lat="43.97856" lon="3.02867">
        <ele>827.3</ele>
        <time>2026-04-30T11:10:09.999Z</time>
      </trkpt>
      <trkpt lat="43.97856" lon="3.02867">
        <ele>827.2</ele>
        <time>2026-04-30T11:10:10.999Z</time>
      </trkpt>
      <trkpt lat="43.97856" lon="3.02867">
        <ele>827.1</ele>
        <time>2026-04-30T11:10:11.999Z</time>
      </trkpt>
      <trkpt lat="43.97856" lon="3.02867">
        <ele>827.1</ele>
        <time>2026-04-30T11:10:12.999Z</time>
      </trkpt>
      <trkpt lat="43.97856" lon="3.02867">
        <ele>827</ele>
        <time>2026-04-30T11:10:13.999Z</time>
      </trkpt>
      <trkpt lat="43.97856" lon="3.02867">
        <ele>827</ele>
        <time>2026-04-30T11:10:14.999Z</time>
      </trkpt>
      <trkpt lat="43.97856" lon="3.02867">
        <ele>827.1</ele>
        <time>2026-04-30T11:10:15.999Z</time>
      </trkpt>
      <trkpt lat="43.97856" lon="3.02867">
        <ele>827.2</ele>
        <time>2026-04-30T11:10:16.999Z</time>
      </trkpt>
      <trkpt lat="43.97856" lon="3.02867">
        <ele>827.1</ele>
        <time>2026-04-30T11:10:17.999Z</time>
      </trkpt>
      <trkpt lat="43.97856" lon="3.02867">
        <ele>827.2</ele>
        <time>2026-04-30T11:10:18.999Z</time>
      </trkpt>
      <trkpt lat="43.97856" lon="3.02867">
        <ele>827.3</ele>
        <time>2026-04-30T11:10:19.999Z</time>
      </trkpt>
      <trkpt lat="43.97856" lon="3.02867">
        <ele>827.4</ele>
        <time>2026-04-30T11:10:20.999Z</time>
      </trkpt>
      <trkpt lat="43.97856" lon="3.02867">
        <ele>827.6</ele>
        <time>2026-04-30T11:10:21.999Z</time>
      </trkpt>
      <trkpt lat="43.97856" lon="3.02867">
        <ele>827.5</ele>
        <time>2026-04-30T11:10:22.999Z</time>
      </trkpt>
      <trkpt lat="43.97856" lon="3.02867">
        <ele>827.5</ele>
        <time>2026-04-30T11:10:23.999Z</time>
      </trkpt>
      <trkpt lat="43.97857" lon="3.02867">
        <ele>827.7</ele>
        <time>2026-04-30T11:10:24.999Z</time>
      </trkpt>
      <trkpt lat="43.97857" lon="3.02867">
        <ele>828</ele>
        <time>2026-04-30T11:10:25.999Z</time>
      </trkpt>
      <trkpt lat="43.97857" lon="3.02867">
        <ele>828.3</ele>
        <time>2026-04-30T11:10:26.999Z</time>
      </trkpt>
      <trkpt lat="43.97857" lon="3.02867">
        <ele>828.3</ele>
        <time>2026-04-30T11:10:27.999Z</time>
      </trkpt>
      <trkpt lat="43.97857" lon="3.02867">
        <ele>828.3</ele>
        <time>2026-04-30T11:10:28.999Z</time>
      </trkpt>
      <trkpt lat="43.97857" lon="3.02867">
        <ele>828.3</ele>
        <time>2026-04-30T11:10:29.999Z</time>
      </trkpt>
      <trkpt lat="43.97857" lon="3.02867">
        <ele>828.1</ele>
        <time>2026-04-30T11:10:30.999Z</time>
      </trkpt>
      <trkpt lat="43.97857" lon="3.02867">
        <ele>827.9</ele>
        <time>2026-04-30T11:10:31.999Z</time>
      </trkpt>
      <trkpt lat="43.97857" lon="3.02867">
        <ele>827.9</ele>
        <time>2026-04-30T11:10:32.999Z</time>
      </trkpt>
      <trkpt lat="43.97857" lon="3.02867">
        <ele>828.1</ele>
        <time>2026-04-30T11:10:33.999Z</time>
      </trkpt>
      <trkpt lat="43.97857" lon="3.02867">
        <ele>828.2</ele>
        <time>2026-04-30T11:10:34.999Z</time>
      </trkpt>
      <trkpt lat="43.97857" lon="3.02867">
        <ele>828.3</ele>
        <time>2026-04-30T11:10:35.999Z</time>
      </trkpt>
      <trkpt lat="43.97857" lon="3.02867">
        <ele>828.5</ele>
        <time>2026-04-30T11:10:36.999Z</time>
      </trkpt>
      <trkpt lat="43.97857" lon="3.02867">
        <ele>828.6</ele>
        <time>2026-04-30T11:10:37.999Z</time>
      </trkpt>
      <trkpt lat="43.97857" lon="3.02867">
        <ele>828.3</ele>
        <time>2026-04-30T11:10:38.999Z</time>
      </trkpt>
      <trkpt lat="43.97857" lon="3.02867">
        <ele>827.8</ele>
        <time>2026-04-30T11:10:39.999Z</time>
      </trkpt>
      <trkpt lat="43.97857" lon="3.02867">
        <ele>827.4</ele>
        <time>2026-04-30T11:10:40.999Z</time>
      </trkpt>
      <trkpt lat="43.97857" lon="3.02866">
        <ele>827.2</ele>
        <time>2026-04-30T11:10:41.999Z</time>
      </trkpt>
      <trkpt lat="43.97857" lon="3.02866">
        <ele>827.1</ele>
        <time>2026-04-30T11:10:42.999Z</time>
      </trkpt>
      <trkpt lat="43.97857" lon="3.02866">
        <ele>827</ele>
        <time>2026-04-30T11:10:43.999Z</time>
      </trkpt>
      <trkpt lat="43.97857" lon="3.02866">
        <ele>827</ele>
        <time>2026-04-30T11:10:44.999Z</time>
      </trkpt>
      <trkpt lat="43.97857" lon="3.02866">
        <ele>827.1</ele>
        <time>2026-04-30T11:10:45.999Z</time>
      </trkpt>
      <trkpt lat="43.97857" lon="3.02866">
        <ele>827.1</ele>
        <time>2026-04-30T11:10:46.999Z</time>
      </trkpt>
      <trkpt lat="43.97857" lon="3.02866">
        <ele>827.1</ele>
        <time>2026-04-30T11:10:47.999Z</time>
      </trkpt>
      <trkpt lat="43.97857" lon="3.02866">
        <ele>827.1</ele>
        <time>2026-04-30T11:10:48.999Z</time>
      </trkpt>
      <trkpt lat="43.97857" lon="3.02866">
        <ele>827.2</ele>
        <time>2026-04-30T11:10:49.999Z</time>
      </trkpt>
      <trkpt lat="43.97857" lon="3.02866">
        <ele>827.2</ele>
        <time>2026-04-30T11:10:50.999Z</time>
      </trkpt>
      <trkpt lat="43.97857" lon="3.02866">
        <ele>827.3</ele>
        <time>2026-04-30T11:10:51.999Z</time>
      </trkpt>
      <trkpt lat="43.97857" lon="3.02866">
        <ele>827.2</ele>
        <time>2026-04-30T11:10:52.999Z</time>
      </trkpt>
      <trkpt lat="43.97857" lon="3.02866">
        <ele>827.2</ele>
        <time>2026-04-30T11:10:53.999Z</time>
      </trkpt>
      <trkpt lat="43.97857" lon="3.02866">
        <ele>827.4</ele>
        <time>2026-04-30T11:10:54.999Z</time>
      </trkpt>
      <trkpt lat="43.97857" lon="3.02866">
        <ele>827.7</ele>
        <time>2026-04-30T11:10:55.999Z</time>
      </trkpt>
      <trkpt lat="43.97857" lon="3.02866">
        <ele>827.8</ele>
        <time>2026-04-30T11:10:56.999Z</time>
      </trkpt>
      <trkpt lat="43.97857" lon="3.02866">
        <ele>827.8</ele>
        <time>2026-04-30T11:10:57.999Z</time>
      </trkpt>
      <trkpt lat="43.97857" lon="3.02866">
        <ele>827.7</ele>
        <time>2026-04-30T11:10:58.999Z</time>
      </trkpt>
      <trkpt lat="43.97857" lon="3.02866">
        <ele>827.8</ele>
        <time>2026-04-30T11:10:59.999Z</time>
      </trkpt>
      <trkpt lat="43.97857" lon="3.02866">
        <ele>827.8</ele>
        <time>2026-04-30T11:11:00.999Z</time>
      </trkpt>
      <trkpt lat="43.97857" lon="3.02866">
        <ele>827.6</ele>
        <time>2026-04-30T11:11:01.999Z</time>
      </trkpt>
      <trkpt lat="43.97857" lon="3.02866">
        <ele>827.5</ele>
        <time>2026-04-30T11:11:02.999Z</time>
      </trkpt>
      <trkpt lat="43.97857" lon="3.02866">
        <ele>827.4</ele>
        <time>2026-04-30T11:11:03.999Z</time>
      </trkpt>
      <trkpt lat="43.97857" lon="3.02866">
        <ele>827.4</ele>
        <time>2026-04-30T11:11:04.999Z</time>
      </trkpt>
      <trkpt lat="43.97857" lon="3.02866">
        <ele>827.1</ele>
        <time>2026-04-30T11:11:05.999Z</time>
      </trkpt>
      <trkpt lat="43.97857" lon="3.02866">
        <ele>827</ele>
        <time>2026-04-30T11:11:06.999Z</time>
      </trkpt>
      <trkpt lat="43.97857" lon="3.02866">
        <ele>827</ele>
        <time>2026-04-30T11:11:07.999Z</time>
      </trkpt>
      <trkpt lat="43.97857" lon="3.02866">
        <ele>827</ele>
        <time>2026-04-30T11:11:08.999Z</time>
      </trkpt>
      <trkpt lat="43.97857" lon="3.02866">
        <ele>826.8</ele>
        <time>2026-04-30T11:11:09.999Z</time>
      </trkpt>
      <trkpt lat="43.97857" lon="3.02866">
        <ele>826.7</ele>
        <time>2026-04-30T11:11:10.999Z</time>
      </trkpt>
      <trkpt lat="43.97857" lon="3.02866">
        <ele>826.5</ele>
        <time>2026-04-30T11:11:11.999Z</time>
      </trkpt>
      <trkpt lat="43.97857" lon="3.02866">
        <ele>826.5</ele>
        <time>2026-04-30T11:11:12.999Z</time>
      </trkpt>
      <trkpt lat="43.97857" lon="3.02866">
        <ele>826.7</ele>
        <time>2026-04-30T11:11:13.999Z</time>
      </trkpt>
      <trkpt lat="43.97857" lon="3.02866">
        <ele>827.2</ele>
        <time>2026-04-30T11:11:14.999Z</time>
      </trkpt>
      <trkpt lat="43.97856" lon="3.02866">
        <ele>827.5</ele>
        <time>2026-04-30T11:11:15.999Z</time>
      </trkpt>
      <trkpt lat="43.97856" lon="3.02866">
        <ele>827.7</ele>
        <time>2026-04-30T11:11:16.999Z</time>
      </trkpt>
      <trkpt lat="43.97856" lon="3.02866">
        <ele>827.7</ele>
        <time>2026-04-30T11:11:17.999Z</time>
      </trkpt>
      <trkpt lat="43.97856" lon="3.02866">
        <ele>827.5</ele>
        <time>2026-04-30T11:11:18.999Z</time>
      </trkpt>
      <trkpt lat="43.97856" lon="3.02865">
        <ele>827.3</ele>
        <time>2026-04-30T11:11:19.999Z</time>
      </trkpt>
      <trkpt lat="43.97856" lon="3.02865">
        <ele>827.5</ele>
        <time>2026-04-30T11:11:20.999Z</time>
      </trkpt>
      <trkpt lat="43.97856" lon="3.02865">
        <ele>827.5</ele>
        <time>2026-04-30T11:11:21.999Z</time>
      </trkpt>
      <trkpt lat="43.97856" lon="3.02865">
        <ele>827.4</ele>
        <time>2026-04-30T11:11:22.999Z</time>
      </trkpt>
      <trkpt lat="43.97856" lon="3.02865">
        <ele>827.5</ele>
        <time>2026-04-30T11:11:23.999Z</time>
      </trkpt>
      <trkpt lat="43.97856" lon="3.02865">
        <ele>827.5</ele>
        <time>2026-04-30T11:11:24.999Z</time>
      </trkpt>
      <trkpt lat="43.97856" lon="3.02865">
        <ele>827.6</ele>
        <time>2026-04-30T11:11:25.999Z</time>
      </trkpt>
      <trkpt lat="43.97856" lon="3.02865">
        <ele>827.4</ele>
        <time>2026-04-30T11:11:26.999Z</time>
      </trkpt>
      <trkpt lat="43.97856" lon="3.02865">
        <ele>827.4</ele>
        <time>2026-04-30T11:11:27.999Z</time>
      </trkpt>
      <trkpt lat="43.97856" lon="3.02865">
        <ele>827.3</ele>
        <time>2026-04-30T11:11:28.999Z</time>
      </trkpt>
      <trkpt lat="43.97856" lon="3.02865">
        <ele>827.3</ele>
        <time>2026-04-30T11:11:29.999Z</time>
      </trkpt>
      <trkpt lat="43.97856" lon="3.02865">
        <ele>827.3</ele>
        <time>2026-04-30T11:11:30.999Z</time>
      </trkpt>
      <trkpt lat="43.97856" lon="3.02865">
        <ele>827</ele>
        <time>2026-04-30T11:11:31.999Z</time>
      </trkpt>
      <trkpt lat="43.97856" lon="3.02865">
        <ele>826.7</ele>
        <time>2026-04-30T11:11:32.999Z</time>
      </trkpt>
      <trkpt lat="43.97856" lon="3.02865">
        <ele>826.5</ele>
        <time>2026-04-30T11:11:33.999Z</time>
      </trkpt>
      <trkpt lat="43.97856" lon="3.02865">
        <ele>826.5</ele>
        <time>2026-04-30T11:11:34.999Z</time>
      </trkpt>
      <trkpt lat="43.97856" lon="3.02866">
        <ele>826.5</ele>
        <time>2026-04-30T11:11:35.999Z</time>
      </trkpt>
      <trkpt lat="43.97856" lon="3.02866">
        <ele>826.8</ele>
        <time>2026-04-30T11:11:36.999Z</time>
      </trkpt>
      <trkpt lat="43.97856" lon="3.02866">
        <ele>827.1</ele>
        <time>2026-04-30T11:11:37.999Z</time>
      </trkpt>
      <trkpt lat="43.97856" lon="3.02866">
        <ele>827.4</ele>
        <time>2026-04-30T11:11:38.999Z</time>
      </trkpt>
      <trkpt lat="43.97856" lon="3.02866">
        <ele>827.5</ele>
        <time>2026-04-30T11:11:39.999Z</time>
      </trkpt>
      <trkpt lat="43.97856" lon="3.02866">
        <ele>827.6</ele>
        <time>2026-04-30T11:11:40.999Z</time>
      </trkpt>
      <trkpt lat="43.97856" lon="3.02866">
        <ele>827.9</ele>
        <time>2026-04-30T11:11:41.999Z</time>
      </trkpt>
      <trkpt lat="43.97856" lon="3.02866">
        <ele>828</ele>
        <time>2026-04-30T11:11:42.999Z</time>
      </trkpt>
      <trkpt lat="43.97856" lon="3.02866">
        <ele>827.8</ele>
        <time>2026-04-30T11:11:43.999Z</time>
      </trkpt>
      <trkpt lat="43.97856" lon="3.02866">
        <ele>827.5</ele>
        <time>2026-04-30T11:11:44.999Z</time>
      </trkpt>
      <trkpt lat="43.97856" lon="3.02866">
        <ele>827.2</ele>
        <time>2026-04-30T11:11:45.999Z</time>
      </trkpt>
      <trkpt lat="43.97856" lon="3.02866">
        <ele>827.1</ele>
        <time>2026-04-30T11:11:46.999Z</time>
      </trkpt>
      <trkpt lat="43.97856" lon="3.02866">
        <ele>826.9</ele>
        <time>2026-04-30T11:11:47.999Z</time>
      </trkpt>
      <trkpt lat="43.97856" lon="3.02866">
        <ele>826.9</ele>
        <time>2026-04-30T11:11:48.999Z</time>
      </trkpt>
      <trkpt lat="43.97856" lon="3.02866">
        <ele>826.7</ele>
        <time>2026-04-30T11:11:49.999Z</time>
      </trkpt>
      <trkpt lat="43.97856" lon="3.02866">
        <ele>826.7</ele>
        <time>2026-04-30T11:11:50.999Z</time>
      </trkpt>
      <trkpt lat="43.97856" lon="3.02866">
        <ele>826.7</ele>
        <time>2026-04-30T11:11:51.999Z</time>
      </trkpt>
      <trkpt lat="43.97856" lon="3.02866">
        <ele>826.6</ele>
        <time>2026-04-30T11:11:52.999Z</time>
      </trkpt>
      <trkpt lat="43.97856" lon="3.02866">
        <ele>826.6</ele>
        <time>2026-04-30T11:11:53.999Z</time>
      </trkpt>
      <trkpt lat="43.97856" lon="3.02866">
        <ele>826.5</ele>
        <time>2026-04-30T11:11:54.999Z</time>
      </trkpt>
      <trkpt lat="43.97857" lon="3.02866">
        <ele>826.6</ele>
        <time>2026-04-30T11:11:55.999Z</time>
      </trkpt>
      <trkpt lat="43.97857" lon="3.02866">
        <ele>826.7</ele>
        <time>2026-04-30T11:11:56.999Z</time>
      </trkpt>
      <trkpt lat="43.97857" lon="3.02866">
        <ele>826.8</ele>
        <time>2026-04-30T11:11:57.999Z</time>
      </trkpt>
      <trkpt lat="43.97857" lon="3.02866">
        <ele>826.8</ele>
        <time>2026-04-30T11:11:58.999Z</time>
      </trkpt>
      <trkpt lat="43.97857" lon="3.02866">
        <ele>826.7</ele>
        <time>2026-04-30T11:11:59.999Z</time>
      </trkpt>
      <trkpt lat="43.97856" lon="3.02866">
        <ele>826.6</ele>
        <time>2026-04-30T11:12:00.999Z</time>
      </trkpt>
      <trkpt lat="43.97856" lon="3.02866">
        <ele>826.3</ele>
        <time>2026-04-30T11:12:01.999Z</time>
      </trkpt>
      <trkpt lat="43.97857" lon="3.02866">
        <ele>826.2</ele>
        <time>2026-04-30T11:12:02.999Z</time>
      </trkpt>
      <trkpt lat="43.97857" lon="3.02866">
        <ele>826.1</ele>
        <time>2026-04-30T11:12:03.999Z</time>
      </trkpt>
      <trkpt lat="43.97857" lon="3.02866">
        <ele>826</ele>
        <time>2026-04-30T11:12:04.999Z</time>
      </trkpt>
      <trkpt lat="43.97857" lon="3.02866">
        <ele>825.9</ele>
        <time>2026-04-30T11:12:05.999Z</time>
      </trkpt>
      <trkpt lat="43.97857" lon="3.02866">
        <ele>825.9</ele>
        <time>2026-04-30T11:12:06.999Z</time>
      </trkpt>
      <trkpt lat="43.97857" lon="3.02866">
        <ele>825.8</ele>
        <time>2026-04-30T11:12:07.999Z</time>
      </trkpt>
      <trkpt lat="43.97857" lon="3.02866">
        <ele>825.8</ele>
        <time>2026-04-30T11:12:08.999Z</time>
      </trkpt>
      <trkpt lat="43.97857" lon="3.02866">
        <ele>825.7</ele>
        <time>2026-04-30T11:12:09.999Z</time>
      </trkpt>
      <trkpt lat="43.97856" lon="3.02866">
        <ele>825.8</ele>
        <time>2026-04-30T11:12:10.999Z</time>
      </trkpt>
      <trkpt lat="43.97856" lon="3.02866">
        <ele>826</ele>
        <time>2026-04-30T11:12:11.999Z</time>
      </trkpt>
      <trkpt lat="43.97856" lon="3.02866">
        <ele>826.1</ele>
        <time>2026-04-30T11:12:12.999Z</time>
      </trkpt>
      <trkpt lat="43.97856" lon="3.02866">
        <ele>826</ele>
        <time>2026-04-30T11:12:13.999Z</time>
      </trkpt>
      <trkpt lat="43.97856" lon="3.02866">
        <ele>826.3</ele>
        <time>2026-04-30T11:12:14.999Z</time>
      </trkpt>
      <trkpt lat="43.97856" lon="3.02866">
        <ele>826.4</ele>
        <time>2026-04-30T11:12:15.999Z</time>
      </trkpt>
      <trkpt lat="43.97856" lon="3.02866">
        <ele>826.6</ele>
        <time>2026-04-30T11:12:16.999Z</time>
      </trkpt>
      <trkpt lat="43.97856" lon="3.02866">
        <ele>826.7</ele>
        <time>2026-04-30T11:12:17.999Z</time>
      </trkpt>
      <trkpt lat="43.97856" lon="3.02866">
        <ele>826.7</ele>
        <time>2026-04-30T11:12:18.999Z</time>
      </trkpt>
      <trkpt lat="43.97856" lon="3.02866">
        <ele>826.7</ele>
        <time>2026-04-30T11:12:19.999Z</time>
      </trkpt>
      <trkpt lat="43.97856" lon="3.02866">
        <ele>826.9</ele>
        <time>2026-04-30T11:12:20.999Z</time>
      </trkpt>
      <trkpt lat="43.97856" lon="3.02866">
        <ele>827</ele>
        <time>2026-04-30T11:12:21.999Z</time>
      </trkpt>
      <trkpt lat="43.97856" lon="3.02866">
        <ele>827.3</ele>
        <time>2026-04-30T11:12:22.999Z</time>
      </trkpt>
      <trkpt lat="43.97856" lon="3.02866">
        <ele>827.3</ele>
        <time>2026-04-30T11:12:23.999Z</time>
      </trkpt>
      <trkpt lat="43.97856" lon="3.02866">
        <ele>827.3</ele>
        <time>2026-04-30T11:12:24.999Z</time>
      </trkpt>
      <trkpt lat="43.97856" lon="3.02866">
        <ele>827.3</ele>
        <time>2026-04-30T11:12:25.999Z</time>
      </trkpt>
      <trkpt lat="43.97856" lon="3.02866">
        <ele>827.1</ele>
        <time>2026-04-30T11:12:26.999Z</time>
      </trkpt>
      <trkpt lat="43.97857" lon="3.02866">
        <ele>827</ele>
        <time>2026-04-30T11:12:27.999Z</time>
      </trkpt>
      <trkpt lat="43.97857" lon="3.02866">
        <ele>826.9</ele>
        <time>2026-04-30T11:12:28.999Z</time>
      </trkpt>
      <trkpt lat="43.97857" lon="3.02866">
        <ele>827.1</ele>
        <time>2026-04-30T11:12:29.999Z</time>
      </trkpt>
      <trkpt lat="43.97857" lon="3.02866">
        <ele>827.3</ele>
        <time>2026-04-30T11:12:30.999Z</time>
      </trkpt>
      <trkpt lat="43.97857" lon="3.02866">
        <ele>827.5</ele>
        <time>2026-04-30T11:12:31.999Z</time>
      </trkpt>
      <trkpt lat="43.97857" lon="3.02866">
        <ele>827.6</ele>
        <time>2026-04-30T11:12:32.999Z</time>
      </trkpt>
      <trkpt lat="43.97857" lon="3.02867">
        <ele>827.5</ele>
        <time>2026-04-30T11:12:33.999Z</time>
      </trkpt>
      <trkpt lat="43.97857" lon="3.02867">
        <ele>827.5</ele>
        <time>2026-04-30T11:12:34.999Z</time>
      </trkpt>
      <trkpt lat="43.97857" lon="3.02867">
        <ele>827.5</ele>
        <time>2026-04-30T11:12:35.999Z</time>
      </trkpt>
      <trkpt lat="43.97857" lon="3.02867">
        <ele>827.5</ele>
        <time>2026-04-30T11:12:36.999Z</time>
      </trkpt>
      <trkpt lat="43.97857" lon="3.02867">
        <ele>827.5</ele>
        <time>2026-04-30T11:12:37.999Z</time>
      </trkpt>
      <trkpt lat="43.97857" lon="3.02867">
        <ele>827.3</ele>
        <time>2026-04-30T11:12:38.999Z</time>
      </trkpt>
      <trkpt lat="43.97857" lon="3.02867">
        <ele>827.3</ele>
        <time>2026-04-30T11:12:39.999Z</time>
      </trkpt>
      <trkpt lat="43.97857" lon="3.02867">
        <ele>827.5</ele>
        <time>2026-04-30T11:12:40.999Z</time>
      </trkpt>
      <trkpt lat="43.97857" lon="3.02867">
        <ele>827.5</ele>
        <time>2026-04-30T11:12:41.999Z</time>
      </trkpt>
      <trkpt lat="43.97857" lon="3.02867">
        <ele>827.3</ele>
        <time>2026-04-30T11:12:42.999Z</time>
      </trkpt>
      <trkpt lat="43.97857" lon="3.02867">
        <ele>827.3</ele>
        <time>2026-04-30T11:12:43.999Z</time>
      </trkpt>
      <trkpt lat="43.97857" lon="3.02867">
        <ele>827.2</ele>
        <time>2026-04-30T11:12:44.999Z</time>
      </trkpt>
      <trkpt lat="43.97857" lon="3.02867">
        <ele>827.3</ele>
        <time>2026-04-30T11:12:45.999Z</time>
      </trkpt>
      <trkpt lat="43.97857" lon="3.02867">
        <ele>827.5</ele>
        <time>2026-04-30T11:12:46.999Z</time>
      </trkpt>
      <trkpt lat="43.97857" lon="3.02867">
        <ele>827.6</ele>
        <time>2026-04-30T11:12:47.999Z</time>
      </trkpt>
      <trkpt lat="43.97857" lon="3.02867">
        <ele>827.6</ele>
        <time>2026-04-30T11:12:48.999Z</time>
      </trkpt>
      <trkpt lat="43.97857" lon="3.02867">
        <ele>827.6</ele>
        <time>2026-04-30T11:12:49.999Z</time>
      </trkpt>
      <trkpt lat="43.97857" lon="3.02867">
        <ele>827.2</ele>
        <time>2026-04-30T11:12:50.999Z</time>
      </trkpt>
      <trkpt lat="43.97857" lon="3.02867">
        <ele>826.9</ele>
        <time>2026-04-30T11:12:51.999Z</time>
      </trkpt>
      <trkpt lat="43.97857" lon="3.02867">
        <ele>826.5</ele>
        <time>2026-04-30T11:12:52.999Z</time>
      </trkpt>
      <trkpt lat="43.97857" lon="3.02867">
        <ele>826.1</ele>
        <time>2026-04-30T11:12:53.999Z</time>
      </trkpt>
      <trkpt lat="43.97857" lon="3.02867">
        <ele>826</ele>
        <time>2026-04-30T11:12:54.999Z</time>
      </trkpt>
      <trkpt lat="43.97857" lon="3.02867">
        <ele>825.9</ele>
        <time>2026-04-30T11:12:55.999Z</time>
      </trkpt>
      <trkpt lat="43.97857" lon="3.02867">
        <ele>826</ele>
        <time>2026-04-30T11:12:56.999Z</time>
      </trkpt>
      <trkpt lat="43.97857" lon="3.02867">
        <ele>826.1</ele>
        <time>2026-04-30T11:12:57.999Z</time>
      </trkpt>
      <trkpt lat="43.97857" lon="3.02867">
        <ele>826</ele>
        <time>2026-04-30T11:12:58.999Z</time>
      </trkpt>
      <trkpt lat="43.97857" lon="3.02867">
        <ele>825.9</ele>
        <time>2026-04-30T11:12:59.999Z</time>
      </trkpt>
      <trkpt lat="43.97857" lon="3.02867">
        <ele>825.9</ele>
        <time>2026-04-30T11:13:00.999Z</time>
      </trkpt>
      <trkpt lat="43.97857" lon="3.02867">
        <ele>825.8</ele>
        <time>2026-04-30T11:13:01.999Z</time>
      </trkpt>
      <trkpt lat="43.97857" lon="3.02867">
        <ele>825.6</ele>
        <time>2026-04-30T11:13:02.999Z</time>
      </trkpt>
      <trkpt lat="43.97857" lon="3.02867">
        <ele>825.6</ele>
        <time>2026-04-30T11:13:03.999Z</time>
      </trkpt>
      <trkpt lat="43.97857" lon="3.02867">
        <ele>825.5</ele>
        <time>2026-04-30T11:13:04.999Z</time>
      </trkpt>
      <trkpt lat="43.97857" lon="3.02867">
        <ele>825.4</ele>
        <time>2026-04-30T11:13:05.999Z</time>
      </trkpt>
      <trkpt lat="43.97857" lon="3.02867">
        <ele>825.3</ele>
        <time>2026-04-30T11:13:06.999Z</time>
      </trkpt>
      <trkpt lat="43.97857" lon="3.02867">
        <ele>825.4</ele>
        <time>2026-04-30T11:13:07.999Z</time>
      </trkpt>
      <trkpt lat="43.97857" lon="3.02866">
        <ele>825.5</ele>
        <time>2026-04-30T11:13:08.999Z</time>
      </trkpt>
      <trkpt lat="43.97857" lon="3.02866">
        <ele>825.6</ele>
        <time>2026-04-30T11:13:09.999Z</time>
      </trkpt>
      <trkpt lat="43.97857" lon="3.02866">
        <ele>825.5</ele>
        <time>2026-04-30T11:13:10.999Z</time>
      </trkpt>
      <trkpt lat="43.97857" lon="3.02866">
        <ele>825.4</ele>
        <time>2026-04-30T11:13:11.999Z</time>
      </trkpt>
      <trkpt lat="43.97857" lon="3.02866">
        <ele>825.5</ele>
        <time>2026-04-30T11:13:12.999Z</time>
      </trkpt>
      <trkpt lat="43.97857" lon="3.02866">
        <ele>825.7</ele>
        <time>2026-04-30T11:13:13.999Z</time>
      </trkpt>
      <trkpt lat="43.97857" lon="3.02866">
        <ele>826</ele>
        <time>2026-04-30T11:13:14.999Z</time>
      </trkpt>
      <trkpt lat="43.97857" lon="3.02866">
        <ele>826</ele>
        <time>2026-04-30T11:13:15.999Z</time>
      </trkpt>
      <trkpt lat="43.97857" lon="3.02866">
        <ele>825.9</ele>
        <time>2026-04-30T11:13:16.999Z</time>
      </trkpt>
      <trkpt lat="43.97857" lon="3.02866">
        <ele>825.8</ele>
        <time>2026-04-30T11:13:17.999Z</time>
      </trkpt>
      <trkpt lat="43.97857" lon="3.02866">
        <ele>825.8</ele>
        <time>2026-04-30T11:13:18.999Z</time>
      </trkpt>
      <trkpt lat="43.97856" lon="3.02866">
        <ele>825.8</ele>
        <time>2026-04-30T11:13:19.999Z</time>
      </trkpt>
      <trkpt lat="43.97856" lon="3.02866">
        <ele>825.8</ele>
        <time>2026-04-30T11:13:20.999Z</time>
      </trkpt>
      <trkpt lat="43.97856" lon="3.02866">
        <ele>825.6</ele>
        <time>2026-04-30T11:13:21.999Z</time>
      </trkpt>
      <trkpt lat="43.97855" lon="3.02866">
        <ele>825.4</ele>
        <time>2026-04-30T11:13:22.999Z</time>
      </trkpt>
      <trkpt lat="43.97855" lon="3.02866">
        <ele>825.5</ele>
        <time>2026-04-30T11:13:23.999Z</time>
      </trkpt>
      <trkpt lat="43.97855" lon="3.02866">
        <ele>825.5</ele>
        <time>2026-04-30T11:13:24.999Z</time>
      </trkpt>
      <trkpt lat="43.97854" lon="3.02866">
        <ele>825.2</ele>
        <time>2026-04-30T11:13:25.999Z</time>
      </trkpt>
      <trkpt lat="43.97854" lon="3.02866">
        <ele>824.9</ele>
        <time>2026-04-30T11:13:26.999Z</time>
      </trkpt>
      <trkpt lat="43.97854" lon="3.02866">
        <ele>824.8</ele>
        <time>2026-04-30T11:13:27.999Z</time>
      </trkpt>
      <trkpt lat="43.97854" lon="3.02866">
        <ele>825</ele>
        <time>2026-04-30T11:13:28.999Z</time>
      </trkpt>
      <trkpt lat="43.97854" lon="3.02866">
        <ele>825</ele>
        <time>2026-04-30T11:13:29.999Z</time>
      </trkpt>
      <trkpt lat="43.97854" lon="3.02866">
        <ele>825</ele>
        <time>2026-04-30T11:13:30.999Z</time>
      </trkpt>
      <trkpt lat="43.97854" lon="3.02867">
        <ele>825</ele>
        <time>2026-04-30T11:13:31.999Z</time>
      </trkpt>
      <trkpt lat="43.97854" lon="3.02867">
        <ele>825</ele>
        <time>2026-04-30T11:13:32.999Z</time>
      </trkpt>
      <trkpt lat="43.97855" lon="3.02867">
        <ele>824.9</ele>
        <time>2026-04-30T11:13:33.999Z</time>
      </trkpt>
      <trkpt lat="43.97855" lon="3.02866">
        <ele>824.9</ele>
        <time>2026-04-30T11:13:34.999Z</time>
      </trkpt>
      <trkpt lat="43.97855" lon="3.02866">
        <ele>824.8</ele>
        <time>2026-04-30T11:13:35.999Z</time>
      </trkpt>
      <trkpt lat="43.97855" lon="3.02866">
        <ele>824.6</ele>
        <time>2026-04-30T11:13:36.999Z</time>
      </trkpt>
      <trkpt lat="43.97855" lon="3.02866">
        <ele>824.7</ele>
        <time>2026-04-30T11:13:37.999Z</time>
      </trkpt>
      <trkpt lat="43.97855" lon="3.02866">
        <ele>824.9</ele>
        <time>2026-04-30T11:13:38.999Z</time>
      </trkpt>
      <trkpt lat="43.97855" lon="3.02866">
        <ele>824.9</ele>
        <time>2026-04-30T11:13:39.999Z</time>
      </trkpt>
      <trkpt lat="43.97855" lon="3.02866">
        <ele>824.8</ele>
        <time>2026-04-30T11:13:40.999Z</time>
      </trkpt>
      <trkpt lat="43.97855" lon="3.02866">
        <ele>824.7</ele>
        <time>2026-04-30T11:13:41.999Z</time>
      </trkpt>
      <trkpt lat="43.97855" lon="3.02866">
        <ele>824.6</ele>
        <time>2026-04-30T11:13:42.999Z</time>
      </trkpt>
      <trkpt lat="43.97855" lon="3.02866">
        <ele>824.7</ele>
        <time>2026-04-30T11:13:43.999Z</time>
      </trkpt>
      <trkpt lat="43.97855" lon="3.02865">
        <ele>824.7</ele>
        <time>2026-04-30T11:13:44.999Z</time>
      </trkpt>
      <trkpt lat="43.97855" lon="3.02865">
        <ele>824.7</ele>
        <time>2026-04-30T11:13:45.999Z</time>
      </trkpt>
      <trkpt lat="43.97855" lon="3.02865">
        <ele>825</ele>
        <time>2026-04-30T11:13:46.999Z</time>
      </trkpt>
      <trkpt lat="43.97855" lon="3.02866">
        <ele>825.1</ele>
        <time>2026-04-30T11:13:47.999Z</time>
      </trkpt>
      <trkpt lat="43.97855" lon="3.02865">
        <ele>825.3</ele>
        <time>2026-04-30T11:13:48.999Z</time>
      </trkpt>
      <trkpt lat="43.97855" lon="3.02865">
        <ele>825.6</ele>
        <time>2026-04-30T11:13:49.999Z</time>
      </trkpt>
      <trkpt lat="43.97855" lon="3.02865">
        <ele>826</ele>
        <time>2026-04-30T11:13:50.999Z</time>
      </trkpt>
      <trkpt lat="43.97855" lon="3.02865">
        <ele>826.1</ele>
        <time>2026-04-30T11:13:51.999Z</time>
      </trkpt>
      <trkpt lat="43.97855" lon="3.02865">
        <ele>826.3</ele>
        <time>2026-04-30T11:13:52.999Z</time>
      </trkpt>
      <trkpt lat="43.97855" lon="3.02865">
        <ele>826.3</ele>
        <time>2026-04-30T11:13:53.999Z</time>
      </trkpt>
      <trkpt lat="43.97855" lon="3.02865">
        <ele>826.2</ele>
        <time>2026-04-30T11:13:54.999Z</time>
      </trkpt>
      <trkpt lat="43.97855" lon="3.02866">
        <ele>826.3</ele>
        <time>2026-04-30T11:13:55.999Z</time>
      </trkpt>
      <trkpt lat="43.97855" lon="3.02866">
        <ele>826.3</ele>
        <time>2026-04-30T11:13:56.999Z</time>
      </trkpt>
      <trkpt lat="43.97855" lon="3.02866">
        <ele>826.3</ele>
        <time>2026-04-30T11:13:57.999Z</time>
      </trkpt>
      <trkpt lat="43.97855" lon="3.02866">
        <ele>826.4</ele>
        <time>2026-04-30T11:13:58.999Z</time>
      </trkpt>
      <trkpt lat="43.97856" lon="3.02866">
        <ele>826.6</ele>
        <time>2026-04-30T11:13:59.999Z</time>
      </trkpt>
      <trkpt lat="43.97856" lon="3.02866">
        <ele>826.8</ele>
        <time>2026-04-30T11:14:00.999Z</time>
      </trkpt>
      <trkpt lat="43.97856" lon="3.02866">
        <ele>826.8</ele>
        <time>2026-04-30T11:14:01.999Z</time>
      </trkpt>
      <trkpt lat="43.97856" lon="3.02866">
        <ele>826.9</ele>
        <time>2026-04-30T11:14:02.999Z</time>
      </trkpt>
      <trkpt lat="43.97856" lon="3.02866">
        <ele>827</ele>
        <time>2026-04-30T11:14:03.999Z</time>
      </trkpt>
      <trkpt lat="43.97856" lon="3.02866">
        <ele>827</ele>
        <time>2026-04-30T11:14:04.999Z</time>
      </trkpt>
      <trkpt lat="43.97856" lon="3.02866">
        <ele>827.2</ele>
        <time>2026-04-30T11:14:05.999Z</time>
      </trkpt>
      <trkpt lat="43.97856" lon="3.02866">
        <ele>827.6</ele>
        <time>2026-04-30T11:14:06.999Z</time>
      </trkpt>
      <trkpt lat="43.97856" lon="3.02866">
        <ele>827.5</ele>
        <time>2026-04-30T11:14:07.999Z</time>
      </trkpt>
      <trkpt lat="43.97856" lon="3.02866">
        <ele>827.5</ele>
        <time>2026-04-30T11:14:08.999Z</time>
      </trkpt>
      <trkpt lat="43.97856" lon="3.02866">
        <ele>827.5</ele>
        <time>2026-04-30T11:14:09.999Z</time>
      </trkpt>
      <trkpt lat="43.97856" lon="3.02866">
        <ele>827.6</ele>
        <time>2026-04-30T11:14:10.999Z</time>
      </trkpt>
      <trkpt lat="43.97856" lon="3.02866">
        <ele>827.7</ele>
        <time>2026-04-30T11:14:11.999Z</time>
      </trkpt>
      <trkpt lat="43.97856" lon="3.02866">
        <ele>827.9</ele>
        <time>2026-04-30T11:14:12.999Z</time>
      </trkpt>
      <trkpt lat="43.97856" lon="3.02866">
        <ele>827.8</ele>
        <time>2026-04-30T11:14:13.999Z</time>
      </trkpt>
      <trkpt lat="43.97856" lon="3.02866">
        <ele>827.6</ele>
        <time>2026-04-30T11:14:14.999Z</time>
      </trkpt>
      <trkpt lat="43.97856" lon="3.02866">
        <ele>827.5</ele>
        <time>2026-04-30T11:14:15.999Z</time>
      </trkpt>
      <trkpt lat="43.97856" lon="3.02866">
        <ele>827.5</ele>
        <time>2026-04-30T11:14:16.999Z</time>
      </trkpt>
      <trkpt lat="43.97856" lon="3.02866">
        <ele>827.5</ele>
        <time>2026-04-30T11:14:17.999Z</time>
      </trkpt>
      <trkpt lat="43.97856" lon="3.02866">
        <ele>827.4</ele>
        <time>2026-04-30T11:14:18.999Z</time>
      </trkpt>
      <trkpt lat="43.97856" lon="3.02866">
        <ele>827.2</ele>
        <time>2026-04-30T11:14:19.999Z</time>
      </trkpt>
      <trkpt lat="43.97856" lon="3.02866">
        <ele>827.1</ele>
        <time>2026-04-30T11:14:20.999Z</time>
      </trkpt>
      <trkpt lat="43.97856" lon="3.02866">
        <ele>827.1</ele>
        <time>2026-04-30T11:14:21.999Z</time>
      </trkpt>
      <trkpt lat="43.97856" lon="3.02866">
        <ele>827</ele>
        <time>2026-04-30T11:14:22.999Z</time>
      </trkpt>
      <trkpt lat="43.97856" lon="3.02866">
        <ele>827</ele>
        <time>2026-04-30T11:14:23.999Z</time>
      </trkpt>
      <trkpt lat="43.97856" lon="3.02866">
        <ele>827</ele>
        <time>2026-04-30T11:14:24.999Z</time>
      </trkpt>
      <trkpt lat="43.97856" lon="3.02866">
        <ele>827</ele>
        <time>2026-04-30T11:14:25.999Z</time>
      </trkpt>
      <trkpt lat="43.97856" lon="3.02866">
        <ele>827.1</ele>
        <time>2026-04-30T11:14:26.999Z</time>
      </trkpt>
      <trkpt lat="43.97856" lon="3.02866">
        <ele>827.2</ele>
        <time>2026-04-30T11:14:27.999Z</time>
      </trkpt>
      <trkpt lat="43.97856" lon="3.02866">
        <ele>827.1</ele>
        <time>2026-04-30T11:14:28.999Z</time>
      </trkpt>
      <trkpt lat="43.97856" lon="3.02866">
        <ele>827.1</ele>
        <time>2026-04-30T11:14:29.999Z</time>
      </trkpt>
      <trkpt lat="43.97856" lon="3.02866">
        <ele>827.2</ele>
        <time>2026-04-30T11:14:30.999Z</time>
      </trkpt>
      <trkpt lat="43.97856" lon="3.02866">
        <ele>827.2</ele>
        <time>2026-04-30T11:14:31.999Z</time>
      </trkpt>
      <trkpt lat="43.97856" lon="3.02866">
        <ele>827.1</ele>
        <time>2026-04-30T11:14:32.999Z</time>
      </trkpt>
      <trkpt lat="43.97856" lon="3.02866">
        <ele>827.1</ele>
        <time>2026-04-30T11:14:33.999Z</time>
      </trkpt>
      <trkpt lat="43.97856" lon="3.02866">
        <ele>827.1</ele>
        <time>2026-04-30T11:14:34.999Z</time>
      </trkpt>
      <trkpt lat="43.97856" lon="3.02866">
        <ele>827.1</ele>
        <time>2026-04-30T11:14:35.999Z</time>
      </trkpt>
      <trkpt lat="43.97856" lon="3.02866">
        <ele>827.2</ele>
        <time>2026-04-30T11:14:36.999Z</time>
      </trkpt>
      <trkpt lat="43.97856" lon="3.02866">
        <ele>827.2</ele>
        <time>2026-04-30T11:14:37.999Z</time>
      </trkpt>
      <trkpt lat="43.97856" lon="3.02866">
        <ele>827.2</ele>
        <time>2026-04-30T11:14:38.999Z</time>
      </trkpt>
      <trkpt lat="43.97856" lon="3.02866">
        <ele>827.2</ele>
        <time>2026-04-30T11:14:39.999Z</time>
      </trkpt>
      <trkpt lat="43.97856" lon="3.02866">
        <ele>827.3</ele>
        <time>2026-04-30T11:14:40.999Z</time>
      </trkpt>
      <trkpt lat="43.97857" lon="3.02866">
        <ele>827.2</ele>
        <time>2026-04-30T11:14:41.999Z</time>
      </trkpt>
      <trkpt lat="43.97857" lon="3.02866">
        <ele>827.2</ele>
        <time>2026-04-30T11:14:42.999Z</time>
      </trkpt>
      <trkpt lat="43.97857" lon="3.02866">
        <ele>827.2</ele>
        <time>2026-04-30T11:14:43.999Z</time>
      </trkpt>
      <trkpt lat="43.97857" lon="3.02866">
        <ele>827.2</ele>
        <time>2026-04-30T11:14:44.999Z</time>
      </trkpt>
      <trkpt lat="43.97857" lon="3.02866">
        <ele>827.2</ele>
        <time>2026-04-30T11:14:45.999Z</time>
      </trkpt>
      <trkpt lat="43.97857" lon="3.02866">
        <ele>827.3</ele>
        <time>2026-04-30T11:14:46.999Z</time>
      </trkpt>
      <trkpt lat="43.97857" lon="3.02866">
        <ele>827.3</ele>
        <time>2026-04-30T11:14:47.999Z</time>
      </trkpt>
      <trkpt lat="43.97857" lon="3.02866">
        <ele>827.3</ele>
        <time>2026-04-30T11:14:48.999Z</time>
      </trkpt>
      <trkpt lat="43.97857" lon="3.02866">
        <ele>827.1</ele>
        <time>2026-04-30T11:14:49.999Z</time>
      </trkpt>
      <trkpt lat="43.97857" lon="3.02866">
        <ele>827</ele>
        <time>2026-04-30T11:14:50.999Z</time>
      </trkpt>
      <trkpt lat="43.97857" lon="3.02866">
        <ele>826.8</ele>
        <time>2026-04-30T11:14:51.999Z</time>
      </trkpt>
      <trkpt lat="43.97857" lon="3.02866">
        <ele>826.7</ele>
        <time>2026-04-30T11:14:52.999Z</time>
      </trkpt>
      <trkpt lat="43.97857" lon="3.02866">
        <ele>826.5</ele>
        <time>2026-04-30T11:14:53.999Z</time>
      </trkpt>
      <trkpt lat="43.97857" lon="3.02866">
        <ele>826.3</ele>
        <time>2026-04-30T11:14:54.999Z</time>
      </trkpt>
      <trkpt lat="43.97856" lon="3.02866">
        <ele>826.1</ele>
        <time>2026-04-30T11:14:55.999Z</time>
      </trkpt>
      <trkpt lat="43.97856" lon="3.02866">
        <ele>826</ele>
        <time>2026-04-30T11:14:56.999Z</time>
      </trkpt>
      <trkpt lat="43.97856" lon="3.02866">
        <ele>826</ele>
        <time>2026-04-30T11:14:57.999Z</time>
      </trkpt>
      <trkpt lat="43.97856" lon="3.02866">
        <ele>825.9</ele>
        <time>2026-04-30T11:14:58.999Z</time>
      </trkpt>
      <trkpt lat="43.97856" lon="3.02866">
        <ele>825.6</ele>
        <time>2026-04-30T11:14:59.999Z</time>
      </trkpt>
      <trkpt lat="43.97856" lon="3.02866">
        <ele>825.5</ele>
        <time>2026-04-30T11:15:00.999Z</time>
      </trkpt>
      <trkpt lat="43.97856" lon="3.02866">
        <ele>825.5</ele>
        <time>2026-04-30T11:15:01.999Z</time>
      </trkpt>
      <trkpt lat="43.97856" lon="3.02866">
        <ele>825.3</ele>
        <time>2026-04-30T11:15:02.999Z</time>
      </trkpt>
      <trkpt lat="43.97856" lon="3.02866">
        <ele>825.2</ele>
        <time>2026-04-30T11:15:03.999Z</time>
      </trkpt>
      <trkpt lat="43.97856" lon="3.02866">
        <ele>825.1</ele>
        <time>2026-04-30T11:15:04.999Z</time>
      </trkpt>
      <trkpt lat="43.97857" lon="3.02866">
        <ele>825.2</ele>
        <time>2026-04-30T11:15:05.999Z</time>
      </trkpt>
      <trkpt lat="43.97857" lon="3.02866">
        <ele>825.2</ele>
        <time>2026-04-30T11:15:06.999Z</time>
      </trkpt>
      <trkpt lat="43.97856" lon="3.02866">
        <ele>825.1</ele>
        <time>2026-04-30T11:15:07.999Z</time>
      </trkpt>
      <trkpt lat="43.97856" lon="3.02866">
        <ele>825.3</ele>
        <time>2026-04-30T11:15:08.999Z</time>
      </trkpt>
      <trkpt lat="43.97856" lon="3.02866">
        <ele>825.3</ele>
        <time>2026-04-30T11:15:09.999Z</time>
      </trkpt>
      <trkpt lat="43.97856" lon="3.02866">
        <ele>825.1</ele>
        <time>2026-04-30T11:15:10.999Z</time>
      </trkpt>
      <trkpt lat="43.97856" lon="3.02866">
        <ele>825</ele>
        <time>2026-04-30T11:15:11.999Z</time>
      </trkpt>
      <trkpt lat="43.97856" lon="3.02866">
        <ele>824.9</ele>
        <time>2026-04-30T11:15:12.999Z</time>
      </trkpt>
      <trkpt lat="43.97857" lon="3.02866">
        <ele>824.8</ele>
        <time>2026-04-30T11:15:13.999Z</time>
      </trkpt>
      <trkpt lat="43.97857" lon="3.02866">
        <ele>824.8</ele>
        <time>2026-04-30T11:15:14.999Z</time>
      </trkpt>
      <trkpt lat="43.97857" lon="3.02866">
        <ele>824.8</ele>
        <time>2026-04-30T11:15:15.999Z</time>
      </trkpt>
      <trkpt lat="43.97857" lon="3.02866">
        <ele>824.9</ele>
        <time>2026-04-30T11:15:16.999Z</time>
      </trkpt>
      <trkpt lat="43.97857" lon="3.02866">
        <ele>824.9</ele>
        <time>2026-04-30T11:15:17.999Z</time>
      </trkpt>
      <trkpt lat="43.97857" lon="3.02866">
        <ele>824.8</ele>
        <time>2026-04-30T11:15:18.999Z</time>
      </trkpt>
      <trkpt lat="43.97857" lon="3.02866">
        <ele>824.6</ele>
        <time>2026-04-30T11:15:19.999Z</time>
      </trkpt>
      <trkpt lat="43.97857" lon="3.02866">
        <ele>824.5</ele>
        <time>2026-04-30T11:15:20.999Z</time>
      </trkpt>
      <trkpt lat="43.97857" lon="3.02866">
        <ele>824.4</ele>
        <time>2026-04-30T11:15:21.999Z</time>
      </trkpt>
      <trkpt lat="43.97857" lon="3.02866">
        <ele>824.3</ele>
        <time>2026-04-30T11:15:22.999Z</time>
      </trkpt>
      <trkpt lat="43.97857" lon="3.02866">
        <ele>824.3</ele>
        <time>2026-04-30T11:15:23.999Z</time>
      </trkpt>
      <trkpt lat="43.97857" lon="3.02866">
        <ele>824.2</ele>
        <time>2026-04-30T11:15:24.999Z</time>
      </trkpt>
      <trkpt lat="43.97857" lon="3.02866">
        <ele>824.3</ele>
        <time>2026-04-30T11:15:25.999Z</time>
      </trkpt>
      <trkpt lat="43.97857" lon="3.02866">
        <ele>824.2</ele>
        <time>2026-04-30T11:15:26.999Z</time>
      </trkpt>
      <trkpt lat="43.97857" lon="3.02866">
        <ele>824.1</ele>
        <time>2026-04-30T11:15:27.999Z</time>
      </trkpt>
      <trkpt lat="43.97857" lon="3.02866">
        <ele>824.2</ele>
        <time>2026-04-30T11:15:28.999Z</time>
      </trkpt>
      <trkpt lat="43.97857" lon="3.02866">
        <ele>824.4</ele>
        <time>2026-04-30T11:15:29.999Z</time>
      </trkpt>
      <trkpt lat="43.97857" lon="3.02866">
        <ele>824.5</ele>
        <time>2026-04-30T11:15:30.999Z</time>
      </trkpt>
      <trkpt lat="43.97858" lon="3.02866">
        <ele>824.7</ele>
        <time>2026-04-30T11:15:31.999Z</time>
      </trkpt>
      <trkpt lat="43.97858" lon="3.02866">
        <ele>824.9</ele>
        <time>2026-04-30T11:15:32.999Z</time>
      </trkpt>
      <trkpt lat="43.97858" lon="3.02866">
        <ele>825.2</ele>
        <time>2026-04-30T11:15:33.999Z</time>
      </trkpt>
      <trkpt lat="43.97858" lon="3.02866">
        <ele>825.4</ele>
        <time>2026-04-30T11:15:34.999Z</time>
      </trkpt>
      <trkpt lat="43.97858" lon="3.02866">
        <ele>825.3</ele>
        <time>2026-04-30T11:15:35.999Z</time>
      </trkpt>
      <trkpt lat="43.97858" lon="3.02866">
        <ele>825.2</ele>
        <time>2026-04-30T11:15:36.999Z</time>
      </trkpt>
      <trkpt lat="43.97858" lon="3.02866">
        <ele>824.8</ele>
        <time>2026-04-30T11:15:37.999Z</time>
      </trkpt>
      <trkpt lat="43.97858" lon="3.02866">
        <ele>824.7</ele>
        <time>2026-04-30T11:15:38.999Z</time>
      </trkpt>
      <trkpt lat="43.97858" lon="3.02865">
        <ele>824.7</ele>
        <time>2026-04-30T11:15:39.999Z</time>
      </trkpt>
      <trkpt lat="43.97858" lon="3.02865">
        <ele>824.5</ele>
        <time>2026-04-30T11:15:40.999Z</time>
      </trkpt>
      <trkpt lat="43.97858" lon="3.02865">
        <ele>824.3</ele>
        <time>2026-04-30T11:15:41.999Z</time>
      </trkpt>
      <trkpt lat="43.97858" lon="3.02865">
        <ele>824.1</ele>
        <time>2026-04-30T11:15:42.999Z</time>
      </trkpt>
      <trkpt lat="43.97858" lon="3.02866">
        <ele>824.1</ele>
        <time>2026-04-30T11:15:43.999Z</time>
      </trkpt>
      <trkpt lat="43.97858" lon="3.02866">
        <ele>823.9</ele>
        <time>2026-04-30T11:15:44.999Z</time>
      </trkpt>
      <trkpt lat="43.97858" lon="3.02866">
        <ele>823.9</ele>
        <time>2026-04-30T11:15:45.999Z</time>
      </trkpt>
      <trkpt lat="43.97858" lon="3.02866">
        <ele>823.8</ele>
        <time>2026-04-30T11:15:46.999Z</time>
      </trkpt>
      <trkpt lat="43.97858" lon="3.02865">
        <ele>823.7</ele>
        <time>2026-04-30T11:15:47.999Z</time>
      </trkpt>
      <trkpt lat="43.97858" lon="3.02865">
        <ele>823.7</ele>
        <time>2026-04-30T11:15:48.999Z</time>
      </trkpt>
      <trkpt lat="43.97858" lon="3.02865">
        <ele>823.9</ele>
        <time>2026-04-30T11:15:49.999Z</time>
      </trkpt>
      <trkpt lat="43.97857" lon="3.02865">
        <ele>824</ele>
        <time>2026-04-30T11:15:50.999Z</time>
      </trkpt>
      <trkpt lat="43.97857" lon="3.02865">
        <ele>824.3</ele>
        <time>2026-04-30T11:15:51.999Z</time>
      </trkpt>
      <trkpt lat="43.97857" lon="3.02865">
        <ele>824.5</ele>
        <time>2026-04-30T11:15:52.999Z</time>
      </trkpt>
      <trkpt lat="43.97857" lon="3.02865">
        <ele>824.5</ele>
        <time>2026-04-30T11:15:53.999Z</time>
      </trkpt>
      <trkpt lat="43.97857" lon="3.02865">
        <ele>824.7</ele>
        <time>2026-04-30T11:15:54.999Z</time>
      </trkpt>
      <trkpt lat="43.97857" lon="3.02865">
        <ele>824.6</ele>
        <time>2026-04-30T11:15:55.999Z</time>
      </trkpt>
      <trkpt lat="43.97857" lon="3.02865">
        <ele>824.7</ele>
        <time>2026-04-30T11:15:56.999Z</time>
      </trkpt>
      <trkpt lat="43.97857" lon="3.02865">
        <ele>824.8</ele>
        <time>2026-04-30T11:15:57.999Z</time>
      </trkpt>
      <trkpt lat="43.97857" lon="3.02865">
        <ele>824.9</ele>
        <time>2026-04-30T11:15:58.999Z</time>
      </trkpt>
      <trkpt lat="43.97857" lon="3.02865">
        <ele>824.8</ele>
        <time>2026-04-30T11:15:59.999Z</time>
      </trkpt>
      <trkpt lat="43.97857" lon="3.02865">
        <ele>824.9</ele>
        <time>2026-04-30T11:16:00.999Z</time>
      </trkpt>
      <trkpt lat="43.97857" lon="3.02865">
        <ele>824.9</ele>
        <time>2026-04-30T11:16:01.999Z</time>
      </trkpt>
      <trkpt lat="43.97857" lon="3.02865">
        <ele>824.9</ele>
        <time>2026-04-30T11:16:02.999Z</time>
      </trkpt>
      <trkpt lat="43.97857" lon="3.02865">
        <ele>824.9</ele>
        <time>2026-04-30T11:16:03.999Z</time>
      </trkpt>
      <trkpt lat="43.97857" lon="3.02865">
        <ele>824.8</ele>
        <time>2026-04-30T11:16:04.999Z</time>
      </trkpt>
      <trkpt lat="43.97857" lon="3.02865">
        <ele>824.7</ele>
        <time>2026-04-30T11:16:05.999Z</time>
      </trkpt>
      <trkpt lat="43.97857" lon="3.02865">
        <ele>824.7</ele>
        <time>2026-04-30T11:16:06.999Z</time>
      </trkpt>
      <trkpt lat="43.97857" lon="3.02865">
        <ele>824.6</ele>
        <time>2026-04-30T11:16:07.999Z</time>
      </trkpt>
      <trkpt lat="43.97857" lon="3.02865">
        <ele>824.8</ele>
        <time>2026-04-30T11:16:08.999Z</time>
      </trkpt>
      <trkpt lat="43.97857" lon="3.02865">
        <ele>824.8</ele>
        <time>2026-04-30T11:16:10.999Z</time>
      </trkpt>
      <trkpt lat="43.97857" lon="3.02865">
        <ele>825</ele>
        <time>2026-04-30T11:16:11.999Z</time>
      </trkpt>
      <trkpt lat="43.97857" lon="3.02865">
        <ele>825.2</ele>
        <time>2026-04-30T11:16:12.999Z</time>
      </trkpt>
      <trkpt lat="43.97857" lon="3.02865">
        <ele>825.4</ele>
        <time>2026-04-30T11:16:13.999Z</time>
      </trkpt>
      <trkpt lat="43.97857" lon="3.02865">
        <ele>825.6</ele>
        <time>2026-04-30T11:16:14.999Z</time>
      </trkpt>
      <trkpt lat="43.97857" lon="3.02865">
        <ele>825.7</ele>
        <time>2026-04-30T11:16:15.999Z</time>
      </trkpt>
      <trkpt lat="43.97857" lon="3.02865">
        <ele>825.7</ele>
        <time>2026-04-30T11:16:16.999Z</time>
      </trkpt>
      <trkpt lat="43.97857" lon="3.02865">
        <ele>825.7</ele>
        <time>2026-04-30T11:16:17.999Z</time>
      </trkpt>
      <trkpt lat="43.97857" lon="3.02865">
        <ele>825.9</ele>
        <time>2026-04-30T11:16:18.999Z</time>
      </trkpt>
      <trkpt lat="43.97857" lon="3.02865">
        <ele>826.1</ele>
        <time>2026-04-30T11:16:19.999Z</time>
      </trkpt>
      <trkpt lat="43.97857" lon="3.02865">
        <ele>826</ele>
        <time>2026-04-30T11:16:20.999Z</time>
      </trkpt>
      <trkpt lat="43.97857" lon="3.02865">
        <ele>826.1</ele>
        <time>2026-04-30T11:16:21.999Z</time>
      </trkpt>
      <trkpt lat="43.97857" lon="3.02865">
        <ele>826.2</ele>
        <time>2026-04-30T11:16:22.999Z</time>
      </trkpt>
      <trkpt lat="43.97857" lon="3.02865">
        <ele>826</ele>
        <time>2026-04-30T11:16:23.999Z</time>
      </trkpt>
      <trkpt lat="43.97856" lon="3.02864">
        <ele>825.9</ele>
        <time>2026-04-30T11:16:24.999Z</time>
      </trkpt>
      <trkpt lat="43.97856" lon="3.02864">
        <ele>826</ele>
        <time>2026-04-30T11:16:25.999Z</time>
      </trkpt>
      <trkpt lat="43.97856" lon="3.02864">
        <ele>826.2</ele>
        <time>2026-04-30T11:16:26.999Z</time>
      </trkpt>
      <trkpt lat="43.97856" lon="3.02864">
        <ele>826.4</ele>
        <time>2026-04-30T11:16:27.999Z</time>
      </trkpt>
      <trkpt lat="43.97856" lon="3.02864">
        <ele>826.5</ele>
        <time>2026-04-30T11:16:28.999Z</time>
      </trkpt>
      <trkpt lat="43.97856" lon="3.02864">
        <ele>826.5</ele>
        <time>2026-04-30T11:16:29.999Z</time>
      </trkpt>
      <trkpt lat="43.97856" lon="3.02864">
        <ele>826.8</ele>
        <time>2026-04-30T11:16:30.999Z</time>
      </trkpt>
      <trkpt lat="43.97856" lon="3.02864">
        <ele>827.1</ele>
        <time>2026-04-30T11:16:31.999Z</time>
      </trkpt>
      <trkpt lat="43.97856" lon="3.02864">
        <ele>827.1</ele>
        <time>2026-04-30T11:16:32.999Z</time>
      </trkpt>
      <trkpt lat="43.97856" lon="3.02864">
        <ele>827.3</ele>
        <time>2026-04-30T11:16:33.999Z</time>
      </trkpt>
      <trkpt lat="43.97856" lon="3.02864">
        <ele>827.4</ele>
        <time>2026-04-30T11:16:34.999Z</time>
      </trkpt>
      <trkpt lat="43.97856" lon="3.02864">
        <ele>827.4</ele>
        <time>2026-04-30T11:16:35.999Z</time>
      </trkpt>
      <trkpt lat="43.97856" lon="3.02864">
        <ele>827.5</ele>
        <time>2026-04-30T11:16:36.999Z</time>
      </trkpt>
      <trkpt lat="43.97856" lon="3.02864">
        <ele>827.7</ele>
        <time>2026-04-30T11:16:37.999Z</time>
      </trkpt>
      <trkpt lat="43.97856" lon="3.02864">
        <ele>827.8</ele>
        <time>2026-04-30T11:16:38.999Z</time>
      </trkpt>
      <trkpt lat="43.97856" lon="3.02864">
        <ele>827.9</ele>
        <time>2026-04-30T11:16:39.999Z</time>
      </trkpt>
      <trkpt lat="43.97856" lon="3.02864">
        <ele>828.2</ele>
        <time>2026-04-30T11:16:40.999Z</time>
      </trkpt>
      <trkpt lat="43.97856" lon="3.02864">
        <ele>828.4</ele>
        <time>2026-04-30T11:16:41.999Z</time>
      </trkpt>
      <trkpt lat="43.97856" lon="3.02864">
        <ele>828.7</ele>
        <time>2026-04-30T11:16:42.999Z</time>
      </trkpt>
      <trkpt lat="43.97856" lon="3.02864">
        <ele>829</ele>
        <time>2026-04-30T11:16:43.999Z</time>
      </trkpt>
      <trkpt lat="43.97856" lon="3.02864">
        <ele>829.6</ele>
        <time>2026-04-30T11:16:44.999Z</time>
      </trkpt>
      <trkpt lat="43.97856" lon="3.02864">
        <ele>830.1</ele>
        <time>2026-04-30T11:16:45.999Z</time>
      </trkpt>
      <trkpt lat="43.97856" lon="3.02864">
        <ele>830.5</ele>
        <time>2026-04-30T11:16:46.999Z</time>
      </trkpt>
      <trkpt lat="43.97856" lon="3.02864">
        <ele>830.8</ele>
        <time>2026-04-30T11:16:47.999Z</time>
      </trkpt>
      <trkpt lat="43.97857" lon="3.02864">
        <ele>831.1</ele>
        <time>2026-04-30T11:16:48.999Z</time>
      </trkpt>
      <trkpt lat="43.97857" lon="3.02864">
        <ele>831.1</ele>
        <time>2026-04-30T11:16:49.999Z</time>
      </trkpt>
      <trkpt lat="43.97857" lon="3.02864">
        <ele>831.1</ele>
        <time>2026-04-30T11:16:50.999Z</time>
      </trkpt>
      <trkpt lat="43.97857" lon="3.02863">
        <ele>831.1</ele>
        <time>2026-04-30T11:16:51.999Z</time>
      </trkpt>
      <trkpt lat="43.97857" lon="3.02863">
        <ele>831.2</ele>
        <time>2026-04-30T11:16:52.999Z</time>
      </trkpt>
      <trkpt lat="43.97857" lon="3.02863">
        <ele>831.2</ele>
        <time>2026-04-30T11:16:53.999Z</time>
      </trkpt>
      <trkpt lat="43.97857" lon="3.02863">
        <ele>831.1</ele>
        <time>2026-04-30T11:16:54.999Z</time>
      </trkpt>
      <trkpt lat="43.97857" lon="3.02863">
        <ele>830.8</ele>
        <time>2026-04-30T11:16:55.999Z</time>
      </trkpt>
      <trkpt lat="43.97857" lon="3.02863">
        <ele>830.6</ele>
        <time>2026-04-30T11:16:56.999Z</time>
      </trkpt>
      <trkpt lat="43.97858" lon="3.02863">
        <ele>830.5</ele>
        <time>2026-04-30T11:16:57.999Z</time>
      </trkpt>
      <trkpt lat="43.97858" lon="3.02863">
        <ele>830.4</ele>
        <time>2026-04-30T11:16:58.999Z</time>
      </trkpt>
      <trkpt lat="43.97858" lon="3.02864">
        <ele>830.2</ele>
        <time>2026-04-30T11:16:59.999Z</time>
      </trkpt>
      <trkpt lat="43.97859" lon="3.02864">
        <ele>829.8</ele>
        <time>2026-04-30T11:17:00.999Z</time>
      </trkpt>
      <trkpt lat="43.97859" lon="3.02864">
        <ele>829.6</ele>
        <time>2026-04-30T11:17:01.999Z</time>
      </trkpt>
      <trkpt lat="43.9786" lon="3.02864">
        <ele>829.2</ele>
        <time>2026-04-30T11:17:02.999Z</time>
      </trkpt>
      <trkpt lat="43.9786" lon="3.02864">
        <ele>828.9</ele>
        <time>2026-04-30T11:17:03.999Z</time>
      </trkpt>
      <trkpt lat="43.9786" lon="3.02865">
        <ele>828.4</ele>
        <time>2026-04-30T11:17:04.999Z</time>
      </trkpt>
      <trkpt lat="43.9786" lon="3.02865">
        <ele>828</ele>
        <time>2026-04-30T11:17:05.999Z</time>
      </trkpt>
      <trkpt lat="43.9786" lon="3.02866">
        <ele>828</ele>
        <time>2026-04-30T11:17:06.999Z</time>
      </trkpt>
      <trkpt lat="43.9786" lon="3.02866">
        <ele>828</ele>
        <time>2026-04-30T11:17:07.999Z</time>
      </trkpt>
      <trkpt lat="43.9786" lon="3.02866">
        <ele>828</ele>
        <time>2026-04-30T11:17:08.999Z</time>
      </trkpt>
      <trkpt lat="43.9786" lon="3.02866">
        <ele>827.9</ele>
        <time>2026-04-30T11:17:09.999Z</time>
      </trkpt>
      <trkpt lat="43.9786" lon="3.02866">
        <ele>827.7</ele>
        <time>2026-04-30T11:17:10.999Z</time>
      </trkpt>
      <trkpt lat="43.9786" lon="3.02866">
        <ele>827.6</ele>
        <time>2026-04-30T11:17:11.999Z</time>
      </trkpt>
      <trkpt lat="43.9786" lon="3.02866">
        <ele>827.4</ele>
        <time>2026-04-30T11:17:12.999Z</time>
      </trkpt>
      <trkpt lat="43.9786" lon="3.02866">
        <ele>827.2</ele>
        <time>2026-04-30T11:17:13.999Z</time>
      </trkpt>
      <trkpt lat="43.9786" lon="3.02866">
        <ele>827</ele>
        <time>2026-04-30T11:17:14.999Z</time>
      </trkpt>
      <trkpt lat="43.9786" lon="3.02866">
        <ele>827</ele>
        <time>2026-04-30T11:17:15.999Z</time>
      </trkpt>
      <trkpt lat="43.9786" lon="3.02865">
        <ele>827.1</ele>
        <time>2026-04-30T11:17:16.999Z</time>
      </trkpt>
      <trkpt lat="43.9786" lon="3.02865">
        <ele>827.3</ele>
        <time>2026-04-30T11:17:17.999Z</time>
      </trkpt>
      <trkpt lat="43.9786" lon="3.02865">
        <ele>827.5</ele>
        <time>2026-04-30T11:17:18.999Z</time>
      </trkpt>
      <trkpt lat="43.9786" lon="3.02866">
        <ele>827.6</ele>
        <time>2026-04-30T11:17:19.999Z</time>
      </trkpt>
      <trkpt lat="43.9786" lon="3.02866">
        <ele>827.5</ele>
        <time>2026-04-30T11:17:20.999Z</time>
      </trkpt>
      <trkpt lat="43.9786" lon="3.02866">
        <ele>827.5</ele>
        <time>2026-04-30T11:17:21.999Z</time>
      </trkpt>
      <trkpt lat="43.9786" lon="3.02866">
        <ele>827.3</ele>
        <time>2026-04-30T11:17:22.999Z</time>
      </trkpt>
      <trkpt lat="43.9786" lon="3.02866">
        <ele>827.1</ele>
        <time>2026-04-30T11:17:23.999Z</time>
      </trkpt>
      <trkpt lat="43.9786" lon="3.02866">
        <ele>827</ele>
        <time>2026-04-30T11:17:24.999Z</time>
      </trkpt>
      <trkpt lat="43.9786" lon="3.02866">
        <ele>827.1</ele>
        <time>2026-04-30T11:17:25.999Z</time>
      </trkpt>
      <trkpt lat="43.9786" lon="3.02866">
        <ele>827.1</ele>
        <time>2026-04-30T11:17:26.999Z</time>
      </trkpt>
      <trkpt lat="43.9786" lon="3.02866">
        <ele>827.1</ele>
        <time>2026-04-30T11:17:27.999Z</time>
      </trkpt>
      <trkpt lat="43.9786" lon="3.02866">
        <ele>827</ele>
        <time>2026-04-30T11:17:28.999Z</time>
      </trkpt>
      <trkpt lat="43.9786" lon="3.02865">
        <ele>827.1</ele>
        <time>2026-04-30T11:17:29.999Z</time>
      </trkpt>
      <trkpt lat="43.9786" lon="3.02865">
        <ele>827.1</ele>
        <time>2026-04-30T11:17:30.999Z</time>
      </trkpt>
      <trkpt lat="43.9786" lon="3.02866">
        <ele>827</ele>
        <time>2026-04-30T11:17:31.999Z</time>
      </trkpt>
      <trkpt lat="43.9786" lon="3.02866">
        <ele>827.1</ele>
        <time>2026-04-30T11:17:32.999Z</time>
      </trkpt>
      <trkpt lat="43.9786" lon="3.02866">
        <ele>827.1</ele>
        <time>2026-04-30T11:17:33.999Z</time>
      </trkpt>
      <trkpt lat="43.9786" lon="3.02866">
        <ele>827.2</ele>
        <time>2026-04-30T11:17:34.999Z</time>
      </trkpt>
      <trkpt lat="43.9786" lon="3.02866">
        <ele>827.2</ele>
        <time>2026-04-30T11:17:35.999Z</time>
      </trkpt>
      <trkpt lat="43.9786" lon="3.02866">
        <ele>827</ele>
        <time>2026-04-30T11:17:36.999Z</time>
      </trkpt>
      <trkpt lat="43.9786" lon="3.02867">
        <ele>827.1</ele>
        <time>2026-04-30T11:17:37.999Z</time>
      </trkpt>
      <trkpt lat="43.9786" lon="3.02867">
        <ele>827</ele>
        <time>2026-04-30T11:17:38.999Z</time>
      </trkpt>
      <trkpt lat="43.9786" lon="3.02867">
        <ele>826.7</ele>
        <time>2026-04-30T11:17:39.999Z</time>
      </trkpt>
      <trkpt lat="43.9786" lon="3.02867">
        <ele>826.6</ele>
        <time>2026-04-30T11:17:40.999Z</time>
      </trkpt>
      <trkpt lat="43.9786" lon="3.02867">
        <ele>826.5</ele>
        <time>2026-04-30T11:17:41.999Z</time>
      </trkpt>
      <trkpt lat="43.9786" lon="3.02867">
        <ele>826.3</ele>
        <time>2026-04-30T11:17:42.999Z</time>
      </trkpt>
      <trkpt lat="43.97859" lon="3.02867">
        <ele>826.3</ele>
        <time>2026-04-30T11:17:43.999Z</time>
      </trkpt>
      <trkpt lat="43.97859" lon="3.02867">
        <ele>826.2</ele>
        <time>2026-04-30T11:17:44.999Z</time>
      </trkpt>
      <trkpt lat="43.97859" lon="3.02867">
        <ele>826.1</ele>
        <time>2026-04-30T11:17:45.999Z</time>
      </trkpt>
      <trkpt lat="43.97859" lon="3.02867">
        <ele>826.1</ele>
        <time>2026-04-30T11:17:46.999Z</time>
      </trkpt>
      <trkpt lat="43.97859" lon="3.02867">
        <ele>826.3</ele>
        <time>2026-04-30T11:17:47.999Z</time>
      </trkpt>
      <trkpt lat="43.97859" lon="3.02867">
        <ele>826.3</ele>
        <time>2026-04-30T11:17:48.999Z</time>
      </trkpt>
      <trkpt lat="43.97859" lon="3.02867">
        <ele>826.2</ele>
        <time>2026-04-30T11:17:49.999Z</time>
      </trkpt>
      <trkpt lat="43.97859" lon="3.02867">
        <ele>826.2</ele>
        <time>2026-04-30T11:17:50.999Z</time>
      </trkpt>
      <trkpt lat="43.97859" lon="3.02867">
        <ele>826.2</ele>
        <time>2026-04-30T11:17:51.999Z</time>
      </trkpt>
      <trkpt lat="43.97859" lon="3.02867">
        <ele>826.2</ele>
        <time>2026-04-30T11:17:53.000Z</time>
      </trkpt>
      <trkpt lat="43.97859" lon="3.02867">
        <ele>826.1</ele>
        <time>2026-04-30T11:17:54.000Z</time>
      </trkpt>
      <trkpt lat="43.97859" lon="3.02867">
        <ele>826.2</ele>
        <time>2026-04-30T11:17:55.000Z</time>
      </trkpt>
      <trkpt lat="43.97859" lon="3.02867">
        <ele>826.2</ele>
        <time>2026-04-30T11:17:56.000Z</time>
      </trkpt>
      <trkpt lat="43.97859" lon="3.02867">
        <ele>826.2</ele>
        <time>2026-04-30T11:17:57.000Z</time>
      </trkpt>
      <trkpt lat="43.97859" lon="3.02867">
        <ele>826.2</ele>
        <time>2026-04-30T11:17:58.000Z</time>
      </trkpt>
      <trkpt lat="43.97859" lon="3.02867">
        <ele>826.3</ele>
        <time>2026-04-30T11:17:59.000Z</time>
      </trkpt>
      <trkpt lat="43.97859" lon="3.02867">
        <ele>826.4</ele>
        <time>2026-04-30T11:18:00.000Z</time>
      </trkpt>
      <trkpt lat="43.97859" lon="3.02866">
        <ele>826.3</ele>
        <time>2026-04-30T11:18:01.000Z</time>
      </trkpt>
      <trkpt lat="43.97859" lon="3.02866">
        <ele>826.2</ele>
        <time>2026-04-30T11:18:02.000Z</time>
      </trkpt>
      <trkpt lat="43.97859" lon="3.02866">
        <ele>826.4</ele>
        <time>2026-04-30T11:18:03.000Z</time>
      </trkpt>
      <trkpt lat="43.97859" lon="3.02865">
        <ele>826.4</ele>
        <time>2026-04-30T11:18:04.000Z</time>
      </trkpt>
      <trkpt lat="43.97859" lon="3.02865">
        <ele>826.3</ele>
        <time>2026-04-30T11:18:05.000Z</time>
      </trkpt>
      <trkpt lat="43.97859" lon="3.02864">
        <ele>826</ele>
        <time>2026-04-30T11:18:06.000Z</time>
      </trkpt>
      <trkpt lat="43.97859" lon="3.02864">
        <ele>826.1</ele>
        <time>2026-04-30T11:18:07.000Z</time>
      </trkpt>
      <trkpt lat="43.97859" lon="3.02863">
        <ele>826.2</ele>
        <time>2026-04-30T11:18:08.000Z</time>
      </trkpt>
      <trkpt lat="43.97859" lon="3.02863">
        <ele>826.4</ele>
        <time>2026-04-30T11:18:09.000Z</time>
      </trkpt>
      <trkpt lat="43.97859" lon="3.02863">
        <ele>826.4</ele>
        <time>2026-04-30T11:18:10.000Z</time>
      </trkpt>
      <trkpt lat="43.97859" lon="3.02863">
        <ele>826.6</ele>
        <time>2026-04-30T11:18:11.000Z</time>
      </trkpt>
      <trkpt lat="43.97858" lon="3.02862">
        <ele>826.5</ele>
        <time>2026-04-30T11:18:12.000Z</time>
      </trkpt>
      <trkpt lat="43.97858" lon="3.02862">
        <ele>826.2</ele>
        <time>2026-04-30T11:18:13.000Z</time>
      </trkpt>
      <trkpt lat="43.97858" lon="3.02861">
        <ele>826.2</ele>
        <time>2026-04-30T11:18:14.000Z</time>
      </trkpt>
      <trkpt lat="43.97857" lon="3.0286">
        <ele>826.2</ele>
        <time>2026-04-30T11:18:15.000Z</time>
      </trkpt>
      <trkpt lat="43.97857" lon="3.02859">
        <ele>826.3</ele>
        <time>2026-04-30T11:18:16.000Z</time>
      </trkpt>
      <trkpt lat="43.97857" lon="3.02859">
        <ele>826.7</ele>
        <time>2026-04-30T11:18:17.000Z</time>
      </trkpt>
      <trkpt lat="43.97857" lon="3.02858">
        <ele>826.8</ele>
        <time>2026-04-30T11:18:18.000Z</time>
      </trkpt>
      <trkpt lat="43.97857" lon="3.02857">
        <ele>826.9</ele>
        <time>2026-04-30T11:18:19.000Z</time>
      </trkpt>
      <trkpt lat="43.97857" lon="3.02857">
        <ele>827</ele>
        <time>2026-04-30T11:18:20.000Z</time>
      </trkpt>
      <trkpt lat="43.97855" lon="3.02858">
        <ele>827.2</ele>
        <time>2026-04-30T11:18:21.000Z</time>
      </trkpt>
      <trkpt lat="43.97855" lon="3.02858">
        <ele>827.2</ele>
        <time>2026-04-30T11:18:22.000Z</time>
      </trkpt>
      <trkpt lat="43.97854" lon="3.02859">
        <ele>827.1</ele>
        <time>2026-04-30T11:18:23.000Z</time>
      </trkpt>
      <trkpt lat="43.97854" lon="3.0286">
        <ele>827.2</ele>
        <time>2026-04-30T11:18:24.000Z</time>
      </trkpt>
      <trkpt lat="43.97854" lon="3.02861">
        <ele>827.2</ele>
        <time>2026-04-30T11:18:25.000Z</time>
      </trkpt>
      <trkpt lat="43.97854" lon="3.02861">
        <ele>827.1</ele>
        <time>2026-04-30T11:18:26.000Z</time>
      </trkpt>
      <trkpt lat="43.97853" lon="3.02863">
        <ele>827.2</ele>
        <time>2026-04-30T11:18:27.000Z</time>
      </trkpt>
      <trkpt lat="43.97853" lon="3.02864">
        <ele>827.3</ele>
        <time>2026-04-30T11:18:28.000Z</time>
      </trkpt>
      <trkpt lat="43.97853" lon="3.02864">
        <ele>827.5</ele>
        <time>2026-04-30T11:18:29.000Z</time>
      </trkpt>
      <trkpt lat="43.97854" lon="3.02864">
        <ele>827.6</ele>
        <time>2026-04-30T11:18:30.000Z</time>
      </trkpt>
      <trkpt lat="43.97854" lon="3.02864">
        <ele>827.8</ele>
        <time>2026-04-30T11:18:31.000Z</time>
      </trkpt>
      <trkpt lat="43.97854" lon="3.02863">
        <ele>827.6</ele>
        <time>2026-04-30T11:18:32.000Z</time>
      </trkpt>
      <trkpt lat="43.97854" lon="3.02863">
        <ele>827.7</ele>
        <time>2026-04-30T11:18:33.000Z</time>
      </trkpt>
      <trkpt lat="43.97854" lon="3.02863">
        <ele>827.7</ele>
        <time>2026-04-30T11:18:34.000Z</time>
      </trkpt>
      <trkpt lat="43.97854" lon="3.02863">
        <ele>827.8</ele>
        <time>2026-04-30T11:18:35.000Z</time>
      </trkpt>
      <trkpt lat="43.97854" lon="3.02863">
        <ele>828</ele>
        <time>2026-04-30T11:18:36.000Z</time>
      </trkpt>
      <trkpt lat="43.97854" lon="3.02863">
        <ele>828.2</ele>
        <time>2026-04-30T11:18:37.000Z</time>
      </trkpt>
      <trkpt lat="43.97854" lon="3.02863">
        <ele>828.1</ele>
        <time>2026-04-30T11:18:38.000Z</time>
      </trkpt>
      <trkpt lat="43.97854" lon="3.02863">
        <ele>828</ele>
        <time>2026-04-30T11:18:39.000Z</time>
      </trkpt>
      <trkpt lat="43.97854" lon="3.02863">
        <ele>828</ele>
        <time>2026-04-30T11:18:40.000Z</time>
      </trkpt>
      <trkpt lat="43.97854" lon="3.02863">
        <ele>828</ele>
        <time>2026-04-30T11:18:41.000Z</time>
      </trkpt>
      <trkpt lat="43.97854" lon="3.02862">
        <ele>828.2</ele>
        <time>2026-04-30T11:18:42.000Z</time>
      </trkpt>
      <trkpt lat="43.97854" lon="3.02862">
        <ele>828.2</ele>
        <time>2026-04-30T11:18:43.000Z</time>
      </trkpt>
      <trkpt lat="43.97854" lon="3.02862">
        <ele>828.1</ele>
        <time>2026-04-30T11:18:44.000Z</time>
      </trkpt>
      <trkpt lat="43.97855" lon="3.02862">
        <ele>828.1</ele>
        <time>2026-04-30T11:18:45.000Z</time>
      </trkpt>
      <trkpt lat="43.97855" lon="3.02862">
        <ele>827.8</ele>
        <time>2026-04-30T11:18:46.000Z</time>
      </trkpt>
      <trkpt lat="43.97855" lon="3.02862">
        <ele>827.7</ele>
        <time>2026-04-30T11:18:47.000Z</time>
      </trkpt>
      <trkpt lat="43.97855" lon="3.02862">
        <ele>827.8</ele>
        <time>2026-04-30T11:18:48.000Z</time>
      </trkpt>
      <trkpt lat="43.97855" lon="3.02862">
        <ele>827.8</ele>
        <time>2026-04-30T11:18:49.000Z</time>
      </trkpt>
      <trkpt lat="43.97855" lon="3.02862">
        <ele>828</ele>
        <time>2026-04-30T11:18:50.000Z</time>
      </trkpt>
      <trkpt lat="43.97855" lon="3.02862">
        <ele>828.1</ele>
        <time>2026-04-30T11:18:51.000Z</time>
      </trkpt>
      <trkpt lat="43.97855" lon="3.02862">
        <ele>828.2</ele>
        <time>2026-04-30T11:18:52.000Z</time>
      </trkpt>
      <trkpt lat="43.97855" lon="3.02862">
        <ele>828.2</ele>
        <time>2026-04-30T11:18:53.000Z</time>
      </trkpt>
      <trkpt lat="43.97855" lon="3.02862">
        <ele>828</ele>
        <time>2026-04-30T11:18:54.000Z</time>
      </trkpt>
      <trkpt lat="43.97855" lon="3.02862">
        <ele>827.8</ele>
        <time>2026-04-30T11:18:55.000Z</time>
      </trkpt>
      <trkpt lat="43.97855" lon="3.02862">
        <ele>827.7</ele>
        <time>2026-04-30T11:18:56.000Z</time>
      </trkpt>
      <trkpt lat="43.97855" lon="3.02862">
        <ele>827.8</ele>
        <time>2026-04-30T11:18:57.000Z</time>
      </trkpt>
      <trkpt lat="43.97855" lon="3.02862">
        <ele>827.9</ele>
        <time>2026-04-30T11:18:58.000Z</time>
      </trkpt>
      <trkpt lat="43.97855" lon="3.02862">
        <ele>828.1</ele>
        <time>2026-04-30T11:18:59.000Z</time>
      </trkpt>
      <trkpt lat="43.97855" lon="3.02862">
        <ele>828.2</ele>
        <time>2026-04-30T11:19:00.000Z</time>
      </trkpt>
      <trkpt lat="43.97855" lon="3.02862">
        <ele>828.4</ele>
        <time>2026-04-30T11:19:01.000Z</time>
      </trkpt>
      <trkpt lat="43.97855" lon="3.02862">
        <ele>828.4</ele>
        <time>2026-04-30T11:19:02.000Z</time>
      </trkpt>
      <trkpt lat="43.97855" lon="3.02862">
        <ele>828.6</ele>
        <time>2026-04-30T11:19:03.000Z</time>
      </trkpt>
      <trkpt lat="43.97855" lon="3.02862">
        <ele>828.9</ele>
        <time>2026-04-30T11:19:04.000Z</time>
      </trkpt>
      <trkpt lat="43.97855" lon="3.02862">
        <ele>829.2</ele>
        <time>2026-04-30T11:19:05.000Z</time>
      </trkpt>
      <trkpt lat="43.97855" lon="3.02862">
        <ele>829.2</ele>
        <time>2026-04-30T11:19:06.000Z</time>
      </trkpt>
      <trkpt lat="43.97855" lon="3.02862">
        <ele>829</ele>
        <time>2026-04-30T11:19:07.000Z</time>
      </trkpt>
      <trkpt lat="43.97856" lon="3.02862">
        <ele>828.8</ele>
        <time>2026-04-30T11:19:08.000Z</time>
      </trkpt>
      <trkpt lat="43.97856" lon="3.02862">
        <ele>828.7</ele>
        <time>2026-04-30T11:19:09.000Z</time>
      </trkpt>
      <trkpt lat="43.97856" lon="3.02862">
        <ele>828.6</ele>
        <time>2026-04-30T11:19:10.000Z</time>
      </trkpt>
      <trkpt lat="43.97856" lon="3.02862">
        <ele>828.5</ele>
        <time>2026-04-30T11:19:11.000Z</time>
      </trkpt>
      <trkpt lat="43.97856" lon="3.02862">
        <ele>828.5</ele>
        <time>2026-04-30T11:19:12.000Z</time>
      </trkpt>
      <trkpt lat="43.97856" lon="3.02862">
        <ele>828.4</ele>
        <time>2026-04-30T11:19:13.000Z</time>
      </trkpt>
      <trkpt lat="43.97856" lon="3.02862">
        <ele>828.4</ele>
        <time>2026-04-30T11:19:14.000Z</time>
      </trkpt>
      <trkpt lat="43.97856" lon="3.02862">
        <ele>828.4</ele>
        <time>2026-04-30T11:19:15.000Z</time>
      </trkpt>
      <trkpt lat="43.97856" lon="3.02862">
        <ele>828.6</ele>
        <time>2026-04-30T11:19:16.000Z</time>
      </trkpt>
      <trkpt lat="43.97856" lon="3.02863">
        <ele>828.8</ele>
        <time>2026-04-30T11:19:17.000Z</time>
      </trkpt>
      <trkpt lat="43.97856" lon="3.02863">
        <ele>828.8</ele>
        <time>2026-04-30T11:19:18.000Z</time>
      </trkpt>
      <trkpt lat="43.97856" lon="3.02863">
        <ele>828.8</ele>
        <time>2026-04-30T11:19:19.000Z</time>
      </trkpt>
      <trkpt lat="43.97856" lon="3.02863">
        <ele>828.5</ele>
        <time>2026-04-30T11:19:20.000Z</time>
      </trkpt>
      <trkpt lat="43.97857" lon="3.02863">
        <ele>828.2</ele>
        <time>2026-04-30T11:19:21.000Z</time>
      </trkpt>
      <trkpt lat="43.97857" lon="3.02863">
        <ele>828</ele>
        <time>2026-04-30T11:19:22.000Z</time>
      </trkpt>
      <trkpt lat="43.97857" lon="3.02863">
        <ele>828</ele>
        <time>2026-04-30T11:19:23.000Z</time>
      </trkpt>
      <trkpt lat="43.97857" lon="3.02863">
        <ele>828</ele>
        <time>2026-04-30T11:19:24.000Z</time>
      </trkpt>
      <trkpt lat="43.97857" lon="3.02863">
        <ele>827.9</ele>
        <time>2026-04-30T11:19:25.000Z</time>
      </trkpt>
      <trkpt lat="43.97857" lon="3.02863">
        <ele>827.7</ele>
        <time>2026-04-30T11:19:26.000Z</time>
      </trkpt>
      <trkpt lat="43.97857" lon="3.02863">
        <ele>827.6</ele>
        <time>2026-04-30T11:19:27.000Z</time>
      </trkpt>
      <trkpt lat="43.97857" lon="3.02863">
        <ele>827.7</ele>
        <time>2026-04-30T11:19:28.000Z</time>
      </trkpt>
      <trkpt lat="43.97857" lon="3.02863">
        <ele>827.8</ele>
        <time>2026-04-30T11:19:29.000Z</time>
      </trkpt>
      <trkpt lat="43.97857" lon="3.02863">
        <ele>827.8</ele>
        <time>2026-04-30T11:19:30.000Z</time>
      </trkpt>
      <trkpt lat="43.97857" lon="3.02863">
        <ele>828.3</ele>
        <time>2026-04-30T11:19:31.000Z</time>
      </trkpt>
      <trkpt lat="43.97857" lon="3.02863">
        <ele>828.6</ele>
        <time>2026-04-30T11:19:32.000Z</time>
      </trkpt>
      <trkpt lat="43.97857" lon="3.02863">
        <ele>828.7</ele>
        <time>2026-04-30T11:19:33.000Z</time>
      </trkpt>
      <trkpt lat="43.97857" lon="3.02863">
        <ele>828.8</ele>
        <time>2026-04-30T11:19:34.000Z</time>
      </trkpt>
      <trkpt lat="43.97857" lon="3.02863">
        <ele>828.9</ele>
        <time>2026-04-30T11:19:35.000Z</time>
      </trkpt>
      <trkpt lat="43.97857" lon="3.02863">
        <ele>828.7</ele>
        <time>2026-04-30T11:19:36.000Z</time>
      </trkpt>
      <trkpt lat="43.97857" lon="3.02863">
        <ele>828.7</ele>
        <time>2026-04-30T11:19:37.000Z</time>
      </trkpt>
      <trkpt lat="43.97857" lon="3.02863">
        <ele>828.5</ele>
        <time>2026-04-30T11:19:38.000Z</time>
      </trkpt>
      <trkpt lat="43.97857" lon="3.02863">
        <ele>828.4</ele>
        <time>2026-04-30T11:19:39.000Z</time>
      </trkpt>
      <trkpt lat="43.97858" lon="3.02862">
        <ele>828.4</ele>
        <time>2026-04-30T11:19:40.000Z</time>
      </trkpt>
      <trkpt lat="43.97858" lon="3.02862">
        <ele>828.3</ele>
        <time>2026-04-30T11:19:41.000Z</time>
      </trkpt>
      <trkpt lat="43.97858" lon="3.02862">
        <ele>828.3</ele>
        <time>2026-04-30T11:19:42.000Z</time>
      </trkpt>
      <trkpt lat="43.97858" lon="3.02862">
        <ele>828.5</ele>
        <time>2026-04-30T11:19:43.000Z</time>
      </trkpt>
      <trkpt lat="43.97858" lon="3.02862">
        <ele>828.7</ele>
        <time>2026-04-30T11:19:44.000Z</time>
      </trkpt>
      <trkpt lat="43.97858" lon="3.02862">
        <ele>828.7</ele>
        <time>2026-04-30T11:19:45.000Z</time>
      </trkpt>
      <trkpt lat="43.97858" lon="3.02862">
        <ele>828.8</ele>
        <time>2026-04-30T11:19:46.000Z</time>
      </trkpt>
      <trkpt lat="43.97858" lon="3.02862">
        <ele>828.8</ele>
        <time>2026-04-30T11:19:47.000Z</time>
      </trkpt>
      <trkpt lat="43.97858" lon="3.02862">
        <ele>828.6</ele>
        <time>2026-04-30T11:19:48.000Z</time>
      </trkpt>
      <trkpt lat="43.97858" lon="3.02862">
        <ele>828.3</ele>
        <time>2026-04-30T11:19:49.000Z</time>
      </trkpt>
      <trkpt lat="43.97858" lon="3.02862">
        <ele>828.1</ele>
        <time>2026-04-30T11:19:50.000Z</time>
      </trkpt>
      <trkpt lat="43.97858" lon="3.02862">
        <ele>827.9</ele>
        <time>2026-04-30T11:19:51.000Z</time>
      </trkpt>
      <trkpt lat="43.97858" lon="3.02862">
        <ele>827.8</ele>
        <time>2026-04-30T11:19:52.000Z</time>
      </trkpt>
      <trkpt lat="43.97858" lon="3.02862">
        <ele>827.3</ele>
        <time>2026-04-30T11:19:53.000Z</time>
      </trkpt>
      <trkpt lat="43.97858" lon="3.02862">
        <ele>827</ele>
        <time>2026-04-30T11:19:54.000Z</time>
      </trkpt>
      <trkpt lat="43.97858" lon="3.02862">
        <ele>826.7</ele>
        <time>2026-04-30T11:19:55.000Z</time>
      </trkpt>
      <trkpt lat="43.97858" lon="3.02862">
        <ele>826.4</ele>
        <time>2026-04-30T11:19:56.000Z</time>
      </trkpt>
      <trkpt lat="43.97858" lon="3.02862">
        <ele>826.1</ele>
        <time>2026-04-30T11:19:57.000Z</time>
      </trkpt>
      <trkpt lat="43.97858" lon="3.02862">
        <ele>825.8</ele>
        <time>2026-04-30T11:19:58.000Z</time>
      </trkpt>
      <trkpt lat="43.97858" lon="3.02862">
        <ele>825.6</ele>
        <time>2026-04-30T11:19:59.000Z</time>
      </trkpt>
      <trkpt lat="43.97858" lon="3.02861">
        <ele>825.5</ele>
        <time>2026-04-30T11:20:00.000Z</time>
      </trkpt>
      <trkpt lat="43.97857" lon="3.0286">
        <ele>825.7</ele>
        <time>2026-04-30T11:20:01.000Z</time>
      </trkpt>
      <trkpt lat="43.97857" lon="3.02858">
        <ele>825.8</ele>
        <time>2026-04-30T11:20:02.000Z</time>
      </trkpt>
      <trkpt lat="43.97857" lon="3.02857">
        <ele>825.9</ele>
        <time>2026-04-30T11:20:03.000Z</time>
      </trkpt>
      <trkpt lat="43.97857" lon="3.02855">
        <ele>826</ele>
        <time>2026-04-30T11:20:04.000Z</time>
      </trkpt>
      <trkpt lat="43.97857" lon="3.02853">
        <ele>826.1</ele>
        <time>2026-04-30T11:20:05.000Z</time>
      </trkpt>
      <trkpt lat="43.97857" lon="3.02852">
        <ele>826.2</ele>
        <time>2026-04-30T11:20:06.000Z</time>
      </trkpt>
      <trkpt lat="43.97857" lon="3.02851">
        <ele>826.2</ele>
        <time>2026-04-30T11:20:07.000Z</time>
      </trkpt>
      <trkpt lat="43.97856" lon="3.02851">
        <ele>826.4</ele>
        <time>2026-04-30T11:20:08.000Z</time>
      </trkpt>
      <trkpt lat="43.97856" lon="3.0285">
        <ele>826.9</ele>
        <time>2026-04-30T11:20:09.000Z</time>
      </trkpt>
      <trkpt lat="43.97856" lon="3.0285">
        <ele>826.5</ele>
        <time>2026-04-30T11:20:10.000Z</time>
      </trkpt>
      <trkpt lat="43.97856" lon="3.0285">
        <ele>826.8</ele>
        <time>2026-04-30T11:20:11.000Z</time>
      </trkpt>
      <trkpt lat="43.97857" lon="3.0285">
        <ele>826.8</ele>
        <time>2026-04-30T11:20:12.000Z</time>
      </trkpt>
      <trkpt lat="43.97857" lon="3.02849">
        <ele>827</ele>
        <time>2026-04-30T11:20:13.000Z</time>
      </trkpt>
      <trkpt lat="43.97857" lon="3.02847">
        <ele>827</ele>
        <time>2026-04-30T11:20:14.000Z</time>
      </trkpt>
      <trkpt lat="43.97857" lon="3.02845">
        <ele>827</ele>
        <time>2026-04-30T11:20:15.000Z</time>
      </trkpt>
      <trkpt lat="43.97857" lon="3.02844">
        <ele>826.9</ele>
        <time>2026-04-30T11:20:16.000Z</time>
      </trkpt>
      <trkpt lat="43.97856" lon="3.02841">
        <ele>826.9</ele>
        <time>2026-04-30T11:20:17.000Z</time>
      </trkpt>
      <trkpt lat="43.97856" lon="3.02838">
        <ele>827.1</ele>
        <time>2026-04-30T11:20:18.000Z</time>
      </trkpt>
      <trkpt lat="43.97855" lon="3.02836">
        <ele>827.3</ele>
        <time>2026-04-30T11:20:19.000Z</time>
      </trkpt>
      <trkpt lat="43.97855" lon="3.02834">
        <ele>827.5</ele>
        <time>2026-04-30T11:20:20.000Z</time>
      </trkpt>
      <trkpt lat="43.97854" lon="3.02832">
        <ele>827.8</ele>
        <time>2026-04-30T11:20:21.000Z</time>
      </trkpt>
      <trkpt lat="43.97854" lon="3.02831">
        <ele>827.8</ele>
        <time>2026-04-30T11:20:22.000Z</time>
      </trkpt>
      <trkpt lat="43.97853" lon="3.0283">
        <ele>828</ele>
        <time>2026-04-30T11:20:23.000Z</time>
      </trkpt>
      <trkpt lat="43.97853" lon="3.02829">
        <ele>828.1</ele>
        <time>2026-04-30T11:20:24.000Z</time>
      </trkpt>
      <trkpt lat="43.97853" lon="3.02828">
        <ele>828.2</ele>
        <time>2026-04-30T11:20:25.000Z</time>
      </trkpt>
      <trkpt lat="43.97852" lon="3.02826">
        <ele>828.5</ele>
        <time>2026-04-30T11:20:26.000Z</time>
      </trkpt>
      <trkpt lat="43.97851" lon="3.02825">
        <ele>828.8</ele>
        <time>2026-04-30T11:20:27.000Z</time>
      </trkpt>
      <trkpt lat="43.9785" lon="3.02824">
        <ele>828.9</ele>
        <time>2026-04-30T11:20:28.000Z</time>
      </trkpt>
      <trkpt lat="43.97849" lon="3.02822">
        <ele>828.9</ele>
        <time>2026-04-30T11:20:29.000Z</time>
      </trkpt>
      <trkpt lat="43.97849" lon="3.02821">
        <ele>828.8</ele>
        <time>2026-04-30T11:20:30.000Z</time>
      </trkpt>
      <trkpt lat="43.97848" lon="3.02819">
        <ele>828.8</ele>
        <time>2026-04-30T11:20:31.000Z</time>
      </trkpt>
      <trkpt lat="43.97847" lon="3.02818">
        <ele>829</ele>
        <time>2026-04-30T11:20:32.000Z</time>
      </trkpt>
      <trkpt lat="43.97846" lon="3.02816">
        <ele>829.3</ele>
        <time>2026-04-30T11:20:33.000Z</time>
      </trkpt>
      <trkpt lat="43.97845" lon="3.02815">
        <ele>829.6</ele>
        <time>2026-04-30T11:20:34.000Z</time>
      </trkpt>
      <trkpt lat="43.97845" lon="3.02814">
        <ele>829.7</ele>
        <time>2026-04-30T11:20:35.000Z</time>
      </trkpt>
      <trkpt lat="43.97844" lon="3.02814">
        <ele>829.6</ele>
        <time>2026-04-30T11:20:36.000Z</time>
      </trkpt>
      <trkpt lat="43.97844" lon="3.02813">
        <ele>829.6</ele>
        <time>2026-04-30T11:20:37.000Z</time>
      </trkpt>
      <trkpt lat="43.97842" lon="3.02812">
        <ele>829.7</ele>
        <time>2026-04-30T11:20:38.000Z</time>
      </trkpt>
      <trkpt lat="43.97841" lon="3.02811">
        <ele>829.8</ele>
        <time>2026-04-30T11:20:39.000Z</time>
      </trkpt>
      <trkpt lat="43.9784" lon="3.0281">
        <ele>829.6</ele>
        <time>2026-04-30T11:20:40.000Z</time>
      </trkpt>
      <trkpt lat="43.97839" lon="3.02809">
        <ele>829.6</ele>
        <time>2026-04-30T11:20:41.000Z</time>
      </trkpt>
      <trkpt lat="43.97839" lon="3.02808">
        <ele>829.4</ele>
        <time>2026-04-30T11:20:42.000Z</time>
      </trkpt>
      <trkpt lat="43.97838" lon="3.02807">
        <ele>829.3</ele>
        <time>2026-04-30T11:20:43.000Z</time>
      </trkpt>
      <trkpt lat="43.97837" lon="3.02805">
        <ele>829.1</ele>
        <time>2026-04-30T11:20:44.000Z</time>
      </trkpt>
      <trkpt lat="43.97836" lon="3.02804">
        <ele>828.9</ele>
        <time>2026-04-30T11:20:45.000Z</time>
      </trkpt>
      <trkpt lat="43.97835" lon="3.02803">
        <ele>828.8</ele>
        <time>2026-04-30T11:20:46.000Z</time>
      </trkpt>
      <trkpt lat="43.97834" lon="3.02802">
        <ele>829.1</ele>
        <time>2026-04-30T11:20:47.000Z</time>
      </trkpt>
      <trkpt lat="43.97833" lon="3.028">
        <ele>829.1</ele>
        <time>2026-04-30T11:20:48.000Z</time>
      </trkpt>
      <trkpt lat="43.97833" lon="3.02799">
        <ele>829.3</ele>
        <time>2026-04-30T11:20:49.000Z</time>
      </trkpt>
      <trkpt lat="43.97832" lon="3.02798">
        <ele>829.4</ele>
        <time>2026-04-30T11:20:50.000Z</time>
      </trkpt>
      <trkpt lat="43.97832" lon="3.02798">
        <ele>829.3</ele>
        <time>2026-04-30T11:20:51.000Z</time>
      </trkpt>
      <trkpt lat="43.97831" lon="3.02797">
        <ele>829.2</ele>
        <time>2026-04-30T11:20:52.000Z</time>
      </trkpt>
      <trkpt lat="43.9783" lon="3.02796">
        <ele>829.3</ele>
        <time>2026-04-30T11:20:53.000Z</time>
      </trkpt>
      <trkpt lat="43.97829" lon="3.02795">
        <ele>829.5</ele>
        <time>2026-04-30T11:20:54.000Z</time>
      </trkpt>
      <trkpt lat="43.97828" lon="3.02793">
        <ele>829.6</ele>
        <time>2026-04-30T11:20:55.000Z</time>
      </trkpt>
      <trkpt lat="43.97827" lon="3.02792">
        <ele>829.4</ele>
        <time>2026-04-30T11:20:56.000Z</time>
      </trkpt>
      <trkpt lat="43.97827" lon="3.02791">
        <ele>829.3</ele>
        <time>2026-04-30T11:20:57.000Z</time>
      </trkpt>
      <trkpt lat="43.97826" lon="3.0279">
        <ele>829.1</ele>
        <time>2026-04-30T11:20:58.000Z</time>
      </trkpt>
      <trkpt lat="43.97825" lon="3.02789">
        <ele>829</ele>
        <time>2026-04-30T11:20:59.000Z</time>
      </trkpt>
      <trkpt lat="43.97825" lon="3.02787">
        <ele>828.9</ele>
        <time>2026-04-30T11:21:00.000Z</time>
      </trkpt>
      <trkpt lat="43.97825" lon="3.02786">
        <ele>829</ele>
        <time>2026-04-30T11:21:01.000Z</time>
      </trkpt>
      <trkpt lat="43.97824" lon="3.02784">
        <ele>829.2</ele>
        <time>2026-04-30T11:21:02.000Z</time>
      </trkpt>
      <trkpt lat="43.97824" lon="3.02783">
        <ele>829.5</ele>
        <time>2026-04-30T11:21:03.000Z</time>
      </trkpt>
      <trkpt lat="43.97824" lon="3.02781">
        <ele>829.8</ele>
        <time>2026-04-30T11:21:04.000Z</time>
      </trkpt>
      <trkpt lat="43.97824" lon="3.02779">
        <ele>830.1</ele>
        <time>2026-04-30T11:21:05.000Z</time>
      </trkpt>
      <trkpt lat="43.97823" lon="3.02777">
        <ele>830.5</ele>
        <time>2026-04-30T11:21:06.000Z</time>
      </trkpt>
      <trkpt lat="43.97823" lon="3.02775">
        <ele>831</ele>
        <time>2026-04-30T11:21:07.000Z</time>
      </trkpt>
      <trkpt lat="43.97823" lon="3.02773">
        <ele>831.3</ele>
        <time>2026-04-30T11:21:08.000Z</time>
      </trkpt>
      <trkpt lat="43.97823" lon="3.02772">
        <ele>831.6</ele>
        <time>2026-04-30T11:21:09.000Z</time>
      </trkpt>
      <trkpt lat="43.97823" lon="3.02771">
        <ele>831.8</ele>
        <time>2026-04-30T11:21:10.000Z</time>
      </trkpt>
      <trkpt lat="43.97823" lon="3.02769">
        <ele>832</ele>
        <time>2026-04-30T11:21:11.000Z</time>
      </trkpt>
      <trkpt lat="43.97823" lon="3.02768">
        <ele>832.1</ele>
        <time>2026-04-30T11:21:12.000Z</time>
      </trkpt>
      <trkpt lat="43.97823" lon="3.02766">
        <ele>832.1</ele>
        <time>2026-04-30T11:21:13.000Z</time>
      </trkpt>
      <trkpt lat="43.97824" lon="3.02765">
        <ele>832.1</ele>
        <time>2026-04-30T11:21:14.000Z</time>
      </trkpt>
      <trkpt lat="43.97824" lon="3.02765">
        <ele>832.1</ele>
        <time>2026-04-30T11:21:15.000Z</time>
      </trkpt>
      <trkpt lat="43.97823" lon="3.02763">
        <ele>832.2</ele>
        <time>2026-04-30T11:21:16.000Z</time>
      </trkpt>
      <trkpt lat="43.97823" lon="3.02761">
        <ele>832</ele>
        <time>2026-04-30T11:21:17.000Z</time>
      </trkpt>
      <trkpt lat="43.97824" lon="3.02759">
        <ele>832</ele>
        <time>2026-04-30T11:21:18.000Z</time>
      </trkpt>
      <trkpt lat="43.97824" lon="3.02757">
        <ele>831.9</ele>
        <time>2026-04-30T11:21:19.000Z</time>
      </trkpt>
      <trkpt lat="43.97824" lon="3.02756">
        <ele>831.9</ele>
        <time>2026-04-30T11:21:20.000Z</time>
      </trkpt>
      <trkpt lat="43.97825" lon="3.02755">
        <ele>831.9</ele>
        <time>2026-04-30T11:21:21.000Z</time>
      </trkpt>
      <trkpt lat="43.97825" lon="3.02753">
        <ele>832.1</ele>
        <time>2026-04-30T11:21:22.000Z</time>
      </trkpt>
      <trkpt lat="43.97826" lon="3.02751">
        <ele>832.1</ele>
        <time>2026-04-30T11:21:23.000Z</time>
      </trkpt>
      <trkpt lat="43.97826" lon="3.0275">
        <ele>832.2</ele>
        <time>2026-04-30T11:21:24.000Z</time>
      </trkpt>
      <trkpt lat="43.97826" lon="3.02749">
        <ele>832.5</ele>
        <time>2026-04-30T11:21:25.000Z</time>
      </trkpt>
      <trkpt lat="43.97827" lon="3.02748">
        <ele>832.4</ele>
        <time>2026-04-30T11:21:26.000Z</time>
      </trkpt>
      <trkpt lat="43.97827" lon="3.02746">
        <ele>832.4</ele>
        <time>2026-04-30T11:21:27.000Z</time>
      </trkpt>
      <trkpt lat="43.97827" lon="3.02744">
        <ele>832.4</ele>
        <time>2026-04-30T11:21:28.000Z</time>
      </trkpt>
      <trkpt lat="43.97827" lon="3.02743">
        <ele>832.7</ele>
        <time>2026-04-30T11:21:29.000Z</time>
      </trkpt>
      <trkpt lat="43.97828" lon="3.02741">
        <ele>832.7</ele>
        <time>2026-04-30T11:21:30.000Z</time>
      </trkpt>
      <trkpt lat="43.97828" lon="3.0274">
        <ele>832.8</ele>
        <time>2026-04-30T11:21:31.000Z</time>
      </trkpt>
      <trkpt lat="43.97828" lon="3.02738">
        <ele>832.8</ele>
        <time>2026-04-30T11:21:32.000Z</time>
      </trkpt>
      <trkpt lat="43.97828" lon="3.02736">
        <ele>832.9</ele>
        <time>2026-04-30T11:21:33.000Z</time>
      </trkpt>
      <trkpt lat="43.97828" lon="3.02734">
        <ele>832.9</ele>
        <time>2026-04-30T11:21:34.000Z</time>
      </trkpt>
      <trkpt lat="43.97828" lon="3.02733">
        <ele>832.8</ele>
        <time>2026-04-30T11:21:35.000Z</time>
      </trkpt>
      <trkpt lat="43.97828" lon="3.02731">
        <ele>832.8</ele>
        <time>2026-04-30T11:21:36.000Z</time>
      </trkpt>
      <trkpt lat="43.97828" lon="3.0273">
        <ele>833.1</ele>
        <time>2026-04-30T11:21:37.000Z</time>
      </trkpt>
      <trkpt lat="43.97827" lon="3.02728">
        <ele>833.3</ele>
        <time>2026-04-30T11:21:38.000Z</time>
      </trkpt>
      <trkpt lat="43.97827" lon="3.02727">
        <ele>833.3</ele>
        <time>2026-04-30T11:21:39.000Z</time>
      </trkpt>
      <trkpt lat="43.97826" lon="3.02726">
        <ele>833.5</ele>
        <time>2026-04-30T11:21:40.000Z</time>
      </trkpt>
      <trkpt lat="43.97825" lon="3.02725">
        <ele>833.7</ele>
        <time>2026-04-30T11:21:41.000Z</time>
      </trkpt>
      <trkpt lat="43.97823" lon="3.02723">
        <ele>834</ele>
        <time>2026-04-30T11:21:42.000Z</time>
      </trkpt>
      <trkpt lat="43.97822" lon="3.02721">
        <ele>834.4</ele>
        <time>2026-04-30T11:21:43.000Z</time>
      </trkpt>
      <trkpt lat="43.97821" lon="3.0272">
        <ele>834.7</ele>
        <time>2026-04-30T11:21:44.000Z</time>
      </trkpt>
      <trkpt lat="43.9782" lon="3.02719">
        <ele>834.4</ele>
        <time>2026-04-30T11:21:45.000Z</time>
      </trkpt>
      <trkpt lat="43.97819" lon="3.02718">
        <ele>834.4</ele>
        <time>2026-04-30T11:21:46.000Z</time>
      </trkpt>
      <trkpt lat="43.97818" lon="3.02717">
        <ele>834.3</ele>
        <time>2026-04-30T11:21:47.000Z</time>
      </trkpt>
      <trkpt lat="43.97817" lon="3.02716">
        <ele>834.2</ele>
        <time>2026-04-30T11:21:48.000Z</time>
      </trkpt>
      <trkpt lat="43.97817" lon="3.02715">
        <ele>834.4</ele>
        <time>2026-04-30T11:21:49.000Z</time>
      </trkpt>
      <trkpt lat="43.97816" lon="3.02714">
        <ele>834.5</ele>
        <time>2026-04-30T11:21:50.000Z</time>
      </trkpt>
      <trkpt lat="43.97815" lon="3.02712">
        <ele>834.5</ele>
        <time>2026-04-30T11:21:51.000Z</time>
      </trkpt>
      <trkpt lat="43.97815" lon="3.02711">
        <ele>834.5</ele>
        <time>2026-04-30T11:21:52.000Z</time>
      </trkpt>
      <trkpt lat="43.97814" lon="3.0271">
        <ele>834.5</ele>
        <time>2026-04-30T11:21:53.000Z</time>
      </trkpt>
      <trkpt lat="43.97814" lon="3.02708">
        <ele>834.3</ele>
        <time>2026-04-30T11:21:54.000Z</time>
      </trkpt>
      <trkpt lat="43.97814" lon="3.02707">
        <ele>834</ele>
        <time>2026-04-30T11:21:55.000Z</time>
      </trkpt>
      <trkpt lat="43.97813" lon="3.02705">
        <ele>833.6</ele>
        <time>2026-04-30T11:21:56.000Z</time>
      </trkpt>
      <trkpt lat="43.97812" lon="3.02703">
        <ele>833.4</ele>
        <time>2026-04-30T11:21:57.000Z</time>
      </trkpt>
      <trkpt lat="43.97812" lon="3.02701">
        <ele>833.5</ele>
        <time>2026-04-30T11:21:58.000Z</time>
      </trkpt>
      <trkpt lat="43.97811" lon="3.02699">
        <ele>833.9</ele>
        <time>2026-04-30T11:21:59.000Z</time>
      </trkpt>
      <trkpt lat="43.97811" lon="3.02698">
        <ele>834.4</ele>
        <time>2026-04-30T11:22:00.000Z</time>
      </trkpt>
      <trkpt lat="43.9781" lon="3.02697">
        <ele>834.5</ele>
        <time>2026-04-30T11:22:01.000Z</time>
      </trkpt>
      <trkpt lat="43.97809" lon="3.02697">
        <ele>834.7</ele>
        <time>2026-04-30T11:22:02.000Z</time>
      </trkpt>
      <trkpt lat="43.97809" lon="3.02695">
        <ele>834.6</ele>
        <time>2026-04-30T11:22:03.000Z</time>
      </trkpt>
      <trkpt lat="43.97808" lon="3.02694">
        <ele>834.4</ele>
        <time>2026-04-30T11:22:04.000Z</time>
      </trkpt>
      <trkpt lat="43.97809" lon="3.02692">
        <ele>834.6</ele>
        <time>2026-04-30T11:22:05.000Z</time>
      </trkpt>
      <trkpt lat="43.97809" lon="3.02691">
        <ele>834.7</ele>
        <time>2026-04-30T11:22:06.000Z</time>
      </trkpt>
      <trkpt lat="43.97808" lon="3.0269">
        <ele>834.7</ele>
        <time>2026-04-30T11:22:07.000Z</time>
      </trkpt>
      <trkpt lat="43.97808" lon="3.0269">
        <ele>834.5</ele>
        <time>2026-04-30T11:22:08.000Z</time>
      </trkpt>
      <trkpt lat="43.97807" lon="3.0269">
        <ele>834.4</ele>
        <time>2026-04-30T11:22:09.000Z</time>
      </trkpt>
      <trkpt lat="43.97807" lon="3.0269">
        <ele>834.4</ele>
        <time>2026-04-30T11:22:10.000Z</time>
      </trkpt>
      <trkpt lat="43.97807" lon="3.02691">
        <ele>834.6</ele>
        <time>2026-04-30T11:22:11.000Z</time>
      </trkpt>
      <trkpt lat="43.97807" lon="3.02691">
        <ele>834.5</ele>
        <time>2026-04-30T11:22:12.000Z</time>
      </trkpt>
      <trkpt lat="43.97807" lon="3.02691">
        <ele>834.2</ele>
        <time>2026-04-30T11:22:13.000Z</time>
      </trkpt>
      <trkpt lat="43.97807" lon="3.02689">
        <ele>834.3</ele>
        <time>2026-04-30T11:22:14.000Z</time>
      </trkpt>
      <trkpt lat="43.97806" lon="3.02687">
        <ele>834.2</ele>
        <time>2026-04-30T11:22:15.000Z</time>
      </trkpt>
      <trkpt lat="43.97806" lon="3.02685">
        <ele>834.3</ele>
        <time>2026-04-30T11:22:16.000Z</time>
      </trkpt>
      <trkpt lat="43.97806" lon="3.02684">
        <ele>834.5</ele>
        <time>2026-04-30T11:22:17.000Z</time>
      </trkpt>
      <trkpt lat="43.97805" lon="3.02682">
        <ele>834.6</ele>
        <time>2026-04-30T11:22:18.000Z</time>
      </trkpt>
      <trkpt lat="43.97805" lon="3.02679">
        <ele>834.6</ele>
        <time>2026-04-30T11:22:19.000Z</time>
      </trkpt>
      <trkpt lat="43.97804" lon="3.02677">
        <ele>834.3</ele>
        <time>2026-04-30T11:22:20.000Z</time>
      </trkpt>
      <trkpt lat="43.97804" lon="3.02675">
        <ele>834.1</ele>
        <time>2026-04-30T11:22:21.000Z</time>
      </trkpt>
      <trkpt lat="43.97804" lon="3.02674">
        <ele>834</ele>
        <time>2026-04-30T11:22:22.000Z</time>
      </trkpt>
      <trkpt lat="43.97804" lon="3.02672">
        <ele>833.8</ele>
        <time>2026-04-30T11:22:23.000Z</time>
      </trkpt>
      <trkpt lat="43.97803" lon="3.0267">
        <ele>833.8</ele>
        <time>2026-04-30T11:22:24.000Z</time>
      </trkpt>
      <trkpt lat="43.97803" lon="3.02669">
        <ele>833.9</ele>
        <time>2026-04-30T11:22:25.000Z</time>
      </trkpt>
      <trkpt lat="43.97803" lon="3.02667">
        <ele>833.5</ele>
        <time>2026-04-30T11:22:26.000Z</time>
      </trkpt>
      <trkpt lat="43.97803" lon="3.02666">
        <ele>833.3</ele>
        <time>2026-04-30T11:22:27.000Z</time>
      </trkpt>
      <trkpt lat="43.97803" lon="3.02665">
        <ele>833.3</ele>
        <time>2026-04-30T11:22:28.000Z</time>
      </trkpt>
      <trkpt lat="43.97803" lon="3.02663">
        <ele>833.6</ele>
        <time>2026-04-30T11:22:29.000Z</time>
      </trkpt>
      <trkpt lat="43.97803" lon="3.02661">
        <ele>834</ele>
        <time>2026-04-30T11:22:30.000Z</time>
      </trkpt>
      <trkpt lat="43.97803" lon="3.02659">
        <ele>834.4</ele>
        <time>2026-04-30T11:22:31.000Z</time>
      </trkpt>
      <trkpt lat="43.97803" lon="3.02656">
        <ele>834.6</ele>
        <time>2026-04-30T11:22:32.000Z</time>
      </trkpt>
      <trkpt lat="43.97803" lon="3.02654">
        <ele>835</ele>
        <time>2026-04-30T11:22:33.000Z</time>
      </trkpt>
      <trkpt lat="43.97803" lon="3.02652">
        <ele>835.1</ele>
        <time>2026-04-30T11:22:34.000Z</time>
      </trkpt>
      <trkpt lat="43.97803" lon="3.02651">
        <ele>835.2</ele>
        <time>2026-04-30T11:22:35.000Z</time>
      </trkpt>
      <trkpt lat="43.97803" lon="3.0265">
        <ele>835.2</ele>
        <time>2026-04-30T11:22:36.000Z</time>
      </trkpt>
      <trkpt lat="43.97802" lon="3.02648">
        <ele>835.4</ele>
        <time>2026-04-30T11:22:37.000Z</time>
      </trkpt>
      <trkpt lat="43.97803" lon="3.02646">
        <ele>835.7</ele>
        <time>2026-04-30T11:22:38.000Z</time>
      </trkpt>
      <trkpt lat="43.97803" lon="3.02645">
        <ele>836</ele>
        <time>2026-04-30T11:22:39.000Z</time>
      </trkpt>
      <trkpt lat="43.97802" lon="3.02643">
        <ele>836.2</ele>
        <time>2026-04-30T11:22:40.000Z</time>
      </trkpt>
      <trkpt lat="43.97802" lon="3.02643">
        <ele>836.5</ele>
        <time>2026-04-30T11:22:41.000Z</time>
      </trkpt>
      <trkpt lat="43.97801" lon="3.02641">
        <ele>836.7</ele>
        <time>2026-04-30T11:22:42.000Z</time>
      </trkpt>
      <trkpt lat="43.97801" lon="3.02639">
        <ele>837.1</ele>
        <time>2026-04-30T11:22:43.000Z</time>
      </trkpt>
      <trkpt lat="43.978" lon="3.02638">
        <ele>837.1</ele>
        <time>2026-04-30T11:22:44.000Z</time>
      </trkpt>
      <trkpt lat="43.97799" lon="3.02635">
        <ele>837.3</ele>
        <time>2026-04-30T11:22:45.000Z</time>
      </trkpt>
      <trkpt lat="43.97799" lon="3.02633">
        <ele>837.3</ele>
        <time>2026-04-30T11:22:46.000Z</time>
      </trkpt>
      <trkpt lat="43.97799" lon="3.02632">
        <ele>837.3</ele>
        <time>2026-04-30T11:22:47.000Z</time>
      </trkpt>
      <trkpt lat="43.97798" lon="3.02631">
        <ele>837.1</ele>
        <time>2026-04-30T11:22:48.000Z</time>
      </trkpt>
      <trkpt lat="43.97797" lon="3.0263">
        <ele>837</ele>
        <time>2026-04-30T11:22:49.000Z</time>
      </trkpt>
      <trkpt lat="43.97797" lon="3.02629">
        <ele>837.1</ele>
        <time>2026-04-30T11:22:50.000Z</time>
      </trkpt>
      <trkpt lat="43.97796" lon="3.02627">
        <ele>837.2</ele>
        <time>2026-04-30T11:22:51.000Z</time>
      </trkpt>
      <trkpt lat="43.97795" lon="3.02626">
        <ele>837.4</ele>
        <time>2026-04-30T11:22:52.000Z</time>
      </trkpt>
      <trkpt lat="43.97794" lon="3.02624">
        <ele>837.9</ele>
        <time>2026-04-30T11:22:53.000Z</time>
      </trkpt>
      <trkpt lat="43.97794" lon="3.02624">
        <ele>838.2</ele>
        <time>2026-04-30T11:22:54.000Z</time>
      </trkpt>
      <trkpt lat="43.97793" lon="3.02623">
        <ele>838.3</ele>
        <time>2026-04-30T11:22:55.000Z</time>
      </trkpt>
      <trkpt lat="43.97792" lon="3.02622">
        <ele>838.5</ele>
        <time>2026-04-30T11:22:56.000Z</time>
      </trkpt>
      <trkpt lat="43.97792" lon="3.0262">
        <ele>838.6</ele>
        <time>2026-04-30T11:22:57.000Z</time>
      </trkpt>
      <trkpt lat="43.97791" lon="3.02619">
        <ele>838.5</ele>
        <time>2026-04-30T11:22:58.000Z</time>
      </trkpt>
      <trkpt lat="43.97791" lon="3.02618">
        <ele>838.2</ele>
        <time>2026-04-30T11:22:59.000Z</time>
      </trkpt>
      <trkpt lat="43.9779" lon="3.02616">
        <ele>838</ele>
        <time>2026-04-30T11:23:00.000Z</time>
      </trkpt>
      <trkpt lat="43.97789" lon="3.02615">
        <ele>838.3</ele>
        <time>2026-04-30T11:23:01.000Z</time>
      </trkpt>
      <trkpt lat="43.97789" lon="3.02613">
        <ele>838.5</ele>
        <time>2026-04-30T11:23:02.000Z</time>
      </trkpt>
      <trkpt lat="43.97788" lon="3.02611">
        <ele>838.6</ele>
        <time>2026-04-30T11:23:03.000Z</time>
      </trkpt>
      <trkpt lat="43.97787" lon="3.0261">
        <ele>838.7</ele>
        <time>2026-04-30T11:23:04.000Z</time>
      </trkpt>
      <trkpt lat="43.97787" lon="3.02608">
        <ele>838.8</ele>
        <time>2026-04-30T11:23:05.000Z</time>
      </trkpt>
      <trkpt lat="43.97787" lon="3.02607">
        <ele>838.8</ele>
        <time>2026-04-30T11:23:06.000Z</time>
      </trkpt>
      <trkpt lat="43.97786" lon="3.02606">
        <ele>838.9</ele>
        <time>2026-04-30T11:23:07.000Z</time>
      </trkpt>
      <trkpt lat="43.97786" lon="3.02604">
        <ele>838.9</ele>
        <time>2026-04-30T11:23:08.000Z</time>
      </trkpt>
      <trkpt lat="43.97785" lon="3.02602">
        <ele>838.9</ele>
        <time>2026-04-30T11:23:09.000Z</time>
      </trkpt>
      <trkpt lat="43.97785" lon="3.026">
        <ele>839</ele>
        <time>2026-04-30T11:23:10.000Z</time>
      </trkpt>
      <trkpt lat="43.97784" lon="3.02599">
        <ele>839.2</ele>
        <time>2026-04-30T11:23:11.000Z</time>
      </trkpt>
      <trkpt lat="43.97784" lon="3.02597">
        <ele>839.4</ele>
        <time>2026-04-30T11:23:12.000Z</time>
      </trkpt>
      <trkpt lat="43.97783" lon="3.02595">
        <ele>839.8</ele>
        <time>2026-04-30T11:23:13.000Z</time>
      </trkpt>
      <trkpt lat="43.97782" lon="3.02594">
        <ele>840.2</ele>
        <time>2026-04-30T11:23:14.000Z</time>
      </trkpt>
      <trkpt lat="43.97782" lon="3.02593">
        <ele>840.3</ele>
        <time>2026-04-30T11:23:15.000Z</time>
      </trkpt>
      <trkpt lat="43.97782" lon="3.02594">
        <ele>840.5</ele>
        <time>2026-04-30T11:23:16.000Z</time>
      </trkpt>
      <trkpt lat="43.97782" lon="3.02595">
        <ele>840.3</ele>
        <time>2026-04-30T11:23:17.000Z</time>
      </trkpt>
      <trkpt lat="43.97782" lon="3.02596">
        <ele>840.1</ele>
        <time>2026-04-30T11:23:18.000Z</time>
      </trkpt>
      <trkpt lat="43.97782" lon="3.02596">
        <ele>840.2</ele>
        <time>2026-04-30T11:23:19.000Z</time>
      </trkpt>
      <trkpt lat="43.97782" lon="3.02596">
        <ele>840.5</ele>
        <time>2026-04-30T11:23:20.000Z</time>
      </trkpt>
      <trkpt lat="43.97782" lon="3.02596">
        <ele>840.7</ele>
        <time>2026-04-30T11:23:21.000Z</time>
      </trkpt>
      <trkpt lat="43.97782" lon="3.02596">
        <ele>840.6</ele>
        <time>2026-04-30T11:23:22.000Z</time>
      </trkpt>
      <trkpt lat="43.97782" lon="3.02596">
        <ele>840.3</ele>
        <time>2026-04-30T11:23:23.000Z</time>
      </trkpt>
      <trkpt lat="43.97782" lon="3.02596">
        <ele>840.3</ele>
        <time>2026-04-30T11:23:24.000Z</time>
      </trkpt>
      <trkpt lat="43.97782" lon="3.02596">
        <ele>840.3</ele>
        <time>2026-04-30T11:23:25.000Z</time>
      </trkpt>
      <trkpt lat="43.97782" lon="3.02596">
        <ele>840.2</ele>
        <time>2026-04-30T11:23:26.000Z</time>
      </trkpt>
      <trkpt lat="43.97782" lon="3.02596">
        <ele>840.2</ele>
        <time>2026-04-30T11:23:27.000Z</time>
      </trkpt>
      <trkpt lat="43.97782" lon="3.02596">
        <ele>840.2</ele>
        <time>2026-04-30T11:23:28.000Z</time>
      </trkpt>
      <trkpt lat="43.97782" lon="3.02596">
        <ele>840.2</ele>
        <time>2026-04-30T11:23:29.000Z</time>
      </trkpt>
      <trkpt lat="43.97782" lon="3.02596">
        <ele>840.1</ele>
        <time>2026-04-30T11:23:30.000Z</time>
      </trkpt>
      <trkpt lat="43.97782" lon="3.02596">
        <ele>839.9</ele>
        <time>2026-04-30T11:23:31.000Z</time>
      </trkpt>
      <trkpt lat="43.97782" lon="3.02596">
        <ele>839.5</ele>
        <time>2026-04-30T11:23:32.000Z</time>
      </trkpt>
      <trkpt lat="43.97782" lon="3.02596">
        <ele>839.2</ele>
        <time>2026-04-30T11:23:33.000Z</time>
      </trkpt>
      <trkpt lat="43.97782" lon="3.02596">
        <ele>839</ele>
        <time>2026-04-30T11:23:34.000Z</time>
      </trkpt>
      <trkpt lat="43.97782" lon="3.02596">
        <ele>839</ele>
        <time>2026-04-30T11:23:35.000Z</time>
      </trkpt>
      <trkpt lat="43.97782" lon="3.02596">
        <ele>839.3</ele>
        <time>2026-04-30T11:23:36.000Z</time>
      </trkpt>
      <trkpt lat="43.97782" lon="3.02596">
        <ele>839.6</ele>
        <time>2026-04-30T11:23:37.000Z</time>
      </trkpt>
      <trkpt lat="43.97782" lon="3.02596">
        <ele>839.6</ele>
        <time>2026-04-30T11:23:38.000Z</time>
      </trkpt>
      <trkpt lat="43.97782" lon="3.02595">
        <ele>839.6</ele>
        <time>2026-04-30T11:23:39.000Z</time>
      </trkpt>
      <trkpt lat="43.97782" lon="3.02595">
        <ele>839.9</ele>
        <time>2026-04-30T11:23:40.000Z</time>
      </trkpt>
      <trkpt lat="43.97782" lon="3.02595">
        <ele>839.9</ele>
        <time>2026-04-30T11:23:41.000Z</time>
      </trkpt>
      <trkpt lat="43.97782" lon="3.02595">
        <ele>840.2</ele>
        <time>2026-04-30T11:23:42.000Z</time>
      </trkpt>
      <trkpt lat="43.97782" lon="3.02595">
        <ele>840.4</ele>
        <time>2026-04-30T11:23:43.000Z</time>
      </trkpt>
      <trkpt lat="43.97782" lon="3.02596">
        <ele>840.5</ele>
        <time>2026-04-30T11:23:44.000Z</time>
      </trkpt>
      <trkpt lat="43.97782" lon="3.02596">
        <ele>840.6</ele>
        <time>2026-04-30T11:23:45.000Z</time>
      </trkpt>
      <trkpt lat="43.97782" lon="3.02596">
        <ele>840.6</ele>
        <time>2026-04-30T11:23:46.000Z</time>
      </trkpt>
      <trkpt lat="43.97782" lon="3.02595">
        <ele>840.7</ele>
        <time>2026-04-30T11:23:47.000Z</time>
      </trkpt>
      <trkpt lat="43.97781" lon="3.02595">
        <ele>840.7</ele>
        <time>2026-04-30T11:23:48.000Z</time>
      </trkpt>
      <trkpt lat="43.97781" lon="3.02595">
        <ele>840.9</ele>
        <time>2026-04-30T11:23:49.000Z</time>
      </trkpt>
      <trkpt lat="43.97781" lon="3.02595">
        <ele>841</ele>
        <time>2026-04-30T11:23:50.000Z</time>
      </trkpt>
      <trkpt lat="43.97781" lon="3.02595">
        <ele>841.1</ele>
        <time>2026-04-30T11:23:51.000Z</time>
      </trkpt>
      <trkpt lat="43.97781" lon="3.02595">
        <ele>841.2</ele>
        <time>2026-04-30T11:23:52.000Z</time>
      </trkpt>
      <trkpt lat="43.97781" lon="3.02595">
        <ele>841.1</ele>
        <time>2026-04-30T11:23:53.000Z</time>
      </trkpt>
      <trkpt lat="43.97781" lon="3.02595">
        <ele>840.9</ele>
        <time>2026-04-30T11:23:54.000Z</time>
      </trkpt>
      <trkpt lat="43.97781" lon="3.02595">
        <ele>840.9</ele>
        <time>2026-04-30T11:23:55.000Z</time>
      </trkpt>
      <trkpt lat="43.97781" lon="3.02595">
        <ele>840.8</ele>
        <time>2026-04-30T11:23:56.000Z</time>
      </trkpt>
      <trkpt lat="43.97781" lon="3.02595">
        <ele>841</ele>
        <time>2026-04-30T11:23:57.000Z</time>
      </trkpt>
      <trkpt lat="43.97781" lon="3.02596">
        <ele>841.2</ele>
        <time>2026-04-30T11:23:58.000Z</time>
      </trkpt>
      <trkpt lat="43.97781" lon="3.02596">
        <ele>841.2</ele>
        <time>2026-04-30T11:23:59.000Z</time>
      </trkpt>
      <trkpt lat="43.97781" lon="3.02596">
        <ele>841.2</ele>
        <time>2026-04-30T11:24:00.000Z</time>
      </trkpt>
      <trkpt lat="43.97781" lon="3.02596">
        <ele>841.2</ele>
        <time>2026-04-30T11:24:01.000Z</time>
      </trkpt>
      <trkpt lat="43.97781" lon="3.02596">
        <ele>841.4</ele>
        <time>2026-04-30T11:24:02.000Z</time>
      </trkpt>
      <trkpt lat="43.97781" lon="3.02596">
        <ele>841.4</ele>
        <time>2026-04-30T11:24:03.000Z</time>
      </trkpt>
      <trkpt lat="43.97781" lon="3.02596">
        <ele>841.3</ele>
        <time>2026-04-30T11:24:04.000Z</time>
      </trkpt>
      <trkpt lat="43.97781" lon="3.02596">
        <ele>841.2</ele>
        <time>2026-04-30T11:24:05.000Z</time>
      </trkpt>
      <trkpt lat="43.97781" lon="3.02596">
        <ele>841</ele>
        <time>2026-04-30T11:24:06.000Z</time>
      </trkpt>
      <trkpt lat="43.97781" lon="3.02596">
        <ele>840.8</ele>
        <time>2026-04-30T11:24:07.000Z</time>
      </trkpt>
      <trkpt lat="43.97781" lon="3.02596">
        <ele>840.7</ele>
        <time>2026-04-30T11:24:08.000Z</time>
      </trkpt>
      <trkpt lat="43.97781" lon="3.02596">
        <ele>840.4</ele>
        <time>2026-04-30T11:24:09.000Z</time>
      </trkpt>
      <trkpt lat="43.97781" lon="3.02596">
        <ele>840.2</ele>
        <time>2026-04-30T11:24:10.000Z</time>
      </trkpt>
      <trkpt lat="43.97781" lon="3.02596">
        <ele>840.2</ele>
        <time>2026-04-30T11:24:11.000Z</time>
      </trkpt>
      <trkpt lat="43.97781" lon="3.02596">
        <ele>840.2</ele>
        <time>2026-04-30T11:24:12.000Z</time>
      </trkpt>
      <trkpt lat="43.97781" lon="3.02596">
        <ele>840.2</ele>
        <time>2026-04-30T11:24:13.000Z</time>
      </trkpt>
      <trkpt lat="43.97782" lon="3.02595">
        <ele>840.1</ele>
        <time>2026-04-30T11:24:14.000Z</time>
      </trkpt>
      <trkpt lat="43.97782" lon="3.02595">
        <ele>840.1</ele>
        <time>2026-04-30T11:24:15.000Z</time>
      </trkpt>
      <trkpt lat="43.97782" lon="3.02595">
        <ele>840</ele>
        <time>2026-04-30T11:24:16.000Z</time>
      </trkpt>
      <trkpt lat="43.97782" lon="3.02595">
        <ele>840</ele>
        <time>2026-04-30T11:24:17.000Z</time>
      </trkpt>
      <trkpt lat="43.97782" lon="3.02595">
        <ele>840.1</ele>
        <time>2026-04-30T11:24:18.000Z</time>
      </trkpt>
      <trkpt lat="43.97782" lon="3.02596">
        <ele>840.2</ele>
        <time>2026-04-30T11:24:19.000Z</time>
      </trkpt>
      <trkpt lat="43.97782" lon="3.02596">
        <ele>840.2</ele>
        <time>2026-04-30T11:24:20.000Z</time>
      </trkpt>
      <trkpt lat="43.97782" lon="3.02596">
        <ele>840.4</ele>
        <time>2026-04-30T11:24:21.000Z</time>
      </trkpt>
      <trkpt lat="43.97782" lon="3.02596">
        <ele>840.5</ele>
        <time>2026-04-30T11:24:22.000Z</time>
      </trkpt>
      <trkpt lat="43.97782" lon="3.02596">
        <ele>840.3</ele>
        <time>2026-04-30T11:24:23.000Z</time>
      </trkpt>
      <trkpt lat="43.97782" lon="3.02597">
        <ele>840.2</ele>
        <time>2026-04-30T11:24:24.000Z</time>
      </trkpt>
      <trkpt lat="43.97782" lon="3.02597">
        <ele>840.2</ele>
        <time>2026-04-30T11:24:25.000Z</time>
      </trkpt>
      <trkpt lat="43.97782" lon="3.02597">
        <ele>840.1</ele>
        <time>2026-04-30T11:24:26.000Z</time>
      </trkpt>
      <trkpt lat="43.97783" lon="3.02598">
        <ele>840.4</ele>
        <time>2026-04-30T11:24:27.000Z</time>
      </trkpt>
      <trkpt lat="43.97783" lon="3.02598">
        <ele>840.6</ele>
        <time>2026-04-30T11:24:28.000Z</time>
      </trkpt>
      <trkpt lat="43.97783" lon="3.02598">
        <ele>840.9</ele>
        <time>2026-04-30T11:24:29.000Z</time>
      </trkpt>
      <trkpt lat="43.97783" lon="3.02598">
        <ele>841.1</ele>
        <time>2026-04-30T11:24:30.000Z</time>
      </trkpt>
      <trkpt lat="43.97783" lon="3.02598">
        <ele>841.2</ele>
        <time>2026-04-30T11:24:31.000Z</time>
      </trkpt>
      <trkpt lat="43.97783" lon="3.02598">
        <ele>841.3</ele>
        <time>2026-04-30T11:24:32.000Z</time>
      </trkpt>
      <trkpt lat="43.97783" lon="3.02598">
        <ele>841.2</ele>
        <time>2026-04-30T11:24:33.000Z</time>
      </trkpt>
      <trkpt lat="43.97783" lon="3.02598">
        <ele>841.2</ele>
        <time>2026-04-30T11:24:34.000Z</time>
      </trkpt>
      <trkpt lat="43.97783" lon="3.02598">
        <ele>841</ele>
        <time>2026-04-30T11:24:35.000Z</time>
      </trkpt>
      <trkpt lat="43.97783" lon="3.02598">
        <ele>840.9</ele>
        <time>2026-04-30T11:24:36.000Z</time>
      </trkpt>
      <trkpt lat="43.97783" lon="3.02598">
        <ele>840.9</ele>
        <time>2026-04-30T11:24:37.000Z</time>
      </trkpt>
      <trkpt lat="43.97783" lon="3.02598">
        <ele>841</ele>
        <time>2026-04-30T11:24:38.000Z</time>
      </trkpt>
      <trkpt lat="43.97783" lon="3.02599">
        <ele>841.2</ele>
        <time>2026-04-30T11:24:39.000Z</time>
      </trkpt>
      <trkpt lat="43.97783" lon="3.02599">
        <ele>841.4</ele>
        <time>2026-04-30T11:24:40.000Z</time>
      </trkpt>
      <trkpt lat="43.97783" lon="3.02599">
        <ele>841.5</ele>
        <time>2026-04-30T11:24:41.000Z</time>
      </trkpt>
      <trkpt lat="43.97783" lon="3.02599">
        <ele>841.6</ele>
        <time>2026-04-30T11:24:42.000Z</time>
      </trkpt>
      <trkpt lat="43.97783" lon="3.02599">
        <ele>841.4</ele>
        <time>2026-04-30T11:24:43.000Z</time>
      </trkpt>
      <trkpt lat="43.97784" lon="3.02599">
        <ele>841.3</ele>
        <time>2026-04-30T11:24:44.000Z</time>
      </trkpt>
      <trkpt lat="43.97784" lon="3.02601">
        <ele>841.3</ele>
        <time>2026-04-30T11:24:45.000Z</time>
      </trkpt>
      <trkpt lat="43.97784" lon="3.02602">
        <ele>841.4</ele>
        <time>2026-04-30T11:24:46.000Z</time>
      </trkpt>
      <trkpt lat="43.97785" lon="3.02604">
        <ele>841.4</ele>
        <time>2026-04-30T11:24:47.000Z</time>
      </trkpt>
      <trkpt lat="43.97785" lon="3.02605">
        <ele>841.5</ele>
        <time>2026-04-30T11:24:48.000Z</time>
      </trkpt>
      <trkpt lat="43.97786" lon="3.02605">
        <ele>841.8</ele>
        <time>2026-04-30T11:24:49.000Z</time>
      </trkpt>
      <trkpt lat="43.97786" lon="3.02606">
        <ele>841.8</ele>
        <time>2026-04-30T11:24:50.000Z</time>
      </trkpt>
      <trkpt lat="43.97786" lon="3.02606">
        <ele>841.7</ele>
        <time>2026-04-30T11:24:51.000Z</time>
      </trkpt>
      <trkpt lat="43.97786" lon="3.02606">
        <ele>841.5</ele>
        <time>2026-04-30T11:24:52.000Z</time>
      </trkpt>
      <trkpt lat="43.97786" lon="3.02606">
        <ele>841.4</ele>
        <time>2026-04-30T11:24:53.000Z</time>
      </trkpt>
      <trkpt lat="43.97786" lon="3.02606">
        <ele>841.3</ele>
        <time>2026-04-30T11:24:54.000Z</time>
      </trkpt>
      <trkpt lat="43.97786" lon="3.02606">
        <ele>841.1</ele>
        <time>2026-04-30T11:24:55.000Z</time>
      </trkpt>
      <trkpt lat="43.97786" lon="3.02606">
        <ele>841.1</ele>
        <time>2026-04-30T11:24:56.000Z</time>
      </trkpt>
      <trkpt lat="43.97786" lon="3.02606">
        <ele>841</ele>
        <time>2026-04-30T11:24:57.000Z</time>
      </trkpt>
      <trkpt lat="43.97787" lon="3.02606">
        <ele>841</ele>
        <time>2026-04-30T11:24:58.000Z</time>
      </trkpt>
      <trkpt lat="43.97787" lon="3.02607">
        <ele>841.1</ele>
        <time>2026-04-30T11:24:59.000Z</time>
      </trkpt>
      <trkpt lat="43.97788" lon="3.02608">
        <ele>841.2</ele>
        <time>2026-04-30T11:25:00.000Z</time>
      </trkpt>
      <trkpt lat="43.97788" lon="3.02608">
        <ele>841.4</ele>
        <time>2026-04-30T11:25:01.000Z</time>
      </trkpt>
      <trkpt lat="43.97788" lon="3.02608">
        <ele>841.3</ele>
        <time>2026-04-30T11:25:02.000Z</time>
      </trkpt>
      <trkpt lat="43.97789" lon="3.02608">
        <ele>841</ele>
        <time>2026-04-30T11:25:03.000Z</time>
      </trkpt>
      <trkpt lat="43.97789" lon="3.02609">
        <ele>841.1</ele>
        <time>2026-04-30T11:25:04.000Z</time>
      </trkpt>
      <trkpt lat="43.9779" lon="3.02611">
        <ele>841.2</ele>
        <time>2026-04-30T11:25:05.000Z</time>
      </trkpt>
      <trkpt lat="43.9779" lon="3.02613">
        <ele>841</ele>
        <time>2026-04-30T11:25:06.000Z</time>
      </trkpt>
      <trkpt lat="43.9779" lon="3.02614">
        <ele>841</ele>
        <time>2026-04-30T11:25:07.000Z</time>
      </trkpt>
      <trkpt lat="43.97791" lon="3.02616">
        <ele>841</ele>
        <time>2026-04-30T11:25:08.000Z</time>
      </trkpt>
      <trkpt lat="43.97791" lon="3.02617">
        <ele>840.9</ele>
        <time>2026-04-30T11:25:09.000Z</time>
      </trkpt>
      <trkpt lat="43.97792" lon="3.02619">
        <ele>840.9</ele>
        <time>2026-04-30T11:25:10.000Z</time>
      </trkpt>
      <trkpt lat="43.97792" lon="3.0262">
        <ele>840.6</ele>
        <time>2026-04-30T11:25:11.000Z</time>
      </trkpt>
      <trkpt lat="43.97793" lon="3.02622">
        <ele>840.5</ele>
        <time>2026-04-30T11:25:12.000Z</time>
      </trkpt>
      <trkpt lat="43.97793" lon="3.02623">
        <ele>840.4</ele>
        <time>2026-04-30T11:25:13.000Z</time>
      </trkpt>
      <trkpt lat="43.97794" lon="3.02624">
        <ele>840.3</ele>
        <time>2026-04-30T11:25:14.000Z</time>
      </trkpt>
      <trkpt lat="43.97794" lon="3.02625">
        <ele>840.2</ele>
        <time>2026-04-30T11:25:15.000Z</time>
      </trkpt>
      <trkpt lat="43.97795" lon="3.02626">
        <ele>840.1</ele>
        <time>2026-04-30T11:25:16.000Z</time>
      </trkpt>
      <trkpt lat="43.97795" lon="3.02627">
        <ele>839.8</ele>
        <time>2026-04-30T11:25:17.000Z</time>
      </trkpt>
      <trkpt lat="43.97797" lon="3.02631">
        <ele>839.5</ele>
        <time>2026-04-30T11:25:19.000Z</time>
      </trkpt>
      <trkpt lat="43.97798" lon="3.02632">
        <ele>839.2</ele>
        <time>2026-04-30T11:25:20.000Z</time>
      </trkpt>
      <trkpt lat="43.97799" lon="3.02634">
        <ele>838.9</ele>
        <time>2026-04-30T11:25:21.000Z</time>
      </trkpt>
      <trkpt lat="43.978" lon="3.02636">
        <ele>838.9</ele>
        <time>2026-04-30T11:25:22.000Z</time>
      </trkpt>
      <trkpt lat="43.978" lon="3.02637">
        <ele>838.5</ele>
        <time>2026-04-30T11:25:23.000Z</time>
      </trkpt>
      <trkpt lat="43.978" lon="3.02639">
        <ele>838.3</ele>
        <time>2026-04-30T11:25:24.000Z</time>
      </trkpt>
      <trkpt lat="43.978" lon="3.02641">
        <ele>838</ele>
        <time>2026-04-30T11:25:25.000Z</time>
      </trkpt>
      <trkpt lat="43.97801" lon="3.02642">
        <ele>837.9</ele>
        <time>2026-04-30T11:25:26.000Z</time>
      </trkpt>
      <trkpt lat="43.97801" lon="3.02643">
        <ele>837.7</ele>
        <time>2026-04-30T11:25:27.000Z</time>
      </trkpt>
      <trkpt lat="43.97801" lon="3.02644">
        <ele>837.4</ele>
        <time>2026-04-30T11:25:28.000Z</time>
      </trkpt>
      <trkpt lat="43.978" lon="3.02645">
        <ele>837.2</ele>
        <time>2026-04-30T11:25:29.000Z</time>
      </trkpt>
      <trkpt lat="43.97801" lon="3.02646">
        <ele>837</ele>
        <time>2026-04-30T11:25:30.000Z</time>
      </trkpt>
      <trkpt lat="43.97801" lon="3.02647">
        <ele>836.3</ele>
        <time>2026-04-30T11:25:31.000Z</time>
      </trkpt>
      <trkpt lat="43.97802" lon="3.02649">
        <ele>836.5</ele>
        <time>2026-04-30T11:25:32.000Z</time>
      </trkpt>
      <trkpt lat="43.97802" lon="3.0265">
        <ele>836.4</ele>
        <time>2026-04-30T11:25:33.000Z</time>
      </trkpt>
      <trkpt lat="43.97802" lon="3.02652">
        <ele>836.4</ele>
        <time>2026-04-30T11:25:34.000Z</time>
      </trkpt>
      <trkpt lat="43.97802" lon="3.02653">
        <ele>836.3</ele>
        <time>2026-04-30T11:25:35.000Z</time>
      </trkpt>
      <trkpt lat="43.97803" lon="3.02655">
        <ele>836.7</ele>
        <time>2026-04-30T11:25:36.000Z</time>
      </trkpt>
      <trkpt lat="43.97803" lon="3.02658">
        <ele>836.7</ele>
        <time>2026-04-30T11:25:37.000Z</time>
      </trkpt>
      <trkpt lat="43.97803" lon="3.02659">
        <ele>836.5</ele>
        <time>2026-04-30T11:25:38.000Z</time>
      </trkpt>
      <trkpt lat="43.97802" lon="3.02661">
        <ele>836</ele>
        <time>2026-04-30T11:25:39.000Z</time>
      </trkpt>
      <trkpt lat="43.97802" lon="3.02663">
        <ele>835.5</ele>
        <time>2026-04-30T11:25:40.000Z</time>
      </trkpt>
      <trkpt lat="43.97802" lon="3.02665">
        <ele>835.5</ele>
        <time>2026-04-30T11:25:41.000Z</time>
      </trkpt>
      <trkpt lat="43.97802" lon="3.02666">
        <ele>835.2</ele>
        <time>2026-04-30T11:25:42.000Z</time>
      </trkpt>
      <trkpt lat="43.97802" lon="3.02668">
        <ele>835.5</ele>
        <time>2026-04-30T11:25:43.000Z</time>
      </trkpt>
      <trkpt lat="43.97803" lon="3.02669">
        <ele>835.8</ele>
        <time>2026-04-30T11:25:44.000Z</time>
      </trkpt>
      <trkpt lat="43.97803" lon="3.0267">
        <ele>836.1</ele>
        <time>2026-04-30T11:25:45.000Z</time>
      </trkpt>
      <trkpt lat="43.97804" lon="3.02671">
        <ele>836.4</ele>
        <time>2026-04-30T11:25:46.000Z</time>
      </trkpt>
      <trkpt lat="43.97804" lon="3.02672">
        <ele>836.5</ele>
        <time>2026-04-30T11:25:47.000Z</time>
      </trkpt>
      <trkpt lat="43.97805" lon="3.02674">
        <ele>836.2</ele>
        <time>2026-04-30T11:25:48.000Z</time>
      </trkpt>
      <trkpt lat="43.97805" lon="3.02675">
        <ele>836.1</ele>
        <time>2026-04-30T11:25:49.000Z</time>
      </trkpt>
      <trkpt lat="43.97805" lon="3.02676">
        <ele>836.2</ele>
        <time>2026-04-30T11:25:50.000Z</time>
      </trkpt>
      <trkpt lat="43.97806" lon="3.02679">
        <ele>836.3</ele>
        <time>2026-04-30T11:25:51.000Z</time>
      </trkpt>
      <trkpt lat="43.97806" lon="3.02681">
        <ele>836.5</ele>
        <time>2026-04-30T11:25:52.000Z</time>
      </trkpt>
      <trkpt lat="43.97805" lon="3.02683">
        <ele>836.4</ele>
        <time>2026-04-30T11:25:53.000Z</time>
      </trkpt>
      <trkpt lat="43.97805" lon="3.02684">
        <ele>836.7</ele>
        <time>2026-04-30T11:25:54.000Z</time>
      </trkpt>
      <trkpt lat="43.97804" lon="3.02686">
        <ele>837</ele>
        <time>2026-04-30T11:25:55.000Z</time>
      </trkpt>
      <trkpt lat="43.97804" lon="3.02687">
        <ele>837.2</ele>
        <time>2026-04-30T11:25:56.000Z</time>
      </trkpt>
      <trkpt lat="43.97804" lon="3.02689">
        <ele>837.1</ele>
        <time>2026-04-30T11:25:57.000Z</time>
      </trkpt>
      <trkpt lat="43.97805" lon="3.02691">
        <ele>836.8</ele>
        <time>2026-04-30T11:25:58.000Z</time>
      </trkpt>
      <trkpt lat="43.97806" lon="3.02693">
        <ele>836.4</ele>
        <time>2026-04-30T11:25:59.000Z</time>
      </trkpt>
      <trkpt lat="43.97807" lon="3.02695">
        <ele>836.1</ele>
        <time>2026-04-30T11:26:00.000Z</time>
      </trkpt>
      <trkpt lat="43.97807" lon="3.02696">
        <ele>836.3</ele>
        <time>2026-04-30T11:26:01.000Z</time>
      </trkpt>
      <trkpt lat="43.97808" lon="3.02697">
        <ele>835.9</ele>
        <time>2026-04-30T11:26:02.000Z</time>
      </trkpt>
      <trkpt lat="43.97808" lon="3.02698">
        <ele>835.9</ele>
        <time>2026-04-30T11:26:03.000Z</time>
      </trkpt>
      <trkpt lat="43.97808" lon="3.02699">
        <ele>836</ele>
        <time>2026-04-30T11:26:04.000Z</time>
      </trkpt>
      <trkpt lat="43.97809" lon="3.02701">
        <ele>835.8</ele>
        <time>2026-04-30T11:26:05.000Z</time>
      </trkpt>
      <trkpt lat="43.9781" lon="3.02703">
        <ele>835.7</ele>
        <time>2026-04-30T11:26:06.000Z</time>
      </trkpt>
      <trkpt lat="43.97811" lon="3.02705">
        <ele>835.5</ele>
        <time>2026-04-30T11:26:07.000Z</time>
      </trkpt>
      <trkpt lat="43.97812" lon="3.02707">
        <ele>835.5</ele>
        <time>2026-04-30T11:26:08.000Z</time>
      </trkpt>
      <trkpt lat="43.97813" lon="3.02707">
        <ele>835.6</ele>
        <time>2026-04-30T11:26:09.000Z</time>
      </trkpt>
      <trkpt lat="43.97813" lon="3.02708">
        <ele>835.7</ele>
        <time>2026-04-30T11:26:10.000Z</time>
      </trkpt>
      <trkpt lat="43.97813" lon="3.02709">
        <ele>835.3</ele>
        <time>2026-04-30T11:26:11.000Z</time>
      </trkpt>
      <trkpt lat="43.97814" lon="3.0271">
        <ele>835.3</ele>
        <time>2026-04-30T11:26:12.000Z</time>
      </trkpt>
      <trkpt lat="43.97815" lon="3.02712">
        <ele>835.6</ele>
        <time>2026-04-30T11:26:13.000Z</time>
      </trkpt>
      <trkpt lat="43.97816" lon="3.02713">
        <ele>835.7</ele>
        <time>2026-04-30T11:26:14.000Z</time>
      </trkpt>
      <trkpt lat="43.97817" lon="3.02714">
        <ele>835.6</ele>
        <time>2026-04-30T11:26:15.000Z</time>
      </trkpt>
      <trkpt lat="43.97818" lon="3.02714">
        <ele>835.3</ele>
        <time>2026-04-30T11:26:16.000Z</time>
      </trkpt>
      <trkpt lat="43.97818" lon="3.02715">
        <ele>835.2</ele>
        <time>2026-04-30T11:26:17.000Z</time>
      </trkpt>
      <trkpt lat="43.97819" lon="3.02716">
        <ele>835.3</ele>
        <time>2026-04-30T11:26:18.000Z</time>
      </trkpt>
      <trkpt lat="43.97821" lon="3.02718">
        <ele>835.2</ele>
        <time>2026-04-30T11:26:19.000Z</time>
      </trkpt>
      <trkpt lat="43.97821" lon="3.02719">
        <ele>835</ele>
        <time>2026-04-30T11:26:20.000Z</time>
      </trkpt>
      <trkpt lat="43.97822" lon="3.02721">
        <ele>834.4</ele>
        <time>2026-04-30T11:26:21.000Z</time>
      </trkpt>
      <trkpt lat="43.97823" lon="3.02722">
        <ele>834.1</ele>
        <time>2026-04-30T11:26:22.000Z</time>
      </trkpt>
      <trkpt lat="43.97823" lon="3.02723">
        <ele>833.9</ele>
        <time>2026-04-30T11:26:23.000Z</time>
      </trkpt>
      <trkpt lat="43.97824" lon="3.02724">
        <ele>833.8</ele>
        <time>2026-04-30T11:26:24.000Z</time>
      </trkpt>
      <trkpt lat="43.97825" lon="3.02725">
        <ele>834</ele>
        <time>2026-04-30T11:26:25.000Z</time>
      </trkpt>
      <trkpt lat="43.97826" lon="3.02726">
        <ele>833.9</ele>
        <time>2026-04-30T11:26:26.000Z</time>
      </trkpt>
      <trkpt lat="43.97827" lon="3.02728">
        <ele>834</ele>
        <time>2026-04-30T11:26:27.000Z</time>
      </trkpt>
      <trkpt lat="43.97827" lon="3.02729">
        <ele>834</ele>
        <time>2026-04-30T11:26:28.000Z</time>
      </trkpt>
      <trkpt lat="43.97828" lon="3.02729">
        <ele>834.1</ele>
        <time>2026-04-30T11:26:29.000Z</time>
      </trkpt>
      <trkpt lat="43.97828" lon="3.0273">
        <ele>834.4</ele>
        <time>2026-04-30T11:26:30.000Z</time>
      </trkpt>
      <trkpt lat="43.97829" lon="3.02731">
        <ele>834.4</ele>
        <time>2026-04-30T11:26:31.000Z</time>
      </trkpt>
      <trkpt lat="43.97829" lon="3.02733">
        <ele>834.2</ele>
        <time>2026-04-30T11:26:32.000Z</time>
      </trkpt>
      <trkpt lat="43.9783" lon="3.02734">
        <ele>834.4</ele>
        <time>2026-04-30T11:26:33.000Z</time>
      </trkpt>
      <trkpt lat="43.97829" lon="3.02736">
        <ele>834.8</ele>
        <time>2026-04-30T11:26:34.000Z</time>
      </trkpt>
      <trkpt lat="43.97829" lon="3.02737">
        <ele>835.1</ele>
        <time>2026-04-30T11:26:35.000Z</time>
      </trkpt>
      <trkpt lat="43.97828" lon="3.02738">
        <ele>835.1</ele>
        <time>2026-04-30T11:26:36.000Z</time>
      </trkpt>
      <trkpt lat="43.97828" lon="3.02739">
        <ele>834.9</ele>
        <time>2026-04-30T11:26:37.000Z</time>
      </trkpt>
      <trkpt lat="43.97827" lon="3.02739">
        <ele>834.5</ele>
        <time>2026-04-30T11:26:38.000Z</time>
      </trkpt>
      <trkpt lat="43.97827" lon="3.02739">
        <ele>834.1</ele>
        <time>2026-04-30T11:26:39.000Z</time>
      </trkpt>
      <trkpt lat="43.97827" lon="3.02739">
        <ele>833.8</ele>
        <time>2026-04-30T11:26:40.000Z</time>
      </trkpt>
      <trkpt lat="43.97827" lon="3.02739">
        <ele>833.7</ele>
        <time>2026-04-30T11:26:41.000Z</time>
      </trkpt>
      <trkpt lat="43.97827" lon="3.0274">
        <ele>834</ele>
        <time>2026-04-30T11:26:42.000Z</time>
      </trkpt>
      <trkpt lat="43.97826" lon="3.02742">
        <ele>834</ele>
        <time>2026-04-30T11:26:43.000Z</time>
      </trkpt>
      <trkpt lat="43.97827" lon="3.02743">
        <ele>834.3</ele>
        <time>2026-04-30T11:26:44.000Z</time>
      </trkpt>
      <trkpt lat="43.97827" lon="3.02745">
        <ele>834.5</ele>
        <time>2026-04-30T11:26:45.000Z</time>
      </trkpt>
      <trkpt lat="43.97827" lon="3.02746">
        <ele>834.5</ele>
        <time>2026-04-30T11:26:46.000Z</time>
      </trkpt>
      <trkpt lat="43.97827" lon="3.02748">
        <ele>834.5</ele>
        <time>2026-04-30T11:26:47.000Z</time>
      </trkpt>
      <trkpt lat="43.97826" lon="3.0275">
        <ele>834.5</ele>
        <time>2026-04-30T11:26:48.000Z</time>
      </trkpt>
      <trkpt lat="43.97825" lon="3.02752">
        <ele>834.8</ele>
        <time>2026-04-30T11:26:49.000Z</time>
      </trkpt>
      <trkpt lat="43.97825" lon="3.02755">
        <ele>834.8</ele>
        <time>2026-04-30T11:26:50.000Z</time>
      </trkpt>
      <trkpt lat="43.97825" lon="3.02757">
        <ele>834.7</ele>
        <time>2026-04-30T11:26:51.000Z</time>
      </trkpt>
      <trkpt lat="43.97824" lon="3.02758">
        <ele>834.6</ele>
        <time>2026-04-30T11:26:52.000Z</time>
      </trkpt>
      <trkpt lat="43.97823" lon="3.02759">
        <ele>834.6</ele>
        <time>2026-04-30T11:26:53.000Z</time>
      </trkpt>
      <trkpt lat="43.97823" lon="3.02761">
        <ele>834.3</ele>
        <time>2026-04-30T11:26:54.000Z</time>
      </trkpt>
      <trkpt lat="43.97823" lon="3.02762">
        <ele>834</ele>
        <time>2026-04-30T11:26:55.000Z</time>
      </trkpt>
      <trkpt lat="43.97823" lon="3.02764">
        <ele>833.9</ele>
        <time>2026-04-30T11:26:56.000Z</time>
      </trkpt>
      <trkpt lat="43.97823" lon="3.02766">
        <ele>833.5</ele>
        <time>2026-04-30T11:26:57.000Z</time>
      </trkpt>
      <trkpt lat="43.97822" lon="3.02767">
        <ele>833.4</ele>
        <time>2026-04-30T11:26:58.000Z</time>
      </trkpt>
      <trkpt lat="43.97822" lon="3.02769">
        <ele>833.3</ele>
        <time>2026-04-30T11:26:59.000Z</time>
      </trkpt>
      <trkpt lat="43.97822" lon="3.02771">
        <ele>832.9</ele>
        <time>2026-04-30T11:27:00.000Z</time>
      </trkpt>
      <trkpt lat="43.97822" lon="3.02772">
        <ele>832.5</ele>
        <time>2026-04-30T11:27:01.000Z</time>
      </trkpt>
      <trkpt lat="43.97822" lon="3.02773">
        <ele>832.4</ele>
        <time>2026-04-30T11:27:02.000Z</time>
      </trkpt>
      <trkpt lat="43.97823" lon="3.02774">
        <ele>832.3</ele>
        <time>2026-04-30T11:27:03.000Z</time>
      </trkpt>
      <trkpt lat="43.97822" lon="3.02776">
        <ele>832.1</ele>
        <time>2026-04-30T11:27:04.000Z</time>
      </trkpt>
      <trkpt lat="43.97822" lon="3.02778">
        <ele>832.2</ele>
        <time>2026-04-30T11:27:05.000Z</time>
      </trkpt>
      <trkpt lat="43.97822" lon="3.02779">
        <ele>832.4</ele>
        <time>2026-04-30T11:27:06.000Z</time>
      </trkpt>
      <trkpt lat="43.97823" lon="3.02781">
        <ele>832.2</ele>
        <time>2026-04-30T11:27:07.000Z</time>
      </trkpt>
      <trkpt lat="43.97823" lon="3.02784">
        <ele>832.5</ele>
        <time>2026-04-30T11:27:08.000Z</time>
      </trkpt>
      <trkpt lat="43.97824" lon="3.02787">
        <ele>832.7</ele>
        <time>2026-04-30T11:27:09.000Z</time>
      </trkpt>
      <trkpt lat="43.97824" lon="3.02788">
        <ele>832.5</ele>
        <time>2026-04-30T11:27:10.000Z</time>
      </trkpt>
      <trkpt lat="43.97824" lon="3.0279">
        <ele>832.3</ele>
        <time>2026-04-30T11:27:11.000Z</time>
      </trkpt>
      <trkpt lat="43.97823" lon="3.02791">
        <ele>832.1</ele>
        <time>2026-04-30T11:27:12.000Z</time>
      </trkpt>
      <trkpt lat="43.97824" lon="3.02792">
        <ele>832.1</ele>
        <time>2026-04-30T11:27:13.000Z</time>
      </trkpt>
      <trkpt lat="43.97825" lon="3.02793">
        <ele>832.3</ele>
        <time>2026-04-30T11:27:14.000Z</time>
      </trkpt>
      <trkpt lat="43.97827" lon="3.02794">
        <ele>832.1</ele>
        <time>2026-04-30T11:27:15.000Z</time>
      </trkpt>
      <trkpt lat="43.97828" lon="3.02796">
        <ele>832.3</ele>
        <time>2026-04-30T11:27:16.000Z</time>
      </trkpt>
      <trkpt lat="43.97829" lon="3.02797">
        <ele>831.9</ele>
        <time>2026-04-30T11:27:17.000Z</time>
      </trkpt>
      <trkpt lat="43.9783" lon="3.02799">
        <ele>831.8</ele>
        <time>2026-04-30T11:27:18.000Z</time>
      </trkpt>
      <trkpt lat="43.97831" lon="3.028">
        <ele>831.1</ele>
        <time>2026-04-30T11:27:19.000Z</time>
      </trkpt>
      <trkpt lat="43.97831" lon="3.028">
        <ele>830.8</ele>
        <time>2026-04-30T11:27:20.000Z</time>
      </trkpt>
      <trkpt lat="43.97831" lon="3.02801">
        <ele>830.9</ele>
        <time>2026-04-30T11:27:21.000Z</time>
      </trkpt>
      <trkpt lat="43.97831" lon="3.02802">
        <ele>831.1</ele>
        <time>2026-04-30T11:27:22.000Z</time>
      </trkpt>
      <trkpt lat="43.97832" lon="3.02803">
        <ele>831.3</ele>
        <time>2026-04-30T11:27:23.000Z</time>
      </trkpt>
      <trkpt lat="43.97834" lon="3.02803">
        <ele>831.3</ele>
        <time>2026-04-30T11:27:24.000Z</time>
      </trkpt>
      <trkpt lat="43.97835" lon="3.02804">
        <ele>831.5</ele>
        <time>2026-04-30T11:27:25.000Z</time>
      </trkpt>
      <trkpt lat="43.97836" lon="3.02806">
        <ele>831.3</ele>
        <time>2026-04-30T11:27:26.000Z</time>
      </trkpt>
      <trkpt lat="43.97837" lon="3.02807">
        <ele>831.3</ele>
        <time>2026-04-30T11:27:27.000Z</time>
      </trkpt>
      <trkpt lat="43.97838" lon="3.02807">
        <ele>830.9</ele>
        <time>2026-04-30T11:27:28.000Z</time>
      </trkpt>
      <trkpt lat="43.97839" lon="3.02808">
        <ele>830.6</ele>
        <time>2026-04-30T11:27:29.000Z</time>
      </trkpt>
      <trkpt lat="43.97839" lon="3.02808">
        <ele>830.2</ele>
        <time>2026-04-30T11:27:30.000Z</time>
      </trkpt>
      <trkpt lat="43.9784" lon="3.02809">
        <ele>829.9</ele>
        <time>2026-04-30T11:27:31.000Z</time>
      </trkpt>
      <trkpt lat="43.97841" lon="3.02809">
        <ele>830.1</ele>
        <time>2026-04-30T11:27:32.000Z</time>
      </trkpt>
      <trkpt lat="43.97842" lon="3.02811">
        <ele>829.8</ele>
        <time>2026-04-30T11:27:33.000Z</time>
      </trkpt>
      <trkpt lat="43.97842" lon="3.02813">
        <ele>829.3</ele>
        <time>2026-04-30T11:27:34.000Z</time>
      </trkpt>
      <trkpt lat="43.97843" lon="3.02814">
        <ele>829.2</ele>
        <time>2026-04-30T11:27:35.000Z</time>
      </trkpt>
      <trkpt lat="43.97843" lon="3.02815">
        <ele>829.3</ele>
        <time>2026-04-30T11:27:36.000Z</time>
      </trkpt>
      <trkpt lat="43.97845" lon="3.02816">
        <ele>829.4</ele>
        <time>2026-04-30T11:27:37.000Z</time>
      </trkpt>
      <trkpt lat="43.97846" lon="3.02818">
        <ele>829.4</ele>
        <time>2026-04-30T11:27:38.000Z</time>
      </trkpt>
      <trkpt lat="43.97847" lon="3.0282">
        <ele>829.4</ele>
        <time>2026-04-30T11:27:39.000Z</time>
      </trkpt>
      <trkpt lat="43.97848" lon="3.02821">
        <ele>829.4</ele>
        <time>2026-04-30T11:27:40.000Z</time>
      </trkpt>
      <trkpt lat="43.97849" lon="3.02822">
        <ele>828.7</ele>
        <time>2026-04-30T11:27:41.000Z</time>
      </trkpt>
      <trkpt lat="43.97849" lon="3.02823">
        <ele>828.5</ele>
        <time>2026-04-30T11:27:42.000Z</time>
      </trkpt>
      <trkpt lat="43.9785" lon="3.02824">
        <ele>828.6</ele>
        <time>2026-04-30T11:27:43.000Z</time>
      </trkpt>
      <trkpt lat="43.9785" lon="3.02825">
        <ele>828.5</ele>
        <time>2026-04-30T11:27:44.000Z</time>
      </trkpt>
      <trkpt lat="43.97851" lon="3.02826">
        <ele>828.6</ele>
        <time>2026-04-30T11:27:45.000Z</time>
      </trkpt>
      <trkpt lat="43.97852" lon="3.02827">
        <ele>828.4</ele>
        <time>2026-04-30T11:27:46.000Z</time>
      </trkpt>
      <trkpt lat="43.97852" lon="3.02829">
        <ele>828.3</ele>
        <time>2026-04-30T11:27:47.000Z</time>
      </trkpt>
      <trkpt lat="43.97852" lon="3.0283">
        <ele>828</ele>
        <time>2026-04-30T11:27:48.000Z</time>
      </trkpt>
      <trkpt lat="43.97853" lon="3.02832">
        <ele>827.9</ele>
        <time>2026-04-30T11:27:49.000Z</time>
      </trkpt>
      <trkpt lat="43.97853" lon="3.02833">
        <ele>827.9</ele>
        <time>2026-04-30T11:27:50.000Z</time>
      </trkpt>
      <trkpt lat="43.97854" lon="3.02835">
        <ele>827.8</ele>
        <time>2026-04-30T11:27:51.000Z</time>
      </trkpt>
      <trkpt lat="43.97854" lon="3.02836">
        <ele>827.9</ele>
        <time>2026-04-30T11:27:52.000Z</time>
      </trkpt>
      <trkpt lat="43.97854" lon="3.02838">
        <ele>827.5</ele>
        <time>2026-04-30T11:27:53.000Z</time>
      </trkpt>
      <trkpt lat="43.97855" lon="3.02839">
        <ele>827.4</ele>
        <time>2026-04-30T11:27:54.000Z</time>
      </trkpt>
      <trkpt lat="43.97855" lon="3.02841">
        <ele>827.5</ele>
        <time>2026-04-30T11:27:55.000Z</time>
      </trkpt>
      <trkpt lat="43.97856" lon="3.02842">
        <ele>827.3</ele>
        <time>2026-04-30T11:27:56.000Z</time>
      </trkpt>
      <trkpt lat="43.97856" lon="3.02844">
        <ele>827.3</ele>
        <time>2026-04-30T11:27:57.000Z</time>
      </trkpt>
      <trkpt lat="43.97857" lon="3.02845">
        <ele>827.2</ele>
        <time>2026-04-30T11:27:58.000Z</time>
      </trkpt>
      <trkpt lat="43.97857" lon="3.02847">
        <ele>827.3</ele>
        <time>2026-04-30T11:27:59.000Z</time>
      </trkpt>
      <trkpt lat="43.97858" lon="3.02849">
        <ele>827.5</ele>
        <time>2026-04-30T11:28:00.000Z</time>
      </trkpt>
      <trkpt lat="43.97857" lon="3.0285">
        <ele>828</ele>
        <time>2026-04-30T11:28:01.000Z</time>
      </trkpt>
      <trkpt lat="43.97857" lon="3.02852">
        <ele>828.3</ele>
        <time>2026-04-30T11:28:02.000Z</time>
      </trkpt>
      <trkpt lat="43.97856" lon="3.02853">
        <ele>828.5</ele>
        <time>2026-04-30T11:28:03.000Z</time>
      </trkpt>
      <trkpt lat="43.97855" lon="3.02855">
        <ele>828.7</ele>
        <time>2026-04-30T11:28:04.000Z</time>
      </trkpt>
      <trkpt lat="43.97855" lon="3.02856">
        <ele>828.8</ele>
        <time>2026-04-30T11:28:05.000Z</time>
      </trkpt>
      <trkpt lat="43.97855" lon="3.02858">
        <ele>828.9</ele>
        <time>2026-04-30T11:28:06.000Z</time>
      </trkpt>
      <trkpt lat="43.97855" lon="3.0286">
        <ele>828.9</ele>
        <time>2026-04-30T11:28:07.000Z</time>
      </trkpt>
      <trkpt lat="43.97855" lon="3.02861">
        <ele>829</ele>
        <time>2026-04-30T11:28:08.000Z</time>
      </trkpt>
      <trkpt lat="43.97855" lon="3.02863">
        <ele>829</ele>
        <time>2026-04-30T11:28:09.000Z</time>
      </trkpt>
      <trkpt lat="43.97855" lon="3.02865">
        <ele>828.8</ele>
        <time>2026-04-30T11:28:10.000Z</time>
      </trkpt>
      <trkpt lat="43.97855" lon="3.02867">
        <ele>828.8</ele>
        <time>2026-04-30T11:28:11.000Z</time>
      </trkpt>
      <trkpt lat="43.97855" lon="3.02868">
        <ele>828.7</ele>
        <time>2026-04-30T11:28:12.000Z</time>
      </trkpt>
      <trkpt lat="43.97855" lon="3.0287">
        <ele>828.8</ele>
        <time>2026-04-30T11:28:13.000Z</time>
      </trkpt>
      <trkpt lat="43.97855" lon="3.02871">
        <ele>828.9</ele>
        <time>2026-04-30T11:28:14.000Z</time>
      </trkpt>
      <trkpt lat="43.97855" lon="3.02872">
        <ele>828.9</ele>
        <time>2026-04-30T11:28:15.000Z</time>
      </trkpt>
      <trkpt lat="43.97855" lon="3.02874">
        <ele>828.8</ele>
        <time>2026-04-30T11:28:16.000Z</time>
      </trkpt>
      <trkpt lat="43.97856" lon="3.02876">
        <ele>828.7</ele>
        <time>2026-04-30T11:28:17.000Z</time>
      </trkpt>
      <trkpt lat="43.97856" lon="3.02879">
        <ele>828.3</ele>
        <time>2026-04-30T11:28:18.000Z</time>
      </trkpt>
      <trkpt lat="43.97857" lon="3.0288">
        <ele>828.2</ele>
        <time>2026-04-30T11:28:19.000Z</time>
      </trkpt>
      <trkpt lat="43.97857" lon="3.02882">
        <ele>827.9</ele>
        <time>2026-04-30T11:28:20.000Z</time>
      </trkpt>
      <trkpt lat="43.97857" lon="3.02883">
        <ele>827.6</ele>
        <time>2026-04-30T11:28:21.000Z</time>
      </trkpt>
      <trkpt lat="43.97857" lon="3.02884">
        <ele>827.3</ele>
        <time>2026-04-30T11:28:22.000Z</time>
      </trkpt>
      <trkpt lat="43.97858" lon="3.02886">
        <ele>827.2</ele>
        <time>2026-04-30T11:28:23.000Z</time>
      </trkpt>
      <trkpt lat="43.97858" lon="3.02888">
        <ele>827.3</ele>
        <time>2026-04-30T11:28:24.000Z</time>
      </trkpt>
      <trkpt lat="43.97858" lon="3.02889">
        <ele>827.4</ele>
        <time>2026-04-30T11:28:25.000Z</time>
      </trkpt>
      <trkpt lat="43.97858" lon="3.0289">
        <ele>827.3</ele>
        <time>2026-04-30T11:28:26.000Z</time>
      </trkpt>
      <trkpt lat="43.97859" lon="3.02892">
        <ele>827.6</ele>
        <time>2026-04-30T11:28:27.000Z</time>
      </trkpt>
      <trkpt lat="43.97859" lon="3.02894">
        <ele>827.8</ele>
        <time>2026-04-30T11:28:28.000Z</time>
      </trkpt>
      <trkpt lat="43.9786" lon="3.02896">
        <ele>828</ele>
        <time>2026-04-30T11:28:29.000Z</time>
      </trkpt>
      <trkpt lat="43.9786" lon="3.02898">
        <ele>828.1</ele>
        <time>2026-04-30T11:28:30.000Z</time>
      </trkpt>
      <trkpt lat="43.9786" lon="3.02899">
        <ele>828.4</ele>
        <time>2026-04-30T11:28:31.000Z</time>
      </trkpt>
      <trkpt lat="43.9786" lon="3.029">
        <ele>828.5</ele>
        <time>2026-04-30T11:28:32.000Z</time>
      </trkpt>
      <trkpt lat="43.9786" lon="3.02901">
        <ele>828.6</ele>
        <time>2026-04-30T11:28:33.000Z</time>
      </trkpt>
      <trkpt lat="43.9786" lon="3.02902">
        <ele>828.5</ele>
        <time>2026-04-30T11:28:34.000Z</time>
      </trkpt>
      <trkpt lat="43.9786" lon="3.02904">
        <ele>828.5</ele>
        <time>2026-04-30T11:28:35.000Z</time>
      </trkpt>
      <trkpt lat="43.9786" lon="3.02906">
        <ele>828.6</ele>
        <time>2026-04-30T11:28:36.000Z</time>
      </trkpt>
      <trkpt lat="43.9786" lon="3.02907">
        <ele>828.6</ele>
        <time>2026-04-30T11:28:37.000Z</time>
      </trkpt>
      <trkpt lat="43.9786" lon="3.02909">
        <ele>828.4</ele>
        <time>2026-04-30T11:28:38.000Z</time>
      </trkpt>
      <trkpt lat="43.9786" lon="3.02911">
        <ele>828</ele>
        <time>2026-04-30T11:28:39.000Z</time>
      </trkpt>
      <trkpt lat="43.97861" lon="3.02913">
        <ele>827.7</ele>
        <time>2026-04-30T11:28:40.000Z</time>
      </trkpt>
      <trkpt lat="43.97861" lon="3.02914">
        <ele>827.3</ele>
        <time>2026-04-30T11:28:41.000Z</time>
      </trkpt>
      <trkpt lat="43.97862" lon="3.02915">
        <ele>827.5</ele>
        <time>2026-04-30T11:28:42.000Z</time>
      </trkpt>
      <trkpt lat="43.97863" lon="3.02917">
        <ele>827.5</ele>
        <time>2026-04-30T11:28:43.000Z</time>
      </trkpt>
      <trkpt lat="43.97863" lon="3.02918">
        <ele>827.7</ele>
        <time>2026-04-30T11:28:44.000Z</time>
      </trkpt>
      <trkpt lat="43.97864" lon="3.02919">
        <ele>827.9</ele>
        <time>2026-04-30T11:28:45.000Z</time>
      </trkpt>
      <trkpt lat="43.97864" lon="3.02921">
        <ele>827.9</ele>
        <time>2026-04-30T11:28:46.000Z</time>
      </trkpt>
      <trkpt lat="43.97865" lon="3.02922">
        <ele>827.7</ele>
        <time>2026-04-30T11:28:47.000Z</time>
      </trkpt>
      <trkpt lat="43.97865" lon="3.02924">
        <ele>827.4</ele>
        <time>2026-04-30T11:28:48.000Z</time>
      </trkpt>
      <trkpt lat="43.97865" lon="3.02926">
        <ele>826.9</ele>
        <time>2026-04-30T11:28:49.000Z</time>
      </trkpt>
      <trkpt lat="43.97866" lon="3.02928">
        <ele>826.5</ele>
        <time>2026-04-30T11:28:50.000Z</time>
      </trkpt>
      <trkpt lat="43.97866" lon="3.0293">
        <ele>826.6</ele>
        <time>2026-04-30T11:28:51.000Z</time>
      </trkpt>
      <trkpt lat="43.97866" lon="3.02931">
        <ele>826.6</ele>
        <time>2026-04-30T11:28:52.000Z</time>
      </trkpt>
      <trkpt lat="43.97866" lon="3.02932">
        <ele>826.5</ele>
        <time>2026-04-30T11:28:53.000Z</time>
      </trkpt>
      <trkpt lat="43.97866" lon="3.02934">
        <ele>826.1</ele>
        <time>2026-04-30T11:28:54.000Z</time>
      </trkpt>
      <trkpt lat="43.97865" lon="3.02936">
        <ele>825.8</ele>
        <time>2026-04-30T11:28:55.000Z</time>
      </trkpt>
      <trkpt lat="43.97865" lon="3.02937">
        <ele>825.5</ele>
        <time>2026-04-30T11:28:56.000Z</time>
      </trkpt>
      <trkpt lat="43.97864" lon="3.02939">
        <ele>825.4</ele>
        <time>2026-04-30T11:28:57.000Z</time>
      </trkpt>
      <trkpt lat="43.97864" lon="3.02941">
        <ele>825.5</ele>
        <time>2026-04-30T11:28:58.000Z</time>
      </trkpt>
      <trkpt lat="43.97865" lon="3.02943">
        <ele>825.4</ele>
        <time>2026-04-30T11:28:59.000Z</time>
      </trkpt>
      <trkpt lat="43.97865" lon="3.02945">
        <ele>825.2</ele>
        <time>2026-04-30T11:29:00.000Z</time>
      </trkpt>
      <trkpt lat="43.97865" lon="3.02948">
        <ele>825</ele>
        <time>2026-04-30T11:29:02.000Z</time>
      </trkpt>
      <trkpt lat="43.97864" lon="3.02949">
        <ele>824.9</ele>
        <time>2026-04-30T11:29:03.000Z</time>
      </trkpt>
      <trkpt lat="43.97863" lon="3.02951">
        <ele>824.5</ele>
        <time>2026-04-30T11:29:04.000Z</time>
      </trkpt>
      <trkpt lat="43.97863" lon="3.02954">
        <ele>824.1</ele>
        <time>2026-04-30T11:29:05.000Z</time>
      </trkpt>
      <trkpt lat="43.97863" lon="3.02956">
        <ele>824</ele>
        <time>2026-04-30T11:29:06.000Z</time>
      </trkpt>
      <trkpt lat="43.97863" lon="3.02958">
        <ele>824.1</ele>
        <time>2026-04-30T11:29:07.000Z</time>
      </trkpt>
      <trkpt lat="43.97862" lon="3.0296">
        <ele>824.1</ele>
        <time>2026-04-30T11:29:08.000Z</time>
      </trkpt>
      <trkpt lat="43.97863" lon="3.02961">
        <ele>824</ele>
        <time>2026-04-30T11:29:09.000Z</time>
      </trkpt>
      <trkpt lat="43.97863" lon="3.02963">
        <ele>823.9</ele>
        <time>2026-04-30T11:29:10.000Z</time>
      </trkpt>
      <trkpt lat="43.97864" lon="3.02964">
        <ele>823.9</ele>
        <time>2026-04-30T11:29:11.000Z</time>
      </trkpt>
      <trkpt lat="43.97864" lon="3.02965">
        <ele>823.6</ele>
        <time>2026-04-30T11:29:12.000Z</time>
      </trkpt>
      <trkpt lat="43.97864" lon="3.02966">
        <ele>823.7</ele>
        <time>2026-04-30T11:29:13.000Z</time>
      </trkpt>
      <trkpt lat="43.97863" lon="3.02968">
        <ele>823.7</ele>
        <time>2026-04-30T11:29:14.000Z</time>
      </trkpt>
      <trkpt lat="43.97864" lon="3.0297">
        <ele>823.8</ele>
        <time>2026-04-30T11:29:15.000Z</time>
      </trkpt>
      <trkpt lat="43.97864" lon="3.02971">
        <ele>823.8</ele>
        <time>2026-04-30T11:29:16.000Z</time>
      </trkpt>
      <trkpt lat="43.97864" lon="3.02973">
        <ele>824</ele>
        <time>2026-04-30T11:29:17.000Z</time>
      </trkpt>
      <trkpt lat="43.97864" lon="3.02974">
        <ele>824.2</ele>
        <time>2026-04-30T11:29:18.000Z</time>
      </trkpt>
      <trkpt lat="43.97864" lon="3.02976">
        <ele>824.3</ele>
        <time>2026-04-30T11:29:19.000Z</time>
      </trkpt>
      <trkpt lat="43.97864" lon="3.02977">
        <ele>824.4</ele>
        <time>2026-04-30T11:29:20.000Z</time>
      </trkpt>
      <trkpt lat="43.97865" lon="3.02978">
        <ele>824.4</ele>
        <time>2026-04-30T11:29:21.000Z</time>
      </trkpt>
      <trkpt lat="43.97865" lon="3.0298">
        <ele>824.2</ele>
        <time>2026-04-30T11:29:22.000Z</time>
      </trkpt>
      <trkpt lat="43.97865" lon="3.02981">
        <ele>824.1</ele>
        <time>2026-04-30T11:29:23.000Z</time>
      </trkpt>
      <trkpt lat="43.97865" lon="3.02983">
        <ele>823.9</ele>
        <time>2026-04-30T11:29:24.000Z</time>
      </trkpt>
      <trkpt lat="43.97865" lon="3.02983">
        <ele>823.8</ele>
        <time>2026-04-30T11:29:25.000Z</time>
      </trkpt>
      <trkpt lat="43.97865" lon="3.02985">
        <ele>823.9</ele>
        <time>2026-04-30T11:29:26.000Z</time>
      </trkpt>
      <trkpt lat="43.97864" lon="3.02987">
        <ele>824</ele>
        <time>2026-04-30T11:29:27.000Z</time>
      </trkpt>
      <trkpt lat="43.97864" lon="3.02989">
        <ele>823.9</ele>
        <time>2026-04-30T11:29:28.000Z</time>
      </trkpt>
      <trkpt lat="43.97864" lon="3.02991">
        <ele>823.7</ele>
        <time>2026-04-30T11:29:29.000Z</time>
      </trkpt>
      <trkpt lat="43.97863" lon="3.02994">
        <ele>823.8</ele>
        <time>2026-04-30T11:29:30.000Z</time>
      </trkpt>
      <trkpt lat="43.97862" lon="3.02997">
        <ele>824.1</ele>
        <time>2026-04-30T11:29:31.000Z</time>
      </trkpt>
      <trkpt lat="43.97862" lon="3.02998">
        <ele>824.3</ele>
        <time>2026-04-30T11:29:32.000Z</time>
      </trkpt>
      <trkpt lat="43.97862" lon="3.02999">
        <ele>824.4</ele>
        <time>2026-04-30T11:29:33.000Z</time>
      </trkpt>
      <trkpt lat="43.97861" lon="3.03">
        <ele>824.2</ele>
        <time>2026-04-30T11:29:34.000Z</time>
      </trkpt>
      <trkpt lat="43.97862" lon="3.03002">
        <ele>823.9</ele>
        <time>2026-04-30T11:29:35.000Z</time>
      </trkpt>
      <trkpt lat="43.97862" lon="3.03004">
        <ele>824</ele>
        <time>2026-04-30T11:29:36.000Z</time>
      </trkpt>
      <trkpt lat="43.97863" lon="3.03006">
        <ele>824.1</ele>
        <time>2026-04-30T11:29:37.000Z</time>
      </trkpt>
      <trkpt lat="43.97862" lon="3.03008">
        <ele>824</ele>
        <time>2026-04-30T11:29:38.000Z</time>
      </trkpt>
      <trkpt lat="43.97862" lon="3.03009">
        <ele>823.9</ele>
        <time>2026-04-30T11:29:39.000Z</time>
      </trkpt>
      <trkpt lat="43.97861" lon="3.03012">
        <ele>824.3</ele>
        <time>2026-04-30T11:29:40.000Z</time>
      </trkpt>
      <trkpt lat="43.97861" lon="3.03014">
        <ele>824.6</ele>
        <time>2026-04-30T11:29:41.000Z</time>
      </trkpt>
      <trkpt lat="43.97861" lon="3.03017">
        <ele>824.9</ele>
        <time>2026-04-30T11:29:42.000Z</time>
      </trkpt>
      <trkpt lat="43.97861" lon="3.03019">
        <ele>825</ele>
        <time>2026-04-30T11:29:43.000Z</time>
      </trkpt>
      <trkpt lat="43.97861" lon="3.03021">
        <ele>824.8</ele>
        <time>2026-04-30T11:29:44.000Z</time>
      </trkpt>
      <trkpt lat="43.97861" lon="3.03022">
        <ele>824.7</ele>
        <time>2026-04-30T11:29:45.000Z</time>
      </trkpt>
      <trkpt lat="43.97861" lon="3.03023">
        <ele>824.4</ele>
        <time>2026-04-30T11:29:46.000Z</time>
      </trkpt>
      <trkpt lat="43.97862" lon="3.03024">
        <ele>823.9</ele>
        <time>2026-04-30T11:29:47.000Z</time>
      </trkpt>
      <trkpt lat="43.97862" lon="3.03026">
        <ele>823.4</ele>
        <time>2026-04-30T11:29:48.000Z</time>
      </trkpt>
      <trkpt lat="43.97863" lon="3.03028">
        <ele>823.4</ele>
        <time>2026-04-30T11:29:49.000Z</time>
      </trkpt>
      <trkpt lat="43.97863" lon="3.0303">
        <ele>823.7</ele>
        <time>2026-04-30T11:29:50.000Z</time>
      </trkpt>
      <trkpt lat="43.97864" lon="3.03032">
        <ele>824</ele>
        <time>2026-04-30T11:29:51.000Z</time>
      </trkpt>
      <trkpt lat="43.97864" lon="3.03033">
        <ele>823.8</ele>
        <time>2026-04-30T11:29:52.000Z</time>
      </trkpt>
      <trkpt lat="43.97865" lon="3.03035">
        <ele>823.4</ele>
        <time>2026-04-30T11:29:53.000Z</time>
      </trkpt>
      <trkpt lat="43.97865" lon="3.03038">
        <ele>823.2</ele>
        <time>2026-04-30T11:29:54.000Z</time>
      </trkpt>
      <trkpt lat="43.97866" lon="3.03039">
        <ele>822.9</ele>
        <time>2026-04-30T11:29:55.000Z</time>
      </trkpt>
      <trkpt lat="43.97866" lon="3.03041">
        <ele>822.5</ele>
        <time>2026-04-30T11:29:56.000Z</time>
      </trkpt>
      <trkpt lat="43.97865" lon="3.03042">
        <ele>822.2</ele>
        <time>2026-04-30T11:29:57.000Z</time>
      </trkpt>
      <trkpt lat="43.97866" lon="3.03042">
        <ele>821.9</ele>
        <time>2026-04-30T11:29:58.000Z</time>
      </trkpt>
      <trkpt lat="43.97866" lon="3.03043">
        <ele>821.5</ele>
        <time>2026-04-30T11:29:59.000Z</time>
      </trkpt>
      <trkpt lat="43.97867" lon="3.03045">
        <ele>821.5</ele>
        <time>2026-04-30T11:30:00.000Z</time>
      </trkpt>
      <trkpt lat="43.97867" lon="3.03046">
        <ele>821.6</ele>
        <time>2026-04-30T11:30:01.000Z</time>
      </trkpt>
      <trkpt lat="43.97868" lon="3.03048">
        <ele>821.6</ele>
        <time>2026-04-30T11:30:02.000Z</time>
      </trkpt>
      <trkpt lat="43.97868" lon="3.0305">
        <ele>821.7</ele>
        <time>2026-04-30T11:30:03.000Z</time>
      </trkpt>
      <trkpt lat="43.97869" lon="3.03052">
        <ele>821.4</ele>
        <time>2026-04-30T11:30:04.000Z</time>
      </trkpt>
      <trkpt lat="43.9787" lon="3.03053">
        <ele>821.3</ele>
        <time>2026-04-30T11:30:05.000Z</time>
      </trkpt>
      <trkpt lat="43.9787" lon="3.03054">
        <ele>820.9</ele>
        <time>2026-04-30T11:30:06.000Z</time>
      </trkpt>
      <trkpt lat="43.97871" lon="3.03055">
        <ele>820.9</ele>
        <time>2026-04-30T11:30:07.000Z</time>
      </trkpt>
      <trkpt lat="43.97872" lon="3.03057">
        <ele>820.8</ele>
        <time>2026-04-30T11:30:08.000Z</time>
      </trkpt>
      <trkpt lat="43.97873" lon="3.03059">
        <ele>821.1</ele>
        <time>2026-04-30T11:30:09.000Z</time>
      </trkpt>
      <trkpt lat="43.97874" lon="3.03061">
        <ele>821</ele>
        <time>2026-04-30T11:30:10.000Z</time>
      </trkpt>
      <trkpt lat="43.97875" lon="3.03062">
        <ele>821</ele>
        <time>2026-04-30T11:30:11.000Z</time>
      </trkpt>
      <trkpt lat="43.97875" lon="3.03064">
        <ele>821.1</ele>
        <time>2026-04-30T11:30:12.000Z</time>
      </trkpt>
      <trkpt lat="43.97876" lon="3.03065">
        <ele>821.4</ele>
        <time>2026-04-30T11:30:13.000Z</time>
      </trkpt>
      <trkpt lat="43.97877" lon="3.03066">
        <ele>821.7</ele>
        <time>2026-04-30T11:30:14.000Z</time>
      </trkpt>
      <trkpt lat="43.97878" lon="3.03067">
        <ele>821.8</ele>
        <time>2026-04-30T11:30:15.000Z</time>
      </trkpt>
      <trkpt lat="43.9788" lon="3.03068">
        <ele>822.2</ele>
        <time>2026-04-30T11:30:16.000Z</time>
      </trkpt>
      <trkpt lat="43.97881" lon="3.03068">
        <ele>822.1</ele>
        <time>2026-04-30T11:30:17.000Z</time>
      </trkpt>
      <trkpt lat="43.97883" lon="3.03068">
        <ele>822</ele>
        <time>2026-04-30T11:30:18.000Z</time>
      </trkpt>
      <trkpt lat="43.97884" lon="3.03067">
        <ele>822</ele>
        <time>2026-04-30T11:30:19.000Z</time>
      </trkpt>
      <trkpt lat="43.97886" lon="3.03066">
        <ele>821.9</ele>
        <time>2026-04-30T11:30:20.000Z</time>
      </trkpt>
      <trkpt lat="43.97887" lon="3.03066">
        <ele>821.7</ele>
        <time>2026-04-30T11:30:21.000Z</time>
      </trkpt>
      <trkpt lat="43.97888" lon="3.03066">
        <ele>821.5</ele>
        <time>2026-04-30T11:30:22.000Z</time>
      </trkpt>
      <trkpt lat="43.9789" lon="3.03066">
        <ele>821.1</ele>
        <time>2026-04-30T11:30:23.000Z</time>
      </trkpt>
      <trkpt lat="43.97891" lon="3.03066">
        <ele>820.9</ele>
        <time>2026-04-30T11:30:24.000Z</time>
      </trkpt>
      <trkpt lat="43.97892" lon="3.03067">
        <ele>821</ele>
        <time>2026-04-30T11:30:25.000Z</time>
      </trkpt>
      <trkpt lat="43.97893" lon="3.03066">
        <ele>820.7</ele>
        <time>2026-04-30T11:30:26.000Z</time>
      </trkpt>
      <trkpt lat="43.97895" lon="3.03066">
        <ele>820.3</ele>
        <time>2026-04-30T11:30:27.000Z</time>
      </trkpt>
      <trkpt lat="43.97896" lon="3.03065">
        <ele>820.3</ele>
        <time>2026-04-30T11:30:28.000Z</time>
      </trkpt>
      <trkpt lat="43.97898" lon="3.03065">
        <ele>820</ele>
        <time>2026-04-30T11:30:29.000Z</time>
      </trkpt>
      <trkpt lat="43.979" lon="3.03065">
        <ele>819.9</ele>
        <time>2026-04-30T11:30:30.000Z</time>
      </trkpt>
      <trkpt lat="43.97902" lon="3.03065">
        <ele>819.9</ele>
        <time>2026-04-30T11:30:31.000Z</time>
      </trkpt>
      <trkpt lat="43.97903" lon="3.03065">
        <ele>819.6</ele>
        <time>2026-04-30T11:30:32.000Z</time>
      </trkpt>
      <trkpt lat="43.97903" lon="3.03066">
        <ele>820.1</ele>
        <time>2026-04-30T11:30:33.000Z</time>
      </trkpt>
      <trkpt lat="43.97903" lon="3.03066">
        <ele>820.4</ele>
        <time>2026-04-30T11:30:34.000Z</time>
      </trkpt>
      <trkpt lat="43.97904" lon="3.03066">
        <ele>820.8</ele>
        <time>2026-04-30T11:30:35.000Z</time>
      </trkpt>
      <trkpt lat="43.97905" lon="3.03066">
        <ele>821.2</ele>
        <time>2026-04-30T11:30:36.000Z</time>
      </trkpt>
      <trkpt lat="43.97906" lon="3.03065">
        <ele>821.6</ele>
        <time>2026-04-30T11:30:37.000Z</time>
      </trkpt>
      <trkpt lat="43.97908" lon="3.03064">
        <ele>821.8</ele>
        <time>2026-04-30T11:30:38.000Z</time>
      </trkpt>
      <trkpt lat="43.97909" lon="3.03064">
        <ele>821.8</ele>
        <time>2026-04-30T11:30:39.000Z</time>
      </trkpt>
      <trkpt lat="43.97911" lon="3.03063">
        <ele>821.7</ele>
        <time>2026-04-30T11:30:40.000Z</time>
      </trkpt>
      <trkpt lat="43.97913" lon="3.03064">
        <ele>821.6</ele>
        <time>2026-04-30T11:30:41.000Z</time>
      </trkpt>
      <trkpt lat="43.97915" lon="3.03064">
        <ele>821.7</ele>
        <time>2026-04-30T11:30:42.000Z</time>
      </trkpt>
      <trkpt lat="43.97916" lon="3.03064">
        <ele>821.8</ele>
        <time>2026-04-30T11:30:43.000Z</time>
      </trkpt>
      <trkpt lat="43.97916" lon="3.03064">
        <ele>821.7</ele>
        <time>2026-04-30T11:30:44.000Z</time>
      </trkpt>
      <trkpt lat="43.97916" lon="3.03064">
        <ele>821.3</ele>
        <time>2026-04-30T11:30:45.000Z</time>
      </trkpt>
      <trkpt lat="43.97917" lon="3.03064">
        <ele>821.1</ele>
        <time>2026-04-30T11:30:46.000Z</time>
      </trkpt>
      <trkpt lat="43.97917" lon="3.03064">
        <ele>821</ele>
        <time>2026-04-30T11:30:47.000Z</time>
      </trkpt>
      <trkpt lat="43.97918" lon="3.03065">
        <ele>821.2</ele>
        <time>2026-04-30T11:30:48.000Z</time>
      </trkpt>
      <trkpt lat="43.97919" lon="3.03065">
        <ele>821.1</ele>
        <time>2026-04-30T11:30:49.000Z</time>
      </trkpt>
      <trkpt lat="43.97919" lon="3.03064">
        <ele>821.2</ele>
        <time>2026-04-30T11:30:50.000Z</time>
      </trkpt>
      <trkpt lat="43.9792" lon="3.03065">
        <ele>821.1</ele>
        <time>2026-04-30T11:30:51.000Z</time>
      </trkpt>
      <trkpt lat="43.9792" lon="3.03065">
        <ele>821.2</ele>
        <time>2026-04-30T11:30:52.000Z</time>
      </trkpt>
      <trkpt lat="43.97921" lon="3.03065">
        <ele>821.1</ele>
        <time>2026-04-30T11:30:53.000Z</time>
      </trkpt>
      <trkpt lat="43.97922" lon="3.03065">
        <ele>821</ele>
        <time>2026-04-30T11:30:54.000Z</time>
      </trkpt>
      <trkpt lat="43.97923" lon="3.03064">
        <ele>820.8</ele>
        <time>2026-04-30T11:30:55.000Z</time>
      </trkpt>
      <trkpt lat="43.97924" lon="3.03065">
        <ele>820.3</ele>
        <time>2026-04-30T11:30:56.000Z</time>
      </trkpt>
      <trkpt lat="43.97925" lon="3.03065">
        <ele>820.2</ele>
        <time>2026-04-30T11:30:57.000Z</time>
      </trkpt>
      <trkpt lat="43.97927" lon="3.03066">
        <ele>819.9</ele>
        <time>2026-04-30T11:30:58.000Z</time>
      </trkpt>
      <trkpt lat="43.97928" lon="3.03066">
        <ele>819.5</ele>
        <time>2026-04-30T11:30:59.000Z</time>
      </trkpt>
      <trkpt lat="43.97929" lon="3.03066">
        <ele>819.2</ele>
        <time>2026-04-30T11:31:00.000Z</time>
      </trkpt>
      <trkpt lat="43.97931" lon="3.03066">
        <ele>819</ele>
        <time>2026-04-30T11:31:01.000Z</time>
      </trkpt>
      <trkpt lat="43.97932" lon="3.03066">
        <ele>819.2</ele>
        <time>2026-04-30T11:31:02.000Z</time>
      </trkpt>
      <trkpt lat="43.97934" lon="3.03066">
        <ele>818.9</ele>
        <time>2026-04-30T11:31:03.000Z</time>
      </trkpt>
      <trkpt lat="43.97935" lon="3.03067">
        <ele>818.4</ele>
        <time>2026-04-30T11:31:04.000Z</time>
      </trkpt>
      <trkpt lat="43.97936" lon="3.03067">
        <ele>818.3</ele>
        <time>2026-04-30T11:31:05.000Z</time>
      </trkpt>
      <trkpt lat="43.97937" lon="3.03067">
        <ele>817.9</ele>
        <time>2026-04-30T11:31:06.000Z</time>
      </trkpt>
      <trkpt lat="43.97938" lon="3.03067">
        <ele>817.7</ele>
        <time>2026-04-30T11:31:07.000Z</time>
      </trkpt>
      <trkpt lat="43.97939" lon="3.03067">
        <ele>818</ele>
        <time>2026-04-30T11:31:08.000Z</time>
      </trkpt>
      <trkpt lat="43.9794" lon="3.03068">
        <ele>818</ele>
        <time>2026-04-30T11:31:09.000Z</time>
      </trkpt>
      <trkpt lat="43.97941" lon="3.03068">
        <ele>818.1</ele>
        <time>2026-04-30T11:31:10.000Z</time>
      </trkpt>
      <trkpt lat="43.97943" lon="3.03069">
        <ele>818</ele>
        <time>2026-04-30T11:31:11.000Z</time>
      </trkpt>
      <trkpt lat="43.97944" lon="3.03069">
        <ele>817.9</ele>
        <time>2026-04-30T11:31:12.000Z</time>
      </trkpt>
      <trkpt lat="43.97944" lon="3.03069">
        <ele>818</ele>
        <time>2026-04-30T11:31:13.000Z</time>
      </trkpt>
      <trkpt lat="43.97945" lon="3.03069">
        <ele>818.1</ele>
        <time>2026-04-30T11:31:14.000Z</time>
      </trkpt>
      <trkpt lat="43.97946" lon="3.0307">
        <ele>818.2</ele>
        <time>2026-04-30T11:31:15.000Z</time>
      </trkpt>
      <trkpt lat="43.97946" lon="3.03071">
        <ele>818.2</ele>
        <time>2026-04-30T11:31:16.000Z</time>
      </trkpt>
      <trkpt lat="43.97947" lon="3.03071">
        <ele>818.3</ele>
        <time>2026-04-30T11:31:17.000Z</time>
      </trkpt>
      <trkpt lat="43.97948" lon="3.03071">
        <ele>818.5</ele>
        <time>2026-04-30T11:31:18.000Z</time>
      </trkpt>
      <trkpt lat="43.9795" lon="3.03071">
        <ele>818.5</ele>
        <time>2026-04-30T11:31:19.000Z</time>
      </trkpt>
      <trkpt lat="43.97951" lon="3.03071">
        <ele>818.3</ele>
        <time>2026-04-30T11:31:20.000Z</time>
      </trkpt>
      <trkpt lat="43.97953" lon="3.03072">
        <ele>818.4</ele>
        <time>2026-04-30T11:31:21.000Z</time>
      </trkpt>
      <trkpt lat="43.97954" lon="3.03073">
        <ele>818.2</ele>
        <time>2026-04-30T11:31:22.000Z</time>
      </trkpt>
      <trkpt lat="43.97955" lon="3.03073">
        <ele>817.9</ele>
        <time>2026-04-30T11:31:23.000Z</time>
      </trkpt>
      <trkpt lat="43.97955" lon="3.03073">
        <ele>817.7</ele>
        <time>2026-04-30T11:31:24.000Z</time>
      </trkpt>
      <trkpt lat="43.97956" lon="3.03074">
        <ele>817.5</ele>
        <time>2026-04-30T11:31:25.000Z</time>
      </trkpt>
      <trkpt lat="43.97957" lon="3.03074">
        <ele>817.4</ele>
        <time>2026-04-30T11:31:26.000Z</time>
      </trkpt>
      <trkpt lat="43.97958" lon="3.03074">
        <ele>817.2</ele>
        <time>2026-04-30T11:31:27.000Z</time>
      </trkpt>
      <trkpt lat="43.97959" lon="3.03075">
        <ele>817.3</ele>
        <time>2026-04-30T11:31:28.000Z</time>
      </trkpt>
      <trkpt lat="43.97961" lon="3.03075">
        <ele>817.3</ele>
        <time>2026-04-30T11:31:29.000Z</time>
      </trkpt>
      <trkpt lat="43.97962" lon="3.03075">
        <ele>817.3</ele>
        <time>2026-04-30T11:31:30.000Z</time>
      </trkpt>
      <trkpt lat="43.97963" lon="3.03076">
        <ele>817.2</ele>
        <time>2026-04-30T11:31:31.000Z</time>
      </trkpt>
      <trkpt lat="43.97964" lon="3.03077">
        <ele>817.1</ele>
        <time>2026-04-30T11:31:32.000Z</time>
      </trkpt>
      <trkpt lat="43.97965" lon="3.03076">
        <ele>817.2</ele>
        <time>2026-04-30T11:31:33.000Z</time>
      </trkpt>
      <trkpt lat="43.97966" lon="3.03076">
        <ele>816.9</ele>
        <time>2026-04-30T11:31:34.000Z</time>
      </trkpt>
      <trkpt lat="43.97967" lon="3.03077">
        <ele>816.9</ele>
        <time>2026-04-30T11:31:35.000Z</time>
      </trkpt>
      <trkpt lat="43.97968" lon="3.03077">
        <ele>817</ele>
        <time>2026-04-30T11:31:36.000Z</time>
      </trkpt>
      <trkpt lat="43.97969" lon="3.03077">
        <ele>817.1</ele>
        <time>2026-04-30T11:31:37.000Z</time>
      </trkpt>
      <trkpt lat="43.9797" lon="3.03077">
        <ele>817.2</ele>
        <time>2026-04-30T11:31:38.000Z</time>
      </trkpt>
      <trkpt lat="43.97972" lon="3.03077">
        <ele>817.1</ele>
        <time>2026-04-30T11:31:39.000Z</time>
      </trkpt>
      <trkpt lat="43.97973" lon="3.03078">
        <ele>817.1</ele>
        <time>2026-04-30T11:31:40.000Z</time>
      </trkpt>
      <trkpt lat="43.97974" lon="3.03078">
        <ele>817</ele>
        <time>2026-04-30T11:31:41.000Z</time>
      </trkpt>
      <trkpt lat="43.97974" lon="3.03078">
        <ele>816.6</ele>
        <time>2026-04-30T11:31:42.000Z</time>
      </trkpt>
      <trkpt lat="43.97975" lon="3.03079">
        <ele>816.2</ele>
        <time>2026-04-30T11:31:43.000Z</time>
      </trkpt>
      <trkpt lat="43.97976" lon="3.03079">
        <ele>816</ele>
        <time>2026-04-30T11:31:44.000Z</time>
      </trkpt>
      <trkpt lat="43.97978" lon="3.0308">
        <ele>815.9</ele>
        <time>2026-04-30T11:31:45.000Z</time>
      </trkpt>
      <trkpt lat="43.97979" lon="3.03081">
        <ele>816</ele>
        <time>2026-04-30T11:31:46.000Z</time>
      </trkpt>
      <trkpt lat="43.97981" lon="3.03081">
        <ele>816.1</ele>
        <time>2026-04-30T11:31:47.000Z</time>
      </trkpt>
      <trkpt lat="43.97982" lon="3.03082">
        <ele>816.2</ele>
        <time>2026-04-30T11:31:48.000Z</time>
      </trkpt>
      <trkpt lat="43.97983" lon="3.03082">
        <ele>816.2</ele>
        <time>2026-04-30T11:31:49.000Z</time>
      </trkpt>
      <trkpt lat="43.97985" lon="3.03083">
        <ele>816.1</ele>
        <time>2026-04-30T11:31:50.000Z</time>
      </trkpt>
      <trkpt lat="43.97986" lon="3.03084">
        <ele>816.1</ele>
        <time>2026-04-30T11:31:51.000Z</time>
      </trkpt>
      <trkpt lat="43.97987" lon="3.03086">
        <ele>815.7</ele>
        <time>2026-04-30T11:31:52.000Z</time>
      </trkpt>
      <trkpt lat="43.97988" lon="3.03087">
        <ele>815.4</ele>
        <time>2026-04-30T11:31:53.000Z</time>
      </trkpt>
      <trkpt lat="43.97989" lon="3.03087">
        <ele>815.2</ele>
        <time>2026-04-30T11:31:54.000Z</time>
      </trkpt>
      <trkpt lat="43.9799" lon="3.03087">
        <ele>815.3</ele>
        <time>2026-04-30T11:31:55.000Z</time>
      </trkpt>
      <trkpt lat="43.97992" lon="3.03088">
        <ele>815.3</ele>
        <time>2026-04-30T11:31:56.000Z</time>
      </trkpt>
      <trkpt lat="43.97993" lon="3.03087">
        <ele>815</ele>
        <time>2026-04-30T11:31:57.000Z</time>
      </trkpt>
      <trkpt lat="43.97995" lon="3.03087">
        <ele>814.6</ele>
        <time>2026-04-30T11:31:58.000Z</time>
      </trkpt>
      <trkpt lat="43.97996" lon="3.03088">
        <ele>814.5</ele>
        <time>2026-04-30T11:31:59.000Z</time>
      </trkpt>
      <trkpt lat="43.97997" lon="3.03088">
        <ele>814.4</ele>
        <time>2026-04-30T11:32:00.000Z</time>
      </trkpt>
      <trkpt lat="43.97998" lon="3.03088">
        <ele>814.8</ele>
        <time>2026-04-30T11:32:01.000Z</time>
      </trkpt>
      <trkpt lat="43.97999" lon="3.03088">
        <ele>814.9</ele>
        <time>2026-04-30T11:32:02.000Z</time>
      </trkpt>
      <trkpt lat="43.98" lon="3.03089">
        <ele>814.6</ele>
        <time>2026-04-30T11:32:03.000Z</time>
      </trkpt>
      <trkpt lat="43.98001" lon="3.03089">
        <ele>814.4</ele>
        <time>2026-04-30T11:32:04.000Z</time>
      </trkpt>
      <trkpt lat="43.98002" lon="3.0309">
        <ele>814.5</ele>
        <time>2026-04-30T11:32:05.000Z</time>
      </trkpt>
      <trkpt lat="43.98004" lon="3.03091">
        <ele>814.3</ele>
        <time>2026-04-30T11:32:06.000Z</time>
      </trkpt>
      <trkpt lat="43.98005" lon="3.03093">
        <ele>814.7</ele>
        <time>2026-04-30T11:32:07.000Z</time>
      </trkpt>
      <trkpt lat="43.98007" lon="3.03094">
        <ele>814.9</ele>
        <time>2026-04-30T11:32:08.000Z</time>
      </trkpt>
      <trkpt lat="43.98008" lon="3.03094">
        <ele>815</ele>
        <time>2026-04-30T11:32:09.000Z</time>
      </trkpt>
      <trkpt lat="43.98009" lon="3.03094">
        <ele>814.7</ele>
        <time>2026-04-30T11:32:10.000Z</time>
      </trkpt>
      <trkpt lat="43.9801" lon="3.03094">
        <ele>814.5</ele>
        <time>2026-04-30T11:32:11.000Z</time>
      </trkpt>
      <trkpt lat="43.9801" lon="3.03094">
        <ele>814.4</ele>
        <time>2026-04-30T11:32:12.000Z</time>
      </trkpt>
      <trkpt lat="43.98012" lon="3.03093">
        <ele>814.7</ele>
        <time>2026-04-30T11:32:13.000Z</time>
      </trkpt>
      <trkpt lat="43.98013" lon="3.03094">
        <ele>814.6</ele>
        <time>2026-04-30T11:32:14.000Z</time>
      </trkpt>
      <trkpt lat="43.98015" lon="3.03094">
        <ele>814.6</ele>
        <time>2026-04-30T11:32:15.000Z</time>
      </trkpt>
      <trkpt lat="43.98016" lon="3.03096">
        <ele>814.8</ele>
        <time>2026-04-30T11:32:16.000Z</time>
      </trkpt>
      <trkpt lat="43.98017" lon="3.03097">
        <ele>814.9</ele>
        <time>2026-04-30T11:32:17.000Z</time>
      </trkpt>
      <trkpt lat="43.98017" lon="3.03098">
        <ele>815.3</ele>
        <time>2026-04-30T11:32:18.000Z</time>
      </trkpt>
      <trkpt lat="43.98018" lon="3.03099">
        <ele>815.5</ele>
        <time>2026-04-30T11:32:19.000Z</time>
      </trkpt>
      <trkpt lat="43.98019" lon="3.031">
        <ele>815.4</ele>
        <time>2026-04-30T11:32:20.000Z</time>
      </trkpt>
      <trkpt lat="43.98019" lon="3.03102">
        <ele>815.4</ele>
        <time>2026-04-30T11:32:21.000Z</time>
      </trkpt>
      <trkpt lat="43.9802" lon="3.03102">
        <ele>815.3</ele>
        <time>2026-04-30T11:32:22.000Z</time>
      </trkpt>
      <trkpt lat="43.98022" lon="3.03099">
        <ele>814.5</ele>
        <time>2026-04-30T11:32:23.000Z</time>
      </trkpt>
      <trkpt lat="43.98023" lon="3.03099">
        <ele>814.5</ele>
        <time>2026-04-30T11:32:24.000Z</time>
      </trkpt>
      <trkpt lat="43.98024" lon="3.031">
        <ele>814.4</ele>
        <time>2026-04-30T11:32:25.000Z</time>
      </trkpt>
      <trkpt lat="43.98025" lon="3.031">
        <ele>814.5</ele>
        <time>2026-04-30T11:32:26.000Z</time>
      </trkpt>
      <trkpt lat="43.98026" lon="3.031">
        <ele>814.4</ele>
        <time>2026-04-30T11:32:27.000Z</time>
      </trkpt>
      <trkpt lat="43.98027" lon="3.031">
        <ele>814.5</ele>
        <time>2026-04-30T11:32:28.000Z</time>
      </trkpt>
      <trkpt lat="43.98028" lon="3.03099">
        <ele>814.5</ele>
        <time>2026-04-30T11:32:29.000Z</time>
      </trkpt>
      <trkpt lat="43.98029" lon="3.03099">
        <ele>814.3</ele>
        <time>2026-04-30T11:32:30.000Z</time>
      </trkpt>
      <trkpt lat="43.9803" lon="3.03098">
        <ele>814.3</ele>
        <time>2026-04-30T11:32:31.000Z</time>
      </trkpt>
      <trkpt lat="43.9803" lon="3.03097">
        <ele>814.5</ele>
        <time>2026-04-30T11:32:32.000Z</time>
      </trkpt>
      <trkpt lat="43.9803" lon="3.03095">
        <ele>814.8</ele>
        <time>2026-04-30T11:32:33.000Z</time>
      </trkpt>
      <trkpt lat="43.98031" lon="3.03093">
        <ele>814.7</ele>
        <time>2026-04-30T11:32:34.000Z</time>
      </trkpt>
      <trkpt lat="43.98031" lon="3.03092">
        <ele>814.7</ele>
        <time>2026-04-30T11:32:35.000Z</time>
      </trkpt>
      <trkpt lat="43.98031" lon="3.03092">
        <ele>814.9</ele>
        <time>2026-04-30T11:32:36.000Z</time>
      </trkpt>
      <trkpt lat="43.98032" lon="3.03092">
        <ele>815.3</ele>
        <time>2026-04-30T11:32:37.000Z</time>
      </trkpt>
      <trkpt lat="43.98033" lon="3.03091">
        <ele>815.3</ele>
        <time>2026-04-30T11:32:38.000Z</time>
      </trkpt>
      <trkpt lat="43.98033" lon="3.0309">
        <ele>815.3</ele>
        <time>2026-04-30T11:32:39.000Z</time>
      </trkpt>
      <trkpt lat="43.98033" lon="3.03088">
        <ele>815.2</ele>
        <time>2026-04-30T11:32:40.000Z</time>
      </trkpt>
      <trkpt lat="43.98033" lon="3.03087">
        <ele>815.1</ele>
        <time>2026-04-30T11:32:41.000Z</time>
      </trkpt>
      <trkpt lat="43.98033" lon="3.03085">
        <ele>815.1</ele>
        <time>2026-04-30T11:32:42.000Z</time>
      </trkpt>
      <trkpt lat="43.98034" lon="3.03084">
        <ele>815.1</ele>
        <time>2026-04-30T11:32:43.000Z</time>
      </trkpt>
      <trkpt lat="43.98034" lon="3.03082">
        <ele>815.3</ele>
        <time>2026-04-30T11:32:44.000Z</time>
      </trkpt>
      <trkpt lat="43.98034" lon="3.0308">
        <ele>815.5</ele>
        <time>2026-04-30T11:32:45.000Z</time>
      </trkpt>
      <trkpt lat="43.98034" lon="3.03078">
        <ele>815.9</ele>
        <time>2026-04-30T11:32:46.000Z</time>
      </trkpt>
      <trkpt lat="43.98035" lon="3.03077">
        <ele>815.7</ele>
        <time>2026-04-30T11:32:47.000Z</time>
      </trkpt>
      <trkpt lat="43.98035" lon="3.03076">
        <ele>815.8</ele>
        <time>2026-04-30T11:32:48.000Z</time>
      </trkpt>
      <trkpt lat="43.98034" lon="3.03075">
        <ele>815.8</ele>
        <time>2026-04-30T11:32:49.000Z</time>
      </trkpt>
      <trkpt lat="43.98035" lon="3.03074">
        <ele>815.8</ele>
        <time>2026-04-30T11:32:50.000Z</time>
      </trkpt>
      <trkpt lat="43.98035" lon="3.03073">
        <ele>815.8</ele>
        <time>2026-04-30T11:32:51.000Z</time>
      </trkpt>
      <trkpt lat="43.98035" lon="3.03071">
        <ele>816</ele>
        <time>2026-04-30T11:32:52.000Z</time>
      </trkpt>
      <trkpt lat="43.98035" lon="3.0307">
        <ele>815.9</ele>
        <time>2026-04-30T11:32:53.000Z</time>
      </trkpt>
      <trkpt lat="43.98036" lon="3.03069">
        <ele>815.8</ele>
        <time>2026-04-30T11:32:54.000Z</time>
      </trkpt>
      <trkpt lat="43.98037" lon="3.03067">
        <ele>815.8</ele>
        <time>2026-04-30T11:32:55.000Z</time>
      </trkpt>
      <trkpt lat="43.98037" lon="3.03066">
        <ele>815.7</ele>
        <time>2026-04-30T11:32:56.000Z</time>
      </trkpt>
      <trkpt lat="43.98038" lon="3.03064">
        <ele>815.9</ele>
        <time>2026-04-30T11:32:57.000Z</time>
      </trkpt>
      <trkpt lat="43.98039" lon="3.03063">
        <ele>816</ele>
        <time>2026-04-30T11:32:58.000Z</time>
      </trkpt>
      <trkpt lat="43.98039" lon="3.03062">
        <ele>816.3</ele>
        <time>2026-04-30T11:32:59.000Z</time>
      </trkpt>
      <trkpt lat="43.98039" lon="3.03061">
        <ele>816.3</ele>
        <time>2026-04-30T11:33:00.000Z</time>
      </trkpt>
      <trkpt lat="43.9804" lon="3.0306">
        <ele>816.5</ele>
        <time>2026-04-30T11:33:01.000Z</time>
      </trkpt>
      <trkpt lat="43.9804" lon="3.03059">
        <ele>816.7</ele>
        <time>2026-04-30T11:33:02.000Z</time>
      </trkpt>
      <trkpt lat="43.9804" lon="3.03058">
        <ele>816.7</ele>
        <time>2026-04-30T11:33:03.000Z</time>
      </trkpt>
      <trkpt lat="43.98041" lon="3.03056">
        <ele>816.3</ele>
        <time>2026-04-30T11:33:04.000Z</time>
      </trkpt>
      <trkpt lat="43.98041" lon="3.03055">
        <ele>816.2</ele>
        <time>2026-04-30T11:33:05.000Z</time>
      </trkpt>
      <trkpt lat="43.98041" lon="3.03054">
        <ele>816.3</ele>
        <time>2026-04-30T11:33:06.000Z</time>
      </trkpt>
      <trkpt lat="43.98041" lon="3.03052">
        <ele>816.6</ele>
        <time>2026-04-30T11:33:07.000Z</time>
      </trkpt>
      <trkpt lat="43.98042" lon="3.0305">
        <ele>816.9</ele>
        <time>2026-04-30T11:33:08.000Z</time>
      </trkpt>
      <trkpt lat="43.98042" lon="3.03048">
        <ele>816.8</ele>
        <time>2026-04-30T11:33:09.000Z</time>
      </trkpt>
      <trkpt lat="43.98043" lon="3.03046">
        <ele>816.8</ele>
        <time>2026-04-30T11:33:10.000Z</time>
      </trkpt>
      <trkpt lat="43.98044" lon="3.03044">
        <ele>816.7</ele>
        <time>2026-04-30T11:33:11.000Z</time>
      </trkpt>
      <trkpt lat="43.98044" lon="3.03043">
        <ele>816.3</ele>
        <time>2026-04-30T11:33:12.000Z</time>
      </trkpt>
      <trkpt lat="43.98044" lon="3.03042">
        <ele>816.2</ele>
        <time>2026-04-30T11:33:13.000Z</time>
      </trkpt>
      <trkpt lat="43.98044" lon="3.03041">
        <ele>816.3</ele>
        <time>2026-04-30T11:33:14.000Z</time>
      </trkpt>
      <trkpt lat="43.98045" lon="3.03039">
        <ele>816.1</ele>
        <time>2026-04-30T11:33:15.000Z</time>
      </trkpt>
      <trkpt lat="43.98045" lon="3.03038">
        <ele>815.8</ele>
        <time>2026-04-30T11:33:16.000Z</time>
      </trkpt>
      <trkpt lat="43.98046" lon="3.03036">
        <ele>815.7</ele>
        <time>2026-04-30T11:33:17.000Z</time>
      </trkpt>
      <trkpt lat="43.98046" lon="3.03034">
        <ele>815.4</ele>
        <time>2026-04-30T11:33:18.000Z</time>
      </trkpt>
      <trkpt lat="43.98047" lon="3.03033">
        <ele>815.2</ele>
        <time>2026-04-30T11:33:19.000Z</time>
      </trkpt>
      <trkpt lat="43.98048" lon="3.03031">
        <ele>814.8</ele>
        <time>2026-04-30T11:33:20.000Z</time>
      </trkpt>
      <trkpt lat="43.98048" lon="3.0303">
        <ele>814.7</ele>
        <time>2026-04-30T11:33:21.000Z</time>
      </trkpt>
      <trkpt lat="43.98049" lon="3.03028">
        <ele>814.4</ele>
        <time>2026-04-30T11:33:22.000Z</time>
      </trkpt>
      <trkpt lat="43.98049" lon="3.03026">
        <ele>814</ele>
        <time>2026-04-30T11:33:23.000Z</time>
      </trkpt>
      <trkpt lat="43.98049" lon="3.03025">
        <ele>813.8</ele>
        <time>2026-04-30T11:33:24.000Z</time>
      </trkpt>
      <trkpt lat="43.98049" lon="3.03024">
        <ele>813.5</ele>
        <time>2026-04-30T11:33:25.000Z</time>
      </trkpt>
      <trkpt lat="43.9805" lon="3.03023">
        <ele>813.3</ele>
        <time>2026-04-30T11:33:26.000Z</time>
      </trkpt>
      <trkpt lat="43.9805" lon="3.03021">
        <ele>813.4</ele>
        <time>2026-04-30T11:33:27.000Z</time>
      </trkpt>
      <trkpt lat="43.9805" lon="3.0302">
        <ele>813.4</ele>
        <time>2026-04-30T11:33:28.000Z</time>
      </trkpt>
      <trkpt lat="43.98051" lon="3.03019">
        <ele>813.1</ele>
        <time>2026-04-30T11:33:29.000Z</time>
      </trkpt>
      <trkpt lat="43.98051" lon="3.03017">
        <ele>812.9</ele>
        <time>2026-04-30T11:33:30.000Z</time>
      </trkpt>
      <trkpt lat="43.98051" lon="3.03016">
        <ele>813.3</ele>
        <time>2026-04-30T11:33:31.000Z</time>
      </trkpt>
      <trkpt lat="43.98052" lon="3.03015">
        <ele>813.4</ele>
        <time>2026-04-30T11:33:32.000Z</time>
      </trkpt>
      <trkpt lat="43.98052" lon="3.03013">
        <ele>813.3</ele>
        <time>2026-04-30T11:33:33.000Z</time>
      </trkpt>
      <trkpt lat="43.98053" lon="3.03012">
        <ele>813.3</ele>
        <time>2026-04-30T11:33:34.000Z</time>
      </trkpt>
      <trkpt lat="43.98054" lon="3.0301">
        <ele>813.1</ele>
        <time>2026-04-30T11:33:35.000Z</time>
      </trkpt>
      <trkpt lat="43.98055" lon="3.03009">
        <ele>813</ele>
        <time>2026-04-30T11:33:36.000Z</time>
      </trkpt>
      <trkpt lat="43.98055" lon="3.03006">
        <ele>812.8</ele>
        <time>2026-04-30T11:33:37.000Z</time>
      </trkpt>
      <trkpt lat="43.98055" lon="3.03005">
        <ele>812.6</ele>
        <time>2026-04-30T11:33:38.000Z</time>
      </trkpt>
      <trkpt lat="43.98056" lon="3.03002">
        <ele>812.8</ele>
        <time>2026-04-30T11:33:39.000Z</time>
      </trkpt>
      <trkpt lat="43.98056" lon="3.03001">
        <ele>812.8</ele>
        <time>2026-04-30T11:33:40.000Z</time>
      </trkpt>
      <trkpt lat="43.98056" lon="3.03">
        <ele>812.9</ele>
        <time>2026-04-30T11:33:41.000Z</time>
      </trkpt>
      <trkpt lat="43.98057" lon="3.02999">
        <ele>812.8</ele>
        <time>2026-04-30T11:33:42.000Z</time>
      </trkpt>
      <trkpt lat="43.98058" lon="3.02997">
        <ele>812.6</ele>
        <time>2026-04-30T11:33:43.000Z</time>
      </trkpt>
      <trkpt lat="43.98058" lon="3.02996">
        <ele>812.3</ele>
        <time>2026-04-30T11:33:44.000Z</time>
      </trkpt>
      <trkpt lat="43.98059" lon="3.02994">
        <ele>812.1</ele>
        <time>2026-04-30T11:33:45.000Z</time>
      </trkpt>
      <trkpt lat="43.98059" lon="3.02992">
        <ele>812.3</ele>
        <time>2026-04-30T11:33:46.000Z</time>
      </trkpt>
      <trkpt lat="43.9806" lon="3.0299">
        <ele>812.5</ele>
        <time>2026-04-30T11:33:47.000Z</time>
      </trkpt>
      <trkpt lat="43.9806" lon="3.02988">
        <ele>812.7</ele>
        <time>2026-04-30T11:33:48.000Z</time>
      </trkpt>
      <trkpt lat="43.9806" lon="3.02986">
        <ele>813</ele>
        <time>2026-04-30T11:33:49.000Z</time>
      </trkpt>
      <trkpt lat="43.98061" lon="3.02985">
        <ele>813.1</ele>
        <time>2026-04-30T11:33:50.000Z</time>
      </trkpt>
      <trkpt lat="43.98061" lon="3.02984">
        <ele>812.8</ele>
        <time>2026-04-30T11:33:51.000Z</time>
      </trkpt>
      <trkpt lat="43.98062" lon="3.02983">
        <ele>812.6</ele>
        <time>2026-04-30T11:33:52.000Z</time>
      </trkpt>
      <trkpt lat="43.98062" lon="3.02982">
        <ele>812.2</ele>
        <time>2026-04-30T11:33:53.000Z</time>
      </trkpt>
      <trkpt lat="43.98062" lon="3.0298">
        <ele>812</ele>
        <time>2026-04-30T11:33:54.000Z</time>
      </trkpt>
      <trkpt lat="43.98063" lon="3.02979">
        <ele>811.8</ele>
        <time>2026-04-30T11:33:55.000Z</time>
      </trkpt>
      <trkpt lat="43.98063" lon="3.02976">
        <ele>811.7</ele>
        <time>2026-04-30T11:33:56.000Z</time>
      </trkpt>
      <trkpt lat="43.98064" lon="3.02974">
        <ele>811.8</ele>
        <time>2026-04-30T11:33:57.000Z</time>
      </trkpt>
      <trkpt lat="43.98064" lon="3.02972">
        <ele>811.7</ele>
        <time>2026-04-30T11:33:58.000Z</time>
      </trkpt>
      <trkpt lat="43.98065" lon="3.0297">
        <ele>811.9</ele>
        <time>2026-04-30T11:33:59.000Z</time>
      </trkpt>
      <trkpt lat="43.98065" lon="3.02968">
        <ele>811.9</ele>
        <time>2026-04-30T11:34:00.000Z</time>
      </trkpt>
      <trkpt lat="43.98065" lon="3.02967">
        <ele>812</ele>
        <time>2026-04-30T11:34:01.000Z</time>
      </trkpt>
      <trkpt lat="43.98065" lon="3.02966">
        <ele>811.9</ele>
        <time>2026-04-30T11:34:02.000Z</time>
      </trkpt>
      <trkpt lat="43.98065" lon="3.02964">
        <ele>811.6</ele>
        <time>2026-04-30T11:34:03.000Z</time>
      </trkpt>
      <trkpt lat="43.98065" lon="3.02963">
        <ele>811.5</ele>
        <time>2026-04-30T11:34:04.000Z</time>
      </trkpt>
      <trkpt lat="43.98066" lon="3.02961">
        <ele>811.5</ele>
        <time>2026-04-30T11:34:05.000Z</time>
      </trkpt>
      <trkpt lat="43.98068" lon="3.02957">
        <ele>811.4</ele>
        <time>2026-04-30T11:34:06.999Z</time>
      </trkpt>
      <trkpt lat="43.98069" lon="3.02955">
        <ele>811.4</ele>
        <time>2026-04-30T11:34:07.999Z</time>
      </trkpt>
      <trkpt lat="43.9807" lon="3.02953">
        <ele>811.8</ele>
        <time>2026-04-30T11:34:08.999Z</time>
      </trkpt>
      <trkpt lat="43.98071" lon="3.02951">
        <ele>812</ele>
        <time>2026-04-30T11:34:09.999Z</time>
      </trkpt>
      <trkpt lat="43.98071" lon="3.02949">
        <ele>812.2</ele>
        <time>2026-04-30T11:34:10.999Z</time>
      </trkpt>
      <trkpt lat="43.98071" lon="3.02948">
        <ele>812.3</ele>
        <time>2026-04-30T11:34:11.999Z</time>
      </trkpt>
      <trkpt lat="43.98072" lon="3.02947">
        <ele>812.4</ele>
        <time>2026-04-30T11:34:12.999Z</time>
      </trkpt>
      <trkpt lat="43.98072" lon="3.02946">
        <ele>812</ele>
        <time>2026-04-30T11:34:13.999Z</time>
      </trkpt>
      <trkpt lat="43.98073" lon="3.02944">
        <ele>811.7</ele>
        <time>2026-04-30T11:34:14.999Z</time>
      </trkpt>
      <trkpt lat="43.98073" lon="3.02943">
        <ele>811.3</ele>
        <time>2026-04-30T11:34:15.999Z</time>
      </trkpt>
      <trkpt lat="43.98073" lon="3.02941">
        <ele>811.3</ele>
        <time>2026-04-30T11:34:16.999Z</time>
      </trkpt>
      <trkpt lat="43.98074" lon="3.02939">
        <ele>811.5</ele>
        <time>2026-04-30T11:34:17.999Z</time>
      </trkpt>
      <trkpt lat="43.98075" lon="3.02937">
        <ele>811.7</ele>
        <time>2026-04-30T11:34:18.999Z</time>
      </trkpt>
      <trkpt lat="43.98075" lon="3.02935">
        <ele>811.8</ele>
        <time>2026-04-30T11:34:19.999Z</time>
      </trkpt>
      <trkpt lat="43.98075" lon="3.02934">
        <ele>811.7</ele>
        <time>2026-04-30T11:34:20.999Z</time>
      </trkpt>
      <trkpt lat="43.98075" lon="3.02932">
        <ele>811.4</ele>
        <time>2026-04-30T11:34:21.999Z</time>
      </trkpt>
      <trkpt lat="43.98076" lon="3.02931">
        <ele>811.3</ele>
        <time>2026-04-30T11:34:22.999Z</time>
      </trkpt>
      <trkpt lat="43.98077" lon="3.0293">
        <ele>811.1</ele>
        <time>2026-04-30T11:34:23.999Z</time>
      </trkpt>
      <trkpt lat="43.98077" lon="3.02928">
        <ele>810.7</ele>
        <time>2026-04-30T11:34:24.999Z</time>
      </trkpt>
      <trkpt lat="43.98078" lon="3.02927">
        <ele>810.8</ele>
        <time>2026-04-30T11:34:25.999Z</time>
      </trkpt>
      <trkpt lat="43.98078" lon="3.02925">
        <ele>811</ele>
        <time>2026-04-30T11:34:26.999Z</time>
      </trkpt>
      <trkpt lat="43.98078" lon="3.02923">
        <ele>811</ele>
        <time>2026-04-30T11:34:27.999Z</time>
      </trkpt>
      <trkpt lat="43.98078" lon="3.02922">
        <ele>810.9</ele>
        <time>2026-04-30T11:34:28.999Z</time>
      </trkpt>
      <trkpt lat="43.98078" lon="3.0292">
        <ele>811.1</ele>
        <time>2026-04-30T11:34:29.999Z</time>
      </trkpt>
      <trkpt lat="43.98079" lon="3.02918">
        <ele>810.8</ele>
        <time>2026-04-30T11:34:30.999Z</time>
      </trkpt>
      <trkpt lat="43.98079" lon="3.02917">
        <ele>810.8</ele>
        <time>2026-04-30T11:34:31.999Z</time>
      </trkpt>
      <trkpt lat="43.9808" lon="3.02915">
        <ele>810.9</ele>
        <time>2026-04-30T11:34:32.999Z</time>
      </trkpt>
      <trkpt lat="43.98081" lon="3.02914">
        <ele>811</ele>
        <time>2026-04-30T11:34:33.999Z</time>
      </trkpt>
      <trkpt lat="43.98081" lon="3.02912">
        <ele>811</ele>
        <time>2026-04-30T11:34:34.999Z</time>
      </trkpt>
      <trkpt lat="43.98081" lon="3.02911">
        <ele>811</ele>
        <time>2026-04-30T11:34:35.999Z</time>
      </trkpt>
      <trkpt lat="43.98081" lon="3.02909">
        <ele>811.1</ele>
        <time>2026-04-30T11:34:36.999Z</time>
      </trkpt>
      <trkpt lat="43.98082" lon="3.02907">
        <ele>811.1</ele>
        <time>2026-04-30T11:34:37.999Z</time>
      </trkpt>
      <trkpt lat="43.98082" lon="3.02905">
        <ele>811</ele>
        <time>2026-04-30T11:34:38.999Z</time>
      </trkpt>
      <trkpt lat="43.98083" lon="3.02904">
        <ele>811.1</ele>
        <time>2026-04-30T11:34:39.999Z</time>
      </trkpt>
      <trkpt lat="43.98083" lon="3.02902">
        <ele>811.2</ele>
        <time>2026-04-30T11:34:40.999Z</time>
      </trkpt>
      <trkpt lat="43.98084" lon="3.029">
        <ele>811.2</ele>
        <time>2026-04-30T11:34:41.999Z</time>
      </trkpt>
      <trkpt lat="43.98085" lon="3.02898">
        <ele>811.1</ele>
        <time>2026-04-30T11:34:42.999Z</time>
      </trkpt>
      <trkpt lat="43.98085" lon="3.02897">
        <ele>810.7</ele>
        <time>2026-04-30T11:34:43.999Z</time>
      </trkpt>
      <trkpt lat="43.98086" lon="3.02896">
        <ele>810.4</ele>
        <time>2026-04-30T11:34:44.999Z</time>
      </trkpt>
      <trkpt lat="43.98087" lon="3.02894">
        <ele>810.4</ele>
        <time>2026-04-30T11:34:45.999Z</time>
      </trkpt>
      <trkpt lat="43.98087" lon="3.02892">
        <ele>810.3</ele>
        <time>2026-04-30T11:34:46.999Z</time>
      </trkpt>
      <trkpt lat="43.98087" lon="3.0289">
        <ele>810.3</ele>
        <time>2026-04-30T11:34:47.999Z</time>
      </trkpt>
      <trkpt lat="43.98088" lon="3.02889">
        <ele>810.5</ele>
        <time>2026-04-30T11:34:48.999Z</time>
      </trkpt>
      <trkpt lat="43.98088" lon="3.02887">
        <ele>810.6</ele>
        <time>2026-04-30T11:34:49.999Z</time>
      </trkpt>
      <trkpt lat="43.98089" lon="3.02886">
        <ele>810.9</ele>
        <time>2026-04-30T11:34:50.999Z</time>
      </trkpt>
      <trkpt lat="43.9809" lon="3.02885">
        <ele>811.2</ele>
        <time>2026-04-30T11:34:51.999Z</time>
      </trkpt>
      <trkpt lat="43.9809" lon="3.02883">
        <ele>811.4</ele>
        <time>2026-04-30T11:34:52.999Z</time>
      </trkpt>
      <trkpt lat="43.98091" lon="3.02882">
        <ele>811.4</ele>
        <time>2026-04-30T11:34:53.999Z</time>
      </trkpt>
      <trkpt lat="43.98091" lon="3.02879">
        <ele>811.4</ele>
        <time>2026-04-30T11:34:54.999Z</time>
      </trkpt>
      <trkpt lat="43.98092" lon="3.02877">
        <ele>811.4</ele>
        <time>2026-04-30T11:34:55.999Z</time>
      </trkpt>
      <trkpt lat="43.98092" lon="3.02876">
        <ele>811.5</ele>
        <time>2026-04-30T11:34:56.999Z</time>
      </trkpt>
      <trkpt lat="43.98092" lon="3.02874">
        <ele>811.2</ele>
        <time>2026-04-30T11:34:57.999Z</time>
      </trkpt>
      <trkpt lat="43.98092" lon="3.02873">
        <ele>811.4</ele>
        <time>2026-04-30T11:34:58.999Z</time>
      </trkpt>
      <trkpt lat="43.98092" lon="3.02872">
        <ele>811.1</ele>
        <time>2026-04-30T11:34:59.999Z</time>
      </trkpt>
      <trkpt lat="43.98093" lon="3.0287">
        <ele>811.1</ele>
        <time>2026-04-30T11:35:00.999Z</time>
      </trkpt>
      <trkpt lat="43.98093" lon="3.02868">
        <ele>811.5</ele>
        <time>2026-04-30T11:35:01.999Z</time>
      </trkpt>
      <trkpt lat="43.98094" lon="3.02867">
        <ele>811.5</ele>
        <time>2026-04-30T11:35:02.999Z</time>
      </trkpt>
      <trkpt lat="43.98094" lon="3.02866">
        <ele>811.1</ele>
        <time>2026-04-30T11:35:03.999Z</time>
      </trkpt>
      <trkpt lat="43.98095" lon="3.02865">
        <ele>810.7</ele>
        <time>2026-04-30T11:35:04.999Z</time>
      </trkpt>
      <trkpt lat="43.98095" lon="3.02864">
        <ele>810.2</ele>
        <time>2026-04-30T11:35:05.999Z</time>
      </trkpt>
      <trkpt lat="43.98096" lon="3.02862">
        <ele>810</ele>
        <time>2026-04-30T11:35:06.999Z</time>
      </trkpt>
      <trkpt lat="43.98096" lon="3.0286">
        <ele>809.7</ele>
        <time>2026-04-30T11:35:07.999Z</time>
      </trkpt>
      <trkpt lat="43.98096" lon="3.02859">
        <ele>810</ele>
        <time>2026-04-30T11:35:08.999Z</time>
      </trkpt>
      <trkpt lat="43.98096" lon="3.02857">
        <ele>810.3</ele>
        <time>2026-04-30T11:35:09.999Z</time>
      </trkpt>
      <trkpt lat="43.98096" lon="3.02855">
        <ele>810.7</ele>
        <time>2026-04-30T11:35:10.999Z</time>
      </trkpt>
      <trkpt lat="43.98097" lon="3.02853">
        <ele>810.9</ele>
        <time>2026-04-30T11:35:11.999Z</time>
      </trkpt>
      <trkpt lat="43.98097" lon="3.02852">
        <ele>810.9</ele>
        <time>2026-04-30T11:35:12.999Z</time>
      </trkpt>
      <trkpt lat="43.98097" lon="3.02851">
        <ele>810.6</ele>
        <time>2026-04-30T11:35:13.999Z</time>
      </trkpt>
      <trkpt lat="43.98098" lon="3.02849">
        <ele>810.4</ele>
        <time>2026-04-30T11:35:14.999Z</time>
      </trkpt>
      <trkpt lat="43.98098" lon="3.02847">
        <ele>810.3</ele>
        <time>2026-04-30T11:35:15.999Z</time>
      </trkpt>
      <trkpt lat="43.98098" lon="3.02846">
        <ele>810.2</ele>
        <time>2026-04-30T11:35:16.999Z</time>
      </trkpt>
      <trkpt lat="43.98099" lon="3.02843">
        <ele>810.3</ele>
        <time>2026-04-30T11:35:17.999Z</time>
      </trkpt>
      <trkpt lat="43.98099" lon="3.02841">
        <ele>810.3</ele>
        <time>2026-04-30T11:35:18.999Z</time>
      </trkpt>
      <trkpt lat="43.98099" lon="3.0284">
        <ele>810.3</ele>
        <time>2026-04-30T11:35:19.999Z</time>
      </trkpt>
      <trkpt lat="43.981" lon="3.02839">
        <ele>810.1</ele>
        <time>2026-04-30T11:35:20.999Z</time>
      </trkpt>
      <trkpt lat="43.98101" lon="3.02838">
        <ele>810</ele>
        <time>2026-04-30T11:35:21.999Z</time>
      </trkpt>
      <trkpt lat="43.98101" lon="3.02837">
        <ele>809.9</ele>
        <time>2026-04-30T11:35:22.999Z</time>
      </trkpt>
      <trkpt lat="43.98102" lon="3.02835">
        <ele>809.8</ele>
        <time>2026-04-30T11:35:23.999Z</time>
      </trkpt>
      <trkpt lat="43.98102" lon="3.02833">
        <ele>809.8</ele>
        <time>2026-04-30T11:35:24.999Z</time>
      </trkpt>
      <trkpt lat="43.98103" lon="3.02831">
        <ele>809.8</ele>
        <time>2026-04-30T11:35:25.999Z</time>
      </trkpt>
      <trkpt lat="43.98103" lon="3.0283">
        <ele>809.7</ele>
        <time>2026-04-30T11:35:26.999Z</time>
      </trkpt>
      <trkpt lat="43.98104" lon="3.02829">
        <ele>809.8</ele>
        <time>2026-04-30T11:35:27.999Z</time>
      </trkpt>
      <trkpt lat="43.98104" lon="3.02828">
        <ele>810</ele>
        <time>2026-04-30T11:35:28.999Z</time>
      </trkpt>
      <trkpt lat="43.98105" lon="3.02827">
        <ele>810</ele>
        <time>2026-04-30T11:35:29.999Z</time>
      </trkpt>
      <trkpt lat="43.98105" lon="3.02825">
        <ele>809.9</ele>
        <time>2026-04-30T11:35:30.999Z</time>
      </trkpt>
      <trkpt lat="43.98105" lon="3.02823">
        <ele>809.8</ele>
        <time>2026-04-30T11:35:31.999Z</time>
      </trkpt>
      <trkpt lat="43.98105" lon="3.0282">
        <ele>810.1</ele>
        <time>2026-04-30T11:35:32.999Z</time>
      </trkpt>
      <trkpt lat="43.98105" lon="3.02818">
        <ele>810.2</ele>
        <time>2026-04-30T11:35:33.999Z</time>
      </trkpt>
      <trkpt lat="43.98105" lon="3.02817">
        <ele>810.2</ele>
        <time>2026-04-30T11:35:34.999Z</time>
      </trkpt>
      <trkpt lat="43.98106" lon="3.02816">
        <ele>810.1</ele>
        <time>2026-04-30T11:35:35.999Z</time>
      </trkpt>
      <trkpt lat="43.98106" lon="3.02816">
        <ele>810.1</ele>
        <time>2026-04-30T11:35:36.999Z</time>
      </trkpt>
      <trkpt lat="43.98107" lon="3.02814">
        <ele>810.2</ele>
        <time>2026-04-30T11:35:37.999Z</time>
      </trkpt>
      <trkpt lat="43.98107" lon="3.02813">
        <ele>810.4</ele>
        <time>2026-04-30T11:35:38.999Z</time>
      </trkpt>
      <trkpt lat="43.98108" lon="3.02811">
        <ele>810.6</ele>
        <time>2026-04-30T11:35:39.999Z</time>
      </trkpt>
      <trkpt lat="43.98109" lon="3.02808">
        <ele>810.7</ele>
        <time>2026-04-30T11:35:40.999Z</time>
      </trkpt>
      <trkpt lat="43.98109" lon="3.02805">
        <ele>810.9</ele>
        <time>2026-04-30T11:35:41.999Z</time>
      </trkpt>
      <trkpt lat="43.9811" lon="3.02804">
        <ele>811</ele>
        <time>2026-04-30T11:35:42.999Z</time>
      </trkpt>
      <trkpt lat="43.9811" lon="3.02803">
        <ele>811</ele>
        <time>2026-04-30T11:35:43.999Z</time>
      </trkpt>
      <trkpt lat="43.98111" lon="3.02801">
        <ele>810.9</ele>
        <time>2026-04-30T11:35:44.999Z</time>
      </trkpt>
      <trkpt lat="43.98111" lon="3.028">
        <ele>810.9</ele>
        <time>2026-04-30T11:35:45.999Z</time>
      </trkpt>
      <trkpt lat="43.98111" lon="3.02799">
        <ele>810.7</ele>
        <time>2026-04-30T11:35:46.999Z</time>
      </trkpt>
      <trkpt lat="43.98111" lon="3.02798">
        <ele>810.4</ele>
        <time>2026-04-30T11:35:47.999Z</time>
      </trkpt>
      <trkpt lat="43.98112" lon="3.02797">
        <ele>810.3</ele>
        <time>2026-04-30T11:35:48.999Z</time>
      </trkpt>
      <trkpt lat="43.98112" lon="3.02795">
        <ele>810.1</ele>
        <time>2026-04-30T11:35:49.999Z</time>
      </trkpt>
      <trkpt lat="43.98112" lon="3.02793">
        <ele>810.4</ele>
        <time>2026-04-30T11:35:50.999Z</time>
      </trkpt>
      <trkpt lat="43.98113" lon="3.02791">
        <ele>810.6</ele>
        <time>2026-04-30T11:35:51.999Z</time>
      </trkpt>
      <trkpt lat="43.98113" lon="3.02789">
        <ele>810.7</ele>
        <time>2026-04-30T11:35:52.999Z</time>
      </trkpt>
      <trkpt lat="43.98113" lon="3.02787">
        <ele>810.6</ele>
        <time>2026-04-30T11:35:53.999Z</time>
      </trkpt>
      <trkpt lat="43.98113" lon="3.02786">
        <ele>810.3</ele>
        <time>2026-04-30T11:35:54.999Z</time>
      </trkpt>
      <trkpt lat="43.98114" lon="3.02784">
        <ele>810.3</ele>
        <time>2026-04-30T11:35:55.999Z</time>
      </trkpt>
      <trkpt lat="43.98115" lon="3.02783">
        <ele>810.6</ele>
        <time>2026-04-30T11:35:56.999Z</time>
      </trkpt>
      <trkpt lat="43.98116" lon="3.02781">
        <ele>810.7</ele>
        <time>2026-04-30T11:35:57.999Z</time>
      </trkpt>
      <trkpt lat="43.98116" lon="3.02779">
        <ele>810.7</ele>
        <time>2026-04-30T11:35:58.999Z</time>
      </trkpt>
      <trkpt lat="43.98116" lon="3.02778">
        <ele>810.8</ele>
        <time>2026-04-30T11:35:59.999Z</time>
      </trkpt>
      <trkpt lat="43.98116" lon="3.02776">
        <ele>810.7</ele>
        <time>2026-04-30T11:36:00.999Z</time>
      </trkpt>
      <trkpt lat="43.98117" lon="3.02775">
        <ele>810.6</ele>
        <time>2026-04-30T11:36:01.999Z</time>
      </trkpt>
      <trkpt lat="43.98117" lon="3.02773">
        <ele>810.3</ele>
        <time>2026-04-30T11:36:02.999Z</time>
      </trkpt>
      <trkpt lat="43.98118" lon="3.02772">
        <ele>810.2</ele>
        <time>2026-04-30T11:36:03.999Z</time>
      </trkpt>
      <trkpt lat="43.98118" lon="3.02771">
        <ele>809.9</ele>
        <time>2026-04-30T11:36:04.999Z</time>
      </trkpt>
      <trkpt lat="43.98118" lon="3.02769">
        <ele>809.6</ele>
        <time>2026-04-30T11:36:05.999Z</time>
      </trkpt>
      <trkpt lat="43.98118" lon="3.02767">
        <ele>809.1</ele>
        <time>2026-04-30T11:36:06.999Z</time>
      </trkpt>
      <trkpt lat="43.98118" lon="3.02766">
        <ele>808.7</ele>
        <time>2026-04-30T11:36:07.999Z</time>
      </trkpt>
      <trkpt lat="43.98119" lon="3.02765">
        <ele>808.3</ele>
        <time>2026-04-30T11:36:08.999Z</time>
      </trkpt>
      <trkpt lat="43.9812" lon="3.02764">
        <ele>808.1</ele>
        <time>2026-04-30T11:36:09.999Z</time>
      </trkpt>
      <trkpt lat="43.98121" lon="3.02762">
        <ele>807.9</ele>
        <time>2026-04-30T11:36:10.999Z</time>
      </trkpt>
      <trkpt lat="43.98121" lon="3.0276">
        <ele>807.6</ele>
        <time>2026-04-30T11:36:11.999Z</time>
      </trkpt>
      <trkpt lat="43.98122" lon="3.02757">
        <ele>807.8</ele>
        <time>2026-04-30T11:36:12.999Z</time>
      </trkpt>
      <trkpt lat="43.98122" lon="3.02756">
        <ele>807.9</ele>
        <time>2026-04-30T11:36:13.999Z</time>
      </trkpt>
      <trkpt lat="43.98124" lon="3.02754">
        <ele>807.8</ele>
        <time>2026-04-30T11:36:14.999Z</time>
      </trkpt>
      <trkpt lat="43.98124" lon="3.02753">
        <ele>807.7</ele>
        <time>2026-04-30T11:36:15.999Z</time>
      </trkpt>
      <trkpt lat="43.98125" lon="3.02751">
        <ele>807.4</ele>
        <time>2026-04-30T11:36:16.999Z</time>
      </trkpt>
      <trkpt lat="43.98126" lon="3.0275">
        <ele>807.2</ele>
        <time>2026-04-30T11:36:17.999Z</time>
      </trkpt>
      <trkpt lat="43.98126" lon="3.02749">
        <ele>807.1</ele>
        <time>2026-04-30T11:36:18.999Z</time>
      </trkpt>
      <trkpt lat="43.98127" lon="3.02747">
        <ele>807.1</ele>
        <time>2026-04-30T11:36:19.999Z</time>
      </trkpt>
      <trkpt lat="43.98127" lon="3.02745">
        <ele>807.3</ele>
        <time>2026-04-30T11:36:20.999Z</time>
      </trkpt>
      <trkpt lat="43.98128" lon="3.02744">
        <ele>807.5</ele>
        <time>2026-04-30T11:36:21.999Z</time>
      </trkpt>
      <trkpt lat="43.98128" lon="3.02742">
        <ele>807.7</ele>
        <time>2026-04-30T11:36:22.999Z</time>
      </trkpt>
      <trkpt lat="43.98129" lon="3.02741">
        <ele>807.9</ele>
        <time>2026-04-30T11:36:23.999Z</time>
      </trkpt>
      <trkpt lat="43.98129" lon="3.02739">
        <ele>808</ele>
        <time>2026-04-30T11:36:24.999Z</time>
      </trkpt>
      <trkpt lat="43.98129" lon="3.02737">
        <ele>808.2</ele>
        <time>2026-04-30T11:36:25.999Z</time>
      </trkpt>
      <trkpt lat="43.9813" lon="3.02736">
        <ele>808.2</ele>
        <time>2026-04-30T11:36:26.999Z</time>
      </trkpt>
      <trkpt lat="43.9813" lon="3.02734">
        <ele>808.1</ele>
        <time>2026-04-30T11:36:27.999Z</time>
      </trkpt>
      <trkpt lat="43.98131" lon="3.02733">
        <ele>808.1</ele>
        <time>2026-04-30T11:36:28.999Z</time>
      </trkpt>
      <trkpt lat="43.98131" lon="3.02732">
        <ele>808.1</ele>
        <time>2026-04-30T11:36:29.999Z</time>
      </trkpt>
      <trkpt lat="43.98131" lon="3.02731">
        <ele>807.8</ele>
        <time>2026-04-30T11:36:30.999Z</time>
      </trkpt>
      <trkpt lat="43.98132" lon="3.02729">
        <ele>807.8</ele>
        <time>2026-04-30T11:36:31.999Z</time>
      </trkpt>
      <trkpt lat="43.98132" lon="3.02728">
        <ele>807.7</ele>
        <time>2026-04-30T11:36:32.999Z</time>
      </trkpt>
      <trkpt lat="43.98133" lon="3.02727">
        <ele>807.3</ele>
        <time>2026-04-30T11:36:33.999Z</time>
      </trkpt>
      <trkpt lat="43.98134" lon="3.02726">
        <ele>807.1</ele>
        <time>2026-04-30T11:36:34.999Z</time>
      </trkpt>
      <trkpt lat="43.98134" lon="3.02725">
        <ele>806.7</ele>
        <time>2026-04-30T11:36:35.999Z</time>
      </trkpt>
      <trkpt lat="43.98134" lon="3.02723">
        <ele>806.4</ele>
        <time>2026-04-30T11:36:36.999Z</time>
      </trkpt>
      <trkpt lat="43.98134" lon="3.02722">
        <ele>806.1</ele>
        <time>2026-04-30T11:36:37.999Z</time>
      </trkpt>
      <trkpt lat="43.98135" lon="3.02721">
        <ele>805.8</ele>
        <time>2026-04-30T11:36:38.999Z</time>
      </trkpt>
      <trkpt lat="43.98135" lon="3.02719">
        <ele>805.7</ele>
        <time>2026-04-30T11:36:39.999Z</time>
      </trkpt>
      <trkpt lat="43.98135" lon="3.02716">
        <ele>805.4</ele>
        <time>2026-04-30T11:36:40.999Z</time>
      </trkpt>
      <trkpt lat="43.98136" lon="3.02714">
        <ele>805.4</ele>
        <time>2026-04-30T11:36:41.999Z</time>
      </trkpt>
      <trkpt lat="43.98136" lon="3.02712">
        <ele>805.7</ele>
        <time>2026-04-30T11:36:42.999Z</time>
      </trkpt>
      <trkpt lat="43.98137" lon="3.02711">
        <ele>805.8</ele>
        <time>2026-04-30T11:36:43.999Z</time>
      </trkpt>
      <trkpt lat="43.98137" lon="3.0271">
        <ele>805.8</ele>
        <time>2026-04-30T11:36:44.999Z</time>
      </trkpt>
      <trkpt lat="43.98138" lon="3.02709">
        <ele>805.7</ele>
        <time>2026-04-30T11:36:45.999Z</time>
      </trkpt>
      <trkpt lat="43.98139" lon="3.02708">
        <ele>805.6</ele>
        <time>2026-04-30T11:36:46.999Z</time>
      </trkpt>
      <trkpt lat="43.9814" lon="3.02707">
        <ele>805.5</ele>
        <time>2026-04-30T11:36:47.999Z</time>
      </trkpt>
      <trkpt lat="43.9814" lon="3.02706">
        <ele>805.4</ele>
        <time>2026-04-30T11:36:48.999Z</time>
      </trkpt>
      <trkpt lat="43.98141" lon="3.02704">
        <ele>805.6</ele>
        <time>2026-04-30T11:36:49.999Z</time>
      </trkpt>
      <trkpt lat="43.98142" lon="3.02702">
        <ele>805.7</ele>
        <time>2026-04-30T11:36:50.999Z</time>
      </trkpt>
      <trkpt lat="43.98143" lon="3.027">
        <ele>805.9</ele>
        <time>2026-04-30T11:36:51.999Z</time>
      </trkpt>
      <trkpt lat="43.98143" lon="3.02697">
        <ele>805.8</ele>
        <time>2026-04-30T11:36:52.999Z</time>
      </trkpt>
      <trkpt lat="43.98144" lon="3.02696">
        <ele>805.6</ele>
        <time>2026-04-30T11:36:53.999Z</time>
      </trkpt>
      <trkpt lat="43.98144" lon="3.02694">
        <ele>805.2</ele>
        <time>2026-04-30T11:36:54.999Z</time>
      </trkpt>
      <trkpt lat="43.98145" lon="3.02693">
        <ele>805.1</ele>
        <time>2026-04-30T11:36:55.999Z</time>
      </trkpt>
      <trkpt lat="43.98145" lon="3.02692">
        <ele>804.9</ele>
        <time>2026-04-30T11:36:56.999Z</time>
      </trkpt>
      <trkpt lat="43.98146" lon="3.0269">
        <ele>804.7</ele>
        <time>2026-04-30T11:36:57.999Z</time>
      </trkpt>
      <trkpt lat="43.98146" lon="3.02689">
        <ele>804.7</ele>
        <time>2026-04-30T11:36:58.999Z</time>
      </trkpt>
      <trkpt lat="43.98147" lon="3.02687">
        <ele>804.6</ele>
        <time>2026-04-30T11:36:59.999Z</time>
      </trkpt>
      <trkpt lat="43.98147" lon="3.02685">
        <ele>804.4</ele>
        <time>2026-04-30T11:37:00.999Z</time>
      </trkpt>
      <trkpt lat="43.98147" lon="3.02684">
        <ele>804.8</ele>
        <time>2026-04-30T11:37:01.999Z</time>
      </trkpt>
      <trkpt lat="43.98148" lon="3.02682">
        <ele>804.8</ele>
        <time>2026-04-30T11:37:02.999Z</time>
      </trkpt>
      <trkpt lat="43.98148" lon="3.02681">
        <ele>804.8</ele>
        <time>2026-04-30T11:37:03.999Z</time>
      </trkpt>
      <trkpt lat="43.98148" lon="3.02679">
        <ele>804.7</ele>
        <time>2026-04-30T11:37:04.999Z</time>
      </trkpt>
      <trkpt lat="43.98147" lon="3.02678">
        <ele>804.5</ele>
        <time>2026-04-30T11:37:05.999Z</time>
      </trkpt>
      <trkpt lat="43.98148" lon="3.02676">
        <ele>804.3</ele>
        <time>2026-04-30T11:37:06.999Z</time>
      </trkpt>
      <trkpt lat="43.98148" lon="3.02675">
        <ele>804.7</ele>
        <time>2026-04-30T11:37:07.999Z</time>
      </trkpt>
      <trkpt lat="43.98148" lon="3.02673">
        <ele>804.9</ele>
        <time>2026-04-30T11:37:08.999Z</time>
      </trkpt>
      <trkpt lat="43.98148" lon="3.02671">
        <ele>805.3</ele>
        <time>2026-04-30T11:37:09.999Z</time>
      </trkpt>
      <trkpt lat="43.98148" lon="3.02669">
        <ele>805.5</ele>
        <time>2026-04-30T11:37:10.999Z</time>
      </trkpt>
      <trkpt lat="43.98149" lon="3.02667">
        <ele>805.7</ele>
        <time>2026-04-30T11:37:11.999Z</time>
      </trkpt>
      <trkpt lat="43.98149" lon="3.02666">
        <ele>805.6</ele>
        <time>2026-04-30T11:37:12.999Z</time>
      </trkpt>
      <trkpt lat="43.98149" lon="3.02664">
        <ele>805.4</ele>
        <time>2026-04-30T11:37:13.999Z</time>
      </trkpt>
      <trkpt lat="43.98149" lon="3.02662">
        <ele>805.3</ele>
        <time>2026-04-30T11:37:14.999Z</time>
      </trkpt>
      <trkpt lat="43.98149" lon="3.0266">
        <ele>805.2</ele>
        <time>2026-04-30T11:37:15.999Z</time>
      </trkpt>
      <trkpt lat="43.98149" lon="3.02659">
        <ele>805</ele>
        <time>2026-04-30T11:37:16.999Z</time>
      </trkpt>
      <trkpt lat="43.9815" lon="3.02657">
        <ele>805</ele>
        <time>2026-04-30T11:37:17.999Z</time>
      </trkpt>
      <trkpt lat="43.9815" lon="3.02655">
        <ele>804.9</ele>
        <time>2026-04-30T11:37:18.999Z</time>
      </trkpt>
      <trkpt lat="43.98151" lon="3.02653">
        <ele>804.8</ele>
        <time>2026-04-30T11:37:19.999Z</time>
      </trkpt>
      <trkpt lat="43.98151" lon="3.02652">
        <ele>804.6</ele>
        <time>2026-04-30T11:37:20.999Z</time>
      </trkpt>
      <trkpt lat="43.98152" lon="3.0265">
        <ele>804.6</ele>
        <time>2026-04-30T11:37:21.999Z</time>
      </trkpt>
      <trkpt lat="43.98152" lon="3.02649">
        <ele>804.6</ele>
        <time>2026-04-30T11:37:22.999Z</time>
      </trkpt>
      <trkpt lat="43.98153" lon="3.02647">
        <ele>804.5</ele>
        <time>2026-04-30T11:37:23.999Z</time>
      </trkpt>
      <trkpt lat="43.98153" lon="3.02646">
        <ele>804.5</ele>
        <time>2026-04-30T11:37:24.999Z</time>
      </trkpt>
      <trkpt lat="43.98154" lon="3.02646">
        <ele>804.3</ele>
        <time>2026-04-30T11:37:25.999Z</time>
      </trkpt>
      <trkpt lat="43.98155" lon="3.02645">
        <ele>804</ele>
        <time>2026-04-30T11:37:26.999Z</time>
      </trkpt>
      <trkpt lat="43.98157" lon="3.02643">
        <ele>804</ele>
        <time>2026-04-30T11:37:27.999Z</time>
      </trkpt>
      <trkpt lat="43.98157" lon="3.02641">
        <ele>804</ele>
        <time>2026-04-30T11:37:28.999Z</time>
      </trkpt>
      <trkpt lat="43.98158" lon="3.02639">
        <ele>803.9</ele>
        <time>2026-04-30T11:37:29.999Z</time>
      </trkpt>
      <trkpt lat="43.98159" lon="3.02638">
        <ele>803.7</ele>
        <time>2026-04-30T11:37:30.999Z</time>
      </trkpt>
      <trkpt lat="43.9816" lon="3.02637">
        <ele>803.3</ele>
        <time>2026-04-30T11:37:31.999Z</time>
      </trkpt>
      <trkpt lat="43.9816" lon="3.02636">
        <ele>803.2</ele>
        <time>2026-04-30T11:37:32.999Z</time>
      </trkpt>
      <trkpt lat="43.9816" lon="3.02635">
        <ele>803.4</ele>
        <time>2026-04-30T11:37:33.999Z</time>
      </trkpt>
      <trkpt lat="43.98161" lon="3.02633">
        <ele>803.6</ele>
        <time>2026-04-30T11:37:34.999Z</time>
      </trkpt>
      <trkpt lat="43.98162" lon="3.02631">
        <ele>803.7</ele>
        <time>2026-04-30T11:37:35.999Z</time>
      </trkpt>
      <trkpt lat="43.98163" lon="3.02629">
        <ele>803.6</ele>
        <time>2026-04-30T11:37:36.999Z</time>
      </trkpt>
      <trkpt lat="43.98164" lon="3.02628">
        <ele>803.3</ele>
        <time>2026-04-30T11:37:37.999Z</time>
      </trkpt>
      <trkpt lat="43.98164" lon="3.02626">
        <ele>803.3</ele>
        <time>2026-04-30T11:37:38.999Z</time>
      </trkpt>
      <trkpt lat="43.98165" lon="3.02624">
        <ele>803</ele>
        <time>2026-04-30T11:37:39.999Z</time>
      </trkpt>
      <trkpt lat="43.98165" lon="3.02623">
        <ele>802.8</ele>
        <time>2026-04-30T11:37:40.999Z</time>
      </trkpt>
      <trkpt lat="43.98166" lon="3.02622">
        <ele>802.9</ele>
        <time>2026-04-30T11:37:41.999Z</time>
      </trkpt>
      <trkpt lat="43.98167" lon="3.02621">
        <ele>803</ele>
        <time>2026-04-30T11:37:42.999Z</time>
      </trkpt>
      <trkpt lat="43.98167" lon="3.0262">
        <ele>803</ele>
        <time>2026-04-30T11:37:43.999Z</time>
      </trkpt>
      <trkpt lat="43.98168" lon="3.02618">
        <ele>802.6</ele>
        <time>2026-04-30T11:37:44.999Z</time>
      </trkpt>
      <trkpt lat="43.98168" lon="3.02617">
        <ele>802.2</ele>
        <time>2026-04-30T11:37:45.999Z</time>
      </trkpt>
      <trkpt lat="43.98168" lon="3.02615">
        <ele>802</ele>
        <time>2026-04-30T11:37:46.999Z</time>
      </trkpt>
      <trkpt lat="43.98168" lon="3.02614">
        <ele>802</ele>
        <time>2026-04-30T11:37:47.999Z</time>
      </trkpt>
      <trkpt lat="43.98168" lon="3.02611">
        <ele>802.2</ele>
        <time>2026-04-30T11:37:48.999Z</time>
      </trkpt>
      <trkpt lat="43.98168" lon="3.02609">
        <ele>802.3</ele>
        <time>2026-04-30T11:37:49.999Z</time>
      </trkpt>
      <trkpt lat="43.98168" lon="3.02607">
        <ele>802</ele>
        <time>2026-04-30T11:37:50.999Z</time>
      </trkpt>
      <trkpt lat="43.98168" lon="3.02606">
        <ele>802</ele>
        <time>2026-04-30T11:37:51.999Z</time>
      </trkpt>
      <trkpt lat="43.98168" lon="3.02604">
        <ele>802.2</ele>
        <time>2026-04-30T11:37:52.999Z</time>
      </trkpt>
      <trkpt lat="43.98168" lon="3.02602">
        <ele>802.3</ele>
        <time>2026-04-30T11:37:53.999Z</time>
      </trkpt>
      <trkpt lat="43.98169" lon="3.02601">
        <ele>802.4</ele>
        <time>2026-04-30T11:37:54.999Z</time>
      </trkpt>
      <trkpt lat="43.98169" lon="3.026">
        <ele>802.5</ele>
        <time>2026-04-30T11:37:55.999Z</time>
      </trkpt>
      <trkpt lat="43.98169" lon="3.02599">
        <ele>802.4</ele>
        <time>2026-04-30T11:37:56.999Z</time>
      </trkpt>
      <trkpt lat="43.98169" lon="3.02597">
        <ele>802.4</ele>
        <time>2026-04-30T11:37:57.999Z</time>
      </trkpt>
      <trkpt lat="43.9817" lon="3.02596">
        <ele>801.8</ele>
        <time>2026-04-30T11:37:58.999Z</time>
      </trkpt>
      <trkpt lat="43.9817" lon="3.02595">
        <ele>801.3</ele>
        <time>2026-04-30T11:37:59.999Z</time>
      </trkpt>
      <trkpt lat="43.98171" lon="3.02594">
        <ele>800.8</ele>
        <time>2026-04-30T11:38:00.999Z</time>
      </trkpt>
      <trkpt lat="43.98171" lon="3.02592">
        <ele>800.4</ele>
        <time>2026-04-30T11:38:01.999Z</time>
      </trkpt>
      <trkpt lat="43.98172" lon="3.02591">
        <ele>800.3</ele>
        <time>2026-04-30T11:38:02.999Z</time>
      </trkpt>
      <trkpt lat="43.98172" lon="3.0259">
        <ele>800.3</ele>
        <time>2026-04-30T11:38:03.999Z</time>
      </trkpt>
      <trkpt lat="43.98172" lon="3.02589">
        <ele>800.4</ele>
        <time>2026-04-30T11:38:04.999Z</time>
      </trkpt>
      <trkpt lat="43.98173" lon="3.02587">
        <ele>800.3</ele>
        <time>2026-04-30T11:38:05.999Z</time>
      </trkpt>
      <trkpt lat="43.98173" lon="3.02585">
        <ele>800.3</ele>
        <time>2026-04-30T11:38:06.999Z</time>
      </trkpt>
      <trkpt lat="43.98174" lon="3.02584">
        <ele>800</ele>
        <time>2026-04-30T11:38:07.999Z</time>
      </trkpt>
      <trkpt lat="43.98175" lon="3.02582">
        <ele>800</ele>
        <time>2026-04-30T11:38:08.999Z</time>
      </trkpt>
      <trkpt lat="43.98175" lon="3.02581">
        <ele>800</ele>
        <time>2026-04-30T11:38:09.999Z</time>
      </trkpt>
      <trkpt lat="43.98176" lon="3.02579">
        <ele>800.2</ele>
        <time>2026-04-30T11:38:10.999Z</time>
      </trkpt>
      <trkpt lat="43.98176" lon="3.02577">
        <ele>800.4</ele>
        <time>2026-04-30T11:38:11.999Z</time>
      </trkpt>
      <trkpt lat="43.98177" lon="3.02575">
        <ele>800.6</ele>
        <time>2026-04-30T11:38:12.999Z</time>
      </trkpt>
      <trkpt lat="43.98177" lon="3.02572">
        <ele>800.6</ele>
        <time>2026-04-30T11:38:13.999Z</time>
      </trkpt>
      <trkpt lat="43.98178" lon="3.0257">
        <ele>800.5</ele>
        <time>2026-04-30T11:38:14.999Z</time>
      </trkpt>
      <trkpt lat="43.98178" lon="3.02568">
        <ele>800.5</ele>
        <time>2026-04-30T11:38:15.999Z</time>
      </trkpt>
      <trkpt lat="43.98178" lon="3.02566">
        <ele>800.5</ele>
        <time>2026-04-30T11:38:16.999Z</time>
      </trkpt>
      <trkpt lat="43.98178" lon="3.02565">
        <ele>800.7</ele>
        <time>2026-04-30T11:38:17.999Z</time>
      </trkpt>
      <trkpt lat="43.98179" lon="3.02563">
        <ele>800.6</ele>
        <time>2026-04-30T11:38:18.999Z</time>
      </trkpt>
      <trkpt lat="43.9818" lon="3.02562">
        <ele>800.7</ele>
        <time>2026-04-30T11:38:19.999Z</time>
      </trkpt>
      <trkpt lat="43.9818" lon="3.0256">
        <ele>800.6</ele>
        <time>2026-04-30T11:38:20.999Z</time>
      </trkpt>
      <trkpt lat="43.98181" lon="3.02558">
        <ele>800.6</ele>
        <time>2026-04-30T11:38:21.999Z</time>
      </trkpt>
      <trkpt lat="43.98182" lon="3.02556">
        <ele>800.6</ele>
        <time>2026-04-30T11:38:22.999Z</time>
      </trkpt>
      <trkpt lat="43.98183" lon="3.02555">
        <ele>800.7</ele>
        <time>2026-04-30T11:38:23.999Z</time>
      </trkpt>
      <trkpt lat="43.98183" lon="3.02554">
        <ele>800.8</ele>
        <time>2026-04-30T11:38:24.999Z</time>
      </trkpt>
      <trkpt lat="43.98184" lon="3.02552">
        <ele>800.5</ele>
        <time>2026-04-30T11:38:25.999Z</time>
      </trkpt>
      <trkpt lat="43.98184" lon="3.02551">
        <ele>800.4</ele>
        <time>2026-04-30T11:38:26.999Z</time>
      </trkpt>
      <trkpt lat="43.98185" lon="3.0255">
        <ele>800.2</ele>
        <time>2026-04-30T11:38:27.999Z</time>
      </trkpt>
      <trkpt lat="43.98185" lon="3.02548">
        <ele>800.3</ele>
        <time>2026-04-30T11:38:28.999Z</time>
      </trkpt>
      <trkpt lat="43.98185" lon="3.02547">
        <ele>799.9</ele>
        <time>2026-04-30T11:38:29.999Z</time>
      </trkpt>
      <trkpt lat="43.98186" lon="3.02546">
        <ele>800</ele>
        <time>2026-04-30T11:38:30.999Z</time>
      </trkpt>
      <trkpt lat="43.98186" lon="3.02545">
        <ele>800</ele>
        <time>2026-04-30T11:38:31.999Z</time>
      </trkpt>
      <trkpt lat="43.98187" lon="3.02544">
        <ele>799.9</ele>
        <time>2026-04-30T11:38:32.999Z</time>
      </trkpt>
      <trkpt lat="43.98187" lon="3.02542">
        <ele>799.9</ele>
        <time>2026-04-30T11:38:33.999Z</time>
      </trkpt>
      <trkpt lat="43.98187" lon="3.0254">
        <ele>800.2</ele>
        <time>2026-04-30T11:38:34.999Z</time>
      </trkpt>
      <trkpt lat="43.98186" lon="3.02538">
        <ele>800.4</ele>
        <time>2026-04-30T11:38:35.999Z</time>
      </trkpt>
      <trkpt lat="43.98186" lon="3.02536">
        <ele>800.3</ele>
        <time>2026-04-30T11:38:36.999Z</time>
      </trkpt>
      <trkpt lat="43.98186" lon="3.02535">
        <ele>800.2</ele>
        <time>2026-04-30T11:38:37.999Z</time>
      </trkpt>
      <trkpt lat="43.98187" lon="3.02534">
        <ele>800.2</ele>
        <time>2026-04-30T11:38:38.999Z</time>
      </trkpt>
      <trkpt lat="43.98187" lon="3.02533">
        <ele>800</ele>
        <time>2026-04-30T11:38:39.999Z</time>
      </trkpt>
      <trkpt lat="43.98188" lon="3.02531">
        <ele>799.9</ele>
        <time>2026-04-30T11:38:40.999Z</time>
      </trkpt>
      <trkpt lat="43.98188" lon="3.0253">
        <ele>800.1</ele>
        <time>2026-04-30T11:38:41.999Z</time>
      </trkpt>
      <trkpt lat="43.98188" lon="3.02529">
        <ele>800.1</ele>
        <time>2026-04-30T11:38:42.999Z</time>
      </trkpt>
      <trkpt lat="43.98188" lon="3.02528">
        <ele>800.2</ele>
        <time>2026-04-30T11:38:43.999Z</time>
      </trkpt>
      <trkpt lat="43.98188" lon="3.02527">
        <ele>800.2</ele>
        <time>2026-04-30T11:38:44.999Z</time>
      </trkpt>
      <trkpt lat="43.98188" lon="3.02525">
        <ele>800</ele>
        <time>2026-04-30T11:38:45.999Z</time>
      </trkpt>
      <trkpt lat="43.98188" lon="3.02524">
        <ele>799.8</ele>
        <time>2026-04-30T11:38:46.999Z</time>
      </trkpt>
      <trkpt lat="43.98189" lon="3.02523">
        <ele>799.2</ele>
        <time>2026-04-30T11:38:47.999Z</time>
      </trkpt>
      <trkpt lat="43.98189" lon="3.02522">
        <ele>799.5</ele>
        <time>2026-04-30T11:38:48.999Z</time>
      </trkpt>
      <trkpt lat="43.98189" lon="3.02521">
        <ele>799.8</ele>
        <time>2026-04-30T11:38:49.999Z</time>
      </trkpt>
      <trkpt lat="43.98189" lon="3.02519">
        <ele>799.6</ele>
        <time>2026-04-30T11:38:50.999Z</time>
      </trkpt>
      <trkpt lat="43.98189" lon="3.02518">
        <ele>799.7</ele>
        <time>2026-04-30T11:38:51.999Z</time>
      </trkpt>
      <trkpt lat="43.98189" lon="3.02516">
        <ele>799.8</ele>
        <time>2026-04-30T11:38:52.999Z</time>
      </trkpt>
      <trkpt lat="43.98188" lon="3.02514">
        <ele>799.9</ele>
        <time>2026-04-30T11:38:53.999Z</time>
      </trkpt>
      <trkpt lat="43.98188" lon="3.02513">
        <ele>799.6</ele>
        <time>2026-04-30T11:38:54.999Z</time>
      </trkpt>
      <trkpt lat="43.98188" lon="3.02513">
        <ele>799.7</ele>
        <time>2026-04-30T11:38:56.999Z</time>
      </trkpt>
      <trkpt lat="43.98188" lon="3.02514">
        <ele>799.9</ele>
        <time>2026-04-30T11:38:57.999Z</time>
      </trkpt>
      <trkpt lat="43.98188" lon="3.02514">
        <ele>800.1</ele>
        <time>2026-04-30T11:38:58.999Z</time>
      </trkpt>
      <trkpt lat="43.98188" lon="3.02514">
        <ele>798.7</ele>
        <time>2026-04-30T11:38:59.999Z</time>
      </trkpt>
      <trkpt lat="43.98188" lon="3.02513">
        <ele>799</ele>
        <time>2026-04-30T11:39:00.999Z</time>
      </trkpt>
      <trkpt lat="43.98188" lon="3.02512">
        <ele>798.9</ele>
        <time>2026-04-30T11:39:01.999Z</time>
      </trkpt>
      <trkpt lat="43.98188" lon="3.0251">
        <ele>798.9</ele>
        <time>2026-04-30T11:39:02.999Z</time>
      </trkpt>
      <trkpt lat="43.98188" lon="3.02507">
        <ele>798.9</ele>
        <time>2026-04-30T11:39:03.999Z</time>
      </trkpt>
      <trkpt lat="43.98188" lon="3.02507">
        <ele>798.9</ele>
        <time>2026-04-30T11:39:04.999Z</time>
      </trkpt>
      <trkpt lat="43.98188" lon="3.02505">
        <ele>798.9</ele>
        <time>2026-04-30T11:39:05.999Z</time>
      </trkpt>
      <trkpt lat="43.98188" lon="3.02505">
        <ele>798.4</ele>
        <time>2026-04-30T11:39:06.999Z</time>
      </trkpt>
      <trkpt lat="43.98188" lon="3.02503">
        <ele>798.2</ele>
        <time>2026-04-30T11:39:07.999Z</time>
      </trkpt>
      <trkpt lat="43.98188" lon="3.02502">
        <ele>798.1</ele>
        <time>2026-04-30T11:39:08.999Z</time>
      </trkpt>
      <trkpt lat="43.98188" lon="3.025">
        <ele>798</ele>
        <time>2026-04-30T11:39:09.999Z</time>
      </trkpt>
      <trkpt lat="43.98189" lon="3.02499">
        <ele>798.1</ele>
        <time>2026-04-30T11:39:10.999Z</time>
      </trkpt>
      <trkpt lat="43.98189" lon="3.02496">
        <ele>798.3</ele>
        <time>2026-04-30T11:39:11.999Z</time>
      </trkpt>
      <trkpt lat="43.9819" lon="3.02495">
        <ele>799</ele>
        <time>2026-04-30T11:39:12.999Z</time>
      </trkpt>
      <trkpt lat="43.9819" lon="3.02493">
        <ele>799.3</ele>
        <time>2026-04-30T11:39:13.999Z</time>
      </trkpt>
      <trkpt lat="43.98191" lon="3.02491">
        <ele>799.4</ele>
        <time>2026-04-30T11:39:14.999Z</time>
      </trkpt>
      <trkpt lat="43.98191" lon="3.0249">
        <ele>799.3</ele>
        <time>2026-04-30T11:39:15.999Z</time>
      </trkpt>
      <trkpt lat="43.98191" lon="3.02488">
        <ele>799.3</ele>
        <time>2026-04-30T11:39:16.999Z</time>
      </trkpt>
      <trkpt lat="43.98191" lon="3.02486">
        <ele>799.3</ele>
        <time>2026-04-30T11:39:17.999Z</time>
      </trkpt>
      <trkpt lat="43.98191" lon="3.02484">
        <ele>799.2</ele>
        <time>2026-04-30T11:39:18.999Z</time>
      </trkpt>
      <trkpt lat="43.98191" lon="3.02481">
        <ele>799</ele>
        <time>2026-04-30T11:39:19.999Z</time>
      </trkpt>
      <trkpt lat="43.9819" lon="3.0248">
        <ele>799.1</ele>
        <time>2026-04-30T11:39:20.999Z</time>
      </trkpt>
      <trkpt lat="43.9819" lon="3.02479">
        <ele>799</ele>
        <time>2026-04-30T11:39:21.999Z</time>
      </trkpt>
      <trkpt lat="43.98191" lon="3.02478">
        <ele>798.9</ele>
        <time>2026-04-30T11:39:22.999Z</time>
      </trkpt>
      <trkpt lat="43.98191" lon="3.02477">
        <ele>798.8</ele>
        <time>2026-04-30T11:39:23.999Z</time>
      </trkpt>
      <trkpt lat="43.98191" lon="3.02475">
        <ele>798.9</ele>
        <time>2026-04-30T11:39:24.999Z</time>
      </trkpt>
      <trkpt lat="43.98192" lon="3.02473">
        <ele>799.3</ele>
        <time>2026-04-30T11:39:25.999Z</time>
      </trkpt>
      <trkpt lat="43.98192" lon="3.02472">
        <ele>799.5</ele>
        <time>2026-04-30T11:39:26.999Z</time>
      </trkpt>
      <trkpt lat="43.98192" lon="3.0247">
        <ele>799.6</ele>
        <time>2026-04-30T11:39:27.999Z</time>
      </trkpt>
      <trkpt lat="43.98192" lon="3.02468">
        <ele>800</ele>
        <time>2026-04-30T11:39:28.999Z</time>
      </trkpt>
      <trkpt lat="43.98192" lon="3.02467">
        <ele>800.4</ele>
        <time>2026-04-30T11:39:29.999Z</time>
      </trkpt>
      <trkpt lat="43.98191" lon="3.02465">
        <ele>800.7</ele>
        <time>2026-04-30T11:39:30.999Z</time>
      </trkpt>
      <trkpt lat="43.98191" lon="3.02463">
        <ele>800.7</ele>
        <time>2026-04-30T11:39:31.999Z</time>
      </trkpt>
      <trkpt lat="43.9819" lon="3.02462">
        <ele>800.9</ele>
        <time>2026-04-30T11:39:32.999Z</time>
      </trkpt>
      <trkpt lat="43.98191" lon="3.0246">
        <ele>801.3</ele>
        <time>2026-04-30T11:39:33.999Z</time>
      </trkpt>
      <trkpt lat="43.98191" lon="3.02458">
        <ele>801.6</ele>
        <time>2026-04-30T11:39:34.999Z</time>
      </trkpt>
      <trkpt lat="43.98191" lon="3.02457">
        <ele>801.9</ele>
        <time>2026-04-30T11:39:35.999Z</time>
      </trkpt>
      <trkpt lat="43.98191" lon="3.02455">
        <ele>802.3</ele>
        <time>2026-04-30T11:39:36.999Z</time>
      </trkpt>
      <trkpt lat="43.98192" lon="3.02453">
        <ele>802.7</ele>
        <time>2026-04-30T11:39:37.999Z</time>
      </trkpt>
      <trkpt lat="43.98192" lon="3.02451">
        <ele>802.7</ele>
        <time>2026-04-30T11:39:38.999Z</time>
      </trkpt>
      <trkpt lat="43.98192" lon="3.02449">
        <ele>802.6</ele>
        <time>2026-04-30T11:39:39.999Z</time>
      </trkpt>
      <trkpt lat="43.98192" lon="3.02447">
        <ele>802.6</ele>
        <time>2026-04-30T11:39:40.999Z</time>
      </trkpt>
      <trkpt lat="43.98192" lon="3.02446">
        <ele>802.7</ele>
        <time>2026-04-30T11:39:41.999Z</time>
      </trkpt>
      <trkpt lat="43.98192" lon="3.02446">
        <ele>802.6</ele>
        <time>2026-04-30T11:39:42.999Z</time>
      </trkpt>
      <trkpt lat="43.98192" lon="3.02444">
        <ele>802.8</ele>
        <time>2026-04-30T11:39:43.999Z</time>
      </trkpt>
      <trkpt lat="43.98192" lon="3.02442">
        <ele>803.2</ele>
        <time>2026-04-30T11:39:44.999Z</time>
      </trkpt>
      <trkpt lat="43.98193" lon="3.0244">
        <ele>803</ele>
        <time>2026-04-30T11:39:45.999Z</time>
      </trkpt>
      <trkpt lat="43.98193" lon="3.02439">
        <ele>802.6</ele>
        <time>2026-04-30T11:39:46.999Z</time>
      </trkpt>
      <trkpt lat="43.98193" lon="3.02437">
        <ele>802.2</ele>
        <time>2026-04-30T11:39:47.999Z</time>
      </trkpt>
      <trkpt lat="43.98193" lon="3.02435">
        <ele>801.9</ele>
        <time>2026-04-30T11:39:48.999Z</time>
      </trkpt>
      <trkpt lat="43.98193" lon="3.02434">
        <ele>801.6</ele>
        <time>2026-04-30T11:39:49.999Z</time>
      </trkpt>
      <trkpt lat="43.98194" lon="3.02433">
        <ele>801.6</ele>
        <time>2026-04-30T11:39:50.999Z</time>
      </trkpt>
      <trkpt lat="43.98194" lon="3.02432">
        <ele>801.5</ele>
        <time>2026-04-30T11:39:51.999Z</time>
      </trkpt>
      <trkpt lat="43.98194" lon="3.0243">
        <ele>801.4</ele>
        <time>2026-04-30T11:39:52.999Z</time>
      </trkpt>
      <trkpt lat="43.98194" lon="3.02428">
        <ele>801.7</ele>
        <time>2026-04-30T11:39:53.999Z</time>
      </trkpt>
      <trkpt lat="43.98194" lon="3.02426">
        <ele>801.7</ele>
        <time>2026-04-30T11:39:54.999Z</time>
      </trkpt>
      <trkpt lat="43.98195" lon="3.02424">
        <ele>801.7</ele>
        <time>2026-04-30T11:39:55.999Z</time>
      </trkpt>
      <trkpt lat="43.98195" lon="3.02423">
        <ele>802.1</ele>
        <time>2026-04-30T11:39:56.999Z</time>
      </trkpt>
      <trkpt lat="43.98195" lon="3.02422">
        <ele>802.1</ele>
        <time>2026-04-30T11:39:57.999Z</time>
      </trkpt>
      <trkpt lat="43.98196" lon="3.02421">
        <ele>802.1</ele>
        <time>2026-04-30T11:39:58.999Z</time>
      </trkpt>
      <trkpt lat="43.98196" lon="3.02419">
        <ele>802</ele>
        <time>2026-04-30T11:39:59.999Z</time>
      </trkpt>
      <trkpt lat="43.98197" lon="3.02418">
        <ele>802.1</ele>
        <time>2026-04-30T11:40:00.999Z</time>
      </trkpt>
      <trkpt lat="43.98198" lon="3.02416">
        <ele>802.1</ele>
        <time>2026-04-30T11:40:01.999Z</time>
      </trkpt>
      <trkpt lat="43.98198" lon="3.02414">
        <ele>802.4</ele>
        <time>2026-04-30T11:40:02.999Z</time>
      </trkpt>
      <trkpt lat="43.98199" lon="3.02412">
        <ele>802.4</ele>
        <time>2026-04-30T11:40:03.999Z</time>
      </trkpt>
      <trkpt lat="43.982" lon="3.0241">
        <ele>802.3</ele>
        <time>2026-04-30T11:40:04.999Z</time>
      </trkpt>
      <trkpt lat="43.98201" lon="3.02409">
        <ele>802.3</ele>
        <time>2026-04-30T11:40:05.999Z</time>
      </trkpt>
      <trkpt lat="43.98201" lon="3.02408">
        <ele>802.1</ele>
        <time>2026-04-30T11:40:06.999Z</time>
      </trkpt>
      <trkpt lat="43.98201" lon="3.02406">
        <ele>802.3</ele>
        <time>2026-04-30T11:40:07.999Z</time>
      </trkpt>
      <trkpt lat="43.98201" lon="3.02404">
        <ele>802.4</ele>
        <time>2026-04-30T11:40:08.999Z</time>
      </trkpt>
      <trkpt lat="43.98202" lon="3.02402">
        <ele>802.1</ele>
        <time>2026-04-30T11:40:09.999Z</time>
      </trkpt>
      <trkpt lat="43.98202" lon="3.024">
        <ele>802.2</ele>
        <time>2026-04-30T11:40:10.999Z</time>
      </trkpt>
      <trkpt lat="43.98202" lon="3.02398">
        <ele>802.2</ele>
        <time>2026-04-30T11:40:11.999Z</time>
      </trkpt>
      <trkpt lat="43.98201" lon="3.02397">
        <ele>802.4</ele>
        <time>2026-04-30T11:40:12.999Z</time>
      </trkpt>
      <trkpt lat="43.98202" lon="3.02396">
        <ele>802.1</ele>
        <time>2026-04-30T11:40:13.999Z</time>
      </trkpt>
      <trkpt lat="43.98202" lon="3.02395">
        <ele>801.7</ele>
        <time>2026-04-30T11:40:14.999Z</time>
      </trkpt>
      <trkpt lat="43.98202" lon="3.02393">
        <ele>801.3</ele>
        <time>2026-04-30T11:40:15.999Z</time>
      </trkpt>
      <trkpt lat="43.98203" lon="3.02392">
        <ele>800.9</ele>
        <time>2026-04-30T11:40:16.999Z</time>
      </trkpt>
      <trkpt lat="43.98203" lon="3.0239">
        <ele>801</ele>
        <time>2026-04-30T11:40:17.999Z</time>
      </trkpt>
      <trkpt lat="43.98203" lon="3.02388">
        <ele>801.2</ele>
        <time>2026-04-30T11:40:18.999Z</time>
      </trkpt>
      <trkpt lat="43.98203" lon="3.02386">
        <ele>801.4</ele>
        <time>2026-04-30T11:40:19.999Z</time>
      </trkpt>
      <trkpt lat="43.98203" lon="3.02384">
        <ele>801.3</ele>
        <time>2026-04-30T11:40:20.999Z</time>
      </trkpt>
      <trkpt lat="43.98203" lon="3.02383">
        <ele>801.1</ele>
        <time>2026-04-30T11:40:21.999Z</time>
      </trkpt>
      <trkpt lat="43.98203" lon="3.02382">
        <ele>801</ele>
        <time>2026-04-30T11:40:22.999Z</time>
      </trkpt>
      <trkpt lat="43.98203" lon="3.0238">
        <ele>800.5</ele>
        <time>2026-04-30T11:40:23.999Z</time>
      </trkpt>
      <trkpt lat="43.98203" lon="3.02378">
        <ele>800.5</ele>
        <time>2026-04-30T11:40:24.999Z</time>
      </trkpt>
      <trkpt lat="43.98203" lon="3.02377">
        <ele>800.2</ele>
        <time>2026-04-30T11:40:25.999Z</time>
      </trkpt>
      <trkpt lat="43.98203" lon="3.02375">
        <ele>799.6</ele>
        <time>2026-04-30T11:40:26.999Z</time>
      </trkpt>
      <trkpt lat="43.98203" lon="3.02373">
        <ele>799.1</ele>
        <time>2026-04-30T11:40:27.999Z</time>
      </trkpt>
      <trkpt lat="43.98203" lon="3.02372">
        <ele>799</ele>
        <time>2026-04-30T11:40:28.999Z</time>
      </trkpt>
      <trkpt lat="43.98204" lon="3.0237">
        <ele>798.8</ele>
        <time>2026-04-30T11:40:29.999Z</time>
      </trkpt>
      <trkpt lat="43.98204" lon="3.02369">
        <ele>798.5</ele>
        <time>2026-04-30T11:40:30.999Z</time>
      </trkpt>
      <trkpt lat="43.98204" lon="3.02368">
        <ele>798.2</ele>
        <time>2026-04-30T11:40:31.999Z</time>
      </trkpt>
      <trkpt lat="43.98203" lon="3.02367">
        <ele>797.8</ele>
        <time>2026-04-30T11:40:32.999Z</time>
      </trkpt>
      <trkpt lat="43.98204" lon="3.02366">
        <ele>797.6</ele>
        <time>2026-04-30T11:40:33.999Z</time>
      </trkpt>
      <trkpt lat="43.98203" lon="3.02364">
        <ele>797.5</ele>
        <time>2026-04-30T11:40:34.999Z</time>
      </trkpt>
      <trkpt lat="43.98204" lon="3.02362">
        <ele>797.8</ele>
        <time>2026-04-30T11:40:35.999Z</time>
      </trkpt>
      <trkpt lat="43.98204" lon="3.02361">
        <ele>798</ele>
        <time>2026-04-30T11:40:36.999Z</time>
      </trkpt>
      <trkpt lat="43.98204" lon="3.0236">
        <ele>798.1</ele>
        <time>2026-04-30T11:40:37.999Z</time>
      </trkpt>
      <trkpt lat="43.98205" lon="3.02359">
        <ele>798.2</ele>
        <time>2026-04-30T11:40:38.999Z</time>
      </trkpt>
      <trkpt lat="43.98205" lon="3.02357">
        <ele>798.1</ele>
        <time>2026-04-30T11:40:39.999Z</time>
      </trkpt>
      <trkpt lat="43.98205" lon="3.02356">
        <ele>798</ele>
        <time>2026-04-30T11:40:40.999Z</time>
      </trkpt>
      <trkpt lat="43.98205" lon="3.02354">
        <ele>797.9</ele>
        <time>2026-04-30T11:40:41.999Z</time>
      </trkpt>
      <trkpt lat="43.98205" lon="3.02352">
        <ele>797.9</ele>
        <time>2026-04-30T11:40:42.999Z</time>
      </trkpt>
      <trkpt lat="43.98205" lon="3.02351">
        <ele>797.8</ele>
        <time>2026-04-30T11:40:43.999Z</time>
      </trkpt>
      <trkpt lat="43.98205" lon="3.0235">
        <ele>797.7</ele>
        <time>2026-04-30T11:40:44.999Z</time>
      </trkpt>
      <trkpt lat="43.98205" lon="3.02349">
        <ele>797.7</ele>
        <time>2026-04-30T11:40:45.999Z</time>
      </trkpt>
      <trkpt lat="43.98205" lon="3.02349">
        <ele>797.7</ele>
        <time>2026-04-30T11:40:46.999Z</time>
      </trkpt>
      <trkpt lat="43.98205" lon="3.02348">
        <ele>797.4</ele>
        <time>2026-04-30T11:40:47.999Z</time>
      </trkpt>
      <trkpt lat="43.98205" lon="3.02347">
        <ele>797.3</ele>
        <time>2026-04-30T11:40:48.999Z</time>
      </trkpt>
      <trkpt lat="43.98206" lon="3.02347">
        <ele>797.4</ele>
        <time>2026-04-30T11:40:49.999Z</time>
      </trkpt>
      <trkpt lat="43.98207" lon="3.02347">
        <ele>797.4</ele>
        <time>2026-04-30T11:40:50.999Z</time>
      </trkpt>
      <trkpt lat="43.98207" lon="3.02346">
        <ele>797.3</ele>
        <time>2026-04-30T11:40:51.999Z</time>
      </trkpt>
      <trkpt lat="43.98207" lon="3.02345">
        <ele>797.3</ele>
        <time>2026-04-30T11:40:52.999Z</time>
      </trkpt>
      <trkpt lat="43.98208" lon="3.02343">
        <ele>797.2</ele>
        <time>2026-04-30T11:40:53.999Z</time>
      </trkpt>
      <trkpt lat="43.98208" lon="3.02341">
        <ele>796.9</ele>
        <time>2026-04-30T11:40:54.999Z</time>
      </trkpt>
      <trkpt lat="43.98208" lon="3.02339">
        <ele>796.6</ele>
        <time>2026-04-30T11:40:55.999Z</time>
      </trkpt>
      <trkpt lat="43.98209" lon="3.02338">
        <ele>796.5</ele>
        <time>2026-04-30T11:40:56.999Z</time>
      </trkpt>
      <trkpt lat="43.98209" lon="3.02337">
        <ele>796.4</ele>
        <time>2026-04-30T11:40:57.999Z</time>
      </trkpt>
      <trkpt lat="43.98209" lon="3.02335">
        <ele>796.2</ele>
        <time>2026-04-30T11:40:58.999Z</time>
      </trkpt>
      <trkpt lat="43.98208" lon="3.02334">
        <ele>796.3</ele>
        <time>2026-04-30T11:40:59.999Z</time>
      </trkpt>
      <trkpt lat="43.98208" lon="3.02331">
        <ele>796.1</ele>
        <time>2026-04-30T11:41:00.999Z</time>
      </trkpt>
      <trkpt lat="43.98208" lon="3.0233">
        <ele>795.6</ele>
        <time>2026-04-30T11:41:01.999Z</time>
      </trkpt>
      <trkpt lat="43.98208" lon="3.02329">
        <ele>795.3</ele>
        <time>2026-04-30T11:41:02.999Z</time>
      </trkpt>
      <trkpt lat="43.98208" lon="3.02327">
        <ele>795</ele>
        <time>2026-04-30T11:41:03.999Z</time>
      </trkpt>
      <trkpt lat="43.98209" lon="3.02326">
        <ele>795</ele>
        <time>2026-04-30T11:41:04.999Z</time>
      </trkpt>
      <trkpt lat="43.98209" lon="3.02324">
        <ele>794.9</ele>
        <time>2026-04-30T11:41:05.999Z</time>
      </trkpt>
      <trkpt lat="43.9821" lon="3.02322">
        <ele>795</ele>
        <time>2026-04-30T11:41:06.999Z</time>
      </trkpt>
      <trkpt lat="43.9821" lon="3.02319">
        <ele>795.2</ele>
        <time>2026-04-30T11:41:07.999Z</time>
      </trkpt>
      <trkpt lat="43.9821" lon="3.02318">
        <ele>795.4</ele>
        <time>2026-04-30T11:41:08.999Z</time>
      </trkpt>
      <trkpt lat="43.98211" lon="3.02317">
        <ele>795.5</ele>
        <time>2026-04-30T11:41:09.999Z</time>
      </trkpt>
      <trkpt lat="43.98211" lon="3.02316">
        <ele>795.5</ele>
        <time>2026-04-30T11:41:10.999Z</time>
      </trkpt>
      <trkpt lat="43.98211" lon="3.02314">
        <ele>795.6</ele>
        <time>2026-04-30T11:41:11.999Z</time>
      </trkpt>
      <trkpt lat="43.98211" lon="3.02313">
        <ele>795.5</ele>
        <time>2026-04-30T11:41:12.999Z</time>
      </trkpt>
      <trkpt lat="43.98211" lon="3.02311">
        <ele>795.5</ele>
        <time>2026-04-30T11:41:13.999Z</time>
      </trkpt>
      <trkpt lat="43.98211" lon="3.02309">
        <ele>795.7</ele>
        <time>2026-04-30T11:41:14.999Z</time>
      </trkpt>
      <trkpt lat="43.98211" lon="3.02307">
        <ele>795.7</ele>
        <time>2026-04-30T11:41:15.999Z</time>
      </trkpt>
      <trkpt lat="43.98211" lon="3.02305">
        <ele>795.8</ele>
        <time>2026-04-30T11:41:16.999Z</time>
      </trkpt>
      <trkpt lat="43.9821" lon="3.02303">
        <ele>795.9</ele>
        <time>2026-04-30T11:41:17.999Z</time>
      </trkpt>
      <trkpt lat="43.9821" lon="3.02302">
        <ele>795.6</ele>
        <time>2026-04-30T11:41:18.999Z</time>
      </trkpt>
      <trkpt lat="43.9821" lon="3.02301">
        <ele>795.4</ele>
        <time>2026-04-30T11:41:19.999Z</time>
      </trkpt>
      <trkpt lat="43.98211" lon="3.023">
        <ele>795.3</ele>
        <time>2026-04-30T11:41:20.999Z</time>
      </trkpt>
      <trkpt lat="43.9821" lon="3.02298">
        <ele>795.3</ele>
        <time>2026-04-30T11:41:21.999Z</time>
      </trkpt>
      <trkpt lat="43.9821" lon="3.02297">
        <ele>795.3</ele>
        <time>2026-04-30T11:41:22.999Z</time>
      </trkpt>
      <trkpt lat="43.9821" lon="3.02295">
        <ele>795.4</ele>
        <time>2026-04-30T11:41:23.999Z</time>
      </trkpt>
      <trkpt lat="43.9821" lon="3.02293">
        <ele>795.5</ele>
        <time>2026-04-30T11:41:24.999Z</time>
      </trkpt>
      <trkpt lat="43.98209" lon="3.02291">
        <ele>795.4</ele>
        <time>2026-04-30T11:41:25.999Z</time>
      </trkpt>
      <trkpt lat="43.98209" lon="3.02289">
        <ele>795.1</ele>
        <time>2026-04-30T11:41:26.999Z</time>
      </trkpt>
      <trkpt lat="43.9821" lon="3.02287">
        <ele>795</ele>
        <time>2026-04-30T11:41:27.999Z</time>
      </trkpt>
      <trkpt lat="43.9821" lon="3.02286">
        <ele>794.9</ele>
        <time>2026-04-30T11:41:28.999Z</time>
      </trkpt>
      <trkpt lat="43.98211" lon="3.02284">
        <ele>794.7</ele>
        <time>2026-04-30T11:41:29.999Z</time>
      </trkpt>
      <trkpt lat="43.98211" lon="3.02283">
        <ele>794.6</ele>
        <time>2026-04-30T11:41:30.999Z</time>
      </trkpt>
      <trkpt lat="43.98211" lon="3.0228">
        <ele>794.7</ele>
        <time>2026-04-30T11:41:31.999Z</time>
      </trkpt>
      <trkpt lat="43.98211" lon="3.02278">
        <ele>795</ele>
        <time>2026-04-30T11:41:32.999Z</time>
      </trkpt>
      <trkpt lat="43.98211" lon="3.02277">
        <ele>795.2</ele>
        <time>2026-04-30T11:41:33.999Z</time>
      </trkpt>
      <trkpt lat="43.98211" lon="3.02276">
        <ele>795.2</ele>
        <time>2026-04-30T11:41:34.999Z</time>
      </trkpt>
      <trkpt lat="43.98212" lon="3.02275">
        <ele>795.2</ele>
        <time>2026-04-30T11:41:35.999Z</time>
      </trkpt>
      <trkpt lat="43.98212" lon="3.02274">
        <ele>795.3</ele>
        <time>2026-04-30T11:41:36.999Z</time>
      </trkpt>
      <trkpt lat="43.98213" lon="3.02272">
        <ele>795.1</ele>
        <time>2026-04-30T11:41:37.999Z</time>
      </trkpt>
      <trkpt lat="43.98213" lon="3.02271">
        <ele>795.2</ele>
        <time>2026-04-30T11:41:38.999Z</time>
      </trkpt>
      <trkpt lat="43.98213" lon="3.02269">
        <ele>795.3</ele>
        <time>2026-04-30T11:41:39.999Z</time>
      </trkpt>
      <trkpt lat="43.98213" lon="3.02267">
        <ele>795.4</ele>
        <time>2026-04-30T11:41:40.999Z</time>
      </trkpt>
      <trkpt lat="43.98213" lon="3.02266">
        <ele>795.6</ele>
        <time>2026-04-30T11:41:41.999Z</time>
      </trkpt>
      <trkpt lat="43.98212" lon="3.02264">
        <ele>795.5</ele>
        <time>2026-04-30T11:41:42.999Z</time>
      </trkpt>
      <trkpt lat="43.98213" lon="3.02263">
        <ele>795.3</ele>
        <time>2026-04-30T11:41:43.999Z</time>
      </trkpt>
      <trkpt lat="43.98214" lon="3.02261">
        <ele>795.2</ele>
        <time>2026-04-30T11:41:44.999Z</time>
      </trkpt>
      <trkpt lat="43.98214" lon="3.0226">
        <ele>795</ele>
        <time>2026-04-30T11:41:45.999Z</time>
      </trkpt>
      <trkpt lat="43.98215" lon="3.02259">
        <ele>795</ele>
        <time>2026-04-30T11:41:46.999Z</time>
      </trkpt>
      <trkpt lat="43.98216" lon="3.02257">
        <ele>795.2</ele>
        <time>2026-04-30T11:41:47.999Z</time>
      </trkpt>
      <trkpt lat="43.98217" lon="3.02255">
        <ele>795.4</ele>
        <time>2026-04-30T11:41:48.999Z</time>
      </trkpt>
      <trkpt lat="43.98217" lon="3.02253">
        <ele>795.6</ele>
        <time>2026-04-30T11:41:49.999Z</time>
      </trkpt>
      <trkpt lat="43.98217" lon="3.02252">
        <ele>795.7</ele>
        <time>2026-04-30T11:41:50.999Z</time>
      </trkpt>
      <trkpt lat="43.98217" lon="3.02251">
        <ele>795.8</ele>
        <time>2026-04-30T11:41:51.999Z</time>
      </trkpt>
      <trkpt lat="43.98217" lon="3.02249">
        <ele>795.6</ele>
        <time>2026-04-30T11:41:52.999Z</time>
      </trkpt>
      <trkpt lat="43.98217" lon="3.02248">
        <ele>795.5</ele>
        <time>2026-04-30T11:41:53.999Z</time>
      </trkpt>
      <trkpt lat="43.98217" lon="3.02246">
        <ele>795.5</ele>
        <time>2026-04-30T11:41:54.999Z</time>
      </trkpt>
      <trkpt lat="43.98217" lon="3.02244">
        <ele>795.7</ele>
        <time>2026-04-30T11:41:55.999Z</time>
      </trkpt>
      <trkpt lat="43.98217" lon="3.02242">
        <ele>795.8</ele>
        <time>2026-04-30T11:41:56.999Z</time>
      </trkpt>
      <trkpt lat="43.98216" lon="3.02241">
        <ele>795.8</ele>
        <time>2026-04-30T11:41:57.999Z</time>
      </trkpt>
      <trkpt lat="43.98217" lon="3.0224">
        <ele>796.2</ele>
        <time>2026-04-30T11:41:58.999Z</time>
      </trkpt>
      <trkpt lat="43.98217" lon="3.02238">
        <ele>796.3</ele>
        <time>2026-04-30T11:41:59.999Z</time>
      </trkpt>
      <trkpt lat="43.98216" lon="3.02237">
        <ele>796.4</ele>
        <time>2026-04-30T11:42:00.999Z</time>
      </trkpt>
      <trkpt lat="43.98216" lon="3.02235">
        <ele>796.3</ele>
        <time>2026-04-30T11:42:01.999Z</time>
      </trkpt>
      <trkpt lat="43.98215" lon="3.02233">
        <ele>796.4</ele>
        <time>2026-04-30T11:42:02.999Z</time>
      </trkpt>
      <trkpt lat="43.98215" lon="3.02232">
        <ele>796.5</ele>
        <time>2026-04-30T11:42:03.999Z</time>
      </trkpt>
      <trkpt lat="43.98215" lon="3.0223">
        <ele>796.5</ele>
        <time>2026-04-30T11:42:04.999Z</time>
      </trkpt>
      <trkpt lat="43.98215" lon="3.02229">
        <ele>796.6</ele>
        <time>2026-04-30T11:42:05.999Z</time>
      </trkpt>
      <trkpt lat="43.98215" lon="3.02227">
        <ele>796.4</ele>
        <time>2026-04-30T11:42:06.999Z</time>
      </trkpt>
      <trkpt lat="43.98216" lon="3.02224">
        <ele>796.3</ele>
        <time>2026-04-30T11:42:07.999Z</time>
      </trkpt>
      <trkpt lat="43.98216" lon="3.02222">
        <ele>796.3</ele>
        <time>2026-04-30T11:42:08.999Z</time>
      </trkpt>
      <trkpt lat="43.98217" lon="3.02221">
        <ele>796.4</ele>
        <time>2026-04-30T11:42:09.999Z</time>
      </trkpt>
      <trkpt lat="43.98217" lon="3.0222">
        <ele>796.4</ele>
        <time>2026-04-30T11:42:10.999Z</time>
      </trkpt>
      <trkpt lat="43.98217" lon="3.02218">
        <ele>796.4</ele>
        <time>2026-04-30T11:42:11.999Z</time>
      </trkpt>
      <trkpt lat="43.98217" lon="3.02216">
        <ele>796.8</ele>
        <time>2026-04-30T11:42:12.999Z</time>
      </trkpt>
      <trkpt lat="43.98217" lon="3.02215">
        <ele>797.3</ele>
        <time>2026-04-30T11:42:13.999Z</time>
      </trkpt>
      <trkpt lat="43.98217" lon="3.02213">
        <ele>797.5</ele>
        <time>2026-04-30T11:42:14.999Z</time>
      </trkpt>
      <trkpt lat="43.98217" lon="3.02212">
        <ele>797.3</ele>
        <time>2026-04-30T11:42:15.999Z</time>
      </trkpt>
      <trkpt lat="43.98217" lon="3.0221">
        <ele>797.1</ele>
        <time>2026-04-30T11:42:16.999Z</time>
      </trkpt>
      <trkpt lat="43.98216" lon="3.02208">
        <ele>797.3</ele>
        <time>2026-04-30T11:42:17.999Z</time>
      </trkpt>
      <trkpt lat="43.98216" lon="3.02207">
        <ele>797.3</ele>
        <time>2026-04-30T11:42:18.999Z</time>
      </trkpt>
      <trkpt lat="43.98216" lon="3.02205">
        <ele>797.3</ele>
        <time>2026-04-30T11:42:19.999Z</time>
      </trkpt>
      <trkpt lat="43.98216" lon="3.02202">
        <ele>797.3</ele>
        <time>2026-04-30T11:42:20.999Z</time>
      </trkpt>
      <trkpt lat="43.98216" lon="3.02201">
        <ele>797.5</ele>
        <time>2026-04-30T11:42:21.999Z</time>
      </trkpt>
      <trkpt lat="43.98216" lon="3.022">
        <ele>797.4</ele>
        <time>2026-04-30T11:42:22.999Z</time>
      </trkpt>
      <trkpt lat="43.98216" lon="3.02198">
        <ele>797.5</ele>
        <time>2026-04-30T11:42:23.999Z</time>
      </trkpt>
      <trkpt lat="43.98217" lon="3.02197">
        <ele>797.5</ele>
        <time>2026-04-30T11:42:24.999Z</time>
      </trkpt>
      <trkpt lat="43.98217" lon="3.02196">
        <ele>797.5</ele>
        <time>2026-04-30T11:42:25.999Z</time>
      </trkpt>
      <trkpt lat="43.98217" lon="3.02194">
        <ele>797.8</ele>
        <time>2026-04-30T11:42:26.999Z</time>
      </trkpt>
      <trkpt lat="43.98217" lon="3.02192">
        <ele>798</ele>
        <time>2026-04-30T11:42:27.999Z</time>
      </trkpt>
      <trkpt lat="43.98218" lon="3.0219">
        <ele>798.1</ele>
        <time>2026-04-30T11:42:28.999Z</time>
      </trkpt>
      <trkpt lat="43.98218" lon="3.02188">
        <ele>798.3</ele>
        <time>2026-04-30T11:42:29.999Z</time>
      </trkpt>
      <trkpt lat="43.98218" lon="3.02186">
        <ele>798.2</ele>
        <time>2026-04-30T11:42:30.999Z</time>
      </trkpt>
      <trkpt lat="43.98218" lon="3.02185">
        <ele>798.4</ele>
        <time>2026-04-30T11:42:31.999Z</time>
      </trkpt>
      <trkpt lat="43.98218" lon="3.02184">
        <ele>798.1</ele>
        <time>2026-04-30T11:42:32.999Z</time>
      </trkpt>
      <trkpt lat="43.98219" lon="3.02183">
        <ele>798</ele>
        <time>2026-04-30T11:42:33.999Z</time>
      </trkpt>
      <trkpt lat="43.98219" lon="3.02181">
        <ele>797.7</ele>
        <time>2026-04-30T11:42:34.999Z</time>
      </trkpt>
      <trkpt lat="43.9822" lon="3.02179">
        <ele>797.5</ele>
        <time>2026-04-30T11:42:35.999Z</time>
      </trkpt>
      <trkpt lat="43.9822" lon="3.02178">
        <ele>797.4</ele>
        <time>2026-04-30T11:42:36.999Z</time>
      </trkpt>
      <trkpt lat="43.98219" lon="3.02177">
        <ele>797.2</ele>
        <time>2026-04-30T11:42:37.999Z</time>
      </trkpt>
      <trkpt lat="43.98219" lon="3.02175">
        <ele>797.2</ele>
        <time>2026-04-30T11:42:38.999Z</time>
      </trkpt>
      <trkpt lat="43.9822" lon="3.02174">
        <ele>797.4</ele>
        <time>2026-04-30T11:42:39.999Z</time>
      </trkpt>
      <trkpt lat="43.9822" lon="3.02173">
        <ele>797.4</ele>
        <time>2026-04-30T11:42:40.999Z</time>
      </trkpt>
      <trkpt lat="43.9822" lon="3.02171">
        <ele>797.3</ele>
        <time>2026-04-30T11:42:41.999Z</time>
      </trkpt>
      <trkpt lat="43.9822" lon="3.02169">
        <ele>797</ele>
        <time>2026-04-30T11:42:42.999Z</time>
      </trkpt>
      <trkpt lat="43.98221" lon="3.02168">
        <ele>796.8</ele>
        <time>2026-04-30T11:42:43.999Z</time>
      </trkpt>
      <trkpt lat="43.98222" lon="3.02166">
        <ele>796.7</ele>
        <time>2026-04-30T11:42:44.999Z</time>
      </trkpt>
      <trkpt lat="43.98222" lon="3.02165">
        <ele>796.6</ele>
        <time>2026-04-30T11:42:45.999Z</time>
      </trkpt>
      <trkpt lat="43.98222" lon="3.02164">
        <ele>796.4</ele>
        <time>2026-04-30T11:42:46.999Z</time>
      </trkpt>
      <trkpt lat="43.98223" lon="3.02162">
        <ele>796.4</ele>
        <time>2026-04-30T11:42:47.999Z</time>
      </trkpt>
      <trkpt lat="43.98223" lon="3.02161">
        <ele>796.4</ele>
        <time>2026-04-30T11:42:48.999Z</time>
      </trkpt>
      <trkpt lat="43.98223" lon="3.0216">
        <ele>796.5</ele>
        <time>2026-04-30T11:42:49.999Z</time>
      </trkpt>
      <trkpt lat="43.98223" lon="3.02158">
        <ele>796.6</ele>
        <time>2026-04-30T11:42:50.999Z</time>
      </trkpt>
      <trkpt lat="43.98223" lon="3.02157">
        <ele>796.8</ele>
        <time>2026-04-30T11:42:51.999Z</time>
      </trkpt>
      <trkpt lat="43.98223" lon="3.02156">
        <ele>797</ele>
        <time>2026-04-30T11:42:52.999Z</time>
      </trkpt>
      <trkpt lat="43.98224" lon="3.02154">
        <ele>797.3</ele>
        <time>2026-04-30T11:42:53.999Z</time>
      </trkpt>
      <trkpt lat="43.98224" lon="3.02151">
        <ele>797.5</ele>
        <time>2026-04-30T11:42:54.999Z</time>
      </trkpt>
      <trkpt lat="43.98225" lon="3.0215">
        <ele>797.4</ele>
        <time>2026-04-30T11:42:55.999Z</time>
      </trkpt>
      <trkpt lat="43.98225" lon="3.02148">
        <ele>797.4</ele>
        <time>2026-04-30T11:42:56.999Z</time>
      </trkpt>
      <trkpt lat="43.98225" lon="3.02147">
        <ele>797.5</ele>
        <time>2026-04-30T11:42:57.999Z</time>
      </trkpt>
      <trkpt lat="43.98225" lon="3.02146">
        <ele>797.4</ele>
        <time>2026-04-30T11:42:58.999Z</time>
      </trkpt>
      <trkpt lat="43.98225" lon="3.02144">
        <ele>797.5</ele>
        <time>2026-04-30T11:42:59.999Z</time>
      </trkpt>
      <trkpt lat="43.98225" lon="3.02142">
        <ele>797.5</ele>
        <time>2026-04-30T11:43:00.999Z</time>
      </trkpt>
      <trkpt lat="43.98224" lon="3.02141">
        <ele>797.4</ele>
        <time>2026-04-30T11:43:01.999Z</time>
      </trkpt>
      <trkpt lat="43.98224" lon="3.02139">
        <ele>797.5</ele>
        <time>2026-04-30T11:43:02.999Z</time>
      </trkpt>
      <trkpt lat="43.98224" lon="3.02138">
        <ele>797.1</ele>
        <time>2026-04-30T11:43:03.999Z</time>
      </trkpt>
      <trkpt lat="43.98224" lon="3.02137">
        <ele>796.9</ele>
        <time>2026-04-30T11:43:04.999Z</time>
      </trkpt>
      <trkpt lat="43.98224" lon="3.02136">
        <ele>796.6</ele>
        <time>2026-04-30T11:43:05.999Z</time>
      </trkpt>
      <trkpt lat="43.98224" lon="3.02134">
        <ele>796.4</ele>
        <time>2026-04-30T11:43:06.999Z</time>
      </trkpt>
      <trkpt lat="43.98224" lon="3.02133">
        <ele>796.3</ele>
        <time>2026-04-30T11:43:07.999Z</time>
      </trkpt>
      <trkpt lat="43.98225" lon="3.02131">
        <ele>796.5</ele>
        <time>2026-04-30T11:43:08.999Z</time>
      </trkpt>
      <trkpt lat="43.98225" lon="3.02129">
        <ele>796.5</ele>
        <time>2026-04-30T11:43:09.999Z</time>
      </trkpt>
      <trkpt lat="43.98225" lon="3.02128">
        <ele>796.3</ele>
        <time>2026-04-30T11:43:10.999Z</time>
      </trkpt>
      <trkpt lat="43.98225" lon="3.02127">
        <ele>795.7</ele>
        <time>2026-04-30T11:43:11.999Z</time>
      </trkpt>
      <trkpt lat="43.98225" lon="3.02126">
        <ele>795.4</ele>
        <time>2026-04-30T11:43:12.999Z</time>
      </trkpt>
      <trkpt lat="43.98226" lon="3.02124">
        <ele>795.1</ele>
        <time>2026-04-30T11:43:13.999Z</time>
      </trkpt>
      <trkpt lat="43.98227" lon="3.02122">
        <ele>795</ele>
        <time>2026-04-30T11:43:14.999Z</time>
      </trkpt>
      <trkpt lat="43.98227" lon="3.0212">
        <ele>795.1</ele>
        <time>2026-04-30T11:43:15.999Z</time>
      </trkpt>
      <trkpt lat="43.98227" lon="3.02118">
        <ele>795.4</ele>
        <time>2026-04-30T11:43:16.999Z</time>
      </trkpt>
      <trkpt lat="43.98228" lon="3.02116">
        <ele>795.5</ele>
        <time>2026-04-30T11:43:17.999Z</time>
      </trkpt>
      <trkpt lat="43.98228" lon="3.02115">
        <ele>795.8</ele>
        <time>2026-04-30T11:43:18.999Z</time>
      </trkpt>
      <trkpt lat="43.98229" lon="3.02114">
        <ele>796.1</ele>
        <time>2026-04-30T11:43:19.999Z</time>
      </trkpt>
      <trkpt lat="43.98229" lon="3.02113">
        <ele>796.3</ele>
        <time>2026-04-30T11:43:20.999Z</time>
      </trkpt>
      <trkpt lat="43.98229" lon="3.02111">
        <ele>796.4</ele>
        <time>2026-04-30T11:43:21.999Z</time>
      </trkpt>
      <trkpt lat="43.98229" lon="3.02109">
        <ele>796.5</ele>
        <time>2026-04-30T11:43:22.999Z</time>
      </trkpt>
      <trkpt lat="43.98229" lon="3.02107">
        <ele>796.6</ele>
        <time>2026-04-30T11:43:23.999Z</time>
      </trkpt>
      <trkpt lat="43.9823" lon="3.02106">
        <ele>796.7</ele>
        <time>2026-04-30T11:43:24.999Z</time>
      </trkpt>
      <trkpt lat="43.9823" lon="3.02104">
        <ele>796.6</ele>
        <time>2026-04-30T11:43:25.999Z</time>
      </trkpt>
      <trkpt lat="43.9823" lon="3.02103">
        <ele>796.4</ele>
        <time>2026-04-30T11:43:26.999Z</time>
      </trkpt>
      <trkpt lat="43.9823" lon="3.02101">
        <ele>796.2</ele>
        <time>2026-04-30T11:43:27.999Z</time>
      </trkpt>
      <trkpt lat="43.9823" lon="3.021">
        <ele>796.3</ele>
        <time>2026-04-30T11:43:28.999Z</time>
      </trkpt>
      <trkpt lat="43.98231" lon="3.02098">
        <ele>796.2</ele>
        <time>2026-04-30T11:43:29.999Z</time>
      </trkpt>
      <trkpt lat="43.98231" lon="3.02097">
        <ele>796.1</ele>
        <time>2026-04-30T11:43:30.999Z</time>
      </trkpt>
      <trkpt lat="43.9823" lon="3.02095">
        <ele>796.1</ele>
        <time>2026-04-30T11:43:31.999Z</time>
      </trkpt>
      <trkpt lat="43.9823" lon="3.02094">
        <ele>796.2</ele>
        <time>2026-04-30T11:43:32.999Z</time>
      </trkpt>
      <trkpt lat="43.9823" lon="3.02092">
        <ele>796.1</ele>
        <time>2026-04-30T11:43:33.999Z</time>
      </trkpt>
      <trkpt lat="43.9823" lon="3.0209">
        <ele>795.8</ele>
        <time>2026-04-30T11:43:34.999Z</time>
      </trkpt>
      <trkpt lat="43.98231" lon="3.02089">
        <ele>795.7</ele>
        <time>2026-04-30T11:43:35.999Z</time>
      </trkpt>
      <trkpt lat="43.98231" lon="3.02087">
        <ele>795.9</ele>
        <time>2026-04-30T11:43:36.999Z</time>
      </trkpt>
      <trkpt lat="43.98231" lon="3.02086">
        <ele>795.8</ele>
        <time>2026-04-30T11:43:37.999Z</time>
      </trkpt>
      <trkpt lat="43.98231" lon="3.02084">
        <ele>795.5</ele>
        <time>2026-04-30T11:43:38.999Z</time>
      </trkpt>
      <trkpt lat="43.9823" lon="3.02083">
        <ele>795.3</ele>
        <time>2026-04-30T11:43:39.999Z</time>
      </trkpt>
      <trkpt lat="43.98231" lon="3.02081">
        <ele>795.3</ele>
        <time>2026-04-30T11:43:40.999Z</time>
      </trkpt>
      <trkpt lat="43.98231" lon="3.02079">
        <ele>795.2</ele>
        <time>2026-04-30T11:43:41.999Z</time>
      </trkpt>
      <trkpt lat="43.98232" lon="3.02078">
        <ele>795</ele>
        <time>2026-04-30T11:43:42.999Z</time>
      </trkpt>
      <trkpt lat="43.98232" lon="3.02077">
        <ele>794.7</ele>
        <time>2026-04-30T11:43:43.999Z</time>
      </trkpt>
      <trkpt lat="43.98233" lon="3.02076">
        <ele>794.6</ele>
        <time>2026-04-30T11:43:44.999Z</time>
      </trkpt>
      <trkpt lat="43.98233" lon="3.02074">
        <ele>794.7</ele>
        <time>2026-04-30T11:43:45.999Z</time>
      </trkpt>
      <trkpt lat="43.98234" lon="3.02072">
        <ele>794.6</ele>
        <time>2026-04-30T11:43:46.999Z</time>
      </trkpt>
      <trkpt lat="43.98234" lon="3.0207">
        <ele>794.6</ele>
        <time>2026-04-30T11:43:47.999Z</time>
      </trkpt>
      <trkpt lat="43.98235" lon="3.02068">
        <ele>794.9</ele>
        <time>2026-04-30T11:43:48.999Z</time>
      </trkpt>
      <trkpt lat="43.98236" lon="3.02066">
        <ele>794.9</ele>
        <time>2026-04-30T11:43:49.999Z</time>
      </trkpt>
      <trkpt lat="43.98236" lon="3.02065">
        <ele>794.8</ele>
        <time>2026-04-30T11:43:50.999Z</time>
      </trkpt>
      <trkpt lat="43.98236" lon="3.02064">
        <ele>794.7</ele>
        <time>2026-04-30T11:43:51.999Z</time>
      </trkpt>
      <trkpt lat="43.98237" lon="3.02063">
        <ele>794.6</ele>
        <time>2026-04-30T11:43:52.999Z</time>
      </trkpt>
      <trkpt lat="43.98237" lon="3.02061">
        <ele>794.5</ele>
        <time>2026-04-30T11:43:53.999Z</time>
      </trkpt>
      <trkpt lat="43.98238" lon="3.02061">
        <ele>794.3</ele>
        <time>2026-04-30T11:43:54.999Z</time>
      </trkpt>
      <trkpt lat="43.98238" lon="3.02059">
        <ele>794.5</ele>
        <time>2026-04-30T11:43:55.999Z</time>
      </trkpt>
      <trkpt lat="43.98239" lon="3.02057">
        <ele>794.7</ele>
        <time>2026-04-30T11:43:56.999Z</time>
      </trkpt>
      <trkpt lat="43.98239" lon="3.02054">
        <ele>794.6</ele>
        <time>2026-04-30T11:43:57.999Z</time>
      </trkpt>
      <trkpt lat="43.9824" lon="3.02053">
        <ele>794.6</ele>
        <time>2026-04-30T11:43:58.999Z</time>
      </trkpt>
      <trkpt lat="43.98241" lon="3.02052">
        <ele>794.8</ele>
        <time>2026-04-30T11:43:59.999Z</time>
      </trkpt>
      <trkpt lat="43.98242" lon="3.02051">
        <ele>794.5</ele>
        <time>2026-04-30T11:44:00.999Z</time>
      </trkpt>
      <trkpt lat="43.98243" lon="3.02049">
        <ele>794.3</ele>
        <time>2026-04-30T11:44:01.999Z</time>
      </trkpt>
      <trkpt lat="43.98243" lon="3.02047">
        <ele>794.4</ele>
        <time>2026-04-30T11:44:02.999Z</time>
      </trkpt>
      <trkpt lat="43.98242" lon="3.02045">
        <ele>794.5</ele>
        <time>2026-04-30T11:44:03.999Z</time>
      </trkpt>
      <trkpt lat="43.98242" lon="3.02044">
        <ele>794.6</ele>
        <time>2026-04-30T11:44:04.999Z</time>
      </trkpt>
      <trkpt lat="43.98243" lon="3.02042">
        <ele>794.6</ele>
        <time>2026-04-30T11:44:05.999Z</time>
      </trkpt>
      <trkpt lat="43.98243" lon="3.0204">
        <ele>794.8</ele>
        <time>2026-04-30T11:44:06.999Z</time>
      </trkpt>
      <trkpt lat="43.98242" lon="3.02038">
        <ele>794.6</ele>
        <time>2026-04-30T11:44:07.999Z</time>
      </trkpt>
      <trkpt lat="43.98243" lon="3.02037">
        <ele>794.7</ele>
        <time>2026-04-30T11:44:08.999Z</time>
      </trkpt>
      <trkpt lat="43.98243" lon="3.02036">
        <ele>794.5</ele>
        <time>2026-04-30T11:44:09.999Z</time>
      </trkpt>
      <trkpt lat="43.98242" lon="3.02034">
        <ele>794.4</ele>
        <time>2026-04-30T11:44:10.999Z</time>
      </trkpt>
      <trkpt lat="43.98242" lon="3.02033">
        <ele>794.5</ele>
        <time>2026-04-30T11:44:11.999Z</time>
      </trkpt>
      <trkpt lat="43.98241" lon="3.02031">
        <ele>794.6</ele>
        <time>2026-04-30T11:44:12.999Z</time>
      </trkpt>
      <trkpt lat="43.98241" lon="3.02029">
        <ele>794.9</ele>
        <time>2026-04-30T11:44:13.999Z</time>
      </trkpt>
      <trkpt lat="43.98241" lon="3.02027">
        <ele>795.4</ele>
        <time>2026-04-30T11:44:14.999Z</time>
      </trkpt>
      <trkpt lat="43.9824" lon="3.02025">
        <ele>795.6</ele>
        <time>2026-04-30T11:44:15.999Z</time>
      </trkpt>
      <trkpt lat="43.9824" lon="3.02024">
        <ele>796</ele>
        <time>2026-04-30T11:44:16.999Z</time>
      </trkpt>
      <trkpt lat="43.9824" lon="3.02023">
        <ele>796.2</ele>
        <time>2026-04-30T11:44:17.999Z</time>
      </trkpt>
      <trkpt lat="43.9824" lon="3.02021">
        <ele>796.5</ele>
        <time>2026-04-30T11:44:18.999Z</time>
      </trkpt>
      <trkpt lat="43.9824" lon="3.02019">
        <ele>796.7</ele>
        <time>2026-04-30T11:44:19.999Z</time>
      </trkpt>
      <trkpt lat="43.98241" lon="3.02018">
        <ele>796.7</ele>
        <time>2026-04-30T11:44:20.999Z</time>
      </trkpt>
      <trkpt lat="43.9824" lon="3.02016">
        <ele>796.8</ele>
        <time>2026-04-30T11:44:21.999Z</time>
      </trkpt>
      <trkpt lat="43.9824" lon="3.02015">
        <ele>796.8</ele>
        <time>2026-04-30T11:44:22.999Z</time>
      </trkpt>
      <trkpt lat="43.98239" lon="3.02014">
        <ele>796.5</ele>
        <time>2026-04-30T11:44:23.999Z</time>
      </trkpt>
      <trkpt lat="43.98239" lon="3.02012">
        <ele>796.1</ele>
        <time>2026-04-30T11:44:24.999Z</time>
      </trkpt>
      <trkpt lat="43.98239" lon="3.02011">
        <ele>795.8</ele>
        <time>2026-04-30T11:44:25.999Z</time>
      </trkpt>
      <trkpt lat="43.98239" lon="3.0201">
        <ele>795.6</ele>
        <time>2026-04-30T11:44:26.999Z</time>
      </trkpt>
      <trkpt lat="43.9824" lon="3.02009">
        <ele>795.4</ele>
        <time>2026-04-30T11:44:27.999Z</time>
      </trkpt>
      <trkpt lat="43.98239" lon="3.02007">
        <ele>794.9</ele>
        <time>2026-04-30T11:44:28.999Z</time>
      </trkpt>
      <trkpt lat="43.98239" lon="3.02005">
        <ele>794.4</ele>
        <time>2026-04-30T11:44:29.999Z</time>
      </trkpt>
      <trkpt lat="43.98239" lon="3.02003">
        <ele>794.4</ele>
        <time>2026-04-30T11:44:30.999Z</time>
      </trkpt>
      <trkpt lat="43.98239" lon="3.02002">
        <ele>794.3</ele>
        <time>2026-04-30T11:44:31.999Z</time>
      </trkpt>
      <trkpt lat="43.98239" lon="3.02">
        <ele>794.4</ele>
        <time>2026-04-30T11:44:32.999Z</time>
      </trkpt>
      <trkpt lat="43.98239" lon="3.01998">
        <ele>794.1</ele>
        <time>2026-04-30T11:44:33.999Z</time>
      </trkpt>
      <trkpt lat="43.98238" lon="3.01997">
        <ele>793.7</ele>
        <time>2026-04-30T11:44:34.999Z</time>
      </trkpt>
      <trkpt lat="43.98238" lon="3.01996">
        <ele>793.6</ele>
        <time>2026-04-30T11:44:35.999Z</time>
      </trkpt>
      <trkpt lat="43.98237" lon="3.01994">
        <ele>793.5</ele>
        <time>2026-04-30T11:44:36.999Z</time>
      </trkpt>
      <trkpt lat="43.98238" lon="3.01992">
        <ele>793.4</ele>
        <time>2026-04-30T11:44:37.999Z</time>
      </trkpt>
      <trkpt lat="43.98238" lon="3.0199">
        <ele>793.3</ele>
        <time>2026-04-30T11:44:38.999Z</time>
      </trkpt>
      <trkpt lat="43.98238" lon="3.01989">
        <ele>793.1</ele>
        <time>2026-04-30T11:44:39.999Z</time>
      </trkpt>
      <trkpt lat="43.98238" lon="3.01988">
        <ele>793</ele>
        <time>2026-04-30T11:44:40.999Z</time>
      </trkpt>
      <trkpt lat="43.98237" lon="3.01987">
        <ele>793.2</ele>
        <time>2026-04-30T11:44:41.999Z</time>
      </trkpt>
      <trkpt lat="43.98237" lon="3.01986">
        <ele>793.4</ele>
        <time>2026-04-30T11:44:42.999Z</time>
      </trkpt>
      <trkpt lat="43.98237" lon="3.01984">
        <ele>793.5</ele>
        <time>2026-04-30T11:44:43.999Z</time>
      </trkpt>
      <trkpt lat="43.98237" lon="3.01981">
        <ele>793.3</ele>
        <time>2026-04-30T11:44:44.999Z</time>
      </trkpt>
      <trkpt lat="43.98237" lon="3.01979">
        <ele>792.9</ele>
        <time>2026-04-30T11:44:45.999Z</time>
      </trkpt>
      <trkpt lat="43.98237" lon="3.01978">
        <ele>792.9</ele>
        <time>2026-04-30T11:44:46.999Z</time>
      </trkpt>
      <trkpt lat="43.98237" lon="3.01977">
        <ele>792.8</ele>
        <time>2026-04-30T11:44:47.999Z</time>
      </trkpt>
      <trkpt lat="43.98236" lon="3.01976">
        <ele>792.7</ele>
        <time>2026-04-30T11:44:48.999Z</time>
      </trkpt>
      <trkpt lat="43.98236" lon="3.01975">
        <ele>792.5</ele>
        <time>2026-04-30T11:44:49.999Z</time>
      </trkpt>
      <trkpt lat="43.98236" lon="3.01973">
        <ele>792.5</ele>
        <time>2026-04-30T11:44:50.999Z</time>
      </trkpt>
      <trkpt lat="43.98236" lon="3.01971">
        <ele>792.6</ele>
        <time>2026-04-30T11:44:51.999Z</time>
      </trkpt>
      <trkpt lat="43.98236" lon="3.0197">
        <ele>792.7</ele>
        <time>2026-04-30T11:44:52.999Z</time>
      </trkpt>
      <trkpt lat="43.98236" lon="3.01969">
        <ele>792.9</ele>
        <time>2026-04-30T11:44:53.999Z</time>
      </trkpt>
      <trkpt lat="43.98237" lon="3.01967">
        <ele>792.7</ele>
        <time>2026-04-30T11:44:54.999Z</time>
      </trkpt>
      <trkpt lat="43.98237" lon="3.01965">
        <ele>792.6</ele>
        <time>2026-04-30T11:44:55.999Z</time>
      </trkpt>
      <trkpt lat="43.98237" lon="3.01963">
        <ele>792.9</ele>
        <time>2026-04-30T11:44:56.999Z</time>
      </trkpt>
      <trkpt lat="43.98236" lon="3.01961">
        <ele>793.2</ele>
        <time>2026-04-30T11:44:57.999Z</time>
      </trkpt>
      <trkpt lat="43.98236" lon="3.01958">
        <ele>793.8</ele>
        <time>2026-04-30T11:44:58.999Z</time>
      </trkpt>
      <trkpt lat="43.98235" lon="3.01957">
        <ele>794.1</ele>
        <time>2026-04-30T11:44:59.999Z</time>
      </trkpt>
      <trkpt lat="43.98235" lon="3.01955">
        <ele>794.5</ele>
        <time>2026-04-30T11:45:00.999Z</time>
      </trkpt>
      <trkpt lat="43.98235" lon="3.01954">
        <ele>794.8</ele>
        <time>2026-04-30T11:45:01.999Z</time>
      </trkpt>
      <trkpt lat="43.98235" lon="3.01953">
        <ele>794.7</ele>
        <time>2026-04-30T11:45:02.999Z</time>
      </trkpt>
      <trkpt lat="43.98235" lon="3.01951">
        <ele>794.2</ele>
        <time>2026-04-30T11:45:03.999Z</time>
      </trkpt>
      <trkpt lat="43.98234" lon="3.01949">
        <ele>794.1</ele>
        <time>2026-04-30T11:45:04.999Z</time>
      </trkpt>
      <trkpt lat="43.98234" lon="3.01947">
        <ele>794.3</ele>
        <time>2026-04-30T11:45:05.999Z</time>
      </trkpt>
      <trkpt lat="43.98234" lon="3.01946">
        <ele>794.4</ele>
        <time>2026-04-30T11:45:06.999Z</time>
      </trkpt>
      <trkpt lat="43.98233" lon="3.01945">
        <ele>794.6</ele>
        <time>2026-04-30T11:45:07.999Z</time>
      </trkpt>
      <trkpt lat="43.98233" lon="3.01944">
        <ele>794.5</ele>
        <time>2026-04-30T11:45:08.999Z</time>
      </trkpt>
      <trkpt lat="43.98233" lon="3.01942">
        <ele>794.6</ele>
        <time>2026-04-30T11:45:09.999Z</time>
      </trkpt>
      <trkpt lat="43.98234" lon="3.01941">
        <ele>794.5</ele>
        <time>2026-04-30T11:45:10.999Z</time>
      </trkpt>
      <trkpt lat="43.98234" lon="3.0194">
        <ele>794.6</ele>
        <time>2026-04-30T11:45:11.999Z</time>
      </trkpt>
      <trkpt lat="43.98234" lon="3.01939">
        <ele>794.5</ele>
        <time>2026-04-30T11:45:12.999Z</time>
      </trkpt>
      <trkpt lat="43.98235" lon="3.01938">
        <ele>794.3</ele>
        <time>2026-04-30T11:45:13.999Z</time>
      </trkpt>
      <trkpt lat="43.98235" lon="3.01937">
        <ele>794.2</ele>
        <time>2026-04-30T11:45:14.999Z</time>
      </trkpt>
      <trkpt lat="43.98235" lon="3.01935">
        <ele>794.2</ele>
        <time>2026-04-30T11:45:15.999Z</time>
      </trkpt>
      <trkpt lat="43.98235" lon="3.01934">
        <ele>794</ele>
        <time>2026-04-30T11:45:16.999Z</time>
      </trkpt>
      <trkpt lat="43.98235" lon="3.01933">
        <ele>794</ele>
        <time>2026-04-30T11:45:17.999Z</time>
      </trkpt>
      <trkpt lat="43.98235" lon="3.01932">
        <ele>794.1</ele>
        <time>2026-04-30T11:45:18.999Z</time>
      </trkpt>
      <trkpt lat="43.98236" lon="3.01931">
        <ele>794.2</ele>
        <time>2026-04-30T11:45:19.999Z</time>
      </trkpt>
      <trkpt lat="43.98236" lon="3.01931">
        <ele>794.5</ele>
        <time>2026-04-30T11:45:20.999Z</time>
      </trkpt>
      <trkpt lat="43.98236" lon="3.01929">
        <ele>794.5</ele>
        <time>2026-04-30T11:45:21.999Z</time>
      </trkpt>
      <trkpt lat="43.98236" lon="3.01928">
        <ele>794.6</ele>
        <time>2026-04-30T11:45:22.999Z</time>
      </trkpt>
      <trkpt lat="43.98236" lon="3.01927">
        <ele>794.7</ele>
        <time>2026-04-30T11:45:23.999Z</time>
      </trkpt>
      <trkpt lat="43.98237" lon="3.01926">
        <ele>795</ele>
        <time>2026-04-30T11:45:24.999Z</time>
      </trkpt>
      <trkpt lat="43.98237" lon="3.01925">
        <ele>794.9</ele>
        <time>2026-04-30T11:45:25.999Z</time>
      </trkpt>
      <trkpt lat="43.98237" lon="3.01923">
        <ele>794.7</ele>
        <time>2026-04-30T11:45:26.999Z</time>
      </trkpt>
      <trkpt lat="43.98234" lon="3.01924">
        <ele>793.7</ele>
        <time>2026-04-30T11:45:27.999Z</time>
      </trkpt>
      <trkpt lat="43.98234" lon="3.01923">
        <ele>793.6</ele>
        <time>2026-04-30T11:45:28.999Z</time>
      </trkpt>
      <trkpt lat="43.98233" lon="3.01924">
        <ele>794.1</ele>
        <time>2026-04-30T11:45:29.999Z</time>
      </trkpt>
      <trkpt lat="43.98233" lon="3.01924">
        <ele>794.2</ele>
        <time>2026-04-30T11:45:30.999Z</time>
      </trkpt>
      <trkpt lat="43.98233" lon="3.01924">
        <ele>794.8</ele>
        <time>2026-04-30T11:45:31.999Z</time>
      </trkpt>
      <trkpt lat="43.98233" lon="3.01924">
        <ele>795.2</ele>
        <time>2026-04-30T11:45:32.999Z</time>
      </trkpt>
      <trkpt lat="43.98233" lon="3.01924">
        <ele>795.2</ele>
        <time>2026-04-30T11:45:33.999Z</time>
      </trkpt>
      <trkpt lat="43.98232" lon="3.01925">
        <ele>795.1</ele>
        <time>2026-04-30T11:45:34.999Z</time>
      </trkpt>
      <trkpt lat="43.98232" lon="3.01925">
        <ele>795.1</ele>
        <time>2026-04-30T11:45:35.999Z</time>
      </trkpt>
      <trkpt lat="43.98232" lon="3.01926">
        <ele>795</ele>
        <time>2026-04-30T11:45:36.999Z</time>
      </trkpt>
      <trkpt lat="43.98232" lon="3.01927">
        <ele>795</ele>
        <time>2026-04-30T11:45:37.999Z</time>
      </trkpt>
      <trkpt lat="43.98232" lon="3.01927">
        <ele>795.4</ele>
        <time>2026-04-30T11:45:38.999Z</time>
      </trkpt>
      <trkpt lat="43.98232" lon="3.01928">
        <ele>795.6</ele>
        <time>2026-04-30T11:45:39.999Z</time>
      </trkpt>
      <trkpt lat="43.98232" lon="3.01928">
        <ele>795.6</ele>
        <time>2026-04-30T11:45:40.999Z</time>
      </trkpt>
      <trkpt lat="43.98232" lon="3.01929">
        <ele>795.6</ele>
        <time>2026-04-30T11:45:41.999Z</time>
      </trkpt>
      <trkpt lat="43.98232" lon="3.01929">
        <ele>795.7</ele>
        <time>2026-04-30T11:45:42.999Z</time>
      </trkpt>
      <trkpt lat="43.98232" lon="3.01929">
        <ele>795.9</ele>
        <time>2026-04-30T11:45:43.999Z</time>
      </trkpt>
      <trkpt lat="43.98233" lon="3.01929">
        <ele>796.1</ele>
        <time>2026-04-30T11:45:44.999Z</time>
      </trkpt>
      <trkpt lat="43.98233" lon="3.0193">
        <ele>796.5</ele>
        <time>2026-04-30T11:45:45.999Z</time>
      </trkpt>
      <trkpt lat="43.98233" lon="3.0193">
        <ele>796.7</ele>
        <time>2026-04-30T11:45:46.999Z</time>
      </trkpt>
      <trkpt lat="43.98233" lon="3.0193">
        <ele>796.8</ele>
        <time>2026-04-30T11:45:47.999Z</time>
      </trkpt>
      <trkpt lat="43.98233" lon="3.0193">
        <ele>796.8</ele>
        <time>2026-04-30T11:45:48.999Z</time>
      </trkpt>
      <trkpt lat="43.98233" lon="3.0193">
        <ele>796.7</ele>
        <time>2026-04-30T11:45:49.999Z</time>
      </trkpt>
      <trkpt lat="43.98233" lon="3.0193">
        <ele>796.7</ele>
        <time>2026-04-30T11:45:50.999Z</time>
      </trkpt>
      <trkpt lat="43.98233" lon="3.0193">
        <ele>796.7</ele>
        <time>2026-04-30T11:45:51.999Z</time>
      </trkpt>
      <trkpt lat="43.98233" lon="3.0193">
        <ele>796.7</ele>
        <time>2026-04-30T11:45:52.999Z</time>
      </trkpt>
      <trkpt lat="43.98233" lon="3.01931">
        <ele>797.1</ele>
        <time>2026-04-30T11:45:53.999Z</time>
      </trkpt>
      <trkpt lat="43.98234" lon="3.01933">
        <ele>797.3</ele>
        <time>2026-04-30T11:45:54.999Z</time>
      </trkpt>
      <trkpt lat="43.98235" lon="3.01935">
        <ele>797.4</ele>
        <time>2026-04-30T11:45:55.999Z</time>
      </trkpt>
      <trkpt lat="43.98235" lon="3.01936">
        <ele>797.4</ele>
        <time>2026-04-30T11:45:56.999Z</time>
      </trkpt>
      <trkpt lat="43.98236" lon="3.01937">
        <ele>797.2</ele>
        <time>2026-04-30T11:45:57.999Z</time>
      </trkpt>
      <trkpt lat="43.98236" lon="3.01937">
        <ele>797</ele>
        <time>2026-04-30T11:45:58.999Z</time>
      </trkpt>
      <trkpt lat="43.98236" lon="3.01938">
        <ele>796.8</ele>
        <time>2026-04-30T11:45:59.999Z</time>
      </trkpt>
      <trkpt lat="43.98235" lon="3.01938">
        <ele>796.9</ele>
        <time>2026-04-30T11:46:00.999Z</time>
      </trkpt>
      <trkpt lat="43.98235" lon="3.01938">
        <ele>796.4</ele>
        <time>2026-04-30T11:46:01.999Z</time>
      </trkpt>
      <trkpt lat="43.98235" lon="3.01938">
        <ele>796.2</ele>
        <time>2026-04-30T11:46:02.999Z</time>
      </trkpt>
      <trkpt lat="43.98235" lon="3.01938">
        <ele>796.2</ele>
        <time>2026-04-30T11:46:03.999Z</time>
      </trkpt>
      <trkpt lat="43.98235" lon="3.01938">
        <ele>796.3</ele>
        <time>2026-04-30T11:46:04.999Z</time>
      </trkpt>
      <trkpt lat="43.98235" lon="3.01938">
        <ele>796.2</ele>
        <time>2026-04-30T11:46:05.999Z</time>
      </trkpt>
      <trkpt lat="43.98235" lon="3.01938">
        <ele>796.4</ele>
        <time>2026-04-30T11:46:06.999Z</time>
      </trkpt>
      <trkpt lat="43.98235" lon="3.01938">
        <ele>796.7</ele>
        <time>2026-04-30T11:46:07.999Z</time>
      </trkpt>
      <trkpt lat="43.98235" lon="3.01938">
        <ele>796.9</ele>
        <time>2026-04-30T11:46:08.999Z</time>
      </trkpt>
      <trkpt lat="43.98235" lon="3.01938">
        <ele>797.3</ele>
        <time>2026-04-30T11:46:09.999Z</time>
      </trkpt>
      <trkpt lat="43.98235" lon="3.01938">
        <ele>797.8</ele>
        <time>2026-04-30T11:46:10.999Z</time>
      </trkpt>
      <trkpt lat="43.98235" lon="3.01938">
        <ele>798.1</ele>
        <time>2026-04-30T11:46:11.999Z</time>
      </trkpt>
      <trkpt lat="43.98235" lon="3.01938">
        <ele>798.3</ele>
        <time>2026-04-30T11:46:12.999Z</time>
      </trkpt>
      <trkpt lat="43.98235" lon="3.01938">
        <ele>798.6</ele>
        <time>2026-04-30T11:46:13.999Z</time>
      </trkpt>
      <trkpt lat="43.98235" lon="3.01938">
        <ele>798.6</ele>
        <time>2026-04-30T11:46:14.999Z</time>
      </trkpt>
      <trkpt lat="43.98236" lon="3.01938">
        <ele>798.6</ele>
        <time>2026-04-30T11:46:15.999Z</time>
      </trkpt>
      <trkpt lat="43.98236" lon="3.01938">
        <ele>798.7</ele>
        <time>2026-04-30T11:46:16.999Z</time>
      </trkpt>
      <trkpt lat="43.98236" lon="3.01938">
        <ele>798.6</ele>
        <time>2026-04-30T11:46:17.999Z</time>
      </trkpt>
      <trkpt lat="43.98235" lon="3.01938">
        <ele>798.5</ele>
        <time>2026-04-30T11:46:18.999Z</time>
      </trkpt>
      <trkpt lat="43.98235" lon="3.01938">
        <ele>798.3</ele>
        <time>2026-04-30T11:46:19.999Z</time>
      </trkpt>
      <trkpt lat="43.98235" lon="3.01938">
        <ele>798.2</ele>
        <time>2026-04-30T11:46:20.999Z</time>
      </trkpt>
      <trkpt lat="43.98235" lon="3.01938">
        <ele>798</ele>
        <time>2026-04-30T11:46:21.999Z</time>
      </trkpt>
      <trkpt lat="43.98235" lon="3.01937">
        <ele>797.8</ele>
        <time>2026-04-30T11:46:22.999Z</time>
      </trkpt>
      <trkpt lat="43.98235" lon="3.01938">
        <ele>797.7</ele>
        <time>2026-04-30T11:46:23.999Z</time>
      </trkpt>
      <trkpt lat="43.98235" lon="3.01938">
        <ele>797.5</ele>
        <time>2026-04-30T11:46:24.999Z</time>
      </trkpt>
      <trkpt lat="43.98235" lon="3.01938">
        <ele>797.2</ele>
        <time>2026-04-30T11:46:25.999Z</time>
      </trkpt>
      <trkpt lat="43.98235" lon="3.01937">
        <ele>797.1</ele>
        <time>2026-04-30T11:46:26.999Z</time>
      </trkpt>
      <trkpt lat="43.98235" lon="3.01937">
        <ele>796.9</ele>
        <time>2026-04-30T11:46:27.999Z</time>
      </trkpt>
      <trkpt lat="43.98234" lon="3.01936">
        <ele>796.7</ele>
        <time>2026-04-30T11:46:28.999Z</time>
      </trkpt>
      <trkpt lat="43.98234" lon="3.01935">
        <ele>796.5</ele>
        <time>2026-04-30T11:46:29.999Z</time>
      </trkpt>
      <trkpt lat="43.98235" lon="3.01934">
        <ele>796.4</ele>
        <time>2026-04-30T11:46:30.999Z</time>
      </trkpt>
      <trkpt lat="43.98235" lon="3.01935">
        <ele>796.4</ele>
        <time>2026-04-30T11:46:31.999Z</time>
      </trkpt>
      <trkpt lat="43.98235" lon="3.01935">
        <ele>796.3</ele>
        <time>2026-04-30T11:46:32.999Z</time>
      </trkpt>
      <trkpt lat="43.98235" lon="3.01935">
        <ele>796.3</ele>
        <time>2026-04-30T11:46:33.999Z</time>
      </trkpt>
      <trkpt lat="43.98235" lon="3.01935">
        <ele>796.3</ele>
        <time>2026-04-30T11:46:34.999Z</time>
      </trkpt>
      <trkpt lat="43.98235" lon="3.01935">
        <ele>796.2</ele>
        <time>2026-04-30T11:46:35.999Z</time>
      </trkpt>
      <trkpt lat="43.98235" lon="3.01935">
        <ele>796.2</ele>
        <time>2026-04-30T11:46:36.999Z</time>
      </trkpt>
      <trkpt lat="43.98235" lon="3.01934">
        <ele>796.2</ele>
        <time>2026-04-30T11:46:37.999Z</time>
      </trkpt>
      <trkpt lat="43.98235" lon="3.01934">
        <ele>796</ele>
        <time>2026-04-30T11:46:38.999Z</time>
      </trkpt>
      <trkpt lat="43.98235" lon="3.01934">
        <ele>795.7</ele>
        <time>2026-04-30T11:46:39.999Z</time>
      </trkpt>
      <trkpt lat="43.98235" lon="3.01934">
        <ele>795.7</ele>
        <time>2026-04-30T11:46:40.999Z</time>
      </trkpt>
      <trkpt lat="43.98235" lon="3.01935">
        <ele>795.5</ele>
        <time>2026-04-30T11:46:41.999Z</time>
      </trkpt>
      <trkpt lat="43.98235" lon="3.01935">
        <ele>795.3</ele>
        <time>2026-04-30T11:46:42.999Z</time>
      </trkpt>
      <trkpt lat="43.98235" lon="3.01934">
        <ele>795.3</ele>
        <time>2026-04-30T11:46:43.999Z</time>
      </trkpt>
      <trkpt lat="43.98235" lon="3.01934">
        <ele>795.2</ele>
        <time>2026-04-30T11:46:44.999Z</time>
      </trkpt>
      <trkpt lat="43.98235" lon="3.01934">
        <ele>795</ele>
        <time>2026-04-30T11:46:45.999Z</time>
      </trkpt>
      <trkpt lat="43.98235" lon="3.01934">
        <ele>794.8</ele>
        <time>2026-04-30T11:46:46.999Z</time>
      </trkpt>
      <trkpt lat="43.98235" lon="3.01934">
        <ele>794.7</ele>
        <time>2026-04-30T11:46:47.999Z</time>
      </trkpt>
      <trkpt lat="43.98235" lon="3.01934">
        <ele>794.7</ele>
        <time>2026-04-30T11:46:48.999Z</time>
      </trkpt>
      <trkpt lat="43.98235" lon="3.01934">
        <ele>794.6</ele>
        <time>2026-04-30T11:46:49.999Z</time>
      </trkpt>
      <trkpt lat="43.98235" lon="3.01934">
        <ele>794.5</ele>
        <time>2026-04-30T11:46:50.999Z</time>
      </trkpt>
      <trkpt lat="43.98235" lon="3.01934">
        <ele>794.5</ele>
        <time>2026-04-30T11:46:51.999Z</time>
      </trkpt>
      <trkpt lat="43.98235" lon="3.01934">
        <ele>794.6</ele>
        <time>2026-04-30T11:46:52.999Z</time>
      </trkpt>
      <trkpt lat="43.98235" lon="3.01934">
        <ele>794.7</ele>
        <time>2026-04-30T11:46:53.999Z</time>
      </trkpt>
      <trkpt lat="43.98235" lon="3.01934">
        <ele>794.8</ele>
        <time>2026-04-30T11:46:54.999Z</time>
      </trkpt>
      <trkpt lat="43.98235" lon="3.01934">
        <ele>794.7</ele>
        <time>2026-04-30T11:46:55.999Z</time>
      </trkpt>
      <trkpt lat="43.98234" lon="3.01934">
        <ele>794.7</ele>
        <time>2026-04-30T11:46:56.999Z</time>
      </trkpt>
      <trkpt lat="43.98234" lon="3.01934">
        <ele>794.6</ele>
        <time>2026-04-30T11:46:57.999Z</time>
      </trkpt>
      <trkpt lat="43.98234" lon="3.01934">
        <ele>794.5</ele>
        <time>2026-04-30T11:46:58.999Z</time>
      </trkpt>
      <trkpt lat="43.98234" lon="3.01934">
        <ele>794.4</ele>
        <time>2026-04-30T11:46:59.999Z</time>
      </trkpt>
      <trkpt lat="43.98234" lon="3.01934">
        <ele>794.3</ele>
        <time>2026-04-30T11:47:00.999Z</time>
      </trkpt>
      <trkpt lat="43.98233" lon="3.01933">
        <ele>794.4</ele>
        <time>2026-04-30T11:47:01.999Z</time>
      </trkpt>
      <trkpt lat="43.98233" lon="3.01933">
        <ele>794.5</ele>
        <time>2026-04-30T11:47:02.999Z</time>
      </trkpt>
      <trkpt lat="43.98233" lon="3.01932">
        <ele>794.7</ele>
        <time>2026-04-30T11:47:03.999Z</time>
      </trkpt>
      <trkpt lat="43.98233" lon="3.01932">
        <ele>794.8</ele>
        <time>2026-04-30T11:47:04.999Z</time>
      </trkpt>
      <trkpt lat="43.98233" lon="3.01932">
        <ele>794.9</ele>
        <time>2026-04-30T11:47:05.999Z</time>
      </trkpt>
      <trkpt lat="43.98232" lon="3.01932">
        <ele>795.3</ele>
        <time>2026-04-30T11:47:06.999Z</time>
      </trkpt>
      <trkpt lat="43.98232" lon="3.01932">
        <ele>795.6</ele>
        <time>2026-04-30T11:47:07.999Z</time>
      </trkpt>
      <trkpt lat="43.98232" lon="3.01932">
        <ele>795.8</ele>
        <time>2026-04-30T11:47:08.999Z</time>
      </trkpt>
      <trkpt lat="43.98232" lon="3.01932">
        <ele>795.8</ele>
        <time>2026-04-30T11:47:09.999Z</time>
      </trkpt>
      <trkpt lat="43.98232" lon="3.01932">
        <ele>796</ele>
        <time>2026-04-30T11:47:10.999Z</time>
      </trkpt>
      <trkpt lat="43.98232" lon="3.01932">
        <ele>796.1</ele>
        <time>2026-04-30T11:47:11.999Z</time>
      </trkpt>
      <trkpt lat="43.98232" lon="3.01932">
        <ele>796.1</ele>
        <time>2026-04-30T11:47:12.999Z</time>
      </trkpt>
      <trkpt lat="43.98232" lon="3.01931">
        <ele>796</ele>
        <time>2026-04-30T11:47:13.999Z</time>
      </trkpt>
      <trkpt lat="43.98232" lon="3.01931">
        <ele>795.7</ele>
        <time>2026-04-30T11:47:14.999Z</time>
      </trkpt>
      <trkpt lat="43.98232" lon="3.01931">
        <ele>795.3</ele>
        <time>2026-04-30T11:47:15.999Z</time>
      </trkpt>
      <trkpt lat="43.98232" lon="3.01931">
        <ele>795.1</ele>
        <time>2026-04-30T11:47:16.999Z</time>
      </trkpt>
      <trkpt lat="43.98233" lon="3.01931">
        <ele>795.1</ele>
        <time>2026-04-30T11:47:17.999Z</time>
      </trkpt>
      <trkpt lat="43.98233" lon="3.01931">
        <ele>795.1</ele>
        <time>2026-04-30T11:47:18.999Z</time>
      </trkpt>
      <trkpt lat="43.98234" lon="3.01931">
        <ele>794.9</ele>
        <time>2026-04-30T11:47:19.999Z</time>
      </trkpt>
      <trkpt lat="43.98235" lon="3.01931">
        <ele>795.1</ele>
        <time>2026-04-30T11:47:20.999Z</time>
      </trkpt>
      <trkpt lat="43.98236" lon="3.01932">
        <ele>795</ele>
        <time>2026-04-30T11:47:21.999Z</time>
      </trkpt>
      <trkpt lat="43.98237" lon="3.01932">
        <ele>795.2</ele>
        <time>2026-04-30T11:47:22.999Z</time>
      </trkpt>
      <trkpt lat="43.98237" lon="3.01932">
        <ele>795.3</ele>
        <time>2026-04-30T11:47:23.999Z</time>
      </trkpt>
      <trkpt lat="43.98238" lon="3.01932">
        <ele>795.2</ele>
        <time>2026-04-30T11:47:24.999Z</time>
      </trkpt>
      <trkpt lat="43.98238" lon="3.01933">
        <ele>795.1</ele>
        <time>2026-04-30T11:47:25.999Z</time>
      </trkpt>
      <trkpt lat="43.98238" lon="3.01933">
        <ele>794.9</ele>
        <time>2026-04-30T11:47:26.999Z</time>
      </trkpt>
      <trkpt lat="43.98238" lon="3.01933">
        <ele>794.6</ele>
        <time>2026-04-30T11:47:27.999Z</time>
      </trkpt>
      <trkpt lat="43.98238" lon="3.01933">
        <ele>794.5</ele>
        <time>2026-04-30T11:47:28.999Z</time>
      </trkpt>
      <trkpt lat="43.98238" lon="3.01933">
        <ele>794.4</ele>
        <time>2026-04-30T11:47:29.999Z</time>
      </trkpt>
      <trkpt lat="43.98238" lon="3.01933">
        <ele>794.3</ele>
        <time>2026-04-30T11:47:30.999Z</time>
      </trkpt>
      <trkpt lat="43.98238" lon="3.01933">
        <ele>794</ele>
        <time>2026-04-30T11:47:31.999Z</time>
      </trkpt>
      <trkpt lat="43.98238" lon="3.01933">
        <ele>793.7</ele>
        <time>2026-04-30T11:47:32.999Z</time>
      </trkpt>
      <trkpt lat="43.98238" lon="3.01933">
        <ele>793.6</ele>
        <time>2026-04-30T11:47:33.999Z</time>
      </trkpt>
      <trkpt lat="43.98238" lon="3.01933">
        <ele>793.4</ele>
        <time>2026-04-30T11:47:34.999Z</time>
      </trkpt>
      <trkpt lat="43.98238" lon="3.01933">
        <ele>793.3</ele>
        <time>2026-04-30T11:47:35.999Z</time>
      </trkpt>
      <trkpt lat="43.98238" lon="3.01933">
        <ele>793.1</ele>
        <time>2026-04-30T11:47:36.999Z</time>
      </trkpt>
      <trkpt lat="43.98238" lon="3.01933">
        <ele>793.2</ele>
        <time>2026-04-30T11:47:37.999Z</time>
      </trkpt>
      <trkpt lat="43.98237" lon="3.01932">
        <ele>793.1</ele>
        <time>2026-04-30T11:47:38.999Z</time>
      </trkpt>
      <trkpt lat="43.98237" lon="3.01932">
        <ele>793.1</ele>
        <time>2026-04-30T11:47:39.999Z</time>
      </trkpt>
      <trkpt lat="43.98237" lon="3.01931">
        <ele>793.1</ele>
        <time>2026-04-30T11:47:40.999Z</time>
      </trkpt>
      <trkpt lat="43.98237" lon="3.01931">
        <ele>792.9</ele>
        <time>2026-04-30T11:47:41.999Z</time>
      </trkpt>
      <trkpt lat="43.98237" lon="3.01931">
        <ele>792.7</ele>
        <time>2026-04-30T11:47:42.999Z</time>
      </trkpt>
      <trkpt lat="43.98237" lon="3.01931">
        <ele>792.7</ele>
        <time>2026-04-30T11:47:43.999Z</time>
      </trkpt>
      <trkpt lat="43.98237" lon="3.01931">
        <ele>792.8</ele>
        <time>2026-04-30T11:47:44.999Z</time>
      </trkpt>
      <trkpt lat="43.98236" lon="3.0193">
        <ele>792.8</ele>
        <time>2026-04-30T11:47:45.999Z</time>
      </trkpt>
      <trkpt lat="43.98236" lon="3.01929">
        <ele>792.9</ele>
        <time>2026-04-30T11:47:46.999Z</time>
      </trkpt>
      <trkpt lat="43.98237" lon="3.01927">
        <ele>793.2</ele>
        <time>2026-04-30T11:47:47.999Z</time>
      </trkpt>
      <trkpt lat="43.98237" lon="3.01925">
        <ele>793.2</ele>
        <time>2026-04-30T11:47:48.999Z</time>
      </trkpt>
      <trkpt lat="43.98237" lon="3.01924">
        <ele>793</ele>
        <time>2026-04-30T11:47:49.999Z</time>
      </trkpt>
      <trkpt lat="43.98237" lon="3.01924">
        <ele>793.2</ele>
        <time>2026-04-30T11:47:50.999Z</time>
      </trkpt>
      <trkpt lat="43.98237" lon="3.01923">
        <ele>793</ele>
        <time>2026-04-30T11:47:51.999Z</time>
      </trkpt>
      <trkpt lat="43.98237" lon="3.01923">
        <ele>792.9</ele>
        <time>2026-04-30T11:47:52.999Z</time>
      </trkpt>
      <trkpt lat="43.98237" lon="3.01922">
        <ele>792.8</ele>
        <time>2026-04-30T11:47:53.999Z</time>
      </trkpt>
      <trkpt lat="43.98237" lon="3.01922">
        <ele>792.8</ele>
        <time>2026-04-30T11:47:54.999Z</time>
      </trkpt>
      <trkpt lat="43.98237" lon="3.01922">
        <ele>792.6</ele>
        <time>2026-04-30T11:47:55.999Z</time>
      </trkpt>
      <trkpt lat="43.98236" lon="3.01919">
        <ele>792.5</ele>
        <time>2026-04-30T11:47:56.999Z</time>
      </trkpt>
      <trkpt lat="43.98237" lon="3.01916">
        <ele>792.5</ele>
        <time>2026-04-30T11:47:57.999Z</time>
      </trkpt>
      <trkpt lat="43.98237" lon="3.01914">
        <ele>792.3</ele>
        <time>2026-04-30T11:47:58.999Z</time>
      </trkpt>
      <trkpt lat="43.98236" lon="3.01912">
        <ele>792.4</ele>
        <time>2026-04-30T11:47:59.999Z</time>
      </trkpt>
      <trkpt lat="43.98236" lon="3.01911">
        <ele>792.7</ele>
        <time>2026-04-30T11:48:00.999Z</time>
      </trkpt>
      <trkpt lat="43.98236" lon="3.0191">
        <ele>792.8</ele>
        <time>2026-04-30T11:48:01.999Z</time>
      </trkpt>
      <trkpt lat="43.98236" lon="3.01909">
        <ele>792.8</ele>
        <time>2026-04-30T11:48:02.999Z</time>
      </trkpt>
      <trkpt lat="43.98236" lon="3.01907">
        <ele>792.7</ele>
        <time>2026-04-30T11:48:03.999Z</time>
      </trkpt>
      <trkpt lat="43.98236" lon="3.01905">
        <ele>792.9</ele>
        <time>2026-04-30T11:48:04.999Z</time>
      </trkpt>
      <trkpt lat="43.98236" lon="3.01904">
        <ele>793.1</ele>
        <time>2026-04-30T11:48:05.999Z</time>
      </trkpt>
      <trkpt lat="43.98235" lon="3.01901">
        <ele>793.3</ele>
        <time>2026-04-30T11:48:06.999Z</time>
      </trkpt>
      <trkpt lat="43.98235" lon="3.01899">
        <ele>793.7</ele>
        <time>2026-04-30T11:48:07.999Z</time>
      </trkpt>
      <trkpt lat="43.98236" lon="3.01898">
        <ele>793.6</ele>
        <time>2026-04-30T11:48:08.999Z</time>
      </trkpt>
      <trkpt lat="43.98236" lon="3.01896">
        <ele>794</ele>
        <time>2026-04-30T11:48:09.999Z</time>
      </trkpt>
      <trkpt lat="43.98236" lon="3.01893">
        <ele>794.1</ele>
        <time>2026-04-30T11:48:10.999Z</time>
      </trkpt>
      <trkpt lat="43.98236" lon="3.01892">
        <ele>794.1</ele>
        <time>2026-04-30T11:48:11.999Z</time>
      </trkpt>
      <trkpt lat="43.98237" lon="3.01891">
        <ele>794.1</ele>
        <time>2026-04-30T11:48:12.999Z</time>
      </trkpt>
      <trkpt lat="43.98237" lon="3.01889">
        <ele>794</ele>
        <time>2026-04-30T11:48:13.999Z</time>
      </trkpt>
      <trkpt lat="43.98238" lon="3.01887">
        <ele>794.1</ele>
        <time>2026-04-30T11:48:14.999Z</time>
      </trkpt>
      <trkpt lat="43.98239" lon="3.01885">
        <ele>794.3</ele>
        <time>2026-04-30T11:48:15.999Z</time>
      </trkpt>
      <trkpt lat="43.9824" lon="3.01884">
        <ele>794.7</ele>
        <time>2026-04-30T11:48:16.999Z</time>
      </trkpt>
      <trkpt lat="43.9824" lon="3.01883">
        <ele>795.1</ele>
        <time>2026-04-30T11:48:17.999Z</time>
      </trkpt>
      <trkpt lat="43.9824" lon="3.01882">
        <ele>795.1</ele>
        <time>2026-04-30T11:48:18.999Z</time>
      </trkpt>
      <trkpt lat="43.98241" lon="3.0188">
        <ele>795.1</ele>
        <time>2026-04-30T11:48:19.999Z</time>
      </trkpt>
      <trkpt lat="43.98242" lon="3.01878">
        <ele>795.3</ele>
        <time>2026-04-30T11:48:20.999Z</time>
      </trkpt>
      <trkpt lat="43.98242" lon="3.01876">
        <ele>795.7</ele>
        <time>2026-04-30T11:48:21.999Z</time>
      </trkpt>
      <trkpt lat="43.98243" lon="3.01874">
        <ele>795.8</ele>
        <time>2026-04-30T11:48:22.999Z</time>
      </trkpt>
      <trkpt lat="43.98243" lon="3.01872">
        <ele>795.9</ele>
        <time>2026-04-30T11:48:23.999Z</time>
      </trkpt>
      <trkpt lat="43.98244" lon="3.01871">
        <ele>795.8</ele>
        <time>2026-04-30T11:48:24.999Z</time>
      </trkpt>
      <trkpt lat="43.98244" lon="3.0187">
        <ele>795.8</ele>
        <time>2026-04-30T11:48:25.999Z</time>
      </trkpt>
      <trkpt lat="43.98245" lon="3.01869">
        <ele>795.4</ele>
        <time>2026-04-30T11:48:26.999Z</time>
      </trkpt>
      <trkpt lat="43.98246" lon="3.01868">
        <ele>795.1</ele>
        <time>2026-04-30T11:48:27.999Z</time>
      </trkpt>
      <trkpt lat="43.98246" lon="3.01868">
        <ele>794.7</ele>
        <time>2026-04-30T11:48:28.999Z</time>
      </trkpt>
      <trkpt lat="43.98247" lon="3.01867">
        <ele>794.4</ele>
        <time>2026-04-30T11:48:29.999Z</time>
      </trkpt>
      <trkpt lat="43.98247" lon="3.01865">
        <ele>794.1</ele>
        <time>2026-04-30T11:48:30.999Z</time>
      </trkpt>
      <trkpt lat="43.98248" lon="3.01863">
        <ele>794.5</ele>
        <time>2026-04-30T11:48:31.999Z</time>
      </trkpt>
      <trkpt lat="43.98249" lon="3.01861">
        <ele>794.9</ele>
        <time>2026-04-30T11:48:32.999Z</time>
      </trkpt>
      <trkpt lat="43.98249" lon="3.01859">
        <ele>795</ele>
        <time>2026-04-30T11:48:33.999Z</time>
      </trkpt>
      <trkpt lat="43.9825" lon="3.01858">
        <ele>795</ele>
        <time>2026-04-30T11:48:34.999Z</time>
      </trkpt>
      <trkpt lat="43.98251" lon="3.01857">
        <ele>795.5</ele>
        <time>2026-04-30T11:48:35.999Z</time>
      </trkpt>
      <trkpt lat="43.98252" lon="3.01856">
        <ele>795.7</ele>
        <time>2026-04-30T11:48:36.999Z</time>
      </trkpt>
      <trkpt lat="43.98252" lon="3.01855">
        <ele>796.3</ele>
        <time>2026-04-30T11:48:37.999Z</time>
      </trkpt>
      <trkpt lat="43.98253" lon="3.01855">
        <ele>796.4</ele>
        <time>2026-04-30T11:48:38.999Z</time>
      </trkpt>
      <trkpt lat="43.98254" lon="3.01854">
        <ele>796.3</ele>
        <time>2026-04-30T11:48:39.999Z</time>
      </trkpt>
      <trkpt lat="43.98255" lon="3.01853">
        <ele>797.1</ele>
        <time>2026-04-30T11:48:40.999Z</time>
      </trkpt>
      <trkpt lat="43.98256" lon="3.01851">
        <ele>797.6</ele>
        <time>2026-04-30T11:48:41.999Z</time>
      </trkpt>
      <trkpt lat="43.98257" lon="3.0185">
        <ele>798.2</ele>
        <time>2026-04-30T11:48:42.999Z</time>
      </trkpt>
      <trkpt lat="43.98258" lon="3.01848">
        <ele>798.6</ele>
        <time>2026-04-30T11:48:43.999Z</time>
      </trkpt>
      <trkpt lat="43.98258" lon="3.01847">
        <ele>798.5</ele>
        <time>2026-04-30T11:48:44.999Z</time>
      </trkpt>
      <trkpt lat="43.98259" lon="3.01846">
        <ele>798.6</ele>
        <time>2026-04-30T11:48:45.999Z</time>
      </trkpt>
      <trkpt lat="43.98259" lon="3.01844">
        <ele>798.6</ele>
        <time>2026-04-30T11:48:46.999Z</time>
      </trkpt>
      <trkpt lat="43.9826" lon="3.01843">
        <ele>798.7</ele>
        <time>2026-04-30T11:48:47.999Z</time>
      </trkpt>
      <trkpt lat="43.9826" lon="3.01842">
        <ele>798.8</ele>
        <time>2026-04-30T11:48:48.999Z</time>
      </trkpt>
      <trkpt lat="43.9826" lon="3.0184">
        <ele>798.8</ele>
        <time>2026-04-30T11:48:49.999Z</time>
      </trkpt>
      <trkpt lat="43.9826" lon="3.01838">
        <ele>798.6</ele>
        <time>2026-04-30T11:48:50.999Z</time>
      </trkpt>
      <trkpt lat="43.9826" lon="3.01837">
        <ele>798.4</ele>
        <time>2026-04-30T11:48:51.999Z</time>
      </trkpt>
      <trkpt lat="43.98261" lon="3.01835">
        <ele>798</ele>
        <time>2026-04-30T11:48:52.999Z</time>
      </trkpt>
      <trkpt lat="43.98261" lon="3.01834">
        <ele>797.8</ele>
        <time>2026-04-30T11:48:53.999Z</time>
      </trkpt>
      <trkpt lat="43.98261" lon="3.01833">
        <ele>797.8</ele>
        <time>2026-04-30T11:48:54.999Z</time>
      </trkpt>
      <trkpt lat="43.98262" lon="3.01832">
        <ele>797.6</ele>
        <time>2026-04-30T11:48:55.999Z</time>
      </trkpt>
      <trkpt lat="43.98262" lon="3.01831">
        <ele>797.4</ele>
        <time>2026-04-30T11:48:56.999Z</time>
      </trkpt>
      <trkpt lat="43.98263" lon="3.0183">
        <ele>797.1</ele>
        <time>2026-04-30T11:48:57.999Z</time>
      </trkpt>
      <trkpt lat="43.98263" lon="3.01828">
        <ele>797.1</ele>
        <time>2026-04-30T11:48:58.999Z</time>
      </trkpt>
      <trkpt lat="43.98263" lon="3.01827">
        <ele>796.9</ele>
        <time>2026-04-30T11:48:59.999Z</time>
      </trkpt>
      <trkpt lat="43.98264" lon="3.01826">
        <ele>797</ele>
        <time>2026-04-30T11:49:00.999Z</time>
      </trkpt>
      <trkpt lat="43.98264" lon="3.01825">
        <ele>797</ele>
        <time>2026-04-30T11:49:01.999Z</time>
      </trkpt>
      <trkpt lat="43.98264" lon="3.01823">
        <ele>797</ele>
        <time>2026-04-30T11:49:02.999Z</time>
      </trkpt>
      <trkpt lat="43.98264" lon="3.01821">
        <ele>797</ele>
        <time>2026-04-30T11:49:03.999Z</time>
      </trkpt>
      <trkpt lat="43.98264" lon="3.01819">
        <ele>797.2</ele>
        <time>2026-04-30T11:49:04.999Z</time>
      </trkpt>
      <trkpt lat="43.98264" lon="3.01818">
        <ele>797.4</ele>
        <time>2026-04-30T11:49:05.999Z</time>
      </trkpt>
      <trkpt lat="43.98264" lon="3.01817">
        <ele>797.5</ele>
        <time>2026-04-30T11:49:06.999Z</time>
      </trkpt>
      <trkpt lat="43.98265" lon="3.01816">
        <ele>797.7</ele>
        <time>2026-04-30T11:49:07.999Z</time>
      </trkpt>
      <trkpt lat="43.98265" lon="3.01815">
        <ele>797.9</ele>
        <time>2026-04-30T11:49:08.999Z</time>
      </trkpt>
      <trkpt lat="43.98265" lon="3.01813">
        <ele>798.2</ele>
        <time>2026-04-30T11:49:09.999Z</time>
      </trkpt>
      <trkpt lat="43.98266" lon="3.01811">
        <ele>798.3</ele>
        <time>2026-04-30T11:49:10.999Z</time>
      </trkpt>
      <trkpt lat="43.98267" lon="3.01809">
        <ele>798.2</ele>
        <time>2026-04-30T11:49:11.999Z</time>
      </trkpt>
      <trkpt lat="43.98267" lon="3.01808">
        <ele>798.5</ele>
        <time>2026-04-30T11:49:12.999Z</time>
      </trkpt>
      <trkpt lat="43.98268" lon="3.01807">
        <ele>798.7</ele>
        <time>2026-04-30T11:49:13.999Z</time>
      </trkpt>
      <trkpt lat="43.98268" lon="3.01805">
        <ele>798.5</ele>
        <time>2026-04-30T11:49:14.999Z</time>
      </trkpt>
      <trkpt lat="43.98268" lon="3.01804">
        <ele>798.6</ele>
        <time>2026-04-30T11:49:15.999Z</time>
      </trkpt>
      <trkpt lat="43.98269" lon="3.01803">
        <ele>799.1</ele>
        <time>2026-04-30T11:49:16.999Z</time>
      </trkpt>
      <trkpt lat="43.98269" lon="3.01802">
        <ele>799.1</ele>
        <time>2026-04-30T11:49:17.999Z</time>
      </trkpt>
      <trkpt lat="43.98269" lon="3.018">
        <ele>799</ele>
        <time>2026-04-30T11:49:18.999Z</time>
      </trkpt>
      <trkpt lat="43.98269" lon="3.01799">
        <ele>798.6</ele>
        <time>2026-04-30T11:49:19.999Z</time>
      </trkpt>
      <trkpt lat="43.98269" lon="3.01796">
        <ele>798.7</ele>
        <time>2026-04-30T11:49:20.999Z</time>
      </trkpt>
      <trkpt lat="43.9827" lon="3.01794">
        <ele>798.7</ele>
        <time>2026-04-30T11:49:21.999Z</time>
      </trkpt>
      <trkpt lat="43.9827" lon="3.01793">
        <ele>798.6</ele>
        <time>2026-04-30T11:49:22.999Z</time>
      </trkpt>
      <trkpt lat="43.98271" lon="3.01792">
        <ele>798.2</ele>
        <time>2026-04-30T11:49:23.999Z</time>
      </trkpt>
      <trkpt lat="43.98271" lon="3.01791">
        <ele>798.1</ele>
        <time>2026-04-30T11:49:24.999Z</time>
      </trkpt>
      <trkpt lat="43.98272" lon="3.0179">
        <ele>797.9</ele>
        <time>2026-04-30T11:49:25.999Z</time>
      </trkpt>
      <trkpt lat="43.98273" lon="3.01788">
        <ele>797.9</ele>
        <time>2026-04-30T11:49:26.999Z</time>
      </trkpt>
      <trkpt lat="43.98273" lon="3.01786">
        <ele>798</ele>
        <time>2026-04-30T11:49:27.999Z</time>
      </trkpt>
      <trkpt lat="43.98272" lon="3.01785">
        <ele>798</ele>
        <time>2026-04-30T11:49:28.999Z</time>
      </trkpt>
      <trkpt lat="43.98271" lon="3.01784">
        <ele>797.9</ele>
        <time>2026-04-30T11:49:29.999Z</time>
      </trkpt>
      <trkpt lat="43.9827" lon="3.01783">
        <ele>797.6</ele>
        <time>2026-04-30T11:49:30.999Z</time>
      </trkpt>
      <trkpt lat="43.98269" lon="3.01783">
        <ele>797.4</ele>
        <time>2026-04-30T11:49:31.999Z</time>
      </trkpt>
      <trkpt lat="43.98268" lon="3.01783">
        <ele>797.3</ele>
        <time>2026-04-30T11:49:32.999Z</time>
      </trkpt>
      <trkpt lat="43.98267" lon="3.01782">
        <ele>797.4</ele>
        <time>2026-04-30T11:49:33.999Z</time>
      </trkpt>
      <trkpt lat="43.98267" lon="3.01781">
        <ele>797.9</ele>
        <time>2026-04-30T11:49:34.999Z</time>
      </trkpt>
      <trkpt lat="43.98267" lon="3.01781">
        <ele>798</ele>
        <time>2026-04-30T11:49:35.999Z</time>
      </trkpt>
      <trkpt lat="43.98267" lon="3.01781">
        <ele>798.1</ele>
        <time>2026-04-30T11:49:36.999Z</time>
      </trkpt>
      <trkpt lat="43.98266" lon="3.01781">
        <ele>798.1</ele>
        <time>2026-04-30T11:49:37.999Z</time>
      </trkpt>
      <trkpt lat="43.98267" lon="3.01781">
        <ele>798.2</ele>
        <time>2026-04-30T11:49:39.000Z</time>
      </trkpt>
      <trkpt lat="43.98267" lon="3.01781">
        <ele>798.2</ele>
        <time>2026-04-30T11:49:40.000Z</time>
      </trkpt>
      <trkpt lat="43.98267" lon="3.01781">
        <ele>797.7</ele>
        <time>2026-04-30T11:49:41.000Z</time>
      </trkpt>
      <trkpt lat="43.98267" lon="3.01781">
        <ele>797.9</ele>
        <time>2026-04-30T11:49:42.000Z</time>
      </trkpt>
      <trkpt lat="43.98267" lon="3.01781">
        <ele>798</ele>
        <time>2026-04-30T11:49:43.000Z</time>
      </trkpt>
      <trkpt lat="43.98267" lon="3.01781">
        <ele>798</ele>
        <time>2026-04-30T11:49:44.000Z</time>
      </trkpt>
      <trkpt lat="43.98267" lon="3.01781">
        <ele>797.8</ele>
        <time>2026-04-30T11:49:45.000Z</time>
      </trkpt>
      <trkpt lat="43.98267" lon="3.01781">
        <ele>797.6</ele>
        <time>2026-04-30T11:49:46.000Z</time>
      </trkpt>
      <trkpt lat="43.98267" lon="3.01781">
        <ele>797.6</ele>
        <time>2026-04-30T11:49:47.000Z</time>
      </trkpt>
      <trkpt lat="43.98267" lon="3.01781">
        <ele>797.7</ele>
        <time>2026-04-30T11:49:48.000Z</time>
      </trkpt>
      <trkpt lat="43.98267" lon="3.01781">
        <ele>797.7</ele>
        <time>2026-04-30T11:49:49.000Z</time>
      </trkpt>
      <trkpt lat="43.98267" lon="3.01781">
        <ele>797.5</ele>
        <time>2026-04-30T11:49:50.000Z</time>
      </trkpt>
      <trkpt lat="43.98267" lon="3.01781">
        <ele>797.4</ele>
        <time>2026-04-30T11:49:51.000Z</time>
      </trkpt>
      <trkpt lat="43.98267" lon="3.01781">
        <ele>797.4</ele>
        <time>2026-04-30T11:49:52.000Z</time>
      </trkpt>
      <trkpt lat="43.98267" lon="3.01781">
        <ele>797.2</ele>
        <time>2026-04-30T11:49:53.000Z</time>
      </trkpt>
      <trkpt lat="43.98267" lon="3.01781">
        <ele>797.3</ele>
        <time>2026-04-30T11:49:54.000Z</time>
      </trkpt>
      <trkpt lat="43.98267" lon="3.01781">
        <ele>797.3</ele>
        <time>2026-04-30T11:49:55.000Z</time>
      </trkpt>
      <trkpt lat="43.98267" lon="3.01781">
        <ele>797.3</ele>
        <time>2026-04-30T11:49:56.000Z</time>
      </trkpt>
      <trkpt lat="43.98267" lon="3.01782">
        <ele>797.4</ele>
        <time>2026-04-30T11:49:57.000Z</time>
      </trkpt>
      <trkpt lat="43.98267" lon="3.01782">
        <ele>797.6</ele>
        <time>2026-04-30T11:49:58.000Z</time>
      </trkpt>
      <trkpt lat="43.98267" lon="3.01782">
        <ele>797.6</ele>
        <time>2026-04-30T11:49:59.000Z</time>
      </trkpt>
      <trkpt lat="43.98267" lon="3.01782">
        <ele>797.6</ele>
        <time>2026-04-30T11:50:00.000Z</time>
      </trkpt>
      <trkpt lat="43.98267" lon="3.01781">
        <ele>797.6</ele>
        <time>2026-04-30T11:50:01.000Z</time>
      </trkpt>
      <trkpt lat="43.98267" lon="3.01781">
        <ele>797.6</ele>
        <time>2026-04-30T11:50:02.000Z</time>
      </trkpt>
      <trkpt lat="43.98267" lon="3.01781">
        <ele>797.5</ele>
        <time>2026-04-30T11:50:03.000Z</time>
      </trkpt>
      <trkpt lat="43.98267" lon="3.01781">
        <ele>797.6</ele>
        <time>2026-04-30T11:50:04.000Z</time>
      </trkpt>
      <trkpt lat="43.98267" lon="3.01781">
        <ele>797.7</ele>
        <time>2026-04-30T11:50:05.000Z</time>
      </trkpt>
      <trkpt lat="43.98267" lon="3.01781">
        <ele>797.7</ele>
        <time>2026-04-30T11:50:06.000Z</time>
      </trkpt>
      <trkpt lat="43.98267" lon="3.01781">
        <ele>797.6</ele>
        <time>2026-04-30T11:50:07.000Z</time>
      </trkpt>
      <trkpt lat="43.98267" lon="3.01781">
        <ele>797.9</ele>
        <time>2026-04-30T11:50:08.000Z</time>
      </trkpt>
      <trkpt lat="43.98268" lon="3.01781">
        <ele>798.1</ele>
        <time>2026-04-30T11:50:09.000Z</time>
      </trkpt>
      <trkpt lat="43.98268" lon="3.01781">
        <ele>798.2</ele>
        <time>2026-04-30T11:50:10.000Z</time>
      </trkpt>
      <trkpt lat="43.98268" lon="3.01781">
        <ele>798.6</ele>
        <time>2026-04-30T11:50:11.000Z</time>
      </trkpt>
      <trkpt lat="43.98268" lon="3.01781">
        <ele>798.7</ele>
        <time>2026-04-30T11:50:12.000Z</time>
      </trkpt>
      <trkpt lat="43.98268" lon="3.01781">
        <ele>798.9</ele>
        <time>2026-04-30T11:50:13.000Z</time>
      </trkpt>
      <trkpt lat="43.98268" lon="3.01781">
        <ele>799</ele>
        <time>2026-04-30T11:50:14.000Z</time>
      </trkpt>
      <trkpt lat="43.98268" lon="3.01781">
        <ele>799.1</ele>
        <time>2026-04-30T11:50:15.000Z</time>
      </trkpt>
      <trkpt lat="43.98268" lon="3.01781">
        <ele>799.2</ele>
        <time>2026-04-30T11:50:16.000Z</time>
      </trkpt>
      <trkpt lat="43.98268" lon="3.01781">
        <ele>799.2</ele>
        <time>2026-04-30T11:50:17.000Z</time>
      </trkpt>
      <trkpt lat="43.98268" lon="3.01781">
        <ele>798.9</ele>
        <time>2026-04-30T11:50:18.000Z</time>
      </trkpt>
      <trkpt lat="43.98268" lon="3.01781">
        <ele>798.9</ele>
        <time>2026-04-30T11:50:19.000Z</time>
      </trkpt>
      <trkpt lat="43.98268" lon="3.0178">
        <ele>798.7</ele>
        <time>2026-04-30T11:50:20.000Z</time>
      </trkpt>
      <trkpt lat="43.98268" lon="3.0178">
        <ele>798.7</ele>
        <time>2026-04-30T11:50:21.000Z</time>
      </trkpt>
      <trkpt lat="43.98268" lon="3.0178">
        <ele>798.9</ele>
        <time>2026-04-30T11:50:22.000Z</time>
      </trkpt>
      <trkpt lat="43.98268" lon="3.0178">
        <ele>799.1</ele>
        <time>2026-04-30T11:50:23.000Z</time>
      </trkpt>
      <trkpt lat="43.98268" lon="3.0178">
        <ele>799.2</ele>
        <time>2026-04-30T11:50:24.000Z</time>
      </trkpt>
      <trkpt lat="43.98268" lon="3.0178">
        <ele>799</ele>
        <time>2026-04-30T11:50:25.000Z</time>
      </trkpt>
      <trkpt lat="43.98268" lon="3.0178">
        <ele>798.9</ele>
        <time>2026-04-30T11:50:26.000Z</time>
      </trkpt>
      <trkpt lat="43.98268" lon="3.0178">
        <ele>798.5</ele>
        <time>2026-04-30T11:50:27.000Z</time>
      </trkpt>
      <trkpt lat="43.98268" lon="3.0178">
        <ele>798.2</ele>
        <time>2026-04-30T11:50:28.000Z</time>
      </trkpt>
      <trkpt lat="43.98268" lon="3.0178">
        <ele>798</ele>
        <time>2026-04-30T11:50:29.000Z</time>
      </trkpt>
      <trkpt lat="43.98268" lon="3.0178">
        <ele>797.8</ele>
        <time>2026-04-30T11:50:30.000Z</time>
      </trkpt>
      <trkpt lat="43.98269" lon="3.01779">
        <ele>797.6</ele>
        <time>2026-04-30T11:50:31.000Z</time>
      </trkpt>
      <trkpt lat="43.98269" lon="3.01779">
        <ele>797.5</ele>
        <time>2026-04-30T11:50:32.000Z</time>
      </trkpt>
      <trkpt lat="43.98269" lon="3.01779">
        <ele>797.5</ele>
        <time>2026-04-30T11:50:33.000Z</time>
      </trkpt>
      <trkpt lat="43.98269" lon="3.01779">
        <ele>797.7</ele>
        <time>2026-04-30T11:50:34.000Z</time>
      </trkpt>
      <trkpt lat="43.98269" lon="3.01779">
        <ele>797.7</ele>
        <time>2026-04-30T11:50:35.000Z</time>
      </trkpt>
      <trkpt lat="43.98269" lon="3.01779">
        <ele>797.9</ele>
        <time>2026-04-30T11:50:36.000Z</time>
      </trkpt>
      <trkpt lat="43.98269" lon="3.01779">
        <ele>798.2</ele>
        <time>2026-04-30T11:50:37.000Z</time>
      </trkpt>
      <trkpt lat="43.98269" lon="3.01779">
        <ele>798.4</ele>
        <time>2026-04-30T11:50:38.000Z</time>
      </trkpt>
      <trkpt lat="43.98269" lon="3.01779">
        <ele>798.3</ele>
        <time>2026-04-30T11:50:39.000Z</time>
      </trkpt>
      <trkpt lat="43.98269" lon="3.01779">
        <ele>798</ele>
        <time>2026-04-30T11:50:40.000Z</time>
      </trkpt>
      <trkpt lat="43.98269" lon="3.01779">
        <ele>797.9</ele>
        <time>2026-04-30T11:50:41.000Z</time>
      </trkpt>
      <trkpt lat="43.98269" lon="3.01779">
        <ele>797.9</ele>
        <time>2026-04-30T11:50:42.000Z</time>
      </trkpt>
      <trkpt lat="43.98269" lon="3.01779">
        <ele>798</ele>
        <time>2026-04-30T11:50:43.000Z</time>
      </trkpt>
      <trkpt lat="43.98269" lon="3.01779">
        <ele>798.3</ele>
        <time>2026-04-30T11:50:44.000Z</time>
      </trkpt>
      <trkpt lat="43.98269" lon="3.01779">
        <ele>798.5</ele>
        <time>2026-04-30T11:50:45.000Z</time>
      </trkpt>
      <trkpt lat="43.98269" lon="3.01778">
        <ele>798.5</ele>
        <time>2026-04-30T11:50:46.000Z</time>
      </trkpt>
      <trkpt lat="43.9827" lon="3.01778">
        <ele>798.5</ele>
        <time>2026-04-30T11:50:47.000Z</time>
      </trkpt>
      <trkpt lat="43.9827" lon="3.01778">
        <ele>798.3</ele>
        <time>2026-04-30T11:50:48.000Z</time>
      </trkpt>
      <trkpt lat="43.9827" lon="3.01778">
        <ele>798</ele>
        <time>2026-04-30T11:50:49.000Z</time>
      </trkpt>
      <trkpt lat="43.9827" lon="3.01778">
        <ele>797.9</ele>
        <time>2026-04-30T11:50:50.000Z</time>
      </trkpt>
      <trkpt lat="43.9827" lon="3.01778">
        <ele>797.8</ele>
        <time>2026-04-30T11:50:51.000Z</time>
      </trkpt>
      <trkpt lat="43.9827" lon="3.01778">
        <ele>797.7</ele>
        <time>2026-04-30T11:50:52.000Z</time>
      </trkpt>
      <trkpt lat="43.9827" lon="3.01778">
        <ele>797.5</ele>
        <time>2026-04-30T11:50:53.000Z</time>
      </trkpt>
      <trkpt lat="43.9827" lon="3.01778">
        <ele>797.2</ele>
        <time>2026-04-30T11:50:54.000Z</time>
      </trkpt>
      <trkpt lat="43.9827" lon="3.01779">
        <ele>797</ele>
        <time>2026-04-30T11:50:55.000Z</time>
      </trkpt>
      <trkpt lat="43.9827" lon="3.01779">
        <ele>796.7</ele>
        <time>2026-04-30T11:50:56.000Z</time>
      </trkpt>
      <trkpt lat="43.9827" lon="3.01779">
        <ele>796.5</ele>
        <time>2026-04-30T11:50:57.000Z</time>
      </trkpt>
      <trkpt lat="43.9827" lon="3.01779">
        <ele>796.2</ele>
        <time>2026-04-30T11:50:58.000Z</time>
      </trkpt>
      <trkpt lat="43.9827" lon="3.01779">
        <ele>795.9</ele>
        <time>2026-04-30T11:50:59.000Z</time>
      </trkpt>
      <trkpt lat="43.9827" lon="3.01779">
        <ele>795.8</ele>
        <time>2026-04-30T11:51:00.000Z</time>
      </trkpt>
      <trkpt lat="43.9827" lon="3.01779">
        <ele>795.7</ele>
        <time>2026-04-30T11:51:01.000Z</time>
      </trkpt>
      <trkpt lat="43.9827" lon="3.01779">
        <ele>795.7</ele>
        <time>2026-04-30T11:51:02.000Z</time>
      </trkpt>
      <trkpt lat="43.9827" lon="3.01779">
        <ele>795.8</ele>
        <time>2026-04-30T11:51:03.000Z</time>
      </trkpt>
      <trkpt lat="43.9827" lon="3.01779">
        <ele>795.8</ele>
        <time>2026-04-30T11:51:04.000Z</time>
      </trkpt>
      <trkpt lat="43.9827" lon="3.0178">
        <ele>795.8</ele>
        <time>2026-04-30T11:51:05.000Z</time>
      </trkpt>
      <trkpt lat="43.9827" lon="3.0178">
        <ele>795.9</ele>
        <time>2026-04-30T11:51:06.000Z</time>
      </trkpt>
      <trkpt lat="43.9827" lon="3.0178">
        <ele>795.9</ele>
        <time>2026-04-30T11:51:07.000Z</time>
      </trkpt>
      <trkpt lat="43.9827" lon="3.0178">
        <ele>795.8</ele>
        <time>2026-04-30T11:51:08.000Z</time>
      </trkpt>
      <trkpt lat="43.9827" lon="3.0178">
        <ele>795.5</ele>
        <time>2026-04-30T11:51:09.000Z</time>
      </trkpt>
      <trkpt lat="43.9827" lon="3.0178">
        <ele>795.5</ele>
        <time>2026-04-30T11:51:10.000Z</time>
      </trkpt>
      <trkpt lat="43.9827" lon="3.0178">
        <ele>795.4</ele>
        <time>2026-04-30T11:51:11.000Z</time>
      </trkpt>
      <trkpt lat="43.98271" lon="3.0178">
        <ele>795.3</ele>
        <time>2026-04-30T11:51:12.000Z</time>
      </trkpt>
      <trkpt lat="43.98271" lon="3.0178">
        <ele>795.4</ele>
        <time>2026-04-30T11:51:13.000Z</time>
      </trkpt>
      <trkpt lat="43.98271" lon="3.0178">
        <ele>795.5</ele>
        <time>2026-04-30T11:51:14.000Z</time>
      </trkpt>
      <trkpt lat="43.98271" lon="3.0178">
        <ele>795.5</ele>
        <time>2026-04-30T11:51:15.000Z</time>
      </trkpt>
      <trkpt lat="43.98271" lon="3.0178">
        <ele>795.6</ele>
        <time>2026-04-30T11:51:16.000Z</time>
      </trkpt>
      <trkpt lat="43.98271" lon="3.0178">
        <ele>795.8</ele>
        <time>2026-04-30T11:51:17.000Z</time>
      </trkpt>
      <trkpt lat="43.98271" lon="3.0178">
        <ele>796</ele>
        <time>2026-04-30T11:51:18.000Z</time>
      </trkpt>
      <trkpt lat="43.98271" lon="3.0178">
        <ele>795.8</ele>
        <time>2026-04-30T11:51:19.000Z</time>
      </trkpt>
      <trkpt lat="43.98271" lon="3.0178">
        <ele>795.8</ele>
        <time>2026-04-30T11:51:20.000Z</time>
      </trkpt>
      <trkpt lat="43.98271" lon="3.0178">
        <ele>795.7</ele>
        <time>2026-04-30T11:51:21.000Z</time>
      </trkpt>
      <trkpt lat="43.98271" lon="3.0178">
        <ele>795.8</ele>
        <time>2026-04-30T11:51:22.000Z</time>
      </trkpt>
      <trkpt lat="43.98271" lon="3.0178">
        <ele>796</ele>
        <time>2026-04-30T11:51:23.000Z</time>
      </trkpt>
      <trkpt lat="43.98271" lon="3.0178">
        <ele>796.1</ele>
        <time>2026-04-30T11:51:24.000Z</time>
      </trkpt>
      <trkpt lat="43.98271" lon="3.0178">
        <ele>796.1</ele>
        <time>2026-04-30T11:51:25.000Z</time>
      </trkpt>
      <trkpt lat="43.98271" lon="3.0178">
        <ele>796.2</ele>
        <time>2026-04-30T11:51:26.000Z</time>
      </trkpt>
      <trkpt lat="43.98271" lon="3.0178">
        <ele>796.2</ele>
        <time>2026-04-30T11:51:27.000Z</time>
      </trkpt>
      <trkpt lat="43.98271" lon="3.01781">
        <ele>796.3</ele>
        <time>2026-04-30T11:51:28.000Z</time>
      </trkpt>
      <trkpt lat="43.98271" lon="3.01781">
        <ele>796.5</ele>
        <time>2026-04-30T11:51:29.000Z</time>
      </trkpt>
      <trkpt lat="43.98271" lon="3.01781">
        <ele>796.6</ele>
        <time>2026-04-30T11:51:30.000Z</time>
      </trkpt>
      <trkpt lat="43.98271" lon="3.01781">
        <ele>796.7</ele>
        <time>2026-04-30T11:51:31.000Z</time>
      </trkpt>
      <trkpt lat="43.98271" lon="3.01781">
        <ele>796.5</ele>
        <time>2026-04-30T11:51:32.000Z</time>
      </trkpt>
      <trkpt lat="43.98271" lon="3.0178">
        <ele>796.4</ele>
        <time>2026-04-30T11:51:33.000Z</time>
      </trkpt>
      <trkpt lat="43.98271" lon="3.0178">
        <ele>796.2</ele>
        <time>2026-04-30T11:51:34.000Z</time>
      </trkpt>
      <trkpt lat="43.98271" lon="3.0178">
        <ele>796.1</ele>
        <time>2026-04-30T11:51:35.000Z</time>
      </trkpt>
      <trkpt lat="43.98271" lon="3.0178">
        <ele>796</ele>
        <time>2026-04-30T11:51:36.000Z</time>
      </trkpt>
      <trkpt lat="43.98271" lon="3.01779">
        <ele>796.1</ele>
        <time>2026-04-30T11:51:37.000Z</time>
      </trkpt>
      <trkpt lat="43.98271" lon="3.01779">
        <ele>796.1</ele>
        <time>2026-04-30T11:51:38.000Z</time>
      </trkpt>
      <trkpt lat="43.98272" lon="3.01779">
        <ele>796</ele>
        <time>2026-04-30T11:51:39.000Z</time>
      </trkpt>
      <trkpt lat="43.98272" lon="3.01779">
        <ele>796</ele>
        <time>2026-04-30T11:51:40.000Z</time>
      </trkpt>
      <trkpt lat="43.98272" lon="3.01778">
        <ele>795.9</ele>
        <time>2026-04-30T11:51:41.000Z</time>
      </trkpt>
      <trkpt lat="43.98272" lon="3.01778">
        <ele>795.9</ele>
        <time>2026-04-30T11:51:42.000Z</time>
      </trkpt>
      <trkpt lat="43.98272" lon="3.01778">
        <ele>796</ele>
        <time>2026-04-30T11:51:43.000Z</time>
      </trkpt>
      <trkpt lat="43.98273" lon="3.01777">
        <ele>795.9</ele>
        <time>2026-04-30T11:51:44.000Z</time>
      </trkpt>
      <trkpt lat="43.98273" lon="3.01777">
        <ele>795.6</ele>
        <time>2026-04-30T11:51:45.000Z</time>
      </trkpt>
      <trkpt lat="43.98273" lon="3.01775">
        <ele>795.5</ele>
        <time>2026-04-30T11:51:46.000Z</time>
      </trkpt>
      <trkpt lat="43.98274" lon="3.01773">
        <ele>795.4</ele>
        <time>2026-04-30T11:51:47.000Z</time>
      </trkpt>
      <trkpt lat="43.98274" lon="3.01771">
        <ele>795.5</ele>
        <time>2026-04-30T11:51:48.000Z</time>
      </trkpt>
      <trkpt lat="43.98274" lon="3.0177">
        <ele>795.5</ele>
        <time>2026-04-30T11:51:49.000Z</time>
      </trkpt>
      <trkpt lat="43.98275" lon="3.01768">
        <ele>795.7</ele>
        <time>2026-04-30T11:51:50.000Z</time>
      </trkpt>
      <trkpt lat="43.98276" lon="3.01767">
        <ele>795.9</ele>
        <time>2026-04-30T11:51:51.000Z</time>
      </trkpt>
      <trkpt lat="43.98276" lon="3.01765">
        <ele>796.1</ele>
        <time>2026-04-30T11:51:52.000Z</time>
      </trkpt>
      <trkpt lat="43.98276" lon="3.01764">
        <ele>796</ele>
        <time>2026-04-30T11:51:53.000Z</time>
      </trkpt>
      <trkpt lat="43.98276" lon="3.01763">
        <ele>795.8</ele>
        <time>2026-04-30T11:51:54.000Z</time>
      </trkpt>
      <trkpt lat="43.98277" lon="3.01761">
        <ele>795.5</ele>
        <time>2026-04-30T11:51:55.000Z</time>
      </trkpt>
      <trkpt lat="43.98277" lon="3.0176">
        <ele>795.4</ele>
        <time>2026-04-30T11:51:56.000Z</time>
      </trkpt>
      <trkpt lat="43.98277" lon="3.01758">
        <ele>795.2</ele>
        <time>2026-04-30T11:51:57.000Z</time>
      </trkpt>
      <trkpt lat="43.98277" lon="3.01757">
        <ele>795.1</ele>
        <time>2026-04-30T11:51:58.000Z</time>
      </trkpt>
      <trkpt lat="43.98277" lon="3.01757">
        <ele>795</ele>
        <time>2026-04-30T11:51:59.000Z</time>
      </trkpt>
      <trkpt lat="43.98277" lon="3.01756">
        <ele>794.8</ele>
        <time>2026-04-30T11:52:00.000Z</time>
      </trkpt>
      <trkpt lat="43.98277" lon="3.01755">
        <ele>794.7</ele>
        <time>2026-04-30T11:52:01.000Z</time>
      </trkpt>
      <trkpt lat="43.98277" lon="3.01754">
        <ele>794.7</ele>
        <time>2026-04-30T11:52:02.000Z</time>
      </trkpt>
      <trkpt lat="43.98277" lon="3.01754">
        <ele>794.8</ele>
        <time>2026-04-30T11:52:03.000Z</time>
      </trkpt>
      <trkpt lat="43.98277" lon="3.01754">
        <ele>795.2</ele>
        <time>2026-04-30T11:52:04.000Z</time>
      </trkpt>
      <trkpt lat="43.98279" lon="3.0175">
        <ele>795.4</ele>
        <time>2026-04-30T11:52:05.000Z</time>
      </trkpt>
      <trkpt lat="43.98279" lon="3.01749">
        <ele>794.9</ele>
        <time>2026-04-30T11:52:06.000Z</time>
      </trkpt>
      <trkpt lat="43.98278" lon="3.01748">
        <ele>794.7</ele>
        <time>2026-04-30T11:52:07.000Z</time>
      </trkpt>
      <trkpt lat="43.98278" lon="3.01747">
        <ele>794.7</ele>
        <time>2026-04-30T11:52:08.000Z</time>
      </trkpt>
      <trkpt lat="43.98278" lon="3.01747">
        <ele>794.5</ele>
        <time>2026-04-30T11:52:09.000Z</time>
      </trkpt>
      <trkpt lat="43.98279" lon="3.01747">
        <ele>794.4</ele>
        <time>2026-04-30T11:52:10.000Z</time>
      </trkpt>
      <trkpt lat="43.98279" lon="3.01745">
        <ele>794.2</ele>
        <time>2026-04-30T11:52:11.000Z</time>
      </trkpt>
      <trkpt lat="43.98279" lon="3.01743">
        <ele>794</ele>
        <time>2026-04-30T11:52:12.000Z</time>
      </trkpt>
      <trkpt lat="43.98279" lon="3.01741">
        <ele>794.1</ele>
        <time>2026-04-30T11:52:13.000Z</time>
      </trkpt>
      <trkpt lat="43.9828" lon="3.01739">
        <ele>794.5</ele>
        <time>2026-04-30T11:52:14.000Z</time>
      </trkpt>
      <trkpt lat="43.9828" lon="3.01738">
        <ele>794.4</ele>
        <time>2026-04-30T11:52:15.000Z</time>
      </trkpt>
      <trkpt lat="43.98282" lon="3.01732">
        <ele>795.7</ele>
        <time>2026-04-30T11:52:16.000Z</time>
      </trkpt>
      <trkpt lat="43.98285" lon="3.01729">
        <ele>796.9</ele>
        <time>2026-04-30T11:52:17.000Z</time>
      </trkpt>
      <trkpt lat="43.98286" lon="3.01727">
        <ele>797.6</ele>
        <time>2026-04-30T11:52:18.000Z</time>
      </trkpt>
      <trkpt lat="43.98287" lon="3.01725">
        <ele>797.9</ele>
        <time>2026-04-30T11:52:19.000Z</time>
      </trkpt>
      <trkpt lat="43.98287" lon="3.01724">
        <ele>797.9</ele>
        <time>2026-04-30T11:52:20.000Z</time>
      </trkpt>
      <trkpt lat="43.98288" lon="3.01722">
        <ele>798.4</ele>
        <time>2026-04-30T11:52:21.000Z</time>
      </trkpt>
      <trkpt lat="43.98289" lon="3.01721">
        <ele>798.8</ele>
        <time>2026-04-30T11:52:22.000Z</time>
      </trkpt>
      <trkpt lat="43.9829" lon="3.0172">
        <ele>799.2</ele>
        <time>2026-04-30T11:52:23.000Z</time>
      </trkpt>
      <trkpt lat="43.9829" lon="3.01718">
        <ele>799.8</ele>
        <time>2026-04-30T11:52:24.000Z</time>
      </trkpt>
      <trkpt lat="43.9829" lon="3.01717">
        <ele>799.9</ele>
        <time>2026-04-30T11:52:25.000Z</time>
      </trkpt>
      <trkpt lat="43.9829" lon="3.01716">
        <ele>799.8</ele>
        <time>2026-04-30T11:52:26.000Z</time>
      </trkpt>
      <trkpt lat="43.98291" lon="3.01714">
        <ele>799.9</ele>
        <time>2026-04-30T11:52:27.000Z</time>
      </trkpt>
      <trkpt lat="43.98292" lon="3.01713">
        <ele>800</ele>
        <time>2026-04-30T11:52:28.000Z</time>
      </trkpt>
      <trkpt lat="43.98292" lon="3.01712">
        <ele>799.9</ele>
        <time>2026-04-30T11:52:29.000Z</time>
      </trkpt>
      <trkpt lat="43.98293" lon="3.01711">
        <ele>799.7</ele>
        <time>2026-04-30T11:52:30.000Z</time>
      </trkpt>
      <trkpt lat="43.98293" lon="3.0171">
        <ele>799.8</ele>
        <time>2026-04-30T11:52:31.000Z</time>
      </trkpt>
      <trkpt lat="43.98293" lon="3.01708">
        <ele>799.8</ele>
        <time>2026-04-30T11:52:32.000Z</time>
      </trkpt>
      <trkpt lat="43.98294" lon="3.01706">
        <ele>799.7</ele>
        <time>2026-04-30T11:52:33.000Z</time>
      </trkpt>
      <trkpt lat="43.98294" lon="3.01705">
        <ele>799.4</ele>
        <time>2026-04-30T11:52:34.000Z</time>
      </trkpt>
      <trkpt lat="43.98294" lon="3.01704">
        <ele>799.3</ele>
        <time>2026-04-30T11:52:35.000Z</time>
      </trkpt>
      <trkpt lat="43.98293" lon="3.01702">
        <ele>799.3</ele>
        <time>2026-04-30T11:52:36.000Z</time>
      </trkpt>
      <trkpt lat="43.98294" lon="3.01701">
        <ele>799.2</ele>
        <time>2026-04-30T11:52:37.000Z</time>
      </trkpt>
      <trkpt lat="43.98294" lon="3.01699">
        <ele>799.1</ele>
        <time>2026-04-30T11:52:38.000Z</time>
      </trkpt>
      <trkpt lat="43.98295" lon="3.01698">
        <ele>798.8</ele>
        <time>2026-04-30T11:52:39.000Z</time>
      </trkpt>
      <trkpt lat="43.98295" lon="3.01697">
        <ele>798.5</ele>
        <time>2026-04-30T11:52:40.000Z</time>
      </trkpt>
      <trkpt lat="43.98296" lon="3.01695">
        <ele>798.5</ele>
        <time>2026-04-30T11:52:41.000Z</time>
      </trkpt>
      <trkpt lat="43.98296" lon="3.01694">
        <ele>798.3</ele>
        <time>2026-04-30T11:52:42.000Z</time>
      </trkpt>
      <trkpt lat="43.98296" lon="3.01693">
        <ele>798</ele>
        <time>2026-04-30T11:52:43.000Z</time>
      </trkpt>
      <trkpt lat="43.98296" lon="3.01691">
        <ele>797.8</ele>
        <time>2026-04-30T11:52:44.000Z</time>
      </trkpt>
      <trkpt lat="43.98297" lon="3.0169">
        <ele>797.6</ele>
        <time>2026-04-30T11:52:45.000Z</time>
      </trkpt>
      <trkpt lat="43.98297" lon="3.01689">
        <ele>797.4</ele>
        <time>2026-04-30T11:52:46.000Z</time>
      </trkpt>
      <trkpt lat="43.98297" lon="3.01688">
        <ele>797.2</ele>
        <time>2026-04-30T11:52:47.000Z</time>
      </trkpt>
      <trkpt lat="43.98298" lon="3.01686">
        <ele>797.3</ele>
        <time>2026-04-30T11:52:48.000Z</time>
      </trkpt>
      <trkpt lat="43.98298" lon="3.01684">
        <ele>797.4</ele>
        <time>2026-04-30T11:52:49.000Z</time>
      </trkpt>
      <trkpt lat="43.98298" lon="3.01683">
        <ele>797.7</ele>
        <time>2026-04-30T11:52:50.000Z</time>
      </trkpt>
      <trkpt lat="43.98299" lon="3.01681">
        <ele>798.1</ele>
        <time>2026-04-30T11:52:51.000Z</time>
      </trkpt>
      <trkpt lat="43.98299" lon="3.01679">
        <ele>798.3</ele>
        <time>2026-04-30T11:52:52.000Z</time>
      </trkpt>
      <trkpt lat="43.983" lon="3.01678">
        <ele>798.3</ele>
        <time>2026-04-30T11:52:53.000Z</time>
      </trkpt>
      <trkpt lat="43.983" lon="3.01677">
        <ele>798.1</ele>
        <time>2026-04-30T11:52:54.000Z</time>
      </trkpt>
      <trkpt lat="43.98301" lon="3.01675">
        <ele>798.2</ele>
        <time>2026-04-30T11:52:55.000Z</time>
      </trkpt>
      <trkpt lat="43.98302" lon="3.01673">
        <ele>798.3</ele>
        <time>2026-04-30T11:52:56.000Z</time>
      </trkpt>
      <trkpt lat="43.98301" lon="3.01672">
        <ele>798.4</ele>
        <time>2026-04-30T11:52:57.000Z</time>
      </trkpt>
      <trkpt lat="43.98301" lon="3.01671">
        <ele>798.4</ele>
        <time>2026-04-30T11:52:58.000Z</time>
      </trkpt>
      <trkpt lat="43.98302" lon="3.0167">
        <ele>798</ele>
        <time>2026-04-30T11:52:59.000Z</time>
      </trkpt>
      <trkpt lat="43.98302" lon="3.01669">
        <ele>797.9</ele>
        <time>2026-04-30T11:53:00.000Z</time>
      </trkpt>
      <trkpt lat="43.98302" lon="3.01667">
        <ele>798</ele>
        <time>2026-04-30T11:53:01.000Z</time>
      </trkpt>
      <trkpt lat="43.98303" lon="3.01665">
        <ele>798.1</ele>
        <time>2026-04-30T11:53:02.000Z</time>
      </trkpt>
      <trkpt lat="43.98303" lon="3.01664">
        <ele>798.3</ele>
        <time>2026-04-30T11:53:03.000Z</time>
      </trkpt>
      <trkpt lat="43.98304" lon="3.01662">
        <ele>798.6</ele>
        <time>2026-04-30T11:53:04.000Z</time>
      </trkpt>
      <trkpt lat="43.98304" lon="3.0166">
        <ele>798.8</ele>
        <time>2026-04-30T11:53:05.000Z</time>
      </trkpt>
      <trkpt lat="43.98305" lon="3.01659">
        <ele>799.1</ele>
        <time>2026-04-30T11:53:06.000Z</time>
      </trkpt>
      <trkpt lat="43.98306" lon="3.01657">
        <ele>799.2</ele>
        <time>2026-04-30T11:53:07.000Z</time>
      </trkpt>
      <trkpt lat="43.98307" lon="3.01657">
        <ele>799.2</ele>
        <time>2026-04-30T11:53:08.000Z</time>
      </trkpt>
      <trkpt lat="43.98308" lon="3.01656">
        <ele>799.3</ele>
        <time>2026-04-30T11:53:09.000Z</time>
      </trkpt>
      <trkpt lat="43.98309" lon="3.01656">
        <ele>799.3</ele>
        <time>2026-04-30T11:53:10.000Z</time>
      </trkpt>
      <trkpt lat="43.9831" lon="3.01654">
        <ele>799.2</ele>
        <time>2026-04-30T11:53:11.000Z</time>
      </trkpt>
      <trkpt lat="43.98311" lon="3.01653">
        <ele>799.3</ele>
        <time>2026-04-30T11:53:12.000Z</time>
      </trkpt>
      <trkpt lat="43.98312" lon="3.01652">
        <ele>799.1</ele>
        <time>2026-04-30T11:53:13.000Z</time>
      </trkpt>
      <trkpt lat="43.98313" lon="3.0165">
        <ele>799.1</ele>
        <time>2026-04-30T11:53:14.000Z</time>
      </trkpt>
      <trkpt lat="43.98313" lon="3.01649">
        <ele>799.1</ele>
        <time>2026-04-30T11:53:15.000Z</time>
      </trkpt>
      <trkpt lat="43.98314" lon="3.01648">
        <ele>799.4</ele>
        <time>2026-04-30T11:53:16.000Z</time>
      </trkpt>
      <trkpt lat="43.98315" lon="3.01647">
        <ele>799.8</ele>
        <time>2026-04-30T11:53:17.000Z</time>
      </trkpt>
      <trkpt lat="43.98315" lon="3.01645">
        <ele>800.2</ele>
        <time>2026-04-30T11:53:18.000Z</time>
      </trkpt>
      <trkpt lat="43.98316" lon="3.01643">
        <ele>800.6</ele>
        <time>2026-04-30T11:53:19.000Z</time>
      </trkpt>
      <trkpt lat="43.98316" lon="3.01642">
        <ele>800.8</ele>
        <time>2026-04-30T11:53:20.000Z</time>
      </trkpt>
      <trkpt lat="43.98317" lon="3.01641">
        <ele>800.9</ele>
        <time>2026-04-30T11:53:21.000Z</time>
      </trkpt>
      <trkpt lat="43.98317" lon="3.01639">
        <ele>801</ele>
        <time>2026-04-30T11:53:22.000Z</time>
      </trkpt>
      <trkpt lat="43.98318" lon="3.01638">
        <ele>800.9</ele>
        <time>2026-04-30T11:53:23.000Z</time>
      </trkpt>
      <trkpt lat="43.98318" lon="3.01636">
        <ele>800.8</ele>
        <time>2026-04-30T11:53:24.000Z</time>
      </trkpt>
      <trkpt lat="43.98319" lon="3.01635">
        <ele>800.7</ele>
        <time>2026-04-30T11:53:25.000Z</time>
      </trkpt>
      <trkpt lat="43.98319" lon="3.01633">
        <ele>800.6</ele>
        <time>2026-04-30T11:53:26.000Z</time>
      </trkpt>
      <trkpt lat="43.9832" lon="3.01632">
        <ele>800.5</ele>
        <time>2026-04-30T11:53:27.000Z</time>
      </trkpt>
      <trkpt lat="43.9832" lon="3.0163">
        <ele>800.4</ele>
        <time>2026-04-30T11:53:28.000Z</time>
      </trkpt>
      <trkpt lat="43.98321" lon="3.01629">
        <ele>800.4</ele>
        <time>2026-04-30T11:53:29.000Z</time>
      </trkpt>
      <trkpt lat="43.98321" lon="3.01627">
        <ele>800.4</ele>
        <time>2026-04-30T11:53:30.000Z</time>
      </trkpt>
      <trkpt lat="43.98321" lon="3.01624">
        <ele>800.5</ele>
        <time>2026-04-30T11:53:31.000Z</time>
      </trkpt>
      <trkpt lat="43.98321" lon="3.01623">
        <ele>800.4</ele>
        <time>2026-04-30T11:53:32.000Z</time>
      </trkpt>
      <trkpt lat="43.98322" lon="3.01622">
        <ele>800.5</ele>
        <time>2026-04-30T11:53:33.000Z</time>
      </trkpt>
      <trkpt lat="43.98322" lon="3.0162">
        <ele>800.5</ele>
        <time>2026-04-30T11:53:34.000Z</time>
      </trkpt>
      <trkpt lat="43.98322" lon="3.01619">
        <ele>800.5</ele>
        <time>2026-04-30T11:53:35.000Z</time>
      </trkpt>
      <trkpt lat="43.98323" lon="3.01617">
        <ele>800.4</ele>
        <time>2026-04-30T11:53:36.000Z</time>
      </trkpt>
      <trkpt lat="43.98323" lon="3.01615">
        <ele>800.2</ele>
        <time>2026-04-30T11:53:37.000Z</time>
      </trkpt>
      <trkpt lat="43.98323" lon="3.01613">
        <ele>800.3</ele>
        <time>2026-04-30T11:53:38.000Z</time>
      </trkpt>
      <trkpt lat="43.98324" lon="3.01612">
        <ele>800.2</ele>
        <time>2026-04-30T11:53:39.000Z</time>
      </trkpt>
      <trkpt lat="43.98324" lon="3.0161">
        <ele>800.4</ele>
        <time>2026-04-30T11:53:40.000Z</time>
      </trkpt>
      <trkpt lat="43.98324" lon="3.01609">
        <ele>800.6</ele>
        <time>2026-04-30T11:53:41.000Z</time>
      </trkpt>
      <trkpt lat="43.98324" lon="3.01608">
        <ele>800.7</ele>
        <time>2026-04-30T11:53:42.000Z</time>
      </trkpt>
      <trkpt lat="43.98325" lon="3.01607">
        <ele>800.7</ele>
        <time>2026-04-30T11:53:43.000Z</time>
      </trkpt>
      <trkpt lat="43.98325" lon="3.01605">
        <ele>800.5</ele>
        <time>2026-04-30T11:53:44.000Z</time>
      </trkpt>
      <trkpt lat="43.98326" lon="3.01603">
        <ele>800.2</ele>
        <time>2026-04-30T11:53:45.000Z</time>
      </trkpt>
      <trkpt lat="43.98326" lon="3.01601">
        <ele>799.9</ele>
        <time>2026-04-30T11:53:46.000Z</time>
      </trkpt>
      <trkpt lat="43.98326" lon="3.01599">
        <ele>800</ele>
        <time>2026-04-30T11:53:47.000Z</time>
      </trkpt>
      <trkpt lat="43.98326" lon="3.01598">
        <ele>800.1</ele>
        <time>2026-04-30T11:53:48.000Z</time>
      </trkpt>
      <trkpt lat="43.98326" lon="3.01596">
        <ele>800</ele>
        <time>2026-04-30T11:53:49.000Z</time>
      </trkpt>
      <trkpt lat="43.98325" lon="3.01595">
        <ele>799.9</ele>
        <time>2026-04-30T11:53:50.000Z</time>
      </trkpt>
      <trkpt lat="43.98325" lon="3.01594">
        <ele>800</ele>
        <time>2026-04-30T11:53:51.000Z</time>
      </trkpt>
      <trkpt lat="43.98325" lon="3.01592">
        <ele>800.3</ele>
        <time>2026-04-30T11:53:52.000Z</time>
      </trkpt>
      <trkpt lat="43.98325" lon="3.0159">
        <ele>800.6</ele>
        <time>2026-04-30T11:53:53.000Z</time>
      </trkpt>
      <trkpt lat="43.98325" lon="3.01588">
        <ele>800.6</ele>
        <time>2026-04-30T11:53:54.000Z</time>
      </trkpt>
      <trkpt lat="43.98326" lon="3.01586">
        <ele>800.7</ele>
        <time>2026-04-30T11:53:55.000Z</time>
      </trkpt>
      <trkpt lat="43.98325" lon="3.01584">
        <ele>800.7</ele>
        <time>2026-04-30T11:53:56.000Z</time>
      </trkpt>
      <trkpt lat="43.98325" lon="3.01583">
        <ele>800.4</ele>
        <time>2026-04-30T11:53:57.000Z</time>
      </trkpt>
      <trkpt lat="43.98325" lon="3.01582">
        <ele>800.5</ele>
        <time>2026-04-30T11:53:58.000Z</time>
      </trkpt>
      <trkpt lat="43.98325" lon="3.01581">
        <ele>800.6</ele>
        <time>2026-04-30T11:53:59.000Z</time>
      </trkpt>
      <trkpt lat="43.98326" lon="3.0158">
        <ele>800.3</ele>
        <time>2026-04-30T11:54:00.000Z</time>
      </trkpt>
      <trkpt lat="43.98327" lon="3.01579">
        <ele>800.2</ele>
        <time>2026-04-30T11:54:01.000Z</time>
      </trkpt>
      <trkpt lat="43.98327" lon="3.01577">
        <ele>799.9</ele>
        <time>2026-04-30T11:54:02.000Z</time>
      </trkpt>
      <trkpt lat="43.98328" lon="3.01575">
        <ele>799.8</ele>
        <time>2026-04-30T11:54:03.000Z</time>
      </trkpt>
      <trkpt lat="43.98328" lon="3.01573">
        <ele>799.8</ele>
        <time>2026-04-30T11:54:04.000Z</time>
      </trkpt>
      <trkpt lat="43.98328" lon="3.0157">
        <ele>800</ele>
        <time>2026-04-30T11:54:05.000Z</time>
      </trkpt>
      <trkpt lat="43.98329" lon="3.01568">
        <ele>800</ele>
        <time>2026-04-30T11:54:06.000Z</time>
      </trkpt>
      <trkpt lat="43.98329" lon="3.01567">
        <ele>799.9</ele>
        <time>2026-04-30T11:54:07.000Z</time>
      </trkpt>
      <trkpt lat="43.98329" lon="3.01566">
        <ele>799.7</ele>
        <time>2026-04-30T11:54:08.000Z</time>
      </trkpt>
      <trkpt lat="43.98329" lon="3.01565">
        <ele>799.4</ele>
        <time>2026-04-30T11:54:09.000Z</time>
      </trkpt>
      <trkpt lat="43.98329" lon="3.01564">
        <ele>799</ele>
        <time>2026-04-30T11:54:10.000Z</time>
      </trkpt>
      <trkpt lat="43.9833" lon="3.01562">
        <ele>799</ele>
        <time>2026-04-30T11:54:11.000Z</time>
      </trkpt>
      <trkpt lat="43.9833" lon="3.0156">
        <ele>799</ele>
        <time>2026-04-30T11:54:12.000Z</time>
      </trkpt>
      <trkpt lat="43.98331" lon="3.01558">
        <ele>799.3</ele>
        <time>2026-04-30T11:54:13.000Z</time>
      </trkpt>
      <trkpt lat="43.98331" lon="3.01557">
        <ele>799.6</ele>
        <time>2026-04-30T11:54:14.000Z</time>
      </trkpt>
      <trkpt lat="43.98332" lon="3.01555">
        <ele>799.7</ele>
        <time>2026-04-30T11:54:15.000Z</time>
      </trkpt>
      <trkpt lat="43.98332" lon="3.01554">
        <ele>799.8</ele>
        <time>2026-04-30T11:54:16.000Z</time>
      </trkpt>
      <trkpt lat="43.98333" lon="3.01552">
        <ele>800</ele>
        <time>2026-04-30T11:54:17.000Z</time>
      </trkpt>
      <trkpt lat="43.98333" lon="3.01551">
        <ele>800.1</ele>
        <time>2026-04-30T11:54:18.000Z</time>
      </trkpt>
      <trkpt lat="43.98334" lon="3.01549">
        <ele>800.2</ele>
        <time>2026-04-30T11:54:19.000Z</time>
      </trkpt>
      <trkpt lat="43.98334" lon="3.01547">
        <ele>800.8</ele>
        <time>2026-04-30T11:54:20.000Z</time>
      </trkpt>
      <trkpt lat="43.98334" lon="3.01545">
        <ele>801.3</ele>
        <time>2026-04-30T11:54:21.000Z</time>
      </trkpt>
      <trkpt lat="43.98334" lon="3.01543">
        <ele>801.4</ele>
        <time>2026-04-30T11:54:22.000Z</time>
      </trkpt>
      <trkpt lat="43.98335" lon="3.01543">
        <ele>801.3</ele>
        <time>2026-04-30T11:54:23.000Z</time>
      </trkpt>
      <trkpt lat="43.98335" lon="3.01542">
        <ele>801.2</ele>
        <time>2026-04-30T11:54:24.000Z</time>
      </trkpt>
      <trkpt lat="43.98335" lon="3.01541">
        <ele>801</ele>
        <time>2026-04-30T11:54:25.000Z</time>
      </trkpt>
      <trkpt lat="43.98336" lon="3.01539">
        <ele>800.6</ele>
        <time>2026-04-30T11:54:26.000Z</time>
      </trkpt>
      <trkpt lat="43.98336" lon="3.01537">
        <ele>800.3</ele>
        <time>2026-04-30T11:54:27.000Z</time>
      </trkpt>
      <trkpt lat="43.98336" lon="3.01536">
        <ele>800</ele>
        <time>2026-04-30T11:54:28.000Z</time>
      </trkpt>
      <trkpt lat="43.98337" lon="3.01534">
        <ele>799.9</ele>
        <time>2026-04-30T11:54:29.000Z</time>
      </trkpt>
      <trkpt lat="43.98338" lon="3.01533">
        <ele>799.6</ele>
        <time>2026-04-30T11:54:30.000Z</time>
      </trkpt>
      <trkpt lat="43.98338" lon="3.01531">
        <ele>799.6</ele>
        <time>2026-04-30T11:54:31.000Z</time>
      </trkpt>
      <trkpt lat="43.98338" lon="3.01529">
        <ele>799.2</ele>
        <time>2026-04-30T11:54:32.000Z</time>
      </trkpt>
      <trkpt lat="43.98338" lon="3.01528">
        <ele>799.1</ele>
        <time>2026-04-30T11:54:33.000Z</time>
      </trkpt>
      <trkpt lat="43.98338" lon="3.01526">
        <ele>798.8</ele>
        <time>2026-04-30T11:54:34.000Z</time>
      </trkpt>
      <trkpt lat="43.98339" lon="3.01524">
        <ele>798.7</ele>
        <time>2026-04-30T11:54:35.000Z</time>
      </trkpt>
      <trkpt lat="43.98339" lon="3.01522">
        <ele>798.6</ele>
        <time>2026-04-30T11:54:36.000Z</time>
      </trkpt>
      <trkpt lat="43.9834" lon="3.01521">
        <ele>798.5</ele>
        <time>2026-04-30T11:54:37.000Z</time>
      </trkpt>
      <trkpt lat="43.9834" lon="3.01519">
        <ele>798.3</ele>
        <time>2026-04-30T11:54:38.000Z</time>
      </trkpt>
      <trkpt lat="43.98341" lon="3.01517">
        <ele>798.2</ele>
        <time>2026-04-30T11:54:39.000Z</time>
      </trkpt>
      <trkpt lat="43.98341" lon="3.01516">
        <ele>798</ele>
        <time>2026-04-30T11:54:40.000Z</time>
      </trkpt>
      <trkpt lat="43.98341" lon="3.01515">
        <ele>797.5</ele>
        <time>2026-04-30T11:54:41.000Z</time>
      </trkpt>
      <trkpt lat="43.98342" lon="3.01514">
        <ele>797.2</ele>
        <time>2026-04-30T11:54:42.000Z</time>
      </trkpt>
      <trkpt lat="43.98343" lon="3.01512">
        <ele>796.8</ele>
        <time>2026-04-30T11:54:43.000Z</time>
      </trkpt>
      <trkpt lat="43.98343" lon="3.01511">
        <ele>796.5</ele>
        <time>2026-04-30T11:54:44.000Z</time>
      </trkpt>
      <trkpt lat="43.98344" lon="3.01509">
        <ele>796.3</ele>
        <time>2026-04-30T11:54:45.000Z</time>
      </trkpt>
      <trkpt lat="43.98344" lon="3.01507">
        <ele>796.3</ele>
        <time>2026-04-30T11:54:46.000Z</time>
      </trkpt>
      <trkpt lat="43.98346" lon="3.01505">
        <ele>796.5</ele>
        <time>2026-04-30T11:54:47.000Z</time>
      </trkpt>
      <trkpt lat="43.98346" lon="3.01504">
        <ele>796.3</ele>
        <time>2026-04-30T11:54:48.000Z</time>
      </trkpt>
      <trkpt lat="43.98346" lon="3.01502">
        <ele>796.2</ele>
        <time>2026-04-30T11:54:49.000Z</time>
      </trkpt>
      <trkpt lat="43.98347" lon="3.01501">
        <ele>796.2</ele>
        <time>2026-04-30T11:54:50.000Z</time>
      </trkpt>
      <trkpt lat="43.98347" lon="3.015">
        <ele>796</ele>
        <time>2026-04-30T11:54:51.000Z</time>
      </trkpt>
      <trkpt lat="43.98347" lon="3.01499">
        <ele>795.9</ele>
        <time>2026-04-30T11:54:52.000Z</time>
      </trkpt>
      <trkpt lat="43.98347" lon="3.01498">
        <ele>795.6</ele>
        <time>2026-04-30T11:54:53.000Z</time>
      </trkpt>
      <trkpt lat="43.98348" lon="3.01497">
        <ele>795.6</ele>
        <time>2026-04-30T11:54:54.000Z</time>
      </trkpt>
      <trkpt lat="43.98348" lon="3.01495">
        <ele>795.4</ele>
        <time>2026-04-30T11:54:55.000Z</time>
      </trkpt>
      <trkpt lat="43.98349" lon="3.01493">
        <ele>795.5</ele>
        <time>2026-04-30T11:54:56.000Z</time>
      </trkpt>
      <trkpt lat="43.98349" lon="3.01492">
        <ele>795.7</ele>
        <time>2026-04-30T11:54:57.000Z</time>
      </trkpt>
      <trkpt lat="43.98349" lon="3.0149">
        <ele>795.8</ele>
        <time>2026-04-30T11:54:58.000Z</time>
      </trkpt>
      <trkpt lat="43.9835" lon="3.01488">
        <ele>795.9</ele>
        <time>2026-04-30T11:54:59.000Z</time>
      </trkpt>
      <trkpt lat="43.98351" lon="3.01486">
        <ele>795.5</ele>
        <time>2026-04-30T11:55:00.000Z</time>
      </trkpt>
      <trkpt lat="43.98351" lon="3.01484">
        <ele>795.2</ele>
        <time>2026-04-30T11:55:01.000Z</time>
      </trkpt>
      <trkpt lat="43.98351" lon="3.01483">
        <ele>795.1</ele>
        <time>2026-04-30T11:55:02.000Z</time>
      </trkpt>
      <trkpt lat="43.98352" lon="3.01481">
        <ele>795.2</ele>
        <time>2026-04-30T11:55:03.000Z</time>
      </trkpt>
      <trkpt lat="43.98352" lon="3.0148">
        <ele>795.2</ele>
        <time>2026-04-30T11:55:04.000Z</time>
      </trkpt>
      <trkpt lat="43.98353" lon="3.01477">
        <ele>794.9</ele>
        <time>2026-04-30T11:55:05.000Z</time>
      </trkpt>
      <trkpt lat="43.98353" lon="3.01475">
        <ele>794.8</ele>
        <time>2026-04-30T11:55:06.000Z</time>
      </trkpt>
      <trkpt lat="43.98354" lon="3.01472">
        <ele>794.9</ele>
        <time>2026-04-30T11:55:07.000Z</time>
      </trkpt>
      <trkpt lat="43.98354" lon="3.0147">
        <ele>795.1</ele>
        <time>2026-04-30T11:55:08.000Z</time>
      </trkpt>
      <trkpt lat="43.98355" lon="3.01469">
        <ele>795.5</ele>
        <time>2026-04-30T11:55:09.000Z</time>
      </trkpt>
      <trkpt lat="43.98354" lon="3.01467">
        <ele>795.9</ele>
        <time>2026-04-30T11:55:10.000Z</time>
      </trkpt>
      <trkpt lat="43.98354" lon="3.01466">
        <ele>795.8</ele>
        <time>2026-04-30T11:55:11.000Z</time>
      </trkpt>
      <trkpt lat="43.98354" lon="3.01465">
        <ele>795.4</ele>
        <time>2026-04-30T11:55:12.000Z</time>
      </trkpt>
      <trkpt lat="43.98353" lon="3.01463">
        <ele>795.2</ele>
        <time>2026-04-30T11:55:13.000Z</time>
      </trkpt>
      <trkpt lat="43.98353" lon="3.01462">
        <ele>794.8</ele>
        <time>2026-04-30T11:55:14.000Z</time>
      </trkpt>
      <trkpt lat="43.98352" lon="3.01461">
        <ele>794.4</ele>
        <time>2026-04-30T11:55:15.000Z</time>
      </trkpt>
      <trkpt lat="43.98353" lon="3.01459">
        <ele>794.3</ele>
        <time>2026-04-30T11:55:16.000Z</time>
      </trkpt>
      <trkpt lat="43.98353" lon="3.01457">
        <ele>794</ele>
        <time>2026-04-30T11:55:17.000Z</time>
      </trkpt>
      <trkpt lat="43.98354" lon="3.01455">
        <ele>794</ele>
        <time>2026-04-30T11:55:18.000Z</time>
      </trkpt>
      <trkpt lat="43.98354" lon="3.01453">
        <ele>793.8</ele>
        <time>2026-04-30T11:55:19.000Z</time>
      </trkpt>
      <trkpt lat="43.98354" lon="3.01451">
        <ele>793.7</ele>
        <time>2026-04-30T11:55:20.000Z</time>
      </trkpt>
      <trkpt lat="43.98354" lon="3.0145">
        <ele>793.9</ele>
        <time>2026-04-30T11:55:21.000Z</time>
      </trkpt>
      <trkpt lat="43.98354" lon="3.01449">
        <ele>793.9</ele>
        <time>2026-04-30T11:55:22.000Z</time>
      </trkpt>
      <trkpt lat="43.98353" lon="3.01447">
        <ele>794</ele>
        <time>2026-04-30T11:55:23.000Z</time>
      </trkpt>
      <trkpt lat="43.98353" lon="3.01446">
        <ele>794</ele>
        <time>2026-04-30T11:55:24.000Z</time>
      </trkpt>
      <trkpt lat="43.98352" lon="3.01444">
        <ele>794</ele>
        <time>2026-04-30T11:55:25.000Z</time>
      </trkpt>
      <trkpt lat="43.98352" lon="3.01443">
        <ele>793.9</ele>
        <time>2026-04-30T11:55:26.000Z</time>
      </trkpt>
      <trkpt lat="43.98351" lon="3.01441">
        <ele>794</ele>
        <time>2026-04-30T11:55:27.000Z</time>
      </trkpt>
      <trkpt lat="43.98351" lon="3.0144">
        <ele>794</ele>
        <time>2026-04-30T11:55:28.000Z</time>
      </trkpt>
      <trkpt lat="43.98351" lon="3.01438">
        <ele>794.1</ele>
        <time>2026-04-30T11:55:29.000Z</time>
      </trkpt>
      <trkpt lat="43.98352" lon="3.01437">
        <ele>794.1</ele>
        <time>2026-04-30T11:55:30.000Z</time>
      </trkpt>
      <trkpt lat="43.98351" lon="3.01434">
        <ele>794.2</ele>
        <time>2026-04-30T11:55:31.000Z</time>
      </trkpt>
      <trkpt lat="43.98351" lon="3.01432">
        <ele>794.6</ele>
        <time>2026-04-30T11:55:32.000Z</time>
      </trkpt>
      <trkpt lat="43.98351" lon="3.0143">
        <ele>794.8</ele>
        <time>2026-04-30T11:55:33.000Z</time>
      </trkpt>
      <trkpt lat="43.98351" lon="3.01428">
        <ele>795.4</ele>
        <time>2026-04-30T11:55:34.000Z</time>
      </trkpt>
      <trkpt lat="43.98351" lon="3.01426">
        <ele>796</ele>
        <time>2026-04-30T11:55:35.000Z</time>
      </trkpt>
      <trkpt lat="43.9835" lon="3.01425">
        <ele>796.2</ele>
        <time>2026-04-30T11:55:36.000Z</time>
      </trkpt>
      <trkpt lat="43.98351" lon="3.01423">
        <ele>796.3</ele>
        <time>2026-04-30T11:55:37.000Z</time>
      </trkpt>
      <trkpt lat="43.98351" lon="3.01422">
        <ele>796.5</ele>
        <time>2026-04-30T11:55:38.000Z</time>
      </trkpt>
      <trkpt lat="43.9835" lon="3.0142">
        <ele>796.5</ele>
        <time>2026-04-30T11:55:39.000Z</time>
      </trkpt>
      <trkpt lat="43.9835" lon="3.01419">
        <ele>796.3</ele>
        <time>2026-04-30T11:55:40.000Z</time>
      </trkpt>
      <trkpt lat="43.9835" lon="3.01418">
        <ele>796.5</ele>
        <time>2026-04-30T11:55:41.000Z</time>
      </trkpt>
      <trkpt lat="43.98351" lon="3.01417">
        <ele>796.3</ele>
        <time>2026-04-30T11:55:42.000Z</time>
      </trkpt>
      <trkpt lat="43.9835" lon="3.01416">
        <ele>796.4</ele>
        <time>2026-04-30T11:55:43.000Z</time>
      </trkpt>
      <trkpt lat="43.9835" lon="3.01414">
        <ele>796.4</ele>
        <time>2026-04-30T11:55:44.000Z</time>
      </trkpt>
      <trkpt lat="43.98349" lon="3.01412">
        <ele>796.1</ele>
        <time>2026-04-30T11:55:45.000Z</time>
      </trkpt>
      <trkpt lat="43.98349" lon="3.0141">
        <ele>796.2</ele>
        <time>2026-04-30T11:55:46.000Z</time>
      </trkpt>
      <trkpt lat="43.98349" lon="3.01408">
        <ele>796</ele>
        <time>2026-04-30T11:55:47.000Z</time>
      </trkpt>
      <trkpt lat="43.98348" lon="3.01407">
        <ele>795.8</ele>
        <time>2026-04-30T11:55:48.000Z</time>
      </trkpt>
      <trkpt lat="43.98348" lon="3.01405">
        <ele>795.7</ele>
        <time>2026-04-30T11:55:49.000Z</time>
      </trkpt>
      <trkpt lat="43.98348" lon="3.01404">
        <ele>795.6</ele>
        <time>2026-04-30T11:55:50.000Z</time>
      </trkpt>
      <trkpt lat="43.98348" lon="3.01402">
        <ele>795.4</ele>
        <time>2026-04-30T11:55:51.000Z</time>
      </trkpt>
      <trkpt lat="43.98348" lon="3.01401">
        <ele>795.1</ele>
        <time>2026-04-30T11:55:52.000Z</time>
      </trkpt>
      <trkpt lat="43.98348" lon="3.01399">
        <ele>794.7</ele>
        <time>2026-04-30T11:55:53.000Z</time>
      </trkpt>
      <trkpt lat="43.98348" lon="3.01397">
        <ele>794.4</ele>
        <time>2026-04-30T11:55:54.000Z</time>
      </trkpt>
      <trkpt lat="43.98348" lon="3.01395">
        <ele>794.5</ele>
        <time>2026-04-30T11:55:55.000Z</time>
      </trkpt>
      <trkpt lat="43.98348" lon="3.01392">
        <ele>794.7</ele>
        <time>2026-04-30T11:55:56.000Z</time>
      </trkpt>
      <trkpt lat="43.98348" lon="3.0139">
        <ele>794.9</ele>
        <time>2026-04-30T11:55:57.000Z</time>
      </trkpt>
      <trkpt lat="43.98348" lon="3.01389">
        <ele>794.6</ele>
        <time>2026-04-30T11:55:58.000Z</time>
      </trkpt>
      <trkpt lat="43.98349" lon="3.01387">
        <ele>794.3</ele>
        <time>2026-04-30T11:55:59.000Z</time>
      </trkpt>
      <trkpt lat="43.98349" lon="3.01386">
        <ele>794.2</ele>
        <time>2026-04-30T11:56:00.000Z</time>
      </trkpt>
      <trkpt lat="43.98349" lon="3.01385">
        <ele>794.1</ele>
        <time>2026-04-30T11:56:01.000Z</time>
      </trkpt>
      <trkpt lat="43.98349" lon="3.01383">
        <ele>794.2</ele>
        <time>2026-04-30T11:56:02.000Z</time>
      </trkpt>
      <trkpt lat="43.98348" lon="3.01381">
        <ele>794.3</ele>
        <time>2026-04-30T11:56:03.000Z</time>
      </trkpt>
      <trkpt lat="43.98349" lon="3.01379">
        <ele>794.2</ele>
        <time>2026-04-30T11:56:04.000Z</time>
      </trkpt>
      <trkpt lat="43.98348" lon="3.01377">
        <ele>794.3</ele>
        <time>2026-04-30T11:56:05.000Z</time>
      </trkpt>
      <trkpt lat="43.98348" lon="3.01376">
        <ele>794.4</ele>
        <time>2026-04-30T11:56:06.000Z</time>
      </trkpt>
      <trkpt lat="43.98348" lon="3.01374">
        <ele>794.5</ele>
        <time>2026-04-30T11:56:07.000Z</time>
      </trkpt>
      <trkpt lat="43.98348" lon="3.01373">
        <ele>794.8</ele>
        <time>2026-04-30T11:56:08.000Z</time>
      </trkpt>
      <trkpt lat="43.98348" lon="3.01371">
        <ele>794.8</ele>
        <time>2026-04-30T11:56:09.000Z</time>
      </trkpt>
      <trkpt lat="43.98348" lon="3.0137">
        <ele>794.8</ele>
        <time>2026-04-30T11:56:10.000Z</time>
      </trkpt>
      <trkpt lat="43.98349" lon="3.01368">
        <ele>794.8</ele>
        <time>2026-04-30T11:56:11.000Z</time>
      </trkpt>
      <trkpt lat="43.98349" lon="3.01367">
        <ele>794.7</ele>
        <time>2026-04-30T11:56:12.000Z</time>
      </trkpt>
      <trkpt lat="43.98349" lon="3.01365">
        <ele>794.7</ele>
        <time>2026-04-30T11:56:13.000Z</time>
      </trkpt>
      <trkpt lat="43.98349" lon="3.01363">
        <ele>794.6</ele>
        <time>2026-04-30T11:56:14.000Z</time>
      </trkpt>
      <trkpt lat="43.98349" lon="3.01361">
        <ele>794.6</ele>
        <time>2026-04-30T11:56:15.000Z</time>
      </trkpt>
      <trkpt lat="43.98349" lon="3.01359">
        <ele>794.7</ele>
        <time>2026-04-30T11:56:16.000Z</time>
      </trkpt>
      <trkpt lat="43.98349" lon="3.01357">
        <ele>794.7</ele>
        <time>2026-04-30T11:56:17.000Z</time>
      </trkpt>
      <trkpt lat="43.98349" lon="3.01355">
        <ele>794.8</ele>
        <time>2026-04-30T11:56:18.000Z</time>
      </trkpt>
      <trkpt lat="43.98349" lon="3.01354">
        <ele>794.6</ele>
        <time>2026-04-30T11:56:19.000Z</time>
      </trkpt>
      <trkpt lat="43.98349" lon="3.01353">
        <ele>794.6</ele>
        <time>2026-04-30T11:56:20.000Z</time>
      </trkpt>
      <trkpt lat="43.98349" lon="3.01352">
        <ele>794.6</ele>
        <time>2026-04-30T11:56:21.000Z</time>
      </trkpt>
      <trkpt lat="43.98349" lon="3.0135">
        <ele>794.5</ele>
        <time>2026-04-30T11:56:22.000Z</time>
      </trkpt>
      <trkpt lat="43.98349" lon="3.01348">
        <ele>794.4</ele>
        <time>2026-04-30T11:56:23.000Z</time>
      </trkpt>
      <trkpt lat="43.98349" lon="3.01345">
        <ele>794.3</ele>
        <time>2026-04-30T11:56:24.000Z</time>
      </trkpt>
      <trkpt lat="43.98349" lon="3.01343">
        <ele>794.6</ele>
        <time>2026-04-30T11:56:25.000Z</time>
      </trkpt>
      <trkpt lat="43.98349" lon="3.01342">
        <ele>794.8</ele>
        <time>2026-04-30T11:56:26.000Z</time>
      </trkpt>
      <trkpt lat="43.98349" lon="3.0134">
        <ele>794.9</ele>
        <time>2026-04-30T11:56:27.000Z</time>
      </trkpt>
      <trkpt lat="43.98349" lon="3.01339">
        <ele>794.8</ele>
        <time>2026-04-30T11:56:28.000Z</time>
      </trkpt>
      <trkpt lat="43.98348" lon="3.01338">
        <ele>794.8</ele>
        <time>2026-04-30T11:56:29.000Z</time>
      </trkpt>
      <trkpt lat="43.98348" lon="3.01337">
        <ele>794.6</ele>
        <time>2026-04-30T11:56:30.000Z</time>
      </trkpt>
      <trkpt lat="43.98349" lon="3.01335">
        <ele>794.5</ele>
        <time>2026-04-30T11:56:31.000Z</time>
      </trkpt>
      <trkpt lat="43.98349" lon="3.01333">
        <ele>794.6</ele>
        <time>2026-04-30T11:56:32.000Z</time>
      </trkpt>
      <trkpt lat="43.98349" lon="3.01331">
        <ele>794.6</ele>
        <time>2026-04-30T11:56:33.000Z</time>
      </trkpt>
      <trkpt lat="43.98349" lon="3.01329">
        <ele>794.7</ele>
        <time>2026-04-30T11:56:34.000Z</time>
      </trkpt>
      <trkpt lat="43.98349" lon="3.01328">
        <ele>794.8</ele>
        <time>2026-04-30T11:56:35.000Z</time>
      </trkpt>
      <trkpt lat="43.98349" lon="3.01327">
        <ele>794.9</ele>
        <time>2026-04-30T11:56:36.000Z</time>
      </trkpt>
      <trkpt lat="43.98349" lon="3.01325">
        <ele>795.1</ele>
        <time>2026-04-30T11:56:37.000Z</time>
      </trkpt>
      <trkpt lat="43.98348" lon="3.01323">
        <ele>795.4</ele>
        <time>2026-04-30T11:56:38.000Z</time>
      </trkpt>
      <trkpt lat="43.98348" lon="3.01321">
        <ele>795.7</ele>
        <time>2026-04-30T11:56:39.000Z</time>
      </trkpt>
      <trkpt lat="43.98348" lon="3.0132">
        <ele>795.6</ele>
        <time>2026-04-30T11:56:40.000Z</time>
      </trkpt>
      <trkpt lat="43.98348" lon="3.01319">
        <ele>795.7</ele>
        <time>2026-04-30T11:56:41.000Z</time>
      </trkpt>
      <trkpt lat="43.98348" lon="3.01318">
        <ele>795.8</ele>
        <time>2026-04-30T11:56:42.000Z</time>
      </trkpt>
      <trkpt lat="43.98348" lon="3.01317">
        <ele>795.8</ele>
        <time>2026-04-30T11:56:43.000Z</time>
      </trkpt>
      <trkpt lat="43.98348" lon="3.01317">
        <ele>795.9</ele>
        <time>2026-04-30T11:56:44.000Z</time>
      </trkpt>
      <trkpt lat="43.98349" lon="3.01315">
        <ele>795.8</ele>
        <time>2026-04-30T11:56:45.000Z</time>
      </trkpt>
      <trkpt lat="43.9835" lon="3.01314">
        <ele>795.7</ele>
        <time>2026-04-30T11:56:46.000Z</time>
      </trkpt>
      <trkpt lat="43.9835" lon="3.01313">
        <ele>795.6</ele>
        <time>2026-04-30T11:56:47.000Z</time>
      </trkpt>
      <trkpt lat="43.9835" lon="3.01313">
        <ele>795.3</ele>
        <time>2026-04-30T11:56:48.000Z</time>
      </trkpt>
      <trkpt lat="43.98349" lon="3.01313">
        <ele>795.2</ele>
        <time>2026-04-30T11:56:49.000Z</time>
      </trkpt>
      <trkpt lat="43.98349" lon="3.01313">
        <ele>794.9</ele>
        <time>2026-04-30T11:56:50.000Z</time>
      </trkpt>
      <trkpt lat="43.98349" lon="3.01313">
        <ele>794.9</ele>
        <time>2026-04-30T11:56:51.000Z</time>
      </trkpt>
      <trkpt lat="43.98349" lon="3.01314">
        <ele>795.2</ele>
        <time>2026-04-30T11:56:52.000Z</time>
      </trkpt>
      <trkpt lat="43.98349" lon="3.01314">
        <ele>795.3</ele>
        <time>2026-04-30T11:56:53.000Z</time>
      </trkpt>
      <trkpt lat="43.98349" lon="3.01313">
        <ele>795.4</ele>
        <time>2026-04-30T11:56:54.000Z</time>
      </trkpt>
      <trkpt lat="43.98349" lon="3.01313">
        <ele>795.5</ele>
        <time>2026-04-30T11:56:55.000Z</time>
      </trkpt>
      <trkpt lat="43.98349" lon="3.01313">
        <ele>795.5</ele>
        <time>2026-04-30T11:56:56.000Z</time>
      </trkpt>
      <trkpt lat="43.98349" lon="3.01313">
        <ele>795.8</ele>
        <time>2026-04-30T11:56:57.000Z</time>
      </trkpt>
      <trkpt lat="43.98349" lon="3.01313">
        <ele>795.8</ele>
        <time>2026-04-30T11:56:58.000Z</time>
      </trkpt>
      <trkpt lat="43.98349" lon="3.01313">
        <ele>796</ele>
        <time>2026-04-30T11:56:59.000Z</time>
      </trkpt>
      <trkpt lat="43.9835" lon="3.01312">
        <ele>796.5</ele>
        <time>2026-04-30T11:57:00.000Z</time>
      </trkpt>
      <trkpt lat="43.9835" lon="3.01311">
        <ele>796.6</ele>
        <time>2026-04-30T11:57:01.000Z</time>
      </trkpt>
      <trkpt lat="43.9835" lon="3.01313">
        <ele>796.8</ele>
        <time>2026-04-30T11:57:02.000Z</time>
      </trkpt>
      <trkpt lat="43.9835" lon="3.01313">
        <ele>796.3</ele>
        <time>2026-04-30T11:57:03.000Z</time>
      </trkpt>
      <trkpt lat="43.9835" lon="3.01313">
        <ele>796</ele>
        <time>2026-04-30T11:57:04.000Z</time>
      </trkpt>
      <trkpt lat="43.98351" lon="3.01313">
        <ele>796</ele>
        <time>2026-04-30T11:57:05.000Z</time>
      </trkpt>
      <trkpt lat="43.9835" lon="3.01313">
        <ele>795.7</ele>
        <time>2026-04-30T11:57:06.000Z</time>
      </trkpt>
      <trkpt lat="43.9835" lon="3.01313">
        <ele>795.5</ele>
        <time>2026-04-30T11:57:07.000Z</time>
      </trkpt>
      <trkpt lat="43.9835" lon="3.01313">
        <ele>795.5</ele>
        <time>2026-04-30T11:57:08.000Z</time>
      </trkpt>
      <trkpt lat="43.98349" lon="3.01313">
        <ele>795.3</ele>
        <time>2026-04-30T11:57:09.000Z</time>
      </trkpt>
      <trkpt lat="43.98349" lon="3.01313">
        <ele>795.1</ele>
        <time>2026-04-30T11:57:10.000Z</time>
      </trkpt>
      <trkpt lat="43.98349" lon="3.01313">
        <ele>795.3</ele>
        <time>2026-04-30T11:57:11.000Z</time>
      </trkpt>
      <trkpt lat="43.98349" lon="3.01313">
        <ele>795.3</ele>
        <time>2026-04-30T11:57:12.000Z</time>
      </trkpt>
      <trkpt lat="43.98349" lon="3.01313">
        <ele>795.3</ele>
        <time>2026-04-30T11:57:13.000Z</time>
      </trkpt>
      <trkpt lat="43.9835" lon="3.01313">
        <ele>795.2</ele>
        <time>2026-04-30T11:57:14.000Z</time>
      </trkpt>
      <trkpt lat="43.9835" lon="3.01313">
        <ele>795</ele>
        <time>2026-04-30T11:57:15.000Z</time>
      </trkpt>
      <trkpt lat="43.9835" lon="3.01313">
        <ele>794.8</ele>
        <time>2026-04-30T11:57:16.000Z</time>
      </trkpt>
      <trkpt lat="43.98349" lon="3.01313">
        <ele>794.6</ele>
        <time>2026-04-30T11:57:17.000Z</time>
      </trkpt>
      <trkpt lat="43.98349" lon="3.01313">
        <ele>794.7</ele>
        <time>2026-04-30T11:57:18.000Z</time>
      </trkpt>
      <trkpt lat="43.9835" lon="3.01313">
        <ele>795</ele>
        <time>2026-04-30T11:57:19.000Z</time>
      </trkpt>
      <trkpt lat="43.9835" lon="3.01312">
        <ele>795.3</ele>
        <time>2026-04-30T11:57:20.000Z</time>
      </trkpt>
      <trkpt lat="43.9835" lon="3.01312">
        <ele>795.5</ele>
        <time>2026-04-30T11:57:21.000Z</time>
      </trkpt>
      <trkpt lat="43.9835" lon="3.01312">
        <ele>795.7</ele>
        <time>2026-04-30T11:57:22.000Z</time>
      </trkpt>
      <trkpt lat="43.9835" lon="3.01311">
        <ele>795.8</ele>
        <time>2026-04-30T11:57:23.000Z</time>
      </trkpt>
      <trkpt lat="43.9835" lon="3.01311">
        <ele>795.9</ele>
        <time>2026-04-30T11:57:24.000Z</time>
      </trkpt>
      <trkpt lat="43.9835" lon="3.01311">
        <ele>795.8</ele>
        <time>2026-04-30T11:57:25.000Z</time>
      </trkpt>
      <trkpt lat="43.9835" lon="3.0131">
        <ele>795.7</ele>
        <time>2026-04-30T11:57:26.000Z</time>
      </trkpt>
      <trkpt lat="43.9835" lon="3.0131">
        <ele>795.9</ele>
        <time>2026-04-30T11:57:27.000Z</time>
      </trkpt>
      <trkpt lat="43.9835" lon="3.01309">
        <ele>795.9</ele>
        <time>2026-04-30T11:57:28.000Z</time>
      </trkpt>
      <trkpt lat="43.98351" lon="3.01306">
        <ele>796.1</ele>
        <time>2026-04-30T11:57:29.000Z</time>
      </trkpt>
      <trkpt lat="43.98351" lon="3.01304">
        <ele>796.3</ele>
        <time>2026-04-30T11:57:30.000Z</time>
      </trkpt>
      <trkpt lat="43.98351" lon="3.01303">
        <ele>796.3</ele>
        <time>2026-04-30T11:57:31.000Z</time>
      </trkpt>
      <trkpt lat="43.98351" lon="3.01302">
        <ele>796</ele>
        <time>2026-04-30T11:57:32.000Z</time>
      </trkpt>
      <trkpt lat="43.98351" lon="3.013">
        <ele>796</ele>
        <time>2026-04-30T11:57:33.000Z</time>
      </trkpt>
      <trkpt lat="43.98351" lon="3.01299">
        <ele>796</ele>
        <time>2026-04-30T11:57:34.000Z</time>
      </trkpt>
      <trkpt lat="43.9835" lon="3.01299">
        <ele>796.2</ele>
        <time>2026-04-30T11:57:35.000Z</time>
      </trkpt>
      <trkpt lat="43.9835" lon="3.01299">
        <ele>796.5</ele>
        <time>2026-04-30T11:57:36.000Z</time>
      </trkpt>
      <trkpt lat="43.9835" lon="3.01299">
        <ele>796.9</ele>
        <time>2026-04-30T11:57:37.000Z</time>
      </trkpt>
      <trkpt lat="43.9835" lon="3.01299">
        <ele>797.2</ele>
        <time>2026-04-30T11:57:38.000Z</time>
      </trkpt>
      <trkpt lat="43.9835" lon="3.01299">
        <ele>796.7</ele>
        <time>2026-04-30T11:57:39.000Z</time>
      </trkpt>
      <trkpt lat="43.9835" lon="3.01299">
        <ele>796.8</ele>
        <time>2026-04-30T11:57:40.000Z</time>
      </trkpt>
      <trkpt lat="43.9835" lon="3.01299">
        <ele>796.6</ele>
        <time>2026-04-30T11:57:41.000Z</time>
      </trkpt>
      <trkpt lat="43.9835" lon="3.01299">
        <ele>796.6</ele>
        <time>2026-04-30T11:57:42.000Z</time>
      </trkpt>
      <trkpt lat="43.98351" lon="3.01299">
        <ele>796.8</ele>
        <time>2026-04-30T11:57:43.000Z</time>
      </trkpt>
      <trkpt lat="43.98351" lon="3.01299">
        <ele>796.8</ele>
        <time>2026-04-30T11:57:44.000Z</time>
      </trkpt>
      <trkpt lat="43.98351" lon="3.01298">
        <ele>796.5</ele>
        <time>2026-04-30T11:57:45.000Z</time>
      </trkpt>
      <trkpt lat="43.98351" lon="3.01298">
        <ele>796.5</ele>
        <time>2026-04-30T11:57:46.000Z</time>
      </trkpt>
      <trkpt lat="43.98351" lon="3.01298">
        <ele>796.5</ele>
        <time>2026-04-30T11:57:47.000Z</time>
      </trkpt>
      <trkpt lat="43.98352" lon="3.01297">
        <ele>796.5</ele>
        <time>2026-04-30T11:57:48.000Z</time>
      </trkpt>
      <trkpt lat="43.98353" lon="3.01296">
        <ele>796.7</ele>
        <time>2026-04-30T11:57:49.000Z</time>
      </trkpt>
      <trkpt lat="43.98354" lon="3.01295">
        <ele>796.9</ele>
        <time>2026-04-30T11:57:50.000Z</time>
      </trkpt>
      <trkpt lat="43.98355" lon="3.01295">
        <ele>797.1</ele>
        <time>2026-04-30T11:57:51.000Z</time>
      </trkpt>
      <trkpt lat="43.98354" lon="3.01295">
        <ele>797.4</ele>
        <time>2026-04-30T11:57:52.000Z</time>
      </trkpt>
      <trkpt lat="43.98354" lon="3.01296">
        <ele>797.3</ele>
        <time>2026-04-30T11:57:53.000Z</time>
      </trkpt>
      <trkpt lat="43.98354" lon="3.01296">
        <ele>797.4</ele>
        <time>2026-04-30T11:57:54.000Z</time>
      </trkpt>
      <trkpt lat="43.98354" lon="3.01296">
        <ele>797.7</ele>
        <time>2026-04-30T11:57:55.000Z</time>
      </trkpt>
      <trkpt lat="43.98354" lon="3.01296">
        <ele>797.9</ele>
        <time>2026-04-30T11:57:56.000Z</time>
      </trkpt>
      <trkpt lat="43.98354" lon="3.01296">
        <ele>798.1</ele>
        <time>2026-04-30T11:57:57.000Z</time>
      </trkpt>
      <trkpt lat="43.98355" lon="3.01295">
        <ele>798.2</ele>
        <time>2026-04-30T11:57:58.000Z</time>
      </trkpt>
      <trkpt lat="43.98356" lon="3.01294">
        <ele>798.3</ele>
        <time>2026-04-30T11:57:59.000Z</time>
      </trkpt>
      <trkpt lat="43.98356" lon="3.01293">
        <ele>798.4</ele>
        <time>2026-04-30T11:58:00.000Z</time>
      </trkpt>
      <trkpt lat="43.98356" lon="3.01293">
        <ele>798.5</ele>
        <time>2026-04-30T11:58:01.000Z</time>
      </trkpt>
      <trkpt lat="43.98356" lon="3.01293">
        <ele>798.5</ele>
        <time>2026-04-30T11:58:02.000Z</time>
      </trkpt>
      <trkpt lat="43.98356" lon="3.01293">
        <ele>798.6</ele>
        <time>2026-04-30T11:58:03.000Z</time>
      </trkpt>
      <trkpt lat="43.98356" lon="3.01291">
        <ele>798.8</ele>
        <time>2026-04-30T11:58:04.000Z</time>
      </trkpt>
      <trkpt lat="43.98357" lon="3.0129">
        <ele>798.8</ele>
        <time>2026-04-30T11:58:05.000Z</time>
      </trkpt>
      <trkpt lat="43.98358" lon="3.01288">
        <ele>798.9</ele>
        <time>2026-04-30T11:58:06.000Z</time>
      </trkpt>
      <trkpt lat="43.98358" lon="3.01287">
        <ele>798.8</ele>
        <time>2026-04-30T11:58:07.000Z</time>
      </trkpt>
      <trkpt lat="43.9836" lon="3.01285">
        <ele>798.5</ele>
        <time>2026-04-30T11:58:08.000Z</time>
      </trkpt>
      <trkpt lat="43.98361" lon="3.01284">
        <ele>798.2</ele>
        <time>2026-04-30T11:58:09.000Z</time>
      </trkpt>
      <trkpt lat="43.98363" lon="3.01284">
        <ele>798.1</ele>
        <time>2026-04-30T11:58:10.000Z</time>
      </trkpt>
      <trkpt lat="43.98364" lon="3.01283">
        <ele>798.2</ele>
        <time>2026-04-30T11:58:11.000Z</time>
      </trkpt>
      <trkpt lat="43.98365" lon="3.01282">
        <ele>798.4</ele>
        <time>2026-04-30T11:58:12.000Z</time>
      </trkpt>
      <trkpt lat="43.98366" lon="3.01281">
        <ele>798.4</ele>
        <time>2026-04-30T11:58:13.000Z</time>
      </trkpt>
      <trkpt lat="43.98367" lon="3.01279">
        <ele>798.6</ele>
        <time>2026-04-30T11:58:14.000Z</time>
      </trkpt>
      <trkpt lat="43.98368" lon="3.01278">
        <ele>798.7</ele>
        <time>2026-04-30T11:58:15.000Z</time>
      </trkpt>
      <trkpt lat="43.98369" lon="3.01278">
        <ele>798.6</ele>
        <time>2026-04-30T11:58:16.000Z</time>
      </trkpt>
      <trkpt lat="43.9837" lon="3.01278">
        <ele>798.5</ele>
        <time>2026-04-30T11:58:17.000Z</time>
      </trkpt>
      <trkpt lat="43.98371" lon="3.01279">
        <ele>798.5</ele>
        <time>2026-04-30T11:58:18.000Z</time>
      </trkpt>
      <trkpt lat="43.98371" lon="3.0128">
        <ele>798.6</ele>
        <time>2026-04-30T11:58:19.000Z</time>
      </trkpt>
      <trkpt lat="43.98372" lon="3.0128">
        <ele>798.7</ele>
        <time>2026-04-30T11:58:20.000Z</time>
      </trkpt>
      <trkpt lat="43.98373" lon="3.01281">
        <ele>798.8</ele>
        <time>2026-04-30T11:58:21.000Z</time>
      </trkpt>
      <trkpt lat="43.98374" lon="3.0128">
        <ele>798.9</ele>
        <time>2026-04-30T11:58:22.000Z</time>
      </trkpt>
      <trkpt lat="43.98375" lon="3.01281">
        <ele>798.7</ele>
        <time>2026-04-30T11:58:23.000Z</time>
      </trkpt>
      <trkpt lat="43.98376" lon="3.01281">
        <ele>798.3</ele>
        <time>2026-04-30T11:58:24.000Z</time>
      </trkpt>
      <trkpt lat="43.98377" lon="3.0128">
        <ele>798.2</ele>
        <time>2026-04-30T11:58:25.000Z</time>
      </trkpt>
      <trkpt lat="43.98378" lon="3.0128">
        <ele>798.3</ele>
        <time>2026-04-30T11:58:26.000Z</time>
      </trkpt>
      <trkpt lat="43.98379" lon="3.0128">
        <ele>798.2</ele>
        <time>2026-04-30T11:58:27.000Z</time>
      </trkpt>
      <trkpt lat="43.98379" lon="3.01279">
        <ele>799.6</ele>
        <time>2026-04-30T11:58:28.000Z</time>
      </trkpt>
      <trkpt lat="43.9838" lon="3.01279">
        <ele>799.3</ele>
        <time>2026-04-30T11:58:29.000Z</time>
      </trkpt>
      <trkpt lat="43.98381" lon="3.01278">
        <ele>798.9</ele>
        <time>2026-04-30T11:58:30.000Z</time>
      </trkpt>
      <trkpt lat="43.98383" lon="3.01276">
        <ele>798.8</ele>
        <time>2026-04-30T11:58:31.000Z</time>
      </trkpt>
      <trkpt lat="43.98384" lon="3.01275">
        <ele>798.5</ele>
        <time>2026-04-30T11:58:32.000Z</time>
      </trkpt>
      <trkpt lat="43.98386" lon="3.01273">
        <ele>798.4</ele>
        <time>2026-04-30T11:58:33.000Z</time>
      </trkpt>
      <trkpt lat="43.98388" lon="3.01272">
        <ele>798.1</ele>
        <time>2026-04-30T11:58:34.000Z</time>
      </trkpt>
      <trkpt lat="43.9839" lon="3.01272">
        <ele>798.1</ele>
        <time>2026-04-30T11:58:35.000Z</time>
      </trkpt>
      <trkpt lat="43.98391" lon="3.01272">
        <ele>798.4</ele>
        <time>2026-04-30T11:58:36.000Z</time>
      </trkpt>
      <trkpt lat="43.98392" lon="3.01271">
        <ele>798.2</ele>
        <time>2026-04-30T11:58:37.000Z</time>
      </trkpt>
      <trkpt lat="43.98394" lon="3.01271">
        <ele>798.2</ele>
        <time>2026-04-30T11:58:38.000Z</time>
      </trkpt>
      <trkpt lat="43.98395" lon="3.01271">
        <ele>798.2</ele>
        <time>2026-04-30T11:58:39.000Z</time>
      </trkpt>
      <trkpt lat="43.98397" lon="3.01271">
        <ele>798</ele>
        <time>2026-04-30T11:58:40.000Z</time>
      </trkpt>
      <trkpt lat="43.98398" lon="3.0127">
        <ele>798.4</ele>
        <time>2026-04-30T11:58:41.000Z</time>
      </trkpt>
      <trkpt lat="43.984" lon="3.01269">
        <ele>798.6</ele>
        <time>2026-04-30T11:58:42.000Z</time>
      </trkpt>
      <trkpt lat="43.98401" lon="3.01269">
        <ele>798.5</ele>
        <time>2026-04-30T11:58:43.000Z</time>
      </trkpt>
      <trkpt lat="43.98403" lon="3.01268">
        <ele>798.5</ele>
        <time>2026-04-30T11:58:44.000Z</time>
      </trkpt>
      <trkpt lat="43.98404" lon="3.01266">
        <ele>798.7</ele>
        <time>2026-04-30T11:58:45.000Z</time>
      </trkpt>
      <trkpt lat="43.98406" lon="3.01265">
        <ele>798.7</ele>
        <time>2026-04-30T11:58:46.000Z</time>
      </trkpt>
      <trkpt lat="43.98407" lon="3.01265">
        <ele>798.5</ele>
        <time>2026-04-30T11:58:47.000Z</time>
      </trkpt>
      <trkpt lat="43.98408" lon="3.01264">
        <ele>798.4</ele>
        <time>2026-04-30T11:58:48.000Z</time>
      </trkpt>
      <trkpt lat="43.98409" lon="3.01263">
        <ele>798.4</ele>
        <time>2026-04-30T11:58:49.000Z</time>
      </trkpt>
      <trkpt lat="43.98411" lon="3.01263">
        <ele>798.9</ele>
        <time>2026-04-30T11:58:50.000Z</time>
      </trkpt>
      <trkpt lat="43.98412" lon="3.01262">
        <ele>799</ele>
        <time>2026-04-30T11:58:51.000Z</time>
      </trkpt>
      <trkpt lat="43.98413" lon="3.01261">
        <ele>799.2</ele>
        <time>2026-04-30T11:58:52.000Z</time>
      </trkpt>
      <trkpt lat="43.98414" lon="3.0126">
        <ele>799.3</ele>
        <time>2026-04-30T11:58:53.000Z</time>
      </trkpt>
      <trkpt lat="43.98415" lon="3.0126">
        <ele>799.4</ele>
        <time>2026-04-30T11:58:54.000Z</time>
      </trkpt>
      <trkpt lat="43.98417" lon="3.01259">
        <ele>799.3</ele>
        <time>2026-04-30T11:58:55.000Z</time>
      </trkpt>
      <trkpt lat="43.98418" lon="3.01259">
        <ele>799.2</ele>
        <time>2026-04-30T11:58:56.000Z</time>
      </trkpt>
      <trkpt lat="43.98419" lon="3.01258">
        <ele>798.9</ele>
        <time>2026-04-30T11:58:57.000Z</time>
      </trkpt>
      <trkpt lat="43.9842" lon="3.01258">
        <ele>798.9</ele>
        <time>2026-04-30T11:58:58.000Z</time>
      </trkpt>
      <trkpt lat="43.98421" lon="3.01257">
        <ele>799.1</ele>
        <time>2026-04-30T11:58:59.000Z</time>
      </trkpt>
      <trkpt lat="43.98423" lon="3.01257">
        <ele>799.5</ele>
        <time>2026-04-30T11:59:00.000Z</time>
      </trkpt>
      <trkpt lat="43.98424" lon="3.01256">
        <ele>799.4</ele>
        <time>2026-04-30T11:59:01.000Z</time>
      </trkpt>
      <trkpt lat="43.98425" lon="3.01254">
        <ele>799.8</ele>
        <time>2026-04-30T11:59:02.000Z</time>
      </trkpt>
      <trkpt lat="43.98426" lon="3.01253">
        <ele>800.1</ele>
        <time>2026-04-30T11:59:03.000Z</time>
      </trkpt>
      <trkpt lat="43.98427" lon="3.01252">
        <ele>800.1</ele>
        <time>2026-04-30T11:59:04.000Z</time>
      </trkpt>
      <trkpt lat="43.98428" lon="3.01252">
        <ele>800.1</ele>
        <time>2026-04-30T11:59:05.000Z</time>
      </trkpt>
      <trkpt lat="43.98428" lon="3.01251">
        <ele>799.9</ele>
        <time>2026-04-30T11:59:06.000Z</time>
      </trkpt>
      <trkpt lat="43.98429" lon="3.0125">
        <ele>799.7</ele>
        <time>2026-04-30T11:59:07.000Z</time>
      </trkpt>
      <trkpt lat="43.98429" lon="3.0125">
        <ele>799.5</ele>
        <time>2026-04-30T11:59:08.000Z</time>
      </trkpt>
      <trkpt lat="43.98429" lon="3.01249">
        <ele>799.5</ele>
        <time>2026-04-30T11:59:09.000Z</time>
      </trkpt>
      <trkpt lat="43.98428" lon="3.01248">
        <ele>799.4</ele>
        <time>2026-04-30T11:59:10.000Z</time>
      </trkpt>
      <trkpt lat="43.98428" lon="3.01248">
        <ele>799.6</ele>
        <time>2026-04-30T11:59:11.000Z</time>
      </trkpt>
      <trkpt lat="43.98428" lon="3.01247">
        <ele>799.9</ele>
        <time>2026-04-30T11:59:12.000Z</time>
      </trkpt>
      <trkpt lat="43.98429" lon="3.01247">
        <ele>800</ele>
        <time>2026-04-30T11:59:13.000Z</time>
      </trkpt>
      <trkpt lat="43.98429" lon="3.01247">
        <ele>800.1</ele>
        <time>2026-04-30T11:59:14.000Z</time>
      </trkpt>
      <trkpt lat="43.98428" lon="3.01247">
        <ele>800.2</ele>
        <time>2026-04-30T11:59:15.000Z</time>
      </trkpt>
      <trkpt lat="43.98428" lon="3.01247">
        <ele>800.4</ele>
        <time>2026-04-30T11:59:16.000Z</time>
      </trkpt>
      <trkpt lat="43.98428" lon="3.01247">
        <ele>800.4</ele>
        <time>2026-04-30T11:59:17.000Z</time>
      </trkpt>
      <trkpt lat="43.98428" lon="3.01247">
        <ele>800.5</ele>
        <time>2026-04-30T11:59:18.000Z</time>
      </trkpt>
      <trkpt lat="43.98428" lon="3.01247">
        <ele>800.5</ele>
        <time>2026-04-30T11:59:19.000Z</time>
      </trkpt>
      <trkpt lat="43.98428" lon="3.01247">
        <ele>800.8</ele>
        <time>2026-04-30T11:59:20.000Z</time>
      </trkpt>
      <trkpt lat="43.98428" lon="3.01247">
        <ele>801.2</ele>
        <time>2026-04-30T11:59:21.000Z</time>
      </trkpt>
      <trkpt lat="43.98428" lon="3.01247">
        <ele>801.2</ele>
        <time>2026-04-30T11:59:22.000Z</time>
      </trkpt>
      <trkpt lat="43.98428" lon="3.01247">
        <ele>800.6</ele>
        <time>2026-04-30T11:59:23.000Z</time>
      </trkpt>
      <trkpt lat="43.98428" lon="3.01246">
        <ele>800.5</ele>
        <time>2026-04-30T11:59:24.000Z</time>
      </trkpt>
      <trkpt lat="43.98428" lon="3.01246">
        <ele>800.4</ele>
        <time>2026-04-30T11:59:25.000Z</time>
      </trkpt>
      <trkpt lat="43.98428" lon="3.01246">
        <ele>800.2</ele>
        <time>2026-04-30T11:59:26.000Z</time>
      </trkpt>
      <trkpt lat="43.98428" lon="3.01247">
        <ele>800.1</ele>
        <time>2026-04-30T11:59:27.000Z</time>
      </trkpt>
      <trkpt lat="43.98429" lon="3.01246">
        <ele>800.2</ele>
        <time>2026-04-30T11:59:28.000Z</time>
      </trkpt>
      <trkpt lat="43.9843" lon="3.01245">
        <ele>800.3</ele>
        <time>2026-04-30T11:59:29.000Z</time>
      </trkpt>
      <trkpt lat="43.9843" lon="3.01244">
        <ele>799.9</ele>
        <time>2026-04-30T11:59:30.000Z</time>
      </trkpt>
      <trkpt lat="43.98431" lon="3.01242">
        <ele>800.1</ele>
        <time>2026-04-30T11:59:31.000Z</time>
      </trkpt>
      <trkpt lat="43.98431" lon="3.01241">
        <ele>800.1</ele>
        <time>2026-04-30T11:59:32.000Z</time>
      </trkpt>
      <trkpt lat="43.98432" lon="3.0124">
        <ele>800.1</ele>
        <time>2026-04-30T11:59:33.000Z</time>
      </trkpt>
      <trkpt lat="43.98433" lon="3.01239">
        <ele>800</ele>
        <time>2026-04-30T11:59:34.000Z</time>
      </trkpt>
      <trkpt lat="43.98434" lon="3.01237">
        <ele>800.2</ele>
        <time>2026-04-30T11:59:35.000Z</time>
      </trkpt>
      <trkpt lat="43.98435" lon="3.01235">
        <ele>800.2</ele>
        <time>2026-04-30T11:59:36.000Z</time>
      </trkpt>
      <trkpt lat="43.98435" lon="3.01234">
        <ele>800.4</ele>
        <time>2026-04-30T11:59:37.000Z</time>
      </trkpt>
      <trkpt lat="43.98436" lon="3.01232">
        <ele>800.6</ele>
        <time>2026-04-30T11:59:38.000Z</time>
      </trkpt>
      <trkpt lat="43.98437" lon="3.01231">
        <ele>800.6</ele>
        <time>2026-04-30T11:59:39.000Z</time>
      </trkpt>
      <trkpt lat="43.98437" lon="3.0123">
        <ele>800.8</ele>
        <time>2026-04-30T11:59:40.000Z</time>
      </trkpt>
      <trkpt lat="43.98437" lon="3.01229">
        <ele>801</ele>
        <time>2026-04-30T11:59:41.000Z</time>
      </trkpt>
      <trkpt lat="43.98437" lon="3.01228">
        <ele>801.4</ele>
        <time>2026-04-30T11:59:42.000Z</time>
      </trkpt>
      <trkpt lat="43.98437" lon="3.01227">
        <ele>801.3</ele>
        <time>2026-04-30T11:59:43.000Z</time>
      </trkpt>
      <trkpt lat="43.98437" lon="3.01228">
        <ele>801.2</ele>
        <time>2026-04-30T11:59:44.000Z</time>
      </trkpt>
      <trkpt lat="43.98437" lon="3.01228">
        <ele>801.2</ele>
        <time>2026-04-30T11:59:45.000Z</time>
      </trkpt>
      <trkpt lat="43.98437" lon="3.01228">
        <ele>801</ele>
        <time>2026-04-30T11:59:46.000Z</time>
      </trkpt>
      <trkpt lat="43.98437" lon="3.01228">
        <ele>801</ele>
        <time>2026-04-30T11:59:47.000Z</time>
      </trkpt>
      <trkpt lat="43.98437" lon="3.01228">
        <ele>801</ele>
        <time>2026-04-30T11:59:48.000Z</time>
      </trkpt>
      <trkpt lat="43.98437" lon="3.01228">
        <ele>801.1</ele>
        <time>2026-04-30T11:59:49.000Z</time>
      </trkpt>
      <trkpt lat="43.98438" lon="3.01227">
        <ele>801.2</ele>
        <time>2026-04-30T11:59:50.000Z</time>
      </trkpt>
      <trkpt lat="43.98438" lon="3.01226">
        <ele>801.3</ele>
        <time>2026-04-30T11:59:51.000Z</time>
      </trkpt>
      <trkpt lat="43.98439" lon="3.01225">
        <ele>801.3</ele>
        <time>2026-04-30T11:59:52.000Z</time>
      </trkpt>
      <trkpt lat="43.9844" lon="3.01223">
        <ele>801.2</ele>
        <time>2026-04-30T11:59:53.000Z</time>
      </trkpt>
      <trkpt lat="43.98442" lon="3.01221">
        <ele>801.1</ele>
        <time>2026-04-30T11:59:54.000Z</time>
      </trkpt>
      <trkpt lat="43.98443" lon="3.0122">
        <ele>801.1</ele>
        <time>2026-04-30T11:59:55.000Z</time>
      </trkpt>
      <trkpt lat="43.98444" lon="3.01218">
        <ele>801.2</ele>
        <time>2026-04-30T11:59:56.000Z</time>
      </trkpt>
      <trkpt lat="43.98445" lon="3.01217">
        <ele>801.1</ele>
        <time>2026-04-30T11:59:57.000Z</time>
      </trkpt>
      <trkpt lat="43.98446" lon="3.01216">
        <ele>801</ele>
        <time>2026-04-30T11:59:58.000Z</time>
      </trkpt>
      <trkpt lat="43.98447" lon="3.01216">
        <ele>800.9</ele>
        <time>2026-04-30T11:59:59.000Z</time>
      </trkpt>
      <trkpt lat="43.98449" lon="3.01214">
        <ele>800.8</ele>
        <time>2026-04-30T12:00:00.000Z</time>
      </trkpt>
      <trkpt lat="43.9845" lon="3.01213">
        <ele>800.7</ele>
        <time>2026-04-30T12:00:01.000Z</time>
      </trkpt>
      <trkpt lat="43.98451" lon="3.01212">
        <ele>800.5</ele>
        <time>2026-04-30T12:00:02.000Z</time>
      </trkpt>
      <trkpt lat="43.98452" lon="3.01211">
        <ele>800.6</ele>
        <time>2026-04-30T12:00:03.000Z</time>
      </trkpt>
      <trkpt lat="43.98453" lon="3.0121">
        <ele>800.6</ele>
        <time>2026-04-30T12:00:04.000Z</time>
      </trkpt>
      <trkpt lat="43.98454" lon="3.01209">
        <ele>800.8</ele>
        <time>2026-04-30T12:00:05.000Z</time>
      </trkpt>
      <trkpt lat="43.98455" lon="3.01208">
        <ele>800.8</ele>
        <time>2026-04-30T12:00:06.000Z</time>
      </trkpt>
      <trkpt lat="43.98456" lon="3.01208">
        <ele>800.9</ele>
        <time>2026-04-30T12:00:07.000Z</time>
      </trkpt>
      <trkpt lat="43.98457" lon="3.01207">
        <ele>801.1</ele>
        <time>2026-04-30T12:00:08.000Z</time>
      </trkpt>
      <trkpt lat="43.98457" lon="3.01207">
        <ele>801</ele>
        <time>2026-04-30T12:00:09.000Z</time>
      </trkpt>
      <trkpt lat="43.98458" lon="3.01206">
        <ele>800.8</ele>
        <time>2026-04-30T12:00:10.000Z</time>
      </trkpt>
      <trkpt lat="43.98459" lon="3.01205">
        <ele>800.7</ele>
        <time>2026-04-30T12:00:11.000Z</time>
      </trkpt>
      <trkpt lat="43.9846" lon="3.01205">
        <ele>800.6</ele>
        <time>2026-04-30T12:00:12.000Z</time>
      </trkpt>
      <trkpt lat="43.98461" lon="3.01204">
        <ele>800.6</ele>
        <time>2026-04-30T12:00:13.000Z</time>
      </trkpt>
      <trkpt lat="43.98462" lon="3.01204">
        <ele>800.6</ele>
        <time>2026-04-30T12:00:14.000Z</time>
      </trkpt>
      <trkpt lat="43.98463" lon="3.01203">
        <ele>800.5</ele>
        <time>2026-04-30T12:00:15.000Z</time>
      </trkpt>
      <trkpt lat="43.98464" lon="3.01202">
        <ele>800.5</ele>
        <time>2026-04-30T12:00:16.000Z</time>
      </trkpt>
      <trkpt lat="43.98465" lon="3.01201">
        <ele>800.7</ele>
        <time>2026-04-30T12:00:17.000Z</time>
      </trkpt>
      <trkpt lat="43.98466" lon="3.012">
        <ele>800.9</ele>
        <time>2026-04-30T12:00:18.000Z</time>
      </trkpt>
      <trkpt lat="43.98466" lon="3.01199">
        <ele>800.8</ele>
        <time>2026-04-30T12:00:19.000Z</time>
      </trkpt>
      <trkpt lat="43.98466" lon="3.01199">
        <ele>800.9</ele>
        <time>2026-04-30T12:00:20.000Z</time>
      </trkpt>
      <trkpt lat="43.98466" lon="3.01199">
        <ele>801.2</ele>
        <time>2026-04-30T12:00:21.000Z</time>
      </trkpt>
      <trkpt lat="43.98466" lon="3.01199">
        <ele>801</ele>
        <time>2026-04-30T12:00:22.000Z</time>
      </trkpt>
      <trkpt lat="43.98466" lon="3.01199">
        <ele>801.1</ele>
        <time>2026-04-30T12:00:23.000Z</time>
      </trkpt>
      <trkpt lat="43.98466" lon="3.01199">
        <ele>801.3</ele>
        <time>2026-04-30T12:00:24.000Z</time>
      </trkpt>
      <trkpt lat="43.98467" lon="3.01199">
        <ele>801.1</ele>
        <time>2026-04-30T12:00:25.000Z</time>
      </trkpt>
      <trkpt lat="43.98467" lon="3.01199">
        <ele>801.3</ele>
        <time>2026-04-30T12:00:26.000Z</time>
      </trkpt>
      <trkpt lat="43.98468" lon="3.01198">
        <ele>801.3</ele>
        <time>2026-04-30T12:00:27.000Z</time>
      </trkpt>
      <trkpt lat="43.98469" lon="3.01197">
        <ele>801</ele>
        <time>2026-04-30T12:00:28.000Z</time>
      </trkpt>
      <trkpt lat="43.9847" lon="3.01196">
        <ele>800.8</ele>
        <time>2026-04-30T12:00:29.000Z</time>
      </trkpt>
      <trkpt lat="43.98471" lon="3.01195">
        <ele>800.7</ele>
        <time>2026-04-30T12:00:30.000Z</time>
      </trkpt>
      <trkpt lat="43.98472" lon="3.01194">
        <ele>800.7</ele>
        <time>2026-04-30T12:00:31.000Z</time>
      </trkpt>
      <trkpt lat="43.98473" lon="3.01193">
        <ele>800.6</ele>
        <time>2026-04-30T12:00:32.000Z</time>
      </trkpt>
      <trkpt lat="43.98474" lon="3.01192">
        <ele>800.7</ele>
        <time>2026-04-30T12:00:33.000Z</time>
      </trkpt>
      <trkpt lat="43.98475" lon="3.01191">
        <ele>800.5</ele>
        <time>2026-04-30T12:00:34.000Z</time>
      </trkpt>
      <trkpt lat="43.98476" lon="3.0119">
        <ele>800.5</ele>
        <time>2026-04-30T12:00:35.000Z</time>
      </trkpt>
      <trkpt lat="43.98477" lon="3.01189">
        <ele>800.5</ele>
        <time>2026-04-30T12:00:36.000Z</time>
      </trkpt>
      <trkpt lat="43.98478" lon="3.01189">
        <ele>800.5</ele>
        <time>2026-04-30T12:00:37.000Z</time>
      </trkpt>
      <trkpt lat="43.9848" lon="3.01188">
        <ele>800.7</ele>
        <time>2026-04-30T12:00:38.000Z</time>
      </trkpt>
      <trkpt lat="43.9848" lon="3.01187">
        <ele>800.8</ele>
        <time>2026-04-30T12:00:39.000Z</time>
      </trkpt>
      <trkpt lat="43.98481" lon="3.01187">
        <ele>800.9</ele>
        <time>2026-04-30T12:00:40.000Z</time>
      </trkpt>
      <trkpt lat="43.98482" lon="3.01186">
        <ele>801.1</ele>
        <time>2026-04-30T12:00:41.000Z</time>
      </trkpt>
      <trkpt lat="43.98482" lon="3.01186">
        <ele>801</ele>
        <time>2026-04-30T12:00:42.000Z</time>
      </trkpt>
      <trkpt lat="43.98483" lon="3.01185">
        <ele>801.1</ele>
        <time>2026-04-30T12:00:43.000Z</time>
      </trkpt>
      <trkpt lat="43.98484" lon="3.01184">
        <ele>801.1</ele>
        <time>2026-04-30T12:00:44.000Z</time>
      </trkpt>
      <trkpt lat="43.98485" lon="3.01183">
        <ele>801.1</ele>
        <time>2026-04-30T12:00:45.000Z</time>
      </trkpt>
      <trkpt lat="43.98486" lon="3.01183">
        <ele>801.3</ele>
        <time>2026-04-30T12:00:46.000Z</time>
      </trkpt>
      <trkpt lat="43.98487" lon="3.01182">
        <ele>801.5</ele>
        <time>2026-04-30T12:00:47.000Z</time>
      </trkpt>
      <trkpt lat="43.98489" lon="3.01181">
        <ele>801.2</ele>
        <time>2026-04-30T12:00:48.000Z</time>
      </trkpt>
      <trkpt lat="43.98489" lon="3.01181">
        <ele>801.2</ele>
        <time>2026-04-30T12:00:49.000Z</time>
      </trkpt>
      <trkpt lat="43.9849" lon="3.01179">
        <ele>801.6</ele>
        <time>2026-04-30T12:00:50.000Z</time>
      </trkpt>
      <trkpt lat="43.98491" lon="3.01178">
        <ele>802</ele>
        <time>2026-04-30T12:00:51.000Z</time>
      </trkpt>
      <trkpt lat="43.98493" lon="3.01176">
        <ele>802.2</ele>
        <time>2026-04-30T12:00:52.000Z</time>
      </trkpt>
      <trkpt lat="43.98494" lon="3.01175">
        <ele>802.5</ele>
        <time>2026-04-30T12:00:53.000Z</time>
      </trkpt>
      <trkpt lat="43.98495" lon="3.01174">
        <ele>802.8</ele>
        <time>2026-04-30T12:00:54.000Z</time>
      </trkpt>
      <trkpt lat="43.98496" lon="3.01174">
        <ele>803.3</ele>
        <time>2026-04-30T12:00:55.000Z</time>
      </trkpt>
      <trkpt lat="43.98497" lon="3.01174">
        <ele>803.4</ele>
        <time>2026-04-30T12:00:56.000Z</time>
      </trkpt>
      <trkpt lat="43.98498" lon="3.01173">
        <ele>803.3</ele>
        <time>2026-04-30T12:00:57.000Z</time>
      </trkpt>
      <trkpt lat="43.98499" lon="3.01172">
        <ele>803.2</ele>
        <time>2026-04-30T12:00:58.000Z</time>
      </trkpt>
      <trkpt lat="43.985" lon="3.01172">
        <ele>802.9</ele>
        <time>2026-04-30T12:00:59.000Z</time>
      </trkpt>
      <trkpt lat="43.98501" lon="3.01171">
        <ele>802.9</ele>
        <time>2026-04-30T12:01:00.000Z</time>
      </trkpt>
      <trkpt lat="43.98502" lon="3.01171">
        <ele>802.9</ele>
        <time>2026-04-30T12:01:01.000Z</time>
      </trkpt>
      <trkpt lat="43.98503" lon="3.01171">
        <ele>803.2</ele>
        <time>2026-04-30T12:01:02.000Z</time>
      </trkpt>
      <trkpt lat="43.98504" lon="3.0117">
        <ele>803.5</ele>
        <time>2026-04-30T12:01:03.000Z</time>
      </trkpt>
      <trkpt lat="43.98504" lon="3.01169">
        <ele>803.6</ele>
        <time>2026-04-30T12:01:04.000Z</time>
      </trkpt>
      <trkpt lat="43.98506" lon="3.01169">
        <ele>803.5</ele>
        <time>2026-04-30T12:01:05.000Z</time>
      </trkpt>
      <trkpt lat="43.98506" lon="3.01167">
        <ele>803.6</ele>
        <time>2026-04-30T12:01:06.000Z</time>
      </trkpt>
      <trkpt lat="43.98507" lon="3.01166">
        <ele>803.9</ele>
        <time>2026-04-30T12:01:07.000Z</time>
      </trkpt>
      <trkpt lat="43.98508" lon="3.01165">
        <ele>804.2</ele>
        <time>2026-04-30T12:01:08.000Z</time>
      </trkpt>
      <trkpt lat="43.98509" lon="3.01165">
        <ele>804.4</ele>
        <time>2026-04-30T12:01:09.000Z</time>
      </trkpt>
      <trkpt lat="43.98509" lon="3.01164">
        <ele>803.8</ele>
        <time>2026-04-30T12:01:10.000Z</time>
      </trkpt>
      <trkpt lat="43.9851" lon="3.01164">
        <ele>803.6</ele>
        <time>2026-04-30T12:01:11.000Z</time>
      </trkpt>
      <trkpt lat="43.9851" lon="3.01163">
        <ele>803.5</ele>
        <time>2026-04-30T12:01:12.000Z</time>
      </trkpt>
      <trkpt lat="43.98511" lon="3.01163">
        <ele>803.6</ele>
        <time>2026-04-30T12:01:13.000Z</time>
      </trkpt>
      <trkpt lat="43.98512" lon="3.01162">
        <ele>803.5</ele>
        <time>2026-04-30T12:01:14.000Z</time>
      </trkpt>
      <trkpt lat="43.98513" lon="3.0116">
        <ele>803.3</ele>
        <time>2026-04-30T12:01:15.000Z</time>
      </trkpt>
      <trkpt lat="43.98513" lon="3.0116">
        <ele>803.1</ele>
        <time>2026-04-30T12:01:16.000Z</time>
      </trkpt>
      <trkpt lat="43.98513" lon="3.0116">
        <ele>803.2</ele>
        <time>2026-04-30T12:01:17.000Z</time>
      </trkpt>
      <trkpt lat="43.98512" lon="3.0116">
        <ele>803</ele>
        <time>2026-04-30T12:01:18.000Z</time>
      </trkpt>
      <trkpt lat="43.98512" lon="3.0116">
        <ele>802.9</ele>
        <time>2026-04-30T12:01:19.000Z</time>
      </trkpt>
      <trkpt lat="43.98512" lon="3.01161">
        <ele>802.9</ele>
        <time>2026-04-30T12:01:20.000Z</time>
      </trkpt>
      <trkpt lat="43.98512" lon="3.01161">
        <ele>802.8</ele>
        <time>2026-04-30T12:01:21.000Z</time>
      </trkpt>
      <trkpt lat="43.98512" lon="3.01161">
        <ele>802.8</ele>
        <time>2026-04-30T12:01:22.000Z</time>
      </trkpt>
      <trkpt lat="43.98513" lon="3.01159">
        <ele>802.9</ele>
        <time>2026-04-30T12:01:23.000Z</time>
      </trkpt>
      <trkpt lat="43.98514" lon="3.01158">
        <ele>802.9</ele>
        <time>2026-04-30T12:01:24.000Z</time>
      </trkpt>
      <trkpt lat="43.98515" lon="3.01157">
        <ele>802.8</ele>
        <time>2026-04-30T12:01:25.000Z</time>
      </trkpt>
      <trkpt lat="43.98515" lon="3.01156">
        <ele>802.9</ele>
        <time>2026-04-30T12:01:26.000Z</time>
      </trkpt>
      <trkpt lat="43.98516" lon="3.01155">
        <ele>803</ele>
        <time>2026-04-30T12:01:27.000Z</time>
      </trkpt>
      <trkpt lat="43.98517" lon="3.01154">
        <ele>803.2</ele>
        <time>2026-04-30T12:01:28.000Z</time>
      </trkpt>
      <trkpt lat="43.98518" lon="3.01153">
        <ele>803.2</ele>
        <time>2026-04-30T12:01:29.000Z</time>
      </trkpt>
      <trkpt lat="43.98519" lon="3.01151">
        <ele>803.5</ele>
        <time>2026-04-30T12:01:30.000Z</time>
      </trkpt>
      <trkpt lat="43.98519" lon="3.01151">
        <ele>803.6</ele>
        <time>2026-04-30T12:01:31.000Z</time>
      </trkpt>
      <trkpt lat="43.9852" lon="3.01149">
        <ele>803.7</ele>
        <time>2026-04-30T12:01:32.000Z</time>
      </trkpt>
      <trkpt lat="43.98521" lon="3.01149">
        <ele>803.6</ele>
        <time>2026-04-30T12:01:33.000Z</time>
      </trkpt>
      <trkpt lat="43.98522" lon="3.01148">
        <ele>803.6</ele>
        <time>2026-04-30T12:01:34.000Z</time>
      </trkpt>
      <trkpt lat="43.98524" lon="3.01146">
        <ele>804.1</ele>
        <time>2026-04-30T12:01:35.000Z</time>
      </trkpt>
      <trkpt lat="43.98525" lon="3.01145">
        <ele>804.4</ele>
        <time>2026-04-30T12:01:36.000Z</time>
      </trkpt>
      <trkpt lat="43.98525" lon="3.01144">
        <ele>804.8</ele>
        <time>2026-04-30T12:01:37.000Z</time>
      </trkpt>
      <trkpt lat="43.98526" lon="3.01144">
        <ele>805.4</ele>
        <time>2026-04-30T12:01:38.000Z</time>
      </trkpt>
      <trkpt lat="43.98527" lon="3.01143">
        <ele>805.6</ele>
        <time>2026-04-30T12:01:39.000Z</time>
      </trkpt>
      <trkpt lat="43.98528" lon="3.01142">
        <ele>805.4</ele>
        <time>2026-04-30T12:01:40.000Z</time>
      </trkpt>
      <trkpt lat="43.98529" lon="3.0114">
        <ele>805.4</ele>
        <time>2026-04-30T12:01:41.000Z</time>
      </trkpt>
      <trkpt lat="43.98533" lon="3.01138">
        <ele>807.5</ele>
        <time>2026-04-30T12:01:42.000Z</time>
      </trkpt>
      <trkpt lat="43.98535" lon="3.01137">
        <ele>808.3</ele>
        <time>2026-04-30T12:01:43.000Z</time>
      </trkpt>
      <trkpt lat="43.98536" lon="3.01136">
        <ele>808.9</ele>
        <time>2026-04-30T12:01:44.000Z</time>
      </trkpt>
      <trkpt lat="43.98536" lon="3.01135">
        <ele>808.8</ele>
        <time>2026-04-30T12:01:45.000Z</time>
      </trkpt>
      <trkpt lat="43.98537" lon="3.01134">
        <ele>809.1</ele>
        <time>2026-04-30T12:01:46.000Z</time>
      </trkpt>
      <trkpt lat="43.98538" lon="3.01133">
        <ele>808.8</ele>
        <time>2026-04-30T12:01:47.000Z</time>
      </trkpt>
      <trkpt lat="43.9854" lon="3.01132">
        <ele>808.8</ele>
        <time>2026-04-30T12:01:48.000Z</time>
      </trkpt>
      <trkpt lat="43.98541" lon="3.0113">
        <ele>808.8</ele>
        <time>2026-04-30T12:01:49.000Z</time>
      </trkpt>
      <trkpt lat="43.98542" lon="3.01129">
        <ele>808.6</ele>
        <time>2026-04-30T12:01:50.000Z</time>
      </trkpt>
      <trkpt lat="43.98543" lon="3.01128">
        <ele>808.6</ele>
        <time>2026-04-30T12:01:51.000Z</time>
      </trkpt>
      <trkpt lat="43.98544" lon="3.01128">
        <ele>808.9</ele>
        <time>2026-04-30T12:01:52.000Z</time>
      </trkpt>
      <trkpt lat="43.98545" lon="3.01127">
        <ele>809</ele>
        <time>2026-04-30T12:01:53.000Z</time>
      </trkpt>
      <trkpt lat="43.98546" lon="3.01126">
        <ele>808.9</ele>
        <time>2026-04-30T12:01:54.000Z</time>
      </trkpt>
      <trkpt lat="43.98547" lon="3.01125">
        <ele>808.7</ele>
        <time>2026-04-30T12:01:55.000Z</time>
      </trkpt>
      <trkpt lat="43.98547" lon="3.01125">
        <ele>808.4</ele>
        <time>2026-04-30T12:01:56.000Z</time>
      </trkpt>
      <trkpt lat="43.98549" lon="3.01124">
        <ele>808.4</ele>
        <time>2026-04-30T12:01:57.000Z</time>
      </trkpt>
      <trkpt lat="43.9855" lon="3.01123">
        <ele>808.5</ele>
        <time>2026-04-30T12:01:58.000Z</time>
      </trkpt>
      <trkpt lat="43.98551" lon="3.01122">
        <ele>808.7</ele>
        <time>2026-04-30T12:01:59.000Z</time>
      </trkpt>
      <trkpt lat="43.98552" lon="3.01121">
        <ele>808.8</ele>
        <time>2026-04-30T12:02:00.000Z</time>
      </trkpt>
      <trkpt lat="43.98554" lon="3.0112">
        <ele>808.9</ele>
        <time>2026-04-30T12:02:01.000Z</time>
      </trkpt>
      <trkpt lat="43.98555" lon="3.01119">
        <ele>809.1</ele>
        <time>2026-04-30T12:02:02.000Z</time>
      </trkpt>
      <trkpt lat="43.98555" lon="3.01117">
        <ele>809.2</ele>
        <time>2026-04-30T12:02:03.000Z</time>
      </trkpt>
      <trkpt lat="43.98556" lon="3.01117">
        <ele>809.2</ele>
        <time>2026-04-30T12:02:04.000Z</time>
      </trkpt>
      <trkpt lat="43.98556" lon="3.01116">
        <ele>809.3</ele>
        <time>2026-04-30T12:02:05.000Z</time>
      </trkpt>
      <trkpt lat="43.98557" lon="3.01116">
        <ele>809.5</ele>
        <time>2026-04-30T12:02:06.000Z</time>
      </trkpt>
      <trkpt lat="43.98558" lon="3.01115">
        <ele>809.2</ele>
        <time>2026-04-30T12:02:07.000Z</time>
      </trkpt>
      <trkpt lat="43.98559" lon="3.01115">
        <ele>809.1</ele>
        <time>2026-04-30T12:02:08.000Z</time>
      </trkpt>
      <trkpt lat="43.9856" lon="3.01114">
        <ele>808.9</ele>
        <time>2026-04-30T12:02:09.000Z</time>
      </trkpt>
      <trkpt lat="43.98561" lon="3.01114">
        <ele>808.7</ele>
        <time>2026-04-30T12:02:10.000Z</time>
      </trkpt>
      <trkpt lat="43.98563" lon="3.01113">
        <ele>808.7</ele>
        <time>2026-04-30T12:02:11.000Z</time>
      </trkpt>
      <trkpt lat="43.98564" lon="3.01112">
        <ele>808.8</ele>
        <time>2026-04-30T12:02:12.000Z</time>
      </trkpt>
      <trkpt lat="43.98564" lon="3.01112">
        <ele>808.9</ele>
        <time>2026-04-30T12:02:13.000Z</time>
      </trkpt>
      <trkpt lat="43.98565" lon="3.01111">
        <ele>808.8</ele>
        <time>2026-04-30T12:02:14.000Z</time>
      </trkpt>
      <trkpt lat="43.98566" lon="3.01111">
        <ele>808.8</ele>
        <time>2026-04-30T12:02:15.000Z</time>
      </trkpt>
      <trkpt lat="43.98567" lon="3.0111">
        <ele>809</ele>
        <time>2026-04-30T12:02:16.000Z</time>
      </trkpt>
      <trkpt lat="43.98567" lon="3.01109">
        <ele>809.3</ele>
        <time>2026-04-30T12:02:17.000Z</time>
      </trkpt>
      <trkpt lat="43.98568" lon="3.01108">
        <ele>809.2</ele>
        <time>2026-04-30T12:02:18.000Z</time>
      </trkpt>
      <trkpt lat="43.98569" lon="3.01107">
        <ele>809.2</ele>
        <time>2026-04-30T12:02:19.000Z</time>
      </trkpt>
      <trkpt lat="43.98569" lon="3.01106">
        <ele>809.2</ele>
        <time>2026-04-30T12:02:20.000Z</time>
      </trkpt>
      <trkpt lat="43.9857" lon="3.01105">
        <ele>809.4</ele>
        <time>2026-04-30T12:02:21.000Z</time>
      </trkpt>
      <trkpt lat="43.98571" lon="3.01104">
        <ele>809.4</ele>
        <time>2026-04-30T12:02:22.000Z</time>
      </trkpt>
      <trkpt lat="43.98571" lon="3.01103">
        <ele>809.7</ele>
        <time>2026-04-30T12:02:23.000Z</time>
      </trkpt>
      <trkpt lat="43.98572" lon="3.01101">
        <ele>809.9</ele>
        <time>2026-04-30T12:02:24.000Z</time>
      </trkpt>
      <trkpt lat="43.98573" lon="3.011">
        <ele>810.2</ele>
        <time>2026-04-30T12:02:25.000Z</time>
      </trkpt>
      <trkpt lat="43.98574" lon="3.01099">
        <ele>810.3</ele>
        <time>2026-04-30T12:02:26.000Z</time>
      </trkpt>
      <trkpt lat="43.98575" lon="3.01098">
        <ele>810.2</ele>
        <time>2026-04-30T12:02:27.000Z</time>
      </trkpt>
      <trkpt lat="43.98576" lon="3.01098">
        <ele>810.2</ele>
        <time>2026-04-30T12:02:28.000Z</time>
      </trkpt>
      <trkpt lat="43.98577" lon="3.01097">
        <ele>810.3</ele>
        <time>2026-04-30T12:02:29.000Z</time>
      </trkpt>
      <trkpt lat="43.98577" lon="3.01096">
        <ele>810.5</ele>
        <time>2026-04-30T12:02:30.000Z</time>
      </trkpt>
      <trkpt lat="43.98578" lon="3.01094">
        <ele>810.9</ele>
        <time>2026-04-30T12:02:31.000Z</time>
      </trkpt>
      <trkpt lat="43.98579" lon="3.01093">
        <ele>811.1</ele>
        <time>2026-04-30T12:02:32.000Z</time>
      </trkpt>
      <trkpt lat="43.98579" lon="3.01092">
        <ele>811.1</ele>
        <time>2026-04-30T12:02:33.000Z</time>
      </trkpt>
      <trkpt lat="43.9858" lon="3.01092">
        <ele>811</ele>
        <time>2026-04-30T12:02:34.000Z</time>
      </trkpt>
      <trkpt lat="43.98581" lon="3.01091">
        <ele>810.9</ele>
        <time>2026-04-30T12:02:35.000Z</time>
      </trkpt>
      <trkpt lat="43.98582" lon="3.01089">
        <ele>811.1</ele>
        <time>2026-04-30T12:02:36.000Z</time>
      </trkpt>
      <trkpt lat="43.98584" lon="3.01088">
        <ele>811.3</ele>
        <time>2026-04-30T12:02:37.000Z</time>
      </trkpt>
      <trkpt lat="43.98585" lon="3.01087">
        <ele>811.4</ele>
        <time>2026-04-30T12:02:38.000Z</time>
      </trkpt>
      <trkpt lat="43.98585" lon="3.01086">
        <ele>811.5</ele>
        <time>2026-04-30T12:02:39.000Z</time>
      </trkpt>
      <trkpt lat="43.98586" lon="3.01084">
        <ele>811.3</ele>
        <time>2026-04-30T12:02:40.000Z</time>
      </trkpt>
      <trkpt lat="43.98587" lon="3.01082">
        <ele>811.2</ele>
        <time>2026-04-30T12:02:41.000Z</time>
      </trkpt>
      <trkpt lat="43.98588" lon="3.01081">
        <ele>811.4</ele>
        <time>2026-04-30T12:02:42.000Z</time>
      </trkpt>
      <trkpt lat="43.98588" lon="3.0108">
        <ele>811.4</ele>
        <time>2026-04-30T12:02:43.000Z</time>
      </trkpt>
      <trkpt lat="43.98588" lon="3.0108">
        <ele>811.8</ele>
        <time>2026-04-30T12:02:44.000Z</time>
      </trkpt>
      <trkpt lat="43.98587" lon="3.0108">
        <ele>812</ele>
        <time>2026-04-30T12:02:45.000Z</time>
      </trkpt>
      <trkpt lat="43.98587" lon="3.01078">
        <ele>812.1</ele>
        <time>2026-04-30T12:02:46.000Z</time>
      </trkpt>
      <trkpt lat="43.98588" lon="3.01077">
        <ele>811.9</ele>
        <time>2026-04-30T12:02:47.000Z</time>
      </trkpt>
      <trkpt lat="43.98589" lon="3.01076">
        <ele>811.9</ele>
        <time>2026-04-30T12:02:48.000Z</time>
      </trkpt>
      <trkpt lat="43.9859" lon="3.01075">
        <ele>812.1</ele>
        <time>2026-04-30T12:02:49.000Z</time>
      </trkpt>
      <trkpt lat="43.98591" lon="3.01073">
        <ele>812.3</ele>
        <time>2026-04-30T12:02:50.000Z</time>
      </trkpt>
      <trkpt lat="43.98592" lon="3.01072">
        <ele>812.5</ele>
        <time>2026-04-30T12:02:51.000Z</time>
      </trkpt>
      <trkpt lat="43.98592" lon="3.01072">
        <ele>812.7</ele>
        <time>2026-04-30T12:02:52.000Z</time>
      </trkpt>
      <trkpt lat="43.98593" lon="3.01071">
        <ele>812.9</ele>
        <time>2026-04-30T12:02:53.000Z</time>
      </trkpt>
      <trkpt lat="43.98594" lon="3.0107">
        <ele>813.4</ele>
        <time>2026-04-30T12:02:54.000Z</time>
      </trkpt>
      <trkpt lat="43.98594" lon="3.01069">
        <ele>813.6</ele>
        <time>2026-04-30T12:02:55.000Z</time>
      </trkpt>
      <trkpt lat="43.98595" lon="3.01069">
        <ele>813.8</ele>
        <time>2026-04-30T12:02:56.000Z</time>
      </trkpt>
      <trkpt lat="43.98595" lon="3.01068">
        <ele>813.7</ele>
        <time>2026-04-30T12:02:57.000Z</time>
      </trkpt>
      <trkpt lat="43.98596" lon="3.01068">
        <ele>813.7</ele>
        <time>2026-04-30T12:02:58.000Z</time>
      </trkpt>
      <trkpt lat="43.98596" lon="3.01067">
        <ele>813.7</ele>
        <time>2026-04-30T12:02:59.000Z</time>
      </trkpt>
      <trkpt lat="43.98597" lon="3.01065">
        <ele>813.6</ele>
        <time>2026-04-30T12:03:00.000Z</time>
      </trkpt>
      <trkpt lat="43.98598" lon="3.01064">
        <ele>813.5</ele>
        <time>2026-04-30T12:03:01.000Z</time>
      </trkpt>
      <trkpt lat="43.986" lon="3.01062">
        <ele>813.6</ele>
        <time>2026-04-30T12:03:02.000Z</time>
      </trkpt>
      <trkpt lat="43.98602" lon="3.0106">
        <ele>813.9</ele>
        <time>2026-04-30T12:03:03.999Z</time>
      </trkpt>
      <trkpt lat="43.98602" lon="3.0106">
        <ele>813.7</ele>
        <time>2026-04-30T12:03:04.999Z</time>
      </trkpt>
      <trkpt lat="43.98603" lon="3.01059">
        <ele>813.8</ele>
        <time>2026-04-30T12:03:05.999Z</time>
      </trkpt>
      <trkpt lat="43.98604" lon="3.01058">
        <ele>813.7</ele>
        <time>2026-04-30T12:03:06.999Z</time>
      </trkpt>
      <trkpt lat="43.98604" lon="3.01058">
        <ele>814.2</ele>
        <time>2026-04-30T12:03:07.999Z</time>
      </trkpt>
      <trkpt lat="43.98604" lon="3.01057">
        <ele>814.5</ele>
        <time>2026-04-30T12:03:08.999Z</time>
      </trkpt>
      <trkpt lat="43.98604" lon="3.01057">
        <ele>814.6</ele>
        <time>2026-04-30T12:03:09.999Z</time>
      </trkpt>
      <trkpt lat="43.98605" lon="3.01055">
        <ele>814.7</ele>
        <time>2026-04-30T12:03:10.999Z</time>
      </trkpt>
      <trkpt lat="43.98606" lon="3.01055">
        <ele>814.6</ele>
        <time>2026-04-30T12:03:11.999Z</time>
      </trkpt>
      <trkpt lat="43.98607" lon="3.01054">
        <ele>814.7</ele>
        <time>2026-04-30T12:03:12.999Z</time>
      </trkpt>
      <trkpt lat="43.98607" lon="3.01053">
        <ele>814.8</ele>
        <time>2026-04-30T12:03:13.999Z</time>
      </trkpt>
      <trkpt lat="43.98608" lon="3.01052">
        <ele>814.9</ele>
        <time>2026-04-30T12:03:14.999Z</time>
      </trkpt>
      <trkpt lat="43.98609" lon="3.01051">
        <ele>815</ele>
        <time>2026-04-30T12:03:15.999Z</time>
      </trkpt>
      <trkpt lat="43.9861" lon="3.0105">
        <ele>815.1</ele>
        <time>2026-04-30T12:03:16.999Z</time>
      </trkpt>
      <trkpt lat="43.98611" lon="3.01048">
        <ele>815.2</ele>
        <time>2026-04-30T12:03:17.999Z</time>
      </trkpt>
      <trkpt lat="43.98612" lon="3.01047">
        <ele>815.3</ele>
        <time>2026-04-30T12:03:18.999Z</time>
      </trkpt>
      <trkpt lat="43.98612" lon="3.01045">
        <ele>815.4</ele>
        <time>2026-04-30T12:03:19.999Z</time>
      </trkpt>
      <trkpt lat="43.98612" lon="3.01044">
        <ele>815.4</ele>
        <time>2026-04-30T12:03:20.999Z</time>
      </trkpt>
      <trkpt lat="43.98612" lon="3.01043">
        <ele>815.5</ele>
        <time>2026-04-30T12:03:21.999Z</time>
      </trkpt>
      <trkpt lat="43.98613" lon="3.01042">
        <ele>815.8</ele>
        <time>2026-04-30T12:03:22.999Z</time>
      </trkpt>
      <trkpt lat="43.98614" lon="3.01042">
        <ele>815.9</ele>
        <time>2026-04-30T12:03:23.999Z</time>
      </trkpt>
      <trkpt lat="43.98614" lon="3.01041">
        <ele>816.3</ele>
        <time>2026-04-30T12:03:24.999Z</time>
      </trkpt>
      <trkpt lat="43.98615" lon="3.0104">
        <ele>816.5</ele>
        <time>2026-04-30T12:03:25.999Z</time>
      </trkpt>
      <trkpt lat="43.98616" lon="3.01039">
        <ele>816.7</ele>
        <time>2026-04-30T12:03:26.999Z</time>
      </trkpt>
      <trkpt lat="43.98616" lon="3.01039">
        <ele>816.7</ele>
        <time>2026-04-30T12:03:27.999Z</time>
      </trkpt>
      <trkpt lat="43.98616" lon="3.01039">
        <ele>816.6</ele>
        <time>2026-04-30T12:03:28.999Z</time>
      </trkpt>
      <trkpt lat="43.98617" lon="3.01038">
        <ele>816.5</ele>
        <time>2026-04-30T12:03:29.999Z</time>
      </trkpt>
      <trkpt lat="43.98618" lon="3.01036">
        <ele>816.6</ele>
        <time>2026-04-30T12:03:30.999Z</time>
      </trkpt>
      <trkpt lat="43.98619" lon="3.01035">
        <ele>816.5</ele>
        <time>2026-04-30T12:03:31.999Z</time>
      </trkpt>
      <trkpt lat="43.98619" lon="3.01034">
        <ele>816.7</ele>
        <time>2026-04-30T12:03:32.999Z</time>
      </trkpt>
      <trkpt lat="43.9862" lon="3.01032">
        <ele>816.8</ele>
        <time>2026-04-30T12:03:33.999Z</time>
      </trkpt>
      <trkpt lat="43.9862" lon="3.01031">
        <ele>816.8</ele>
        <time>2026-04-30T12:03:34.999Z</time>
      </trkpt>
      <trkpt lat="43.98621" lon="3.0103">
        <ele>816.9</ele>
        <time>2026-04-30T12:03:35.999Z</time>
      </trkpt>
      <trkpt lat="43.98622" lon="3.01029">
        <ele>817.1</ele>
        <time>2026-04-30T12:03:36.999Z</time>
      </trkpt>
      <trkpt lat="43.98623" lon="3.01028">
        <ele>817.1</ele>
        <time>2026-04-30T12:03:37.999Z</time>
      </trkpt>
      <trkpt lat="43.98624" lon="3.01027">
        <ele>817.3</ele>
        <time>2026-04-30T12:03:38.999Z</time>
      </trkpt>
      <trkpt lat="43.98624" lon="3.01026">
        <ele>817.3</ele>
        <time>2026-04-30T12:03:39.999Z</time>
      </trkpt>
      <trkpt lat="43.98624" lon="3.01025">
        <ele>817.3</ele>
        <time>2026-04-30T12:03:40.999Z</time>
      </trkpt>
      <trkpt lat="43.98624" lon="3.01024">
        <ele>817.1</ele>
        <time>2026-04-30T12:03:41.999Z</time>
      </trkpt>
      <trkpt lat="43.98625" lon="3.01024">
        <ele>817.1</ele>
        <time>2026-04-30T12:03:42.999Z</time>
      </trkpt>
      <trkpt lat="43.98626" lon="3.01023">
        <ele>817.1</ele>
        <time>2026-04-30T12:03:43.999Z</time>
      </trkpt>
      <trkpt lat="43.98626" lon="3.01022">
        <ele>817.5</ele>
        <time>2026-04-30T12:03:44.999Z</time>
      </trkpt>
      <trkpt lat="43.98627" lon="3.0102">
        <ele>817.6</ele>
        <time>2026-04-30T12:03:45.999Z</time>
      </trkpt>
      <trkpt lat="43.98628" lon="3.01018">
        <ele>817.9</ele>
        <time>2026-04-30T12:03:46.999Z</time>
      </trkpt>
      <trkpt lat="43.98628" lon="3.01017">
        <ele>818</ele>
        <time>2026-04-30T12:03:47.999Z</time>
      </trkpt>
      <trkpt lat="43.98628" lon="3.01016">
        <ele>818.1</ele>
        <time>2026-04-30T12:03:48.999Z</time>
      </trkpt>
      <trkpt lat="43.98629" lon="3.01015">
        <ele>818</ele>
        <time>2026-04-30T12:03:49.999Z</time>
      </trkpt>
      <trkpt lat="43.98629" lon="3.01013">
        <ele>818.3</ele>
        <time>2026-04-30T12:03:50.999Z</time>
      </trkpt>
      <trkpt lat="43.9863" lon="3.01012">
        <ele>818.4</ele>
        <time>2026-04-30T12:03:51.999Z</time>
      </trkpt>
      <trkpt lat="43.9863" lon="3.01011">
        <ele>818.5</ele>
        <time>2026-04-30T12:03:52.999Z</time>
      </trkpt>
      <trkpt lat="43.98631" lon="3.01009">
        <ele>818.4</ele>
        <time>2026-04-30T12:03:53.999Z</time>
      </trkpt>
      <trkpt lat="43.98631" lon="3.01008">
        <ele>818.7</ele>
        <time>2026-04-30T12:03:54.999Z</time>
      </trkpt>
      <trkpt lat="43.98632" lon="3.01007">
        <ele>818.8</ele>
        <time>2026-04-30T12:03:55.999Z</time>
      </trkpt>
      <trkpt lat="43.98633" lon="3.01006">
        <ele>818.8</ele>
        <time>2026-04-30T12:03:56.999Z</time>
      </trkpt>
      <trkpt lat="43.98633" lon="3.01006">
        <ele>818.7</ele>
        <time>2026-04-30T12:03:57.999Z</time>
      </trkpt>
      <trkpt lat="43.98634" lon="3.01005">
        <ele>818.8</ele>
        <time>2026-04-30T12:03:58.999Z</time>
      </trkpt>
      <trkpt lat="43.98634" lon="3.01003">
        <ele>818.9</ele>
        <time>2026-04-30T12:03:59.999Z</time>
      </trkpt>
      <trkpt lat="43.98635" lon="3.01002">
        <ele>819.2</ele>
        <time>2026-04-30T12:04:00.999Z</time>
      </trkpt>
      <trkpt lat="43.98635" lon="3.01">
        <ele>819.5</ele>
        <time>2026-04-30T12:04:01.999Z</time>
      </trkpt>
      <trkpt lat="43.98636" lon="3.00999">
        <ele>819.8</ele>
        <time>2026-04-30T12:04:02.999Z</time>
      </trkpt>
      <trkpt lat="43.98636" lon="3.00998">
        <ele>820.1</ele>
        <time>2026-04-30T12:04:03.999Z</time>
      </trkpt>
      <trkpt lat="43.98636" lon="3.00998">
        <ele>820.3</ele>
        <time>2026-04-30T12:04:04.999Z</time>
      </trkpt>
      <trkpt lat="43.98636" lon="3.00997">
        <ele>820.3</ele>
        <time>2026-04-30T12:04:05.999Z</time>
      </trkpt>
      <trkpt lat="43.98638" lon="3.00996">
        <ele>820.3</ele>
        <time>2026-04-30T12:04:06.999Z</time>
      </trkpt>
      <trkpt lat="43.98638" lon="3.00995">
        <ele>820.6</ele>
        <time>2026-04-30T12:04:07.999Z</time>
      </trkpt>
      <trkpt lat="43.98639" lon="3.00994">
        <ele>820.7</ele>
        <time>2026-04-30T12:04:08.999Z</time>
      </trkpt>
      <trkpt lat="43.9864" lon="3.00993">
        <ele>821.1</ele>
        <time>2026-04-30T12:04:09.999Z</time>
      </trkpt>
      <trkpt lat="43.9864" lon="3.00991">
        <ele>821.4</ele>
        <time>2026-04-30T12:04:10.999Z</time>
      </trkpt>
      <trkpt lat="43.9864" lon="3.0099">
        <ele>821.6</ele>
        <time>2026-04-30T12:04:11.999Z</time>
      </trkpt>
      <trkpt lat="43.9864" lon="3.00989">
        <ele>822.1</ele>
        <time>2026-04-30T12:04:12.999Z</time>
      </trkpt>
      <trkpt lat="43.98641" lon="3.00988">
        <ele>822.3</ele>
        <time>2026-04-30T12:04:13.999Z</time>
      </trkpt>
      <trkpt lat="43.98641" lon="3.00987">
        <ele>822.4</ele>
        <time>2026-04-30T12:04:14.999Z</time>
      </trkpt>
      <trkpt lat="43.98641" lon="3.00987">
        <ele>822.4</ele>
        <time>2026-04-30T12:04:15.999Z</time>
      </trkpt>
      <trkpt lat="43.98641" lon="3.00986">
        <ele>822.1</ele>
        <time>2026-04-30T12:04:16.999Z</time>
      </trkpt>
      <trkpt lat="43.98641" lon="3.00985">
        <ele>821.9</ele>
        <time>2026-04-30T12:04:17.999Z</time>
      </trkpt>
      <trkpt lat="43.98641" lon="3.00983">
        <ele>822.2</ele>
        <time>2026-04-30T12:04:18.999Z</time>
      </trkpt>
      <trkpt lat="43.98642" lon="3.00981">
        <ele>822.1</ele>
        <time>2026-04-30T12:04:19.999Z</time>
      </trkpt>
      <trkpt lat="43.98643" lon="3.0098">
        <ele>822.2</ele>
        <time>2026-04-30T12:04:20.999Z</time>
      </trkpt>
      <trkpt lat="43.98643" lon="3.00979">
        <ele>822.4</ele>
        <time>2026-04-30T12:04:21.999Z</time>
      </trkpt>
      <trkpt lat="43.98643" lon="3.00978">
        <ele>822.4</ele>
        <time>2026-04-30T12:04:22.999Z</time>
      </trkpt>
      <trkpt lat="43.98643" lon="3.00977">
        <ele>822.5</ele>
        <time>2026-04-30T12:04:23.999Z</time>
      </trkpt>
      <trkpt lat="43.98644" lon="3.00975">
        <ele>822.8</ele>
        <time>2026-04-30T12:04:24.999Z</time>
      </trkpt>
      <trkpt lat="43.98644" lon="3.00974">
        <ele>823</ele>
        <time>2026-04-30T12:04:25.999Z</time>
      </trkpt>
      <trkpt lat="43.98644" lon="3.00973">
        <ele>823.3</ele>
        <time>2026-04-30T12:04:26.999Z</time>
      </trkpt>
      <trkpt lat="43.98645" lon="3.00972">
        <ele>823.6</ele>
        <time>2026-04-30T12:04:27.999Z</time>
      </trkpt>
      <trkpt lat="43.98645" lon="3.00971">
        <ele>823.5</ele>
        <time>2026-04-30T12:04:28.999Z</time>
      </trkpt>
      <trkpt lat="43.98645" lon="3.00969">
        <ele>823.6</ele>
        <time>2026-04-30T12:04:29.999Z</time>
      </trkpt>
      <trkpt lat="43.98646" lon="3.00968">
        <ele>823.6</ele>
        <time>2026-04-30T12:04:30.999Z</time>
      </trkpt>
      <trkpt lat="43.98646" lon="3.00967">
        <ele>823.6</ele>
        <time>2026-04-30T12:04:31.999Z</time>
      </trkpt>
      <trkpt lat="43.98646" lon="3.00966">
        <ele>823.8</ele>
        <time>2026-04-30T12:04:32.999Z</time>
      </trkpt>
      <trkpt lat="43.98646" lon="3.00964">
        <ele>824.1</ele>
        <time>2026-04-30T12:04:33.999Z</time>
      </trkpt>
      <trkpt lat="43.98646" lon="3.00963">
        <ele>824.3</ele>
        <time>2026-04-30T12:04:34.999Z</time>
      </trkpt>
      <trkpt lat="43.98647" lon="3.00963">
        <ele>824.1</ele>
        <time>2026-04-30T12:04:35.999Z</time>
      </trkpt>
      <trkpt lat="43.98647" lon="3.00962">
        <ele>823.9</ele>
        <time>2026-04-30T12:04:36.999Z</time>
      </trkpt>
      <trkpt lat="43.98647" lon="3.00961">
        <ele>823.8</ele>
        <time>2026-04-30T12:04:37.999Z</time>
      </trkpt>
      <trkpt lat="43.98648" lon="3.0096">
        <ele>824.1</ele>
        <time>2026-04-30T12:04:38.999Z</time>
      </trkpt>
      <trkpt lat="43.98648" lon="3.00959">
        <ele>824.6</ele>
        <time>2026-04-30T12:04:39.999Z</time>
      </trkpt>
      <trkpt lat="43.98647" lon="3.00957">
        <ele>825.1</ele>
        <time>2026-04-30T12:04:40.999Z</time>
      </trkpt>
      <trkpt lat="43.98647" lon="3.00956">
        <ele>825.6</ele>
        <time>2026-04-30T12:04:41.999Z</time>
      </trkpt>
      <trkpt lat="43.98647" lon="3.00954">
        <ele>826.1</ele>
        <time>2026-04-30T12:04:42.999Z</time>
      </trkpt>
      <trkpt lat="43.98647" lon="3.00952">
        <ele>826.5</ele>
        <time>2026-04-30T12:04:43.999Z</time>
      </trkpt>
      <trkpt lat="43.98647" lon="3.00951">
        <ele>827</ele>
        <time>2026-04-30T12:04:44.999Z</time>
      </trkpt>
      <trkpt lat="43.98647" lon="3.0095">
        <ele>827.3</ele>
        <time>2026-04-30T12:04:45.999Z</time>
      </trkpt>
      <trkpt lat="43.98647" lon="3.00948">
        <ele>827.7</ele>
        <time>2026-04-30T12:04:46.999Z</time>
      </trkpt>
      <trkpt lat="43.98648" lon="3.00946">
        <ele>828.2</ele>
        <time>2026-04-30T12:04:47.999Z</time>
      </trkpt>
      <trkpt lat="43.98648" lon="3.00945">
        <ele>828.5</ele>
        <time>2026-04-30T12:04:48.999Z</time>
      </trkpt>
      <trkpt lat="43.98649" lon="3.00943">
        <ele>828.8</ele>
        <time>2026-04-30T12:04:49.999Z</time>
      </trkpt>
      <trkpt lat="43.98649" lon="3.00942">
        <ele>829</ele>
        <time>2026-04-30T12:04:50.999Z</time>
      </trkpt>
      <trkpt lat="43.98648" lon="3.00941">
        <ele>828.9</ele>
        <time>2026-04-30T12:04:51.999Z</time>
      </trkpt>
      <trkpt lat="43.98648" lon="3.0094">
        <ele>828.9</ele>
        <time>2026-04-30T12:04:52.999Z</time>
      </trkpt>
      <trkpt lat="43.98648" lon="3.00938">
        <ele>828.7</ele>
        <time>2026-04-30T12:04:53.999Z</time>
      </trkpt>
      <trkpt lat="43.98648" lon="3.00937">
        <ele>828.4</ele>
        <time>2026-04-30T12:04:54.999Z</time>
      </trkpt>
      <trkpt lat="43.98647" lon="3.00935">
        <ele>828.3</ele>
        <time>2026-04-30T12:04:55.999Z</time>
      </trkpt>
      <trkpt lat="43.98647" lon="3.00934">
        <ele>828.5</ele>
        <time>2026-04-30T12:04:56.999Z</time>
      </trkpt>
      <trkpt lat="43.98646" lon="3.00932">
        <ele>828.8</ele>
        <time>2026-04-30T12:04:57.999Z</time>
      </trkpt>
      <trkpt lat="43.98646" lon="3.00931">
        <ele>828.8</ele>
        <time>2026-04-30T12:04:58.999Z</time>
      </trkpt>
      <trkpt lat="43.98645" lon="3.0093">
        <ele>828.9</ele>
        <time>2026-04-30T12:04:59.999Z</time>
      </trkpt>
      <trkpt lat="43.98644" lon="3.00929">
        <ele>829.2</ele>
        <time>2026-04-30T12:05:00.999Z</time>
      </trkpt>
      <trkpt lat="43.98644" lon="3.00927">
        <ele>829.2</ele>
        <time>2026-04-30T12:05:01.999Z</time>
      </trkpt>
      <trkpt lat="43.98643" lon="3.00926">
        <ele>829.3</ele>
        <time>2026-04-30T12:05:02.999Z</time>
      </trkpt>
      <trkpt lat="43.98642" lon="3.00926">
        <ele>829.2</ele>
        <time>2026-04-30T12:05:03.999Z</time>
      </trkpt>
      <trkpt lat="43.98642" lon="3.00926">
        <ele>829.5</ele>
        <time>2026-04-30T12:05:04.999Z</time>
      </trkpt>
      <trkpt lat="43.98641" lon="3.00926">
        <ele>829.8</ele>
        <time>2026-04-30T12:05:05.999Z</time>
      </trkpt>
      <trkpt lat="43.9864" lon="3.00925">
        <ele>829.8</ele>
        <time>2026-04-30T12:05:06.999Z</time>
      </trkpt>
      <trkpt lat="43.98639" lon="3.00923">
        <ele>830.1</ele>
        <time>2026-04-30T12:05:07.999Z</time>
      </trkpt>
      <trkpt lat="43.98638" lon="3.00922">
        <ele>830.3</ele>
        <time>2026-04-30T12:05:08.999Z</time>
      </trkpt>
      <trkpt lat="43.98637" lon="3.00922">
        <ele>830.4</ele>
        <time>2026-04-30T12:05:09.999Z</time>
      </trkpt>
      <trkpt lat="43.98636" lon="3.00921">
        <ele>830.4</ele>
        <time>2026-04-30T12:05:10.999Z</time>
      </trkpt>
      <trkpt lat="43.98635" lon="3.00921">
        <ele>830.4</ele>
        <time>2026-04-30T12:05:11.999Z</time>
      </trkpt>
      <trkpt lat="43.98634" lon="3.00921">
        <ele>830.3</ele>
        <time>2026-04-30T12:05:12.999Z</time>
      </trkpt>
      <trkpt lat="43.98633" lon="3.0092">
        <ele>830.2</ele>
        <time>2026-04-30T12:05:13.999Z</time>
      </trkpt>
      <trkpt lat="43.98632" lon="3.00919">
        <ele>830.2</ele>
        <time>2026-04-30T12:05:14.999Z</time>
      </trkpt>
      <trkpt lat="43.98631" lon="3.00918">
        <ele>830.4</ele>
        <time>2026-04-30T12:05:15.999Z</time>
      </trkpt>
      <trkpt lat="43.9863" lon="3.00918">
        <ele>830.4</ele>
        <time>2026-04-30T12:05:16.999Z</time>
      </trkpt>
      <trkpt lat="43.9863" lon="3.00917">
        <ele>830.5</ele>
        <time>2026-04-30T12:05:17.999Z</time>
      </trkpt>
      <trkpt lat="43.98628" lon="3.00916">
        <ele>830.5</ele>
        <time>2026-04-30T12:05:18.999Z</time>
      </trkpt>
      <trkpt lat="43.98627" lon="3.00916">
        <ele>830.2</ele>
        <time>2026-04-30T12:05:19.999Z</time>
      </trkpt>
      <trkpt lat="43.98626" lon="3.00915">
        <ele>830</ele>
        <time>2026-04-30T12:05:20.999Z</time>
      </trkpt>
      <trkpt lat="43.98625" lon="3.00914">
        <ele>829.9</ele>
        <time>2026-04-30T12:05:21.999Z</time>
      </trkpt>
      <trkpt lat="43.98624" lon="3.00913">
        <ele>829.9</ele>
        <time>2026-04-30T12:05:22.999Z</time>
      </trkpt>
      <trkpt lat="43.98623" lon="3.00913">
        <ele>829.5</ele>
        <time>2026-04-30T12:05:23.999Z</time>
      </trkpt>
      <trkpt lat="43.98622" lon="3.00912">
        <ele>829.4</ele>
        <time>2026-04-30T12:05:24.999Z</time>
      </trkpt>
      <trkpt lat="43.98621" lon="3.00912">
        <ele>829.4</ele>
        <time>2026-04-30T12:05:25.999Z</time>
      </trkpt>
      <trkpt lat="43.9862" lon="3.0091">
        <ele>829.6</ele>
        <time>2026-04-30T12:05:26.999Z</time>
      </trkpt>
      <trkpt lat="43.98619" lon="3.00909">
        <ele>829.4</ele>
        <time>2026-04-30T12:05:27.999Z</time>
      </trkpt>
      <trkpt lat="43.98618" lon="3.00908">
        <ele>829.6</ele>
        <time>2026-04-30T12:05:28.999Z</time>
      </trkpt>
      <trkpt lat="43.98618" lon="3.00907">
        <ele>829.8</ele>
        <time>2026-04-30T12:05:29.999Z</time>
      </trkpt>
      <trkpt lat="43.98617" lon="3.00906">
        <ele>830</ele>
        <time>2026-04-30T12:05:30.999Z</time>
      </trkpt>
      <trkpt lat="43.98616" lon="3.00905">
        <ele>830</ele>
        <time>2026-04-30T12:05:31.999Z</time>
      </trkpt>
      <trkpt lat="43.98614" lon="3.00904">
        <ele>830.4</ele>
        <time>2026-04-30T12:05:32.999Z</time>
      </trkpt>
      <trkpt lat="43.98613" lon="3.00903">
        <ele>830.7</ele>
        <time>2026-04-30T12:05:33.999Z</time>
      </trkpt>
      <trkpt lat="43.98613" lon="3.00903">
        <ele>830.6</ele>
        <time>2026-04-30T12:05:34.999Z</time>
      </trkpt>
      <trkpt lat="43.98613" lon="3.00902">
        <ele>830.5</ele>
        <time>2026-04-30T12:05:35.999Z</time>
      </trkpt>
      <trkpt lat="43.98612" lon="3.00902">
        <ele>830.4</ele>
        <time>2026-04-30T12:05:36.999Z</time>
      </trkpt>
      <trkpt lat="43.98612" lon="3.00901">
        <ele>830.6</ele>
        <time>2026-04-30T12:05:37.999Z</time>
      </trkpt>
      <trkpt lat="43.98611" lon="3.00901">
        <ele>830.5</ele>
        <time>2026-04-30T12:05:38.999Z</time>
      </trkpt>
      <trkpt lat="43.98611" lon="3.00901">
        <ele>830.7</ele>
        <time>2026-04-30T12:05:39.999Z</time>
      </trkpt>
      <trkpt lat="43.9861" lon="3.00899">
        <ele>831.3</ele>
        <time>2026-04-30T12:05:40.999Z</time>
      </trkpt>
      <trkpt lat="43.98609" lon="3.00898">
        <ele>832.2</ele>
        <time>2026-04-30T12:05:41.999Z</time>
      </trkpt>
      <trkpt lat="43.98607" lon="3.00897">
        <ele>832.4</ele>
        <time>2026-04-30T12:05:42.999Z</time>
      </trkpt>
      <trkpt lat="43.98606" lon="3.00896">
        <ele>832.4</ele>
        <time>2026-04-30T12:05:43.999Z</time>
      </trkpt>
      <trkpt lat="43.98605" lon="3.00895">
        <ele>832.4</ele>
        <time>2026-04-30T12:05:44.999Z</time>
      </trkpt>
      <trkpt lat="43.98604" lon="3.00895">
        <ele>832.3</ele>
        <time>2026-04-30T12:05:45.999Z</time>
      </trkpt>
      <trkpt lat="43.98603" lon="3.00894">
        <ele>832.2</ele>
        <time>2026-04-30T12:05:46.999Z</time>
      </trkpt>
      <trkpt lat="43.98602" lon="3.00893">
        <ele>832.3</ele>
        <time>2026-04-30T12:05:47.999Z</time>
      </trkpt>
      <trkpt lat="43.98602" lon="3.00892">
        <ele>832.5</ele>
        <time>2026-04-30T12:05:48.999Z</time>
      </trkpt>
      <trkpt lat="43.98601" lon="3.0089">
        <ele>832.7</ele>
        <time>2026-04-30T12:05:49.999Z</time>
      </trkpt>
      <trkpt lat="43.986" lon="3.00889">
        <ele>832.9</ele>
        <time>2026-04-30T12:05:50.999Z</time>
      </trkpt>
      <trkpt lat="43.986" lon="3.00888">
        <ele>833.1</ele>
        <time>2026-04-30T12:05:51.999Z</time>
      </trkpt>
      <trkpt lat="43.98599" lon="3.00887">
        <ele>833.3</ele>
        <time>2026-04-30T12:05:52.999Z</time>
      </trkpt>
      <trkpt lat="43.98598" lon="3.00888">
        <ele>833.5</ele>
        <time>2026-04-30T12:05:53.999Z</time>
      </trkpt>
      <trkpt lat="43.98598" lon="3.00887">
        <ele>833.6</ele>
        <time>2026-04-30T12:05:54.999Z</time>
      </trkpt>
      <trkpt lat="43.98597" lon="3.00886">
        <ele>833.8</ele>
        <time>2026-04-30T12:05:55.999Z</time>
      </trkpt>
      <trkpt lat="43.98596" lon="3.00885">
        <ele>834</ele>
        <time>2026-04-30T12:05:56.999Z</time>
      </trkpt>
      <trkpt lat="43.98595" lon="3.00884">
        <ele>834.2</ele>
        <time>2026-04-30T12:05:57.999Z</time>
      </trkpt>
      <trkpt lat="43.98595" lon="3.00882">
        <ele>834.6</ele>
        <time>2026-04-30T12:05:58.999Z</time>
      </trkpt>
      <trkpt lat="43.98594" lon="3.00881">
        <ele>834.9</ele>
        <time>2026-04-30T12:05:59.999Z</time>
      </trkpt>
      <trkpt lat="43.98593" lon="3.0088">
        <ele>835.2</ele>
        <time>2026-04-30T12:06:00.999Z</time>
      </trkpt>
      <trkpt lat="43.98593" lon="3.00878">
        <ele>835.6</ele>
        <time>2026-04-30T12:06:01.999Z</time>
      </trkpt>
      <trkpt lat="43.98592" lon="3.00877">
        <ele>835.7</ele>
        <time>2026-04-30T12:06:02.999Z</time>
      </trkpt>
      <trkpt lat="43.98592" lon="3.00875">
        <ele>835.5</ele>
        <time>2026-04-30T12:06:03.999Z</time>
      </trkpt>
      <trkpt lat="43.98591" lon="3.00874">
        <ele>835.5</ele>
        <time>2026-04-30T12:06:04.999Z</time>
      </trkpt>
      <trkpt lat="43.98591" lon="3.00873">
        <ele>835.7</ele>
        <time>2026-04-30T12:06:05.999Z</time>
      </trkpt>
      <trkpt lat="43.98591" lon="3.00873">
        <ele>835.8</ele>
        <time>2026-04-30T12:06:06.999Z</time>
      </trkpt>
      <trkpt lat="43.9859" lon="3.00872">
        <ele>836.1</ele>
        <time>2026-04-30T12:06:07.999Z</time>
      </trkpt>
      <trkpt lat="43.98589" lon="3.00871">
        <ele>836.8</ele>
        <time>2026-04-30T12:06:08.999Z</time>
      </trkpt>
      <trkpt lat="43.98589" lon="3.0087">
        <ele>837</ele>
        <time>2026-04-30T12:06:09.999Z</time>
      </trkpt>
      <trkpt lat="43.98588" lon="3.00869">
        <ele>837.4</ele>
        <time>2026-04-30T12:06:10.999Z</time>
      </trkpt>
      <trkpt lat="43.98588" lon="3.00867">
        <ele>837.2</ele>
        <time>2026-04-30T12:06:11.999Z</time>
      </trkpt>
      <trkpt lat="43.98587" lon="3.00866">
        <ele>837.2</ele>
        <time>2026-04-30T12:06:12.999Z</time>
      </trkpt>
      <trkpt lat="43.98586" lon="3.00865">
        <ele>836.8</ele>
        <time>2026-04-30T12:06:13.999Z</time>
      </trkpt>
      <trkpt lat="43.98585" lon="3.00864">
        <ele>837</ele>
        <time>2026-04-30T12:06:14.999Z</time>
      </trkpt>
      <trkpt lat="43.98585" lon="3.00862">
        <ele>837</ele>
        <time>2026-04-30T12:06:15.999Z</time>
      </trkpt>
      <trkpt lat="43.98584" lon="3.00861">
        <ele>836.9</ele>
        <time>2026-04-30T12:06:16.999Z</time>
      </trkpt>
      <trkpt lat="43.98584" lon="3.00859">
        <ele>837</ele>
        <time>2026-04-30T12:06:17.999Z</time>
      </trkpt>
      <trkpt lat="43.98583" lon="3.00857">
        <ele>837.3</ele>
        <time>2026-04-30T12:06:18.999Z</time>
      </trkpt>
      <trkpt lat="43.98583" lon="3.00856">
        <ele>837.4</ele>
        <time>2026-04-30T12:06:19.999Z</time>
      </trkpt>
      <trkpt lat="43.98582" lon="3.00855">
        <ele>837.6</ele>
        <time>2026-04-30T12:06:20.999Z</time>
      </trkpt>
      <trkpt lat="43.98582" lon="3.00855">
        <ele>837.8</ele>
        <time>2026-04-30T12:06:21.999Z</time>
      </trkpt>
      <trkpt lat="43.98582" lon="3.00854">
        <ele>838</ele>
        <time>2026-04-30T12:06:22.999Z</time>
      </trkpt>
      <trkpt lat="43.98582" lon="3.00852">
        <ele>838.3</ele>
        <time>2026-04-30T12:06:23.999Z</time>
      </trkpt>
      <trkpt lat="43.98582" lon="3.0085">
        <ele>838.4</ele>
        <time>2026-04-30T12:06:24.999Z</time>
      </trkpt>
      <trkpt lat="43.98582" lon="3.00848">
        <ele>838.5</ele>
        <time>2026-04-30T12:06:25.999Z</time>
      </trkpt>
      <trkpt lat="43.98581" lon="3.00847">
        <ele>838.7</ele>
        <time>2026-04-30T12:06:26.999Z</time>
      </trkpt>
      <trkpt lat="43.9858" lon="3.00847">
        <ele>839</ele>
        <time>2026-04-30T12:06:27.999Z</time>
      </trkpt>
      <trkpt lat="43.98579" lon="3.00847">
        <ele>839</ele>
        <time>2026-04-30T12:06:28.999Z</time>
      </trkpt>
      <trkpt lat="43.98578" lon="3.00847">
        <ele>839</ele>
        <time>2026-04-30T12:06:29.999Z</time>
      </trkpt>
      <trkpt lat="43.98578" lon="3.00847">
        <ele>839.3</ele>
        <time>2026-04-30T12:06:30.999Z</time>
      </trkpt>
      <trkpt lat="43.98578" lon="3.00846">
        <ele>839.2</ele>
        <time>2026-04-30T12:06:31.999Z</time>
      </trkpt>
      <trkpt lat="43.98579" lon="3.00846">
        <ele>839.1</ele>
        <time>2026-04-30T12:06:32.999Z</time>
      </trkpt>
      <trkpt lat="43.98579" lon="3.00846">
        <ele>839.2</ele>
        <time>2026-04-30T12:06:33.999Z</time>
      </trkpt>
      <trkpt lat="43.98578" lon="3.00845">
        <ele>839</ele>
        <time>2026-04-30T12:06:34.999Z</time>
      </trkpt>
      <trkpt lat="43.98578" lon="3.00844">
        <ele>839.1</ele>
        <time>2026-04-30T12:06:35.999Z</time>
      </trkpt>
      <trkpt lat="43.98578" lon="3.00844">
        <ele>839.2</ele>
        <time>2026-04-30T12:06:36.999Z</time>
      </trkpt>
      <trkpt lat="43.98579" lon="3.00842">
        <ele>839.4</ele>
        <time>2026-04-30T12:06:37.999Z</time>
      </trkpt>
      <trkpt lat="43.98579" lon="3.0084">
        <ele>839.3</ele>
        <time>2026-04-30T12:06:38.999Z</time>
      </trkpt>
      <trkpt lat="43.9858" lon="3.00838">
        <ele>839.5</ele>
        <time>2026-04-30T12:06:39.999Z</time>
      </trkpt>
      <trkpt lat="43.9858" lon="3.00836">
        <ele>839.6</ele>
        <time>2026-04-30T12:06:40.999Z</time>
      </trkpt>
      <trkpt lat="43.9858" lon="3.00835">
        <ele>839.6</ele>
        <time>2026-04-30T12:06:41.999Z</time>
      </trkpt>
      <trkpt lat="43.9858" lon="3.00834">
        <ele>840</ele>
        <time>2026-04-30T12:06:42.999Z</time>
      </trkpt>
      <trkpt lat="43.98579" lon="3.00832">
        <ele>840.6</ele>
        <time>2026-04-30T12:06:43.999Z</time>
      </trkpt>
      <trkpt lat="43.98579" lon="3.00832">
        <ele>841.2</ele>
        <time>2026-04-30T12:06:44.999Z</time>
      </trkpt>
      <trkpt lat="43.98579" lon="3.00832">
        <ele>841.7</ele>
        <time>2026-04-30T12:06:45.999Z</time>
      </trkpt>
      <trkpt lat="43.98579" lon="3.00832">
        <ele>841.9</ele>
        <time>2026-04-30T12:06:46.999Z</time>
      </trkpt>
      <trkpt lat="43.98579" lon="3.00832">
        <ele>841.3</ele>
        <time>2026-04-30T12:06:47.999Z</time>
      </trkpt>
      <trkpt lat="43.98579" lon="3.00832">
        <ele>841.5</ele>
        <time>2026-04-30T12:06:48.999Z</time>
      </trkpt>
      <trkpt lat="43.98579" lon="3.00832">
        <ele>841.5</ele>
        <time>2026-04-30T12:06:49.999Z</time>
      </trkpt>
      <trkpt lat="43.98579" lon="3.00832">
        <ele>841.7</ele>
        <time>2026-04-30T12:06:50.999Z</time>
      </trkpt>
      <trkpt lat="43.98579" lon="3.00832">
        <ele>841.8</ele>
        <time>2026-04-30T12:06:51.999Z</time>
      </trkpt>
      <trkpt lat="43.98579" lon="3.00832">
        <ele>842.1</ele>
        <time>2026-04-30T12:06:52.999Z</time>
      </trkpt>
      <trkpt lat="43.98579" lon="3.00832">
        <ele>842.4</ele>
        <time>2026-04-30T12:06:53.999Z</time>
      </trkpt>
      <trkpt lat="43.98579" lon="3.00832">
        <ele>842.7</ele>
        <time>2026-04-30T12:06:54.999Z</time>
      </trkpt>
      <trkpt lat="43.98579" lon="3.00832">
        <ele>842.8</ele>
        <time>2026-04-30T12:06:55.999Z</time>
      </trkpt>
      <trkpt lat="43.98579" lon="3.00832">
        <ele>843</ele>
        <time>2026-04-30T12:06:56.999Z</time>
      </trkpt>
      <trkpt lat="43.98579" lon="3.00833">
        <ele>842.8</ele>
        <time>2026-04-30T12:06:57.999Z</time>
      </trkpt>
      <trkpt lat="43.98579" lon="3.00833">
        <ele>842.8</ele>
        <time>2026-04-30T12:06:58.999Z</time>
      </trkpt>
      <trkpt lat="43.98579" lon="3.00833">
        <ele>842.6</ele>
        <time>2026-04-30T12:06:59.999Z</time>
      </trkpt>
      <trkpt lat="43.98579" lon="3.00833">
        <ele>842.7</ele>
        <time>2026-04-30T12:07:00.999Z</time>
      </trkpt>
      <trkpt lat="43.98579" lon="3.00833">
        <ele>842.9</ele>
        <time>2026-04-30T12:07:01.999Z</time>
      </trkpt>
      <trkpt lat="43.98579" lon="3.00833">
        <ele>843</ele>
        <time>2026-04-30T12:07:02.999Z</time>
      </trkpt>
      <trkpt lat="43.98579" lon="3.00833">
        <ele>842.8</ele>
        <time>2026-04-30T12:07:03.999Z</time>
      </trkpt>
      <trkpt lat="43.98579" lon="3.00833">
        <ele>842.8</ele>
        <time>2026-04-30T12:07:04.999Z</time>
      </trkpt>
      <trkpt lat="43.9858" lon="3.00832">
        <ele>843</ele>
        <time>2026-04-30T12:07:05.999Z</time>
      </trkpt>
      <trkpt lat="43.98581" lon="3.0083">
        <ele>843.1</ele>
        <time>2026-04-30T12:07:06.999Z</time>
      </trkpt>
      <trkpt lat="43.98582" lon="3.00828">
        <ele>843.2</ele>
        <time>2026-04-30T12:07:07.999Z</time>
      </trkpt>
      <trkpt lat="43.98583" lon="3.00827">
        <ele>843.2</ele>
        <time>2026-04-30T12:07:08.999Z</time>
      </trkpt>
      <trkpt lat="43.98583" lon="3.00825">
        <ele>843.2</ele>
        <time>2026-04-30T12:07:09.999Z</time>
      </trkpt>
      <trkpt lat="43.98584" lon="3.00824">
        <ele>843.2</ele>
        <time>2026-04-30T12:07:10.999Z</time>
      </trkpt>
      <trkpt lat="43.98585" lon="3.00823">
        <ele>843.2</ele>
        <time>2026-04-30T12:07:11.999Z</time>
      </trkpt>
      <trkpt lat="43.98586" lon="3.00822">
        <ele>843.2</ele>
        <time>2026-04-30T12:07:12.999Z</time>
      </trkpt>
      <trkpt lat="43.98586" lon="3.00822">
        <ele>843.3</ele>
        <time>2026-04-30T12:07:13.999Z</time>
      </trkpt>
      <trkpt lat="43.98586" lon="3.00822">
        <ele>843.3</ele>
        <time>2026-04-30T12:07:14.999Z</time>
      </trkpt>
      <trkpt lat="43.98586" lon="3.00821">
        <ele>843.4</ele>
        <time>2026-04-30T12:07:15.999Z</time>
      </trkpt>
      <trkpt lat="43.98586" lon="3.0082">
        <ele>843.6</ele>
        <time>2026-04-30T12:07:16.999Z</time>
      </trkpt>
      <trkpt lat="43.98587" lon="3.00818">
        <ele>843.6</ele>
        <time>2026-04-30T12:07:17.999Z</time>
      </trkpt>
      <trkpt lat="43.98588" lon="3.00817">
        <ele>843.2</ele>
        <time>2026-04-30T12:07:18.999Z</time>
      </trkpt>
      <trkpt lat="43.98589" lon="3.00815">
        <ele>843.1</ele>
        <time>2026-04-30T12:07:19.999Z</time>
      </trkpt>
      <trkpt lat="43.9859" lon="3.00814">
        <ele>843.1</ele>
        <time>2026-04-30T12:07:20.999Z</time>
      </trkpt>
      <trkpt lat="43.98591" lon="3.00813">
        <ele>842.7</ele>
        <time>2026-04-30T12:07:21.999Z</time>
      </trkpt>
      <trkpt lat="43.98592" lon="3.00813">
        <ele>842.7</ele>
        <time>2026-04-30T12:07:22.999Z</time>
      </trkpt>
      <trkpt lat="43.98593" lon="3.00812">
        <ele>842.6</ele>
        <time>2026-04-30T12:07:23.999Z</time>
      </trkpt>
      <trkpt lat="43.98594" lon="3.00812">
        <ele>842.7</ele>
        <time>2026-04-30T12:07:24.999Z</time>
      </trkpt>
      <trkpt lat="43.98594" lon="3.00811">
        <ele>842.8</ele>
        <time>2026-04-30T12:07:25.999Z</time>
      </trkpt>
      <trkpt lat="43.98595" lon="3.00809">
        <ele>842.8</ele>
        <time>2026-04-30T12:07:26.999Z</time>
      </trkpt>
      <trkpt lat="43.98596" lon="3.00808">
        <ele>842.6</ele>
        <time>2026-04-30T12:07:27.999Z</time>
      </trkpt>
      <trkpt lat="43.98597" lon="3.00807">
        <ele>842.7</ele>
        <time>2026-04-30T12:07:28.999Z</time>
      </trkpt>
      <trkpt lat="43.98598" lon="3.00807">
        <ele>842.5</ele>
        <time>2026-04-30T12:07:29.999Z</time>
      </trkpt>
      <trkpt lat="43.98599" lon="3.00806">
        <ele>842.4</ele>
        <time>2026-04-30T12:07:30.999Z</time>
      </trkpt>
      <trkpt lat="43.98599" lon="3.00805">
        <ele>842.4</ele>
        <time>2026-04-30T12:07:31.999Z</time>
      </trkpt>
      <trkpt lat="43.986" lon="3.00805">
        <ele>842.6</ele>
        <time>2026-04-30T12:07:32.999Z</time>
      </trkpt>
      <trkpt lat="43.98601" lon="3.00804">
        <ele>843</ele>
        <time>2026-04-30T12:07:33.999Z</time>
      </trkpt>
      <trkpt lat="43.98602" lon="3.00803">
        <ele>843.4</ele>
        <time>2026-04-30T12:07:34.999Z</time>
      </trkpt>
      <trkpt lat="43.98603" lon="3.00802">
        <ele>843.3</ele>
        <time>2026-04-30T12:07:35.999Z</time>
      </trkpt>
      <trkpt lat="43.98603" lon="3.00801">
        <ele>843.3</ele>
        <time>2026-04-30T12:07:36.999Z</time>
      </trkpt>
      <trkpt lat="43.98604" lon="3.008">
        <ele>843.1</ele>
        <time>2026-04-30T12:07:37.999Z</time>
      </trkpt>
      <trkpt lat="43.98605" lon="3.00798">
        <ele>843.2</ele>
        <time>2026-04-30T12:07:38.999Z</time>
      </trkpt>
      <trkpt lat="43.98606" lon="3.00796">
        <ele>843.5</ele>
        <time>2026-04-30T12:07:39.999Z</time>
      </trkpt>
      <trkpt lat="43.98607" lon="3.00794">
        <ele>843.7</ele>
        <time>2026-04-30T12:07:40.999Z</time>
      </trkpt>
      <trkpt lat="43.98607" lon="3.00793">
        <ele>844</ele>
        <time>2026-04-30T12:07:41.999Z</time>
      </trkpt>
      <trkpt lat="43.98607" lon="3.00792">
        <ele>844.4</ele>
        <time>2026-04-30T12:07:42.999Z</time>
      </trkpt>
      <trkpt lat="43.98608" lon="3.00792">
        <ele>844.4</ele>
        <time>2026-04-30T12:07:43.999Z</time>
      </trkpt>
      <trkpt lat="43.98608" lon="3.00791">
        <ele>844.6</ele>
        <time>2026-04-30T12:07:44.999Z</time>
      </trkpt>
      <trkpt lat="43.98609" lon="3.00791">
        <ele>844.4</ele>
        <time>2026-04-30T12:07:45.999Z</time>
      </trkpt>
      <trkpt lat="43.9861" lon="3.0079">
        <ele>844.4</ele>
        <time>2026-04-30T12:07:46.999Z</time>
      </trkpt>
      <trkpt lat="43.98611" lon="3.0079">
        <ele>844.7</ele>
        <time>2026-04-30T12:07:47.999Z</time>
      </trkpt>
      <trkpt lat="43.98611" lon="3.00789">
        <ele>845</ele>
        <time>2026-04-30T12:07:48.999Z</time>
      </trkpt>
      <trkpt lat="43.98612" lon="3.00788">
        <ele>845.4</ele>
        <time>2026-04-30T12:07:49.999Z</time>
      </trkpt>
      <trkpt lat="43.98613" lon="3.00787">
        <ele>845.7</ele>
        <time>2026-04-30T12:07:50.999Z</time>
      </trkpt>
      <trkpt lat="43.98613" lon="3.00787">
        <ele>845.8</ele>
        <time>2026-04-30T12:07:51.999Z</time>
      </trkpt>
      <trkpt lat="43.98614" lon="3.00786">
        <ele>845.7</ele>
        <time>2026-04-30T12:07:52.999Z</time>
      </trkpt>
      <trkpt lat="43.98615" lon="3.00785">
        <ele>845.9</ele>
        <time>2026-04-30T12:07:53.999Z</time>
      </trkpt>
      <trkpt lat="43.98616" lon="3.00784">
        <ele>846.2</ele>
        <time>2026-04-30T12:07:54.999Z</time>
      </trkpt>
      <trkpt lat="43.98616" lon="3.00783">
        <ele>846.4</ele>
        <time>2026-04-30T12:07:55.999Z</time>
      </trkpt>
      <trkpt lat="43.98618" lon="3.00782">
        <ele>846.4</ele>
        <time>2026-04-30T12:07:56.999Z</time>
      </trkpt>
      <trkpt lat="43.98619" lon="3.00781">
        <ele>846.5</ele>
        <time>2026-04-30T12:07:57.999Z</time>
      </trkpt>
      <trkpt lat="43.9862" lon="3.00781">
        <ele>846.7</ele>
        <time>2026-04-30T12:07:58.999Z</time>
      </trkpt>
      <trkpt lat="43.98621" lon="3.0078">
        <ele>846.8</ele>
        <time>2026-04-30T12:07:59.999Z</time>
      </trkpt>
      <trkpt lat="43.98622" lon="3.00779">
        <ele>847.1</ele>
        <time>2026-04-30T12:08:00.999Z</time>
      </trkpt>
      <trkpt lat="43.98623" lon="3.00778">
        <ele>847.2</ele>
        <time>2026-04-30T12:08:01.999Z</time>
      </trkpt>
      <trkpt lat="43.98624" lon="3.00777">
        <ele>847.4</ele>
        <time>2026-04-30T12:08:02.999Z</time>
      </trkpt>
      <trkpt lat="43.98625" lon="3.00776">
        <ele>847.4</ele>
        <time>2026-04-30T12:08:03.999Z</time>
      </trkpt>
      <trkpt lat="43.98627" lon="3.00775">
        <ele>847.6</ele>
        <time>2026-04-30T12:08:04.999Z</time>
      </trkpt>
      <trkpt lat="43.98628" lon="3.00774">
        <ele>847.7</ele>
        <time>2026-04-30T12:08:05.999Z</time>
      </trkpt>
      <trkpt lat="43.98629" lon="3.00773">
        <ele>847.4</ele>
        <time>2026-04-30T12:08:06.999Z</time>
      </trkpt>
      <trkpt lat="43.98629" lon="3.00772">
        <ele>847.3</ele>
        <time>2026-04-30T12:08:07.999Z</time>
      </trkpt>
      <trkpt lat="43.9863" lon="3.00771">
        <ele>847.3</ele>
        <time>2026-04-30T12:08:08.999Z</time>
      </trkpt>
      <trkpt lat="43.9863" lon="3.00771">
        <ele>847.5</ele>
        <time>2026-04-30T12:08:09.999Z</time>
      </trkpt>
      <trkpt lat="43.98631" lon="3.0077">
        <ele>847.3</ele>
        <time>2026-04-30T12:08:10.999Z</time>
      </trkpt>
      <trkpt lat="43.98632" lon="3.00769">
        <ele>847.3</ele>
        <time>2026-04-30T12:08:11.999Z</time>
      </trkpt>
      <trkpt lat="43.98633" lon="3.00769">
        <ele>847.5</ele>
        <time>2026-04-30T12:08:12.999Z</time>
      </trkpt>
      <trkpt lat="43.98634" lon="3.00769">
        <ele>847.6</ele>
        <time>2026-04-30T12:08:13.999Z</time>
      </trkpt>
      <trkpt lat="43.98636" lon="3.00769">
        <ele>847.9</ele>
        <time>2026-04-30T12:08:14.999Z</time>
      </trkpt>
      <trkpt lat="43.98637" lon="3.00768">
        <ele>848</ele>
        <time>2026-04-30T12:08:15.999Z</time>
      </trkpt>
      <trkpt lat="43.98637" lon="3.00767">
        <ele>848.1</ele>
        <time>2026-04-30T12:08:16.999Z</time>
      </trkpt>
      <trkpt lat="43.98638" lon="3.00766">
        <ele>848.3</ele>
        <time>2026-04-30T12:08:17.999Z</time>
      </trkpt>
      <trkpt lat="43.98639" lon="3.00766">
        <ele>848.4</ele>
        <time>2026-04-30T12:08:18.999Z</time>
      </trkpt>
      <trkpt lat="43.9864" lon="3.00765">
        <ele>848.5</ele>
        <time>2026-04-30T12:08:19.999Z</time>
      </trkpt>
      <trkpt lat="43.98641" lon="3.00764">
        <ele>849.1</ele>
        <time>2026-04-30T12:08:20.999Z</time>
      </trkpt>
      <trkpt lat="43.98641" lon="3.00764">
        <ele>849.3</ele>
        <time>2026-04-30T12:08:21.999Z</time>
      </trkpt>
      <trkpt lat="43.98642" lon="3.00762">
        <ele>849</ele>
        <time>2026-04-30T12:08:22.999Z</time>
      </trkpt>
      <trkpt lat="43.98643" lon="3.00761">
        <ele>849.2</ele>
        <time>2026-04-30T12:08:23.999Z</time>
      </trkpt>
      <trkpt lat="43.98644" lon="3.00759">
        <ele>849.1</ele>
        <time>2026-04-30T12:08:24.999Z</time>
      </trkpt>
      <trkpt lat="43.98645" lon="3.00758">
        <ele>849</ele>
        <time>2026-04-30T12:08:25.999Z</time>
      </trkpt>
      <trkpt lat="43.98646" lon="3.00757">
        <ele>848.9</ele>
        <time>2026-04-30T12:08:26.999Z</time>
      </trkpt>
      <trkpt lat="43.98647" lon="3.00756">
        <ele>849</ele>
        <time>2026-04-30T12:08:27.999Z</time>
      </trkpt>
      <trkpt lat="43.98647" lon="3.00755">
        <ele>848.8</ele>
        <time>2026-04-30T12:08:28.999Z</time>
      </trkpt>
      <trkpt lat="43.98649" lon="3.00753">
        <ele>849.3</ele>
        <time>2026-04-30T12:08:29.999Z</time>
      </trkpt>
      <trkpt lat="43.98649" lon="3.00752">
        <ele>849.6</ele>
        <time>2026-04-30T12:08:30.999Z</time>
      </trkpt>
      <trkpt lat="43.9865" lon="3.00751">
        <ele>849.7</ele>
        <time>2026-04-30T12:08:31.999Z</time>
      </trkpt>
      <trkpt lat="43.98651" lon="3.0075">
        <ele>849.8</ele>
        <time>2026-04-30T12:08:32.999Z</time>
      </trkpt>
      <trkpt lat="43.98652" lon="3.00749">
        <ele>850</ele>
        <time>2026-04-30T12:08:33.999Z</time>
      </trkpt>
      <trkpt lat="43.98653" lon="3.00749">
        <ele>850.2</ele>
        <time>2026-04-30T12:08:34.999Z</time>
      </trkpt>
      <trkpt lat="43.98655" lon="3.00748">
        <ele>850.6</ele>
        <time>2026-04-30T12:08:35.999Z</time>
      </trkpt>
      <trkpt lat="43.98655" lon="3.00748">
        <ele>850.8</ele>
        <time>2026-04-30T12:08:36.999Z</time>
      </trkpt>
      <trkpt lat="43.98656" lon="3.00747">
        <ele>851</ele>
        <time>2026-04-30T12:08:37.999Z</time>
      </trkpt>
      <trkpt lat="43.98657" lon="3.00747">
        <ele>851</ele>
        <time>2026-04-30T12:08:38.999Z</time>
      </trkpt>
      <trkpt lat="43.98657" lon="3.00746">
        <ele>851.2</ele>
        <time>2026-04-30T12:08:39.999Z</time>
      </trkpt>
      <trkpt lat="43.98658" lon="3.00745">
        <ele>851.3</ele>
        <time>2026-04-30T12:08:40.999Z</time>
      </trkpt>
      <trkpt lat="43.98659" lon="3.00743">
        <ele>851.3</ele>
        <time>2026-04-30T12:08:41.999Z</time>
      </trkpt>
      <trkpt lat="43.9866" lon="3.00742">
        <ele>851.5</ele>
        <time>2026-04-30T12:08:42.999Z</time>
      </trkpt>
      <trkpt lat="43.98661" lon="3.00741">
        <ele>851.9</ele>
        <time>2026-04-30T12:08:43.999Z</time>
      </trkpt>
      <trkpt lat="43.98662" lon="3.00741">
        <ele>852</ele>
        <time>2026-04-30T12:08:44.999Z</time>
      </trkpt>
      <trkpt lat="43.98663" lon="3.0074">
        <ele>852.4</ele>
        <time>2026-04-30T12:08:45.999Z</time>
      </trkpt>
      <trkpt lat="43.98664" lon="3.00739">
        <ele>852.8</ele>
        <time>2026-04-30T12:08:46.999Z</time>
      </trkpt>
      <trkpt lat="43.98664" lon="3.00738">
        <ele>853.1</ele>
        <time>2026-04-30T12:08:47.999Z</time>
      </trkpt>
      <trkpt lat="43.98666" lon="3.00736">
        <ele>853.2</ele>
        <time>2026-04-30T12:08:48.999Z</time>
      </trkpt>
      <trkpt lat="43.98667" lon="3.00735">
        <ele>853.4</ele>
        <time>2026-04-30T12:08:49.999Z</time>
      </trkpt>
      <trkpt lat="43.98668" lon="3.00734">
        <ele>854</ele>
        <time>2026-04-30T12:08:50.999Z</time>
      </trkpt>
      <trkpt lat="43.9867" lon="3.00734">
        <ele>854.4</ele>
        <time>2026-04-30T12:08:51.999Z</time>
      </trkpt>
      <trkpt lat="43.98671" lon="3.00733">
        <ele>854.8</ele>
        <time>2026-04-30T12:08:52.999Z</time>
      </trkpt>
      <trkpt lat="43.98672" lon="3.00732">
        <ele>855.1</ele>
        <time>2026-04-30T12:08:53.999Z</time>
      </trkpt>
      <trkpt lat="43.98674" lon="3.00732">
        <ele>855.4</ele>
        <time>2026-04-30T12:08:54.999Z</time>
      </trkpt>
      <trkpt lat="43.98675" lon="3.00731">
        <ele>855.4</ele>
        <time>2026-04-30T12:08:55.999Z</time>
      </trkpt>
      <trkpt lat="43.98676" lon="3.00729">
        <ele>855.5</ele>
        <time>2026-04-30T12:08:56.999Z</time>
      </trkpt>
      <trkpt lat="43.98677" lon="3.00728">
        <ele>855.5</ele>
        <time>2026-04-30T12:08:57.999Z</time>
      </trkpt>
      <trkpt lat="43.98677" lon="3.00728">
        <ele>855.7</ele>
        <time>2026-04-30T12:08:58.999Z</time>
      </trkpt>
      <trkpt lat="43.98678" lon="3.00727">
        <ele>855.9</ele>
        <time>2026-04-30T12:08:59.999Z</time>
      </trkpt>
      <trkpt lat="43.98679" lon="3.00726">
        <ele>856</ele>
        <time>2026-04-30T12:09:00.999Z</time>
      </trkpt>
      <trkpt lat="43.9868" lon="3.00725">
        <ele>856.1</ele>
        <time>2026-04-30T12:09:01.999Z</time>
      </trkpt>
      <trkpt lat="43.98681" lon="3.00724">
        <ele>856.1</ele>
        <time>2026-04-30T12:09:02.999Z</time>
      </trkpt>
      <trkpt lat="43.98681" lon="3.00722">
        <ele>855.9</ele>
        <time>2026-04-30T12:09:03.999Z</time>
      </trkpt>
      <trkpt lat="43.98681" lon="3.00721">
        <ele>856</ele>
        <time>2026-04-30T12:09:04.999Z</time>
      </trkpt>
      <trkpt lat="43.98682" lon="3.00719">
        <ele>856</ele>
        <time>2026-04-30T12:09:05.999Z</time>
      </trkpt>
      <trkpt lat="43.98682" lon="3.00717">
        <ele>855.9</ele>
        <time>2026-04-30T12:09:06.999Z</time>
      </trkpt>
      <trkpt lat="43.98683" lon="3.00716">
        <ele>855.7</ele>
        <time>2026-04-30T12:09:07.999Z</time>
      </trkpt>
      <trkpt lat="43.98683" lon="3.00714">
        <ele>855.8</ele>
        <time>2026-04-30T12:09:08.999Z</time>
      </trkpt>
      <trkpt lat="43.98683" lon="3.00713">
        <ele>856</ele>
        <time>2026-04-30T12:09:09.999Z</time>
      </trkpt>
      <trkpt lat="43.98682" lon="3.00711">
        <ele>856.1</ele>
        <time>2026-04-30T12:09:10.999Z</time>
      </trkpt>
      <trkpt lat="43.98681" lon="3.00709">
        <ele>856.9</ele>
        <time>2026-04-30T12:09:11.999Z</time>
      </trkpt>
      <trkpt lat="43.9868" lon="3.00708">
        <ele>857</ele>
        <time>2026-04-30T12:09:12.999Z</time>
      </trkpt>
      <trkpt lat="43.98678" lon="3.00707">
        <ele>857</ele>
        <time>2026-04-30T12:09:13.999Z</time>
      </trkpt>
      <trkpt lat="43.98677" lon="3.00707">
        <ele>857</ele>
        <time>2026-04-30T12:09:14.999Z</time>
      </trkpt>
      <trkpt lat="43.98676" lon="3.00707">
        <ele>856.9</ele>
        <time>2026-04-30T12:09:15.999Z</time>
      </trkpt>
      <trkpt lat="43.98674" lon="3.00707">
        <ele>856.6</ele>
        <time>2026-04-30T12:09:16.999Z</time>
      </trkpt>
      <trkpt lat="43.98672" lon="3.00706">
        <ele>856.7</ele>
        <time>2026-04-30T12:09:17.999Z</time>
      </trkpt>
      <trkpt lat="43.98671" lon="3.00706">
        <ele>857</ele>
        <time>2026-04-30T12:09:18.999Z</time>
      </trkpt>
      <trkpt lat="43.9867" lon="3.00706">
        <ele>857.2</ele>
        <time>2026-04-30T12:09:19.999Z</time>
      </trkpt>
      <trkpt lat="43.98669" lon="3.00705">
        <ele>857.5</ele>
        <time>2026-04-30T12:09:20.999Z</time>
      </trkpt>
      <trkpt lat="43.98668" lon="3.00705">
        <ele>857.3</ele>
        <time>2026-04-30T12:09:21.999Z</time>
      </trkpt>
      <trkpt lat="43.98667" lon="3.00704">
        <ele>857.7</ele>
        <time>2026-04-30T12:09:22.999Z</time>
      </trkpt>
      <trkpt lat="43.98666" lon="3.00705">
        <ele>857.8</ele>
        <time>2026-04-30T12:09:23.999Z</time>
      </trkpt>
      <trkpt lat="43.98665" lon="3.00704">
        <ele>857.6</ele>
        <time>2026-04-30T12:09:24.999Z</time>
      </trkpt>
      <trkpt lat="43.98664" lon="3.00704">
        <ele>857.5</ele>
        <time>2026-04-30T12:09:25.999Z</time>
      </trkpt>
      <trkpt lat="43.98662" lon="3.00704">
        <ele>858.1</ele>
        <time>2026-04-30T12:09:26.999Z</time>
      </trkpt>
      <trkpt lat="43.98662" lon="3.00704">
        <ele>858.6</ele>
        <time>2026-04-30T12:09:27.999Z</time>
      </trkpt>
      <trkpt lat="43.98661" lon="3.00703">
        <ele>858.8</ele>
        <time>2026-04-30T12:09:28.999Z</time>
      </trkpt>
      <trkpt lat="43.9866" lon="3.00703">
        <ele>858.5</ele>
        <time>2026-04-30T12:09:29.999Z</time>
      </trkpt>
      <trkpt lat="43.98658" lon="3.00703">
        <ele>858.3</ele>
        <time>2026-04-30T12:09:30.999Z</time>
      </trkpt>
      <trkpt lat="43.98657" lon="3.00703">
        <ele>857.9</ele>
        <time>2026-04-30T12:09:31.999Z</time>
      </trkpt>
      <trkpt lat="43.98656" lon="3.00703">
        <ele>858</ele>
        <time>2026-04-30T12:09:32.999Z</time>
      </trkpt>
      <trkpt lat="43.98655" lon="3.00703">
        <ele>858.1</ele>
        <time>2026-04-30T12:09:33.999Z</time>
      </trkpt>
      <trkpt lat="43.98654" lon="3.00703">
        <ele>858.3</ele>
        <time>2026-04-30T12:09:34.999Z</time>
      </trkpt>
      <trkpt lat="43.98653" lon="3.00703">
        <ele>858.2</ele>
        <time>2026-04-30T12:09:35.999Z</time>
      </trkpt>
      <trkpt lat="43.98651" lon="3.00703">
        <ele>858.5</ele>
        <time>2026-04-30T12:09:36.999Z</time>
      </trkpt>
      <trkpt lat="43.9865" lon="3.00703">
        <ele>858.5</ele>
        <time>2026-04-30T12:09:37.999Z</time>
      </trkpt>
      <trkpt lat="43.98649" lon="3.00702">
        <ele>858.5</ele>
        <time>2026-04-30T12:09:38.999Z</time>
      </trkpt>
      <trkpt lat="43.98648" lon="3.00702">
        <ele>858.1</ele>
        <time>2026-04-30T12:09:39.999Z</time>
      </trkpt>
      <trkpt lat="43.98647" lon="3.00702">
        <ele>858.3</ele>
        <time>2026-04-30T12:09:40.999Z</time>
      </trkpt>
      <trkpt lat="43.98647" lon="3.00702">
        <ele>858.2</ele>
        <time>2026-04-30T12:09:41.999Z</time>
      </trkpt>
      <trkpt lat="43.98646" lon="3.00702">
        <ele>858.5</ele>
        <time>2026-04-30T12:09:42.999Z</time>
      </trkpt>
      <trkpt lat="43.98646" lon="3.00702">
        <ele>858.9</ele>
        <time>2026-04-30T12:09:43.999Z</time>
      </trkpt>
      <trkpt lat="43.98645" lon="3.00702">
        <ele>859.3</ele>
        <time>2026-04-30T12:09:44.999Z</time>
      </trkpt>
      <trkpt lat="43.98645" lon="3.00702">
        <ele>859.1</ele>
        <time>2026-04-30T12:09:45.999Z</time>
      </trkpt>
      <trkpt lat="43.98645" lon="3.00703">
        <ele>859.4</ele>
        <time>2026-04-30T12:09:46.999Z</time>
      </trkpt>
      <trkpt lat="43.98644" lon="3.00703">
        <ele>859.7</ele>
        <time>2026-04-30T12:09:47.999Z</time>
      </trkpt>
      <trkpt lat="43.98644" lon="3.00703">
        <ele>859.4</ele>
        <time>2026-04-30T12:09:48.999Z</time>
      </trkpt>
      <trkpt lat="43.98644" lon="3.00703">
        <ele>858.8</ele>
        <time>2026-04-30T12:09:49.999Z</time>
      </trkpt>
      <trkpt lat="43.98644" lon="3.00703">
        <ele>858.7</ele>
        <time>2026-04-30T12:09:50.999Z</time>
      </trkpt>
      <trkpt lat="43.98644" lon="3.00703">
        <ele>858.6</ele>
        <time>2026-04-30T12:09:51.999Z</time>
      </trkpt>
      <trkpt lat="43.98644" lon="3.00703">
        <ele>858.5</ele>
        <time>2026-04-30T12:09:52.999Z</time>
      </trkpt>
      <trkpt lat="43.98644" lon="3.00703">
        <ele>858.5</ele>
        <time>2026-04-30T12:09:53.999Z</time>
      </trkpt>
      <trkpt lat="43.98644" lon="3.00703">
        <ele>858.6</ele>
        <time>2026-04-30T12:09:54.999Z</time>
      </trkpt>
      <trkpt lat="43.98644" lon="3.00703">
        <ele>858.7</ele>
        <time>2026-04-30T12:09:55.999Z</time>
      </trkpt>
      <trkpt lat="43.98644" lon="3.00703">
        <ele>858.6</ele>
        <time>2026-04-30T12:09:56.999Z</time>
      </trkpt>
      <trkpt lat="43.98644" lon="3.00702">
        <ele>858.5</ele>
        <time>2026-04-30T12:09:57.999Z</time>
      </trkpt>
      <trkpt lat="43.98644" lon="3.00702">
        <ele>858.5</ele>
        <time>2026-04-30T12:09:58.999Z</time>
      </trkpt>
      <trkpt lat="43.98644" lon="3.00702">
        <ele>858.7</ele>
        <time>2026-04-30T12:09:59.999Z</time>
      </trkpt>
      <trkpt lat="43.98644" lon="3.00702">
        <ele>858.6</ele>
        <time>2026-04-30T12:10:00.999Z</time>
      </trkpt>
      <trkpt lat="43.98644" lon="3.00702">
        <ele>858.8</ele>
        <time>2026-04-30T12:10:01.999Z</time>
      </trkpt>
      <trkpt lat="43.98644" lon="3.00702">
        <ele>858.8</ele>
        <time>2026-04-30T12:10:02.999Z</time>
      </trkpt>
      <trkpt lat="43.98644" lon="3.00702">
        <ele>858.9</ele>
        <time>2026-04-30T12:10:03.999Z</time>
      </trkpt>
      <trkpt lat="43.98644" lon="3.00702">
        <ele>859.1</ele>
        <time>2026-04-30T12:10:04.999Z</time>
      </trkpt>
      <trkpt lat="43.98645" lon="3.00702">
        <ele>859.2</ele>
        <time>2026-04-30T12:10:05.999Z</time>
      </trkpt>
      <trkpt lat="43.98645" lon="3.00702">
        <ele>859.3</ele>
        <time>2026-04-30T12:10:06.999Z</time>
      </trkpt>
      <trkpt lat="43.98644" lon="3.00701">
        <ele>859.6</ele>
        <time>2026-04-30T12:10:07.999Z</time>
      </trkpt>
      <trkpt lat="43.98643" lon="3.00702">
        <ele>859.6</ele>
        <time>2026-04-30T12:10:08.999Z</time>
      </trkpt>
      <trkpt lat="43.98642" lon="3.00701">
        <ele>859.5</ele>
        <time>2026-04-30T12:10:09.999Z</time>
      </trkpt>
      <trkpt lat="43.98641" lon="3.00701">
        <ele>859.7</ele>
        <time>2026-04-30T12:10:10.999Z</time>
      </trkpt>
      <trkpt lat="43.9864" lon="3.007">
        <ele>859.8</ele>
        <time>2026-04-30T12:10:11.999Z</time>
      </trkpt>
      <trkpt lat="43.98639" lon="3.00699">
        <ele>859.7</ele>
        <time>2026-04-30T12:10:12.999Z</time>
      </trkpt>
      <trkpt lat="43.98638" lon="3.00699">
        <ele>859.6</ele>
        <time>2026-04-30T12:10:13.999Z</time>
      </trkpt>
      <trkpt lat="43.98637" lon="3.00699">
        <ele>859.6</ele>
        <time>2026-04-30T12:10:14.999Z</time>
      </trkpt>
      <trkpt lat="43.98636" lon="3.00699">
        <ele>859.6</ele>
        <time>2026-04-30T12:10:15.999Z</time>
      </trkpt>
      <trkpt lat="43.98635" lon="3.00699">
        <ele>859.5</ele>
        <time>2026-04-30T12:10:16.999Z</time>
      </trkpt>
      <trkpt lat="43.98634" lon="3.00698">
        <ele>859.4</ele>
        <time>2026-04-30T12:10:17.999Z</time>
      </trkpt>
      <trkpt lat="43.98633" lon="3.00698">
        <ele>859.3</ele>
        <time>2026-04-30T12:10:18.999Z</time>
      </trkpt>
      <trkpt lat="43.98632" lon="3.00698">
        <ele>859.1</ele>
        <time>2026-04-30T12:10:19.999Z</time>
      </trkpt>
      <trkpt lat="43.98631" lon="3.00698">
        <ele>858.9</ele>
        <time>2026-04-30T12:10:20.999Z</time>
      </trkpt>
      <trkpt lat="43.98631" lon="3.00698">
        <ele>858.9</ele>
        <time>2026-04-30T12:10:21.999Z</time>
      </trkpt>
      <trkpt lat="43.98631" lon="3.00697">
        <ele>858.8</ele>
        <time>2026-04-30T12:10:22.999Z</time>
      </trkpt>
      <trkpt lat="43.98631" lon="3.00697">
        <ele>859</ele>
        <time>2026-04-30T12:10:23.999Z</time>
      </trkpt>
      <trkpt lat="43.98631" lon="3.00697">
        <ele>859.3</ele>
        <time>2026-04-30T12:10:24.999Z</time>
      </trkpt>
      <trkpt lat="43.9863" lon="3.00696">
        <ele>859.4</ele>
        <time>2026-04-30T12:10:25.999Z</time>
      </trkpt>
      <trkpt lat="43.98628" lon="3.00696">
        <ele>859.6</ele>
        <time>2026-04-30T12:10:26.999Z</time>
      </trkpt>
      <trkpt lat="43.98627" lon="3.00696">
        <ele>859.6</ele>
        <time>2026-04-30T12:10:27.999Z</time>
      </trkpt>
      <trkpt lat="43.98626" lon="3.00696">
        <ele>859.5</ele>
        <time>2026-04-30T12:10:28.999Z</time>
      </trkpt>
      <trkpt lat="43.98625" lon="3.00696">
        <ele>859.7</ele>
        <time>2026-04-30T12:10:29.999Z</time>
      </trkpt>
      <trkpt lat="43.98624" lon="3.00695">
        <ele>860.2</ele>
        <time>2026-04-30T12:10:30.999Z</time>
      </trkpt>
      <trkpt lat="43.98623" lon="3.00695">
        <ele>860.4</ele>
        <time>2026-04-30T12:10:31.999Z</time>
      </trkpt>
      <trkpt lat="43.98622" lon="3.00693">
        <ele>860.6</ele>
        <time>2026-04-30T12:10:32.999Z</time>
      </trkpt>
      <trkpt lat="43.98621" lon="3.00692">
        <ele>860.7</ele>
        <time>2026-04-30T12:10:33.999Z</time>
      </trkpt>
      <trkpt lat="43.9862" lon="3.00692">
        <ele>860.5</ele>
        <time>2026-04-30T12:10:34.999Z</time>
      </trkpt>
      <trkpt lat="43.98619" lon="3.00692">
        <ele>860.3</ele>
        <time>2026-04-30T12:10:35.999Z</time>
      </trkpt>
      <trkpt lat="43.98617" lon="3.00693">
        <ele>860.2</ele>
        <time>2026-04-30T12:10:36.999Z</time>
      </trkpt>
      <trkpt lat="43.98616" lon="3.00693">
        <ele>860.1</ele>
        <time>2026-04-30T12:10:37.999Z</time>
      </trkpt>
      <trkpt lat="43.98615" lon="3.00693">
        <ele>859.9</ele>
        <time>2026-04-30T12:10:38.999Z</time>
      </trkpt>
      <trkpt lat="43.98614" lon="3.00692">
        <ele>859.9</ele>
        <time>2026-04-30T12:10:39.999Z</time>
      </trkpt>
      <trkpt lat="43.98613" lon="3.00692">
        <ele>859.9</ele>
        <time>2026-04-30T12:10:40.999Z</time>
      </trkpt>
      <trkpt lat="43.98612" lon="3.00691">
        <ele>859.9</ele>
        <time>2026-04-30T12:10:41.999Z</time>
      </trkpt>
      <trkpt lat="43.98611" lon="3.0069">
        <ele>860</ele>
        <time>2026-04-30T12:10:42.999Z</time>
      </trkpt>
      <trkpt lat="43.9861" lon="3.0069">
        <ele>860</ele>
        <time>2026-04-30T12:10:43.999Z</time>
      </trkpt>
      <trkpt lat="43.98609" lon="3.00689">
        <ele>860.1</ele>
        <time>2026-04-30T12:10:44.999Z</time>
      </trkpt>
      <trkpt lat="43.98608" lon="3.00689">
        <ele>860</ele>
        <time>2026-04-30T12:10:45.999Z</time>
      </trkpt>
      <trkpt lat="43.98607" lon="3.00689">
        <ele>860.1</ele>
        <time>2026-04-30T12:10:46.999Z</time>
      </trkpt>
      <trkpt lat="43.98606" lon="3.00688">
        <ele>860.6</ele>
        <time>2026-04-30T12:10:47.999Z</time>
      </trkpt>
      <trkpt lat="43.98606" lon="3.00687">
        <ele>860.5</ele>
        <time>2026-04-30T12:10:48.999Z</time>
      </trkpt>
      <trkpt lat="43.98605" lon="3.00686">
        <ele>860.5</ele>
        <time>2026-04-30T12:10:49.999Z</time>
      </trkpt>
      <trkpt lat="43.98604" lon="3.00685">
        <ele>860.9</ele>
        <time>2026-04-30T12:10:50.999Z</time>
      </trkpt>
      <trkpt lat="43.98602" lon="3.00685">
        <ele>860.9</ele>
        <time>2026-04-30T12:10:51.999Z</time>
      </trkpt>
      <trkpt lat="43.98601" lon="3.00685">
        <ele>860.8</ele>
        <time>2026-04-30T12:10:52.999Z</time>
      </trkpt>
      <trkpt lat="43.986" lon="3.00685">
        <ele>860.4</ele>
        <time>2026-04-30T12:10:53.999Z</time>
      </trkpt>
      <trkpt lat="43.98599" lon="3.00685">
        <ele>860</ele>
        <time>2026-04-30T12:10:54.999Z</time>
      </trkpt>
      <trkpt lat="43.98599" lon="3.00685">
        <ele>859.7</ele>
        <time>2026-04-30T12:10:55.999Z</time>
      </trkpt>
      <trkpt lat="43.98598" lon="3.00684">
        <ele>859.7</ele>
        <time>2026-04-30T12:10:56.999Z</time>
      </trkpt>
      <trkpt lat="43.98596" lon="3.00684">
        <ele>859.9</ele>
        <time>2026-04-30T12:10:57.999Z</time>
      </trkpt>
      <trkpt lat="43.98595" lon="3.00684">
        <ele>860</ele>
        <time>2026-04-30T12:10:58.999Z</time>
      </trkpt>
      <trkpt lat="43.98594" lon="3.00684">
        <ele>860</ele>
        <time>2026-04-30T12:10:59.999Z</time>
      </trkpt>
      <trkpt lat="43.98593" lon="3.00684">
        <ele>860.1</ele>
        <time>2026-04-30T12:11:00.999Z</time>
      </trkpt>
      <trkpt lat="43.98592" lon="3.00683">
        <ele>860.3</ele>
        <time>2026-04-30T12:11:01.999Z</time>
      </trkpt>
      <trkpt lat="43.98591" lon="3.00683">
        <ele>860.6</ele>
        <time>2026-04-30T12:11:02.999Z</time>
      </trkpt>
      <trkpt lat="43.98591" lon="3.00682">
        <ele>860.8</ele>
        <time>2026-04-30T12:11:03.999Z</time>
      </trkpt>
      <trkpt lat="43.9859" lon="3.00682">
        <ele>860.9</ele>
        <time>2026-04-30T12:11:04.999Z</time>
      </trkpt>
      <trkpt lat="43.98589" lon="3.00683">
        <ele>860.9</ele>
        <time>2026-04-30T12:11:05.999Z</time>
      </trkpt>
      <trkpt lat="43.98588" lon="3.00684">
        <ele>861</ele>
        <time>2026-04-30T12:11:06.999Z</time>
      </trkpt>
      <trkpt lat="43.98587" lon="3.00683">
        <ele>860.8</ele>
        <time>2026-04-30T12:11:07.999Z</time>
      </trkpt>
      <trkpt lat="43.98587" lon="3.00683">
        <ele>860.7</ele>
        <time>2026-04-30T12:11:08.999Z</time>
      </trkpt>
      <trkpt lat="43.98587" lon="3.00683">
        <ele>860.5</ele>
        <time>2026-04-30T12:11:09.999Z</time>
      </trkpt>
      <trkpt lat="43.98587" lon="3.00684">
        <ele>860.3</ele>
        <time>2026-04-30T12:11:10.999Z</time>
      </trkpt>
      <trkpt lat="43.98587" lon="3.00684">
        <ele>860.2</ele>
        <time>2026-04-30T12:11:11.999Z</time>
      </trkpt>
      <trkpt lat="43.98587" lon="3.00684">
        <ele>860.3</ele>
        <time>2026-04-30T12:11:12.999Z</time>
      </trkpt>
      <trkpt lat="43.98587" lon="3.00684">
        <ele>860.5</ele>
        <time>2026-04-30T12:11:13.999Z</time>
      </trkpt>
      <trkpt lat="43.98587" lon="3.00684">
        <ele>860.7</ele>
        <time>2026-04-30T12:11:14.999Z</time>
      </trkpt>
      <trkpt lat="43.98587" lon="3.00683">
        <ele>861</ele>
        <time>2026-04-30T12:11:15.999Z</time>
      </trkpt>
      <trkpt lat="43.98587" lon="3.00683">
        <ele>861.3</ele>
        <time>2026-04-30T12:11:16.999Z</time>
      </trkpt>
      <trkpt lat="43.98587" lon="3.00683">
        <ele>861.5</ele>
        <time>2026-04-30T12:11:17.999Z</time>
      </trkpt>
      <trkpt lat="43.98587" lon="3.00683">
        <ele>861.6</ele>
        <time>2026-04-30T12:11:18.999Z</time>
      </trkpt>
      <trkpt lat="43.98587" lon="3.00683">
        <ele>861.7</ele>
        <time>2026-04-30T12:11:19.999Z</time>
      </trkpt>
      <trkpt lat="43.98586" lon="3.00683">
        <ele>861.5</ele>
        <time>2026-04-30T12:11:20.999Z</time>
      </trkpt>
      <trkpt lat="43.98586" lon="3.00683">
        <ele>861</ele>
        <time>2026-04-30T12:11:21.999Z</time>
      </trkpt>
      <trkpt lat="43.98585" lon="3.00682">
        <ele>860.7</ele>
        <time>2026-04-30T12:11:22.999Z</time>
      </trkpt>
      <trkpt lat="43.98584" lon="3.00682">
        <ele>860.6</ele>
        <time>2026-04-30T12:11:23.999Z</time>
      </trkpt>
      <trkpt lat="43.98582" lon="3.00682">
        <ele>860.8</ele>
        <time>2026-04-30T12:11:24.999Z</time>
      </trkpt>
      <trkpt lat="43.98581" lon="3.00682">
        <ele>860.9</ele>
        <time>2026-04-30T12:11:25.999Z</time>
      </trkpt>
      <trkpt lat="43.9858" lon="3.00682">
        <ele>860.9</ele>
        <time>2026-04-30T12:11:26.999Z</time>
      </trkpt>
      <trkpt lat="43.98579" lon="3.00682">
        <ele>861</ele>
        <time>2026-04-30T12:11:27.999Z</time>
      </trkpt>
      <trkpt lat="43.98578" lon="3.00682">
        <ele>861</ele>
        <time>2026-04-30T12:11:28.999Z</time>
      </trkpt>
      <trkpt lat="43.98578" lon="3.00682">
        <ele>861</ele>
        <time>2026-04-30T12:11:29.999Z</time>
      </trkpt>
      <trkpt lat="43.98577" lon="3.00681">
        <ele>861.1</ele>
        <time>2026-04-30T12:11:30.999Z</time>
      </trkpt>
      <trkpt lat="43.98577" lon="3.00681">
        <ele>861.2</ele>
        <time>2026-04-30T12:11:31.999Z</time>
      </trkpt>
      <trkpt lat="43.98577" lon="3.00681">
        <ele>861</ele>
        <time>2026-04-30T12:11:32.999Z</time>
      </trkpt>
      <trkpt lat="43.98577" lon="3.00681">
        <ele>861</ele>
        <time>2026-04-30T12:11:33.999Z</time>
      </trkpt>
      <trkpt lat="43.98577" lon="3.00681">
        <ele>861</ele>
        <time>2026-04-30T12:11:34.999Z</time>
      </trkpt>
      <trkpt lat="43.98577" lon="3.00681">
        <ele>861.1</ele>
        <time>2026-04-30T12:11:35.999Z</time>
      </trkpt>
      <trkpt lat="43.98576" lon="3.00681">
        <ele>861.5</ele>
        <time>2026-04-30T12:11:36.999Z</time>
      </trkpt>
      <trkpt lat="43.98575" lon="3.0068">
        <ele>861.6</ele>
        <time>2026-04-30T12:11:37.999Z</time>
      </trkpt>
      <trkpt lat="43.98575" lon="3.0068">
        <ele>861.4</ele>
        <time>2026-04-30T12:11:38.999Z</time>
      </trkpt>
      <trkpt lat="43.98573" lon="3.00681">
        <ele>861.6</ele>
        <time>2026-04-30T12:11:39.999Z</time>
      </trkpt>
      <trkpt lat="43.98572" lon="3.0068">
        <ele>861.6</ele>
        <time>2026-04-30T12:11:40.999Z</time>
      </trkpt>
      <trkpt lat="43.98571" lon="3.0068">
        <ele>861.9</ele>
        <time>2026-04-30T12:11:41.999Z</time>
      </trkpt>
      <trkpt lat="43.98569" lon="3.00679">
        <ele>862.1</ele>
        <time>2026-04-30T12:11:42.999Z</time>
      </trkpt>
      <trkpt lat="43.98568" lon="3.00679">
        <ele>862.3</ele>
        <time>2026-04-30T12:11:43.999Z</time>
      </trkpt>
      <trkpt lat="43.98568" lon="3.00679">
        <ele>862.1</ele>
        <time>2026-04-30T12:11:44.999Z</time>
      </trkpt>
      <trkpt lat="43.98568" lon="3.00679">
        <ele>862.1</ele>
        <time>2026-04-30T12:11:45.999Z</time>
      </trkpt>
      <trkpt lat="43.98568" lon="3.00679">
        <ele>861.9</ele>
        <time>2026-04-30T12:11:46.999Z</time>
      </trkpt>
      <trkpt lat="43.98567" lon="3.0068">
        <ele>862</ele>
        <time>2026-04-30T12:11:47.999Z</time>
      </trkpt>
      <trkpt lat="43.98568" lon="3.0068">
        <ele>862.1</ele>
        <time>2026-04-30T12:11:48.999Z</time>
      </trkpt>
      <trkpt lat="43.98568" lon="3.0068">
        <ele>861.9</ele>
        <time>2026-04-30T12:11:49.999Z</time>
      </trkpt>
      <trkpt lat="43.98568" lon="3.0068">
        <ele>861.6</ele>
        <time>2026-04-30T12:11:50.999Z</time>
      </trkpt>
      <trkpt lat="43.98568" lon="3.0068">
        <ele>861.6</ele>
        <time>2026-04-30T12:11:51.999Z</time>
      </trkpt>
      <trkpt lat="43.98568" lon="3.0068">
        <ele>861.5</ele>
        <time>2026-04-30T12:11:52.999Z</time>
      </trkpt>
      <trkpt lat="43.98568" lon="3.0068">
        <ele>861.3</ele>
        <time>2026-04-30T12:11:53.999Z</time>
      </trkpt>
      <trkpt lat="43.98568" lon="3.0068">
        <ele>861.2</ele>
        <time>2026-04-30T12:11:54.999Z</time>
      </trkpt>
      <trkpt lat="43.98568" lon="3.0068">
        <ele>861.3</ele>
        <time>2026-04-30T12:11:55.999Z</time>
      </trkpt>
      <trkpt lat="43.98568" lon="3.0068">
        <ele>861.4</ele>
        <time>2026-04-30T12:11:56.999Z</time>
      </trkpt>
      <trkpt lat="43.98568" lon="3.0068">
        <ele>861.4</ele>
        <time>2026-04-30T12:11:57.999Z</time>
      </trkpt>
      <trkpt lat="43.98568" lon="3.0068">
        <ele>861.5</ele>
        <time>2026-04-30T12:11:58.999Z</time>
      </trkpt>
      <trkpt lat="43.98568" lon="3.0068">
        <ele>861.6</ele>
        <time>2026-04-30T12:11:59.999Z</time>
      </trkpt>
      <trkpt lat="43.98568" lon="3.0068">
        <ele>861.6</ele>
        <time>2026-04-30T12:12:00.999Z</time>
      </trkpt>
      <trkpt lat="43.98568" lon="3.0068">
        <ele>861.4</ele>
        <time>2026-04-30T12:12:01.999Z</time>
      </trkpt>
      <trkpt lat="43.98568" lon="3.0068">
        <ele>861.1</ele>
        <time>2026-04-30T12:12:02.999Z</time>
      </trkpt>
      <trkpt lat="43.98568" lon="3.0068">
        <ele>860.8</ele>
        <time>2026-04-30T12:12:03.999Z</time>
      </trkpt>
      <trkpt lat="43.98568" lon="3.0068">
        <ele>861</ele>
        <time>2026-04-30T12:12:04.999Z</time>
      </trkpt>
      <trkpt lat="43.98569" lon="3.0068">
        <ele>860.5</ele>
        <time>2026-04-30T12:12:05.999Z</time>
      </trkpt>
      <trkpt lat="43.98569" lon="3.00679">
        <ele>860.1</ele>
        <time>2026-04-30T12:12:06.999Z</time>
      </trkpt>
      <trkpt lat="43.98568" lon="3.00679">
        <ele>859.9</ele>
        <time>2026-04-30T12:12:07.999Z</time>
      </trkpt>
      <trkpt lat="43.98568" lon="3.00679">
        <ele>860</ele>
        <time>2026-04-30T12:12:08.999Z</time>
      </trkpt>
      <trkpt lat="43.98567" lon="3.00679">
        <ele>859.7</ele>
        <time>2026-04-30T12:12:09.999Z</time>
      </trkpt>
      <trkpt lat="43.98567" lon="3.00679">
        <ele>859.8</ele>
        <time>2026-04-30T12:12:10.999Z</time>
      </trkpt>
      <trkpt lat="43.98565" lon="3.00679">
        <ele>859.9</ele>
        <time>2026-04-30T12:12:11.999Z</time>
      </trkpt>
      <trkpt lat="43.98565" lon="3.00679">
        <ele>859.8</ele>
        <time>2026-04-30T12:12:12.999Z</time>
      </trkpt>
      <trkpt lat="43.98565" lon="3.00679">
        <ele>860.1</ele>
        <time>2026-04-30T12:12:13.999Z</time>
      </trkpt>
      <trkpt lat="43.98565" lon="3.00679">
        <ele>860</ele>
        <time>2026-04-30T12:12:14.999Z</time>
      </trkpt>
      <trkpt lat="43.98564" lon="3.00679">
        <ele>860</ele>
        <time>2026-04-30T12:12:15.999Z</time>
      </trkpt>
      <trkpt lat="43.98564" lon="3.00679">
        <ele>860.1</ele>
        <time>2026-04-30T12:12:16.999Z</time>
      </trkpt>
      <trkpt lat="43.98563" lon="3.0068">
        <ele>860.1</ele>
        <time>2026-04-30T12:12:17.999Z</time>
      </trkpt>
      <trkpt lat="43.98563" lon="3.0068">
        <ele>860.2</ele>
        <time>2026-04-30T12:12:18.999Z</time>
      </trkpt>
      <trkpt lat="43.98562" lon="3.0068">
        <ele>860.1</ele>
        <time>2026-04-30T12:12:19.999Z</time>
      </trkpt>
      <trkpt lat="43.98559" lon="3.00681">
        <ele>859.9</ele>
        <time>2026-04-30T12:12:20.999Z</time>
      </trkpt>
      <trkpt lat="43.98557" lon="3.00682">
        <ele>859.6</ele>
        <time>2026-04-30T12:12:21.999Z</time>
      </trkpt>
      <trkpt lat="43.98556" lon="3.00682">
        <ele>859.4</ele>
        <time>2026-04-30T12:12:22.999Z</time>
      </trkpt>
      <trkpt lat="43.98555" lon="3.00682">
        <ele>859.3</ele>
        <time>2026-04-30T12:12:23.999Z</time>
      </trkpt>
      <trkpt lat="43.98553" lon="3.00682">
        <ele>859.3</ele>
        <time>2026-04-30T12:12:24.999Z</time>
      </trkpt>
      <trkpt lat="43.98552" lon="3.00682">
        <ele>859.4</ele>
        <time>2026-04-30T12:12:25.999Z</time>
      </trkpt>
      <trkpt lat="43.98551" lon="3.00682">
        <ele>859.4</ele>
        <time>2026-04-30T12:12:26.999Z</time>
      </trkpt>
      <trkpt lat="43.98549" lon="3.00681">
        <ele>859.7</ele>
        <time>2026-04-30T12:12:27.999Z</time>
      </trkpt>
      <trkpt lat="43.98547" lon="3.00681">
        <ele>860.1</ele>
        <time>2026-04-30T12:12:28.999Z</time>
      </trkpt>
      <trkpt lat="43.98546" lon="3.00681">
        <ele>860.5</ele>
        <time>2026-04-30T12:12:29.999Z</time>
      </trkpt>
      <trkpt lat="43.98545" lon="3.00681">
        <ele>860.9</ele>
        <time>2026-04-30T12:12:30.999Z</time>
      </trkpt>
      <trkpt lat="43.98544" lon="3.00682">
        <ele>861</ele>
        <time>2026-04-30T12:12:31.999Z</time>
      </trkpt>
      <trkpt lat="43.98542" lon="3.00682">
        <ele>861</ele>
        <time>2026-04-30T12:12:32.999Z</time>
      </trkpt>
      <trkpt lat="43.98541" lon="3.00682">
        <ele>861</ele>
        <time>2026-04-30T12:12:33.999Z</time>
      </trkpt>
      <trkpt lat="43.9854" lon="3.00682">
        <ele>860.6</ele>
        <time>2026-04-30T12:12:34.999Z</time>
      </trkpt>
      <trkpt lat="43.98539" lon="3.00682">
        <ele>860.7</ele>
        <time>2026-04-30T12:12:35.999Z</time>
      </trkpt>
      <trkpt lat="43.98538" lon="3.00682">
        <ele>860.8</ele>
        <time>2026-04-30T12:12:36.999Z</time>
      </trkpt>
      <trkpt lat="43.98537" lon="3.00682">
        <ele>860.5</ele>
        <time>2026-04-30T12:12:37.999Z</time>
      </trkpt>
      <trkpt lat="43.98537" lon="3.00682">
        <ele>860.5</ele>
        <time>2026-04-30T12:12:38.999Z</time>
      </trkpt>
      <trkpt lat="43.98536" lon="3.00682">
        <ele>860.9</ele>
        <time>2026-04-30T12:12:39.999Z</time>
      </trkpt>
      <trkpt lat="43.98535" lon="3.00682">
        <ele>861.2</ele>
        <time>2026-04-30T12:12:40.999Z</time>
      </trkpt>
      <trkpt lat="43.98534" lon="3.00682">
        <ele>861.1</ele>
        <time>2026-04-30T12:12:41.999Z</time>
      </trkpt>
      <trkpt lat="43.98532" lon="3.00682">
        <ele>861</ele>
        <time>2026-04-30T12:12:42.999Z</time>
      </trkpt>
      <trkpt lat="43.98531" lon="3.00682">
        <ele>861.1</ele>
        <time>2026-04-30T12:12:43.999Z</time>
      </trkpt>
      <trkpt lat="43.98529" lon="3.00682">
        <ele>861.4</ele>
        <time>2026-04-30T12:12:44.999Z</time>
      </trkpt>
      <trkpt lat="43.98528" lon="3.00682">
        <ele>862</ele>
        <time>2026-04-30T12:12:45.999Z</time>
      </trkpt>
      <trkpt lat="43.98527" lon="3.00683">
        <ele>862.3</ele>
        <time>2026-04-30T12:12:46.999Z</time>
      </trkpt>
      <trkpt lat="43.98526" lon="3.00683">
        <ele>862.5</ele>
        <time>2026-04-30T12:12:47.999Z</time>
      </trkpt>
      <trkpt lat="43.98525" lon="3.00682">
        <ele>862.7</ele>
        <time>2026-04-30T12:12:48.999Z</time>
      </trkpt>
      <trkpt lat="43.98524" lon="3.00682">
        <ele>862.7</ele>
        <time>2026-04-30T12:12:49.999Z</time>
      </trkpt>
      <trkpt lat="43.98523" lon="3.00683">
        <ele>862.3</ele>
        <time>2026-04-30T12:12:50.999Z</time>
      </trkpt>
      <trkpt lat="43.98522" lon="3.00683">
        <ele>862</ele>
        <time>2026-04-30T12:12:51.999Z</time>
      </trkpt>
      <trkpt lat="43.98521" lon="3.00683">
        <ele>861.9</ele>
        <time>2026-04-30T12:12:52.999Z</time>
      </trkpt>
      <trkpt lat="43.9852" lon="3.00684">
        <ele>862.1</ele>
        <time>2026-04-30T12:12:53.999Z</time>
      </trkpt>
      <trkpt lat="43.98519" lon="3.00683">
        <ele>862.1</ele>
        <time>2026-04-30T12:12:54.999Z</time>
      </trkpt>
      <trkpt lat="43.98518" lon="3.00683">
        <ele>862.3</ele>
        <time>2026-04-30T12:12:55.999Z</time>
      </trkpt>
      <trkpt lat="43.98517" lon="3.00683">
        <ele>862.7</ele>
        <time>2026-04-30T12:12:56.999Z</time>
      </trkpt>
      <trkpt lat="43.98516" lon="3.00683">
        <ele>862.9</ele>
        <time>2026-04-30T12:12:57.999Z</time>
      </trkpt>
      <trkpt lat="43.98515" lon="3.00683">
        <ele>863</ele>
        <time>2026-04-30T12:12:58.999Z</time>
      </trkpt>
      <trkpt lat="43.98513" lon="3.00684">
        <ele>863.4</ele>
        <time>2026-04-30T12:12:59.999Z</time>
      </trkpt>
      <trkpt lat="43.98513" lon="3.00684">
        <ele>863.5</ele>
        <time>2026-04-30T12:13:00.999Z</time>
      </trkpt>
      <trkpt lat="43.98512" lon="3.00684">
        <ele>863.3</ele>
        <time>2026-04-30T12:13:01.999Z</time>
      </trkpt>
      <trkpt lat="43.98511" lon="3.00684">
        <ele>863.4</ele>
        <time>2026-04-30T12:13:02.999Z</time>
      </trkpt>
      <trkpt lat="43.9851" lon="3.00684">
        <ele>863.2</ele>
        <time>2026-04-30T12:13:03.999Z</time>
      </trkpt>
      <trkpt lat="43.98509" lon="3.00684">
        <ele>863.1</ele>
        <time>2026-04-30T12:13:04.999Z</time>
      </trkpt>
      <trkpt lat="43.98508" lon="3.00685">
        <ele>862.9</ele>
        <time>2026-04-30T12:13:05.999Z</time>
      </trkpt>
      <trkpt lat="43.98507" lon="3.00685">
        <ele>862.9</ele>
        <time>2026-04-30T12:13:06.999Z</time>
      </trkpt>
      <trkpt lat="43.98506" lon="3.00686">
        <ele>863</ele>
        <time>2026-04-30T12:13:07.999Z</time>
      </trkpt>
      <trkpt lat="43.98504" lon="3.00686">
        <ele>863</ele>
        <time>2026-04-30T12:13:08.999Z</time>
      </trkpt>
      <trkpt lat="43.98503" lon="3.00687">
        <ele>862.8</ele>
        <time>2026-04-30T12:13:09.999Z</time>
      </trkpt>
      <trkpt lat="43.98501" lon="3.00687">
        <ele>862.5</ele>
        <time>2026-04-30T12:13:10.999Z</time>
      </trkpt>
      <trkpt lat="43.985" lon="3.00687">
        <ele>862.5</ele>
        <time>2026-04-30T12:13:11.999Z</time>
      </trkpt>
      <trkpt lat="43.98499" lon="3.00687">
        <ele>862.6</ele>
        <time>2026-04-30T12:13:12.999Z</time>
      </trkpt>
      <trkpt lat="43.98498" lon="3.00687">
        <ele>862.6</ele>
        <time>2026-04-30T12:13:13.999Z</time>
      </trkpt>
      <trkpt lat="43.98497" lon="3.00687">
        <ele>862.5</ele>
        <time>2026-04-30T12:13:14.999Z</time>
      </trkpt>
      <trkpt lat="43.98496" lon="3.00687">
        <ele>862.8</ele>
        <time>2026-04-30T12:13:15.999Z</time>
      </trkpt>
      <trkpt lat="43.98495" lon="3.00688">
        <ele>862.8</ele>
        <time>2026-04-30T12:13:16.999Z</time>
      </trkpt>
      <trkpt lat="43.98494" lon="3.00688">
        <ele>862.8</ele>
        <time>2026-04-30T12:13:17.999Z</time>
      </trkpt>
      <trkpt lat="43.98493" lon="3.00689">
        <ele>862.7</ele>
        <time>2026-04-30T12:13:18.999Z</time>
      </trkpt>
      <trkpt lat="43.98492" lon="3.00689">
        <ele>863</ele>
        <time>2026-04-30T12:13:19.999Z</time>
      </trkpt>
      <trkpt lat="43.98491" lon="3.00689">
        <ele>863.4</ele>
        <time>2026-04-30T12:13:20.999Z</time>
      </trkpt>
      <trkpt lat="43.9849" lon="3.00689">
        <ele>863.3</ele>
        <time>2026-04-30T12:13:21.999Z</time>
      </trkpt>
      <trkpt lat="43.98489" lon="3.00689">
        <ele>863.3</ele>
        <time>2026-04-30T12:13:22.999Z</time>
      </trkpt>
      <trkpt lat="43.98488" lon="3.00689">
        <ele>863.4</ele>
        <time>2026-04-30T12:13:23.999Z</time>
      </trkpt>
      <trkpt lat="43.98487" lon="3.00689">
        <ele>863.4</ele>
        <time>2026-04-30T12:13:24.999Z</time>
      </trkpt>
      <trkpt lat="43.98486" lon="3.0069">
        <ele>863</ele>
        <time>2026-04-30T12:13:25.999Z</time>
      </trkpt>
      <trkpt lat="43.98485" lon="3.0069">
        <ele>862.6</ele>
        <time>2026-04-30T12:13:26.999Z</time>
      </trkpt>
      <trkpt lat="43.98484" lon="3.0069">
        <ele>862.6</ele>
        <time>2026-04-30T12:13:27.999Z</time>
      </trkpt>
      <trkpt lat="43.98483" lon="3.00691">
        <ele>862.8</ele>
        <time>2026-04-30T12:13:28.999Z</time>
      </trkpt>
      <trkpt lat="43.98481" lon="3.0069">
        <ele>863.1</ele>
        <time>2026-04-30T12:13:29.999Z</time>
      </trkpt>
      <trkpt lat="43.9848" lon="3.00691">
        <ele>862.8</ele>
        <time>2026-04-30T12:13:30.999Z</time>
      </trkpt>
      <trkpt lat="43.98479" lon="3.00691">
        <ele>862.5</ele>
        <time>2026-04-30T12:13:31.999Z</time>
      </trkpt>
      <trkpt lat="43.98478" lon="3.00691">
        <ele>862.7</ele>
        <time>2026-04-30T12:13:32.999Z</time>
      </trkpt>
      <trkpt lat="43.98477" lon="3.00691">
        <ele>862.9</ele>
        <time>2026-04-30T12:13:33.999Z</time>
      </trkpt>
      <trkpt lat="43.98476" lon="3.00691">
        <ele>862.8</ele>
        <time>2026-04-30T12:13:34.999Z</time>
      </trkpt>
      <trkpt lat="43.98474" lon="3.00691">
        <ele>863.3</ele>
        <time>2026-04-30T12:13:35.999Z</time>
      </trkpt>
      <trkpt lat="43.98473" lon="3.00691">
        <ele>863.7</ele>
        <time>2026-04-30T12:13:36.999Z</time>
      </trkpt>
      <trkpt lat="43.98472" lon="3.00691">
        <ele>863.8</ele>
        <time>2026-04-30T12:13:37.999Z</time>
      </trkpt>
      <trkpt lat="43.98471" lon="3.00692">
        <ele>864.2</ele>
        <time>2026-04-30T12:13:38.999Z</time>
      </trkpt>
      <trkpt lat="43.98471" lon="3.00692">
        <ele>864.1</ele>
        <time>2026-04-30T12:13:39.999Z</time>
      </trkpt>
      <trkpt lat="43.9847" lon="3.00693">
        <ele>864.1</ele>
        <time>2026-04-30T12:13:40.999Z</time>
      </trkpt>
      <trkpt lat="43.98469" lon="3.00693">
        <ele>863.8</ele>
        <time>2026-04-30T12:13:41.999Z</time>
      </trkpt>
      <trkpt lat="43.98468" lon="3.00694">
        <ele>863.9</ele>
        <time>2026-04-30T12:13:42.999Z</time>
      </trkpt>
      <trkpt lat="43.98466" lon="3.00694">
        <ele>864</ele>
        <time>2026-04-30T12:13:43.999Z</time>
      </trkpt>
      <trkpt lat="43.98465" lon="3.00695">
        <ele>863.7</ele>
        <time>2026-04-30T12:13:44.999Z</time>
      </trkpt>
      <trkpt lat="43.98464" lon="3.00694">
        <ele>863.6</ele>
        <time>2026-04-30T12:13:45.999Z</time>
      </trkpt>
      <trkpt lat="43.98463" lon="3.00694">
        <ele>863.5</ele>
        <time>2026-04-30T12:13:46.999Z</time>
      </trkpt>
      <trkpt lat="43.98462" lon="3.00694">
        <ele>863.5</ele>
        <time>2026-04-30T12:13:47.999Z</time>
      </trkpt>
      <trkpt lat="43.98461" lon="3.00694">
        <ele>864</ele>
        <time>2026-04-30T12:13:48.999Z</time>
      </trkpt>
      <trkpt lat="43.98459" lon="3.00694">
        <ele>864.2</ele>
        <time>2026-04-30T12:13:49.999Z</time>
      </trkpt>
      <trkpt lat="43.98458" lon="3.00694">
        <ele>864.6</ele>
        <time>2026-04-30T12:13:50.999Z</time>
      </trkpt>
      <trkpt lat="43.98457" lon="3.00694">
        <ele>864.9</ele>
        <time>2026-04-30T12:13:51.999Z</time>
      </trkpt>
      <trkpt lat="43.98456" lon="3.00695">
        <ele>865</ele>
        <time>2026-04-30T12:13:52.999Z</time>
      </trkpt>
      <trkpt lat="43.98456" lon="3.00695">
        <ele>864.8</ele>
        <time>2026-04-30T12:13:53.999Z</time>
      </trkpt>
      <trkpt lat="43.98455" lon="3.00696">
        <ele>864.7</ele>
        <time>2026-04-30T12:13:54.999Z</time>
      </trkpt>
      <trkpt lat="43.98454" lon="3.00696">
        <ele>864.7</ele>
        <time>2026-04-30T12:13:55.999Z</time>
      </trkpt>
      <trkpt lat="43.98452" lon="3.00696">
        <ele>864.7</ele>
        <time>2026-04-30T12:13:56.999Z</time>
      </trkpt>
      <trkpt lat="43.9845" lon="3.00696">
        <ele>864.9</ele>
        <time>2026-04-30T12:13:57.999Z</time>
      </trkpt>
      <trkpt lat="43.98449" lon="3.00696">
        <ele>865.3</ele>
        <time>2026-04-30T12:13:58.999Z</time>
      </trkpt>
      <trkpt lat="43.98447" lon="3.00696">
        <ele>865.1</ele>
        <time>2026-04-30T12:13:59.999Z</time>
      </trkpt>
      <trkpt lat="43.98446" lon="3.00697">
        <ele>864.9</ele>
        <time>2026-04-30T12:14:00.999Z</time>
      </trkpt>
      <trkpt lat="43.98445" lon="3.00697">
        <ele>864.8</ele>
        <time>2026-04-30T12:14:01.999Z</time>
      </trkpt>
      <trkpt lat="43.98444" lon="3.00697">
        <ele>864.2</ele>
        <time>2026-04-30T12:14:02.999Z</time>
      </trkpt>
      <trkpt lat="43.98444" lon="3.00698">
        <ele>864.2</ele>
        <time>2026-04-30T12:14:03.999Z</time>
      </trkpt>
      <trkpt lat="43.98443" lon="3.00698">
        <ele>864.4</ele>
        <time>2026-04-30T12:14:04.999Z</time>
      </trkpt>
      <trkpt lat="43.98442" lon="3.00699">
        <ele>864.3</ele>
        <time>2026-04-30T12:14:05.999Z</time>
      </trkpt>
      <trkpt lat="43.98441" lon="3.00699">
        <ele>864.3</ele>
        <time>2026-04-30T12:14:06.999Z</time>
      </trkpt>
      <trkpt lat="43.9844" lon="3.007">
        <ele>864.6</ele>
        <time>2026-04-30T12:14:07.999Z</time>
      </trkpt>
      <trkpt lat="43.98438" lon="3.00701">
        <ele>864.4</ele>
        <time>2026-04-30T12:14:08.999Z</time>
      </trkpt>
      <trkpt lat="43.98437" lon="3.00701">
        <ele>864.4</ele>
        <time>2026-04-30T12:14:09.999Z</time>
      </trkpt>
      <trkpt lat="43.98436" lon="3.00702">
        <ele>864.1</ele>
        <time>2026-04-30T12:14:10.999Z</time>
      </trkpt>
      <trkpt lat="43.98435" lon="3.00702">
        <ele>864</ele>
        <time>2026-04-30T12:14:11.999Z</time>
      </trkpt>
      <trkpt lat="43.98434" lon="3.00702">
        <ele>864.5</ele>
        <time>2026-04-30T12:14:12.999Z</time>
      </trkpt>
      <trkpt lat="43.98433" lon="3.00702">
        <ele>864.9</ele>
        <time>2026-04-30T12:14:13.999Z</time>
      </trkpt>
      <trkpt lat="43.98432" lon="3.00702">
        <ele>865.2</ele>
        <time>2026-04-30T12:14:14.999Z</time>
      </trkpt>
      <trkpt lat="43.98431" lon="3.00702">
        <ele>865.2</ele>
        <time>2026-04-30T12:14:15.999Z</time>
      </trkpt>
      <trkpt lat="43.9843" lon="3.00703">
        <ele>864.7</ele>
        <time>2026-04-30T12:14:16.999Z</time>
      </trkpt>
      <trkpt lat="43.98429" lon="3.00703">
        <ele>864.7</ele>
        <time>2026-04-30T12:14:17.999Z</time>
      </trkpt>
      <trkpt lat="43.98427" lon="3.00703">
        <ele>864.9</ele>
        <time>2026-04-30T12:14:18.999Z</time>
      </trkpt>
      <trkpt lat="43.98425" lon="3.00704">
        <ele>865.1</ele>
        <time>2026-04-30T12:14:19.999Z</time>
      </trkpt>
      <trkpt lat="43.98424" lon="3.00703">
        <ele>865.8</ele>
        <time>2026-04-30T12:14:20.999Z</time>
      </trkpt>
      <trkpt lat="43.98422" lon="3.00703">
        <ele>866.1</ele>
        <time>2026-04-30T12:14:21.999Z</time>
      </trkpt>
      <trkpt lat="43.98421" lon="3.00703">
        <ele>866.2</ele>
        <time>2026-04-30T12:14:22.999Z</time>
      </trkpt>
      <trkpt lat="43.98419" lon="3.00703">
        <ele>866.3</ele>
        <time>2026-04-30T12:14:23.999Z</time>
      </trkpt>
      <trkpt lat="43.98418" lon="3.00702">
        <ele>865.9</ele>
        <time>2026-04-30T12:14:24.999Z</time>
      </trkpt>
      <trkpt lat="43.98417" lon="3.00702">
        <ele>865.3</ele>
        <time>2026-04-30T12:14:25.999Z</time>
      </trkpt>
      <trkpt lat="43.98416" lon="3.00702">
        <ele>865.2</ele>
        <time>2026-04-30T12:14:26.999Z</time>
      </trkpt>
      <trkpt lat="43.98415" lon="3.00701">
        <ele>865.4</ele>
        <time>2026-04-30T12:14:27.999Z</time>
      </trkpt>
      <trkpt lat="43.98414" lon="3.00701">
        <ele>865.4</ele>
        <time>2026-04-30T12:14:28.999Z</time>
      </trkpt>
      <trkpt lat="43.98412" lon="3.00701">
        <ele>865.7</ele>
        <time>2026-04-30T12:14:29.999Z</time>
      </trkpt>
      <trkpt lat="43.9841" lon="3.00701">
        <ele>866.2</ele>
        <time>2026-04-30T12:14:30.999Z</time>
      </trkpt>
      <trkpt lat="43.98409" lon="3.00701">
        <ele>866.8</ele>
        <time>2026-04-30T12:14:31.999Z</time>
      </trkpt>
      <trkpt lat="43.98407" lon="3.007">
        <ele>867.4</ele>
        <time>2026-04-30T12:14:32.999Z</time>
      </trkpt>
      <trkpt lat="43.98406" lon="3.00699">
        <ele>867.8</ele>
        <time>2026-04-30T12:14:33.999Z</time>
      </trkpt>
      <trkpt lat="43.98406" lon="3.00699">
        <ele>867.8</ele>
        <time>2026-04-30T12:14:34.999Z</time>
      </trkpt>
      <trkpt lat="43.98405" lon="3.00699">
        <ele>868</ele>
        <time>2026-04-30T12:14:35.999Z</time>
      </trkpt>
      <trkpt lat="43.98404" lon="3.00699">
        <ele>868</ele>
        <time>2026-04-30T12:14:36.999Z</time>
      </trkpt>
      <trkpt lat="43.98403" lon="3.007">
        <ele>868</ele>
        <time>2026-04-30T12:14:37.999Z</time>
      </trkpt>
      <trkpt lat="43.98402" lon="3.00701">
        <ele>867.8</ele>
        <time>2026-04-30T12:14:38.999Z</time>
      </trkpt>
      <trkpt lat="43.984" lon="3.00701">
        <ele>867.6</ele>
        <time>2026-04-30T12:14:39.999Z</time>
      </trkpt>
      <trkpt lat="43.98399" lon="3.00701">
        <ele>867.4</ele>
        <time>2026-04-30T12:14:40.999Z</time>
      </trkpt>
      <trkpt lat="43.98398" lon="3.00701">
        <ele>867.2</ele>
        <time>2026-04-30T12:14:41.999Z</time>
      </trkpt>
      <trkpt lat="43.98397" lon="3.00701">
        <ele>867.1</ele>
        <time>2026-04-30T12:14:42.999Z</time>
      </trkpt>
      <trkpt lat="43.98396" lon="3.00702">
        <ele>867.1</ele>
        <time>2026-04-30T12:14:43.999Z</time>
      </trkpt>
      <trkpt lat="43.98395" lon="3.00703">
        <ele>866.6</ele>
        <time>2026-04-30T12:14:44.999Z</time>
      </trkpt>
      <trkpt lat="43.98393" lon="3.00703">
        <ele>866.4</ele>
        <time>2026-04-30T12:14:45.999Z</time>
      </trkpt>
      <trkpt lat="43.98392" lon="3.00703">
        <ele>866.1</ele>
        <time>2026-04-30T12:14:46.999Z</time>
      </trkpt>
      <trkpt lat="43.98391" lon="3.00703">
        <ele>865.5</ele>
        <time>2026-04-30T12:14:47.999Z</time>
      </trkpt>
      <trkpt lat="43.9839" lon="3.00703">
        <ele>865.1</ele>
        <time>2026-04-30T12:14:48.999Z</time>
      </trkpt>
      <trkpt lat="43.98389" lon="3.00702">
        <ele>865.1</ele>
        <time>2026-04-30T12:14:49.999Z</time>
      </trkpt>
      <trkpt lat="43.98387" lon="3.00702">
        <ele>865.3</ele>
        <time>2026-04-30T12:14:50.999Z</time>
      </trkpt>
      <trkpt lat="43.98386" lon="3.00703">
        <ele>865.7</ele>
        <time>2026-04-30T12:14:51.999Z</time>
      </trkpt>
      <trkpt lat="43.98385" lon="3.00702">
        <ele>866</ele>
        <time>2026-04-30T12:14:52.999Z</time>
      </trkpt>
      <trkpt lat="43.98384" lon="3.00702">
        <ele>865.7</ele>
        <time>2026-04-30T12:14:53.999Z</time>
      </trkpt>
      <trkpt lat="43.98384" lon="3.00702">
        <ele>864.8</ele>
        <time>2026-04-30T12:14:54.999Z</time>
      </trkpt>
      <trkpt lat="43.98384" lon="3.00701">
        <ele>864.1</ele>
        <time>2026-04-30T12:14:55.999Z</time>
      </trkpt>
      <trkpt lat="43.98383" lon="3.00701">
        <ele>863.5</ele>
        <time>2026-04-30T12:14:56.999Z</time>
      </trkpt>
      <trkpt lat="43.98383" lon="3.00701">
        <ele>862.7</ele>
        <time>2026-04-30T12:14:57.999Z</time>
      </trkpt>
      <trkpt lat="43.98382" lon="3.00701">
        <ele>862.1</ele>
        <time>2026-04-30T12:14:58.999Z</time>
      </trkpt>
      <trkpt lat="43.98381" lon="3.00701">
        <ele>861.8</ele>
        <time>2026-04-30T12:14:59.999Z</time>
      </trkpt>
      <trkpt lat="43.9838" lon="3.007">
        <ele>861.5</ele>
        <time>2026-04-30T12:15:00.999Z</time>
      </trkpt>
      <trkpt lat="43.98378" lon="3.007">
        <ele>861.3</ele>
        <time>2026-04-30T12:15:01.999Z</time>
      </trkpt>
      <trkpt lat="43.98377" lon="3.00699">
        <ele>861.3</ele>
        <time>2026-04-30T12:15:02.999Z</time>
      </trkpt>
      <trkpt lat="43.98375" lon="3.00697">
        <ele>860.9</ele>
        <time>2026-04-30T12:15:03.999Z</time>
      </trkpt>
      <trkpt lat="43.98375" lon="3.00696">
        <ele>860.4</ele>
        <time>2026-04-30T12:15:04.999Z</time>
      </trkpt>
      <trkpt lat="43.98374" lon="3.00695">
        <ele>859.7</ele>
        <time>2026-04-30T12:15:05.999Z</time>
      </trkpt>
      <trkpt lat="43.98373" lon="3.00694">
        <ele>859.5</ele>
        <time>2026-04-30T12:15:06.999Z</time>
      </trkpt>
      <trkpt lat="43.98372" lon="3.00694">
        <ele>859.2</ele>
        <time>2026-04-30T12:15:07.999Z</time>
      </trkpt>
      <trkpt lat="43.98371" lon="3.00694">
        <ele>859.3</ele>
        <time>2026-04-30T12:15:08.999Z</time>
      </trkpt>
      <trkpt lat="43.9837" lon="3.00693">
        <ele>859.1</ele>
        <time>2026-04-30T12:15:09.999Z</time>
      </trkpt>
      <trkpt lat="43.98368" lon="3.00693">
        <ele>858.8</ele>
        <time>2026-04-30T12:15:10.999Z</time>
      </trkpt>
      <trkpt lat="43.98367" lon="3.00692">
        <ele>858.7</ele>
        <time>2026-04-30T12:15:11.999Z</time>
      </trkpt>
      <trkpt lat="43.98365" lon="3.00691">
        <ele>858.7</ele>
        <time>2026-04-30T12:15:12.999Z</time>
      </trkpt>
      <trkpt lat="43.98364" lon="3.0069">
        <ele>858.8</ele>
        <time>2026-04-30T12:15:13.999Z</time>
      </trkpt>
      <trkpt lat="43.98363" lon="3.00689">
        <ele>858.4</ele>
        <time>2026-04-30T12:15:14.999Z</time>
      </trkpt>
      <trkpt lat="43.98361" lon="3.00689">
        <ele>857.8</ele>
        <time>2026-04-30T12:15:15.999Z</time>
      </trkpt>
      <trkpt lat="43.9836" lon="3.00689">
        <ele>857.5</ele>
        <time>2026-04-30T12:15:16.999Z</time>
      </trkpt>
      <trkpt lat="43.98359" lon="3.00688">
        <ele>857.7</ele>
        <time>2026-04-30T12:15:17.999Z</time>
      </trkpt>
      <trkpt lat="43.98358" lon="3.00687">
        <ele>857.8</ele>
        <time>2026-04-30T12:15:18.999Z</time>
      </trkpt>
      <trkpt lat="43.98357" lon="3.00686">
        <ele>857.8</ele>
        <time>2026-04-30T12:15:19.999Z</time>
      </trkpt>
      <trkpt lat="43.98356" lon="3.00685">
        <ele>857.8</ele>
        <time>2026-04-30T12:15:20.999Z</time>
      </trkpt>
      <trkpt lat="43.98355" lon="3.00685">
        <ele>857.6</ele>
        <time>2026-04-30T12:15:21.999Z</time>
      </trkpt>
      <trkpt lat="43.98353" lon="3.00684">
        <ele>857.5</ele>
        <time>2026-04-30T12:15:22.999Z</time>
      </trkpt>
      <trkpt lat="43.98352" lon="3.00684">
        <ele>857</ele>
        <time>2026-04-30T12:15:23.999Z</time>
      </trkpt>
      <trkpt lat="43.98351" lon="3.00684">
        <ele>857</ele>
        <time>2026-04-30T12:15:24.999Z</time>
      </trkpt>
      <trkpt lat="43.9835" lon="3.00683">
        <ele>856.8</ele>
        <time>2026-04-30T12:15:25.999Z</time>
      </trkpt>
      <trkpt lat="43.98349" lon="3.00683">
        <ele>856.1</ele>
        <time>2026-04-30T12:15:26.999Z</time>
      </trkpt>
      <trkpt lat="43.98348" lon="3.00683">
        <ele>856.1</ele>
        <time>2026-04-30T12:15:27.999Z</time>
      </trkpt>
      <trkpt lat="43.98347" lon="3.00683">
        <ele>856.4</ele>
        <time>2026-04-30T12:15:28.999Z</time>
      </trkpt>
      <trkpt lat="43.98346" lon="3.00682">
        <ele>856.5</ele>
        <time>2026-04-30T12:15:29.999Z</time>
      </trkpt>
      <trkpt lat="43.98344" lon="3.00682">
        <ele>857</ele>
        <time>2026-04-30T12:15:30.999Z</time>
      </trkpt>
      <trkpt lat="43.98343" lon="3.00681">
        <ele>857.3</ele>
        <time>2026-04-30T12:15:31.999Z</time>
      </trkpt>
      <trkpt lat="43.98342" lon="3.0068">
        <ele>857.3</ele>
        <time>2026-04-30T12:15:32.999Z</time>
      </trkpt>
      <trkpt lat="43.98341" lon="3.0068">
        <ele>857.4</ele>
        <time>2026-04-30T12:15:33.999Z</time>
      </trkpt>
      <trkpt lat="43.9834" lon="3.0068">
        <ele>857.6</ele>
        <time>2026-04-30T12:15:34.999Z</time>
      </trkpt>
      <trkpt lat="43.98338" lon="3.0068">
        <ele>857.8</ele>
        <time>2026-04-30T12:15:35.999Z</time>
      </trkpt>
      <trkpt lat="43.98337" lon="3.0068">
        <ele>857.4</ele>
        <time>2026-04-30T12:15:36.999Z</time>
      </trkpt>
      <trkpt lat="43.98336" lon="3.00679">
        <ele>857.2</ele>
        <time>2026-04-30T12:15:37.999Z</time>
      </trkpt>
      <trkpt lat="43.98336" lon="3.00678">
        <ele>856.7</ele>
        <time>2026-04-30T12:15:38.999Z</time>
      </trkpt>
      <trkpt lat="43.98335" lon="3.00678">
        <ele>856.6</ele>
        <time>2026-04-30T12:15:39.999Z</time>
      </trkpt>
      <trkpt lat="43.98333" lon="3.00678">
        <ele>856.4</ele>
        <time>2026-04-30T12:15:40.999Z</time>
      </trkpt>
      <trkpt lat="43.98332" lon="3.00677">
        <ele>855.9</ele>
        <time>2026-04-30T12:15:41.999Z</time>
      </trkpt>
      <trkpt lat="43.98331" lon="3.00677">
        <ele>855.7</ele>
        <time>2026-04-30T12:15:42.999Z</time>
      </trkpt>
      <trkpt lat="43.9833" lon="3.00677">
        <ele>855.7</ele>
        <time>2026-04-30T12:15:43.999Z</time>
      </trkpt>
      <trkpt lat="43.98329" lon="3.00677">
        <ele>855.6</ele>
        <time>2026-04-30T12:15:44.999Z</time>
      </trkpt>
      <trkpt lat="43.98328" lon="3.00676">
        <ele>855.7</ele>
        <time>2026-04-30T12:15:45.999Z</time>
      </trkpt>
      <trkpt lat="43.98328" lon="3.00676">
        <ele>855.7</ele>
        <time>2026-04-30T12:15:46.999Z</time>
      </trkpt>
      <trkpt lat="43.98326" lon="3.00675">
        <ele>855.7</ele>
        <time>2026-04-30T12:15:47.999Z</time>
      </trkpt>
      <trkpt lat="43.98325" lon="3.00674">
        <ele>856</ele>
        <time>2026-04-30T12:15:48.999Z</time>
      </trkpt>
      <trkpt lat="43.98324" lon="3.00672">
        <ele>855.8</ele>
        <time>2026-04-30T12:15:49.999Z</time>
      </trkpt>
      <trkpt lat="43.98323" lon="3.00671">
        <ele>855.7</ele>
        <time>2026-04-30T12:15:50.999Z</time>
      </trkpt>
      <trkpt lat="43.98322" lon="3.0067">
        <ele>855.6</ele>
        <time>2026-04-30T12:15:51.999Z</time>
      </trkpt>
      <trkpt lat="43.98321" lon="3.0067">
        <ele>855.1</ele>
        <time>2026-04-30T12:15:52.999Z</time>
      </trkpt>
      <trkpt lat="43.9832" lon="3.00668">
        <ele>854.7</ele>
        <time>2026-04-30T12:15:53.999Z</time>
      </trkpt>
      <trkpt lat="43.98319" lon="3.00668">
        <ele>854.6</ele>
        <time>2026-04-30T12:15:54.999Z</time>
      </trkpt>
      <trkpt lat="43.98319" lon="3.00668">
        <ele>854.5</ele>
        <time>2026-04-30T12:15:55.999Z</time>
      </trkpt>
      <trkpt lat="43.98318" lon="3.00669">
        <ele>854.7</ele>
        <time>2026-04-30T12:15:56.999Z</time>
      </trkpt>
      <trkpt lat="43.98318" lon="3.00669">
        <ele>854.6</ele>
        <time>2026-04-30T12:15:57.999Z</time>
      </trkpt>
      <trkpt lat="43.98317" lon="3.00669">
        <ele>854.5</ele>
        <time>2026-04-30T12:15:58.999Z</time>
      </trkpt>
      <trkpt lat="43.98316" lon="3.00667">
        <ele>854.5</ele>
        <time>2026-04-30T12:15:59.999Z</time>
      </trkpt>
      <trkpt lat="43.98315" lon="3.00666">
        <ele>854.2</ele>
        <time>2026-04-30T12:16:00.999Z</time>
      </trkpt>
      <trkpt lat="43.98314" lon="3.00665">
        <ele>853.9</ele>
        <time>2026-04-30T12:16:01.999Z</time>
      </trkpt>
      <trkpt lat="43.98313" lon="3.00665">
        <ele>853.8</ele>
        <time>2026-04-30T12:16:02.999Z</time>
      </trkpt>
      <trkpt lat="43.98311" lon="3.00664">
        <ele>854.1</ele>
        <time>2026-04-30T12:16:03.999Z</time>
      </trkpt>
      <trkpt lat="43.9831" lon="3.00663">
        <ele>854.4</ele>
        <time>2026-04-30T12:16:04.999Z</time>
      </trkpt>
      <trkpt lat="43.98309" lon="3.00663">
        <ele>854.6</ele>
        <time>2026-04-30T12:16:05.999Z</time>
      </trkpt>
      <trkpt lat="43.98308" lon="3.00662">
        <ele>854.8</ele>
        <time>2026-04-30T12:16:06.999Z</time>
      </trkpt>
      <trkpt lat="43.98307" lon="3.00662">
        <ele>854.9</ele>
        <time>2026-04-30T12:16:07.999Z</time>
      </trkpt>
      <trkpt lat="43.98306" lon="3.00661">
        <ele>854.5</ele>
        <time>2026-04-30T12:16:08.999Z</time>
      </trkpt>
      <trkpt lat="43.98305" lon="3.0066">
        <ele>854.3</ele>
        <time>2026-04-30T12:16:09.999Z</time>
      </trkpt>
      <trkpt lat="43.98304" lon="3.0066">
        <ele>853.9</ele>
        <time>2026-04-30T12:16:10.999Z</time>
      </trkpt>
      <trkpt lat="43.98303" lon="3.00659">
        <ele>853.6</ele>
        <time>2026-04-30T12:16:11.999Z</time>
      </trkpt>
      <trkpt lat="43.98302" lon="3.00658">
        <ele>853.5</ele>
        <time>2026-04-30T12:16:12.999Z</time>
      </trkpt>
      <trkpt lat="43.98301" lon="3.00657">
        <ele>853.2</ele>
        <time>2026-04-30T12:16:13.999Z</time>
      </trkpt>
      <trkpt lat="43.98301" lon="3.00656">
        <ele>853.2</ele>
        <time>2026-04-30T12:16:14.999Z</time>
      </trkpt>
      <trkpt lat="43.98301" lon="3.00654">
        <ele>853.3</ele>
        <time>2026-04-30T12:16:15.999Z</time>
      </trkpt>
      <trkpt lat="43.98299" lon="3.00653">
        <ele>853</ele>
        <time>2026-04-30T12:16:16.999Z</time>
      </trkpt>
      <trkpt lat="43.98298" lon="3.00651">
        <ele>852.7</ele>
        <time>2026-04-30T12:16:17.999Z</time>
      </trkpt>
      <trkpt lat="43.98297" lon="3.0065">
        <ele>852.5</ele>
        <time>2026-04-30T12:16:18.999Z</time>
      </trkpt>
      <trkpt lat="43.98295" lon="3.00649">
        <ele>852.5</ele>
        <time>2026-04-30T12:16:19.999Z</time>
      </trkpt>
      <trkpt lat="43.98294" lon="3.00649">
        <ele>852.7</ele>
        <time>2026-04-30T12:16:20.999Z</time>
      </trkpt>
      <trkpt lat="43.98293" lon="3.00649">
        <ele>853</ele>
        <time>2026-04-30T12:16:21.999Z</time>
      </trkpt>
      <trkpt lat="43.98292" lon="3.00649">
        <ele>853.2</ele>
        <time>2026-04-30T12:16:22.999Z</time>
      </trkpt>
      <trkpt lat="43.98291" lon="3.00649">
        <ele>853.2</ele>
        <time>2026-04-30T12:16:23.999Z</time>
      </trkpt>
      <trkpt lat="43.98291" lon="3.0065">
        <ele>853.1</ele>
        <time>2026-04-30T12:16:24.999Z</time>
      </trkpt>
      <trkpt lat="43.9829" lon="3.0065">
        <ele>852.9</ele>
        <time>2026-04-30T12:16:25.999Z</time>
      </trkpt>
      <trkpt lat="43.9829" lon="3.0065">
        <ele>852.8</ele>
        <time>2026-04-30T12:16:26.999Z</time>
      </trkpt>
      <trkpt lat="43.9829" lon="3.00651">
        <ele>852.4</ele>
        <time>2026-04-30T12:16:27.999Z</time>
      </trkpt>
      <trkpt lat="43.98289" lon="3.00651">
        <ele>852.5</ele>
        <time>2026-04-30T12:16:28.999Z</time>
      </trkpt>
      <trkpt lat="43.98288" lon="3.00651">
        <ele>852.7</ele>
        <time>2026-04-30T12:16:29.999Z</time>
      </trkpt>
      <trkpt lat="43.98287" lon="3.0065">
        <ele>852.7</ele>
        <time>2026-04-30T12:16:30.999Z</time>
      </trkpt>
      <trkpt lat="43.98287" lon="3.0065">
        <ele>852.9</ele>
        <time>2026-04-30T12:16:31.999Z</time>
      </trkpt>
      <trkpt lat="43.98286" lon="3.00649">
        <ele>852.8</ele>
        <time>2026-04-30T12:16:32.999Z</time>
      </trkpt>
      <trkpt lat="43.98286" lon="3.00649">
        <ele>852.9</ele>
        <time>2026-04-30T12:16:33.999Z</time>
      </trkpt>
      <trkpt lat="43.98286" lon="3.0065">
        <ele>852.6</ele>
        <time>2026-04-30T12:16:34.999Z</time>
      </trkpt>
      <trkpt lat="43.98285" lon="3.0065">
        <ele>852.3</ele>
        <time>2026-04-30T12:16:35.999Z</time>
      </trkpt>
      <trkpt lat="43.98285" lon="3.0065">
        <ele>851.9</ele>
        <time>2026-04-30T12:16:36.999Z</time>
      </trkpt>
      <trkpt lat="43.98285" lon="3.0065">
        <ele>851.9</ele>
        <time>2026-04-30T12:16:37.999Z</time>
      </trkpt>
      <trkpt lat="43.98284" lon="3.00651">
        <ele>852.1</ele>
        <time>2026-04-30T12:16:38.999Z</time>
      </trkpt>
      <trkpt lat="43.98284" lon="3.00651">
        <ele>852</ele>
        <time>2026-04-30T12:16:39.999Z</time>
      </trkpt>
      <trkpt lat="43.98284" lon="3.00651">
        <ele>851.8</ele>
        <time>2026-04-30T12:16:40.999Z</time>
      </trkpt>
      <trkpt lat="43.98284" lon="3.00651">
        <ele>851.8</ele>
        <time>2026-04-30T12:16:41.999Z</time>
      </trkpt>
      <trkpt lat="43.98284" lon="3.0065">
        <ele>851.8</ele>
        <time>2026-04-30T12:16:42.999Z</time>
      </trkpt>
      <trkpt lat="43.98283" lon="3.0065">
        <ele>851.8</ele>
        <time>2026-04-30T12:16:43.999Z</time>
      </trkpt>
      <trkpt lat="43.98283" lon="3.0065">
        <ele>851.9</ele>
        <time>2026-04-30T12:16:44.999Z</time>
      </trkpt>
      <trkpt lat="43.98282" lon="3.0065">
        <ele>851.8</ele>
        <time>2026-04-30T12:16:46.000Z</time>
      </trkpt>
      <trkpt lat="43.98282" lon="3.0065">
        <ele>851.9</ele>
        <time>2026-04-30T12:16:47.000Z</time>
      </trkpt>
      <trkpt lat="43.98282" lon="3.00649">
        <ele>852</ele>
        <time>2026-04-30T12:16:48.000Z</time>
      </trkpt>
      <trkpt lat="43.98282" lon="3.00649">
        <ele>852.2</ele>
        <time>2026-04-30T12:16:49.000Z</time>
      </trkpt>
      <trkpt lat="43.98282" lon="3.0065">
        <ele>852.4</ele>
        <time>2026-04-30T12:16:50.000Z</time>
      </trkpt>
      <trkpt lat="43.98282" lon="3.0065">
        <ele>852.5</ele>
        <time>2026-04-30T12:16:51.000Z</time>
      </trkpt>
      <trkpt lat="43.98282" lon="3.0065">
        <ele>852.5</ele>
        <time>2026-04-30T12:16:52.000Z</time>
      </trkpt>
      <trkpt lat="43.98282" lon="3.0065">
        <ele>852.7</ele>
        <time>2026-04-30T12:16:53.000Z</time>
      </trkpt>
      <trkpt lat="43.98282" lon="3.00649">
        <ele>852.9</ele>
        <time>2026-04-30T12:16:54.000Z</time>
      </trkpt>
      <trkpt lat="43.98282" lon="3.00649">
        <ele>853.1</ele>
        <time>2026-04-30T12:16:55.000Z</time>
      </trkpt>
      <trkpt lat="43.98282" lon="3.00649">
        <ele>853.3</ele>
        <time>2026-04-30T12:16:56.000Z</time>
      </trkpt>
      <trkpt lat="43.98282" lon="3.00649">
        <ele>853.2</ele>
        <time>2026-04-30T12:16:57.000Z</time>
      </trkpt>
      <trkpt lat="43.98282" lon="3.00649">
        <ele>853.4</ele>
        <time>2026-04-30T12:16:58.000Z</time>
      </trkpt>
      <trkpt lat="43.98282" lon="3.00649">
        <ele>853.2</ele>
        <time>2026-04-30T12:16:59.000Z</time>
      </trkpt>
      <trkpt lat="43.98282" lon="3.00649">
        <ele>853.1</ele>
        <time>2026-04-30T12:17:00.000Z</time>
      </trkpt>
      <trkpt lat="43.98282" lon="3.00649">
        <ele>852.9</ele>
        <time>2026-04-30T12:17:01.000Z</time>
      </trkpt>
      <trkpt lat="43.98282" lon="3.00649">
        <ele>852.9</ele>
        <time>2026-04-30T12:17:02.000Z</time>
      </trkpt>
      <trkpt lat="43.98282" lon="3.00648">
        <ele>852.9</ele>
        <time>2026-04-30T12:17:03.000Z</time>
      </trkpt>
      <trkpt lat="43.98282" lon="3.00648">
        <ele>852.8</ele>
        <time>2026-04-30T12:17:04.000Z</time>
      </trkpt>
      <trkpt lat="43.98283" lon="3.00648">
        <ele>852.9</ele>
        <time>2026-04-30T12:17:05.000Z</time>
      </trkpt>
      <trkpt lat="43.98283" lon="3.00648">
        <ele>852.9</ele>
        <time>2026-04-30T12:17:06.000Z</time>
      </trkpt>
      <trkpt lat="43.98283" lon="3.00648">
        <ele>852.6</ele>
        <time>2026-04-30T12:17:07.000Z</time>
      </trkpt>
      <trkpt lat="43.98283" lon="3.00648">
        <ele>852.4</ele>
        <time>2026-04-30T12:17:08.000Z</time>
      </trkpt>
      <trkpt lat="43.98283" lon="3.00648">
        <ele>852.4</ele>
        <time>2026-04-30T12:17:09.000Z</time>
      </trkpt>
      <trkpt lat="43.98283" lon="3.00648">
        <ele>852.3</ele>
        <time>2026-04-30T12:17:10.000Z</time>
      </trkpt>
      <trkpt lat="43.98283" lon="3.00648">
        <ele>852.3</ele>
        <time>2026-04-30T12:17:11.000Z</time>
      </trkpt>
      <trkpt lat="43.98283" lon="3.00648">
        <ele>852.3</ele>
        <time>2026-04-30T12:17:12.000Z</time>
      </trkpt>
      <trkpt lat="43.98283" lon="3.00648">
        <ele>852.2</ele>
        <time>2026-04-30T12:17:13.000Z</time>
      </trkpt>
      <trkpt lat="43.98282" lon="3.00648">
        <ele>852.1</ele>
        <time>2026-04-30T12:17:14.000Z</time>
      </trkpt>
      <trkpt lat="43.98282" lon="3.00648">
        <ele>852.2</ele>
        <time>2026-04-30T12:17:15.000Z</time>
      </trkpt>
      <trkpt lat="43.98282" lon="3.00648">
        <ele>852.1</ele>
        <time>2026-04-30T12:17:16.000Z</time>
      </trkpt>
      <trkpt lat="43.98282" lon="3.00648">
        <ele>852.2</ele>
        <time>2026-04-30T12:17:17.000Z</time>
      </trkpt>
      <trkpt lat="43.98282" lon="3.00648">
        <ele>852.3</ele>
        <time>2026-04-30T12:17:18.000Z</time>
      </trkpt>
      <trkpt lat="43.98282" lon="3.00648">
        <ele>852.5</ele>
        <time>2026-04-30T12:17:19.000Z</time>
      </trkpt>
      <trkpt lat="43.98282" lon="3.00648">
        <ele>852.7</ele>
        <time>2026-04-30T12:17:20.000Z</time>
      </trkpt>
      <trkpt lat="43.98282" lon="3.00648">
        <ele>852.8</ele>
        <time>2026-04-30T12:17:21.000Z</time>
      </trkpt>
      <trkpt lat="43.98282" lon="3.00647">
        <ele>852.8</ele>
        <time>2026-04-30T12:17:22.000Z</time>
      </trkpt>
      <trkpt lat="43.98282" lon="3.00647">
        <ele>852.9</ele>
        <time>2026-04-30T12:17:23.000Z</time>
      </trkpt>
      <trkpt lat="43.98282" lon="3.00647">
        <ele>852.8</ele>
        <time>2026-04-30T12:17:24.000Z</time>
      </trkpt>
      <trkpt lat="43.98282" lon="3.00647">
        <ele>852.8</ele>
        <time>2026-04-30T12:17:25.000Z</time>
      </trkpt>
      <trkpt lat="43.98282" lon="3.00647">
        <ele>852.8</ele>
        <time>2026-04-30T12:17:26.000Z</time>
      </trkpt>
      <trkpt lat="43.98282" lon="3.00647">
        <ele>852.9</ele>
        <time>2026-04-30T12:17:27.000Z</time>
      </trkpt>
      <trkpt lat="43.98282" lon="3.00647">
        <ele>853.1</ele>
        <time>2026-04-30T12:17:28.000Z</time>
      </trkpt>
      <trkpt lat="43.98283" lon="3.00647">
        <ele>853.1</ele>
        <time>2026-04-30T12:17:29.000Z</time>
      </trkpt>
      <trkpt lat="43.98283" lon="3.00647">
        <ele>853.2</ele>
        <time>2026-04-30T12:17:30.000Z</time>
      </trkpt>
      <trkpt lat="43.98283" lon="3.00647">
        <ele>853.4</ele>
        <time>2026-04-30T12:17:31.000Z</time>
      </trkpt>
      <trkpt lat="43.98283" lon="3.00647">
        <ele>853.3</ele>
        <time>2026-04-30T12:17:32.000Z</time>
      </trkpt>
      <trkpt lat="43.98283" lon="3.00647">
        <ele>852.9</ele>
        <time>2026-04-30T12:17:33.000Z</time>
      </trkpt>
      <trkpt lat="43.98283" lon="3.00647">
        <ele>852.8</ele>
        <time>2026-04-30T12:17:34.000Z</time>
      </trkpt>
      <trkpt lat="43.98283" lon="3.00647">
        <ele>852.8</ele>
        <time>2026-04-30T12:17:35.000Z</time>
      </trkpt>
      <trkpt lat="43.98282" lon="3.00647">
        <ele>852.8</ele>
        <time>2026-04-30T12:17:36.000Z</time>
      </trkpt>
      <trkpt lat="43.98282" lon="3.00647">
        <ele>852.8</ele>
        <time>2026-04-30T12:17:37.000Z</time>
      </trkpt>
      <trkpt lat="43.98282" lon="3.00647">
        <ele>852.7</ele>
        <time>2026-04-30T12:17:38.000Z</time>
      </trkpt>
      <trkpt lat="43.98282" lon="3.00646">
        <ele>852.8</ele>
        <time>2026-04-30T12:17:39.000Z</time>
      </trkpt>
      <trkpt lat="43.98282" lon="3.00646">
        <ele>852.7</ele>
        <time>2026-04-30T12:17:40.000Z</time>
      </trkpt>
      <trkpt lat="43.98282" lon="3.00646">
        <ele>852.7</ele>
        <time>2026-04-30T12:17:41.000Z</time>
      </trkpt>
      <trkpt lat="43.98282" lon="3.00646">
        <ele>852</ele>
        <time>2026-04-30T12:17:43.000Z</time>
      </trkpt>
      <trkpt lat="43.98282" lon="3.00646">
        <ele>851.8</ele>
        <time>2026-04-30T12:17:44.000Z</time>
      </trkpt>
      <trkpt lat="43.98282" lon="3.00646">
        <ele>851.3</ele>
        <time>2026-04-30T12:17:45.000Z</time>
      </trkpt>
      <trkpt lat="43.98282" lon="3.00646">
        <ele>850.9</ele>
        <time>2026-04-30T12:17:46.000Z</time>
      </trkpt>
      <trkpt lat="43.98283" lon="3.00647">
        <ele>850.4</ele>
        <time>2026-04-30T12:17:47.000Z</time>
      </trkpt>
      <trkpt lat="43.98283" lon="3.00646">
        <ele>850.2</ele>
        <time>2026-04-30T12:17:48.000Z</time>
      </trkpt>
      <trkpt lat="43.98283" lon="3.00646">
        <ele>850</ele>
        <time>2026-04-30T12:17:49.000Z</time>
      </trkpt>
      <trkpt lat="43.98283" lon="3.00646">
        <ele>849.9</ele>
        <time>2026-04-30T12:17:50.000Z</time>
      </trkpt>
      <trkpt lat="43.98283" lon="3.00646">
        <ele>849.9</ele>
        <time>2026-04-30T12:17:51.000Z</time>
      </trkpt>
      <trkpt lat="43.98283" lon="3.00646">
        <ele>849.8</ele>
        <time>2026-04-30T12:17:52.000Z</time>
      </trkpt>
      <trkpt lat="43.98283" lon="3.00646">
        <ele>849.6</ele>
        <time>2026-04-30T12:17:53.000Z</time>
      </trkpt>
      <trkpt lat="43.98283" lon="3.00646">
        <ele>849.5</ele>
        <time>2026-04-30T12:17:54.000Z</time>
      </trkpt>
      <trkpt lat="43.98283" lon="3.00646">
        <ele>849.5</ele>
        <time>2026-04-30T12:17:55.000Z</time>
      </trkpt>
      <trkpt lat="43.98283" lon="3.00646">
        <ele>849.3</ele>
        <time>2026-04-30T12:17:56.000Z</time>
      </trkpt>
      <trkpt lat="43.98283" lon="3.00646">
        <ele>849.3</ele>
        <time>2026-04-30T12:17:57.000Z</time>
      </trkpt>
      <trkpt lat="43.98283" lon="3.00646">
        <ele>849.4</ele>
        <time>2026-04-30T12:17:58.000Z</time>
      </trkpt>
      <trkpt lat="43.98283" lon="3.00646">
        <ele>849.5</ele>
        <time>2026-04-30T12:17:59.000Z</time>
      </trkpt>
      <trkpt lat="43.98283" lon="3.00646">
        <ele>849.5</ele>
        <time>2026-04-30T12:18:00.000Z</time>
      </trkpt>
      <trkpt lat="43.98283" lon="3.00646">
        <ele>849.5</ele>
        <time>2026-04-30T12:18:01.000Z</time>
      </trkpt>
      <trkpt lat="43.98283" lon="3.00646">
        <ele>849.4</ele>
        <time>2026-04-30T12:18:02.000Z</time>
      </trkpt>
      <trkpt lat="43.98283" lon="3.00646">
        <ele>849.2</ele>
        <time>2026-04-30T12:18:03.000Z</time>
      </trkpt>
      <trkpt lat="43.98282" lon="3.00646">
        <ele>849.1</ele>
        <time>2026-04-30T12:18:04.000Z</time>
      </trkpt>
      <trkpt lat="43.98282" lon="3.00646">
        <ele>849</ele>
        <time>2026-04-30T12:18:05.000Z</time>
      </trkpt>
      <trkpt lat="43.98282" lon="3.00647">
        <ele>848.9</ele>
        <time>2026-04-30T12:18:06.000Z</time>
      </trkpt>
      <trkpt lat="43.98282" lon="3.00647">
        <ele>848.5</ele>
        <time>2026-04-30T12:18:07.000Z</time>
      </trkpt>
      <trkpt lat="43.98282" lon="3.00647">
        <ele>848.3</ele>
        <time>2026-04-30T12:18:08.000Z</time>
      </trkpt>
      <trkpt lat="43.98282" lon="3.00647">
        <ele>848.2</ele>
        <time>2026-04-30T12:18:09.000Z</time>
      </trkpt>
      <trkpt lat="43.98282" lon="3.00647">
        <ele>848.2</ele>
        <time>2026-04-30T12:18:10.000Z</time>
      </trkpt>
      <trkpt lat="43.98282" lon="3.00647">
        <ele>848.1</ele>
        <time>2026-04-30T12:18:11.000Z</time>
      </trkpt>
      <trkpt lat="43.98282" lon="3.00647">
        <ele>848</ele>
        <time>2026-04-30T12:18:12.000Z</time>
      </trkpt>
      <trkpt lat="43.98282" lon="3.00647">
        <ele>848.1</ele>
        <time>2026-04-30T12:18:13.000Z</time>
      </trkpt>
      <trkpt lat="43.98282" lon="3.00647">
        <ele>848.1</ele>
        <time>2026-04-30T12:18:14.000Z</time>
      </trkpt>
      <trkpt lat="43.98282" lon="3.00647">
        <ele>848.1</ele>
        <time>2026-04-30T12:18:15.000Z</time>
      </trkpt>
      <trkpt lat="43.98282" lon="3.00648">
        <ele>848.1</ele>
        <time>2026-04-30T12:18:16.000Z</time>
      </trkpt>
      <trkpt lat="43.98283" lon="3.00648">
        <ele>848.2</ele>
        <time>2026-04-30T12:18:17.000Z</time>
      </trkpt>
      <trkpt lat="43.98283" lon="3.00648">
        <ele>848.3</ele>
        <time>2026-04-30T12:18:18.000Z</time>
      </trkpt>
      <trkpt lat="43.98282" lon="3.00648">
        <ele>848.6</ele>
        <time>2026-04-30T12:18:19.000Z</time>
      </trkpt>
      <trkpt lat="43.98282" lon="3.00648">
        <ele>848.7</ele>
        <time>2026-04-30T12:18:20.000Z</time>
      </trkpt>
      <trkpt lat="43.98283" lon="3.00648">
        <ele>848.9</ele>
        <time>2026-04-30T12:18:21.000Z</time>
      </trkpt>
      <trkpt lat="43.98283" lon="3.00648">
        <ele>848.6</ele>
        <time>2026-04-30T12:18:22.000Z</time>
      </trkpt>
      <trkpt lat="43.98283" lon="3.00648">
        <ele>848.7</ele>
        <time>2026-04-30T12:18:23.000Z</time>
      </trkpt>
      <trkpt lat="43.98283" lon="3.00649">
        <ele>848.9</ele>
        <time>2026-04-30T12:18:24.000Z</time>
      </trkpt>
      <trkpt lat="43.98284" lon="3.00649">
        <ele>849.1</ele>
        <time>2026-04-30T12:18:25.000Z</time>
      </trkpt>
      <trkpt lat="43.98284" lon="3.00649">
        <ele>849.1</ele>
        <time>2026-04-30T12:18:26.000Z</time>
      </trkpt>
      <trkpt lat="43.98284" lon="3.00649">
        <ele>849.2</ele>
        <time>2026-04-30T12:18:27.000Z</time>
      </trkpt>
      <trkpt lat="43.98284" lon="3.00649">
        <ele>849.1</ele>
        <time>2026-04-30T12:18:28.000Z</time>
      </trkpt>
      <trkpt lat="43.98286" lon="3.0065">
        <ele>849.1</ele>
        <time>2026-04-30T12:18:29.000Z</time>
      </trkpt>
      <trkpt lat="43.98287" lon="3.00651">
        <ele>849</ele>
        <time>2026-04-30T12:18:30.000Z</time>
      </trkpt>
      <trkpt lat="43.98289" lon="3.00651">
        <ele>849.2</ele>
        <time>2026-04-30T12:18:31.000Z</time>
      </trkpt>
      <trkpt lat="43.98291" lon="3.0065">
        <ele>849.3</ele>
        <time>2026-04-30T12:18:32.000Z</time>
      </trkpt>
      <trkpt lat="43.98292" lon="3.00649">
        <ele>849.8</ele>
        <time>2026-04-30T12:18:33.000Z</time>
      </trkpt>
      <trkpt lat="43.98293" lon="3.00648">
        <ele>850.1</ele>
        <time>2026-04-30T12:18:34.000Z</time>
      </trkpt>
      <trkpt lat="43.98294" lon="3.00648">
        <ele>850</ele>
        <time>2026-04-30T12:18:35.000Z</time>
      </trkpt>
      <trkpt lat="43.98295" lon="3.00647">
        <ele>850</ele>
        <time>2026-04-30T12:18:36.000Z</time>
      </trkpt>
      <trkpt lat="43.98296" lon="3.00647">
        <ele>850.1</ele>
        <time>2026-04-30T12:18:37.000Z</time>
      </trkpt>
      <trkpt lat="43.98298" lon="3.00647">
        <ele>850.2</ele>
        <time>2026-04-30T12:18:38.000Z</time>
      </trkpt>
      <trkpt lat="43.98299" lon="3.00646">
        <ele>850.3</ele>
        <time>2026-04-30T12:18:39.000Z</time>
      </trkpt>
      <trkpt lat="43.983" lon="3.00645">
        <ele>850.4</ele>
        <time>2026-04-30T12:18:40.000Z</time>
      </trkpt>
      <trkpt lat="43.98301" lon="3.00644">
        <ele>850.8</ele>
        <time>2026-04-30T12:18:41.000Z</time>
      </trkpt>
      <trkpt lat="43.98302" lon="3.00644">
        <ele>851</ele>
        <time>2026-04-30T12:18:42.000Z</time>
      </trkpt>
      <trkpt lat="43.98302" lon="3.00643">
        <ele>851.1</ele>
        <time>2026-04-30T12:18:43.000Z</time>
      </trkpt>
      <trkpt lat="43.98303" lon="3.00642">
        <ele>851.3</ele>
        <time>2026-04-30T12:18:44.000Z</time>
      </trkpt>
      <trkpt lat="43.98304" lon="3.00641">
        <ele>851.8</ele>
        <time>2026-04-30T12:18:45.000Z</time>
      </trkpt>
      <trkpt lat="43.98305" lon="3.00641">
        <ele>852.3</ele>
        <time>2026-04-30T12:18:46.000Z</time>
      </trkpt>
      <trkpt lat="43.98305" lon="3.00641">
        <ele>852.6</ele>
        <time>2026-04-30T12:18:47.000Z</time>
      </trkpt>
      <trkpt lat="43.98305" lon="3.00641">
        <ele>852.8</ele>
        <time>2026-04-30T12:18:48.000Z</time>
      </trkpt>
      <trkpt lat="43.98306" lon="3.0064">
        <ele>853.4</ele>
        <time>2026-04-30T12:18:49.000Z</time>
      </trkpt>
      <trkpt lat="43.98307" lon="3.0064">
        <ele>853.6</ele>
        <time>2026-04-30T12:18:50.000Z</time>
      </trkpt>
      <trkpt lat="43.98308" lon="3.00639">
        <ele>853.9</ele>
        <time>2026-04-30T12:18:51.000Z</time>
      </trkpt>
      <trkpt lat="43.98309" lon="3.00639">
        <ele>854.1</ele>
        <time>2026-04-30T12:18:52.000Z</time>
      </trkpt>
      <trkpt lat="43.9831" lon="3.00638">
        <ele>854.4</ele>
        <time>2026-04-30T12:18:53.000Z</time>
      </trkpt>
      <trkpt lat="43.98311" lon="3.00637">
        <ele>854.5</ele>
        <time>2026-04-30T12:18:54.000Z</time>
      </trkpt>
      <trkpt lat="43.98311" lon="3.00636">
        <ele>854.7</ele>
        <time>2026-04-30T12:18:55.000Z</time>
      </trkpt>
      <trkpt lat="43.98312" lon="3.00635">
        <ele>854.8</ele>
        <time>2026-04-30T12:18:56.000Z</time>
      </trkpt>
      <trkpt lat="43.98313" lon="3.00635">
        <ele>854.9</ele>
        <time>2026-04-30T12:18:57.000Z</time>
      </trkpt>
      <trkpt lat="43.98313" lon="3.00635">
        <ele>854.8</ele>
        <time>2026-04-30T12:18:58.000Z</time>
      </trkpt>
      <trkpt lat="43.98314" lon="3.00634">
        <ele>854.6</ele>
        <time>2026-04-30T12:18:59.000Z</time>
      </trkpt>
      <trkpt lat="43.98315" lon="3.00633">
        <ele>854.4</ele>
        <time>2026-04-30T12:19:00.000Z</time>
      </trkpt>
      <trkpt lat="43.98316" lon="3.00631">
        <ele>854.5</ele>
        <time>2026-04-30T12:19:01.000Z</time>
      </trkpt>
      <trkpt lat="43.98317" lon="3.00629">
        <ele>854.8</ele>
        <time>2026-04-30T12:19:02.000Z</time>
      </trkpt>
      <trkpt lat="43.98317" lon="3.00628">
        <ele>855.3</ele>
        <time>2026-04-30T12:19:03.000Z</time>
      </trkpt>
      <trkpt lat="43.98318" lon="3.00627">
        <ele>855.7</ele>
        <time>2026-04-30T12:19:04.000Z</time>
      </trkpt>
      <trkpt lat="43.98319" lon="3.00626">
        <ele>855.9</ele>
        <time>2026-04-30T12:19:05.000Z</time>
      </trkpt>
      <trkpt lat="43.98319" lon="3.00624">
        <ele>856</ele>
        <time>2026-04-30T12:19:06.000Z</time>
      </trkpt>
      <trkpt lat="43.98319" lon="3.00623">
        <ele>856.3</ele>
        <time>2026-04-30T12:19:07.000Z</time>
      </trkpt>
      <trkpt lat="43.98319" lon="3.00621">
        <ele>856.7</ele>
        <time>2026-04-30T12:19:08.000Z</time>
      </trkpt>
      <trkpt lat="43.9832" lon="3.0062">
        <ele>857.2</ele>
        <time>2026-04-30T12:19:09.000Z</time>
      </trkpt>
      <trkpt lat="43.9832" lon="3.00619">
        <ele>857.6</ele>
        <time>2026-04-30T12:19:10.000Z</time>
      </trkpt>
      <trkpt lat="43.9832" lon="3.00618">
        <ele>857.7</ele>
        <time>2026-04-30T12:19:11.000Z</time>
      </trkpt>
      <trkpt lat="43.98321" lon="3.00616">
        <ele>857.8</ele>
        <time>2026-04-30T12:19:12.000Z</time>
      </trkpt>
      <trkpt lat="43.98321" lon="3.00615">
        <ele>858</ele>
        <time>2026-04-30T12:19:13.000Z</time>
      </trkpt>
      <trkpt lat="43.98322" lon="3.00614">
        <ele>857.8</ele>
        <time>2026-04-30T12:19:14.000Z</time>
      </trkpt>
      <trkpt lat="43.98322" lon="3.00612">
        <ele>857.7</ele>
        <time>2026-04-30T12:19:15.000Z</time>
      </trkpt>
      <trkpt lat="43.98323" lon="3.00611">
        <ele>857.6</ele>
        <time>2026-04-30T12:19:16.000Z</time>
      </trkpt>
      <trkpt lat="43.98323" lon="3.0061">
        <ele>857.7</ele>
        <time>2026-04-30T12:19:17.000Z</time>
      </trkpt>
      <trkpt lat="43.98324" lon="3.00608">
        <ele>858.3</ele>
        <time>2026-04-30T12:19:18.000Z</time>
      </trkpt>
      <trkpt lat="43.98324" lon="3.00608">
        <ele>858.2</ele>
        <time>2026-04-30T12:19:19.000Z</time>
      </trkpt>
      <trkpt lat="43.98325" lon="3.00607">
        <ele>858.1</ele>
        <time>2026-04-30T12:19:20.000Z</time>
      </trkpt>
      <trkpt lat="43.98324" lon="3.00605">
        <ele>858.2</ele>
        <time>2026-04-30T12:19:21.000Z</time>
      </trkpt>
      <trkpt lat="43.98324" lon="3.00604">
        <ele>858</ele>
        <time>2026-04-30T12:19:22.000Z</time>
      </trkpt>
      <trkpt lat="43.98324" lon="3.00604">
        <ele>857.6</ele>
        <time>2026-04-30T12:19:23.000Z</time>
      </trkpt>
      <trkpt lat="43.98325" lon="3.00603">
        <ele>857.2</ele>
        <time>2026-04-30T12:19:24.000Z</time>
      </trkpt>
      <trkpt lat="43.98326" lon="3.00602">
        <ele>856.9</ele>
        <time>2026-04-30T12:19:25.000Z</time>
      </trkpt>
      <trkpt lat="43.98327" lon="3.00601">
        <ele>856.4</ele>
        <time>2026-04-30T12:19:26.000Z</time>
      </trkpt>
      <trkpt lat="43.98327" lon="3.00599">
        <ele>856.2</ele>
        <time>2026-04-30T12:19:27.000Z</time>
      </trkpt>
      <trkpt lat="43.98328" lon="3.00598">
        <ele>856.1</ele>
        <time>2026-04-30T12:19:28.000Z</time>
      </trkpt>
      <trkpt lat="43.98328" lon="3.00596">
        <ele>856.1</ele>
        <time>2026-04-30T12:19:29.000Z</time>
      </trkpt>
      <trkpt lat="43.98328" lon="3.00595">
        <ele>856.1</ele>
        <time>2026-04-30T12:19:30.000Z</time>
      </trkpt>
      <trkpt lat="43.98328" lon="3.00594">
        <ele>855.9</ele>
        <time>2026-04-30T12:19:31.000Z</time>
      </trkpt>
      <trkpt lat="43.98329" lon="3.00593">
        <ele>855.7</ele>
        <time>2026-04-30T12:19:32.000Z</time>
      </trkpt>
      <trkpt lat="43.9833" lon="3.00592">
        <ele>855.6</ele>
        <time>2026-04-30T12:19:33.000Z</time>
      </trkpt>
      <trkpt lat="43.9833" lon="3.00591">
        <ele>855.5</ele>
        <time>2026-04-30T12:19:34.000Z</time>
      </trkpt>
      <trkpt lat="43.9833" lon="3.00589">
        <ele>855.5</ele>
        <time>2026-04-30T12:19:35.000Z</time>
      </trkpt>
      <trkpt lat="43.98331" lon="3.00588">
        <ele>855.4</ele>
        <time>2026-04-30T12:19:36.000Z</time>
      </trkpt>
      <trkpt lat="43.98331" lon="3.00587">
        <ele>855.2</ele>
        <time>2026-04-30T12:19:37.000Z</time>
      </trkpt>
      <trkpt lat="43.98331" lon="3.00586">
        <ele>855</ele>
        <time>2026-04-30T12:19:38.000Z</time>
      </trkpt>
      <trkpt lat="43.98331" lon="3.00585">
        <ele>855.2</ele>
        <time>2026-04-30T12:19:39.000Z</time>
      </trkpt>
      <trkpt lat="43.98332" lon="3.00584">
        <ele>855.1</ele>
        <time>2026-04-30T12:19:40.000Z</time>
      </trkpt>
      <trkpt lat="43.98333" lon="3.00584">
        <ele>855.2</ele>
        <time>2026-04-30T12:19:41.000Z</time>
      </trkpt>
      <trkpt lat="43.98333" lon="3.00583">
        <ele>855.3</ele>
        <time>2026-04-30T12:19:42.000Z</time>
      </trkpt>
      <trkpt lat="43.98334" lon="3.00582">
        <ele>855.3</ele>
        <time>2026-04-30T12:19:43.000Z</time>
      </trkpt>
      <trkpt lat="43.98335" lon="3.00581">
        <ele>856</ele>
        <time>2026-04-30T12:19:44.000Z</time>
      </trkpt>
      <trkpt lat="43.98336" lon="3.00579">
        <ele>856.4</ele>
        <time>2026-04-30T12:19:45.000Z</time>
      </trkpt>
      <trkpt lat="43.98336" lon="3.00578">
        <ele>856.8</ele>
        <time>2026-04-30T12:19:46.000Z</time>
      </trkpt>
      <trkpt lat="43.98337" lon="3.00577">
        <ele>857.4</ele>
        <time>2026-04-30T12:19:47.000Z</time>
      </trkpt>
      <trkpt lat="43.98337" lon="3.00576">
        <ele>857.2</ele>
        <time>2026-04-30T12:19:48.000Z</time>
      </trkpt>
      <trkpt lat="43.98338" lon="3.00576">
        <ele>857.4</ele>
        <time>2026-04-30T12:19:49.000Z</time>
      </trkpt>
      <trkpt lat="43.98339" lon="3.00574">
        <ele>857.2</ele>
        <time>2026-04-30T12:19:50.000Z</time>
      </trkpt>
      <trkpt lat="43.98339" lon="3.00573">
        <ele>857.2</ele>
        <time>2026-04-30T12:19:51.000Z</time>
      </trkpt>
      <trkpt lat="43.98339" lon="3.00572">
        <ele>857.2</ele>
        <time>2026-04-30T12:19:52.000Z</time>
      </trkpt>
      <trkpt lat="43.98339" lon="3.0057">
        <ele>857.7</ele>
        <time>2026-04-30T12:19:53.000Z</time>
      </trkpt>
      <trkpt lat="43.98339" lon="3.00569">
        <ele>857.6</ele>
        <time>2026-04-30T12:19:54.000Z</time>
      </trkpt>
      <trkpt lat="43.98339" lon="3.00568">
        <ele>857.5</ele>
        <time>2026-04-30T12:19:55.000Z</time>
      </trkpt>
      <trkpt lat="43.98339" lon="3.00566">
        <ele>857.4</ele>
        <time>2026-04-30T12:19:56.000Z</time>
      </trkpt>
      <trkpt lat="43.98339" lon="3.00565">
        <ele>857.5</ele>
        <time>2026-04-30T12:19:57.000Z</time>
      </trkpt>
      <trkpt lat="43.9834" lon="3.00564">
        <ele>857.7</ele>
        <time>2026-04-30T12:19:58.000Z</time>
      </trkpt>
      <trkpt lat="43.9834" lon="3.00562">
        <ele>857.7</ele>
        <time>2026-04-30T12:19:59.000Z</time>
      </trkpt>
      <trkpt lat="43.98341" lon="3.00561">
        <ele>857.8</ele>
        <time>2026-04-30T12:20:00.000Z</time>
      </trkpt>
      <trkpt lat="43.98341" lon="3.00559">
        <ele>857.9</ele>
        <time>2026-04-30T12:20:01.000Z</time>
      </trkpt>
      <trkpt lat="43.98342" lon="3.00559">
        <ele>858.1</ele>
        <time>2026-04-30T12:20:02.000Z</time>
      </trkpt>
      <trkpt lat="43.98342" lon="3.00558">
        <ele>858.2</ele>
        <time>2026-04-30T12:20:03.000Z</time>
      </trkpt>
      <trkpt lat="43.98343" lon="3.00557">
        <ele>858.1</ele>
        <time>2026-04-30T12:20:04.000Z</time>
      </trkpt>
      <trkpt lat="43.98344" lon="3.00557">
        <ele>858.1</ele>
        <time>2026-04-30T12:20:05.000Z</time>
      </trkpt>
      <trkpt lat="43.98345" lon="3.00556">
        <ele>858.2</ele>
        <time>2026-04-30T12:20:06.000Z</time>
      </trkpt>
      <trkpt lat="43.98346" lon="3.00555">
        <ele>858.2</ele>
        <time>2026-04-30T12:20:07.000Z</time>
      </trkpt>
      <trkpt lat="43.98347" lon="3.00553">
        <ele>858.4</ele>
        <time>2026-04-30T12:20:08.000Z</time>
      </trkpt>
      <trkpt lat="43.98348" lon="3.00553">
        <ele>858.7</ele>
        <time>2026-04-30T12:20:09.000Z</time>
      </trkpt>
      <trkpt lat="43.98349" lon="3.00552">
        <ele>859.1</ele>
        <time>2026-04-30T12:20:10.000Z</time>
      </trkpt>
      <trkpt lat="43.9835" lon="3.00552">
        <ele>859.5</ele>
        <time>2026-04-30T12:20:11.000Z</time>
      </trkpt>
      <trkpt lat="43.9835" lon="3.00551">
        <ele>859.4</ele>
        <time>2026-04-30T12:20:12.000Z</time>
      </trkpt>
      <trkpt lat="43.98351" lon="3.0055">
        <ele>859.5</ele>
        <time>2026-04-30T12:20:13.000Z</time>
      </trkpt>
      <trkpt lat="43.98352" lon="3.00548">
        <ele>859.5</ele>
        <time>2026-04-30T12:20:14.000Z</time>
      </trkpt>
      <trkpt lat="43.98353" lon="3.00547">
        <ele>859.9</ele>
        <time>2026-04-30T12:20:15.000Z</time>
      </trkpt>
      <trkpt lat="43.98353" lon="3.00546">
        <ele>860.3</ele>
        <time>2026-04-30T12:20:16.000Z</time>
      </trkpt>
      <trkpt lat="43.98354" lon="3.00546">
        <ele>860.2</ele>
        <time>2026-04-30T12:20:17.000Z</time>
      </trkpt>
      <trkpt lat="43.98354" lon="3.00545">
        <ele>860.1</ele>
        <time>2026-04-30T12:20:18.000Z</time>
      </trkpt>
      <trkpt lat="43.98356" lon="3.00544">
        <ele>860.1</ele>
        <time>2026-04-30T12:20:19.000Z</time>
      </trkpt>
      <trkpt lat="43.98357" lon="3.00543">
        <ele>860.1</ele>
        <time>2026-04-30T12:20:20.000Z</time>
      </trkpt>
      <trkpt lat="43.98358" lon="3.00542">
        <ele>860.1</ele>
        <time>2026-04-30T12:20:21.000Z</time>
      </trkpt>
      <trkpt lat="43.98359" lon="3.00542">
        <ele>860.4</ele>
        <time>2026-04-30T12:20:22.000Z</time>
      </trkpt>
      <trkpt lat="43.9836" lon="3.00542">
        <ele>861</ele>
        <time>2026-04-30T12:20:23.000Z</time>
      </trkpt>
      <trkpt lat="43.98361" lon="3.00541">
        <ele>861.8</ele>
        <time>2026-04-30T12:20:24.000Z</time>
      </trkpt>
      <trkpt lat="43.98361" lon="3.0054">
        <ele>862.4</ele>
        <time>2026-04-30T12:20:25.000Z</time>
      </trkpt>
      <trkpt lat="43.98362" lon="3.00539">
        <ele>862.6</ele>
        <time>2026-04-30T12:20:26.000Z</time>
      </trkpt>
      <trkpt lat="43.98363" lon="3.00539">
        <ele>862.4</ele>
        <time>2026-04-30T12:20:27.000Z</time>
      </trkpt>
      <trkpt lat="43.98364" lon="3.00539">
        <ele>862.5</ele>
        <time>2026-04-30T12:20:28.000Z</time>
      </trkpt>
      <trkpt lat="43.98365" lon="3.00538">
        <ele>862.3</ele>
        <time>2026-04-30T12:20:29.000Z</time>
      </trkpt>
      <trkpt lat="43.98366" lon="3.00538">
        <ele>862.1</ele>
        <time>2026-04-30T12:20:30.000Z</time>
      </trkpt>
      <trkpt lat="43.98367" lon="3.00538">
        <ele>862</ele>
        <time>2026-04-30T12:20:31.000Z</time>
      </trkpt>
      <trkpt lat="43.98368" lon="3.00537">
        <ele>862.2</ele>
        <time>2026-04-30T12:20:32.000Z</time>
      </trkpt>
      <trkpt lat="43.98369" lon="3.00537">
        <ele>862.2</ele>
        <time>2026-04-30T12:20:33.000Z</time>
      </trkpt>
      <trkpt lat="43.98369" lon="3.00537">
        <ele>862.5</ele>
        <time>2026-04-30T12:20:34.000Z</time>
      </trkpt>
      <trkpt lat="43.9837" lon="3.00537">
        <ele>862.8</ele>
        <time>2026-04-30T12:20:35.000Z</time>
      </trkpt>
      <trkpt lat="43.98371" lon="3.00537">
        <ele>863.1</ele>
        <time>2026-04-30T12:20:36.000Z</time>
      </trkpt>
      <trkpt lat="43.98372" lon="3.00537">
        <ele>863.2</ele>
        <time>2026-04-30T12:20:37.000Z</time>
      </trkpt>
      <trkpt lat="43.98373" lon="3.00536">
        <ele>863.2</ele>
        <time>2026-04-30T12:20:38.000Z</time>
      </trkpt>
      <trkpt lat="43.98374" lon="3.00535">
        <ele>863.1</ele>
        <time>2026-04-30T12:20:39.000Z</time>
      </trkpt>
      <trkpt lat="43.98375" lon="3.00535">
        <ele>863.3</ele>
        <time>2026-04-30T12:20:40.000Z</time>
      </trkpt>
      <trkpt lat="43.98375" lon="3.00533">
        <ele>863.8</ele>
        <time>2026-04-30T12:20:41.000Z</time>
      </trkpt>
      <trkpt lat="43.98375" lon="3.00532">
        <ele>864.3</ele>
        <time>2026-04-30T12:20:42.000Z</time>
      </trkpt>
      <trkpt lat="43.98375" lon="3.00531">
        <ele>864.4</ele>
        <time>2026-04-30T12:20:43.000Z</time>
      </trkpt>
      <trkpt lat="43.98376" lon="3.00529">
        <ele>864.8</ele>
        <time>2026-04-30T12:20:44.000Z</time>
      </trkpt>
      <trkpt lat="43.98377" lon="3.00528">
        <ele>865.1</ele>
        <time>2026-04-30T12:20:45.000Z</time>
      </trkpt>
      <trkpt lat="43.98378" lon="3.00527">
        <ele>865.3</ele>
        <time>2026-04-30T12:20:46.000Z</time>
      </trkpt>
      <trkpt lat="43.98379" lon="3.00526">
        <ele>865.6</ele>
        <time>2026-04-30T12:20:47.000Z</time>
      </trkpt>
      <trkpt lat="43.9838" lon="3.00525">
        <ele>865.8</ele>
        <time>2026-04-30T12:20:48.000Z</time>
      </trkpt>
      <trkpt lat="43.9838" lon="3.00525">
        <ele>865.9</ele>
        <time>2026-04-30T12:20:49.000Z</time>
      </trkpt>
      <trkpt lat="43.98381" lon="3.00523">
        <ele>866</ele>
        <time>2026-04-30T12:20:50.000Z</time>
      </trkpt>
      <trkpt lat="43.98382" lon="3.00523">
        <ele>865.8</ele>
        <time>2026-04-30T12:20:51.000Z</time>
      </trkpt>
      <trkpt lat="43.98384" lon="3.00523">
        <ele>865.3</ele>
        <time>2026-04-30T12:20:52.000Z</time>
      </trkpt>
      <trkpt lat="43.98385" lon="3.00522">
        <ele>864.7</ele>
        <time>2026-04-30T12:20:53.000Z</time>
      </trkpt>
      <trkpt lat="43.98386" lon="3.00522">
        <ele>864.2</ele>
        <time>2026-04-30T12:20:54.000Z</time>
      </trkpt>
      <trkpt lat="43.98387" lon="3.00521">
        <ele>864</ele>
        <time>2026-04-30T12:20:55.000Z</time>
      </trkpt>
      <trkpt lat="43.98389" lon="3.0052">
        <ele>864</ele>
        <time>2026-04-30T12:20:56.000Z</time>
      </trkpt>
      <trkpt lat="43.98389" lon="3.00519">
        <ele>864.3</ele>
        <time>2026-04-30T12:20:57.000Z</time>
      </trkpt>
      <trkpt lat="43.98389" lon="3.00518">
        <ele>864.4</ele>
        <time>2026-04-30T12:20:58.000Z</time>
      </trkpt>
      <trkpt lat="43.9839" lon="3.00517">
        <ele>864.6</ele>
        <time>2026-04-30T12:20:59.000Z</time>
      </trkpt>
      <trkpt lat="43.9839" lon="3.00516">
        <ele>864.6</ele>
        <time>2026-04-30T12:21:00.000Z</time>
      </trkpt>
      <trkpt lat="43.98391" lon="3.00515">
        <ele>864.5</ele>
        <time>2026-04-30T12:21:01.000Z</time>
      </trkpt>
      <trkpt lat="43.98392" lon="3.00513">
        <ele>864.9</ele>
        <time>2026-04-30T12:21:02.000Z</time>
      </trkpt>
      <trkpt lat="43.98392" lon="3.00512">
        <ele>865.2</ele>
        <time>2026-04-30T12:21:03.000Z</time>
      </trkpt>
      <trkpt lat="43.98392" lon="3.00512">
        <ele>865.4</ele>
        <time>2026-04-30T12:21:04.000Z</time>
      </trkpt>
      <trkpt lat="43.98393" lon="3.00511">
        <ele>865.8</ele>
        <time>2026-04-30T12:21:05.000Z</time>
      </trkpt>
      <trkpt lat="43.98393" lon="3.0051">
        <ele>866.2</ele>
        <time>2026-04-30T12:21:06.000Z</time>
      </trkpt>
      <trkpt lat="43.98394" lon="3.00509">
        <ele>866</ele>
        <time>2026-04-30T12:21:07.000Z</time>
      </trkpt>
      <trkpt lat="43.98395" lon="3.00509">
        <ele>866.1</ele>
        <time>2026-04-30T12:21:08.000Z</time>
      </trkpt>
      <trkpt lat="43.98397" lon="3.00508">
        <ele>866.1</ele>
        <time>2026-04-30T12:21:09.000Z</time>
      </trkpt>
      <trkpt lat="43.98398" lon="3.00508">
        <ele>865.9</ele>
        <time>2026-04-30T12:21:10.000Z</time>
      </trkpt>
      <trkpt lat="43.98399" lon="3.00507">
        <ele>865.7</ele>
        <time>2026-04-30T12:21:11.000Z</time>
      </trkpt>
      <trkpt lat="43.984" lon="3.00506">
        <ele>865.4</ele>
        <time>2026-04-30T12:21:12.000Z</time>
      </trkpt>
      <trkpt lat="43.98401" lon="3.00505">
        <ele>865.2</ele>
        <time>2026-04-30T12:21:13.000Z</time>
      </trkpt>
      <trkpt lat="43.98401" lon="3.00504">
        <ele>865.1</ele>
        <time>2026-04-30T12:21:14.000Z</time>
      </trkpt>
      <trkpt lat="43.98402" lon="3.00504">
        <ele>865</ele>
        <time>2026-04-30T12:21:15.000Z</time>
      </trkpt>
      <trkpt lat="43.98403" lon="3.00503">
        <ele>864.7</ele>
        <time>2026-04-30T12:21:16.000Z</time>
      </trkpt>
      <trkpt lat="43.98403" lon="3.00502">
        <ele>864.4</ele>
        <time>2026-04-30T12:21:17.000Z</time>
      </trkpt>
      <trkpt lat="43.98404" lon="3.00502">
        <ele>864.2</ele>
        <time>2026-04-30T12:21:18.000Z</time>
      </trkpt>
      <trkpt lat="43.98405" lon="3.00501">
        <ele>864.2</ele>
        <time>2026-04-30T12:21:19.000Z</time>
      </trkpt>
      <trkpt lat="43.98406" lon="3.005">
        <ele>863.8</ele>
        <time>2026-04-30T12:21:20.000Z</time>
      </trkpt>
      <trkpt lat="43.98407" lon="3.00499">
        <ele>863.5</ele>
        <time>2026-04-30T12:21:21.000Z</time>
      </trkpt>
      <trkpt lat="43.98407" lon="3.00499">
        <ele>863.3</ele>
        <time>2026-04-30T12:21:22.000Z</time>
      </trkpt>
      <trkpt lat="43.98408" lon="3.00498">
        <ele>863.3</ele>
        <time>2026-04-30T12:21:23.000Z</time>
      </trkpt>
      <trkpt lat="43.98409" lon="3.00497">
        <ele>863.6</ele>
        <time>2026-04-30T12:21:24.000Z</time>
      </trkpt>
      <trkpt lat="43.9841" lon="3.00496">
        <ele>863.8</ele>
        <time>2026-04-30T12:21:25.000Z</time>
      </trkpt>
      <trkpt lat="43.9841" lon="3.00495">
        <ele>863.9</ele>
        <time>2026-04-30T12:21:26.000Z</time>
      </trkpt>
      <trkpt lat="43.98411" lon="3.00495">
        <ele>864.4</ele>
        <time>2026-04-30T12:21:27.000Z</time>
      </trkpt>
      <trkpt lat="43.98412" lon="3.00494">
        <ele>864.5</ele>
        <time>2026-04-30T12:21:28.000Z</time>
      </trkpt>
      <trkpt lat="43.98412" lon="3.00493">
        <ele>864.4</ele>
        <time>2026-04-30T12:21:29.000Z</time>
      </trkpt>
      <trkpt lat="43.98414" lon="3.00492">
        <ele>864.7</ele>
        <time>2026-04-30T12:21:30.000Z</time>
      </trkpt>
      <trkpt lat="43.98414" lon="3.00491">
        <ele>864.8</ele>
        <time>2026-04-30T12:21:31.000Z</time>
      </trkpt>
      <trkpt lat="43.98415" lon="3.0049">
        <ele>864.9</ele>
        <time>2026-04-30T12:21:32.000Z</time>
      </trkpt>
      <trkpt lat="43.98416" lon="3.00489">
        <ele>865</ele>
        <time>2026-04-30T12:21:33.000Z</time>
      </trkpt>
      <trkpt lat="43.98416" lon="3.00489">
        <ele>865.1</ele>
        <time>2026-04-30T12:21:34.000Z</time>
      </trkpt>
      <trkpt lat="43.98417" lon="3.00488">
        <ele>865.2</ele>
        <time>2026-04-30T12:21:35.000Z</time>
      </trkpt>
      <trkpt lat="43.98418" lon="3.00487">
        <ele>865.3</ele>
        <time>2026-04-30T12:21:36.000Z</time>
      </trkpt>
      <trkpt lat="43.98419" lon="3.00486">
        <ele>865.4</ele>
        <time>2026-04-30T12:21:37.000Z</time>
      </trkpt>
      <trkpt lat="43.9842" lon="3.00485">
        <ele>865.4</ele>
        <time>2026-04-30T12:21:38.000Z</time>
      </trkpt>
      <trkpt lat="43.98421" lon="3.00484">
        <ele>865.2</ele>
        <time>2026-04-30T12:21:39.000Z</time>
      </trkpt>
      <trkpt lat="43.98422" lon="3.00483">
        <ele>865.4</ele>
        <time>2026-04-30T12:21:40.000Z</time>
      </trkpt>
      <trkpt lat="43.98422" lon="3.00482">
        <ele>865.7</ele>
        <time>2026-04-30T12:21:41.000Z</time>
      </trkpt>
      <trkpt lat="43.98423" lon="3.00481">
        <ele>865.7</ele>
        <time>2026-04-30T12:21:42.000Z</time>
      </trkpt>
      <trkpt lat="43.98424" lon="3.0048">
        <ele>865.4</ele>
        <time>2026-04-30T12:21:43.000Z</time>
      </trkpt>
      <trkpt lat="43.98425" lon="3.00479">
        <ele>865.3</ele>
        <time>2026-04-30T12:21:44.000Z</time>
      </trkpt>
      <trkpt lat="43.98426" lon="3.00478">
        <ele>865.3</ele>
        <time>2026-04-30T12:21:45.000Z</time>
      </trkpt>
      <trkpt lat="43.98427" lon="3.00477">
        <ele>865</ele>
        <time>2026-04-30T12:21:46.000Z</time>
      </trkpt>
      <trkpt lat="43.98428" lon="3.00475">
        <ele>864.6</ele>
        <time>2026-04-30T12:21:47.000Z</time>
      </trkpt>
      <trkpt lat="43.98429" lon="3.00475">
        <ele>864.3</ele>
        <time>2026-04-30T12:21:48.000Z</time>
      </trkpt>
      <trkpt lat="43.98429" lon="3.00474">
        <ele>864</ele>
        <time>2026-04-30T12:21:49.000Z</time>
      </trkpt>
      <trkpt lat="43.9843" lon="3.00473">
        <ele>863.8</ele>
        <time>2026-04-30T12:21:50.000Z</time>
      </trkpt>
      <trkpt lat="43.98431" lon="3.00472">
        <ele>863.7</ele>
        <time>2026-04-30T12:21:51.000Z</time>
      </trkpt>
      <trkpt lat="43.98432" lon="3.00471">
        <ele>864</ele>
        <time>2026-04-30T12:21:52.000Z</time>
      </trkpt>
      <trkpt lat="43.98433" lon="3.0047">
        <ele>864</ele>
        <time>2026-04-30T12:21:53.000Z</time>
      </trkpt>
      <trkpt lat="43.98434" lon="3.00469">
        <ele>864.1</ele>
        <time>2026-04-30T12:21:54.000Z</time>
      </trkpt>
      <trkpt lat="43.98434" lon="3.00468">
        <ele>864.1</ele>
        <time>2026-04-30T12:21:55.000Z</time>
      </trkpt>
      <trkpt lat="43.98435" lon="3.00467">
        <ele>864.4</ele>
        <time>2026-04-30T12:21:56.000Z</time>
      </trkpt>
      <trkpt lat="43.98435" lon="3.00466">
        <ele>864.7</ele>
        <time>2026-04-30T12:21:57.000Z</time>
      </trkpt>
      <trkpt lat="43.98436" lon="3.00465">
        <ele>864.9</ele>
        <time>2026-04-30T12:21:58.000Z</time>
      </trkpt>
      <trkpt lat="43.98437" lon="3.00465">
        <ele>864.9</ele>
        <time>2026-04-30T12:21:59.000Z</time>
      </trkpt>
      <trkpt lat="43.98438" lon="3.00464">
        <ele>864.7</ele>
        <time>2026-04-30T12:22:00.000Z</time>
      </trkpt>
      <trkpt lat="43.98439" lon="3.00463">
        <ele>864.9</ele>
        <time>2026-04-30T12:22:01.000Z</time>
      </trkpt>
      <trkpt lat="43.98441" lon="3.00462">
        <ele>865</ele>
        <time>2026-04-30T12:22:02.000Z</time>
      </trkpt>
      <trkpt lat="43.98442" lon="3.00459">
        <ele>864.7</ele>
        <time>2026-04-30T12:22:03.000Z</time>
      </trkpt>
      <trkpt lat="43.98443" lon="3.00458">
        <ele>864.7</ele>
        <time>2026-04-30T12:22:04.000Z</time>
      </trkpt>
      <trkpt lat="43.98443" lon="3.00458">
        <ele>865</ele>
        <time>2026-04-30T12:22:05.000Z</time>
      </trkpt>
      <trkpt lat="43.98444" lon="3.00457">
        <ele>865.3</ele>
        <time>2026-04-30T12:22:06.000Z</time>
      </trkpt>
      <trkpt lat="43.98445" lon="3.00456">
        <ele>865.4</ele>
        <time>2026-04-30T12:22:07.000Z</time>
      </trkpt>
      <trkpt lat="43.98446" lon="3.00455">
        <ele>865.7</ele>
        <time>2026-04-30T12:22:08.000Z</time>
      </trkpt>
      <trkpt lat="43.98447" lon="3.00454">
        <ele>865.7</ele>
        <time>2026-04-30T12:22:09.000Z</time>
      </trkpt>
      <trkpt lat="43.98448" lon="3.00453">
        <ele>866</ele>
        <time>2026-04-30T12:22:10.000Z</time>
      </trkpt>
      <trkpt lat="43.98449" lon="3.00452">
        <ele>866</ele>
        <time>2026-04-30T12:22:11.000Z</time>
      </trkpt>
      <trkpt lat="43.9845" lon="3.00452">
        <ele>866.3</ele>
        <time>2026-04-30T12:22:12.000Z</time>
      </trkpt>
      <trkpt lat="43.9845" lon="3.00451">
        <ele>866.7</ele>
        <time>2026-04-30T12:22:13.000Z</time>
      </trkpt>
      <trkpt lat="43.98451" lon="3.00451">
        <ele>867</ele>
        <time>2026-04-30T12:22:14.000Z</time>
      </trkpt>
      <trkpt lat="43.98452" lon="3.0045">
        <ele>867.1</ele>
        <time>2026-04-30T12:22:15.000Z</time>
      </trkpt>
      <trkpt lat="43.98452" lon="3.00449">
        <ele>867</ele>
        <time>2026-04-30T12:22:16.000Z</time>
      </trkpt>
      <trkpt lat="43.98453" lon="3.00448">
        <ele>867</ele>
        <time>2026-04-30T12:22:17.000Z</time>
      </trkpt>
      <trkpt lat="43.98454" lon="3.00447">
        <ele>866.8</ele>
        <time>2026-04-30T12:22:18.000Z</time>
      </trkpt>
      <trkpt lat="43.98454" lon="3.00445">
        <ele>866.6</ele>
        <time>2026-04-30T12:22:19.000Z</time>
      </trkpt>
      <trkpt lat="43.98454" lon="3.00445">
        <ele>866.4</ele>
        <time>2026-04-30T12:22:20.000Z</time>
      </trkpt>
      <trkpt lat="43.98455" lon="3.00443">
        <ele>866.3</ele>
        <time>2026-04-30T12:22:21.000Z</time>
      </trkpt>
      <trkpt lat="43.98456" lon="3.00442">
        <ele>865.9</ele>
        <time>2026-04-30T12:22:22.000Z</time>
      </trkpt>
      <trkpt lat="43.98457" lon="3.0044">
        <ele>866</ele>
        <time>2026-04-30T12:22:23.000Z</time>
      </trkpt>
      <trkpt lat="43.98458" lon="3.00439">
        <ele>866.2</ele>
        <time>2026-04-30T12:22:24.000Z</time>
      </trkpt>
      <trkpt lat="43.98459" lon="3.00438">
        <ele>866</ele>
        <time>2026-04-30T12:22:25.000Z</time>
      </trkpt>
      <trkpt lat="43.9846" lon="3.00437">
        <ele>865.9</ele>
        <time>2026-04-30T12:22:26.000Z</time>
      </trkpt>
      <trkpt lat="43.98461" lon="3.00435">
        <ele>865.9</ele>
        <time>2026-04-30T12:22:27.000Z</time>
      </trkpt>
      <trkpt lat="43.98463" lon="3.00433">
        <ele>866</ele>
        <time>2026-04-30T12:22:28.000Z</time>
      </trkpt>
      <trkpt lat="43.98464" lon="3.00432">
        <ele>865.9</ele>
        <time>2026-04-30T12:22:29.000Z</time>
      </trkpt>
      <trkpt lat="43.98466" lon="3.00431">
        <ele>865.9</ele>
        <time>2026-04-30T12:22:30.000Z</time>
      </trkpt>
      <trkpt lat="43.98467" lon="3.0043">
        <ele>866.2</ele>
        <time>2026-04-30T12:22:31.000Z</time>
      </trkpt>
      <trkpt lat="43.98468" lon="3.0043">
        <ele>866</ele>
        <time>2026-04-30T12:22:32.000Z</time>
      </trkpt>
      <trkpt lat="43.98468" lon="3.0043">
        <ele>866</ele>
        <time>2026-04-30T12:22:33.000Z</time>
      </trkpt>
      <trkpt lat="43.98468" lon="3.00429">
        <ele>866.2</ele>
        <time>2026-04-30T12:22:34.000Z</time>
      </trkpt>
      <trkpt lat="43.98468" lon="3.00428">
        <ele>866.2</ele>
        <time>2026-04-30T12:22:35.000Z</time>
      </trkpt>
      <trkpt lat="43.98469" lon="3.00427">
        <ele>866.4</ele>
        <time>2026-04-30T12:22:36.000Z</time>
      </trkpt>
      <trkpt lat="43.9847" lon="3.00426">
        <ele>866.5</ele>
        <time>2026-04-30T12:22:37.000Z</time>
      </trkpt>
      <trkpt lat="43.9847" lon="3.00424">
        <ele>866.6</ele>
        <time>2026-04-30T12:22:38.000Z</time>
      </trkpt>
      <trkpt lat="43.98471" lon="3.00423">
        <ele>866.5</ele>
        <time>2026-04-30T12:22:39.000Z</time>
      </trkpt>
      <trkpt lat="43.98471" lon="3.00422">
        <ele>866.7</ele>
        <time>2026-04-30T12:22:40.000Z</time>
      </trkpt>
      <trkpt lat="43.98472" lon="3.00421">
        <ele>866.7</ele>
        <time>2026-04-30T12:22:41.000Z</time>
      </trkpt>
      <trkpt lat="43.98472" lon="3.0042">
        <ele>866.5</ele>
        <time>2026-04-30T12:22:42.000Z</time>
      </trkpt>
      <trkpt lat="43.98473" lon="3.00418">
        <ele>866.3</ele>
        <time>2026-04-30T12:22:43.000Z</time>
      </trkpt>
      <trkpt lat="43.98473" lon="3.00417">
        <ele>866.4</ele>
        <time>2026-04-30T12:22:44.000Z</time>
      </trkpt>
      <trkpt lat="43.98473" lon="3.00416">
        <ele>866.3</ele>
        <time>2026-04-30T12:22:45.000Z</time>
      </trkpt>
      <trkpt lat="43.98473" lon="3.00414">
        <ele>866.3</ele>
        <time>2026-04-30T12:22:46.000Z</time>
      </trkpt>
      <trkpt lat="43.98474" lon="3.00413">
        <ele>866.4</ele>
        <time>2026-04-30T12:22:47.000Z</time>
      </trkpt>
      <trkpt lat="43.98474" lon="3.00411">
        <ele>866.1</ele>
        <time>2026-04-30T12:22:48.000Z</time>
      </trkpt>
      <trkpt lat="43.98475" lon="3.0041">
        <ele>866</ele>
        <time>2026-04-30T12:22:49.000Z</time>
      </trkpt>
      <trkpt lat="43.98475" lon="3.00408">
        <ele>866</ele>
        <time>2026-04-30T12:22:50.000Z</time>
      </trkpt>
      <trkpt lat="43.98476" lon="3.00407">
        <ele>866.1</ele>
        <time>2026-04-30T12:22:51.000Z</time>
      </trkpt>
      <trkpt lat="43.98476" lon="3.00407">
        <ele>866.3</ele>
        <time>2026-04-30T12:22:52.000Z</time>
      </trkpt>
      <trkpt lat="43.98476" lon="3.00405">
        <ele>866.5</ele>
        <time>2026-04-30T12:22:53.000Z</time>
      </trkpt>
      <trkpt lat="43.98476" lon="3.00404">
        <ele>866.5</ele>
        <time>2026-04-30T12:22:54.000Z</time>
      </trkpt>
      <trkpt lat="43.98476" lon="3.00402">
        <ele>866.8</ele>
        <time>2026-04-30T12:22:55.000Z</time>
      </trkpt>
      <trkpt lat="43.98476" lon="3.00399">
        <ele>866.9</ele>
        <time>2026-04-30T12:22:56.000Z</time>
      </trkpt>
      <trkpt lat="43.98476" lon="3.00398">
        <ele>866.7</ele>
        <time>2026-04-30T12:22:57.000Z</time>
      </trkpt>
      <trkpt lat="43.98476" lon="3.00397">
        <ele>866.4</ele>
        <time>2026-04-30T12:22:58.000Z</time>
      </trkpt>
      <trkpt lat="43.98477" lon="3.00395">
        <ele>866.3</ele>
        <time>2026-04-30T12:22:59.000Z</time>
      </trkpt>
      <trkpt lat="43.98477" lon="3.00394">
        <ele>866.1</ele>
        <time>2026-04-30T12:23:00.000Z</time>
      </trkpt>
      <trkpt lat="43.98477" lon="3.00393">
        <ele>866.1</ele>
        <time>2026-04-30T12:23:01.000Z</time>
      </trkpt>
      <trkpt lat="43.98477" lon="3.00391">
        <ele>866.3</ele>
        <time>2026-04-30T12:23:02.000Z</time>
      </trkpt>
      <trkpt lat="43.98477" lon="3.00389">
        <ele>866.4</ele>
        <time>2026-04-30T12:23:03.000Z</time>
      </trkpt>
      <trkpt lat="43.98477" lon="3.00388">
        <ele>865.9</ele>
        <time>2026-04-30T12:23:04.000Z</time>
      </trkpt>
      <trkpt lat="43.98477" lon="3.00386">
        <ele>865.9</ele>
        <time>2026-04-30T12:23:05.000Z</time>
      </trkpt>
      <trkpt lat="43.98477" lon="3.00385">
        <ele>866</ele>
        <time>2026-04-30T12:23:06.000Z</time>
      </trkpt>
      <trkpt lat="43.98477" lon="3.00384">
        <ele>865.7</ele>
        <time>2026-04-30T12:23:07.000Z</time>
      </trkpt>
      <trkpt lat="43.98478" lon="3.00381">
        <ele>865.8</ele>
        <time>2026-04-30T12:23:08.000Z</time>
      </trkpt>
      <trkpt lat="43.98478" lon="3.0038">
        <ele>865.7</ele>
        <time>2026-04-30T12:23:09.000Z</time>
      </trkpt>
      <trkpt lat="43.98479" lon="3.00378">
        <ele>865.5</ele>
        <time>2026-04-30T12:23:10.000Z</time>
      </trkpt>
      <trkpt lat="43.98479" lon="3.00377">
        <ele>865.8</ele>
        <time>2026-04-30T12:23:11.000Z</time>
      </trkpt>
      <trkpt lat="43.98479" lon="3.00376">
        <ele>865.6</ele>
        <time>2026-04-30T12:23:12.000Z</time>
      </trkpt>
      <trkpt lat="43.98479" lon="3.00375">
        <ele>865.5</ele>
        <time>2026-04-30T12:23:13.000Z</time>
      </trkpt>
      <trkpt lat="43.9848" lon="3.00373">
        <ele>865.3</ele>
        <time>2026-04-30T12:23:14.000Z</time>
      </trkpt>
      <trkpt lat="43.9848" lon="3.00371">
        <ele>865.4</ele>
        <time>2026-04-30T12:23:15.000Z</time>
      </trkpt>
      <trkpt lat="43.9848" lon="3.00368">
        <ele>865</ele>
        <time>2026-04-30T12:23:16.000Z</time>
      </trkpt>
      <trkpt lat="43.9848" lon="3.00367">
        <ele>864.7</ele>
        <time>2026-04-30T12:23:17.000Z</time>
      </trkpt>
      <trkpt lat="43.98481" lon="3.00365">
        <ele>864.8</ele>
        <time>2026-04-30T12:23:18.000Z</time>
      </trkpt>
      <trkpt lat="43.98481" lon="3.00364">
        <ele>864.5</ele>
        <time>2026-04-30T12:23:19.000Z</time>
      </trkpt>
      <trkpt lat="43.98481" lon="3.00363">
        <ele>864.6</ele>
        <time>2026-04-30T12:23:20.000Z</time>
      </trkpt>
      <trkpt lat="43.98481" lon="3.00362">
        <ele>864.3</ele>
        <time>2026-04-30T12:23:21.000Z</time>
      </trkpt>
      <trkpt lat="43.98481" lon="3.00361">
        <ele>864.2</ele>
        <time>2026-04-30T12:23:22.000Z</time>
      </trkpt>
      <trkpt lat="43.98481" lon="3.00359">
        <ele>864.2</ele>
        <time>2026-04-30T12:23:23.000Z</time>
      </trkpt>
      <trkpt lat="43.98481" lon="3.00357">
        <ele>864.5</ele>
        <time>2026-04-30T12:23:24.000Z</time>
      </trkpt>
      <trkpt lat="43.98482" lon="3.00355">
        <ele>864.6</ele>
        <time>2026-04-30T12:23:25.000Z</time>
      </trkpt>
      <trkpt lat="43.98482" lon="3.00353">
        <ele>864.8</ele>
        <time>2026-04-30T12:23:26.000Z</time>
      </trkpt>
      <trkpt lat="43.98481" lon="3.00352">
        <ele>864.9</ele>
        <time>2026-04-30T12:23:27.000Z</time>
      </trkpt>
      <trkpt lat="43.98481" lon="3.0035">
        <ele>864.9</ele>
        <time>2026-04-30T12:23:28.000Z</time>
      </trkpt>
      <trkpt lat="43.98481" lon="3.0035">
        <ele>864.5</ele>
        <time>2026-04-30T12:23:29.000Z</time>
      </trkpt>
      <trkpt lat="43.98481" lon="3.00348">
        <ele>864.5</ele>
        <time>2026-04-30T12:23:30.000Z</time>
      </trkpt>
      <trkpt lat="43.98481" lon="3.00346">
        <ele>864.4</ele>
        <time>2026-04-30T12:23:31.000Z</time>
      </trkpt>
      <trkpt lat="43.98482" lon="3.00344">
        <ele>864.4</ele>
        <time>2026-04-30T12:23:32.000Z</time>
      </trkpt>
      <trkpt lat="43.98482" lon="3.00342">
        <ele>864.6</ele>
        <time>2026-04-30T12:23:33.000Z</time>
      </trkpt>
      <trkpt lat="43.98483" lon="3.0034">
        <ele>864.6</ele>
        <time>2026-04-30T12:23:34.000Z</time>
      </trkpt>
      <trkpt lat="43.98484" lon="3.00339">
        <ele>864.4</ele>
        <time>2026-04-30T12:23:35.000Z</time>
      </trkpt>
      <trkpt lat="43.98484" lon="3.00338">
        <ele>864.4</ele>
        <time>2026-04-30T12:23:36.000Z</time>
      </trkpt>
      <trkpt lat="43.98484" lon="3.00337">
        <ele>864</ele>
        <time>2026-04-30T12:23:37.000Z</time>
      </trkpt>
      <trkpt lat="43.98484" lon="3.00335">
        <ele>863.8</ele>
        <time>2026-04-30T12:23:38.000Z</time>
      </trkpt>
      <trkpt lat="43.98485" lon="3.00333">
        <ele>863.9</ele>
        <time>2026-04-30T12:23:39.000Z</time>
      </trkpt>
      <trkpt lat="43.98485" lon="3.00331">
        <ele>863.8</ele>
        <time>2026-04-30T12:23:40.000Z</time>
      </trkpt>
      <trkpt lat="43.98485" lon="3.00329">
        <ele>863.7</ele>
        <time>2026-04-30T12:23:41.000Z</time>
      </trkpt>
      <trkpt lat="43.98486" lon="3.00327">
        <ele>864.1</ele>
        <time>2026-04-30T12:23:42.000Z</time>
      </trkpt>
      <trkpt lat="43.98486" lon="3.00325">
        <ele>864.3</ele>
        <time>2026-04-30T12:23:43.000Z</time>
      </trkpt>
      <trkpt lat="43.98486" lon="3.00324">
        <ele>864.3</ele>
        <time>2026-04-30T12:23:44.000Z</time>
      </trkpt>
      <trkpt lat="43.98486" lon="3.00323">
        <ele>864.2</ele>
        <time>2026-04-30T12:23:45.000Z</time>
      </trkpt>
      <trkpt lat="43.98486" lon="3.00321">
        <ele>864.2</ele>
        <time>2026-04-30T12:23:46.000Z</time>
      </trkpt>
      <trkpt lat="43.98486" lon="3.0032">
        <ele>864.1</ele>
        <time>2026-04-30T12:23:47.000Z</time>
      </trkpt>
      <trkpt lat="43.98486" lon="3.00318">
        <ele>864.6</ele>
        <time>2026-04-30T12:23:48.000Z</time>
      </trkpt>
      <trkpt lat="43.98486" lon="3.00315">
        <ele>864.7</ele>
        <time>2026-04-30T12:23:49.000Z</time>
      </trkpt>
      <trkpt lat="43.98485" lon="3.00313">
        <ele>865</ele>
        <time>2026-04-30T12:23:50.000Z</time>
      </trkpt>
      <trkpt lat="43.98486" lon="3.00311">
        <ele>865.1</ele>
        <time>2026-04-30T12:23:51.000Z</time>
      </trkpt>
      <trkpt lat="43.98485" lon="3.00309">
        <ele>865.1</ele>
        <time>2026-04-30T12:23:52.000Z</time>
      </trkpt>
      <trkpt lat="43.98485" lon="3.00308">
        <ele>865.2</ele>
        <time>2026-04-30T12:23:53.000Z</time>
      </trkpt>
      <trkpt lat="43.98485" lon="3.00307">
        <ele>865.1</ele>
        <time>2026-04-30T12:23:54.000Z</time>
      </trkpt>
      <trkpt lat="43.98485" lon="3.00306">
        <ele>865</ele>
        <time>2026-04-30T12:23:55.000Z</time>
      </trkpt>
      <trkpt lat="43.98485" lon="3.00304">
        <ele>865.5</ele>
        <time>2026-04-30T12:23:56.000Z</time>
      </trkpt>
      <trkpt lat="43.98485" lon="3.00302">
        <ele>865.5</ele>
        <time>2026-04-30T12:23:57.000Z</time>
      </trkpt>
      <trkpt lat="43.98485" lon="3.003">
        <ele>865.5</ele>
        <time>2026-04-30T12:23:58.000Z</time>
      </trkpt>
      <trkpt lat="43.98485" lon="3.00298">
        <ele>865.6</ele>
        <time>2026-04-30T12:23:59.000Z</time>
      </trkpt>
      <trkpt lat="43.98485" lon="3.00296">
        <ele>865.6</ele>
        <time>2026-04-30T12:24:00.000Z</time>
      </trkpt>
      <trkpt lat="43.98485" lon="3.00295">
        <ele>865.6</ele>
        <time>2026-04-30T12:24:01.000Z</time>
      </trkpt>
      <trkpt lat="43.98485" lon="3.00294">
        <ele>865.6</ele>
        <time>2026-04-30T12:24:02.000Z</time>
      </trkpt>
      <trkpt lat="43.98485" lon="3.00292">
        <ele>865.5</ele>
        <time>2026-04-30T12:24:03.000Z</time>
      </trkpt>
      <trkpt lat="43.98484" lon="3.0029">
        <ele>865.6</ele>
        <time>2026-04-30T12:24:04.000Z</time>
      </trkpt>
      <trkpt lat="43.98483" lon="3.00288">
        <ele>865.7</ele>
        <time>2026-04-30T12:24:05.000Z</time>
      </trkpt>
      <trkpt lat="43.98483" lon="3.00286">
        <ele>865.6</ele>
        <time>2026-04-30T12:24:06.000Z</time>
      </trkpt>
      <trkpt lat="43.98482" lon="3.00285">
        <ele>865.7</ele>
        <time>2026-04-30T12:24:07.000Z</time>
      </trkpt>
      <trkpt lat="43.98482" lon="3.00283">
        <ele>865.7</ele>
        <time>2026-04-30T12:24:08.000Z</time>
      </trkpt>
      <trkpt lat="43.98481" lon="3.00282">
        <ele>865.2</ele>
        <time>2026-04-30T12:24:09.000Z</time>
      </trkpt>
      <trkpt lat="43.98481" lon="3.00281">
        <ele>865.2</ele>
        <time>2026-04-30T12:24:10.000Z</time>
      </trkpt>
      <trkpt lat="43.98481" lon="3.00279">
        <ele>865.1</ele>
        <time>2026-04-30T12:24:11.000Z</time>
      </trkpt>
      <trkpt lat="43.9848" lon="3.00277">
        <ele>864.7</ele>
        <time>2026-04-30T12:24:12.000Z</time>
      </trkpt>
      <trkpt lat="43.9848" lon="3.00276">
        <ele>864.4</ele>
        <time>2026-04-30T12:24:13.000Z</time>
      </trkpt>
      <trkpt lat="43.98479" lon="3.00275">
        <ele>864.4</ele>
        <time>2026-04-30T12:24:14.000Z</time>
      </trkpt>
      <trkpt lat="43.98479" lon="3.00274">
        <ele>864.5</ele>
        <time>2026-04-30T12:24:15.000Z</time>
      </trkpt>
      <trkpt lat="43.98478" lon="3.00274">
        <ele>864.9</ele>
        <time>2026-04-30T12:24:16.000Z</time>
      </trkpt>
      <trkpt lat="43.98478" lon="3.00272">
        <ele>865</ele>
        <time>2026-04-30T12:24:17.000Z</time>
      </trkpt>
      <trkpt lat="43.98478" lon="3.0027">
        <ele>865.1</ele>
        <time>2026-04-30T12:24:18.000Z</time>
      </trkpt>
      <trkpt lat="43.98477" lon="3.00269">
        <ele>865.2</ele>
        <time>2026-04-30T12:24:19.000Z</time>
      </trkpt>
      <trkpt lat="43.98477" lon="3.00268">
        <ele>865.2</ele>
        <time>2026-04-30T12:24:20.000Z</time>
      </trkpt>
      <trkpt lat="43.98477" lon="3.00267">
        <ele>865.5</ele>
        <time>2026-04-30T12:24:21.000Z</time>
      </trkpt>
      <trkpt lat="43.98476" lon="3.00266">
        <ele>865.6</ele>
        <time>2026-04-30T12:24:22.000Z</time>
      </trkpt>
      <trkpt lat="43.98476" lon="3.00264">
        <ele>865.6</ele>
        <time>2026-04-30T12:24:23.000Z</time>
      </trkpt>
      <trkpt lat="43.98476" lon="3.00263">
        <ele>865.7</ele>
        <time>2026-04-30T12:24:24.000Z</time>
      </trkpt>
      <trkpt lat="43.98476" lon="3.00261">
        <ele>865.6</ele>
        <time>2026-04-30T12:24:25.000Z</time>
      </trkpt>
      <trkpt lat="43.98475" lon="3.0026">
        <ele>865.5</ele>
        <time>2026-04-30T12:24:26.000Z</time>
      </trkpt>
      <trkpt lat="43.98475" lon="3.00259">
        <ele>865.3</ele>
        <time>2026-04-30T12:24:27.000Z</time>
      </trkpt>
      <trkpt lat="43.98474" lon="3.00258">
        <ele>865.1</ele>
        <time>2026-04-30T12:24:28.000Z</time>
      </trkpt>
      <trkpt lat="43.98474" lon="3.00257">
        <ele>865</ele>
        <time>2026-04-30T12:24:29.000Z</time>
      </trkpt>
      <trkpt lat="43.98473" lon="3.00257">
        <ele>864.8</ele>
        <time>2026-04-30T12:24:30.000Z</time>
      </trkpt>
      <trkpt lat="43.98473" lon="3.00256">
        <ele>864.3</ele>
        <time>2026-04-30T12:24:31.000Z</time>
      </trkpt>
      <trkpt lat="43.98472" lon="3.00255">
        <ele>864.3</ele>
        <time>2026-04-30T12:24:32.000Z</time>
      </trkpt>
      <trkpt lat="43.98472" lon="3.00255">
        <ele>864.3</ele>
        <time>2026-04-30T12:24:33.000Z</time>
      </trkpt>
      <trkpt lat="43.98471" lon="3.00254">
        <ele>864.3</ele>
        <time>2026-04-30T12:24:34.000Z</time>
      </trkpt>
      <trkpt lat="43.9847" lon="3.00253">
        <ele>864.1</ele>
        <time>2026-04-30T12:24:35.000Z</time>
      </trkpt>
      <trkpt lat="43.9847" lon="3.00253">
        <ele>863.8</ele>
        <time>2026-04-30T12:24:36.000Z</time>
      </trkpt>
      <trkpt lat="43.9847" lon="3.00252">
        <ele>864</ele>
        <time>2026-04-30T12:24:37.000Z</time>
      </trkpt>
      <trkpt lat="43.9847" lon="3.00252">
        <ele>864.2</ele>
        <time>2026-04-30T12:24:38.000Z</time>
      </trkpt>
      <trkpt lat="43.9847" lon="3.00252">
        <ele>864.7</ele>
        <time>2026-04-30T12:24:39.000Z</time>
      </trkpt>
      <trkpt lat="43.98469" lon="3.00253">
        <ele>865.4</ele>
        <time>2026-04-30T12:24:40.000Z</time>
      </trkpt>
      <trkpt lat="43.98469" lon="3.00253">
        <ele>865.8</ele>
        <time>2026-04-30T12:24:41.000Z</time>
      </trkpt>
      <trkpt lat="43.98469" lon="3.00253">
        <ele>866.6</ele>
        <time>2026-04-30T12:24:42.000Z</time>
      </trkpt>
      <trkpt lat="43.98469" lon="3.00253">
        <ele>867</ele>
        <time>2026-04-30T12:24:43.000Z</time>
      </trkpt>
      <trkpt lat="43.98469" lon="3.00253">
        <ele>867.2</ele>
        <time>2026-04-30T12:24:44.000Z</time>
      </trkpt>
      <trkpt lat="43.98469" lon="3.00253">
        <ele>867.2</ele>
        <time>2026-04-30T12:24:45.000Z</time>
      </trkpt>
      <trkpt lat="43.98469" lon="3.00253">
        <ele>867</ele>
        <time>2026-04-30T12:24:46.000Z</time>
      </trkpt>
      <trkpt lat="43.98469" lon="3.00253">
        <ele>866.9</ele>
        <time>2026-04-30T12:24:47.000Z</time>
      </trkpt>
      <trkpt lat="43.98469" lon="3.00253">
        <ele>867.1</ele>
        <time>2026-04-30T12:24:48.000Z</time>
      </trkpt>
      <trkpt lat="43.98469" lon="3.00253">
        <ele>867.2</ele>
        <time>2026-04-30T12:24:49.000Z</time>
      </trkpt>
      <trkpt lat="43.98469" lon="3.00253">
        <ele>867.3</ele>
        <time>2026-04-30T12:24:50.000Z</time>
      </trkpt>
      <trkpt lat="43.98469" lon="3.00253">
        <ele>867.5</ele>
        <time>2026-04-30T12:24:51.000Z</time>
      </trkpt>
      <trkpt lat="43.98469" lon="3.00253">
        <ele>867.5</ele>
        <time>2026-04-30T12:24:52.000Z</time>
      </trkpt>
      <trkpt lat="43.98469" lon="3.00253">
        <ele>867.4</ele>
        <time>2026-04-30T12:24:53.000Z</time>
      </trkpt>
      <trkpt lat="43.9847" lon="3.00252">
        <ele>867.4</ele>
        <time>2026-04-30T12:24:54.000Z</time>
      </trkpt>
      <trkpt lat="43.9847" lon="3.0025">
        <ele>867.4</ele>
        <time>2026-04-30T12:24:55.000Z</time>
      </trkpt>
      <trkpt lat="43.9847" lon="3.00248">
        <ele>867.7</ele>
        <time>2026-04-30T12:24:56.000Z</time>
      </trkpt>
      <trkpt lat="43.98469" lon="3.00246">
        <ele>868</ele>
        <time>2026-04-30T12:24:57.000Z</time>
      </trkpt>
      <trkpt lat="43.98469" lon="3.00244">
        <ele>867.6</ele>
        <time>2026-04-30T12:24:58.000Z</time>
      </trkpt>
      <trkpt lat="43.98468" lon="3.00242">
        <ele>867.6</ele>
        <time>2026-04-30T12:24:59.000Z</time>
      </trkpt>
      <trkpt lat="43.98467" lon="3.00241">
        <ele>868.1</ele>
        <time>2026-04-30T12:25:00.000Z</time>
      </trkpt>
      <trkpt lat="43.98466" lon="3.0024">
        <ele>868.8</ele>
        <time>2026-04-30T12:25:01.000Z</time>
      </trkpt>
      <trkpt lat="43.98466" lon="3.00239">
        <ele>869.4</ele>
        <time>2026-04-30T12:25:02.000Z</time>
      </trkpt>
      <trkpt lat="43.98466" lon="3.00238">
        <ele>869.4</ele>
        <time>2026-04-30T12:25:03.000Z</time>
      </trkpt>
      <trkpt lat="43.98465" lon="3.00237">
        <ele>869.4</ele>
        <time>2026-04-30T12:25:04.000Z</time>
      </trkpt>
      <trkpt lat="43.98465" lon="3.00235">
        <ele>869.9</ele>
        <time>2026-04-30T12:25:05.000Z</time>
      </trkpt>
      <trkpt lat="43.98465" lon="3.00233">
        <ele>870.2</ele>
        <time>2026-04-30T12:25:06.000Z</time>
      </trkpt>
      <trkpt lat="43.98464" lon="3.00233">
        <ele>870.2</ele>
        <time>2026-04-30T12:25:07.000Z</time>
      </trkpt>
      <trkpt lat="43.98464" lon="3.00232">
        <ele>869.7</ele>
        <time>2026-04-30T12:25:08.000Z</time>
      </trkpt>
      <trkpt lat="43.98464" lon="3.0023">
        <ele>869.7</ele>
        <time>2026-04-30T12:25:09.000Z</time>
      </trkpt>
      <trkpt lat="43.98464" lon="3.00228">
        <ele>869.6</ele>
        <time>2026-04-30T12:25:10.000Z</time>
      </trkpt>
      <trkpt lat="43.98464" lon="3.00227">
        <ele>869.7</ele>
        <time>2026-04-30T12:25:11.000Z</time>
      </trkpt>
      <trkpt lat="43.98465" lon="3.00226">
        <ele>869.5</ele>
        <time>2026-04-30T12:25:12.000Z</time>
      </trkpt>
      <trkpt lat="43.98465" lon="3.00225">
        <ele>869.7</ele>
        <time>2026-04-30T12:25:13.000Z</time>
      </trkpt>
      <trkpt lat="43.98465" lon="3.00224">
        <ele>869.5</ele>
        <time>2026-04-30T12:25:14.000Z</time>
      </trkpt>
      <trkpt lat="43.98465" lon="3.00222">
        <ele>869.1</ele>
        <time>2026-04-30T12:25:15.000Z</time>
      </trkpt>
      <trkpt lat="43.98465" lon="3.00221">
        <ele>869.1</ele>
        <time>2026-04-30T12:25:16.000Z</time>
      </trkpt>
      <trkpt lat="43.98464" lon="3.00219">
        <ele>869.2</ele>
        <time>2026-04-30T12:25:17.000Z</time>
      </trkpt>
      <trkpt lat="43.98464" lon="3.00217">
        <ele>869.4</ele>
        <time>2026-04-30T12:25:18.000Z</time>
      </trkpt>
      <trkpt lat="43.98465" lon="3.00216">
        <ele>869.2</ele>
        <time>2026-04-30T12:25:19.000Z</time>
      </trkpt>
      <trkpt lat="43.98465" lon="3.00214">
        <ele>869.3</ele>
        <time>2026-04-30T12:25:20.000Z</time>
      </trkpt>
      <trkpt lat="43.98466" lon="3.00212">
        <ele>869.2</ele>
        <time>2026-04-30T12:25:21.000Z</time>
      </trkpt>
      <trkpt lat="43.98466" lon="3.00211">
        <ele>869.4</ele>
        <time>2026-04-30T12:25:22.000Z</time>
      </trkpt>
      <trkpt lat="43.98467" lon="3.00211">
        <ele>869.7</ele>
        <time>2026-04-30T12:25:23.000Z</time>
      </trkpt>
      <trkpt lat="43.98467" lon="3.0021">
        <ele>869.9</ele>
        <time>2026-04-30T12:25:24.000Z</time>
      </trkpt>
      <trkpt lat="43.98468" lon="3.00209">
        <ele>870</ele>
        <time>2026-04-30T12:25:25.000Z</time>
      </trkpt>
      <trkpt lat="43.98468" lon="3.00207">
        <ele>870.4</ele>
        <time>2026-04-30T12:25:26.000Z</time>
      </trkpt>
      <trkpt lat="43.98469" lon="3.00206">
        <ele>870.4</ele>
        <time>2026-04-30T12:25:27.000Z</time>
      </trkpt>
      <trkpt lat="43.98469" lon="3.00205">
        <ele>870.4</ele>
        <time>2026-04-30T12:25:28.000Z</time>
      </trkpt>
      <trkpt lat="43.9847" lon="3.00205">
        <ele>870.5</ele>
        <time>2026-04-30T12:25:29.000Z</time>
      </trkpt>
      <trkpt lat="43.98472" lon="3.00204">
        <ele>870.7</ele>
        <time>2026-04-30T12:25:30.000Z</time>
      </trkpt>
      <trkpt lat="43.98473" lon="3.00204">
        <ele>870.6</ele>
        <time>2026-04-30T12:25:31.000Z</time>
      </trkpt>
      <trkpt lat="43.98475" lon="3.00203">
        <ele>870.7</ele>
        <time>2026-04-30T12:25:32.000Z</time>
      </trkpt>
      <trkpt lat="43.98475" lon="3.00202">
        <ele>870.8</ele>
        <time>2026-04-30T12:25:33.000Z</time>
      </trkpt>
      <trkpt lat="43.98477" lon="3.00201">
        <ele>870.9</ele>
        <time>2026-04-30T12:25:34.000Z</time>
      </trkpt>
      <trkpt lat="43.98477" lon="3.002">
        <ele>871.1</ele>
        <time>2026-04-30T12:25:35.000Z</time>
      </trkpt>
      <trkpt lat="43.98478" lon="3.00199">
        <ele>871.4</ele>
        <time>2026-04-30T12:25:36.000Z</time>
      </trkpt>
      <trkpt lat="43.98478" lon="3.00199">
        <ele>871.8</ele>
        <time>2026-04-30T12:25:37.000Z</time>
      </trkpt>
      <trkpt lat="43.98479" lon="3.00198">
        <ele>872.1</ele>
        <time>2026-04-30T12:25:38.000Z</time>
      </trkpt>
      <trkpt lat="43.98479" lon="3.00197">
        <ele>872.6</ele>
        <time>2026-04-30T12:25:39.000Z</time>
      </trkpt>
      <trkpt lat="43.9848" lon="3.00195">
        <ele>872.8</ele>
        <time>2026-04-30T12:25:40.000Z</time>
      </trkpt>
      <trkpt lat="43.98481" lon="3.00194">
        <ele>873.3</ele>
        <time>2026-04-30T12:25:41.000Z</time>
      </trkpt>
      <trkpt lat="43.98482" lon="3.00192">
        <ele>873.4</ele>
        <time>2026-04-30T12:25:42.000Z</time>
      </trkpt>
      <trkpt lat="43.98483" lon="3.00192">
        <ele>873.3</ele>
        <time>2026-04-30T12:25:43.000Z</time>
      </trkpt>
      <trkpt lat="43.98484" lon="3.00191">
        <ele>873.4</ele>
        <time>2026-04-30T12:25:44.000Z</time>
      </trkpt>
      <trkpt lat="43.98484" lon="3.0019">
        <ele>873.7</ele>
        <time>2026-04-30T12:25:45.000Z</time>
      </trkpt>
      <trkpt lat="43.98485" lon="3.00189">
        <ele>873.9</ele>
        <time>2026-04-30T12:25:46.000Z</time>
      </trkpt>
      <trkpt lat="43.98486" lon="3.00188">
        <ele>874</ele>
        <time>2026-04-30T12:25:47.000Z</time>
      </trkpt>
      <trkpt lat="43.98488" lon="3.00187">
        <ele>874</ele>
        <time>2026-04-30T12:25:48.000Z</time>
      </trkpt>
      <trkpt lat="43.98489" lon="3.00187">
        <ele>873.9</ele>
        <time>2026-04-30T12:25:49.000Z</time>
      </trkpt>
      <trkpt lat="43.98489" lon="3.00185">
        <ele>874</ele>
        <time>2026-04-30T12:25:50.000Z</time>
      </trkpt>
      <trkpt lat="43.9849" lon="3.00185">
        <ele>873.9</ele>
        <time>2026-04-30T12:25:51.000Z</time>
      </trkpt>
      <trkpt lat="43.9849" lon="3.00184">
        <ele>874.3</ele>
        <time>2026-04-30T12:25:52.000Z</time>
      </trkpt>
      <trkpt lat="43.98491" lon="3.00182">
        <ele>874.5</ele>
        <time>2026-04-30T12:25:53.000Z</time>
      </trkpt>
      <trkpt lat="43.98492" lon="3.00181">
        <ele>874.3</ele>
        <time>2026-04-30T12:25:54.000Z</time>
      </trkpt>
      <trkpt lat="43.98493" lon="3.0018">
        <ele>874.4</ele>
        <time>2026-04-30T12:25:55.000Z</time>
      </trkpt>
      <trkpt lat="43.98494" lon="3.00179">
        <ele>874.4</ele>
        <time>2026-04-30T12:25:56.000Z</time>
      </trkpt>
      <trkpt lat="43.98495" lon="3.00178">
        <ele>874.5</ele>
        <time>2026-04-30T12:25:57.000Z</time>
      </trkpt>
      <trkpt lat="43.98496" lon="3.00177">
        <ele>874.5</ele>
        <time>2026-04-30T12:25:58.000Z</time>
      </trkpt>
      <trkpt lat="43.98497" lon="3.00175">
        <ele>874.6</ele>
        <time>2026-04-30T12:25:59.000Z</time>
      </trkpt>
      <trkpt lat="43.98497" lon="3.00174">
        <ele>874.5</ele>
        <time>2026-04-30T12:26:00.000Z</time>
      </trkpt>
      <trkpt lat="43.98498" lon="3.00173">
        <ele>874.4</ele>
        <time>2026-04-30T12:26:01.000Z</time>
      </trkpt>
      <trkpt lat="43.98498" lon="3.00171">
        <ele>874.7</ele>
        <time>2026-04-30T12:26:02.000Z</time>
      </trkpt>
      <trkpt lat="43.98499" lon="3.0017">
        <ele>874.8</ele>
        <time>2026-04-30T12:26:03.000Z</time>
      </trkpt>
      <trkpt lat="43.985" lon="3.00168">
        <ele>874.8</ele>
        <time>2026-04-30T12:26:04.000Z</time>
      </trkpt>
      <trkpt lat="43.985" lon="3.00167">
        <ele>875.2</ele>
        <time>2026-04-30T12:26:05.000Z</time>
      </trkpt>
      <trkpt lat="43.98501" lon="3.00165">
        <ele>875.2</ele>
        <time>2026-04-30T12:26:06.000Z</time>
      </trkpt>
      <trkpt lat="43.98501" lon="3.00164">
        <ele>875.3</ele>
        <time>2026-04-30T12:26:07.000Z</time>
      </trkpt>
      <trkpt lat="43.98502" lon="3.00163">
        <ele>875.4</ele>
        <time>2026-04-30T12:26:08.000Z</time>
      </trkpt>
      <trkpt lat="43.98503" lon="3.00161">
        <ele>875.5</ele>
        <time>2026-04-30T12:26:09.000Z</time>
      </trkpt>
      <trkpt lat="43.98503" lon="3.0016">
        <ele>875.5</ele>
        <time>2026-04-30T12:26:10.000Z</time>
      </trkpt>
      <trkpt lat="43.98504" lon="3.00159">
        <ele>875.4</ele>
        <time>2026-04-30T12:26:11.000Z</time>
      </trkpt>
      <trkpt lat="43.98505" lon="3.00157">
        <ele>875.1</ele>
        <time>2026-04-30T12:26:12.000Z</time>
      </trkpt>
      <trkpt lat="43.98505" lon="3.00156">
        <ele>875</ele>
        <time>2026-04-30T12:26:13.000Z</time>
      </trkpt>
      <trkpt lat="43.98506" lon="3.00154">
        <ele>874.8</ele>
        <time>2026-04-30T12:26:14.000Z</time>
      </trkpt>
      <trkpt lat="43.98507" lon="3.00152">
        <ele>874.9</ele>
        <time>2026-04-30T12:26:15.000Z</time>
      </trkpt>
      <trkpt lat="43.98507" lon="3.00151">
        <ele>874.5</ele>
        <time>2026-04-30T12:26:16.000Z</time>
      </trkpt>
      <trkpt lat="43.98508" lon="3.00149">
        <ele>874.3</ele>
        <time>2026-04-30T12:26:17.000Z</time>
      </trkpt>
      <trkpt lat="43.98508" lon="3.00148">
        <ele>874.3</ele>
        <time>2026-04-30T12:26:18.000Z</time>
      </trkpt>
      <trkpt lat="43.98509" lon="3.00147">
        <ele>874</ele>
        <time>2026-04-30T12:26:19.000Z</time>
      </trkpt>
      <trkpt lat="43.98509" lon="3.00146">
        <ele>873.6</ele>
        <time>2026-04-30T12:26:20.000Z</time>
      </trkpt>
      <trkpt lat="43.9851" lon="3.00144">
        <ele>873.5</ele>
        <time>2026-04-30T12:26:21.000Z</time>
      </trkpt>
      <trkpt lat="43.98511" lon="3.00143">
        <ele>873.3</ele>
        <time>2026-04-30T12:26:22.000Z</time>
      </trkpt>
      <trkpt lat="43.98512" lon="3.00141">
        <ele>873.3</ele>
        <time>2026-04-30T12:26:23.000Z</time>
      </trkpt>
      <trkpt lat="43.98513" lon="3.00139">
        <ele>873.3</ele>
        <time>2026-04-30T12:26:24.000Z</time>
      </trkpt>
      <trkpt lat="43.98513" lon="3.00138">
        <ele>873.2</ele>
        <time>2026-04-30T12:26:25.000Z</time>
      </trkpt>
      <trkpt lat="43.98513" lon="3.00137">
        <ele>873.2</ele>
        <time>2026-04-30T12:26:26.000Z</time>
      </trkpt>
      <trkpt lat="43.98514" lon="3.00136">
        <ele>873</ele>
        <time>2026-04-30T12:26:27.000Z</time>
      </trkpt>
      <trkpt lat="43.98515" lon="3.00134">
        <ele>872.8</ele>
        <time>2026-04-30T12:26:28.000Z</time>
      </trkpt>
      <trkpt lat="43.98516" lon="3.00133">
        <ele>872.9</ele>
        <time>2026-04-30T12:26:29.000Z</time>
      </trkpt>
      <trkpt lat="43.98517" lon="3.00131">
        <ele>873.2</ele>
        <time>2026-04-30T12:26:30.000Z</time>
      </trkpt>
      <trkpt lat="43.98518" lon="3.0013">
        <ele>873.1</ele>
        <time>2026-04-30T12:26:31.000Z</time>
      </trkpt>
      <trkpt lat="43.98519" lon="3.00129">
        <ele>873.1</ele>
        <time>2026-04-30T12:26:32.000Z</time>
      </trkpt>
      <trkpt lat="43.98519" lon="3.00127">
        <ele>873.3</ele>
        <time>2026-04-30T12:26:33.000Z</time>
      </trkpt>
      <trkpt lat="43.9852" lon="3.00125">
        <ele>872.7</ele>
        <time>2026-04-30T12:26:34.000Z</time>
      </trkpt>
      <trkpt lat="43.9852" lon="3.00124">
        <ele>872.1</ele>
        <time>2026-04-30T12:26:35.000Z</time>
      </trkpt>
      <trkpt lat="43.9852" lon="3.00123">
        <ele>871.7</ele>
        <time>2026-04-30T12:26:36.000Z</time>
      </trkpt>
      <trkpt lat="43.98521" lon="3.00122">
        <ele>871.1</ele>
        <time>2026-04-30T12:26:37.000Z</time>
      </trkpt>
      <trkpt lat="43.98521" lon="3.00121">
        <ele>871</ele>
        <time>2026-04-30T12:26:38.000Z</time>
      </trkpt>
      <trkpt lat="43.98522" lon="3.00119">
        <ele>870.7</ele>
        <time>2026-04-30T12:26:39.000Z</time>
      </trkpt>
      <trkpt lat="43.98523" lon="3.00117">
        <ele>870.5</ele>
        <time>2026-04-30T12:26:40.000Z</time>
      </trkpt>
      <trkpt lat="43.98523" lon="3.00116">
        <ele>870.2</ele>
        <time>2026-04-30T12:26:41.000Z</time>
      </trkpt>
      <trkpt lat="43.98524" lon="3.00114">
        <ele>870.2</ele>
        <time>2026-04-30T12:26:42.000Z</time>
      </trkpt>
      <trkpt lat="43.98525" lon="3.00114">
        <ele>870.3</ele>
        <time>2026-04-30T12:26:43.000Z</time>
      </trkpt>
      <trkpt lat="43.98525" lon="3.00114">
        <ele>870.7</ele>
        <time>2026-04-30T12:26:44.000Z</time>
      </trkpt>
      <trkpt lat="43.98526" lon="3.00115">
        <ele>871.2</ele>
        <time>2026-04-30T12:26:45.000Z</time>
      </trkpt>
      <trkpt lat="43.98526" lon="3.00115">
        <ele>872</ele>
        <time>2026-04-30T12:26:46.000Z</time>
      </trkpt>
      <trkpt lat="43.98526" lon="3.00115">
        <ele>872.1</ele>
        <time>2026-04-30T12:26:47.000Z</time>
      </trkpt>
      <trkpt lat="43.98526" lon="3.00115">
        <ele>872</ele>
        <time>2026-04-30T12:26:48.000Z</time>
      </trkpt>
      <trkpt lat="43.98526" lon="3.00115">
        <ele>871.6</ele>
        <time>2026-04-30T12:26:49.000Z</time>
      </trkpt>
      <trkpt lat="43.98526" lon="3.00116">
        <ele>871.4</ele>
        <time>2026-04-30T12:26:50.000Z</time>
      </trkpt>
      <trkpt lat="43.98526" lon="3.00116">
        <ele>871.3</ele>
        <time>2026-04-30T12:26:51.000Z</time>
      </trkpt>
      <trkpt lat="43.98526" lon="3.00116">
        <ele>871.5</ele>
        <time>2026-04-30T12:26:52.000Z</time>
      </trkpt>
      <trkpt lat="43.98526" lon="3.00116">
        <ele>871.6</ele>
        <time>2026-04-30T12:26:53.000Z</time>
      </trkpt>
      <trkpt lat="43.98527" lon="3.00115">
        <ele>871.5</ele>
        <time>2026-04-30T12:26:54.000Z</time>
      </trkpt>
      <trkpt lat="43.98527" lon="3.00114">
        <ele>871.8</ele>
        <time>2026-04-30T12:26:55.000Z</time>
      </trkpt>
      <trkpt lat="43.98528" lon="3.00113">
        <ele>872</ele>
        <time>2026-04-30T12:26:56.000Z</time>
      </trkpt>
      <trkpt lat="43.98528" lon="3.00112">
        <ele>872.1</ele>
        <time>2026-04-30T12:26:57.000Z</time>
      </trkpt>
      <trkpt lat="43.98529" lon="3.00111">
        <ele>872</ele>
        <time>2026-04-30T12:26:58.000Z</time>
      </trkpt>
      <trkpt lat="43.9853" lon="3.0011">
        <ele>871.8</ele>
        <time>2026-04-30T12:26:59.000Z</time>
      </trkpt>
      <trkpt lat="43.9853" lon="3.00109">
        <ele>871.9</ele>
        <time>2026-04-30T12:27:00.000Z</time>
      </trkpt>
      <trkpt lat="43.98531" lon="3.00107">
        <ele>872</ele>
        <time>2026-04-30T12:27:01.000Z</time>
      </trkpt>
      <trkpt lat="43.98532" lon="3.00106">
        <ele>872.3</ele>
        <time>2026-04-30T12:27:02.000Z</time>
      </trkpt>
      <trkpt lat="43.98532" lon="3.00105">
        <ele>872.6</ele>
        <time>2026-04-30T12:27:03.000Z</time>
      </trkpt>
      <trkpt lat="43.98533" lon="3.00104">
        <ele>872.6</ele>
        <time>2026-04-30T12:27:04.000Z</time>
      </trkpt>
      <trkpt lat="43.98534" lon="3.00103">
        <ele>872.8</ele>
        <time>2026-04-30T12:27:05.000Z</time>
      </trkpt>
      <trkpt lat="43.98535" lon="3.00101">
        <ele>872.9</ele>
        <time>2026-04-30T12:27:06.000Z</time>
      </trkpt>
      <trkpt lat="43.98535" lon="3.001">
        <ele>872.7</ele>
        <time>2026-04-30T12:27:07.000Z</time>
      </trkpt>
      <trkpt lat="43.98536" lon="3.00099">
        <ele>872.5</ele>
        <time>2026-04-30T12:27:08.000Z</time>
      </trkpt>
      <trkpt lat="43.98537" lon="3.00098">
        <ele>872.3</ele>
        <time>2026-04-30T12:27:09.000Z</time>
      </trkpt>
      <trkpt lat="43.98538" lon="3.00097">
        <ele>872.1</ele>
        <time>2026-04-30T12:27:10.000Z</time>
      </trkpt>
      <trkpt lat="43.98539" lon="3.00096">
        <ele>872</ele>
        <time>2026-04-30T12:27:11.000Z</time>
      </trkpt>
      <trkpt lat="43.9854" lon="3.00095">
        <ele>872.2</ele>
        <time>2026-04-30T12:27:12.000Z</time>
      </trkpt>
      <trkpt lat="43.9854" lon="3.00094">
        <ele>872.2</ele>
        <time>2026-04-30T12:27:13.000Z</time>
      </trkpt>
      <trkpt lat="43.9854" lon="3.00093">
        <ele>872.2</ele>
        <time>2026-04-30T12:27:14.000Z</time>
      </trkpt>
      <trkpt lat="43.9854" lon="3.00091">
        <ele>872.1</ele>
        <time>2026-04-30T12:27:15.000Z</time>
      </trkpt>
      <trkpt lat="43.98541" lon="3.0009">
        <ele>871.8</ele>
        <time>2026-04-30T12:27:16.000Z</time>
      </trkpt>
      <trkpt lat="43.98542" lon="3.00089">
        <ele>871.6</ele>
        <time>2026-04-30T12:27:17.000Z</time>
      </trkpt>
      <trkpt lat="43.98543" lon="3.00088">
        <ele>871.6</ele>
        <time>2026-04-30T12:27:18.000Z</time>
      </trkpt>
      <trkpt lat="43.98543" lon="3.00086">
        <ele>871.6</ele>
        <time>2026-04-30T12:27:19.000Z</time>
      </trkpt>
      <trkpt lat="43.98544" lon="3.00085">
        <ele>871.7</ele>
        <time>2026-04-30T12:27:20.000Z</time>
      </trkpt>
      <trkpt lat="43.98544" lon="3.00084">
        <ele>871.7</ele>
        <time>2026-04-30T12:27:21.000Z</time>
      </trkpt>
      <trkpt lat="43.98545" lon="3.00083">
        <ele>871.4</ele>
        <time>2026-04-30T12:27:22.000Z</time>
      </trkpt>
      <trkpt lat="43.98546" lon="3.00082">
        <ele>871.2</ele>
        <time>2026-04-30T12:27:23.000Z</time>
      </trkpt>
      <trkpt lat="43.98546" lon="3.00081">
        <ele>871.3</ele>
        <time>2026-04-30T12:27:24.000Z</time>
      </trkpt>
      <trkpt lat="43.98547" lon="3.00079">
        <ele>871.4</ele>
        <time>2026-04-30T12:27:25.000Z</time>
      </trkpt>
      <trkpt lat="43.98548" lon="3.00078">
        <ele>871.4</ele>
        <time>2026-04-30T12:27:26.000Z</time>
      </trkpt>
      <trkpt lat="43.98548" lon="3.00076">
        <ele>871.5</ele>
        <time>2026-04-30T12:27:27.000Z</time>
      </trkpt>
      <trkpt lat="43.98549" lon="3.00074">
        <ele>871.4</ele>
        <time>2026-04-30T12:27:28.000Z</time>
      </trkpt>
      <trkpt lat="43.9855" lon="3.00072">
        <ele>871.4</ele>
        <time>2026-04-30T12:27:29.000Z</time>
      </trkpt>
      <trkpt lat="43.98551" lon="3.00071">
        <ele>871.4</ele>
        <time>2026-04-30T12:27:30.000Z</time>
      </trkpt>
      <trkpt lat="43.98551" lon="3.00069">
        <ele>871.3</ele>
        <time>2026-04-30T12:27:31.000Z</time>
      </trkpt>
      <trkpt lat="43.98551" lon="3.00068">
        <ele>871.2</ele>
        <time>2026-04-30T12:27:32.000Z</time>
      </trkpt>
      <trkpt lat="43.98551" lon="3.00067">
        <ele>871.2</ele>
        <time>2026-04-30T12:27:33.000Z</time>
      </trkpt>
      <trkpt lat="43.98552" lon="3.00065">
        <ele>871.3</ele>
        <time>2026-04-30T12:27:34.000Z</time>
      </trkpt>
      <trkpt lat="43.98552" lon="3.00064">
        <ele>871.5</ele>
        <time>2026-04-30T12:27:35.000Z</time>
      </trkpt>
      <trkpt lat="43.98553" lon="3.00062">
        <ele>871.5</ele>
        <time>2026-04-30T12:27:36.000Z</time>
      </trkpt>
      <trkpt lat="43.98553" lon="3.00061">
        <ele>871.6</ele>
        <time>2026-04-30T12:27:37.000Z</time>
      </trkpt>
      <trkpt lat="43.98554" lon="3.00059">
        <ele>871.4</ele>
        <time>2026-04-30T12:27:38.000Z</time>
      </trkpt>
      <trkpt lat="43.98554" lon="3.00058">
        <ele>871</ele>
        <time>2026-04-30T12:27:39.000Z</time>
      </trkpt>
      <trkpt lat="43.98555" lon="3.00057">
        <ele>870.7</ele>
        <time>2026-04-30T12:27:40.000Z</time>
      </trkpt>
      <trkpt lat="43.98555" lon="3.00055">
        <ele>870.3</ele>
        <time>2026-04-30T12:27:41.000Z</time>
      </trkpt>
      <trkpt lat="43.98555" lon="3.00054">
        <ele>869.9</ele>
        <time>2026-04-30T12:27:42.000Z</time>
      </trkpt>
      <trkpt lat="43.98555" lon="3.00052">
        <ele>869.7</ele>
        <time>2026-04-30T12:27:43.000Z</time>
      </trkpt>
      <trkpt lat="43.98556" lon="3.00051">
        <ele>869.4</ele>
        <time>2026-04-30T12:27:44.000Z</time>
      </trkpt>
      <trkpt lat="43.98556" lon="3.00049">
        <ele>869</ele>
        <time>2026-04-30T12:27:45.000Z</time>
      </trkpt>
      <trkpt lat="43.98556" lon="3.00048">
        <ele>868.9</ele>
        <time>2026-04-30T12:27:46.000Z</time>
      </trkpt>
      <trkpt lat="43.98556" lon="3.00046">
        <ele>868.8</ele>
        <time>2026-04-30T12:27:47.000Z</time>
      </trkpt>
      <trkpt lat="43.98556" lon="3.00045">
        <ele>868.4</ele>
        <time>2026-04-30T12:27:48.000Z</time>
      </trkpt>
      <trkpt lat="43.98557" lon="3.00043">
        <ele>868.3</ele>
        <time>2026-04-30T12:27:49.000Z</time>
      </trkpt>
      <trkpt lat="43.98558" lon="3.00042">
        <ele>868.2</ele>
        <time>2026-04-30T12:27:50.000Z</time>
      </trkpt>
      <trkpt lat="43.98559" lon="3.00041">
        <ele>868</ele>
        <time>2026-04-30T12:27:51.000Z</time>
      </trkpt>
      <trkpt lat="43.98559" lon="3.0004">
        <ele>868</ele>
        <time>2026-04-30T12:27:52.000Z</time>
      </trkpt>
      <trkpt lat="43.9856" lon="3.00038">
        <ele>868</ele>
        <time>2026-04-30T12:27:53.000Z</time>
      </trkpt>
      <trkpt lat="43.9856" lon="3.00037">
        <ele>867.6</ele>
        <time>2026-04-30T12:27:54.000Z</time>
      </trkpt>
      <trkpt lat="43.9856" lon="3.00035">
        <ele>867.5</ele>
        <time>2026-04-30T12:27:55.000Z</time>
      </trkpt>
      <trkpt lat="43.98561" lon="3.00034">
        <ele>867.4</ele>
        <time>2026-04-30T12:27:56.000Z</time>
      </trkpt>
      <trkpt lat="43.98562" lon="3.00033">
        <ele>867.3</ele>
        <time>2026-04-30T12:27:57.000Z</time>
      </trkpt>
      <trkpt lat="43.98563" lon="3.00032">
        <ele>867.1</ele>
        <time>2026-04-30T12:27:58.000Z</time>
      </trkpt>
      <trkpt lat="43.98563" lon="3.00031">
        <ele>867.1</ele>
        <time>2026-04-30T12:27:59.000Z</time>
      </trkpt>
      <trkpt lat="43.98564" lon="3.0003">
        <ele>866.7</ele>
        <time>2026-04-30T12:28:00.000Z</time>
      </trkpt>
      <trkpt lat="43.98566" lon="3.00028">
        <ele>866.5</ele>
        <time>2026-04-30T12:28:01.000Z</time>
      </trkpt>
      <trkpt lat="43.98567" lon="3.00027">
        <ele>866.3</ele>
        <time>2026-04-30T12:28:02.000Z</time>
      </trkpt>
      <trkpt lat="43.98567" lon="3.00025">
        <ele>866.2</ele>
        <time>2026-04-30T12:28:03.000Z</time>
      </trkpt>
      <trkpt lat="43.98568" lon="3.00025">
        <ele>866.2</ele>
        <time>2026-04-30T12:28:04.000Z</time>
      </trkpt>
      <trkpt lat="43.98568" lon="3.00025">
        <ele>866.1</ele>
        <time>2026-04-30T12:28:05.000Z</time>
      </trkpt>
      <trkpt lat="43.9857" lon="3.00025">
        <ele>865.9</ele>
        <time>2026-04-30T12:28:06.000Z</time>
      </trkpt>
      <trkpt lat="43.98571" lon="3.00025">
        <ele>865.9</ele>
        <time>2026-04-30T12:28:07.000Z</time>
      </trkpt>
      <trkpt lat="43.98572" lon="3.00025">
        <ele>865.8</ele>
        <time>2026-04-30T12:28:08.000Z</time>
      </trkpt>
      <trkpt lat="43.98573" lon="3.00024">
        <ele>865.7</ele>
        <time>2026-04-30T12:28:09.000Z</time>
      </trkpt>
      <trkpt lat="43.98574" lon="3.00023">
        <ele>865.9</ele>
        <time>2026-04-30T12:28:10.000Z</time>
      </trkpt>
      <trkpt lat="43.98575" lon="3.00023">
        <ele>865.8</ele>
        <time>2026-04-30T12:28:11.000Z</time>
      </trkpt>
      <trkpt lat="43.98576" lon="3.00023">
        <ele>865.7</ele>
        <time>2026-04-30T12:28:12.000Z</time>
      </trkpt>
      <trkpt lat="43.98577" lon="3.00023">
        <ele>865.5</ele>
        <time>2026-04-30T12:28:13.000Z</time>
      </trkpt>
      <trkpt lat="43.98578" lon="3.00023">
        <ele>865.4</ele>
        <time>2026-04-30T12:28:14.000Z</time>
      </trkpt>
      <trkpt lat="43.98579" lon="3.00022">
        <ele>865.3</ele>
        <time>2026-04-30T12:28:15.000Z</time>
      </trkpt>
      <trkpt lat="43.98579" lon="3.00023">
        <ele>865.3</ele>
        <time>2026-04-30T12:28:16.000Z</time>
      </trkpt>
      <trkpt lat="43.9858" lon="3.00023">
        <ele>865.5</ele>
        <time>2026-04-30T12:28:17.000Z</time>
      </trkpt>
      <trkpt lat="43.98581" lon="3.00023">
        <ele>865.4</ele>
        <time>2026-04-30T12:28:18.000Z</time>
      </trkpt>
      <trkpt lat="43.98582" lon="3.00023">
        <ele>865.2</ele>
        <time>2026-04-30T12:28:19.000Z</time>
      </trkpt>
      <trkpt lat="43.98583" lon="3.00023">
        <ele>865</ele>
        <time>2026-04-30T12:28:20.000Z</time>
      </trkpt>
      <trkpt lat="43.98584" lon="3.00022">
        <ele>865</ele>
        <time>2026-04-30T12:28:21.000Z</time>
      </trkpt>
      <trkpt lat="43.98585" lon="3.00021">
        <ele>864.7</ele>
        <time>2026-04-30T12:28:22.000Z</time>
      </trkpt>
      <trkpt lat="43.98585" lon="3.00021">
        <ele>864.7</ele>
        <time>2026-04-30T12:28:23.000Z</time>
      </trkpt>
      <trkpt lat="43.98586" lon="3.00021">
        <ele>864.5</ele>
        <time>2026-04-30T12:28:24.000Z</time>
      </trkpt>
      <trkpt lat="43.98587" lon="3.0002">
        <ele>864.3</ele>
        <time>2026-04-30T12:28:25.000Z</time>
      </trkpt>
      <trkpt lat="43.98588" lon="3.0002">
        <ele>864</ele>
        <time>2026-04-30T12:28:26.000Z</time>
      </trkpt>
      <trkpt lat="43.98588" lon="3.00019">
        <ele>863.8</ele>
        <time>2026-04-30T12:28:27.000Z</time>
      </trkpt>
      <trkpt lat="43.98588" lon="3.00019">
        <ele>863.5</ele>
        <time>2026-04-30T12:28:28.000Z</time>
      </trkpt>
      <trkpt lat="43.98588" lon="3.00019">
        <ele>863.4</ele>
        <time>2026-04-30T12:28:29.000Z</time>
      </trkpt>
      <trkpt lat="43.98589" lon="3.00019">
        <ele>863.5</ele>
        <time>2026-04-30T12:28:30.000Z</time>
      </trkpt>
      <trkpt lat="43.9859" lon="3.00019">
        <ele>863.6</ele>
        <time>2026-04-30T12:28:31.000Z</time>
      </trkpt>
      <trkpt lat="43.9859" lon="3.00019">
        <ele>863.4</ele>
        <time>2026-04-30T12:28:32.000Z</time>
      </trkpt>
      <trkpt lat="43.9859" lon="3.0002">
        <ele>863.8</ele>
        <time>2026-04-30T12:28:33.000Z</time>
      </trkpt>
      <trkpt lat="43.9859" lon="3.00019">
        <ele>863.8</ele>
        <time>2026-04-30T12:28:34.000Z</time>
      </trkpt>
      <trkpt lat="43.9859" lon="3.00019">
        <ele>863.7</ele>
        <time>2026-04-30T12:28:35.000Z</time>
      </trkpt>
      <trkpt lat="43.9859" lon="3.0002">
        <ele>863.3</ele>
        <time>2026-04-30T12:28:36.000Z</time>
      </trkpt>
      <trkpt lat="43.9859" lon="3.0002">
        <ele>863.2</ele>
        <time>2026-04-30T12:28:37.000Z</time>
      </trkpt>
      <trkpt lat="43.9859" lon="3.0002">
        <ele>863.2</ele>
        <time>2026-04-30T12:28:38.000Z</time>
      </trkpt>
      <trkpt lat="43.9859" lon="3.0002">
        <ele>863.2</ele>
        <time>2026-04-30T12:28:39.000Z</time>
      </trkpt>
      <trkpt lat="43.9859" lon="3.0002">
        <ele>863.3</ele>
        <time>2026-04-30T12:28:40.000Z</time>
      </trkpt>
      <trkpt lat="43.9859" lon="3.0002">
        <ele>863.5</ele>
        <time>2026-04-30T12:28:41.000Z</time>
      </trkpt>
      <trkpt lat="43.98591" lon="3.0002">
        <ele>863.7</ele>
        <time>2026-04-30T12:28:42.000Z</time>
      </trkpt>
      <trkpt lat="43.98591" lon="3.0002">
        <ele>863.8</ele>
        <time>2026-04-30T12:28:43.000Z</time>
      </trkpt>
      <trkpt lat="43.98592" lon="3.0002">
        <ele>863.9</ele>
        <time>2026-04-30T12:28:44.000Z</time>
      </trkpt>
      <trkpt lat="43.98593" lon="3.00019">
        <ele>864</ele>
        <time>2026-04-30T12:28:45.000Z</time>
      </trkpt>
      <trkpt lat="43.98593" lon="3.00019">
        <ele>864.2</ele>
        <time>2026-04-30T12:28:46.000Z</time>
      </trkpt>
      <trkpt lat="43.98593" lon="3.00019">
        <ele>864</ele>
        <time>2026-04-30T12:28:47.000Z</time>
      </trkpt>
      <trkpt lat="43.98593" lon="3.00019">
        <ele>864</ele>
        <time>2026-04-30T12:28:48.000Z</time>
      </trkpt>
      <trkpt lat="43.98594" lon="3.00018">
        <ele>864</ele>
        <time>2026-04-30T12:28:49.000Z</time>
      </trkpt>
      <trkpt lat="43.98594" lon="3.00018">
        <ele>864</ele>
        <time>2026-04-30T12:28:50.000Z</time>
      </trkpt>
      <trkpt lat="43.98594" lon="3.00018">
        <ele>863.7</ele>
        <time>2026-04-30T12:28:51.000Z</time>
      </trkpt>
      <trkpt lat="43.98594" lon="3.00017">
        <ele>863.5</ele>
        <time>2026-04-30T12:28:52.000Z</time>
      </trkpt>
      <trkpt lat="43.98594" lon="3.00017">
        <ele>863.5</ele>
        <time>2026-04-30T12:28:53.000Z</time>
      </trkpt>
      <trkpt lat="43.98594" lon="3.00017">
        <ele>863.7</ele>
        <time>2026-04-30T12:28:54.000Z</time>
      </trkpt>
      <trkpt lat="43.98594" lon="3.00017">
        <ele>863.8</ele>
        <time>2026-04-30T12:28:55.000Z</time>
      </trkpt>
      <trkpt lat="43.98595" lon="3.00017">
        <ele>863.8</ele>
        <time>2026-04-30T12:28:56.000Z</time>
      </trkpt>
      <trkpt lat="43.98595" lon="3.00017">
        <ele>863.8</ele>
        <time>2026-04-30T12:28:57.000Z</time>
      </trkpt>
      <trkpt lat="43.98595" lon="3.00017">
        <ele>863.9</ele>
        <time>2026-04-30T12:28:58.000Z</time>
      </trkpt>
      <trkpt lat="43.98595" lon="3.00017">
        <ele>863.9</ele>
        <time>2026-04-30T12:28:59.000Z</time>
      </trkpt>
      <trkpt lat="43.98595" lon="3.00017">
        <ele>863.9</ele>
        <time>2026-04-30T12:29:00.000Z</time>
      </trkpt>
      <trkpt lat="43.98596" lon="3.00017">
        <ele>863.9</ele>
        <time>2026-04-30T12:29:01.000Z</time>
      </trkpt>
      <trkpt lat="43.98596" lon="3.00017">
        <ele>863.8</ele>
        <time>2026-04-30T12:29:02.000Z</time>
      </trkpt>
      <trkpt lat="43.98596" lon="3.00017">
        <ele>863.8</ele>
        <time>2026-04-30T12:29:03.000Z</time>
      </trkpt>
      <trkpt lat="43.98596" lon="3.00017">
        <ele>863.7</ele>
        <time>2026-04-30T12:29:04.000Z</time>
      </trkpt>
      <trkpt lat="43.98596" lon="3.00017">
        <ele>863.7</ele>
        <time>2026-04-30T12:29:05.000Z</time>
      </trkpt>
      <trkpt lat="43.98596" lon="3.00016">
        <ele>863.7</ele>
        <time>2026-04-30T12:29:06.000Z</time>
      </trkpt>
      <trkpt lat="43.98596" lon="3.00016">
        <ele>863.7</ele>
        <time>2026-04-30T12:29:07.000Z</time>
      </trkpt>
      <trkpt lat="43.98596" lon="3.00016">
        <ele>863.8</ele>
        <time>2026-04-30T12:29:08.000Z</time>
      </trkpt>
      <trkpt lat="43.98596" lon="3.00016">
        <ele>863.7</ele>
        <time>2026-04-30T12:29:09.000Z</time>
      </trkpt>
      <trkpt lat="43.98596" lon="3.00016">
        <ele>863.8</ele>
        <time>2026-04-30T12:29:10.000Z</time>
      </trkpt>
      <trkpt lat="43.98596" lon="3.00016">
        <ele>863.9</ele>
        <time>2026-04-30T12:29:11.000Z</time>
      </trkpt>
      <trkpt lat="43.98596" lon="3.00016">
        <ele>864</ele>
        <time>2026-04-30T12:29:12.000Z</time>
      </trkpt>
      <trkpt lat="43.98596" lon="3.00016">
        <ele>863.9</ele>
        <time>2026-04-30T12:29:13.000Z</time>
      </trkpt>
      <trkpt lat="43.98596" lon="3.00015">
        <ele>863.8</ele>
        <time>2026-04-30T12:29:14.000Z</time>
      </trkpt>
      <trkpt lat="43.98597" lon="3.00015">
        <ele>864</ele>
        <time>2026-04-30T12:29:15.000Z</time>
      </trkpt>
      <trkpt lat="43.98597" lon="3.00015">
        <ele>864.1</ele>
        <time>2026-04-30T12:29:16.000Z</time>
      </trkpt>
      <trkpt lat="43.98597" lon="3.00015">
        <ele>864.3</ele>
        <time>2026-04-30T12:29:17.000Z</time>
      </trkpt>
      <trkpt lat="43.98597" lon="3.00015">
        <ele>864.1</ele>
        <time>2026-04-30T12:29:18.000Z</time>
      </trkpt>
      <trkpt lat="43.98597" lon="3.00014">
        <ele>863.9</ele>
        <time>2026-04-30T12:29:19.000Z</time>
      </trkpt>
      <trkpt lat="43.98597" lon="3.00014">
        <ele>863.9</ele>
        <time>2026-04-30T12:29:20.000Z</time>
      </trkpt>
      <trkpt lat="43.98597" lon="3.00014">
        <ele>863.8</ele>
        <time>2026-04-30T12:29:21.000Z</time>
      </trkpt>
      <trkpt lat="43.98597" lon="3.00014">
        <ele>863.7</ele>
        <time>2026-04-30T12:29:22.000Z</time>
      </trkpt>
      <trkpt lat="43.98597" lon="3.00014">
        <ele>863.7</ele>
        <time>2026-04-30T12:29:23.000Z</time>
      </trkpt>
      <trkpt lat="43.98597" lon="3.00014">
        <ele>863.6</ele>
        <time>2026-04-30T12:29:24.000Z</time>
      </trkpt>
      <trkpt lat="43.98597" lon="3.00014">
        <ele>863.5</ele>
        <time>2026-04-30T12:29:25.000Z</time>
      </trkpt>
      <trkpt lat="43.98597" lon="3.00014">
        <ele>863.6</ele>
        <time>2026-04-30T12:29:26.000Z</time>
      </trkpt>
      <trkpt lat="43.98597" lon="3.00014">
        <ele>864</ele>
        <time>2026-04-30T12:29:27.000Z</time>
      </trkpt>
      <trkpt lat="43.98597" lon="3.00014">
        <ele>864</ele>
        <time>2026-04-30T12:29:28.000Z</time>
      </trkpt>
      <trkpt lat="43.98597" lon="3.00014">
        <ele>864.2</ele>
        <time>2026-04-30T12:29:29.000Z</time>
      </trkpt>
      <trkpt lat="43.98597" lon="3.00014">
        <ele>864.2</ele>
        <time>2026-04-30T12:29:30.000Z</time>
      </trkpt>
      <trkpt lat="43.98597" lon="3.00014">
        <ele>864.3</ele>
        <time>2026-04-30T12:29:31.000Z</time>
      </trkpt>
      <trkpt lat="43.98597" lon="3.00014">
        <ele>864.4</ele>
        <time>2026-04-30T12:29:32.000Z</time>
      </trkpt>
      <trkpt lat="43.98597" lon="3.00014">
        <ele>864.4</ele>
        <time>2026-04-30T12:29:33.000Z</time>
      </trkpt>
      <trkpt lat="43.98597" lon="3.00014">
        <ele>864.4</ele>
        <time>2026-04-30T12:29:34.000Z</time>
      </trkpt>
      <trkpt lat="43.98597" lon="3.00014">
        <ele>864.5</ele>
        <time>2026-04-30T12:29:35.000Z</time>
      </trkpt>
      <trkpt lat="43.98597" lon="3.00015">
        <ele>864.2</ele>
        <time>2026-04-30T12:29:36.000Z</time>
      </trkpt>
      <trkpt lat="43.98597" lon="3.00015">
        <ele>864.2</ele>
        <time>2026-04-30T12:29:37.000Z</time>
      </trkpt>
      <trkpt lat="43.98597" lon="3.00015">
        <ele>864</ele>
        <time>2026-04-30T12:29:38.000Z</time>
      </trkpt>
      <trkpt lat="43.98598" lon="3.00015">
        <ele>863.8</ele>
        <time>2026-04-30T12:29:39.000Z</time>
      </trkpt>
      <trkpt lat="43.98599" lon="3.00015">
        <ele>863.7</ele>
        <time>2026-04-30T12:29:40.000Z</time>
      </trkpt>
      <trkpt lat="43.98601" lon="3.00015">
        <ele>863.7</ele>
        <time>2026-04-30T12:29:41.000Z</time>
      </trkpt>
      <trkpt lat="43.98603" lon="3.00015">
        <ele>863.5</ele>
        <time>2026-04-30T12:29:42.000Z</time>
      </trkpt>
      <trkpt lat="43.98604" lon="3.00015">
        <ele>863.6</ele>
        <time>2026-04-30T12:29:43.000Z</time>
      </trkpt>
      <trkpt lat="43.98605" lon="3.00014">
        <ele>863.4</ele>
        <time>2026-04-30T12:29:44.000Z</time>
      </trkpt>
      <trkpt lat="43.98606" lon="3.00014">
        <ele>863.3</ele>
        <time>2026-04-30T12:29:45.000Z</time>
      </trkpt>
      <trkpt lat="43.98608" lon="3.00013">
        <ele>863.3</ele>
        <time>2026-04-30T12:29:46.000Z</time>
      </trkpt>
      <trkpt lat="43.98609" lon="3.00013">
        <ele>863.1</ele>
        <time>2026-04-30T12:29:47.000Z</time>
      </trkpt>
      <trkpt lat="43.98609" lon="3.00013">
        <ele>863.1</ele>
        <time>2026-04-30T12:29:48.000Z</time>
      </trkpt>
      <trkpt lat="43.98609" lon="3.00012">
        <ele>863.2</ele>
        <time>2026-04-30T12:29:49.000Z</time>
      </trkpt>
      <trkpt lat="43.98611" lon="3.00013">
        <ele>863.1</ele>
        <time>2026-04-30T12:29:50.000Z</time>
      </trkpt>
      <trkpt lat="43.98612" lon="3.00012">
        <ele>862.6</ele>
        <time>2026-04-30T12:29:51.000Z</time>
      </trkpt>
      <trkpt lat="43.98613" lon="3.00012">
        <ele>862.2</ele>
        <time>2026-04-30T12:29:52.000Z</time>
      </trkpt>
      <trkpt lat="43.98613" lon="3.00012">
        <ele>862.1</ele>
        <time>2026-04-30T12:29:53.000Z</time>
      </trkpt>
      <trkpt lat="43.98614" lon="3.00012">
        <ele>861.9</ele>
        <time>2026-04-30T12:29:54.000Z</time>
      </trkpt>
      <trkpt lat="43.98615" lon="3.00013">
        <ele>861.9</ele>
        <time>2026-04-30T12:29:55.000Z</time>
      </trkpt>
      <trkpt lat="43.98616" lon="3.00013">
        <ele>861.7</ele>
        <time>2026-04-30T12:29:56.000Z</time>
      </trkpt>
      <trkpt lat="43.98617" lon="3.00012">
        <ele>860.9</ele>
        <time>2026-04-30T12:29:57.000Z</time>
      </trkpt>
      <trkpt lat="43.98618" lon="3.00012">
        <ele>860.7</ele>
        <time>2026-04-30T12:29:58.000Z</time>
      </trkpt>
      <trkpt lat="43.98619" lon="3.00011">
        <ele>860.6</ele>
        <time>2026-04-30T12:29:59.000Z</time>
      </trkpt>
      <trkpt lat="43.98619" lon="3.00011">
        <ele>860.6</ele>
        <time>2026-04-30T12:30:00.000Z</time>
      </trkpt>
      <trkpt lat="43.9862" lon="3.00011">
        <ele>860.5</ele>
        <time>2026-04-30T12:30:01.000Z</time>
      </trkpt>
      <trkpt lat="43.98621" lon="3.00011">
        <ele>860.6</ele>
        <time>2026-04-30T12:30:02.000Z</time>
      </trkpt>
      <trkpt lat="43.98621" lon="3.00011">
        <ele>860.5</ele>
        <time>2026-04-30T12:30:03.000Z</time>
      </trkpt>
      <trkpt lat="43.98622" lon="3.00012">
        <ele>860.5</ele>
        <time>2026-04-30T12:30:04.000Z</time>
      </trkpt>
      <trkpt lat="43.98623" lon="3.00012">
        <ele>860</ele>
        <time>2026-04-30T12:30:05.000Z</time>
      </trkpt>
      <trkpt lat="43.98623" lon="3.00012">
        <ele>860.2</ele>
        <time>2026-04-30T12:30:06.000Z</time>
      </trkpt>
      <trkpt lat="43.98624" lon="3.00012">
        <ele>860</ele>
        <time>2026-04-30T12:30:07.000Z</time>
      </trkpt>
      <trkpt lat="43.98624" lon="3.00012">
        <ele>859.8</ele>
        <time>2026-04-30T12:30:08.000Z</time>
      </trkpt>
      <trkpt lat="43.98624" lon="3.00012">
        <ele>859.6</ele>
        <time>2026-04-30T12:30:09.000Z</time>
      </trkpt>
      <trkpt lat="43.98624" lon="3.00011">
        <ele>859.4</ele>
        <time>2026-04-30T12:30:10.000Z</time>
      </trkpt>
      <trkpt lat="43.98626" lon="3.0001">
        <ele>859.1</ele>
        <time>2026-04-30T12:30:11.000Z</time>
      </trkpt>
      <trkpt lat="43.98626" lon="3.0001">
        <ele>858.8</ele>
        <time>2026-04-30T12:30:12.000Z</time>
      </trkpt>
      <trkpt lat="43.98628" lon="3.00009">
        <ele>858.6</ele>
        <time>2026-04-30T12:30:13.000Z</time>
      </trkpt>
      <trkpt lat="43.98629" lon="3.00009">
        <ele>858.1</ele>
        <time>2026-04-30T12:30:14.000Z</time>
      </trkpt>
      <trkpt lat="43.9863" lon="3.00009">
        <ele>858</ele>
        <time>2026-04-30T12:30:15.000Z</time>
      </trkpt>
      <trkpt lat="43.98631" lon="3.00009">
        <ele>857.7</ele>
        <time>2026-04-30T12:30:16.000Z</time>
      </trkpt>
      <trkpt lat="43.98632" lon="3.0001">
        <ele>857.7</ele>
        <time>2026-04-30T12:30:17.000Z</time>
      </trkpt>
      <trkpt lat="43.98632" lon="3.00009">
        <ele>857.4</ele>
        <time>2026-04-30T12:30:18.000Z</time>
      </trkpt>
      <trkpt lat="43.98633" lon="3.00008">
        <ele>857.7</ele>
        <time>2026-04-30T12:30:19.000Z</time>
      </trkpt>
      <trkpt lat="43.98633" lon="3.00008">
        <ele>857.5</ele>
        <time>2026-04-30T12:30:20.000Z</time>
      </trkpt>
      <trkpt lat="43.98633" lon="3.00008">
        <ele>857.3</ele>
        <time>2026-04-30T12:30:21.000Z</time>
      </trkpt>
      <trkpt lat="43.98633" lon="3.00008">
        <ele>857</ele>
        <time>2026-04-30T12:30:22.000Z</time>
      </trkpt>
      <trkpt lat="43.98633" lon="3.00008">
        <ele>856.5</ele>
        <time>2026-04-30T12:30:23.000Z</time>
      </trkpt>
      <trkpt lat="43.98634" lon="3.00008">
        <ele>856.1</ele>
        <time>2026-04-30T12:30:24.000Z</time>
      </trkpt>
      <trkpt lat="43.98634" lon="3.00008">
        <ele>855.8</ele>
        <time>2026-04-30T12:30:25.000Z</time>
      </trkpt>
      <trkpt lat="43.98634" lon="3.00008">
        <ele>855.4</ele>
        <time>2026-04-30T12:30:26.000Z</time>
      </trkpt>
      <trkpt lat="43.98634" lon="3.00008">
        <ele>855.3</ele>
        <time>2026-04-30T12:30:27.000Z</time>
      </trkpt>
      <trkpt lat="43.98634" lon="3.00007">
        <ele>854.9</ele>
        <time>2026-04-30T12:30:28.000Z</time>
      </trkpt>
      <trkpt lat="43.98636" lon="3.00007">
        <ele>854.3</ele>
        <time>2026-04-30T12:30:29.000Z</time>
      </trkpt>
      <trkpt lat="43.98638" lon="3.00006">
        <ele>853.7</ele>
        <time>2026-04-30T12:30:30.000Z</time>
      </trkpt>
      <trkpt lat="43.98639" lon="3.00006">
        <ele>853.2</ele>
        <time>2026-04-30T12:30:31.000Z</time>
      </trkpt>
      <trkpt lat="43.9864" lon="3.00006">
        <ele>852.9</ele>
        <time>2026-04-30T12:30:32.000Z</time>
      </trkpt>
      <trkpt lat="43.98642" lon="3.00005">
        <ele>852.7</ele>
        <time>2026-04-30T12:30:33.000Z</time>
      </trkpt>
      <trkpt lat="43.98643" lon="3.00005">
        <ele>852.8</ele>
        <time>2026-04-30T12:30:34.000Z</time>
      </trkpt>
      <trkpt lat="43.98644" lon="3.00005">
        <ele>852.7</ele>
        <time>2026-04-30T12:30:35.000Z</time>
      </trkpt>
      <trkpt lat="43.98645" lon="3.00005">
        <ele>852.4</ele>
        <time>2026-04-30T12:30:36.000Z</time>
      </trkpt>
      <trkpt lat="43.98646" lon="3.00005">
        <ele>852.5</ele>
        <time>2026-04-30T12:30:37.000Z</time>
      </trkpt>
      <trkpt lat="43.98647" lon="3.00004">
        <ele>852.3</ele>
        <time>2026-04-30T12:30:38.000Z</time>
      </trkpt>
      <trkpt lat="43.98648" lon="3.00004">
        <ele>852.1</ele>
        <time>2026-04-30T12:30:39.000Z</time>
      </trkpt>
      <trkpt lat="43.98648" lon="3.00003">
        <ele>851.6</ele>
        <time>2026-04-30T12:30:40.000Z</time>
      </trkpt>
      <trkpt lat="43.98648" lon="3.00004">
        <ele>851.1</ele>
        <time>2026-04-30T12:30:41.000Z</time>
      </trkpt>
      <trkpt lat="43.98649" lon="3.00004">
        <ele>851</ele>
        <time>2026-04-30T12:30:42.000Z</time>
      </trkpt>
      <trkpt lat="43.9865" lon="3.00005">
        <ele>850.8</ele>
        <time>2026-04-30T12:30:43.000Z</time>
      </trkpt>
      <trkpt lat="43.98651" lon="3.00005">
        <ele>850.8</ele>
        <time>2026-04-30T12:30:44.000Z</time>
      </trkpt>
      <trkpt lat="43.98652" lon="3.00005">
        <ele>851.3</ele>
        <time>2026-04-30T12:30:45.000Z</time>
      </trkpt>
      <trkpt lat="43.98653" lon="3.00004">
        <ele>851.4</ele>
        <time>2026-04-30T12:30:46.000Z</time>
      </trkpt>
      <trkpt lat="43.98654" lon="3.00004">
        <ele>851.5</ele>
        <time>2026-04-30T12:30:47.000Z</time>
      </trkpt>
      <trkpt lat="43.98654" lon="3.00004">
        <ele>851.4</ele>
        <time>2026-04-30T12:30:48.000Z</time>
      </trkpt>
      <trkpt lat="43.98655" lon="3.00005">
        <ele>851.3</ele>
        <time>2026-04-30T12:30:49.000Z</time>
      </trkpt>
      <trkpt lat="43.98655" lon="3.00005">
        <ele>850.9</ele>
        <time>2026-04-30T12:30:50.000Z</time>
      </trkpt>
      <trkpt lat="43.98656" lon="3.00005">
        <ele>850.8</ele>
        <time>2026-04-30T12:30:51.000Z</time>
      </trkpt>
      <trkpt lat="43.98656" lon="3.00004">
        <ele>850.5</ele>
        <time>2026-04-30T12:30:52.000Z</time>
      </trkpt>
      <trkpt lat="43.98656" lon="3.00003">
        <ele>850.3</ele>
        <time>2026-04-30T12:30:53.000Z</time>
      </trkpt>
      <trkpt lat="43.98657" lon="3.00003">
        <ele>850.1</ele>
        <time>2026-04-30T12:30:54.000Z</time>
      </trkpt>
      <trkpt lat="43.98658" lon="3.00003">
        <ele>849.9</ele>
        <time>2026-04-30T12:30:55.000Z</time>
      </trkpt>
      <trkpt lat="43.98658" lon="3.00003">
        <ele>849.7</ele>
        <time>2026-04-30T12:30:56.000Z</time>
      </trkpt>
      <trkpt lat="43.98659" lon="3.00003">
        <ele>849.7</ele>
        <time>2026-04-30T12:30:57.000Z</time>
      </trkpt>
      <trkpt lat="43.98659" lon="3.00003">
        <ele>849.5</ele>
        <time>2026-04-30T12:30:58.000Z</time>
      </trkpt>
      <trkpt lat="43.9866" lon="3.00002">
        <ele>849.4</ele>
        <time>2026-04-30T12:30:59.000Z</time>
      </trkpt>
      <trkpt lat="43.98661" lon="2.99999">
        <ele>848.6</ele>
        <time>2026-04-30T12:31:00.000Z</time>
      </trkpt>
      <trkpt lat="43.98662" lon="2.99998">
        <ele>848</ele>
        <time>2026-04-30T12:31:01.000Z</time>
      </trkpt>
      <trkpt lat="43.98662" lon="2.99997">
        <ele>847.7</ele>
        <time>2026-04-30T12:31:02.000Z</time>
      </trkpt>
      <trkpt lat="43.98662" lon="2.99997">
        <ele>847.6</ele>
        <time>2026-04-30T12:31:03.000Z</time>
      </trkpt>
      <trkpt lat="43.98662" lon="2.99996">
        <ele>847.5</ele>
        <time>2026-04-30T12:31:04.000Z</time>
      </trkpt>
      <trkpt lat="43.98663" lon="2.99996">
        <ele>847.3</ele>
        <time>2026-04-30T12:31:05.000Z</time>
      </trkpt>
      <trkpt lat="43.98664" lon="2.99995">
        <ele>847.1</ele>
        <time>2026-04-30T12:31:06.000Z</time>
      </trkpt>
      <trkpt lat="43.98665" lon="2.99994">
        <ele>847.3</ele>
        <time>2026-04-30T12:31:07.000Z</time>
      </trkpt>
      <trkpt lat="43.98665" lon="2.99993">
        <ele>847.4</ele>
        <time>2026-04-30T12:31:08.000Z</time>
      </trkpt>
      <trkpt lat="43.98665" lon="2.99993">
        <ele>847.5</ele>
        <time>2026-04-30T12:31:09.000Z</time>
      </trkpt>
      <trkpt lat="43.98665" lon="2.99993">
        <ele>847.4</ele>
        <time>2026-04-30T12:31:10.000Z</time>
      </trkpt>
      <trkpt lat="43.98665" lon="2.99993">
        <ele>847.2</ele>
        <time>2026-04-30T12:31:11.000Z</time>
      </trkpt>
      <trkpt lat="43.98666" lon="2.99994">
        <ele>847.3</ele>
        <time>2026-04-30T12:31:12.000Z</time>
      </trkpt>
      <trkpt lat="43.98667" lon="2.99995">
        <ele>847.4</ele>
        <time>2026-04-30T12:31:13.999Z</time>
      </trkpt>
      <trkpt lat="43.98668" lon="2.99995">
        <ele>847.1</ele>
        <time>2026-04-30T12:31:14.999Z</time>
      </trkpt>
      <trkpt lat="43.98668" lon="2.99994">
        <ele>846.8</ele>
        <time>2026-04-30T12:31:15.999Z</time>
      </trkpt>
      <trkpt lat="43.98669" lon="2.99994">
        <ele>846.4</ele>
        <time>2026-04-30T12:31:16.999Z</time>
      </trkpt>
      <trkpt lat="43.9867" lon="2.99995">
        <ele>846.2</ele>
        <time>2026-04-30T12:31:17.999Z</time>
      </trkpt>
      <trkpt lat="43.9867" lon="2.99994">
        <ele>846.1</ele>
        <time>2026-04-30T12:31:18.999Z</time>
      </trkpt>
      <trkpt lat="43.98671" lon="2.99993">
        <ele>845.7</ele>
        <time>2026-04-30T12:31:19.999Z</time>
      </trkpt>
      <trkpt lat="43.98672" lon="2.99993">
        <ele>845.4</ele>
        <time>2026-04-30T12:31:20.999Z</time>
      </trkpt>
      <trkpt lat="43.98673" lon="2.99992">
        <ele>845</ele>
        <time>2026-04-30T12:31:21.999Z</time>
      </trkpt>
      <trkpt lat="43.98673" lon="2.99993">
        <ele>844.7</ele>
        <time>2026-04-30T12:31:22.999Z</time>
      </trkpt>
      <trkpt lat="43.98674" lon="2.99993">
        <ele>844.2</ele>
        <time>2026-04-30T12:31:23.999Z</time>
      </trkpt>
      <trkpt lat="43.98674" lon="2.99993">
        <ele>843.7</ele>
        <time>2026-04-30T12:31:24.999Z</time>
      </trkpt>
      <trkpt lat="43.98675" lon="2.99993">
        <ele>843</ele>
        <time>2026-04-30T12:31:25.999Z</time>
      </trkpt>
      <trkpt lat="43.98676" lon="2.99994">
        <ele>842.5</ele>
        <time>2026-04-30T12:31:26.999Z</time>
      </trkpt>
      <trkpt lat="43.98677" lon="2.99994">
        <ele>842.3</ele>
        <time>2026-04-30T12:31:27.999Z</time>
      </trkpt>
      <trkpt lat="43.98677" lon="2.99994">
        <ele>842.3</ele>
        <time>2026-04-30T12:31:28.999Z</time>
      </trkpt>
      <trkpt lat="43.98678" lon="2.99993">
        <ele>841.9</ele>
        <time>2026-04-30T12:31:29.999Z</time>
      </trkpt>
      <trkpt lat="43.98678" lon="2.99993">
        <ele>841.8</ele>
        <time>2026-04-30T12:31:30.999Z</time>
      </trkpt>
      <trkpt lat="43.98679" lon="2.99993">
        <ele>841.4</ele>
        <time>2026-04-30T12:31:31.999Z</time>
      </trkpt>
      <trkpt lat="43.98679" lon="2.99993">
        <ele>841</ele>
        <time>2026-04-30T12:31:32.999Z</time>
      </trkpt>
      <trkpt lat="43.9868" lon="2.99992">
        <ele>840.6</ele>
        <time>2026-04-30T12:31:33.999Z</time>
      </trkpt>
      <trkpt lat="43.9868" lon="2.99992">
        <ele>840.1</ele>
        <time>2026-04-30T12:31:34.999Z</time>
      </trkpt>
      <trkpt lat="43.98681" lon="2.99991">
        <ele>839.6</ele>
        <time>2026-04-30T12:31:35.999Z</time>
      </trkpt>
      <trkpt lat="43.98681" lon="2.99991">
        <ele>839.5</ele>
        <time>2026-04-30T12:31:36.999Z</time>
      </trkpt>
      <trkpt lat="43.98682" lon="2.99991">
        <ele>839.6</ele>
        <time>2026-04-30T12:31:37.999Z</time>
      </trkpt>
      <trkpt lat="43.98682" lon="2.99991">
        <ele>839.2</ele>
        <time>2026-04-30T12:31:38.999Z</time>
      </trkpt>
      <trkpt lat="43.98683" lon="2.99991">
        <ele>839</ele>
        <time>2026-04-30T12:31:39.999Z</time>
      </trkpt>
      <trkpt lat="43.98684" lon="2.99992">
        <ele>838.9</ele>
        <time>2026-04-30T12:31:40.999Z</time>
      </trkpt>
      <trkpt lat="43.98684" lon="2.99992">
        <ele>838.9</ele>
        <time>2026-04-30T12:31:41.999Z</time>
      </trkpt>
      <trkpt lat="43.98685" lon="2.99992">
        <ele>838.8</ele>
        <time>2026-04-30T12:31:42.999Z</time>
      </trkpt>
      <trkpt lat="43.98685" lon="2.99991">
        <ele>838.7</ele>
        <time>2026-04-30T12:31:43.999Z</time>
      </trkpt>
      <trkpt lat="43.98686" lon="2.99991">
        <ele>838.9</ele>
        <time>2026-04-30T12:31:44.999Z</time>
      </trkpt>
      <trkpt lat="43.98686" lon="2.99991">
        <ele>838.8</ele>
        <time>2026-04-30T12:31:45.999Z</time>
      </trkpt>
      <trkpt lat="43.98686" lon="2.99991">
        <ele>838.6</ele>
        <time>2026-04-30T12:31:46.999Z</time>
      </trkpt>
      <trkpt lat="43.98686" lon="2.99991">
        <ele>838.7</ele>
        <time>2026-04-30T12:31:47.999Z</time>
      </trkpt>
      <trkpt lat="43.98686" lon="2.99991">
        <ele>838.2</ele>
        <time>2026-04-30T12:31:48.999Z</time>
      </trkpt>
      <trkpt lat="43.98686" lon="2.99991">
        <ele>837.8</ele>
        <time>2026-04-30T12:31:49.999Z</time>
      </trkpt>
      <trkpt lat="43.98687" lon="2.99991">
        <ele>837.5</ele>
        <time>2026-04-30T12:31:50.999Z</time>
      </trkpt>
      <trkpt lat="43.98687" lon="2.99991">
        <ele>837.3</ele>
        <time>2026-04-30T12:31:51.999Z</time>
      </trkpt>
      <trkpt lat="43.98688" lon="2.99991">
        <ele>837.2</ele>
        <time>2026-04-30T12:31:52.999Z</time>
      </trkpt>
      <trkpt lat="43.98689" lon="2.9999">
        <ele>837</ele>
        <time>2026-04-30T12:31:53.999Z</time>
      </trkpt>
      <trkpt lat="43.98689" lon="2.9999">
        <ele>836.7</ele>
        <time>2026-04-30T12:31:54.999Z</time>
      </trkpt>
      <trkpt lat="43.9869" lon="2.9999">
        <ele>836.4</ele>
        <time>2026-04-30T12:31:55.999Z</time>
      </trkpt>
      <trkpt lat="43.9869" lon="2.99991">
        <ele>836</ele>
        <time>2026-04-30T12:31:56.999Z</time>
      </trkpt>
      <trkpt lat="43.9869" lon="2.99991">
        <ele>835.7</ele>
        <time>2026-04-30T12:31:57.999Z</time>
      </trkpt>
      <trkpt lat="43.98691" lon="2.99991">
        <ele>835.5</ele>
        <time>2026-04-30T12:31:58.999Z</time>
      </trkpt>
      <trkpt lat="43.98692" lon="2.99991">
        <ele>835.4</ele>
        <time>2026-04-30T12:31:59.999Z</time>
      </trkpt>
      <trkpt lat="43.98692" lon="2.99991">
        <ele>835.1</ele>
        <time>2026-04-30T12:32:00.999Z</time>
      </trkpt>
      <trkpt lat="43.98693" lon="2.9999">
        <ele>834.6</ele>
        <time>2026-04-30T12:32:01.999Z</time>
      </trkpt>
      <trkpt lat="43.98694" lon="2.99989">
        <ele>834.2</ele>
        <time>2026-04-30T12:32:02.999Z</time>
      </trkpt>
      <trkpt lat="43.98694" lon="2.9999">
        <ele>833.9</ele>
        <time>2026-04-30T12:32:03.999Z</time>
      </trkpt>
      <trkpt lat="43.98695" lon="2.9999">
        <ele>833.8</ele>
        <time>2026-04-30T12:32:04.999Z</time>
      </trkpt>
      <trkpt lat="43.98695" lon="2.9999">
        <ele>833.8</ele>
        <time>2026-04-30T12:32:05.999Z</time>
      </trkpt>
      <trkpt lat="43.98696" lon="2.99991">
        <ele>833.8</ele>
        <time>2026-04-30T12:32:06.999Z</time>
      </trkpt>
      <trkpt lat="43.98697" lon="2.99991">
        <ele>833.7</ele>
        <time>2026-04-30T12:32:07.999Z</time>
      </trkpt>
      <trkpt lat="43.98697" lon="2.99992">
        <ele>833.5</ele>
        <time>2026-04-30T12:32:08.999Z</time>
      </trkpt>
      <trkpt lat="43.98698" lon="2.99992">
        <ele>833.3</ele>
        <time>2026-04-30T12:32:09.999Z</time>
      </trkpt>
      <trkpt lat="43.98698" lon="2.99991">
        <ele>832.9</ele>
        <time>2026-04-30T12:32:10.999Z</time>
      </trkpt>
      <trkpt lat="43.987" lon="2.99989">
        <ele>832.6</ele>
        <time>2026-04-30T12:32:11.999Z</time>
      </trkpt>
      <trkpt lat="43.98701" lon="2.99989">
        <ele>832.4</ele>
        <time>2026-04-30T12:32:12.999Z</time>
      </trkpt>
      <trkpt lat="43.98701" lon="2.99988">
        <ele>832.1</ele>
        <time>2026-04-30T12:32:13.999Z</time>
      </trkpt>
      <trkpt lat="43.98702" lon="2.99988">
        <ele>831.8</ele>
        <time>2026-04-30T12:32:14.999Z</time>
      </trkpt>
      <trkpt lat="43.98702" lon="2.99988">
        <ele>831.7</ele>
        <time>2026-04-30T12:32:15.999Z</time>
      </trkpt>
      <trkpt lat="43.98703" lon="2.99987">
        <ele>831.4</ele>
        <time>2026-04-30T12:32:16.999Z</time>
      </trkpt>
      <trkpt lat="43.98704" lon="2.99986">
        <ele>831.2</ele>
        <time>2026-04-30T12:32:17.999Z</time>
      </trkpt>
      <trkpt lat="43.98704" lon="2.99986">
        <ele>831</ele>
        <time>2026-04-30T12:32:18.999Z</time>
      </trkpt>
      <trkpt lat="43.98704" lon="2.99985">
        <ele>830.8</ele>
        <time>2026-04-30T12:32:19.999Z</time>
      </trkpt>
      <trkpt lat="43.98705" lon="2.99986">
        <ele>830.6</ele>
        <time>2026-04-30T12:32:20.999Z</time>
      </trkpt>
      <trkpt lat="43.98706" lon="2.99986">
        <ele>830.4</ele>
        <time>2026-04-30T12:32:21.999Z</time>
      </trkpt>
      <trkpt lat="43.98706" lon="2.99987">
        <ele>829.9</ele>
        <time>2026-04-30T12:32:22.999Z</time>
      </trkpt>
      <trkpt lat="43.98707" lon="2.99988">
        <ele>829.4</ele>
        <time>2026-04-30T12:32:23.999Z</time>
      </trkpt>
      <trkpt lat="43.98707" lon="2.99989">
        <ele>829.1</ele>
        <time>2026-04-30T12:32:24.999Z</time>
      </trkpt>
      <trkpt lat="43.98708" lon="2.99988">
        <ele>829</ele>
        <time>2026-04-30T12:32:25.999Z</time>
      </trkpt>
      <trkpt lat="43.98709" lon="2.99987">
        <ele>829.1</ele>
        <time>2026-04-30T12:32:26.999Z</time>
      </trkpt>
      <trkpt lat="43.9871" lon="2.99986">
        <ele>828.6</ele>
        <time>2026-04-30T12:32:27.999Z</time>
      </trkpt>
      <trkpt lat="43.98711" lon="2.99985">
        <ele>828.3</ele>
        <time>2026-04-30T12:32:28.999Z</time>
      </trkpt>
      <trkpt lat="43.98711" lon="2.99985">
        <ele>827.9</ele>
        <time>2026-04-30T12:32:29.999Z</time>
      </trkpt>
      <trkpt lat="43.98712" lon="2.99985">
        <ele>827.4</ele>
        <time>2026-04-30T12:32:30.999Z</time>
      </trkpt>
      <trkpt lat="43.98713" lon="2.99985">
        <ele>827</ele>
        <time>2026-04-30T12:32:31.999Z</time>
      </trkpt>
      <trkpt lat="43.98713" lon="2.99985">
        <ele>826.5</ele>
        <time>2026-04-30T12:32:32.999Z</time>
      </trkpt>
      <trkpt lat="43.98714" lon="2.99985">
        <ele>826.1</ele>
        <time>2026-04-30T12:32:33.999Z</time>
      </trkpt>
      <trkpt lat="43.98714" lon="2.99985">
        <ele>825.8</ele>
        <time>2026-04-30T12:32:34.999Z</time>
      </trkpt>
      <trkpt lat="43.98714" lon="2.99984">
        <ele>825.6</ele>
        <time>2026-04-30T12:32:35.999Z</time>
      </trkpt>
      <trkpt lat="43.98714" lon="2.99984">
        <ele>825.8</ele>
        <time>2026-04-30T12:32:36.999Z</time>
      </trkpt>
      <trkpt lat="43.98714" lon="2.99983">
        <ele>825.8</ele>
        <time>2026-04-30T12:32:37.999Z</time>
      </trkpt>
      <trkpt lat="43.98714" lon="2.99982">
        <ele>825.7</ele>
        <time>2026-04-30T12:32:38.999Z</time>
      </trkpt>
      <trkpt lat="43.98714" lon="2.99982">
        <ele>825.5</ele>
        <time>2026-04-30T12:32:39.999Z</time>
      </trkpt>
      <trkpt lat="43.98714" lon="2.99982">
        <ele>825.3</ele>
        <time>2026-04-30T12:32:40.999Z</time>
      </trkpt>
      <trkpt lat="43.98714" lon="2.99982">
        <ele>825.4</ele>
        <time>2026-04-30T12:32:41.999Z</time>
      </trkpt>
      <trkpt lat="43.98714" lon="2.99982">
        <ele>825.5</ele>
        <time>2026-04-30T12:32:42.999Z</time>
      </trkpt>
      <trkpt lat="43.98714" lon="2.99982">
        <ele>825.6</ele>
        <time>2026-04-30T12:32:43.999Z</time>
      </trkpt>
      <trkpt lat="43.98714" lon="2.99982">
        <ele>825.8</ele>
        <time>2026-04-30T12:32:44.999Z</time>
      </trkpt>
      <trkpt lat="43.98714" lon="2.99982">
        <ele>825.8</ele>
        <time>2026-04-30T12:32:45.999Z</time>
      </trkpt>
      <trkpt lat="43.98714" lon="2.99982">
        <ele>825.8</ele>
        <time>2026-04-30T12:32:46.999Z</time>
      </trkpt>
      <trkpt lat="43.98714" lon="2.99982">
        <ele>825.6</ele>
        <time>2026-04-30T12:32:47.999Z</time>
      </trkpt>
      <trkpt lat="43.98714" lon="2.99982">
        <ele>825.3</ele>
        <time>2026-04-30T12:32:48.999Z</time>
      </trkpt>
      <trkpt lat="43.98714" lon="2.99982">
        <ele>825</ele>
        <time>2026-04-30T12:32:49.999Z</time>
      </trkpt>
      <trkpt lat="43.98714" lon="2.99981">
        <ele>824.7</ele>
        <time>2026-04-30T12:32:50.999Z</time>
      </trkpt>
      <trkpt lat="43.98714" lon="2.99981">
        <ele>824.8</ele>
        <time>2026-04-30T12:32:51.999Z</time>
      </trkpt>
      <trkpt lat="43.98714" lon="2.99981">
        <ele>824.7</ele>
        <time>2026-04-30T12:32:52.999Z</time>
      </trkpt>
      <trkpt lat="43.98714" lon="2.99981">
        <ele>824.8</ele>
        <time>2026-04-30T12:32:53.999Z</time>
      </trkpt>
      <trkpt lat="43.98714" lon="2.99981">
        <ele>824.8</ele>
        <time>2026-04-30T12:32:54.999Z</time>
      </trkpt>
      <trkpt lat="43.98714" lon="2.99981">
        <ele>825</ele>
        <time>2026-04-30T12:32:55.999Z</time>
      </trkpt>
      <trkpt lat="43.98714" lon="2.99981">
        <ele>825</ele>
        <time>2026-04-30T12:32:56.999Z</time>
      </trkpt>
      <trkpt lat="43.98714" lon="2.99981">
        <ele>825</ele>
        <time>2026-04-30T12:32:57.999Z</time>
      </trkpt>
      <trkpt lat="43.98714" lon="2.99981">
        <ele>825.1</ele>
        <time>2026-04-30T12:32:58.999Z</time>
      </trkpt>
      <trkpt lat="43.98714" lon="2.99981">
        <ele>825</ele>
        <time>2026-04-30T12:32:59.999Z</time>
      </trkpt>
      <trkpt lat="43.98714" lon="2.99981">
        <ele>825</ele>
        <time>2026-04-30T12:33:00.999Z</time>
      </trkpt>
      <trkpt lat="43.98714" lon="2.99981">
        <ele>824.8</ele>
        <time>2026-04-30T12:33:01.999Z</time>
      </trkpt>
      <trkpt lat="43.98714" lon="2.99981">
        <ele>824.6</ele>
        <time>2026-04-30T12:33:02.999Z</time>
      </trkpt>
      <trkpt lat="43.98714" lon="2.99981">
        <ele>824.5</ele>
        <time>2026-04-30T12:33:03.999Z</time>
      </trkpt>
      <trkpt lat="43.98714" lon="2.99981">
        <ele>824.4</ele>
        <time>2026-04-30T12:33:04.999Z</time>
      </trkpt>
      <trkpt lat="43.98714" lon="2.99981">
        <ele>824.3</ele>
        <time>2026-04-30T12:33:05.999Z</time>
      </trkpt>
      <trkpt lat="43.98714" lon="2.99981">
        <ele>824.2</ele>
        <time>2026-04-30T12:33:06.999Z</time>
      </trkpt>
      <trkpt lat="43.98714" lon="2.99981">
        <ele>824.2</ele>
        <time>2026-04-30T12:33:07.999Z</time>
      </trkpt>
      <trkpt lat="43.98714" lon="2.99981">
        <ele>824.1</ele>
        <time>2026-04-30T12:33:08.999Z</time>
      </trkpt>
      <trkpt lat="43.98714" lon="2.99981">
        <ele>823.9</ele>
        <time>2026-04-30T12:33:09.999Z</time>
      </trkpt>
      <trkpt lat="43.98714" lon="2.99981">
        <ele>823.9</ele>
        <time>2026-04-30T12:33:10.999Z</time>
      </trkpt>
      <trkpt lat="43.98714" lon="2.99981">
        <ele>824</ele>
        <time>2026-04-30T12:33:11.999Z</time>
      </trkpt>
      <trkpt lat="43.98714" lon="2.99981">
        <ele>824.4</ele>
        <time>2026-04-30T12:33:12.999Z</time>
      </trkpt>
      <trkpt lat="43.98714" lon="2.99981">
        <ele>824.5</ele>
        <time>2026-04-30T12:33:13.999Z</time>
      </trkpt>
      <trkpt lat="43.98714" lon="2.99981">
        <ele>824.5</ele>
        <time>2026-04-30T12:33:14.999Z</time>
      </trkpt>
      <trkpt lat="43.98714" lon="2.99981">
        <ele>824.6</ele>
        <time>2026-04-30T12:33:15.999Z</time>
      </trkpt>
      <trkpt lat="43.98714" lon="2.99981">
        <ele>824.6</ele>
        <time>2026-04-30T12:33:16.999Z</time>
      </trkpt>
      <trkpt lat="43.98714" lon="2.99981">
        <ele>824.4</ele>
        <time>2026-04-30T12:33:17.999Z</time>
      </trkpt>
      <trkpt lat="43.98714" lon="2.99981">
        <ele>824.4</ele>
        <time>2026-04-30T12:33:18.999Z</time>
      </trkpt>
      <trkpt lat="43.98714" lon="2.99981">
        <ele>824.5</ele>
        <time>2026-04-30T12:33:19.999Z</time>
      </trkpt>
      <trkpt lat="43.98714" lon="2.99981">
        <ele>824.5</ele>
        <time>2026-04-30T12:33:20.999Z</time>
      </trkpt>
      <trkpt lat="43.98714" lon="2.99981">
        <ele>824.6</ele>
        <time>2026-04-30T12:33:21.999Z</time>
      </trkpt>
      <trkpt lat="43.98714" lon="2.99981">
        <ele>824.8</ele>
        <time>2026-04-30T12:33:22.999Z</time>
      </trkpt>
      <trkpt lat="43.98715" lon="2.99981">
        <ele>824.6</ele>
        <time>2026-04-30T12:33:23.999Z</time>
      </trkpt>
      <trkpt lat="43.98715" lon="2.99981">
        <ele>824.5</ele>
        <time>2026-04-30T12:33:24.999Z</time>
      </trkpt>
      <trkpt lat="43.98715" lon="2.99981">
        <ele>824.4</ele>
        <time>2026-04-30T12:33:25.999Z</time>
      </trkpt>
      <trkpt lat="43.98715" lon="2.99981">
        <ele>824.1</ele>
        <time>2026-04-30T12:33:26.999Z</time>
      </trkpt>
      <trkpt lat="43.98715" lon="2.99981">
        <ele>823.9</ele>
        <time>2026-04-30T12:33:27.999Z</time>
      </trkpt>
      <trkpt lat="43.98715" lon="2.99981">
        <ele>824.1</ele>
        <time>2026-04-30T12:33:28.999Z</time>
      </trkpt>
      <trkpt lat="43.98715" lon="2.99981">
        <ele>824.2</ele>
        <time>2026-04-30T12:33:29.999Z</time>
      </trkpt>
      <trkpt lat="43.98715" lon="2.99981">
        <ele>824.4</ele>
        <time>2026-04-30T12:33:30.999Z</time>
      </trkpt>
      <trkpt lat="43.98715" lon="2.99981">
        <ele>824.4</ele>
        <time>2026-04-30T12:33:31.999Z</time>
      </trkpt>
      <trkpt lat="43.98715" lon="2.99981">
        <ele>824.2</ele>
        <time>2026-04-30T12:33:32.999Z</time>
      </trkpt>
      <trkpt lat="43.98715" lon="2.99981">
        <ele>824.2</ele>
        <time>2026-04-30T12:33:33.999Z</time>
      </trkpt>
      <trkpt lat="43.98715" lon="2.99981">
        <ele>824.1</ele>
        <time>2026-04-30T12:33:34.999Z</time>
      </trkpt>
      <trkpt lat="43.98715" lon="2.99981">
        <ele>824</ele>
        <time>2026-04-30T12:33:35.999Z</time>
      </trkpt>
      <trkpt lat="43.98715" lon="2.99981">
        <ele>823.9</ele>
        <time>2026-04-30T12:33:36.999Z</time>
      </trkpt>
      <trkpt lat="43.98715" lon="2.99981">
        <ele>823.9</ele>
        <time>2026-04-30T12:33:37.999Z</time>
      </trkpt>
      <trkpt lat="43.98715" lon="2.99982">
        <ele>823.9</ele>
        <time>2026-04-30T12:33:38.999Z</time>
      </trkpt>
      <trkpt lat="43.98715" lon="2.99982">
        <ele>823.9</ele>
        <time>2026-04-30T12:33:39.999Z</time>
      </trkpt>
      <trkpt lat="43.98715" lon="2.99982">
        <ele>824.1</ele>
        <time>2026-04-30T12:33:40.999Z</time>
      </trkpt>
      <trkpt lat="43.98715" lon="2.99982">
        <ele>824.1</ele>
        <time>2026-04-30T12:33:41.999Z</time>
      </trkpt>
      <trkpt lat="43.98715" lon="2.99982">
        <ele>824</ele>
        <time>2026-04-30T12:33:42.999Z</time>
      </trkpt>
      <trkpt lat="43.98715" lon="2.99982">
        <ele>824</ele>
        <time>2026-04-30T12:33:43.999Z</time>
      </trkpt>
      <trkpt lat="43.98715" lon="2.99982">
        <ele>824.2</ele>
        <time>2026-04-30T12:33:44.999Z</time>
      </trkpt>
      <trkpt lat="43.98715" lon="2.99982">
        <ele>824.4</ele>
        <time>2026-04-30T12:33:45.999Z</time>
      </trkpt>
      <trkpt lat="43.98715" lon="2.99981">
        <ele>824.7</ele>
        <time>2026-04-30T12:33:46.999Z</time>
      </trkpt>
      <trkpt lat="43.98715" lon="2.99981">
        <ele>824.6</ele>
        <time>2026-04-30T12:33:47.999Z</time>
      </trkpt>
      <trkpt lat="43.98715" lon="2.99981">
        <ele>824.5</ele>
        <time>2026-04-30T12:33:48.999Z</time>
      </trkpt>
      <trkpt lat="43.98715" lon="2.99981">
        <ele>824.5</ele>
        <time>2026-04-30T12:33:49.999Z</time>
      </trkpt>
      <trkpt lat="43.98715" lon="2.99981">
        <ele>824.5</ele>
        <time>2026-04-30T12:33:50.999Z</time>
      </trkpt>
      <trkpt lat="43.98715" lon="2.99981">
        <ele>824.5</ele>
        <time>2026-04-30T12:33:51.999Z</time>
      </trkpt>
      <trkpt lat="43.98715" lon="2.99981">
        <ele>824.7</ele>
        <time>2026-04-30T12:33:52.999Z</time>
      </trkpt>
      <trkpt lat="43.98716" lon="2.99981">
        <ele>824.8</ele>
        <time>2026-04-30T12:33:53.999Z</time>
      </trkpt>
      <trkpt lat="43.98716" lon="2.99981">
        <ele>824.9</ele>
        <time>2026-04-30T12:33:54.999Z</time>
      </trkpt>
      <trkpt lat="43.98716" lon="2.99981">
        <ele>824.9</ele>
        <time>2026-04-30T12:33:55.999Z</time>
      </trkpt>
      <trkpt lat="43.98716" lon="2.99981">
        <ele>824.8</ele>
        <time>2026-04-30T12:33:56.999Z</time>
      </trkpt>
      <trkpt lat="43.98716" lon="2.99981">
        <ele>824.6</ele>
        <time>2026-04-30T12:33:57.999Z</time>
      </trkpt>
      <trkpt lat="43.98716" lon="2.9998">
        <ele>824.4</ele>
        <time>2026-04-30T12:33:58.999Z</time>
      </trkpt>
      <trkpt lat="43.98716" lon="2.9998">
        <ele>824.4</ele>
        <time>2026-04-30T12:33:59.999Z</time>
      </trkpt>
      <trkpt lat="43.98716" lon="2.99978">
        <ele>824.4</ele>
        <time>2026-04-30T12:34:00.999Z</time>
      </trkpt>
      <trkpt lat="43.98716" lon="2.99978">
        <ele>824.3</ele>
        <time>2026-04-30T12:34:01.999Z</time>
      </trkpt>
      <trkpt lat="43.98716" lon="2.99978">
        <ele>824.4</ele>
        <time>2026-04-30T12:34:02.999Z</time>
      </trkpt>
      <trkpt lat="43.98715" lon="2.99978">
        <ele>824.2</ele>
        <time>2026-04-30T12:34:03.999Z</time>
      </trkpt>
      <trkpt lat="43.98715" lon="2.99978">
        <ele>824</ele>
        <time>2026-04-30T12:34:04.999Z</time>
      </trkpt>
      <trkpt lat="43.98715" lon="2.99978">
        <ele>824</ele>
        <time>2026-04-30T12:34:05.999Z</time>
      </trkpt>
      <trkpt lat="43.98715" lon="2.99978">
        <ele>824</ele>
        <time>2026-04-30T12:34:06.999Z</time>
      </trkpt>
      <trkpt lat="43.98715" lon="2.99978">
        <ele>824.1</ele>
        <time>2026-04-30T12:34:07.999Z</time>
      </trkpt>
      <trkpt lat="43.98715" lon="2.99978">
        <ele>824</ele>
        <time>2026-04-30T12:34:08.999Z</time>
      </trkpt>
      <trkpt lat="43.98715" lon="2.99978">
        <ele>824</ele>
        <time>2026-04-30T12:34:09.999Z</time>
      </trkpt>
      <trkpt lat="43.98715" lon="2.99978">
        <ele>824.2</ele>
        <time>2026-04-30T12:34:10.999Z</time>
      </trkpt>
      <trkpt lat="43.98715" lon="2.99978">
        <ele>824.3</ele>
        <time>2026-04-30T12:34:11.999Z</time>
      </trkpt>
      <trkpt lat="43.98715" lon="2.99978">
        <ele>824.5</ele>
        <time>2026-04-30T12:34:12.999Z</time>
      </trkpt>
      <trkpt lat="43.98715" lon="2.99978">
        <ele>824.6</ele>
        <time>2026-04-30T12:34:13.999Z</time>
      </trkpt>
      <trkpt lat="43.98715" lon="2.99978">
        <ele>824.7</ele>
        <time>2026-04-30T12:34:14.999Z</time>
      </trkpt>
      <trkpt lat="43.98715" lon="2.99979">
        <ele>824.8</ele>
        <time>2026-04-30T12:34:15.999Z</time>
      </trkpt>
      <trkpt lat="43.98715" lon="2.99979">
        <ele>824.8</ele>
        <time>2026-04-30T12:34:16.999Z</time>
      </trkpt>
      <trkpt lat="43.98715" lon="2.99979">
        <ele>824.8</ele>
        <time>2026-04-30T12:34:17.999Z</time>
      </trkpt>
      <trkpt lat="43.98715" lon="2.99979">
        <ele>824.6</ele>
        <time>2026-04-30T12:34:18.999Z</time>
      </trkpt>
      <trkpt lat="43.98715" lon="2.99979">
        <ele>824.6</ele>
        <time>2026-04-30T12:34:19.999Z</time>
      </trkpt>
      <trkpt lat="43.98715" lon="2.99979">
        <ele>824.4</ele>
        <time>2026-04-30T12:34:20.999Z</time>
      </trkpt>
      <trkpt lat="43.98716" lon="2.99979">
        <ele>824.2</ele>
        <time>2026-04-30T12:34:21.999Z</time>
      </trkpt>
      <trkpt lat="43.98716" lon="2.99979">
        <ele>823.9</ele>
        <time>2026-04-30T12:34:22.999Z</time>
      </trkpt>
      <trkpt lat="43.98716" lon="2.99978">
        <ele>823.6</ele>
        <time>2026-04-30T12:34:23.999Z</time>
      </trkpt>
      <trkpt lat="43.98716" lon="2.99978">
        <ele>823.5</ele>
        <time>2026-04-30T12:34:24.999Z</time>
      </trkpt>
      <trkpt lat="43.98716" lon="2.99978">
        <ele>823.4</ele>
        <time>2026-04-30T12:34:25.999Z</time>
      </trkpt>
      <trkpt lat="43.98716" lon="2.99978">
        <ele>823.4</ele>
        <time>2026-04-30T12:34:26.999Z</time>
      </trkpt>
      <trkpt lat="43.98716" lon="2.99978">
        <ele>823.6</ele>
        <time>2026-04-30T12:34:27.999Z</time>
      </trkpt>
      <trkpt lat="43.98716" lon="2.99978">
        <ele>823.8</ele>
        <time>2026-04-30T12:34:28.999Z</time>
      </trkpt>
      <trkpt lat="43.98716" lon="2.99978">
        <ele>824.2</ele>
        <time>2026-04-30T12:34:29.999Z</time>
      </trkpt>
      <trkpt lat="43.98716" lon="2.99979">
        <ele>824.5</ele>
        <time>2026-04-30T12:34:30.999Z</time>
      </trkpt>
      <trkpt lat="43.98716" lon="2.99979">
        <ele>824.5</ele>
        <time>2026-04-30T12:34:31.999Z</time>
      </trkpt>
      <trkpt lat="43.98716" lon="2.99979">
        <ele>824.6</ele>
        <time>2026-04-30T12:34:32.999Z</time>
      </trkpt>
      <trkpt lat="43.98716" lon="2.99979">
        <ele>824.5</ele>
        <time>2026-04-30T12:34:33.999Z</time>
      </trkpt>
      <trkpt lat="43.98716" lon="2.99979">
        <ele>824.4</ele>
        <time>2026-04-30T12:34:34.999Z</time>
      </trkpt>
      <trkpt lat="43.98716" lon="2.99979">
        <ele>824.5</ele>
        <time>2026-04-30T12:34:35.999Z</time>
      </trkpt>
      <trkpt lat="43.98716" lon="2.99979">
        <ele>824.7</ele>
        <time>2026-04-30T12:34:36.999Z</time>
      </trkpt>
      <trkpt lat="43.98716" lon="2.99979">
        <ele>824.9</ele>
        <time>2026-04-30T12:34:37.999Z</time>
      </trkpt>
      <trkpt lat="43.98716" lon="2.99979">
        <ele>825.2</ele>
        <time>2026-04-30T12:34:38.999Z</time>
      </trkpt>
      <trkpt lat="43.98716" lon="2.99979">
        <ele>825.6</ele>
        <time>2026-04-30T12:34:39.999Z</time>
      </trkpt>
      <trkpt lat="43.98716" lon="2.99979">
        <ele>826</ele>
        <time>2026-04-30T12:34:40.999Z</time>
      </trkpt>
      <trkpt lat="43.98716" lon="2.99979">
        <ele>826.2</ele>
        <time>2026-04-30T12:34:41.999Z</time>
      </trkpt>
      <trkpt lat="43.98716" lon="2.99979">
        <ele>826.4</ele>
        <time>2026-04-30T12:34:42.999Z</time>
      </trkpt>
      <trkpt lat="43.98716" lon="2.99979">
        <ele>826.2</ele>
        <time>2026-04-30T12:34:43.999Z</time>
      </trkpt>
      <trkpt lat="43.98716" lon="2.99979">
        <ele>825.9</ele>
        <time>2026-04-30T12:34:44.999Z</time>
      </trkpt>
      <trkpt lat="43.98716" lon="2.99979">
        <ele>825.8</ele>
        <time>2026-04-30T12:34:45.999Z</time>
      </trkpt>
      <trkpt lat="43.98716" lon="2.99979">
        <ele>825.5</ele>
        <time>2026-04-30T12:34:46.999Z</time>
      </trkpt>
      <trkpt lat="43.98716" lon="2.99979">
        <ele>825.5</ele>
        <time>2026-04-30T12:34:47.999Z</time>
      </trkpt>
      <trkpt lat="43.98716" lon="2.99979">
        <ele>825.7</ele>
        <time>2026-04-30T12:34:48.999Z</time>
      </trkpt>
      <trkpt lat="43.98716" lon="2.99979">
        <ele>825.6</ele>
        <time>2026-04-30T12:34:49.999Z</time>
      </trkpt>
      <trkpt lat="43.98716" lon="2.99979">
        <ele>825.4</ele>
        <time>2026-04-30T12:34:50.999Z</time>
      </trkpt>
      <trkpt lat="43.98716" lon="2.99979">
        <ele>825.2</ele>
        <time>2026-04-30T12:34:51.999Z</time>
      </trkpt>
      <trkpt lat="43.98716" lon="2.99979">
        <ele>825.1</ele>
        <time>2026-04-30T12:34:52.999Z</time>
      </trkpt>
      <trkpt lat="43.98716" lon="2.99979">
        <ele>825</ele>
        <time>2026-04-30T12:34:53.999Z</time>
      </trkpt>
      <trkpt lat="43.98716" lon="2.99979">
        <ele>825.3</ele>
        <time>2026-04-30T12:34:54.999Z</time>
      </trkpt>
      <trkpt lat="43.98716" lon="2.99979">
        <ele>825.6</ele>
        <time>2026-04-30T12:34:55.999Z</time>
      </trkpt>
      <trkpt lat="43.98716" lon="2.9998">
        <ele>825.9</ele>
        <time>2026-04-30T12:34:56.999Z</time>
      </trkpt>
      <trkpt lat="43.98716" lon="2.9998">
        <ele>826</ele>
        <time>2026-04-30T12:34:57.999Z</time>
      </trkpt>
      <trkpt lat="43.98716" lon="2.9998">
        <ele>826</ele>
        <time>2026-04-30T12:34:58.999Z</time>
      </trkpt>
      <trkpt lat="43.98716" lon="2.9998">
        <ele>826</ele>
        <time>2026-04-30T12:34:59.999Z</time>
      </trkpt>
      <trkpt lat="43.98716" lon="2.9998">
        <ele>826.2</ele>
        <time>2026-04-30T12:35:00.999Z</time>
      </trkpt>
      <trkpt lat="43.98716" lon="2.9998">
        <ele>826.3</ele>
        <time>2026-04-30T12:35:01.999Z</time>
      </trkpt>
      <trkpt lat="43.98716" lon="2.9998">
        <ele>826.3</ele>
        <time>2026-04-30T12:35:02.999Z</time>
      </trkpt>
      <trkpt lat="43.98715" lon="2.9998">
        <ele>826.3</ele>
        <time>2026-04-30T12:35:03.999Z</time>
      </trkpt>
      <trkpt lat="43.98715" lon="2.9998">
        <ele>826.4</ele>
        <time>2026-04-30T12:35:04.999Z</time>
      </trkpt>
      <trkpt lat="43.98715" lon="2.9998">
        <ele>826.3</ele>
        <time>2026-04-30T12:35:05.999Z</time>
      </trkpt>
      <trkpt lat="43.98715" lon="2.9998">
        <ele>826.3</ele>
        <time>2026-04-30T12:35:06.999Z</time>
      </trkpt>
      <trkpt lat="43.98715" lon="2.9998">
        <ele>826.3</ele>
        <time>2026-04-30T12:35:07.999Z</time>
      </trkpt>
      <trkpt lat="43.98715" lon="2.9998">
        <ele>826.3</ele>
        <time>2026-04-30T12:35:08.999Z</time>
      </trkpt>
      <trkpt lat="43.98715" lon="2.9998">
        <ele>826.2</ele>
        <time>2026-04-30T12:35:09.999Z</time>
      </trkpt>
      <trkpt lat="43.98715" lon="2.9998">
        <ele>826.1</ele>
        <time>2026-04-30T12:35:10.999Z</time>
      </trkpt>
      <trkpt lat="43.98715" lon="2.9998">
        <ele>825.9</ele>
        <time>2026-04-30T12:35:11.999Z</time>
      </trkpt>
      <trkpt lat="43.98715" lon="2.9998">
        <ele>825.9</ele>
        <time>2026-04-30T12:35:12.999Z</time>
      </trkpt>
      <trkpt lat="43.98715" lon="2.99979">
        <ele>826</ele>
        <time>2026-04-30T12:35:13.999Z</time>
      </trkpt>
      <trkpt lat="43.98715" lon="2.99979">
        <ele>826</ele>
        <time>2026-04-30T12:35:14.999Z</time>
      </trkpt>
      <trkpt lat="43.98715" lon="2.99979">
        <ele>826</ele>
        <time>2026-04-30T12:35:15.999Z</time>
      </trkpt>
      <trkpt lat="43.98715" lon="2.99979">
        <ele>825.9</ele>
        <time>2026-04-30T12:35:16.999Z</time>
      </trkpt>
      <trkpt lat="43.98715" lon="2.99979">
        <ele>825.7</ele>
        <time>2026-04-30T12:35:17.999Z</time>
      </trkpt>
      <trkpt lat="43.98715" lon="2.99979">
        <ele>825.7</ele>
        <time>2026-04-30T12:35:18.999Z</time>
      </trkpt>
      <trkpt lat="43.98715" lon="2.99979">
        <ele>825.6</ele>
        <time>2026-04-30T12:35:19.999Z</time>
      </trkpt>
      <trkpt lat="43.98715" lon="2.99979">
        <ele>825.7</ele>
        <time>2026-04-30T12:35:20.999Z</time>
      </trkpt>
      <trkpt lat="43.98715" lon="2.99979">
        <ele>825.8</ele>
        <time>2026-04-30T12:35:21.999Z</time>
      </trkpt>
      <trkpt lat="43.98715" lon="2.99979">
        <ele>826</ele>
        <time>2026-04-30T12:35:22.999Z</time>
      </trkpt>
      <trkpt lat="43.98715" lon="2.99979">
        <ele>826</ele>
        <time>2026-04-30T12:35:23.999Z</time>
      </trkpt>
      <trkpt lat="43.98715" lon="2.99979">
        <ele>826</ele>
        <time>2026-04-30T12:35:24.999Z</time>
      </trkpt>
      <trkpt lat="43.98715" lon="2.99979">
        <ele>826.2</ele>
        <time>2026-04-30T12:35:25.999Z</time>
      </trkpt>
      <trkpt lat="43.98715" lon="2.99979">
        <ele>826.1</ele>
        <time>2026-04-30T12:35:26.999Z</time>
      </trkpt>
      <trkpt lat="43.98715" lon="2.99979">
        <ele>826</ele>
        <time>2026-04-30T12:35:27.999Z</time>
      </trkpt>
      <trkpt lat="43.98715" lon="2.99979">
        <ele>825.8</ele>
        <time>2026-04-30T12:35:28.999Z</time>
      </trkpt>
      <trkpt lat="43.98715" lon="2.99979">
        <ele>825.8</ele>
        <time>2026-04-30T12:35:29.999Z</time>
      </trkpt>
      <trkpt lat="43.98715" lon="2.99979">
        <ele>825.7</ele>
        <time>2026-04-30T12:35:30.999Z</time>
      </trkpt>
      <trkpt lat="43.98715" lon="2.99979">
        <ele>825.6</ele>
        <time>2026-04-30T12:35:31.999Z</time>
      </trkpt>
      <trkpt lat="43.98715" lon="2.9998">
        <ele>825.5</ele>
        <time>2026-04-30T12:35:32.999Z</time>
      </trkpt>
      <trkpt lat="43.98715" lon="2.9998">
        <ele>825.3</ele>
        <time>2026-04-30T12:35:33.999Z</time>
      </trkpt>
      <trkpt lat="43.98715" lon="2.9998">
        <ele>825.2</ele>
        <time>2026-04-30T12:35:34.999Z</time>
      </trkpt>
      <trkpt lat="43.98715" lon="2.9998">
        <ele>825</ele>
        <time>2026-04-30T12:35:35.999Z</time>
      </trkpt>
      <trkpt lat="43.98715" lon="2.9998">
        <ele>824.9</ele>
        <time>2026-04-30T12:35:36.999Z</time>
      </trkpt>
      <trkpt lat="43.98715" lon="2.9998">
        <ele>824.8</ele>
        <time>2026-04-30T12:35:37.999Z</time>
      </trkpt>
      <trkpt lat="43.98715" lon="2.9998">
        <ele>824.6</ele>
        <time>2026-04-30T12:35:38.999Z</time>
      </trkpt>
      <trkpt lat="43.98715" lon="2.9998">
        <ele>824.6</ele>
        <time>2026-04-30T12:35:39.999Z</time>
      </trkpt>
      <trkpt lat="43.98715" lon="2.9998">
        <ele>824.5</ele>
        <time>2026-04-30T12:35:40.999Z</time>
      </trkpt>
      <trkpt lat="43.98715" lon="2.9998">
        <ele>824.8</ele>
        <time>2026-04-30T12:35:41.999Z</time>
      </trkpt>
      <trkpt lat="43.98715" lon="2.9998">
        <ele>824.9</ele>
        <time>2026-04-30T12:35:42.999Z</time>
      </trkpt>
      <trkpt lat="43.98715" lon="2.9998">
        <ele>824.9</ele>
        <time>2026-04-30T12:35:43.999Z</time>
      </trkpt>
      <trkpt lat="43.98715" lon="2.9998">
        <ele>824.8</ele>
        <time>2026-04-30T12:35:44.999Z</time>
      </trkpt>
      <trkpt lat="43.98715" lon="2.9998">
        <ele>824.6</ele>
        <time>2026-04-30T12:35:45.999Z</time>
      </trkpt>
      <trkpt lat="43.98714" lon="2.9998">
        <ele>824.6</ele>
        <time>2026-04-30T12:35:46.999Z</time>
      </trkpt>
      <trkpt lat="43.98714" lon="2.9998">
        <ele>824.5</ele>
        <time>2026-04-30T12:35:47.999Z</time>
      </trkpt>
      <trkpt lat="43.98715" lon="2.9998">
        <ele>824.3</ele>
        <time>2026-04-30T12:35:48.999Z</time>
      </trkpt>
      <trkpt lat="43.98715" lon="2.9998">
        <ele>824.2</ele>
        <time>2026-04-30T12:35:49.999Z</time>
      </trkpt>
      <trkpt lat="43.98715" lon="2.99981">
        <ele>824.3</ele>
        <time>2026-04-30T12:35:50.999Z</time>
      </trkpt>
      <trkpt lat="43.98715" lon="2.99981">
        <ele>824.3</ele>
        <time>2026-04-30T12:35:51.999Z</time>
      </trkpt>
      <trkpt lat="43.98715" lon="2.9998">
        <ele>824.5</ele>
        <time>2026-04-30T12:35:52.999Z</time>
      </trkpt>
      <trkpt lat="43.98715" lon="2.9998">
        <ele>824.5</ele>
        <time>2026-04-30T12:35:53.999Z</time>
      </trkpt>
      <trkpt lat="43.98715" lon="2.9998">
        <ele>824.6</ele>
        <time>2026-04-30T12:35:54.999Z</time>
      </trkpt>
      <trkpt lat="43.98715" lon="2.9998">
        <ele>824.7</ele>
        <time>2026-04-30T12:35:55.999Z</time>
      </trkpt>
      <trkpt lat="43.98715" lon="2.9998">
        <ele>824.8</ele>
        <time>2026-04-30T12:35:56.999Z</time>
      </trkpt>
      <trkpt lat="43.98715" lon="2.9998">
        <ele>824.8</ele>
        <time>2026-04-30T12:35:57.999Z</time>
      </trkpt>
      <trkpt lat="43.98715" lon="2.9998">
        <ele>825</ele>
        <time>2026-04-30T12:35:58.999Z</time>
      </trkpt>
      <trkpt lat="43.98715" lon="2.9998">
        <ele>825</ele>
        <time>2026-04-30T12:35:59.999Z</time>
      </trkpt>
      <trkpt lat="43.98715" lon="2.9998">
        <ele>824.9</ele>
        <time>2026-04-30T12:36:00.999Z</time>
      </trkpt>
      <trkpt lat="43.98715" lon="2.9998">
        <ele>824.8</ele>
        <time>2026-04-30T12:36:01.999Z</time>
      </trkpt>
      <trkpt lat="43.98715" lon="2.9998">
        <ele>824.8</ele>
        <time>2026-04-30T12:36:02.999Z</time>
      </trkpt>
      <trkpt lat="43.98715" lon="2.9998">
        <ele>825</ele>
        <time>2026-04-30T12:36:03.999Z</time>
      </trkpt>
      <trkpt lat="43.98715" lon="2.9998">
        <ele>825.2</ele>
        <time>2026-04-30T12:36:04.999Z</time>
      </trkpt>
      <trkpt lat="43.98715" lon="2.9998">
        <ele>825.3</ele>
        <time>2026-04-30T12:36:05.999Z</time>
      </trkpt>
      <trkpt lat="43.98715" lon="2.9998">
        <ele>825.5</ele>
        <time>2026-04-30T12:36:06.999Z</time>
      </trkpt>
      <trkpt lat="43.98715" lon="2.9998">
        <ele>825.4</ele>
        <time>2026-04-30T12:36:07.999Z</time>
      </trkpt>
      <trkpt lat="43.98715" lon="2.9998">
        <ele>825.3</ele>
        <time>2026-04-30T12:36:08.999Z</time>
      </trkpt>
      <trkpt lat="43.98715" lon="2.9998">
        <ele>825.4</ele>
        <time>2026-04-30T12:36:09.999Z</time>
      </trkpt>
      <trkpt lat="43.98715" lon="2.9998">
        <ele>825.3</ele>
        <time>2026-04-30T12:36:10.999Z</time>
      </trkpt>
      <trkpt lat="43.98715" lon="2.9998">
        <ele>825.2</ele>
        <time>2026-04-30T12:36:11.999Z</time>
      </trkpt>
      <trkpt lat="43.98715" lon="2.9998">
        <ele>825.1</ele>
        <time>2026-04-30T12:36:12.999Z</time>
      </trkpt>
      <trkpt lat="43.98715" lon="2.9998">
        <ele>825.2</ele>
        <time>2026-04-30T12:36:13.999Z</time>
      </trkpt>
      <trkpt lat="43.98715" lon="2.9998">
        <ele>825.3</ele>
        <time>2026-04-30T12:36:14.999Z</time>
      </trkpt>
      <trkpt lat="43.98715" lon="2.9998">
        <ele>825.3</ele>
        <time>2026-04-30T12:36:15.999Z</time>
      </trkpt>
      <trkpt lat="43.98716" lon="2.9998">
        <ele>825.3</ele>
        <time>2026-04-30T12:36:16.999Z</time>
      </trkpt>
      <trkpt lat="43.98717" lon="2.9998">
        <ele>825.1</ele>
        <time>2026-04-30T12:36:17.999Z</time>
      </trkpt>
      <trkpt lat="43.98717" lon="2.9998">
        <ele>825.1</ele>
        <time>2026-04-30T12:36:18.999Z</time>
      </trkpt>
      <trkpt lat="43.98717" lon="2.9998">
        <ele>825.2</ele>
        <time>2026-04-30T12:36:19.999Z</time>
      </trkpt>
      <trkpt lat="43.98717" lon="2.9998">
        <ele>825.2</ele>
        <time>2026-04-30T12:36:20.999Z</time>
      </trkpt>
      <trkpt lat="43.98717" lon="2.9998">
        <ele>825.1</ele>
        <time>2026-04-30T12:36:21.999Z</time>
      </trkpt>
      <trkpt lat="43.98717" lon="2.9998">
        <ele>825.2</ele>
        <time>2026-04-30T12:36:22.999Z</time>
      </trkpt>
      <trkpt lat="43.98717" lon="2.9998">
        <ele>825.1</ele>
        <time>2026-04-30T12:36:23.999Z</time>
      </trkpt>
      <trkpt lat="43.98717" lon="2.9998">
        <ele>825</ele>
        <time>2026-04-30T12:36:24.999Z</time>
      </trkpt>
      <trkpt lat="43.98717" lon="2.9998">
        <ele>824.9</ele>
        <time>2026-04-30T12:36:25.999Z</time>
      </trkpt>
      <trkpt lat="43.98718" lon="2.9998">
        <ele>824.7</ele>
        <time>2026-04-30T12:36:26.999Z</time>
      </trkpt>
      <trkpt lat="43.98718" lon="2.9998">
        <ele>824.5</ele>
        <time>2026-04-30T12:36:27.999Z</time>
      </trkpt>
      <trkpt lat="43.98718" lon="2.9998">
        <ele>824.1</ele>
        <time>2026-04-30T12:36:28.999Z</time>
      </trkpt>
      <trkpt lat="43.98719" lon="2.99979">
        <ele>823.7</ele>
        <time>2026-04-30T12:36:29.999Z</time>
      </trkpt>
      <trkpt lat="43.98721" lon="2.99978">
        <ele>823.4</ele>
        <time>2026-04-30T12:36:30.999Z</time>
      </trkpt>
      <trkpt lat="43.98722" lon="2.99978">
        <ele>823.1</ele>
        <time>2026-04-30T12:36:31.999Z</time>
      </trkpt>
      <trkpt lat="43.98723" lon="2.99977">
        <ele>822.7</ele>
        <time>2026-04-30T12:36:32.999Z</time>
      </trkpt>
      <trkpt lat="43.98724" lon="2.99976">
        <ele>822.9</ele>
        <time>2026-04-30T12:36:33.999Z</time>
      </trkpt>
      <trkpt lat="43.98725" lon="2.99976">
        <ele>822.8</ele>
        <time>2026-04-30T12:36:34.999Z</time>
      </trkpt>
      <trkpt lat="43.98725" lon="2.99976">
        <ele>822.6</ele>
        <time>2026-04-30T12:36:35.999Z</time>
      </trkpt>
      <trkpt lat="43.98726" lon="2.99975">
        <ele>822.2</ele>
        <time>2026-04-30T12:36:36.999Z</time>
      </trkpt>
      <trkpt lat="43.98727" lon="2.99975">
        <ele>821.8</ele>
        <time>2026-04-30T12:36:37.999Z</time>
      </trkpt>
      <trkpt lat="43.98728" lon="2.99975">
        <ele>821.6</ele>
        <time>2026-04-30T12:36:38.999Z</time>
      </trkpt>
      <trkpt lat="43.98728" lon="2.99976">
        <ele>821.2</ele>
        <time>2026-04-30T12:36:39.999Z</time>
      </trkpt>
      <trkpt lat="43.98729" lon="2.99976">
        <ele>821</ele>
        <time>2026-04-30T12:36:40.999Z</time>
      </trkpt>
      <trkpt lat="43.9873" lon="2.99976">
        <ele>820.8</ele>
        <time>2026-04-30T12:36:41.999Z</time>
      </trkpt>
      <trkpt lat="43.9873" lon="2.99976">
        <ele>820.8</ele>
        <time>2026-04-30T12:36:42.999Z</time>
      </trkpt>
      <trkpt lat="43.98731" lon="2.99976">
        <ele>820.5</ele>
        <time>2026-04-30T12:36:43.999Z</time>
      </trkpt>
      <trkpt lat="43.98732" lon="2.99975">
        <ele>820.2</ele>
        <time>2026-04-30T12:36:44.999Z</time>
      </trkpt>
      <trkpt lat="43.98732" lon="2.99974">
        <ele>819.8</ele>
        <time>2026-04-30T12:36:45.999Z</time>
      </trkpt>
      <trkpt lat="43.98733" lon="2.99974">
        <ele>819.4</ele>
        <time>2026-04-30T12:36:46.999Z</time>
      </trkpt>
      <trkpt lat="43.98734" lon="2.99973">
        <ele>819.2</ele>
        <time>2026-04-30T12:36:47.999Z</time>
      </trkpt>
      <trkpt lat="43.98735" lon="2.99972">
        <ele>819</ele>
        <time>2026-04-30T12:36:48.999Z</time>
      </trkpt>
      <trkpt lat="43.98736" lon="2.99971">
        <ele>818.7</ele>
        <time>2026-04-30T12:36:49.999Z</time>
      </trkpt>
      <trkpt lat="43.98736" lon="2.99971">
        <ele>818.8</ele>
        <time>2026-04-30T12:36:50.999Z</time>
      </trkpt>
      <trkpt lat="43.98736" lon="2.99972">
        <ele>818.3</ele>
        <time>2026-04-30T12:36:51.999Z</time>
      </trkpt>
      <trkpt lat="43.98736" lon="2.99972">
        <ele>818.7</ele>
        <time>2026-04-30T12:36:52.999Z</time>
      </trkpt>
      <trkpt lat="43.98736" lon="2.99972">
        <ele>818.5</ele>
        <time>2026-04-30T12:36:53.999Z</time>
      </trkpt>
      <trkpt lat="43.98736" lon="2.99972">
        <ele>818.2</ele>
        <time>2026-04-30T12:36:54.999Z</time>
      </trkpt>
      <trkpt lat="43.98737" lon="2.99972">
        <ele>817.9</ele>
        <time>2026-04-30T12:36:55.999Z</time>
      </trkpt>
      <trkpt lat="43.98737" lon="2.99973">
        <ele>817.6</ele>
        <time>2026-04-30T12:36:56.999Z</time>
      </trkpt>
      <trkpt lat="43.98738" lon="2.99973">
        <ele>817.3</ele>
        <time>2026-04-30T12:36:57.999Z</time>
      </trkpt>
      <trkpt lat="43.98738" lon="2.99973">
        <ele>817.1</ele>
        <time>2026-04-30T12:36:58.999Z</time>
      </trkpt>
      <trkpt lat="43.98739" lon="2.99973">
        <ele>816.8</ele>
        <time>2026-04-30T12:36:59.999Z</time>
      </trkpt>
      <trkpt lat="43.98739" lon="2.99973">
        <ele>816.6</ele>
        <time>2026-04-30T12:37:00.999Z</time>
      </trkpt>
      <trkpt lat="43.98742" lon="2.99974">
        <ele>816.3</ele>
        <time>2026-04-30T12:37:01.999Z</time>
      </trkpt>
      <trkpt lat="43.98743" lon="2.99975">
        <ele>816.1</ele>
        <time>2026-04-30T12:37:02.999Z</time>
      </trkpt>
      <trkpt lat="43.98745" lon="2.99975">
        <ele>815.9</ele>
        <time>2026-04-30T12:37:03.999Z</time>
      </trkpt>
      <trkpt lat="43.98746" lon="2.99976">
        <ele>815.6</ele>
        <time>2026-04-30T12:37:04.999Z</time>
      </trkpt>
      <trkpt lat="43.98747" lon="2.99975">
        <ele>815.2</ele>
        <time>2026-04-30T12:37:05.999Z</time>
      </trkpt>
      <trkpt lat="43.98748" lon="2.99973">
        <ele>814.8</ele>
        <time>2026-04-30T12:37:06.999Z</time>
      </trkpt>
      <trkpt lat="43.98749" lon="2.99972">
        <ele>814.7</ele>
        <time>2026-04-30T12:37:07.999Z</time>
      </trkpt>
      <trkpt lat="43.9875" lon="2.99973">
        <ele>814.5</ele>
        <time>2026-04-30T12:37:08.999Z</time>
      </trkpt>
      <trkpt lat="43.9875" lon="2.99973">
        <ele>814.3</ele>
        <time>2026-04-30T12:37:09.999Z</time>
      </trkpt>
      <trkpt lat="43.98751" lon="2.99973">
        <ele>813.9</ele>
        <time>2026-04-30T12:37:10.999Z</time>
      </trkpt>
      <trkpt lat="43.98752" lon="2.99972">
        <ele>813.4</ele>
        <time>2026-04-30T12:37:11.999Z</time>
      </trkpt>
      <trkpt lat="43.98753" lon="2.99972">
        <ele>813.3</ele>
        <time>2026-04-30T12:37:12.999Z</time>
      </trkpt>
      <trkpt lat="43.98754" lon="2.99971">
        <ele>813.2</ele>
        <time>2026-04-30T12:37:13.999Z</time>
      </trkpt>
      <trkpt lat="43.98754" lon="2.99971">
        <ele>812.9</ele>
        <time>2026-04-30T12:37:14.999Z</time>
      </trkpt>
      <trkpt lat="43.98755" lon="2.99972">
        <ele>812.9</ele>
        <time>2026-04-30T12:37:15.999Z</time>
      </trkpt>
      <trkpt lat="43.98756" lon="2.99973">
        <ele>812.7</ele>
        <time>2026-04-30T12:37:16.999Z</time>
      </trkpt>
      <trkpt lat="43.98757" lon="2.99972">
        <ele>812.6</ele>
        <time>2026-04-30T12:37:17.999Z</time>
      </trkpt>
      <trkpt lat="43.98758" lon="2.9997">
        <ele>812.4</ele>
        <time>2026-04-30T12:37:18.999Z</time>
      </trkpt>
      <trkpt lat="43.98759" lon="2.99968">
        <ele>812</ele>
        <time>2026-04-30T12:37:19.999Z</time>
      </trkpt>
      <trkpt lat="43.9876" lon="2.99967">
        <ele>811.5</ele>
        <time>2026-04-30T12:37:20.999Z</time>
      </trkpt>
      <trkpt lat="43.9876" lon="2.99966">
        <ele>811.2</ele>
        <time>2026-04-30T12:37:21.999Z</time>
      </trkpt>
      <trkpt lat="43.98761" lon="2.99966">
        <ele>810.9</ele>
        <time>2026-04-30T12:37:22.999Z</time>
      </trkpt>
      <trkpt lat="43.98762" lon="2.99966">
        <ele>810.8</ele>
        <time>2026-04-30T12:37:23.999Z</time>
      </trkpt>
      <trkpt lat="43.98762" lon="2.99966">
        <ele>810.4</ele>
        <time>2026-04-30T12:37:24.999Z</time>
      </trkpt>
      <trkpt lat="43.98762" lon="2.99965">
        <ele>810.1</ele>
        <time>2026-04-30T12:37:25.999Z</time>
      </trkpt>
      <trkpt lat="43.98763" lon="2.99964">
        <ele>809.7</ele>
        <time>2026-04-30T12:37:26.999Z</time>
      </trkpt>
      <trkpt lat="43.98763" lon="2.99963">
        <ele>809.2</ele>
        <time>2026-04-30T12:37:27.999Z</time>
      </trkpt>
      <trkpt lat="43.98764" lon="2.99963">
        <ele>808.7</ele>
        <time>2026-04-30T12:37:28.999Z</time>
      </trkpt>
      <trkpt lat="43.98766" lon="2.99963">
        <ele>808.3</ele>
        <time>2026-04-30T12:37:29.999Z</time>
      </trkpt>
      <trkpt lat="43.98767" lon="2.99962">
        <ele>808.2</ele>
        <time>2026-04-30T12:37:30.999Z</time>
      </trkpt>
      <trkpt lat="43.98767" lon="2.99961">
        <ele>807.9</ele>
        <time>2026-04-30T12:37:31.999Z</time>
      </trkpt>
      <trkpt lat="43.98767" lon="2.99959">
        <ele>807.4</ele>
        <time>2026-04-30T12:37:32.999Z</time>
      </trkpt>
      <trkpt lat="43.98768" lon="2.99958">
        <ele>807.2</ele>
        <time>2026-04-30T12:37:33.999Z</time>
      </trkpt>
      <trkpt lat="43.98768" lon="2.99957">
        <ele>807.1</ele>
        <time>2026-04-30T12:37:34.999Z</time>
      </trkpt>
      <trkpt lat="43.98768" lon="2.99956">
        <ele>806.8</ele>
        <time>2026-04-30T12:37:35.999Z</time>
      </trkpt>
      <trkpt lat="43.98768" lon="2.99954">
        <ele>806.5</ele>
        <time>2026-04-30T12:37:36.999Z</time>
      </trkpt>
      <trkpt lat="43.98768" lon="2.99956">
        <ele>806.3</ele>
        <time>2026-04-30T12:37:37.999Z</time>
      </trkpt>
      <trkpt lat="43.98768" lon="2.99955">
        <ele>806.5</ele>
        <time>2026-04-30T12:37:38.999Z</time>
      </trkpt>
      <trkpt lat="43.98769" lon="2.99956">
        <ele>806.4</ele>
        <time>2026-04-30T12:37:39.999Z</time>
      </trkpt>
      <trkpt lat="43.98769" lon="2.99956">
        <ele>806.2</ele>
        <time>2026-04-30T12:37:40.999Z</time>
      </trkpt>
      <trkpt lat="43.98769" lon="2.99957">
        <ele>805.9</ele>
        <time>2026-04-30T12:37:41.999Z</time>
      </trkpt>
      <trkpt lat="43.9877" lon="2.99957">
        <ele>805.5</ele>
        <time>2026-04-30T12:37:42.999Z</time>
      </trkpt>
      <trkpt lat="43.98769" lon="2.99957">
        <ele>804.1</ele>
        <time>2026-04-30T12:37:43.999Z</time>
      </trkpt>
      <trkpt lat="43.98769" lon="2.99957">
        <ele>804</ele>
        <time>2026-04-30T12:37:44.999Z</time>
      </trkpt>
      <trkpt lat="43.98769" lon="2.99957">
        <ele>803.9</ele>
        <time>2026-04-30T12:37:45.999Z</time>
      </trkpt>
      <trkpt lat="43.98769" lon="2.99957">
        <ele>804.2</ele>
        <time>2026-04-30T12:37:46.999Z</time>
      </trkpt>
      <trkpt lat="43.98769" lon="2.99957">
        <ele>804.3</ele>
        <time>2026-04-30T12:37:47.999Z</time>
      </trkpt>
      <trkpt lat="43.98769" lon="2.99956">
        <ele>804.7</ele>
        <time>2026-04-30T12:37:48.999Z</time>
      </trkpt>
      <trkpt lat="43.98769" lon="2.99956">
        <ele>804.9</ele>
        <time>2026-04-30T12:37:49.999Z</time>
      </trkpt>
      <trkpt lat="43.98768" lon="2.99956">
        <ele>804.6</ele>
        <time>2026-04-30T12:37:50.999Z</time>
      </trkpt>
      <trkpt lat="43.98769" lon="2.99956">
        <ele>804.3</ele>
        <time>2026-04-30T12:37:51.999Z</time>
      </trkpt>
      <trkpt lat="43.98769" lon="2.99957">
        <ele>803.9</ele>
        <time>2026-04-30T12:37:52.999Z</time>
      </trkpt>
      <trkpt lat="43.98769" lon="2.99957">
        <ele>804</ele>
        <time>2026-04-30T12:37:53.999Z</time>
      </trkpt>
      <trkpt lat="43.98769" lon="2.99957">
        <ele>804.2</ele>
        <time>2026-04-30T12:37:54.999Z</time>
      </trkpt>
      <trkpt lat="43.98769" lon="2.99957">
        <ele>804.4</ele>
        <time>2026-04-30T12:37:55.999Z</time>
      </trkpt>
      <trkpt lat="43.98769" lon="2.99957">
        <ele>804.7</ele>
        <time>2026-04-30T12:37:56.999Z</time>
      </trkpt>
      <trkpt lat="43.98769" lon="2.99958">
        <ele>804.7</ele>
        <time>2026-04-30T12:37:57.999Z</time>
      </trkpt>
      <trkpt lat="43.98769" lon="2.99958">
        <ele>804.8</ele>
        <time>2026-04-30T12:37:58.999Z</time>
      </trkpt>
      <trkpt lat="43.9877" lon="2.9996">
        <ele>804.7</ele>
        <time>2026-04-30T12:37:59.999Z</time>
      </trkpt>
      <trkpt lat="43.98771" lon="2.99961">
        <ele>804.4</ele>
        <time>2026-04-30T12:38:00.999Z</time>
      </trkpt>
      <trkpt lat="43.98771" lon="2.99962">
        <ele>804.6</ele>
        <time>2026-04-30T12:38:01.999Z</time>
      </trkpt>
      <trkpt lat="43.98772" lon="2.99963">
        <ele>805.2</ele>
        <time>2026-04-30T12:38:02.999Z</time>
      </trkpt>
      <trkpt lat="43.98772" lon="2.99963">
        <ele>805.7</ele>
        <time>2026-04-30T12:38:03.999Z</time>
      </trkpt>
      <trkpt lat="43.98772" lon="2.99963">
        <ele>805.7</ele>
        <time>2026-04-30T12:38:04.999Z</time>
      </trkpt>
      <trkpt lat="43.98771" lon="2.99963">
        <ele>805.9</ele>
        <time>2026-04-30T12:38:05.999Z</time>
      </trkpt>
      <trkpt lat="43.98771" lon="2.99963">
        <ele>806.6</ele>
        <time>2026-04-30T12:38:06.999Z</time>
      </trkpt>
      <trkpt lat="43.98771" lon="2.99963">
        <ele>807.3</ele>
        <time>2026-04-30T12:38:07.999Z</time>
      </trkpt>
      <trkpt lat="43.98771" lon="2.99963">
        <ele>807.8</ele>
        <time>2026-04-30T12:38:08.999Z</time>
      </trkpt>
      <trkpt lat="43.98771" lon="2.99963">
        <ele>808.2</ele>
        <time>2026-04-30T12:38:09.999Z</time>
      </trkpt>
      <trkpt lat="43.98771" lon="2.99963">
        <ele>808</ele>
        <time>2026-04-30T12:38:10.999Z</time>
      </trkpt>
      <trkpt lat="43.98772" lon="2.99964">
        <ele>807.6</ele>
        <time>2026-04-30T12:38:11.999Z</time>
      </trkpt>
      <trkpt lat="43.98772" lon="2.99965">
        <ele>807.3</ele>
        <time>2026-04-30T12:38:12.999Z</time>
      </trkpt>
      <trkpt lat="43.98772" lon="2.99964">
        <ele>806.8</ele>
        <time>2026-04-30T12:38:13.999Z</time>
      </trkpt>
      <trkpt lat="43.98773" lon="2.99964">
        <ele>806.5</ele>
        <time>2026-04-30T12:38:14.999Z</time>
      </trkpt>
      <trkpt lat="43.98773" lon="2.99963">
        <ele>806.2</ele>
        <time>2026-04-30T12:38:15.999Z</time>
      </trkpt>
      <trkpt lat="43.98773" lon="2.99963">
        <ele>805.8</ele>
        <time>2026-04-30T12:38:16.999Z</time>
      </trkpt>
      <trkpt lat="43.98773" lon="2.99963">
        <ele>805.4</ele>
        <time>2026-04-30T12:38:17.999Z</time>
      </trkpt>
      <trkpt lat="43.98773" lon="2.99963">
        <ele>805</ele>
        <time>2026-04-30T12:38:18.999Z</time>
      </trkpt>
      <trkpt lat="43.98773" lon="2.99963">
        <ele>804.8</ele>
        <time>2026-04-30T12:38:19.999Z</time>
      </trkpt>
      <trkpt lat="43.98773" lon="2.99963">
        <ele>804.9</ele>
        <time>2026-04-30T12:38:20.999Z</time>
      </trkpt>
      <trkpt lat="43.98773" lon="2.99962">
        <ele>804.8</ele>
        <time>2026-04-30T12:38:21.999Z</time>
      </trkpt>
      <trkpt lat="43.98773" lon="2.99962">
        <ele>804.9</ele>
        <time>2026-04-30T12:38:22.999Z</time>
      </trkpt>
      <trkpt lat="43.98773" lon="2.99963">
        <ele>804.9</ele>
        <time>2026-04-30T12:38:23.999Z</time>
      </trkpt>
      <trkpt lat="43.98773" lon="2.99963">
        <ele>804.5</ele>
        <time>2026-04-30T12:38:24.999Z</time>
      </trkpt>
      <trkpt lat="43.98773" lon="2.99963">
        <ele>804.3</ele>
        <time>2026-04-30T12:38:25.999Z</time>
      </trkpt>
      <trkpt lat="43.98773" lon="2.99964">
        <ele>804</ele>
        <time>2026-04-30T12:38:26.999Z</time>
      </trkpt>
      <trkpt lat="43.98773" lon="2.99964">
        <ele>803.6</ele>
        <time>2026-04-30T12:38:27.999Z</time>
      </trkpt>
      <trkpt lat="43.98774" lon="2.99965">
        <ele>803.5</ele>
        <time>2026-04-30T12:38:28.999Z</time>
      </trkpt>
      <trkpt lat="43.98775" lon="2.99966">
        <ele>803.4</ele>
        <time>2026-04-30T12:38:29.999Z</time>
      </trkpt>
      <trkpt lat="43.98776" lon="2.99968">
        <ele>803.1</ele>
        <time>2026-04-30T12:38:30.999Z</time>
      </trkpt>
      <trkpt lat="43.98777" lon="2.99968">
        <ele>802.7</ele>
        <time>2026-04-30T12:38:31.999Z</time>
      </trkpt>
      <trkpt lat="43.98778" lon="2.99968">
        <ele>802.8</ele>
        <time>2026-04-30T12:38:32.999Z</time>
      </trkpt>
      <trkpt lat="43.98778" lon="2.99966">
        <ele>802.7</ele>
        <time>2026-04-30T12:38:33.999Z</time>
      </trkpt>
      <trkpt lat="43.98779" lon="2.99965">
        <ele>802.6</ele>
        <time>2026-04-30T12:38:34.999Z</time>
      </trkpt>
      <trkpt lat="43.9878" lon="2.99964">
        <ele>802.7</ele>
        <time>2026-04-30T12:38:35.999Z</time>
      </trkpt>
      <trkpt lat="43.9878" lon="2.99964">
        <ele>802.3</ele>
        <time>2026-04-30T12:38:36.999Z</time>
      </trkpt>
      <trkpt lat="43.98781" lon="2.99963">
        <ele>801.8</ele>
        <time>2026-04-30T12:38:37.999Z</time>
      </trkpt>
      <trkpt lat="43.98782" lon="2.99963">
        <ele>801.7</ele>
        <time>2026-04-30T12:38:38.999Z</time>
      </trkpt>
      <trkpt lat="43.98783" lon="2.99963">
        <ele>801.4</ele>
        <time>2026-04-30T12:38:39.999Z</time>
      </trkpt>
      <trkpt lat="43.98783" lon="2.99964">
        <ele>801.5</ele>
        <time>2026-04-30T12:38:40.999Z</time>
      </trkpt>
      <trkpt lat="43.98783" lon="2.99964">
        <ele>801.2</ele>
        <time>2026-04-30T12:38:41.999Z</time>
      </trkpt>
      <trkpt lat="43.98783" lon="2.99965">
        <ele>801</ele>
        <time>2026-04-30T12:38:42.999Z</time>
      </trkpt>
      <trkpt lat="43.98783" lon="2.99965">
        <ele>801.2</ele>
        <time>2026-04-30T12:38:43.999Z</time>
      </trkpt>
      <trkpt lat="43.98783" lon="2.99965">
        <ele>801.3</ele>
        <time>2026-04-30T12:38:44.999Z</time>
      </trkpt>
      <trkpt lat="43.98783" lon="2.99966">
        <ele>801.2</ele>
        <time>2026-04-30T12:38:45.999Z</time>
      </trkpt>
      <trkpt lat="43.98783" lon="2.99966">
        <ele>801.2</ele>
        <time>2026-04-30T12:38:46.999Z</time>
      </trkpt>
      <trkpt lat="43.98784" lon="2.99967">
        <ele>800.9</ele>
        <time>2026-04-30T12:38:47.999Z</time>
      </trkpt>
      <trkpt lat="43.98786" lon="2.99968">
        <ele>800.9</ele>
        <time>2026-04-30T12:38:48.999Z</time>
      </trkpt>
      <trkpt lat="43.98787" lon="2.99967">
        <ele>800.6</ele>
        <time>2026-04-30T12:38:49.999Z</time>
      </trkpt>
      <trkpt lat="43.98789" lon="2.99966">
        <ele>800.6</ele>
        <time>2026-04-30T12:38:50.999Z</time>
      </trkpt>
      <trkpt lat="43.98789" lon="2.99965">
        <ele>801</ele>
        <time>2026-04-30T12:38:51.999Z</time>
      </trkpt>
      <trkpt lat="43.9879" lon="2.99965">
        <ele>800.9</ele>
        <time>2026-04-30T12:38:52.999Z</time>
      </trkpt>
      <trkpt lat="43.9879" lon="2.99965">
        <ele>800.9</ele>
        <time>2026-04-30T12:38:53.999Z</time>
      </trkpt>
      <trkpt lat="43.98791" lon="2.99966">
        <ele>801.2</ele>
        <time>2026-04-30T12:38:54.999Z</time>
      </trkpt>
      <trkpt lat="43.98792" lon="2.99966">
        <ele>801.4</ele>
        <time>2026-04-30T12:38:55.999Z</time>
      </trkpt>
      <trkpt lat="43.98792" lon="2.99966">
        <ele>801.3</ele>
        <time>2026-04-30T12:38:56.999Z</time>
      </trkpt>
      <trkpt lat="43.98793" lon="2.99965">
        <ele>801.3</ele>
        <time>2026-04-30T12:38:57.999Z</time>
      </trkpt>
      <trkpt lat="43.98794" lon="2.99965">
        <ele>801.3</ele>
        <time>2026-04-30T12:38:58.999Z</time>
      </trkpt>
      <trkpt lat="43.98794" lon="2.99964">
        <ele>801.1</ele>
        <time>2026-04-30T12:38:59.999Z</time>
      </trkpt>
      <trkpt lat="43.98795" lon="2.99963">
        <ele>800.7</ele>
        <time>2026-04-30T12:39:00.999Z</time>
      </trkpt>
      <trkpt lat="43.98795" lon="2.99962">
        <ele>800.5</ele>
        <time>2026-04-30T12:39:01.999Z</time>
      </trkpt>
      <trkpt lat="43.98796" lon="2.99961">
        <ele>800</ele>
        <time>2026-04-30T12:39:02.999Z</time>
      </trkpt>
      <trkpt lat="43.98796" lon="2.99961">
        <ele>799.7</ele>
        <time>2026-04-30T12:39:03.999Z</time>
      </trkpt>
      <trkpt lat="43.98798" lon="2.9996">
        <ele>799.3</ele>
        <time>2026-04-30T12:39:04.999Z</time>
      </trkpt>
      <trkpt lat="43.98799" lon="2.99959">
        <ele>799</ele>
        <time>2026-04-30T12:39:05.999Z</time>
      </trkpt>
      <trkpt lat="43.988" lon="2.99959">
        <ele>798.9</ele>
        <time>2026-04-30T12:39:06.999Z</time>
      </trkpt>
      <trkpt lat="43.98801" lon="2.99958">
        <ele>798.4</ele>
        <time>2026-04-30T12:39:07.999Z</time>
      </trkpt>
      <trkpt lat="43.98802" lon="2.99957">
        <ele>798.2</ele>
        <time>2026-04-30T12:39:08.999Z</time>
      </trkpt>
      <trkpt lat="43.98803" lon="2.99956">
        <ele>798.1</ele>
        <time>2026-04-30T12:39:09.999Z</time>
      </trkpt>
      <trkpt lat="43.98803" lon="2.99956">
        <ele>797.9</ele>
        <time>2026-04-30T12:39:10.999Z</time>
      </trkpt>
      <trkpt lat="43.98805" lon="2.99955">
        <ele>797.6</ele>
        <time>2026-04-30T12:39:11.999Z</time>
      </trkpt>
      <trkpt lat="43.98806" lon="2.99956">
        <ele>797.1</ele>
        <time>2026-04-30T12:39:12.999Z</time>
      </trkpt>
      <trkpt lat="43.98807" lon="2.99956">
        <ele>796.5</ele>
        <time>2026-04-30T12:39:13.999Z</time>
      </trkpt>
      <trkpt lat="43.98808" lon="2.99956">
        <ele>796.4</ele>
        <time>2026-04-30T12:39:14.999Z</time>
      </trkpt>
      <trkpt lat="43.98808" lon="2.99956">
        <ele>796.2</ele>
        <time>2026-04-30T12:39:15.999Z</time>
      </trkpt>
      <trkpt lat="43.98809" lon="2.99956">
        <ele>795.8</ele>
        <time>2026-04-30T12:39:16.999Z</time>
      </trkpt>
      <trkpt lat="43.9881" lon="2.99955">
        <ele>795.3</ele>
        <time>2026-04-30T12:39:17.999Z</time>
      </trkpt>
      <trkpt lat="43.98811" lon="2.99954">
        <ele>794.8</ele>
        <time>2026-04-30T12:39:18.999Z</time>
      </trkpt>
      <trkpt lat="43.98812" lon="2.99953">
        <ele>794.8</ele>
        <time>2026-04-30T12:39:19.999Z</time>
      </trkpt>
      <trkpt lat="43.98813" lon="2.99952">
        <ele>795.1</ele>
        <time>2026-04-30T12:39:20.999Z</time>
      </trkpt>
      <trkpt lat="43.98813" lon="2.9995">
        <ele>795.4</ele>
        <time>2026-04-30T12:39:21.999Z</time>
      </trkpt>
      <trkpt lat="43.98814" lon="2.99949">
        <ele>795.6</ele>
        <time>2026-04-30T12:39:22.999Z</time>
      </trkpt>
      <trkpt lat="43.98815" lon="2.99948">
        <ele>795.2</ele>
        <time>2026-04-30T12:39:23.999Z</time>
      </trkpt>
      <trkpt lat="43.98815" lon="2.99948">
        <ele>794.8</ele>
        <time>2026-04-30T12:39:24.999Z</time>
      </trkpt>
      <trkpt lat="43.98815" lon="2.99948">
        <ele>794</ele>
        <time>2026-04-30T12:39:25.999Z</time>
      </trkpt>
      <trkpt lat="43.98816" lon="2.99947">
        <ele>794.2</ele>
        <time>2026-04-30T12:39:26.999Z</time>
      </trkpt>
      <trkpt lat="43.98817" lon="2.99946">
        <ele>794.1</ele>
        <time>2026-04-30T12:39:27.999Z</time>
      </trkpt>
      <trkpt lat="43.98817" lon="2.99945">
        <ele>793.9</ele>
        <time>2026-04-30T12:39:28.999Z</time>
      </trkpt>
      <trkpt lat="43.98818" lon="2.99943">
        <ele>793.9</ele>
        <time>2026-04-30T12:39:29.999Z</time>
      </trkpt>
      <trkpt lat="43.98819" lon="2.99942">
        <ele>793.6</ele>
        <time>2026-04-30T12:39:30.999Z</time>
      </trkpt>
      <trkpt lat="43.98819" lon="2.99941">
        <ele>793.4</ele>
        <time>2026-04-30T12:39:31.999Z</time>
      </trkpt>
      <trkpt lat="43.98819" lon="2.9994">
        <ele>793.6</ele>
        <time>2026-04-30T12:39:32.999Z</time>
      </trkpt>
      <trkpt lat="43.98819" lon="2.99939">
        <ele>793.5</ele>
        <time>2026-04-30T12:39:33.999Z</time>
      </trkpt>
      <trkpt lat="43.9882" lon="2.99937">
        <ele>793.2</ele>
        <time>2026-04-30T12:39:34.999Z</time>
      </trkpt>
      <trkpt lat="43.98821" lon="2.99935">
        <ele>792.7</ele>
        <time>2026-04-30T12:39:35.999Z</time>
      </trkpt>
      <trkpt lat="43.98822" lon="2.99934">
        <ele>792.4</ele>
        <time>2026-04-30T12:39:36.999Z</time>
      </trkpt>
      <trkpt lat="43.98824" lon="2.99933">
        <ele>793.7</ele>
        <time>2026-04-30T12:39:37.999Z</time>
      </trkpt>
      <trkpt lat="43.98824" lon="2.99933">
        <ele>793.5</ele>
        <time>2026-04-30T12:39:38.999Z</time>
      </trkpt>
      <trkpt lat="43.98824" lon="2.99932">
        <ele>793.5</ele>
        <time>2026-04-30T12:39:39.999Z</time>
      </trkpt>
      <trkpt lat="43.98825" lon="2.99931">
        <ele>793.7</ele>
        <time>2026-04-30T12:39:40.999Z</time>
      </trkpt>
      <trkpt lat="43.98826" lon="2.99929">
        <ele>793.4</ele>
        <time>2026-04-30T12:39:41.999Z</time>
      </trkpt>
      <trkpt lat="43.98827" lon="2.99928">
        <ele>793.3</ele>
        <time>2026-04-30T12:39:42.999Z</time>
      </trkpt>
      <trkpt lat="43.98828" lon="2.99927">
        <ele>793.1</ele>
        <time>2026-04-30T12:39:43.999Z</time>
      </trkpt>
      <trkpt lat="43.98829" lon="2.99926">
        <ele>793</ele>
        <time>2026-04-30T12:39:44.999Z</time>
      </trkpt>
      <trkpt lat="43.9883" lon="2.99926">
        <ele>793</ele>
        <time>2026-04-30T12:39:45.999Z</time>
      </trkpt>
      <trkpt lat="43.9883" lon="2.99927">
        <ele>793.3</ele>
        <time>2026-04-30T12:39:46.999Z</time>
      </trkpt>
      <trkpt lat="43.98832" lon="2.99927">
        <ele>793.8</ele>
        <time>2026-04-30T12:39:47.999Z</time>
      </trkpt>
      <trkpt lat="43.98834" lon="2.99927">
        <ele>794.1</ele>
        <time>2026-04-30T12:39:48.999Z</time>
      </trkpt>
      <trkpt lat="43.98835" lon="2.99926">
        <ele>794.1</ele>
        <time>2026-04-30T12:39:49.999Z</time>
      </trkpt>
      <trkpt lat="43.98836" lon="2.99926">
        <ele>794</ele>
        <time>2026-04-30T12:39:50.999Z</time>
      </trkpt>
      <trkpt lat="43.98838" lon="2.99926">
        <ele>794.2</ele>
        <time>2026-04-30T12:39:51.999Z</time>
      </trkpt>
      <trkpt lat="43.98838" lon="2.99926">
        <ele>794.5</ele>
        <time>2026-04-30T12:39:52.999Z</time>
      </trkpt>
      <trkpt lat="43.98839" lon="2.99927">
        <ele>794.9</ele>
        <time>2026-04-30T12:39:53.999Z</time>
      </trkpt>
      <trkpt lat="43.9884" lon="2.99927">
        <ele>795</ele>
        <time>2026-04-30T12:39:54.999Z</time>
      </trkpt>
      <trkpt lat="43.98841" lon="2.99926">
        <ele>795</ele>
        <time>2026-04-30T12:39:55.999Z</time>
      </trkpt>
      <trkpt lat="43.98841" lon="2.99926">
        <ele>794.8</ele>
        <time>2026-04-30T12:39:56.999Z</time>
      </trkpt>
      <trkpt lat="43.98842" lon="2.99926">
        <ele>795.1</ele>
        <time>2026-04-30T12:39:57.999Z</time>
      </trkpt>
      <trkpt lat="43.98842" lon="2.99926">
        <ele>795.2</ele>
        <time>2026-04-30T12:39:58.999Z</time>
      </trkpt>
      <trkpt lat="43.98842" lon="2.99925">
        <ele>795.7</ele>
        <time>2026-04-30T12:39:59.999Z</time>
      </trkpt>
      <trkpt lat="43.98842" lon="2.99924">
        <ele>795.7</ele>
        <time>2026-04-30T12:40:00.999Z</time>
      </trkpt>
      <trkpt lat="43.98842" lon="2.99924">
        <ele>796</ele>
        <time>2026-04-30T12:40:01.999Z</time>
      </trkpt>
      <trkpt lat="43.98842" lon="2.99923">
        <ele>796.5</ele>
        <time>2026-04-30T12:40:02.999Z</time>
      </trkpt>
      <trkpt lat="43.98842" lon="2.99923">
        <ele>796.2</ele>
        <time>2026-04-30T12:40:03.999Z</time>
      </trkpt>
      <trkpt lat="43.98842" lon="2.99924">
        <ele>796.1</ele>
        <time>2026-04-30T12:40:04.999Z</time>
      </trkpt>
      <trkpt lat="43.98843" lon="2.99923">
        <ele>795.9</ele>
        <time>2026-04-30T12:40:05.999Z</time>
      </trkpt>
      <trkpt lat="43.98844" lon="2.99923">
        <ele>795.8</ele>
        <time>2026-04-30T12:40:06.999Z</time>
      </trkpt>
      <trkpt lat="43.98846" lon="2.99923">
        <ele>795.8</ele>
        <time>2026-04-30T12:40:07.999Z</time>
      </trkpt>
      <trkpt lat="43.98847" lon="2.99924">
        <ele>795.7</ele>
        <time>2026-04-30T12:40:08.999Z</time>
      </trkpt>
      <trkpt lat="43.98848" lon="2.99924">
        <ele>795.6</ele>
        <time>2026-04-30T12:40:09.999Z</time>
      </trkpt>
      <trkpt lat="43.9885" lon="2.99923">
        <ele>795.6</ele>
        <time>2026-04-30T12:40:10.999Z</time>
      </trkpt>
      <trkpt lat="43.9885" lon="2.99922">
        <ele>795.8</ele>
        <time>2026-04-30T12:40:11.999Z</time>
      </trkpt>
      <trkpt lat="43.98852" lon="2.99921">
        <ele>796</ele>
        <time>2026-04-30T12:40:12.999Z</time>
      </trkpt>
      <trkpt lat="43.98853" lon="2.99921">
        <ele>796</ele>
        <time>2026-04-30T12:40:13.999Z</time>
      </trkpt>
      <trkpt lat="43.98853" lon="2.99921">
        <ele>795.8</ele>
        <time>2026-04-30T12:40:14.999Z</time>
      </trkpt>
      <trkpt lat="43.98854" lon="2.9992">
        <ele>795.8</ele>
        <time>2026-04-30T12:40:15.999Z</time>
      </trkpt>
      <trkpt lat="43.98855" lon="2.99919">
        <ele>795.9</ele>
        <time>2026-04-30T12:40:16.999Z</time>
      </trkpt>
      <trkpt lat="43.98856" lon="2.99918">
        <ele>795.9</ele>
        <time>2026-04-30T12:40:17.999Z</time>
      </trkpt>
      <trkpt lat="43.98858" lon="2.99918">
        <ele>795.9</ele>
        <time>2026-04-30T12:40:18.999Z</time>
      </trkpt>
      <trkpt lat="43.98859" lon="2.99919">
        <ele>795.7</ele>
        <time>2026-04-30T12:40:19.999Z</time>
      </trkpt>
      <trkpt lat="43.9886" lon="2.99918">
        <ele>795.5</ele>
        <time>2026-04-30T12:40:20.999Z</time>
      </trkpt>
      <trkpt lat="43.98861" lon="2.99918">
        <ele>795.4</ele>
        <time>2026-04-30T12:40:21.999Z</time>
      </trkpt>
      <trkpt lat="43.98862" lon="2.99917">
        <ele>795.2</ele>
        <time>2026-04-30T12:40:22.999Z</time>
      </trkpt>
      <trkpt lat="43.98863" lon="2.99917">
        <ele>795.2</ele>
        <time>2026-04-30T12:40:23.999Z</time>
      </trkpt>
      <trkpt lat="43.98864" lon="2.99916">
        <ele>795.2</ele>
        <time>2026-04-30T12:40:24.999Z</time>
      </trkpt>
      <trkpt lat="43.98865" lon="2.99915">
        <ele>795.5</ele>
        <time>2026-04-30T12:40:25.999Z</time>
      </trkpt>
      <trkpt lat="43.98866" lon="2.99915">
        <ele>796.1</ele>
        <time>2026-04-30T12:40:26.999Z</time>
      </trkpt>
      <trkpt lat="43.98867" lon="2.99914">
        <ele>796.2</ele>
        <time>2026-04-30T12:40:27.999Z</time>
      </trkpt>
      <trkpt lat="43.98868" lon="2.99914">
        <ele>796.2</ele>
        <time>2026-04-30T12:40:28.999Z</time>
      </trkpt>
      <trkpt lat="43.98869" lon="2.99914">
        <ele>795.9</ele>
        <time>2026-04-30T12:40:29.999Z</time>
      </trkpt>
      <trkpt lat="43.9887" lon="2.99914">
        <ele>795.7</ele>
        <time>2026-04-30T12:40:30.999Z</time>
      </trkpt>
      <trkpt lat="43.9887" lon="2.99914">
        <ele>795.5</ele>
        <time>2026-04-30T12:40:31.999Z</time>
      </trkpt>
      <trkpt lat="43.98872" lon="2.99914">
        <ele>795.4</ele>
        <time>2026-04-30T12:40:32.999Z</time>
      </trkpt>
      <trkpt lat="43.98872" lon="2.99914">
        <ele>795.7</ele>
        <time>2026-04-30T12:40:33.999Z</time>
      </trkpt>
      <trkpt lat="43.98873" lon="2.99914">
        <ele>795.8</ele>
        <time>2026-04-30T12:40:34.999Z</time>
      </trkpt>
      <trkpt lat="43.98874" lon="2.99914">
        <ele>796.1</ele>
        <time>2026-04-30T12:40:35.999Z</time>
      </trkpt>
      <trkpt lat="43.98875" lon="2.99913">
        <ele>796.1</ele>
        <time>2026-04-30T12:40:36.999Z</time>
      </trkpt>
      <trkpt lat="43.98876" lon="2.99913">
        <ele>796.2</ele>
        <time>2026-04-30T12:40:37.999Z</time>
      </trkpt>
      <trkpt lat="43.98877" lon="2.99913">
        <ele>796.4</ele>
        <time>2026-04-30T12:40:38.999Z</time>
      </trkpt>
      <trkpt lat="43.98879" lon="2.99913">
        <ele>796.5</ele>
        <time>2026-04-30T12:40:39.999Z</time>
      </trkpt>
      <trkpt lat="43.9888" lon="2.99913">
        <ele>796.7</ele>
        <time>2026-04-30T12:40:40.999Z</time>
      </trkpt>
      <trkpt lat="43.98881" lon="2.99913">
        <ele>797.2</ele>
        <time>2026-04-30T12:40:41.999Z</time>
      </trkpt>
      <trkpt lat="43.98882" lon="2.99912">
        <ele>797.5</ele>
        <time>2026-04-30T12:40:42.999Z</time>
      </trkpt>
      <trkpt lat="43.98883" lon="2.99912">
        <ele>797.7</ele>
        <time>2026-04-30T12:40:43.999Z</time>
      </trkpt>
      <trkpt lat="43.98885" lon="2.99911">
        <ele>798</ele>
        <time>2026-04-30T12:40:44.999Z</time>
      </trkpt>
      <trkpt lat="43.98886" lon="2.99912">
        <ele>798.1</ele>
        <time>2026-04-30T12:40:45.999Z</time>
      </trkpt>
      <trkpt lat="43.98887" lon="2.99911">
        <ele>798.5</ele>
        <time>2026-04-30T12:40:46.999Z</time>
      </trkpt>
      <trkpt lat="43.98889" lon="2.99911">
        <ele>798.7</ele>
        <time>2026-04-30T12:40:47.999Z</time>
      </trkpt>
      <trkpt lat="43.9889" lon="2.9991">
        <ele>798.9</ele>
        <time>2026-04-30T12:40:48.999Z</time>
      </trkpt>
      <trkpt lat="43.98891" lon="2.9991">
        <ele>799</ele>
        <time>2026-04-30T12:40:49.999Z</time>
      </trkpt>
      <trkpt lat="43.98892" lon="2.9991">
        <ele>799</ele>
        <time>2026-04-30T12:40:50.999Z</time>
      </trkpt>
      <trkpt lat="43.98893" lon="2.99909">
        <ele>798.9</ele>
        <time>2026-04-30T12:40:51.999Z</time>
      </trkpt>
      <trkpt lat="43.98895" lon="2.99909">
        <ele>798.7</ele>
        <time>2026-04-30T12:40:52.999Z</time>
      </trkpt>
      <trkpt lat="43.98896" lon="2.99909">
        <ele>798.7</ele>
        <time>2026-04-30T12:40:53.999Z</time>
      </trkpt>
      <trkpt lat="43.98897" lon="2.99909">
        <ele>799</ele>
        <time>2026-04-30T12:40:54.999Z</time>
      </trkpt>
      <trkpt lat="43.98898" lon="2.99909">
        <ele>799.2</ele>
        <time>2026-04-30T12:40:55.999Z</time>
      </trkpt>
      <trkpt lat="43.98898" lon="2.99909">
        <ele>799.2</ele>
        <time>2026-04-30T12:40:56.999Z</time>
      </trkpt>
      <trkpt lat="43.98899" lon="2.9991">
        <ele>799.2</ele>
        <time>2026-04-30T12:40:57.999Z</time>
      </trkpt>
      <trkpt lat="43.989" lon="2.9991">
        <ele>799.4</ele>
        <time>2026-04-30T12:40:58.999Z</time>
      </trkpt>
      <trkpt lat="43.98901" lon="2.9991">
        <ele>799.7</ele>
        <time>2026-04-30T12:40:59.999Z</time>
      </trkpt>
      <trkpt lat="43.98903" lon="2.99909">
        <ele>799.9</ele>
        <time>2026-04-30T12:41:00.999Z</time>
      </trkpt>
      <trkpt lat="43.98903" lon="2.99909">
        <ele>800.3</ele>
        <time>2026-04-30T12:41:01.999Z</time>
      </trkpt>
      <trkpt lat="43.98905" lon="2.99908">
        <ele>800.4</ele>
        <time>2026-04-30T12:41:02.999Z</time>
      </trkpt>
      <trkpt lat="43.98906" lon="2.99908">
        <ele>800.5</ele>
        <time>2026-04-30T12:41:03.999Z</time>
      </trkpt>
      <trkpt lat="43.98907" lon="2.99907">
        <ele>800.8</ele>
        <time>2026-04-30T12:41:04.999Z</time>
      </trkpt>
      <trkpt lat="43.98908" lon="2.99907">
        <ele>801.2</ele>
        <time>2026-04-30T12:41:05.999Z</time>
      </trkpt>
      <trkpt lat="43.9891" lon="2.99907">
        <ele>801.6</ele>
        <time>2026-04-30T12:41:06.999Z</time>
      </trkpt>
      <trkpt lat="43.98911" lon="2.99907">
        <ele>802</ele>
        <time>2026-04-30T12:41:07.999Z</time>
      </trkpt>
      <trkpt lat="43.98912" lon="2.99908">
        <ele>802.2</ele>
        <time>2026-04-30T12:41:08.999Z</time>
      </trkpt>
      <trkpt lat="43.98913" lon="2.99908">
        <ele>802.3</ele>
        <time>2026-04-30T12:41:09.999Z</time>
      </trkpt>
      <trkpt lat="43.98914" lon="2.99907">
        <ele>802.5</ele>
        <time>2026-04-30T12:41:10.999Z</time>
      </trkpt>
      <trkpt lat="43.98915" lon="2.99907">
        <ele>802.7</ele>
        <time>2026-04-30T12:41:11.999Z</time>
      </trkpt>
      <trkpt lat="43.98916" lon="2.99907">
        <ele>803.1</ele>
        <time>2026-04-30T12:41:12.999Z</time>
      </trkpt>
      <trkpt lat="43.98917" lon="2.99908">
        <ele>803.1</ele>
        <time>2026-04-30T12:41:13.999Z</time>
      </trkpt>
      <trkpt lat="43.98917" lon="2.99909">
        <ele>803</ele>
        <time>2026-04-30T12:41:14.999Z</time>
      </trkpt>
      <trkpt lat="43.98918" lon="2.99909">
        <ele>802.8</ele>
        <time>2026-04-30T12:41:15.999Z</time>
      </trkpt>
      <trkpt lat="43.98919" lon="2.99909">
        <ele>802.9</ele>
        <time>2026-04-30T12:41:16.999Z</time>
      </trkpt>
      <trkpt lat="43.9892" lon="2.99908">
        <ele>803.1</ele>
        <time>2026-04-30T12:41:17.999Z</time>
      </trkpt>
      <trkpt lat="43.98921" lon="2.99908">
        <ele>803.4</ele>
        <time>2026-04-30T12:41:18.999Z</time>
      </trkpt>
      <trkpt lat="43.98922" lon="2.99908">
        <ele>803.3</ele>
        <time>2026-04-30T12:41:19.999Z</time>
      </trkpt>
      <trkpt lat="43.98922" lon="2.99908">
        <ele>803.1</ele>
        <time>2026-04-30T12:41:20.999Z</time>
      </trkpt>
      <trkpt lat="43.98923" lon="2.99908">
        <ele>803.4</ele>
        <time>2026-04-30T12:41:21.999Z</time>
      </trkpt>
      <trkpt lat="43.98924" lon="2.99909">
        <ele>803.4</ele>
        <time>2026-04-30T12:41:22.999Z</time>
      </trkpt>
      <trkpt lat="43.98925" lon="2.99909">
        <ele>803.5</ele>
        <time>2026-04-30T12:41:23.999Z</time>
      </trkpt>
      <trkpt lat="43.98926" lon="2.99909">
        <ele>804</ele>
        <time>2026-04-30T12:41:24.999Z</time>
      </trkpt>
      <trkpt lat="43.98927" lon="2.99909">
        <ele>804.4</ele>
        <time>2026-04-30T12:41:25.999Z</time>
      </trkpt>
      <trkpt lat="43.98928" lon="2.99909">
        <ele>804.6</ele>
        <time>2026-04-30T12:41:26.999Z</time>
      </trkpt>
      <trkpt lat="43.98929" lon="2.99909">
        <ele>804.7</ele>
        <time>2026-04-30T12:41:27.999Z</time>
      </trkpt>
      <trkpt lat="43.98931" lon="2.99909">
        <ele>804.8</ele>
        <time>2026-04-30T12:41:28.999Z</time>
      </trkpt>
      <trkpt lat="43.98932" lon="2.99909">
        <ele>804.8</ele>
        <time>2026-04-30T12:41:29.999Z</time>
      </trkpt>
      <trkpt lat="43.98934" lon="2.9991">
        <ele>804.7</ele>
        <time>2026-04-30T12:41:30.999Z</time>
      </trkpt>
      <trkpt lat="43.98935" lon="2.99909">
        <ele>804.9</ele>
        <time>2026-04-30T12:41:31.999Z</time>
      </trkpt>
      <trkpt lat="43.98936" lon="2.9991">
        <ele>805.2</ele>
        <time>2026-04-30T12:41:32.999Z</time>
      </trkpt>
      <trkpt lat="43.98937" lon="2.9991">
        <ele>805.3</ele>
        <time>2026-04-30T12:41:33.999Z</time>
      </trkpt>
      <trkpt lat="43.98937" lon="2.9991">
        <ele>805.3</ele>
        <time>2026-04-30T12:41:34.999Z</time>
      </trkpt>
      <trkpt lat="43.98938" lon="2.9991">
        <ele>805.1</ele>
        <time>2026-04-30T12:41:35.999Z</time>
      </trkpt>
      <trkpt lat="43.98939" lon="2.99909">
        <ele>804.9</ele>
        <time>2026-04-30T12:41:36.999Z</time>
      </trkpt>
      <trkpt lat="43.9894" lon="2.99909">
        <ele>804.8</ele>
        <time>2026-04-30T12:41:37.999Z</time>
      </trkpt>
      <trkpt lat="43.98941" lon="2.99909">
        <ele>805.1</ele>
        <time>2026-04-30T12:41:38.999Z</time>
      </trkpt>
      <trkpt lat="43.98942" lon="2.99909">
        <ele>805.4</ele>
        <time>2026-04-30T12:41:39.999Z</time>
      </trkpt>
      <trkpt lat="43.98944" lon="2.99909">
        <ele>805.4</ele>
        <time>2026-04-30T12:41:40.999Z</time>
      </trkpt>
      <trkpt lat="43.98945" lon="2.99909">
        <ele>805.3</ele>
        <time>2026-04-30T12:41:41.999Z</time>
      </trkpt>
      <trkpt lat="43.98947" lon="2.99908">
        <ele>805.8</ele>
        <time>2026-04-30T12:41:42.999Z</time>
      </trkpt>
      <trkpt lat="43.98948" lon="2.99909">
        <ele>806.1</ele>
        <time>2026-04-30T12:41:43.999Z</time>
      </trkpt>
      <trkpt lat="43.98949" lon="2.99908">
        <ele>806.4</ele>
        <time>2026-04-30T12:41:44.999Z</time>
      </trkpt>
      <trkpt lat="43.9895" lon="2.99908">
        <ele>806.7</ele>
        <time>2026-04-30T12:41:45.999Z</time>
      </trkpt>
      <trkpt lat="43.98951" lon="2.99907">
        <ele>807.2</ele>
        <time>2026-04-30T12:41:46.999Z</time>
      </trkpt>
      <trkpt lat="43.98952" lon="2.99907">
        <ele>807</ele>
        <time>2026-04-30T12:41:47.999Z</time>
      </trkpt>
      <trkpt lat="43.98953" lon="2.99907">
        <ele>807.1</ele>
        <time>2026-04-30T12:41:48.999Z</time>
      </trkpt>
      <trkpt lat="43.98954" lon="2.99908">
        <ele>806.7</ele>
        <time>2026-04-30T12:41:49.999Z</time>
      </trkpt>
      <trkpt lat="43.98955" lon="2.99908">
        <ele>807</ele>
        <time>2026-04-30T12:41:50.999Z</time>
      </trkpt>
      <trkpt lat="43.98956" lon="2.99909">
        <ele>807.1</ele>
        <time>2026-04-30T12:41:51.999Z</time>
      </trkpt>
      <trkpt lat="43.98957" lon="2.9991">
        <ele>807.2</ele>
        <time>2026-04-30T12:41:52.999Z</time>
      </trkpt>
      <trkpt lat="43.98957" lon="2.9991">
        <ele>807.4</ele>
        <time>2026-04-30T12:41:53.999Z</time>
      </trkpt>
      <trkpt lat="43.98959" lon="2.9991">
        <ele>807.7</ele>
        <time>2026-04-30T12:41:54.999Z</time>
      </trkpt>
      <trkpt lat="43.98959" lon="2.99911">
        <ele>807.7</ele>
        <time>2026-04-30T12:41:55.999Z</time>
      </trkpt>
      <trkpt lat="43.9896" lon="2.99911">
        <ele>807.8</ele>
        <time>2026-04-30T12:41:56.999Z</time>
      </trkpt>
      <trkpt lat="43.98961" lon="2.99912">
        <ele>807.7</ele>
        <time>2026-04-30T12:41:57.999Z</time>
      </trkpt>
      <trkpt lat="43.98961" lon="2.99913">
        <ele>807.7</ele>
        <time>2026-04-30T12:41:58.999Z</time>
      </trkpt>
      <trkpt lat="43.98962" lon="2.99913">
        <ele>807.8</ele>
        <time>2026-04-30T12:41:59.999Z</time>
      </trkpt>
      <trkpt lat="43.98963" lon="2.99913">
        <ele>807.9</ele>
        <time>2026-04-30T12:42:00.999Z</time>
      </trkpt>
      <trkpt lat="43.98965" lon="2.99914">
        <ele>808.5</ele>
        <time>2026-04-30T12:42:01.999Z</time>
      </trkpt>
      <trkpt lat="43.98966" lon="2.99914">
        <ele>808.7</ele>
        <time>2026-04-30T12:42:02.999Z</time>
      </trkpt>
      <trkpt lat="43.98967" lon="2.99914">
        <ele>808.9</ele>
        <time>2026-04-30T12:42:03.999Z</time>
      </trkpt>
      <trkpt lat="43.98969" lon="2.99913">
        <ele>809</ele>
        <time>2026-04-30T12:42:04.999Z</time>
      </trkpt>
      <trkpt lat="43.9897" lon="2.99913">
        <ele>809</ele>
        <time>2026-04-30T12:42:05.999Z</time>
      </trkpt>
      <trkpt lat="43.98971" lon="2.99913">
        <ele>808.8</ele>
        <time>2026-04-30T12:42:06.999Z</time>
      </trkpt>
      <trkpt lat="43.98972" lon="2.99914">
        <ele>809</ele>
        <time>2026-04-30T12:42:07.999Z</time>
      </trkpt>
      <trkpt lat="43.98973" lon="2.99915">
        <ele>809</ele>
        <time>2026-04-30T12:42:08.999Z</time>
      </trkpt>
      <trkpt lat="43.98974" lon="2.99915">
        <ele>809.1</ele>
        <time>2026-04-30T12:42:09.999Z</time>
      </trkpt>
      <trkpt lat="43.98976" lon="2.99916">
        <ele>809</ele>
        <time>2026-04-30T12:42:10.999Z</time>
      </trkpt>
      <trkpt lat="43.98977" lon="2.99916">
        <ele>809</ele>
        <time>2026-04-30T12:42:11.999Z</time>
      </trkpt>
      <trkpt lat="43.98978" lon="2.99916">
        <ele>809.3</ele>
        <time>2026-04-30T12:42:12.999Z</time>
      </trkpt>
      <trkpt lat="43.98979" lon="2.99917">
        <ele>809.6</ele>
        <time>2026-04-30T12:42:13.999Z</time>
      </trkpt>
      <trkpt lat="43.9898" lon="2.99918">
        <ele>809.7</ele>
        <time>2026-04-30T12:42:14.999Z</time>
      </trkpt>
      <trkpt lat="43.98981" lon="2.99918">
        <ele>810.3</ele>
        <time>2026-04-30T12:42:15.999Z</time>
      </trkpt>
      <trkpt lat="43.98982" lon="2.99917">
        <ele>810.8</ele>
        <time>2026-04-30T12:42:16.999Z</time>
      </trkpt>
      <trkpt lat="43.98982" lon="2.99916">
        <ele>811.2</ele>
        <time>2026-04-30T12:42:17.999Z</time>
      </trkpt>
      <trkpt lat="43.98983" lon="2.99915">
        <ele>811</ele>
        <time>2026-04-30T12:42:18.999Z</time>
      </trkpt>
      <trkpt lat="43.98984" lon="2.99915">
        <ele>811.2</ele>
        <time>2026-04-30T12:42:19.999Z</time>
      </trkpt>
      <trkpt lat="43.98986" lon="2.99915">
        <ele>811.5</ele>
        <time>2026-04-30T12:42:20.999Z</time>
      </trkpt>
      <trkpt lat="43.98987" lon="2.99915">
        <ele>811.7</ele>
        <time>2026-04-30T12:42:21.999Z</time>
      </trkpt>
      <trkpt lat="43.98987" lon="2.99916">
        <ele>812.1</ele>
        <time>2026-04-30T12:42:22.999Z</time>
      </trkpt>
      <trkpt lat="43.98988" lon="2.99917">
        <ele>812.4</ele>
        <time>2026-04-30T12:42:23.999Z</time>
      </trkpt>
      <trkpt lat="43.98989" lon="2.99918">
        <ele>812.2</ele>
        <time>2026-04-30T12:42:24.999Z</time>
      </trkpt>
      <trkpt lat="43.9899" lon="2.99918">
        <ele>812.4</ele>
        <time>2026-04-30T12:42:25.999Z</time>
      </trkpt>
      <trkpt lat="43.98991" lon="2.9992">
        <ele>812.9</ele>
        <time>2026-04-30T12:42:26.999Z</time>
      </trkpt>
      <trkpt lat="43.98992" lon="2.99921">
        <ele>813.3</ele>
        <time>2026-04-30T12:42:27.999Z</time>
      </trkpt>
      <trkpt lat="43.98992" lon="2.99921">
        <ele>813.5</ele>
        <time>2026-04-30T12:42:28.999Z</time>
      </trkpt>
      <trkpt lat="43.98993" lon="2.99921">
        <ele>813.3</ele>
        <time>2026-04-30T12:42:29.999Z</time>
      </trkpt>
      <trkpt lat="43.98993" lon="2.99923">
        <ele>813.7</ele>
        <time>2026-04-30T12:42:30.999Z</time>
      </trkpt>
      <trkpt lat="43.98994" lon="2.99924">
        <ele>814.1</ele>
        <time>2026-04-30T12:42:31.999Z</time>
      </trkpt>
      <trkpt lat="43.98995" lon="2.99925">
        <ele>814.1</ele>
        <time>2026-04-30T12:42:32.999Z</time>
      </trkpt>
      <trkpt lat="43.98995" lon="2.99926">
        <ele>814.1</ele>
        <time>2026-04-30T12:42:33.999Z</time>
      </trkpt>
      <trkpt lat="43.98996" lon="2.99927">
        <ele>814.5</ele>
        <time>2026-04-30T12:42:34.999Z</time>
      </trkpt>
      <trkpt lat="43.98996" lon="2.99927">
        <ele>814.9</ele>
        <time>2026-04-30T12:42:35.999Z</time>
      </trkpt>
      <trkpt lat="43.98996" lon="2.99928">
        <ele>815.1</ele>
        <time>2026-04-30T12:42:36.999Z</time>
      </trkpt>
      <trkpt lat="43.98997" lon="2.99929">
        <ele>815.3</ele>
        <time>2026-04-30T12:42:37.999Z</time>
      </trkpt>
      <trkpt lat="43.98998" lon="2.9993">
        <ele>815.3</ele>
        <time>2026-04-30T12:42:38.999Z</time>
      </trkpt>
      <trkpt lat="43.98999" lon="2.99931">
        <ele>815.5</ele>
        <time>2026-04-30T12:42:39.999Z</time>
      </trkpt>
      <trkpt lat="43.98999" lon="2.99932">
        <ele>815.5</ele>
        <time>2026-04-30T12:42:40.999Z</time>
      </trkpt>
      <trkpt lat="43.98999" lon="2.99933">
        <ele>815.8</ele>
        <time>2026-04-30T12:42:41.999Z</time>
      </trkpt>
      <trkpt lat="43.99" lon="2.99934">
        <ele>816.3</ele>
        <time>2026-04-30T12:42:42.999Z</time>
      </trkpt>
      <trkpt lat="43.99" lon="2.99935">
        <ele>816.6</ele>
        <time>2026-04-30T12:42:43.999Z</time>
      </trkpt>
      <trkpt lat="43.99001" lon="2.99937">
        <ele>816.4</ele>
        <time>2026-04-30T12:42:44.999Z</time>
      </trkpt>
      <trkpt lat="43.99002" lon="2.99936">
        <ele>816.3</ele>
        <time>2026-04-30T12:42:45.999Z</time>
      </trkpt>
      <trkpt lat="43.99003" lon="2.99935">
        <ele>816.4</ele>
        <time>2026-04-30T12:42:46.999Z</time>
      </trkpt>
      <trkpt lat="43.99003" lon="2.99935">
        <ele>816.3</ele>
        <time>2026-04-30T12:42:47.999Z</time>
      </trkpt>
      <trkpt lat="43.99003" lon="2.99935">
        <ele>816.7</ele>
        <time>2026-04-30T12:42:48.999Z</time>
      </trkpt>
      <trkpt lat="43.99003" lon="2.99936">
        <ele>816.7</ele>
        <time>2026-04-30T12:42:49.999Z</time>
      </trkpt>
      <trkpt lat="43.99003" lon="2.99937">
        <ele>817</ele>
        <time>2026-04-30T12:42:50.999Z</time>
      </trkpt>
      <trkpt lat="43.99004" lon="2.99938">
        <ele>817.6</ele>
        <time>2026-04-30T12:42:51.999Z</time>
      </trkpt>
      <trkpt lat="43.99004" lon="2.9994">
        <ele>818.2</ele>
        <time>2026-04-30T12:42:52.999Z</time>
      </trkpt>
      <trkpt lat="43.99004" lon="2.9994">
        <ele>818.6</ele>
        <time>2026-04-30T12:42:53.999Z</time>
      </trkpt>
      <trkpt lat="43.99005" lon="2.99941">
        <ele>818.6</ele>
        <time>2026-04-30T12:42:54.999Z</time>
      </trkpt>
      <trkpt lat="43.99005" lon="2.99942">
        <ele>818.3</ele>
        <time>2026-04-30T12:42:55.999Z</time>
      </trkpt>
      <trkpt lat="43.99005" lon="2.99943">
        <ele>818.3</ele>
        <time>2026-04-30T12:42:56.999Z</time>
      </trkpt>
      <trkpt lat="43.99005" lon="2.99945">
        <ele>818.5</ele>
        <time>2026-04-30T12:42:57.999Z</time>
      </trkpt>
      <trkpt lat="43.99005" lon="2.99946">
        <ele>818.5</ele>
        <time>2026-04-30T12:42:58.999Z</time>
      </trkpt>
      <trkpt lat="43.99005" lon="2.99947">
        <ele>818.7</ele>
        <time>2026-04-30T12:42:59.999Z</time>
      </trkpt>
      <trkpt lat="43.99006" lon="2.99949">
        <ele>818.8</ele>
        <time>2026-04-30T12:43:00.999Z</time>
      </trkpt>
      <trkpt lat="43.99007" lon="2.99951">
        <ele>819.2</ele>
        <time>2026-04-30T12:43:01.999Z</time>
      </trkpt>
      <trkpt lat="43.99008" lon="2.99953">
        <ele>819.8</ele>
        <time>2026-04-30T12:43:02.999Z</time>
      </trkpt>
      <trkpt lat="43.99008" lon="2.99954">
        <ele>819.9</ele>
        <time>2026-04-30T12:43:03.999Z</time>
      </trkpt>
      <trkpt lat="43.99009" lon="2.99955">
        <ele>819.9</ele>
        <time>2026-04-30T12:43:04.999Z</time>
      </trkpt>
      <trkpt lat="43.9901" lon="2.99956">
        <ele>820.1</ele>
        <time>2026-04-30T12:43:05.999Z</time>
      </trkpt>
      <trkpt lat="43.9901" lon="2.99957">
        <ele>820.3</ele>
        <time>2026-04-30T12:43:06.999Z</time>
      </trkpt>
      <trkpt lat="43.9901" lon="2.99958">
        <ele>820.6</ele>
        <time>2026-04-30T12:43:07.999Z</time>
      </trkpt>
      <trkpt lat="43.99011" lon="2.99958">
        <ele>821.1</ele>
        <time>2026-04-30T12:43:08.999Z</time>
      </trkpt>
      <trkpt lat="43.99011" lon="2.99958">
        <ele>821.4</ele>
        <time>2026-04-30T12:43:09.999Z</time>
      </trkpt>
      <trkpt lat="43.99011" lon="2.99957">
        <ele>821.5</ele>
        <time>2026-04-30T12:43:10.999Z</time>
      </trkpt>
      <trkpt lat="43.9901" lon="2.99957">
        <ele>821.6</ele>
        <time>2026-04-30T12:43:11.999Z</time>
      </trkpt>
      <trkpt lat="43.9901" lon="2.99957">
        <ele>821.6</ele>
        <time>2026-04-30T12:43:12.999Z</time>
      </trkpt>
      <trkpt lat="43.9901" lon="2.99958">
        <ele>821.4</ele>
        <time>2026-04-30T12:43:13.999Z</time>
      </trkpt>
      <trkpt lat="43.9901" lon="2.99957">
        <ele>821.2</ele>
        <time>2026-04-30T12:43:14.999Z</time>
      </trkpt>
      <trkpt lat="43.9901" lon="2.99958">
        <ele>821.2</ele>
        <time>2026-04-30T12:43:15.999Z</time>
      </trkpt>
      <trkpt lat="43.9901" lon="2.99958">
        <ele>821</ele>
        <time>2026-04-30T12:43:16.999Z</time>
      </trkpt>
      <trkpt lat="43.9901" lon="2.99958">
        <ele>820.8</ele>
        <time>2026-04-30T12:43:17.999Z</time>
      </trkpt>
      <trkpt lat="43.9901" lon="2.99958">
        <ele>820.9</ele>
        <time>2026-04-30T12:43:18.999Z</time>
      </trkpt>
      <trkpt lat="43.9901" lon="2.99958">
        <ele>820.9</ele>
        <time>2026-04-30T12:43:19.999Z</time>
      </trkpt>
      <trkpt lat="43.9901" lon="2.99958">
        <ele>820.8</ele>
        <time>2026-04-30T12:43:20.999Z</time>
      </trkpt>
      <trkpt lat="43.9901" lon="2.99959">
        <ele>821</ele>
        <time>2026-04-30T12:43:21.999Z</time>
      </trkpt>
      <trkpt lat="43.99011" lon="2.99961">
        <ele>820.9</ele>
        <time>2026-04-30T12:43:22.999Z</time>
      </trkpt>
      <trkpt lat="43.99012" lon="2.99962">
        <ele>820.8</ele>
        <time>2026-04-30T12:43:23.999Z</time>
      </trkpt>
      <trkpt lat="43.99012" lon="2.99963">
        <ele>821</ele>
        <time>2026-04-30T12:43:24.999Z</time>
      </trkpt>
      <trkpt lat="43.99013" lon="2.99964">
        <ele>821.1</ele>
        <time>2026-04-30T12:43:25.999Z</time>
      </trkpt>
      <trkpt lat="43.99013" lon="2.99965">
        <ele>821.2</ele>
        <time>2026-04-30T12:43:26.999Z</time>
      </trkpt>
      <trkpt lat="43.99015" lon="2.99966">
        <ele>821.8</ele>
        <time>2026-04-30T12:43:27.999Z</time>
      </trkpt>
      <trkpt lat="43.99016" lon="2.99967">
        <ele>822.4</ele>
        <time>2026-04-30T12:43:28.999Z</time>
      </trkpt>
      <trkpt lat="43.99018" lon="2.99968">
        <ele>822.8</ele>
        <time>2026-04-30T12:43:29.999Z</time>
      </trkpt>
      <trkpt lat="43.99019" lon="2.99969">
        <ele>823.4</ele>
        <time>2026-04-30T12:43:30.999Z</time>
      </trkpt>
      <trkpt lat="43.9902" lon="2.9997">
        <ele>824.3</ele>
        <time>2026-04-30T12:43:31.999Z</time>
      </trkpt>
      <trkpt lat="43.99021" lon="2.9997">
        <ele>824.4</ele>
        <time>2026-04-30T12:43:32.999Z</time>
      </trkpt>
      <trkpt lat="43.99022" lon="2.99971">
        <ele>824.4</ele>
        <time>2026-04-30T12:43:33.999Z</time>
      </trkpt>
      <trkpt lat="43.99023" lon="2.99971">
        <ele>824.6</ele>
        <time>2026-04-30T12:43:34.999Z</time>
      </trkpt>
      <trkpt lat="43.99024" lon="2.99972">
        <ele>825.1</ele>
        <time>2026-04-30T12:43:35.999Z</time>
      </trkpt>
      <trkpt lat="43.99025" lon="2.99973">
        <ele>825.9</ele>
        <time>2026-04-30T12:43:36.999Z</time>
      </trkpt>
      <trkpt lat="43.99026" lon="2.99974">
        <ele>826.1</ele>
        <time>2026-04-30T12:43:37.999Z</time>
      </trkpt>
      <trkpt lat="43.99027" lon="2.99975">
        <ele>826.3</ele>
        <time>2026-04-30T12:43:38.999Z</time>
      </trkpt>
      <trkpt lat="43.99028" lon="2.99975">
        <ele>826.5</ele>
        <time>2026-04-30T12:43:39.999Z</time>
      </trkpt>
      <trkpt lat="43.99029" lon="2.99976">
        <ele>827.1</ele>
        <time>2026-04-30T12:43:40.999Z</time>
      </trkpt>
      <trkpt lat="43.9903" lon="2.99976">
        <ele>827.7</ele>
        <time>2026-04-30T12:43:41.999Z</time>
      </trkpt>
      <trkpt lat="43.99031" lon="2.99977">
        <ele>827.9</ele>
        <time>2026-04-30T12:43:42.999Z</time>
      </trkpt>
      <trkpt lat="43.99032" lon="2.99978">
        <ele>827.7</ele>
        <time>2026-04-30T12:43:43.999Z</time>
      </trkpt>
      <trkpt lat="43.99033" lon="2.99979">
        <ele>827.6</ele>
        <time>2026-04-30T12:43:44.999Z</time>
      </trkpt>
      <trkpt lat="43.99034" lon="2.9998">
        <ele>827.2</ele>
        <time>2026-04-30T12:43:45.999Z</time>
      </trkpt>
      <trkpt lat="43.99035" lon="2.99982">
        <ele>827.1</ele>
        <time>2026-04-30T12:43:46.999Z</time>
      </trkpt>
      <trkpt lat="43.99036" lon="2.99983">
        <ele>827.2</ele>
        <time>2026-04-30T12:43:47.999Z</time>
      </trkpt>
      <trkpt lat="43.99037" lon="2.99983">
        <ele>827.4</ele>
        <time>2026-04-30T12:43:48.999Z</time>
      </trkpt>
      <trkpt lat="43.99038" lon="2.99984">
        <ele>827.6</ele>
        <time>2026-04-30T12:43:49.999Z</time>
      </trkpt>
      <trkpt lat="43.99039" lon="2.99985">
        <ele>827.7</ele>
        <time>2026-04-30T12:43:50.999Z</time>
      </trkpt>
      <trkpt lat="43.9904" lon="2.99986">
        <ele>827.7</ele>
        <time>2026-04-30T12:43:51.999Z</time>
      </trkpt>
      <trkpt lat="43.99042" lon="2.99987">
        <ele>827.9</ele>
        <time>2026-04-30T12:43:52.999Z</time>
      </trkpt>
      <trkpt lat="43.99043" lon="2.99989">
        <ele>828.1</ele>
        <time>2026-04-30T12:43:53.999Z</time>
      </trkpt>
      <trkpt lat="43.99044" lon="2.99989">
        <ele>828.3</ele>
        <time>2026-04-30T12:43:54.999Z</time>
      </trkpt>
      <trkpt lat="43.99044" lon="2.99989">
        <ele>828.4</ele>
        <time>2026-04-30T12:43:55.999Z</time>
      </trkpt>
      <trkpt lat="43.99044" lon="2.99989">
        <ele>828.9</ele>
        <time>2026-04-30T12:43:56.999Z</time>
      </trkpt>
      <trkpt lat="43.99046" lon="2.9999">
        <ele>829.2</ele>
        <time>2026-04-30T12:43:57.999Z</time>
      </trkpt>
      <trkpt lat="43.99047" lon="2.99991">
        <ele>829.3</ele>
        <time>2026-04-30T12:43:58.999Z</time>
      </trkpt>
      <trkpt lat="43.99048" lon="2.99993">
        <ele>829.4</ele>
        <time>2026-04-30T12:43:59.999Z</time>
      </trkpt>
      <trkpt lat="43.9905" lon="2.99993">
        <ele>829.4</ele>
        <time>2026-04-30T12:44:00.999Z</time>
      </trkpt>
      <trkpt lat="43.99051" lon="2.99994">
        <ele>829.8</ele>
        <time>2026-04-30T12:44:01.999Z</time>
      </trkpt>
      <trkpt lat="43.99051" lon="2.99995">
        <ele>829.6</ele>
        <time>2026-04-30T12:44:02.999Z</time>
      </trkpt>
      <trkpt lat="43.99052" lon="2.99996">
        <ele>829.9</ele>
        <time>2026-04-30T12:44:03.999Z</time>
      </trkpt>
      <trkpt lat="43.99053" lon="2.99996">
        <ele>830.1</ele>
        <time>2026-04-30T12:44:04.999Z</time>
      </trkpt>
      <trkpt lat="43.99053" lon="2.99997">
        <ele>830.2</ele>
        <time>2026-04-30T12:44:05.999Z</time>
      </trkpt>
      <trkpt lat="43.99054" lon="2.99996">
        <ele>830.4</ele>
        <time>2026-04-30T12:44:06.999Z</time>
      </trkpt>
      <trkpt lat="43.99055" lon="2.99997">
        <ele>830.5</ele>
        <time>2026-04-30T12:44:07.999Z</time>
      </trkpt>
      <trkpt lat="43.99056" lon="2.99997">
        <ele>830.6</ele>
        <time>2026-04-30T12:44:08.999Z</time>
      </trkpt>
      <trkpt lat="43.99057" lon="2.99998">
        <ele>831.1</ele>
        <time>2026-04-30T12:44:09.999Z</time>
      </trkpt>
      <trkpt lat="43.99058" lon="2.99999">
        <ele>831.8</ele>
        <time>2026-04-30T12:44:10.999Z</time>
      </trkpt>
      <trkpt lat="43.99059" lon="3.00001">
        <ele>832</ele>
        <time>2026-04-30T12:44:11.999Z</time>
      </trkpt>
      <trkpt lat="43.9906" lon="3.00001">
        <ele>832</ele>
        <time>2026-04-30T12:44:12.999Z</time>
      </trkpt>
      <trkpt lat="43.99061" lon="3.00001">
        <ele>832</ele>
        <time>2026-04-30T12:44:13.999Z</time>
      </trkpt>
      <trkpt lat="43.99063" lon="3.00002">
        <ele>832.3</ele>
        <time>2026-04-30T12:44:14.999Z</time>
      </trkpt>
      <trkpt lat="43.99064" lon="3.00003">
        <ele>832.5</ele>
        <time>2026-04-30T12:44:15.999Z</time>
      </trkpt>
      <trkpt lat="43.99065" lon="3.00003">
        <ele>832.7</ele>
        <time>2026-04-30T12:44:16.999Z</time>
      </trkpt>
      <trkpt lat="43.99065" lon="3.00004">
        <ele>832.9</ele>
        <time>2026-04-30T12:44:17.999Z</time>
      </trkpt>
      <trkpt lat="43.99066" lon="3.00006">
        <ele>833</ele>
        <time>2026-04-30T12:44:18.999Z</time>
      </trkpt>
      <trkpt lat="43.99067" lon="3.00007">
        <ele>833.4</ele>
        <time>2026-04-30T12:44:19.999Z</time>
      </trkpt>
      <trkpt lat="43.99068" lon="3.00009">
        <ele>833.7</ele>
        <time>2026-04-30T12:44:20.999Z</time>
      </trkpt>
      <trkpt lat="43.99069" lon="3.0001">
        <ele>834</ele>
        <time>2026-04-30T12:44:21.999Z</time>
      </trkpt>
      <trkpt lat="43.9907" lon="3.00011">
        <ele>834.4</ele>
        <time>2026-04-30T12:44:22.999Z</time>
      </trkpt>
      <trkpt lat="43.9907" lon="3.00013">
        <ele>834.8</ele>
        <time>2026-04-30T12:44:23.999Z</time>
      </trkpt>
      <trkpt lat="43.99071" lon="3.00015">
        <ele>835</ele>
        <time>2026-04-30T12:44:24.999Z</time>
      </trkpt>
      <trkpt lat="43.99071" lon="3.00016">
        <ele>835.2</ele>
        <time>2026-04-30T12:44:25.999Z</time>
      </trkpt>
      <trkpt lat="43.99072" lon="3.00017">
        <ele>835.1</ele>
        <time>2026-04-30T12:44:26.999Z</time>
      </trkpt>
      <trkpt lat="43.99073" lon="3.00018">
        <ele>835.1</ele>
        <time>2026-04-30T12:44:27.999Z</time>
      </trkpt>
      <trkpt lat="43.99073" lon="3.00019">
        <ele>835.5</ele>
        <time>2026-04-30T12:44:28.999Z</time>
      </trkpt>
      <trkpt lat="43.99074" lon="3.00021">
        <ele>835.6</ele>
        <time>2026-04-30T12:44:29.999Z</time>
      </trkpt>
      <trkpt lat="43.99074" lon="3.00022">
        <ele>835.6</ele>
        <time>2026-04-30T12:44:30.999Z</time>
      </trkpt>
      <trkpt lat="43.99074" lon="3.00023">
        <ele>835.5</ele>
        <time>2026-04-30T12:44:31.999Z</time>
      </trkpt>
      <trkpt lat="43.99075" lon="3.00024">
        <ele>835.2</ele>
        <time>2026-04-30T12:44:32.999Z</time>
      </trkpt>
      <trkpt lat="43.99075" lon="3.00025">
        <ele>835</ele>
        <time>2026-04-30T12:44:33.999Z</time>
      </trkpt>
      <trkpt lat="43.99076" lon="3.00026">
        <ele>835.4</ele>
        <time>2026-04-30T12:44:34.999Z</time>
      </trkpt>
      <trkpt lat="43.99077" lon="3.00027">
        <ele>835.6</ele>
        <time>2026-04-30T12:44:35.999Z</time>
      </trkpt>
      <trkpt lat="43.99078" lon="3.00027">
        <ele>835.6</ele>
        <time>2026-04-30T12:44:36.999Z</time>
      </trkpt>
      <trkpt lat="43.99079" lon="3.00028">
        <ele>836</ele>
        <time>2026-04-30T12:44:37.999Z</time>
      </trkpt>
      <trkpt lat="43.9908" lon="3.00029">
        <ele>836.4</ele>
        <time>2026-04-30T12:44:38.999Z</time>
      </trkpt>
      <trkpt lat="43.99081" lon="3.0003">
        <ele>836.5</ele>
        <time>2026-04-30T12:44:39.999Z</time>
      </trkpt>
      <trkpt lat="43.99082" lon="3.00031">
        <ele>836.4</ele>
        <time>2026-04-30T12:44:40.999Z</time>
      </trkpt>
      <trkpt lat="43.99083" lon="3.00031">
        <ele>836.6</ele>
        <time>2026-04-30T12:44:41.999Z</time>
      </trkpt>
      <trkpt lat="43.99085" lon="3.00032">
        <ele>836.8</ele>
        <time>2026-04-30T12:44:42.999Z</time>
      </trkpt>
      <trkpt lat="43.99086" lon="3.00033">
        <ele>837</ele>
        <time>2026-04-30T12:44:43.999Z</time>
      </trkpt>
      <trkpt lat="43.99087" lon="3.00034">
        <ele>837.3</ele>
        <time>2026-04-30T12:44:44.999Z</time>
      </trkpt>
      <trkpt lat="43.99088" lon="3.00034">
        <ele>837.5</ele>
        <time>2026-04-30T12:44:45.999Z</time>
      </trkpt>
      <trkpt lat="43.99088" lon="3.00036">
        <ele>837.5</ele>
        <time>2026-04-30T12:44:46.999Z</time>
      </trkpt>
      <trkpt lat="43.99089" lon="3.00037">
        <ele>837.5</ele>
        <time>2026-04-30T12:44:47.999Z</time>
      </trkpt>
      <trkpt lat="43.99089" lon="3.00038">
        <ele>837.6</ele>
        <time>2026-04-30T12:44:48.999Z</time>
      </trkpt>
      <trkpt lat="43.9909" lon="3.00038">
        <ele>837.5</ele>
        <time>2026-04-30T12:44:49.999Z</time>
      </trkpt>
      <trkpt lat="43.99091" lon="3.00038">
        <ele>837.1</ele>
        <time>2026-04-30T12:44:50.999Z</time>
      </trkpt>
      <trkpt lat="43.99093" lon="3.00038">
        <ele>836.9</ele>
        <time>2026-04-30T12:44:51.999Z</time>
      </trkpt>
      <trkpt lat="43.99094" lon="3.00039">
        <ele>836.8</ele>
        <time>2026-04-30T12:44:52.999Z</time>
      </trkpt>
      <trkpt lat="43.99095" lon="3.0004">
        <ele>836.8</ele>
        <time>2026-04-30T12:44:53.999Z</time>
      </trkpt>
      <trkpt lat="43.99097" lon="3.00041">
        <ele>837.2</ele>
        <time>2026-04-30T12:44:54.999Z</time>
      </trkpt>
      <trkpt lat="43.99098" lon="3.00041">
        <ele>837.2</ele>
        <time>2026-04-30T12:44:55.999Z</time>
      </trkpt>
      <trkpt lat="43.99099" lon="3.00041">
        <ele>837.5</ele>
        <time>2026-04-30T12:44:56.999Z</time>
      </trkpt>
      <trkpt lat="43.99101" lon="3.00041">
        <ele>837.8</ele>
        <time>2026-04-30T12:44:57.999Z</time>
      </trkpt>
      <trkpt lat="43.99101" lon="3.00042">
        <ele>837.8</ele>
        <time>2026-04-30T12:44:58.999Z</time>
      </trkpt>
      <trkpt lat="43.99102" lon="3.00042">
        <ele>837.9</ele>
        <time>2026-04-30T12:44:59.999Z</time>
      </trkpt>
      <trkpt lat="43.99102" lon="3.00043">
        <ele>837.9</ele>
        <time>2026-04-30T12:45:00.999Z</time>
      </trkpt>
      <trkpt lat="43.99103" lon="3.00043">
        <ele>838</ele>
        <time>2026-04-30T12:45:01.999Z</time>
      </trkpt>
      <trkpt lat="43.99105" lon="3.00044">
        <ele>837.9</ele>
        <time>2026-04-30T12:45:02.999Z</time>
      </trkpt>
      <trkpt lat="43.99106" lon="3.00044">
        <ele>838.1</ele>
        <time>2026-04-30T12:45:03.999Z</time>
      </trkpt>
      <trkpt lat="43.99108" lon="3.00043">
        <ele>837.7</ele>
        <time>2026-04-30T12:45:04.999Z</time>
      </trkpt>
      <trkpt lat="43.99109" lon="3.00042">
        <ele>838</ele>
        <time>2026-04-30T12:45:05.999Z</time>
      </trkpt>
      <trkpt lat="43.99111" lon="3.00041">
        <ele>838</ele>
        <time>2026-04-30T12:45:06.999Z</time>
      </trkpt>
      <trkpt lat="43.99112" lon="3.00041">
        <ele>837.8</ele>
        <time>2026-04-30T12:45:07.999Z</time>
      </trkpt>
      <trkpt lat="43.99113" lon="3.0004">
        <ele>837.9</ele>
        <time>2026-04-30T12:45:08.999Z</time>
      </trkpt>
      <trkpt lat="43.99114" lon="3.0004">
        <ele>837.8</ele>
        <time>2026-04-30T12:45:09.999Z</time>
      </trkpt>
      <trkpt lat="43.99115" lon="3.0004">
        <ele>837.8</ele>
        <time>2026-04-30T12:45:10.999Z</time>
      </trkpt>
      <trkpt lat="43.99117" lon="3.0004">
        <ele>837.6</ele>
        <time>2026-04-30T12:45:11.999Z</time>
      </trkpt>
      <trkpt lat="43.99118" lon="3.00039">
        <ele>837.3</ele>
        <time>2026-04-30T12:45:12.999Z</time>
      </trkpt>
      <trkpt lat="43.99119" lon="3.0004">
        <ele>837.4</ele>
        <time>2026-04-30T12:45:14.000Z</time>
      </trkpt>
      <trkpt lat="43.99119" lon="3.0004">
        <ele>837.4</ele>
        <time>2026-04-30T12:45:15.000Z</time>
      </trkpt>
      <trkpt lat="43.9912" lon="3.0004">
        <ele>837.2</ele>
        <time>2026-04-30T12:45:16.000Z</time>
      </trkpt>
      <trkpt lat="43.99121" lon="3.00039">
        <ele>837.4</ele>
        <time>2026-04-30T12:45:17.000Z</time>
      </trkpt>
      <trkpt lat="43.99123" lon="3.00039">
        <ele>837.4</ele>
        <time>2026-04-30T12:45:18.000Z</time>
      </trkpt>
      <trkpt lat="43.99124" lon="3.00038">
        <ele>837.6</ele>
        <time>2026-04-30T12:45:19.000Z</time>
      </trkpt>
      <trkpt lat="43.99125" lon="3.00038">
        <ele>837.6</ele>
        <time>2026-04-30T12:45:20.000Z</time>
      </trkpt>
      <trkpt lat="43.99126" lon="3.00039">
        <ele>837.8</ele>
        <time>2026-04-30T12:45:21.000Z</time>
      </trkpt>
      <trkpt lat="43.99127" lon="3.00039">
        <ele>837.5</ele>
        <time>2026-04-30T12:45:22.000Z</time>
      </trkpt>
      <trkpt lat="43.99128" lon="3.00039">
        <ele>837.7</ele>
        <time>2026-04-30T12:45:23.000Z</time>
      </trkpt>
      <trkpt lat="43.99129" lon="3.00039">
        <ele>837.7</ele>
        <time>2026-04-30T12:45:24.000Z</time>
      </trkpt>
      <trkpt lat="43.99129" lon="3.00039">
        <ele>837.8</ele>
        <time>2026-04-30T12:45:25.000Z</time>
      </trkpt>
      <trkpt lat="43.9913" lon="3.00039">
        <ele>837.8</ele>
        <time>2026-04-30T12:45:26.000Z</time>
      </trkpt>
      <trkpt lat="43.99131" lon="3.0004">
        <ele>838</ele>
        <time>2026-04-30T12:45:27.000Z</time>
      </trkpt>
      <trkpt lat="43.99132" lon="3.00039">
        <ele>838.4</ele>
        <time>2026-04-30T12:45:28.000Z</time>
      </trkpt>
      <trkpt lat="43.99133" lon="3.0004">
        <ele>838.2</ele>
        <time>2026-04-30T12:45:29.000Z</time>
      </trkpt>
      <trkpt lat="43.99133" lon="3.0004">
        <ele>837.7</ele>
        <time>2026-04-30T12:45:30.000Z</time>
      </trkpt>
      <trkpt lat="43.99134" lon="3.00041">
        <ele>837.6</ele>
        <time>2026-04-30T12:45:31.000Z</time>
      </trkpt>
      <trkpt lat="43.99134" lon="3.00041">
        <ele>837.4</ele>
        <time>2026-04-30T12:45:32.000Z</time>
      </trkpt>
      <trkpt lat="43.99134" lon="3.00041">
        <ele>837.5</ele>
        <time>2026-04-30T12:45:33.000Z</time>
      </trkpt>
      <trkpt lat="43.99133" lon="3.00041">
        <ele>837.8</ele>
        <time>2026-04-30T12:45:34.000Z</time>
      </trkpt>
      <trkpt lat="43.99133" lon="3.0004">
        <ele>838</ele>
        <time>2026-04-30T12:45:35.000Z</time>
      </trkpt>
      <trkpt lat="43.99133" lon="3.0004">
        <ele>837.9</ele>
        <time>2026-04-30T12:45:36.000Z</time>
      </trkpt>
      <trkpt lat="43.99133" lon="3.0004">
        <ele>838</ele>
        <time>2026-04-30T12:45:37.000Z</time>
      </trkpt>
      <trkpt lat="43.99133" lon="3.0004">
        <ele>838.3</ele>
        <time>2026-04-30T12:45:38.000Z</time>
      </trkpt>
      <trkpt lat="43.99133" lon="3.0004">
        <ele>838.4</ele>
        <time>2026-04-30T12:45:39.000Z</time>
      </trkpt>
      <trkpt lat="43.99133" lon="3.0004">
        <ele>838.1</ele>
        <time>2026-04-30T12:45:40.000Z</time>
      </trkpt>
      <trkpt lat="43.99133" lon="3.0004">
        <ele>837.9</ele>
        <time>2026-04-30T12:45:41.000Z</time>
      </trkpt>
      <trkpt lat="43.99133" lon="3.00041">
        <ele>837.9</ele>
        <time>2026-04-30T12:45:42.000Z</time>
      </trkpt>
      <trkpt lat="43.99133" lon="3.00042">
        <ele>837.8</ele>
        <time>2026-04-30T12:45:43.000Z</time>
      </trkpt>
      <trkpt lat="43.99133" lon="3.00043">
        <ele>838.1</ele>
        <time>2026-04-30T12:45:44.000Z</time>
      </trkpt>
      <trkpt lat="43.99133" lon="3.00045">
        <ele>838.5</ele>
        <time>2026-04-30T12:45:45.000Z</time>
      </trkpt>
      <trkpt lat="43.99134" lon="3.00045">
        <ele>838.8</ele>
        <time>2026-04-30T12:45:46.000Z</time>
      </trkpt>
      <trkpt lat="43.99134" lon="3.00046">
        <ele>839.2</ele>
        <time>2026-04-30T12:45:47.000Z</time>
      </trkpt>
      <trkpt lat="43.99134" lon="3.00046">
        <ele>839.6</ele>
        <time>2026-04-30T12:45:48.000Z</time>
      </trkpt>
      <trkpt lat="43.99134" lon="3.00047">
        <ele>840.1</ele>
        <time>2026-04-30T12:45:49.000Z</time>
      </trkpt>
      <trkpt lat="43.99134" lon="3.00047">
        <ele>840.3</ele>
        <time>2026-04-30T12:45:50.000Z</time>
      </trkpt>
      <trkpt lat="43.99134" lon="3.00046">
        <ele>840.2</ele>
        <time>2026-04-30T12:45:51.000Z</time>
      </trkpt>
      <trkpt lat="43.99134" lon="3.00046">
        <ele>839.3</ele>
        <time>2026-04-30T12:45:52.000Z</time>
      </trkpt>
      <trkpt lat="43.99134" lon="3.00046">
        <ele>839.7</ele>
        <time>2026-04-30T12:45:53.000Z</time>
      </trkpt>
      <trkpt lat="43.99134" lon="3.00046">
        <ele>840.2</ele>
        <time>2026-04-30T12:45:54.000Z</time>
      </trkpt>
      <trkpt lat="43.99134" lon="3.00046">
        <ele>840.6</ele>
        <time>2026-04-30T12:45:55.000Z</time>
      </trkpt>
      <trkpt lat="43.99134" lon="3.00046">
        <ele>841</ele>
        <time>2026-04-30T12:45:56.000Z</time>
      </trkpt>
      <trkpt lat="43.99134" lon="3.00046">
        <ele>841.3</ele>
        <time>2026-04-30T12:45:57.000Z</time>
      </trkpt>
      <trkpt lat="43.99134" lon="3.00046">
        <ele>841.7</ele>
        <time>2026-04-30T12:45:58.000Z</time>
      </trkpt>
      <trkpt lat="43.99134" lon="3.00046">
        <ele>841.9</ele>
        <time>2026-04-30T12:45:59.000Z</time>
      </trkpt>
      <trkpt lat="43.99134" lon="3.00046">
        <ele>842.2</ele>
        <time>2026-04-30T12:46:00.000Z</time>
      </trkpt>
      <trkpt lat="43.99134" lon="3.00046">
        <ele>842.3</ele>
        <time>2026-04-30T12:46:01.000Z</time>
      </trkpt>
      <trkpt lat="43.99134" lon="3.00046">
        <ele>842.4</ele>
        <time>2026-04-30T12:46:02.000Z</time>
      </trkpt>
      <trkpt lat="43.99134" lon="3.00047">
        <ele>842.5</ele>
        <time>2026-04-30T12:46:03.000Z</time>
      </trkpt>
      <trkpt lat="43.99133" lon="3.00047">
        <ele>842.6</ele>
        <time>2026-04-30T12:46:04.000Z</time>
      </trkpt>
      <trkpt lat="43.99133" lon="3.00047">
        <ele>842.8</ele>
        <time>2026-04-30T12:46:05.000Z</time>
      </trkpt>
      <trkpt lat="43.99133" lon="3.00048">
        <ele>843.1</ele>
        <time>2026-04-30T12:46:06.000Z</time>
      </trkpt>
      <trkpt lat="43.99133" lon="3.00048">
        <ele>843.3</ele>
        <time>2026-04-30T12:46:07.000Z</time>
      </trkpt>
      <trkpt lat="43.99133" lon="3.00048">
        <ele>843.5</ele>
        <time>2026-04-30T12:46:08.000Z</time>
      </trkpt>
      <trkpt lat="43.99133" lon="3.00048">
        <ele>843.7</ele>
        <time>2026-04-30T12:46:09.000Z</time>
      </trkpt>
      <trkpt lat="43.99133" lon="3.00048">
        <ele>843.8</ele>
        <time>2026-04-30T12:46:10.000Z</time>
      </trkpt>
      <trkpt lat="43.99133" lon="3.00047">
        <ele>843.9</ele>
        <time>2026-04-30T12:46:11.000Z</time>
      </trkpt>
      <trkpt lat="43.99133" lon="3.00047">
        <ele>844</ele>
        <time>2026-04-30T12:46:12.000Z</time>
      </trkpt>
      <trkpt lat="43.99133" lon="3.00047">
        <ele>844.1</ele>
        <time>2026-04-30T12:46:13.000Z</time>
      </trkpt>
      <trkpt lat="43.99133" lon="3.00047">
        <ele>844</ele>
        <time>2026-04-30T12:46:14.000Z</time>
      </trkpt>
      <trkpt lat="43.99133" lon="3.00047">
        <ele>843.8</ele>
        <time>2026-04-30T12:46:15.000Z</time>
      </trkpt>
      <trkpt lat="43.99133" lon="3.00047">
        <ele>843.7</ele>
        <time>2026-04-30T12:46:16.000Z</time>
      </trkpt>
      <trkpt lat="43.99133" lon="3.00048">
        <ele>843.5</ele>
        <time>2026-04-30T12:46:17.000Z</time>
      </trkpt>
      <trkpt lat="43.99133" lon="3.00048">
        <ele>843.2</ele>
        <time>2026-04-30T12:46:18.000Z</time>
      </trkpt>
      <trkpt lat="43.99132" lon="3.00048">
        <ele>843.1</ele>
        <time>2026-04-30T12:46:19.000Z</time>
      </trkpt>
      <trkpt lat="43.99132" lon="3.00048">
        <ele>843.1</ele>
        <time>2026-04-30T12:46:20.000Z</time>
      </trkpt>
      <trkpt lat="43.99132" lon="3.00048">
        <ele>843.1</ele>
        <time>2026-04-30T12:46:21.000Z</time>
      </trkpt>
      <trkpt lat="43.99132" lon="3.00048">
        <ele>843</ele>
        <time>2026-04-30T12:46:22.000Z</time>
      </trkpt>
      <trkpt lat="43.99132" lon="3.00048">
        <ele>843.1</ele>
        <time>2026-04-30T12:46:23.000Z</time>
      </trkpt>
      <trkpt lat="43.99132" lon="3.00048">
        <ele>843</ele>
        <time>2026-04-30T12:46:24.000Z</time>
      </trkpt>
      <trkpt lat="43.99132" lon="3.00048">
        <ele>843</ele>
        <time>2026-04-30T12:46:25.000Z</time>
      </trkpt>
      <trkpt lat="43.99132" lon="3.00048">
        <ele>842.8</ele>
        <time>2026-04-30T12:46:26.000Z</time>
      </trkpt>
      <trkpt lat="43.99132" lon="3.00048">
        <ele>842.7</ele>
        <time>2026-04-30T12:46:27.000Z</time>
      </trkpt>
      <trkpt lat="43.99132" lon="3.00048">
        <ele>842.8</ele>
        <time>2026-04-30T12:46:28.000Z</time>
      </trkpt>
      <trkpt lat="43.99132" lon="3.00048">
        <ele>842.8</ele>
        <time>2026-04-30T12:46:29.000Z</time>
      </trkpt>
      <trkpt lat="43.99132" lon="3.00048">
        <ele>843.1</ele>
        <time>2026-04-30T12:46:30.000Z</time>
      </trkpt>
      <trkpt lat="43.99132" lon="3.00048">
        <ele>843.2</ele>
        <time>2026-04-30T12:46:31.000Z</time>
      </trkpt>
      <trkpt lat="43.99132" lon="3.00048">
        <ele>843.4</ele>
        <time>2026-04-30T12:46:32.000Z</time>
      </trkpt>
      <trkpt lat="43.99132" lon="3.00048">
        <ele>843.4</ele>
        <time>2026-04-30T12:46:33.000Z</time>
      </trkpt>
      <trkpt lat="43.99132" lon="3.00048">
        <ele>843.2</ele>
        <time>2026-04-30T12:46:34.000Z</time>
      </trkpt>
      <trkpt lat="43.99132" lon="3.00048">
        <ele>843.1</ele>
        <time>2026-04-30T12:46:35.000Z</time>
      </trkpt>
      <trkpt lat="43.99132" lon="3.00048">
        <ele>843</ele>
        <time>2026-04-30T12:46:36.000Z</time>
      </trkpt>
      <trkpt lat="43.99132" lon="3.00048">
        <ele>843</ele>
        <time>2026-04-30T12:46:37.000Z</time>
      </trkpt>
      <trkpt lat="43.99132" lon="3.00048">
        <ele>842.9</ele>
        <time>2026-04-30T12:46:38.000Z</time>
      </trkpt>
      <trkpt lat="43.99132" lon="3.00048">
        <ele>842.9</ele>
        <time>2026-04-30T12:46:39.000Z</time>
      </trkpt>
      <trkpt lat="43.99132" lon="3.00048">
        <ele>842.8</ele>
        <time>2026-04-30T12:46:40.000Z</time>
      </trkpt>
      <trkpt lat="43.99132" lon="3.00048">
        <ele>843</ele>
        <time>2026-04-30T12:46:41.000Z</time>
      </trkpt>
      <trkpt lat="43.99132" lon="3.00049">
        <ele>842.9</ele>
        <time>2026-04-30T12:46:42.000Z</time>
      </trkpt>
      <trkpt lat="43.99132" lon="3.0005">
        <ele>842.9</ele>
        <time>2026-04-30T12:46:43.000Z</time>
      </trkpt>
      <trkpt lat="43.99131" lon="3.00053">
        <ele>842.9</ele>
        <time>2026-04-30T12:46:44.000Z</time>
      </trkpt>
      <trkpt lat="43.99132" lon="3.00054">
        <ele>843</ele>
        <time>2026-04-30T12:46:45.000Z</time>
      </trkpt>
      <trkpt lat="43.99132" lon="3.00055">
        <ele>842.8</ele>
        <time>2026-04-30T12:46:46.000Z</time>
      </trkpt>
      <trkpt lat="43.99132" lon="3.00055">
        <ele>842.5</ele>
        <time>2026-04-30T12:46:47.000Z</time>
      </trkpt>
      <trkpt lat="43.99131" lon="3.00055">
        <ele>842.3</ele>
        <time>2026-04-30T12:46:48.000Z</time>
      </trkpt>
      <trkpt lat="43.99131" lon="3.00054">
        <ele>842.3</ele>
        <time>2026-04-30T12:46:49.000Z</time>
      </trkpt>
      <trkpt lat="43.99131" lon="3.00054">
        <ele>842.2</ele>
        <time>2026-04-30T12:46:50.000Z</time>
      </trkpt>
      <trkpt lat="43.99131" lon="3.00054">
        <ele>842.1</ele>
        <time>2026-04-30T12:46:51.000Z</time>
      </trkpt>
      <trkpt lat="43.99131" lon="3.00054">
        <ele>841.9</ele>
        <time>2026-04-30T12:46:52.000Z</time>
      </trkpt>
      <trkpt lat="43.99131" lon="3.00054">
        <ele>841.6</ele>
        <time>2026-04-30T12:46:53.000Z</time>
      </trkpt>
      <trkpt lat="43.99131" lon="3.00054">
        <ele>841.5</ele>
        <time>2026-04-30T12:46:54.000Z</time>
      </trkpt>
      <trkpt lat="43.99131" lon="3.00054">
        <ele>841.6</ele>
        <time>2026-04-30T12:46:55.000Z</time>
      </trkpt>
      <trkpt lat="43.99132" lon="3.00054">
        <ele>841.6</ele>
        <time>2026-04-30T12:46:56.000Z</time>
      </trkpt>
      <trkpt lat="43.99132" lon="3.00054">
        <ele>841.8</ele>
        <time>2026-04-30T12:46:57.000Z</time>
      </trkpt>
      <trkpt lat="43.99132" lon="3.00054">
        <ele>842</ele>
        <time>2026-04-30T12:46:58.000Z</time>
      </trkpt>
      <trkpt lat="43.99132" lon="3.00054">
        <ele>842.1</ele>
        <time>2026-04-30T12:46:59.000Z</time>
      </trkpt>
      <trkpt lat="43.99132" lon="3.00054">
        <ele>842.1</ele>
        <time>2026-04-30T12:47:00.000Z</time>
      </trkpt>
      <trkpt lat="43.99132" lon="3.00054">
        <ele>842.1</ele>
        <time>2026-04-30T12:47:01.000Z</time>
      </trkpt>
      <trkpt lat="43.99132" lon="3.00054">
        <ele>842.1</ele>
        <time>2026-04-30T12:47:02.000Z</time>
      </trkpt>
      <trkpt lat="43.99132" lon="3.00054">
        <ele>842.3</ele>
        <time>2026-04-30T12:47:03.000Z</time>
      </trkpt>
      <trkpt lat="43.99132" lon="3.00054">
        <ele>842.4</ele>
        <time>2026-04-30T12:47:04.000Z</time>
      </trkpt>
      <trkpt lat="43.99134" lon="3.00055">
        <ele>842.1</ele>
        <time>2026-04-30T12:47:05.000Z</time>
      </trkpt>
      <trkpt lat="43.99135" lon="3.00056">
        <ele>841.9</ele>
        <time>2026-04-30T12:47:06.000Z</time>
      </trkpt>
      <trkpt lat="43.99137" lon="3.00056">
        <ele>841.7</ele>
        <time>2026-04-30T12:47:07.000Z</time>
      </trkpt>
      <trkpt lat="43.99138" lon="3.00057">
        <ele>841.9</ele>
        <time>2026-04-30T12:47:08.000Z</time>
      </trkpt>
      <trkpt lat="43.99137" lon="3.00058">
        <ele>841.9</ele>
        <time>2026-04-30T12:47:09.000Z</time>
      </trkpt>
      <trkpt lat="43.99137" lon="3.00058">
        <ele>842.1</ele>
        <time>2026-04-30T12:47:10.000Z</time>
      </trkpt>
      <trkpt lat="43.99137" lon="3.00058">
        <ele>842.3</ele>
        <time>2026-04-30T12:47:11.000Z</time>
      </trkpt>
      <trkpt lat="43.99138" lon="3.00058">
        <ele>842.5</ele>
        <time>2026-04-30T12:47:12.000Z</time>
      </trkpt>
      <trkpt lat="43.99138" lon="3.00058">
        <ele>842.3</ele>
        <time>2026-04-30T12:47:13.000Z</time>
      </trkpt>
      <trkpt lat="43.99138" lon="3.00058">
        <ele>842.5</ele>
        <time>2026-04-30T12:47:14.000Z</time>
      </trkpt>
      <trkpt lat="43.99138" lon="3.00058">
        <ele>842.7</ele>
        <time>2026-04-30T12:47:15.000Z</time>
      </trkpt>
      <trkpt lat="43.99138" lon="3.00058">
        <ele>842.9</ele>
        <time>2026-04-30T12:47:16.000Z</time>
      </trkpt>
      <trkpt lat="43.99138" lon="3.00058">
        <ele>843</ele>
        <time>2026-04-30T12:47:17.000Z</time>
      </trkpt>
      <trkpt lat="43.99138" lon="3.00058">
        <ele>843.3</ele>
        <time>2026-04-30T12:47:18.000Z</time>
      </trkpt>
      <trkpt lat="43.99138" lon="3.00058">
        <ele>843.4</ele>
        <time>2026-04-30T12:47:19.000Z</time>
      </trkpt>
      <trkpt lat="43.99138" lon="3.00058">
        <ele>843.4</ele>
        <time>2026-04-30T12:47:20.000Z</time>
      </trkpt>
      <trkpt lat="43.99138" lon="3.00058">
        <ele>843.3</ele>
        <time>2026-04-30T12:47:21.000Z</time>
      </trkpt>
      <trkpt lat="43.99137" lon="3.00058">
        <ele>843.2</ele>
        <time>2026-04-30T12:47:22.000Z</time>
      </trkpt>
      <trkpt lat="43.99137" lon="3.00058">
        <ele>843</ele>
        <time>2026-04-30T12:47:23.000Z</time>
      </trkpt>
      <trkpt lat="43.99137" lon="3.00057">
        <ele>843</ele>
        <time>2026-04-30T12:47:24.000Z</time>
      </trkpt>
      <trkpt lat="43.99136" lon="3.00056">
        <ele>843</ele>
        <time>2026-04-30T12:47:25.000Z</time>
      </trkpt>
      <trkpt lat="43.99136" lon="3.00055">
        <ele>843</ele>
        <time>2026-04-30T12:47:26.000Z</time>
      </trkpt>
      <trkpt lat="43.99135" lon="3.00053">
        <ele>842.9</ele>
        <time>2026-04-30T12:47:27.000Z</time>
      </trkpt>
      <trkpt lat="43.99134" lon="3.00051">
        <ele>842.8</ele>
        <time>2026-04-30T12:47:28.000Z</time>
      </trkpt>
      <trkpt lat="43.99133" lon="3.00049">
        <ele>842.2</ele>
        <time>2026-04-30T12:47:29.000Z</time>
      </trkpt>
      <trkpt lat="43.99133" lon="3.00048">
        <ele>842.2</ele>
        <time>2026-04-30T12:47:30.000Z</time>
      </trkpt>
      <trkpt lat="43.99133" lon="3.00048">
        <ele>841.9</ele>
        <time>2026-04-30T12:47:31.000Z</time>
      </trkpt>
      <trkpt lat="43.99133" lon="3.00048">
        <ele>841.6</ele>
        <time>2026-04-30T12:47:32.000Z</time>
      </trkpt>
      <trkpt lat="43.99133" lon="3.00048">
        <ele>841.1</ele>
        <time>2026-04-30T12:47:33.000Z</time>
      </trkpt>
      <trkpt lat="43.99134" lon="3.00048">
        <ele>840.9</ele>
        <time>2026-04-30T12:47:34.000Z</time>
      </trkpt>
      <trkpt lat="43.99135" lon="3.00047">
        <ele>840.8</ele>
        <time>2026-04-30T12:47:35.000Z</time>
      </trkpt>
      <trkpt lat="43.99136" lon="3.00047">
        <ele>840.6</ele>
        <time>2026-04-30T12:47:36.000Z</time>
      </trkpt>
      <trkpt lat="43.99136" lon="3.00047">
        <ele>840.2</ele>
        <time>2026-04-30T12:47:37.000Z</time>
      </trkpt>
      <trkpt lat="43.99136" lon="3.00047">
        <ele>840.5</ele>
        <time>2026-04-30T12:47:38.000Z</time>
      </trkpt>
      <trkpt lat="43.99136" lon="3.00047">
        <ele>840.5</ele>
        <time>2026-04-30T12:47:39.000Z</time>
      </trkpt>
      <trkpt lat="43.99136" lon="3.00047">
        <ele>840.5</ele>
        <time>2026-04-30T12:47:40.000Z</time>
      </trkpt>
      <trkpt lat="43.99136" lon="3.00047">
        <ele>840.7</ele>
        <time>2026-04-30T12:47:41.000Z</time>
      </trkpt>
      <trkpt lat="43.99136" lon="3.00047">
        <ele>840.9</ele>
        <time>2026-04-30T12:47:42.000Z</time>
      </trkpt>
      <trkpt lat="43.99136" lon="3.00047">
        <ele>840.9</ele>
        <time>2026-04-30T12:47:43.000Z</time>
      </trkpt>
      <trkpt lat="43.99136" lon="3.00047">
        <ele>840.9</ele>
        <time>2026-04-30T12:47:44.000Z</time>
      </trkpt>
      <trkpt lat="43.99136" lon="3.00047">
        <ele>840.9</ele>
        <time>2026-04-30T12:47:45.000Z</time>
      </trkpt>
      <trkpt lat="43.99136" lon="3.00047">
        <ele>840.9</ele>
        <time>2026-04-30T12:47:46.000Z</time>
      </trkpt>
      <trkpt lat="43.99137" lon="3.00046">
        <ele>840.9</ele>
        <time>2026-04-30T12:47:47.000Z</time>
      </trkpt>
      <trkpt lat="43.99138" lon="3.00047">
        <ele>840.8</ele>
        <time>2026-04-30T12:47:48.000Z</time>
      </trkpt>
      <trkpt lat="43.99139" lon="3.00047">
        <ele>840.4</ele>
        <time>2026-04-30T12:47:49.000Z</time>
      </trkpt>
      <trkpt lat="43.99141" lon="3.00047">
        <ele>840.4</ele>
        <time>2026-04-30T12:47:50.000Z</time>
      </trkpt>
      <trkpt lat="43.99141" lon="3.00047">
        <ele>840.3</ele>
        <time>2026-04-30T12:47:51.000Z</time>
      </trkpt>
      <trkpt lat="43.99141" lon="3.00047">
        <ele>840.3</ele>
        <time>2026-04-30T12:47:52.000Z</time>
      </trkpt>
      <trkpt lat="43.99141" lon="3.00047">
        <ele>840</ele>
        <time>2026-04-30T12:47:53.000Z</time>
      </trkpt>
      <trkpt lat="43.99141" lon="3.00047">
        <ele>839.8</ele>
        <time>2026-04-30T12:47:54.000Z</time>
      </trkpt>
      <trkpt lat="43.99141" lon="3.00047">
        <ele>839.7</ele>
        <time>2026-04-30T12:47:55.000Z</time>
      </trkpt>
      <trkpt lat="43.99141" lon="3.00047">
        <ele>839.8</ele>
        <time>2026-04-30T12:47:56.000Z</time>
      </trkpt>
      <trkpt lat="43.99141" lon="3.00047">
        <ele>839.8</ele>
        <time>2026-04-30T12:47:57.000Z</time>
      </trkpt>
      <trkpt lat="43.99141" lon="3.00047">
        <ele>839.9</ele>
        <time>2026-04-30T12:47:58.000Z</time>
      </trkpt>
      <trkpt lat="43.99141" lon="3.00047">
        <ele>839.8</ele>
        <time>2026-04-30T12:47:59.000Z</time>
      </trkpt>
      <trkpt lat="43.99141" lon="3.00047">
        <ele>840</ele>
        <time>2026-04-30T12:48:00.000Z</time>
      </trkpt>
      <trkpt lat="43.99141" lon="3.00047">
        <ele>839.9</ele>
        <time>2026-04-30T12:48:01.000Z</time>
      </trkpt>
      <trkpt lat="43.99141" lon="3.00046">
        <ele>839.8</ele>
        <time>2026-04-30T12:48:02.000Z</time>
      </trkpt>
      <trkpt lat="43.99141" lon="3.00047">
        <ele>840</ele>
        <time>2026-04-30T12:48:03.000Z</time>
      </trkpt>
      <trkpt lat="43.99141" lon="3.00047">
        <ele>840.1</ele>
        <time>2026-04-30T12:48:04.000Z</time>
      </trkpt>
      <trkpt lat="43.99141" lon="3.00048">
        <ele>840.1</ele>
        <time>2026-04-30T12:48:05.000Z</time>
      </trkpt>
      <trkpt lat="43.99141" lon="3.00048">
        <ele>840.3</ele>
        <time>2026-04-30T12:48:06.000Z</time>
      </trkpt>
      <trkpt lat="43.99141" lon="3.00048">
        <ele>840.5</ele>
        <time>2026-04-30T12:48:07.000Z</time>
      </trkpt>
      <trkpt lat="43.99141" lon="3.00048">
        <ele>840.4</ele>
        <time>2026-04-30T12:48:08.000Z</time>
      </trkpt>
      <trkpt lat="43.99141" lon="3.00048">
        <ele>840.4</ele>
        <time>2026-04-30T12:48:09.000Z</time>
      </trkpt>
      <trkpt lat="43.99141" lon="3.00048">
        <ele>840.3</ele>
        <time>2026-04-30T12:48:10.000Z</time>
      </trkpt>
      <trkpt lat="43.99141" lon="3.00048">
        <ele>840.4</ele>
        <time>2026-04-30T12:48:11.000Z</time>
      </trkpt>
      <trkpt lat="43.99141" lon="3.00048">
        <ele>840.3</ele>
        <time>2026-04-30T12:48:12.000Z</time>
      </trkpt>
      <trkpt lat="43.99141" lon="3.00049">
        <ele>840.3</ele>
        <time>2026-04-30T12:48:13.000Z</time>
      </trkpt>
      <trkpt lat="43.99142" lon="3.00049">
        <ele>840.3</ele>
        <time>2026-04-30T12:48:14.000Z</time>
      </trkpt>
      <trkpt lat="43.99142" lon="3.0005">
        <ele>840.1</ele>
        <time>2026-04-30T12:48:15.000Z</time>
      </trkpt>
      <trkpt lat="43.99142" lon="3.0005">
        <ele>840.2</ele>
        <time>2026-04-30T12:48:16.000Z</time>
      </trkpt>
      <trkpt lat="43.99142" lon="3.0005">
        <ele>840.4</ele>
        <time>2026-04-30T12:48:17.000Z</time>
      </trkpt>
      <trkpt lat="43.99142" lon="3.0005">
        <ele>840.5</ele>
        <time>2026-04-30T12:48:18.000Z</time>
      </trkpt>
      <trkpt lat="43.99142" lon="3.0005">
        <ele>840.6</ele>
        <time>2026-04-30T12:48:19.000Z</time>
      </trkpt>
      <trkpt lat="43.99142" lon="3.0005">
        <ele>840.6</ele>
        <time>2026-04-30T12:48:20.000Z</time>
      </trkpt>
      <trkpt lat="43.99142" lon="3.0005">
        <ele>840.6</ele>
        <time>2026-04-30T12:48:21.000Z</time>
      </trkpt>
      <trkpt lat="43.99142" lon="3.0005">
        <ele>840.4</ele>
        <time>2026-04-30T12:48:22.000Z</time>
      </trkpt>
      <trkpt lat="43.99142" lon="3.0005">
        <ele>840.3</ele>
        <time>2026-04-30T12:48:23.000Z</time>
      </trkpt>
      <trkpt lat="43.99142" lon="3.0005">
        <ele>840</ele>
        <time>2026-04-30T12:48:24.000Z</time>
      </trkpt>
      <trkpt lat="43.99142" lon="3.0005">
        <ele>839.9</ele>
        <time>2026-04-30T12:48:25.000Z</time>
      </trkpt>
      <trkpt lat="43.99142" lon="3.0005">
        <ele>840.2</ele>
        <time>2026-04-30T12:48:26.000Z</time>
      </trkpt>
      <trkpt lat="43.99142" lon="3.0005">
        <ele>840.4</ele>
        <time>2026-04-30T12:48:27.000Z</time>
      </trkpt>
      <trkpt lat="43.99142" lon="3.0005">
        <ele>840.5</ele>
        <time>2026-04-30T12:48:28.000Z</time>
      </trkpt>
      <trkpt lat="43.99142" lon="3.0005">
        <ele>840.9</ele>
        <time>2026-04-30T12:48:29.000Z</time>
      </trkpt>
      <trkpt lat="43.99142" lon="3.0005">
        <ele>841.3</ele>
        <time>2026-04-30T12:48:30.000Z</time>
      </trkpt>
      <trkpt lat="43.99142" lon="3.00049">
        <ele>841.3</ele>
        <time>2026-04-30T12:48:31.000Z</time>
      </trkpt>
      <trkpt lat="43.99142" lon="3.00049">
        <ele>841.5</ele>
        <time>2026-04-30T12:48:32.000Z</time>
      </trkpt>
      <trkpt lat="43.99142" lon="3.00049">
        <ele>841.6</ele>
        <time>2026-04-30T12:48:33.000Z</time>
      </trkpt>
      <trkpt lat="43.99141" lon="3.00049">
        <ele>841.5</ele>
        <time>2026-04-30T12:48:34.000Z</time>
      </trkpt>
      <trkpt lat="43.99141" lon="3.00048">
        <ele>841.2</ele>
        <time>2026-04-30T12:48:35.000Z</time>
      </trkpt>
      <trkpt lat="43.99141" lon="3.00048">
        <ele>841.3</ele>
        <time>2026-04-30T12:48:36.000Z</time>
      </trkpt>
      <trkpt lat="43.99142" lon="3.00048">
        <ele>841.2</ele>
        <time>2026-04-30T12:48:37.000Z</time>
      </trkpt>
      <trkpt lat="43.99142" lon="3.00047">
        <ele>841.3</ele>
        <time>2026-04-30T12:48:38.000Z</time>
      </trkpt>
      <trkpt lat="43.99141" lon="3.00047">
        <ele>841.3</ele>
        <time>2026-04-30T12:48:39.000Z</time>
      </trkpt>
      <trkpt lat="43.99141" lon="3.00047">
        <ele>841.4</ele>
        <time>2026-04-30T12:48:40.000Z</time>
      </trkpt>
      <trkpt lat="43.99141" lon="3.00047">
        <ele>841.6</ele>
        <time>2026-04-30T12:48:41.000Z</time>
      </trkpt>
      <trkpt lat="43.99141" lon="3.00047">
        <ele>841.7</ele>
        <time>2026-04-30T12:48:42.000Z</time>
      </trkpt>
      <trkpt lat="43.99141" lon="3.00047">
        <ele>841.8</ele>
        <time>2026-04-30T12:48:43.000Z</time>
      </trkpt>
      <trkpt lat="43.99141" lon="3.00047">
        <ele>841.9</ele>
        <time>2026-04-30T12:48:44.000Z</time>
      </trkpt>
      <trkpt lat="43.99141" lon="3.00047">
        <ele>841.9</ele>
        <time>2026-04-30T12:48:45.000Z</time>
      </trkpt>
      <trkpt lat="43.99141" lon="3.00047">
        <ele>841.9</ele>
        <time>2026-04-30T12:48:46.000Z</time>
      </trkpt>
      <trkpt lat="43.99141" lon="3.00047">
        <ele>842.2</ele>
        <time>2026-04-30T12:48:47.000Z</time>
      </trkpt>
      <trkpt lat="43.99141" lon="3.00047">
        <ele>842.3</ele>
        <time>2026-04-30T12:48:48.000Z</time>
      </trkpt>
      <trkpt lat="43.99141" lon="3.00047">
        <ele>842.8</ele>
        <time>2026-04-30T12:48:49.000Z</time>
      </trkpt>
      <trkpt lat="43.99141" lon="3.00047">
        <ele>843.2</ele>
        <time>2026-04-30T12:48:50.000Z</time>
      </trkpt>
      <trkpt lat="43.99141" lon="3.00047">
        <ele>843.4</ele>
        <time>2026-04-30T12:48:51.000Z</time>
      </trkpt>
      <trkpt lat="43.99141" lon="3.00047">
        <ele>843.5</ele>
        <time>2026-04-30T12:48:52.000Z</time>
      </trkpt>
      <trkpt lat="43.99141" lon="3.00047">
        <ele>843.5</ele>
        <time>2026-04-30T12:48:53.000Z</time>
      </trkpt>
      <trkpt lat="43.99141" lon="3.00047">
        <ele>843.5</ele>
        <time>2026-04-30T12:48:54.000Z</time>
      </trkpt>
      <trkpt lat="43.99141" lon="3.00047">
        <ele>843.6</ele>
        <time>2026-04-30T12:48:55.000Z</time>
      </trkpt>
      <trkpt lat="43.99141" lon="3.00047">
        <ele>843.7</ele>
        <time>2026-04-30T12:48:56.000Z</time>
      </trkpt>
      <trkpt lat="43.99141" lon="3.00047">
        <ele>843.7</ele>
        <time>2026-04-30T12:48:57.000Z</time>
      </trkpt>
      <trkpt lat="43.9914" lon="3.00046">
        <ele>843.9</ele>
        <time>2026-04-30T12:48:58.000Z</time>
      </trkpt>
      <trkpt lat="43.99139" lon="3.00048">
        <ele>844</ele>
        <time>2026-04-30T12:48:59.000Z</time>
      </trkpt>
      <trkpt lat="43.99138" lon="3.00048">
        <ele>844</ele>
        <time>2026-04-30T12:49:00.000Z</time>
      </trkpt>
      <trkpt lat="43.99137" lon="3.00048">
        <ele>843.5</ele>
        <time>2026-04-30T12:49:01.000Z</time>
      </trkpt>
      <trkpt lat="43.99137" lon="3.00048">
        <ele>843.1</ele>
        <time>2026-04-30T12:49:02.000Z</time>
      </trkpt>
      <trkpt lat="43.99137" lon="3.00048">
        <ele>843.1</ele>
        <time>2026-04-30T12:49:03.000Z</time>
      </trkpt>
      <trkpt lat="43.99137" lon="3.00049">
        <ele>843.1</ele>
        <time>2026-04-30T12:49:04.000Z</time>
      </trkpt>
      <trkpt lat="43.99137" lon="3.00049">
        <ele>843.2</ele>
        <time>2026-04-30T12:49:05.000Z</time>
      </trkpt>
      <trkpt lat="43.99137" lon="3.00049">
        <ele>843</ele>
        <time>2026-04-30T12:49:06.000Z</time>
      </trkpt>
      <trkpt lat="43.99137" lon="3.00049">
        <ele>842.9</ele>
        <time>2026-04-30T12:49:07.000Z</time>
      </trkpt>
      <trkpt lat="43.99137" lon="3.00049">
        <ele>842.9</ele>
        <time>2026-04-30T12:49:08.000Z</time>
      </trkpt>
      <trkpt lat="43.99137" lon="3.00049">
        <ele>842.9</ele>
        <time>2026-04-30T12:49:09.000Z</time>
      </trkpt>
      <trkpt lat="43.99137" lon="3.00049">
        <ele>842.9</ele>
        <time>2026-04-30T12:49:10.000Z</time>
      </trkpt>
      <trkpt lat="43.99137" lon="3.00049">
        <ele>842.8</ele>
        <time>2026-04-30T12:49:11.000Z</time>
      </trkpt>
      <trkpt lat="43.99137" lon="3.00049">
        <ele>842.8</ele>
        <time>2026-04-30T12:49:12.000Z</time>
      </trkpt>
      <trkpt lat="43.99136" lon="3.00049">
        <ele>842.8</ele>
        <time>2026-04-30T12:49:13.000Z</time>
      </trkpt>
      <trkpt lat="43.99136" lon="3.00049">
        <ele>842.9</ele>
        <time>2026-04-30T12:49:14.000Z</time>
      </trkpt>
      <trkpt lat="43.99136" lon="3.00049">
        <ele>842.9</ele>
        <time>2026-04-30T12:49:15.000Z</time>
      </trkpt>
      <trkpt lat="43.99136" lon="3.00049">
        <ele>842.9</ele>
        <time>2026-04-30T12:49:16.000Z</time>
      </trkpt>
      <trkpt lat="43.99136" lon="3.00049">
        <ele>842.8</ele>
        <time>2026-04-30T12:49:17.000Z</time>
      </trkpt>
      <trkpt lat="43.99136" lon="3.00049">
        <ele>842.7</ele>
        <time>2026-04-30T12:49:18.000Z</time>
      </trkpt>
      <trkpt lat="43.99136" lon="3.00049">
        <ele>842.4</ele>
        <time>2026-04-30T12:49:19.000Z</time>
      </trkpt>
      <trkpt lat="43.99136" lon="3.00049">
        <ele>842.3</ele>
        <time>2026-04-30T12:49:20.000Z</time>
      </trkpt>
      <trkpt lat="43.99136" lon="3.00049">
        <ele>842.1</ele>
        <time>2026-04-30T12:49:21.000Z</time>
      </trkpt>
      <trkpt lat="43.99137" lon="3.00049">
        <ele>841.9</ele>
        <time>2026-04-30T12:49:22.000Z</time>
      </trkpt>
      <trkpt lat="43.99137" lon="3.00049">
        <ele>841.8</ele>
        <time>2026-04-30T12:49:23.000Z</time>
      </trkpt>
      <trkpt lat="43.99137" lon="3.00049">
        <ele>841.8</ele>
        <time>2026-04-30T12:49:24.000Z</time>
      </trkpt>
      <trkpt lat="43.99137" lon="3.00049">
        <ele>841.9</ele>
        <time>2026-04-30T12:49:25.000Z</time>
      </trkpt>
      <trkpt lat="43.99137" lon="3.00049">
        <ele>841.9</ele>
        <time>2026-04-30T12:49:26.000Z</time>
      </trkpt>
      <trkpt lat="43.99137" lon="3.00049">
        <ele>841.8</ele>
        <time>2026-04-30T12:49:27.000Z</time>
      </trkpt>
      <trkpt lat="43.99137" lon="3.00049">
        <ele>841.8</ele>
        <time>2026-04-30T12:49:28.000Z</time>
      </trkpt>
      <trkpt lat="43.99137" lon="3.00049">
        <ele>841.7</ele>
        <time>2026-04-30T12:49:29.000Z</time>
      </trkpt>
      <trkpt lat="43.99137" lon="3.00049">
        <ele>841.6</ele>
        <time>2026-04-30T12:49:30.000Z</time>
      </trkpt>
      <trkpt lat="43.99137" lon="3.00049">
        <ele>841.5</ele>
        <time>2026-04-30T12:49:31.000Z</time>
      </trkpt>
      <trkpt lat="43.99136" lon="3.00049">
        <ele>841.5</ele>
        <time>2026-04-30T12:49:32.000Z</time>
      </trkpt>
      <trkpt lat="43.99136" lon="3.00049">
        <ele>841.6</ele>
        <time>2026-04-30T12:49:33.000Z</time>
      </trkpt>
      <trkpt lat="43.99136" lon="3.00049">
        <ele>841.8</ele>
        <time>2026-04-30T12:49:34.000Z</time>
      </trkpt>
      <trkpt lat="43.99136" lon="3.00049">
        <ele>842</ele>
        <time>2026-04-30T12:49:35.000Z</time>
      </trkpt>
      <trkpt lat="43.99136" lon="3.00049">
        <ele>842.2</ele>
        <time>2026-04-30T12:49:36.000Z</time>
      </trkpt>
      <trkpt lat="43.99136" lon="3.00049">
        <ele>842.3</ele>
        <time>2026-04-30T12:49:37.000Z</time>
      </trkpt>
      <trkpt lat="43.99136" lon="3.0005">
        <ele>842.4</ele>
        <time>2026-04-30T12:49:39.000Z</time>
      </trkpt>
      <trkpt lat="43.99136" lon="3.0005">
        <ele>842.5</ele>
        <time>2026-04-30T12:49:40.000Z</time>
      </trkpt>
      <trkpt lat="43.99136" lon="3.00051">
        <ele>842.4</ele>
        <time>2026-04-30T12:49:41.000Z</time>
      </trkpt>
      <trkpt lat="43.99136" lon="3.00051">
        <ele>842.4</ele>
        <time>2026-04-30T12:49:42.000Z</time>
      </trkpt>
      <trkpt lat="43.99135" lon="3.00053">
        <ele>842.5</ele>
        <time>2026-04-30T12:49:43.000Z</time>
      </trkpt>
      <trkpt lat="43.99135" lon="3.00054">
        <ele>842.5</ele>
        <time>2026-04-30T12:49:44.000Z</time>
      </trkpt>
      <trkpt lat="43.99135" lon="3.00055">
        <ele>842.5</ele>
        <time>2026-04-30T12:49:45.000Z</time>
      </trkpt>
      <trkpt lat="43.99135" lon="3.00055">
        <ele>842.4</ele>
        <time>2026-04-30T12:49:46.000Z</time>
      </trkpt>
      <trkpt lat="43.99136" lon="3.00055">
        <ele>842.5</ele>
        <time>2026-04-30T12:49:47.000Z</time>
      </trkpt>
      <trkpt lat="43.99136" lon="3.00055">
        <ele>842.3</ele>
        <time>2026-04-30T12:49:48.000Z</time>
      </trkpt>
      <trkpt lat="43.99137" lon="3.00054">
        <ele>842.5</ele>
        <time>2026-04-30T12:49:49.000Z</time>
      </trkpt>
      <trkpt lat="43.99137" lon="3.00054">
        <ele>842.3</ele>
        <time>2026-04-30T12:49:50.000Z</time>
      </trkpt>
      <trkpt lat="43.99137" lon="3.00054">
        <ele>842.1</ele>
        <time>2026-04-30T12:49:51.000Z</time>
      </trkpt>
      <trkpt lat="43.99137" lon="3.00054">
        <ele>842</ele>
        <time>2026-04-30T12:49:52.000Z</time>
      </trkpt>
      <trkpt lat="43.99137" lon="3.00054">
        <ele>841.9</ele>
        <time>2026-04-30T12:49:53.000Z</time>
      </trkpt>
      <trkpt lat="43.99137" lon="3.00054">
        <ele>841.8</ele>
        <time>2026-04-30T12:49:54.000Z</time>
      </trkpt>
      <trkpt lat="43.99137" lon="3.00053">
        <ele>841.5</ele>
        <time>2026-04-30T12:49:55.000Z</time>
      </trkpt>
      <trkpt lat="43.99137" lon="3.00053">
        <ele>841.3</ele>
        <time>2026-04-30T12:49:56.000Z</time>
      </trkpt>
      <trkpt lat="43.99137" lon="3.00053">
        <ele>841.5</ele>
        <time>2026-04-30T12:49:57.000Z</time>
      </trkpt>
      <trkpt lat="43.99137" lon="3.00053">
        <ele>841.4</ele>
        <time>2026-04-30T12:49:58.000Z</time>
      </trkpt>
      <trkpt lat="43.99137" lon="3.00053">
        <ele>841.3</ele>
        <time>2026-04-30T12:49:59.000Z</time>
      </trkpt>
      <trkpt lat="43.99138" lon="3.00053">
        <ele>841.7</ele>
        <time>2026-04-30T12:50:00.000Z</time>
      </trkpt>
      <trkpt lat="43.99138" lon="3.00052">
        <ele>842.1</ele>
        <time>2026-04-30T12:50:01.000Z</time>
      </trkpt>
      <trkpt lat="43.99138" lon="3.00052">
        <ele>842.6</ele>
        <time>2026-04-30T12:50:02.000Z</time>
      </trkpt>
      <trkpt lat="43.99138" lon="3.00052">
        <ele>843</ele>
        <time>2026-04-30T12:50:03.000Z</time>
      </trkpt>
      <trkpt lat="43.99138" lon="3.00052">
        <ele>842.9</ele>
        <time>2026-04-30T12:50:04.000Z</time>
      </trkpt>
      <trkpt lat="43.99138" lon="3.00052">
        <ele>842.9</ele>
        <time>2026-04-30T12:50:05.000Z</time>
      </trkpt>
      <trkpt lat="43.99138" lon="3.00052">
        <ele>842.8</ele>
        <time>2026-04-30T12:50:06.000Z</time>
      </trkpt>
      <trkpt lat="43.99138" lon="3.00052">
        <ele>842.8</ele>
        <time>2026-04-30T12:50:07.000Z</time>
      </trkpt>
      <trkpt lat="43.99138" lon="3.00052">
        <ele>842.8</ele>
        <time>2026-04-30T12:50:08.000Z</time>
      </trkpt>
      <trkpt lat="43.99138" lon="3.00052">
        <ele>842.7</ele>
        <time>2026-04-30T12:50:09.000Z</time>
      </trkpt>
      <trkpt lat="43.99138" lon="3.00052">
        <ele>842.5</ele>
        <time>2026-04-30T12:50:10.000Z</time>
      </trkpt>
      <trkpt lat="43.99138" lon="3.00052">
        <ele>842.4</ele>
        <time>2026-04-30T12:50:11.000Z</time>
      </trkpt>
      <trkpt lat="43.99137" lon="3.00052">
        <ele>842.4</ele>
        <time>2026-04-30T12:50:12.000Z</time>
      </trkpt>
      <trkpt lat="43.99137" lon="3.00052">
        <ele>842.4</ele>
        <time>2026-04-30T12:50:13.000Z</time>
      </trkpt>
      <trkpt lat="43.99137" lon="3.00053">
        <ele>842.5</ele>
        <time>2026-04-30T12:50:14.000Z</time>
      </trkpt>
      <trkpt lat="43.99137" lon="3.00053">
        <ele>842.4</ele>
        <time>2026-04-30T12:50:15.000Z</time>
      </trkpt>
      <trkpt lat="43.99137" lon="3.00052">
        <ele>842.4</ele>
        <time>2026-04-30T12:50:16.000Z</time>
      </trkpt>
      <trkpt lat="43.99137" lon="3.00052">
        <ele>842.4</ele>
        <time>2026-04-30T12:50:17.000Z</time>
      </trkpt>
      <trkpt lat="43.99137" lon="3.00052">
        <ele>842.7</ele>
        <time>2026-04-30T12:50:18.000Z</time>
      </trkpt>
      <trkpt lat="43.99137" lon="3.00052">
        <ele>842.9</ele>
        <time>2026-04-30T12:50:19.000Z</time>
      </trkpt>
      <trkpt lat="43.99137" lon="3.00053">
        <ele>843</ele>
        <time>2026-04-30T12:50:20.000Z</time>
      </trkpt>
      <trkpt lat="43.99137" lon="3.00052">
        <ele>843.1</ele>
        <time>2026-04-30T12:50:21.000Z</time>
      </trkpt>
      <trkpt lat="43.99137" lon="3.00052">
        <ele>843.2</ele>
        <time>2026-04-30T12:50:22.000Z</time>
      </trkpt>
      <trkpt lat="43.99137" lon="3.00052">
        <ele>843.3</ele>
        <time>2026-04-30T12:50:23.000Z</time>
      </trkpt>
      <trkpt lat="43.99137" lon="3.00052">
        <ele>843</ele>
        <time>2026-04-30T12:50:24.000Z</time>
      </trkpt>
      <trkpt lat="43.99136" lon="3.00051">
        <ele>842.9</ele>
        <time>2026-04-30T12:50:25.000Z</time>
      </trkpt>
      <trkpt lat="43.99136" lon="3.00051">
        <ele>842.8</ele>
        <time>2026-04-30T12:50:26.000Z</time>
      </trkpt>
      <trkpt lat="43.99136" lon="3.00051">
        <ele>842.5</ele>
        <time>2026-04-30T12:50:27.000Z</time>
      </trkpt>
      <trkpt lat="43.99136" lon="3.00051">
        <ele>842.4</ele>
        <time>2026-04-30T12:50:28.000Z</time>
      </trkpt>
      <trkpt lat="43.99136" lon="3.00051">
        <ele>842.4</ele>
        <time>2026-04-30T12:50:29.000Z</time>
      </trkpt>
      <trkpt lat="43.99136" lon="3.00051">
        <ele>842.5</ele>
        <time>2026-04-30T12:50:30.000Z</time>
      </trkpt>
      <trkpt lat="43.99136" lon="3.00051">
        <ele>842.8</ele>
        <time>2026-04-30T12:50:31.000Z</time>
      </trkpt>
      <trkpt lat="43.99136" lon="3.00051">
        <ele>843</ele>
        <time>2026-04-30T12:50:32.000Z</time>
      </trkpt>
      <trkpt lat="43.99136" lon="3.00051">
        <ele>843.1</ele>
        <time>2026-04-30T12:50:33.000Z</time>
      </trkpt>
      <trkpt lat="43.99136" lon="3.00051">
        <ele>843.3</ele>
        <time>2026-04-30T12:50:34.000Z</time>
      </trkpt>
      <trkpt lat="43.99136" lon="3.00051">
        <ele>843.3</ele>
        <time>2026-04-30T12:50:35.000Z</time>
      </trkpt>
      <trkpt lat="43.99136" lon="3.00051">
        <ele>843.4</ele>
        <time>2026-04-30T12:50:36.000Z</time>
      </trkpt>
      <trkpt lat="43.99136" lon="3.00051">
        <ele>843.5</ele>
        <time>2026-04-30T12:50:37.000Z</time>
      </trkpt>
      <trkpt lat="43.99136" lon="3.00051">
        <ele>843.5</ele>
        <time>2026-04-30T12:50:38.000Z</time>
      </trkpt>
      <trkpt lat="43.99136" lon="3.00051">
        <ele>843.5</ele>
        <time>2026-04-30T12:50:39.000Z</time>
      </trkpt>
      <trkpt lat="43.99136" lon="3.00051">
        <ele>843.4</ele>
        <time>2026-04-30T12:50:40.000Z</time>
      </trkpt>
      <trkpt lat="43.99136" lon="3.00051">
        <ele>843.3</ele>
        <time>2026-04-30T12:50:41.000Z</time>
      </trkpt>
      <trkpt lat="43.99136" lon="3.00051">
        <ele>843.2</ele>
        <time>2026-04-30T12:50:42.000Z</time>
      </trkpt>
      <trkpt lat="43.99136" lon="3.00051">
        <ele>843.2</ele>
        <time>2026-04-30T12:50:43.000Z</time>
      </trkpt>
      <trkpt lat="43.99136" lon="3.00051">
        <ele>843.4</ele>
        <time>2026-04-30T12:50:44.000Z</time>
      </trkpt>
      <trkpt lat="43.99136" lon="3.00051">
        <ele>843.2</ele>
        <time>2026-04-30T12:50:45.000Z</time>
      </trkpt>
      <trkpt lat="43.99136" lon="3.00051">
        <ele>843.3</ele>
        <time>2026-04-30T12:50:46.000Z</time>
      </trkpt>
      <trkpt lat="43.99136" lon="3.00051">
        <ele>843.3</ele>
        <time>2026-04-30T12:50:47.000Z</time>
      </trkpt>
      <trkpt lat="43.99136" lon="3.00051">
        <ele>843.5</ele>
        <time>2026-04-30T12:50:48.000Z</time>
      </trkpt>
      <trkpt lat="43.99136" lon="3.00051">
        <ele>843.8</ele>
        <time>2026-04-30T12:50:49.000Z</time>
      </trkpt>
      <trkpt lat="43.99136" lon="3.00051">
        <ele>843.9</ele>
        <time>2026-04-30T12:50:50.000Z</time>
      </trkpt>
      <trkpt lat="43.99136" lon="3.00051">
        <ele>844.1</ele>
        <time>2026-04-30T12:50:51.000Z</time>
      </trkpt>
      <trkpt lat="43.99136" lon="3.00051">
        <ele>844.3</ele>
        <time>2026-04-30T12:50:52.000Z</time>
      </trkpt>
      <trkpt lat="43.99136" lon="3.0005">
        <ele>844.5</ele>
        <time>2026-04-30T12:50:53.000Z</time>
      </trkpt>
      <trkpt lat="43.99136" lon="3.0005">
        <ele>844.7</ele>
        <time>2026-04-30T12:50:54.000Z</time>
      </trkpt>
      <trkpt lat="43.99136" lon="3.0005">
        <ele>844.6</ele>
        <time>2026-04-30T12:50:55.000Z</time>
      </trkpt>
      <trkpt lat="43.99136" lon="3.0005">
        <ele>844.5</ele>
        <time>2026-04-30T12:50:56.000Z</time>
      </trkpt>
      <trkpt lat="43.99137" lon="3.0005">
        <ele>844.3</ele>
        <time>2026-04-30T12:50:57.000Z</time>
      </trkpt>
      <trkpt lat="43.99137" lon="3.0005">
        <ele>844.1</ele>
        <time>2026-04-30T12:50:58.000Z</time>
      </trkpt>
      <trkpt lat="43.99137" lon="3.0005">
        <ele>843.9</ele>
        <time>2026-04-30T12:50:59.000Z</time>
      </trkpt>
      <trkpt lat="43.99137" lon="3.0005">
        <ele>843.8</ele>
        <time>2026-04-30T12:51:00.000Z</time>
      </trkpt>
      <trkpt lat="43.99137" lon="3.0005">
        <ele>843.7</ele>
        <time>2026-04-30T12:51:01.000Z</time>
      </trkpt>
      <trkpt lat="43.99137" lon="3.0005">
        <ele>843.5</ele>
        <time>2026-04-30T12:51:02.000Z</time>
      </trkpt>
      <trkpt lat="43.99137" lon="3.0005">
        <ele>843.6</ele>
        <time>2026-04-30T12:51:03.000Z</time>
      </trkpt>
      <trkpt lat="43.99137" lon="3.0005">
        <ele>843.6</ele>
        <time>2026-04-30T12:51:04.000Z</time>
      </trkpt>
      <trkpt lat="43.99137" lon="3.0005">
        <ele>843.7</ele>
        <time>2026-04-30T12:51:05.000Z</time>
      </trkpt>
      <trkpt lat="43.99137" lon="3.0005">
        <ele>843.7</ele>
        <time>2026-04-30T12:51:06.000Z</time>
      </trkpt>
      <trkpt lat="43.99137" lon="3.00049">
        <ele>843.8</ele>
        <time>2026-04-30T12:51:07.000Z</time>
      </trkpt>
      <trkpt lat="43.99137" lon="3.00049">
        <ele>843.6</ele>
        <time>2026-04-30T12:51:08.000Z</time>
      </trkpt>
      <trkpt lat="43.99137" lon="3.00049">
        <ele>843.5</ele>
        <time>2026-04-30T12:51:09.000Z</time>
      </trkpt>
      <trkpt lat="43.99137" lon="3.00049">
        <ele>843.5</ele>
        <time>2026-04-30T12:51:10.000Z</time>
      </trkpt>
      <trkpt lat="43.99137" lon="3.00049">
        <ele>843.5</ele>
        <time>2026-04-30T12:51:11.000Z</time>
      </trkpt>
      <trkpt lat="43.99137" lon="3.00049">
        <ele>843.5</ele>
        <time>2026-04-30T12:51:12.000Z</time>
      </trkpt>
      <trkpt lat="43.99137" lon="3.00049">
        <ele>843.5</ele>
        <time>2026-04-30T12:51:13.000Z</time>
      </trkpt>
      <trkpt lat="43.99137" lon="3.00049">
        <ele>843.6</ele>
        <time>2026-04-30T12:51:14.000Z</time>
      </trkpt>
      <trkpt lat="43.99137" lon="3.00049">
        <ele>843.8</ele>
        <time>2026-04-30T12:51:15.000Z</time>
      </trkpt>
      <trkpt lat="43.99137" lon="3.00049">
        <ele>843.9</ele>
        <time>2026-04-30T12:51:16.000Z</time>
      </trkpt>
      <trkpt lat="43.99137" lon="3.00049">
        <ele>843.9</ele>
        <time>2026-04-30T12:51:17.000Z</time>
      </trkpt>
      <trkpt lat="43.99137" lon="3.00049">
        <ele>844</ele>
        <time>2026-04-30T12:51:18.000Z</time>
      </trkpt>
      <trkpt lat="43.99137" lon="3.00049">
        <ele>844.1</ele>
        <time>2026-04-30T12:51:19.000Z</time>
      </trkpt>
      <trkpt lat="43.99137" lon="3.00049">
        <ele>844</ele>
        <time>2026-04-30T12:51:20.000Z</time>
      </trkpt>
      <trkpt lat="43.99137" lon="3.00049">
        <ele>843.9</ele>
        <time>2026-04-30T12:51:21.000Z</time>
      </trkpt>
      <trkpt lat="43.99137" lon="3.00048">
        <ele>843.9</ele>
        <time>2026-04-30T12:51:22.000Z</time>
      </trkpt>
      <trkpt lat="43.99138" lon="3.00046">
        <ele>843.8</ele>
        <time>2026-04-30T12:51:23.000Z</time>
      </trkpt>
      <trkpt lat="43.99138" lon="3.00045">
        <ele>843.7</ele>
        <time>2026-04-30T12:51:24.000Z</time>
      </trkpt>
      <trkpt lat="43.99138" lon="3.00044">
        <ele>843.6</ele>
        <time>2026-04-30T12:51:25.000Z</time>
      </trkpt>
      <trkpt lat="43.99139" lon="3.00042">
        <ele>843.2</ele>
        <time>2026-04-30T12:51:26.000Z</time>
      </trkpt>
      <trkpt lat="43.99139" lon="3.00041">
        <ele>843</ele>
        <time>2026-04-30T12:51:27.000Z</time>
      </trkpt>
      <trkpt lat="43.99139" lon="3.00039">
        <ele>842.7</ele>
        <time>2026-04-30T12:51:28.000Z</time>
      </trkpt>
      <trkpt lat="43.99139" lon="3.00036">
        <ele>842.5</ele>
        <time>2026-04-30T12:51:29.000Z</time>
      </trkpt>
      <trkpt lat="43.99139" lon="3.00033">
        <ele>842.4</ele>
        <time>2026-04-30T12:51:30.000Z</time>
      </trkpt>
      <trkpt lat="43.99138" lon="3.00031">
        <ele>842.3</ele>
        <time>2026-04-30T12:51:31.000Z</time>
      </trkpt>
      <trkpt lat="43.99138" lon="3.0003">
        <ele>842.4</ele>
        <time>2026-04-30T12:51:32.000Z</time>
      </trkpt>
      <trkpt lat="43.99138" lon="3.00029">
        <ele>842.4</ele>
        <time>2026-04-30T12:51:33.000Z</time>
      </trkpt>
      <trkpt lat="43.99138" lon="3.00029">
        <ele>842.4</ele>
        <time>2026-04-30T12:51:34.000Z</time>
      </trkpt>
      <trkpt lat="43.99137" lon="3.00028">
        <ele>842.7</ele>
        <time>2026-04-30T12:51:35.000Z</time>
      </trkpt>
      <trkpt lat="43.99138" lon="3.00027">
        <ele>842.8</ele>
        <time>2026-04-30T12:51:36.000Z</time>
      </trkpt>
      <trkpt lat="43.99138" lon="3.00026">
        <ele>843</ele>
        <time>2026-04-30T12:51:37.000Z</time>
      </trkpt>
      <trkpt lat="43.99138" lon="3.00026">
        <ele>843</ele>
        <time>2026-04-30T12:51:38.000Z</time>
      </trkpt>
      <trkpt lat="43.99138" lon="3.00026">
        <ele>842.9</ele>
        <time>2026-04-30T12:51:39.000Z</time>
      </trkpt>
      <trkpt lat="43.99137" lon="3.00025">
        <ele>842.7</ele>
        <time>2026-04-30T12:51:40.000Z</time>
      </trkpt>
      <trkpt lat="43.99136" lon="3.00025">
        <ele>842.4</ele>
        <time>2026-04-30T12:51:41.000Z</time>
      </trkpt>
      <trkpt lat="43.99135" lon="3.00023">
        <ele>842</ele>
        <time>2026-04-30T12:51:42.000Z</time>
      </trkpt>
      <trkpt lat="43.99135" lon="3.00022">
        <ele>841.4</ele>
        <time>2026-04-30T12:51:43.000Z</time>
      </trkpt>
      <trkpt lat="43.99135" lon="3.00021">
        <ele>841.3</ele>
        <time>2026-04-30T12:51:44.000Z</time>
      </trkpt>
      <trkpt lat="43.99134" lon="3.0002">
        <ele>841.5</ele>
        <time>2026-04-30T12:51:45.000Z</time>
      </trkpt>
      <trkpt lat="43.99135" lon="3.0002">
        <ele>841.7</ele>
        <time>2026-04-30T12:51:46.000Z</time>
      </trkpt>
      <trkpt lat="43.99135" lon="3.0002">
        <ele>841.8</ele>
        <time>2026-04-30T12:51:47.000Z</time>
      </trkpt>
      <trkpt lat="43.99135" lon="3.0002">
        <ele>842.2</ele>
        <time>2026-04-30T12:51:48.000Z</time>
      </trkpt>
      <trkpt lat="43.99136" lon="3.0002">
        <ele>842.4</ele>
        <time>2026-04-30T12:51:49.000Z</time>
      </trkpt>
      <trkpt lat="43.99136" lon="3.0002">
        <ele>842.4</ele>
        <time>2026-04-30T12:51:50.000Z</time>
      </trkpt>
      <trkpt lat="43.99136" lon="3.00021">
        <ele>842.3</ele>
        <time>2026-04-30T12:51:51.000Z</time>
      </trkpt>
      <trkpt lat="43.99136" lon="3.00021">
        <ele>842</ele>
        <time>2026-04-30T12:51:52.000Z</time>
      </trkpt>
      <trkpt lat="43.99136" lon="3.00021">
        <ele>841.5</ele>
        <time>2026-04-30T12:51:53.000Z</time>
      </trkpt>
      <trkpt lat="43.99136" lon="3.00021">
        <ele>841.3</ele>
        <time>2026-04-30T12:51:54.000Z</time>
      </trkpt>
      <trkpt lat="43.99136" lon="3.00021">
        <ele>841.1</ele>
        <time>2026-04-30T12:51:55.000Z</time>
      </trkpt>
      <trkpt lat="43.99136" lon="3.00021">
        <ele>840.6</ele>
        <time>2026-04-30T12:51:56.000Z</time>
      </trkpt>
      <trkpt lat="43.99136" lon="3.0002">
        <ele>840.5</ele>
        <time>2026-04-30T12:51:57.000Z</time>
      </trkpt>
      <trkpt lat="43.99136" lon="3.0002">
        <ele>840.2</ele>
        <time>2026-04-30T12:51:58.000Z</time>
      </trkpt>
      <trkpt lat="43.99136" lon="3.0002">
        <ele>840.1</ele>
        <time>2026-04-30T12:51:59.000Z</time>
      </trkpt>
      <trkpt lat="43.99136" lon="3.0002">
        <ele>840.2</ele>
        <time>2026-04-30T12:52:00.000Z</time>
      </trkpt>
      <trkpt lat="43.99136" lon="3.00021">
        <ele>840.5</ele>
        <time>2026-04-30T12:52:01.000Z</time>
      </trkpt>
      <trkpt lat="43.99136" lon="3.00021">
        <ele>840.8</ele>
        <time>2026-04-30T12:52:02.000Z</time>
      </trkpt>
      <trkpt lat="43.99136" lon="3.00021">
        <ele>841</ele>
        <time>2026-04-30T12:52:03.000Z</time>
      </trkpt>
      <trkpt lat="43.99136" lon="3.0002">
        <ele>840.8</ele>
        <time>2026-04-30T12:52:04.000Z</time>
      </trkpt>
      <trkpt lat="43.99136" lon="3.0002">
        <ele>840.8</ele>
        <time>2026-04-30T12:52:05.000Z</time>
      </trkpt>
      <trkpt lat="43.99136" lon="3.0002">
        <ele>840.9</ele>
        <time>2026-04-30T12:52:06.000Z</time>
      </trkpt>
      <trkpt lat="43.99136" lon="3.0002">
        <ele>840.9</ele>
        <time>2026-04-30T12:52:07.000Z</time>
      </trkpt>
      <trkpt lat="43.99136" lon="3.0002">
        <ele>841</ele>
        <time>2026-04-30T12:52:08.000Z</time>
      </trkpt>
      <trkpt lat="43.99136" lon="3.0002">
        <ele>841</ele>
        <time>2026-04-30T12:52:09.000Z</time>
      </trkpt>
      <trkpt lat="43.99136" lon="3.0002">
        <ele>840.9</ele>
        <time>2026-04-30T12:52:10.000Z</time>
      </trkpt>
      <trkpt lat="43.99136" lon="3.0002">
        <ele>841.1</ele>
        <time>2026-04-30T12:52:11.000Z</time>
      </trkpt>
      <trkpt lat="43.99136" lon="3.00019">
        <ele>841.2</ele>
        <time>2026-04-30T12:52:12.000Z</time>
      </trkpt>
      <trkpt lat="43.99136" lon="3.00019">
        <ele>841.2</ele>
        <time>2026-04-30T12:52:13.000Z</time>
      </trkpt>
      <trkpt lat="43.99136" lon="3.00019">
        <ele>841.1</ele>
        <time>2026-04-30T12:52:14.000Z</time>
      </trkpt>
      <trkpt lat="43.99136" lon="3.00019">
        <ele>841</ele>
        <time>2026-04-30T12:52:15.000Z</time>
      </trkpt>
      <trkpt lat="43.99136" lon="3.00019">
        <ele>840.9</ele>
        <time>2026-04-30T12:52:16.000Z</time>
      </trkpt>
      <trkpt lat="43.99136" lon="3.00019">
        <ele>841</ele>
        <time>2026-04-30T12:52:17.000Z</time>
      </trkpt>
      <trkpt lat="43.99136" lon="3.00019">
        <ele>840.9</ele>
        <time>2026-04-30T12:52:18.000Z</time>
      </trkpt>
      <trkpt lat="43.99136" lon="3.00019">
        <ele>840.8</ele>
        <time>2026-04-30T12:52:19.000Z</time>
      </trkpt>
      <trkpt lat="43.99136" lon="3.00019">
        <ele>840.9</ele>
        <time>2026-04-30T12:52:20.000Z</time>
      </trkpt>
      <trkpt lat="43.99137" lon="3.00019">
        <ele>841</ele>
        <time>2026-04-30T12:52:21.000Z</time>
      </trkpt>
      <trkpt lat="43.99137" lon="3.00018">
        <ele>841.2</ele>
        <time>2026-04-30T12:52:22.000Z</time>
      </trkpt>
      <trkpt lat="43.99137" lon="3.00018">
        <ele>841.3</ele>
        <time>2026-04-30T12:52:23.000Z</time>
      </trkpt>
      <trkpt lat="43.99137" lon="3.00018">
        <ele>841.5</ele>
        <time>2026-04-30T12:52:24.000Z</time>
      </trkpt>
      <trkpt lat="43.99136" lon="3.00018">
        <ele>841.5</ele>
        <time>2026-04-30T12:52:25.000Z</time>
      </trkpt>
      <trkpt lat="43.99136" lon="3.00019">
        <ele>841.5</ele>
        <time>2026-04-30T12:52:26.000Z</time>
      </trkpt>
      <trkpt lat="43.99136" lon="3.00019">
        <ele>841.7</ele>
        <time>2026-04-30T12:52:27.000Z</time>
      </trkpt>
      <trkpt lat="43.99136" lon="3.00019">
        <ele>841.7</ele>
        <time>2026-04-30T12:52:28.000Z</time>
      </trkpt>
      <trkpt lat="43.99136" lon="3.00019">
        <ele>841.7</ele>
        <time>2026-04-30T12:52:29.000Z</time>
      </trkpt>
      <trkpt lat="43.99136" lon="3.00019">
        <ele>841.8</ele>
        <time>2026-04-30T12:52:30.000Z</time>
      </trkpt>
      <trkpt lat="43.99136" lon="3.00019">
        <ele>842</ele>
        <time>2026-04-30T12:52:31.000Z</time>
      </trkpt>
      <trkpt lat="43.99136" lon="3.00019">
        <ele>842.1</ele>
        <time>2026-04-30T12:52:32.000Z</time>
      </trkpt>
      <trkpt lat="43.99136" lon="3.00019">
        <ele>842.1</ele>
        <time>2026-04-30T12:52:33.000Z</time>
      </trkpt>
      <trkpt lat="43.99136" lon="3.00019">
        <ele>842.3</ele>
        <time>2026-04-30T12:52:34.000Z</time>
      </trkpt>
      <trkpt lat="43.99136" lon="3.00019">
        <ele>842.4</ele>
        <time>2026-04-30T12:52:35.000Z</time>
      </trkpt>
      <trkpt lat="43.99136" lon="3.00019">
        <ele>842.3</ele>
        <time>2026-04-30T12:52:36.000Z</time>
      </trkpt>
      <trkpt lat="43.99136" lon="3.00019">
        <ele>842.1</ele>
        <time>2026-04-30T12:52:37.000Z</time>
      </trkpt>
      <trkpt lat="43.99136" lon="3.00019">
        <ele>841.9</ele>
        <time>2026-04-30T12:52:38.000Z</time>
      </trkpt>
      <trkpt lat="43.99136" lon="3.00019">
        <ele>841.8</ele>
        <time>2026-04-30T12:52:39.000Z</time>
      </trkpt>
      <trkpt lat="43.99136" lon="3.00019">
        <ele>841.7</ele>
        <time>2026-04-30T12:52:40.000Z</time>
      </trkpt>
      <trkpt lat="43.99136" lon="3.00019">
        <ele>841.7</ele>
        <time>2026-04-30T12:52:41.000Z</time>
      </trkpt>
      <trkpt lat="43.99136" lon="3.00019">
        <ele>841.7</ele>
        <time>2026-04-30T12:52:42.000Z</time>
      </trkpt>
      <trkpt lat="43.99136" lon="3.00019">
        <ele>841.6</ele>
        <time>2026-04-30T12:52:43.000Z</time>
      </trkpt>
      <trkpt lat="43.99136" lon="3.00019">
        <ele>841.4</ele>
        <time>2026-04-30T12:52:44.000Z</time>
      </trkpt>
      <trkpt lat="43.99136" lon="3.0002">
        <ele>841.3</ele>
        <time>2026-04-30T12:52:45.000Z</time>
      </trkpt>
      <trkpt lat="43.99136" lon="3.0002">
        <ele>841.2</ele>
        <time>2026-04-30T12:52:46.000Z</time>
      </trkpt>
      <trkpt lat="43.99136" lon="3.0002">
        <ele>841.2</ele>
        <time>2026-04-30T12:52:47.000Z</time>
      </trkpt>
      <trkpt lat="43.99136" lon="3.0002">
        <ele>841.1</ele>
        <time>2026-04-30T12:52:48.000Z</time>
      </trkpt>
      <trkpt lat="43.99136" lon="3.00021">
        <ele>840.8</ele>
        <time>2026-04-30T12:52:49.000Z</time>
      </trkpt>
      <trkpt lat="43.99136" lon="3.00021">
        <ele>840.6</ele>
        <time>2026-04-30T12:52:50.000Z</time>
      </trkpt>
      <trkpt lat="43.99136" lon="3.00021">
        <ele>840.5</ele>
        <time>2026-04-30T12:52:51.000Z</time>
      </trkpt>
      <trkpt lat="43.99136" lon="3.00021">
        <ele>840.2</ele>
        <time>2026-04-30T12:52:52.000Z</time>
      </trkpt>
      <trkpt lat="43.99136" lon="3.00021">
        <ele>840.1</ele>
        <time>2026-04-30T12:52:53.000Z</time>
      </trkpt>
      <trkpt lat="43.99136" lon="3.00022">
        <ele>840.1</ele>
        <time>2026-04-30T12:52:54.000Z</time>
      </trkpt>
      <trkpt lat="43.99136" lon="3.00023">
        <ele>840.3</ele>
        <time>2026-04-30T12:52:55.000Z</time>
      </trkpt>
      <trkpt lat="43.99136" lon="3.00026">
        <ele>840.2</ele>
        <time>2026-04-30T12:52:56.000Z</time>
      </trkpt>
      <trkpt lat="43.99136" lon="3.00027">
        <ele>840.3</ele>
        <time>2026-04-30T12:52:57.000Z</time>
      </trkpt>
      <trkpt lat="43.99136" lon="3.00028">
        <ele>840.3</ele>
        <time>2026-04-30T12:52:58.000Z</time>
      </trkpt>
      <trkpt lat="43.99137" lon="3.0003">
        <ele>840.2</ele>
        <time>2026-04-30T12:52:59.000Z</time>
      </trkpt>
      <trkpt lat="43.99138" lon="3.00031">
        <ele>840</ele>
        <time>2026-04-30T12:53:00.000Z</time>
      </trkpt>
      <trkpt lat="43.99137" lon="3.00033">
        <ele>839.9</ele>
        <time>2026-04-30T12:53:01.000Z</time>
      </trkpt>
      <trkpt lat="43.99137" lon="3.00034">
        <ele>839.8</ele>
        <time>2026-04-30T12:53:02.000Z</time>
      </trkpt>
      <trkpt lat="43.99136" lon="3.00035">
        <ele>839.8</ele>
        <time>2026-04-30T12:53:03.000Z</time>
      </trkpt>
      <trkpt lat="43.99135" lon="3.00037">
        <ele>839.7</ele>
        <time>2026-04-30T12:53:04.000Z</time>
      </trkpt>
      <trkpt lat="43.99135" lon="3.00038">
        <ele>839.4</ele>
        <time>2026-04-30T12:53:05.000Z</time>
      </trkpt>
      <trkpt lat="43.99134" lon="3.00039">
        <ele>839.3</ele>
        <time>2026-04-30T12:53:06.000Z</time>
      </trkpt>
      <trkpt lat="43.99133" lon="3.00039">
        <ele>839</ele>
        <time>2026-04-30T12:53:07.000Z</time>
      </trkpt>
      <trkpt lat="43.99131" lon="3.00038">
        <ele>839</ele>
        <time>2026-04-30T12:53:08.000Z</time>
      </trkpt>
      <trkpt lat="43.9913" lon="3.00038">
        <ele>839.1</ele>
        <time>2026-04-30T12:53:09.000Z</time>
      </trkpt>
      <trkpt lat="43.9913" lon="3.00037">
        <ele>839.2</ele>
        <time>2026-04-30T12:53:10.000Z</time>
      </trkpt>
      <trkpt lat="43.99129" lon="3.00038">
        <ele>839.4</ele>
        <time>2026-04-30T12:53:11.000Z</time>
      </trkpt>
      <trkpt lat="43.99128" lon="3.00039">
        <ele>839.1</ele>
        <time>2026-04-30T12:53:12.000Z</time>
      </trkpt>
      <trkpt lat="43.99127" lon="3.00038">
        <ele>838.9</ele>
        <time>2026-04-30T12:53:13.000Z</time>
      </trkpt>
      <trkpt lat="43.99126" lon="3.00039">
        <ele>838.8</ele>
        <time>2026-04-30T12:53:14.000Z</time>
      </trkpt>
      <trkpt lat="43.99125" lon="3.00039">
        <ele>839</ele>
        <time>2026-04-30T12:53:15.000Z</time>
      </trkpt>
      <trkpt lat="43.99124" lon="3.00038">
        <ele>838.8</ele>
        <time>2026-04-30T12:53:16.000Z</time>
      </trkpt>
      <trkpt lat="43.99122" lon="3.00039">
        <ele>838.9</ele>
        <time>2026-04-30T12:53:17.000Z</time>
      </trkpt>
      <trkpt lat="43.99121" lon="3.00039">
        <ele>839.1</ele>
        <time>2026-04-30T12:53:18.000Z</time>
      </trkpt>
      <trkpt lat="43.9912" lon="3.0004">
        <ele>839.2</ele>
        <time>2026-04-30T12:53:19.000Z</time>
      </trkpt>
      <trkpt lat="43.99119" lon="3.0004">
        <ele>839.3</ele>
        <time>2026-04-30T12:53:20.000Z</time>
      </trkpt>
      <trkpt lat="43.99118" lon="3.0004">
        <ele>839.3</ele>
        <time>2026-04-30T12:53:21.000Z</time>
      </trkpt>
      <trkpt lat="43.99116" lon="3.0004">
        <ele>839.2</ele>
        <time>2026-04-30T12:53:22.000Z</time>
      </trkpt>
      <trkpt lat="43.99115" lon="3.00039">
        <ele>839</ele>
        <time>2026-04-30T12:53:23.000Z</time>
      </trkpt>
      <trkpt lat="43.99114" lon="3.00039">
        <ele>838.8</ele>
        <time>2026-04-30T12:53:24.000Z</time>
      </trkpt>
      <trkpt lat="43.99113" lon="3.00039">
        <ele>838.7</ele>
        <time>2026-04-30T12:53:25.000Z</time>
      </trkpt>
      <trkpt lat="43.99112" lon="3.0004">
        <ele>838.6</ele>
        <time>2026-04-30T12:53:26.000Z</time>
      </trkpt>
      <trkpt lat="43.9911" lon="3.00041">
        <ele>838.5</ele>
        <time>2026-04-30T12:53:27.000Z</time>
      </trkpt>
      <trkpt lat="43.99109" lon="3.00042">
        <ele>838.3</ele>
        <time>2026-04-30T12:53:28.000Z</time>
      </trkpt>
      <trkpt lat="43.99108" lon="3.00042">
        <ele>838.1</ele>
        <time>2026-04-30T12:53:29.000Z</time>
      </trkpt>
      <trkpt lat="43.99107" lon="3.00042">
        <ele>838</ele>
        <time>2026-04-30T12:53:30.000Z</time>
      </trkpt>
      <trkpt lat="43.99106" lon="3.00042">
        <ele>837.8</ele>
        <time>2026-04-30T12:53:31.000Z</time>
      </trkpt>
      <trkpt lat="43.99104" lon="3.00041">
        <ele>837.7</ele>
        <time>2026-04-30T12:53:32.000Z</time>
      </trkpt>
      <trkpt lat="43.99103" lon="3.00041">
        <ele>837.8</ele>
        <time>2026-04-30T12:53:33.000Z</time>
      </trkpt>
      <trkpt lat="43.99102" lon="3.00041">
        <ele>837.7</ele>
        <time>2026-04-30T12:53:34.000Z</time>
      </trkpt>
      <trkpt lat="43.99101" lon="3.0004">
        <ele>837.7</ele>
        <time>2026-04-30T12:53:35.000Z</time>
      </trkpt>
      <trkpt lat="43.991" lon="3.0004">
        <ele>837.7</ele>
        <time>2026-04-30T12:53:36.000Z</time>
      </trkpt>
      <trkpt lat="43.99099" lon="3.0004">
        <ele>837.8</ele>
        <time>2026-04-30T12:53:37.000Z</time>
      </trkpt>
      <trkpt lat="43.99098" lon="3.0004">
        <ele>838.1</ele>
        <time>2026-04-30T12:53:38.000Z</time>
      </trkpt>
      <trkpt lat="43.99097" lon="3.00039">
        <ele>838.2</ele>
        <time>2026-04-30T12:53:39.000Z</time>
      </trkpt>
      <trkpt lat="43.99096" lon="3.00038">
        <ele>838</ele>
        <time>2026-04-30T12:53:40.000Z</time>
      </trkpt>
      <trkpt lat="43.99096" lon="3.00037">
        <ele>837.8</ele>
        <time>2026-04-30T12:53:41.000Z</time>
      </trkpt>
      <trkpt lat="43.99095" lon="3.00035">
        <ele>837.5</ele>
        <time>2026-04-30T12:53:42.000Z</time>
      </trkpt>
      <trkpt lat="43.99094" lon="3.00034">
        <ele>837.6</ele>
        <time>2026-04-30T12:53:43.000Z</time>
      </trkpt>
      <trkpt lat="43.99093" lon="3.00033">
        <ele>837.9</ele>
        <time>2026-04-30T12:53:44.000Z</time>
      </trkpt>
      <trkpt lat="43.99092" lon="3.00032">
        <ele>838</ele>
        <time>2026-04-30T12:53:45.000Z</time>
      </trkpt>
      <trkpt lat="43.99092" lon="3.00031">
        <ele>838</ele>
        <time>2026-04-30T12:53:46.000Z</time>
      </trkpt>
      <trkpt lat="43.99091" lon="3.0003">
        <ele>838</ele>
        <time>2026-04-30T12:53:47.000Z</time>
      </trkpt>
      <trkpt lat="43.99091" lon="3.0003">
        <ele>838.2</ele>
        <time>2026-04-30T12:53:48.000Z</time>
      </trkpt>
      <trkpt lat="43.99091" lon="3.0003">
        <ele>838.5</ele>
        <time>2026-04-30T12:53:49.000Z</time>
      </trkpt>
      <trkpt lat="43.99091" lon="3.00029">
        <ele>838.9</ele>
        <time>2026-04-30T12:53:50.000Z</time>
      </trkpt>
      <trkpt lat="43.99091" lon="3.00028">
        <ele>839.1</ele>
        <time>2026-04-30T12:53:51.000Z</time>
      </trkpt>
      <trkpt lat="43.99092" lon="3.00027">
        <ele>839</ele>
        <time>2026-04-30T12:53:52.000Z</time>
      </trkpt>
      <trkpt lat="43.99092" lon="3.00025">
        <ele>838.7</ele>
        <time>2026-04-30T12:53:53.000Z</time>
      </trkpt>
      <trkpt lat="43.99093" lon="3.00023">
        <ele>838.6</ele>
        <time>2026-04-30T12:53:54.000Z</time>
      </trkpt>
      <trkpt lat="43.99093" lon="3.00022">
        <ele>838.6</ele>
        <time>2026-04-30T12:53:55.000Z</time>
      </trkpt>
      <trkpt lat="43.99094" lon="3.00021">
        <ele>838.4</ele>
        <time>2026-04-30T12:53:56.000Z</time>
      </trkpt>
      <trkpt lat="43.99094" lon="3.00022">
        <ele>838.2</ele>
        <time>2026-04-30T12:53:57.000Z</time>
      </trkpt>
      <trkpt lat="43.99094" lon="3.00023">
        <ele>837.9</ele>
        <time>2026-04-30T12:53:58.000Z</time>
      </trkpt>
      <trkpt lat="43.99094" lon="3.00023">
        <ele>837.5</ele>
        <time>2026-04-30T12:53:59.000Z</time>
      </trkpt>
      <trkpt lat="43.99094" lon="3.00023">
        <ele>837.5</ele>
        <time>2026-04-30T12:54:00.000Z</time>
      </trkpt>
      <trkpt lat="43.99094" lon="3.00023">
        <ele>837.3</ele>
        <time>2026-04-30T12:54:01.000Z</time>
      </trkpt>
      <trkpt lat="43.99094" lon="3.00023">
        <ele>836.9</ele>
        <time>2026-04-30T12:54:02.000Z</time>
      </trkpt>
      <trkpt lat="43.99094" lon="3.00023">
        <ele>837</ele>
        <time>2026-04-30T12:54:03.000Z</time>
      </trkpt>
      <trkpt lat="43.99094" lon="3.00022">
        <ele>837.1</ele>
        <time>2026-04-30T12:54:04.000Z</time>
      </trkpt>
      <trkpt lat="43.99095" lon="3.00021">
        <ele>837.1</ele>
        <time>2026-04-30T12:54:05.000Z</time>
      </trkpt>
      <trkpt lat="43.99095" lon="3.00021">
        <ele>837.3</ele>
        <time>2026-04-30T12:54:06.000Z</time>
      </trkpt>
      <trkpt lat="43.99095" lon="3.00021">
        <ele>837.5</ele>
        <time>2026-04-30T12:54:07.000Z</time>
      </trkpt>
      <trkpt lat="43.99095" lon="3.00021">
        <ele>837.5</ele>
        <time>2026-04-30T12:54:08.000Z</time>
      </trkpt>
      <trkpt lat="43.99095" lon="3.00021">
        <ele>837.5</ele>
        <time>2026-04-30T12:54:09.000Z</time>
      </trkpt>
      <trkpt lat="43.99095" lon="3.00021">
        <ele>837.6</ele>
        <time>2026-04-30T12:54:10.000Z</time>
      </trkpt>
      <trkpt lat="43.99095" lon="3.00021">
        <ele>837.4</ele>
        <time>2026-04-30T12:54:11.000Z</time>
      </trkpt>
      <trkpt lat="43.99096" lon="3.00021">
        <ele>837.1</ele>
        <time>2026-04-30T12:54:12.000Z</time>
      </trkpt>
      <trkpt lat="43.99096" lon="3.00021">
        <ele>836.8</ele>
        <time>2026-04-30T12:54:13.000Z</time>
      </trkpt>
      <trkpt lat="43.99097" lon="3.0002">
        <ele>836.4</ele>
        <time>2026-04-30T12:54:14.000Z</time>
      </trkpt>
      <trkpt lat="43.99098" lon="3.00019">
        <ele>836.1</ele>
        <time>2026-04-30T12:54:15.000Z</time>
      </trkpt>
      <trkpt lat="43.99099" lon="3.00018">
        <ele>835.7</ele>
        <time>2026-04-30T12:54:16.000Z</time>
      </trkpt>
      <trkpt lat="43.99099" lon="3.00018">
        <ele>835.3</ele>
        <time>2026-04-30T12:54:17.000Z</time>
      </trkpt>
      <trkpt lat="43.99099" lon="3.00018">
        <ele>834.9</ele>
        <time>2026-04-30T12:54:18.000Z</time>
      </trkpt>
      <trkpt lat="43.991" lon="3.00018">
        <ele>834.9</ele>
        <time>2026-04-30T12:54:19.000Z</time>
      </trkpt>
      <trkpt lat="43.991" lon="3.00017">
        <ele>834.8</ele>
        <time>2026-04-30T12:54:20.000Z</time>
      </trkpt>
      <trkpt lat="43.99101" lon="3.00017">
        <ele>834.7</ele>
        <time>2026-04-30T12:54:21.000Z</time>
      </trkpt>
      <trkpt lat="43.99102" lon="3.00016">
        <ele>834.3</ele>
        <time>2026-04-30T12:54:22.000Z</time>
      </trkpt>
      <trkpt lat="43.99103" lon="3.00015">
        <ele>834</ele>
        <time>2026-04-30T12:54:23.000Z</time>
      </trkpt>
      <trkpt lat="43.99104" lon="3.00014">
        <ele>833.6</ele>
        <time>2026-04-30T12:54:24.000Z</time>
      </trkpt>
      <trkpt lat="43.99105" lon="3.00014">
        <ele>833.1</ele>
        <time>2026-04-30T12:54:25.000Z</time>
      </trkpt>
      <trkpt lat="43.99106" lon="3.00013">
        <ele>833</ele>
        <time>2026-04-30T12:54:26.000Z</time>
      </trkpt>
      <trkpt lat="43.99107" lon="3.00012">
        <ele>832.9</ele>
        <time>2026-04-30T12:54:27.000Z</time>
      </trkpt>
      <trkpt lat="43.99107" lon="3.00011">
        <ele>832.8</ele>
        <time>2026-04-30T12:54:28.000Z</time>
      </trkpt>
      <trkpt lat="43.99107" lon="3.0001">
        <ele>832.5</ele>
        <time>2026-04-30T12:54:29.000Z</time>
      </trkpt>
      <trkpt lat="43.99108" lon="3.00008">
        <ele>832.1</ele>
        <time>2026-04-30T12:54:30.000Z</time>
      </trkpt>
      <trkpt lat="43.99108" lon="3.00007">
        <ele>831.6</ele>
        <time>2026-04-30T12:54:31.000Z</time>
      </trkpt>
      <trkpt lat="43.99108" lon="3.00005">
        <ele>831</ele>
        <time>2026-04-30T12:54:32.000Z</time>
      </trkpt>
      <trkpt lat="43.99109" lon="3.00004">
        <ele>830.5</ele>
        <time>2026-04-30T12:54:33.000Z</time>
      </trkpt>
      <trkpt lat="43.99109" lon="3.00003">
        <ele>830.3</ele>
        <time>2026-04-30T12:54:34.000Z</time>
      </trkpt>
      <trkpt lat="43.9911" lon="3.00002">
        <ele>830</ele>
        <time>2026-04-30T12:54:35.000Z</time>
      </trkpt>
      <trkpt lat="43.9911" lon="3.00001">
        <ele>829.9</ele>
        <time>2026-04-30T12:54:36.000Z</time>
      </trkpt>
      <trkpt lat="43.9911" lon="3">
        <ele>829.4</ele>
        <time>2026-04-30T12:54:37.000Z</time>
      </trkpt>
      <trkpt lat="43.99111" lon="3">
        <ele>828.8</ele>
        <time>2026-04-30T12:54:38.000Z</time>
      </trkpt>
      <trkpt lat="43.99111" lon="2.99999">
        <ele>828.8</ele>
        <time>2026-04-30T12:54:39.000Z</time>
      </trkpt>
      <trkpt lat="43.99113" lon="2.99998">
        <ele>828.6</ele>
        <time>2026-04-30T12:54:40.000Z</time>
      </trkpt>
      <trkpt lat="43.99113" lon="2.99997">
        <ele>828.3</ele>
        <time>2026-04-30T12:54:41.000Z</time>
      </trkpt>
      <trkpt lat="43.99114" lon="2.99996">
        <ele>828.1</ele>
        <time>2026-04-30T12:54:42.000Z</time>
      </trkpt>
      <trkpt lat="43.99115" lon="2.99995">
        <ele>828.1</ele>
        <time>2026-04-30T12:54:43.000Z</time>
      </trkpt>
      <trkpt lat="43.99115" lon="2.99994">
        <ele>828</ele>
        <time>2026-04-30T12:54:44.000Z</time>
      </trkpt>
      <trkpt lat="43.99115" lon="2.99993">
        <ele>827.9</ele>
        <time>2026-04-30T12:54:45.000Z</time>
      </trkpt>
      <trkpt lat="43.99116" lon="2.99993">
        <ele>827.7</ele>
        <time>2026-04-30T12:54:46.000Z</time>
      </trkpt>
      <trkpt lat="43.99117" lon="2.99992">
        <ele>827.5</ele>
        <time>2026-04-30T12:54:47.000Z</time>
      </trkpt>
      <trkpt lat="43.99118" lon="2.99992">
        <ele>827.4</ele>
        <time>2026-04-30T12:54:48.000Z</time>
      </trkpt>
      <trkpt lat="43.99119" lon="2.99991">
        <ele>827.2</ele>
        <time>2026-04-30T12:54:49.000Z</time>
      </trkpt>
      <trkpt lat="43.99119" lon="2.9999">
        <ele>827.2</ele>
        <time>2026-04-30T12:54:50.000Z</time>
      </trkpt>
      <trkpt lat="43.99119" lon="2.99988">
        <ele>827</ele>
        <time>2026-04-30T12:54:51.000Z</time>
      </trkpt>
      <trkpt lat="43.9912" lon="2.99987">
        <ele>826.7</ele>
        <time>2026-04-30T12:54:52.000Z</time>
      </trkpt>
      <trkpt lat="43.9912" lon="2.99986">
        <ele>826.3</ele>
        <time>2026-04-30T12:54:53.000Z</time>
      </trkpt>
      <trkpt lat="43.99119" lon="2.99985">
        <ele>826.5</ele>
        <time>2026-04-30T12:54:54.000Z</time>
      </trkpt>
      <trkpt lat="43.99119" lon="2.99983">
        <ele>826.8</ele>
        <time>2026-04-30T12:54:55.000Z</time>
      </trkpt>
      <trkpt lat="43.9912" lon="2.99981">
        <ele>827</ele>
        <time>2026-04-30T12:54:56.000Z</time>
      </trkpt>
      <trkpt lat="43.9912" lon="2.99979">
        <ele>827</ele>
        <time>2026-04-30T12:54:57.000Z</time>
      </trkpt>
      <trkpt lat="43.99122" lon="2.99979">
        <ele>826.7</ele>
        <time>2026-04-30T12:54:58.000Z</time>
      </trkpt>
      <trkpt lat="43.99123" lon="2.9998">
        <ele>826.1</ele>
        <time>2026-04-30T12:54:59.000Z</time>
      </trkpt>
      <trkpt lat="43.99125" lon="2.99982">
        <ele>825.8</ele>
        <time>2026-04-30T12:55:00.000Z</time>
      </trkpt>
      <trkpt lat="43.99126" lon="2.99984">
        <ele>825.4</ele>
        <time>2026-04-30T12:55:01.000Z</time>
      </trkpt>
      <trkpt lat="43.99127" lon="2.99985">
        <ele>825.3</ele>
        <time>2026-04-30T12:55:02.000Z</time>
      </trkpt>
      <trkpt lat="43.99128" lon="2.99985">
        <ele>825</ele>
        <time>2026-04-30T12:55:03.000Z</time>
      </trkpt>
      <trkpt lat="43.9913" lon="2.99985">
        <ele>824.7</ele>
        <time>2026-04-30T12:55:04.000Z</time>
      </trkpt>
      <trkpt lat="43.99131" lon="2.99985">
        <ele>824.5</ele>
        <time>2026-04-30T12:55:05.000Z</time>
      </trkpt>
      <trkpt lat="43.99132" lon="2.99984">
        <ele>824.2</ele>
        <time>2026-04-30T12:55:06.000Z</time>
      </trkpt>
      <trkpt lat="43.99133" lon="2.99983">
        <ele>824.1</ele>
        <time>2026-04-30T12:55:07.000Z</time>
      </trkpt>
      <trkpt lat="43.99134" lon="2.99982">
        <ele>823.9</ele>
        <time>2026-04-30T12:55:08.000Z</time>
      </trkpt>
      <trkpt lat="43.99135" lon="2.9998">
        <ele>823.8</ele>
        <time>2026-04-30T12:55:09.000Z</time>
      </trkpt>
      <trkpt lat="43.99136" lon="2.99979">
        <ele>823.8</ele>
        <time>2026-04-30T12:55:10.000Z</time>
      </trkpt>
      <trkpt lat="43.99137" lon="2.99979">
        <ele>823.7</ele>
        <time>2026-04-30T12:55:11.000Z</time>
      </trkpt>
      <trkpt lat="43.99137" lon="2.99979">
        <ele>823.5</ele>
        <time>2026-04-30T12:55:12.000Z</time>
      </trkpt>
      <trkpt lat="43.99138" lon="2.9998">
        <ele>823.2</ele>
        <time>2026-04-30T12:55:13.000Z</time>
      </trkpt>
      <trkpt lat="43.99139" lon="2.9998">
        <ele>822.9</ele>
        <time>2026-04-30T12:55:14.000Z</time>
      </trkpt>
      <trkpt lat="43.99139" lon="2.99981">
        <ele>822.7</ele>
        <time>2026-04-30T12:55:15.000Z</time>
      </trkpt>
      <trkpt lat="43.9914" lon="2.99981">
        <ele>822.6</ele>
        <time>2026-04-30T12:55:16.000Z</time>
      </trkpt>
      <trkpt lat="43.99141" lon="2.99981">
        <ele>822.8</ele>
        <time>2026-04-30T12:55:17.000Z</time>
      </trkpt>
      <trkpt lat="43.99142" lon="2.9998">
        <ele>822.9</ele>
        <time>2026-04-30T12:55:18.000Z</time>
      </trkpt>
      <trkpt lat="43.99142" lon="2.9998">
        <ele>822.5</ele>
        <time>2026-04-30T12:55:19.000Z</time>
      </trkpt>
      <trkpt lat="43.99143" lon="2.9998">
        <ele>822.5</ele>
        <time>2026-04-30T12:55:20.000Z</time>
      </trkpt>
      <trkpt lat="43.99144" lon="2.99979">
        <ele>822.5</ele>
        <time>2026-04-30T12:55:21.000Z</time>
      </trkpt>
      <trkpt lat="43.99145" lon="2.99978">
        <ele>822.5</ele>
        <time>2026-04-30T12:55:22.000Z</time>
      </trkpt>
      <trkpt lat="43.99146" lon="2.99976">
        <ele>822.3</ele>
        <time>2026-04-30T12:55:23.000Z</time>
      </trkpt>
      <trkpt lat="43.99146" lon="2.99974">
        <ele>822.2</ele>
        <time>2026-04-30T12:55:24.000Z</time>
      </trkpt>
      <trkpt lat="43.99146" lon="2.99973">
        <ele>821.9</ele>
        <time>2026-04-30T12:55:25.000Z</time>
      </trkpt>
      <trkpt lat="43.99146" lon="2.9997">
        <ele>821.4</ele>
        <time>2026-04-30T12:55:26.000Z</time>
      </trkpt>
      <trkpt lat="43.99145" lon="2.9997">
        <ele>820.6</ele>
        <time>2026-04-30T12:55:27.000Z</time>
      </trkpt>
      <trkpt lat="43.99145" lon="2.99968">
        <ele>820.6</ele>
        <time>2026-04-30T12:55:28.000Z</time>
      </trkpt>
      <trkpt lat="43.99144" lon="2.99968">
        <ele>820.2</ele>
        <time>2026-04-30T12:55:29.000Z</time>
      </trkpt>
      <trkpt lat="43.99144" lon="2.99967">
        <ele>820.2</ele>
        <time>2026-04-30T12:55:30.000Z</time>
      </trkpt>
      <trkpt lat="43.99143" lon="2.99966">
        <ele>820.1</ele>
        <time>2026-04-30T12:55:31.000Z</time>
      </trkpt>
      <trkpt lat="43.99142" lon="2.99966">
        <ele>820.4</ele>
        <time>2026-04-30T12:55:32.000Z</time>
      </trkpt>
      <trkpt lat="43.99142" lon="2.99966">
        <ele>820.7</ele>
        <time>2026-04-30T12:55:33.000Z</time>
      </trkpt>
      <trkpt lat="43.99143" lon="2.99965">
        <ele>821.1</ele>
        <time>2026-04-30T12:55:34.000Z</time>
      </trkpt>
      <trkpt lat="43.99142" lon="2.99965">
        <ele>821.6</ele>
        <time>2026-04-30T12:55:35.000Z</time>
      </trkpt>
      <trkpt lat="43.99142" lon="2.99965">
        <ele>821.6</ele>
        <time>2026-04-30T12:55:36.000Z</time>
      </trkpt>
      <trkpt lat="43.99142" lon="2.99966">
        <ele>821.7</ele>
        <time>2026-04-30T12:55:37.000Z</time>
      </trkpt>
      <trkpt lat="43.99141" lon="2.99967">
        <ele>821.6</ele>
        <time>2026-04-30T12:55:38.000Z</time>
      </trkpt>
      <trkpt lat="43.99139" lon="2.99967">
        <ele>821.3</ele>
        <time>2026-04-30T12:55:39.000Z</time>
      </trkpt>
      <trkpt lat="43.99138" lon="2.99968">
        <ele>821.5</ele>
        <time>2026-04-30T12:55:40.000Z</time>
      </trkpt>
      <trkpt lat="43.99137" lon="2.99968">
        <ele>821.6</ele>
        <time>2026-04-30T12:55:41.000Z</time>
      </trkpt>
      <trkpt lat="43.99137" lon="2.99968">
        <ele>821.6</ele>
        <time>2026-04-30T12:55:42.000Z</time>
      </trkpt>
      <trkpt lat="43.99136" lon="2.99968">
        <ele>821.6</ele>
        <time>2026-04-30T12:55:43.000Z</time>
      </trkpt>
      <trkpt lat="43.99135" lon="2.99968">
        <ele>821.5</ele>
        <time>2026-04-30T12:55:44.000Z</time>
      </trkpt>
      <trkpt lat="43.99134" lon="2.99968">
        <ele>821.5</ele>
        <time>2026-04-30T12:55:45.000Z</time>
      </trkpt>
      <trkpt lat="43.99132" lon="2.99967">
        <ele>821.3</ele>
        <time>2026-04-30T12:55:46.000Z</time>
      </trkpt>
      <trkpt lat="43.9913" lon="2.99967">
        <ele>821.1</ele>
        <time>2026-04-30T12:55:47.000Z</time>
      </trkpt>
      <trkpt lat="43.99128" lon="2.99966">
        <ele>820.9</ele>
        <time>2026-04-30T12:55:48.000Z</time>
      </trkpt>
      <trkpt lat="43.99127" lon="2.99965">
        <ele>820.7</ele>
        <time>2026-04-30T12:55:49.000Z</time>
      </trkpt>
      <trkpt lat="43.99125" lon="2.99964">
        <ele>820.5</ele>
        <time>2026-04-30T12:55:50.000Z</time>
      </trkpt>
      <trkpt lat="43.99124" lon="2.99963">
        <ele>820.3</ele>
        <time>2026-04-30T12:55:51.000Z</time>
      </trkpt>
      <trkpt lat="43.99123" lon="2.99962">
        <ele>820.2</ele>
        <time>2026-04-30T12:55:52.000Z</time>
      </trkpt>
      <trkpt lat="43.99122" lon="2.99961">
        <ele>820</ele>
        <time>2026-04-30T12:55:53.000Z</time>
      </trkpt>
      <trkpt lat="43.99122" lon="2.9996">
        <ele>819.7</ele>
        <time>2026-04-30T12:55:54.000Z</time>
      </trkpt>
      <trkpt lat="43.99122" lon="2.99959">
        <ele>819.5</ele>
        <time>2026-04-30T12:55:55.000Z</time>
      </trkpt>
      <trkpt lat="43.99122" lon="2.99958">
        <ele>819.2</ele>
        <time>2026-04-30T12:55:56.000Z</time>
      </trkpt>
      <trkpt lat="43.99121" lon="2.99957">
        <ele>819.1</ele>
        <time>2026-04-30T12:55:57.000Z</time>
      </trkpt>
      <trkpt lat="43.99121" lon="2.99956">
        <ele>818.7</ele>
        <time>2026-04-30T12:55:58.000Z</time>
      </trkpt>
      <trkpt lat="43.99121" lon="2.99954">
        <ele>818.6</ele>
        <time>2026-04-30T12:55:59.000Z</time>
      </trkpt>
      <trkpt lat="43.99122" lon="2.99952">
        <ele>818.4</ele>
        <time>2026-04-30T12:56:00.000Z</time>
      </trkpt>
      <trkpt lat="43.99122" lon="2.9995">
        <ele>818.8</ele>
        <time>2026-04-30T12:56:01.000Z</time>
      </trkpt>
      <trkpt lat="43.99123" lon="2.99949">
        <ele>818.6</ele>
        <time>2026-04-30T12:56:02.000Z</time>
      </trkpt>
      <trkpt lat="43.99123" lon="2.99948">
        <ele>818.2</ele>
        <time>2026-04-30T12:56:03.000Z</time>
      </trkpt>
      <trkpt lat="43.99123" lon="2.99947">
        <ele>818.3</ele>
        <time>2026-04-30T12:56:04.000Z</time>
      </trkpt>
      <trkpt lat="43.99124" lon="2.99945">
        <ele>818.4</ele>
        <time>2026-04-30T12:56:05.000Z</time>
      </trkpt>
      <trkpt lat="43.99125" lon="2.99944">
        <ele>818.5</ele>
        <time>2026-04-30T12:56:06.000Z</time>
      </trkpt>
      <trkpt lat="43.99126" lon="2.99943">
        <ele>818.3</ele>
        <time>2026-04-30T12:56:07.000Z</time>
      </trkpt>
      <trkpt lat="43.99127" lon="2.99941">
        <ele>818.3</ele>
        <time>2026-04-30T12:56:08.000Z</time>
      </trkpt>
      <trkpt lat="43.99128" lon="2.99941">
        <ele>818.3</ele>
        <time>2026-04-30T12:56:09.000Z</time>
      </trkpt>
      <trkpt lat="43.99128" lon="2.9994">
        <ele>818.3</ele>
        <time>2026-04-30T12:56:10.000Z</time>
      </trkpt>
      <trkpt lat="43.99129" lon="2.99939">
        <ele>818.3</ele>
        <time>2026-04-30T12:56:11.000Z</time>
      </trkpt>
      <trkpt lat="43.9913" lon="2.99938">
        <ele>818.5</ele>
        <time>2026-04-30T12:56:12.000Z</time>
      </trkpt>
      <trkpt lat="43.99131" lon="2.99937">
        <ele>818.6</ele>
        <time>2026-04-30T12:56:13.000Z</time>
      </trkpt>
      <trkpt lat="43.99132" lon="2.99937">
        <ele>818.7</ele>
        <time>2026-04-30T12:56:14.000Z</time>
      </trkpt>
      <trkpt lat="43.99133" lon="2.99936">
        <ele>818.5</ele>
        <time>2026-04-30T12:56:15.000Z</time>
      </trkpt>
      <trkpt lat="43.99134" lon="2.99935">
        <ele>818.4</ele>
        <time>2026-04-30T12:56:16.000Z</time>
      </trkpt>
      <trkpt lat="43.99136" lon="2.99934">
        <ele>818.5</ele>
        <time>2026-04-30T12:56:17.000Z</time>
      </trkpt>
      <trkpt lat="43.99137" lon="2.99933">
        <ele>818.2</ele>
        <time>2026-04-30T12:56:18.000Z</time>
      </trkpt>
      <trkpt lat="43.99137" lon="2.99933">
        <ele>817.9</ele>
        <time>2026-04-30T12:56:19.000Z</time>
      </trkpt>
      <trkpt lat="43.99137" lon="2.99933">
        <ele>817.8</ele>
        <time>2026-04-30T12:56:20.000Z</time>
      </trkpt>
      <trkpt lat="43.99138" lon="2.99933">
        <ele>817.5</ele>
        <time>2026-04-30T12:56:21.000Z</time>
      </trkpt>
      <trkpt lat="43.99138" lon="2.99934">
        <ele>817.6</ele>
        <time>2026-04-30T12:56:22.000Z</time>
      </trkpt>
      <trkpt lat="43.99138" lon="2.99933">
        <ele>817.9</ele>
        <time>2026-04-30T12:56:23.000Z</time>
      </trkpt>
      <trkpt lat="43.99138" lon="2.99933">
        <ele>817.8</ele>
        <time>2026-04-30T12:56:24.000Z</time>
      </trkpt>
      <trkpt lat="43.99138" lon="2.99934">
        <ele>817.6</ele>
        <time>2026-04-30T12:56:25.000Z</time>
      </trkpt>
      <trkpt lat="43.99138" lon="2.99934">
        <ele>817.3</ele>
        <time>2026-04-30T12:56:27.000Z</time>
      </trkpt>
      <trkpt lat="43.99138" lon="2.99934">
        <ele>817</ele>
        <time>2026-04-30T12:56:28.000Z</time>
      </trkpt>
      <trkpt lat="43.99138" lon="2.99935">
        <ele>816.7</ele>
        <time>2026-04-30T12:56:29.000Z</time>
      </trkpt>
      <trkpt lat="43.99139" lon="2.99934">
        <ele>816.5</ele>
        <time>2026-04-30T12:56:30.000Z</time>
      </trkpt>
      <trkpt lat="43.99141" lon="2.99935">
        <ele>816</ele>
        <time>2026-04-30T12:56:31.000Z</time>
      </trkpt>
      <trkpt lat="43.99144" lon="2.99934">
        <ele>815.3</ele>
        <time>2026-04-30T12:56:32.000Z</time>
      </trkpt>
      <trkpt lat="43.99145" lon="2.99934">
        <ele>814.2</ele>
        <time>2026-04-30T12:56:33.000Z</time>
      </trkpt>
      <trkpt lat="43.99147" lon="2.99934">
        <ele>813.6</ele>
        <time>2026-04-30T12:56:34.000Z</time>
      </trkpt>
      <trkpt lat="43.99148" lon="2.99934">
        <ele>813.4</ele>
        <time>2026-04-30T12:56:35.000Z</time>
      </trkpt>
      <trkpt lat="43.9915" lon="2.99933">
        <ele>813</ele>
        <time>2026-04-30T12:56:36.000Z</time>
      </trkpt>
      <trkpt lat="43.99151" lon="2.99933">
        <ele>812.9</ele>
        <time>2026-04-30T12:56:37.000Z</time>
      </trkpt>
      <trkpt lat="43.99152" lon="2.99933">
        <ele>812.2</ele>
        <time>2026-04-30T12:56:38.000Z</time>
      </trkpt>
      <trkpt lat="43.99152" lon="2.99933">
        <ele>811.4</ele>
        <time>2026-04-30T12:56:39.000Z</time>
      </trkpt>
      <trkpt lat="43.99153" lon="2.99934">
        <ele>810.7</ele>
        <time>2026-04-30T12:56:40.000Z</time>
      </trkpt>
      <trkpt lat="43.99153" lon="2.99934">
        <ele>809.9</ele>
        <time>2026-04-30T12:56:41.000Z</time>
      </trkpt>
      <trkpt lat="43.99153" lon="2.99935">
        <ele>809.5</ele>
        <time>2026-04-30T12:56:42.000Z</time>
      </trkpt>
      <trkpt lat="43.99153" lon="2.99936">
        <ele>808.9</ele>
        <time>2026-04-30T12:56:43.000Z</time>
      </trkpt>
      <trkpt lat="43.99154" lon="2.99937">
        <ele>808.6</ele>
        <time>2026-04-30T12:56:44.000Z</time>
      </trkpt>
      <trkpt lat="43.99155" lon="2.99937">
        <ele>808.3</ele>
        <time>2026-04-30T12:56:45.000Z</time>
      </trkpt>
      <trkpt lat="43.99156" lon="2.99936">
        <ele>808.4</ele>
        <time>2026-04-30T12:56:46.000Z</time>
      </trkpt>
      <trkpt lat="43.99157" lon="2.99937">
        <ele>808.2</ele>
        <time>2026-04-30T12:56:47.000Z</time>
      </trkpt>
      <trkpt lat="43.99158" lon="2.99937">
        <ele>807.9</ele>
        <time>2026-04-30T12:56:48.000Z</time>
      </trkpt>
      <trkpt lat="43.99159" lon="2.99938">
        <ele>807.7</ele>
        <time>2026-04-30T12:56:49.000Z</time>
      </trkpt>
      <trkpt lat="43.99159" lon="2.99939">
        <ele>807.4</ele>
        <time>2026-04-30T12:56:50.000Z</time>
      </trkpt>
      <trkpt lat="43.9916" lon="2.99939">
        <ele>806.8</ele>
        <time>2026-04-30T12:56:51.000Z</time>
      </trkpt>
      <trkpt lat="43.9916" lon="2.99939">
        <ele>806.3</ele>
        <time>2026-04-30T12:56:52.000Z</time>
      </trkpt>
      <trkpt lat="43.9916" lon="2.99939">
        <ele>805.9</ele>
        <time>2026-04-30T12:56:53.000Z</time>
      </trkpt>
      <trkpt lat="43.9916" lon="2.99939">
        <ele>808</ele>
        <time>2026-04-30T12:56:54.000Z</time>
      </trkpt>
      <trkpt lat="43.9916" lon="2.99939">
        <ele>808</ele>
        <time>2026-04-30T12:56:55.000Z</time>
      </trkpt>
      <trkpt lat="43.9916" lon="2.99939">
        <ele>808.3</ele>
        <time>2026-04-30T12:56:56.000Z</time>
      </trkpt>
      <trkpt lat="43.9916" lon="2.99939">
        <ele>808.3</ele>
        <time>2026-04-30T12:56:57.000Z</time>
      </trkpt>
      <trkpt lat="43.9916" lon="2.99939">
        <ele>808.3</ele>
        <time>2026-04-30T12:56:58.000Z</time>
      </trkpt>
      <trkpt lat="43.99161" lon="2.99938">
        <ele>808.4</ele>
        <time>2026-04-30T12:56:59.000Z</time>
      </trkpt>
      <trkpt lat="43.99162" lon="2.99939">
        <ele>808.5</ele>
        <time>2026-04-30T12:57:00.000Z</time>
      </trkpt>
      <trkpt lat="43.99163" lon="2.99939">
        <ele>808.6</ele>
        <time>2026-04-30T12:57:01.000Z</time>
      </trkpt>
      <trkpt lat="43.99164" lon="2.99938">
        <ele>808.6</ele>
        <time>2026-04-30T12:57:02.000Z</time>
      </trkpt>
      <trkpt lat="43.99165" lon="2.99938">
        <ele>808.4</ele>
        <time>2026-04-30T12:57:03.000Z</time>
      </trkpt>
      <trkpt lat="43.99166" lon="2.99938">
        <ele>808.3</ele>
        <time>2026-04-30T12:57:04.000Z</time>
      </trkpt>
      <trkpt lat="43.99166" lon="2.99938">
        <ele>808.1</ele>
        <time>2026-04-30T12:57:05.000Z</time>
      </trkpt>
      <trkpt lat="43.99166" lon="2.99938">
        <ele>807.9</ele>
        <time>2026-04-30T12:57:06.000Z</time>
      </trkpt>
      <trkpt lat="43.99166" lon="2.99938">
        <ele>807.7</ele>
        <time>2026-04-30T12:57:07.000Z</time>
      </trkpt>
      <trkpt lat="43.99166" lon="2.99938">
        <ele>807.8</ele>
        <time>2026-04-30T12:57:08.000Z</time>
      </trkpt>
      <trkpt lat="43.99166" lon="2.99938">
        <ele>807.7</ele>
        <time>2026-04-30T12:57:09.000Z</time>
      </trkpt>
      <trkpt lat="43.99166" lon="2.99938">
        <ele>807.7</ele>
        <time>2026-04-30T12:57:10.000Z</time>
      </trkpt>
      <trkpt lat="43.99166" lon="2.99938">
        <ele>807.9</ele>
        <time>2026-04-30T12:57:11.000Z</time>
      </trkpt>
      <trkpt lat="43.99167" lon="2.99938">
        <ele>807.7</ele>
        <time>2026-04-30T12:57:12.000Z</time>
      </trkpt>
      <trkpt lat="43.99167" lon="2.99938">
        <ele>807.8</ele>
        <time>2026-04-30T12:57:13.000Z</time>
      </trkpt>
      <trkpt lat="43.99167" lon="2.99938">
        <ele>808.1</ele>
        <time>2026-04-30T12:57:14.000Z</time>
      </trkpt>
      <trkpt lat="43.99167" lon="2.99938">
        <ele>808.3</ele>
        <time>2026-04-30T12:57:15.000Z</time>
      </trkpt>
      <trkpt lat="43.99167" lon="2.99938">
        <ele>808.3</ele>
        <time>2026-04-30T12:57:16.000Z</time>
      </trkpt>
      <trkpt lat="43.99167" lon="2.99938">
        <ele>808.1</ele>
        <time>2026-04-30T12:57:17.000Z</time>
      </trkpt>
      <trkpt lat="43.99167" lon="2.99938">
        <ele>808.1</ele>
        <time>2026-04-30T12:57:18.000Z</time>
      </trkpt>
      <trkpt lat="43.99167" lon="2.99938">
        <ele>808</ele>
        <time>2026-04-30T12:57:20.000Z</time>
      </trkpt>
      <trkpt lat="43.99167" lon="2.99938">
        <ele>807.8</ele>
        <time>2026-04-30T12:57:21.000Z</time>
      </trkpt>
      <trkpt lat="43.99167" lon="2.99938">
        <ele>807.8</ele>
        <time>2026-04-30T12:57:22.000Z</time>
      </trkpt>
      <trkpt lat="43.99167" lon="2.99938">
        <ele>807.7</ele>
        <time>2026-04-30T12:57:23.000Z</time>
      </trkpt>
      <trkpt lat="43.99167" lon="2.99938">
        <ele>807.1</ele>
        <time>2026-04-30T12:57:24.000Z</time>
      </trkpt>
      <trkpt lat="43.99168" lon="2.99938">
        <ele>807.1</ele>
        <time>2026-04-30T12:57:25.000Z</time>
      </trkpt>
      <trkpt lat="43.99169" lon="2.99937">
        <ele>806.9</ele>
        <time>2026-04-30T12:57:26.000Z</time>
      </trkpt>
      <trkpt lat="43.99171" lon="2.99936">
        <ele>806.9</ele>
        <time>2026-04-30T12:57:27.000Z</time>
      </trkpt>
      <trkpt lat="43.99173" lon="2.99935">
        <ele>806.7</ele>
        <time>2026-04-30T12:57:28.000Z</time>
      </trkpt>
      <trkpt lat="43.99175" lon="2.99935">
        <ele>806.6</ele>
        <time>2026-04-30T12:57:29.000Z</time>
      </trkpt>
      <trkpt lat="43.99176" lon="2.99933">
        <ele>806.3</ele>
        <time>2026-04-30T12:57:30.000Z</time>
      </trkpt>
      <trkpt lat="43.99177" lon="2.99933">
        <ele>806.1</ele>
        <time>2026-04-30T12:57:31.000Z</time>
      </trkpt>
      <trkpt lat="43.99178" lon="2.99932">
        <ele>805.9</ele>
        <time>2026-04-30T12:57:32.000Z</time>
      </trkpt>
      <trkpt lat="43.99179" lon="2.99931">
        <ele>805.3</ele>
        <time>2026-04-30T12:57:33.000Z</time>
      </trkpt>
      <trkpt lat="43.9918" lon="2.99931">
        <ele>805</ele>
        <time>2026-04-30T12:57:34.000Z</time>
      </trkpt>
      <trkpt lat="43.99181" lon="2.99931">
        <ele>804.8</ele>
        <time>2026-04-30T12:57:35.000Z</time>
      </trkpt>
      <trkpt lat="43.99182" lon="2.99931">
        <ele>804.7</ele>
        <time>2026-04-30T12:57:36.000Z</time>
      </trkpt>
      <trkpt lat="43.99183" lon="2.99931">
        <ele>804.9</ele>
        <time>2026-04-30T12:57:37.000Z</time>
      </trkpt>
      <trkpt lat="43.99183" lon="2.9993">
        <ele>804.7</ele>
        <time>2026-04-30T12:57:38.000Z</time>
      </trkpt>
      <trkpt lat="43.99183" lon="2.99929">
        <ele>805.2</ele>
        <time>2026-04-30T12:57:39.000Z</time>
      </trkpt>
      <trkpt lat="43.99183" lon="2.99929">
        <ele>805.4</ele>
        <time>2026-04-30T12:57:40.000Z</time>
      </trkpt>
      <trkpt lat="43.99183" lon="2.99929">
        <ele>805.7</ele>
        <time>2026-04-30T12:57:41.000Z</time>
      </trkpt>
      <trkpt lat="43.99183" lon="2.99929">
        <ele>805.7</ele>
        <time>2026-04-30T12:57:42.000Z</time>
      </trkpt>
      <trkpt lat="43.99183" lon="2.99929">
        <ele>805.7</ele>
        <time>2026-04-30T12:57:43.000Z</time>
      </trkpt>
      <trkpt lat="43.99183" lon="2.99929">
        <ele>805.6</ele>
        <time>2026-04-30T12:57:44.000Z</time>
      </trkpt>
      <trkpt lat="43.99183" lon="2.99928">
        <ele>805.2</ele>
        <time>2026-04-30T12:57:45.000Z</time>
      </trkpt>
      <trkpt lat="43.99184" lon="2.99927">
        <ele>804.6</ele>
        <time>2026-04-30T12:57:47.000Z</time>
      </trkpt>
      <trkpt lat="43.99184" lon="2.99926">
        <ele>804</ele>
        <time>2026-04-30T12:57:48.000Z</time>
      </trkpt>
      <trkpt lat="43.99184" lon="2.99926">
        <ele>803.5</ele>
        <time>2026-04-30T12:57:49.000Z</time>
      </trkpt>
      <trkpt lat="43.99184" lon="2.99925">
        <ele>802.8</ele>
        <time>2026-04-30T12:57:50.000Z</time>
      </trkpt>
      <trkpt lat="43.99184" lon="2.99924">
        <ele>802.6</ele>
        <time>2026-04-30T12:57:51.000Z</time>
      </trkpt>
      <trkpt lat="43.99184" lon="2.99924">
        <ele>802.5</ele>
        <time>2026-04-30T12:57:52.000Z</time>
      </trkpt>
      <trkpt lat="43.99186" lon="2.99918">
        <ele>802.1</ele>
        <time>2026-04-30T12:57:54.000Z</time>
      </trkpt>
      <trkpt lat="43.99186" lon="2.99915">
        <ele>801.6</ele>
        <time>2026-04-30T12:57:55.000Z</time>
      </trkpt>
      <trkpt lat="43.99186" lon="2.99912">
        <ele>801</ele>
        <time>2026-04-30T12:57:56.000Z</time>
      </trkpt>
      <trkpt lat="43.99187" lon="2.9991">
        <ele>800.8</ele>
        <time>2026-04-30T12:57:57.000Z</time>
      </trkpt>
      <trkpt lat="43.99187" lon="2.99907">
        <ele>800.8</ele>
        <time>2026-04-30T12:57:58.000Z</time>
      </trkpt>
      <trkpt lat="43.99186" lon="2.99906">
        <ele>800.8</ele>
        <time>2026-04-30T12:57:59.000Z</time>
      </trkpt>
      <trkpt lat="43.99187" lon="2.99905">
        <ele>800.7</ele>
        <time>2026-04-30T12:58:00.000Z</time>
      </trkpt>
      <trkpt lat="43.99187" lon="2.99904">
        <ele>800.5</ele>
        <time>2026-04-30T12:58:01.000Z</time>
      </trkpt>
      <trkpt lat="43.99186" lon="2.99902">
        <ele>800.2</ele>
        <time>2026-04-30T12:58:02.000Z</time>
      </trkpt>
      <trkpt lat="43.99187" lon="2.999">
        <ele>799.8</ele>
        <time>2026-04-30T12:58:03.000Z</time>
      </trkpt>
      <trkpt lat="43.99186" lon="2.99899">
        <ele>799.5</ele>
        <time>2026-04-30T12:58:04.000Z</time>
      </trkpt>
      <trkpt lat="43.99187" lon="2.99897">
        <ele>799.3</ele>
        <time>2026-04-30T12:58:05.000Z</time>
      </trkpt>
      <trkpt lat="43.99186" lon="2.99897">
        <ele>798.8</ele>
        <time>2026-04-30T12:58:06.000Z</time>
      </trkpt>
      <trkpt lat="43.99185" lon="2.99895">
        <ele>798</ele>
        <time>2026-04-30T12:58:07.000Z</time>
      </trkpt>
      <trkpt lat="43.99183" lon="2.99894">
        <ele>797.4</ele>
        <time>2026-04-30T12:58:08.000Z</time>
      </trkpt>
      <trkpt lat="43.99181" lon="2.99892">
        <ele>797.6</ele>
        <time>2026-04-30T12:58:09.000Z</time>
      </trkpt>
      <trkpt lat="43.9918" lon="2.99892">
        <ele>797.5</ele>
        <time>2026-04-30T12:58:10.000Z</time>
      </trkpt>
      <trkpt lat="43.99178" lon="2.99892">
        <ele>796.9</ele>
        <time>2026-04-30T12:58:11.000Z</time>
      </trkpt>
      <trkpt lat="43.99177" lon="2.99891">
        <ele>796.4</ele>
        <time>2026-04-30T12:58:12.000Z</time>
      </trkpt>
      <trkpt lat="43.99175" lon="2.99891">
        <ele>796</ele>
        <time>2026-04-30T12:58:13.999Z</time>
      </trkpt>
      <trkpt lat="43.99174" lon="2.99891">
        <ele>796.4</ele>
        <time>2026-04-30T12:58:14.999Z</time>
      </trkpt>
      <trkpt lat="43.99173" lon="2.9989">
        <ele>795</ele>
        <time>2026-04-30T12:58:16.999Z</time>
      </trkpt>
      <trkpt lat="43.99173" lon="2.9989">
        <ele>794.6</ele>
        <time>2026-04-30T12:58:17.999Z</time>
      </trkpt>
      <trkpt lat="43.99173" lon="2.9989">
        <ele>794.8</ele>
        <time>2026-04-30T12:58:18.999Z</time>
      </trkpt>
      <trkpt lat="43.99173" lon="2.99891">
        <ele>794.7</ele>
        <time>2026-04-30T12:58:19.999Z</time>
      </trkpt>
      <trkpt lat="43.99173" lon="2.99891">
        <ele>794.3</ele>
        <time>2026-04-30T12:58:20.999Z</time>
      </trkpt>
      <trkpt lat="43.99173" lon="2.99891">
        <ele>795.5</ele>
        <time>2026-04-30T12:58:21.999Z</time>
      </trkpt>
      <trkpt lat="43.99173" lon="2.99891">
        <ele>795.5</ele>
        <time>2026-04-30T12:58:22.999Z</time>
      </trkpt>
      <trkpt lat="43.99176" lon="2.9989">
        <ele>797.5</ele>
        <time>2026-04-30T12:58:23.999Z</time>
      </trkpt>
      <trkpt lat="43.99176" lon="2.99889">
        <ele>797.2</ele>
        <time>2026-04-30T12:58:24.999Z</time>
      </trkpt>
      <trkpt lat="43.99177" lon="2.99888">
        <ele>797.1</ele>
        <time>2026-04-30T12:58:25.999Z</time>
      </trkpt>
      <trkpt lat="43.99177" lon="2.99887">
        <ele>804.5</ele>
        <time>2026-04-30T12:58:26.999Z</time>
      </trkpt>
      <trkpt lat="43.99177" lon="2.99887">
        <ele>804.3</ele>
        <time>2026-04-30T12:58:27.999Z</time>
      </trkpt>
      <trkpt lat="43.99176" lon="2.99886">
        <ele>803.5</ele>
        <time>2026-04-30T12:58:28.999Z</time>
      </trkpt>
      <trkpt lat="43.99175" lon="2.99885">
        <ele>802.9</ele>
        <time>2026-04-30T12:58:29.999Z</time>
      </trkpt>
      <trkpt lat="43.99175" lon="2.99885">
        <ele>803.2</ele>
        <time>2026-04-30T12:58:30.999Z</time>
      </trkpt>
      <trkpt lat="43.99174" lon="2.99885">
        <ele>803.1</ele>
        <time>2026-04-30T12:58:31.999Z</time>
      </trkpt>
      <trkpt lat="43.99173" lon="2.99885">
        <ele>803</ele>
        <time>2026-04-30T12:58:32.999Z</time>
      </trkpt>
      <trkpt lat="43.99173" lon="2.99886">
        <ele>802.8</ele>
        <time>2026-04-30T12:58:33.999Z</time>
      </trkpt>
      <trkpt lat="43.99173" lon="2.99886">
        <ele>802</ele>
        <time>2026-04-30T12:58:34.999Z</time>
      </trkpt>
      <trkpt lat="43.99172" lon="2.99886">
        <ele>801.6</ele>
        <time>2026-04-30T12:58:35.999Z</time>
      </trkpt>
      <trkpt lat="43.99171" lon="2.99886">
        <ele>800.9</ele>
        <time>2026-04-30T12:58:36.999Z</time>
      </trkpt>
      <trkpt lat="43.9917" lon="2.99886">
        <ele>800.5</ele>
        <time>2026-04-30T12:58:37.999Z</time>
      </trkpt>
      <trkpt lat="43.99169" lon="2.99886">
        <ele>799.9</ele>
        <time>2026-04-30T12:58:38.999Z</time>
      </trkpt>
      <trkpt lat="43.99168" lon="2.99885">
        <ele>799.5</ele>
        <time>2026-04-30T12:58:39.999Z</time>
      </trkpt>
      <trkpt lat="43.99167" lon="2.99885">
        <ele>799.2</ele>
        <time>2026-04-30T12:58:40.999Z</time>
      </trkpt>
      <trkpt lat="43.99166" lon="2.99885">
        <ele>799</ele>
        <time>2026-04-30T12:58:41.999Z</time>
      </trkpt>
      <trkpt lat="43.99165" lon="2.99884">
        <ele>798.7</ele>
        <time>2026-04-30T12:58:42.999Z</time>
      </trkpt>
      <trkpt lat="43.99164" lon="2.99884">
        <ele>798.4</ele>
        <time>2026-04-30T12:58:43.999Z</time>
      </trkpt>
      <trkpt lat="43.99163" lon="2.99883">
        <ele>798.2</ele>
        <time>2026-04-30T12:58:44.999Z</time>
      </trkpt>
      <trkpt lat="43.99162" lon="2.99882">
        <ele>798.1</ele>
        <time>2026-04-30T12:58:45.999Z</time>
      </trkpt>
      <trkpt lat="43.99161" lon="2.99881">
        <ele>798.1</ele>
        <time>2026-04-30T12:58:46.999Z</time>
      </trkpt>
      <trkpt lat="43.9916" lon="2.9988">
        <ele>798.2</ele>
        <time>2026-04-30T12:58:47.999Z</time>
      </trkpt>
      <trkpt lat="43.9916" lon="2.9988">
        <ele>798.2</ele>
        <time>2026-04-30T12:58:48.999Z</time>
      </trkpt>
      <trkpt lat="43.99159" lon="2.99879">
        <ele>798</ele>
        <time>2026-04-30T12:58:49.999Z</time>
      </trkpt>
      <trkpt lat="43.99158" lon="2.99878">
        <ele>797.6</ele>
        <time>2026-04-30T12:58:50.999Z</time>
      </trkpt>
      <trkpt lat="43.99156" lon="2.99877">
        <ele>797.7</ele>
        <time>2026-04-30T12:58:51.999Z</time>
      </trkpt>
      <trkpt lat="43.99156" lon="2.99876">
        <ele>797.5</ele>
        <time>2026-04-30T12:58:52.999Z</time>
      </trkpt>
      <trkpt lat="43.99156" lon="2.99876">
        <ele>797.3</ele>
        <time>2026-04-30T12:58:53.999Z</time>
      </trkpt>
      <trkpt lat="43.99155" lon="2.99876">
        <ele>796.7</ele>
        <time>2026-04-30T12:58:54.999Z</time>
      </trkpt>
      <trkpt lat="43.99154" lon="2.99876">
        <ele>796.3</ele>
        <time>2026-04-30T12:58:55.999Z</time>
      </trkpt>
      <trkpt lat="43.99154" lon="2.99876">
        <ele>796.1</ele>
        <time>2026-04-30T12:58:56.999Z</time>
      </trkpt>
      <trkpt lat="43.99153" lon="2.99876">
        <ele>795.8</ele>
        <time>2026-04-30T12:58:57.999Z</time>
      </trkpt>
      <trkpt lat="43.99152" lon="2.99875">
        <ele>795.6</ele>
        <time>2026-04-30T12:58:58.999Z</time>
      </trkpt>
      <trkpt lat="43.99151" lon="2.99875">
        <ele>795.7</ele>
        <time>2026-04-30T12:58:59.999Z</time>
      </trkpt>
      <trkpt lat="43.99151" lon="2.99875">
        <ele>796</ele>
        <time>2026-04-30T12:59:00.999Z</time>
      </trkpt>
      <trkpt lat="43.9915" lon="2.99875">
        <ele>796.4</ele>
        <time>2026-04-30T12:59:01.999Z</time>
      </trkpt>
      <trkpt lat="43.99149" lon="2.99874">
        <ele>796.7</ele>
        <time>2026-04-30T12:59:02.999Z</time>
      </trkpt>
      <trkpt lat="43.99149" lon="2.99874">
        <ele>797.2</ele>
        <time>2026-04-30T12:59:03.999Z</time>
      </trkpt>
      <trkpt lat="43.99148" lon="2.99874">
        <ele>796.9</ele>
        <time>2026-04-30T12:59:04.999Z</time>
      </trkpt>
      <trkpt lat="43.99148" lon="2.99874">
        <ele>796.9</ele>
        <time>2026-04-30T12:59:05.999Z</time>
      </trkpt>
      <trkpt lat="43.99148" lon="2.99874">
        <ele>796.9</ele>
        <time>2026-04-30T12:59:06.999Z</time>
      </trkpt>
      <trkpt lat="43.99148" lon="2.99875">
        <ele>796.7</ele>
        <time>2026-04-30T12:59:07.999Z</time>
      </trkpt>
      <trkpt lat="43.99147" lon="2.99875">
        <ele>796.5</ele>
        <time>2026-04-30T12:59:08.999Z</time>
      </trkpt>
      <trkpt lat="43.99147" lon="2.99875">
        <ele>796.7</ele>
        <time>2026-04-30T12:59:09.999Z</time>
      </trkpt>
      <trkpt lat="43.99147" lon="2.99875">
        <ele>797.2</ele>
        <time>2026-04-30T12:59:10.999Z</time>
      </trkpt>
      <trkpt lat="43.99147" lon="2.99875">
        <ele>797.2</ele>
        <time>2026-04-30T12:59:11.999Z</time>
      </trkpt>
      <trkpt lat="43.99147" lon="2.99875">
        <ele>797.2</ele>
        <time>2026-04-30T12:59:12.999Z</time>
      </trkpt>
      <trkpt lat="43.99147" lon="2.99875">
        <ele>797.2</ele>
        <time>2026-04-30T12:59:13.999Z</time>
      </trkpt>
      <trkpt lat="43.99147" lon="2.99875">
        <ele>797.3</ele>
        <time>2026-04-30T12:59:14.999Z</time>
      </trkpt>
      <trkpt lat="43.99147" lon="2.99875">
        <ele>797.5</ele>
        <time>2026-04-30T12:59:15.999Z</time>
      </trkpt>
      <trkpt lat="43.99147" lon="2.99875">
        <ele>797.5</ele>
        <time>2026-04-30T12:59:16.999Z</time>
      </trkpt>
      <trkpt lat="43.99146" lon="2.99875">
        <ele>797.5</ele>
        <time>2026-04-30T12:59:17.999Z</time>
      </trkpt>
      <trkpt lat="43.99146" lon="2.99875">
        <ele>797.6</ele>
        <time>2026-04-30T12:59:18.999Z</time>
      </trkpt>
      <trkpt lat="43.99145" lon="2.99875">
        <ele>797.5</ele>
        <time>2026-04-30T12:59:19.999Z</time>
      </trkpt>
      <trkpt lat="43.99144" lon="2.99876">
        <ele>797.5</ele>
        <time>2026-04-30T12:59:20.999Z</time>
      </trkpt>
      <trkpt lat="43.99144" lon="2.99876">
        <ele>797.6</ele>
        <time>2026-04-30T12:59:21.999Z</time>
      </trkpt>
      <trkpt lat="43.99144" lon="2.99876">
        <ele>797.6</ele>
        <time>2026-04-30T12:59:22.999Z</time>
      </trkpt>
      <trkpt lat="43.99144" lon="2.99876">
        <ele>797.5</ele>
        <time>2026-04-30T12:59:23.999Z</time>
      </trkpt>
      <trkpt lat="43.99144" lon="2.99876">
        <ele>797.5</ele>
        <time>2026-04-30T12:59:24.999Z</time>
      </trkpt>
      <trkpt lat="43.99144" lon="2.99876">
        <ele>797.7</ele>
        <time>2026-04-30T12:59:25.999Z</time>
      </trkpt>
      <trkpt lat="43.99144" lon="2.99876">
        <ele>797.7</ele>
        <time>2026-04-30T12:59:26.999Z</time>
      </trkpt>
      <trkpt lat="43.99144" lon="2.99876">
        <ele>797.7</ele>
        <time>2026-04-30T12:59:27.999Z</time>
      </trkpt>
      <trkpt lat="43.99144" lon="2.99875">
        <ele>797.5</ele>
        <time>2026-04-30T12:59:28.999Z</time>
      </trkpt>
      <trkpt lat="43.99144" lon="2.99875">
        <ele>797.5</ele>
        <time>2026-04-30T12:59:29.999Z</time>
      </trkpt>
      <trkpt lat="43.99144" lon="2.99875">
        <ele>797.5</ele>
        <time>2026-04-30T12:59:30.999Z</time>
      </trkpt>
      <trkpt lat="43.99144" lon="2.99875">
        <ele>797.5</ele>
        <time>2026-04-30T12:59:31.999Z</time>
      </trkpt>
      <trkpt lat="43.99144" lon="2.99875">
        <ele>797.6</ele>
        <time>2026-04-30T12:59:32.999Z</time>
      </trkpt>
      <trkpt lat="43.99144" lon="2.99875">
        <ele>797.5</ele>
        <time>2026-04-30T12:59:33.999Z</time>
      </trkpt>
      <trkpt lat="43.99144" lon="2.99875">
        <ele>797.6</ele>
        <time>2026-04-30T12:59:34.999Z</time>
      </trkpt>
      <trkpt lat="43.99145" lon="2.99875">
        <ele>797.6</ele>
        <time>2026-04-30T12:59:35.999Z</time>
      </trkpt>
      <trkpt lat="43.99145" lon="2.99874">
        <ele>797.5</ele>
        <time>2026-04-30T12:59:36.999Z</time>
      </trkpt>
      <trkpt lat="43.99145" lon="2.99874">
        <ele>797.5</ele>
        <time>2026-04-30T12:59:37.999Z</time>
      </trkpt>
      <trkpt lat="43.99146" lon="2.99874">
        <ele>797.5</ele>
        <time>2026-04-30T12:59:38.999Z</time>
      </trkpt>
      <trkpt lat="43.99146" lon="2.99875">
        <ele>797.5</ele>
        <time>2026-04-30T12:59:39.999Z</time>
      </trkpt>
      <trkpt lat="43.99146" lon="2.99875">
        <ele>797.6</ele>
        <time>2026-04-30T12:59:40.999Z</time>
      </trkpt>
      <trkpt lat="43.99146" lon="2.99875">
        <ele>797.6</ele>
        <time>2026-04-30T12:59:41.999Z</time>
      </trkpt>
      <trkpt lat="43.99147" lon="2.99875">
        <ele>797.4</ele>
        <time>2026-04-30T12:59:42.999Z</time>
      </trkpt>
      <trkpt lat="43.99147" lon="2.99876">
        <ele>797.4</ele>
        <time>2026-04-30T12:59:43.999Z</time>
      </trkpt>
      <trkpt lat="43.99147" lon="2.99877">
        <ele>797.5</ele>
        <time>2026-04-30T12:59:44.999Z</time>
      </trkpt>
      <trkpt lat="43.99147" lon="2.99877">
        <ele>798</ele>
        <time>2026-04-30T12:59:45.999Z</time>
      </trkpt>
      <trkpt lat="43.99147" lon="2.99877">
        <ele>798</ele>
        <time>2026-04-30T12:59:46.999Z</time>
      </trkpt>
      <trkpt lat="43.99147" lon="2.99877">
        <ele>798</ele>
        <time>2026-04-30T12:59:47.999Z</time>
      </trkpt>
      <trkpt lat="43.99147" lon="2.99877">
        <ele>798.2</ele>
        <time>2026-04-30T12:59:48.999Z</time>
      </trkpt>
      <trkpt lat="43.99147" lon="2.99877">
        <ele>798.2</ele>
        <time>2026-04-30T12:59:49.999Z</time>
      </trkpt>
      <trkpt lat="43.99147" lon="2.99877">
        <ele>798.1</ele>
        <time>2026-04-30T12:59:50.999Z</time>
      </trkpt>
      <trkpt lat="43.99147" lon="2.99877">
        <ele>797.9</ele>
        <time>2026-04-30T12:59:51.999Z</time>
      </trkpt>
      <trkpt lat="43.99147" lon="2.99877">
        <ele>798</ele>
        <time>2026-04-30T12:59:52.999Z</time>
      </trkpt>
      <trkpt lat="43.99147" lon="2.99877">
        <ele>798</ele>
        <time>2026-04-30T12:59:53.999Z</time>
      </trkpt>
      <trkpt lat="43.99147" lon="2.99877">
        <ele>798</ele>
        <time>2026-04-30T12:59:54.999Z</time>
      </trkpt>
      <trkpt lat="43.99147" lon="2.99877">
        <ele>798.2</ele>
        <time>2026-04-30T12:59:55.999Z</time>
      </trkpt>
      <trkpt lat="43.99147" lon="2.99877">
        <ele>798.2</ele>
        <time>2026-04-30T12:59:56.999Z</time>
      </trkpt>
      <trkpt lat="43.99147" lon="2.99877">
        <ele>798.1</ele>
        <time>2026-04-30T12:59:57.999Z</time>
      </trkpt>
      <trkpt lat="43.99147" lon="2.99877">
        <ele>797.9</ele>
        <time>2026-04-30T12:59:58.999Z</time>
      </trkpt>
      <trkpt lat="43.99146" lon="2.99877">
        <ele>798</ele>
        <time>2026-04-30T12:59:59.999Z</time>
      </trkpt>
      <trkpt lat="43.99145" lon="2.99876">
        <ele>798</ele>
        <time>2026-04-30T13:00:00.999Z</time>
      </trkpt>
      <trkpt lat="43.99144" lon="2.99877">
        <ele>798</ele>
        <time>2026-04-30T13:00:01.999Z</time>
      </trkpt>
      <trkpt lat="43.99143" lon="2.99876">
        <ele>798.1</ele>
        <time>2026-04-30T13:00:02.999Z</time>
      </trkpt>
      <trkpt lat="43.99142" lon="2.99876">
        <ele>798.3</ele>
        <time>2026-04-30T13:00:03.999Z</time>
      </trkpt>
      <trkpt lat="43.99141" lon="2.99875">
        <ele>798.8</ele>
        <time>2026-04-30T13:00:04.999Z</time>
      </trkpt>
      <trkpt lat="43.99141" lon="2.99876">
        <ele>799.1</ele>
        <time>2026-04-30T13:00:05.999Z</time>
      </trkpt>
      <trkpt lat="43.99139" lon="2.99874">
        <ele>799</ele>
        <time>2026-04-30T13:00:06.999Z</time>
      </trkpt>
      <trkpt lat="43.9914" lon="2.99873">
        <ele>799.2</ele>
        <time>2026-04-30T13:00:07.999Z</time>
      </trkpt>
      <trkpt lat="43.99139" lon="2.99872">
        <ele>799.5</ele>
        <time>2026-04-30T13:00:08.999Z</time>
      </trkpt>
      <trkpt lat="43.99139" lon="2.9987">
        <ele>799.9</ele>
        <time>2026-04-30T13:00:09.999Z</time>
      </trkpt>
      <trkpt lat="43.99139" lon="2.99868">
        <ele>800.1</ele>
        <time>2026-04-30T13:00:10.999Z</time>
      </trkpt>
      <trkpt lat="43.99138" lon="2.99866">
        <ele>800.4</ele>
        <time>2026-04-30T13:00:11.999Z</time>
      </trkpt>
      <trkpt lat="43.99136" lon="2.99863">
        <ele>800.4</ele>
        <time>2026-04-30T13:00:12.999Z</time>
      </trkpt>
      <trkpt lat="43.99135" lon="2.99863">
        <ele>799.8</ele>
        <time>2026-04-30T13:00:13.999Z</time>
      </trkpt>
      <trkpt lat="43.99135" lon="2.99864">
        <ele>800</ele>
        <time>2026-04-30T13:00:14.999Z</time>
      </trkpt>
      <trkpt lat="43.99134" lon="2.99864">
        <ele>799.8</ele>
        <time>2026-04-30T13:00:15.999Z</time>
      </trkpt>
      <trkpt lat="43.99133" lon="2.99864">
        <ele>799.9</ele>
        <time>2026-04-30T13:00:16.999Z</time>
      </trkpt>
      <trkpt lat="43.99133" lon="2.99864">
        <ele>799.6</ele>
        <time>2026-04-30T13:00:17.999Z</time>
      </trkpt>
      <trkpt lat="43.99133" lon="2.99865">
        <ele>799.1</ele>
        <time>2026-04-30T13:00:18.999Z</time>
      </trkpt>
      <trkpt lat="43.99133" lon="2.99866">
        <ele>799</ele>
        <time>2026-04-30T13:00:19.999Z</time>
      </trkpt>
      <trkpt lat="43.99133" lon="2.99866">
        <ele>798.3</ele>
        <time>2026-04-30T13:00:20.999Z</time>
      </trkpt>
      <trkpt lat="43.99133" lon="2.99866">
        <ele>798.3</ele>
        <time>2026-04-30T13:00:21.999Z</time>
      </trkpt>
      <trkpt lat="43.99132" lon="2.99866">
        <ele>798</ele>
        <time>2026-04-30T13:00:22.999Z</time>
      </trkpt>
      <trkpt lat="43.99132" lon="2.99866">
        <ele>797.9</ele>
        <time>2026-04-30T13:00:23.999Z</time>
      </trkpt>
      <trkpt lat="43.99132" lon="2.99866">
        <ele>798</ele>
        <time>2026-04-30T13:00:24.999Z</time>
      </trkpt>
      <trkpt lat="43.99131" lon="2.99865">
        <ele>798.1</ele>
        <time>2026-04-30T13:00:25.999Z</time>
      </trkpt>
      <trkpt lat="43.99131" lon="2.99865">
        <ele>797.9</ele>
        <time>2026-04-30T13:00:26.999Z</time>
      </trkpt>
      <trkpt lat="43.9913" lon="2.99865">
        <ele>797.6</ele>
        <time>2026-04-30T13:00:27.999Z</time>
      </trkpt>
      <trkpt lat="43.99129" lon="2.99864">
        <ele>797.5</ele>
        <time>2026-04-30T13:00:28.999Z</time>
      </trkpt>
      <trkpt lat="43.99128" lon="2.99864">
        <ele>797.4</ele>
        <time>2026-04-30T13:00:29.999Z</time>
      </trkpt>
      <trkpt lat="43.99127" lon="2.99864">
        <ele>797</ele>
        <time>2026-04-30T13:00:30.999Z</time>
      </trkpt>
      <trkpt lat="43.99126" lon="2.99864">
        <ele>796.9</ele>
        <time>2026-04-30T13:00:31.999Z</time>
      </trkpt>
      <trkpt lat="43.99125" lon="2.99863">
        <ele>796.9</ele>
        <time>2026-04-30T13:00:32.999Z</time>
      </trkpt>
      <trkpt lat="43.99124" lon="2.99863">
        <ele>796.8</ele>
        <time>2026-04-30T13:00:33.999Z</time>
      </trkpt>
      <trkpt lat="43.99123" lon="2.99862">
        <ele>796.8</ele>
        <time>2026-04-30T13:00:34.999Z</time>
      </trkpt>
      <trkpt lat="43.99122" lon="2.99862">
        <ele>796.8</ele>
        <time>2026-04-30T13:00:35.999Z</time>
      </trkpt>
      <trkpt lat="43.99121" lon="2.99862">
        <ele>797</ele>
        <time>2026-04-30T13:00:36.999Z</time>
      </trkpt>
      <trkpt lat="43.99121" lon="2.99862">
        <ele>796.7</ele>
        <time>2026-04-30T13:00:37.999Z</time>
      </trkpt>
      <trkpt lat="43.9912" lon="2.99862">
        <ele>796.7</ele>
        <time>2026-04-30T13:00:38.999Z</time>
      </trkpt>
      <trkpt lat="43.9912" lon="2.99862">
        <ele>796.6</ele>
        <time>2026-04-30T13:00:39.999Z</time>
      </trkpt>
      <trkpt lat="43.9912" lon="2.99862">
        <ele>796.5</ele>
        <time>2026-04-30T13:00:40.999Z</time>
      </trkpt>
      <trkpt lat="43.9912" lon="2.99861">
        <ele>796.7</ele>
        <time>2026-04-30T13:00:41.999Z</time>
      </trkpt>
      <trkpt lat="43.9912" lon="2.99861">
        <ele>796.8</ele>
        <time>2026-04-30T13:00:42.999Z</time>
      </trkpt>
      <trkpt lat="43.9912" lon="2.99861">
        <ele>797.6</ele>
        <time>2026-04-30T13:00:43.999Z</time>
      </trkpt>
      <trkpt lat="43.9912" lon="2.99861">
        <ele>797.6</ele>
        <time>2026-04-30T13:00:44.999Z</time>
      </trkpt>
      <trkpt lat="43.9912" lon="2.99861">
        <ele>797.5</ele>
        <time>2026-04-30T13:00:45.999Z</time>
      </trkpt>
      <trkpt lat="43.9912" lon="2.99861">
        <ele>797.5</ele>
        <time>2026-04-30T13:00:46.999Z</time>
      </trkpt>
      <trkpt lat="43.9912" lon="2.99861">
        <ele>797.4</ele>
        <time>2026-04-30T13:00:47.999Z</time>
      </trkpt>
      <trkpt lat="43.9912" lon="2.99861">
        <ele>797.4</ele>
        <time>2026-04-30T13:00:48.999Z</time>
      </trkpt>
      <trkpt lat="43.9912" lon="2.99861">
        <ele>797.4</ele>
        <time>2026-04-30T13:00:49.999Z</time>
      </trkpt>
      <trkpt lat="43.9912" lon="2.99861">
        <ele>797.5</ele>
        <time>2026-04-30T13:00:50.999Z</time>
      </trkpt>
      <trkpt lat="43.9912" lon="2.99861">
        <ele>797.6</ele>
        <time>2026-04-30T13:00:51.999Z</time>
      </trkpt>
      <trkpt lat="43.9912" lon="2.99861">
        <ele>797.9</ele>
        <time>2026-04-30T13:00:52.999Z</time>
      </trkpt>
      <trkpt lat="43.9912" lon="2.99861">
        <ele>798.1</ele>
        <time>2026-04-30T13:00:53.999Z</time>
      </trkpt>
      <trkpt lat="43.9912" lon="2.99861">
        <ele>798.5</ele>
        <time>2026-04-30T13:00:54.999Z</time>
      </trkpt>
      <trkpt lat="43.9912" lon="2.99861">
        <ele>798.7</ele>
        <time>2026-04-30T13:00:55.999Z</time>
      </trkpt>
      <trkpt lat="43.9912" lon="2.99861">
        <ele>798.8</ele>
        <time>2026-04-30T13:00:56.999Z</time>
      </trkpt>
      <trkpt lat="43.9912" lon="2.99861">
        <ele>799</ele>
        <time>2026-04-30T13:00:57.999Z</time>
      </trkpt>
      <trkpt lat="43.9912" lon="2.99861">
        <ele>799</ele>
        <time>2026-04-30T13:00:58.999Z</time>
      </trkpt>
      <trkpt lat="43.9912" lon="2.99861">
        <ele>799.1</ele>
        <time>2026-04-30T13:00:59.999Z</time>
      </trkpt>
      <trkpt lat="43.9912" lon="2.99861">
        <ele>799.3</ele>
        <time>2026-04-30T13:01:00.999Z</time>
      </trkpt>
      <trkpt lat="43.9912" lon="2.99861">
        <ele>799.3</ele>
        <time>2026-04-30T13:01:01.999Z</time>
      </trkpt>
      <trkpt lat="43.9912" lon="2.99861">
        <ele>799.5</ele>
        <time>2026-04-30T13:01:02.999Z</time>
      </trkpt>
      <trkpt lat="43.9912" lon="2.99861">
        <ele>799.7</ele>
        <time>2026-04-30T13:01:03.999Z</time>
      </trkpt>
      <trkpt lat="43.9912" lon="2.99861">
        <ele>799.9</ele>
        <time>2026-04-30T13:01:04.999Z</time>
      </trkpt>
      <trkpt lat="43.9912" lon="2.99861">
        <ele>799.7</ele>
        <time>2026-04-30T13:01:05.999Z</time>
      </trkpt>
      <trkpt lat="43.9912" lon="2.99861">
        <ele>799.4</ele>
        <time>2026-04-30T13:01:06.999Z</time>
      </trkpt>
      <trkpt lat="43.9912" lon="2.99861">
        <ele>799.3</ele>
        <time>2026-04-30T13:01:07.999Z</time>
      </trkpt>
      <trkpt lat="43.9912" lon="2.99861">
        <ele>799.2</ele>
        <time>2026-04-30T13:01:08.999Z</time>
      </trkpt>
      <trkpt lat="43.9912" lon="2.99861">
        <ele>799</ele>
        <time>2026-04-30T13:01:09.999Z</time>
      </trkpt>
      <trkpt lat="43.9912" lon="2.99861">
        <ele>799</ele>
        <time>2026-04-30T13:01:10.999Z</time>
      </trkpt>
      <trkpt lat="43.9912" lon="2.99861">
        <ele>798.9</ele>
        <time>2026-04-30T13:01:11.999Z</time>
      </trkpt>
      <trkpt lat="43.9912" lon="2.99861">
        <ele>799</ele>
        <time>2026-04-30T13:01:12.999Z</time>
      </trkpt>
      <trkpt lat="43.9912" lon="2.99861">
        <ele>799.3</ele>
        <time>2026-04-30T13:01:13.999Z</time>
      </trkpt>
      <trkpt lat="43.9912" lon="2.99861">
        <ele>799.3</ele>
        <time>2026-04-30T13:01:14.999Z</time>
      </trkpt>
      <trkpt lat="43.9912" lon="2.99861">
        <ele>799.5</ele>
        <time>2026-04-30T13:01:15.999Z</time>
      </trkpt>
      <trkpt lat="43.9912" lon="2.99861">
        <ele>799.6</ele>
        <time>2026-04-30T13:01:16.999Z</time>
      </trkpt>
      <trkpt lat="43.9912" lon="2.99861">
        <ele>799.5</ele>
        <time>2026-04-30T13:01:17.999Z</time>
      </trkpt>
      <trkpt lat="43.9912" lon="2.99861">
        <ele>799.5</ele>
        <time>2026-04-30T13:01:18.999Z</time>
      </trkpt>
      <trkpt lat="43.9912" lon="2.99861">
        <ele>799.8</ele>
        <time>2026-04-30T13:01:19.999Z</time>
      </trkpt>
      <trkpt lat="43.9912" lon="2.99861">
        <ele>799.9</ele>
        <time>2026-04-30T13:01:20.999Z</time>
      </trkpt>
      <trkpt lat="43.9912" lon="2.99861">
        <ele>800.4</ele>
        <time>2026-04-30T13:01:21.999Z</time>
      </trkpt>
      <trkpt lat="43.9912" lon="2.99861">
        <ele>800.8</ele>
        <time>2026-04-30T13:01:22.999Z</time>
      </trkpt>
      <trkpt lat="43.9912" lon="2.99861">
        <ele>800.9</ele>
        <time>2026-04-30T13:01:23.999Z</time>
      </trkpt>
      <trkpt lat="43.9912" lon="2.99861">
        <ele>801</ele>
        <time>2026-04-30T13:01:24.999Z</time>
      </trkpt>
      <trkpt lat="43.9912" lon="2.99861">
        <ele>801.3</ele>
        <time>2026-04-30T13:01:25.999Z</time>
      </trkpt>
      <trkpt lat="43.9912" lon="2.99861">
        <ele>801.5</ele>
        <time>2026-04-30T13:01:26.999Z</time>
      </trkpt>
      <trkpt lat="43.9912" lon="2.99861">
        <ele>801.5</ele>
        <time>2026-04-30T13:01:27.999Z</time>
      </trkpt>
      <trkpt lat="43.9912" lon="2.99861">
        <ele>801.6</ele>
        <time>2026-04-30T13:01:28.999Z</time>
      </trkpt>
      <trkpt lat="43.9912" lon="2.99862">
        <ele>802</ele>
        <time>2026-04-30T13:01:29.999Z</time>
      </trkpt>
      <trkpt lat="43.9912" lon="2.99862">
        <ele>802.2</ele>
        <time>2026-04-30T13:01:30.999Z</time>
      </trkpt>
      <trkpt lat="43.9912" lon="2.99862">
        <ele>802.2</ele>
        <time>2026-04-30T13:01:31.999Z</time>
      </trkpt>
      <trkpt lat="43.9912" lon="2.99862">
        <ele>802.2</ele>
        <time>2026-04-30T13:01:32.999Z</time>
      </trkpt>
      <trkpt lat="43.9912" lon="2.99862">
        <ele>802.3</ele>
        <time>2026-04-30T13:01:33.999Z</time>
      </trkpt>
      <trkpt lat="43.9912" lon="2.99862">
        <ele>802.3</ele>
        <time>2026-04-30T13:01:34.999Z</time>
      </trkpt>
      <trkpt lat="43.9912" lon="2.99862">
        <ele>802.5</ele>
        <time>2026-04-30T13:01:35.999Z</time>
      </trkpt>
      <trkpt lat="43.9912" lon="2.99862">
        <ele>802.6</ele>
        <time>2026-04-30T13:01:36.999Z</time>
      </trkpt>
      <trkpt lat="43.9912" lon="2.99862">
        <ele>802.7</ele>
        <time>2026-04-30T13:01:37.999Z</time>
      </trkpt>
      <trkpt lat="43.9912" lon="2.99862">
        <ele>802.5</ele>
        <time>2026-04-30T13:01:38.999Z</time>
      </trkpt>
      <trkpt lat="43.9912" lon="2.99862">
        <ele>802.5</ele>
        <time>2026-04-30T13:01:39.999Z</time>
      </trkpt>
      <trkpt lat="43.9912" lon="2.99862">
        <ele>802.4</ele>
        <time>2026-04-30T13:01:40.999Z</time>
      </trkpt>
      <trkpt lat="43.9912" lon="2.99862">
        <ele>802.3</ele>
        <time>2026-04-30T13:01:41.999Z</time>
      </trkpt>
      <trkpt lat="43.9912" lon="2.99862">
        <ele>802.2</ele>
        <time>2026-04-30T13:01:42.999Z</time>
      </trkpt>
      <trkpt lat="43.9912" lon="2.99862">
        <ele>802.1</ele>
        <time>2026-04-30T13:01:43.999Z</time>
      </trkpt>
      <trkpt lat="43.9912" lon="2.99862">
        <ele>802</ele>
        <time>2026-04-30T13:01:44.999Z</time>
      </trkpt>
      <trkpt lat="43.9912" lon="2.99862">
        <ele>802</ele>
        <time>2026-04-30T13:01:45.999Z</time>
      </trkpt>
      <trkpt lat="43.9912" lon="2.99862">
        <ele>802.1</ele>
        <time>2026-04-30T13:01:46.999Z</time>
      </trkpt>
      <trkpt lat="43.9912" lon="2.99862">
        <ele>802</ele>
        <time>2026-04-30T13:01:47.999Z</time>
      </trkpt>
      <trkpt lat="43.9912" lon="2.99862">
        <ele>802.1</ele>
        <time>2026-04-30T13:01:48.999Z</time>
      </trkpt>
      <trkpt lat="43.9912" lon="2.99862">
        <ele>802</ele>
        <time>2026-04-30T13:01:49.999Z</time>
      </trkpt>
      <trkpt lat="43.9912" lon="2.99862">
        <ele>801.8</ele>
        <time>2026-04-30T13:01:50.999Z</time>
      </trkpt>
      <trkpt lat="43.9912" lon="2.99862">
        <ele>801.7</ele>
        <time>2026-04-30T13:01:51.999Z</time>
      </trkpt>
      <trkpt lat="43.9912" lon="2.99862">
        <ele>801.8</ele>
        <time>2026-04-30T13:01:52.999Z</time>
      </trkpt>
      <trkpt lat="43.9912" lon="2.99862">
        <ele>801.8</ele>
        <time>2026-04-30T13:01:53.999Z</time>
      </trkpt>
      <trkpt lat="43.9912" lon="2.99862">
        <ele>801.8</ele>
        <time>2026-04-30T13:01:54.999Z</time>
      </trkpt>
      <trkpt lat="43.99119" lon="2.99862">
        <ele>801.8</ele>
        <time>2026-04-30T13:01:55.999Z</time>
      </trkpt>
      <trkpt lat="43.99117" lon="2.99862">
        <ele>801.8</ele>
        <time>2026-04-30T13:01:56.999Z</time>
      </trkpt>
      <trkpt lat="43.99116" lon="2.99861">
        <ele>801.8</ele>
        <time>2026-04-30T13:01:57.999Z</time>
      </trkpt>
      <trkpt lat="43.99115" lon="2.99861">
        <ele>801.8</ele>
        <time>2026-04-30T13:01:58.999Z</time>
      </trkpt>
      <trkpt lat="43.99114" lon="2.9986">
        <ele>801.8</ele>
        <time>2026-04-30T13:01:59.999Z</time>
      </trkpt>
      <trkpt lat="43.99113" lon="2.99859">
        <ele>801.9</ele>
        <time>2026-04-30T13:02:00.999Z</time>
      </trkpt>
      <trkpt lat="43.99112" lon="2.99858">
        <ele>802</ele>
        <time>2026-04-30T13:02:01.999Z</time>
      </trkpt>
      <trkpt lat="43.99112" lon="2.99857">
        <ele>801.8</ele>
        <time>2026-04-30T13:02:02.999Z</time>
      </trkpt>
      <trkpt lat="43.99111" lon="2.99856">
        <ele>801.9</ele>
        <time>2026-04-30T13:02:03.999Z</time>
      </trkpt>
      <trkpt lat="43.9911" lon="2.99854">
        <ele>801.8</ele>
        <time>2026-04-30T13:02:05.999Z</time>
      </trkpt>
      <trkpt lat="43.99109" lon="2.99853">
        <ele>801.5</ele>
        <time>2026-04-30T13:02:06.999Z</time>
      </trkpt>
      <trkpt lat="43.99109" lon="2.99852">
        <ele>801.5</ele>
        <time>2026-04-30T13:02:07.999Z</time>
      </trkpt>
      <trkpt lat="43.99108" lon="2.9985">
        <ele>801.3</ele>
        <time>2026-04-30T13:02:08.999Z</time>
      </trkpt>
      <trkpt lat="43.99108" lon="2.99849">
        <ele>801.1</ele>
        <time>2026-04-30T13:02:09.999Z</time>
      </trkpt>
      <trkpt lat="43.99108" lon="2.99848">
        <ele>801.1</ele>
        <time>2026-04-30T13:02:10.999Z</time>
      </trkpt>
      <trkpt lat="43.99108" lon="2.99848">
        <ele>801</ele>
        <time>2026-04-30T13:02:11.999Z</time>
      </trkpt>
      <trkpt lat="43.99107" lon="2.99847">
        <ele>800.8</ele>
        <time>2026-04-30T13:02:12.999Z</time>
      </trkpt>
      <trkpt lat="43.99107" lon="2.99847">
        <ele>800.6</ele>
        <time>2026-04-30T13:02:13.999Z</time>
      </trkpt>
      <trkpt lat="43.99106" lon="2.99846">
        <ele>800.6</ele>
        <time>2026-04-30T13:02:14.999Z</time>
      </trkpt>
      <trkpt lat="43.99106" lon="2.99845">
        <ele>800.5</ele>
        <time>2026-04-30T13:02:15.999Z</time>
      </trkpt>
      <trkpt lat="43.99105" lon="2.99844">
        <ele>800.6</ele>
        <time>2026-04-30T13:02:16.999Z</time>
      </trkpt>
      <trkpt lat="43.99104" lon="2.99843">
        <ele>800.4</ele>
        <time>2026-04-30T13:02:17.999Z</time>
      </trkpt>
      <trkpt lat="43.99103" lon="2.99843">
        <ele>800.5</ele>
        <time>2026-04-30T13:02:18.999Z</time>
      </trkpt>
      <trkpt lat="43.99102" lon="2.99842">
        <ele>800.2</ele>
        <time>2026-04-30T13:02:19.999Z</time>
      </trkpt>
      <trkpt lat="43.99101" lon="2.99841">
        <ele>800.2</ele>
        <time>2026-04-30T13:02:20.999Z</time>
      </trkpt>
      <trkpt lat="43.991" lon="2.99841">
        <ele>800</ele>
        <time>2026-04-30T13:02:21.999Z</time>
      </trkpt>
      <trkpt lat="43.991" lon="2.9984">
        <ele>800</ele>
        <time>2026-04-30T13:02:22.999Z</time>
      </trkpt>
      <trkpt lat="43.99099" lon="2.9984">
        <ele>799.6</ele>
        <time>2026-04-30T13:02:23.999Z</time>
      </trkpt>
      <trkpt lat="43.99098" lon="2.9984">
        <ele>799.4</ele>
        <time>2026-04-30T13:02:24.999Z</time>
      </trkpt>
      <trkpt lat="43.99098" lon="2.9984">
        <ele>799.3</ele>
        <time>2026-04-30T13:02:25.999Z</time>
      </trkpt>
      <trkpt lat="43.99097" lon="2.9984">
        <ele>799.2</ele>
        <time>2026-04-30T13:02:26.999Z</time>
      </trkpt>
      <trkpt lat="43.99097" lon="2.99839">
        <ele>799.4</ele>
        <time>2026-04-30T13:02:27.999Z</time>
      </trkpt>
      <trkpt lat="43.99097" lon="2.99839">
        <ele>799</ele>
        <time>2026-04-30T13:02:28.999Z</time>
      </trkpt>
      <trkpt lat="43.99096" lon="2.99838">
        <ele>798.8</ele>
        <time>2026-04-30T13:02:29.999Z</time>
      </trkpt>
      <trkpt lat="43.99095" lon="2.99837">
        <ele>798.6</ele>
        <time>2026-04-30T13:02:30.999Z</time>
      </trkpt>
      <trkpt lat="43.99095" lon="2.99837">
        <ele>798.6</ele>
        <time>2026-04-30T13:02:31.999Z</time>
      </trkpt>
      <trkpt lat="43.99095" lon="2.99836">
        <ele>798.9</ele>
        <time>2026-04-30T13:02:32.999Z</time>
      </trkpt>
      <trkpt lat="43.99095" lon="2.99835">
        <ele>798.4</ele>
        <time>2026-04-30T13:02:33.999Z</time>
      </trkpt>
      <trkpt lat="43.99094" lon="2.99833">
        <ele>798.2</ele>
        <time>2026-04-30T13:02:34.999Z</time>
      </trkpt>
      <trkpt lat="43.99093" lon="2.99832">
        <ele>798.1</ele>
        <time>2026-04-30T13:02:35.999Z</time>
      </trkpt>
      <trkpt lat="43.99092" lon="2.9983">
        <ele>798.1</ele>
        <time>2026-04-30T13:02:36.999Z</time>
      </trkpt>
      <trkpt lat="43.9909" lon="2.99827">
        <ele>798.4</ele>
        <time>2026-04-30T13:02:37.999Z</time>
      </trkpt>
      <trkpt lat="43.99089" lon="2.99825">
        <ele>798.6</ele>
        <time>2026-04-30T13:02:38.999Z</time>
      </trkpt>
      <trkpt lat="43.99088" lon="2.99824">
        <ele>798.7</ele>
        <time>2026-04-30T13:02:39.999Z</time>
      </trkpt>
      <trkpt lat="43.99087" lon="2.99823">
        <ele>798.4</ele>
        <time>2026-04-30T13:02:40.999Z</time>
      </trkpt>
      <trkpt lat="43.99086" lon="2.99822">
        <ele>798.4</ele>
        <time>2026-04-30T13:02:41.999Z</time>
      </trkpt>
      <trkpt lat="43.99086" lon="2.99821">
        <ele>798.4</ele>
        <time>2026-04-30T13:02:42.999Z</time>
      </trkpt>
      <trkpt lat="43.99085" lon="2.99818">
        <ele>798.7</ele>
        <time>2026-04-30T13:02:43.999Z</time>
      </trkpt>
      <trkpt lat="43.99084" lon="2.99816">
        <ele>798.5</ele>
        <time>2026-04-30T13:02:44.999Z</time>
      </trkpt>
      <trkpt lat="43.99083" lon="2.99815">
        <ele>798.4</ele>
        <time>2026-04-30T13:02:45.999Z</time>
      </trkpt>
      <trkpt lat="43.99082" lon="2.99813">
        <ele>798.2</ele>
        <time>2026-04-30T13:02:46.999Z</time>
      </trkpt>
      <trkpt lat="43.99081" lon="2.99812">
        <ele>798.1</ele>
        <time>2026-04-30T13:02:47.999Z</time>
      </trkpt>
      <trkpt lat="43.99081" lon="2.9981">
        <ele>797.9</ele>
        <time>2026-04-30T13:02:48.999Z</time>
      </trkpt>
      <trkpt lat="43.9908" lon="2.99808">
        <ele>797.6</ele>
        <time>2026-04-30T13:02:49.999Z</time>
      </trkpt>
      <trkpt lat="43.9908" lon="2.99807">
        <ele>797.4</ele>
        <time>2026-04-30T13:02:50.999Z</time>
      </trkpt>
      <trkpt lat="43.99079" lon="2.99805">
        <ele>797.3</ele>
        <time>2026-04-30T13:02:51.999Z</time>
      </trkpt>
      <trkpt lat="43.99078" lon="2.99804">
        <ele>797.5</ele>
        <time>2026-04-30T13:02:52.999Z</time>
      </trkpt>
      <trkpt lat="43.99078" lon="2.99801">
        <ele>797.9</ele>
        <time>2026-04-30T13:02:53.999Z</time>
      </trkpt>
      <trkpt lat="43.99077" lon="2.99799">
        <ele>798</ele>
        <time>2026-04-30T13:02:54.999Z</time>
      </trkpt>
      <trkpt lat="43.99076" lon="2.99797">
        <ele>798.2</ele>
        <time>2026-04-30T13:02:55.999Z</time>
      </trkpt>
      <trkpt lat="43.99076" lon="2.99796">
        <ele>798</ele>
        <time>2026-04-30T13:02:56.999Z</time>
      </trkpt>
      <trkpt lat="43.99075" lon="2.99795">
        <ele>798</ele>
        <time>2026-04-30T13:02:57.999Z</time>
      </trkpt>
      <trkpt lat="43.99074" lon="2.99794">
        <ele>797.8</ele>
        <time>2026-04-30T13:02:58.999Z</time>
      </trkpt>
      <trkpt lat="43.99073" lon="2.99794">
        <ele>797.5</ele>
        <time>2026-04-30T13:02:59.999Z</time>
      </trkpt>
      <trkpt lat="43.99073" lon="2.99793">
        <ele>797.3</ele>
        <time>2026-04-30T13:03:00.999Z</time>
      </trkpt>
      <trkpt lat="43.99072" lon="2.99791">
        <ele>796.9</ele>
        <time>2026-04-30T13:03:01.999Z</time>
      </trkpt>
      <trkpt lat="43.99071" lon="2.99791">
        <ele>796.7</ele>
        <time>2026-04-30T13:03:02.999Z</time>
      </trkpt>
      <trkpt lat="43.9907" lon="2.9979">
        <ele>796.8</ele>
        <time>2026-04-30T13:03:03.999Z</time>
      </trkpt>
      <trkpt lat="43.9907" lon="2.99789">
        <ele>796.9</ele>
        <time>2026-04-30T13:03:04.999Z</time>
      </trkpt>
      <trkpt lat="43.99069" lon="2.99788">
        <ele>796.5</ele>
        <time>2026-04-30T13:03:05.999Z</time>
      </trkpt>
      <trkpt lat="43.99068" lon="2.99788">
        <ele>795.9</ele>
        <time>2026-04-30T13:03:06.999Z</time>
      </trkpt>
      <trkpt lat="43.99068" lon="2.99787">
        <ele>795.8</ele>
        <time>2026-04-30T13:03:07.999Z</time>
      </trkpt>
      <trkpt lat="43.99067" lon="2.99786">
        <ele>795.5</ele>
        <time>2026-04-30T13:03:08.999Z</time>
      </trkpt>
      <trkpt lat="43.99065" lon="2.99785">
        <ele>795.2</ele>
        <time>2026-04-30T13:03:09.999Z</time>
      </trkpt>
      <trkpt lat="43.99064" lon="2.99784">
        <ele>795.2</ele>
        <time>2026-04-30T13:03:10.999Z</time>
      </trkpt>
      <trkpt lat="43.99062" lon="2.99784">
        <ele>795.3</ele>
        <time>2026-04-30T13:03:11.999Z</time>
      </trkpt>
      <trkpt lat="43.99061" lon="2.99783">
        <ele>795.4</ele>
        <time>2026-04-30T13:03:12.999Z</time>
      </trkpt>
      <trkpt lat="43.9906" lon="2.99783">
        <ele>795.7</ele>
        <time>2026-04-30T13:03:13.999Z</time>
      </trkpt>
      <trkpt lat="43.99059" lon="2.99783">
        <ele>795.8</ele>
        <time>2026-04-30T13:03:14.999Z</time>
      </trkpt>
      <trkpt lat="43.99058" lon="2.99782">
        <ele>795.5</ele>
        <time>2026-04-30T13:03:15.999Z</time>
      </trkpt>
      <trkpt lat="43.99057" lon="2.99782">
        <ele>795.1</ele>
        <time>2026-04-30T13:03:16.999Z</time>
      </trkpt>
      <trkpt lat="43.99056" lon="2.99781">
        <ele>794.6</ele>
        <time>2026-04-30T13:03:17.999Z</time>
      </trkpt>
      <trkpt lat="43.99055" lon="2.99782">
        <ele>794.4</ele>
        <time>2026-04-30T13:03:18.999Z</time>
      </trkpt>
      <trkpt lat="43.99054" lon="2.99782">
        <ele>794.5</ele>
        <time>2026-04-30T13:03:19.999Z</time>
      </trkpt>
      <trkpt lat="43.99052" lon="2.99781">
        <ele>794.7</ele>
        <time>2026-04-30T13:03:20.999Z</time>
      </trkpt>
      <trkpt lat="43.99051" lon="2.99781">
        <ele>794.7</ele>
        <time>2026-04-30T13:03:21.999Z</time>
      </trkpt>
      <trkpt lat="43.9905" lon="2.99781">
        <ele>796.3</ele>
        <time>2026-04-30T13:03:22.999Z</time>
      </trkpt>
      <trkpt lat="43.99049" lon="2.9978">
        <ele>796.8</ele>
        <time>2026-04-30T13:03:23.999Z</time>
      </trkpt>
      <trkpt lat="43.99047" lon="2.9978">
        <ele>796.9</ele>
        <time>2026-04-30T13:03:24.999Z</time>
      </trkpt>
      <trkpt lat="43.99045" lon="2.9978">
        <ele>797.9</ele>
        <time>2026-04-30T13:03:25.999Z</time>
      </trkpt>
      <trkpt lat="43.99044" lon="2.9978">
        <ele>798.9</ele>
        <time>2026-04-30T13:03:26.999Z</time>
      </trkpt>
      <trkpt lat="43.99042" lon="2.9978">
        <ele>799.4</ele>
        <time>2026-04-30T13:03:27.999Z</time>
      </trkpt>
      <trkpt lat="43.99041" lon="2.9978">
        <ele>799.8</ele>
        <time>2026-04-30T13:03:28.999Z</time>
      </trkpt>
      <trkpt lat="43.9904" lon="2.9978">
        <ele>799.9</ele>
        <time>2026-04-30T13:03:29.999Z</time>
      </trkpt>
      <trkpt lat="43.99039" lon="2.9978">
        <ele>800.1</ele>
        <time>2026-04-30T13:03:30.999Z</time>
      </trkpt>
      <trkpt lat="43.99038" lon="2.9978">
        <ele>799.8</ele>
        <time>2026-04-30T13:03:31.999Z</time>
      </trkpt>
      <trkpt lat="43.99037" lon="2.9978">
        <ele>799.6</ele>
        <time>2026-04-30T13:03:32.999Z</time>
      </trkpt>
      <trkpt lat="43.99036" lon="2.9978">
        <ele>799.5</ele>
        <time>2026-04-30T13:03:33.999Z</time>
      </trkpt>
      <trkpt lat="43.99035" lon="2.9978">
        <ele>799.6</ele>
        <time>2026-04-30T13:03:34.999Z</time>
      </trkpt>
      <trkpt lat="43.99033" lon="2.9978">
        <ele>799.5</ele>
        <time>2026-04-30T13:03:35.999Z</time>
      </trkpt>
      <trkpt lat="43.99031" lon="2.9978">
        <ele>799.4</ele>
        <time>2026-04-30T13:03:36.999Z</time>
      </trkpt>
      <trkpt lat="43.9903" lon="2.9978">
        <ele>799.1</ele>
        <time>2026-04-30T13:03:37.999Z</time>
      </trkpt>
      <trkpt lat="43.99029" lon="2.99779">
        <ele>799.2</ele>
        <time>2026-04-30T13:03:38.999Z</time>
      </trkpt>
      <trkpt lat="43.99029" lon="2.99778">
        <ele>798.9</ele>
        <time>2026-04-30T13:03:39.999Z</time>
      </trkpt>
      <trkpt lat="43.99028" lon="2.99777">
        <ele>798.5</ele>
        <time>2026-04-30T13:03:40.999Z</time>
      </trkpt>
      <trkpt lat="43.99027" lon="2.99777">
        <ele>798.1</ele>
        <time>2026-04-30T13:03:41.999Z</time>
      </trkpt>
      <trkpt lat="43.99026" lon="2.99776">
        <ele>798</ele>
        <time>2026-04-30T13:03:42.999Z</time>
      </trkpt>
      <trkpt lat="43.99025" lon="2.99776">
        <ele>798</ele>
        <time>2026-04-30T13:03:43.999Z</time>
      </trkpt>
      <trkpt lat="43.99024" lon="2.99775">
        <ele>798</ele>
        <time>2026-04-30T13:03:44.999Z</time>
      </trkpt>
      <trkpt lat="43.99023" lon="2.99774">
        <ele>797.8</ele>
        <time>2026-04-30T13:03:45.999Z</time>
      </trkpt>
      <trkpt lat="43.99021" lon="2.99773">
        <ele>797.8</ele>
        <time>2026-04-30T13:03:46.999Z</time>
      </trkpt>
      <trkpt lat="43.99019" lon="2.99771">
        <ele>797.5</ele>
        <time>2026-04-30T13:03:47.999Z</time>
      </trkpt>
      <trkpt lat="43.99018" lon="2.99771">
        <ele>797.4</ele>
        <time>2026-04-30T13:03:48.999Z</time>
      </trkpt>
      <trkpt lat="43.99017" lon="2.99769">
        <ele>797.2</ele>
        <time>2026-04-30T13:03:49.999Z</time>
      </trkpt>
      <trkpt lat="43.99016" lon="2.99768">
        <ele>797.3</ele>
        <time>2026-04-30T13:03:50.999Z</time>
      </trkpt>
      <trkpt lat="43.99015" lon="2.99767">
        <ele>797.5</ele>
        <time>2026-04-30T13:03:51.999Z</time>
      </trkpt>
      <trkpt lat="43.99014" lon="2.99766">
        <ele>797.6</ele>
        <time>2026-04-30T13:03:52.999Z</time>
      </trkpt>
      <trkpt lat="43.99013" lon="2.99764">
        <ele>797.1</ele>
        <time>2026-04-30T13:03:53.999Z</time>
      </trkpt>
      <trkpt lat="43.99012" lon="2.99761">
        <ele>796.9</ele>
        <time>2026-04-30T13:03:54.999Z</time>
      </trkpt>
      <trkpt lat="43.99011" lon="2.99759">
        <ele>796.7</ele>
        <time>2026-04-30T13:03:55.999Z</time>
      </trkpt>
      <trkpt lat="43.99011" lon="2.99758">
        <ele>797</ele>
        <time>2026-04-30T13:03:56.999Z</time>
      </trkpt>
      <trkpt lat="43.99011" lon="2.99757">
        <ele>797.2</ele>
        <time>2026-04-30T13:03:57.999Z</time>
      </trkpt>
      <trkpt lat="43.9901" lon="2.99755">
        <ele>796.8</ele>
        <time>2026-04-30T13:03:58.999Z</time>
      </trkpt>
      <trkpt lat="43.9901" lon="2.99754">
        <ele>796.3</ele>
        <time>2026-04-30T13:03:59.999Z</time>
      </trkpt>
      <trkpt lat="43.99009" lon="2.99753">
        <ele>795.8</ele>
        <time>2026-04-30T13:04:00.999Z</time>
      </trkpt>
      <trkpt lat="43.99009" lon="2.99752">
        <ele>795.6</ele>
        <time>2026-04-30T13:04:01.999Z</time>
      </trkpt>
      <trkpt lat="43.99009" lon="2.99751">
        <ele>795.3</ele>
        <time>2026-04-30T13:04:02.999Z</time>
      </trkpt>
      <trkpt lat="43.99008" lon="2.9975">
        <ele>795</ele>
        <time>2026-04-30T13:04:03.999Z</time>
      </trkpt>
      <trkpt lat="43.99008" lon="2.99748">
        <ele>794.9</ele>
        <time>2026-04-30T13:04:04.999Z</time>
      </trkpt>
      <trkpt lat="43.99007" lon="2.99747">
        <ele>795.1</ele>
        <time>2026-04-30T13:04:05.999Z</time>
      </trkpt>
      <trkpt lat="43.99006" lon="2.99746">
        <ele>795.1</ele>
        <time>2026-04-30T13:04:06.999Z</time>
      </trkpt>
      <trkpt lat="43.99006" lon="2.99746">
        <ele>795.3</ele>
        <time>2026-04-30T13:04:07.999Z</time>
      </trkpt>
      <trkpt lat="43.99005" lon="2.99745">
        <ele>795.2</ele>
        <time>2026-04-30T13:04:08.999Z</time>
      </trkpt>
      <trkpt lat="43.99004" lon="2.99743">
        <ele>795.4</ele>
        <time>2026-04-30T13:04:09.999Z</time>
      </trkpt>
      <trkpt lat="43.99004" lon="2.99741">
        <ele>795.3</ele>
        <time>2026-04-30T13:04:10.999Z</time>
      </trkpt>
      <trkpt lat="43.99003" lon="2.9974">
        <ele>795.1</ele>
        <time>2026-04-30T13:04:11.999Z</time>
      </trkpt>
      <trkpt lat="43.99003" lon="2.99737">
        <ele>795.4</ele>
        <time>2026-04-30T13:04:12.999Z</time>
      </trkpt>
      <trkpt lat="43.99002" lon="2.99735">
        <ele>795.4</ele>
        <time>2026-04-30T13:04:13.999Z</time>
      </trkpt>
      <trkpt lat="43.99002" lon="2.99733">
        <ele>795.2</ele>
        <time>2026-04-30T13:04:14.999Z</time>
      </trkpt>
      <trkpt lat="43.99001" lon="2.99732">
        <ele>795</ele>
        <time>2026-04-30T13:04:15.999Z</time>
      </trkpt>
      <trkpt lat="43.99001" lon="2.9973">
        <ele>794.8</ele>
        <time>2026-04-30T13:04:16.999Z</time>
      </trkpt>
      <trkpt lat="43.99" lon="2.99728">
        <ele>794.6</ele>
        <time>2026-04-30T13:04:17.999Z</time>
      </trkpt>
      <trkpt lat="43.99" lon="2.99726">
        <ele>794.6</ele>
        <time>2026-04-30T13:04:18.999Z</time>
      </trkpt>
      <trkpt lat="43.98999" lon="2.99724">
        <ele>794.6</ele>
        <time>2026-04-30T13:04:19.999Z</time>
      </trkpt>
      <trkpt lat="43.98999" lon="2.99723">
        <ele>794.4</ele>
        <time>2026-04-30T13:04:20.999Z</time>
      </trkpt>
      <trkpt lat="43.98999" lon="2.99721">
        <ele>794.6</ele>
        <time>2026-04-30T13:04:21.999Z</time>
      </trkpt>
      <trkpt lat="43.98999" lon="2.99719">
        <ele>794.9</ele>
        <time>2026-04-30T13:04:22.999Z</time>
      </trkpt>
      <trkpt lat="43.98998" lon="2.99718">
        <ele>795.2</ele>
        <time>2026-04-30T13:04:23.999Z</time>
      </trkpt>
      <trkpt lat="43.98998" lon="2.99716">
        <ele>795.2</ele>
        <time>2026-04-30T13:04:24.999Z</time>
      </trkpt>
      <trkpt lat="43.98998" lon="2.99714">
        <ele>794.8</ele>
        <time>2026-04-30T13:04:25.999Z</time>
      </trkpt>
      <trkpt lat="43.98999" lon="2.99713">
        <ele>794.4</ele>
        <time>2026-04-30T13:04:26.999Z</time>
      </trkpt>
      <trkpt lat="43.98999" lon="2.99711">
        <ele>794.1</ele>
        <time>2026-04-30T13:04:27.999Z</time>
      </trkpt>
      <trkpt lat="43.98999" lon="2.99709">
        <ele>793.8</ele>
        <time>2026-04-30T13:04:28.999Z</time>
      </trkpt>
      <trkpt lat="43.98998" lon="2.99707">
        <ele>793.6</ele>
        <time>2026-04-30T13:04:29.999Z</time>
      </trkpt>
      <trkpt lat="43.98999" lon="2.99706">
        <ele>793.6</ele>
        <time>2026-04-30T13:04:30.999Z</time>
      </trkpt>
      <trkpt lat="43.98999" lon="2.99704">
        <ele>793.4</ele>
        <time>2026-04-30T13:04:31.999Z</time>
      </trkpt>
      <trkpt lat="43.98999" lon="2.99702">
        <ele>793.4</ele>
        <time>2026-04-30T13:04:32.999Z</time>
      </trkpt>
      <trkpt lat="43.98999" lon="2.99701">
        <ele>793.1</ele>
        <time>2026-04-30T13:04:33.999Z</time>
      </trkpt>
      <trkpt lat="43.99" lon="2.997">
        <ele>793</ele>
        <time>2026-04-30T13:04:34.999Z</time>
      </trkpt>
      <trkpt lat="43.99" lon="2.99698">
        <ele>792.9</ele>
        <time>2026-04-30T13:04:35.999Z</time>
      </trkpt>
      <trkpt lat="43.99001" lon="2.99697">
        <ele>792.7</ele>
        <time>2026-04-30T13:04:36.999Z</time>
      </trkpt>
      <trkpt lat="43.99001" lon="2.99695">
        <ele>792.7</ele>
        <time>2026-04-30T13:04:37.999Z</time>
      </trkpt>
      <trkpt lat="43.99001" lon="2.99693">
        <ele>792.7</ele>
        <time>2026-04-30T13:04:38.999Z</time>
      </trkpt>
      <trkpt lat="43.99001" lon="2.99691">
        <ele>792.5</ele>
        <time>2026-04-30T13:04:39.999Z</time>
      </trkpt>
      <trkpt lat="43.99001" lon="2.99689">
        <ele>792.5</ele>
        <time>2026-04-30T13:04:40.999Z</time>
      </trkpt>
      <trkpt lat="43.99001" lon="2.99687">
        <ele>792.5</ele>
        <time>2026-04-30T13:04:41.999Z</time>
      </trkpt>
      <trkpt lat="43.99" lon="2.99685">
        <ele>792.2</ele>
        <time>2026-04-30T13:04:42.999Z</time>
      </trkpt>
      <trkpt lat="43.99" lon="2.99683">
        <ele>792</ele>
        <time>2026-04-30T13:04:43.999Z</time>
      </trkpt>
      <trkpt lat="43.99" lon="2.99682">
        <ele>791.7</ele>
        <time>2026-04-30T13:04:44.999Z</time>
      </trkpt>
      <trkpt lat="43.99" lon="2.99681">
        <ele>791.3</ele>
        <time>2026-04-30T13:04:45.999Z</time>
      </trkpt>
      <trkpt lat="43.99001" lon="2.99681">
        <ele>791.2</ele>
        <time>2026-04-30T13:04:46.999Z</time>
      </trkpt>
      <trkpt lat="43.99001" lon="2.99679">
        <ele>791.2</ele>
        <time>2026-04-30T13:04:47.999Z</time>
      </trkpt>
      <trkpt lat="43.99002" lon="2.99678">
        <ele>790.9</ele>
        <time>2026-04-30T13:04:48.999Z</time>
      </trkpt>
      <trkpt lat="43.99002" lon="2.99677">
        <ele>790.2</ele>
        <time>2026-04-30T13:04:49.999Z</time>
      </trkpt>
      <trkpt lat="43.99002" lon="2.99676">
        <ele>790.1</ele>
        <time>2026-04-30T13:04:50.999Z</time>
      </trkpt>
      <trkpt lat="43.99002" lon="2.99675">
        <ele>789.8</ele>
        <time>2026-04-30T13:04:51.999Z</time>
      </trkpt>
      <trkpt lat="43.99002" lon="2.99674">
        <ele>789.9</ele>
        <time>2026-04-30T13:04:52.999Z</time>
      </trkpt>
      <trkpt lat="43.99002" lon="2.99673">
        <ele>790.3</ele>
        <time>2026-04-30T13:04:53.999Z</time>
      </trkpt>
      <trkpt lat="43.99002" lon="2.99671">
        <ele>790.5</ele>
        <time>2026-04-30T13:04:54.999Z</time>
      </trkpt>
      <trkpt lat="43.99002" lon="2.99669">
        <ele>790.6</ele>
        <time>2026-04-30T13:04:55.999Z</time>
      </trkpt>
      <trkpt lat="43.99001" lon="2.99667">
        <ele>790.7</ele>
        <time>2026-04-30T13:04:56.999Z</time>
      </trkpt>
      <trkpt lat="43.99001" lon="2.99666">
        <ele>790.7</ele>
        <time>2026-04-30T13:04:57.999Z</time>
      </trkpt>
      <trkpt lat="43.99001" lon="2.99665">
        <ele>790.5</ele>
        <time>2026-04-30T13:04:58.999Z</time>
      </trkpt>
      <trkpt lat="43.99001" lon="2.99663">
        <ele>790.4</ele>
        <time>2026-04-30T13:04:59.999Z</time>
      </trkpt>
      <trkpt lat="43.99001" lon="2.99662">
        <ele>790.3</ele>
        <time>2026-04-30T13:05:00.999Z</time>
      </trkpt>
      <trkpt lat="43.99" lon="2.99661">
        <ele>790.3</ele>
        <time>2026-04-30T13:05:01.999Z</time>
      </trkpt>
      <trkpt lat="43.99" lon="2.9966">
        <ele>790.3</ele>
        <time>2026-04-30T13:05:02.999Z</time>
      </trkpt>
      <trkpt lat="43.98999" lon="2.99658">
        <ele>790.5</ele>
        <time>2026-04-30T13:05:03.999Z</time>
      </trkpt>
      <trkpt lat="43.98999" lon="2.99657">
        <ele>790.6</ele>
        <time>2026-04-30T13:05:04.999Z</time>
      </trkpt>
      <trkpt lat="43.98999" lon="2.99655">
        <ele>790.8</ele>
        <time>2026-04-30T13:05:05.999Z</time>
      </trkpt>
      <trkpt lat="43.98999" lon="2.99653">
        <ele>790.6</ele>
        <time>2026-04-30T13:05:06.999Z</time>
      </trkpt>
      <trkpt lat="43.98999" lon="2.99652">
        <ele>790.1</ele>
        <time>2026-04-30T13:05:07.999Z</time>
      </trkpt>
      <trkpt lat="43.98999" lon="2.99649">
        <ele>789.3</ele>
        <time>2026-04-30T13:05:08.999Z</time>
      </trkpt>
      <trkpt lat="43.98998" lon="2.99647">
        <ele>788.9</ele>
        <time>2026-04-30T13:05:09.999Z</time>
      </trkpt>
      <trkpt lat="43.98996" lon="2.99646">
        <ele>788.7</ele>
        <time>2026-04-30T13:05:10.999Z</time>
      </trkpt>
      <trkpt lat="43.98996" lon="2.99644">
        <ele>788.8</ele>
        <time>2026-04-30T13:05:11.999Z</time>
      </trkpt>
      <trkpt lat="43.98996" lon="2.99644">
        <ele>788.9</ele>
        <time>2026-04-30T13:05:12.999Z</time>
      </trkpt>
      <trkpt lat="43.98995" lon="2.99643">
        <ele>788.5</ele>
        <time>2026-04-30T13:05:13.999Z</time>
      </trkpt>
      <trkpt lat="43.98995" lon="2.99642">
        <ele>788.2</ele>
        <time>2026-04-30T13:05:14.999Z</time>
      </trkpt>
      <trkpt lat="43.98994" lon="2.99641">
        <ele>788.2</ele>
        <time>2026-04-30T13:05:15.999Z</time>
      </trkpt>
      <trkpt lat="43.98993" lon="2.99641">
        <ele>788.4</ele>
        <time>2026-04-30T13:05:16.999Z</time>
      </trkpt>
      <trkpt lat="43.98992" lon="2.9964">
        <ele>788.7</ele>
        <time>2026-04-30T13:05:17.999Z</time>
      </trkpt>
      <trkpt lat="43.98991" lon="2.9964">
        <ele>788.8</ele>
        <time>2026-04-30T13:05:18.999Z</time>
      </trkpt>
      <trkpt lat="43.9899" lon="2.99639">
        <ele>788.6</ele>
        <time>2026-04-30T13:05:19.999Z</time>
      </trkpt>
      <trkpt lat="43.9899" lon="2.99639">
        <ele>788.6</ele>
        <time>2026-04-30T13:05:20.999Z</time>
      </trkpt>
      <trkpt lat="43.98989" lon="2.99638">
        <ele>788.6</ele>
        <time>2026-04-30T13:05:21.999Z</time>
      </trkpt>
      <trkpt lat="43.98988" lon="2.99637">
        <ele>788.5</ele>
        <time>2026-04-30T13:05:22.999Z</time>
      </trkpt>
      <trkpt lat="43.98987" lon="2.99636">
        <ele>788.7</ele>
        <time>2026-04-30T13:05:23.999Z</time>
      </trkpt>
      <trkpt lat="43.98986" lon="2.99635">
        <ele>788.5</ele>
        <time>2026-04-30T13:05:24.999Z</time>
      </trkpt>
      <trkpt lat="43.98986" lon="2.99634">
        <ele>788.4</ele>
        <time>2026-04-30T13:05:25.999Z</time>
      </trkpt>
      <trkpt lat="43.98986" lon="2.99633">
        <ele>788.2</ele>
        <time>2026-04-30T13:05:26.999Z</time>
      </trkpt>
      <trkpt lat="43.98986" lon="2.99631">
        <ele>788</ele>
        <time>2026-04-30T13:05:27.999Z</time>
      </trkpt>
      <trkpt lat="43.98986" lon="2.99628">
        <ele>788.1</ele>
        <time>2026-04-30T13:05:28.999Z</time>
      </trkpt>
      <trkpt lat="43.98985" lon="2.99626">
        <ele>788.5</ele>
        <time>2026-04-30T13:05:29.999Z</time>
      </trkpt>
      <trkpt lat="43.98985" lon="2.99625">
        <ele>788.5</ele>
        <time>2026-04-30T13:05:30.999Z</time>
      </trkpt>
      <trkpt lat="43.98985" lon="2.99624">
        <ele>788.7</ele>
        <time>2026-04-30T13:05:31.999Z</time>
      </trkpt>
      <trkpt lat="43.98984" lon="2.99624">
        <ele>788.8</ele>
        <time>2026-04-30T13:05:32.999Z</time>
      </trkpt>
      <trkpt lat="43.98983" lon="2.99623">
        <ele>788.6</ele>
        <time>2026-04-30T13:05:33.999Z</time>
      </trkpt>
      <trkpt lat="43.98982" lon="2.99623">
        <ele>788.4</ele>
        <time>2026-04-30T13:05:34.999Z</time>
      </trkpt>
      <trkpt lat="43.98982" lon="2.99623">
        <ele>787.8</ele>
        <time>2026-04-30T13:05:35.999Z</time>
      </trkpt>
      <trkpt lat="43.98981" lon="2.99622">
        <ele>787.7</ele>
        <time>2026-04-30T13:05:36.999Z</time>
      </trkpt>
      <trkpt lat="43.9898" lon="2.99621">
        <ele>787.6</ele>
        <time>2026-04-30T13:05:37.999Z</time>
      </trkpt>
      <trkpt lat="43.98979" lon="2.99622">
        <ele>787.5</ele>
        <time>2026-04-30T13:05:38.999Z</time>
      </trkpt>
      <trkpt lat="43.98978" lon="2.99623">
        <ele>787.1</ele>
        <time>2026-04-30T13:05:39.999Z</time>
      </trkpt>
      <trkpt lat="43.98977" lon="2.99623">
        <ele>787</ele>
        <time>2026-04-30T13:05:40.999Z</time>
      </trkpt>
      <trkpt lat="43.98976" lon="2.99624">
        <ele>786.9</ele>
        <time>2026-04-30T13:05:41.999Z</time>
      </trkpt>
      <trkpt lat="43.98975" lon="2.99624">
        <ele>786.7</ele>
        <time>2026-04-30T13:05:42.999Z</time>
      </trkpt>
      <trkpt lat="43.98974" lon="2.99625">
        <ele>786.6</ele>
        <time>2026-04-30T13:05:43.999Z</time>
      </trkpt>
      <trkpt lat="43.98973" lon="2.99627">
        <ele>786.2</ele>
        <time>2026-04-30T13:05:44.999Z</time>
      </trkpt>
      <trkpt lat="43.98973" lon="2.99629">
        <ele>785.8</ele>
        <time>2026-04-30T13:05:45.999Z</time>
      </trkpt>
      <trkpt lat="43.98972" lon="2.99631">
        <ele>785.8</ele>
        <time>2026-04-30T13:05:46.999Z</time>
      </trkpt>
      <trkpt lat="43.98972" lon="2.99632">
        <ele>785.5</ele>
        <time>2026-04-30T13:05:47.999Z</time>
      </trkpt>
      <trkpt lat="43.98972" lon="2.99634">
        <ele>785.4</ele>
        <time>2026-04-30T13:05:48.999Z</time>
      </trkpt>
      <trkpt lat="43.98971" lon="2.99633">
        <ele>784.5</ele>
        <time>2026-04-30T13:05:50.999Z</time>
      </trkpt>
      <trkpt lat="43.98971" lon="2.99633">
        <ele>783.7</ele>
        <time>2026-04-30T13:05:51.999Z</time>
      </trkpt>
      <trkpt lat="43.98972" lon="2.99633">
        <ele>783.4</ele>
        <time>2026-04-30T13:05:52.999Z</time>
      </trkpt>
      <trkpt lat="43.98972" lon="2.99633">
        <ele>782.9</ele>
        <time>2026-04-30T13:05:53.999Z</time>
      </trkpt>
      <trkpt lat="43.98972" lon="2.99632">
        <ele>782.7</ele>
        <time>2026-04-30T13:05:54.999Z</time>
      </trkpt>
      <trkpt lat="43.98972" lon="2.99632">
        <ele>782.8</ele>
        <time>2026-04-30T13:05:55.999Z</time>
      </trkpt>
      <trkpt lat="43.98972" lon="2.99632">
        <ele>782.8</ele>
        <time>2026-04-30T13:05:56.999Z</time>
      </trkpt>
      <trkpt lat="43.98972" lon="2.99633">
        <ele>782.8</ele>
        <time>2026-04-30T13:05:57.999Z</time>
      </trkpt>
      <trkpt lat="43.98972" lon="2.99633">
        <ele>782.6</ele>
        <time>2026-04-30T13:05:58.999Z</time>
      </trkpt>
      <trkpt lat="43.98972" lon="2.99633">
        <ele>782.7</ele>
        <time>2026-04-30T13:05:59.999Z</time>
      </trkpt>
      <trkpt lat="43.98972" lon="2.99632">
        <ele>782.9</ele>
        <time>2026-04-30T13:06:00.999Z</time>
      </trkpt>
      <trkpt lat="43.98972" lon="2.99632">
        <ele>782.9</ele>
        <time>2026-04-30T13:06:01.999Z</time>
      </trkpt>
      <trkpt lat="43.98973" lon="2.99632">
        <ele>782.4</ele>
        <time>2026-04-30T13:06:02.999Z</time>
      </trkpt>
      <trkpt lat="43.98973" lon="2.99632">
        <ele>782.1</ele>
        <time>2026-04-30T13:06:03.999Z</time>
      </trkpt>
      <trkpt lat="43.98973" lon="2.99632">
        <ele>782.1</ele>
        <time>2026-04-30T13:06:04.999Z</time>
      </trkpt>
      <trkpt lat="43.98973" lon="2.99632">
        <ele>782.1</ele>
        <time>2026-04-30T13:06:05.999Z</time>
      </trkpt>
      <trkpt lat="43.98973" lon="2.99633">
        <ele>781.9</ele>
        <time>2026-04-30T13:06:06.999Z</time>
      </trkpt>
      <trkpt lat="43.98973" lon="2.99633">
        <ele>781.5</ele>
        <time>2026-04-30T13:06:07.999Z</time>
      </trkpt>
      <trkpt lat="43.98973" lon="2.99633">
        <ele>781.1</ele>
        <time>2026-04-30T13:06:08.999Z</time>
      </trkpt>
      <trkpt lat="43.98973" lon="2.99633">
        <ele>780.9</ele>
        <time>2026-04-30T13:06:09.999Z</time>
      </trkpt>
      <trkpt lat="43.98973" lon="2.99633">
        <ele>780.8</ele>
        <time>2026-04-30T13:06:10.999Z</time>
      </trkpt>
      <trkpt lat="43.98973" lon="2.99633">
        <ele>781</ele>
        <time>2026-04-30T13:06:11.999Z</time>
      </trkpt>
      <trkpt lat="43.98973" lon="2.99634">
        <ele>781</ele>
        <time>2026-04-30T13:06:12.999Z</time>
      </trkpt>
      <trkpt lat="43.98973" lon="2.99634">
        <ele>781</ele>
        <time>2026-04-30T13:06:13.999Z</time>
      </trkpt>
      <trkpt lat="43.98973" lon="2.99633">
        <ele>781.1</ele>
        <time>2026-04-30T13:06:14.999Z</time>
      </trkpt>
      <trkpt lat="43.98973" lon="2.99633">
        <ele>781.2</ele>
        <time>2026-04-30T13:06:15.999Z</time>
      </trkpt>
      <trkpt lat="43.98973" lon="2.99633">
        <ele>781.4</ele>
        <time>2026-04-30T13:06:16.999Z</time>
      </trkpt>
      <trkpt lat="43.98972" lon="2.99634">
        <ele>781.6</ele>
        <time>2026-04-30T13:06:17.999Z</time>
      </trkpt>
      <trkpt lat="43.98972" lon="2.99634">
        <ele>781.6</ele>
        <time>2026-04-30T13:06:18.999Z</time>
      </trkpt>
      <trkpt lat="43.98972" lon="2.99633">
        <ele>781.6</ele>
        <time>2026-04-30T13:06:19.999Z</time>
      </trkpt>
      <trkpt lat="43.98972" lon="2.99634">
        <ele>781.8</ele>
        <time>2026-04-30T13:06:20.999Z</time>
      </trkpt>
      <trkpt lat="43.98972" lon="2.99634">
        <ele>781.7</ele>
        <time>2026-04-30T13:06:21.999Z</time>
      </trkpt>
      <trkpt lat="43.98972" lon="2.99634">
        <ele>781.7</ele>
        <time>2026-04-30T13:06:22.999Z</time>
      </trkpt>
      <trkpt lat="43.98972" lon="2.99633">
        <ele>781.8</ele>
        <time>2026-04-30T13:06:23.999Z</time>
      </trkpt>
      <trkpt lat="43.98971" lon="2.99633">
        <ele>781.8</ele>
        <time>2026-04-30T13:06:24.999Z</time>
      </trkpt>
      <trkpt lat="43.98971" lon="2.99632">
        <ele>781.9</ele>
        <time>2026-04-30T13:06:25.999Z</time>
      </trkpt>
      <trkpt lat="43.98971" lon="2.99632">
        <ele>782.1</ele>
        <time>2026-04-30T13:06:26.999Z</time>
      </trkpt>
      <trkpt lat="43.98971" lon="2.99632">
        <ele>782.2</ele>
        <time>2026-04-30T13:06:27.999Z</time>
      </trkpt>
      <trkpt lat="43.98971" lon="2.99632">
        <ele>782.3</ele>
        <time>2026-04-30T13:06:28.999Z</time>
      </trkpt>
      <trkpt lat="43.98971" lon="2.99631">
        <ele>782.5</ele>
        <time>2026-04-30T13:06:29.999Z</time>
      </trkpt>
      <trkpt lat="43.98971" lon="2.99631">
        <ele>782.8</ele>
        <time>2026-04-30T13:06:30.999Z</time>
      </trkpt>
      <trkpt lat="43.98971" lon="2.99632">
        <ele>782.7</ele>
        <time>2026-04-30T13:06:31.999Z</time>
      </trkpt>
      <trkpt lat="43.9897" lon="2.99632">
        <ele>782.7</ele>
        <time>2026-04-30T13:06:32.999Z</time>
      </trkpt>
      <trkpt lat="43.98971" lon="2.99632">
        <ele>782.8</ele>
        <time>2026-04-30T13:06:33.999Z</time>
      </trkpt>
      <trkpt lat="43.98971" lon="2.99632">
        <ele>782.5</ele>
        <time>2026-04-30T13:06:34.999Z</time>
      </trkpt>
      <trkpt lat="43.98971" lon="2.99632">
        <ele>782.3</ele>
        <time>2026-04-30T13:06:35.999Z</time>
      </trkpt>
      <trkpt lat="43.9897" lon="2.99633">
        <ele>782.2</ele>
        <time>2026-04-30T13:06:36.999Z</time>
      </trkpt>
      <trkpt lat="43.98971" lon="2.99633">
        <ele>782.2</ele>
        <time>2026-04-30T13:06:37.999Z</time>
      </trkpt>
      <trkpt lat="43.98971" lon="2.99632">
        <ele>782.6</ele>
        <time>2026-04-30T13:06:38.999Z</time>
      </trkpt>
      <trkpt lat="43.98971" lon="2.99632">
        <ele>782.5</ele>
        <time>2026-04-30T13:06:39.999Z</time>
      </trkpt>
      <trkpt lat="43.98971" lon="2.99632">
        <ele>782.4</ele>
        <time>2026-04-30T13:06:40.999Z</time>
      </trkpt>
      <trkpt lat="43.98971" lon="2.99632">
        <ele>782.3</ele>
        <time>2026-04-30T13:06:41.999Z</time>
      </trkpt>
      <trkpt lat="43.98971" lon="2.99632">
        <ele>782.3</ele>
        <time>2026-04-30T13:06:42.999Z</time>
      </trkpt>
      <trkpt lat="43.98971" lon="2.99632">
        <ele>782.3</ele>
        <time>2026-04-30T13:06:43.999Z</time>
      </trkpt>
      <trkpt lat="43.98971" lon="2.99631">
        <ele>782.3</ele>
        <time>2026-04-30T13:06:44.999Z</time>
      </trkpt>
      <trkpt lat="43.98971" lon="2.99631">
        <ele>782.3</ele>
        <time>2026-04-30T13:06:45.999Z</time>
      </trkpt>
      <trkpt lat="43.98971" lon="2.99631">
        <ele>782.2</ele>
        <time>2026-04-30T13:06:46.999Z</time>
      </trkpt>
      <trkpt lat="43.98971" lon="2.99631">
        <ele>782.1</ele>
        <time>2026-04-30T13:06:47.999Z</time>
      </trkpt>
      <trkpt lat="43.98971" lon="2.99631">
        <ele>782</ele>
        <time>2026-04-30T13:06:48.999Z</time>
      </trkpt>
      <trkpt lat="43.98972" lon="2.99631">
        <ele>781.9</ele>
        <time>2026-04-30T13:06:49.999Z</time>
      </trkpt>
      <trkpt lat="43.98972" lon="2.99631">
        <ele>781.9</ele>
        <time>2026-04-30T13:06:50.999Z</time>
      </trkpt>
      <trkpt lat="43.98972" lon="2.99631">
        <ele>781.9</ele>
        <time>2026-04-30T13:06:51.999Z</time>
      </trkpt>
      <trkpt lat="43.98972" lon="2.99631">
        <ele>782.3</ele>
        <time>2026-04-30T13:06:52.999Z</time>
      </trkpt>
      <trkpt lat="43.98972" lon="2.99631">
        <ele>782.6</ele>
        <time>2026-04-30T13:06:53.999Z</time>
      </trkpt>
      <trkpt lat="43.98972" lon="2.99631">
        <ele>782.9</ele>
        <time>2026-04-30T13:06:54.999Z</time>
      </trkpt>
      <trkpt lat="43.98972" lon="2.99632">
        <ele>783.1</ele>
        <time>2026-04-30T13:06:55.999Z</time>
      </trkpt>
      <trkpt lat="43.98972" lon="2.99632">
        <ele>783.5</ele>
        <time>2026-04-30T13:06:56.999Z</time>
      </trkpt>
      <trkpt lat="43.98972" lon="2.99632">
        <ele>783.8</ele>
        <time>2026-04-30T13:06:57.999Z</time>
      </trkpt>
      <trkpt lat="43.98972" lon="2.99632">
        <ele>784.2</ele>
        <time>2026-04-30T13:06:58.999Z</time>
      </trkpt>
      <trkpt lat="43.98972" lon="2.99632">
        <ele>784.6</ele>
        <time>2026-04-30T13:06:59.999Z</time>
      </trkpt>
      <trkpt lat="43.98972" lon="2.99632">
        <ele>784.7</ele>
        <time>2026-04-30T13:07:00.999Z</time>
      </trkpt>
      <trkpt lat="43.98972" lon="2.99632">
        <ele>784.9</ele>
        <time>2026-04-30T13:07:01.999Z</time>
      </trkpt>
      <trkpt lat="43.98972" lon="2.99632">
        <ele>785</ele>
        <time>2026-04-30T13:07:02.999Z</time>
      </trkpt>
      <trkpt lat="43.98972" lon="2.99632">
        <ele>785</ele>
        <time>2026-04-30T13:07:03.999Z</time>
      </trkpt>
      <trkpt lat="43.98972" lon="2.99633">
        <ele>785.2</ele>
        <time>2026-04-30T13:07:04.999Z</time>
      </trkpt>
      <trkpt lat="43.98972" lon="2.99632">
        <ele>784.9</ele>
        <time>2026-04-30T13:07:05.999Z</time>
      </trkpt>
      <trkpt lat="43.98972" lon="2.99632">
        <ele>784.8</ele>
        <time>2026-04-30T13:07:06.999Z</time>
      </trkpt>
      <trkpt lat="43.98972" lon="2.99632">
        <ele>784.8</ele>
        <time>2026-04-30T13:07:07.999Z</time>
      </trkpt>
      <trkpt lat="43.98972" lon="2.99632">
        <ele>784.9</ele>
        <time>2026-04-30T13:07:08.999Z</time>
      </trkpt>
      <trkpt lat="43.98972" lon="2.99632">
        <ele>784.6</ele>
        <time>2026-04-30T13:07:09.999Z</time>
      </trkpt>
      <trkpt lat="43.98972" lon="2.99632">
        <ele>784.4</ele>
        <time>2026-04-30T13:07:10.999Z</time>
      </trkpt>
      <trkpt lat="43.98972" lon="2.99632">
        <ele>784.4</ele>
        <time>2026-04-30T13:07:11.999Z</time>
      </trkpt>
      <trkpt lat="43.98972" lon="2.99632">
        <ele>784.3</ele>
        <time>2026-04-30T13:07:12.999Z</time>
      </trkpt>
      <trkpt lat="43.98972" lon="2.99632">
        <ele>784.3</ele>
        <time>2026-04-30T13:07:13.999Z</time>
      </trkpt>
      <trkpt lat="43.98972" lon="2.99631">
        <ele>784.1</ele>
        <time>2026-04-30T13:07:14.999Z</time>
      </trkpt>
      <trkpt lat="43.98972" lon="2.99631">
        <ele>784.1</ele>
        <time>2026-04-30T13:07:15.999Z</time>
      </trkpt>
      <trkpt lat="43.98973" lon="2.9963">
        <ele>784.2</ele>
        <time>2026-04-30T13:07:16.999Z</time>
      </trkpt>
      <trkpt lat="43.98973" lon="2.99629">
        <ele>784.3</ele>
        <time>2026-04-30T13:07:17.999Z</time>
      </trkpt>
      <trkpt lat="43.98973" lon="2.99629">
        <ele>784.4</ele>
        <time>2026-04-30T13:07:18.999Z</time>
      </trkpt>
      <trkpt lat="43.98973" lon="2.99629">
        <ele>784.2</ele>
        <time>2026-04-30T13:07:19.999Z</time>
      </trkpt>
      <trkpt lat="43.98973" lon="2.99629">
        <ele>784.1</ele>
        <time>2026-04-30T13:07:20.999Z</time>
      </trkpt>
      <trkpt lat="43.98973" lon="2.9963">
        <ele>784</ele>
        <time>2026-04-30T13:07:21.999Z</time>
      </trkpt>
      <trkpt lat="43.98973" lon="2.9963">
        <ele>783.9</ele>
        <time>2026-04-30T13:07:22.999Z</time>
      </trkpt>
      <trkpt lat="43.98972" lon="2.9963">
        <ele>783.7</ele>
        <time>2026-04-30T13:07:23.999Z</time>
      </trkpt>
      <trkpt lat="43.98972" lon="2.9963">
        <ele>783.4</ele>
        <time>2026-04-30T13:07:24.999Z</time>
      </trkpt>
      <trkpt lat="43.98972" lon="2.9963">
        <ele>783.4</ele>
        <time>2026-04-30T13:07:25.999Z</time>
      </trkpt>
      <trkpt lat="43.98972" lon="2.9963">
        <ele>783.3</ele>
        <time>2026-04-30T13:07:26.999Z</time>
      </trkpt>
      <trkpt lat="43.98972" lon="2.9963">
        <ele>783.3</ele>
        <time>2026-04-30T13:07:27.999Z</time>
      </trkpt>
      <trkpt lat="43.98972" lon="2.9963">
        <ele>783</ele>
        <time>2026-04-30T13:07:28.999Z</time>
      </trkpt>
      <trkpt lat="43.98972" lon="2.99631">
        <ele>782.7</ele>
        <time>2026-04-30T13:07:29.999Z</time>
      </trkpt>
      <trkpt lat="43.98972" lon="2.99631">
        <ele>782.5</ele>
        <time>2026-04-30T13:07:30.999Z</time>
      </trkpt>
      <trkpt lat="43.98972" lon="2.99631">
        <ele>782.2</ele>
        <time>2026-04-30T13:07:31.999Z</time>
      </trkpt>
      <trkpt lat="43.98972" lon="2.99631">
        <ele>782</ele>
        <time>2026-04-30T13:07:32.999Z</time>
      </trkpt>
      <trkpt lat="43.98972" lon="2.99631">
        <ele>781.6</ele>
        <time>2026-04-30T13:07:33.999Z</time>
      </trkpt>
      <trkpt lat="43.98972" lon="2.99632">
        <ele>781.4</ele>
        <time>2026-04-30T13:07:34.999Z</time>
      </trkpt>
      <trkpt lat="43.98972" lon="2.99632">
        <ele>781.2</ele>
        <time>2026-04-30T13:07:35.999Z</time>
      </trkpt>
      <trkpt lat="43.98972" lon="2.99632">
        <ele>781</ele>
        <time>2026-04-30T13:07:36.999Z</time>
      </trkpt>
      <trkpt lat="43.98972" lon="2.99632">
        <ele>781</ele>
        <time>2026-04-30T13:07:38.999Z</time>
      </trkpt>
      <trkpt lat="43.98972" lon="2.99632">
        <ele>781</ele>
        <time>2026-04-30T13:07:39.999Z</time>
      </trkpt>
      <trkpt lat="43.98972" lon="2.99632">
        <ele>780.9</ele>
        <time>2026-04-30T13:07:40.999Z</time>
      </trkpt>
      <trkpt lat="43.98972" lon="2.99632">
        <ele>780.8</ele>
        <time>2026-04-30T13:07:41.999Z</time>
      </trkpt>
      <trkpt lat="43.98972" lon="2.99632">
        <ele>780.9</ele>
        <time>2026-04-30T13:07:42.999Z</time>
      </trkpt>
      <trkpt lat="43.98973" lon="2.99632">
        <ele>780.9</ele>
        <time>2026-04-30T13:07:43.999Z</time>
      </trkpt>
      <trkpt lat="43.98973" lon="2.99631">
        <ele>780.9</ele>
        <time>2026-04-30T13:07:44.999Z</time>
      </trkpt>
      <trkpt lat="43.98973" lon="2.99631">
        <ele>780.9</ele>
        <time>2026-04-30T13:07:45.999Z</time>
      </trkpt>
      <trkpt lat="43.98973" lon="2.99632">
        <ele>780.8</ele>
        <time>2026-04-30T13:07:46.999Z</time>
      </trkpt>
      <trkpt lat="43.98973" lon="2.99632">
        <ele>780.9</ele>
        <time>2026-04-30T13:07:47.999Z</time>
      </trkpt>
      <trkpt lat="43.98974" lon="2.99632">
        <ele>780.9</ele>
        <time>2026-04-30T13:07:48.999Z</time>
      </trkpt>
      <trkpt lat="43.98974" lon="2.99632">
        <ele>781</ele>
        <time>2026-04-30T13:07:49.999Z</time>
      </trkpt>
      <trkpt lat="43.98974" lon="2.99632">
        <ele>781</ele>
        <time>2026-04-30T13:07:50.999Z</time>
      </trkpt>
      <trkpt lat="43.98975" lon="2.99632">
        <ele>781</ele>
        <time>2026-04-30T13:07:51.999Z</time>
      </trkpt>
      <trkpt lat="43.98975" lon="2.99632">
        <ele>781.1</ele>
        <time>2026-04-30T13:07:52.999Z</time>
      </trkpt>
      <trkpt lat="43.98975" lon="2.99632">
        <ele>781.1</ele>
        <time>2026-04-30T13:07:53.999Z</time>
      </trkpt>
      <trkpt lat="43.98975" lon="2.99632">
        <ele>781.1</ele>
        <time>2026-04-30T13:07:54.999Z</time>
      </trkpt>
      <trkpt lat="43.98975" lon="2.99633">
        <ele>781.1</ele>
        <time>2026-04-30T13:07:55.999Z</time>
      </trkpt>
      <trkpt lat="43.98975" lon="2.99633">
        <ele>781.1</ele>
        <time>2026-04-30T13:07:56.999Z</time>
      </trkpt>
      <trkpt lat="43.98976" lon="2.99634">
        <ele>781.1</ele>
        <time>2026-04-30T13:07:57.999Z</time>
      </trkpt>
      <trkpt lat="43.98976" lon="2.99634">
        <ele>781.2</ele>
        <time>2026-04-30T13:07:58.999Z</time>
      </trkpt>
      <trkpt lat="43.98976" lon="2.99634">
        <ele>781.3</ele>
        <time>2026-04-30T13:07:59.999Z</time>
      </trkpt>
      <trkpt lat="43.98976" lon="2.99633">
        <ele>781</ele>
        <time>2026-04-30T13:08:00.999Z</time>
      </trkpt>
      <trkpt lat="43.98976" lon="2.99634">
        <ele>780.9</ele>
        <time>2026-04-30T13:08:01.999Z</time>
      </trkpt>
      <trkpt lat="43.98977" lon="2.99634">
        <ele>780.9</ele>
        <time>2026-04-30T13:08:02.999Z</time>
      </trkpt>
      <trkpt lat="43.98977" lon="2.99634">
        <ele>780.6</ele>
        <time>2026-04-30T13:08:03.999Z</time>
      </trkpt>
      <trkpt lat="43.98977" lon="2.99634">
        <ele>780.2</ele>
        <time>2026-04-30T13:08:04.999Z</time>
      </trkpt>
      <trkpt lat="43.98977" lon="2.99634">
        <ele>780.1</ele>
        <time>2026-04-30T13:08:05.999Z</time>
      </trkpt>
      <trkpt lat="43.98977" lon="2.99633">
        <ele>779.9</ele>
        <time>2026-04-30T13:08:06.999Z</time>
      </trkpt>
      <trkpt lat="43.98977" lon="2.99634">
        <ele>779.8</ele>
        <time>2026-04-30T13:08:07.999Z</time>
      </trkpt>
      <trkpt lat="43.98977" lon="2.99633">
        <ele>779.8</ele>
        <time>2026-04-30T13:08:08.999Z</time>
      </trkpt>
      <trkpt lat="43.98977" lon="2.99634">
        <ele>779.9</ele>
        <time>2026-04-30T13:08:09.999Z</time>
      </trkpt>
      <trkpt lat="43.98976" lon="2.99633">
        <ele>780.1</ele>
        <time>2026-04-30T13:08:10.999Z</time>
      </trkpt>
      <trkpt lat="43.98977" lon="2.99633">
        <ele>780.3</ele>
        <time>2026-04-30T13:08:11.999Z</time>
      </trkpt>
      <trkpt lat="43.98977" lon="2.99633">
        <ele>780.2</ele>
        <time>2026-04-30T13:08:12.999Z</time>
      </trkpt>
      <trkpt lat="43.98977" lon="2.99633">
        <ele>780.2</ele>
        <time>2026-04-30T13:08:13.999Z</time>
      </trkpt>
      <trkpt lat="43.98976" lon="2.99633">
        <ele>780</ele>
        <time>2026-04-30T13:08:14.999Z</time>
      </trkpt>
      <trkpt lat="43.98976" lon="2.99633">
        <ele>779.7</ele>
        <time>2026-04-30T13:08:15.999Z</time>
      </trkpt>
      <trkpt lat="43.98976" lon="2.99633">
        <ele>779.9</ele>
        <time>2026-04-30T13:08:16.999Z</time>
      </trkpt>
      <trkpt lat="43.98976" lon="2.99634">
        <ele>780</ele>
        <time>2026-04-30T13:08:17.999Z</time>
      </trkpt>
      <trkpt lat="43.98976" lon="2.99634">
        <ele>780.2</ele>
        <time>2026-04-30T13:08:18.999Z</time>
      </trkpt>
      <trkpt lat="43.98976" lon="2.99634">
        <ele>780.3</ele>
        <time>2026-04-30T13:08:19.999Z</time>
      </trkpt>
      <trkpt lat="43.98976" lon="2.99634">
        <ele>780.3</ele>
        <time>2026-04-30T13:08:20.999Z</time>
      </trkpt>
      <trkpt lat="43.98976" lon="2.99634">
        <ele>780.2</ele>
        <time>2026-04-30T13:08:21.999Z</time>
      </trkpt>
      <trkpt lat="43.98976" lon="2.99634">
        <ele>780.2</ele>
        <time>2026-04-30T13:08:22.999Z</time>
      </trkpt>
      <trkpt lat="43.98976" lon="2.99634">
        <ele>780.3</ele>
        <time>2026-04-30T13:08:23.999Z</time>
      </trkpt>
      <trkpt lat="43.98976" lon="2.99634">
        <ele>780.2</ele>
        <time>2026-04-30T13:08:24.999Z</time>
      </trkpt>
      <trkpt lat="43.98976" lon="2.99634">
        <ele>780.1</ele>
        <time>2026-04-30T13:08:25.999Z</time>
      </trkpt>
      <trkpt lat="43.98976" lon="2.99634">
        <ele>779.9</ele>
        <time>2026-04-30T13:08:26.999Z</time>
      </trkpt>
      <trkpt lat="43.98976" lon="2.99634">
        <ele>779.8</ele>
        <time>2026-04-30T13:08:27.999Z</time>
      </trkpt>
      <trkpt lat="43.98976" lon="2.99634">
        <ele>779.5</ele>
        <time>2026-04-30T13:08:28.999Z</time>
      </trkpt>
      <trkpt lat="43.98976" lon="2.99634">
        <ele>779.4</ele>
        <time>2026-04-30T13:08:29.999Z</time>
      </trkpt>
      <trkpt lat="43.98976" lon="2.99634">
        <ele>779.2</ele>
        <time>2026-04-30T13:08:30.999Z</time>
      </trkpt>
      <trkpt lat="43.98976" lon="2.99634">
        <ele>779.2</ele>
        <time>2026-04-30T13:08:31.999Z</time>
      </trkpt>
      <trkpt lat="43.98976" lon="2.99634">
        <ele>779.1</ele>
        <time>2026-04-30T13:08:32.999Z</time>
      </trkpt>
      <trkpt lat="43.98976" lon="2.99634">
        <ele>779.3</ele>
        <time>2026-04-30T13:08:33.999Z</time>
      </trkpt>
      <trkpt lat="43.98976" lon="2.99634">
        <ele>779.3</ele>
        <time>2026-04-30T13:08:34.999Z</time>
      </trkpt>
      <trkpt lat="43.98976" lon="2.99634">
        <ele>779.5</ele>
        <time>2026-04-30T13:08:35.999Z</time>
      </trkpt>
      <trkpt lat="43.98976" lon="2.99634">
        <ele>779.4</ele>
        <time>2026-04-30T13:08:36.999Z</time>
      </trkpt>
      <trkpt lat="43.98976" lon="2.99634">
        <ele>779.5</ele>
        <time>2026-04-30T13:08:37.999Z</time>
      </trkpt>
      <trkpt lat="43.98976" lon="2.99634">
        <ele>779.5</ele>
        <time>2026-04-30T13:08:38.999Z</time>
      </trkpt>
      <trkpt lat="43.98976" lon="2.99634">
        <ele>779.4</ele>
        <time>2026-04-30T13:08:39.999Z</time>
      </trkpt>
      <trkpt lat="43.98976" lon="2.99634">
        <ele>779.3</ele>
        <time>2026-04-30T13:08:40.999Z</time>
      </trkpt>
      <trkpt lat="43.98976" lon="2.99634">
        <ele>779.3</ele>
        <time>2026-04-30T13:08:41.999Z</time>
      </trkpt>
      <trkpt lat="43.98975" lon="2.99634">
        <ele>779.3</ele>
        <time>2026-04-30T13:08:42.999Z</time>
      </trkpt>
      <trkpt lat="43.98975" lon="2.99634">
        <ele>779.3</ele>
        <time>2026-04-30T13:08:43.999Z</time>
      </trkpt>
      <trkpt lat="43.98975" lon="2.99634">
        <ele>779.6</ele>
        <time>2026-04-30T13:08:44.999Z</time>
      </trkpt>
      <trkpt lat="43.98975" lon="2.99634">
        <ele>779.7</ele>
        <time>2026-04-30T13:08:45.999Z</time>
      </trkpt>
      <trkpt lat="43.98975" lon="2.99634">
        <ele>779.5</ele>
        <time>2026-04-30T13:08:46.999Z</time>
      </trkpt>
      <trkpt lat="43.98975" lon="2.99634">
        <ele>779.5</ele>
        <time>2026-04-30T13:08:47.999Z</time>
      </trkpt>
      <trkpt lat="43.98975" lon="2.99634">
        <ele>779.3</ele>
        <time>2026-04-30T13:08:48.999Z</time>
      </trkpt>
      <trkpt lat="43.98975" lon="2.99634">
        <ele>779</ele>
        <time>2026-04-30T13:08:49.999Z</time>
      </trkpt>
      <trkpt lat="43.98975" lon="2.99634">
        <ele>778.7</ele>
        <time>2026-04-30T13:08:50.999Z</time>
      </trkpt>
      <trkpt lat="43.98975" lon="2.99634">
        <ele>778.5</ele>
        <time>2026-04-30T13:08:51.999Z</time>
      </trkpt>
      <trkpt lat="43.98975" lon="2.99634">
        <ele>778.3</ele>
        <time>2026-04-30T13:08:52.999Z</time>
      </trkpt>
      <trkpt lat="43.98975" lon="2.99634">
        <ele>778.2</ele>
        <time>2026-04-30T13:08:53.999Z</time>
      </trkpt>
      <trkpt lat="43.98975" lon="2.99634">
        <ele>778.1</ele>
        <time>2026-04-30T13:08:54.999Z</time>
      </trkpt>
      <trkpt lat="43.98975" lon="2.99634">
        <ele>777.9</ele>
        <time>2026-04-30T13:08:55.999Z</time>
      </trkpt>
      <trkpt lat="43.98975" lon="2.99634">
        <ele>778.1</ele>
        <time>2026-04-30T13:08:56.999Z</time>
      </trkpt>
      <trkpt lat="43.98975" lon="2.99634">
        <ele>778.1</ele>
        <time>2026-04-30T13:08:57.999Z</time>
      </trkpt>
      <trkpt lat="43.98975" lon="2.99633">
        <ele>778</ele>
        <time>2026-04-30T13:08:58.999Z</time>
      </trkpt>
      <trkpt lat="43.98976" lon="2.99631">
        <ele>778.1</ele>
        <time>2026-04-30T13:08:59.999Z</time>
      </trkpt>
      <trkpt lat="43.98976" lon="2.9963">
        <ele>778</ele>
        <time>2026-04-30T13:09:00.999Z</time>
      </trkpt>
      <trkpt lat="43.98976" lon="2.99629">
        <ele>777.7</ele>
        <time>2026-04-30T13:09:01.999Z</time>
      </trkpt>
      <trkpt lat="43.98976" lon="2.99629">
        <ele>777.5</ele>
        <time>2026-04-30T13:09:02.999Z</time>
      </trkpt>
      <trkpt lat="43.98976" lon="2.99629">
        <ele>777</ele>
        <time>2026-04-30T13:09:03.999Z</time>
      </trkpt>
      <trkpt lat="43.98976" lon="2.99629">
        <ele>776.7</ele>
        <time>2026-04-30T13:09:04.999Z</time>
      </trkpt>
      <trkpt lat="43.98976" lon="2.99629">
        <ele>776.4</ele>
        <time>2026-04-30T13:09:05.999Z</time>
      </trkpt>
      <trkpt lat="43.98976" lon="2.99629">
        <ele>776.5</ele>
        <time>2026-04-30T13:09:06.999Z</time>
      </trkpt>
      <trkpt lat="43.98975" lon="2.9963">
        <ele>776.7</ele>
        <time>2026-04-30T13:09:07.999Z</time>
      </trkpt>
      <trkpt lat="43.98975" lon="2.9963">
        <ele>776.8</ele>
        <time>2026-04-30T13:09:08.999Z</time>
      </trkpt>
      <trkpt lat="43.98975" lon="2.9963">
        <ele>776.7</ele>
        <time>2026-04-30T13:09:09.999Z</time>
      </trkpt>
      <trkpt lat="43.98975" lon="2.9963">
        <ele>776.7</ele>
        <time>2026-04-30T13:09:10.999Z</time>
      </trkpt>
      <trkpt lat="43.98975" lon="2.9963">
        <ele>776.7</ele>
        <time>2026-04-30T13:09:11.999Z</time>
      </trkpt>
      <trkpt lat="43.98975" lon="2.9963">
        <ele>776.6</ele>
        <time>2026-04-30T13:09:12.999Z</time>
      </trkpt>
      <trkpt lat="43.98975" lon="2.9963">
        <ele>776.6</ele>
        <time>2026-04-30T13:09:13.999Z</time>
      </trkpt>
      <trkpt lat="43.98974" lon="2.99629">
        <ele>776.6</ele>
        <time>2026-04-30T13:09:14.999Z</time>
      </trkpt>
      <trkpt lat="43.98974" lon="2.99627">
        <ele>776.7</ele>
        <time>2026-04-30T13:09:15.999Z</time>
      </trkpt>
      <trkpt lat="43.98973" lon="2.99625">
        <ele>776.6</ele>
        <time>2026-04-30T13:09:16.999Z</time>
      </trkpt>
      <trkpt lat="43.98973" lon="2.99623">
        <ele>776.7</ele>
        <time>2026-04-30T13:09:17.999Z</time>
      </trkpt>
      <trkpt lat="43.98973" lon="2.99622">
        <ele>776.8</ele>
        <time>2026-04-30T13:09:18.999Z</time>
      </trkpt>
      <trkpt lat="43.98973" lon="2.99621">
        <ele>776.7</ele>
        <time>2026-04-30T13:09:19.999Z</time>
      </trkpt>
      <trkpt lat="43.98973" lon="2.99621">
        <ele>776.7</ele>
        <time>2026-04-30T13:09:20.999Z</time>
      </trkpt>
      <trkpt lat="43.98973" lon="2.99619">
        <ele>776.5</ele>
        <time>2026-04-30T13:09:21.999Z</time>
      </trkpt>
      <trkpt lat="43.98972" lon="2.99617">
        <ele>776.3</ele>
        <time>2026-04-30T13:09:22.999Z</time>
      </trkpt>
      <trkpt lat="43.98972" lon="2.99616">
        <ele>776.3</ele>
        <time>2026-04-30T13:09:23.999Z</time>
      </trkpt>
      <trkpt lat="43.98973" lon="2.99615">
        <ele>776.4</ele>
        <time>2026-04-30T13:09:24.999Z</time>
      </trkpt>
      <trkpt lat="43.98973" lon="2.99614">
        <ele>776.6</ele>
        <time>2026-04-30T13:09:25.999Z</time>
      </trkpt>
      <trkpt lat="43.98973" lon="2.99613">
        <ele>776.9</ele>
        <time>2026-04-30T13:09:26.999Z</time>
      </trkpt>
      <trkpt lat="43.98974" lon="2.99611">
        <ele>777</ele>
        <time>2026-04-30T13:09:27.999Z</time>
      </trkpt>
      <trkpt lat="43.98974" lon="2.99611">
        <ele>776.9</ele>
        <time>2026-04-30T13:09:28.999Z</time>
      </trkpt>
      <trkpt lat="43.98974" lon="2.99609">
        <ele>777</ele>
        <time>2026-04-30T13:09:29.999Z</time>
      </trkpt>
      <trkpt lat="43.98974" lon="2.99608">
        <ele>777</ele>
        <time>2026-04-30T13:09:30.999Z</time>
      </trkpt>
      <trkpt lat="43.98974" lon="2.99607">
        <ele>777</ele>
        <time>2026-04-30T13:09:31.999Z</time>
      </trkpt>
      <trkpt lat="43.98974" lon="2.99605">
        <ele>776.9</ele>
        <time>2026-04-30T13:09:32.999Z</time>
      </trkpt>
      <trkpt lat="43.98974" lon="2.99604">
        <ele>777.1</ele>
        <time>2026-04-30T13:09:33.999Z</time>
      </trkpt>
      <trkpt lat="43.98975" lon="2.99603">
        <ele>777.2</ele>
        <time>2026-04-30T13:09:34.999Z</time>
      </trkpt>
      <trkpt lat="43.98975" lon="2.99603">
        <ele>777.3</ele>
        <time>2026-04-30T13:09:35.999Z</time>
      </trkpt>
      <trkpt lat="43.98975" lon="2.99602">
        <ele>777.3</ele>
        <time>2026-04-30T13:09:36.999Z</time>
      </trkpt>
      <trkpt lat="43.98975" lon="2.99601">
        <ele>777.2</ele>
        <time>2026-04-30T13:09:37.999Z</time>
      </trkpt>
      <trkpt lat="43.98975" lon="2.996">
        <ele>777.3</ele>
        <time>2026-04-30T13:09:38.999Z</time>
      </trkpt>
      <trkpt lat="43.98975" lon="2.99599">
        <ele>777.4</ele>
        <time>2026-04-30T13:09:39.999Z</time>
      </trkpt>
      <trkpt lat="43.98975" lon="2.99598">
        <ele>777.2</ele>
        <time>2026-04-30T13:09:40.999Z</time>
      </trkpt>
      <trkpt lat="43.98976" lon="2.99596">
        <ele>777.1</ele>
        <time>2026-04-30T13:09:41.999Z</time>
      </trkpt>
      <trkpt lat="43.98976" lon="2.99595">
        <ele>777.3</ele>
        <time>2026-04-30T13:09:42.999Z</time>
      </trkpt>
      <trkpt lat="43.98976" lon="2.99594">
        <ele>777.5</ele>
        <time>2026-04-30T13:09:43.999Z</time>
      </trkpt>
      <trkpt lat="43.98976" lon="2.99592">
        <ele>777.5</ele>
        <time>2026-04-30T13:09:44.999Z</time>
      </trkpt>
      <trkpt lat="43.98976" lon="2.99591">
        <ele>778</ele>
        <time>2026-04-30T13:09:45.999Z</time>
      </trkpt>
      <trkpt lat="43.98976" lon="2.99591">
        <ele>778.9</ele>
        <time>2026-04-30T13:09:46.999Z</time>
      </trkpt>
      <trkpt lat="43.98976" lon="2.9959">
        <ele>778.9</ele>
        <time>2026-04-30T13:09:47.999Z</time>
      </trkpt>
      <trkpt lat="43.98977" lon="2.99589">
        <ele>778.9</ele>
        <time>2026-04-30T13:09:48.999Z</time>
      </trkpt>
      <trkpt lat="43.98977" lon="2.99587">
        <ele>778.8</ele>
        <time>2026-04-30T13:09:49.999Z</time>
      </trkpt>
      <trkpt lat="43.98977" lon="2.99586">
        <ele>778.7</ele>
        <time>2026-04-30T13:09:50.999Z</time>
      </trkpt>
      <trkpt lat="43.98977" lon="2.99583">
        <ele>778.9</ele>
        <time>2026-04-30T13:09:51.999Z</time>
      </trkpt>
      <trkpt lat="43.98977" lon="2.99581">
        <ele>779</ele>
        <time>2026-04-30T13:09:52.999Z</time>
      </trkpt>
      <trkpt lat="43.98978" lon="2.99579">
        <ele>779.1</ele>
        <time>2026-04-30T13:09:53.999Z</time>
      </trkpt>
      <trkpt lat="43.98979" lon="2.99577">
        <ele>779.1</ele>
        <time>2026-04-30T13:09:54.999Z</time>
      </trkpt>
      <trkpt lat="43.9898" lon="2.99576">
        <ele>779.5</ele>
        <time>2026-04-30T13:09:55.999Z</time>
      </trkpt>
      <trkpt lat="43.9898" lon="2.99576">
        <ele>779.5</ele>
        <time>2026-04-30T13:09:56.999Z</time>
      </trkpt>
      <trkpt lat="43.9898" lon="2.99575">
        <ele>779.2</ele>
        <time>2026-04-30T13:09:57.999Z</time>
      </trkpt>
      <trkpt lat="43.98981" lon="2.99575">
        <ele>779</ele>
        <time>2026-04-30T13:09:58.999Z</time>
      </trkpt>
      <trkpt lat="43.98981" lon="2.99574">
        <ele>778.9</ele>
        <time>2026-04-30T13:09:59.999Z</time>
      </trkpt>
      <trkpt lat="43.98982" lon="2.99572">
        <ele>778.9</ele>
        <time>2026-04-30T13:10:00.999Z</time>
      </trkpt>
      <trkpt lat="43.98982" lon="2.99571">
        <ele>778.7</ele>
        <time>2026-04-30T13:10:01.999Z</time>
      </trkpt>
      <trkpt lat="43.98983" lon="2.9957">
        <ele>778.7</ele>
        <time>2026-04-30T13:10:02.999Z</time>
      </trkpt>
      <trkpt lat="43.98983" lon="2.9957">
        <ele>778.8</ele>
        <time>2026-04-30T13:10:03.999Z</time>
      </trkpt>
      <trkpt lat="43.98984" lon="2.99569">
        <ele>779</ele>
        <time>2026-04-30T13:10:04.999Z</time>
      </trkpt>
      <trkpt lat="43.98984" lon="2.99568">
        <ele>779.1</ele>
        <time>2026-04-30T13:10:05.999Z</time>
      </trkpt>
      <trkpt lat="43.98984" lon="2.99567">
        <ele>778.9</ele>
        <time>2026-04-30T13:10:06.999Z</time>
      </trkpt>
      <trkpt lat="43.98984" lon="2.99566">
        <ele>778.8</ele>
        <time>2026-04-30T13:10:07.999Z</time>
      </trkpt>
      <trkpt lat="43.98984" lon="2.99566">
        <ele>778.6</ele>
        <time>2026-04-30T13:10:08.999Z</time>
      </trkpt>
      <trkpt lat="43.98984" lon="2.99565">
        <ele>778.3</ele>
        <time>2026-04-30T13:10:09.999Z</time>
      </trkpt>
      <trkpt lat="43.98984" lon="2.99563">
        <ele>778.3</ele>
        <time>2026-04-30T13:10:10.999Z</time>
      </trkpt>
      <trkpt lat="43.98984" lon="2.99562">
        <ele>778.7</ele>
        <time>2026-04-30T13:10:11.999Z</time>
      </trkpt>
      <trkpt lat="43.98985" lon="2.99561">
        <ele>779.2</ele>
        <time>2026-04-30T13:10:12.999Z</time>
      </trkpt>
      <trkpt lat="43.98986" lon="2.9956">
        <ele>779.1</ele>
        <time>2026-04-30T13:10:13.999Z</time>
      </trkpt>
      <trkpt lat="43.98986" lon="2.99559">
        <ele>779</ele>
        <time>2026-04-30T13:10:14.999Z</time>
      </trkpt>
      <trkpt lat="43.98986" lon="2.99558">
        <ele>778.9</ele>
        <time>2026-04-30T13:10:15.999Z</time>
      </trkpt>
      <trkpt lat="43.98986" lon="2.99557">
        <ele>778.9</ele>
        <time>2026-04-30T13:10:16.999Z</time>
      </trkpt>
      <trkpt lat="43.98986" lon="2.99556">
        <ele>779.2</ele>
        <time>2026-04-30T13:10:17.999Z</time>
      </trkpt>
      <trkpt lat="43.98986" lon="2.99554">
        <ele>779.4</ele>
        <time>2026-04-30T13:10:18.999Z</time>
      </trkpt>
      <trkpt lat="43.98986" lon="2.99552">
        <ele>779.4</ele>
        <time>2026-04-30T13:10:19.999Z</time>
      </trkpt>
      <trkpt lat="43.98987" lon="2.99549">
        <ele>778.9</ele>
        <time>2026-04-30T13:10:20.999Z</time>
      </trkpt>
      <trkpt lat="43.98987" lon="2.99548">
        <ele>778.2</ele>
        <time>2026-04-30T13:10:21.999Z</time>
      </trkpt>
      <trkpt lat="43.98987" lon="2.99547">
        <ele>777.7</ele>
        <time>2026-04-30T13:10:22.999Z</time>
      </trkpt>
      <trkpt lat="43.98986" lon="2.99546">
        <ele>777.3</ele>
        <time>2026-04-30T13:10:23.999Z</time>
      </trkpt>
      <trkpt lat="43.98986" lon="2.99545">
        <ele>777.4</ele>
        <time>2026-04-30T13:10:24.999Z</time>
      </trkpt>
      <trkpt lat="43.98986" lon="2.99543">
        <ele>777.4</ele>
        <time>2026-04-30T13:10:25.999Z</time>
      </trkpt>
      <trkpt lat="43.98986" lon="2.99542">
        <ele>777.4</ele>
        <time>2026-04-30T13:10:26.999Z</time>
      </trkpt>
      <trkpt lat="43.98986" lon="2.99541">
        <ele>777.9</ele>
        <time>2026-04-30T13:10:27.999Z</time>
      </trkpt>
      <trkpt lat="43.98986" lon="2.99541">
        <ele>777.8</ele>
        <time>2026-04-30T13:10:28.999Z</time>
      </trkpt>
      <trkpt lat="43.98986" lon="2.99541">
        <ele>777.7</ele>
        <time>2026-04-30T13:10:29.999Z</time>
      </trkpt>
      <trkpt lat="43.98987" lon="2.9954">
        <ele>777.4</ele>
        <time>2026-04-30T13:10:30.999Z</time>
      </trkpt>
      <trkpt lat="43.98987" lon="2.99539">
        <ele>777.4</ele>
        <time>2026-04-30T13:10:31.999Z</time>
      </trkpt>
      <trkpt lat="43.98987" lon="2.99538">
        <ele>777.5</ele>
        <time>2026-04-30T13:10:32.999Z</time>
      </trkpt>
      <trkpt lat="43.98988" lon="2.99535">
        <ele>777.7</ele>
        <time>2026-04-30T13:10:33.999Z</time>
      </trkpt>
      <trkpt lat="43.98988" lon="2.99533">
        <ele>777.7</ele>
        <time>2026-04-30T13:10:34.999Z</time>
      </trkpt>
      <trkpt lat="43.98988" lon="2.99533">
        <ele>777.7</ele>
        <time>2026-04-30T13:10:35.999Z</time>
      </trkpt>
      <trkpt lat="43.98988" lon="2.99532">
        <ele>777.6</ele>
        <time>2026-04-30T13:10:36.999Z</time>
      </trkpt>
      <trkpt lat="43.98988" lon="2.99532">
        <ele>777.7</ele>
        <time>2026-04-30T13:10:37.999Z</time>
      </trkpt>
      <trkpt lat="43.98988" lon="2.99532">
        <ele>777.8</ele>
        <time>2026-04-30T13:10:38.999Z</time>
      </trkpt>
      <trkpt lat="43.98988" lon="2.99529">
        <ele>777.8</ele>
        <time>2026-04-30T13:10:39.999Z</time>
      </trkpt>
      <trkpt lat="43.98989" lon="2.99526">
        <ele>777.8</ele>
        <time>2026-04-30T13:10:40.999Z</time>
      </trkpt>
      <trkpt lat="43.9899" lon="2.99524">
        <ele>777.8</ele>
        <time>2026-04-30T13:10:41.999Z</time>
      </trkpt>
      <trkpt lat="43.9899" lon="2.99522">
        <ele>777.8</ele>
        <time>2026-04-30T13:10:42.999Z</time>
      </trkpt>
      <trkpt lat="43.9899" lon="2.99521">
        <ele>777.5</ele>
        <time>2026-04-30T13:10:43.999Z</time>
      </trkpt>
      <trkpt lat="43.98991" lon="2.99519">
        <ele>777.2</ele>
        <time>2026-04-30T13:10:44.999Z</time>
      </trkpt>
      <trkpt lat="43.98991" lon="2.99517">
        <ele>777.3</ele>
        <time>2026-04-30T13:10:45.999Z</time>
      </trkpt>
      <trkpt lat="43.98992" lon="2.99515">
        <ele>777.2</ele>
        <time>2026-04-30T13:10:46.999Z</time>
      </trkpt>
      <trkpt lat="43.98993" lon="2.99513">
        <ele>777.3</ele>
        <time>2026-04-30T13:10:47.999Z</time>
      </trkpt>
      <trkpt lat="43.98994" lon="2.9951">
        <ele>777.2</ele>
        <time>2026-04-30T13:10:48.999Z</time>
      </trkpt>
      <trkpt lat="43.98995" lon="2.99509">
        <ele>777.2</ele>
        <time>2026-04-30T13:10:49.999Z</time>
      </trkpt>
      <trkpt lat="43.98996" lon="2.99509">
        <ele>777.1</ele>
        <time>2026-04-30T13:10:50.999Z</time>
      </trkpt>
      <trkpt lat="43.98996" lon="2.99508">
        <ele>777</ele>
        <time>2026-04-30T13:10:51.999Z</time>
      </trkpt>
      <trkpt lat="43.98997" lon="2.99507">
        <ele>776.8</ele>
        <time>2026-04-30T13:10:52.999Z</time>
      </trkpt>
      <trkpt lat="43.98997" lon="2.99506">
        <ele>776.7</ele>
        <time>2026-04-30T13:10:53.999Z</time>
      </trkpt>
      <trkpt lat="43.98997" lon="2.99504">
        <ele>776.8</ele>
        <time>2026-04-30T13:10:54.999Z</time>
      </trkpt>
      <trkpt lat="43.98998" lon="2.99502">
        <ele>777.4</ele>
        <time>2026-04-30T13:10:55.999Z</time>
      </trkpt>
      <trkpt lat="43.98998" lon="2.995">
        <ele>777.2</ele>
        <time>2026-04-30T13:10:56.999Z</time>
      </trkpt>
      <trkpt lat="43.98999" lon="2.99498">
        <ele>776.2</ele>
        <time>2026-04-30T13:10:57.999Z</time>
      </trkpt>
      <trkpt lat="43.99" lon="2.99497">
        <ele>776</ele>
        <time>2026-04-30T13:10:58.999Z</time>
      </trkpt>
      <trkpt lat="43.99001" lon="2.99495">
        <ele>776.2</ele>
        <time>2026-04-30T13:10:59.999Z</time>
      </trkpt>
      <trkpt lat="43.99002" lon="2.99495">
        <ele>776.7</ele>
        <time>2026-04-30T13:11:00.999Z</time>
      </trkpt>
      <trkpt lat="43.99003" lon="2.99494">
        <ele>776.4</ele>
        <time>2026-04-30T13:11:01.999Z</time>
      </trkpt>
      <trkpt lat="43.99004" lon="2.99492">
        <ele>775.9</ele>
        <time>2026-04-30T13:11:02.999Z</time>
      </trkpt>
      <trkpt lat="43.99006" lon="2.99491">
        <ele>776</ele>
        <time>2026-04-30T13:11:03.999Z</time>
      </trkpt>
      <trkpt lat="43.99007" lon="2.9949">
        <ele>776</ele>
        <time>2026-04-30T13:11:04.999Z</time>
      </trkpt>
      <trkpt lat="43.99008" lon="2.99488">
        <ele>776</ele>
        <time>2026-04-30T13:11:05.999Z</time>
      </trkpt>
      <trkpt lat="43.99009" lon="2.99487">
        <ele>775.3</ele>
        <time>2026-04-30T13:11:06.999Z</time>
      </trkpt>
      <trkpt lat="43.9901" lon="2.99486">
        <ele>774.7</ele>
        <time>2026-04-30T13:11:07.999Z</time>
      </trkpt>
      <trkpt lat="43.99011" lon="2.99485">
        <ele>774.6</ele>
        <time>2026-04-30T13:11:08.999Z</time>
      </trkpt>
      <trkpt lat="43.99011" lon="2.99485">
        <ele>774.2</ele>
        <time>2026-04-30T13:11:09.999Z</time>
      </trkpt>
      <trkpt lat="43.99012" lon="2.99484">
        <ele>774</ele>
        <time>2026-04-30T13:11:10.999Z</time>
      </trkpt>
      <trkpt lat="43.99013" lon="2.99483">
        <ele>774.1</ele>
        <time>2026-04-30T13:11:11.999Z</time>
      </trkpt>
      <trkpt lat="43.99014" lon="2.99482">
        <ele>774.4</ele>
        <time>2026-04-30T13:11:12.999Z</time>
      </trkpt>
      <trkpt lat="43.99015" lon="2.99481">
        <ele>774.8</ele>
        <time>2026-04-30T13:11:13.999Z</time>
      </trkpt>
      <trkpt lat="43.99015" lon="2.99481">
        <ele>774.8</ele>
        <time>2026-04-30T13:11:14.999Z</time>
      </trkpt>
      <trkpt lat="43.99016" lon="2.9948">
        <ele>775.3</ele>
        <time>2026-04-30T13:11:15.999Z</time>
      </trkpt>
      <trkpt lat="43.99016" lon="2.99479">
        <ele>775.7</ele>
        <time>2026-04-30T13:11:16.999Z</time>
      </trkpt>
      <trkpt lat="43.99017" lon="2.99478">
        <ele>776.3</ele>
        <time>2026-04-30T13:11:17.999Z</time>
      </trkpt>
      <trkpt lat="43.99018" lon="2.99477">
        <ele>776.3</ele>
        <time>2026-04-30T13:11:18.999Z</time>
      </trkpt>
      <trkpt lat="43.99019" lon="2.99477">
        <ele>776</ele>
        <time>2026-04-30T13:11:19.999Z</time>
      </trkpt>
      <trkpt lat="43.99021" lon="2.99476">
        <ele>775.5</ele>
        <time>2026-04-30T13:11:20.999Z</time>
      </trkpt>
      <trkpt lat="43.99022" lon="2.99475">
        <ele>775.6</ele>
        <time>2026-04-30T13:11:21.999Z</time>
      </trkpt>
      <trkpt lat="43.99023" lon="2.99474">
        <ele>775.5</ele>
        <time>2026-04-30T13:11:22.999Z</time>
      </trkpt>
      <trkpt lat="43.99024" lon="2.99471">
        <ele>775.6</ele>
        <time>2026-04-30T13:11:23.999Z</time>
      </trkpt>
      <trkpt lat="43.99025" lon="2.9947">
        <ele>775.7</ele>
        <time>2026-04-30T13:11:24.999Z</time>
      </trkpt>
      <trkpt lat="43.99026" lon="2.99469">
        <ele>776.1</ele>
        <time>2026-04-30T13:11:25.999Z</time>
      </trkpt>
      <trkpt lat="43.99027" lon="2.99468">
        <ele>776.3</ele>
        <time>2026-04-30T13:11:26.999Z</time>
      </trkpt>
      <trkpt lat="43.99028" lon="2.99468">
        <ele>776.4</ele>
        <time>2026-04-30T13:11:27.999Z</time>
      </trkpt>
      <trkpt lat="43.99029" lon="2.99467">
        <ele>776.8</ele>
        <time>2026-04-30T13:11:28.999Z</time>
      </trkpt>
      <trkpt lat="43.9903" lon="2.99465">
        <ele>777.1</ele>
        <time>2026-04-30T13:11:29.999Z</time>
      </trkpt>
      <trkpt lat="43.99031" lon="2.99464">
        <ele>777.3</ele>
        <time>2026-04-30T13:11:30.999Z</time>
      </trkpt>
      <trkpt lat="43.99031" lon="2.99462">
        <ele>777.4</ele>
        <time>2026-04-30T13:11:31.999Z</time>
      </trkpt>
      <trkpt lat="43.99031" lon="2.99461">
        <ele>777.5</ele>
        <time>2026-04-30T13:11:32.999Z</time>
      </trkpt>
      <trkpt lat="43.99032" lon="2.99459">
        <ele>777.5</ele>
        <time>2026-04-30T13:11:33.999Z</time>
      </trkpt>
      <trkpt lat="43.99033" lon="2.99458">
        <ele>777.5</ele>
        <time>2026-04-30T13:11:34.999Z</time>
      </trkpt>
      <trkpt lat="43.99034" lon="2.99458">
        <ele>777.4</ele>
        <time>2026-04-30T13:11:35.999Z</time>
      </trkpt>
      <trkpt lat="43.99034" lon="2.99457">
        <ele>777.6</ele>
        <time>2026-04-30T13:11:36.999Z</time>
      </trkpt>
      <trkpt lat="43.99035" lon="2.99456">
        <ele>777.5</ele>
        <time>2026-04-30T13:11:37.999Z</time>
      </trkpt>
      <trkpt lat="43.99036" lon="2.99456">
        <ele>777.6</ele>
        <time>2026-04-30T13:11:39.000Z</time>
      </trkpt>
      <trkpt lat="43.99036" lon="2.99456">
        <ele>777.6</ele>
        <time>2026-04-30T13:11:40.000Z</time>
      </trkpt>
      <trkpt lat="43.99037" lon="2.99455">
        <ele>777.4</ele>
        <time>2026-04-30T13:11:41.000Z</time>
      </trkpt>
      <trkpt lat="43.99038" lon="2.99454">
        <ele>777.4</ele>
        <time>2026-04-30T13:11:42.000Z</time>
      </trkpt>
      <trkpt lat="43.99039" lon="2.99452">
        <ele>777.5</ele>
        <time>2026-04-30T13:11:43.000Z</time>
      </trkpt>
      <trkpt lat="43.99041" lon="2.9945">
        <ele>777.7</ele>
        <time>2026-04-30T13:11:44.000Z</time>
      </trkpt>
      <trkpt lat="43.99042" lon="2.99449">
        <ele>777.8</ele>
        <time>2026-04-30T13:11:45.000Z</time>
      </trkpt>
      <trkpt lat="43.99043" lon="2.99447">
        <ele>778</ele>
        <time>2026-04-30T13:11:46.000Z</time>
      </trkpt>
      <trkpt lat="43.99044" lon="2.99446">
        <ele>777.9</ele>
        <time>2026-04-30T13:11:47.000Z</time>
      </trkpt>
      <trkpt lat="43.99044" lon="2.99445">
        <ele>777.9</ele>
        <time>2026-04-30T13:11:48.000Z</time>
      </trkpt>
      <trkpt lat="43.99045" lon="2.99444">
        <ele>777.7</ele>
        <time>2026-04-30T13:11:49.000Z</time>
      </trkpt>
      <trkpt lat="43.99046" lon="2.99443">
        <ele>777.6</ele>
        <time>2026-04-30T13:11:50.000Z</time>
      </trkpt>
      <trkpt lat="43.99047" lon="2.99442">
        <ele>777.6</ele>
        <time>2026-04-30T13:11:51.000Z</time>
      </trkpt>
      <trkpt lat="43.99048" lon="2.99441">
        <ele>777.8</ele>
        <time>2026-04-30T13:11:52.000Z</time>
      </trkpt>
      <trkpt lat="43.99049" lon="2.9944">
        <ele>777.9</ele>
        <time>2026-04-30T13:11:53.000Z</time>
      </trkpt>
      <trkpt lat="43.99049" lon="2.9944">
        <ele>777.9</ele>
        <time>2026-04-30T13:11:54.000Z</time>
      </trkpt>
      <trkpt lat="43.99049" lon="2.99439">
        <ele>777.4</ele>
        <time>2026-04-30T13:11:55.000Z</time>
      </trkpt>
      <trkpt lat="43.9905" lon="2.99439">
        <ele>776.8</ele>
        <time>2026-04-30T13:11:56.000Z</time>
      </trkpt>
      <trkpt lat="43.99051" lon="2.99438">
        <ele>776.4</ele>
        <time>2026-04-30T13:11:57.000Z</time>
      </trkpt>
      <trkpt lat="43.99052" lon="2.99437">
        <ele>776</ele>
        <time>2026-04-30T13:11:58.000Z</time>
      </trkpt>
      <trkpt lat="43.99053" lon="2.99435">
        <ele>775.5</ele>
        <time>2026-04-30T13:11:59.000Z</time>
      </trkpt>
      <trkpt lat="43.99054" lon="2.99434">
        <ele>775.2</ele>
        <time>2026-04-30T13:12:00.000Z</time>
      </trkpt>
      <trkpt lat="43.99055" lon="2.99432">
        <ele>775.3</ele>
        <time>2026-04-30T13:12:01.000Z</time>
      </trkpt>
      <trkpt lat="43.99056" lon="2.99431">
        <ele>775.3</ele>
        <time>2026-04-30T13:12:02.000Z</time>
      </trkpt>
      <trkpt lat="43.99057" lon="2.9943">
        <ele>775.4</ele>
        <time>2026-04-30T13:12:03.000Z</time>
      </trkpt>
      <trkpt lat="43.99058" lon="2.99429">
        <ele>775.6</ele>
        <time>2026-04-30T13:12:04.000Z</time>
      </trkpt>
      <trkpt lat="43.99058" lon="2.99429">
        <ele>775.6</ele>
        <time>2026-04-30T13:12:05.000Z</time>
      </trkpt>
      <trkpt lat="43.99059" lon="2.99428">
        <ele>775.4</ele>
        <time>2026-04-30T13:12:06.000Z</time>
      </trkpt>
      <trkpt lat="43.9906" lon="2.99427">
        <ele>775.2</ele>
        <time>2026-04-30T13:12:07.000Z</time>
      </trkpt>
      <trkpt lat="43.99061" lon="2.99426">
        <ele>774.9</ele>
        <time>2026-04-30T13:12:08.000Z</time>
      </trkpt>
      <trkpt lat="43.99062" lon="2.99425">
        <ele>774.2</ele>
        <time>2026-04-30T13:12:09.000Z</time>
      </trkpt>
      <trkpt lat="43.99063" lon="2.99423">
        <ele>774.1</ele>
        <time>2026-04-30T13:12:10.000Z</time>
      </trkpt>
      <trkpt lat="43.99064" lon="2.99423">
        <ele>774.3</ele>
        <time>2026-04-30T13:12:11.000Z</time>
      </trkpt>
      <trkpt lat="43.99065" lon="2.99421">
        <ele>775.1</ele>
        <time>2026-04-30T13:12:12.000Z</time>
      </trkpt>
      <trkpt lat="43.99066" lon="2.9942">
        <ele>775.2</ele>
        <time>2026-04-30T13:12:13.000Z</time>
      </trkpt>
      <trkpt lat="43.99066" lon="2.99419">
        <ele>775.5</ele>
        <time>2026-04-30T13:12:14.000Z</time>
      </trkpt>
      <trkpt lat="43.99067" lon="2.99418">
        <ele>775.5</ele>
        <time>2026-04-30T13:12:15.000Z</time>
      </trkpt>
      <trkpt lat="43.99068" lon="2.99416">
        <ele>775.5</ele>
        <time>2026-04-30T13:12:16.000Z</time>
      </trkpt>
      <trkpt lat="43.99069" lon="2.99415">
        <ele>775.8</ele>
        <time>2026-04-30T13:12:17.000Z</time>
      </trkpt>
      <trkpt lat="43.9907" lon="2.99414">
        <ele>776.1</ele>
        <time>2026-04-30T13:12:18.000Z</time>
      </trkpt>
      <trkpt lat="43.9907" lon="2.99413">
        <ele>776.5</ele>
        <time>2026-04-30T13:12:19.000Z</time>
      </trkpt>
      <trkpt lat="43.99071" lon="2.99411">
        <ele>776.6</ele>
        <time>2026-04-30T13:12:20.000Z</time>
      </trkpt>
      <trkpt lat="43.99072" lon="2.9941">
        <ele>776.4</ele>
        <time>2026-04-30T13:12:21.000Z</time>
      </trkpt>
      <trkpt lat="43.99074" lon="2.99408">
        <ele>776.2</ele>
        <time>2026-04-30T13:12:22.000Z</time>
      </trkpt>
      <trkpt lat="43.99076" lon="2.99407">
        <ele>775.8</ele>
        <time>2026-04-30T13:12:23.000Z</time>
      </trkpt>
      <trkpt lat="43.99077" lon="2.99407">
        <ele>775.4</ele>
        <time>2026-04-30T13:12:24.000Z</time>
      </trkpt>
      <trkpt lat="43.99077" lon="2.99408">
        <ele>775.3</ele>
        <time>2026-04-30T13:12:25.000Z</time>
      </trkpt>
      <trkpt lat="43.99078" lon="2.99408">
        <ele>775.2</ele>
        <time>2026-04-30T13:12:26.000Z</time>
      </trkpt>
      <trkpt lat="43.99079" lon="2.99407">
        <ele>774.8</ele>
        <time>2026-04-30T13:12:27.000Z</time>
      </trkpt>
      <trkpt lat="43.99079" lon="2.99407">
        <ele>774.6</ele>
        <time>2026-04-30T13:12:28.000Z</time>
      </trkpt>
      <trkpt lat="43.9908" lon="2.99405">
        <ele>774.7</ele>
        <time>2026-04-30T13:12:29.000Z</time>
      </trkpt>
      <trkpt lat="43.99081" lon="2.99403">
        <ele>774.8</ele>
        <time>2026-04-30T13:12:30.000Z</time>
      </trkpt>
      <trkpt lat="43.99081" lon="2.99403">
        <ele>774.9</ele>
        <time>2026-04-30T13:12:31.000Z</time>
      </trkpt>
      <trkpt lat="43.99081" lon="2.99402">
        <ele>774.8</ele>
        <time>2026-04-30T13:12:32.000Z</time>
      </trkpt>
      <trkpt lat="43.99081" lon="2.99401">
        <ele>774.8</ele>
        <time>2026-04-30T13:12:33.000Z</time>
      </trkpt>
      <trkpt lat="43.9908" lon="2.99401">
        <ele>774.8</ele>
        <time>2026-04-30T13:12:34.000Z</time>
      </trkpt>
      <trkpt lat="43.9908" lon="2.994">
        <ele>774.8</ele>
        <time>2026-04-30T13:12:35.000Z</time>
      </trkpt>
      <trkpt lat="43.99078" lon="2.99399">
        <ele>774.9</ele>
        <time>2026-04-30T13:12:36.000Z</time>
      </trkpt>
      <trkpt lat="43.99078" lon="2.99399">
        <ele>774.8</ele>
        <time>2026-04-30T13:12:37.000Z</time>
      </trkpt>
      <trkpt lat="43.99078" lon="2.99399">
        <ele>774.7</ele>
        <time>2026-04-30T13:12:38.000Z</time>
      </trkpt>
      <trkpt lat="43.99078" lon="2.99399">
        <ele>774.8</ele>
        <time>2026-04-30T13:12:39.000Z</time>
      </trkpt>
      <trkpt lat="43.99078" lon="2.99399">
        <ele>774.7</ele>
        <time>2026-04-30T13:12:40.000Z</time>
      </trkpt>
      <trkpt lat="43.99078" lon="2.99399">
        <ele>774.8</ele>
        <time>2026-04-30T13:12:41.000Z</time>
      </trkpt>
      <trkpt lat="43.99078" lon="2.99399">
        <ele>774.6</ele>
        <time>2026-04-30T13:12:42.000Z</time>
      </trkpt>
      <trkpt lat="43.99078" lon="2.99399">
        <ele>774.6</ele>
        <time>2026-04-30T13:12:43.000Z</time>
      </trkpt>
      <trkpt lat="43.99077" lon="2.99399">
        <ele>774.6</ele>
        <time>2026-04-30T13:12:44.000Z</time>
      </trkpt>
      <trkpt lat="43.99077" lon="2.99399">
        <ele>774.3</ele>
        <time>2026-04-30T13:12:45.000Z</time>
      </trkpt>
      <trkpt lat="43.99077" lon="2.99399">
        <ele>774.1</ele>
        <time>2026-04-30T13:12:46.000Z</time>
      </trkpt>
      <trkpt lat="43.99077" lon="2.99399">
        <ele>773.8</ele>
        <time>2026-04-30T13:12:47.000Z</time>
      </trkpt>
      <trkpt lat="43.99077" lon="2.99399">
        <ele>773.6</ele>
        <time>2026-04-30T13:12:48.000Z</time>
      </trkpt>
      <trkpt lat="43.99077" lon="2.99399">
        <ele>773.3</ele>
        <time>2026-04-30T13:12:49.000Z</time>
      </trkpt>
      <trkpt lat="43.99077" lon="2.99399">
        <ele>773.1</ele>
        <time>2026-04-30T13:12:50.000Z</time>
      </trkpt>
      <trkpt lat="43.99077" lon="2.99399">
        <ele>773.2</ele>
        <time>2026-04-30T13:12:51.000Z</time>
      </trkpt>
      <trkpt lat="43.99077" lon="2.99399">
        <ele>773.4</ele>
        <time>2026-04-30T13:12:53.000Z</time>
      </trkpt>
      <trkpt lat="43.99077" lon="2.99399">
        <ele>773.2</ele>
        <time>2026-04-30T13:12:54.000Z</time>
      </trkpt>
      <trkpt lat="43.99076" lon="2.99399">
        <ele>773</ele>
        <time>2026-04-30T13:12:55.000Z</time>
      </trkpt>
      <trkpt lat="43.99076" lon="2.99399">
        <ele>772.8</ele>
        <time>2026-04-30T13:12:56.000Z</time>
      </trkpt>
      <trkpt lat="43.99076" lon="2.99399">
        <ele>772.7</ele>
        <time>2026-04-30T13:12:57.000Z</time>
      </trkpt>
      <trkpt lat="43.99076" lon="2.994">
        <ele>772.6</ele>
        <time>2026-04-30T13:12:58.000Z</time>
      </trkpt>
      <trkpt lat="43.99076" lon="2.994">
        <ele>772.6</ele>
        <time>2026-04-30T13:12:59.000Z</time>
      </trkpt>
      <trkpt lat="43.99076" lon="2.994">
        <ele>772.4</ele>
        <time>2026-04-30T13:13:00.000Z</time>
      </trkpt>
      <trkpt lat="43.99076" lon="2.994">
        <ele>772.2</ele>
        <time>2026-04-30T13:13:01.000Z</time>
      </trkpt>
      <trkpt lat="43.99076" lon="2.994">
        <ele>772.1</ele>
        <time>2026-04-30T13:13:02.000Z</time>
      </trkpt>
      <trkpt lat="43.99075" lon="2.994">
        <ele>771.8</ele>
        <time>2026-04-30T13:13:03.000Z</time>
      </trkpt>
      <trkpt lat="43.99075" lon="2.994">
        <ele>771.6</ele>
        <time>2026-04-30T13:13:04.000Z</time>
      </trkpt>
      <trkpt lat="43.99075" lon="2.994">
        <ele>771.3</ele>
        <time>2026-04-30T13:13:05.000Z</time>
      </trkpt>
      <trkpt lat="43.99075" lon="2.994">
        <ele>771</ele>
        <time>2026-04-30T13:13:06.000Z</time>
      </trkpt>
      <trkpt lat="43.99074" lon="2.994">
        <ele>770.6</ele>
        <time>2026-04-30T13:13:07.000Z</time>
      </trkpt>
      <trkpt lat="43.99072" lon="2.994">
        <ele>770.6</ele>
        <time>2026-04-30T13:13:08.000Z</time>
      </trkpt>
      <trkpt lat="43.9907" lon="2.99401">
        <ele>770.6</ele>
        <time>2026-04-30T13:13:09.000Z</time>
      </trkpt>
      <trkpt lat="43.99069" lon="2.99401">
        <ele>770.5</ele>
        <time>2026-04-30T13:13:10.000Z</time>
      </trkpt>
      <trkpt lat="43.99069" lon="2.99401">
        <ele>770.2</ele>
        <time>2026-04-30T13:13:11.000Z</time>
      </trkpt>
      <trkpt lat="43.99069" lon="2.99401">
        <ele>770.1</ele>
        <time>2026-04-30T13:13:12.000Z</time>
      </trkpt>
      <trkpt lat="43.99069" lon="2.99401">
        <ele>770.2</ele>
        <time>2026-04-30T13:13:13.000Z</time>
      </trkpt>
      <trkpt lat="43.99069" lon="2.99401">
        <ele>770.1</ele>
        <time>2026-04-30T13:13:14.000Z</time>
      </trkpt>
      <trkpt lat="43.99069" lon="2.99401">
        <ele>769.9</ele>
        <time>2026-04-30T13:13:15.000Z</time>
      </trkpt>
      <trkpt lat="43.99069" lon="2.99401">
        <ele>769.7</ele>
        <time>2026-04-30T13:13:16.000Z</time>
      </trkpt>
      <trkpt lat="43.99069" lon="2.99401">
        <ele>769.7</ele>
        <time>2026-04-30T13:13:17.000Z</time>
      </trkpt>
      <trkpt lat="43.99069" lon="2.99401">
        <ele>769.6</ele>
        <time>2026-04-30T13:13:18.000Z</time>
      </trkpt>
      <trkpt lat="43.99068" lon="2.99402">
        <ele>769.7</ele>
        <time>2026-04-30T13:13:19.000Z</time>
      </trkpt>
      <trkpt lat="43.99068" lon="2.99402">
        <ele>769.9</ele>
        <time>2026-04-30T13:13:20.000Z</time>
      </trkpt>
      <trkpt lat="43.99068" lon="2.99402">
        <ele>770</ele>
        <time>2026-04-30T13:13:21.000Z</time>
      </trkpt>
      <trkpt lat="43.99068" lon="2.99402">
        <ele>769.9</ele>
        <time>2026-04-30T13:13:22.000Z</time>
      </trkpt>
      <trkpt lat="43.99068" lon="2.99402">
        <ele>769.7</ele>
        <time>2026-04-30T13:13:23.000Z</time>
      </trkpt>
      <trkpt lat="43.99068" lon="2.99402">
        <ele>769.7</ele>
        <time>2026-04-30T13:13:24.000Z</time>
      </trkpt>
      <trkpt lat="43.99067" lon="2.99401">
        <ele>769.5</ele>
        <time>2026-04-30T13:13:25.000Z</time>
      </trkpt>
      <trkpt lat="43.99067" lon="2.99401">
        <ele>769.6</ele>
        <time>2026-04-30T13:13:26.000Z</time>
      </trkpt>
      <trkpt lat="43.99067" lon="2.99401">
        <ele>769.6</ele>
        <time>2026-04-30T13:13:27.000Z</time>
      </trkpt>
      <trkpt lat="43.99067" lon="2.994">
        <ele>769.4</ele>
        <time>2026-04-30T13:13:28.000Z</time>
      </trkpt>
      <trkpt lat="43.99067" lon="2.994">
        <ele>769.2</ele>
        <time>2026-04-30T13:13:29.000Z</time>
      </trkpt>
      <trkpt lat="43.99067" lon="2.994">
        <ele>769.3</ele>
        <time>2026-04-30T13:13:30.000Z</time>
      </trkpt>
      <trkpt lat="43.99067" lon="2.994">
        <ele>769.2</ele>
        <time>2026-04-30T13:13:31.000Z</time>
      </trkpt>
      <trkpt lat="43.99067" lon="2.99399">
        <ele>769</ele>
        <time>2026-04-30T13:13:32.000Z</time>
      </trkpt>
      <trkpt lat="43.99067" lon="2.99398">
        <ele>769</ele>
        <time>2026-04-30T13:13:33.000Z</time>
      </trkpt>
      <trkpt lat="43.99068" lon="2.99397">
        <ele>768.9</ele>
        <time>2026-04-30T13:13:34.000Z</time>
      </trkpt>
      <trkpt lat="43.99068" lon="2.99396">
        <ele>768.8</ele>
        <time>2026-04-30T13:13:35.000Z</time>
      </trkpt>
      <trkpt lat="43.99069" lon="2.99394">
        <ele>768.8</ele>
        <time>2026-04-30T13:13:36.000Z</time>
      </trkpt>
      <trkpt lat="43.99069" lon="2.99392">
        <ele>768.9</ele>
        <time>2026-04-30T13:13:37.000Z</time>
      </trkpt>
      <trkpt lat="43.99069" lon="2.99391">
        <ele>768.9</ele>
        <time>2026-04-30T13:13:38.000Z</time>
      </trkpt>
      <trkpt lat="43.99069" lon="2.99389">
        <ele>768.9</ele>
        <time>2026-04-30T13:13:39.000Z</time>
      </trkpt>
      <trkpt lat="43.99069" lon="2.99388">
        <ele>768.9</ele>
        <time>2026-04-30T13:13:40.000Z</time>
      </trkpt>
      <trkpt lat="43.9907" lon="2.99386">
        <ele>768.9</ele>
        <time>2026-04-30T13:13:41.000Z</time>
      </trkpt>
      <trkpt lat="43.9907" lon="2.99385">
        <ele>768.9</ele>
        <time>2026-04-30T13:13:42.000Z</time>
      </trkpt>
      <trkpt lat="43.99069" lon="2.99385">
        <ele>768.8</ele>
        <time>2026-04-30T13:13:43.000Z</time>
      </trkpt>
      <trkpt lat="43.99069" lon="2.99384">
        <ele>768.9</ele>
        <time>2026-04-30T13:13:44.000Z</time>
      </trkpt>
      <trkpt lat="43.99069" lon="2.99384">
        <ele>768.9</ele>
        <time>2026-04-30T13:13:45.000Z</time>
      </trkpt>
      <trkpt lat="43.99069" lon="2.99384">
        <ele>768.7</ele>
        <time>2026-04-30T13:13:46.000Z</time>
      </trkpt>
      <trkpt lat="43.99068" lon="2.99383">
        <ele>768.6</ele>
        <time>2026-04-30T13:13:47.000Z</time>
      </trkpt>
      <trkpt lat="43.99068" lon="2.99382">
        <ele>768.4</ele>
        <time>2026-04-30T13:13:48.000Z</time>
      </trkpt>
      <trkpt lat="43.99068" lon="2.99381">
        <ele>768.4</ele>
        <time>2026-04-30T13:13:49.000Z</time>
      </trkpt>
      <trkpt lat="43.99068" lon="2.9938">
        <ele>768.2</ele>
        <time>2026-04-30T13:13:50.000Z</time>
      </trkpt>
      <trkpt lat="43.99068" lon="2.9938">
        <ele>767.8</ele>
        <time>2026-04-30T13:13:51.000Z</time>
      </trkpt>
      <trkpt lat="43.99068" lon="2.99379">
        <ele>767.5</ele>
        <time>2026-04-30T13:13:52.000Z</time>
      </trkpt>
      <trkpt lat="43.99069" lon="2.99378">
        <ele>767.5</ele>
        <time>2026-04-30T13:13:53.000Z</time>
      </trkpt>
      <trkpt lat="43.99069" lon="2.99378">
        <ele>767.5</ele>
        <time>2026-04-30T13:13:54.000Z</time>
      </trkpt>
      <trkpt lat="43.99069" lon="2.99377">
        <ele>767.3</ele>
        <time>2026-04-30T13:13:55.000Z</time>
      </trkpt>
      <trkpt lat="43.99069" lon="2.99376">
        <ele>767.3</ele>
        <time>2026-04-30T13:13:56.000Z</time>
      </trkpt>
      <trkpt lat="43.99069" lon="2.99376">
        <ele>767.3</ele>
        <time>2026-04-30T13:13:57.000Z</time>
      </trkpt>
      <trkpt lat="43.99068" lon="2.99375">
        <ele>767.1</ele>
        <time>2026-04-30T13:13:58.000Z</time>
      </trkpt>
      <trkpt lat="43.99067" lon="2.99375">
        <ele>766.5</ele>
        <time>2026-04-30T13:13:59.000Z</time>
      </trkpt>
      <trkpt lat="43.99066" lon="2.99375">
        <ele>766.5</ele>
        <time>2026-04-30T13:14:00.000Z</time>
      </trkpt>
      <trkpt lat="43.99065" lon="2.99375">
        <ele>766.4</ele>
        <time>2026-04-30T13:14:01.000Z</time>
      </trkpt>
      <trkpt lat="43.99065" lon="2.99375">
        <ele>765.8</ele>
        <time>2026-04-30T13:14:02.000Z</time>
      </trkpt>
      <trkpt lat="43.99065" lon="2.99375">
        <ele>765.6</ele>
        <time>2026-04-30T13:14:03.000Z</time>
      </trkpt>
      <trkpt lat="43.99065" lon="2.99375">
        <ele>765.1</ele>
        <time>2026-04-30T13:14:04.000Z</time>
      </trkpt>
      <trkpt lat="43.99064" lon="2.99375">
        <ele>764.8</ele>
        <time>2026-04-30T13:14:05.000Z</time>
      </trkpt>
      <trkpt lat="43.99064" lon="2.99376">
        <ele>764.5</ele>
        <time>2026-04-30T13:14:06.000Z</time>
      </trkpt>
      <trkpt lat="43.99064" lon="2.99376">
        <ele>765.1</ele>
        <time>2026-04-30T13:14:07.000Z</time>
      </trkpt>
      <trkpt lat="43.99063" lon="2.99377">
        <ele>765.4</ele>
        <time>2026-04-30T13:14:08.000Z</time>
      </trkpt>
      <trkpt lat="43.99063" lon="2.99377">
        <ele>765.1</ele>
        <time>2026-04-30T13:14:09.000Z</time>
      </trkpt>
      <trkpt lat="43.99063" lon="2.99377">
        <ele>765.6</ele>
        <time>2026-04-30T13:14:10.000Z</time>
      </trkpt>
      <trkpt lat="43.99061" lon="2.99378">
        <ele>765.5</ele>
        <time>2026-04-30T13:14:11.000Z</time>
      </trkpt>
      <trkpt lat="43.9906" lon="2.99379">
        <ele>765.3</ele>
        <time>2026-04-30T13:14:12.000Z</time>
      </trkpt>
      <trkpt lat="43.99059" lon="2.9938">
        <ele>764.9</ele>
        <time>2026-04-30T13:14:13.000Z</time>
      </trkpt>
      <trkpt lat="43.99057" lon="2.99381">
        <ele>764.5</ele>
        <time>2026-04-30T13:14:14.000Z</time>
      </trkpt>
      <trkpt lat="43.99056" lon="2.99382">
        <ele>764.2</ele>
        <time>2026-04-30T13:14:15.000Z</time>
      </trkpt>
      <trkpt lat="43.99055" lon="2.99382">
        <ele>763.7</ele>
        <time>2026-04-30T13:14:16.000Z</time>
      </trkpt>
      <trkpt lat="43.99055" lon="2.99382">
        <ele>764</ele>
        <time>2026-04-30T13:14:17.000Z</time>
      </trkpt>
      <trkpt lat="43.99055" lon="2.99382">
        <ele>763.8</ele>
        <time>2026-04-30T13:14:18.000Z</time>
      </trkpt>
      <trkpt lat="43.99054" lon="2.99382">
        <ele>763.4</ele>
        <time>2026-04-30T13:14:19.000Z</time>
      </trkpt>
      <trkpt lat="43.99054" lon="2.99382">
        <ele>763.3</ele>
        <time>2026-04-30T13:14:20.000Z</time>
      </trkpt>
      <trkpt lat="43.99054" lon="2.99383">
        <ele>763.4</ele>
        <time>2026-04-30T13:14:21.000Z</time>
      </trkpt>
      <trkpt lat="43.99052" lon="2.99383">
        <ele>763.1</ele>
        <time>2026-04-30T13:14:22.000Z</time>
      </trkpt>
      <trkpt lat="43.99051" lon="2.99382">
        <ele>762.9</ele>
        <time>2026-04-30T13:14:23.000Z</time>
      </trkpt>
      <trkpt lat="43.99051" lon="2.99381">
        <ele>762.7</ele>
        <time>2026-04-30T13:14:24.000Z</time>
      </trkpt>
      <trkpt lat="43.99051" lon="2.99381">
        <ele>762.6</ele>
        <time>2026-04-30T13:14:25.000Z</time>
      </trkpt>
      <trkpt lat="43.99051" lon="2.99379">
        <ele>762.3</ele>
        <time>2026-04-30T13:14:26.000Z</time>
      </trkpt>
      <trkpt lat="43.99051" lon="2.99379">
        <ele>762.3</ele>
        <time>2026-04-30T13:14:27.000Z</time>
      </trkpt>
      <trkpt lat="43.99052" lon="2.99378">
        <ele>762</ele>
        <time>2026-04-30T13:14:28.000Z</time>
      </trkpt>
      <trkpt lat="43.99052" lon="2.99377">
        <ele>761.7</ele>
        <time>2026-04-30T13:14:29.000Z</time>
      </trkpt>
      <trkpt lat="43.99052" lon="2.99376">
        <ele>761.6</ele>
        <time>2026-04-30T13:14:30.000Z</time>
      </trkpt>
      <trkpt lat="43.99053" lon="2.99376">
        <ele>761.4</ele>
        <time>2026-04-30T13:14:31.000Z</time>
      </trkpt>
      <trkpt lat="43.99053" lon="2.99375">
        <ele>761.1</ele>
        <time>2026-04-30T13:14:32.000Z</time>
      </trkpt>
      <trkpt lat="43.99053" lon="2.99375">
        <ele>760.7</ele>
        <time>2026-04-30T13:14:33.000Z</time>
      </trkpt>
      <trkpt lat="43.99053" lon="2.99375">
        <ele>760.4</ele>
        <time>2026-04-30T13:14:34.000Z</time>
      </trkpt>
      <trkpt lat="43.99054" lon="2.99374">
        <ele>760.4</ele>
        <time>2026-04-30T13:14:35.000Z</time>
      </trkpt>
      <trkpt lat="43.99055" lon="2.99372">
        <ele>760.3</ele>
        <time>2026-04-30T13:14:36.000Z</time>
      </trkpt>
      <trkpt lat="43.99055" lon="2.99372">
        <ele>760</ele>
        <time>2026-04-30T13:14:37.000Z</time>
      </trkpt>
      <trkpt lat="43.99056" lon="2.99371">
        <ele>759.7</ele>
        <time>2026-04-30T13:14:38.000Z</time>
      </trkpt>
      <trkpt lat="43.99056" lon="2.9937">
        <ele>759.3</ele>
        <time>2026-04-30T13:14:39.000Z</time>
      </trkpt>
      <trkpt lat="43.99056" lon="2.9937">
        <ele>759.1</ele>
        <time>2026-04-30T13:14:40.000Z</time>
      </trkpt>
      <trkpt lat="43.99056" lon="2.99369">
        <ele>758.8</ele>
        <time>2026-04-30T13:14:41.000Z</time>
      </trkpt>
      <trkpt lat="43.99056" lon="2.99369">
        <ele>758.3</ele>
        <time>2026-04-30T13:14:42.000Z</time>
      </trkpt>
      <trkpt lat="43.99057" lon="2.99368">
        <ele>757.9</ele>
        <time>2026-04-30T13:14:43.000Z</time>
      </trkpt>
      <trkpt lat="43.99057" lon="2.99367">
        <ele>757.6</ele>
        <time>2026-04-30T13:14:44.000Z</time>
      </trkpt>
      <trkpt lat="43.99057" lon="2.99367">
        <ele>757.3</ele>
        <time>2026-04-30T13:14:45.000Z</time>
      </trkpt>
      <trkpt lat="43.99057" lon="2.99366">
        <ele>757.4</ele>
        <time>2026-04-30T13:14:46.000Z</time>
      </trkpt>
      <trkpt lat="43.99057" lon="2.99366">
        <ele>757.2</ele>
        <time>2026-04-30T13:14:47.000Z</time>
      </trkpt>
      <trkpt lat="43.99057" lon="2.99366">
        <ele>757.1</ele>
        <time>2026-04-30T13:14:48.000Z</time>
      </trkpt>
      <trkpt lat="43.99057" lon="2.99366">
        <ele>756.8</ele>
        <time>2026-04-30T13:14:49.000Z</time>
      </trkpt>
      <trkpt lat="43.99057" lon="2.99366">
        <ele>757</ele>
        <time>2026-04-30T13:14:50.000Z</time>
      </trkpt>
      <trkpt lat="43.99057" lon="2.99366">
        <ele>756.7</ele>
        <time>2026-04-30T13:14:51.000Z</time>
      </trkpt>
      <trkpt lat="43.99057" lon="2.99366">
        <ele>756.5</ele>
        <time>2026-04-30T13:14:52.000Z</time>
      </trkpt>
      <trkpt lat="43.99058" lon="2.99365">
        <ele>756.3</ele>
        <time>2026-04-30T13:14:53.000Z</time>
      </trkpt>
      <trkpt lat="43.99058" lon="2.99364">
        <ele>755.9</ele>
        <time>2026-04-30T13:14:54.000Z</time>
      </trkpt>
      <trkpt lat="43.99059" lon="2.99362">
        <ele>755.5</ele>
        <time>2026-04-30T13:14:55.000Z</time>
      </trkpt>
      <trkpt lat="43.9906" lon="2.99361">
        <ele>755.1</ele>
        <time>2026-04-30T13:14:56.000Z</time>
      </trkpt>
      <trkpt lat="43.99061" lon="2.9936">
        <ele>754.8</ele>
        <time>2026-04-30T13:14:57.000Z</time>
      </trkpt>
      <trkpt lat="43.99061" lon="2.99359">
        <ele>754.5</ele>
        <time>2026-04-30T13:14:58.000Z</time>
      </trkpt>
      <trkpt lat="43.9906" lon="2.99358">
        <ele>753.9</ele>
        <time>2026-04-30T13:14:59.000Z</time>
      </trkpt>
      <trkpt lat="43.99061" lon="2.99356">
        <ele>753.5</ele>
        <time>2026-04-30T13:15:00.000Z</time>
      </trkpt>
      <trkpt lat="43.99061" lon="2.99355">
        <ele>753.2</ele>
        <time>2026-04-30T13:15:01.000Z</time>
      </trkpt>
      <trkpt lat="43.99062" lon="2.99353">
        <ele>752.7</ele>
        <time>2026-04-30T13:15:02.000Z</time>
      </trkpt>
      <trkpt lat="43.99062" lon="2.99353">
        <ele>752.3</ele>
        <time>2026-04-30T13:15:03.000Z</time>
      </trkpt>
      <trkpt lat="43.99063" lon="2.99353">
        <ele>751.8</ele>
        <time>2026-04-30T13:15:04.000Z</time>
      </trkpt>
      <trkpt lat="43.99063" lon="2.99352">
        <ele>752.3</ele>
        <time>2026-04-30T13:15:05.000Z</time>
      </trkpt>
      <trkpt lat="43.99063" lon="2.99352">
        <ele>752</ele>
        <time>2026-04-30T13:15:06.000Z</time>
      </trkpt>
      <trkpt lat="43.99064" lon="2.99352">
        <ele>751.6</ele>
        <time>2026-04-30T13:15:07.000Z</time>
      </trkpt>
      <trkpt lat="43.99065" lon="2.99351">
        <ele>751.3</ele>
        <time>2026-04-30T13:15:08.000Z</time>
      </trkpt>
      <trkpt lat="43.99066" lon="2.9935">
        <ele>751.1</ele>
        <time>2026-04-30T13:15:09.000Z</time>
      </trkpt>
      <trkpt lat="43.99066" lon="2.99349">
        <ele>750.9</ele>
        <time>2026-04-30T13:15:10.000Z</time>
      </trkpt>
      <trkpt lat="43.99066" lon="2.99349">
        <ele>750.6</ele>
        <time>2026-04-30T13:15:11.000Z</time>
      </trkpt>
      <trkpt lat="43.99066" lon="2.99349">
        <ele>750.5</ele>
        <time>2026-04-30T13:15:12.000Z</time>
      </trkpt>
      <trkpt lat="43.99067" lon="2.99347">
        <ele>750.1</ele>
        <time>2026-04-30T13:15:13.000Z</time>
      </trkpt>
      <trkpt lat="43.99068" lon="2.99345">
        <ele>749.7</ele>
        <time>2026-04-30T13:15:14.000Z</time>
      </trkpt>
      <trkpt lat="43.99068" lon="2.99343">
        <ele>749.5</ele>
        <time>2026-04-30T13:15:15.000Z</time>
      </trkpt>
      <trkpt lat="43.99069" lon="2.99341">
        <ele>749.4</ele>
        <time>2026-04-30T13:15:16.000Z</time>
      </trkpt>
      <trkpt lat="43.9907" lon="2.9934">
        <ele>749.4</ele>
        <time>2026-04-30T13:15:17.000Z</time>
      </trkpt>
      <trkpt lat="43.9907" lon="2.99339">
        <ele>749.1</ele>
        <time>2026-04-30T13:15:18.000Z</time>
      </trkpt>
      <trkpt lat="43.9907" lon="2.99338">
        <ele>749.2</ele>
        <time>2026-04-30T13:15:19.000Z</time>
      </trkpt>
      <trkpt lat="43.9907" lon="2.99337">
        <ele>749.2</ele>
        <time>2026-04-30T13:15:20.000Z</time>
      </trkpt>
      <trkpt lat="43.99071" lon="2.99335">
        <ele>749.4</ele>
        <time>2026-04-30T13:15:21.000Z</time>
      </trkpt>
      <trkpt lat="43.99072" lon="2.99334">
        <ele>749.4</ele>
        <time>2026-04-30T13:15:22.000Z</time>
      </trkpt>
      <trkpt lat="43.99072" lon="2.99334">
        <ele>749.3</ele>
        <time>2026-04-30T13:15:23.000Z</time>
      </trkpt>
      <trkpt lat="43.99072" lon="2.99333">
        <ele>749.3</ele>
        <time>2026-04-30T13:15:24.000Z</time>
      </trkpt>
      <trkpt lat="43.99073" lon="2.99331">
        <ele>749.3</ele>
        <time>2026-04-30T13:15:25.000Z</time>
      </trkpt>
      <trkpt lat="43.99072" lon="2.9933">
        <ele>749.2</ele>
        <time>2026-04-30T13:15:26.000Z</time>
      </trkpt>
      <trkpt lat="43.99072" lon="2.99328">
        <ele>749</ele>
        <time>2026-04-30T13:15:27.000Z</time>
      </trkpt>
      <trkpt lat="43.99073" lon="2.99327">
        <ele>748.5</ele>
        <time>2026-04-30T13:15:28.000Z</time>
      </trkpt>
      <trkpt lat="43.99074" lon="2.99326">
        <ele>748.2</ele>
        <time>2026-04-30T13:15:29.000Z</time>
      </trkpt>
      <trkpt lat="43.99074" lon="2.99325">
        <ele>747.9</ele>
        <time>2026-04-30T13:15:30.000Z</time>
      </trkpt>
      <trkpt lat="43.99075" lon="2.99324">
        <ele>747.6</ele>
        <time>2026-04-30T13:15:31.000Z</time>
      </trkpt>
      <trkpt lat="43.99075" lon="2.99322">
        <ele>747.5</ele>
        <time>2026-04-30T13:15:32.000Z</time>
      </trkpt>
      <trkpt lat="43.99074" lon="2.99321">
        <ele>747.5</ele>
        <time>2026-04-30T13:15:33.000Z</time>
      </trkpt>
      <trkpt lat="43.99074" lon="2.9932">
        <ele>747.3</ele>
        <time>2026-04-30T13:15:34.000Z</time>
      </trkpt>
      <trkpt lat="43.99074" lon="2.9932">
        <ele>747.3</ele>
        <time>2026-04-30T13:15:35.000Z</time>
      </trkpt>
      <trkpt lat="43.99074" lon="2.99319">
        <ele>747.1</ele>
        <time>2026-04-30T13:15:36.000Z</time>
      </trkpt>
      <trkpt lat="43.99075" lon="2.99317">
        <ele>746.7</ele>
        <time>2026-04-30T13:15:37.000Z</time>
      </trkpt>
      <trkpt lat="43.99075" lon="2.99315">
        <ele>746.3</ele>
        <time>2026-04-30T13:15:38.000Z</time>
      </trkpt>
      <trkpt lat="43.99075" lon="2.99314">
        <ele>746</ele>
        <time>2026-04-30T13:15:39.000Z</time>
      </trkpt>
      <trkpt lat="43.99075" lon="2.99313">
        <ele>746</ele>
        <time>2026-04-30T13:15:40.000Z</time>
      </trkpt>
      <trkpt lat="43.99075" lon="2.99312">
        <ele>746.2</ele>
        <time>2026-04-30T13:15:41.000Z</time>
      </trkpt>
      <trkpt lat="43.99075" lon="2.99312">
        <ele>745.8</ele>
        <time>2026-04-30T13:15:42.000Z</time>
      </trkpt>
      <trkpt lat="43.99075" lon="2.99311">
        <ele>745.2</ele>
        <time>2026-04-30T13:15:43.000Z</time>
      </trkpt>
      <trkpt lat="43.99075" lon="2.9931">
        <ele>744.8</ele>
        <time>2026-04-30T13:15:44.000Z</time>
      </trkpt>
      <trkpt lat="43.99075" lon="2.9931">
        <ele>744.8</ele>
        <time>2026-04-30T13:15:45.000Z</time>
      </trkpt>
      <trkpt lat="43.99075" lon="2.99308">
        <ele>744.4</ele>
        <time>2026-04-30T13:15:46.000Z</time>
      </trkpt>
      <trkpt lat="43.99074" lon="2.99306">
        <ele>744.2</ele>
        <time>2026-04-30T13:15:47.000Z</time>
      </trkpt>
      <trkpt lat="43.99074" lon="2.99306">
        <ele>744.1</ele>
        <time>2026-04-30T13:15:48.000Z</time>
      </trkpt>
      <trkpt lat="43.99074" lon="2.99305">
        <ele>744</ele>
        <time>2026-04-30T13:15:49.000Z</time>
      </trkpt>
      <trkpt lat="43.99074" lon="2.99304">
        <ele>743.6</ele>
        <time>2026-04-30T13:15:50.000Z</time>
      </trkpt>
      <trkpt lat="43.99075" lon="2.99303">
        <ele>743.2</ele>
        <time>2026-04-30T13:15:51.000Z</time>
      </trkpt>
      <trkpt lat="43.99075" lon="2.99302">
        <ele>742.8</ele>
        <time>2026-04-30T13:15:52.000Z</time>
      </trkpt>
      <trkpt lat="43.99076" lon="2.993">
        <ele>743</ele>
        <time>2026-04-30T13:15:53.000Z</time>
      </trkpt>
      <trkpt lat="43.99076" lon="2.99299">
        <ele>743</ele>
        <time>2026-04-30T13:15:54.000Z</time>
      </trkpt>
      <trkpt lat="43.99077" lon="2.99297">
        <ele>743</ele>
        <time>2026-04-30T13:15:55.000Z</time>
      </trkpt>
      <trkpt lat="43.99077" lon="2.99297">
        <ele>742.9</ele>
        <time>2026-04-30T13:15:56.000Z</time>
      </trkpt>
      <trkpt lat="43.99077" lon="2.99297">
        <ele>743.1</ele>
        <time>2026-04-30T13:15:57.000Z</time>
      </trkpt>
      <trkpt lat="43.99078" lon="2.99296">
        <ele>743</ele>
        <time>2026-04-30T13:15:58.000Z</time>
      </trkpt>
      <trkpt lat="43.99079" lon="2.99295">
        <ele>743</ele>
        <time>2026-04-30T13:15:59.000Z</time>
      </trkpt>
      <trkpt lat="43.99079" lon="2.99294">
        <ele>742.8</ele>
        <time>2026-04-30T13:16:00.000Z</time>
      </trkpt>
      <trkpt lat="43.99079" lon="2.99294">
        <ele>742.2</ele>
        <time>2026-04-30T13:16:01.000Z</time>
      </trkpt>
      <trkpt lat="43.99079" lon="2.99293">
        <ele>741.9</ele>
        <time>2026-04-30T13:16:02.000Z</time>
      </trkpt>
      <trkpt lat="43.99079" lon="2.99292">
        <ele>742.2</ele>
        <time>2026-04-30T13:16:03.000Z</time>
      </trkpt>
      <trkpt lat="43.99079" lon="2.99292">
        <ele>741.8</ele>
        <time>2026-04-30T13:16:04.000Z</time>
      </trkpt>
      <trkpt lat="43.99079" lon="2.99292">
        <ele>741.3</ele>
        <time>2026-04-30T13:16:05.000Z</time>
      </trkpt>
      <trkpt lat="43.99079" lon="2.99292">
        <ele>741.2</ele>
        <time>2026-04-30T13:16:06.000Z</time>
      </trkpt>
      <trkpt lat="43.99079" lon="2.99292">
        <ele>741.1</ele>
        <time>2026-04-30T13:16:07.000Z</time>
      </trkpt>
      <trkpt lat="43.99079" lon="2.99292">
        <ele>740.7</ele>
        <time>2026-04-30T13:16:08.000Z</time>
      </trkpt>
      <trkpt lat="43.99079" lon="2.99292">
        <ele>740.5</ele>
        <time>2026-04-30T13:16:09.000Z</time>
      </trkpt>
      <trkpt lat="43.99079" lon="2.99292">
        <ele>740.5</ele>
        <time>2026-04-30T13:16:10.000Z</time>
      </trkpt>
      <trkpt lat="43.99079" lon="2.99292">
        <ele>740.3</ele>
        <time>2026-04-30T13:16:11.000Z</time>
      </trkpt>
      <trkpt lat="43.9908" lon="2.99292">
        <ele>740.1</ele>
        <time>2026-04-30T13:16:12.000Z</time>
      </trkpt>
      <trkpt lat="43.99079" lon="2.99291">
        <ele>739.9</ele>
        <time>2026-04-30T13:16:13.000Z</time>
      </trkpt>
      <trkpt lat="43.99079" lon="2.99291">
        <ele>739.6</ele>
        <time>2026-04-30T13:16:14.000Z</time>
      </trkpt>
      <trkpt lat="43.99079" lon="2.99291">
        <ele>739.3</ele>
        <time>2026-04-30T13:16:15.000Z</time>
      </trkpt>
      <trkpt lat="43.99079" lon="2.99291">
        <ele>739.2</ele>
        <time>2026-04-30T13:16:16.000Z</time>
      </trkpt>
      <trkpt lat="43.99079" lon="2.99291">
        <ele>738.8</ele>
        <time>2026-04-30T13:16:17.000Z</time>
      </trkpt>
      <trkpt lat="43.99079" lon="2.99291">
        <ele>738.5</ele>
        <time>2026-04-30T13:16:18.000Z</time>
      </trkpt>
      <trkpt lat="43.99079" lon="2.99291">
        <ele>738.5</ele>
        <time>2026-04-30T13:16:19.000Z</time>
      </trkpt>
      <trkpt lat="43.99079" lon="2.99291">
        <ele>738.5</ele>
        <time>2026-04-30T13:16:20.000Z</time>
      </trkpt>
      <trkpt lat="43.99079" lon="2.9929">
        <ele>738.4</ele>
        <time>2026-04-30T13:16:21.000Z</time>
      </trkpt>
      <trkpt lat="43.99079" lon="2.9929">
        <ele>738.3</ele>
        <time>2026-04-30T13:16:22.000Z</time>
      </trkpt>
      <trkpt lat="43.99079" lon="2.9929">
        <ele>738.2</ele>
        <time>2026-04-30T13:16:23.000Z</time>
      </trkpt>
      <trkpt lat="43.99079" lon="2.9929">
        <ele>737.9</ele>
        <time>2026-04-30T13:16:24.000Z</time>
      </trkpt>
      <trkpt lat="43.99079" lon="2.9929">
        <ele>737.6</ele>
        <time>2026-04-30T13:16:25.000Z</time>
      </trkpt>
      <trkpt lat="43.99079" lon="2.99289">
        <ele>737.4</ele>
        <time>2026-04-30T13:16:26.000Z</time>
      </trkpt>
      <trkpt lat="43.99079" lon="2.99289">
        <ele>736.9</ele>
        <time>2026-04-30T13:16:27.000Z</time>
      </trkpt>
      <trkpt lat="43.99079" lon="2.99288">
        <ele>736.6</ele>
        <time>2026-04-30T13:16:28.000Z</time>
      </trkpt>
      <trkpt lat="43.99079" lon="2.99288">
        <ele>736.8</ele>
        <time>2026-04-30T13:16:29.000Z</time>
      </trkpt>
      <trkpt lat="43.99079" lon="2.99288">
        <ele>736.6</ele>
        <time>2026-04-30T13:16:30.000Z</time>
      </trkpt>
      <trkpt lat="43.99079" lon="2.99288">
        <ele>736.2</ele>
        <time>2026-04-30T13:16:31.000Z</time>
      </trkpt>
      <trkpt lat="43.99079" lon="2.99287">
        <ele>735.8</ele>
        <time>2026-04-30T13:16:32.000Z</time>
      </trkpt>
      <trkpt lat="43.99079" lon="2.99287">
        <ele>735.4</ele>
        <time>2026-04-30T13:16:33.000Z</time>
      </trkpt>
      <trkpt lat="43.99079" lon="2.99287">
        <ele>734.9</ele>
        <time>2026-04-30T13:16:34.000Z</time>
      </trkpt>
      <trkpt lat="43.99079" lon="2.99286">
        <ele>734.7</ele>
        <time>2026-04-30T13:16:35.000Z</time>
      </trkpt>
      <trkpt lat="43.99079" lon="2.99286">
        <ele>734.6</ele>
        <time>2026-04-30T13:16:36.000Z</time>
      </trkpt>
      <trkpt lat="43.99079" lon="2.99286">
        <ele>734.6</ele>
        <time>2026-04-30T13:16:37.000Z</time>
      </trkpt>
      <trkpt lat="43.99079" lon="2.99285">
        <ele>734.3</ele>
        <time>2026-04-30T13:16:38.000Z</time>
      </trkpt>
      <trkpt lat="43.99079" lon="2.99285">
        <ele>734.2</ele>
        <time>2026-04-30T13:16:39.000Z</time>
      </trkpt>
      <trkpt lat="43.99079" lon="2.99284">
        <ele>734</ele>
        <time>2026-04-30T13:16:40.000Z</time>
      </trkpt>
      <trkpt lat="43.99079" lon="2.99283">
        <ele>733.9</ele>
        <time>2026-04-30T13:16:41.000Z</time>
      </trkpt>
      <trkpt lat="43.99079" lon="2.99283">
        <ele>733.7</ele>
        <time>2026-04-30T13:16:42.000Z</time>
      </trkpt>
      <trkpt lat="43.99079" lon="2.99282">
        <ele>733.7</ele>
        <time>2026-04-30T13:16:43.000Z</time>
      </trkpt>
      <trkpt lat="43.99079" lon="2.99281">
        <ele>733.8</ele>
        <time>2026-04-30T13:16:44.000Z</time>
      </trkpt>
      <trkpt lat="43.99079" lon="2.99281">
        <ele>733.9</ele>
        <time>2026-04-30T13:16:45.000Z</time>
      </trkpt>
      <trkpt lat="43.99079" lon="2.99281">
        <ele>733.6</ele>
        <time>2026-04-30T13:16:46.000Z</time>
      </trkpt>
      <trkpt lat="43.99079" lon="2.99277">
        <ele>733.2</ele>
        <time>2026-04-30T13:16:47.000Z</time>
      </trkpt>
      <trkpt lat="43.99078" lon="2.99273">
        <ele>733</ele>
        <time>2026-04-30T13:16:48.000Z</time>
      </trkpt>
      <trkpt lat="43.99077" lon="2.9927">
        <ele>732.5</ele>
        <time>2026-04-30T13:16:49.000Z</time>
      </trkpt>
      <trkpt lat="43.99077" lon="2.99269">
        <ele>732.6</ele>
        <time>2026-04-30T13:16:50.000Z</time>
      </trkpt>
      <trkpt lat="43.99076" lon="2.99268">
        <ele>732.4</ele>
        <time>2026-04-30T13:16:51.000Z</time>
      </trkpt>
      <trkpt lat="43.99076" lon="2.99268">
        <ele>732.2</ele>
        <time>2026-04-30T13:16:52.000Z</time>
      </trkpt>
      <trkpt lat="43.99076" lon="2.99268">
        <ele>732.4</ele>
        <time>2026-04-30T13:16:53.000Z</time>
      </trkpt>
      <trkpt lat="43.99076" lon="2.99267">
        <ele>732.4</ele>
        <time>2026-04-30T13:16:54.000Z</time>
      </trkpt>
      <trkpt lat="43.99075" lon="2.99266">
        <ele>732.3</ele>
        <time>2026-04-30T13:16:55.000Z</time>
      </trkpt>
      <trkpt lat="43.99074" lon="2.99264">
        <ele>732.3</ele>
        <time>2026-04-30T13:16:56.000Z</time>
      </trkpt>
      <trkpt lat="43.99073" lon="2.99262">
        <ele>732.4</ele>
        <time>2026-04-30T13:16:57.000Z</time>
      </trkpt>
      <trkpt lat="43.99073" lon="2.99261">
        <ele>732.3</ele>
        <time>2026-04-30T13:16:58.000Z</time>
      </trkpt>
      <trkpt lat="43.99073" lon="2.99259">
        <ele>732.6</ele>
        <time>2026-04-30T13:16:59.000Z</time>
      </trkpt>
      <trkpt lat="43.99073" lon="2.99257">
        <ele>732.8</ele>
        <time>2026-04-30T13:17:00.000Z</time>
      </trkpt>
      <trkpt lat="43.99072" lon="2.99256">
        <ele>732.8</ele>
        <time>2026-04-30T13:17:01.000Z</time>
      </trkpt>
      <trkpt lat="43.99072" lon="2.99255">
        <ele>732.8</ele>
        <time>2026-04-30T13:17:02.000Z</time>
      </trkpt>
      <trkpt lat="43.99072" lon="2.99255">
        <ele>732.3</ele>
        <time>2026-04-30T13:17:03.000Z</time>
      </trkpt>
      <trkpt lat="43.99072" lon="2.99255">
        <ele>732.2</ele>
        <time>2026-04-30T13:17:04.000Z</time>
      </trkpt>
      <trkpt lat="43.99072" lon="2.99255">
        <ele>732.5</ele>
        <time>2026-04-30T13:17:05.000Z</time>
      </trkpt>
      <trkpt lat="43.99072" lon="2.99255">
        <ele>732.9</ele>
        <time>2026-04-30T13:17:06.000Z</time>
      </trkpt>
      <trkpt lat="43.99072" lon="2.99255">
        <ele>733</ele>
        <time>2026-04-30T13:17:07.000Z</time>
      </trkpt>
      <trkpt lat="43.99072" lon="2.99255">
        <ele>733</ele>
        <time>2026-04-30T13:17:08.000Z</time>
      </trkpt>
      <trkpt lat="43.99072" lon="2.99254">
        <ele>733</ele>
        <time>2026-04-30T13:17:09.000Z</time>
      </trkpt>
      <trkpt lat="43.99072" lon="2.99254">
        <ele>733</ele>
        <time>2026-04-30T13:17:10.000Z</time>
      </trkpt>
      <trkpt lat="43.99072" lon="2.99253">
        <ele>733.1</ele>
        <time>2026-04-30T13:17:11.000Z</time>
      </trkpt>
      <trkpt lat="43.99072" lon="2.99251">
        <ele>733.3</ele>
        <time>2026-04-30T13:17:12.000Z</time>
      </trkpt>
      <trkpt lat="43.99072" lon="2.9925">
        <ele>733.4</ele>
        <time>2026-04-30T13:17:13.000Z</time>
      </trkpt>
      <trkpt lat="43.99073" lon="2.99248">
        <ele>733.3</ele>
        <time>2026-04-30T13:17:14.000Z</time>
      </trkpt>
      <trkpt lat="43.99075" lon="2.99246">
        <ele>733.4</ele>
        <time>2026-04-30T13:17:15.000Z</time>
      </trkpt>
      <trkpt lat="43.99076" lon="2.99245">
        <ele>733.2</ele>
        <time>2026-04-30T13:17:16.000Z</time>
      </trkpt>
      <trkpt lat="43.99077" lon="2.99244">
        <ele>732.9</ele>
        <time>2026-04-30T13:17:17.000Z</time>
      </trkpt>
      <trkpt lat="43.99076" lon="2.99242">
        <ele>732.7</ele>
        <time>2026-04-30T13:17:18.000Z</time>
      </trkpt>
      <trkpt lat="43.99076" lon="2.99241">
        <ele>732.9</ele>
        <time>2026-04-30T13:17:19.000Z</time>
      </trkpt>
      <trkpt lat="43.99076" lon="2.9924">
        <ele>733.2</ele>
        <time>2026-04-30T13:17:20.000Z</time>
      </trkpt>
      <trkpt lat="43.99076" lon="2.99239">
        <ele>733.2</ele>
        <time>2026-04-30T13:17:21.000Z</time>
      </trkpt>
      <trkpt lat="43.99077" lon="2.99239">
        <ele>733.1</ele>
        <time>2026-04-30T13:17:22.000Z</time>
      </trkpt>
      <trkpt lat="43.99077" lon="2.99238">
        <ele>732.9</ele>
        <time>2026-04-30T13:17:23.000Z</time>
      </trkpt>
      <trkpt lat="43.99078" lon="2.99237">
        <ele>732.9</ele>
        <time>2026-04-30T13:17:24.000Z</time>
      </trkpt>
      <trkpt lat="43.99078" lon="2.99237">
        <ele>733.2</ele>
        <time>2026-04-30T13:17:25.000Z</time>
      </trkpt>
      <trkpt lat="43.99078" lon="2.99236">
        <ele>733.4</ele>
        <time>2026-04-30T13:17:26.000Z</time>
      </trkpt>
      <trkpt lat="43.99078" lon="2.99235">
        <ele>733.4</ele>
        <time>2026-04-30T13:17:27.000Z</time>
      </trkpt>
      <trkpt lat="43.99078" lon="2.99235">
        <ele>733.6</ele>
        <time>2026-04-30T13:17:28.000Z</time>
      </trkpt>
      <trkpt lat="43.99078" lon="2.99234">
        <ele>733.7</ele>
        <time>2026-04-30T13:17:29.000Z</time>
      </trkpt>
      <trkpt lat="43.99078" lon="2.99233">
        <ele>733.8</ele>
        <time>2026-04-30T13:17:30.000Z</time>
      </trkpt>
      <trkpt lat="43.99077" lon="2.99232">
        <ele>734.4</ele>
        <time>2026-04-30T13:17:31.000Z</time>
      </trkpt>
      <trkpt lat="43.99077" lon="2.99231">
        <ele>734.2</ele>
        <time>2026-04-30T13:17:32.000Z</time>
      </trkpt>
      <trkpt lat="43.99077" lon="2.9923">
        <ele>734.1</ele>
        <time>2026-04-30T13:17:33.000Z</time>
      </trkpt>
      <trkpt lat="43.99076" lon="2.9923">
        <ele>733.7</ele>
        <time>2026-04-30T13:17:34.000Z</time>
      </trkpt>
      <trkpt lat="43.99076" lon="2.99229">
        <ele>733.2</ele>
        <time>2026-04-30T13:17:35.000Z</time>
      </trkpt>
      <trkpt lat="43.99076" lon="2.99228">
        <ele>732.7</ele>
        <time>2026-04-30T13:17:36.000Z</time>
      </trkpt>
      <trkpt lat="43.99075" lon="2.99227">
        <ele>732.5</ele>
        <time>2026-04-30T13:17:37.000Z</time>
      </trkpt>
      <trkpt lat="43.99075" lon="2.99225">
        <ele>732</ele>
        <time>2026-04-30T13:17:38.000Z</time>
      </trkpt>
      <trkpt lat="43.99074" lon="2.99224">
        <ele>731.7</ele>
        <time>2026-04-30T13:17:39.000Z</time>
      </trkpt>
      <trkpt lat="43.99074" lon="2.99223">
        <ele>731.3</ele>
        <time>2026-04-30T13:17:40.000Z</time>
      </trkpt>
      <trkpt lat="43.99073" lon="2.99223">
        <ele>730.7</ele>
        <time>2026-04-30T13:17:41.000Z</time>
      </trkpt>
      <trkpt lat="43.99073" lon="2.99223">
        <ele>730.6</ele>
        <time>2026-04-30T13:17:42.000Z</time>
      </trkpt>
      <trkpt lat="43.99072" lon="2.99222">
        <ele>730.5</ele>
        <time>2026-04-30T13:17:43.000Z</time>
      </trkpt>
      <trkpt lat="43.99072" lon="2.99221">
        <ele>730.7</ele>
        <time>2026-04-30T13:17:44.000Z</time>
      </trkpt>
      <trkpt lat="43.99072" lon="2.9922">
        <ele>730.6</ele>
        <time>2026-04-30T13:17:45.000Z</time>
      </trkpt>
      <trkpt lat="43.99072" lon="2.99219">
        <ele>729.9</ele>
        <time>2026-04-30T13:17:46.000Z</time>
      </trkpt>
      <trkpt lat="43.99072" lon="2.99218">
        <ele>729.3</ele>
        <time>2026-04-30T13:17:47.000Z</time>
      </trkpt>
      <trkpt lat="43.99071" lon="2.99217">
        <ele>728.9</ele>
        <time>2026-04-30T13:17:48.000Z</time>
      </trkpt>
      <trkpt lat="43.99071" lon="2.99216">
        <ele>728.7</ele>
        <time>2026-04-30T13:17:49.000Z</time>
      </trkpt>
      <trkpt lat="43.99071" lon="2.99215">
        <ele>728.5</ele>
        <time>2026-04-30T13:17:50.000Z</time>
      </trkpt>
      <trkpt lat="43.99071" lon="2.99215">
        <ele>728.4</ele>
        <time>2026-04-30T13:17:51.000Z</time>
      </trkpt>
      <trkpt lat="43.99071" lon="2.99213">
        <ele>728.5</ele>
        <time>2026-04-30T13:17:52.000Z</time>
      </trkpt>
      <trkpt lat="43.99071" lon="2.99211">
        <ele>728.7</ele>
        <time>2026-04-30T13:17:53.000Z</time>
      </trkpt>
      <trkpt lat="43.99071" lon="2.99209">
        <ele>728.6</ele>
        <time>2026-04-30T13:17:54.000Z</time>
      </trkpt>
      <trkpt lat="43.99071" lon="2.99208">
        <ele>728.3</ele>
        <time>2026-04-30T13:17:55.000Z</time>
      </trkpt>
      <trkpt lat="43.99071" lon="2.99208">
        <ele>728.3</ele>
        <time>2026-04-30T13:17:56.000Z</time>
      </trkpt>
      <trkpt lat="43.99071" lon="2.99206">
        <ele>728</ele>
        <time>2026-04-30T13:17:57.000Z</time>
      </trkpt>
      <trkpt lat="43.9907" lon="2.99204">
        <ele>728.4</ele>
        <time>2026-04-30T13:17:58.000Z</time>
      </trkpt>
      <trkpt lat="43.9907" lon="2.99203">
        <ele>728.9</ele>
        <time>2026-04-30T13:17:59.000Z</time>
      </trkpt>
      <trkpt lat="43.9907" lon="2.99201">
        <ele>729.1</ele>
        <time>2026-04-30T13:18:00.000Z</time>
      </trkpt>
      <trkpt lat="43.9907" lon="2.992">
        <ele>729.1</ele>
        <time>2026-04-30T13:18:01.000Z</time>
      </trkpt>
      <trkpt lat="43.99069" lon="2.99198">
        <ele>728.8</ele>
        <time>2026-04-30T13:18:02.000Z</time>
      </trkpt>
      <trkpt lat="43.99069" lon="2.99196">
        <ele>728.3</ele>
        <time>2026-04-30T13:18:03.000Z</time>
      </trkpt>
      <trkpt lat="43.99068" lon="2.99196">
        <ele>728.3</ele>
        <time>2026-04-30T13:18:04.000Z</time>
      </trkpt>
      <trkpt lat="43.99068" lon="2.99194">
        <ele>728.6</ele>
        <time>2026-04-30T13:18:05.000Z</time>
      </trkpt>
      <trkpt lat="43.99068" lon="2.99193">
        <ele>728.9</ele>
        <time>2026-04-30T13:18:06.000Z</time>
      </trkpt>
      <trkpt lat="43.99068" lon="2.99191">
        <ele>728.8</ele>
        <time>2026-04-30T13:18:07.000Z</time>
      </trkpt>
      <trkpt lat="43.99068" lon="2.9919">
        <ele>728.7</ele>
        <time>2026-04-30T13:18:08.000Z</time>
      </trkpt>
      <trkpt lat="43.99068" lon="2.9919">
        <ele>728.7</ele>
        <time>2026-04-30T13:18:09.000Z</time>
      </trkpt>
      <trkpt lat="43.99067" lon="2.99189">
        <ele>728.2</ele>
        <time>2026-04-30T13:18:10.000Z</time>
      </trkpt>
      <trkpt lat="43.99067" lon="2.99189">
        <ele>727.8</ele>
        <time>2026-04-30T13:18:11.000Z</time>
      </trkpt>
      <trkpt lat="43.99067" lon="2.99189">
        <ele>727.5</ele>
        <time>2026-04-30T13:18:12.000Z</time>
      </trkpt>
      <trkpt lat="43.99066" lon="2.99188">
        <ele>727</ele>
        <time>2026-04-30T13:18:13.000Z</time>
      </trkpt>
      <trkpt lat="43.99065" lon="2.99187">
        <ele>727.1</ele>
        <time>2026-04-30T13:18:14.000Z</time>
      </trkpt>
      <trkpt lat="43.99064" lon="2.99185">
        <ele>726.9</ele>
        <time>2026-04-30T13:18:15.000Z</time>
      </trkpt>
      <trkpt lat="43.99064" lon="2.99184">
        <ele>727</ele>
        <time>2026-04-30T13:18:16.000Z</time>
      </trkpt>
      <trkpt lat="43.99064" lon="2.99182">
        <ele>726.8</ele>
        <time>2026-04-30T13:18:17.000Z</time>
      </trkpt>
      <trkpt lat="43.99063" lon="2.9918">
        <ele>726.4</ele>
        <time>2026-04-30T13:18:18.000Z</time>
      </trkpt>
      <trkpt lat="43.99063" lon="2.99179">
        <ele>726.3</ele>
        <time>2026-04-30T13:18:19.000Z</time>
      </trkpt>
      <trkpt lat="43.99062" lon="2.99178">
        <ele>726.1</ele>
        <time>2026-04-30T13:18:20.000Z</time>
      </trkpt>
      <trkpt lat="43.99063" lon="2.99177">
        <ele>726.2</ele>
        <time>2026-04-30T13:18:21.000Z</time>
      </trkpt>
      <trkpt lat="43.99063" lon="2.99176">
        <ele>725.7</ele>
        <time>2026-04-30T13:18:22.000Z</time>
      </trkpt>
      <trkpt lat="43.99063" lon="2.99176">
        <ele>725.7</ele>
        <time>2026-04-30T13:18:23.000Z</time>
      </trkpt>
      <trkpt lat="43.99063" lon="2.99176">
        <ele>725.5</ele>
        <time>2026-04-30T13:18:24.000Z</time>
      </trkpt>
      <trkpt lat="43.99063" lon="2.99174">
        <ele>725.3</ele>
        <time>2026-04-30T13:18:25.000Z</time>
      </trkpt>
      <trkpt lat="43.99063" lon="2.99173">
        <ele>725.3</ele>
        <time>2026-04-30T13:18:26.000Z</time>
      </trkpt>
      <trkpt lat="43.99062" lon="2.99172">
        <ele>725.1</ele>
        <time>2026-04-30T13:18:27.000Z</time>
      </trkpt>
      <trkpt lat="43.99063" lon="2.99171">
        <ele>724.8</ele>
        <time>2026-04-30T13:18:28.000Z</time>
      </trkpt>
      <trkpt lat="43.99063" lon="2.9917">
        <ele>724.8</ele>
        <time>2026-04-30T13:18:29.000Z</time>
      </trkpt>
      <trkpt lat="43.99063" lon="2.9917">
        <ele>724.9</ele>
        <time>2026-04-30T13:18:30.000Z</time>
      </trkpt>
      <trkpt lat="43.99063" lon="2.99169">
        <ele>724.7</ele>
        <time>2026-04-30T13:18:31.000Z</time>
      </trkpt>
      <trkpt lat="43.99062" lon="2.99168">
        <ele>724.5</ele>
        <time>2026-04-30T13:18:32.000Z</time>
      </trkpt>
      <trkpt lat="43.99062" lon="2.99166">
        <ele>724.4</ele>
        <time>2026-04-30T13:18:33.000Z</time>
      </trkpt>
      <trkpt lat="43.99061" lon="2.99164">
        <ele>724.3</ele>
        <time>2026-04-30T13:18:34.000Z</time>
      </trkpt>
      <trkpt lat="43.99061" lon="2.99163">
        <ele>724.1</ele>
        <time>2026-04-30T13:18:35.000Z</time>
      </trkpt>
      <trkpt lat="43.9906" lon="2.99162">
        <ele>724.1</ele>
        <time>2026-04-30T13:18:36.000Z</time>
      </trkpt>
      <trkpt lat="43.9906" lon="2.99161">
        <ele>724.3</ele>
        <time>2026-04-30T13:18:37.000Z</time>
      </trkpt>
      <trkpt lat="43.99061" lon="2.9916">
        <ele>724.2</ele>
        <time>2026-04-30T13:18:38.000Z</time>
      </trkpt>
      <trkpt lat="43.99061" lon="2.99159">
        <ele>724.2</ele>
        <time>2026-04-30T13:18:39.000Z</time>
      </trkpt>
      <trkpt lat="43.99061" lon="2.99158">
        <ele>724.1</ele>
        <time>2026-04-30T13:18:40.000Z</time>
      </trkpt>
      <trkpt lat="43.99061" lon="2.99157">
        <ele>724.1</ele>
        <time>2026-04-30T13:18:41.000Z</time>
      </trkpt>
      <trkpt lat="43.99061" lon="2.99157">
        <ele>724.4</ele>
        <time>2026-04-30T13:18:42.000Z</time>
      </trkpt>
      <trkpt lat="43.99061" lon="2.99155">
        <ele>724.4</ele>
        <time>2026-04-30T13:18:43.000Z</time>
      </trkpt>
      <trkpt lat="43.99061" lon="2.99154">
        <ele>724.3</ele>
        <time>2026-04-30T13:18:44.000Z</time>
      </trkpt>
      <trkpt lat="43.9906" lon="2.99153">
        <ele>724.3</ele>
        <time>2026-04-30T13:18:45.000Z</time>
      </trkpt>
      <trkpt lat="43.9906" lon="2.99152">
        <ele>724.3</ele>
        <time>2026-04-30T13:18:46.000Z</time>
      </trkpt>
      <trkpt lat="43.9906" lon="2.99151">
        <ele>724.6</ele>
        <time>2026-04-30T13:18:47.000Z</time>
      </trkpt>
      <trkpt lat="43.9906" lon="2.9915">
        <ele>724.9</ele>
        <time>2026-04-30T13:18:48.000Z</time>
      </trkpt>
      <trkpt lat="43.99059" lon="2.99149">
        <ele>725</ele>
        <time>2026-04-30T13:18:49.000Z</time>
      </trkpt>
      <trkpt lat="43.99059" lon="2.99148">
        <ele>725.5</ele>
        <time>2026-04-30T13:18:50.000Z</time>
      </trkpt>
      <trkpt lat="43.99058" lon="2.99146">
        <ele>725.6</ele>
        <time>2026-04-30T13:18:51.000Z</time>
      </trkpt>
      <trkpt lat="43.99058" lon="2.99145">
        <ele>725.5</ele>
        <time>2026-04-30T13:18:52.000Z</time>
      </trkpt>
      <trkpt lat="43.99058" lon="2.99144">
        <ele>725.4</ele>
        <time>2026-04-30T13:18:53.000Z</time>
      </trkpt>
      <trkpt lat="43.99058" lon="2.99142">
        <ele>725.4</ele>
        <time>2026-04-30T13:18:54.000Z</time>
      </trkpt>
      <trkpt lat="43.99058" lon="2.99142">
        <ele>725.4</ele>
        <time>2026-04-30T13:18:55.000Z</time>
      </trkpt>
      <trkpt lat="43.99058" lon="2.99141">
        <ele>725.1</ele>
        <time>2026-04-30T13:18:56.000Z</time>
      </trkpt>
      <trkpt lat="43.99058" lon="2.99139">
        <ele>724.8</ele>
        <time>2026-04-30T13:18:57.000Z</time>
      </trkpt>
      <trkpt lat="43.99059" lon="2.99138">
        <ele>724.4</ele>
        <time>2026-04-30T13:18:58.000Z</time>
      </trkpt>
      <trkpt lat="43.99059" lon="2.99137">
        <ele>724.1</ele>
        <time>2026-04-30T13:18:59.000Z</time>
      </trkpt>
      <trkpt lat="43.99059" lon="2.99135">
        <ele>724.3</ele>
        <time>2026-04-30T13:19:00.000Z</time>
      </trkpt>
      <trkpt lat="43.99059" lon="2.99134">
        <ele>724.5</ele>
        <time>2026-04-30T13:19:01.000Z</time>
      </trkpt>
      <trkpt lat="43.99058" lon="2.99133">
        <ele>724.3</ele>
        <time>2026-04-30T13:19:02.000Z</time>
      </trkpt>
      <trkpt lat="43.99058" lon="2.99131">
        <ele>724.3</ele>
        <time>2026-04-30T13:19:03.000Z</time>
      </trkpt>
      <trkpt lat="43.99058" lon="2.9913">
        <ele>724.1</ele>
        <time>2026-04-30T13:19:04.000Z</time>
      </trkpt>
      <trkpt lat="43.99058" lon="2.99128">
        <ele>723.9</ele>
        <time>2026-04-30T13:19:05.000Z</time>
      </trkpt>
      <trkpt lat="43.99057" lon="2.99127">
        <ele>723.8</ele>
        <time>2026-04-30T13:19:06.000Z</time>
      </trkpt>
      <trkpt lat="43.99057" lon="2.99126">
        <ele>724.5</ele>
        <time>2026-04-30T13:19:07.000Z</time>
      </trkpt>
      <trkpt lat="43.99057" lon="2.99124">
        <ele>724.8</ele>
        <time>2026-04-30T13:19:08.000Z</time>
      </trkpt>
      <trkpt lat="43.99056" lon="2.99123">
        <ele>725.2</ele>
        <time>2026-04-30T13:19:09.000Z</time>
      </trkpt>
      <trkpt lat="43.99055" lon="2.99121">
        <ele>725.7</ele>
        <time>2026-04-30T13:19:10.000Z</time>
      </trkpt>
      <trkpt lat="43.99054" lon="2.9912">
        <ele>725.8</ele>
        <time>2026-04-30T13:19:11.000Z</time>
      </trkpt>
      <trkpt lat="43.99054" lon="2.99119">
        <ele>726</ele>
        <time>2026-04-30T13:19:12.000Z</time>
      </trkpt>
      <trkpt lat="43.99053" lon="2.99118">
        <ele>726.1</ele>
        <time>2026-04-30T13:19:13.000Z</time>
      </trkpt>
      <trkpt lat="43.99052" lon="2.99117">
        <ele>726.1</ele>
        <time>2026-04-30T13:19:14.000Z</time>
      </trkpt>
      <trkpt lat="43.99052" lon="2.99116">
        <ele>726.8</ele>
        <time>2026-04-30T13:19:15.000Z</time>
      </trkpt>
      <trkpt lat="43.99052" lon="2.99115">
        <ele>727.1</ele>
        <time>2026-04-30T13:19:16.000Z</time>
      </trkpt>
      <trkpt lat="43.99051" lon="2.99115">
        <ele>727.5</ele>
        <time>2026-04-30T13:19:17.000Z</time>
      </trkpt>
      <trkpt lat="43.99051" lon="2.99115">
        <ele>727.3</ele>
        <time>2026-04-30T13:19:18.000Z</time>
      </trkpt>
      <trkpt lat="43.99051" lon="2.99114">
        <ele>727</ele>
        <time>2026-04-30T13:19:19.000Z</time>
      </trkpt>
      <trkpt lat="43.9905" lon="2.99112">
        <ele>726.5</ele>
        <time>2026-04-30T13:19:20.000Z</time>
      </trkpt>
      <trkpt lat="43.99049" lon="2.99111">
        <ele>726.5</ele>
        <time>2026-04-30T13:19:21.000Z</time>
      </trkpt>
      <trkpt lat="43.99048" lon="2.9911">
        <ele>726.3</ele>
        <time>2026-04-30T13:19:22.000Z</time>
      </trkpt>
      <trkpt lat="43.99048" lon="2.9911">
        <ele>726.2</ele>
        <time>2026-04-30T13:19:23.000Z</time>
      </trkpt>
      <trkpt lat="43.99047" lon="2.99109">
        <ele>727.1</ele>
        <time>2026-04-30T13:19:24.000Z</time>
      </trkpt>
      <trkpt lat="43.99046" lon="2.99108">
        <ele>727.7</ele>
        <time>2026-04-30T13:19:25.000Z</time>
      </trkpt>
      <trkpt lat="43.99046" lon="2.99106">
        <ele>727.9</ele>
        <time>2026-04-30T13:19:26.000Z</time>
      </trkpt>
      <trkpt lat="43.99045" lon="2.99105">
        <ele>727.9</ele>
        <time>2026-04-30T13:19:27.000Z</time>
      </trkpt>
      <trkpt lat="43.99045" lon="2.99104">
        <ele>727.8</ele>
        <time>2026-04-30T13:19:28.000Z</time>
      </trkpt>
      <trkpt lat="43.99044" lon="2.99104">
        <ele>728</ele>
        <time>2026-04-30T13:19:29.000Z</time>
      </trkpt>
      <trkpt lat="43.99044" lon="2.99103">
        <ele>728.9</ele>
        <time>2026-04-30T13:19:30.000Z</time>
      </trkpt>
      <trkpt lat="43.99043" lon="2.99102">
        <ele>729.5</ele>
        <time>2026-04-30T13:19:31.000Z</time>
      </trkpt>
      <trkpt lat="43.99043" lon="2.991">
        <ele>729.6</ele>
        <time>2026-04-30T13:19:32.000Z</time>
      </trkpt>
      <trkpt lat="43.99043" lon="2.99099">
        <ele>730</ele>
        <time>2026-04-30T13:19:33.000Z</time>
      </trkpt>
      <trkpt lat="43.99043" lon="2.99098">
        <ele>730.5</ele>
        <time>2026-04-30T13:19:34.000Z</time>
      </trkpt>
      <trkpt lat="43.99042" lon="2.99098">
        <ele>731</ele>
        <time>2026-04-30T13:19:35.000Z</time>
      </trkpt>
      <trkpt lat="43.99043" lon="2.99097">
        <ele>731</ele>
        <time>2026-04-30T13:19:36.000Z</time>
      </trkpt>
      <trkpt lat="43.99043" lon="2.99097">
        <ele>730.5</ele>
        <time>2026-04-30T13:19:37.000Z</time>
      </trkpt>
      <trkpt lat="43.99043" lon="2.99099">
        <ele>730.4</ele>
        <time>2026-04-30T13:19:38.000Z</time>
      </trkpt>
      <trkpt lat="43.99042" lon="2.99099">
        <ele>730.7</ele>
        <time>2026-04-30T13:19:39.000Z</time>
      </trkpt>
      <trkpt lat="43.99042" lon="2.99098">
        <ele>730.9</ele>
        <time>2026-04-30T13:19:40.000Z</time>
      </trkpt>
      <trkpt lat="43.99041" lon="2.99096">
        <ele>730.7</ele>
        <time>2026-04-30T13:19:41.000Z</time>
      </trkpt>
      <trkpt lat="43.9904" lon="2.99095">
        <ele>730.4</ele>
        <time>2026-04-30T13:19:42.000Z</time>
      </trkpt>
      <trkpt lat="43.9904" lon="2.99093">
        <ele>730.7</ele>
        <time>2026-04-30T13:19:43.000Z</time>
      </trkpt>
      <trkpt lat="43.99038" lon="2.99094">
        <ele>731.3</ele>
        <time>2026-04-30T13:19:44.000Z</time>
      </trkpt>
      <trkpt lat="43.99038" lon="2.99093">
        <ele>731.4</ele>
        <time>2026-04-30T13:19:45.000Z</time>
      </trkpt>
      <trkpt lat="43.99037" lon="2.99092">
        <ele>731.5</ele>
        <time>2026-04-30T13:19:46.000Z</time>
      </trkpt>
      <trkpt lat="43.99036" lon="2.99091">
        <ele>731.6</ele>
        <time>2026-04-30T13:19:47.000Z</time>
      </trkpt>
      <trkpt lat="43.99035" lon="2.9909">
        <ele>731.4</ele>
        <time>2026-04-30T13:19:48.000Z</time>
      </trkpt>
      <trkpt lat="43.99035" lon="2.99089">
        <ele>731</ele>
        <time>2026-04-30T13:19:49.000Z</time>
      </trkpt>
      <trkpt lat="43.99034" lon="2.99087">
        <ele>730.8</ele>
        <time>2026-04-30T13:19:50.000Z</time>
      </trkpt>
      <trkpt lat="43.99034" lon="2.99086">
        <ele>731.3</ele>
        <time>2026-04-30T13:19:51.000Z</time>
      </trkpt>
      <trkpt lat="43.99034" lon="2.99085">
        <ele>731.8</ele>
        <time>2026-04-30T13:19:52.000Z</time>
      </trkpt>
      <trkpt lat="43.99034" lon="2.99085">
        <ele>731.8</ele>
        <time>2026-04-30T13:19:53.000Z</time>
      </trkpt>
      <trkpt lat="43.99034" lon="2.99085">
        <ele>731.7</ele>
        <time>2026-04-30T13:19:54.000Z</time>
      </trkpt>
      <trkpt lat="43.99034" lon="2.99085">
        <ele>730.6</ele>
        <time>2026-04-30T13:19:55.000Z</time>
      </trkpt>
      <trkpt lat="43.99034" lon="2.99084">
        <ele>730.9</ele>
        <time>2026-04-30T13:19:56.000Z</time>
      </trkpt>
      <trkpt lat="43.99034" lon="2.99083">
        <ele>731.1</ele>
        <time>2026-04-30T13:19:57.000Z</time>
      </trkpt>
      <trkpt lat="43.99033" lon="2.99082">
        <ele>731.1</ele>
        <time>2026-04-30T13:19:58.000Z</time>
      </trkpt>
      <trkpt lat="43.99033" lon="2.99081">
        <ele>731.1</ele>
        <time>2026-04-30T13:19:59.000Z</time>
      </trkpt>
      <trkpt lat="43.99033" lon="2.9908">
        <ele>731.1</ele>
        <time>2026-04-30T13:20:00.000Z</time>
      </trkpt>
      <trkpt lat="43.99032" lon="2.9908">
        <ele>731.2</ele>
        <time>2026-04-30T13:20:01.000Z</time>
      </trkpt>
      <trkpt lat="43.99032" lon="2.99081">
        <ele>731.5</ele>
        <time>2026-04-30T13:20:02.000Z</time>
      </trkpt>
      <trkpt lat="43.99032" lon="2.99081">
        <ele>731</ele>
        <time>2026-04-30T13:20:03.000Z</time>
      </trkpt>
      <trkpt lat="43.99032" lon="2.99081">
        <ele>731.2</ele>
        <time>2026-04-30T13:20:04.000Z</time>
      </trkpt>
      <trkpt lat="43.99032" lon="2.99081">
        <ele>731.2</ele>
        <time>2026-04-30T13:20:05.000Z</time>
      </trkpt>
      <trkpt lat="43.99032" lon="2.99081">
        <ele>731.3</ele>
        <time>2026-04-30T13:20:06.000Z</time>
      </trkpt>
      <trkpt lat="43.99031" lon="2.99081">
        <ele>731.7</ele>
        <time>2026-04-30T13:20:07.000Z</time>
      </trkpt>
      <trkpt lat="43.9903" lon="2.9908">
        <ele>731.8</ele>
        <time>2026-04-30T13:20:08.000Z</time>
      </trkpt>
      <trkpt lat="43.9903" lon="2.99077">
        <ele>732</ele>
        <time>2026-04-30T13:20:09.000Z</time>
      </trkpt>
      <trkpt lat="43.9903" lon="2.99074">
        <ele>731.8</ele>
        <time>2026-04-30T13:20:10.000Z</time>
      </trkpt>
      <trkpt lat="43.9903" lon="2.99072">
        <ele>731.6</ele>
        <time>2026-04-30T13:20:11.000Z</time>
      </trkpt>
      <trkpt lat="43.99029" lon="2.9907">
        <ele>731.5</ele>
        <time>2026-04-30T13:20:12.000Z</time>
      </trkpt>
      <trkpt lat="43.9903" lon="2.99067">
        <ele>731.2</ele>
        <time>2026-04-30T13:20:13.000Z</time>
      </trkpt>
      <trkpt lat="43.99029" lon="2.99065">
        <ele>731.4</ele>
        <time>2026-04-30T13:20:14.000Z</time>
      </trkpt>
      <trkpt lat="43.99028" lon="2.99063">
        <ele>731.3</ele>
        <time>2026-04-30T13:20:15.000Z</time>
      </trkpt>
      <trkpt lat="43.99028" lon="2.99062">
        <ele>730.9</ele>
        <time>2026-04-30T13:20:16.000Z</time>
      </trkpt>
      <trkpt lat="43.99027" lon="2.9906">
        <ele>730.7</ele>
        <time>2026-04-30T13:20:17.000Z</time>
      </trkpt>
      <trkpt lat="43.99027" lon="2.99059">
        <ele>730.6</ele>
        <time>2026-04-30T13:20:18.000Z</time>
      </trkpt>
      <trkpt lat="43.99026" lon="2.99058">
        <ele>730.8</ele>
        <time>2026-04-30T13:20:19.000Z</time>
      </trkpt>
      <trkpt lat="43.99026" lon="2.99058">
        <ele>731.3</ele>
        <time>2026-04-30T13:20:20.000Z</time>
      </trkpt>
      <trkpt lat="43.99027" lon="2.99059">
        <ele>731.7</ele>
        <time>2026-04-30T13:20:21.000Z</time>
      </trkpt>
      <trkpt lat="43.99027" lon="2.99059">
        <ele>730.5</ele>
        <time>2026-04-30T13:20:22.000Z</time>
      </trkpt>
      <trkpt lat="43.99027" lon="2.99059">
        <ele>730.6</ele>
        <time>2026-04-30T13:20:23.000Z</time>
      </trkpt>
      <trkpt lat="43.99027" lon="2.99059">
        <ele>730.8</ele>
        <time>2026-04-30T13:20:24.000Z</time>
      </trkpt>
      <trkpt lat="43.99027" lon="2.99059">
        <ele>730.8</ele>
        <time>2026-04-30T13:20:25.000Z</time>
      </trkpt>
      <trkpt lat="43.99026" lon="2.99059">
        <ele>730.9</ele>
        <time>2026-04-30T13:20:26.000Z</time>
      </trkpt>
      <trkpt lat="43.99026" lon="2.99058">
        <ele>731.1</ele>
        <time>2026-04-30T13:20:27.000Z</time>
      </trkpt>
      <trkpt lat="43.99025" lon="2.99057">
        <ele>731.1</ele>
        <time>2026-04-30T13:20:28.000Z</time>
      </trkpt>
      <trkpt lat="43.99024" lon="2.99055">
        <ele>731.2</ele>
        <time>2026-04-30T13:20:29.000Z</time>
      </trkpt>
      <trkpt lat="43.99023" lon="2.99054">
        <ele>731.2</ele>
        <time>2026-04-30T13:20:30.000Z</time>
      </trkpt>
      <trkpt lat="43.99023" lon="2.99054">
        <ele>731.3</ele>
        <time>2026-04-30T13:20:31.000Z</time>
      </trkpt>
      <trkpt lat="43.99023" lon="2.99053">
        <ele>731.2</ele>
        <time>2026-04-30T13:20:32.000Z</time>
      </trkpt>
      <trkpt lat="43.99023" lon="2.99053">
        <ele>731.1</ele>
        <time>2026-04-30T13:20:33.000Z</time>
      </trkpt>
      <trkpt lat="43.99022" lon="2.99052">
        <ele>731.3</ele>
        <time>2026-04-30T13:20:34.000Z</time>
      </trkpt>
      <trkpt lat="43.99021" lon="2.9905">
        <ele>731.2</ele>
        <time>2026-04-30T13:20:35.000Z</time>
      </trkpt>
      <trkpt lat="43.99021" lon="2.99048">
        <ele>731.1</ele>
        <time>2026-04-30T13:20:36.000Z</time>
      </trkpt>
      <trkpt lat="43.9902" lon="2.99046">
        <ele>730.9</ele>
        <time>2026-04-30T13:20:37.000Z</time>
      </trkpt>
      <trkpt lat="43.99019" lon="2.99045">
        <ele>730.6</ele>
        <time>2026-04-30T13:20:38.000Z</time>
      </trkpt>
      <trkpt lat="43.99019" lon="2.99044">
        <ele>730.6</ele>
        <time>2026-04-30T13:20:39.000Z</time>
      </trkpt>
      <trkpt lat="43.99019" lon="2.99044">
        <ele>730.4</ele>
        <time>2026-04-30T13:20:40.000Z</time>
      </trkpt>
      <trkpt lat="43.99019" lon="2.99043">
        <ele>730.2</ele>
        <time>2026-04-30T13:20:41.000Z</time>
      </trkpt>
      <trkpt lat="43.99019" lon="2.99043">
        <ele>730.2</ele>
        <time>2026-04-30T13:20:42.000Z</time>
      </trkpt>
      <trkpt lat="43.99018" lon="2.99041">
        <ele>730</ele>
        <time>2026-04-30T13:20:43.000Z</time>
      </trkpt>
      <trkpt lat="43.99018" lon="2.9904">
        <ele>729.8</ele>
        <time>2026-04-30T13:20:44.000Z</time>
      </trkpt>
      <trkpt lat="43.99017" lon="2.99038">
        <ele>729.6</ele>
        <time>2026-04-30T13:20:45.000Z</time>
      </trkpt>
      <trkpt lat="43.99016" lon="2.99037">
        <ele>729.5</ele>
        <time>2026-04-30T13:20:46.000Z</time>
      </trkpt>
      <trkpt lat="43.99016" lon="2.99035">
        <ele>729.4</ele>
        <time>2026-04-30T13:20:47.000Z</time>
      </trkpt>
      <trkpt lat="43.99015" lon="2.99033">
        <ele>729.1</ele>
        <time>2026-04-30T13:20:48.000Z</time>
      </trkpt>
      <trkpt lat="43.99015" lon="2.99031">
        <ele>728.9</ele>
        <time>2026-04-30T13:20:49.000Z</time>
      </trkpt>
      <trkpt lat="43.99014" lon="2.99029">
        <ele>729</ele>
        <time>2026-04-30T13:20:50.000Z</time>
      </trkpt>
      <trkpt lat="43.99014" lon="2.99027">
        <ele>729.1</ele>
        <time>2026-04-30T13:20:51.000Z</time>
      </trkpt>
      <trkpt lat="43.99013" lon="2.99025">
        <ele>729.2</ele>
        <time>2026-04-30T13:20:52.000Z</time>
      </trkpt>
      <trkpt lat="43.99013" lon="2.99023">
        <ele>729.5</ele>
        <time>2026-04-30T13:20:53.000Z</time>
      </trkpt>
      <trkpt lat="43.99013" lon="2.99021">
        <ele>729.7</ele>
        <time>2026-04-30T13:20:54.000Z</time>
      </trkpt>
      <trkpt lat="43.99013" lon="2.9902">
        <ele>729.6</ele>
        <time>2026-04-30T13:20:55.000Z</time>
      </trkpt>
      <trkpt lat="43.99013" lon="2.99018">
        <ele>729.5</ele>
        <time>2026-04-30T13:20:56.000Z</time>
      </trkpt>
      <trkpt lat="43.99014" lon="2.99016">
        <ele>729.3</ele>
        <time>2026-04-30T13:20:57.000Z</time>
      </trkpt>
      <trkpt lat="43.99014" lon="2.99015">
        <ele>729.4</ele>
        <time>2026-04-30T13:20:58.000Z</time>
      </trkpt>
      <trkpt lat="43.99014" lon="2.99015">
        <ele>728.8</ele>
        <time>2026-04-30T13:20:59.000Z</time>
      </trkpt>
      <trkpt lat="43.99014" lon="2.99016">
        <ele>728.8</ele>
        <time>2026-04-30T13:21:00.000Z</time>
      </trkpt>
      <trkpt lat="43.99014" lon="2.99016">
        <ele>728.9</ele>
        <time>2026-04-30T13:21:01.000Z</time>
      </trkpt>
      <trkpt lat="43.99014" lon="2.99016">
        <ele>728.8</ele>
        <time>2026-04-30T13:21:02.000Z</time>
      </trkpt>
      <trkpt lat="43.99014" lon="2.99016">
        <ele>728.7</ele>
        <time>2026-04-30T13:21:03.000Z</time>
      </trkpt>
      <trkpt lat="43.99014" lon="2.99016">
        <ele>728.6</ele>
        <time>2026-04-30T13:21:04.000Z</time>
      </trkpt>
      <trkpt lat="43.99014" lon="2.99016">
        <ele>728.5</ele>
        <time>2026-04-30T13:21:05.000Z</time>
      </trkpt>
      <trkpt lat="43.99014" lon="2.99014">
        <ele>728.5</ele>
        <time>2026-04-30T13:21:06.000Z</time>
      </trkpt>
      <trkpt lat="43.99015" lon="2.99011">
        <ele>728.6</ele>
        <time>2026-04-30T13:21:07.000Z</time>
      </trkpt>
      <trkpt lat="43.99015" lon="2.99009">
        <ele>728.9</ele>
        <time>2026-04-30T13:21:08.000Z</time>
      </trkpt>
      <trkpt lat="43.99016" lon="2.99007">
        <ele>729.2</ele>
        <time>2026-04-30T13:21:09.000Z</time>
      </trkpt>
      <trkpt lat="43.99016" lon="2.99006">
        <ele>729.3</ele>
        <time>2026-04-30T13:21:10.000Z</time>
      </trkpt>
      <trkpt lat="43.99016" lon="2.99005">
        <ele>728.9</ele>
        <time>2026-04-30T13:21:11.000Z</time>
      </trkpt>
      <trkpt lat="43.99016" lon="2.99004">
        <ele>728.8</ele>
        <time>2026-04-30T13:21:12.000Z</time>
      </trkpt>
      <trkpt lat="43.99015" lon="2.99003">
        <ele>728.4</ele>
        <time>2026-04-30T13:21:13.000Z</time>
      </trkpt>
      <trkpt lat="43.99015" lon="2.99003">
        <ele>727.9</ele>
        <time>2026-04-30T13:21:14.000Z</time>
      </trkpt>
      <trkpt lat="43.99014" lon="2.99003">
        <ele>727.9</ele>
        <time>2026-04-30T13:21:15.000Z</time>
      </trkpt>
      <trkpt lat="43.99014" lon="2.99002">
        <ele>728</ele>
        <time>2026-04-30T13:21:16.000Z</time>
      </trkpt>
      <trkpt lat="43.99014" lon="2.99002">
        <ele>727.5</ele>
        <time>2026-04-30T13:21:17.000Z</time>
      </trkpt>
      <trkpt lat="43.99014" lon="2.99003">
        <ele>727.7</ele>
        <time>2026-04-30T13:21:18.000Z</time>
      </trkpt>
      <trkpt lat="43.99014" lon="2.99002">
        <ele>727.9</ele>
        <time>2026-04-30T13:21:19.000Z</time>
      </trkpt>
      <trkpt lat="43.99014" lon="2.99002">
        <ele>728</ele>
        <time>2026-04-30T13:21:20.000Z</time>
      </trkpt>
      <trkpt lat="43.99014" lon="2.99002">
        <ele>728</ele>
        <time>2026-04-30T13:21:21.000Z</time>
      </trkpt>
      <trkpt lat="43.99014" lon="2.99002">
        <ele>728</ele>
        <time>2026-04-30T13:21:22.000Z</time>
      </trkpt>
      <trkpt lat="43.99014" lon="2.99002">
        <ele>727.9</ele>
        <time>2026-04-30T13:21:23.000Z</time>
      </trkpt>
      <trkpt lat="43.99014" lon="2.99002">
        <ele>727.8</ele>
        <time>2026-04-30T13:21:24.000Z</time>
      </trkpt>
      <trkpt lat="43.99014" lon="2.99002">
        <ele>727.7</ele>
        <time>2026-04-30T13:21:25.000Z</time>
      </trkpt>
      <trkpt lat="43.99014" lon="2.99002">
        <ele>727.6</ele>
        <time>2026-04-30T13:21:26.000Z</time>
      </trkpt>
      <trkpt lat="43.99014" lon="2.99">
        <ele>727.3</ele>
        <time>2026-04-30T13:21:27.000Z</time>
      </trkpt>
      <trkpt lat="43.99014" lon="2.98999">
        <ele>727.3</ele>
        <time>2026-04-30T13:21:28.000Z</time>
      </trkpt>
      <trkpt lat="43.99015" lon="2.98997">
        <ele>727.1</ele>
        <time>2026-04-30T13:21:29.000Z</time>
      </trkpt>
      <trkpt lat="43.99015" lon="2.98995">
        <ele>727.1</ele>
        <time>2026-04-30T13:21:30.000Z</time>
      </trkpt>
      <trkpt lat="43.99015" lon="2.98992">
        <ele>727</ele>
        <time>2026-04-30T13:21:31.000Z</time>
      </trkpt>
      <trkpt lat="43.99016" lon="2.9899">
        <ele>727.2</ele>
        <time>2026-04-30T13:21:32.000Z</time>
      </trkpt>
      <trkpt lat="43.99017" lon="2.98987">
        <ele>727.2</ele>
        <time>2026-04-30T13:21:34.000Z</time>
      </trkpt>
      <trkpt lat="43.99018" lon="2.98987">
        <ele>727.1</ele>
        <time>2026-04-30T13:21:35.000Z</time>
      </trkpt>
      <trkpt lat="43.99018" lon="2.98986">
        <ele>727.2</ele>
        <time>2026-04-30T13:21:36.000Z</time>
      </trkpt>
      <trkpt lat="43.99018" lon="2.98986">
        <ele>727</ele>
        <time>2026-04-30T13:21:37.000Z</time>
      </trkpt>
      <trkpt lat="43.99018" lon="2.98985">
        <ele>727.2</ele>
        <time>2026-04-30T13:21:38.000Z</time>
      </trkpt>
      <trkpt lat="43.99018" lon="2.98984">
        <ele>727.3</ele>
        <time>2026-04-30T13:21:39.000Z</time>
      </trkpt>
      <trkpt lat="43.99018" lon="2.98983">
        <ele>727.4</ele>
        <time>2026-04-30T13:21:40.000Z</time>
      </trkpt>
      <trkpt lat="43.99018" lon="2.98982">
        <ele>727.5</ele>
        <time>2026-04-30T13:21:41.000Z</time>
      </trkpt>
      <trkpt lat="43.99018" lon="2.98981">
        <ele>728.3</ele>
        <time>2026-04-30T13:21:42.000Z</time>
      </trkpt>
      <trkpt lat="43.99018" lon="2.98982">
        <ele>728.6</ele>
        <time>2026-04-30T13:21:43.000Z</time>
      </trkpt>
      <trkpt lat="43.99018" lon="2.98982">
        <ele>729</ele>
        <time>2026-04-30T13:21:44.000Z</time>
      </trkpt>
      <trkpt lat="43.99018" lon="2.98982">
        <ele>728.9</ele>
        <time>2026-04-30T13:21:45.000Z</time>
      </trkpt>
      <trkpt lat="43.99018" lon="2.98982">
        <ele>729.1</ele>
        <time>2026-04-30T13:21:46.000Z</time>
      </trkpt>
      <trkpt lat="43.99018" lon="2.98981">
        <ele>729</ele>
        <time>2026-04-30T13:21:47.000Z</time>
      </trkpt>
      <trkpt lat="43.99019" lon="2.9898">
        <ele>728.7</ele>
        <time>2026-04-30T13:21:48.000Z</time>
      </trkpt>
      <trkpt lat="43.99019" lon="2.9898">
        <ele>728.4</ele>
        <time>2026-04-30T13:21:49.000Z</time>
      </trkpt>
      <trkpt lat="43.9902" lon="2.9898">
        <ele>728.2</ele>
        <time>2026-04-30T13:21:50.000Z</time>
      </trkpt>
      <trkpt lat="43.9902" lon="2.98979">
        <ele>727.8</ele>
        <time>2026-04-30T13:21:51.000Z</time>
      </trkpt>
      <trkpt lat="43.9902" lon="2.98978">
        <ele>727.4</ele>
        <time>2026-04-30T13:21:52.000Z</time>
      </trkpt>
      <trkpt lat="43.99021" lon="2.98977">
        <ele>727</ele>
        <time>2026-04-30T13:21:53.000Z</time>
      </trkpt>
      <trkpt lat="43.99022" lon="2.98977">
        <ele>727</ele>
        <time>2026-04-30T13:21:54.000Z</time>
      </trkpt>
      <trkpt lat="43.99022" lon="2.98976">
        <ele>726.5</ele>
        <time>2026-04-30T13:21:55.000Z</time>
      </trkpt>
      <trkpt lat="43.99022" lon="2.98975">
        <ele>726</ele>
        <time>2026-04-30T13:21:56.000Z</time>
      </trkpt>
      <trkpt lat="43.99023" lon="2.98975">
        <ele>729.7</ele>
        <time>2026-04-30T13:21:57.000Z</time>
      </trkpt>
      <trkpt lat="43.99021" lon="2.98977">
        <ele>728.9</ele>
        <time>2026-04-30T13:21:58.000Z</time>
      </trkpt>
      <trkpt lat="43.9902" lon="2.98978">
        <ele>728.1</ele>
        <time>2026-04-30T13:21:59.000Z</time>
      </trkpt>
      <trkpt lat="43.9902" lon="2.98978">
        <ele>727.6</ele>
        <time>2026-04-30T13:22:00.000Z</time>
      </trkpt>
      <trkpt lat="43.9902" lon="2.98978">
        <ele>727.3</ele>
        <time>2026-04-30T13:22:01.000Z</time>
      </trkpt>
      <trkpt lat="43.9902" lon="2.98978">
        <ele>727.3</ele>
        <time>2026-04-30T13:22:02.000Z</time>
      </trkpt>
      <trkpt lat="43.9902" lon="2.98978">
        <ele>727.2</ele>
        <time>2026-04-30T13:22:03.000Z</time>
      </trkpt>
      <trkpt lat="43.99019" lon="2.98978">
        <ele>727.2</ele>
        <time>2026-04-30T13:22:04.000Z</time>
      </trkpt>
      <trkpt lat="43.99019" lon="2.98978">
        <ele>727.2</ele>
        <time>2026-04-30T13:22:05.000Z</time>
      </trkpt>
      <trkpt lat="43.99019" lon="2.98978">
        <ele>727.1</ele>
        <time>2026-04-30T13:22:06.000Z</time>
      </trkpt>
      <trkpt lat="43.99019" lon="2.98978">
        <ele>727.1</ele>
        <time>2026-04-30T13:22:07.000Z</time>
      </trkpt>
      <trkpt lat="43.99019" lon="2.98979">
        <ele>727</ele>
        <time>2026-04-30T13:22:08.000Z</time>
      </trkpt>
      <trkpt lat="43.99019" lon="2.98979">
        <ele>727</ele>
        <time>2026-04-30T13:22:09.000Z</time>
      </trkpt>
      <trkpt lat="43.99019" lon="2.98979">
        <ele>727.1</ele>
        <time>2026-04-30T13:22:10.000Z</time>
      </trkpt>
      <trkpt lat="43.99019" lon="2.98979">
        <ele>727.4</ele>
        <time>2026-04-30T13:22:11.000Z</time>
      </trkpt>
      <trkpt lat="43.99019" lon="2.98979">
        <ele>727.5</ele>
        <time>2026-04-30T13:22:12.000Z</time>
      </trkpt>
      <trkpt lat="43.99019" lon="2.98979">
        <ele>727.6</ele>
        <time>2026-04-30T13:22:13.000Z</time>
      </trkpt>
      <trkpt lat="43.99019" lon="2.98979">
        <ele>727.9</ele>
        <time>2026-04-30T13:22:14.000Z</time>
      </trkpt>
      <trkpt lat="43.99019" lon="2.98979">
        <ele>728.2</ele>
        <time>2026-04-30T13:22:15.000Z</time>
      </trkpt>
      <trkpt lat="43.99019" lon="2.98979">
        <ele>728.2</ele>
        <time>2026-04-30T13:22:16.000Z</time>
      </trkpt>
      <trkpt lat="43.99019" lon="2.98979">
        <ele>728.3</ele>
        <time>2026-04-30T13:22:17.000Z</time>
      </trkpt>
      <trkpt lat="43.99019" lon="2.98979">
        <ele>728.4</ele>
        <time>2026-04-30T13:22:18.000Z</time>
      </trkpt>
      <trkpt lat="43.99021" lon="2.98978">
        <ele>728.4</ele>
        <time>2026-04-30T13:22:19.000Z</time>
      </trkpt>
      <trkpt lat="43.99021" lon="2.98978">
        <ele>728.6</ele>
        <time>2026-04-30T13:22:20.000Z</time>
      </trkpt>
      <trkpt lat="43.99022" lon="2.98977">
        <ele>728.8</ele>
        <time>2026-04-30T13:22:21.000Z</time>
      </trkpt>
      <trkpt lat="43.99022" lon="2.98975">
        <ele>728.8</ele>
        <time>2026-04-30T13:22:22.000Z</time>
      </trkpt>
      <trkpt lat="43.99022" lon="2.98974">
        <ele>728.7</ele>
        <time>2026-04-30T13:22:23.000Z</time>
      </trkpt>
      <trkpt lat="43.99022" lon="2.98972">
        <ele>728.6</ele>
        <time>2026-04-30T13:22:24.000Z</time>
      </trkpt>
      <trkpt lat="43.99021" lon="2.98971">
        <ele>728.6</ele>
        <time>2026-04-30T13:22:25.000Z</time>
      </trkpt>
      <trkpt lat="43.99021" lon="2.9897">
        <ele>728.7</ele>
        <time>2026-04-30T13:22:26.000Z</time>
      </trkpt>
      <trkpt lat="43.99021" lon="2.9897">
        <ele>728.6</ele>
        <time>2026-04-30T13:22:27.000Z</time>
      </trkpt>
      <trkpt lat="43.99021" lon="2.98969">
        <ele>728.9</ele>
        <time>2026-04-30T13:22:28.000Z</time>
      </trkpt>
      <trkpt lat="43.99021" lon="2.98967">
        <ele>729.1</ele>
        <time>2026-04-30T13:22:29.000Z</time>
      </trkpt>
      <trkpt lat="43.99022" lon="2.98966">
        <ele>729.2</ele>
        <time>2026-04-30T13:22:30.000Z</time>
      </trkpt>
      <trkpt lat="43.99022" lon="2.98966">
        <ele>729.6</ele>
        <time>2026-04-30T13:22:31.000Z</time>
      </trkpt>
      <trkpt lat="43.99022" lon="2.98965">
        <ele>729.7</ele>
        <time>2026-04-30T13:22:32.000Z</time>
      </trkpt>
      <trkpt lat="43.99022" lon="2.98963">
        <ele>729.6</ele>
        <time>2026-04-30T13:22:33.000Z</time>
      </trkpt>
      <trkpt lat="43.99022" lon="2.98962">
        <ele>729.6</ele>
        <time>2026-04-30T13:22:34.000Z</time>
      </trkpt>
      <trkpt lat="43.99023" lon="2.98961">
        <ele>729.6</ele>
        <time>2026-04-30T13:22:35.000Z</time>
      </trkpt>
      <trkpt lat="43.99023" lon="2.9896">
        <ele>729.6</ele>
        <time>2026-04-30T13:22:36.000Z</time>
      </trkpt>
      <trkpt lat="43.99023" lon="2.98958">
        <ele>729.5</ele>
        <time>2026-04-30T13:22:37.000Z</time>
      </trkpt>
      <trkpt lat="43.99024" lon="2.98957">
        <ele>729.2</ele>
        <time>2026-04-30T13:22:38.000Z</time>
      </trkpt>
      <trkpt lat="43.99024" lon="2.98955">
        <ele>729.2</ele>
        <time>2026-04-30T13:22:39.000Z</time>
      </trkpt>
      <trkpt lat="43.99023" lon="2.98954">
        <ele>729.1</ele>
        <time>2026-04-30T13:22:40.000Z</time>
      </trkpt>
      <trkpt lat="43.99024" lon="2.98953">
        <ele>729.3</ele>
        <time>2026-04-30T13:22:41.000Z</time>
      </trkpt>
      <trkpt lat="43.99024" lon="2.98952">
        <ele>729.3</ele>
        <time>2026-04-30T13:22:42.000Z</time>
      </trkpt>
      <trkpt lat="43.99024" lon="2.98951">
        <ele>729.3</ele>
        <time>2026-04-30T13:22:43.000Z</time>
      </trkpt>
      <trkpt lat="43.99024" lon="2.9895">
        <ele>729.8</ele>
        <time>2026-04-30T13:22:44.000Z</time>
      </trkpt>
      <trkpt lat="43.99024" lon="2.98949">
        <ele>730.3</ele>
        <time>2026-04-30T13:22:45.000Z</time>
      </trkpt>
      <trkpt lat="43.99024" lon="2.98947">
        <ele>730.2</ele>
        <time>2026-04-30T13:22:46.000Z</time>
      </trkpt>
      <trkpt lat="43.99025" lon="2.98945">
        <ele>730.3</ele>
        <time>2026-04-30T13:22:47.000Z</time>
      </trkpt>
      <trkpt lat="43.99025" lon="2.98943">
        <ele>730.3</ele>
        <time>2026-04-30T13:22:48.000Z</time>
      </trkpt>
      <trkpt lat="43.99026" lon="2.98941">
        <ele>730.2</ele>
        <time>2026-04-30T13:22:49.000Z</time>
      </trkpt>
      <trkpt lat="43.99026" lon="2.9894">
        <ele>730.1</ele>
        <time>2026-04-30T13:22:50.000Z</time>
      </trkpt>
      <trkpt lat="43.99027" lon="2.98939">
        <ele>730.2</ele>
        <time>2026-04-30T13:22:51.000Z</time>
      </trkpt>
      <trkpt lat="43.99027" lon="2.98938">
        <ele>730.3</ele>
        <time>2026-04-30T13:22:52.000Z</time>
      </trkpt>
      <trkpt lat="43.99027" lon="2.98937">
        <ele>730.2</ele>
        <time>2026-04-30T13:22:53.000Z</time>
      </trkpt>
      <trkpt lat="43.99028" lon="2.98936">
        <ele>730</ele>
        <time>2026-04-30T13:22:54.000Z</time>
      </trkpt>
      <trkpt lat="43.99028" lon="2.98935">
        <ele>730.1</ele>
        <time>2026-04-30T13:22:55.000Z</time>
      </trkpt>
      <trkpt lat="43.99028" lon="2.98933">
        <ele>730.2</ele>
        <time>2026-04-30T13:22:56.000Z</time>
      </trkpt>
      <trkpt lat="43.99029" lon="2.98931">
        <ele>730.3</ele>
        <time>2026-04-30T13:22:57.000Z</time>
      </trkpt>
      <trkpt lat="43.99029" lon="2.9893">
        <ele>730.4</ele>
        <time>2026-04-30T13:22:58.000Z</time>
      </trkpt>
      <trkpt lat="43.99029" lon="2.98929">
        <ele>730.3</ele>
        <time>2026-04-30T13:22:59.000Z</time>
      </trkpt>
      <trkpt lat="43.9903" lon="2.98927">
        <ele>730.1</ele>
        <time>2026-04-30T13:23:00.000Z</time>
      </trkpt>
      <trkpt lat="43.9903" lon="2.98925">
        <ele>730.1</ele>
        <time>2026-04-30T13:23:01.000Z</time>
      </trkpt>
      <trkpt lat="43.99031" lon="2.98924">
        <ele>729.9</ele>
        <time>2026-04-30T13:23:02.000Z</time>
      </trkpt>
      <trkpt lat="43.99031" lon="2.98923">
        <ele>729.9</ele>
        <time>2026-04-30T13:23:03.000Z</time>
      </trkpt>
      <trkpt lat="43.99031" lon="2.98921">
        <ele>730.1</ele>
        <time>2026-04-30T13:23:04.000Z</time>
      </trkpt>
      <trkpt lat="43.99031" lon="2.9892">
        <ele>730.3</ele>
        <time>2026-04-30T13:23:05.000Z</time>
      </trkpt>
      <trkpt lat="43.99032" lon="2.98919">
        <ele>730.6</ele>
        <time>2026-04-30T13:23:06.000Z</time>
      </trkpt>
      <trkpt lat="43.99032" lon="2.98917">
        <ele>730.9</ele>
        <time>2026-04-30T13:23:07.000Z</time>
      </trkpt>
      <trkpt lat="43.99032" lon="2.98916">
        <ele>730.8</ele>
        <time>2026-04-30T13:23:08.000Z</time>
      </trkpt>
      <trkpt lat="43.99033" lon="2.98915">
        <ele>730.6</ele>
        <time>2026-04-30T13:23:09.000Z</time>
      </trkpt>
      <trkpt lat="43.99033" lon="2.98914">
        <ele>730.6</ele>
        <time>2026-04-30T13:23:10.000Z</time>
      </trkpt>
      <trkpt lat="43.99034" lon="2.98912">
        <ele>730.5</ele>
        <time>2026-04-30T13:23:12.000Z</time>
      </trkpt>
      <trkpt lat="43.99034" lon="2.98911">
        <ele>730.2</ele>
        <time>2026-04-30T13:23:13.000Z</time>
      </trkpt>
      <trkpt lat="43.99034" lon="2.98909">
        <ele>729.9</ele>
        <time>2026-04-30T13:23:14.000Z</time>
      </trkpt>
      <trkpt lat="43.99034" lon="2.98908">
        <ele>729.5</ele>
        <time>2026-04-30T13:23:15.000Z</time>
      </trkpt>
      <trkpt lat="43.99035" lon="2.98907">
        <ele>729.8</ele>
        <time>2026-04-30T13:23:16.000Z</time>
      </trkpt>
      <trkpt lat="43.99035" lon="2.98905">
        <ele>729.8</ele>
        <time>2026-04-30T13:23:17.000Z</time>
      </trkpt>
      <trkpt lat="43.99036" lon="2.98904">
        <ele>729.7</ele>
        <time>2026-04-30T13:23:18.000Z</time>
      </trkpt>
      <trkpt lat="43.99037" lon="2.98901">
        <ele>729.4</ele>
        <time>2026-04-30T13:23:19.000Z</time>
      </trkpt>
      <trkpt lat="43.99037" lon="2.98899">
        <ele>729.4</ele>
        <time>2026-04-30T13:23:20.000Z</time>
      </trkpt>
      <trkpt lat="43.99038" lon="2.98897">
        <ele>729</ele>
        <time>2026-04-30T13:23:21.000Z</time>
      </trkpt>
      <trkpt lat="43.99039" lon="2.98896">
        <ele>728.8</ele>
        <time>2026-04-30T13:23:22.000Z</time>
      </trkpt>
      <trkpt lat="43.9904" lon="2.98893">
        <ele>728.6</ele>
        <time>2026-04-30T13:23:23.000Z</time>
      </trkpt>
      <trkpt lat="43.99041" lon="2.9889">
        <ele>728.5</ele>
        <time>2026-04-30T13:23:24.000Z</time>
      </trkpt>
      <trkpt lat="43.99041" lon="2.98887">
        <ele>728.8</ele>
        <time>2026-04-30T13:23:25.000Z</time>
      </trkpt>
      <trkpt lat="43.99042" lon="2.98884">
        <ele>729</ele>
        <time>2026-04-30T13:23:26.000Z</time>
      </trkpt>
      <trkpt lat="43.99042" lon="2.98881">
        <ele>729.6</ele>
        <time>2026-04-30T13:23:27.000Z</time>
      </trkpt>
      <trkpt lat="43.99042" lon="2.9888">
        <ele>729.5</ele>
        <time>2026-04-30T13:23:28.000Z</time>
      </trkpt>
      <trkpt lat="43.99043" lon="2.98877">
        <ele>730.2</ele>
        <time>2026-04-30T13:23:29.000Z</time>
      </trkpt>
      <trkpt lat="43.99043" lon="2.98875">
        <ele>730.5</ele>
        <time>2026-04-30T13:23:30.000Z</time>
      </trkpt>
      <trkpt lat="43.99043" lon="2.98873">
        <ele>731</ele>
        <time>2026-04-30T13:23:31.000Z</time>
      </trkpt>
      <trkpt lat="43.99043" lon="2.98871">
        <ele>731</ele>
        <time>2026-04-30T13:23:32.000Z</time>
      </trkpt>
      <trkpt lat="43.99043" lon="2.9887">
        <ele>730.9</ele>
        <time>2026-04-30T13:23:33.000Z</time>
      </trkpt>
      <trkpt lat="43.99043" lon="2.98869">
        <ele>730.6</ele>
        <time>2026-04-30T13:23:34.000Z</time>
      </trkpt>
      <trkpt lat="43.99044" lon="2.98867">
        <ele>730.5</ele>
        <time>2026-04-30T13:23:35.000Z</time>
      </trkpt>
      <trkpt lat="43.99044" lon="2.98866">
        <ele>730.6</ele>
        <time>2026-04-30T13:23:36.000Z</time>
      </trkpt>
      <trkpt lat="43.99044" lon="2.98865">
        <ele>730.6</ele>
        <time>2026-04-30T13:23:37.000Z</time>
      </trkpt>
      <trkpt lat="43.99044" lon="2.98863">
        <ele>730.6</ele>
        <time>2026-04-30T13:23:38.000Z</time>
      </trkpt>
      <trkpt lat="43.99044" lon="2.98861">
        <ele>730.3</ele>
        <time>2026-04-30T13:23:39.000Z</time>
      </trkpt>
      <trkpt lat="43.99044" lon="2.98859">
        <ele>730</ele>
        <time>2026-04-30T13:23:40.000Z</time>
      </trkpt>
      <trkpt lat="43.99044" lon="2.98857">
        <ele>729.4</ele>
        <time>2026-04-30T13:23:41.000Z</time>
      </trkpt>
      <trkpt lat="43.99044" lon="2.98855">
        <ele>728.7</ele>
        <time>2026-04-30T13:23:42.000Z</time>
      </trkpt>
      <trkpt lat="43.99044" lon="2.98853">
        <ele>728.3</ele>
        <time>2026-04-30T13:23:43.000Z</time>
      </trkpt>
      <trkpt lat="43.99044" lon="2.98852">
        <ele>728.4</ele>
        <time>2026-04-30T13:23:44.000Z</time>
      </trkpt>
      <trkpt lat="43.99044" lon="2.9885">
        <ele>728.5</ele>
        <time>2026-04-30T13:23:45.000Z</time>
      </trkpt>
      <trkpt lat="43.99045" lon="2.98848">
        <ele>728.8</ele>
        <time>2026-04-30T13:23:46.000Z</time>
      </trkpt>
      <trkpt lat="43.99045" lon="2.98847">
        <ele>728.7</ele>
        <time>2026-04-30T13:23:47.000Z</time>
      </trkpt>
      <trkpt lat="43.99046" lon="2.98845">
        <ele>728.6</ele>
        <time>2026-04-30T13:23:48.000Z</time>
      </trkpt>
      <trkpt lat="43.99047" lon="2.98843">
        <ele>728.6</ele>
        <time>2026-04-30T13:23:49.000Z</time>
      </trkpt>
      <trkpt lat="43.99048" lon="2.98842">
        <ele>728.7</ele>
        <time>2026-04-30T13:23:50.000Z</time>
      </trkpt>
      <trkpt lat="43.99048" lon="2.9884">
        <ele>728.8</ele>
        <time>2026-04-30T13:23:51.000Z</time>
      </trkpt>
      <trkpt lat="43.99049" lon="2.98839">
        <ele>728.7</ele>
        <time>2026-04-30T13:23:52.000Z</time>
      </trkpt>
      <trkpt lat="43.9905" lon="2.98837">
        <ele>729.1</ele>
        <time>2026-04-30T13:23:53.000Z</time>
      </trkpt>
      <trkpt lat="43.99049" lon="2.98836">
        <ele>729.6</ele>
        <time>2026-04-30T13:23:54.000Z</time>
      </trkpt>
      <trkpt lat="43.9905" lon="2.98835">
        <ele>729.7</ele>
        <time>2026-04-30T13:23:55.000Z</time>
      </trkpt>
      <trkpt lat="43.9905" lon="2.98833">
        <ele>729.6</ele>
        <time>2026-04-30T13:23:56.000Z</time>
      </trkpt>
      <trkpt lat="43.9905" lon="2.9883">
        <ele>729.4</ele>
        <time>2026-04-30T13:23:57.000Z</time>
      </trkpt>
      <trkpt lat="43.99051" lon="2.98828">
        <ele>728.9</ele>
        <time>2026-04-30T13:23:58.000Z</time>
      </trkpt>
      <trkpt lat="43.99051" lon="2.98826">
        <ele>728.7</ele>
        <time>2026-04-30T13:23:59.000Z</time>
      </trkpt>
      <trkpt lat="43.99052" lon="2.98825">
        <ele>728.4</ele>
        <time>2026-04-30T13:24:00.000Z</time>
      </trkpt>
      <trkpt lat="43.99053" lon="2.98823">
        <ele>728.7</ele>
        <time>2026-04-30T13:24:01.000Z</time>
      </trkpt>
      <trkpt lat="43.99054" lon="2.98822">
        <ele>728.9</ele>
        <time>2026-04-30T13:24:02.000Z</time>
      </trkpt>
      <trkpt lat="43.99054" lon="2.9882">
        <ele>728.9</ele>
        <time>2026-04-30T13:24:03.000Z</time>
      </trkpt>
      <trkpt lat="43.99055" lon="2.98819">
        <ele>728.6</ele>
        <time>2026-04-30T13:24:04.000Z</time>
      </trkpt>
      <trkpt lat="43.99055" lon="2.98819">
        <ele>728.3</ele>
        <time>2026-04-30T13:24:05.000Z</time>
      </trkpt>
      <trkpt lat="43.99056" lon="2.98818">
        <ele>728.1</ele>
        <time>2026-04-30T13:24:06.000Z</time>
      </trkpt>
      <trkpt lat="43.99056" lon="2.98818">
        <ele>728.3</ele>
        <time>2026-04-30T13:24:07.000Z</time>
      </trkpt>
      <trkpt lat="43.99057" lon="2.98817">
        <ele>728.5</ele>
        <time>2026-04-30T13:24:08.000Z</time>
      </trkpt>
      <trkpt lat="43.99058" lon="2.98815">
        <ele>728.7</ele>
        <time>2026-04-30T13:24:09.000Z</time>
      </trkpt>
      <trkpt lat="43.99059" lon="2.98813">
        <ele>728.6</ele>
        <time>2026-04-30T13:24:10.000Z</time>
      </trkpt>
      <trkpt lat="43.99059" lon="2.98811">
        <ele>728.6</ele>
        <time>2026-04-30T13:24:11.000Z</time>
      </trkpt>
      <trkpt lat="43.99059" lon="2.98809">
        <ele>728.5</ele>
        <time>2026-04-30T13:24:12.000Z</time>
      </trkpt>
      <trkpt lat="43.99059" lon="2.98807">
        <ele>728.5</ele>
        <time>2026-04-30T13:24:13.000Z</time>
      </trkpt>
      <trkpt lat="43.99059" lon="2.98805">
        <ele>728.4</ele>
        <time>2026-04-30T13:24:14.000Z</time>
      </trkpt>
      <trkpt lat="43.9906" lon="2.98804">
        <ele>728.9</ele>
        <time>2026-04-30T13:24:15.000Z</time>
      </trkpt>
      <trkpt lat="43.9906" lon="2.98802">
        <ele>729.1</ele>
        <time>2026-04-30T13:24:16.000Z</time>
      </trkpt>
      <trkpt lat="43.9906" lon="2.988">
        <ele>728.9</ele>
        <time>2026-04-30T13:24:17.000Z</time>
      </trkpt>
      <trkpt lat="43.9906" lon="2.98799">
        <ele>729.4</ele>
        <time>2026-04-30T13:24:18.000Z</time>
      </trkpt>
      <trkpt lat="43.9906" lon="2.98797">
        <ele>729.8</ele>
        <time>2026-04-30T13:24:19.000Z</time>
      </trkpt>
      <trkpt lat="43.99061" lon="2.98796">
        <ele>730.3</ele>
        <time>2026-04-30T13:24:20.000Z</time>
      </trkpt>
      <trkpt lat="43.99061" lon="2.98795">
        <ele>730.6</ele>
        <time>2026-04-30T13:24:21.000Z</time>
      </trkpt>
      <trkpt lat="43.99061" lon="2.98793">
        <ele>730.3</ele>
        <time>2026-04-30T13:24:22.000Z</time>
      </trkpt>
      <trkpt lat="43.99061" lon="2.98792">
        <ele>730.4</ele>
        <time>2026-04-30T13:24:23.000Z</time>
      </trkpt>
      <trkpt lat="43.99062" lon="2.9879">
        <ele>730.6</ele>
        <time>2026-04-30T13:24:24.000Z</time>
      </trkpt>
      <trkpt lat="43.99063" lon="2.98787">
        <ele>731.1</ele>
        <time>2026-04-30T13:24:25.000Z</time>
      </trkpt>
      <trkpt lat="43.99064" lon="2.98785">
        <ele>731.6</ele>
        <time>2026-04-30T13:24:26.000Z</time>
      </trkpt>
      <trkpt lat="43.99064" lon="2.98783">
        <ele>731.6</ele>
        <time>2026-04-30T13:24:27.000Z</time>
      </trkpt>
      <trkpt lat="43.99064" lon="2.98781">
        <ele>731.8</ele>
        <time>2026-04-30T13:24:28.000Z</time>
      </trkpt>
      <trkpt lat="43.99064" lon="2.98779">
        <ele>731.8</ele>
        <time>2026-04-30T13:24:29.000Z</time>
      </trkpt>
      <trkpt lat="43.99064" lon="2.98778">
        <ele>732</ele>
        <time>2026-04-30T13:24:30.000Z</time>
      </trkpt>
      <trkpt lat="43.99065" lon="2.98777">
        <ele>732</ele>
        <time>2026-04-30T13:24:31.000Z</time>
      </trkpt>
      <trkpt lat="43.99065" lon="2.98776">
        <ele>732.7</ele>
        <time>2026-04-30T13:24:32.000Z</time>
      </trkpt>
      <trkpt lat="43.99065" lon="2.98775">
        <ele>733.1</ele>
        <time>2026-04-30T13:24:33.000Z</time>
      </trkpt>
      <trkpt lat="43.99066" lon="2.98774">
        <ele>733.2</ele>
        <time>2026-04-30T13:24:34.000Z</time>
      </trkpt>
      <trkpt lat="43.99067" lon="2.98772">
        <ele>733.3</ele>
        <time>2026-04-30T13:24:35.000Z</time>
      </trkpt>
      <trkpt lat="43.99068" lon="2.9877">
        <ele>733.4</ele>
        <time>2026-04-30T13:24:36.000Z</time>
      </trkpt>
      <trkpt lat="43.99069" lon="2.98768">
        <ele>733.2</ele>
        <time>2026-04-30T13:24:37.000Z</time>
      </trkpt>
      <trkpt lat="43.99069" lon="2.98765">
        <ele>733.2</ele>
        <time>2026-04-30T13:24:38.000Z</time>
      </trkpt>
      <trkpt lat="43.9907" lon="2.98763">
        <ele>733.2</ele>
        <time>2026-04-30T13:24:39.000Z</time>
      </trkpt>
      <trkpt lat="43.9907" lon="2.9876">
        <ele>733</ele>
        <time>2026-04-30T13:24:40.000Z</time>
      </trkpt>
      <trkpt lat="43.99069" lon="2.98759">
        <ele>733.2</ele>
        <time>2026-04-30T13:24:41.000Z</time>
      </trkpt>
      <trkpt lat="43.9907" lon="2.98757">
        <ele>733</ele>
        <time>2026-04-30T13:24:42.000Z</time>
      </trkpt>
      <trkpt lat="43.99071" lon="2.98756">
        <ele>732.9</ele>
        <time>2026-04-30T13:24:43.000Z</time>
      </trkpt>
      <trkpt lat="43.99071" lon="2.98755">
        <ele>732.8</ele>
        <time>2026-04-30T13:24:44.000Z</time>
      </trkpt>
      <trkpt lat="43.99072" lon="2.98754">
        <ele>732.6</ele>
        <time>2026-04-30T13:24:45.000Z</time>
      </trkpt>
      <trkpt lat="43.99072" lon="2.98753">
        <ele>732.3</ele>
        <time>2026-04-30T13:24:46.000Z</time>
      </trkpt>
      <trkpt lat="43.99072" lon="2.98751">
        <ele>732.4</ele>
        <time>2026-04-30T13:24:47.000Z</time>
      </trkpt>
      <trkpt lat="43.99073" lon="2.98748">
        <ele>732.3</ele>
        <time>2026-04-30T13:24:48.000Z</time>
      </trkpt>
      <trkpt lat="43.99074" lon="2.98746">
        <ele>732.1</ele>
        <time>2026-04-30T13:24:49.000Z</time>
      </trkpt>
      <trkpt lat="43.99075" lon="2.98744">
        <ele>732</ele>
        <time>2026-04-30T13:24:50.000Z</time>
      </trkpt>
      <trkpt lat="43.99076" lon="2.98742">
        <ele>732.1</ele>
        <time>2026-04-30T13:24:51.000Z</time>
      </trkpt>
      <trkpt lat="43.99077" lon="2.9874">
        <ele>732.3</ele>
        <time>2026-04-30T13:24:52.000Z</time>
      </trkpt>
      <trkpt lat="43.99077" lon="2.98739">
        <ele>732.5</ele>
        <time>2026-04-30T13:24:53.000Z</time>
      </trkpt>
      <trkpt lat="43.99078" lon="2.98737">
        <ele>732.1</ele>
        <time>2026-04-30T13:24:54.000Z</time>
      </trkpt>
      <trkpt lat="43.99078" lon="2.98736">
        <ele>732.3</ele>
        <time>2026-04-30T13:24:55.000Z</time>
      </trkpt>
      <trkpt lat="43.99078" lon="2.98734">
        <ele>732.2</ele>
        <time>2026-04-30T13:24:56.000Z</time>
      </trkpt>
      <trkpt lat="43.99078" lon="2.98733">
        <ele>732.8</ele>
        <time>2026-04-30T13:24:57.000Z</time>
      </trkpt>
      <trkpt lat="43.99079" lon="2.98732">
        <ele>733.5</ele>
        <time>2026-04-30T13:24:58.000Z</time>
      </trkpt>
      <trkpt lat="43.99079" lon="2.9873">
        <ele>734</ele>
        <time>2026-04-30T13:24:59.000Z</time>
      </trkpt>
      <trkpt lat="43.9908" lon="2.98728">
        <ele>734.2</ele>
        <time>2026-04-30T13:25:00.000Z</time>
      </trkpt>
      <trkpt lat="43.99081" lon="2.98727">
        <ele>734.4</ele>
        <time>2026-04-30T13:25:01.000Z</time>
      </trkpt>
      <trkpt lat="43.99081" lon="2.98726">
        <ele>734.5</ele>
        <time>2026-04-30T13:25:02.000Z</time>
      </trkpt>
      <trkpt lat="43.99082" lon="2.98726">
        <ele>734.6</ele>
        <time>2026-04-30T13:25:03.000Z</time>
      </trkpt>
      <trkpt lat="43.99081" lon="2.98725">
        <ele>734.7</ele>
        <time>2026-04-30T13:25:04.000Z</time>
      </trkpt>
      <trkpt lat="43.99081" lon="2.98724">
        <ele>734.7</ele>
        <time>2026-04-30T13:25:05.000Z</time>
      </trkpt>
      <trkpt lat="43.9908" lon="2.98722">
        <ele>734.7</ele>
        <time>2026-04-30T13:25:06.000Z</time>
      </trkpt>
      <trkpt lat="43.99078" lon="2.98721">
        <ele>734.6</ele>
        <time>2026-04-30T13:25:07.000Z</time>
      </trkpt>
      <trkpt lat="43.99078" lon="2.9872">
        <ele>734.8</ele>
        <time>2026-04-30T13:25:08.000Z</time>
      </trkpt>
      <trkpt lat="43.99078" lon="2.98719">
        <ele>734.9</ele>
        <time>2026-04-30T13:25:09.000Z</time>
      </trkpt>
      <trkpt lat="43.99078" lon="2.98717">
        <ele>735.5</ele>
        <time>2026-04-30T13:25:10.000Z</time>
      </trkpt>
      <trkpt lat="43.99077" lon="2.98715">
        <ele>735.9</ele>
        <time>2026-04-30T13:25:11.000Z</time>
      </trkpt>
      <trkpt lat="43.99078" lon="2.98714">
        <ele>736</ele>
        <time>2026-04-30T13:25:12.000Z</time>
      </trkpt>
      <trkpt lat="43.99078" lon="2.98713">
        <ele>736</ele>
        <time>2026-04-30T13:25:13.000Z</time>
      </trkpt>
      <trkpt lat="43.99078" lon="2.98711">
        <ele>736.2</ele>
        <time>2026-04-30T13:25:14.000Z</time>
      </trkpt>
      <trkpt lat="43.99079" lon="2.98709">
        <ele>736.6</ele>
        <time>2026-04-30T13:25:15.000Z</time>
      </trkpt>
      <trkpt lat="43.99079" lon="2.98708">
        <ele>736.6</ele>
        <time>2026-04-30T13:25:16.000Z</time>
      </trkpt>
      <trkpt lat="43.99079" lon="2.98707">
        <ele>736.3</ele>
        <time>2026-04-30T13:25:17.000Z</time>
      </trkpt>
      <trkpt lat="43.99079" lon="2.98707">
        <ele>736.3</ele>
        <time>2026-04-30T13:25:18.000Z</time>
      </trkpt>
      <trkpt lat="43.99079" lon="2.98705">
        <ele>736.4</ele>
        <time>2026-04-30T13:25:19.000Z</time>
      </trkpt>
      <trkpt lat="43.99079" lon="2.98704">
        <ele>736.5</ele>
        <time>2026-04-30T13:25:20.000Z</time>
      </trkpt>
      <trkpt lat="43.9908" lon="2.98703">
        <ele>736.3</ele>
        <time>2026-04-30T13:25:21.000Z</time>
      </trkpt>
      <trkpt lat="43.99081" lon="2.98702">
        <ele>736</ele>
        <time>2026-04-30T13:25:22.000Z</time>
      </trkpt>
      <trkpt lat="43.99081" lon="2.98701">
        <ele>736.5</ele>
        <time>2026-04-30T13:25:23.000Z</time>
      </trkpt>
      <trkpt lat="43.99081" lon="2.987">
        <ele>736.7</ele>
        <time>2026-04-30T13:25:24.000Z</time>
      </trkpt>
      <trkpt lat="43.99081" lon="2.98698">
        <ele>737</ele>
        <time>2026-04-30T13:25:25.000Z</time>
      </trkpt>
      <trkpt lat="43.99082" lon="2.98696">
        <ele>737.1</ele>
        <time>2026-04-30T13:25:26.999Z</time>
      </trkpt>
      <trkpt lat="43.99083" lon="2.98694">
        <ele>737.1</ele>
        <time>2026-04-30T13:25:27.999Z</time>
      </trkpt>
      <trkpt lat="43.99083" lon="2.98693">
        <ele>737</ele>
        <time>2026-04-30T13:25:28.999Z</time>
      </trkpt>
      <trkpt lat="43.99084" lon="2.98692">
        <ele>736.8</ele>
        <time>2026-04-30T13:25:29.999Z</time>
      </trkpt>
      <trkpt lat="43.99085" lon="2.98692">
        <ele>736.9</ele>
        <time>2026-04-30T13:25:30.999Z</time>
      </trkpt>
      <trkpt lat="43.99086" lon="2.9869">
        <ele>736.8</ele>
        <time>2026-04-30T13:25:31.999Z</time>
      </trkpt>
      <trkpt lat="43.99087" lon="2.98689">
        <ele>736.9</ele>
        <time>2026-04-30T13:25:32.999Z</time>
      </trkpt>
      <trkpt lat="43.99088" lon="2.98688">
        <ele>736.8</ele>
        <time>2026-04-30T13:25:33.999Z</time>
      </trkpt>
      <trkpt lat="43.99088" lon="2.98687">
        <ele>737.1</ele>
        <time>2026-04-30T13:25:34.999Z</time>
      </trkpt>
      <trkpt lat="43.99089" lon="2.98686">
        <ele>737</ele>
        <time>2026-04-30T13:25:35.999Z</time>
      </trkpt>
      <trkpt lat="43.99089" lon="2.98685">
        <ele>736.8</ele>
        <time>2026-04-30T13:25:36.999Z</time>
      </trkpt>
      <trkpt lat="43.9909" lon="2.98683">
        <ele>736.2</ele>
        <time>2026-04-30T13:25:37.999Z</time>
      </trkpt>
      <trkpt lat="43.99091" lon="2.98682">
        <ele>736.1</ele>
        <time>2026-04-30T13:25:38.999Z</time>
      </trkpt>
      <trkpt lat="43.99092" lon="2.98682">
        <ele>736.1</ele>
        <time>2026-04-30T13:25:39.999Z</time>
      </trkpt>
      <trkpt lat="43.99092" lon="2.98681">
        <ele>735.9</ele>
        <time>2026-04-30T13:25:40.999Z</time>
      </trkpt>
      <trkpt lat="43.99092" lon="2.98681">
        <ele>735.8</ele>
        <time>2026-04-30T13:25:41.999Z</time>
      </trkpt>
      <trkpt lat="43.99092" lon="2.98682">
        <ele>735.7</ele>
        <time>2026-04-30T13:25:42.999Z</time>
      </trkpt>
      <trkpt lat="43.99091" lon="2.98682">
        <ele>735.5</ele>
        <time>2026-04-30T13:25:43.999Z</time>
      </trkpt>
      <trkpt lat="43.99091" lon="2.98682">
        <ele>735.3</ele>
        <time>2026-04-30T13:25:44.999Z</time>
      </trkpt>
      <trkpt lat="43.99091" lon="2.98682">
        <ele>735.4</ele>
        <time>2026-04-30T13:25:45.999Z</time>
      </trkpt>
      <trkpt lat="43.99091" lon="2.98683">
        <ele>735.5</ele>
        <time>2026-04-30T13:25:46.999Z</time>
      </trkpt>
      <trkpt lat="43.99091" lon="2.98683">
        <ele>735.5</ele>
        <time>2026-04-30T13:25:47.999Z</time>
      </trkpt>
      <trkpt lat="43.99091" lon="2.98683">
        <ele>735.5</ele>
        <time>2026-04-30T13:25:48.999Z</time>
      </trkpt>
      <trkpt lat="43.99091" lon="2.98683">
        <ele>735.2</ele>
        <time>2026-04-30T13:25:49.999Z</time>
      </trkpt>
      <trkpt lat="43.99091" lon="2.98683">
        <ele>735</ele>
        <time>2026-04-30T13:25:50.999Z</time>
      </trkpt>
      <trkpt lat="43.99091" lon="2.98683">
        <ele>734.8</ele>
        <time>2026-04-30T13:25:51.999Z</time>
      </trkpt>
      <trkpt lat="43.99091" lon="2.98683">
        <ele>734.6</ele>
        <time>2026-04-30T13:25:52.999Z</time>
      </trkpt>
      <trkpt lat="43.99091" lon="2.98683">
        <ele>734.7</ele>
        <time>2026-04-30T13:25:53.999Z</time>
      </trkpt>
      <trkpt lat="43.99091" lon="2.98683">
        <ele>734.7</ele>
        <time>2026-04-30T13:25:54.999Z</time>
      </trkpt>
      <trkpt lat="43.99091" lon="2.98683">
        <ele>734.7</ele>
        <time>2026-04-30T13:25:55.999Z</time>
      </trkpt>
      <trkpt lat="43.99091" lon="2.98683">
        <ele>735</ele>
        <time>2026-04-30T13:25:56.999Z</time>
      </trkpt>
      <trkpt lat="43.99091" lon="2.98683">
        <ele>735.3</ele>
        <time>2026-04-30T13:25:57.999Z</time>
      </trkpt>
      <trkpt lat="43.99091" lon="2.98683">
        <ele>735.2</ele>
        <time>2026-04-30T13:25:58.999Z</time>
      </trkpt>
      <trkpt lat="43.99091" lon="2.98683">
        <ele>735.1</ele>
        <time>2026-04-30T13:25:59.999Z</time>
      </trkpt>
      <trkpt lat="43.99091" lon="2.98683">
        <ele>735</ele>
        <time>2026-04-30T13:26:01.999Z</time>
      </trkpt>
      <trkpt lat="43.99091" lon="2.98683">
        <ele>735</ele>
        <time>2026-04-30T13:26:02.999Z</time>
      </trkpt>
      <trkpt lat="43.99091" lon="2.98683">
        <ele>735</ele>
        <time>2026-04-30T13:26:03.999Z</time>
      </trkpt>
      <trkpt lat="43.99091" lon="2.98683">
        <ele>734.9</ele>
        <time>2026-04-30T13:26:04.999Z</time>
      </trkpt>
      <trkpt lat="43.99091" lon="2.98683">
        <ele>735</ele>
        <time>2026-04-30T13:26:05.999Z</time>
      </trkpt>
      <trkpt lat="43.99091" lon="2.98683">
        <ele>735</ele>
        <time>2026-04-30T13:26:06.999Z</time>
      </trkpt>
      <trkpt lat="43.99091" lon="2.98683">
        <ele>735.1</ele>
        <time>2026-04-30T13:26:07.999Z</time>
      </trkpt>
      <trkpt lat="43.99091" lon="2.98683">
        <ele>735</ele>
        <time>2026-04-30T13:26:08.999Z</time>
      </trkpt>
      <trkpt lat="43.99091" lon="2.98683">
        <ele>734.9</ele>
        <time>2026-04-30T13:26:09.999Z</time>
      </trkpt>
      <trkpt lat="43.99091" lon="2.98683">
        <ele>734.8</ele>
        <time>2026-04-30T13:26:10.999Z</time>
      </trkpt>
      <trkpt lat="43.99091" lon="2.98683">
        <ele>734.7</ele>
        <time>2026-04-30T13:26:11.999Z</time>
      </trkpt>
      <trkpt lat="43.99091" lon="2.98683">
        <ele>734.5</ele>
        <time>2026-04-30T13:26:12.999Z</time>
      </trkpt>
      <trkpt lat="43.99091" lon="2.98683">
        <ele>734.5</ele>
        <time>2026-04-30T13:26:13.999Z</time>
      </trkpt>
      <trkpt lat="43.99091" lon="2.98683">
        <ele>734.5</ele>
        <time>2026-04-30T13:26:14.999Z</time>
      </trkpt>
      <trkpt lat="43.99091" lon="2.98683">
        <ele>734.5</ele>
        <time>2026-04-30T13:26:15.999Z</time>
      </trkpt>
      <trkpt lat="43.99091" lon="2.98683">
        <ele>734.6</ele>
        <time>2026-04-30T13:26:16.999Z</time>
      </trkpt>
      <trkpt lat="43.99091" lon="2.98683">
        <ele>734.6</ele>
        <time>2026-04-30T13:26:17.999Z</time>
      </trkpt>
      <trkpt lat="43.99091" lon="2.98683">
        <ele>734.6</ele>
        <time>2026-04-30T13:26:18.999Z</time>
      </trkpt>
      <trkpt lat="43.99091" lon="2.98683">
        <ele>734.6</ele>
        <time>2026-04-30T13:26:19.999Z</time>
      </trkpt>
      <trkpt lat="43.99091" lon="2.98683">
        <ele>734.6</ele>
        <time>2026-04-30T13:26:20.999Z</time>
      </trkpt>
      <trkpt lat="43.99091" lon="2.98683">
        <ele>734.8</ele>
        <time>2026-04-30T13:26:21.999Z</time>
      </trkpt>
      <trkpt lat="43.99091" lon="2.98683">
        <ele>734.7</ele>
        <time>2026-04-30T13:26:22.999Z</time>
      </trkpt>
      <trkpt lat="43.99091" lon="2.98683">
        <ele>734.7</ele>
        <time>2026-04-30T13:26:23.999Z</time>
      </trkpt>
      <trkpt lat="43.99091" lon="2.98682">
        <ele>734.7</ele>
        <time>2026-04-30T13:26:24.999Z</time>
      </trkpt>
      <trkpt lat="43.99091" lon="2.98681">
        <ele>734.6</ele>
        <time>2026-04-30T13:26:25.999Z</time>
      </trkpt>
      <trkpt lat="43.99091" lon="2.9868">
        <ele>734.6</ele>
        <time>2026-04-30T13:26:26.999Z</time>
      </trkpt>
      <trkpt lat="43.99092" lon="2.98679">
        <ele>734.5</ele>
        <time>2026-04-30T13:26:27.999Z</time>
      </trkpt>
      <trkpt lat="43.99093" lon="2.98678">
        <ele>734.4</ele>
        <time>2026-04-30T13:26:28.999Z</time>
      </trkpt>
      <trkpt lat="43.99093" lon="2.98678">
        <ele>734.4</ele>
        <time>2026-04-30T13:26:29.999Z</time>
      </trkpt>
      <trkpt lat="43.99094" lon="2.98677">
        <ele>734.3</ele>
        <time>2026-04-30T13:26:30.999Z</time>
      </trkpt>
      <trkpt lat="43.99094" lon="2.98677">
        <ele>734.4</ele>
        <time>2026-04-30T13:26:31.999Z</time>
      </trkpt>
      <trkpt lat="43.99094" lon="2.98676">
        <ele>734.2</ele>
        <time>2026-04-30T13:26:32.999Z</time>
      </trkpt>
      <trkpt lat="43.99095" lon="2.98676">
        <ele>734</ele>
        <time>2026-04-30T13:26:33.999Z</time>
      </trkpt>
      <trkpt lat="43.99095" lon="2.98675">
        <ele>734.2</ele>
        <time>2026-04-30T13:26:34.999Z</time>
      </trkpt>
      <trkpt lat="43.99095" lon="2.98673">
        <ele>734.6</ele>
        <time>2026-04-30T13:26:35.999Z</time>
      </trkpt>
      <trkpt lat="43.99096" lon="2.98671">
        <ele>734.9</ele>
        <time>2026-04-30T13:26:36.999Z</time>
      </trkpt>
      <trkpt lat="43.99096" lon="2.9867">
        <ele>734.9</ele>
        <time>2026-04-30T13:26:37.999Z</time>
      </trkpt>
      <trkpt lat="43.99096" lon="2.98668">
        <ele>735</ele>
        <time>2026-04-30T13:26:38.999Z</time>
      </trkpt>
      <trkpt lat="43.99096" lon="2.98667">
        <ele>734.8</ele>
        <time>2026-04-30T13:26:39.999Z</time>
      </trkpt>
      <trkpt lat="43.99097" lon="2.98666">
        <ele>734.7</ele>
        <time>2026-04-30T13:26:40.999Z</time>
      </trkpt>
      <trkpt lat="43.99097" lon="2.98666">
        <ele>734.8</ele>
        <time>2026-04-30T13:26:41.999Z</time>
      </trkpt>
      <trkpt lat="43.99097" lon="2.98665">
        <ele>734.8</ele>
        <time>2026-04-30T13:26:42.999Z</time>
      </trkpt>
      <trkpt lat="43.99098" lon="2.98664">
        <ele>734.6</ele>
        <time>2026-04-30T13:26:43.999Z</time>
      </trkpt>
      <trkpt lat="43.991" lon="2.98662">
        <ele>734.6</ele>
        <time>2026-04-30T13:26:44.999Z</time>
      </trkpt>
      <trkpt lat="43.99101" lon="2.98661">
        <ele>734.4</ele>
        <time>2026-04-30T13:26:45.999Z</time>
      </trkpt>
      <trkpt lat="43.99102" lon="2.9866">
        <ele>734.2</ele>
        <time>2026-04-30T13:26:46.999Z</time>
      </trkpt>
      <trkpt lat="43.99102" lon="2.98659">
        <ele>734.2</ele>
        <time>2026-04-30T13:26:47.999Z</time>
      </trkpt>
      <trkpt lat="43.99103" lon="2.98657">
        <ele>733.9</ele>
        <time>2026-04-30T13:26:48.999Z</time>
      </trkpt>
      <trkpt lat="43.99104" lon="2.98656">
        <ele>733.9</ele>
        <time>2026-04-30T13:26:49.999Z</time>
      </trkpt>
      <trkpt lat="43.99106" lon="2.98655">
        <ele>733.6</ele>
        <time>2026-04-30T13:26:50.999Z</time>
      </trkpt>
      <trkpt lat="43.99106" lon="2.98654">
        <ele>733.8</ele>
        <time>2026-04-30T13:26:51.999Z</time>
      </trkpt>
      <trkpt lat="43.99107" lon="2.98654">
        <ele>733.9</ele>
        <time>2026-04-30T13:26:52.999Z</time>
      </trkpt>
      <trkpt lat="43.99107" lon="2.98654">
        <ele>734.1</ele>
        <time>2026-04-30T13:26:53.999Z</time>
      </trkpt>
      <trkpt lat="43.99108" lon="2.98654">
        <ele>733.9</ele>
        <time>2026-04-30T13:26:54.999Z</time>
      </trkpt>
      <trkpt lat="43.99108" lon="2.98654">
        <ele>734.4</ele>
        <time>2026-04-30T13:26:55.999Z</time>
      </trkpt>
      <trkpt lat="43.99108" lon="2.98654">
        <ele>734.6</ele>
        <time>2026-04-30T13:26:56.999Z</time>
      </trkpt>
      <trkpt lat="43.99108" lon="2.98654">
        <ele>734.8</ele>
        <time>2026-04-30T13:26:57.999Z</time>
      </trkpt>
      <trkpt lat="43.99108" lon="2.98654">
        <ele>734.8</ele>
        <time>2026-04-30T13:26:58.999Z</time>
      </trkpt>
      <trkpt lat="43.99108" lon="2.98654">
        <ele>734.9</ele>
        <time>2026-04-30T13:26:59.999Z</time>
      </trkpt>
      <trkpt lat="43.99108" lon="2.98654">
        <ele>734.8</ele>
        <time>2026-04-30T13:27:00.999Z</time>
      </trkpt>
      <trkpt lat="43.99108" lon="2.98654">
        <ele>734.7</ele>
        <time>2026-04-30T13:27:01.999Z</time>
      </trkpt>
      <trkpt lat="43.99108" lon="2.98654">
        <ele>734.9</ele>
        <time>2026-04-30T13:27:02.999Z</time>
      </trkpt>
      <trkpt lat="43.99109" lon="2.98654">
        <ele>735.1</ele>
        <time>2026-04-30T13:27:03.999Z</time>
      </trkpt>
      <trkpt lat="43.99109" lon="2.98654">
        <ele>735.4</ele>
        <time>2026-04-30T13:27:04.999Z</time>
      </trkpt>
      <trkpt lat="43.99109" lon="2.98654">
        <ele>735.4</ele>
        <time>2026-04-30T13:27:05.999Z</time>
      </trkpt>
      <trkpt lat="43.99109" lon="2.98654">
        <ele>735.4</ele>
        <time>2026-04-30T13:27:06.999Z</time>
      </trkpt>
      <trkpt lat="43.99109" lon="2.98654">
        <ele>735.4</ele>
        <time>2026-04-30T13:27:07.999Z</time>
      </trkpt>
      <trkpt lat="43.9911" lon="2.98654">
        <ele>735.2</ele>
        <time>2026-04-30T13:27:08.999Z</time>
      </trkpt>
      <trkpt lat="43.99111" lon="2.98652">
        <ele>735.4</ele>
        <time>2026-04-30T13:27:09.999Z</time>
      </trkpt>
      <trkpt lat="43.99112" lon="2.98651">
        <ele>735.5</ele>
        <time>2026-04-30T13:27:10.999Z</time>
      </trkpt>
      <trkpt lat="43.99112" lon="2.9865">
        <ele>735.4</ele>
        <time>2026-04-30T13:27:11.999Z</time>
      </trkpt>
      <trkpt lat="43.99113" lon="2.98648">
        <ele>735.3</ele>
        <time>2026-04-30T13:27:12.999Z</time>
      </trkpt>
      <trkpt lat="43.99114" lon="2.98646">
        <ele>735.2</ele>
        <time>2026-04-30T13:27:13.999Z</time>
      </trkpt>
      <trkpt lat="43.99115" lon="2.98645">
        <ele>735.2</ele>
        <time>2026-04-30T13:27:14.999Z</time>
      </trkpt>
      <trkpt lat="43.99116" lon="2.98643">
        <ele>735.4</ele>
        <time>2026-04-30T13:27:15.999Z</time>
      </trkpt>
      <trkpt lat="43.99117" lon="2.98641">
        <ele>735.4</ele>
        <time>2026-04-30T13:27:16.999Z</time>
      </trkpt>
      <trkpt lat="43.99118" lon="2.98639">
        <ele>735.4</ele>
        <time>2026-04-30T13:27:17.999Z</time>
      </trkpt>
      <trkpt lat="43.99119" lon="2.98638">
        <ele>735.4</ele>
        <time>2026-04-30T13:27:18.999Z</time>
      </trkpt>
      <trkpt lat="43.9912" lon="2.98637">
        <ele>735.8</ele>
        <time>2026-04-30T13:27:19.999Z</time>
      </trkpt>
      <trkpt lat="43.99121" lon="2.98637">
        <ele>735.8</ele>
        <time>2026-04-30T13:27:20.999Z</time>
      </trkpt>
      <trkpt lat="43.99121" lon="2.98637">
        <ele>736.1</ele>
        <time>2026-04-30T13:27:21.999Z</time>
      </trkpt>
      <trkpt lat="43.99122" lon="2.98637">
        <ele>736.3</ele>
        <time>2026-04-30T13:27:22.999Z</time>
      </trkpt>
      <trkpt lat="43.99123" lon="2.98636">
        <ele>736.3</ele>
        <time>2026-04-30T13:27:23.999Z</time>
      </trkpt>
      <trkpt lat="43.99124" lon="2.98634">
        <ele>736.2</ele>
        <time>2026-04-30T13:27:24.999Z</time>
      </trkpt>
      <trkpt lat="43.99125" lon="2.98633">
        <ele>735.9</ele>
        <time>2026-04-30T13:27:25.999Z</time>
      </trkpt>
      <trkpt lat="43.99126" lon="2.98631">
        <ele>735.6</ele>
        <time>2026-04-30T13:27:26.999Z</time>
      </trkpt>
      <trkpt lat="43.99127" lon="2.9863">
        <ele>735.3</ele>
        <time>2026-04-30T13:27:27.999Z</time>
      </trkpt>
      <trkpt lat="43.99128" lon="2.98628">
        <ele>735.2</ele>
        <time>2026-04-30T13:27:28.999Z</time>
      </trkpt>
      <trkpt lat="43.99129" lon="2.98627">
        <ele>735</ele>
        <time>2026-04-30T13:27:29.999Z</time>
      </trkpt>
      <trkpt lat="43.99131" lon="2.98626">
        <ele>734.9</ele>
        <time>2026-04-30T13:27:31.999Z</time>
      </trkpt>
      <trkpt lat="43.99131" lon="2.98625">
        <ele>734.9</ele>
        <time>2026-04-30T13:27:32.999Z</time>
      </trkpt>
      <trkpt lat="43.99132" lon="2.98625">
        <ele>734.7</ele>
        <time>2026-04-30T13:27:33.999Z</time>
      </trkpt>
      <trkpt lat="43.99133" lon="2.98624">
        <ele>734.6</ele>
        <time>2026-04-30T13:27:34.999Z</time>
      </trkpt>
      <trkpt lat="43.99134" lon="2.98624">
        <ele>734</ele>
        <time>2026-04-30T13:27:35.999Z</time>
      </trkpt>
      <trkpt lat="43.99136" lon="2.98623">
        <ele>733.6</ele>
        <time>2026-04-30T13:27:36.999Z</time>
      </trkpt>
      <trkpt lat="43.99137" lon="2.98623">
        <ele>733.3</ele>
        <time>2026-04-30T13:27:37.999Z</time>
      </trkpt>
      <trkpt lat="43.99138" lon="2.98623">
        <ele>733.3</ele>
        <time>2026-04-30T13:27:38.999Z</time>
      </trkpt>
      <trkpt lat="43.99139" lon="2.98622">
        <ele>733</ele>
        <time>2026-04-30T13:27:39.999Z</time>
      </trkpt>
      <trkpt lat="43.9914" lon="2.98621">
        <ele>733.1</ele>
        <time>2026-04-30T13:27:40.999Z</time>
      </trkpt>
      <trkpt lat="43.9914" lon="2.9862">
        <ele>733.2</ele>
        <time>2026-04-30T13:27:41.999Z</time>
      </trkpt>
      <trkpt lat="43.99141" lon="2.9862">
        <ele>732.7</ele>
        <time>2026-04-30T13:27:42.999Z</time>
      </trkpt>
      <trkpt lat="43.99141" lon="2.98619">
        <ele>732.1</ele>
        <time>2026-04-30T13:27:43.999Z</time>
      </trkpt>
      <trkpt lat="43.99142" lon="2.98618">
        <ele>732</ele>
        <time>2026-04-30T13:27:44.999Z</time>
      </trkpt>
      <trkpt lat="43.99143" lon="2.98617">
        <ele>731.9</ele>
        <time>2026-04-30T13:27:45.999Z</time>
      </trkpt>
      <trkpt lat="43.99143" lon="2.98617">
        <ele>732.1</ele>
        <time>2026-04-30T13:27:46.999Z</time>
      </trkpt>
      <trkpt lat="43.99143" lon="2.98616">
        <ele>732</ele>
        <time>2026-04-30T13:27:47.999Z</time>
      </trkpt>
      <trkpt lat="43.99143" lon="2.98615">
        <ele>731.9</ele>
        <time>2026-04-30T13:27:48.999Z</time>
      </trkpt>
      <trkpt lat="43.99144" lon="2.98613">
        <ele>731.9</ele>
        <time>2026-04-30T13:27:49.999Z</time>
      </trkpt>
      <trkpt lat="43.99144" lon="2.98611">
        <ele>732.1</ele>
        <time>2026-04-30T13:27:50.999Z</time>
      </trkpt>
      <trkpt lat="43.99144" lon="2.98609">
        <ele>732.1</ele>
        <time>2026-04-30T13:27:51.999Z</time>
      </trkpt>
      <trkpt lat="43.99144" lon="2.98607">
        <ele>732.2</ele>
        <time>2026-04-30T13:27:52.999Z</time>
      </trkpt>
      <trkpt lat="43.99144" lon="2.98606">
        <ele>732.4</ele>
        <time>2026-04-30T13:27:53.999Z</time>
      </trkpt>
      <trkpt lat="43.99145" lon="2.98605">
        <ele>732.9</ele>
        <time>2026-04-30T13:27:54.999Z</time>
      </trkpt>
      <trkpt lat="43.99145" lon="2.98603">
        <ele>733.1</ele>
        <time>2026-04-30T13:27:55.999Z</time>
      </trkpt>
      <trkpt lat="43.99146" lon="2.98602">
        <ele>733.1</ele>
        <time>2026-04-30T13:27:56.999Z</time>
      </trkpt>
      <trkpt lat="43.99147" lon="2.98601">
        <ele>733</ele>
        <time>2026-04-30T13:27:57.999Z</time>
      </trkpt>
      <trkpt lat="43.99147" lon="2.98599">
        <ele>733.1</ele>
        <time>2026-04-30T13:27:58.999Z</time>
      </trkpt>
      <trkpt lat="43.99148" lon="2.98598">
        <ele>732.4</ele>
        <time>2026-04-30T13:27:59.999Z</time>
      </trkpt>
      <trkpt lat="43.99149" lon="2.98597">
        <ele>732.1</ele>
        <time>2026-04-30T13:28:00.999Z</time>
      </trkpt>
      <trkpt lat="43.99149" lon="2.98596">
        <ele>732.2</ele>
        <time>2026-04-30T13:28:01.999Z</time>
      </trkpt>
      <trkpt lat="43.99149" lon="2.98595">
        <ele>731.9</ele>
        <time>2026-04-30T13:28:02.999Z</time>
      </trkpt>
      <trkpt lat="43.99149" lon="2.98594">
        <ele>731.8</ele>
        <time>2026-04-30T13:28:03.999Z</time>
      </trkpt>
      <trkpt lat="43.9915" lon="2.98593">
        <ele>731.7</ele>
        <time>2026-04-30T13:28:04.999Z</time>
      </trkpt>
      <trkpt lat="43.99151" lon="2.98592">
        <ele>731.7</ele>
        <time>2026-04-30T13:28:05.999Z</time>
      </trkpt>
      <trkpt lat="43.99151" lon="2.98591">
        <ele>732</ele>
        <time>2026-04-30T13:28:06.999Z</time>
      </trkpt>
      <trkpt lat="43.99151" lon="2.98589">
        <ele>731.4</ele>
        <time>2026-04-30T13:28:07.999Z</time>
      </trkpt>
      <trkpt lat="43.99151" lon="2.98587">
        <ele>731.5</ele>
        <time>2026-04-30T13:28:08.999Z</time>
      </trkpt>
      <trkpt lat="43.99152" lon="2.98585">
        <ele>731.4</ele>
        <time>2026-04-30T13:28:09.999Z</time>
      </trkpt>
      <trkpt lat="43.99153" lon="2.98584">
        <ele>732</ele>
        <time>2026-04-30T13:28:10.999Z</time>
      </trkpt>
      <trkpt lat="43.99155" lon="2.98583">
        <ele>731.8</ele>
        <time>2026-04-30T13:28:11.999Z</time>
      </trkpt>
      <trkpt lat="43.99156" lon="2.98581">
        <ele>731.7</ele>
        <time>2026-04-30T13:28:12.999Z</time>
      </trkpt>
      <trkpt lat="43.99158" lon="2.98581">
        <ele>732.1</ele>
        <time>2026-04-30T13:28:13.999Z</time>
      </trkpt>
      <trkpt lat="43.99159" lon="2.9858">
        <ele>731.8</ele>
        <time>2026-04-30T13:28:14.999Z</time>
      </trkpt>
      <trkpt lat="43.99159" lon="2.98578">
        <ele>731.4</ele>
        <time>2026-04-30T13:28:15.999Z</time>
      </trkpt>
      <trkpt lat="43.9916" lon="2.98576">
        <ele>731.5</ele>
        <time>2026-04-30T13:28:16.999Z</time>
      </trkpt>
      <trkpt lat="43.99161" lon="2.98574">
        <ele>731.5</ele>
        <time>2026-04-30T13:28:17.999Z</time>
      </trkpt>
      <trkpt lat="43.99162" lon="2.98573">
        <ele>731.6</ele>
        <time>2026-04-30T13:28:18.999Z</time>
      </trkpt>
      <trkpt lat="43.99161" lon="2.98571">
        <ele>731.4</ele>
        <time>2026-04-30T13:28:19.999Z</time>
      </trkpt>
      <trkpt lat="43.99161" lon="2.9857">
        <ele>731.4</ele>
        <time>2026-04-30T13:28:20.999Z</time>
      </trkpt>
      <trkpt lat="43.99161" lon="2.9857">
        <ele>731.3</ele>
        <time>2026-04-30T13:28:21.999Z</time>
      </trkpt>
      <trkpt lat="43.99161" lon="2.98568">
        <ele>731.2</ele>
        <time>2026-04-30T13:28:22.999Z</time>
      </trkpt>
      <trkpt lat="43.99161" lon="2.98567">
        <ele>730.8</ele>
        <time>2026-04-30T13:28:23.999Z</time>
      </trkpt>
      <trkpt lat="43.99162" lon="2.98565">
        <ele>730.9</ele>
        <time>2026-04-30T13:28:24.999Z</time>
      </trkpt>
      <trkpt lat="43.99162" lon="2.98564">
        <ele>731.2</ele>
        <time>2026-04-30T13:28:25.999Z</time>
      </trkpt>
      <trkpt lat="43.99162" lon="2.98563">
        <ele>731.3</ele>
        <time>2026-04-30T13:28:26.999Z</time>
      </trkpt>
      <trkpt lat="43.99163" lon="2.98562">
        <ele>731.3</ele>
        <time>2026-04-30T13:28:27.999Z</time>
      </trkpt>
      <trkpt lat="43.99163" lon="2.98561">
        <ele>731.3</ele>
        <time>2026-04-30T13:28:28.999Z</time>
      </trkpt>
      <trkpt lat="43.99164" lon="2.98559">
        <ele>731.5</ele>
        <time>2026-04-30T13:28:29.999Z</time>
      </trkpt>
      <trkpt lat="43.99165" lon="2.98557">
        <ele>732.5</ele>
        <time>2026-04-30T13:28:30.999Z</time>
      </trkpt>
      <trkpt lat="43.99166" lon="2.98555">
        <ele>732.6</ele>
        <time>2026-04-30T13:28:31.999Z</time>
      </trkpt>
      <trkpt lat="43.99167" lon="2.98553">
        <ele>732.6</ele>
        <time>2026-04-30T13:28:32.999Z</time>
      </trkpt>
      <trkpt lat="43.99168" lon="2.98551">
        <ele>732.5</ele>
        <time>2026-04-30T13:28:33.999Z</time>
      </trkpt>
      <trkpt lat="43.99168" lon="2.9855">
        <ele>732.8</ele>
        <time>2026-04-30T13:28:34.999Z</time>
      </trkpt>
      <trkpt lat="43.99168" lon="2.98549">
        <ele>732.7</ele>
        <time>2026-04-30T13:28:35.999Z</time>
      </trkpt>
      <trkpt lat="43.99168" lon="2.98547">
        <ele>732.8</ele>
        <time>2026-04-30T13:28:36.999Z</time>
      </trkpt>
      <trkpt lat="43.99168" lon="2.98546">
        <ele>732.6</ele>
        <time>2026-04-30T13:28:37.999Z</time>
      </trkpt>
      <trkpt lat="43.99168" lon="2.98545">
        <ele>732.9</ele>
        <time>2026-04-30T13:28:38.999Z</time>
      </trkpt>
      <trkpt lat="43.99169" lon="2.98544">
        <ele>733</ele>
        <time>2026-04-30T13:28:39.999Z</time>
      </trkpt>
      <trkpt lat="43.99168" lon="2.98542">
        <ele>733.2</ele>
        <time>2026-04-30T13:28:40.999Z</time>
      </trkpt>
      <trkpt lat="43.99168" lon="2.98542">
        <ele>733.8</ele>
        <time>2026-04-30T13:28:41.999Z</time>
      </trkpt>
      <trkpt lat="43.99167" lon="2.98542">
        <ele>734.1</ele>
        <time>2026-04-30T13:28:42.999Z</time>
      </trkpt>
      <trkpt lat="43.99167" lon="2.98542">
        <ele>734.5</ele>
        <time>2026-04-30T13:28:43.999Z</time>
      </trkpt>
      <trkpt lat="43.99167" lon="2.98541">
        <ele>734.6</ele>
        <time>2026-04-30T13:28:44.999Z</time>
      </trkpt>
      <trkpt lat="43.99169" lon="2.9854">
        <ele>734.3</ele>
        <time>2026-04-30T13:28:45.999Z</time>
      </trkpt>
      <trkpt lat="43.99169" lon="2.98538">
        <ele>734.2</ele>
        <time>2026-04-30T13:28:46.999Z</time>
      </trkpt>
      <trkpt lat="43.9917" lon="2.98537">
        <ele>734.3</ele>
        <time>2026-04-30T13:28:47.999Z</time>
      </trkpt>
      <trkpt lat="43.99171" lon="2.98535">
        <ele>734.2</ele>
        <time>2026-04-30T13:28:48.999Z</time>
      </trkpt>
      <trkpt lat="43.99171" lon="2.98534">
        <ele>734.3</ele>
        <time>2026-04-30T13:28:49.999Z</time>
      </trkpt>
      <trkpt lat="43.99171" lon="2.98533">
        <ele>734.4</ele>
        <time>2026-04-30T13:28:50.999Z</time>
      </trkpt>
      <trkpt lat="43.99173" lon="2.98531">
        <ele>734.8</ele>
        <time>2026-04-30T13:28:51.999Z</time>
      </trkpt>
      <trkpt lat="43.99174" lon="2.9853">
        <ele>735</ele>
        <time>2026-04-30T13:28:52.999Z</time>
      </trkpt>
      <trkpt lat="43.99174" lon="2.98529">
        <ele>735.4</ele>
        <time>2026-04-30T13:28:53.999Z</time>
      </trkpt>
      <trkpt lat="43.99174" lon="2.98528">
        <ele>735.3</ele>
        <time>2026-04-30T13:28:54.999Z</time>
      </trkpt>
      <trkpt lat="43.99175" lon="2.98527">
        <ele>735.1</ele>
        <time>2026-04-30T13:28:55.999Z</time>
      </trkpt>
      <trkpt lat="43.99175" lon="2.98526">
        <ele>735</ele>
        <time>2026-04-30T13:28:56.999Z</time>
      </trkpt>
      <trkpt lat="43.99175" lon="2.98524">
        <ele>735.1</ele>
        <time>2026-04-30T13:28:57.999Z</time>
      </trkpt>
      <trkpt lat="43.99175" lon="2.98523">
        <ele>735.5</ele>
        <time>2026-04-30T13:28:58.999Z</time>
      </trkpt>
      <trkpt lat="43.99175" lon="2.98521">
        <ele>735.6</ele>
        <time>2026-04-30T13:28:59.999Z</time>
      </trkpt>
      <trkpt lat="43.99175" lon="2.9852">
        <ele>735.5</ele>
        <time>2026-04-30T13:29:00.999Z</time>
      </trkpt>
      <trkpt lat="43.99175" lon="2.98519">
        <ele>735.5</ele>
        <time>2026-04-30T13:29:01.999Z</time>
      </trkpt>
      <trkpt lat="43.99175" lon="2.98517">
        <ele>735.6</ele>
        <time>2026-04-30T13:29:02.999Z</time>
      </trkpt>
      <trkpt lat="43.99175" lon="2.98516">
        <ele>735.7</ele>
        <time>2026-04-30T13:29:03.999Z</time>
      </trkpt>
      <trkpt lat="43.99175" lon="2.98515">
        <ele>735</ele>
        <time>2026-04-30T13:29:04.999Z</time>
      </trkpt>
      <trkpt lat="43.99175" lon="2.98514">
        <ele>734.8</ele>
        <time>2026-04-30T13:29:05.999Z</time>
      </trkpt>
      <trkpt lat="43.99174" lon="2.98512">
        <ele>734.9</ele>
        <time>2026-04-30T13:29:06.999Z</time>
      </trkpt>
      <trkpt lat="43.99174" lon="2.9851">
        <ele>735.1</ele>
        <time>2026-04-30T13:29:07.999Z</time>
      </trkpt>
      <trkpt lat="43.99175" lon="2.98509">
        <ele>735.3</ele>
        <time>2026-04-30T13:29:08.999Z</time>
      </trkpt>
      <trkpt lat="43.99175" lon="2.98508">
        <ele>735.4</ele>
        <time>2026-04-30T13:29:09.999Z</time>
      </trkpt>
      <trkpt lat="43.99175" lon="2.98507">
        <ele>735.4</ele>
        <time>2026-04-30T13:29:10.999Z</time>
      </trkpt>
      <trkpt lat="43.99177" lon="2.98506">
        <ele>735.7</ele>
        <time>2026-04-30T13:29:11.999Z</time>
      </trkpt>
      <trkpt lat="43.99178" lon="2.98505">
        <ele>735.6</ele>
        <time>2026-04-30T13:29:12.999Z</time>
      </trkpt>
      <trkpt lat="43.99179" lon="2.98504">
        <ele>735.8</ele>
        <time>2026-04-30T13:29:13.999Z</time>
      </trkpt>
      <trkpt lat="43.9918" lon="2.98503">
        <ele>736.5</ele>
        <time>2026-04-30T13:29:14.999Z</time>
      </trkpt>
      <trkpt lat="43.99181" lon="2.98501">
        <ele>736.6</ele>
        <time>2026-04-30T13:29:15.999Z</time>
      </trkpt>
      <trkpt lat="43.99183" lon="2.985">
        <ele>736.6</ele>
        <time>2026-04-30T13:29:16.999Z</time>
      </trkpt>
      <trkpt lat="43.99183" lon="2.98498">
        <ele>736.8</ele>
        <time>2026-04-30T13:29:17.999Z</time>
      </trkpt>
      <trkpt lat="43.99183" lon="2.98497">
        <ele>736.9</ele>
        <time>2026-04-30T13:29:18.999Z</time>
      </trkpt>
      <trkpt lat="43.99184" lon="2.98496">
        <ele>736.8</ele>
        <time>2026-04-30T13:29:19.999Z</time>
      </trkpt>
      <trkpt lat="43.99184" lon="2.98495">
        <ele>737</ele>
        <time>2026-04-30T13:29:20.999Z</time>
      </trkpt>
      <trkpt lat="43.99185" lon="2.98494">
        <ele>737</ele>
        <time>2026-04-30T13:29:21.999Z</time>
      </trkpt>
      <trkpt lat="43.99185" lon="2.98493">
        <ele>737.2</ele>
        <time>2026-04-30T13:29:22.999Z</time>
      </trkpt>
      <trkpt lat="43.99185" lon="2.98492">
        <ele>737.2</ele>
        <time>2026-04-30T13:29:23.999Z</time>
      </trkpt>
      <trkpt lat="43.99185" lon="2.9849">
        <ele>736.9</ele>
        <time>2026-04-30T13:29:24.999Z</time>
      </trkpt>
      <trkpt lat="43.99185" lon="2.98489">
        <ele>736.4</ele>
        <time>2026-04-30T13:29:25.999Z</time>
      </trkpt>
      <trkpt lat="43.99184" lon="2.98487">
        <ele>736.2</ele>
        <time>2026-04-30T13:29:26.999Z</time>
      </trkpt>
      <trkpt lat="43.99185" lon="2.98485">
        <ele>736.1</ele>
        <time>2026-04-30T13:29:27.999Z</time>
      </trkpt>
      <trkpt lat="43.99185" lon="2.98483">
        <ele>736.2</ele>
        <time>2026-04-30T13:29:28.999Z</time>
      </trkpt>
      <trkpt lat="43.99185" lon="2.98483">
        <ele>736.2</ele>
        <time>2026-04-30T13:29:29.999Z</time>
      </trkpt>
      <trkpt lat="43.99186" lon="2.98482">
        <ele>736.3</ele>
        <time>2026-04-30T13:29:30.999Z</time>
      </trkpt>
      <trkpt lat="43.99187" lon="2.98481">
        <ele>736.7</ele>
        <time>2026-04-30T13:29:31.999Z</time>
      </trkpt>
      <trkpt lat="43.99187" lon="2.98479">
        <ele>737</ele>
        <time>2026-04-30T13:29:32.999Z</time>
      </trkpt>
      <trkpt lat="43.99188" lon="2.98478">
        <ele>737</ele>
        <time>2026-04-30T13:29:33.999Z</time>
      </trkpt>
      <trkpt lat="43.99189" lon="2.98476">
        <ele>737.2</ele>
        <time>2026-04-30T13:29:34.999Z</time>
      </trkpt>
      <trkpt lat="43.99189" lon="2.98474">
        <ele>737</ele>
        <time>2026-04-30T13:29:35.999Z</time>
      </trkpt>
      <trkpt lat="43.9919" lon="2.98473">
        <ele>736.5</ele>
        <time>2026-04-30T13:29:36.999Z</time>
      </trkpt>
      <trkpt lat="43.99191" lon="2.98472">
        <ele>736.1</ele>
        <time>2026-04-30T13:29:37.999Z</time>
      </trkpt>
      <trkpt lat="43.99192" lon="2.98471">
        <ele>736.4</ele>
        <time>2026-04-30T13:29:38.999Z</time>
      </trkpt>
      <trkpt lat="43.99192" lon="2.9847">
        <ele>736.7</ele>
        <time>2026-04-30T13:29:39.999Z</time>
      </trkpt>
      <trkpt lat="43.99192" lon="2.9847">
        <ele>736.9</ele>
        <time>2026-04-30T13:29:40.999Z</time>
      </trkpt>
      <trkpt lat="43.99193" lon="2.98469">
        <ele>736.7</ele>
        <time>2026-04-30T13:29:41.999Z</time>
      </trkpt>
      <trkpt lat="43.99193" lon="2.98467">
        <ele>736.6</ele>
        <time>2026-04-30T13:29:42.999Z</time>
      </trkpt>
      <trkpt lat="43.99194" lon="2.98465">
        <ele>736.6</ele>
        <time>2026-04-30T13:29:43.999Z</time>
      </trkpt>
      <trkpt lat="43.99194" lon="2.98464">
        <ele>736.2</ele>
        <time>2026-04-30T13:29:44.999Z</time>
      </trkpt>
      <trkpt lat="43.99194" lon="2.98463">
        <ele>736.2</ele>
        <time>2026-04-30T13:29:45.999Z</time>
      </trkpt>
      <trkpt lat="43.99194" lon="2.98462">
        <ele>736.6</ele>
        <time>2026-04-30T13:29:46.999Z</time>
      </trkpt>
      <trkpt lat="43.99195" lon="2.98461">
        <ele>737</ele>
        <time>2026-04-30T13:29:47.999Z</time>
      </trkpt>
      <trkpt lat="43.99195" lon="2.9846">
        <ele>737.3</ele>
        <time>2026-04-30T13:29:48.999Z</time>
      </trkpt>
      <trkpt lat="43.99196" lon="2.98459">
        <ele>737.4</ele>
        <time>2026-04-30T13:29:49.999Z</time>
      </trkpt>
      <trkpt lat="43.99196" lon="2.98458">
        <ele>738</ele>
        <time>2026-04-30T13:29:50.999Z</time>
      </trkpt>
      <trkpt lat="43.99197" lon="2.98457">
        <ele>738.3</ele>
        <time>2026-04-30T13:29:51.999Z</time>
      </trkpt>
      <trkpt lat="43.99199" lon="2.98457">
        <ele>738.2</ele>
        <time>2026-04-30T13:29:52.999Z</time>
      </trkpt>
      <trkpt lat="43.99199" lon="2.98457">
        <ele>738.5</ele>
        <time>2026-04-30T13:29:53.999Z</time>
      </trkpt>
      <trkpt lat="43.992" lon="2.98456">
        <ele>738.6</ele>
        <time>2026-04-30T13:29:54.999Z</time>
      </trkpt>
      <trkpt lat="43.992" lon="2.98455">
        <ele>738.6</ele>
        <time>2026-04-30T13:29:55.999Z</time>
      </trkpt>
      <trkpt lat="43.99201" lon="2.98453">
        <ele>738.3</ele>
        <time>2026-04-30T13:29:56.999Z</time>
      </trkpt>
      <trkpt lat="43.99202" lon="2.98452">
        <ele>738.2</ele>
        <time>2026-04-30T13:29:57.999Z</time>
      </trkpt>
      <trkpt lat="43.99203" lon="2.98451">
        <ele>738.3</ele>
        <time>2026-04-30T13:29:58.999Z</time>
      </trkpt>
      <trkpt lat="43.99203" lon="2.9845">
        <ele>738.5</ele>
        <time>2026-04-30T13:29:59.999Z</time>
      </trkpt>
      <trkpt lat="43.99203" lon="2.98449">
        <ele>738.2</ele>
        <time>2026-04-30T13:30:00.999Z</time>
      </trkpt>
      <trkpt lat="43.99203" lon="2.98448">
        <ele>738.3</ele>
        <time>2026-04-30T13:30:01.999Z</time>
      </trkpt>
      <trkpt lat="43.99203" lon="2.98447">
        <ele>738.4</ele>
        <time>2026-04-30T13:30:02.999Z</time>
      </trkpt>
      <trkpt lat="43.99203" lon="2.98447">
        <ele>738.8</ele>
        <time>2026-04-30T13:30:03.999Z</time>
      </trkpt>
      <trkpt lat="43.99205" lon="2.98446">
        <ele>739.2</ele>
        <time>2026-04-30T13:30:04.999Z</time>
      </trkpt>
      <trkpt lat="43.99206" lon="2.98445">
        <ele>739</ele>
        <time>2026-04-30T13:30:05.999Z</time>
      </trkpt>
      <trkpt lat="43.99206" lon="2.98445">
        <ele>738.9</ele>
        <time>2026-04-30T13:30:06.999Z</time>
      </trkpt>
      <trkpt lat="43.99207" lon="2.98445">
        <ele>738.6</ele>
        <time>2026-04-30T13:30:07.999Z</time>
      </trkpt>
      <trkpt lat="43.99209" lon="2.98444">
        <ele>738.3</ele>
        <time>2026-04-30T13:30:08.999Z</time>
      </trkpt>
      <trkpt lat="43.9921" lon="2.98444">
        <ele>738</ele>
        <time>2026-04-30T13:30:09.999Z</time>
      </trkpt>
      <trkpt lat="43.99211" lon="2.98443">
        <ele>737.8</ele>
        <time>2026-04-30T13:30:10.999Z</time>
      </trkpt>
      <trkpt lat="43.99212" lon="2.98441">
        <ele>737.8</ele>
        <time>2026-04-30T13:30:11.999Z</time>
      </trkpt>
      <trkpt lat="43.99212" lon="2.9844">
        <ele>738</ele>
        <time>2026-04-30T13:30:12.999Z</time>
      </trkpt>
      <trkpt lat="43.99213" lon="2.98439">
        <ele>738</ele>
        <time>2026-04-30T13:30:13.999Z</time>
      </trkpt>
      <trkpt lat="43.99214" lon="2.98437">
        <ele>737.7</ele>
        <time>2026-04-30T13:30:14.999Z</time>
      </trkpt>
      <trkpt lat="43.99214" lon="2.98436">
        <ele>737.3</ele>
        <time>2026-04-30T13:30:15.999Z</time>
      </trkpt>
      <trkpt lat="43.99214" lon="2.98436">
        <ele>737.4</ele>
        <time>2026-04-30T13:30:16.999Z</time>
      </trkpt>
      <trkpt lat="43.99214" lon="2.98435">
        <ele>737.6</ele>
        <time>2026-04-30T13:30:17.999Z</time>
      </trkpt>
      <trkpt lat="43.99215" lon="2.98434">
        <ele>737.8</ele>
        <time>2026-04-30T13:30:18.999Z</time>
      </trkpt>
      <trkpt lat="43.99215" lon="2.98433">
        <ele>737.8</ele>
        <time>2026-04-30T13:30:19.999Z</time>
      </trkpt>
      <trkpt lat="43.99216" lon="2.98432">
        <ele>737.6</ele>
        <time>2026-04-30T13:30:20.999Z</time>
      </trkpt>
      <trkpt lat="43.99217" lon="2.98431">
        <ele>737.4</ele>
        <time>2026-04-30T13:30:21.999Z</time>
      </trkpt>
      <trkpt lat="43.99217" lon="2.9843">
        <ele>737.3</ele>
        <time>2026-04-30T13:30:22.999Z</time>
      </trkpt>
      <trkpt lat="43.99218" lon="2.98428">
        <ele>737.6</ele>
        <time>2026-04-30T13:30:23.999Z</time>
      </trkpt>
      <trkpt lat="43.99219" lon="2.98427">
        <ele>737.4</ele>
        <time>2026-04-30T13:30:24.999Z</time>
      </trkpt>
      <trkpt lat="43.9922" lon="2.98425">
        <ele>737.5</ele>
        <time>2026-04-30T13:30:25.999Z</time>
      </trkpt>
      <trkpt lat="43.9922" lon="2.98424">
        <ele>737.7</ele>
        <time>2026-04-30T13:30:26.999Z</time>
      </trkpt>
      <trkpt lat="43.9922" lon="2.98423">
        <ele>738.1</ele>
        <time>2026-04-30T13:30:27.999Z</time>
      </trkpt>
      <trkpt lat="43.9922" lon="2.98422">
        <ele>738.4</ele>
        <time>2026-04-30T13:30:28.999Z</time>
      </trkpt>
      <trkpt lat="43.99221" lon="2.98421">
        <ele>738.3</ele>
        <time>2026-04-30T13:30:29.999Z</time>
      </trkpt>
      <trkpt lat="43.99222" lon="2.9842">
        <ele>737.9</ele>
        <time>2026-04-30T13:30:30.999Z</time>
      </trkpt>
      <trkpt lat="43.99223" lon="2.98419">
        <ele>737.8</ele>
        <time>2026-04-30T13:30:31.999Z</time>
      </trkpt>
      <trkpt lat="43.99225" lon="2.98419">
        <ele>737.4</ele>
        <time>2026-04-30T13:30:32.999Z</time>
      </trkpt>
      <trkpt lat="43.99226" lon="2.98419">
        <ele>737.1</ele>
        <time>2026-04-30T13:30:33.999Z</time>
      </trkpt>
      <trkpt lat="43.99226" lon="2.9842">
        <ele>737.2</ele>
        <time>2026-04-30T13:30:34.999Z</time>
      </trkpt>
      <trkpt lat="43.99227" lon="2.9842">
        <ele>737.6</ele>
        <time>2026-04-30T13:30:35.999Z</time>
      </trkpt>
      <trkpt lat="43.99228" lon="2.98421">
        <ele>737.8</ele>
        <time>2026-04-30T13:30:36.999Z</time>
      </trkpt>
      <trkpt lat="43.99228" lon="2.98421">
        <ele>738</ele>
        <time>2026-04-30T13:30:37.999Z</time>
      </trkpt>
      <trkpt lat="43.99228" lon="2.98422">
        <ele>737.9</ele>
        <time>2026-04-30T13:30:38.999Z</time>
      </trkpt>
      <trkpt lat="43.99228" lon="2.98422">
        <ele>737.7</ele>
        <time>2026-04-30T13:30:39.999Z</time>
      </trkpt>
      <trkpt lat="43.99228" lon="2.98423">
        <ele>737.7</ele>
        <time>2026-04-30T13:30:40.999Z</time>
      </trkpt>
      <trkpt lat="43.99228" lon="2.98424">
        <ele>737.7</ele>
        <time>2026-04-30T13:30:41.999Z</time>
      </trkpt>
      <trkpt lat="43.99228" lon="2.98425">
        <ele>737.6</ele>
        <time>2026-04-30T13:30:42.999Z</time>
      </trkpt>
      <trkpt lat="43.99229" lon="2.98425">
        <ele>737.3</ele>
        <time>2026-04-30T13:30:43.999Z</time>
      </trkpt>
      <trkpt lat="43.99229" lon="2.98426">
        <ele>737.3</ele>
        <time>2026-04-30T13:30:44.999Z</time>
      </trkpt>
      <trkpt lat="43.9923" lon="2.98427">
        <ele>737</ele>
        <time>2026-04-30T13:30:45.999Z</time>
      </trkpt>
      <trkpt lat="43.9923" lon="2.98429">
        <ele>736.6</ele>
        <time>2026-04-30T13:30:46.999Z</time>
      </trkpt>
      <trkpt lat="43.99231" lon="2.98429">
        <ele>736.6</ele>
        <time>2026-04-30T13:30:47.999Z</time>
      </trkpt>
      <trkpt lat="43.99232" lon="2.9843">
        <ele>736.4</ele>
        <time>2026-04-30T13:30:48.999Z</time>
      </trkpt>
      <trkpt lat="43.99233" lon="2.98432">
        <ele>736.5</ele>
        <time>2026-04-30T13:30:49.999Z</time>
      </trkpt>
      <trkpt lat="43.99234" lon="2.98433">
        <ele>736.5</ele>
        <time>2026-04-30T13:30:50.999Z</time>
      </trkpt>
      <trkpt lat="43.99234" lon="2.98433">
        <ele>736.1</ele>
        <time>2026-04-30T13:30:51.999Z</time>
      </trkpt>
      <trkpt lat="43.99235" lon="2.98435">
        <ele>735.8</ele>
        <time>2026-04-30T13:30:52.999Z</time>
      </trkpt>
      <trkpt lat="43.99236" lon="2.98436">
        <ele>735.6</ele>
        <time>2026-04-30T13:30:53.999Z</time>
      </trkpt>
      <trkpt lat="43.99237" lon="2.98437">
        <ele>735.6</ele>
        <time>2026-04-30T13:30:54.999Z</time>
      </trkpt>
      <trkpt lat="43.99238" lon="2.98437">
        <ele>735.3</ele>
        <time>2026-04-30T13:30:55.999Z</time>
      </trkpt>
      <trkpt lat="43.99239" lon="2.98437">
        <ele>735.2</ele>
        <time>2026-04-30T13:30:56.999Z</time>
      </trkpt>
      <trkpt lat="43.9924" lon="2.98438">
        <ele>734.9</ele>
        <time>2026-04-30T13:30:57.999Z</time>
      </trkpt>
      <trkpt lat="43.9924" lon="2.98439">
        <ele>734.6</ele>
        <time>2026-04-30T13:30:58.999Z</time>
      </trkpt>
      <trkpt lat="43.99241" lon="2.9844">
        <ele>734.1</ele>
        <time>2026-04-30T13:30:59.999Z</time>
      </trkpt>
      <trkpt lat="43.99242" lon="2.98441">
        <ele>734</ele>
        <time>2026-04-30T13:31:00.999Z</time>
      </trkpt>
      <trkpt lat="43.99243" lon="2.98443">
        <ele>734</ele>
        <time>2026-04-30T13:31:01.999Z</time>
      </trkpt>
      <trkpt lat="43.99244" lon="2.98444">
        <ele>733.9</ele>
        <time>2026-04-30T13:31:02.999Z</time>
      </trkpt>
      <trkpt lat="43.99245" lon="2.98444">
        <ele>734</ele>
        <time>2026-04-30T13:31:03.999Z</time>
      </trkpt>
      <trkpt lat="43.99246" lon="2.98445">
        <ele>734</ele>
        <time>2026-04-30T13:31:04.999Z</time>
      </trkpt>
      <trkpt lat="43.99247" lon="2.98446">
        <ele>733.6</ele>
        <time>2026-04-30T13:31:05.999Z</time>
      </trkpt>
      <trkpt lat="43.99247" lon="2.98447">
        <ele>733.5</ele>
        <time>2026-04-30T13:31:06.999Z</time>
      </trkpt>
      <trkpt lat="43.99248" lon="2.98447">
        <ele>733.5</ele>
        <time>2026-04-30T13:31:07.999Z</time>
      </trkpt>
      <trkpt lat="43.99249" lon="2.98448">
        <ele>733.7</ele>
        <time>2026-04-30T13:31:08.999Z</time>
      </trkpt>
      <trkpt lat="43.99249" lon="2.98448">
        <ele>733.7</ele>
        <time>2026-04-30T13:31:09.999Z</time>
      </trkpt>
      <trkpt lat="43.9925" lon="2.98448">
        <ele>734</ele>
        <time>2026-04-30T13:31:10.999Z</time>
      </trkpt>
      <trkpt lat="43.99251" lon="2.98449">
        <ele>733.9</ele>
        <time>2026-04-30T13:31:11.999Z</time>
      </trkpt>
      <trkpt lat="43.99251" lon="2.9845">
        <ele>734</ele>
        <time>2026-04-30T13:31:12.999Z</time>
      </trkpt>
      <trkpt lat="43.99252" lon="2.98451">
        <ele>733.9</ele>
        <time>2026-04-30T13:31:13.999Z</time>
      </trkpt>
      <trkpt lat="43.99252" lon="2.98453">
        <ele>734</ele>
        <time>2026-04-30T13:31:14.999Z</time>
      </trkpt>
      <trkpt lat="43.99252" lon="2.98454">
        <ele>734</ele>
        <time>2026-04-30T13:31:15.999Z</time>
      </trkpt>
      <trkpt lat="43.99254" lon="2.98455">
        <ele>733.9</ele>
        <time>2026-04-30T13:31:16.999Z</time>
      </trkpt>
      <trkpt lat="43.99255" lon="2.98457">
        <ele>733.6</ele>
        <time>2026-04-30T13:31:17.999Z</time>
      </trkpt>
      <trkpt lat="43.99255" lon="2.98459">
        <ele>733.4</ele>
        <time>2026-04-30T13:31:18.999Z</time>
      </trkpt>
      <trkpt lat="43.99256" lon="2.9846">
        <ele>733.2</ele>
        <time>2026-04-30T13:31:19.999Z</time>
      </trkpt>
      <trkpt lat="43.99257" lon="2.98461">
        <ele>733</ele>
        <time>2026-04-30T13:31:20.999Z</time>
      </trkpt>
      <trkpt lat="43.99257" lon="2.98462">
        <ele>733</ele>
        <time>2026-04-30T13:31:21.999Z</time>
      </trkpt>
      <trkpt lat="43.99258" lon="2.98464">
        <ele>732.9</ele>
        <time>2026-04-30T13:31:22.999Z</time>
      </trkpt>
      <trkpt lat="43.99258" lon="2.98465">
        <ele>732.5</ele>
        <time>2026-04-30T13:31:23.999Z</time>
      </trkpt>
      <trkpt lat="43.99258" lon="2.98466">
        <ele>732.1</ele>
        <time>2026-04-30T13:31:24.999Z</time>
      </trkpt>
      <trkpt lat="43.99259" lon="2.98468">
        <ele>731.9</ele>
        <time>2026-04-30T13:31:25.999Z</time>
      </trkpt>
      <trkpt lat="43.99259" lon="2.98469">
        <ele>732</ele>
        <time>2026-04-30T13:31:26.999Z</time>
      </trkpt>
      <trkpt lat="43.99259" lon="2.98469">
        <ele>732.1</ele>
        <time>2026-04-30T13:31:27.999Z</time>
      </trkpt>
      <trkpt lat="43.99259" lon="2.98471">
        <ele>732.2</ele>
        <time>2026-04-30T13:31:28.999Z</time>
      </trkpt>
      <trkpt lat="43.9926" lon="2.98472">
        <ele>732.6</ele>
        <time>2026-04-30T13:31:29.999Z</time>
      </trkpt>
      <trkpt lat="43.9926" lon="2.98473">
        <ele>732.4</ele>
        <time>2026-04-30T13:31:30.999Z</time>
      </trkpt>
      <trkpt lat="43.9926" lon="2.98473">
        <ele>732.3</ele>
        <time>2026-04-30T13:31:31.999Z</time>
      </trkpt>
      <trkpt lat="43.99261" lon="2.98474">
        <ele>732.3</ele>
        <time>2026-04-30T13:31:32.999Z</time>
      </trkpt>
      <trkpt lat="43.99261" lon="2.98474">
        <ele>732.1</ele>
        <time>2026-04-30T13:31:33.999Z</time>
      </trkpt>
      <trkpt lat="43.99261" lon="2.98475">
        <ele>731.7</ele>
        <time>2026-04-30T13:31:34.999Z</time>
      </trkpt>
      <trkpt lat="43.99262" lon="2.98475">
        <ele>731.4</ele>
        <time>2026-04-30T13:31:35.999Z</time>
      </trkpt>
      <trkpt lat="43.99264" lon="2.98475">
        <ele>731</ele>
        <time>2026-04-30T13:31:36.999Z</time>
      </trkpt>
      <trkpt lat="43.99265" lon="2.98475">
        <ele>730.9</ele>
        <time>2026-04-30T13:31:37.999Z</time>
      </trkpt>
      <trkpt lat="43.99266" lon="2.98475">
        <ele>730.7</ele>
        <time>2026-04-30T13:31:38.999Z</time>
      </trkpt>
      <trkpt lat="43.99266" lon="2.98476">
        <ele>730.5</ele>
        <time>2026-04-30T13:31:39.999Z</time>
      </trkpt>
      <trkpt lat="43.99267" lon="2.98477">
        <ele>730</ele>
        <time>2026-04-30T13:31:40.999Z</time>
      </trkpt>
      <trkpt lat="43.99267" lon="2.98479">
        <ele>729.5</ele>
        <time>2026-04-30T13:31:41.999Z</time>
      </trkpt>
      <trkpt lat="43.99268" lon="2.9848">
        <ele>729.4</ele>
        <time>2026-04-30T13:31:42.999Z</time>
      </trkpt>
      <trkpt lat="43.99269" lon="2.98479">
        <ele>729.8</ele>
        <time>2026-04-30T13:31:43.999Z</time>
      </trkpt>
      <trkpt lat="43.99269" lon="2.98479">
        <ele>729.8</ele>
        <time>2026-04-30T13:31:44.999Z</time>
      </trkpt>
      <trkpt lat="43.9927" lon="2.9848">
        <ele>729.7</ele>
        <time>2026-04-30T13:31:45.999Z</time>
      </trkpt>
      <trkpt lat="43.99271" lon="2.98481">
        <ele>729.8</ele>
        <time>2026-04-30T13:31:46.999Z</time>
      </trkpt>
      <trkpt lat="43.99271" lon="2.98482">
        <ele>729.5</ele>
        <time>2026-04-30T13:31:47.999Z</time>
      </trkpt>
      <trkpt lat="43.99273" lon="2.98482">
        <ele>729.3</ele>
        <time>2026-04-30T13:31:48.999Z</time>
      </trkpt>
      <trkpt lat="43.99273" lon="2.98482">
        <ele>729.5</ele>
        <time>2026-04-30T13:31:49.999Z</time>
      </trkpt>
      <trkpt lat="43.99274" lon="2.98483">
        <ele>729.6</ele>
        <time>2026-04-30T13:31:50.999Z</time>
      </trkpt>
      <trkpt lat="43.99275" lon="2.98484">
        <ele>730.1</ele>
        <time>2026-04-30T13:31:51.999Z</time>
      </trkpt>
      <trkpt lat="43.99276" lon="2.98485">
        <ele>730.3</ele>
        <time>2026-04-30T13:31:52.999Z</time>
      </trkpt>
      <trkpt lat="43.99276" lon="2.98486">
        <ele>730.6</ele>
        <time>2026-04-30T13:31:53.999Z</time>
      </trkpt>
      <trkpt lat="43.99277" lon="2.98488">
        <ele>730.5</ele>
        <time>2026-04-30T13:31:54.999Z</time>
      </trkpt>
      <trkpt lat="43.99278" lon="2.98489">
        <ele>731.5</ele>
        <time>2026-04-30T13:31:55.999Z</time>
      </trkpt>
      <trkpt lat="43.99278" lon="2.9849">
        <ele>731.8</ele>
        <time>2026-04-30T13:31:56.999Z</time>
      </trkpt>
      <trkpt lat="43.99279" lon="2.98491">
        <ele>732.1</ele>
        <time>2026-04-30T13:31:57.999Z</time>
      </trkpt>
      <trkpt lat="43.9928" lon="2.98492">
        <ele>732.2</ele>
        <time>2026-04-30T13:31:58.999Z</time>
      </trkpt>
      <trkpt lat="43.9928" lon="2.98493">
        <ele>732.5</ele>
        <time>2026-04-30T13:31:59.999Z</time>
      </trkpt>
      <trkpt lat="43.9928" lon="2.98494">
        <ele>732.5</ele>
        <time>2026-04-30T13:32:00.999Z</time>
      </trkpt>
      <trkpt lat="43.99281" lon="2.98495">
        <ele>732.6</ele>
        <time>2026-04-30T13:32:01.999Z</time>
      </trkpt>
      <trkpt lat="43.99281" lon="2.98495">
        <ele>732.6</ele>
        <time>2026-04-30T13:32:02.999Z</time>
      </trkpt>
      <trkpt lat="43.99282" lon="2.98496">
        <ele>732.5</ele>
        <time>2026-04-30T13:32:03.999Z</time>
      </trkpt>
      <trkpt lat="43.99283" lon="2.98497">
        <ele>732.3</ele>
        <time>2026-04-30T13:32:04.999Z</time>
      </trkpt>
      <trkpt lat="43.99283" lon="2.98498">
        <ele>732</ele>
        <time>2026-04-30T13:32:05.999Z</time>
      </trkpt>
      <trkpt lat="43.99283" lon="2.98499">
        <ele>731.9</ele>
        <time>2026-04-30T13:32:06.999Z</time>
      </trkpt>
      <trkpt lat="43.99283" lon="2.98499">
        <ele>731.7</ele>
        <time>2026-04-30T13:32:07.999Z</time>
      </trkpt>
      <trkpt lat="43.99283" lon="2.985">
        <ele>731.6</ele>
        <time>2026-04-30T13:32:08.999Z</time>
      </trkpt>
      <trkpt lat="43.99284" lon="2.98502">
        <ele>731.6</ele>
        <time>2026-04-30T13:32:09.999Z</time>
      </trkpt>
      <trkpt lat="43.99284" lon="2.98502">
        <ele>731.5</ele>
        <time>2026-04-30T13:32:10.999Z</time>
      </trkpt>
      <trkpt lat="43.99284" lon="2.98503">
        <ele>731.6</ele>
        <time>2026-04-30T13:32:11.999Z</time>
      </trkpt>
      <trkpt lat="43.99284" lon="2.98504">
        <ele>731.5</ele>
        <time>2026-04-30T13:32:12.999Z</time>
      </trkpt>
      <trkpt lat="43.99284" lon="2.98506">
        <ele>731.4</ele>
        <time>2026-04-30T13:32:13.999Z</time>
      </trkpt>
      <trkpt lat="43.99285" lon="2.98508">
        <ele>731.5</ele>
        <time>2026-04-30T13:32:14.999Z</time>
      </trkpt>
      <trkpt lat="43.99286" lon="2.9851">
        <ele>731.4</ele>
        <time>2026-04-30T13:32:15.999Z</time>
      </trkpt>
      <trkpt lat="43.99287" lon="2.98511">
        <ele>730.9</ele>
        <time>2026-04-30T13:32:16.999Z</time>
      </trkpt>
      <trkpt lat="43.99288" lon="2.98512">
        <ele>730.7</ele>
        <time>2026-04-30T13:32:17.999Z</time>
      </trkpt>
      <trkpt lat="43.99288" lon="2.98513">
        <ele>730.6</ele>
        <time>2026-04-30T13:32:18.999Z</time>
      </trkpt>
      <trkpt lat="43.99289" lon="2.98515">
        <ele>730.5</ele>
        <time>2026-04-30T13:32:19.999Z</time>
      </trkpt>
      <trkpt lat="43.99289" lon="2.98516">
        <ele>730.1</ele>
        <time>2026-04-30T13:32:20.999Z</time>
      </trkpt>
      <trkpt lat="43.99288" lon="2.98518">
        <ele>730</ele>
        <time>2026-04-30T13:32:21.999Z</time>
      </trkpt>
      <trkpt lat="43.99288" lon="2.98519">
        <ele>729.7</ele>
        <time>2026-04-30T13:32:22.999Z</time>
      </trkpt>
      <trkpt lat="43.99288" lon="2.98521">
        <ele>729.5</ele>
        <time>2026-04-30T13:32:23.999Z</time>
      </trkpt>
      <trkpt lat="43.99288" lon="2.98522">
        <ele>729</ele>
        <time>2026-04-30T13:32:24.999Z</time>
      </trkpt>
      <trkpt lat="43.99288" lon="2.98522">
        <ele>728.6</ele>
        <time>2026-04-30T13:32:25.999Z</time>
      </trkpt>
      <trkpt lat="43.99288" lon="2.98523">
        <ele>728.5</ele>
        <time>2026-04-30T13:32:26.999Z</time>
      </trkpt>
      <trkpt lat="43.99288" lon="2.98524">
        <ele>727.7</ele>
        <time>2026-04-30T13:32:27.999Z</time>
      </trkpt>
      <trkpt lat="43.99288" lon="2.98525">
        <ele>727.1</ele>
        <time>2026-04-30T13:32:28.999Z</time>
      </trkpt>
      <trkpt lat="43.99289" lon="2.98526">
        <ele>727.1</ele>
        <time>2026-04-30T13:32:29.999Z</time>
      </trkpt>
      <trkpt lat="43.99289" lon="2.98526">
        <ele>727.1</ele>
        <time>2026-04-30T13:32:30.999Z</time>
      </trkpt>
      <trkpt lat="43.99289" lon="2.98526">
        <ele>727.6</ele>
        <time>2026-04-30T13:32:31.999Z</time>
      </trkpt>
      <trkpt lat="43.9929" lon="2.98526">
        <ele>727.5</ele>
        <time>2026-04-30T13:32:32.999Z</time>
      </trkpt>
      <trkpt lat="43.9929" lon="2.98526">
        <ele>727.2</ele>
        <time>2026-04-30T13:32:33.999Z</time>
      </trkpt>
      <trkpt lat="43.9929" lon="2.98527">
        <ele>727.1</ele>
        <time>2026-04-30T13:32:34.999Z</time>
      </trkpt>
      <trkpt lat="43.9929" lon="2.98527">
        <ele>726.9</ele>
        <time>2026-04-30T13:32:35.999Z</time>
      </trkpt>
      <trkpt lat="43.9929" lon="2.98527">
        <ele>726.8</ele>
        <time>2026-04-30T13:32:36.999Z</time>
      </trkpt>
      <trkpt lat="43.9929" lon="2.98528">
        <ele>726.5</ele>
        <time>2026-04-30T13:32:37.999Z</time>
      </trkpt>
      <trkpt lat="43.99291" lon="2.9853">
        <ele>726.4</ele>
        <time>2026-04-30T13:32:38.999Z</time>
      </trkpt>
      <trkpt lat="43.99292" lon="2.98532">
        <ele>726.3</ele>
        <time>2026-04-30T13:32:39.999Z</time>
      </trkpt>
      <trkpt lat="43.99293" lon="2.98534">
        <ele>726.2</ele>
        <time>2026-04-30T13:32:40.999Z</time>
      </trkpt>
      <trkpt lat="43.99293" lon="2.98535">
        <ele>726</ele>
        <time>2026-04-30T13:32:41.999Z</time>
      </trkpt>
      <trkpt lat="43.99294" lon="2.98537">
        <ele>726</ele>
        <time>2026-04-30T13:32:42.999Z</time>
      </trkpt>
      <trkpt lat="43.99295" lon="2.98538">
        <ele>726.1</ele>
        <time>2026-04-30T13:32:43.999Z</time>
      </trkpt>
      <trkpt lat="43.99295" lon="2.98539">
        <ele>726.1</ele>
        <time>2026-04-30T13:32:44.999Z</time>
      </trkpt>
      <trkpt lat="43.99296" lon="2.98541">
        <ele>725.8</ele>
        <time>2026-04-30T13:32:45.999Z</time>
      </trkpt>
      <trkpt lat="43.99296" lon="2.98543">
        <ele>725.5</ele>
        <time>2026-04-30T13:32:46.999Z</time>
      </trkpt>
      <trkpt lat="43.99297" lon="2.98544">
        <ele>725.4</ele>
        <time>2026-04-30T13:32:47.999Z</time>
      </trkpt>
      <trkpt lat="43.99297" lon="2.98545">
        <ele>725.3</ele>
        <time>2026-04-30T13:32:48.999Z</time>
      </trkpt>
      <trkpt lat="43.99298" lon="2.98546">
        <ele>725.4</ele>
        <time>2026-04-30T13:32:49.999Z</time>
      </trkpt>
      <trkpt lat="43.99298" lon="2.98547">
        <ele>725.6</ele>
        <time>2026-04-30T13:32:50.999Z</time>
      </trkpt>
      <trkpt lat="43.99299" lon="2.98548">
        <ele>725</ele>
        <time>2026-04-30T13:32:51.999Z</time>
      </trkpt>
      <trkpt lat="43.99299" lon="2.98549">
        <ele>724.6</ele>
        <time>2026-04-30T13:32:52.999Z</time>
      </trkpt>
      <trkpt lat="43.99299" lon="2.9855">
        <ele>724.6</ele>
        <time>2026-04-30T13:32:53.999Z</time>
      </trkpt>
      <trkpt lat="43.99299" lon="2.98552">
        <ele>724.7</ele>
        <time>2026-04-30T13:32:54.999Z</time>
      </trkpt>
      <trkpt lat="43.99299" lon="2.98553">
        <ele>724.5</ele>
        <time>2026-04-30T13:32:55.999Z</time>
      </trkpt>
      <trkpt lat="43.99299" lon="2.98555">
        <ele>724.4</ele>
        <time>2026-04-30T13:32:56.999Z</time>
      </trkpt>
      <trkpt lat="43.99299" lon="2.98556">
        <ele>724.3</ele>
        <time>2026-04-30T13:32:57.999Z</time>
      </trkpt>
      <trkpt lat="43.993" lon="2.98559">
        <ele>724.4</ele>
        <time>2026-04-30T13:32:58.999Z</time>
      </trkpt>
      <trkpt lat="43.99302" lon="2.9856">
        <ele>724.6</ele>
        <time>2026-04-30T13:32:59.999Z</time>
      </trkpt>
      <trkpt lat="43.99303" lon="2.98561">
        <ele>724.7</ele>
        <time>2026-04-30T13:33:00.999Z</time>
      </trkpt>
      <trkpt lat="43.99304" lon="2.98562">
        <ele>724.6</ele>
        <time>2026-04-30T13:33:01.999Z</time>
      </trkpt>
      <trkpt lat="43.99305" lon="2.98563">
        <ele>725.4</ele>
        <time>2026-04-30T13:33:02.999Z</time>
      </trkpt>
      <trkpt lat="43.99306" lon="2.98564">
        <ele>725.8</ele>
        <time>2026-04-30T13:33:03.999Z</time>
      </trkpt>
      <trkpt lat="43.99307" lon="2.98564">
        <ele>726</ele>
        <time>2026-04-30T13:33:04.999Z</time>
      </trkpt>
      <trkpt lat="43.99307" lon="2.98564">
        <ele>726.4</ele>
        <time>2026-04-30T13:33:05.999Z</time>
      </trkpt>
      <trkpt lat="43.99308" lon="2.98565">
        <ele>726.7</ele>
        <time>2026-04-30T13:33:06.999Z</time>
      </trkpt>
      <trkpt lat="43.99308" lon="2.98566">
        <ele>726.9</ele>
        <time>2026-04-30T13:33:07.999Z</time>
      </trkpt>
      <trkpt lat="43.99309" lon="2.98567">
        <ele>727</ele>
        <time>2026-04-30T13:33:08.999Z</time>
      </trkpt>
      <trkpt lat="43.99309" lon="2.98568">
        <ele>727</ele>
        <time>2026-04-30T13:33:09.999Z</time>
      </trkpt>
      <trkpt lat="43.9931" lon="2.98569">
        <ele>727.3</ele>
        <time>2026-04-30T13:33:10.999Z</time>
      </trkpt>
      <trkpt lat="43.99311" lon="2.98571">
        <ele>727.4</ele>
        <time>2026-04-30T13:33:11.999Z</time>
      </trkpt>
      <trkpt lat="43.99312" lon="2.98572">
        <ele>727.5</ele>
        <time>2026-04-30T13:33:12.999Z</time>
      </trkpt>
      <trkpt lat="43.99312" lon="2.98574">
        <ele>727.2</ele>
        <time>2026-04-30T13:33:13.999Z</time>
      </trkpt>
      <trkpt lat="43.99313" lon="2.98576">
        <ele>727.1</ele>
        <time>2026-04-30T13:33:14.999Z</time>
      </trkpt>
      <trkpt lat="43.99314" lon="2.98578">
        <ele>727.1</ele>
        <time>2026-04-30T13:33:15.999Z</time>
      </trkpt>
      <trkpt lat="43.99315" lon="2.98579">
        <ele>726.9</ele>
        <time>2026-04-30T13:33:16.999Z</time>
      </trkpt>
      <trkpt lat="43.99316" lon="2.9858">
        <ele>726.7</ele>
        <time>2026-04-30T13:33:17.999Z</time>
      </trkpt>
      <trkpt lat="43.99317" lon="2.98581">
        <ele>726.7</ele>
        <time>2026-04-30T13:33:18.999Z</time>
      </trkpt>
      <trkpt lat="43.99318" lon="2.98583">
        <ele>726.6</ele>
        <time>2026-04-30T13:33:19.999Z</time>
      </trkpt>
      <trkpt lat="43.99318" lon="2.98584">
        <ele>726.3</ele>
        <time>2026-04-30T13:33:20.999Z</time>
      </trkpt>
      <trkpt lat="43.99319" lon="2.98586">
        <ele>725.5</ele>
        <time>2026-04-30T13:33:21.999Z</time>
      </trkpt>
      <trkpt lat="43.99319" lon="2.98588">
        <ele>725.4</ele>
        <time>2026-04-30T13:33:22.999Z</time>
      </trkpt>
      <trkpt lat="43.9932" lon="2.98589">
        <ele>725.5</ele>
        <time>2026-04-30T13:33:23.999Z</time>
      </trkpt>
      <trkpt lat="43.99321" lon="2.98594">
        <ele>725.2</ele>
        <time>2026-04-30T13:33:25.999Z</time>
      </trkpt>
      <trkpt lat="43.99322" lon="2.98596">
        <ele>725.5</ele>
        <time>2026-04-30T13:33:26.999Z</time>
      </trkpt>
      <trkpt lat="43.99324" lon="2.98597">
        <ele>725.6</ele>
        <time>2026-04-30T13:33:27.999Z</time>
      </trkpt>
      <trkpt lat="43.99324" lon="2.98598">
        <ele>725.6</ele>
        <time>2026-04-30T13:33:28.999Z</time>
      </trkpt>
      <trkpt lat="43.99324" lon="2.98599">
        <ele>725.2</ele>
        <time>2026-04-30T13:33:29.999Z</time>
      </trkpt>
      <trkpt lat="43.99325" lon="2.986">
        <ele>725.2</ele>
        <time>2026-04-30T13:33:30.999Z</time>
      </trkpt>
      <trkpt lat="43.99325" lon="2.986">
        <ele>725.2</ele>
        <time>2026-04-30T13:33:31.999Z</time>
      </trkpt>
      <trkpt lat="43.99325" lon="2.98601">
        <ele>725.1</ele>
        <time>2026-04-30T13:33:32.999Z</time>
      </trkpt>
      <trkpt lat="43.99325" lon="2.98602">
        <ele>724.8</ele>
        <time>2026-04-30T13:33:33.999Z</time>
      </trkpt>
      <trkpt lat="43.99326" lon="2.98602">
        <ele>724.3</ele>
        <time>2026-04-30T13:33:34.999Z</time>
      </trkpt>
      <trkpt lat="43.99326" lon="2.98604">
        <ele>723.2</ele>
        <time>2026-04-30T13:33:35.999Z</time>
      </trkpt>
      <trkpt lat="43.99326" lon="2.98606">
        <ele>722.6</ele>
        <time>2026-04-30T13:33:36.999Z</time>
      </trkpt>
      <trkpt lat="43.99326" lon="2.98606">
        <ele>722.1</ele>
        <time>2026-04-30T13:33:37.999Z</time>
      </trkpt>
      <trkpt lat="43.99326" lon="2.98607">
        <ele>721.7</ele>
        <time>2026-04-30T13:33:38.999Z</time>
      </trkpt>
      <trkpt lat="43.99326" lon="2.98608">
        <ele>721.8</ele>
        <time>2026-04-30T13:33:39.999Z</time>
      </trkpt>
      <trkpt lat="43.99326" lon="2.98608">
        <ele>721.8</ele>
        <time>2026-04-30T13:33:40.999Z</time>
      </trkpt>
      <trkpt lat="43.99326" lon="2.98608">
        <ele>721.6</ele>
        <time>2026-04-30T13:33:41.999Z</time>
      </trkpt>
      <trkpt lat="43.99326" lon="2.98608">
        <ele>721.2</ele>
        <time>2026-04-30T13:33:42.999Z</time>
      </trkpt>
      <trkpt lat="43.99326" lon="2.98608">
        <ele>720.8</ele>
        <time>2026-04-30T13:33:43.999Z</time>
      </trkpt>
      <trkpt lat="43.99326" lon="2.98608">
        <ele>720.7</ele>
        <time>2026-04-30T13:33:44.999Z</time>
      </trkpt>
      <trkpt lat="43.99326" lon="2.98608">
        <ele>720.8</ele>
        <time>2026-04-30T13:33:45.999Z</time>
      </trkpt>
      <trkpt lat="43.99326" lon="2.98609">
        <ele>721.1</ele>
        <time>2026-04-30T13:33:46.999Z</time>
      </trkpt>
      <trkpt lat="43.99326" lon="2.98609">
        <ele>720.8</ele>
        <time>2026-04-30T13:33:47.999Z</time>
      </trkpt>
      <trkpt lat="43.99326" lon="2.98609">
        <ele>720.7</ele>
        <time>2026-04-30T13:33:48.999Z</time>
      </trkpt>
      <trkpt lat="43.99326" lon="2.9861">
        <ele>720.6</ele>
        <time>2026-04-30T13:33:49.999Z</time>
      </trkpt>
      <trkpt lat="43.99326" lon="2.9861">
        <ele>720.7</ele>
        <time>2026-04-30T13:33:50.999Z</time>
      </trkpt>
      <trkpt lat="43.99326" lon="2.9861">
        <ele>720.6</ele>
        <time>2026-04-30T13:33:51.999Z</time>
      </trkpt>
      <trkpt lat="43.99326" lon="2.98611">
        <ele>720.7</ele>
        <time>2026-04-30T13:33:52.999Z</time>
      </trkpt>
      <trkpt lat="43.99326" lon="2.98612">
        <ele>720.7</ele>
        <time>2026-04-30T13:33:53.999Z</time>
      </trkpt>
      <trkpt lat="43.99326" lon="2.98612">
        <ele>720.3</ele>
        <time>2026-04-30T13:33:54.999Z</time>
      </trkpt>
      <trkpt lat="43.99326" lon="2.98613">
        <ele>720.1</ele>
        <time>2026-04-30T13:33:55.999Z</time>
      </trkpt>
      <trkpt lat="43.99326" lon="2.98613">
        <ele>720.2</ele>
        <time>2026-04-30T13:33:56.999Z</time>
      </trkpt>
      <trkpt lat="43.99325" lon="2.98614">
        <ele>720.6</ele>
        <time>2026-04-30T13:33:57.999Z</time>
      </trkpt>
      <trkpt lat="43.99325" lon="2.98614">
        <ele>720.7</ele>
        <time>2026-04-30T13:33:58.999Z</time>
      </trkpt>
      <trkpt lat="43.99325" lon="2.98614">
        <ele>720.5</ele>
        <time>2026-04-30T13:33:59.999Z</time>
      </trkpt>
      <trkpt lat="43.99325" lon="2.98614">
        <ele>720</ele>
        <time>2026-04-30T13:34:00.999Z</time>
      </trkpt>
      <trkpt lat="43.99325" lon="2.98615">
        <ele>719.9</ele>
        <time>2026-04-30T13:34:01.999Z</time>
      </trkpt>
      <trkpt lat="43.99325" lon="2.98615">
        <ele>719.8</ele>
        <time>2026-04-30T13:34:02.999Z</time>
      </trkpt>
      <trkpt lat="43.99325" lon="2.98616">
        <ele>719.8</ele>
        <time>2026-04-30T13:34:03.999Z</time>
      </trkpt>
      <trkpt lat="43.99325" lon="2.98616">
        <ele>719.8</ele>
        <time>2026-04-30T13:34:04.999Z</time>
      </trkpt>
      <trkpt lat="43.99325" lon="2.98616">
        <ele>719.8</ele>
        <time>2026-04-30T13:34:05.999Z</time>
      </trkpt>
      <trkpt lat="43.99325" lon="2.98617">
        <ele>719.4</ele>
        <time>2026-04-30T13:34:06.999Z</time>
      </trkpt>
      <trkpt lat="43.99325" lon="2.98617">
        <ele>719.2</ele>
        <time>2026-04-30T13:34:07.999Z</time>
      </trkpt>
      <trkpt lat="43.99325" lon="2.98618">
        <ele>719</ele>
        <time>2026-04-30T13:34:08.999Z</time>
      </trkpt>
      <trkpt lat="43.99325" lon="2.98618">
        <ele>719</ele>
        <time>2026-04-30T13:34:09.999Z</time>
      </trkpt>
      <trkpt lat="43.99325" lon="2.98619">
        <ele>718.8</ele>
        <time>2026-04-30T13:34:10.999Z</time>
      </trkpt>
      <trkpt lat="43.99325" lon="2.98619">
        <ele>718.2</ele>
        <time>2026-04-30T13:34:11.999Z</time>
      </trkpt>
      <trkpt lat="43.99326" lon="2.98621">
        <ele>717.9</ele>
        <time>2026-04-30T13:34:12.999Z</time>
      </trkpt>
      <trkpt lat="43.99326" lon="2.98621">
        <ele>717.6</ele>
        <time>2026-04-30T13:34:13.999Z</time>
      </trkpt>
      <trkpt lat="43.99326" lon="2.98621">
        <ele>717.5</ele>
        <time>2026-04-30T13:34:14.999Z</time>
      </trkpt>
      <trkpt lat="43.99326" lon="2.98622">
        <ele>717.3</ele>
        <time>2026-04-30T13:34:15.999Z</time>
      </trkpt>
      <trkpt lat="43.99326" lon="2.98622">
        <ele>717.2</ele>
        <time>2026-04-30T13:34:16.999Z</time>
      </trkpt>
      <trkpt lat="43.99326" lon="2.98623">
        <ele>717.2</ele>
        <time>2026-04-30T13:34:17.999Z</time>
      </trkpt>
      <trkpt lat="43.99327" lon="2.98624">
        <ele>717.1</ele>
        <time>2026-04-30T13:34:18.999Z</time>
      </trkpt>
      <trkpt lat="43.99328" lon="2.98626">
        <ele>717.1</ele>
        <time>2026-04-30T13:34:19.999Z</time>
      </trkpt>
      <trkpt lat="43.99329" lon="2.98628">
        <ele>717</ele>
        <time>2026-04-30T13:34:20.999Z</time>
      </trkpt>
      <trkpt lat="43.99329" lon="2.98629">
        <ele>716.9</ele>
        <time>2026-04-30T13:34:21.999Z</time>
      </trkpt>
      <trkpt lat="43.9933" lon="2.98631">
        <ele>716.9</ele>
        <time>2026-04-30T13:34:22.999Z</time>
      </trkpt>
      <trkpt lat="43.9933" lon="2.98632">
        <ele>716.9</ele>
        <time>2026-04-30T13:34:23.999Z</time>
      </trkpt>
      <trkpt lat="43.99331" lon="2.98635">
        <ele>716.7</ele>
        <time>2026-04-30T13:34:24.999Z</time>
      </trkpt>
      <trkpt lat="43.99331" lon="2.98638">
        <ele>716.5</ele>
        <time>2026-04-30T13:34:25.999Z</time>
      </trkpt>
      <trkpt lat="43.99331" lon="2.9864">
        <ele>716</ele>
        <time>2026-04-30T13:34:26.999Z</time>
      </trkpt>
      <trkpt lat="43.99331" lon="2.98643">
        <ele>715.4</ele>
        <time>2026-04-30T13:34:27.999Z</time>
      </trkpt>
      <trkpt lat="43.99331" lon="2.98645">
        <ele>714.9</ele>
        <time>2026-04-30T13:34:28.999Z</time>
      </trkpt>
      <trkpt lat="43.99331" lon="2.98645">
        <ele>715</ele>
        <time>2026-04-30T13:34:29.999Z</time>
      </trkpt>
      <trkpt lat="43.99331" lon="2.98646">
        <ele>714.6</ele>
        <time>2026-04-30T13:34:30.999Z</time>
      </trkpt>
      <trkpt lat="43.99331" lon="2.98646">
        <ele>714.4</ele>
        <time>2026-04-30T13:34:31.999Z</time>
      </trkpt>
      <trkpt lat="43.99331" lon="2.98646">
        <ele>714.1</ele>
        <time>2026-04-30T13:34:32.999Z</time>
      </trkpt>
      <trkpt lat="43.99331" lon="2.98647">
        <ele>714</ele>
        <time>2026-04-30T13:34:33.999Z</time>
      </trkpt>
      <trkpt lat="43.99331" lon="2.98647">
        <ele>713.9</ele>
        <time>2026-04-30T13:34:34.999Z</time>
      </trkpt>
      <trkpt lat="43.99332" lon="2.98647">
        <ele>713.8</ele>
        <time>2026-04-30T13:34:35.999Z</time>
      </trkpt>
      <trkpt lat="43.99332" lon="2.98647">
        <ele>713.7</ele>
        <time>2026-04-30T13:34:36.999Z</time>
      </trkpt>
      <trkpt lat="43.99332" lon="2.98647">
        <ele>713.5</ele>
        <time>2026-04-30T13:34:37.999Z</time>
      </trkpt>
      <trkpt lat="43.99332" lon="2.98647">
        <ele>713.3</ele>
        <time>2026-04-30T13:34:38.999Z</time>
      </trkpt>
      <trkpt lat="43.99332" lon="2.98647">
        <ele>713</ele>
        <time>2026-04-30T13:34:39.999Z</time>
      </trkpt>
      <trkpt lat="43.99332" lon="2.98647">
        <ele>712.6</ele>
        <time>2026-04-30T13:34:40.999Z</time>
      </trkpt>
      <trkpt lat="43.99332" lon="2.98647">
        <ele>712.2</ele>
        <time>2026-04-30T13:34:41.999Z</time>
      </trkpt>
      <trkpt lat="43.99333" lon="2.98647">
        <ele>711.8</ele>
        <time>2026-04-30T13:34:42.999Z</time>
      </trkpt>
      <trkpt lat="43.99334" lon="2.98648">
        <ele>711.7</ele>
        <time>2026-04-30T13:34:43.999Z</time>
      </trkpt>
      <trkpt lat="43.99335" lon="2.98648">
        <ele>711.7</ele>
        <time>2026-04-30T13:34:44.999Z</time>
      </trkpt>
      <trkpt lat="43.99336" lon="2.98649">
        <ele>711.7</ele>
        <time>2026-04-30T13:34:45.999Z</time>
      </trkpt>
      <trkpt lat="43.99337" lon="2.9865">
        <ele>711.6</ele>
        <time>2026-04-30T13:34:46.999Z</time>
      </trkpt>
      <trkpt lat="43.99337" lon="2.98651">
        <ele>711.4</ele>
        <time>2026-04-30T13:34:47.999Z</time>
      </trkpt>
      <trkpt lat="43.99338" lon="2.98652">
        <ele>711.1</ele>
        <time>2026-04-30T13:34:48.999Z</time>
      </trkpt>
      <trkpt lat="43.99338" lon="2.98654">
        <ele>710.8</ele>
        <time>2026-04-30T13:34:49.999Z</time>
      </trkpt>
      <trkpt lat="43.99338" lon="2.98655">
        <ele>710.4</ele>
        <time>2026-04-30T13:34:50.999Z</time>
      </trkpt>
      <trkpt lat="43.99338" lon="2.98656">
        <ele>710.2</ele>
        <time>2026-04-30T13:34:51.999Z</time>
      </trkpt>
      <trkpt lat="43.99339" lon="2.98658">
        <ele>710.3</ele>
        <time>2026-04-30T13:34:52.999Z</time>
      </trkpt>
      <trkpt lat="43.99339" lon="2.98658">
        <ele>710.2</ele>
        <time>2026-04-30T13:34:53.999Z</time>
      </trkpt>
      <trkpt lat="43.99339" lon="2.98659">
        <ele>710.5</ele>
        <time>2026-04-30T13:34:54.999Z</time>
      </trkpt>
      <trkpt lat="43.99339" lon="2.98659">
        <ele>710.4</ele>
        <time>2026-04-30T13:34:55.999Z</time>
      </trkpt>
      <trkpt lat="43.99339" lon="2.98659">
        <ele>710.3</ele>
        <time>2026-04-30T13:34:56.999Z</time>
      </trkpt>
      <trkpt lat="43.99339" lon="2.98659">
        <ele>710.4</ele>
        <time>2026-04-30T13:34:57.999Z</time>
      </trkpt>
      <trkpt lat="43.9934" lon="2.98659">
        <ele>710.4</ele>
        <time>2026-04-30T13:34:58.999Z</time>
      </trkpt>
      <trkpt lat="43.9934" lon="2.98659">
        <ele>710.4</ele>
        <time>2026-04-30T13:34:59.999Z</time>
      </trkpt>
      <trkpt lat="43.9934" lon="2.98659">
        <ele>710.2</ele>
        <time>2026-04-30T13:35:00.999Z</time>
      </trkpt>
      <trkpt lat="43.9934" lon="2.98659">
        <ele>710</ele>
        <time>2026-04-30T13:35:01.999Z</time>
      </trkpt>
      <trkpt lat="43.9934" lon="2.9866">
        <ele>709.8</ele>
        <time>2026-04-30T13:35:02.999Z</time>
      </trkpt>
      <trkpt lat="43.9934" lon="2.9866">
        <ele>709.7</ele>
        <time>2026-04-30T13:35:03.999Z</time>
      </trkpt>
      <trkpt lat="43.9934" lon="2.9866">
        <ele>709.7</ele>
        <time>2026-04-30T13:35:04.999Z</time>
      </trkpt>
      <trkpt lat="43.9934" lon="2.9866">
        <ele>709.9</ele>
        <time>2026-04-30T13:35:05.999Z</time>
      </trkpt>
      <trkpt lat="43.9934" lon="2.9866">
        <ele>709.8</ele>
        <time>2026-04-30T13:35:06.999Z</time>
      </trkpt>
      <trkpt lat="43.9934" lon="2.98661">
        <ele>709.4</ele>
        <time>2026-04-30T13:35:07.999Z</time>
      </trkpt>
      <trkpt lat="43.9934" lon="2.98661">
        <ele>709.4</ele>
        <time>2026-04-30T13:35:08.999Z</time>
      </trkpt>
      <trkpt lat="43.9934" lon="2.98662">
        <ele>709</ele>
        <time>2026-04-30T13:35:09.999Z</time>
      </trkpt>
      <trkpt lat="43.9934" lon="2.98663">
        <ele>708.6</ele>
        <time>2026-04-30T13:35:10.999Z</time>
      </trkpt>
      <trkpt lat="43.99341" lon="2.98664">
        <ele>707.9</ele>
        <time>2026-04-30T13:35:11.999Z</time>
      </trkpt>
      <trkpt lat="43.99341" lon="2.98664">
        <ele>707.6</ele>
        <time>2026-04-30T13:35:12.999Z</time>
      </trkpt>
      <trkpt lat="43.99341" lon="2.98664">
        <ele>707.6</ele>
        <time>2026-04-30T13:35:13.999Z</time>
      </trkpt>
      <trkpt lat="43.99341" lon="2.98665">
        <ele>707.6</ele>
        <time>2026-04-30T13:35:14.999Z</time>
      </trkpt>
      <trkpt lat="43.99341" lon="2.98665">
        <ele>708</ele>
        <time>2026-04-30T13:35:15.999Z</time>
      </trkpt>
      <trkpt lat="43.99342" lon="2.98666">
        <ele>707.7</ele>
        <time>2026-04-30T13:35:16.999Z</time>
      </trkpt>
      <trkpt lat="43.99342" lon="2.98666">
        <ele>707.7</ele>
        <time>2026-04-30T13:35:17.999Z</time>
      </trkpt>
      <trkpt lat="43.99342" lon="2.98666">
        <ele>707.9</ele>
        <time>2026-04-30T13:35:18.999Z</time>
      </trkpt>
      <trkpt lat="43.99343" lon="2.98669">
        <ele>707.9</ele>
        <time>2026-04-30T13:35:19.999Z</time>
      </trkpt>
      <trkpt lat="43.99344" lon="2.98672">
        <ele>707.8</ele>
        <time>2026-04-30T13:35:20.999Z</time>
      </trkpt>
      <trkpt lat="43.99344" lon="2.98674">
        <ele>707.6</ele>
        <time>2026-04-30T13:35:21.999Z</time>
      </trkpt>
      <trkpt lat="43.99345" lon="2.98675">
        <ele>707.3</ele>
        <time>2026-04-30T13:35:22.999Z</time>
      </trkpt>
      <trkpt lat="43.99345" lon="2.98675">
        <ele>706.9</ele>
        <time>2026-04-30T13:35:23.999Z</time>
      </trkpt>
      <trkpt lat="43.99345" lon="2.98675">
        <ele>706.5</ele>
        <time>2026-04-30T13:35:24.999Z</time>
      </trkpt>
      <trkpt lat="43.99345" lon="2.98675">
        <ele>706.2</ele>
        <time>2026-04-30T13:35:25.999Z</time>
      </trkpt>
      <trkpt lat="43.99345" lon="2.98676">
        <ele>706</ele>
        <time>2026-04-30T13:35:26.999Z</time>
      </trkpt>
      <trkpt lat="43.99345" lon="2.98676">
        <ele>705.8</ele>
        <time>2026-04-30T13:35:27.999Z</time>
      </trkpt>
      <trkpt lat="43.99345" lon="2.98676">
        <ele>705.4</ele>
        <time>2026-04-30T13:35:28.999Z</time>
      </trkpt>
      <trkpt lat="43.99345" lon="2.98676">
        <ele>705.3</ele>
        <time>2026-04-30T13:35:29.999Z</time>
      </trkpt>
      <trkpt lat="43.99345" lon="2.98676">
        <ele>705.2</ele>
        <time>2026-04-30T13:35:30.999Z</time>
      </trkpt>
      <trkpt lat="43.99345" lon="2.98677">
        <ele>705.1</ele>
        <time>2026-04-30T13:35:31.999Z</time>
      </trkpt>
      <trkpt lat="43.99345" lon="2.98677">
        <ele>705</ele>
        <time>2026-04-30T13:35:32.999Z</time>
      </trkpt>
      <trkpt lat="43.99345" lon="2.98677">
        <ele>704.9</ele>
        <time>2026-04-30T13:35:33.999Z</time>
      </trkpt>
      <trkpt lat="43.99345" lon="2.98677">
        <ele>705</ele>
        <time>2026-04-30T13:35:34.999Z</time>
      </trkpt>
      <trkpt lat="43.99345" lon="2.98677">
        <ele>705.2</ele>
        <time>2026-04-30T13:35:35.999Z</time>
      </trkpt>
      <trkpt lat="43.99345" lon="2.98677">
        <ele>705.3</ele>
        <time>2026-04-30T13:35:36.999Z</time>
      </trkpt>
      <trkpt lat="43.99345" lon="2.98677">
        <ele>705.3</ele>
        <time>2026-04-30T13:35:37.999Z</time>
      </trkpt>
      <trkpt lat="43.99346" lon="2.98677">
        <ele>705.3</ele>
        <time>2026-04-30T13:35:38.999Z</time>
      </trkpt>
      <trkpt lat="43.99346" lon="2.98678">
        <ele>705.1</ele>
        <time>2026-04-30T13:35:39.999Z</time>
      </trkpt>
      <trkpt lat="43.99346" lon="2.98678">
        <ele>704.8</ele>
        <time>2026-04-30T13:35:40.999Z</time>
      </trkpt>
      <trkpt lat="43.99346" lon="2.98678">
        <ele>704.5</ele>
        <time>2026-04-30T13:35:41.999Z</time>
      </trkpt>
      <trkpt lat="43.99346" lon="2.98679">
        <ele>704.1</ele>
        <time>2026-04-30T13:35:42.999Z</time>
      </trkpt>
      <trkpt lat="43.99347" lon="2.9868">
        <ele>703.7</ele>
        <time>2026-04-30T13:35:43.999Z</time>
      </trkpt>
      <trkpt lat="43.99347" lon="2.98682">
        <ele>703.5</ele>
        <time>2026-04-30T13:35:44.999Z</time>
      </trkpt>
      <trkpt lat="43.99348" lon="2.98684">
        <ele>703.2</ele>
        <time>2026-04-30T13:35:45.999Z</time>
      </trkpt>
      <trkpt lat="43.99349" lon="2.98687">
        <ele>703.1</ele>
        <time>2026-04-30T13:35:46.999Z</time>
      </trkpt>
      <trkpt lat="43.99349" lon="2.98688">
        <ele>703.1</ele>
        <time>2026-04-30T13:35:47.999Z</time>
      </trkpt>
      <trkpt lat="43.99349" lon="2.98688">
        <ele>703</ele>
        <time>2026-04-30T13:35:48.999Z</time>
      </trkpt>
      <trkpt lat="43.99349" lon="2.98688">
        <ele>702.6</ele>
        <time>2026-04-30T13:35:49.999Z</time>
      </trkpt>
      <trkpt lat="43.99349" lon="2.98688">
        <ele>702.4</ele>
        <time>2026-04-30T13:35:50.999Z</time>
      </trkpt>
      <trkpt lat="43.99349" lon="2.98689">
        <ele>702</ele>
        <time>2026-04-30T13:35:51.999Z</time>
      </trkpt>
      <trkpt lat="43.99349" lon="2.98689">
        <ele>701.6</ele>
        <time>2026-04-30T13:35:52.999Z</time>
      </trkpt>
      <trkpt lat="43.99349" lon="2.98689">
        <ele>701.8</ele>
        <time>2026-04-30T13:35:53.999Z</time>
      </trkpt>
      <trkpt lat="43.99349" lon="2.9869">
        <ele>701.5</ele>
        <time>2026-04-30T13:35:54.999Z</time>
      </trkpt>
      <trkpt lat="43.9935" lon="2.9869">
        <ele>701.5</ele>
        <time>2026-04-30T13:35:55.999Z</time>
      </trkpt>
      <trkpt lat="43.9935" lon="2.98691">
        <ele>701.4</ele>
        <time>2026-04-30T13:35:56.999Z</time>
      </trkpt>
      <trkpt lat="43.9935" lon="2.98691">
        <ele>701.1</ele>
        <time>2026-04-30T13:35:57.999Z</time>
      </trkpt>
      <trkpt lat="43.9935" lon="2.98693">
        <ele>700.9</ele>
        <time>2026-04-30T13:35:58.999Z</time>
      </trkpt>
      <trkpt lat="43.9935" lon="2.98694">
        <ele>700.9</ele>
        <time>2026-04-30T13:35:59.999Z</time>
      </trkpt>
      <trkpt lat="43.9935" lon="2.98697">
        <ele>700.7</ele>
        <time>2026-04-30T13:36:00.999Z</time>
      </trkpt>
      <trkpt lat="43.9935" lon="2.987">
        <ele>700.7</ele>
        <time>2026-04-30T13:36:01.999Z</time>
      </trkpt>
      <trkpt lat="43.99351" lon="2.98702">
        <ele>700.7</ele>
        <time>2026-04-30T13:36:02.999Z</time>
      </trkpt>
      <trkpt lat="43.99351" lon="2.98703">
        <ele>700.4</ele>
        <time>2026-04-30T13:36:03.999Z</time>
      </trkpt>
      <trkpt lat="43.99351" lon="2.98703">
        <ele>699.9</ele>
        <time>2026-04-30T13:36:04.999Z</time>
      </trkpt>
      <trkpt lat="43.99351" lon="2.98704">
        <ele>699.3</ele>
        <time>2026-04-30T13:36:05.999Z</time>
      </trkpt>
      <trkpt lat="43.99351" lon="2.98704">
        <ele>698.9</ele>
        <time>2026-04-30T13:36:06.999Z</time>
      </trkpt>
      <trkpt lat="43.99351" lon="2.98705">
        <ele>698.8</ele>
        <time>2026-04-30T13:36:07.999Z</time>
      </trkpt>
      <trkpt lat="43.99351" lon="2.98705">
        <ele>698.8</ele>
        <time>2026-04-30T13:36:08.999Z</time>
      </trkpt>
      <trkpt lat="43.99351" lon="2.98705">
        <ele>698.7</ele>
        <time>2026-04-30T13:36:09.999Z</time>
      </trkpt>
      <trkpt lat="43.99351" lon="2.98706">
        <ele>698.8</ele>
        <time>2026-04-30T13:36:10.999Z</time>
      </trkpt>
      <trkpt lat="43.99351" lon="2.98706">
        <ele>699</ele>
        <time>2026-04-30T13:36:11.999Z</time>
      </trkpt>
      <trkpt lat="43.99351" lon="2.98706">
        <ele>699</ele>
        <time>2026-04-30T13:36:12.999Z</time>
      </trkpt>
      <trkpt lat="43.99352" lon="2.9871">
        <ele>698.7</ele>
        <time>2026-04-30T13:36:13.999Z</time>
      </trkpt>
      <trkpt lat="43.99353" lon="2.98712">
        <ele>698.3</ele>
        <time>2026-04-30T13:36:14.999Z</time>
      </trkpt>
      <trkpt lat="43.99353" lon="2.98714">
        <ele>698.1</ele>
        <time>2026-04-30T13:36:15.999Z</time>
      </trkpt>
      <trkpt lat="43.99353" lon="2.98715">
        <ele>697.9</ele>
        <time>2026-04-30T13:36:16.999Z</time>
      </trkpt>
      <trkpt lat="43.99354" lon="2.98717">
        <ele>697.6</ele>
        <time>2026-04-30T13:36:17.999Z</time>
      </trkpt>
      <trkpt lat="43.99354" lon="2.98718">
        <ele>697.4</ele>
        <time>2026-04-30T13:36:18.999Z</time>
      </trkpt>
      <trkpt lat="43.99355" lon="2.9872">
        <ele>697.2</ele>
        <time>2026-04-30T13:36:19.999Z</time>
      </trkpt>
      <trkpt lat="43.99355" lon="2.98721">
        <ele>697</ele>
        <time>2026-04-30T13:36:20.999Z</time>
      </trkpt>
      <trkpt lat="43.99355" lon="2.98723">
        <ele>696.9</ele>
        <time>2026-04-30T13:36:21.999Z</time>
      </trkpt>
      <trkpt lat="43.99356" lon="2.98725">
        <ele>696.8</ele>
        <time>2026-04-30T13:36:22.999Z</time>
      </trkpt>
      <trkpt lat="43.99357" lon="2.98726">
        <ele>696.6</ele>
        <time>2026-04-30T13:36:23.999Z</time>
      </trkpt>
      <trkpt lat="43.99358" lon="2.98727">
        <ele>696.1</ele>
        <time>2026-04-30T13:36:24.999Z</time>
      </trkpt>
      <trkpt lat="43.99358" lon="2.98728">
        <ele>695.7</ele>
        <time>2026-04-30T13:36:25.999Z</time>
      </trkpt>
      <trkpt lat="43.99358" lon="2.9873">
        <ele>695.4</ele>
        <time>2026-04-30T13:36:26.999Z</time>
      </trkpt>
      <trkpt lat="43.99359" lon="2.98732">
        <ele>695</ele>
        <time>2026-04-30T13:36:27.999Z</time>
      </trkpt>
      <trkpt lat="43.99359" lon="2.98733">
        <ele>694.4</ele>
        <time>2026-04-30T13:36:28.999Z</time>
      </trkpt>
      <trkpt lat="43.99359" lon="2.98735">
        <ele>694.1</ele>
        <time>2026-04-30T13:36:29.999Z</time>
      </trkpt>
      <trkpt lat="43.99359" lon="2.98736">
        <ele>694</ele>
        <time>2026-04-30T13:36:30.999Z</time>
      </trkpt>
      <trkpt lat="43.9936" lon="2.98737">
        <ele>693.8</ele>
        <time>2026-04-30T13:36:31.999Z</time>
      </trkpt>
      <trkpt lat="43.9936" lon="2.98738">
        <ele>694</ele>
        <time>2026-04-30T13:36:32.999Z</time>
      </trkpt>
      <trkpt lat="43.9936" lon="2.98738">
        <ele>694</ele>
        <time>2026-04-30T13:36:33.999Z</time>
      </trkpt>
      <trkpt lat="43.9936" lon="2.98739">
        <ele>693.6</ele>
        <time>2026-04-30T13:36:34.999Z</time>
      </trkpt>
      <trkpt lat="43.9936" lon="2.98739">
        <ele>693.5</ele>
        <time>2026-04-30T13:36:35.999Z</time>
      </trkpt>
      <trkpt lat="43.99361" lon="2.9874">
        <ele>693.4</ele>
        <time>2026-04-30T13:36:36.999Z</time>
      </trkpt>
      <trkpt lat="43.99361" lon="2.98741">
        <ele>693.5</ele>
        <time>2026-04-30T13:36:37.999Z</time>
      </trkpt>
      <trkpt lat="43.99362" lon="2.98742">
        <ele>693.2</ele>
        <time>2026-04-30T13:36:38.999Z</time>
      </trkpt>
      <trkpt lat="43.99362" lon="2.98744">
        <ele>693.1</ele>
        <time>2026-04-30T13:36:39.999Z</time>
      </trkpt>
      <trkpt lat="43.99362" lon="2.98744">
        <ele>692.9</ele>
        <time>2026-04-30T13:36:40.999Z</time>
      </trkpt>
      <trkpt lat="43.99363" lon="2.98745">
        <ele>693.2</ele>
        <time>2026-04-30T13:36:41.999Z</time>
      </trkpt>
      <trkpt lat="43.99363" lon="2.98745">
        <ele>693.1</ele>
        <time>2026-04-30T13:36:42.999Z</time>
      </trkpt>
      <trkpt lat="43.99363" lon="2.98746">
        <ele>692.9</ele>
        <time>2026-04-30T13:36:43.999Z</time>
      </trkpt>
      <trkpt lat="43.99363" lon="2.98747">
        <ele>692.8</ele>
        <time>2026-04-30T13:36:44.999Z</time>
      </trkpt>
      <trkpt lat="43.99363" lon="2.98748">
        <ele>692.7</ele>
        <time>2026-04-30T13:36:45.999Z</time>
      </trkpt>
      <trkpt lat="43.99363" lon="2.9875">
        <ele>692.4</ele>
        <time>2026-04-30T13:36:46.999Z</time>
      </trkpt>
      <trkpt lat="43.99364" lon="2.98752">
        <ele>692</ele>
        <time>2026-04-30T13:36:47.999Z</time>
      </trkpt>
      <trkpt lat="43.99364" lon="2.98753">
        <ele>691.7</ele>
        <time>2026-04-30T13:36:48.999Z</time>
      </trkpt>
      <trkpt lat="43.99364" lon="2.98756">
        <ele>691.3</ele>
        <time>2026-04-30T13:36:49.999Z</time>
      </trkpt>
      <trkpt lat="43.99364" lon="2.98757">
        <ele>691</ele>
        <time>2026-04-30T13:36:50.999Z</time>
      </trkpt>
      <trkpt lat="43.99364" lon="2.98759">
        <ele>690.8</ele>
        <time>2026-04-30T13:36:51.999Z</time>
      </trkpt>
      <trkpt lat="43.99363" lon="2.9876">
        <ele>690.6</ele>
        <time>2026-04-30T13:36:52.999Z</time>
      </trkpt>
      <trkpt lat="43.99363" lon="2.98761">
        <ele>690.2</ele>
        <time>2026-04-30T13:36:53.999Z</time>
      </trkpt>
      <trkpt lat="43.99362" lon="2.98762">
        <ele>690.2</ele>
        <time>2026-04-30T13:36:54.999Z</time>
      </trkpt>
      <trkpt lat="43.99362" lon="2.98763">
        <ele>690.2</ele>
        <time>2026-04-30T13:36:55.999Z</time>
      </trkpt>
      <trkpt lat="43.99362" lon="2.98763">
        <ele>690.1</ele>
        <time>2026-04-30T13:36:56.999Z</time>
      </trkpt>
      <trkpt lat="43.99361" lon="2.98764">
        <ele>689.6</ele>
        <time>2026-04-30T13:36:57.999Z</time>
      </trkpt>
      <trkpt lat="43.99361" lon="2.98764">
        <ele>689.1</ele>
        <time>2026-04-30T13:36:58.999Z</time>
      </trkpt>
      <trkpt lat="43.99362" lon="2.98765">
        <ele>688.9</ele>
        <time>2026-04-30T13:36:59.999Z</time>
      </trkpt>
      <trkpt lat="43.99362" lon="2.98766">
        <ele>688.4</ele>
        <time>2026-04-30T13:37:00.999Z</time>
      </trkpt>
      <trkpt lat="43.99363" lon="2.98767">
        <ele>688.2</ele>
        <time>2026-04-30T13:37:01.999Z</time>
      </trkpt>
      <trkpt lat="43.99363" lon="2.98767">
        <ele>688.3</ele>
        <time>2026-04-30T13:37:02.999Z</time>
      </trkpt>
      <trkpt lat="43.99364" lon="2.98767">
        <ele>688.5</ele>
        <time>2026-04-30T13:37:03.999Z</time>
      </trkpt>
      <trkpt lat="43.99365" lon="2.98767">
        <ele>688.5</ele>
        <time>2026-04-30T13:37:04.999Z</time>
      </trkpt>
      <trkpt lat="43.99365" lon="2.98767">
        <ele>688.4</ele>
        <time>2026-04-30T13:37:05.999Z</time>
      </trkpt>
      <trkpt lat="43.99365" lon="2.98767">
        <ele>688.2</ele>
        <time>2026-04-30T13:37:06.999Z</time>
      </trkpt>
      <trkpt lat="43.99365" lon="2.98767">
        <ele>688</ele>
        <time>2026-04-30T13:37:07.999Z</time>
      </trkpt>
      <trkpt lat="43.99365" lon="2.98767">
        <ele>688</ele>
        <time>2026-04-30T13:37:08.999Z</time>
      </trkpt>
      <trkpt lat="43.99365" lon="2.98767">
        <ele>687.5</ele>
        <time>2026-04-30T13:37:09.999Z</time>
      </trkpt>
      <trkpt lat="43.99364" lon="2.98768">
        <ele>687.1</ele>
        <time>2026-04-30T13:37:10.999Z</time>
      </trkpt>
      <trkpt lat="43.99364" lon="2.98768">
        <ele>686.6</ele>
        <time>2026-04-30T13:37:11.999Z</time>
      </trkpt>
      <trkpt lat="43.99364" lon="2.98771">
        <ele>686.5</ele>
        <time>2026-04-30T13:37:12.999Z</time>
      </trkpt>
      <trkpt lat="43.99364" lon="2.98773">
        <ele>686</ele>
        <time>2026-04-30T13:37:13.999Z</time>
      </trkpt>
      <trkpt lat="43.99365" lon="2.98775">
        <ele>685.4</ele>
        <time>2026-04-30T13:37:14.999Z</time>
      </trkpt>
      <trkpt lat="43.99366" lon="2.98776">
        <ele>685.2</ele>
        <time>2026-04-30T13:37:15.999Z</time>
      </trkpt>
      <trkpt lat="43.99366" lon="2.98778">
        <ele>685</ele>
        <time>2026-04-30T13:37:16.999Z</time>
      </trkpt>
      <trkpt lat="43.99367" lon="2.98779">
        <ele>684.8</ele>
        <time>2026-04-30T13:37:17.999Z</time>
      </trkpt>
      <trkpt lat="43.99367" lon="2.9878">
        <ele>684.6</ele>
        <time>2026-04-30T13:37:18.999Z</time>
      </trkpt>
      <trkpt lat="43.99368" lon="2.98781">
        <ele>684.4</ele>
        <time>2026-04-30T13:37:19.999Z</time>
      </trkpt>
      <trkpt lat="43.99368" lon="2.98782">
        <ele>684</ele>
        <time>2026-04-30T13:37:20.999Z</time>
      </trkpt>
      <trkpt lat="43.99368" lon="2.98783">
        <ele>683.8</ele>
        <time>2026-04-30T13:37:21.999Z</time>
      </trkpt>
      <trkpt lat="43.99367" lon="2.98784">
        <ele>683.9</ele>
        <time>2026-04-30T13:37:22.999Z</time>
      </trkpt>
      <trkpt lat="43.99367" lon="2.98785">
        <ele>683.6</ele>
        <time>2026-04-30T13:37:23.999Z</time>
      </trkpt>
      <trkpt lat="43.99367" lon="2.98786">
        <ele>683.8</ele>
        <time>2026-04-30T13:37:24.999Z</time>
      </trkpt>
      <trkpt lat="43.99367" lon="2.98786">
        <ele>683.5</ele>
        <time>2026-04-30T13:37:25.999Z</time>
      </trkpt>
      <trkpt lat="43.99367" lon="2.98788">
        <ele>683.5</ele>
        <time>2026-04-30T13:37:26.999Z</time>
      </trkpt>
      <trkpt lat="43.99367" lon="2.98789">
        <ele>683.3</ele>
        <time>2026-04-30T13:37:27.999Z</time>
      </trkpt>
      <trkpt lat="43.99367" lon="2.9879">
        <ele>683.3</ele>
        <time>2026-04-30T13:37:28.999Z</time>
      </trkpt>
      <trkpt lat="43.99367" lon="2.98791">
        <ele>682.7</ele>
        <time>2026-04-30T13:37:29.999Z</time>
      </trkpt>
      <trkpt lat="43.99367" lon="2.98792">
        <ele>682.2</ele>
        <time>2026-04-30T13:37:30.999Z</time>
      </trkpt>
      <trkpt lat="43.99369" lon="2.98793">
        <ele>682.3</ele>
        <time>2026-04-30T13:37:31.999Z</time>
      </trkpt>
      <trkpt lat="43.9937" lon="2.98795">
        <ele>682.6</ele>
        <time>2026-04-30T13:37:32.999Z</time>
      </trkpt>
      <trkpt lat="43.9937" lon="2.98796">
        <ele>682.7</ele>
        <time>2026-04-30T13:37:33.999Z</time>
      </trkpt>
      <trkpt lat="43.99371" lon="2.98796">
        <ele>682.2</ele>
        <time>2026-04-30T13:37:34.999Z</time>
      </trkpt>
      <trkpt lat="43.99371" lon="2.98796">
        <ele>682</ele>
        <time>2026-04-30T13:37:35.999Z</time>
      </trkpt>
      <trkpt lat="43.99371" lon="2.98797">
        <ele>682</ele>
        <time>2026-04-30T13:37:36.999Z</time>
      </trkpt>
      <trkpt lat="43.99371" lon="2.98797">
        <ele>681.6</ele>
        <time>2026-04-30T13:37:37.999Z</time>
      </trkpt>
      <trkpt lat="43.99371" lon="2.98797">
        <ele>681.7</ele>
        <time>2026-04-30T13:37:38.999Z</time>
      </trkpt>
      <trkpt lat="43.99371" lon="2.98797">
        <ele>682</ele>
        <time>2026-04-30T13:37:39.999Z</time>
      </trkpt>
      <trkpt lat="43.99371" lon="2.98797">
        <ele>682.1</ele>
        <time>2026-04-30T13:37:40.999Z</time>
      </trkpt>
      <trkpt lat="43.99371" lon="2.98797">
        <ele>682.3</ele>
        <time>2026-04-30T13:37:41.999Z</time>
      </trkpt>
      <trkpt lat="43.99371" lon="2.98797">
        <ele>682.6</ele>
        <time>2026-04-30T13:37:42.999Z</time>
      </trkpt>
      <trkpt lat="43.99371" lon="2.98797">
        <ele>682.9</ele>
        <time>2026-04-30T13:37:43.999Z</time>
      </trkpt>
      <trkpt lat="43.99371" lon="2.98797">
        <ele>683.2</ele>
        <time>2026-04-30T13:37:44.999Z</time>
      </trkpt>
      <trkpt lat="43.99371" lon="2.98797">
        <ele>683.4</ele>
        <time>2026-04-30T13:37:45.999Z</time>
      </trkpt>
      <trkpt lat="43.99371" lon="2.98797">
        <ele>683.5</ele>
        <time>2026-04-30T13:37:46.999Z</time>
      </trkpt>
      <trkpt lat="43.99371" lon="2.98797">
        <ele>683.6</ele>
        <time>2026-04-30T13:37:47.999Z</time>
      </trkpt>
      <trkpt lat="43.99371" lon="2.98797">
        <ele>683.7</ele>
        <time>2026-04-30T13:37:48.999Z</time>
      </trkpt>
      <trkpt lat="43.99371" lon="2.98797">
        <ele>683.8</ele>
        <time>2026-04-30T13:37:49.999Z</time>
      </trkpt>
      <trkpt lat="43.99371" lon="2.98797">
        <ele>683.8</ele>
        <time>2026-04-30T13:37:50.999Z</time>
      </trkpt>
      <trkpt lat="43.99371" lon="2.98797">
        <ele>683.9</ele>
        <time>2026-04-30T13:37:51.999Z</time>
      </trkpt>
      <trkpt lat="43.99371" lon="2.98797">
        <ele>683.9</ele>
        <time>2026-04-30T13:37:52.999Z</time>
      </trkpt>
      <trkpt lat="43.99371" lon="2.98797">
        <ele>683.8</ele>
        <time>2026-04-30T13:37:53.999Z</time>
      </trkpt>
      <trkpt lat="43.99371" lon="2.98798">
        <ele>683.7</ele>
        <time>2026-04-30T13:37:54.999Z</time>
      </trkpt>
      <trkpt lat="43.99371" lon="2.98798">
        <ele>683.7</ele>
        <time>2026-04-30T13:37:55.999Z</time>
      </trkpt>
      <trkpt lat="43.99371" lon="2.98798">
        <ele>683.7</ele>
        <time>2026-04-30T13:37:56.999Z</time>
      </trkpt>
      <trkpt lat="43.99371" lon="2.98799">
        <ele>683.8</ele>
        <time>2026-04-30T13:37:57.999Z</time>
      </trkpt>
      <trkpt lat="43.9937" lon="2.988">
        <ele>683.6</ele>
        <time>2026-04-30T13:37:58.999Z</time>
      </trkpt>
      <trkpt lat="43.9937" lon="2.988">
        <ele>683.3</ele>
        <time>2026-04-30T13:37:59.999Z</time>
      </trkpt>
      <trkpt lat="43.9937" lon="2.98801">
        <ele>682.7</ele>
        <time>2026-04-30T13:38:00.999Z</time>
      </trkpt>
      <trkpt lat="43.99371" lon="2.98804">
        <ele>682.4</ele>
        <time>2026-04-30T13:38:01.999Z</time>
      </trkpt>
      <trkpt lat="43.99372" lon="2.98805">
        <ele>682</ele>
        <time>2026-04-30T13:38:02.999Z</time>
      </trkpt>
      <trkpt lat="43.99373" lon="2.98806">
        <ele>681.7</ele>
        <time>2026-04-30T13:38:03.999Z</time>
      </trkpt>
      <trkpt lat="43.99373" lon="2.98807">
        <ele>681.1</ele>
        <time>2026-04-30T13:38:04.999Z</time>
      </trkpt>
      <trkpt lat="43.99374" lon="2.98808">
        <ele>680.9</ele>
        <time>2026-04-30T13:38:05.999Z</time>
      </trkpt>
      <trkpt lat="43.99375" lon="2.98809">
        <ele>680.5</ele>
        <time>2026-04-30T13:38:06.999Z</time>
      </trkpt>
      <trkpt lat="43.99376" lon="2.98811">
        <ele>680.2</ele>
        <time>2026-04-30T13:38:07.999Z</time>
      </trkpt>
      <trkpt lat="43.99376" lon="2.98811">
        <ele>680.2</ele>
        <time>2026-04-30T13:38:08.999Z</time>
      </trkpt>
      <trkpt lat="43.99376" lon="2.98812">
        <ele>680.1</ele>
        <time>2026-04-30T13:38:09.999Z</time>
      </trkpt>
      <trkpt lat="43.99377" lon="2.98814">
        <ele>679.9</ele>
        <time>2026-04-30T13:38:10.999Z</time>
      </trkpt>
      <trkpt lat="43.99377" lon="2.98815">
        <ele>679.5</ele>
        <time>2026-04-30T13:38:11.999Z</time>
      </trkpt>
      <trkpt lat="43.99378" lon="2.98817">
        <ele>679.3</ele>
        <time>2026-04-30T13:38:12.999Z</time>
      </trkpt>
      <trkpt lat="43.99378" lon="2.98819">
        <ele>679.2</ele>
        <time>2026-04-30T13:38:13.999Z</time>
      </trkpt>
      <trkpt lat="43.99379" lon="2.9882">
        <ele>679.1</ele>
        <time>2026-04-30T13:38:14.999Z</time>
      </trkpt>
      <trkpt lat="43.99379" lon="2.98822">
        <ele>678.9</ele>
        <time>2026-04-30T13:38:15.999Z</time>
      </trkpt>
      <trkpt lat="43.99379" lon="2.98824">
        <ele>678.8</ele>
        <time>2026-04-30T13:38:16.999Z</time>
      </trkpt>
      <trkpt lat="43.9938" lon="2.98824">
        <ele>678.7</ele>
        <time>2026-04-30T13:38:17.999Z</time>
      </trkpt>
      <trkpt lat="43.99381" lon="2.98825">
        <ele>678.6</ele>
        <time>2026-04-30T13:38:18.999Z</time>
      </trkpt>
      <trkpt lat="43.99382" lon="2.98826">
        <ele>678.4</ele>
        <time>2026-04-30T13:38:19.999Z</time>
      </trkpt>
      <trkpt lat="43.99382" lon="2.98827">
        <ele>677.9</ele>
        <time>2026-04-30T13:38:20.999Z</time>
      </trkpt>
      <trkpt lat="43.99382" lon="2.98827">
        <ele>677.6</ele>
        <time>2026-04-30T13:38:21.999Z</time>
      </trkpt>
      <trkpt lat="43.99383" lon="2.98828">
        <ele>677.3</ele>
        <time>2026-04-30T13:38:22.999Z</time>
      </trkpt>
      <trkpt lat="43.99383" lon="2.9883">
        <ele>677.1</ele>
        <time>2026-04-30T13:38:23.999Z</time>
      </trkpt>
      <trkpt lat="43.99384" lon="2.98832">
        <ele>676.8</ele>
        <time>2026-04-30T13:38:24.999Z</time>
      </trkpt>
      <trkpt lat="43.99384" lon="2.98834">
        <ele>676.5</ele>
        <time>2026-04-30T13:38:25.999Z</time>
      </trkpt>
      <trkpt lat="43.99384" lon="2.98835">
        <ele>676.3</ele>
        <time>2026-04-30T13:38:26.999Z</time>
      </trkpt>
      <trkpt lat="43.99385" lon="2.98837">
        <ele>676</ele>
        <time>2026-04-30T13:38:27.999Z</time>
      </trkpt>
      <trkpt lat="43.99385" lon="2.98839">
        <ele>675.9</ele>
        <time>2026-04-30T13:38:28.999Z</time>
      </trkpt>
      <trkpt lat="43.99385" lon="2.98841">
        <ele>675.7</ele>
        <time>2026-04-30T13:38:29.999Z</time>
      </trkpt>
      <trkpt lat="43.99386" lon="2.98842">
        <ele>675.9</ele>
        <time>2026-04-30T13:38:30.999Z</time>
      </trkpt>
      <trkpt lat="43.99386" lon="2.98843">
        <ele>675.9</ele>
        <time>2026-04-30T13:38:31.999Z</time>
      </trkpt>
      <trkpt lat="43.99387" lon="2.98843">
        <ele>675.9</ele>
        <time>2026-04-30T13:38:32.999Z</time>
      </trkpt>
      <trkpt lat="43.99387" lon="2.98843">
        <ele>675.8</ele>
        <time>2026-04-30T13:38:33.999Z</time>
      </trkpt>
      <trkpt lat="43.99388" lon="2.98844">
        <ele>676.2</ele>
        <time>2026-04-30T13:38:34.999Z</time>
      </trkpt>
      <trkpt lat="43.99389" lon="2.98845">
        <ele>676.1</ele>
        <time>2026-04-30T13:38:35.999Z</time>
      </trkpt>
      <trkpt lat="43.99389" lon="2.98846">
        <ele>676.1</ele>
        <time>2026-04-30T13:38:36.999Z</time>
      </trkpt>
      <trkpt lat="43.99389" lon="2.98848">
        <ele>676</ele>
        <time>2026-04-30T13:38:37.999Z</time>
      </trkpt>
      <trkpt lat="43.99389" lon="2.98849">
        <ele>675.9</ele>
        <time>2026-04-30T13:38:38.999Z</time>
      </trkpt>
      <trkpt lat="43.99389" lon="2.9885">
        <ele>675.6</ele>
        <time>2026-04-30T13:38:39.999Z</time>
      </trkpt>
      <trkpt lat="43.99389" lon="2.98851">
        <ele>675.3</ele>
        <time>2026-04-30T13:38:40.999Z</time>
      </trkpt>
      <trkpt lat="43.99389" lon="2.98851">
        <ele>674.8</ele>
        <time>2026-04-30T13:38:41.999Z</time>
      </trkpt>
      <trkpt lat="43.99389" lon="2.98851">
        <ele>674.5</ele>
        <time>2026-04-30T13:38:42.999Z</time>
      </trkpt>
      <trkpt lat="43.99389" lon="2.98851">
        <ele>674.6</ele>
        <time>2026-04-30T13:38:43.999Z</time>
      </trkpt>
      <trkpt lat="43.99389" lon="2.98852">
        <ele>674.4</ele>
        <time>2026-04-30T13:38:44.999Z</time>
      </trkpt>
      <trkpt lat="43.99389" lon="2.98853">
        <ele>674</ele>
        <time>2026-04-30T13:38:45.999Z</time>
      </trkpt>
      <trkpt lat="43.9939" lon="2.98854">
        <ele>673.4</ele>
        <time>2026-04-30T13:38:46.999Z</time>
      </trkpt>
      <trkpt lat="43.99391" lon="2.98856">
        <ele>672.4</ele>
        <time>2026-04-30T13:38:47.999Z</time>
      </trkpt>
      <trkpt lat="43.99391" lon="2.98857">
        <ele>671.8</ele>
        <time>2026-04-30T13:38:48.999Z</time>
      </trkpt>
      <trkpt lat="43.99391" lon="2.98858">
        <ele>671.7</ele>
        <time>2026-04-30T13:38:49.999Z</time>
      </trkpt>
      <trkpt lat="43.99391" lon="2.98859">
        <ele>671.1</ele>
        <time>2026-04-30T13:38:50.999Z</time>
      </trkpt>
      <trkpt lat="43.99391" lon="2.98859">
        <ele>670.8</ele>
        <time>2026-04-30T13:38:51.999Z</time>
      </trkpt>
      <trkpt lat="43.99391" lon="2.9886">
        <ele>670.4</ele>
        <time>2026-04-30T13:38:52.999Z</time>
      </trkpt>
      <trkpt lat="43.99391" lon="2.9886">
        <ele>670.7</ele>
        <time>2026-04-30T13:38:53.999Z</time>
      </trkpt>
      <trkpt lat="43.99392" lon="2.98861">
        <ele>670.1</ele>
        <time>2026-04-30T13:38:54.999Z</time>
      </trkpt>
      <trkpt lat="43.99392" lon="2.98861">
        <ele>670.1</ele>
        <time>2026-04-30T13:38:55.999Z</time>
      </trkpt>
      <trkpt lat="43.99392" lon="2.98861">
        <ele>669.9</ele>
        <time>2026-04-30T13:38:56.999Z</time>
      </trkpt>
      <trkpt lat="43.99392" lon="2.98861">
        <ele>669.5</ele>
        <time>2026-04-30T13:38:57.999Z</time>
      </trkpt>
      <trkpt lat="43.99393" lon="2.98863">
        <ele>668.8</ele>
        <time>2026-04-30T13:38:58.999Z</time>
      </trkpt>
      <trkpt lat="43.99394" lon="2.98864">
        <ele>668.5</ele>
        <time>2026-04-30T13:38:59.999Z</time>
      </trkpt>
      <trkpt lat="43.99395" lon="2.98865">
        <ele>668.2</ele>
        <time>2026-04-30T13:39:00.999Z</time>
      </trkpt>
      <trkpt lat="43.99396" lon="2.98867">
        <ele>668.2</ele>
        <time>2026-04-30T13:39:01.999Z</time>
      </trkpt>
      <trkpt lat="43.99398" lon="2.98868">
        <ele>668.2</ele>
        <time>2026-04-30T13:39:02.999Z</time>
      </trkpt>
      <trkpt lat="43.99399" lon="2.98869">
        <ele>668.2</ele>
        <time>2026-04-30T13:39:03.999Z</time>
      </trkpt>
      <trkpt lat="43.994" lon="2.9887">
        <ele>668</ele>
        <time>2026-04-30T13:39:04.999Z</time>
      </trkpt>
      <trkpt lat="43.99401" lon="2.98871">
        <ele>667.5</ele>
        <time>2026-04-30T13:39:05.999Z</time>
      </trkpt>
      <trkpt lat="43.99403" lon="2.98872">
        <ele>667.1</ele>
        <time>2026-04-30T13:39:06.999Z</time>
      </trkpt>
      <trkpt lat="43.99405" lon="2.98873">
        <ele>667</ele>
        <time>2026-04-30T13:39:07.999Z</time>
      </trkpt>
      <trkpt lat="43.99407" lon="2.98872">
        <ele>666.9</ele>
        <time>2026-04-30T13:39:08.999Z</time>
      </trkpt>
      <trkpt lat="43.99409" lon="2.98872">
        <ele>666.4</ele>
        <time>2026-04-30T13:39:09.999Z</time>
      </trkpt>
      <trkpt lat="43.9941" lon="2.98873">
        <ele>666.3</ele>
        <time>2026-04-30T13:39:10.999Z</time>
      </trkpt>
      <trkpt lat="43.99411" lon="2.98872">
        <ele>666.2</ele>
        <time>2026-04-30T13:39:11.999Z</time>
      </trkpt>
      <trkpt lat="43.99413" lon="2.98871">
        <ele>666.3</ele>
        <time>2026-04-30T13:39:12.999Z</time>
      </trkpt>
      <trkpt lat="43.99414" lon="2.9887">
        <ele>666.4</ele>
        <time>2026-04-30T13:39:13.999Z</time>
      </trkpt>
      <trkpt lat="43.99415" lon="2.9887">
        <ele>666.5</ele>
        <time>2026-04-30T13:39:14.999Z</time>
      </trkpt>
      <trkpt lat="43.99416" lon="2.9887">
        <ele>666.2</ele>
        <time>2026-04-30T13:39:15.999Z</time>
      </trkpt>
      <trkpt lat="43.99416" lon="2.9887">
        <ele>666</ele>
        <time>2026-04-30T13:39:16.999Z</time>
      </trkpt>
      <trkpt lat="43.99417" lon="2.98871">
        <ele>666</ele>
        <time>2026-04-30T13:39:17.999Z</time>
      </trkpt>
      <trkpt lat="43.99417" lon="2.98871">
        <ele>665.4</ele>
        <time>2026-04-30T13:39:18.999Z</time>
      </trkpt>
      <trkpt lat="43.99416" lon="2.98871">
        <ele>664.7</ele>
        <time>2026-04-30T13:39:19.999Z</time>
      </trkpt>
      <trkpt lat="43.99416" lon="2.98872">
        <ele>664.4</ele>
        <time>2026-04-30T13:39:20.999Z</time>
      </trkpt>
      <trkpt lat="43.99416" lon="2.98872">
        <ele>665</ele>
        <time>2026-04-30T13:39:21.999Z</time>
      </trkpt>
      <trkpt lat="43.99416" lon="2.98872">
        <ele>664.5</ele>
        <time>2026-04-30T13:39:22.999Z</time>
      </trkpt>
      <trkpt lat="43.99416" lon="2.98872">
        <ele>664.2</ele>
        <time>2026-04-30T13:39:23.999Z</time>
      </trkpt>
      <trkpt lat="43.99416" lon="2.98872">
        <ele>664</ele>
        <time>2026-04-30T13:39:24.999Z</time>
      </trkpt>
      <trkpt lat="43.99416" lon="2.98873">
        <ele>663.9</ele>
        <time>2026-04-30T13:39:25.999Z</time>
      </trkpt>
      <trkpt lat="43.99416" lon="2.98873">
        <ele>663.5</ele>
        <time>2026-04-30T13:39:26.999Z</time>
      </trkpt>
      <trkpt lat="43.99416" lon="2.98873">
        <ele>663.3</ele>
        <time>2026-04-30T13:39:27.999Z</time>
      </trkpt>
      <trkpt lat="43.99416" lon="2.98874">
        <ele>663.3</ele>
        <time>2026-04-30T13:39:28.999Z</time>
      </trkpt>
      <trkpt lat="43.99415" lon="2.98876">
        <ele>663.3</ele>
        <time>2026-04-30T13:39:29.999Z</time>
      </trkpt>
      <trkpt lat="43.99415" lon="2.98879">
        <ele>663.1</ele>
        <time>2026-04-30T13:39:30.999Z</time>
      </trkpt>
      <trkpt lat="43.99414" lon="2.9888">
        <ele>662.9</ele>
        <time>2026-04-30T13:39:31.999Z</time>
      </trkpt>
      <trkpt lat="43.99414" lon="2.98881">
        <ele>662.8</ele>
        <time>2026-04-30T13:39:32.999Z</time>
      </trkpt>
      <trkpt lat="43.99415" lon="2.98882">
        <ele>662.6</ele>
        <time>2026-04-30T13:39:33.999Z</time>
      </trkpt>
      <trkpt lat="43.99414" lon="2.98884">
        <ele>662.1</ele>
        <time>2026-04-30T13:39:34.999Z</time>
      </trkpt>
      <trkpt lat="43.99414" lon="2.98885">
        <ele>661.7</ele>
        <time>2026-04-30T13:39:35.999Z</time>
      </trkpt>
      <trkpt lat="43.99414" lon="2.98886">
        <ele>661.2</ele>
        <time>2026-04-30T13:39:36.999Z</time>
      </trkpt>
      <trkpt lat="43.99414" lon="2.98887">
        <ele>661</ele>
        <time>2026-04-30T13:39:37.999Z</time>
      </trkpt>
      <trkpt lat="43.99413" lon="2.98888">
        <ele>661.1</ele>
        <time>2026-04-30T13:39:38.999Z</time>
      </trkpt>
      <trkpt lat="43.99413" lon="2.98888">
        <ele>661.5</ele>
        <time>2026-04-30T13:39:39.999Z</time>
      </trkpt>
      <trkpt lat="43.99414" lon="2.98888">
        <ele>661.3</ele>
        <time>2026-04-30T13:39:40.999Z</time>
      </trkpt>
      <trkpt lat="43.99414" lon="2.98889">
        <ele>660.8</ele>
        <time>2026-04-30T13:39:41.999Z</time>
      </trkpt>
      <trkpt lat="43.99413" lon="2.98889">
        <ele>660.5</ele>
        <time>2026-04-30T13:39:42.999Z</time>
      </trkpt>
      <trkpt lat="43.99413" lon="2.98889">
        <ele>660</ele>
        <time>2026-04-30T13:39:43.999Z</time>
      </trkpt>
      <trkpt lat="43.99413" lon="2.9889">
        <ele>659.7</ele>
        <time>2026-04-30T13:39:44.999Z</time>
      </trkpt>
      <trkpt lat="43.99413" lon="2.9889">
        <ele>659.7</ele>
        <time>2026-04-30T13:39:45.999Z</time>
      </trkpt>
      <trkpt lat="43.99413" lon="2.98891">
        <ele>659.5</ele>
        <time>2026-04-30T13:39:46.999Z</time>
      </trkpt>
      <trkpt lat="43.99413" lon="2.98891">
        <ele>659.2</ele>
        <time>2026-04-30T13:39:47.999Z</time>
      </trkpt>
      <trkpt lat="43.99413" lon="2.98893">
        <ele>659.2</ele>
        <time>2026-04-30T13:39:48.999Z</time>
      </trkpt>
      <trkpt lat="43.99413" lon="2.98895">
        <ele>659.1</ele>
        <time>2026-04-30T13:39:49.999Z</time>
      </trkpt>
      <trkpt lat="43.99413" lon="2.98897">
        <ele>658.9</ele>
        <time>2026-04-30T13:39:50.999Z</time>
      </trkpt>
      <trkpt lat="43.99413" lon="2.98898">
        <ele>658.7</ele>
        <time>2026-04-30T13:39:51.999Z</time>
      </trkpt>
      <trkpt lat="43.99414" lon="2.989">
        <ele>658.6</ele>
        <time>2026-04-30T13:39:52.999Z</time>
      </trkpt>
      <trkpt lat="43.99414" lon="2.98902">
        <ele>658.3</ele>
        <time>2026-04-30T13:39:53.999Z</time>
      </trkpt>
      <trkpt lat="43.99414" lon="2.98904">
        <ele>658</ele>
        <time>2026-04-30T13:39:54.999Z</time>
      </trkpt>
      <trkpt lat="43.99414" lon="2.98905">
        <ele>657.7</ele>
        <time>2026-04-30T13:39:55.999Z</time>
      </trkpt>
      <trkpt lat="43.99414" lon="2.98907">
        <ele>657.4</ele>
        <time>2026-04-30T13:39:56.999Z</time>
      </trkpt>
      <trkpt lat="43.99413" lon="2.98908">
        <ele>657.1</ele>
        <time>2026-04-30T13:39:57.999Z</time>
      </trkpt>
      <trkpt lat="43.99413" lon="2.98909">
        <ele>656.7</ele>
        <time>2026-04-30T13:39:58.999Z</time>
      </trkpt>
      <trkpt lat="43.99413" lon="2.9891">
        <ele>656.4</ele>
        <time>2026-04-30T13:39:59.999Z</time>
      </trkpt>
      <trkpt lat="43.99412" lon="2.98911">
        <ele>656.4</ele>
        <time>2026-04-30T13:40:00.999Z</time>
      </trkpt>
      <trkpt lat="43.99412" lon="2.98911">
        <ele>656.5</ele>
        <time>2026-04-30T13:40:01.999Z</time>
      </trkpt>
      <trkpt lat="43.99412" lon="2.98913">
        <ele>656.4</ele>
        <time>2026-04-30T13:40:03.000Z</time>
      </trkpt>
      <trkpt lat="43.99412" lon="2.98914">
        <ele>656.3</ele>
        <time>2026-04-30T13:40:04.000Z</time>
      </trkpt>
      <trkpt lat="43.99412" lon="2.98914">
        <ele>656</ele>
        <time>2026-04-30T13:40:05.000Z</time>
      </trkpt>
      <trkpt lat="43.99412" lon="2.98916">
        <ele>655.5</ele>
        <time>2026-04-30T13:40:06.000Z</time>
      </trkpt>
      <trkpt lat="43.99412" lon="2.98916">
        <ele>655.6</ele>
        <time>2026-04-30T13:40:07.000Z</time>
      </trkpt>
      <trkpt lat="43.99412" lon="2.98917">
        <ele>655.3</ele>
        <time>2026-04-30T13:40:08.000Z</time>
      </trkpt>
      <trkpt lat="43.99411" lon="2.98918">
        <ele>655.1</ele>
        <time>2026-04-30T13:40:09.000Z</time>
      </trkpt>
      <trkpt lat="43.99411" lon="2.98919">
        <ele>655</ele>
        <time>2026-04-30T13:40:10.000Z</time>
      </trkpt>
      <trkpt lat="43.9941" lon="2.98919">
        <ele>654.6</ele>
        <time>2026-04-30T13:40:11.000Z</time>
      </trkpt>
      <trkpt lat="43.9941" lon="2.98919">
        <ele>654.6</ele>
        <time>2026-04-30T13:40:12.000Z</time>
      </trkpt>
      <trkpt lat="43.9941" lon="2.98919">
        <ele>654.6</ele>
        <time>2026-04-30T13:40:13.000Z</time>
      </trkpt>
      <trkpt lat="43.9941" lon="2.98919">
        <ele>654.3</ele>
        <time>2026-04-30T13:40:14.000Z</time>
      </trkpt>
      <trkpt lat="43.9941" lon="2.98919">
        <ele>654.2</ele>
        <time>2026-04-30T13:40:15.000Z</time>
      </trkpt>
      <trkpt lat="43.9941" lon="2.98918">
        <ele>653.8</ele>
        <time>2026-04-30T13:40:16.000Z</time>
      </trkpt>
      <trkpt lat="43.9941" lon="2.98917">
        <ele>653.4</ele>
        <time>2026-04-30T13:40:17.000Z</time>
      </trkpt>
      <trkpt lat="43.9941" lon="2.98917">
        <ele>653.2</ele>
        <time>2026-04-30T13:40:18.000Z</time>
      </trkpt>
      <trkpt lat="43.9941" lon="2.98916">
        <ele>653.3</ele>
        <time>2026-04-30T13:40:19.000Z</time>
      </trkpt>
      <trkpt lat="43.99411" lon="2.98917">
        <ele>653.6</ele>
        <time>2026-04-30T13:40:20.000Z</time>
      </trkpt>
      <trkpt lat="43.99411" lon="2.98917">
        <ele>653.8</ele>
        <time>2026-04-30T13:40:21.000Z</time>
      </trkpt>
      <trkpt lat="43.99411" lon="2.98918">
        <ele>654.1</ele>
        <time>2026-04-30T13:40:22.000Z</time>
      </trkpt>
      <trkpt lat="43.9941" lon="2.98918">
        <ele>654.3</ele>
        <time>2026-04-30T13:40:23.000Z</time>
      </trkpt>
      <trkpt lat="43.9941" lon="2.98918">
        <ele>654.4</ele>
        <time>2026-04-30T13:40:24.000Z</time>
      </trkpt>
      <trkpt lat="43.9941" lon="2.98918">
        <ele>654.7</ele>
        <time>2026-04-30T13:40:25.000Z</time>
      </trkpt>
      <trkpt lat="43.9941" lon="2.98919">
        <ele>654.6</ele>
        <time>2026-04-30T13:40:26.000Z</time>
      </trkpt>
      <trkpt lat="43.9941" lon="2.9892">
        <ele>654.6</ele>
        <time>2026-04-30T13:40:27.000Z</time>
      </trkpt>
      <trkpt lat="43.9941" lon="2.9892">
        <ele>654.6</ele>
        <time>2026-04-30T13:40:28.000Z</time>
      </trkpt>
      <trkpt lat="43.99409" lon="2.9892">
        <ele>654.4</ele>
        <time>2026-04-30T13:40:29.000Z</time>
      </trkpt>
      <trkpt lat="43.99409" lon="2.9892">
        <ele>654.3</ele>
        <time>2026-04-30T13:40:30.000Z</time>
      </trkpt>
      <trkpt lat="43.99409" lon="2.98921">
        <ele>655.1</ele>
        <time>2026-04-30T13:40:31.000Z</time>
      </trkpt>
      <trkpt lat="43.99409" lon="2.98921">
        <ele>654.9</ele>
        <time>2026-04-30T13:40:32.000Z</time>
      </trkpt>
      <trkpt lat="43.99409" lon="2.98921">
        <ele>654.7</ele>
        <time>2026-04-30T13:40:33.000Z</time>
      </trkpt>
      <trkpt lat="43.99409" lon="2.98921">
        <ele>654.6</ele>
        <time>2026-04-30T13:40:34.000Z</time>
      </trkpt>
      <trkpt lat="43.99409" lon="2.98921">
        <ele>654.5</ele>
        <time>2026-04-30T13:40:35.000Z</time>
      </trkpt>
      <trkpt lat="43.99409" lon="2.98921">
        <ele>654.5</ele>
        <time>2026-04-30T13:40:36.000Z</time>
      </trkpt>
      <trkpt lat="43.99409" lon="2.98921">
        <ele>654.5</ele>
        <time>2026-04-30T13:40:37.000Z</time>
      </trkpt>
      <trkpt lat="43.99409" lon="2.98921">
        <ele>654.6</ele>
        <time>2026-04-30T13:40:38.000Z</time>
      </trkpt>
      <trkpt lat="43.99409" lon="2.98921">
        <ele>654.7</ele>
        <time>2026-04-30T13:40:39.000Z</time>
      </trkpt>
      <trkpt lat="43.99409" lon="2.98921">
        <ele>654.8</ele>
        <time>2026-04-30T13:40:40.000Z</time>
      </trkpt>
      <trkpt lat="43.9941" lon="2.98921">
        <ele>654.9</ele>
        <time>2026-04-30T13:40:41.000Z</time>
      </trkpt>
      <trkpt lat="43.9941" lon="2.98921">
        <ele>655.1</ele>
        <time>2026-04-30T13:40:42.000Z</time>
      </trkpt>
      <trkpt lat="43.9941" lon="2.98921">
        <ele>655.3</ele>
        <time>2026-04-30T13:40:43.000Z</time>
      </trkpt>
      <trkpt lat="43.9941" lon="2.98921">
        <ele>655.7</ele>
        <time>2026-04-30T13:40:44.000Z</time>
      </trkpt>
      <trkpt lat="43.9941" lon="2.98921">
        <ele>656</ele>
        <time>2026-04-30T13:40:45.000Z</time>
      </trkpt>
      <trkpt lat="43.9941" lon="2.98921">
        <ele>656.2</ele>
        <time>2026-04-30T13:40:46.000Z</time>
      </trkpt>
      <trkpt lat="43.99411" lon="2.98921">
        <ele>656.3</ele>
        <time>2026-04-30T13:40:47.000Z</time>
      </trkpt>
      <trkpt lat="43.99411" lon="2.98921">
        <ele>656.4</ele>
        <time>2026-04-30T13:40:48.000Z</time>
      </trkpt>
      <trkpt lat="43.99411" lon="2.98921">
        <ele>656.4</ele>
        <time>2026-04-30T13:40:49.000Z</time>
      </trkpt>
      <trkpt lat="43.99411" lon="2.98921">
        <ele>656.4</ele>
        <time>2026-04-30T13:40:50.000Z</time>
      </trkpt>
      <trkpt lat="43.99411" lon="2.98921">
        <ele>656.3</ele>
        <time>2026-04-30T13:40:51.000Z</time>
      </trkpt>
      <trkpt lat="43.99411" lon="2.9892">
        <ele>656.1</ele>
        <time>2026-04-30T13:40:52.000Z</time>
      </trkpt>
      <trkpt lat="43.99411" lon="2.9892">
        <ele>656.2</ele>
        <time>2026-04-30T13:40:53.000Z</time>
      </trkpt>
      <trkpt lat="43.99412" lon="2.9892">
        <ele>656.1</ele>
        <time>2026-04-30T13:40:54.000Z</time>
      </trkpt>
      <trkpt lat="43.99413" lon="2.9892">
        <ele>655.9</ele>
        <time>2026-04-30T13:40:55.000Z</time>
      </trkpt>
      <trkpt lat="43.99413" lon="2.98921">
        <ele>655.8</ele>
        <time>2026-04-30T13:40:56.000Z</time>
      </trkpt>
      <trkpt lat="43.99414" lon="2.98921">
        <ele>655.7</ele>
        <time>2026-04-30T13:40:57.000Z</time>
      </trkpt>
      <trkpt lat="43.99414" lon="2.98921">
        <ele>655.6</ele>
        <time>2026-04-30T13:40:58.000Z</time>
      </trkpt>
      <trkpt lat="43.99414" lon="2.98921">
        <ele>655.5</ele>
        <time>2026-04-30T13:40:59.000Z</time>
      </trkpt>
      <trkpt lat="43.99414" lon="2.98921">
        <ele>655.3</ele>
        <time>2026-04-30T13:41:00.000Z</time>
      </trkpt>
      <trkpt lat="43.99414" lon="2.98921">
        <ele>655</ele>
        <time>2026-04-30T13:41:01.000Z</time>
      </trkpt>
      <trkpt lat="43.99413" lon="2.98921">
        <ele>654.7</ele>
        <time>2026-04-30T13:41:02.000Z</time>
      </trkpt>
      <trkpt lat="43.99413" lon="2.98921">
        <ele>654.4</ele>
        <time>2026-04-30T13:41:03.000Z</time>
      </trkpt>
      <trkpt lat="43.99413" lon="2.98921">
        <ele>654.4</ele>
        <time>2026-04-30T13:41:04.000Z</time>
      </trkpt>
      <trkpt lat="43.99413" lon="2.98921">
        <ele>654.8</ele>
        <time>2026-04-30T13:41:05.000Z</time>
      </trkpt>
      <trkpt lat="43.99413" lon="2.98921">
        <ele>655.1</ele>
        <time>2026-04-30T13:41:06.000Z</time>
      </trkpt>
      <trkpt lat="43.99413" lon="2.9892">
        <ele>655.2</ele>
        <time>2026-04-30T13:41:07.000Z</time>
      </trkpt>
      <trkpt lat="43.99413" lon="2.98921">
        <ele>655.2</ele>
        <time>2026-04-30T13:41:08.000Z</time>
      </trkpt>
      <trkpt lat="43.99413" lon="2.98921">
        <ele>655.2</ele>
        <time>2026-04-30T13:41:09.000Z</time>
      </trkpt>
      <trkpt lat="43.99413" lon="2.98921">
        <ele>655.3</ele>
        <time>2026-04-30T13:41:10.000Z</time>
      </trkpt>
      <trkpt lat="43.99413" lon="2.98921">
        <ele>655.4</ele>
        <time>2026-04-30T13:41:11.000Z</time>
      </trkpt>
      <trkpt lat="43.99412" lon="2.98921">
        <ele>655.2</ele>
        <time>2026-04-30T13:41:12.000Z</time>
      </trkpt>
      <trkpt lat="43.99412" lon="2.98921">
        <ele>655</ele>
        <time>2026-04-30T13:41:13.000Z</time>
      </trkpt>
      <trkpt lat="43.99412" lon="2.98923">
        <ele>654.7</ele>
        <time>2026-04-30T13:41:14.000Z</time>
      </trkpt>
      <trkpt lat="43.99412" lon="2.98925">
        <ele>654.2</ele>
        <time>2026-04-30T13:41:15.000Z</time>
      </trkpt>
      <trkpt lat="43.99411" lon="2.98927">
        <ele>653.9</ele>
        <time>2026-04-30T13:41:16.000Z</time>
      </trkpt>
      <trkpt lat="43.99411" lon="2.98929">
        <ele>653.3</ele>
        <time>2026-04-30T13:41:17.000Z</time>
      </trkpt>
      <trkpt lat="43.99411" lon="2.98929">
        <ele>652.9</ele>
        <time>2026-04-30T13:41:18.000Z</time>
      </trkpt>
      <trkpt lat="43.99411" lon="2.98931">
        <ele>653</ele>
        <time>2026-04-30T13:41:19.000Z</time>
      </trkpt>
      <trkpt lat="43.99411" lon="2.98932">
        <ele>653.1</ele>
        <time>2026-04-30T13:41:20.000Z</time>
      </trkpt>
      <trkpt lat="43.99411" lon="2.98934">
        <ele>652.8</ele>
        <time>2026-04-30T13:41:21.000Z</time>
      </trkpt>
      <trkpt lat="43.99411" lon="2.98936">
        <ele>652.7</ele>
        <time>2026-04-30T13:41:22.000Z</time>
      </trkpt>
      <trkpt lat="43.99411" lon="2.98937">
        <ele>652.6</ele>
        <time>2026-04-30T13:41:23.000Z</time>
      </trkpt>
      <trkpt lat="43.99411" lon="2.98939">
        <ele>652.4</ele>
        <time>2026-04-30T13:41:24.000Z</time>
      </trkpt>
      <trkpt lat="43.99411" lon="2.98941">
        <ele>652.3</ele>
        <time>2026-04-30T13:41:25.000Z</time>
      </trkpt>
      <trkpt lat="43.99411" lon="2.98943">
        <ele>652</ele>
        <time>2026-04-30T13:41:26.000Z</time>
      </trkpt>
      <trkpt lat="43.99411" lon="2.98945">
        <ele>651.7</ele>
        <time>2026-04-30T13:41:27.000Z</time>
      </trkpt>
      <trkpt lat="43.9941" lon="2.98946">
        <ele>651.4</ele>
        <time>2026-04-30T13:41:28.000Z</time>
      </trkpt>
      <trkpt lat="43.9941" lon="2.98947">
        <ele>651.2</ele>
        <time>2026-04-30T13:41:29.000Z</time>
      </trkpt>
      <trkpt lat="43.99411" lon="2.98948">
        <ele>650.7</ele>
        <time>2026-04-30T13:41:30.000Z</time>
      </trkpt>
      <trkpt lat="43.99411" lon="2.9895">
        <ele>650.3</ele>
        <time>2026-04-30T13:41:31.000Z</time>
      </trkpt>
      <trkpt lat="43.99411" lon="2.98951">
        <ele>650.1</ele>
        <time>2026-04-30T13:41:32.000Z</time>
      </trkpt>
      <trkpt lat="43.99412" lon="2.98952">
        <ele>650.1</ele>
        <time>2026-04-30T13:41:33.000Z</time>
      </trkpt>
      <trkpt lat="43.99412" lon="2.98953">
        <ele>650.2</ele>
        <time>2026-04-30T13:41:34.000Z</time>
      </trkpt>
      <trkpt lat="43.99412" lon="2.98955">
        <ele>650.2</ele>
        <time>2026-04-30T13:41:35.000Z</time>
      </trkpt>
      <trkpt lat="43.99412" lon="2.98956">
        <ele>649.8</ele>
        <time>2026-04-30T13:41:36.000Z</time>
      </trkpt>
      <trkpt lat="43.99412" lon="2.98958">
        <ele>649.5</ele>
        <time>2026-04-30T13:41:37.000Z</time>
      </trkpt>
      <trkpt lat="43.99412" lon="2.9896">
        <ele>649.3</ele>
        <time>2026-04-30T13:41:38.000Z</time>
      </trkpt>
      <trkpt lat="43.99412" lon="2.98961">
        <ele>648.9</ele>
        <time>2026-04-30T13:41:39.000Z</time>
      </trkpt>
      <trkpt lat="43.99411" lon="2.98961">
        <ele>648.6</ele>
        <time>2026-04-30T13:41:40.000Z</time>
      </trkpt>
      <trkpt lat="43.99412" lon="2.98961">
        <ele>648.3</ele>
        <time>2026-04-30T13:41:41.000Z</time>
      </trkpt>
      <trkpt lat="43.99411" lon="2.98961">
        <ele>648.9</ele>
        <time>2026-04-30T13:41:42.000Z</time>
      </trkpt>
      <trkpt lat="43.99412" lon="2.98961">
        <ele>648.7</ele>
        <time>2026-04-30T13:41:43.000Z</time>
      </trkpt>
      <trkpt lat="43.99412" lon="2.98962">
        <ele>648.5</ele>
        <time>2026-04-30T13:41:44.000Z</time>
      </trkpt>
      <trkpt lat="43.99413" lon="2.98963">
        <ele>648.5</ele>
        <time>2026-04-30T13:41:45.000Z</time>
      </trkpt>
      <trkpt lat="43.99413" lon="2.98963">
        <ele>648.4</ele>
        <time>2026-04-30T13:41:46.000Z</time>
      </trkpt>
      <trkpt lat="43.99414" lon="2.98963">
        <ele>648.5</ele>
        <time>2026-04-30T13:41:47.000Z</time>
      </trkpt>
      <trkpt lat="43.99414" lon="2.98964">
        <ele>648.5</ele>
        <time>2026-04-30T13:41:48.000Z</time>
      </trkpt>
      <trkpt lat="43.99415" lon="2.98964">
        <ele>648.5</ele>
        <time>2026-04-30T13:41:49.000Z</time>
      </trkpt>
      <trkpt lat="43.99416" lon="2.98966">
        <ele>648.2</ele>
        <time>2026-04-30T13:41:50.000Z</time>
      </trkpt>
      <trkpt lat="43.99417" lon="2.98967">
        <ele>647.8</ele>
        <time>2026-04-30T13:41:51.000Z</time>
      </trkpt>
      <trkpt lat="43.99418" lon="2.98968">
        <ele>647.5</ele>
        <time>2026-04-30T13:41:52.000Z</time>
      </trkpt>
      <trkpt lat="43.99418" lon="2.9897">
        <ele>647.3</ele>
        <time>2026-04-30T13:41:53.000Z</time>
      </trkpt>
      <trkpt lat="43.99419" lon="2.98971">
        <ele>646.8</ele>
        <time>2026-04-30T13:41:54.000Z</time>
      </trkpt>
      <trkpt lat="43.99419" lon="2.98972">
        <ele>646.4</ele>
        <time>2026-04-30T13:41:55.000Z</time>
      </trkpt>
      <trkpt lat="43.99419" lon="2.98973">
        <ele>646.3</ele>
        <time>2026-04-30T13:41:56.000Z</time>
      </trkpt>
      <trkpt lat="43.9942" lon="2.98975">
        <ele>646.3</ele>
        <time>2026-04-30T13:41:57.000Z</time>
      </trkpt>
      <trkpt lat="43.99421" lon="2.98978">
        <ele>645.9</ele>
        <time>2026-04-30T13:41:58.000Z</time>
      </trkpt>
      <trkpt lat="43.99421" lon="2.98979">
        <ele>645.9</ele>
        <time>2026-04-30T13:41:59.000Z</time>
      </trkpt>
      <trkpt lat="43.99421" lon="2.98982">
        <ele>645.6</ele>
        <time>2026-04-30T13:42:00.000Z</time>
      </trkpt>
      <trkpt lat="43.99421" lon="2.98986">
        <ele>645</ele>
        <time>2026-04-30T13:42:01.000Z</time>
      </trkpt>
      <trkpt lat="43.99421" lon="2.98988">
        <ele>644.4</ele>
        <time>2026-04-30T13:42:02.000Z</time>
      </trkpt>
      <trkpt lat="43.99422" lon="2.9899">
        <ele>643.5</ele>
        <time>2026-04-30T13:42:03.000Z</time>
      </trkpt>
      <trkpt lat="43.99423" lon="2.98991">
        <ele>642.9</ele>
        <time>2026-04-30T13:42:04.000Z</time>
      </trkpt>
      <trkpt lat="43.99423" lon="2.98993">
        <ele>642.4</ele>
        <time>2026-04-30T13:42:05.000Z</time>
      </trkpt>
      <trkpt lat="43.99423" lon="2.98995">
        <ele>642.2</ele>
        <time>2026-04-30T13:42:06.000Z</time>
      </trkpt>
      <trkpt lat="43.99424" lon="2.98997">
        <ele>641.5</ele>
        <time>2026-04-30T13:42:07.000Z</time>
      </trkpt>
      <trkpt lat="43.99424" lon="2.98998">
        <ele>640.7</ele>
        <time>2026-04-30T13:42:08.000Z</time>
      </trkpt>
      <trkpt lat="43.99425" lon="2.98999">
        <ele>640</ele>
        <time>2026-04-30T13:42:09.000Z</time>
      </trkpt>
      <trkpt lat="43.99424" lon="2.99001">
        <ele>639.3</ele>
        <time>2026-04-30T13:42:10.000Z</time>
      </trkpt>
      <trkpt lat="43.99425" lon="2.99004">
        <ele>638.7</ele>
        <time>2026-04-30T13:42:11.000Z</time>
      </trkpt>
      <trkpt lat="43.99425" lon="2.99005">
        <ele>638.5</ele>
        <time>2026-04-30T13:42:12.000Z</time>
      </trkpt>
      <trkpt lat="43.99426" lon="2.99007">
        <ele>638.2</ele>
        <time>2026-04-30T13:42:13.000Z</time>
      </trkpt>
      <trkpt lat="43.99426" lon="2.99009">
        <ele>637.9</ele>
        <time>2026-04-30T13:42:14.000Z</time>
      </trkpt>
      <trkpt lat="43.99427" lon="2.99011">
        <ele>637.4</ele>
        <time>2026-04-30T13:42:15.000Z</time>
      </trkpt>
      <trkpt lat="43.99427" lon="2.99014">
        <ele>636.8</ele>
        <time>2026-04-30T13:42:16.000Z</time>
      </trkpt>
      <trkpt lat="43.99427" lon="2.99015">
        <ele>637.2</ele>
        <time>2026-04-30T13:42:17.000Z</time>
      </trkpt>
      <trkpt lat="43.99427" lon="2.99016">
        <ele>637.4</ele>
        <time>2026-04-30T13:42:18.000Z</time>
      </trkpt>
      <trkpt lat="43.99428" lon="2.99016">
        <ele>637.2</ele>
        <time>2026-04-30T13:42:19.000Z</time>
      </trkpt>
      <trkpt lat="43.99428" lon="2.99017">
        <ele>637.2</ele>
        <time>2026-04-30T13:42:20.000Z</time>
      </trkpt>
      <trkpt lat="43.99428" lon="2.99017">
        <ele>636.8</ele>
        <time>2026-04-30T13:42:21.000Z</time>
      </trkpt>
      <trkpt lat="43.99428" lon="2.99017">
        <ele>636.6</ele>
        <time>2026-04-30T13:42:22.000Z</time>
      </trkpt>
      <trkpt lat="43.99428" lon="2.99017">
        <ele>636.3</ele>
        <time>2026-04-30T13:42:23.000Z</time>
      </trkpt>
      <trkpt lat="43.99428" lon="2.99018">
        <ele>635.9</ele>
        <time>2026-04-30T13:42:24.000Z</time>
      </trkpt>
      <trkpt lat="43.99428" lon="2.99019">
        <ele>635.7</ele>
        <time>2026-04-30T13:42:25.000Z</time>
      </trkpt>
      <trkpt lat="43.99428" lon="2.99019">
        <ele>635.4</ele>
        <time>2026-04-30T13:42:26.000Z</time>
      </trkpt>
      <trkpt lat="43.99429" lon="2.9902">
        <ele>635.2</ele>
        <time>2026-04-30T13:42:27.000Z</time>
      </trkpt>
      <trkpt lat="43.9943" lon="2.99023">
        <ele>634.8</ele>
        <time>2026-04-30T13:42:28.000Z</time>
      </trkpt>
      <trkpt lat="43.99431" lon="2.99026">
        <ele>634.5</ele>
        <time>2026-04-30T13:42:29.000Z</time>
      </trkpt>
      <trkpt lat="43.99432" lon="2.99028">
        <ele>634.1</ele>
        <time>2026-04-30T13:42:30.000Z</time>
      </trkpt>
      <trkpt lat="43.99433" lon="2.99031">
        <ele>633.7</ele>
        <time>2026-04-30T13:42:31.000Z</time>
      </trkpt>
      <trkpt lat="43.99434" lon="2.99033">
        <ele>633.3</ele>
        <time>2026-04-30T13:42:32.000Z</time>
      </trkpt>
      <trkpt lat="43.99434" lon="2.99036">
        <ele>632.6</ele>
        <time>2026-04-30T13:42:33.000Z</time>
      </trkpt>
      <trkpt lat="43.99435" lon="2.99038">
        <ele>632.1</ele>
        <time>2026-04-30T13:42:34.000Z</time>
      </trkpt>
      <trkpt lat="43.99436" lon="2.9904">
        <ele>631.4</ele>
        <time>2026-04-30T13:42:35.000Z</time>
      </trkpt>
      <trkpt lat="43.99437" lon="2.9904">
        <ele>631</ele>
        <time>2026-04-30T13:42:36.000Z</time>
      </trkpt>
      <trkpt lat="43.99437" lon="2.99041">
        <ele>630.8</ele>
        <time>2026-04-30T13:42:37.000Z</time>
      </trkpt>
      <trkpt lat="43.99437" lon="2.99041">
        <ele>630.5</ele>
        <time>2026-04-30T13:42:38.000Z</time>
      </trkpt>
      <trkpt lat="43.99437" lon="2.99042">
        <ele>630.5</ele>
        <time>2026-04-30T13:42:39.000Z</time>
      </trkpt>
      <trkpt lat="43.99437" lon="2.99043">
        <ele>630.5</ele>
        <time>2026-04-30T13:42:40.000Z</time>
      </trkpt>
      <trkpt lat="43.99437" lon="2.99045">
        <ele>630.5</ele>
        <time>2026-04-30T13:42:41.000Z</time>
      </trkpt>
      <trkpt lat="43.99438" lon="2.99048">
        <ele>630.4</ele>
        <time>2026-04-30T13:42:42.000Z</time>
      </trkpt>
      <trkpt lat="43.99439" lon="2.9905">
        <ele>630.2</ele>
        <time>2026-04-30T13:42:43.000Z</time>
      </trkpt>
      <trkpt lat="43.99439" lon="2.99052">
        <ele>629.9</ele>
        <time>2026-04-30T13:42:44.000Z</time>
      </trkpt>
      <trkpt lat="43.99441" lon="2.99053">
        <ele>629.6</ele>
        <time>2026-04-30T13:42:45.000Z</time>
      </trkpt>
      <trkpt lat="43.99442" lon="2.99055">
        <ele>629</ele>
        <time>2026-04-30T13:42:46.000Z</time>
      </trkpt>
      <trkpt lat="43.99443" lon="2.99057">
        <ele>628.5</ele>
        <time>2026-04-30T13:42:47.000Z</time>
      </trkpt>
      <trkpt lat="43.99444" lon="2.99057">
        <ele>628.5</ele>
        <time>2026-04-30T13:42:48.000Z</time>
      </trkpt>
      <trkpt lat="43.99445" lon="2.99058">
        <ele>628.7</ele>
        <time>2026-04-30T13:42:49.000Z</time>
      </trkpt>
      <trkpt lat="43.99447" lon="2.99059">
        <ele>628.8</ele>
        <time>2026-04-30T13:42:50.000Z</time>
      </trkpt>
      <trkpt lat="43.99448" lon="2.9906">
        <ele>628.7</ele>
        <time>2026-04-30T13:42:51.000Z</time>
      </trkpt>
      <trkpt lat="43.9945" lon="2.99061">
        <ele>628.1</ele>
        <time>2026-04-30T13:42:52.000Z</time>
      </trkpt>
      <trkpt lat="43.99451" lon="2.99062">
        <ele>627.8</ele>
        <time>2026-04-30T13:42:53.000Z</time>
      </trkpt>
      <trkpt lat="43.99452" lon="2.99064">
        <ele>627.3</ele>
        <time>2026-04-30T13:42:54.000Z</time>
      </trkpt>
      <trkpt lat="43.99453" lon="2.99066">
        <ele>627.1</ele>
        <time>2026-04-30T13:42:55.000Z</time>
      </trkpt>
      <trkpt lat="43.99454" lon="2.99067">
        <ele>627</ele>
        <time>2026-04-30T13:42:56.000Z</time>
      </trkpt>
      <trkpt lat="43.99454" lon="2.99069">
        <ele>626.6</ele>
        <time>2026-04-30T13:42:57.000Z</time>
      </trkpt>
      <trkpt lat="43.99455" lon="2.9907">
        <ele>626.4</ele>
        <time>2026-04-30T13:42:58.000Z</time>
      </trkpt>
      <trkpt lat="43.99455" lon="2.99073">
        <ele>626</ele>
        <time>2026-04-30T13:42:59.000Z</time>
      </trkpt>
      <trkpt lat="43.99456" lon="2.99076">
        <ele>626.1</ele>
        <time>2026-04-30T13:43:00.000Z</time>
      </trkpt>
      <trkpt lat="43.99456" lon="2.99078">
        <ele>626.2</ele>
        <time>2026-04-30T13:43:01.000Z</time>
      </trkpt>
      <trkpt lat="43.99457" lon="2.99079">
        <ele>626.3</ele>
        <time>2026-04-30T13:43:02.000Z</time>
      </trkpt>
      <trkpt lat="43.99458" lon="2.99079">
        <ele>626.2</ele>
        <time>2026-04-30T13:43:03.000Z</time>
      </trkpt>
      <trkpt lat="43.99459" lon="2.99079">
        <ele>626.1</ele>
        <time>2026-04-30T13:43:04.000Z</time>
      </trkpt>
      <trkpt lat="43.99459" lon="2.99079">
        <ele>625.8</ele>
        <time>2026-04-30T13:43:05.000Z</time>
      </trkpt>
      <trkpt lat="43.9946" lon="2.99079">
        <ele>625.1</ele>
        <time>2026-04-30T13:43:06.000Z</time>
      </trkpt>
      <trkpt lat="43.99461" lon="2.99079">
        <ele>624.6</ele>
        <time>2026-04-30T13:43:07.000Z</time>
      </trkpt>
      <trkpt lat="43.99462" lon="2.9908">
        <ele>624</ele>
        <time>2026-04-30T13:43:08.000Z</time>
      </trkpt>
      <trkpt lat="43.99464" lon="2.99082">
        <ele>623.3</ele>
        <time>2026-04-30T13:43:09.000Z</time>
      </trkpt>
      <trkpt lat="43.99465" lon="2.99083">
        <ele>622.7</ele>
        <time>2026-04-30T13:43:10.000Z</time>
      </trkpt>
      <trkpt lat="43.99466" lon="2.99085">
        <ele>622.4</ele>
        <time>2026-04-30T13:43:11.000Z</time>
      </trkpt>
      <trkpt lat="43.99467" lon="2.99086">
        <ele>622.1</ele>
        <time>2026-04-30T13:43:12.000Z</time>
      </trkpt>
      <trkpt lat="43.99467" lon="2.99088">
        <ele>622.3</ele>
        <time>2026-04-30T13:43:13.000Z</time>
      </trkpt>
      <trkpt lat="43.99467" lon="2.99091">
        <ele>622.6</ele>
        <time>2026-04-30T13:43:14.000Z</time>
      </trkpt>
      <trkpt lat="43.99467" lon="2.99094">
        <ele>622.5</ele>
        <time>2026-04-30T13:43:15.000Z</time>
      </trkpt>
      <trkpt lat="43.99467" lon="2.99096">
        <ele>622.3</ele>
        <time>2026-04-30T13:43:16.000Z</time>
      </trkpt>
      <trkpt lat="43.99467" lon="2.99098">
        <ele>621.8</ele>
        <time>2026-04-30T13:43:17.000Z</time>
      </trkpt>
      <trkpt lat="43.99467" lon="2.991">
        <ele>621.2</ele>
        <time>2026-04-30T13:43:18.000Z</time>
      </trkpt>
      <trkpt lat="43.99467" lon="2.99103">
        <ele>620.7</ele>
        <time>2026-04-30T13:43:19.000Z</time>
      </trkpt>
      <trkpt lat="43.99468" lon="2.99105">
        <ele>620.4</ele>
        <time>2026-04-30T13:43:20.000Z</time>
      </trkpt>
      <trkpt lat="43.99467" lon="2.99107">
        <ele>620.1</ele>
        <time>2026-04-30T13:43:21.000Z</time>
      </trkpt>
      <trkpt lat="43.99467" lon="2.99109">
        <ele>620</ele>
        <time>2026-04-30T13:43:22.000Z</time>
      </trkpt>
      <trkpt lat="43.99466" lon="2.99111">
        <ele>619.8</ele>
        <time>2026-04-30T13:43:23.000Z</time>
      </trkpt>
      <trkpt lat="43.99467" lon="2.99112">
        <ele>619.3</ele>
        <time>2026-04-30T13:43:24.000Z</time>
      </trkpt>
      <trkpt lat="43.99468" lon="2.99114">
        <ele>618.9</ele>
        <time>2026-04-30T13:43:25.000Z</time>
      </trkpt>
      <trkpt lat="43.99468" lon="2.99115">
        <ele>618.2</ele>
        <time>2026-04-30T13:43:26.000Z</time>
      </trkpt>
      <trkpt lat="43.99469" lon="2.99116">
        <ele>617.8</ele>
        <time>2026-04-30T13:43:27.000Z</time>
      </trkpt>
      <trkpt lat="43.99469" lon="2.99118">
        <ele>617.6</ele>
        <time>2026-04-30T13:43:28.000Z</time>
      </trkpt>
      <trkpt lat="43.99469" lon="2.99119">
        <ele>617.6</ele>
        <time>2026-04-30T13:43:29.000Z</time>
      </trkpt>
      <trkpt lat="43.99469" lon="2.99119">
        <ele>618.4</ele>
        <time>2026-04-30T13:43:30.000Z</time>
      </trkpt>
      <trkpt lat="43.99469" lon="2.99119">
        <ele>618.2</ele>
        <time>2026-04-30T13:43:31.000Z</time>
      </trkpt>
      <trkpt lat="43.99469" lon="2.9912">
        <ele>617.9</ele>
        <time>2026-04-30T13:43:32.000Z</time>
      </trkpt>
      <trkpt lat="43.99469" lon="2.9912">
        <ele>617.6</ele>
        <time>2026-04-30T13:43:33.000Z</time>
      </trkpt>
      <trkpt lat="43.99469" lon="2.99121">
        <ele>617.1</ele>
        <time>2026-04-30T13:43:34.000Z</time>
      </trkpt>
      <trkpt lat="43.99469" lon="2.99124">
        <ele>616.7</ele>
        <time>2026-04-30T13:43:35.000Z</time>
      </trkpt>
      <trkpt lat="43.99469" lon="2.99127">
        <ele>616.6</ele>
        <time>2026-04-30T13:43:36.000Z</time>
      </trkpt>
      <trkpt lat="43.99469" lon="2.99132">
        <ele>615.9</ele>
        <time>2026-04-30T13:43:37.000Z</time>
      </trkpt>
      <trkpt lat="43.9947" lon="2.99134">
        <ele>615.8</ele>
        <time>2026-04-30T13:43:38.000Z</time>
      </trkpt>
      <trkpt lat="43.99471" lon="2.99136">
        <ele>615.6</ele>
        <time>2026-04-30T13:43:39.000Z</time>
      </trkpt>
      <trkpt lat="43.99471" lon="2.99137">
        <ele>615.4</ele>
        <time>2026-04-30T13:43:40.000Z</time>
      </trkpt>
      <trkpt lat="43.99471" lon="2.99137">
        <ele>615.3</ele>
        <time>2026-04-30T13:43:41.000Z</time>
      </trkpt>
      <trkpt lat="43.99471" lon="2.99138">
        <ele>615.5</ele>
        <time>2026-04-30T13:43:42.000Z</time>
      </trkpt>
      <trkpt lat="43.99471" lon="2.99138">
        <ele>615.6</ele>
        <time>2026-04-30T13:43:43.000Z</time>
      </trkpt>
      <trkpt lat="43.99471" lon="2.99138">
        <ele>615.7</ele>
        <time>2026-04-30T13:43:44.000Z</time>
      </trkpt>
      <trkpt lat="43.99471" lon="2.99139">
        <ele>615.7</ele>
        <time>2026-04-30T13:43:45.000Z</time>
      </trkpt>
      <trkpt lat="43.99471" lon="2.99139">
        <ele>615.4</ele>
        <time>2026-04-30T13:43:46.000Z</time>
      </trkpt>
      <trkpt lat="43.99471" lon="2.99139">
        <ele>615.4</ele>
        <time>2026-04-30T13:43:47.000Z</time>
      </trkpt>
      <trkpt lat="43.99471" lon="2.99139">
        <ele>615.2</ele>
        <time>2026-04-30T13:43:48.000Z</time>
      </trkpt>
      <trkpt lat="43.99471" lon="2.9914">
        <ele>615</ele>
        <time>2026-04-30T13:43:49.000Z</time>
      </trkpt>
      <trkpt lat="43.99471" lon="2.9914">
        <ele>614.7</ele>
        <time>2026-04-30T13:43:50.000Z</time>
      </trkpt>
      <trkpt lat="43.99472" lon="2.9914">
        <ele>614.4</ele>
        <time>2026-04-30T13:43:51.000Z</time>
      </trkpt>
      <trkpt lat="43.99472" lon="2.99141">
        <ele>614.2</ele>
        <time>2026-04-30T13:43:52.000Z</time>
      </trkpt>
      <trkpt lat="43.99472" lon="2.99141">
        <ele>614</ele>
        <time>2026-04-30T13:43:53.000Z</time>
      </trkpt>
      <trkpt lat="43.99472" lon="2.99141">
        <ele>613.8</ele>
        <time>2026-04-30T13:43:54.000Z</time>
      </trkpt>
      <trkpt lat="43.99472" lon="2.99141">
        <ele>613.8</ele>
        <time>2026-04-30T13:43:55.000Z</time>
      </trkpt>
      <trkpt lat="43.99472" lon="2.99141">
        <ele>613.9</ele>
        <time>2026-04-30T13:43:56.000Z</time>
      </trkpt>
      <trkpt lat="43.99472" lon="2.99142">
        <ele>613.8</ele>
        <time>2026-04-30T13:43:57.000Z</time>
      </trkpt>
      <trkpt lat="43.99472" lon="2.99143">
        <ele>613.7</ele>
        <time>2026-04-30T13:43:58.000Z</time>
      </trkpt>
      <trkpt lat="43.99472" lon="2.99143">
        <ele>613.5</ele>
        <time>2026-04-30T13:43:59.000Z</time>
      </trkpt>
      <trkpt lat="43.99473" lon="2.99147">
        <ele>613.2</ele>
        <time>2026-04-30T13:44:00.000Z</time>
      </trkpt>
      <trkpt lat="43.99474" lon="2.99149">
        <ele>612.9</ele>
        <time>2026-04-30T13:44:01.000Z</time>
      </trkpt>
      <trkpt lat="43.99475" lon="2.99151">
        <ele>612.7</ele>
        <time>2026-04-30T13:44:02.000Z</time>
      </trkpt>
      <trkpt lat="43.99475" lon="2.99152">
        <ele>612.6</ele>
        <time>2026-04-30T13:44:03.000Z</time>
      </trkpt>
      <trkpt lat="43.99475" lon="2.99153">
        <ele>612.6</ele>
        <time>2026-04-30T13:44:04.000Z</time>
      </trkpt>
      <trkpt lat="43.99475" lon="2.99153">
        <ele>612.4</ele>
        <time>2026-04-30T13:44:05.000Z</time>
      </trkpt>
      <trkpt lat="43.99475" lon="2.99153">
        <ele>612.4</ele>
        <time>2026-04-30T13:44:06.000Z</time>
      </trkpt>
      <trkpt lat="43.99475" lon="2.99155">
        <ele>612.3</ele>
        <time>2026-04-30T13:44:07.000Z</time>
      </trkpt>
      <trkpt lat="43.99475" lon="2.99156">
        <ele>612.4</ele>
        <time>2026-04-30T13:44:08.000Z</time>
      </trkpt>
      <trkpt lat="43.99476" lon="2.99157">
        <ele>612.5</ele>
        <time>2026-04-30T13:44:09.000Z</time>
      </trkpt>
      <trkpt lat="43.99476" lon="2.99157">
        <ele>612.6</ele>
        <time>2026-04-30T13:44:10.000Z</time>
      </trkpt>
      <trkpt lat="43.99476" lon="2.99157">
        <ele>612.6</ele>
        <time>2026-04-30T13:44:11.000Z</time>
      </trkpt>
      <trkpt lat="43.99476" lon="2.99157">
        <ele>612.6</ele>
        <time>2026-04-30T13:44:12.000Z</time>
      </trkpt>
      <trkpt lat="43.99476" lon="2.99158">
        <ele>612.6</ele>
        <time>2026-04-30T13:44:13.000Z</time>
      </trkpt>
      <trkpt lat="43.99476" lon="2.99158">
        <ele>612.7</ele>
        <time>2026-04-30T13:44:14.000Z</time>
      </trkpt>
      <trkpt lat="43.99477" lon="2.99158">
        <ele>612.8</ele>
        <time>2026-04-30T13:44:15.000Z</time>
      </trkpt>
      <trkpt lat="43.99477" lon="2.99158">
        <ele>612.9</ele>
        <time>2026-04-30T13:44:16.000Z</time>
      </trkpt>
      <trkpt lat="43.99476" lon="2.99158">
        <ele>612.8</ele>
        <time>2026-04-30T13:44:17.000Z</time>
      </trkpt>
      <trkpt lat="43.99476" lon="2.99159">
        <ele>612.6</ele>
        <time>2026-04-30T13:44:18.000Z</time>
      </trkpt>
      <trkpt lat="43.99477" lon="2.9916">
        <ele>612.3</ele>
        <time>2026-04-30T13:44:19.000Z</time>
      </trkpt>
      <trkpt lat="43.99477" lon="2.99161">
        <ele>612</ele>
        <time>2026-04-30T13:44:20.000Z</time>
      </trkpt>
      <trkpt lat="43.99478" lon="2.99162">
        <ele>611.8</ele>
        <time>2026-04-30T13:44:21.000Z</time>
      </trkpt>
      <trkpt lat="43.9948" lon="2.99163">
        <ele>611.6</ele>
        <time>2026-04-30T13:44:22.000Z</time>
      </trkpt>
      <trkpt lat="43.99481" lon="2.99164">
        <ele>611.3</ele>
        <time>2026-04-30T13:44:23.000Z</time>
      </trkpt>
      <trkpt lat="43.99483" lon="2.99165">
        <ele>610.6</ele>
        <time>2026-04-30T13:44:24.000Z</time>
      </trkpt>
      <trkpt lat="43.99484" lon="2.99166">
        <ele>609.8</ele>
        <time>2026-04-30T13:44:25.000Z</time>
      </trkpt>
      <trkpt lat="43.99485" lon="2.99166">
        <ele>609.2</ele>
        <time>2026-04-30T13:44:26.000Z</time>
      </trkpt>
      <trkpt lat="43.99486" lon="2.99165">
        <ele>608.6</ele>
        <time>2026-04-30T13:44:27.000Z</time>
      </trkpt>
      <trkpt lat="43.99487" lon="2.99163">
        <ele>608.4</ele>
        <time>2026-04-30T13:44:28.000Z</time>
      </trkpt>
      <trkpt lat="43.99487" lon="2.99163">
        <ele>608.3</ele>
        <time>2026-04-30T13:44:29.000Z</time>
      </trkpt>
      <trkpt lat="43.99487" lon="2.99162">
        <ele>608.2</ele>
        <time>2026-04-30T13:44:30.000Z</time>
      </trkpt>
      <trkpt lat="43.99486" lon="2.99163">
        <ele>607.7</ele>
        <time>2026-04-30T13:44:31.000Z</time>
      </trkpt>
      <trkpt lat="43.99487" lon="2.99164">
        <ele>607.3</ele>
        <time>2026-04-30T13:44:32.000Z</time>
      </trkpt>
      <trkpt lat="43.99487" lon="2.99164">
        <ele>607.3</ele>
        <time>2026-04-30T13:44:33.000Z</time>
      </trkpt>
      <trkpt lat="43.99488" lon="2.99164">
        <ele>607.4</ele>
        <time>2026-04-30T13:44:34.000Z</time>
      </trkpt>
      <trkpt lat="43.99489" lon="2.99163">
        <ele>607.9</ele>
        <time>2026-04-30T13:44:35.000Z</time>
      </trkpt>
      <trkpt lat="43.99489" lon="2.99163">
        <ele>607.8</ele>
        <time>2026-04-30T13:44:36.000Z</time>
      </trkpt>
      <trkpt lat="43.9949" lon="2.99163">
        <ele>607.9</ele>
        <time>2026-04-30T13:44:37.000Z</time>
      </trkpt>
      <trkpt lat="43.99491" lon="2.99162">
        <ele>608.1</ele>
        <time>2026-04-30T13:44:38.000Z</time>
      </trkpt>
      <trkpt lat="43.99492" lon="2.99162">
        <ele>607.9</ele>
        <time>2026-04-30T13:44:39.000Z</time>
      </trkpt>
      <trkpt lat="43.99494" lon="2.9916">
        <ele>607.7</ele>
        <time>2026-04-30T13:44:40.000Z</time>
      </trkpt>
      <trkpt lat="43.99494" lon="2.99159">
        <ele>607.6</ele>
        <time>2026-04-30T13:44:41.000Z</time>
      </trkpt>
      <trkpt lat="43.99495" lon="2.99157">
        <ele>607.7</ele>
        <time>2026-04-30T13:44:42.000Z</time>
      </trkpt>
      <trkpt lat="43.99496" lon="2.99156">
        <ele>607.7</ele>
        <time>2026-04-30T13:44:43.000Z</time>
      </trkpt>
      <trkpt lat="43.99496" lon="2.99155">
        <ele>608</ele>
        <time>2026-04-30T13:44:44.000Z</time>
      </trkpt>
      <trkpt lat="43.99497" lon="2.99155">
        <ele>608</ele>
        <time>2026-04-30T13:44:45.000Z</time>
      </trkpt>
      <trkpt lat="43.99497" lon="2.99154">
        <ele>608.1</ele>
        <time>2026-04-30T13:44:46.000Z</time>
      </trkpt>
      <trkpt lat="43.99497" lon="2.99153">
        <ele>607.9</ele>
        <time>2026-04-30T13:44:48.000Z</time>
      </trkpt>
      <trkpt lat="43.99497" lon="2.99152">
        <ele>607.8</ele>
        <time>2026-04-30T13:44:49.000Z</time>
      </trkpt>
      <trkpt lat="43.99497" lon="2.9915">
        <ele>607.5</ele>
        <time>2026-04-30T13:44:50.000Z</time>
      </trkpt>
      <trkpt lat="43.99497" lon="2.9915">
        <ele>607.7</ele>
        <time>2026-04-30T13:44:51.000Z</time>
      </trkpt>
      <trkpt lat="43.99499" lon="2.99148">
        <ele>607.7</ele>
        <time>2026-04-30T13:44:52.000Z</time>
      </trkpt>
      <trkpt lat="43.99499" lon="2.99148">
        <ele>607.8</ele>
        <time>2026-04-30T13:44:53.000Z</time>
      </trkpt>
      <trkpt lat="43.995" lon="2.99148">
        <ele>607.8</ele>
        <time>2026-04-30T13:44:54.000Z</time>
      </trkpt>
      <trkpt lat="43.99501" lon="2.99147">
        <ele>607.4</ele>
        <time>2026-04-30T13:44:55.000Z</time>
      </trkpt>
      <trkpt lat="43.99503" lon="2.99146">
        <ele>607.4</ele>
        <time>2026-04-30T13:44:56.000Z</time>
      </trkpt>
      <trkpt lat="43.99504" lon="2.99145">
        <ele>607.4</ele>
        <time>2026-04-30T13:44:57.000Z</time>
      </trkpt>
      <trkpt lat="43.99505" lon="2.99144">
        <ele>607.4</ele>
        <time>2026-04-30T13:44:58.000Z</time>
      </trkpt>
      <trkpt lat="43.99506" lon="2.99142">
        <ele>607.3</ele>
        <time>2026-04-30T13:44:59.000Z</time>
      </trkpt>
      <trkpt lat="43.99506" lon="2.9914">
        <ele>607</ele>
        <time>2026-04-30T13:45:00.000Z</time>
      </trkpt>
      <trkpt lat="43.99507" lon="2.99139">
        <ele>606.9</ele>
        <time>2026-04-30T13:45:01.000Z</time>
      </trkpt>
      <trkpt lat="43.99508" lon="2.99138">
        <ele>606.6</ele>
        <time>2026-04-30T13:45:02.000Z</time>
      </trkpt>
      <trkpt lat="43.99508" lon="2.99138">
        <ele>607.3</ele>
        <time>2026-04-30T13:45:03.000Z</time>
      </trkpt>
      <trkpt lat="43.99508" lon="2.99137">
        <ele>607</ele>
        <time>2026-04-30T13:45:04.000Z</time>
      </trkpt>
      <trkpt lat="43.99509" lon="2.99137">
        <ele>606.9</ele>
        <time>2026-04-30T13:45:05.000Z</time>
      </trkpt>
      <trkpt lat="43.99509" lon="2.99136">
        <ele>606.9</ele>
        <time>2026-04-30T13:45:06.000Z</time>
      </trkpt>
      <trkpt lat="43.9951" lon="2.99135">
        <ele>607.2</ele>
        <time>2026-04-30T13:45:07.000Z</time>
      </trkpt>
      <trkpt lat="43.9951" lon="2.99134">
        <ele>607</ele>
        <time>2026-04-30T13:45:08.000Z</time>
      </trkpt>
      <trkpt lat="43.99511" lon="2.99133">
        <ele>606.8</ele>
        <time>2026-04-30T13:45:09.000Z</time>
      </trkpt>
      <trkpt lat="43.99511" lon="2.99131">
        <ele>606.6</ele>
        <time>2026-04-30T13:45:10.000Z</time>
      </trkpt>
      <trkpt lat="43.99511" lon="2.99129">
        <ele>606.2</ele>
        <time>2026-04-30T13:45:11.000Z</time>
      </trkpt>
      <trkpt lat="43.9951" lon="2.99127">
        <ele>605.5</ele>
        <time>2026-04-30T13:45:12.000Z</time>
      </trkpt>
      <trkpt lat="43.9951" lon="2.99125">
        <ele>605.2</ele>
        <time>2026-04-30T13:45:13.000Z</time>
      </trkpt>
      <trkpt lat="43.9951" lon="2.99124">
        <ele>605.1</ele>
        <time>2026-04-30T13:45:14.000Z</time>
      </trkpt>
      <trkpt lat="43.99509" lon="2.99124">
        <ele>604.9</ele>
        <time>2026-04-30T13:45:15.000Z</time>
      </trkpt>
      <trkpt lat="43.9951" lon="2.99122">
        <ele>604.6</ele>
        <time>2026-04-30T13:45:16.000Z</time>
      </trkpt>
      <trkpt lat="43.9951" lon="2.9912">
        <ele>604.4</ele>
        <time>2026-04-30T13:45:17.000Z</time>
      </trkpt>
      <trkpt lat="43.9951" lon="2.99119">
        <ele>604.6</ele>
        <time>2026-04-30T13:45:18.000Z</time>
      </trkpt>
      <trkpt lat="43.9951" lon="2.99118">
        <ele>604.8</ele>
        <time>2026-04-30T13:45:19.000Z</time>
      </trkpt>
      <trkpt lat="43.9951" lon="2.99117">
        <ele>605</ele>
        <time>2026-04-30T13:45:20.000Z</time>
      </trkpt>
      <trkpt lat="43.99509" lon="2.99116">
        <ele>605.3</ele>
        <time>2026-04-30T13:45:21.000Z</time>
      </trkpt>
      <trkpt lat="43.99509" lon="2.99116">
        <ele>605.5</ele>
        <time>2026-04-30T13:45:22.000Z</time>
      </trkpt>
      <trkpt lat="43.99508" lon="2.99115">
        <ele>605.2</ele>
        <time>2026-04-30T13:45:23.000Z</time>
      </trkpt>
      <trkpt lat="43.99508" lon="2.99114">
        <ele>604.7</ele>
        <time>2026-04-30T13:45:24.000Z</time>
      </trkpt>
      <trkpt lat="43.99508" lon="2.99114">
        <ele>604.6</ele>
        <time>2026-04-30T13:45:25.000Z</time>
      </trkpt>
      <trkpt lat="43.99508" lon="2.99114">
        <ele>604.6</ele>
        <time>2026-04-30T13:45:26.000Z</time>
      </trkpt>
      <trkpt lat="43.99508" lon="2.99114">
        <ele>604.7</ele>
        <time>2026-04-30T13:45:27.000Z</time>
      </trkpt>
      <trkpt lat="43.99509" lon="2.99114">
        <ele>605</ele>
        <time>2026-04-30T13:45:28.000Z</time>
      </trkpt>
      <trkpt lat="43.99509" lon="2.99113">
        <ele>604.6</ele>
        <time>2026-04-30T13:45:29.000Z</time>
      </trkpt>
      <trkpt lat="43.99509" lon="2.99113">
        <ele>604.1</ele>
        <time>2026-04-30T13:45:30.000Z</time>
      </trkpt>
      <trkpt lat="43.9951" lon="2.99111">
        <ele>603.5</ele>
        <time>2026-04-30T13:45:31.000Z</time>
      </trkpt>
      <trkpt lat="43.9951" lon="2.99111">
        <ele>603.1</ele>
        <time>2026-04-30T13:45:32.000Z</time>
      </trkpt>
      <trkpt lat="43.99511" lon="2.99111">
        <ele>602.6</ele>
        <time>2026-04-30T13:45:33.000Z</time>
      </trkpt>
      <trkpt lat="43.99511" lon="2.99111">
        <ele>602.2</ele>
        <time>2026-04-30T13:45:34.000Z</time>
      </trkpt>
      <trkpt lat="43.99512" lon="2.99111">
        <ele>601.9</ele>
        <time>2026-04-30T13:45:35.000Z</time>
      </trkpt>
      <trkpt lat="43.99513" lon="2.99111">
        <ele>601.5</ele>
        <time>2026-04-30T13:45:36.000Z</time>
      </trkpt>
      <trkpt lat="43.99514" lon="2.9911">
        <ele>601.2</ele>
        <time>2026-04-30T13:45:37.000Z</time>
      </trkpt>
      <trkpt lat="43.99515" lon="2.99111">
        <ele>601.1</ele>
        <time>2026-04-30T13:45:38.000Z</time>
      </trkpt>
      <trkpt lat="43.99516" lon="2.99111">
        <ele>600.6</ele>
        <time>2026-04-30T13:45:40.000Z</time>
      </trkpt>
      <trkpt lat="43.99516" lon="2.99111">
        <ele>600.3</ele>
        <time>2026-04-30T13:45:41.000Z</time>
      </trkpt>
      <trkpt lat="43.99516" lon="2.99111">
        <ele>600</ele>
        <time>2026-04-30T13:45:42.000Z</time>
      </trkpt>
      <trkpt lat="43.99516" lon="2.99111">
        <ele>599.9</ele>
        <time>2026-04-30T13:45:43.000Z</time>
      </trkpt>
      <trkpt lat="43.99517" lon="2.99112">
        <ele>600.1</ele>
        <time>2026-04-30T13:45:44.000Z</time>
      </trkpt>
      <trkpt lat="43.99518" lon="2.99112">
        <ele>600.1</ele>
        <time>2026-04-30T13:45:45.000Z</time>
      </trkpt>
      <trkpt lat="43.99519" lon="2.99112">
        <ele>600</ele>
        <time>2026-04-30T13:45:46.000Z</time>
      </trkpt>
      <trkpt lat="43.9952" lon="2.99113">
        <ele>600.2</ele>
        <time>2026-04-30T13:45:47.000Z</time>
      </trkpt>
      <trkpt lat="43.99522" lon="2.99113">
        <ele>599.9</ele>
        <time>2026-04-30T13:45:48.000Z</time>
      </trkpt>
      <trkpt lat="43.99522" lon="2.99113">
        <ele>599.6</ele>
        <time>2026-04-30T13:45:49.000Z</time>
      </trkpt>
      <trkpt lat="43.99524" lon="2.99113">
        <ele>599.4</ele>
        <time>2026-04-30T13:45:50.000Z</time>
      </trkpt>
      <trkpt lat="43.99524" lon="2.99114">
        <ele>598.7</ele>
        <time>2026-04-30T13:45:51.000Z</time>
      </trkpt>
      <trkpt lat="43.99525" lon="2.99115">
        <ele>598</ele>
        <time>2026-04-30T13:45:52.000Z</time>
      </trkpt>
      <trkpt lat="43.99526" lon="2.99117">
        <ele>596.7</ele>
        <time>2026-04-30T13:45:54.000Z</time>
      </trkpt>
      <trkpt lat="43.99527" lon="2.99119">
        <ele>596.2</ele>
        <time>2026-04-30T13:45:55.000Z</time>
      </trkpt>
      <trkpt lat="43.99527" lon="2.99119">
        <ele>596.2</ele>
        <time>2026-04-30T13:45:56.000Z</time>
      </trkpt>
      <trkpt lat="43.99528" lon="2.99119">
        <ele>595.8</ele>
        <time>2026-04-30T13:45:57.000Z</time>
      </trkpt>
      <trkpt lat="43.9953" lon="2.9912">
        <ele>595.2</ele>
        <time>2026-04-30T13:45:58.000Z</time>
      </trkpt>
      <trkpt lat="43.9953" lon="2.9912">
        <ele>594.6</ele>
        <time>2026-04-30T13:45:59.000Z</time>
      </trkpt>
      <trkpt lat="43.99531" lon="2.99121">
        <ele>594.4</ele>
        <time>2026-04-30T13:46:00.000Z</time>
      </trkpt>
      <trkpt lat="43.99532" lon="2.99122">
        <ele>594</ele>
        <time>2026-04-30T13:46:01.000Z</time>
      </trkpt>
      <trkpt lat="43.99532" lon="2.99122">
        <ele>593.9</ele>
        <time>2026-04-30T13:46:02.000Z</time>
      </trkpt>
      <trkpt lat="43.99532" lon="2.99122">
        <ele>593.3</ele>
        <time>2026-04-30T13:46:03.000Z</time>
      </trkpt>
      <trkpt lat="43.99532" lon="2.99122">
        <ele>593.1</ele>
        <time>2026-04-30T13:46:04.000Z</time>
      </trkpt>
      <trkpt lat="43.99532" lon="2.99122">
        <ele>592.9</ele>
        <time>2026-04-30T13:46:05.000Z</time>
      </trkpt>
      <trkpt lat="43.99533" lon="2.99122">
        <ele>592.6</ele>
        <time>2026-04-30T13:46:06.000Z</time>
      </trkpt>
      <trkpt lat="43.99533" lon="2.99123">
        <ele>592.3</ele>
        <time>2026-04-30T13:46:07.000Z</time>
      </trkpt>
      <trkpt lat="43.99533" lon="2.99123">
        <ele>592.1</ele>
        <time>2026-04-30T13:46:08.000Z</time>
      </trkpt>
      <trkpt lat="43.99534" lon="2.99123">
        <ele>591.8</ele>
        <time>2026-04-30T13:46:09.000Z</time>
      </trkpt>
      <trkpt lat="43.99534" lon="2.99122">
        <ele>591.6</ele>
        <time>2026-04-30T13:46:10.000Z</time>
      </trkpt>
      <trkpt lat="43.99534" lon="2.99122">
        <ele>591.2</ele>
        <time>2026-04-30T13:46:11.000Z</time>
      </trkpt>
      <trkpt lat="43.99534" lon="2.99122">
        <ele>591</ele>
        <time>2026-04-30T13:46:12.000Z</time>
      </trkpt>
      <trkpt lat="43.99535" lon="2.99122">
        <ele>590.7</ele>
        <time>2026-04-30T13:46:13.000Z</time>
      </trkpt>
      <trkpt lat="43.99535" lon="2.99122">
        <ele>590.5</ele>
        <time>2026-04-30T13:46:14.000Z</time>
      </trkpt>
      <trkpt lat="43.99535" lon="2.99122">
        <ele>590.2</ele>
        <time>2026-04-30T13:46:15.000Z</time>
      </trkpt>
      <trkpt lat="43.99535" lon="2.99122">
        <ele>589.7</ele>
        <time>2026-04-30T13:46:16.000Z</time>
      </trkpt>
      <trkpt lat="43.99535" lon="2.99122">
        <ele>589.3</ele>
        <time>2026-04-30T13:46:17.000Z</time>
      </trkpt>
      <trkpt lat="43.99536" lon="2.99122">
        <ele>589.1</ele>
        <time>2026-04-30T13:46:18.000Z</time>
      </trkpt>
      <trkpt lat="43.99536" lon="2.99122">
        <ele>588.5</ele>
        <time>2026-04-30T13:46:19.000Z</time>
      </trkpt>
      <trkpt lat="43.99536" lon="2.99122">
        <ele>588.4</ele>
        <time>2026-04-30T13:46:20.000Z</time>
      </trkpt>
      <trkpt lat="43.99536" lon="2.99122">
        <ele>588.6</ele>
        <time>2026-04-30T13:46:21.000Z</time>
      </trkpt>
      <trkpt lat="43.99536" lon="2.99122">
        <ele>588.4</ele>
        <time>2026-04-30T13:46:22.000Z</time>
      </trkpt>
      <trkpt lat="43.99537" lon="2.99123">
        <ele>588.5</ele>
        <time>2026-04-30T13:46:23.000Z</time>
      </trkpt>
      <trkpt lat="43.99537" lon="2.99123">
        <ele>588.3</ele>
        <time>2026-04-30T13:46:24.000Z</time>
      </trkpt>
      <trkpt lat="43.99539" lon="2.99124">
        <ele>588.1</ele>
        <time>2026-04-30T13:46:25.000Z</time>
      </trkpt>
      <trkpt lat="43.99541" lon="2.99125">
        <ele>587.8</ele>
        <time>2026-04-30T13:46:26.000Z</time>
      </trkpt>
      <trkpt lat="43.99543" lon="2.99125">
        <ele>587.6</ele>
        <time>2026-04-30T13:46:27.000Z</time>
      </trkpt>
      <trkpt lat="43.99544" lon="2.99125">
        <ele>587.3</ele>
        <time>2026-04-30T13:46:28.000Z</time>
      </trkpt>
      <trkpt lat="43.99545" lon="2.99126">
        <ele>587.2</ele>
        <time>2026-04-30T13:46:29.000Z</time>
      </trkpt>
      <trkpt lat="43.99545" lon="2.99126">
        <ele>587</ele>
        <time>2026-04-30T13:46:30.000Z</time>
      </trkpt>
      <trkpt lat="43.99545" lon="2.99126">
        <ele>587</ele>
        <time>2026-04-30T13:46:31.000Z</time>
      </trkpt>
      <trkpt lat="43.99545" lon="2.99126">
        <ele>586.6</ele>
        <time>2026-04-30T13:46:32.000Z</time>
      </trkpt>
      <trkpt lat="43.99545" lon="2.99126">
        <ele>586.2</ele>
        <time>2026-04-30T13:46:33.000Z</time>
      </trkpt>
      <trkpt lat="43.99546" lon="2.99126">
        <ele>585.8</ele>
        <time>2026-04-30T13:46:34.000Z</time>
      </trkpt>
      <trkpt lat="43.99546" lon="2.99126">
        <ele>585.3</ele>
        <time>2026-04-30T13:46:35.000Z</time>
      </trkpt>
      <trkpt lat="43.99546" lon="2.99126">
        <ele>585</ele>
        <time>2026-04-30T13:46:36.000Z</time>
      </trkpt>
      <trkpt lat="43.99546" lon="2.99127">
        <ele>585.1</ele>
        <time>2026-04-30T13:46:38.000Z</time>
      </trkpt>
      <trkpt lat="43.99547" lon="2.99127">
        <ele>585.2</ele>
        <time>2026-04-30T13:46:39.000Z</time>
      </trkpt>
      <trkpt lat="43.99547" lon="2.99128">
        <ele>584.9</ele>
        <time>2026-04-30T13:46:40.000Z</time>
      </trkpt>
      <trkpt lat="43.99547" lon="2.99128">
        <ele>584.4</ele>
        <time>2026-04-30T13:46:41.000Z</time>
      </trkpt>
      <trkpt lat="43.99548" lon="2.99129">
        <ele>584.3</ele>
        <time>2026-04-30T13:46:42.000Z</time>
      </trkpt>
      <trkpt lat="43.99548" lon="2.99129">
        <ele>584.1</ele>
        <time>2026-04-30T13:46:43.000Z</time>
      </trkpt>
      <trkpt lat="43.99548" lon="2.99129">
        <ele>583.6</ele>
        <time>2026-04-30T13:46:44.000Z</time>
      </trkpt>
      <trkpt lat="43.99548" lon="2.9913">
        <ele>582.9</ele>
        <time>2026-04-30T13:46:45.000Z</time>
      </trkpt>
      <trkpt lat="43.99548" lon="2.99131">
        <ele>582.5</ele>
        <time>2026-04-30T13:46:46.000Z</time>
      </trkpt>
      <trkpt lat="43.99549" lon="2.99131">
        <ele>582.2</ele>
        <time>2026-04-30T13:46:47.000Z</time>
      </trkpt>
      <trkpt lat="43.99549" lon="2.99132">
        <ele>581.7</ele>
        <time>2026-04-30T13:46:48.000Z</time>
      </trkpt>
      <trkpt lat="43.99549" lon="2.99132">
        <ele>581.3</ele>
        <time>2026-04-30T13:46:49.000Z</time>
      </trkpt>
      <trkpt lat="43.9955" lon="2.99133">
        <ele>581.3</ele>
        <time>2026-04-30T13:46:50.000Z</time>
      </trkpt>
      <trkpt lat="43.9955" lon="2.99133">
        <ele>581.4</ele>
        <time>2026-04-30T13:46:51.000Z</time>
      </trkpt>
      <trkpt lat="43.9955" lon="2.99134">
        <ele>581.5</ele>
        <time>2026-04-30T13:46:52.000Z</time>
      </trkpt>
      <trkpt lat="43.99552" lon="2.99135">
        <ele>581.5</ele>
        <time>2026-04-30T13:46:53.000Z</time>
      </trkpt>
      <trkpt lat="43.99554" lon="2.99137">
        <ele>581.3</ele>
        <time>2026-04-30T13:46:54.000Z</time>
      </trkpt>
      <trkpt lat="43.99556" lon="2.9914">
        <ele>581</ele>
        <time>2026-04-30T13:46:55.000Z</time>
      </trkpt>
      <trkpt lat="43.99558" lon="2.99143">
        <ele>580.4</ele>
        <time>2026-04-30T13:46:56.000Z</time>
      </trkpt>
      <trkpt lat="43.9956" lon="2.99144">
        <ele>580.4</ele>
        <time>2026-04-30T13:46:57.000Z</time>
      </trkpt>
      <trkpt lat="43.99561" lon="2.99146">
        <ele>580.1</ele>
        <time>2026-04-30T13:46:58.000Z</time>
      </trkpt>
      <trkpt lat="43.99564" lon="2.99148">
        <ele>580</ele>
        <time>2026-04-30T13:46:59.000Z</time>
      </trkpt>
      <trkpt lat="43.99565" lon="2.99149">
        <ele>579.9</ele>
        <time>2026-04-30T13:47:00.000Z</time>
      </trkpt>
      <trkpt lat="43.99566" lon="2.99149">
        <ele>579.8</ele>
        <time>2026-04-30T13:47:01.000Z</time>
      </trkpt>
      <trkpt lat="43.99566" lon="2.99151">
        <ele>579.4</ele>
        <time>2026-04-30T13:47:02.000Z</time>
      </trkpt>
      <trkpt lat="43.99567" lon="2.99153">
        <ele>579</ele>
        <time>2026-04-30T13:47:03.000Z</time>
      </trkpt>
      <trkpt lat="43.99568" lon="2.99155">
        <ele>578.6</ele>
        <time>2026-04-30T13:47:04.000Z</time>
      </trkpt>
      <trkpt lat="43.99568" lon="2.99155">
        <ele>578.8</ele>
        <time>2026-04-30T13:47:05.000Z</time>
      </trkpt>
      <trkpt lat="43.99569" lon="2.99155">
        <ele>578.8</ele>
        <time>2026-04-30T13:47:06.000Z</time>
      </trkpt>
      <trkpt lat="43.9957" lon="2.99155">
        <ele>578.8</ele>
        <time>2026-04-30T13:47:07.000Z</time>
      </trkpt>
      <trkpt lat="43.99571" lon="2.99156">
        <ele>578.7</ele>
        <time>2026-04-30T13:47:08.000Z</time>
      </trkpt>
      <trkpt lat="43.99571" lon="2.99157">
        <ele>578.7</ele>
        <time>2026-04-30T13:47:09.000Z</time>
      </trkpt>
      <trkpt lat="43.99572" lon="2.99157">
        <ele>578.7</ele>
        <time>2026-04-30T13:47:10.000Z</time>
      </trkpt>
      <trkpt lat="43.99572" lon="2.99157">
        <ele>578.5</ele>
        <time>2026-04-30T13:47:11.000Z</time>
      </trkpt>
      <trkpt lat="43.99572" lon="2.99157">
        <ele>578.1</ele>
        <time>2026-04-30T13:47:12.000Z</time>
      </trkpt>
      <trkpt lat="43.99572" lon="2.99157">
        <ele>578.1</ele>
        <time>2026-04-30T13:47:13.000Z</time>
      </trkpt>
      <trkpt lat="43.99572" lon="2.99158">
        <ele>577.9</ele>
        <time>2026-04-30T13:47:14.000Z</time>
      </trkpt>
      <trkpt lat="43.99573" lon="2.99158">
        <ele>577.5</ele>
        <time>2026-04-30T13:47:15.000Z</time>
      </trkpt>
      <trkpt lat="43.99573" lon="2.99158">
        <ele>577.1</ele>
        <time>2026-04-30T13:47:16.000Z</time>
      </trkpt>
      <trkpt lat="43.99573" lon="2.99158">
        <ele>577.1</ele>
        <time>2026-04-30T13:47:17.000Z</time>
      </trkpt>
      <trkpt lat="43.99574" lon="2.99159">
        <ele>576.9</ele>
        <time>2026-04-30T13:47:18.000Z</time>
      </trkpt>
      <trkpt lat="43.99574" lon="2.99159">
        <ele>576.6</ele>
        <time>2026-04-30T13:47:19.000Z</time>
      </trkpt>
      <trkpt lat="43.99574" lon="2.99159">
        <ele>576.2</ele>
        <time>2026-04-30T13:47:20.000Z</time>
      </trkpt>
      <trkpt lat="43.99575" lon="2.99159">
        <ele>576.2</ele>
        <time>2026-04-30T13:47:21.000Z</time>
      </trkpt>
      <trkpt lat="43.99575" lon="2.9916">
        <ele>576.3</ele>
        <time>2026-04-30T13:47:22.000Z</time>
      </trkpt>
      <trkpt lat="43.99576" lon="2.9916">
        <ele>576.1</ele>
        <time>2026-04-30T13:47:23.000Z</time>
      </trkpt>
      <trkpt lat="43.99576" lon="2.99161">
        <ele>575.9</ele>
        <time>2026-04-30T13:47:24.000Z</time>
      </trkpt>
      <trkpt lat="43.99576" lon="2.99161">
        <ele>576.1</ele>
        <time>2026-04-30T13:47:25.000Z</time>
      </trkpt>
      <trkpt lat="43.99577" lon="2.99161">
        <ele>576.6</ele>
        <time>2026-04-30T13:47:26.000Z</time>
      </trkpt>
      <trkpt lat="43.99577" lon="2.99161">
        <ele>576.7</ele>
        <time>2026-04-30T13:47:27.000Z</time>
      </trkpt>
      <trkpt lat="43.99577" lon="2.99161">
        <ele>577</ele>
        <time>2026-04-30T13:47:28.000Z</time>
      </trkpt>
      <trkpt lat="43.99577" lon="2.99161">
        <ele>577.2</ele>
        <time>2026-04-30T13:47:29.000Z</time>
      </trkpt>
      <trkpt lat="43.99578" lon="2.99161">
        <ele>577.5</ele>
        <time>2026-04-30T13:47:30.000Z</time>
      </trkpt>
      <trkpt lat="43.99578" lon="2.99161">
        <ele>577.8</ele>
        <time>2026-04-30T13:47:31.000Z</time>
      </trkpt>
      <trkpt lat="43.99578" lon="2.99161">
        <ele>578.2</ele>
        <time>2026-04-30T13:47:32.000Z</time>
      </trkpt>
      <trkpt lat="43.99578" lon="2.99161">
        <ele>578.4</ele>
        <time>2026-04-30T13:47:33.000Z</time>
      </trkpt>
      <trkpt lat="43.99578" lon="2.99161">
        <ele>578.3</ele>
        <time>2026-04-30T13:47:34.000Z</time>
      </trkpt>
      <trkpt lat="43.99578" lon="2.99161">
        <ele>578.1</ele>
        <time>2026-04-30T13:47:35.000Z</time>
      </trkpt>
      <trkpt lat="43.99578" lon="2.9916">
        <ele>578.1</ele>
        <time>2026-04-30T13:47:36.000Z</time>
      </trkpt>
      <trkpt lat="43.99578" lon="2.9916">
        <ele>577.9</ele>
        <time>2026-04-30T13:47:37.000Z</time>
      </trkpt>
      <trkpt lat="43.99578" lon="2.99161">
        <ele>578</ele>
        <time>2026-04-30T13:47:38.000Z</time>
      </trkpt>
      <trkpt lat="43.99578" lon="2.99161">
        <ele>577.5</ele>
        <time>2026-04-30T13:47:39.000Z</time>
      </trkpt>
      <trkpt lat="43.99578" lon="2.99161">
        <ele>577.4</ele>
        <time>2026-04-30T13:47:40.000Z</time>
      </trkpt>
      <trkpt lat="43.99579" lon="2.99162">
        <ele>577.2</ele>
        <time>2026-04-30T13:47:41.000Z</time>
      </trkpt>
      <trkpt lat="43.99579" lon="2.99162">
        <ele>577.2</ele>
        <time>2026-04-30T13:47:42.000Z</time>
      </trkpt>
      <trkpt lat="43.99579" lon="2.99162">
        <ele>577.2</ele>
        <time>2026-04-30T13:47:43.000Z</time>
      </trkpt>
      <trkpt lat="43.99579" lon="2.99162">
        <ele>577.3</ele>
        <time>2026-04-30T13:47:44.000Z</time>
      </trkpt>
      <trkpt lat="43.99579" lon="2.99162">
        <ele>577.5</ele>
        <time>2026-04-30T13:47:45.000Z</time>
      </trkpt>
      <trkpt lat="43.99579" lon="2.99162">
        <ele>577.6</ele>
        <time>2026-04-30T13:47:46.000Z</time>
      </trkpt>
      <trkpt lat="43.99579" lon="2.99162">
        <ele>577.6</ele>
        <time>2026-04-30T13:47:47.000Z</time>
      </trkpt>
      <trkpt lat="43.99579" lon="2.99162">
        <ele>577.5</ele>
        <time>2026-04-30T13:47:48.000Z</time>
      </trkpt>
      <trkpt lat="43.99579" lon="2.99163">
        <ele>577.4</ele>
        <time>2026-04-30T13:47:49.000Z</time>
      </trkpt>
      <trkpt lat="43.99579" lon="2.99163">
        <ele>577.4</ele>
        <time>2026-04-30T13:47:50.000Z</time>
      </trkpt>
      <trkpt lat="43.99579" lon="2.99163">
        <ele>577.3</ele>
        <time>2026-04-30T13:47:51.000Z</time>
      </trkpt>
      <trkpt lat="43.99579" lon="2.99163">
        <ele>577.4</ele>
        <time>2026-04-30T13:47:52.000Z</time>
      </trkpt>
      <trkpt lat="43.99579" lon="2.99163">
        <ele>577.6</ele>
        <time>2026-04-30T13:47:53.000Z</time>
      </trkpt>
      <trkpt lat="43.99579" lon="2.99163">
        <ele>577.5</ele>
        <time>2026-04-30T13:47:54.000Z</time>
      </trkpt>
      <trkpt lat="43.99579" lon="2.99163">
        <ele>577.3</ele>
        <time>2026-04-30T13:47:55.000Z</time>
      </trkpt>
      <trkpt lat="43.99579" lon="2.99163">
        <ele>577.1</ele>
        <time>2026-04-30T13:47:56.000Z</time>
      </trkpt>
      <trkpt lat="43.99579" lon="2.99163">
        <ele>577</ele>
        <time>2026-04-30T13:47:57.000Z</time>
      </trkpt>
      <trkpt lat="43.9958" lon="2.99163">
        <ele>577.1</ele>
        <time>2026-04-30T13:47:58.000Z</time>
      </trkpt>
      <trkpt lat="43.9958" lon="2.99163">
        <ele>576.9</ele>
        <time>2026-04-30T13:47:59.000Z</time>
      </trkpt>
      <trkpt lat="43.99579" lon="2.99163">
        <ele>577.2</ele>
        <time>2026-04-30T13:48:00.000Z</time>
      </trkpt>
      <trkpt lat="43.99579" lon="2.99163">
        <ele>577.3</ele>
        <time>2026-04-30T13:48:01.000Z</time>
      </trkpt>
      <trkpt lat="43.99579" lon="2.99163">
        <ele>577.1</ele>
        <time>2026-04-30T13:48:02.000Z</time>
      </trkpt>
      <trkpt lat="43.99579" lon="2.99164">
        <ele>576.9</ele>
        <time>2026-04-30T13:48:03.000Z</time>
      </trkpt>
      <trkpt lat="43.9958" lon="2.99164">
        <ele>576.9</ele>
        <time>2026-04-30T13:48:04.000Z</time>
      </trkpt>
      <trkpt lat="43.9958" lon="2.99164">
        <ele>576.9</ele>
        <time>2026-04-30T13:48:05.000Z</time>
      </trkpt>
      <trkpt lat="43.9958" lon="2.99164">
        <ele>577</ele>
        <time>2026-04-30T13:48:06.000Z</time>
      </trkpt>
      <trkpt lat="43.9958" lon="2.99165">
        <ele>577.3</ele>
        <time>2026-04-30T13:48:07.000Z</time>
      </trkpt>
      <trkpt lat="43.9958" lon="2.99165">
        <ele>577.6</ele>
        <time>2026-04-30T13:48:08.000Z</time>
      </trkpt>
      <trkpt lat="43.9958" lon="2.99165">
        <ele>577.9</ele>
        <time>2026-04-30T13:48:09.000Z</time>
      </trkpt>
      <trkpt lat="43.9958" lon="2.99165">
        <ele>578</ele>
        <time>2026-04-30T13:48:10.000Z</time>
      </trkpt>
      <trkpt lat="43.9958" lon="2.99165">
        <ele>578.1</ele>
        <time>2026-04-30T13:48:11.000Z</time>
      </trkpt>
      <trkpt lat="43.9958" lon="2.99165">
        <ele>578.1</ele>
        <time>2026-04-30T13:48:12.000Z</time>
      </trkpt>
      <trkpt lat="43.9958" lon="2.99165">
        <ele>578.1</ele>
        <time>2026-04-30T13:48:13.000Z</time>
      </trkpt>
      <trkpt lat="43.9958" lon="2.99165">
        <ele>578.1</ele>
        <time>2026-04-30T13:48:14.000Z</time>
      </trkpt>
      <trkpt lat="43.99581" lon="2.99165">
        <ele>578.1</ele>
        <time>2026-04-30T13:48:15.000Z</time>
      </trkpt>
      <trkpt lat="43.99581" lon="2.99165">
        <ele>578.1</ele>
        <time>2026-04-30T13:48:16.000Z</time>
      </trkpt>
      <trkpt lat="43.99581" lon="2.99165">
        <ele>578.1</ele>
        <time>2026-04-30T13:48:17.000Z</time>
      </trkpt>
      <trkpt lat="43.99581" lon="2.99165">
        <ele>578.3</ele>
        <time>2026-04-30T13:48:18.000Z</time>
      </trkpt>
      <trkpt lat="43.99581" lon="2.99164">
        <ele>578.4</ele>
        <time>2026-04-30T13:48:19.000Z</time>
      </trkpt>
      <trkpt lat="43.99581" lon="2.99164">
        <ele>578.3</ele>
        <time>2026-04-30T13:48:20.000Z</time>
      </trkpt>
      <trkpt lat="43.99581" lon="2.99164">
        <ele>578.4</ele>
        <time>2026-04-30T13:48:21.000Z</time>
      </trkpt>
      <trkpt lat="43.99581" lon="2.99164">
        <ele>578.5</ele>
        <time>2026-04-30T13:48:22.000Z</time>
      </trkpt>
      <trkpt lat="43.99581" lon="2.99164">
        <ele>578.6</ele>
        <time>2026-04-30T13:48:23.000Z</time>
      </trkpt>
      <trkpt lat="43.99581" lon="2.99164">
        <ele>578.8</ele>
        <time>2026-04-30T13:48:24.000Z</time>
      </trkpt>
      <trkpt lat="43.99581" lon="2.99164">
        <ele>579.1</ele>
        <time>2026-04-30T13:48:25.000Z</time>
      </trkpt>
      <trkpt lat="43.99581" lon="2.99164">
        <ele>579.1</ele>
        <time>2026-04-30T13:48:26.000Z</time>
      </trkpt>
      <trkpt lat="43.99581" lon="2.99164">
        <ele>579.2</ele>
        <time>2026-04-30T13:48:27.000Z</time>
      </trkpt>
      <trkpt lat="43.99582" lon="2.99164">
        <ele>579.2</ele>
        <time>2026-04-30T13:48:28.000Z</time>
      </trkpt>
      <trkpt lat="43.99582" lon="2.99164">
        <ele>579.3</ele>
        <time>2026-04-30T13:48:29.000Z</time>
      </trkpt>
      <trkpt lat="43.99582" lon="2.99163">
        <ele>579.4</ele>
        <time>2026-04-30T13:48:30.000Z</time>
      </trkpt>
      <trkpt lat="43.99583" lon="2.99163">
        <ele>579.4</ele>
        <time>2026-04-30T13:48:31.000Z</time>
      </trkpt>
      <trkpt lat="43.99583" lon="2.99163">
        <ele>579.5</ele>
        <time>2026-04-30T13:48:32.000Z</time>
      </trkpt>
      <trkpt lat="43.99583" lon="2.99163">
        <ele>579.5</ele>
        <time>2026-04-30T13:48:33.000Z</time>
      </trkpt>
      <trkpt lat="43.99583" lon="2.99163">
        <ele>579.5</ele>
        <time>2026-04-30T13:48:34.000Z</time>
      </trkpt>
      <trkpt lat="43.99583" lon="2.99163">
        <ele>579.5</ele>
        <time>2026-04-30T13:48:35.000Z</time>
      </trkpt>
      <trkpt lat="43.99583" lon="2.99163">
        <ele>579.8</ele>
        <time>2026-04-30T13:48:36.000Z</time>
      </trkpt>
      <trkpt lat="43.99583" lon="2.99163">
        <ele>579.8</ele>
        <time>2026-04-30T13:48:37.000Z</time>
      </trkpt>
      <trkpt lat="43.99583" lon="2.99163">
        <ele>579.9</ele>
        <time>2026-04-30T13:48:38.000Z</time>
      </trkpt>
      <trkpt lat="43.99583" lon="2.99163">
        <ele>580.1</ele>
        <time>2026-04-30T13:48:39.000Z</time>
      </trkpt>
      <trkpt lat="43.99583" lon="2.99163">
        <ele>580.2</ele>
        <time>2026-04-30T13:48:40.000Z</time>
      </trkpt>
      <trkpt lat="43.99583" lon="2.99163">
        <ele>579.9</ele>
        <time>2026-04-30T13:48:41.000Z</time>
      </trkpt>
      <trkpt lat="43.99583" lon="2.99163">
        <ele>579.8</ele>
        <time>2026-04-30T13:48:42.000Z</time>
      </trkpt>
      <trkpt lat="43.99583" lon="2.99163">
        <ele>579.7</ele>
        <time>2026-04-30T13:48:43.000Z</time>
      </trkpt>
      <trkpt lat="43.99583" lon="2.99163">
        <ele>579.6</ele>
        <time>2026-04-30T13:48:44.000Z</time>
      </trkpt>
      <trkpt lat="43.99583" lon="2.99163">
        <ele>579.6</ele>
        <time>2026-04-30T13:48:45.000Z</time>
      </trkpt>
      <trkpt lat="43.99583" lon="2.99163">
        <ele>579.6</ele>
        <time>2026-04-30T13:48:46.000Z</time>
      </trkpt>
      <trkpt lat="43.99583" lon="2.99163">
        <ele>579.7</ele>
        <time>2026-04-30T13:48:47.000Z</time>
      </trkpt>
      <trkpt lat="43.99583" lon="2.99163">
        <ele>579.6</ele>
        <time>2026-04-30T13:48:48.000Z</time>
      </trkpt>
      <trkpt lat="43.99583" lon="2.99163">
        <ele>579.6</ele>
        <time>2026-04-30T13:48:49.000Z</time>
      </trkpt>
      <trkpt lat="43.99583" lon="2.99163">
        <ele>579.5</ele>
        <time>2026-04-30T13:48:50.000Z</time>
      </trkpt>
      <trkpt lat="43.99583" lon="2.99163">
        <ele>579.4</ele>
        <time>2026-04-30T13:48:51.000Z</time>
      </trkpt>
      <trkpt lat="43.99584" lon="2.99163">
        <ele>579.3</ele>
        <time>2026-04-30T13:48:52.000Z</time>
      </trkpt>
      <trkpt lat="43.99584" lon="2.99163">
        <ele>579.1</ele>
        <time>2026-04-30T13:48:53.000Z</time>
      </trkpt>
      <trkpt lat="43.99584" lon="2.99164">
        <ele>579</ele>
        <time>2026-04-30T13:48:54.000Z</time>
      </trkpt>
      <trkpt lat="43.99584" lon="2.99163">
        <ele>579</ele>
        <time>2026-04-30T13:48:55.000Z</time>
      </trkpt>
      <trkpt lat="43.99584" lon="2.99163">
        <ele>579.1</ele>
        <time>2026-04-30T13:48:56.000Z</time>
      </trkpt>
      <trkpt lat="43.99584" lon="2.99163">
        <ele>579</ele>
        <time>2026-04-30T13:48:57.000Z</time>
      </trkpt>
      <trkpt lat="43.99584" lon="2.99163">
        <ele>579.2</ele>
        <time>2026-04-30T13:48:58.000Z</time>
      </trkpt>
      <trkpt lat="43.99584" lon="2.99163">
        <ele>579.3</ele>
        <time>2026-04-30T13:48:59.000Z</time>
      </trkpt>
      <trkpt lat="43.99584" lon="2.99163">
        <ele>579.3</ele>
        <time>2026-04-30T13:49:00.000Z</time>
      </trkpt>
      <trkpt lat="43.99584" lon="2.99163">
        <ele>579.1</ele>
        <time>2026-04-30T13:49:01.000Z</time>
      </trkpt>
      <trkpt lat="43.99584" lon="2.99163">
        <ele>579.1</ele>
        <time>2026-04-30T13:49:02.000Z</time>
      </trkpt>
      <trkpt lat="43.99584" lon="2.99164">
        <ele>578.9</ele>
        <time>2026-04-30T13:49:03.000Z</time>
      </trkpt>
      <trkpt lat="43.99584" lon="2.99164">
        <ele>579</ele>
        <time>2026-04-30T13:49:04.000Z</time>
      </trkpt>
      <trkpt lat="43.99584" lon="2.99164">
        <ele>579</ele>
        <time>2026-04-30T13:49:05.000Z</time>
      </trkpt>
      <trkpt lat="43.99584" lon="2.99164">
        <ele>579</ele>
        <time>2026-04-30T13:49:06.000Z</time>
      </trkpt>
      <trkpt lat="43.99584" lon="2.99164">
        <ele>579.2</ele>
        <time>2026-04-30T13:49:07.000Z</time>
      </trkpt>
      <trkpt lat="43.99584" lon="2.99164">
        <ele>579.4</ele>
        <time>2026-04-30T13:49:08.000Z</time>
      </trkpt>
      <trkpt lat="43.99584" lon="2.99164">
        <ele>579.5</ele>
        <time>2026-04-30T13:49:09.000Z</time>
      </trkpt>
      <trkpt lat="43.99585" lon="2.99164">
        <ele>579.8</ele>
        <time>2026-04-30T13:49:10.000Z</time>
      </trkpt>
      <trkpt lat="43.99584" lon="2.99164">
        <ele>579.9</ele>
        <time>2026-04-30T13:49:11.000Z</time>
      </trkpt>
      <trkpt lat="43.99585" lon="2.99164">
        <ele>579.8</ele>
        <time>2026-04-30T13:49:12.000Z</time>
      </trkpt>
      <trkpt lat="43.99585" lon="2.99164">
        <ele>579.7</ele>
        <time>2026-04-30T13:49:13.000Z</time>
      </trkpt>
      <trkpt lat="43.99585" lon="2.99164">
        <ele>579.6</ele>
        <time>2026-04-30T13:49:14.000Z</time>
      </trkpt>
      <trkpt lat="43.99585" lon="2.99163">
        <ele>579.3</ele>
        <time>2026-04-30T13:49:15.000Z</time>
      </trkpt>
      <trkpt lat="43.99585" lon="2.99163">
        <ele>579.3</ele>
        <time>2026-04-30T13:49:16.000Z</time>
      </trkpt>
      <trkpt lat="43.99584" lon="2.99163">
        <ele>579</ele>
        <time>2026-04-30T13:49:17.000Z</time>
      </trkpt>
      <trkpt lat="43.99585" lon="2.99163">
        <ele>578.9</ele>
        <time>2026-04-30T13:49:18.000Z</time>
      </trkpt>
      <trkpt lat="43.99584" lon="2.99163">
        <ele>578.5</ele>
        <time>2026-04-30T13:49:19.000Z</time>
      </trkpt>
      <trkpt lat="43.99584" lon="2.99163">
        <ele>578.4</ele>
        <time>2026-04-30T13:49:20.000Z</time>
      </trkpt>
      <trkpt lat="43.99584" lon="2.99163">
        <ele>578.1</ele>
        <time>2026-04-30T13:49:21.000Z</time>
      </trkpt>
      <trkpt lat="43.99585" lon="2.99163">
        <ele>577.8</ele>
        <time>2026-04-30T13:49:22.000Z</time>
      </trkpt>
      <trkpt lat="43.99585" lon="2.99163">
        <ele>577.5</ele>
        <time>2026-04-30T13:49:23.000Z</time>
      </trkpt>
      <trkpt lat="43.99585" lon="2.99163">
        <ele>577.3</ele>
        <time>2026-04-30T13:49:24.000Z</time>
      </trkpt>
      <trkpt lat="43.99585" lon="2.99163">
        <ele>577.3</ele>
        <time>2026-04-30T13:49:25.000Z</time>
      </trkpt>
      <trkpt lat="43.99585" lon="2.99163">
        <ele>577.2</ele>
        <time>2026-04-30T13:49:26.000Z</time>
      </trkpt>
      <trkpt lat="43.99585" lon="2.99163">
        <ele>577.1</ele>
        <time>2026-04-30T13:49:27.000Z</time>
      </trkpt>
      <trkpt lat="43.99585" lon="2.99163">
        <ele>577.2</ele>
        <time>2026-04-30T13:49:28.000Z</time>
      </trkpt>
      <trkpt lat="43.99585" lon="2.99163">
        <ele>577.2</ele>
        <time>2026-04-30T13:49:29.000Z</time>
      </trkpt>
      <trkpt lat="43.99585" lon="2.99163">
        <ele>577.2</ele>
        <time>2026-04-30T13:49:30.000Z</time>
      </trkpt>
      <trkpt lat="43.99585" lon="2.99163">
        <ele>577.3</ele>
        <time>2026-04-30T13:49:31.000Z</time>
      </trkpt>
      <trkpt lat="43.99585" lon="2.99163">
        <ele>577.4</ele>
        <time>2026-04-30T13:49:32.000Z</time>
      </trkpt>
      <trkpt lat="43.99585" lon="2.99163">
        <ele>577.8</ele>
        <time>2026-04-30T13:49:33.000Z</time>
      </trkpt>
      <trkpt lat="43.99585" lon="2.99163">
        <ele>578.1</ele>
        <time>2026-04-30T13:49:34.000Z</time>
      </trkpt>
      <trkpt lat="43.99585" lon="2.99163">
        <ele>578.3</ele>
        <time>2026-04-30T13:49:35.000Z</time>
      </trkpt>
      <trkpt lat="43.99585" lon="2.99163">
        <ele>578.3</ele>
        <time>2026-04-30T13:49:36.000Z</time>
      </trkpt>
      <trkpt lat="43.99585" lon="2.99163">
        <ele>578.4</ele>
        <time>2026-04-30T13:49:37.000Z</time>
      </trkpt>
      <trkpt lat="43.99585" lon="2.99163">
        <ele>578.4</ele>
        <time>2026-04-30T13:49:38.000Z</time>
      </trkpt>
      <trkpt lat="43.99585" lon="2.99163">
        <ele>578.4</ele>
        <time>2026-04-30T13:49:39.000Z</time>
      </trkpt>
      <trkpt lat="43.99585" lon="2.99163">
        <ele>578.5</ele>
        <time>2026-04-30T13:49:40.000Z</time>
      </trkpt>
      <trkpt lat="43.99585" lon="2.99163">
        <ele>578.6</ele>
        <time>2026-04-30T13:49:41.000Z</time>
      </trkpt>
      <trkpt lat="43.99585" lon="2.99163">
        <ele>578.5</ele>
        <time>2026-04-30T13:49:42.000Z</time>
      </trkpt>
      <trkpt lat="43.99585" lon="2.99163">
        <ele>578.4</ele>
        <time>2026-04-30T13:49:43.000Z</time>
      </trkpt>
      <trkpt lat="43.99585" lon="2.99163">
        <ele>578.4</ele>
        <time>2026-04-30T13:49:44.000Z</time>
      </trkpt>
      <trkpt lat="43.99585" lon="2.99163">
        <ele>578.4</ele>
        <time>2026-04-30T13:49:45.000Z</time>
      </trkpt>
      <trkpt lat="43.99585" lon="2.99163">
        <ele>578.3</ele>
        <time>2026-04-30T13:49:46.000Z</time>
      </trkpt>
      <trkpt lat="43.99585" lon="2.99163">
        <ele>578.2</ele>
        <time>2026-04-30T13:49:47.000Z</time>
      </trkpt>
      <trkpt lat="43.99585" lon="2.99163">
        <ele>578.1</ele>
        <time>2026-04-30T13:49:48.000Z</time>
      </trkpt>
      <trkpt lat="43.99585" lon="2.99163">
        <ele>578.1</ele>
        <time>2026-04-30T13:49:49.000Z</time>
      </trkpt>
      <trkpt lat="43.99585" lon="2.99163">
        <ele>578.2</ele>
        <time>2026-04-30T13:49:50.000Z</time>
      </trkpt>
      <trkpt lat="43.99586" lon="2.99163">
        <ele>578.2</ele>
        <time>2026-04-30T13:49:51.000Z</time>
      </trkpt>
      <trkpt lat="43.99586" lon="2.99163">
        <ele>578.2</ele>
        <time>2026-04-30T13:49:52.000Z</time>
      </trkpt>
      <trkpt lat="43.99586" lon="2.99163">
        <ele>578.2</ele>
        <time>2026-04-30T13:49:53.000Z</time>
      </trkpt>
      <trkpt lat="43.99586" lon="2.99163">
        <ele>578.4</ele>
        <time>2026-04-30T13:49:54.000Z</time>
      </trkpt>
      <trkpt lat="43.99586" lon="2.99163">
        <ele>578.3</ele>
        <time>2026-04-30T13:49:55.000Z</time>
      </trkpt>
      <trkpt lat="43.99586" lon="2.99163">
        <ele>578.2</ele>
        <time>2026-04-30T13:49:56.000Z</time>
      </trkpt>
      <trkpt lat="43.99586" lon="2.99163">
        <ele>578.2</ele>
        <time>2026-04-30T13:49:57.000Z</time>
      </trkpt>
      <trkpt lat="43.99586" lon="2.99163">
        <ele>578.4</ele>
        <time>2026-04-30T13:49:58.000Z</time>
      </trkpt>
      <trkpt lat="43.99586" lon="2.99163">
        <ele>578.6</ele>
        <time>2026-04-30T13:49:59.000Z</time>
      </trkpt>
      <trkpt lat="43.99586" lon="2.99163">
        <ele>578.8</ele>
        <time>2026-04-30T13:50:00.000Z</time>
      </trkpt>
      <trkpt lat="43.99586" lon="2.99163">
        <ele>578.9</ele>
        <time>2026-04-30T13:50:01.000Z</time>
      </trkpt>
      <trkpt lat="43.99586" lon="2.99163">
        <ele>579</ele>
        <time>2026-04-30T13:50:02.000Z</time>
      </trkpt>
      <trkpt lat="43.99586" lon="2.99163">
        <ele>579.1</ele>
        <time>2026-04-30T13:50:03.000Z</time>
      </trkpt>
      <trkpt lat="43.99586" lon="2.99163">
        <ele>579.2</ele>
        <time>2026-04-30T13:50:04.000Z</time>
      </trkpt>
      <trkpt lat="43.99586" lon="2.99163">
        <ele>579.4</ele>
        <time>2026-04-30T13:50:05.000Z</time>
      </trkpt>
      <trkpt lat="43.99585" lon="2.99163">
        <ele>579.6</ele>
        <time>2026-04-30T13:50:06.000Z</time>
      </trkpt>
      <trkpt lat="43.99585" lon="2.99163">
        <ele>579.8</ele>
        <time>2026-04-30T13:50:07.000Z</time>
      </trkpt>
      <trkpt lat="43.99585" lon="2.99163">
        <ele>579.9</ele>
        <time>2026-04-30T13:50:08.000Z</time>
      </trkpt>
      <trkpt lat="43.99585" lon="2.99163">
        <ele>579.7</ele>
        <time>2026-04-30T13:50:09.000Z</time>
      </trkpt>
      <trkpt lat="43.99585" lon="2.99163">
        <ele>579.6</ele>
        <time>2026-04-30T13:50:10.000Z</time>
      </trkpt>
      <trkpt lat="43.99585" lon="2.99163">
        <ele>579.6</ele>
        <time>2026-04-30T13:50:11.000Z</time>
      </trkpt>
      <trkpt lat="43.99585" lon="2.99163">
        <ele>579.9</ele>
        <time>2026-04-30T13:50:12.000Z</time>
      </trkpt>
      <trkpt lat="43.99585" lon="2.99163">
        <ele>580.1</ele>
        <time>2026-04-30T13:50:13.000Z</time>
      </trkpt>
      <trkpt lat="43.99585" lon="2.99163">
        <ele>580.3</ele>
        <time>2026-04-30T13:50:14.000Z</time>
      </trkpt>
      <trkpt lat="43.99585" lon="2.99163">
        <ele>580.4</ele>
        <time>2026-04-30T13:50:15.000Z</time>
      </trkpt>
      <trkpt lat="43.99585" lon="2.99163">
        <ele>580.4</ele>
        <time>2026-04-30T13:50:16.000Z</time>
      </trkpt>
      <trkpt lat="43.99585" lon="2.99163">
        <ele>580.5</ele>
        <time>2026-04-30T13:50:17.000Z</time>
      </trkpt>
      <trkpt lat="43.99585" lon="2.99163">
        <ele>580.8</ele>
        <time>2026-04-30T13:50:18.000Z</time>
      </trkpt>
      <trkpt lat="43.99585" lon="2.99162">
        <ele>581</ele>
        <time>2026-04-30T13:50:19.000Z</time>
      </trkpt>
      <trkpt lat="43.99586" lon="2.99162">
        <ele>581.1</ele>
        <time>2026-04-30T13:50:20.000Z</time>
      </trkpt>
      <trkpt lat="43.99586" lon="2.99162">
        <ele>581.1</ele>
        <time>2026-04-30T13:50:21.000Z</time>
      </trkpt>
      <trkpt lat="43.99586" lon="2.99162">
        <ele>581.2</ele>
        <time>2026-04-30T13:50:22.000Z</time>
      </trkpt>
      <trkpt lat="43.99586" lon="2.99162">
        <ele>581.2</ele>
        <time>2026-04-30T13:50:23.000Z</time>
      </trkpt>
      <trkpt lat="43.99586" lon="2.99162">
        <ele>581.1</ele>
        <time>2026-04-30T13:50:24.000Z</time>
      </trkpt>
      <trkpt lat="43.99586" lon="2.99162">
        <ele>581.2</ele>
        <time>2026-04-30T13:50:25.000Z</time>
      </trkpt>
      <trkpt lat="43.99586" lon="2.99163">
        <ele>581.3</ele>
        <time>2026-04-30T13:50:26.000Z</time>
      </trkpt>
      <trkpt lat="43.99586" lon="2.99163">
        <ele>581.3</ele>
        <time>2026-04-30T13:50:27.000Z</time>
      </trkpt>
      <trkpt lat="43.99586" lon="2.99163">
        <ele>581.3</ele>
        <time>2026-04-30T13:50:28.000Z</time>
      </trkpt>
      <trkpt lat="43.99586" lon="2.99163">
        <ele>581.4</ele>
        <time>2026-04-30T13:50:29.000Z</time>
      </trkpt>
      <trkpt lat="43.99586" lon="2.99163">
        <ele>581.6</ele>
        <time>2026-04-30T13:50:30.000Z</time>
      </trkpt>
      <trkpt lat="43.99586" lon="2.99163">
        <ele>581.7</ele>
        <time>2026-04-30T13:50:31.000Z</time>
      </trkpt>
      <trkpt lat="43.99586" lon="2.99163">
        <ele>581.8</ele>
        <time>2026-04-30T13:50:32.000Z</time>
      </trkpt>
      <trkpt lat="43.99586" lon="2.99163">
        <ele>582.1</ele>
        <time>2026-04-30T13:50:33.000Z</time>
      </trkpt>
      <trkpt lat="43.99586" lon="2.99163">
        <ele>582.2</ele>
        <time>2026-04-30T13:50:34.000Z</time>
      </trkpt>
      <trkpt lat="43.99586" lon="2.99163">
        <ele>582.5</ele>
        <time>2026-04-30T13:50:35.000Z</time>
      </trkpt>
      <trkpt lat="43.99586" lon="2.99163">
        <ele>582.5</ele>
        <time>2026-04-30T13:50:36.000Z</time>
      </trkpt>
      <trkpt lat="43.99586" lon="2.99163">
        <ele>582.4</ele>
        <time>2026-04-30T13:50:37.000Z</time>
      </trkpt>
      <trkpt lat="43.99586" lon="2.99163">
        <ele>582.2</ele>
        <time>2026-04-30T13:50:38.000Z</time>
      </trkpt>
      <trkpt lat="43.99586" lon="2.99163">
        <ele>582.2</ele>
        <time>2026-04-30T13:50:39.000Z</time>
      </trkpt>
      <trkpt lat="43.99586" lon="2.99163">
        <ele>582.6</ele>
        <time>2026-04-30T13:50:40.000Z</time>
      </trkpt>
      <trkpt lat="43.99586" lon="2.99163">
        <ele>582.9</ele>
        <time>2026-04-30T13:50:41.000Z</time>
      </trkpt>
      <trkpt lat="43.99586" lon="2.99163">
        <ele>583.1</ele>
        <time>2026-04-30T13:50:42.000Z</time>
      </trkpt>
      <trkpt lat="43.99586" lon="2.99163">
        <ele>583.2</ele>
        <time>2026-04-30T13:50:43.000Z</time>
      </trkpt>
      <trkpt lat="43.99586" lon="2.99163">
        <ele>583.1</ele>
        <time>2026-04-30T13:50:44.000Z</time>
      </trkpt>
      <trkpt lat="43.99586" lon="2.99163">
        <ele>582.9</ele>
        <time>2026-04-30T13:50:45.000Z</time>
      </trkpt>
      <trkpt lat="43.99586" lon="2.99163">
        <ele>582.8</ele>
        <time>2026-04-30T13:50:46.000Z</time>
      </trkpt>
      <trkpt lat="43.99586" lon="2.99163">
        <ele>582.5</ele>
        <time>2026-04-30T13:50:47.000Z</time>
      </trkpt>
      <trkpt lat="43.99586" lon="2.99163">
        <ele>582.5</ele>
        <time>2026-04-30T13:50:48.000Z</time>
      </trkpt>
      <trkpt lat="43.99586" lon="2.99163">
        <ele>582.3</ele>
        <time>2026-04-30T13:50:49.000Z</time>
      </trkpt>
      <trkpt lat="43.99586" lon="2.99163">
        <ele>582.4</ele>
        <time>2026-04-30T13:50:50.000Z</time>
      </trkpt>
      <trkpt lat="43.99586" lon="2.99163">
        <ele>582.3</ele>
        <time>2026-04-30T13:50:51.000Z</time>
      </trkpt>
      <trkpt lat="43.99586" lon="2.99164">
        <ele>582.3</ele>
        <time>2026-04-30T13:50:52.000Z</time>
      </trkpt>
      <trkpt lat="43.99586" lon="2.99164">
        <ele>582.1</ele>
        <time>2026-04-30T13:50:53.000Z</time>
      </trkpt>
      <trkpt lat="43.99587" lon="2.99164">
        <ele>582</ele>
        <time>2026-04-30T13:50:54.000Z</time>
      </trkpt>
      <trkpt lat="43.99587" lon="2.99164">
        <ele>581.9</ele>
        <time>2026-04-30T13:50:55.000Z</time>
      </trkpt>
      <trkpt lat="43.99587" lon="2.99165">
        <ele>581.9</ele>
        <time>2026-04-30T13:50:56.000Z</time>
      </trkpt>
      <trkpt lat="43.99587" lon="2.99165">
        <ele>581.8</ele>
        <time>2026-04-30T13:50:57.000Z</time>
      </trkpt>
      <trkpt lat="43.99587" lon="2.99165">
        <ele>581.7</ele>
        <time>2026-04-30T13:50:58.000Z</time>
      </trkpt>
      <trkpt lat="43.99587" lon="2.99165">
        <ele>581.7</ele>
        <time>2026-04-30T13:50:59.000Z</time>
      </trkpt>
      <trkpt lat="43.99587" lon="2.99165">
        <ele>581.8</ele>
        <time>2026-04-30T13:51:00.000Z</time>
      </trkpt>
      <trkpt lat="43.99587" lon="2.99165">
        <ele>581.8</ele>
        <time>2026-04-30T13:51:01.000Z</time>
      </trkpt>
      <trkpt lat="43.99587" lon="2.99165">
        <ele>581.7</ele>
        <time>2026-04-30T13:51:02.000Z</time>
      </trkpt>
      <trkpt lat="43.99587" lon="2.99165">
        <ele>581.6</ele>
        <time>2026-04-30T13:51:03.000Z</time>
      </trkpt>
      <trkpt lat="43.99587" lon="2.99165">
        <ele>581.6</ele>
        <time>2026-04-30T13:51:04.000Z</time>
      </trkpt>
      <trkpt lat="43.99587" lon="2.99165">
        <ele>581.4</ele>
        <time>2026-04-30T13:51:05.000Z</time>
      </trkpt>
      <trkpt lat="43.99587" lon="2.99165">
        <ele>581.2</ele>
        <time>2026-04-30T13:51:06.000Z</time>
      </trkpt>
      <trkpt lat="43.99587" lon="2.99165">
        <ele>581.1</ele>
        <time>2026-04-30T13:51:07.000Z</time>
      </trkpt>
      <trkpt lat="43.99587" lon="2.99165">
        <ele>581</ele>
        <time>2026-04-30T13:51:09.000Z</time>
      </trkpt>
      <trkpt lat="43.99587" lon="2.99165">
        <ele>581.2</ele>
        <time>2026-04-30T13:51:10.000Z</time>
      </trkpt>
      <trkpt lat="43.99587" lon="2.99165">
        <ele>581</ele>
        <time>2026-04-30T13:51:11.000Z</time>
      </trkpt>
      <trkpt lat="43.99587" lon="2.99165">
        <ele>580.5</ele>
        <time>2026-04-30T13:51:12.000Z</time>
      </trkpt>
      <trkpt lat="43.99587" lon="2.99165">
        <ele>580.5</ele>
        <time>2026-04-30T13:51:13.000Z</time>
      </trkpt>
      <trkpt lat="43.99587" lon="2.99165">
        <ele>580.5</ele>
        <time>2026-04-30T13:51:14.000Z</time>
      </trkpt>
      <trkpt lat="43.99587" lon="2.99165">
        <ele>580.7</ele>
        <time>2026-04-30T13:51:15.000Z</time>
      </trkpt>
      <trkpt lat="43.99587" lon="2.99165">
        <ele>580.8</ele>
        <time>2026-04-30T13:51:16.000Z</time>
      </trkpt>
      <trkpt lat="43.99587" lon="2.99165">
        <ele>580.9</ele>
        <time>2026-04-30T13:51:17.000Z</time>
      </trkpt>
      <trkpt lat="43.99587" lon="2.99165">
        <ele>580.9</ele>
        <time>2026-04-30T13:51:18.000Z</time>
      </trkpt>
      <trkpt lat="43.99587" lon="2.99165">
        <ele>580.7</ele>
        <time>2026-04-30T13:51:19.000Z</time>
      </trkpt>
      <trkpt lat="43.99587" lon="2.99165">
        <ele>580.6</ele>
        <time>2026-04-30T13:51:20.000Z</time>
      </trkpt>
      <trkpt lat="43.99587" lon="2.99165">
        <ele>580.5</ele>
        <time>2026-04-30T13:51:21.000Z</time>
      </trkpt>
      <trkpt lat="43.99587" lon="2.99164">
        <ele>580.7</ele>
        <time>2026-04-30T13:51:22.000Z</time>
      </trkpt>
      <trkpt lat="43.99587" lon="2.99164">
        <ele>580.9</ele>
        <time>2026-04-30T13:51:23.000Z</time>
      </trkpt>
      <trkpt lat="43.99587" lon="2.99164">
        <ele>581.2</ele>
        <time>2026-04-30T13:51:24.000Z</time>
      </trkpt>
      <trkpt lat="43.99587" lon="2.99164">
        <ele>581.2</ele>
        <time>2026-04-30T13:51:25.000Z</time>
      </trkpt>
      <trkpt lat="43.99587" lon="2.99164">
        <ele>581</ele>
        <time>2026-04-30T13:51:26.000Z</time>
      </trkpt>
      <trkpt lat="43.99587" lon="2.99164">
        <ele>580.9</ele>
        <time>2026-04-30T13:51:27.000Z</time>
      </trkpt>
      <trkpt lat="43.99587" lon="2.99164">
        <ele>581.2</ele>
        <time>2026-04-30T13:51:28.000Z</time>
      </trkpt>
      <trkpt lat="43.99587" lon="2.99164">
        <ele>581.2</ele>
        <time>2026-04-30T13:51:29.000Z</time>
      </trkpt>
      <trkpt lat="43.99587" lon="2.99164">
        <ele>581.3</ele>
        <time>2026-04-30T13:51:30.000Z</time>
      </trkpt>
      <trkpt lat="43.99586" lon="2.99164">
        <ele>581.3</ele>
        <time>2026-04-30T13:51:31.000Z</time>
      </trkpt>
      <trkpt lat="43.99586" lon="2.99164">
        <ele>581.4</ele>
        <time>2026-04-30T13:51:32.000Z</time>
      </trkpt>
      <trkpt lat="43.99586" lon="2.99164">
        <ele>581.8</ele>
        <time>2026-04-30T13:51:33.000Z</time>
      </trkpt>
      <trkpt lat="43.99586" lon="2.99164">
        <ele>582.2</ele>
        <time>2026-04-30T13:51:34.000Z</time>
      </trkpt>
      <trkpt lat="43.99586" lon="2.99164">
        <ele>582.4</ele>
        <time>2026-04-30T13:51:35.000Z</time>
      </trkpt>
      <trkpt lat="43.99586" lon="2.99164">
        <ele>582.5</ele>
        <time>2026-04-30T13:51:36.000Z</time>
      </trkpt>
      <trkpt lat="43.99586" lon="2.99164">
        <ele>582.6</ele>
        <time>2026-04-30T13:51:37.000Z</time>
      </trkpt>
      <trkpt lat="43.99586" lon="2.99164">
        <ele>583</ele>
        <time>2026-04-30T13:51:38.000Z</time>
      </trkpt>
      <trkpt lat="43.99586" lon="2.99164">
        <ele>583.3</ele>
        <time>2026-04-30T13:51:39.000Z</time>
      </trkpt>
      <trkpt lat="43.99586" lon="2.99164">
        <ele>583.6</ele>
        <time>2026-04-30T13:51:40.000Z</time>
      </trkpt>
      <trkpt lat="43.99586" lon="2.99163">
        <ele>584</ele>
        <time>2026-04-30T13:51:41.000Z</time>
      </trkpt>
      <trkpt lat="43.99586" lon="2.99163">
        <ele>584.2</ele>
        <time>2026-04-30T13:51:42.000Z</time>
      </trkpt>
      <trkpt lat="43.99585" lon="2.99163">
        <ele>584.3</ele>
        <time>2026-04-30T13:51:43.000Z</time>
      </trkpt>
      <trkpt lat="43.99585" lon="2.99163">
        <ele>584.3</ele>
        <time>2026-04-30T13:51:44.000Z</time>
      </trkpt>
      <trkpt lat="43.99585" lon="2.99163">
        <ele>584.2</ele>
        <time>2026-04-30T13:51:45.000Z</time>
      </trkpt>
      <trkpt lat="43.99585" lon="2.99163">
        <ele>584</ele>
        <time>2026-04-30T13:51:46.000Z</time>
      </trkpt>
      <trkpt lat="43.99585" lon="2.99163">
        <ele>583.7</ele>
        <time>2026-04-30T13:51:47.000Z</time>
      </trkpt>
      <trkpt lat="43.99585" lon="2.99163">
        <ele>583.3</ele>
        <time>2026-04-30T13:51:48.000Z</time>
      </trkpt>
      <trkpt lat="43.99585" lon="2.99163">
        <ele>583.2</ele>
        <time>2026-04-30T13:51:49.000Z</time>
      </trkpt>
      <trkpt lat="43.99585" lon="2.99163">
        <ele>583.4</ele>
        <time>2026-04-30T13:51:50.000Z</time>
      </trkpt>
      <trkpt lat="43.99585" lon="2.99163">
        <ele>583.6</ele>
        <time>2026-04-30T13:51:51.000Z</time>
      </trkpt>
      <trkpt lat="43.99585" lon="2.99164">
        <ele>583.7</ele>
        <time>2026-04-30T13:51:52.000Z</time>
      </trkpt>
      <trkpt lat="43.99584" lon="2.99163">
        <ele>584.1</ele>
        <time>2026-04-30T13:51:53.000Z</time>
      </trkpt>
      <trkpt lat="43.99584" lon="2.99164">
        <ele>584.3</ele>
        <time>2026-04-30T13:51:54.000Z</time>
      </trkpt>
      <trkpt lat="43.99584" lon="2.99163">
        <ele>584.5</ele>
        <time>2026-04-30T13:51:55.000Z</time>
      </trkpt>
      <trkpt lat="43.99584" lon="2.99162">
        <ele>584.8</ele>
        <time>2026-04-30T13:51:56.000Z</time>
      </trkpt>
      <trkpt lat="43.99585" lon="2.99161">
        <ele>585</ele>
        <time>2026-04-30T13:51:57.000Z</time>
      </trkpt>
      <trkpt lat="43.99585" lon="2.99161">
        <ele>584.8</ele>
        <time>2026-04-30T13:51:58.000Z</time>
      </trkpt>
      <trkpt lat="43.99586" lon="2.99161">
        <ele>584.4</ele>
        <time>2026-04-30T13:51:59.000Z</time>
      </trkpt>
      <trkpt lat="43.99587" lon="2.99161">
        <ele>583.9</ele>
        <time>2026-04-30T13:52:00.000Z</time>
      </trkpt>
      <trkpt lat="43.99587" lon="2.99162">
        <ele>583.5</ele>
        <time>2026-04-30T13:52:01.000Z</time>
      </trkpt>
      <trkpt lat="43.99588" lon="2.99161">
        <ele>582.9</ele>
        <time>2026-04-30T13:52:02.000Z</time>
      </trkpt>
      <trkpt lat="43.99588" lon="2.99162">
        <ele>582.6</ele>
        <time>2026-04-30T13:52:03.000Z</time>
      </trkpt>
      <trkpt lat="43.99589" lon="2.99162">
        <ele>582.3</ele>
        <time>2026-04-30T13:52:04.000Z</time>
      </trkpt>
      <trkpt lat="43.99589" lon="2.99161">
        <ele>582.3</ele>
        <time>2026-04-30T13:52:05.000Z</time>
      </trkpt>
      <trkpt lat="43.99589" lon="2.99162">
        <ele>582.3</ele>
        <time>2026-04-30T13:52:06.000Z</time>
      </trkpt>
      <trkpt lat="43.99589" lon="2.99162">
        <ele>582</ele>
        <time>2026-04-30T13:52:07.000Z</time>
      </trkpt>
      <trkpt lat="43.99589" lon="2.99161">
        <ele>581.9</ele>
        <time>2026-04-30T13:52:08.000Z</time>
      </trkpt>
      <trkpt lat="43.99589" lon="2.99162">
        <ele>581.9</ele>
        <time>2026-04-30T13:52:09.000Z</time>
      </trkpt>
      <trkpt lat="43.99589" lon="2.99162">
        <ele>582.1</ele>
        <time>2026-04-30T13:52:10.000Z</time>
      </trkpt>
      <trkpt lat="43.99589" lon="2.99162">
        <ele>582</ele>
        <time>2026-04-30T13:52:11.000Z</time>
      </trkpt>
      <trkpt lat="43.99589" lon="2.99162">
        <ele>581.9</ele>
        <time>2026-04-30T13:52:12.000Z</time>
      </trkpt>
      <trkpt lat="43.99589" lon="2.99162">
        <ele>581.6</ele>
        <time>2026-04-30T13:52:13.000Z</time>
      </trkpt>
      <trkpt lat="43.99589" lon="2.99162">
        <ele>581.6</ele>
        <time>2026-04-30T13:52:14.000Z</time>
      </trkpt>
      <trkpt lat="43.99589" lon="2.99162">
        <ele>581.6</ele>
        <time>2026-04-30T13:52:15.000Z</time>
      </trkpt>
      <trkpt lat="43.99589" lon="2.99162">
        <ele>581.5</ele>
        <time>2026-04-30T13:52:16.000Z</time>
      </trkpt>
      <trkpt lat="43.99589" lon="2.99162">
        <ele>581.4</ele>
        <time>2026-04-30T13:52:17.000Z</time>
      </trkpt>
      <trkpt lat="43.99589" lon="2.99162">
        <ele>581.1</ele>
        <time>2026-04-30T13:52:18.000Z</time>
      </trkpt>
      <trkpt lat="43.99589" lon="2.99162">
        <ele>580.8</ele>
        <time>2026-04-30T13:52:19.000Z</time>
      </trkpt>
      <trkpt lat="43.99589" lon="2.99162">
        <ele>580.6</ele>
        <time>2026-04-30T13:52:20.000Z</time>
      </trkpt>
      <trkpt lat="43.99589" lon="2.99162">
        <ele>580.5</ele>
        <time>2026-04-30T13:52:21.000Z</time>
      </trkpt>
      <trkpt lat="43.99589" lon="2.99162">
        <ele>580.7</ele>
        <time>2026-04-30T13:52:22.000Z</time>
      </trkpt>
      <trkpt lat="43.99589" lon="2.99162">
        <ele>580.6</ele>
        <time>2026-04-30T13:52:23.000Z</time>
      </trkpt>
      <trkpt lat="43.99589" lon="2.99163">
        <ele>580.5</ele>
        <time>2026-04-30T13:52:24.000Z</time>
      </trkpt>
      <trkpt lat="43.99588" lon="2.99163">
        <ele>580.3</ele>
        <time>2026-04-30T13:52:25.000Z</time>
      </trkpt>
      <trkpt lat="43.99588" lon="2.99164">
        <ele>580.1</ele>
        <time>2026-04-30T13:52:26.000Z</time>
      </trkpt>
      <trkpt lat="43.99587" lon="2.99164">
        <ele>580.1</ele>
        <time>2026-04-30T13:52:27.000Z</time>
      </trkpt>
      <trkpt lat="43.99587" lon="2.99165">
        <ele>580.3</ele>
        <time>2026-04-30T13:52:28.000Z</time>
      </trkpt>
      <trkpt lat="43.99587" lon="2.99165">
        <ele>580.3</ele>
        <time>2026-04-30T13:52:29.000Z</time>
      </trkpt>
      <trkpt lat="43.99587" lon="2.99165">
        <ele>580.5</ele>
        <time>2026-04-30T13:52:30.000Z</time>
      </trkpt>
      <trkpt lat="43.99587" lon="2.99165">
        <ele>580.8</ele>
        <time>2026-04-30T13:52:31.000Z</time>
      </trkpt>
      <trkpt lat="43.99587" lon="2.99165">
        <ele>581</ele>
        <time>2026-04-30T13:52:32.000Z</time>
      </trkpt>
      <trkpt lat="43.99587" lon="2.99165">
        <ele>581</ele>
        <time>2026-04-30T13:52:33.000Z</time>
      </trkpt>
      <trkpt lat="43.99587" lon="2.99165">
        <ele>581</ele>
        <time>2026-04-30T13:52:34.000Z</time>
      </trkpt>
      <trkpt lat="43.99587" lon="2.99165">
        <ele>580.9</ele>
        <time>2026-04-30T13:52:35.000Z</time>
      </trkpt>
      <trkpt lat="43.99587" lon="2.99165">
        <ele>580.7</ele>
        <time>2026-04-30T13:52:36.000Z</time>
      </trkpt>
      <trkpt lat="43.99587" lon="2.99165">
        <ele>580.6</ele>
        <time>2026-04-30T13:52:37.000Z</time>
      </trkpt>
      <trkpt lat="43.99587" lon="2.99165">
        <ele>580.6</ele>
        <time>2026-04-30T13:52:38.000Z</time>
      </trkpt>
      <trkpt lat="43.99587" lon="2.99165">
        <ele>580.7</ele>
        <time>2026-04-30T13:52:39.000Z</time>
      </trkpt>
      <trkpt lat="43.99587" lon="2.99165">
        <ele>580.7</ele>
        <time>2026-04-30T13:52:40.000Z</time>
      </trkpt>
      <trkpt lat="43.99587" lon="2.99165">
        <ele>580.7</ele>
        <time>2026-04-30T13:52:41.000Z</time>
      </trkpt>
      <trkpt lat="43.99587" lon="2.99165">
        <ele>581</ele>
        <time>2026-04-30T13:52:42.000Z</time>
      </trkpt>
      <trkpt lat="43.99587" lon="2.99165">
        <ele>581.1</ele>
        <time>2026-04-30T13:52:43.000Z</time>
      </trkpt>
      <trkpt lat="43.99587" lon="2.99165">
        <ele>581.1</ele>
        <time>2026-04-30T13:52:44.000Z</time>
      </trkpt>
      <trkpt lat="43.99587" lon="2.99165">
        <ele>581</ele>
        <time>2026-04-30T13:52:45.000Z</time>
      </trkpt>
      <trkpt lat="43.99587" lon="2.99165">
        <ele>581.1</ele>
        <time>2026-04-30T13:52:46.000Z</time>
      </trkpt>
      <trkpt lat="43.99587" lon="2.99165">
        <ele>581.3</ele>
        <time>2026-04-30T13:52:47.000Z</time>
      </trkpt>
      <trkpt lat="43.99587" lon="2.99165">
        <ele>581.3</ele>
        <time>2026-04-30T13:52:48.000Z</time>
      </trkpt>
      <trkpt lat="43.99587" lon="2.99165">
        <ele>581.6</ele>
        <time>2026-04-30T13:52:49.000Z</time>
      </trkpt>
      <trkpt lat="43.99587" lon="2.99165">
        <ele>581.6</ele>
        <time>2026-04-30T13:52:50.000Z</time>
      </trkpt>
      <trkpt lat="43.99587" lon="2.99165">
        <ele>581.5</ele>
        <time>2026-04-30T13:52:51.000Z</time>
      </trkpt>
      <trkpt lat="43.99587" lon="2.99165">
        <ele>581.5</ele>
        <time>2026-04-30T13:52:52.000Z</time>
      </trkpt>
      <trkpt lat="43.99587" lon="2.99165">
        <ele>581.5</ele>
        <time>2026-04-30T13:52:53.000Z</time>
      </trkpt>
      <trkpt lat="43.99587" lon="2.99165">
        <ele>581.5</ele>
        <time>2026-04-30T13:52:54.000Z</time>
      </trkpt>
      <trkpt lat="43.99588" lon="2.99164">
        <ele>581.5</ele>
        <time>2026-04-30T13:52:55.000Z</time>
      </trkpt>
      <trkpt lat="43.99588" lon="2.99163">
        <ele>581.4</ele>
        <time>2026-04-30T13:52:56.000Z</time>
      </trkpt>
      <trkpt lat="43.99589" lon="2.99161">
        <ele>581.6</ele>
        <time>2026-04-30T13:52:57.000Z</time>
      </trkpt>
      <trkpt lat="43.9959" lon="2.99161">
        <ele>581.6</ele>
        <time>2026-04-30T13:52:58.000Z</time>
      </trkpt>
      <trkpt lat="43.99591" lon="2.9916">
        <ele>581.8</ele>
        <time>2026-04-30T13:52:59.000Z</time>
      </trkpt>
      <trkpt lat="43.99592" lon="2.9916">
        <ele>581.7</ele>
        <time>2026-04-30T13:53:00.000Z</time>
      </trkpt>
      <trkpt lat="43.99592" lon="2.9916">
        <ele>581.7</ele>
        <time>2026-04-30T13:53:01.000Z</time>
      </trkpt>
      <trkpt lat="43.99592" lon="2.9916">
        <ele>581.7</ele>
        <time>2026-04-30T13:53:02.000Z</time>
      </trkpt>
      <trkpt lat="43.99592" lon="2.9916">
        <ele>581.4</ele>
        <time>2026-04-30T13:53:03.000Z</time>
      </trkpt>
      <trkpt lat="43.99591" lon="2.9916">
        <ele>581.2</ele>
        <time>2026-04-30T13:53:04.000Z</time>
      </trkpt>
      <trkpt lat="43.99591" lon="2.9916">
        <ele>581.2</ele>
        <time>2026-04-30T13:53:05.000Z</time>
      </trkpt>
      <trkpt lat="43.99591" lon="2.9916">
        <ele>580.9</ele>
        <time>2026-04-30T13:53:06.000Z</time>
      </trkpt>
      <trkpt lat="43.99591" lon="2.9916">
        <ele>579.5</ele>
        <time>2026-04-30T13:53:07.000Z</time>
      </trkpt>
      <trkpt lat="43.99591" lon="2.9916">
        <ele>579.2</ele>
        <time>2026-04-30T13:53:08.000Z</time>
      </trkpt>
      <trkpt lat="43.99591" lon="2.9916">
        <ele>578.9</ele>
        <time>2026-04-30T13:53:09.000Z</time>
      </trkpt>
      <trkpt lat="43.9959" lon="2.9916">
        <ele>578.4</ele>
        <time>2026-04-30T13:53:10.000Z</time>
      </trkpt>
      <trkpt lat="43.9959" lon="2.9916">
        <ele>578.2</ele>
        <time>2026-04-30T13:53:11.000Z</time>
      </trkpt>
      <trkpt lat="43.9959" lon="2.99161">
        <ele>577.9</ele>
        <time>2026-04-30T13:53:12.000Z</time>
      </trkpt>
      <trkpt lat="43.99591" lon="2.99161">
        <ele>577.8</ele>
        <time>2026-04-30T13:53:13.000Z</time>
      </trkpt>
      <trkpt lat="43.9959" lon="2.99162">
        <ele>577.6</ele>
        <time>2026-04-30T13:53:14.000Z</time>
      </trkpt>
      <trkpt lat="43.9959" lon="2.99163">
        <ele>577.5</ele>
        <time>2026-04-30T13:53:15.000Z</time>
      </trkpt>
      <trkpt lat="43.9959" lon="2.99163">
        <ele>577.5</ele>
        <time>2026-04-30T13:53:16.000Z</time>
      </trkpt>
      <trkpt lat="43.9959" lon="2.99163">
        <ele>577.6</ele>
        <time>2026-04-30T13:53:17.000Z</time>
      </trkpt>
      <trkpt lat="43.99589" lon="2.99164">
        <ele>577.6</ele>
        <time>2026-04-30T13:53:18.000Z</time>
      </trkpt>
      <trkpt lat="43.99589" lon="2.99165">
        <ele>577.5</ele>
        <time>2026-04-30T13:53:19.000Z</time>
      </trkpt>
      <trkpt lat="43.99589" lon="2.99166">
        <ele>577.5</ele>
        <time>2026-04-30T13:53:20.000Z</time>
      </trkpt>
      <trkpt lat="43.99588" lon="2.99166">
        <ele>577.3</ele>
        <time>2026-04-30T13:53:21.000Z</time>
      </trkpt>
      <trkpt lat="43.99588" lon="2.99167">
        <ele>577.1</ele>
        <time>2026-04-30T13:53:22.000Z</time>
      </trkpt>
      <trkpt lat="43.99588" lon="2.99167">
        <ele>577</ele>
        <time>2026-04-30T13:53:23.000Z</time>
      </trkpt>
      <trkpt lat="43.99587" lon="2.99167">
        <ele>577</ele>
        <time>2026-04-30T13:53:24.000Z</time>
      </trkpt>
      <trkpt lat="43.99587" lon="2.99167">
        <ele>577.1</ele>
        <time>2026-04-30T13:53:25.000Z</time>
      </trkpt>
      <trkpt lat="43.99586" lon="2.99167">
        <ele>577.2</ele>
        <time>2026-04-30T13:53:26.000Z</time>
      </trkpt>
      <trkpt lat="43.99585" lon="2.99167">
        <ele>577.3</ele>
        <time>2026-04-30T13:53:27.000Z</time>
      </trkpt>
      <trkpt lat="43.99585" lon="2.99167">
        <ele>577.4</ele>
        <time>2026-04-30T13:53:28.000Z</time>
      </trkpt>
      <trkpt lat="43.99585" lon="2.99167">
        <ele>577.5</ele>
        <time>2026-04-30T13:53:29.000Z</time>
      </trkpt>
      <trkpt lat="43.99584" lon="2.99168">
        <ele>577.7</ele>
        <time>2026-04-30T13:53:30.000Z</time>
      </trkpt>
      <trkpt lat="43.99584" lon="2.99168">
        <ele>578</ele>
        <time>2026-04-30T13:53:31.000Z</time>
      </trkpt>
      <trkpt lat="43.99584" lon="2.99167">
        <ele>578</ele>
        <time>2026-04-30T13:53:32.000Z</time>
      </trkpt>
      <trkpt lat="43.99584" lon="2.99167">
        <ele>578</ele>
        <time>2026-04-30T13:53:33.000Z</time>
      </trkpt>
      <trkpt lat="43.99585" lon="2.99166">
        <ele>578.1</ele>
        <time>2026-04-30T13:53:34.000Z</time>
      </trkpt>
      <trkpt lat="43.99585" lon="2.99166">
        <ele>578.1</ele>
        <time>2026-04-30T13:53:35.000Z</time>
      </trkpt>
      <trkpt lat="43.99585" lon="2.99166">
        <ele>578.1</ele>
        <time>2026-04-30T13:53:36.000Z</time>
      </trkpt>
      <trkpt lat="43.99584" lon="2.99165">
        <ele>578.2</ele>
        <time>2026-04-30T13:53:37.000Z</time>
      </trkpt>
      <trkpt lat="43.99583" lon="2.99165">
        <ele>578.1</ele>
        <time>2026-04-30T13:53:38.000Z</time>
      </trkpt>
      <trkpt lat="43.99582" lon="2.99165">
        <ele>577.9</ele>
        <time>2026-04-30T13:53:39.000Z</time>
      </trkpt>
      <trkpt lat="43.99582" lon="2.99164">
        <ele>578.2</ele>
        <time>2026-04-30T13:53:40.000Z</time>
      </trkpt>
      <trkpt lat="43.99582" lon="2.99164">
        <ele>578</ele>
        <time>2026-04-30T13:53:41.000Z</time>
      </trkpt>
      <trkpt lat="43.99582" lon="2.99164">
        <ele>577.7</ele>
        <time>2026-04-30T13:53:42.000Z</time>
      </trkpt>
      <trkpt lat="43.99583" lon="2.99164">
        <ele>577.5</ele>
        <time>2026-04-30T13:53:43.000Z</time>
      </trkpt>
      <trkpt lat="43.99583" lon="2.99165">
        <ele>577.4</ele>
        <time>2026-04-30T13:53:44.000Z</time>
      </trkpt>
      <trkpt lat="43.99583" lon="2.99165">
        <ele>577.5</ele>
        <time>2026-04-30T13:53:45.000Z</time>
      </trkpt>
      <trkpt lat="43.99583" lon="2.99164">
        <ele>577.6</ele>
        <time>2026-04-30T13:53:46.000Z</time>
      </trkpt>
      <trkpt lat="43.99583" lon="2.99164">
        <ele>577.6</ele>
        <time>2026-04-30T13:53:47.000Z</time>
      </trkpt>
      <trkpt lat="43.99582" lon="2.99165">
        <ele>577.4</ele>
        <time>2026-04-30T13:53:48.000Z</time>
      </trkpt>
      <trkpt lat="43.99582" lon="2.99165">
        <ele>577.7</ele>
        <time>2026-04-30T13:53:49.000Z</time>
      </trkpt>
      <trkpt lat="43.99583" lon="2.99165">
        <ele>577.8</ele>
        <time>2026-04-30T13:53:50.000Z</time>
      </trkpt>
      <trkpt lat="43.99583" lon="2.99165">
        <ele>579.1</ele>
        <time>2026-04-30T13:53:51.000Z</time>
      </trkpt>
      <trkpt lat="43.99583" lon="2.99165">
        <ele>579.3</ele>
        <time>2026-04-30T13:53:52.000Z</time>
      </trkpt>
      <trkpt lat="43.99583" lon="2.99165">
        <ele>579.6</ele>
        <time>2026-04-30T13:53:53.000Z</time>
      </trkpt>
      <trkpt lat="43.99583" lon="2.99165">
        <ele>579.5</ele>
        <time>2026-04-30T13:53:54.000Z</time>
      </trkpt>
      <trkpt lat="43.99583" lon="2.99165">
        <ele>579.6</ele>
        <time>2026-04-30T13:53:55.000Z</time>
      </trkpt>
      <trkpt lat="43.99583" lon="2.99165">
        <ele>579.6</ele>
        <time>2026-04-30T13:53:56.000Z</time>
      </trkpt>
      <trkpt lat="43.99583" lon="2.99164">
        <ele>579.7</ele>
        <time>2026-04-30T13:53:57.000Z</time>
      </trkpt>
      <trkpt lat="43.99583" lon="2.99164">
        <ele>580</ele>
        <time>2026-04-30T13:53:58.000Z</time>
      </trkpt>
      <trkpt lat="43.99583" lon="2.99164">
        <ele>580</ele>
        <time>2026-04-30T13:53:59.000Z</time>
      </trkpt>
      <trkpt lat="43.99583" lon="2.99164">
        <ele>579.7</ele>
        <time>2026-04-30T13:54:00.000Z</time>
      </trkpt>
      <trkpt lat="43.99583" lon="2.99164">
        <ele>579.3</ele>
        <time>2026-04-30T13:54:01.000Z</time>
      </trkpt>
      <trkpt lat="43.99583" lon="2.99164">
        <ele>579</ele>
        <time>2026-04-30T13:54:02.000Z</time>
      </trkpt>
      <trkpt lat="43.99583" lon="2.99164">
        <ele>578.7</ele>
        <time>2026-04-30T13:54:03.000Z</time>
      </trkpt>
      <trkpt lat="43.99583" lon="2.99164">
        <ele>578.9</ele>
        <time>2026-04-30T13:54:04.000Z</time>
      </trkpt>
      <trkpt lat="43.99584" lon="2.99164">
        <ele>579.2</ele>
        <time>2026-04-30T13:54:05.000Z</time>
      </trkpt>
      <trkpt lat="43.99584" lon="2.99164">
        <ele>579.1</ele>
        <time>2026-04-30T13:54:06.000Z</time>
      </trkpt>
      <trkpt lat="43.99584" lon="2.99164">
        <ele>579.2</ele>
        <time>2026-04-30T13:54:07.000Z</time>
      </trkpt>
      <trkpt lat="43.99584" lon="2.99164">
        <ele>579.3</ele>
        <time>2026-04-30T13:54:08.000Z</time>
      </trkpt>
      <trkpt lat="43.99584" lon="2.99163">
        <ele>579.4</ele>
        <time>2026-04-30T13:54:09.000Z</time>
      </trkpt>
      <trkpt lat="43.99584" lon="2.99163">
        <ele>579.4</ele>
        <time>2026-04-30T13:54:10.000Z</time>
      </trkpt>
      <trkpt lat="43.99584" lon="2.99163">
        <ele>579.2</ele>
        <time>2026-04-30T13:54:11.000Z</time>
      </trkpt>
      <trkpt lat="43.99584" lon="2.99163">
        <ele>579.2</ele>
        <time>2026-04-30T13:54:12.000Z</time>
      </trkpt>
      <trkpt lat="43.99584" lon="2.99163">
        <ele>579.2</ele>
        <time>2026-04-30T13:54:13.000Z</time>
      </trkpt>
      <trkpt lat="43.99584" lon="2.99163">
        <ele>579.3</ele>
        <time>2026-04-30T13:54:14.000Z</time>
      </trkpt>
      <trkpt lat="43.99584" lon="2.99163">
        <ele>579.4</ele>
        <time>2026-04-30T13:54:15.000Z</time>
      </trkpt>
      <trkpt lat="43.99584" lon="2.99163">
        <ele>579.5</ele>
        <time>2026-04-30T13:54:16.000Z</time>
      </trkpt>
      <trkpt lat="43.99584" lon="2.99163">
        <ele>579.5</ele>
        <time>2026-04-30T13:54:17.000Z</time>
      </trkpt>
      <trkpt lat="43.99584" lon="2.99163">
        <ele>579.6</ele>
        <time>2026-04-30T13:54:18.000Z</time>
      </trkpt>
      <trkpt lat="43.99584" lon="2.99163">
        <ele>579.6</ele>
        <time>2026-04-30T13:54:19.000Z</time>
      </trkpt>
      <trkpt lat="43.99584" lon="2.99163">
        <ele>579.7</ele>
        <time>2026-04-30T13:54:20.000Z</time>
      </trkpt>
      <trkpt lat="43.99584" lon="2.99163">
        <ele>579.8</ele>
        <time>2026-04-30T13:54:21.000Z</time>
      </trkpt>
      <trkpt lat="43.99584" lon="2.99163">
        <ele>579.9</ele>
        <time>2026-04-30T13:54:22.000Z</time>
      </trkpt>
      <trkpt lat="43.99584" lon="2.99162">
        <ele>579.9</ele>
        <time>2026-04-30T13:54:23.000Z</time>
      </trkpt>
      <trkpt lat="43.99584" lon="2.99162">
        <ele>579.8</ele>
        <time>2026-04-30T13:54:24.000Z</time>
      </trkpt>
      <trkpt lat="43.99584" lon="2.99162">
        <ele>579.8</ele>
        <time>2026-04-30T13:54:25.000Z</time>
      </trkpt>
      <trkpt lat="43.99584" lon="2.99162">
        <ele>579.7</ele>
        <time>2026-04-30T13:54:26.000Z</time>
      </trkpt>
      <trkpt lat="43.99584" lon="2.99162">
        <ele>579.5</ele>
        <time>2026-04-30T13:54:27.000Z</time>
      </trkpt>
      <trkpt lat="43.99584" lon="2.99162">
        <ele>579.5</ele>
        <time>2026-04-30T13:54:28.000Z</time>
      </trkpt>
      <trkpt lat="43.99584" lon="2.99162">
        <ele>579.5</ele>
        <time>2026-04-30T13:54:29.000Z</time>
      </trkpt>
      <trkpt lat="43.99584" lon="2.99162">
        <ele>579.5</ele>
        <time>2026-04-30T13:54:30.000Z</time>
      </trkpt>
      <trkpt lat="43.99584" lon="2.99162">
        <ele>579.6</ele>
        <time>2026-04-30T13:54:31.000Z</time>
      </trkpt>
      <trkpt lat="43.99584" lon="2.99162">
        <ele>579.5</ele>
        <time>2026-04-30T13:54:32.000Z</time>
      </trkpt>
      <trkpt lat="43.99585" lon="2.99162">
        <ele>579.4</ele>
        <time>2026-04-30T13:54:33.000Z</time>
      </trkpt>
      <trkpt lat="43.99585" lon="2.99162">
        <ele>579.1</ele>
        <time>2026-04-30T13:54:34.000Z</time>
      </trkpt>
      <trkpt lat="43.99585" lon="2.99162">
        <ele>579</ele>
        <time>2026-04-30T13:54:35.000Z</time>
      </trkpt>
      <trkpt lat="43.99585" lon="2.99162">
        <ele>579</ele>
        <time>2026-04-30T13:54:36.000Z</time>
      </trkpt>
      <trkpt lat="43.99585" lon="2.99162">
        <ele>578.9</ele>
        <time>2026-04-30T13:54:37.000Z</time>
      </trkpt>
      <trkpt lat="43.99584" lon="2.99162">
        <ele>579.1</ele>
        <time>2026-04-30T13:54:38.000Z</time>
      </trkpt>
      <trkpt lat="43.99584" lon="2.99162">
        <ele>579</ele>
        <time>2026-04-30T13:54:39.000Z</time>
      </trkpt>
      <trkpt lat="43.99585" lon="2.99162">
        <ele>579</ele>
        <time>2026-04-30T13:54:40.000Z</time>
      </trkpt>
      <trkpt lat="43.99585" lon="2.99162">
        <ele>579.1</ele>
        <time>2026-04-30T13:54:41.000Z</time>
      </trkpt>
      <trkpt lat="43.99584" lon="2.99162">
        <ele>579.2</ele>
        <time>2026-04-30T13:54:42.000Z</time>
      </trkpt>
      <trkpt lat="43.99584" lon="2.99162">
        <ele>579.4</ele>
        <time>2026-04-30T13:54:43.000Z</time>
      </trkpt>
      <trkpt lat="43.99584" lon="2.99162">
        <ele>579.5</ele>
        <time>2026-04-30T13:54:44.000Z</time>
      </trkpt>
      <trkpt lat="43.99584" lon="2.99162">
        <ele>579.6</ele>
        <time>2026-04-30T13:54:45.000Z</time>
      </trkpt>
      <trkpt lat="43.99584" lon="2.99162">
        <ele>579.7</ele>
        <time>2026-04-30T13:54:46.000Z</time>
      </trkpt>
      <trkpt lat="43.99584" lon="2.99162">
        <ele>579.8</ele>
        <time>2026-04-30T13:54:47.000Z</time>
      </trkpt>
      <trkpt lat="43.99584" lon="2.99162">
        <ele>579.9</ele>
        <time>2026-04-30T13:54:48.000Z</time>
      </trkpt>
      <trkpt lat="43.99584" lon="2.99162">
        <ele>579.8</ele>
        <time>2026-04-30T13:54:49.000Z</time>
      </trkpt>
      <trkpt lat="43.99584" lon="2.99162">
        <ele>579.6</ele>
        <time>2026-04-30T13:54:50.000Z</time>
      </trkpt>
      <trkpt lat="43.99584" lon="2.99162">
        <ele>579.5</ele>
        <time>2026-04-30T13:54:51.000Z</time>
      </trkpt>
      <trkpt lat="43.99584" lon="2.99162">
        <ele>579.4</ele>
        <time>2026-04-30T13:54:52.000Z</time>
      </trkpt>
      <trkpt lat="43.99584" lon="2.99162">
        <ele>579.4</ele>
        <time>2026-04-30T13:54:53.000Z</time>
      </trkpt>
      <trkpt lat="43.99584" lon="2.99162">
        <ele>579.4</ele>
        <time>2026-04-30T13:54:54.000Z</time>
      </trkpt>
      <trkpt lat="43.99584" lon="2.99162">
        <ele>579.1</ele>
        <time>2026-04-30T13:54:55.000Z</time>
      </trkpt>
      <trkpt lat="43.99584" lon="2.99162">
        <ele>579</ele>
        <time>2026-04-30T13:54:56.000Z</time>
      </trkpt>
      <trkpt lat="43.99584" lon="2.99162">
        <ele>579</ele>
        <time>2026-04-30T13:54:57.000Z</time>
      </trkpt>
      <trkpt lat="43.99584" lon="2.99162">
        <ele>579</ele>
        <time>2026-04-30T13:54:58.000Z</time>
      </trkpt>
      <trkpt lat="43.99583" lon="2.99163">
        <ele>578.9</ele>
        <time>2026-04-30T13:54:59.000Z</time>
      </trkpt>
      <trkpt lat="43.99584" lon="2.99163">
        <ele>578.9</ele>
        <time>2026-04-30T13:55:00.000Z</time>
      </trkpt>
      <trkpt lat="43.99584" lon="2.99163">
        <ele>578.9</ele>
        <time>2026-04-30T13:55:01.000Z</time>
      </trkpt>
      <trkpt lat="43.99584" lon="2.99163">
        <ele>579</ele>
        <time>2026-04-30T13:55:02.000Z</time>
      </trkpt>
      <trkpt lat="43.99583" lon="2.99163">
        <ele>578.9</ele>
        <time>2026-04-30T13:55:03.000Z</time>
      </trkpt>
      <trkpt lat="43.99583" lon="2.99163">
        <ele>578.8</ele>
        <time>2026-04-30T13:55:04.000Z</time>
      </trkpt>
      <trkpt lat="43.99583" lon="2.99163">
        <ele>578.8</ele>
        <time>2026-04-30T13:55:05.000Z</time>
      </trkpt>
      <trkpt lat="43.99583" lon="2.99163">
        <ele>578.8</ele>
        <time>2026-04-30T13:55:06.000Z</time>
      </trkpt>
      <trkpt lat="43.99583" lon="2.99163">
        <ele>578.7</ele>
        <time>2026-04-30T13:55:07.000Z</time>
      </trkpt>
      <trkpt lat="43.99583" lon="2.99163">
        <ele>578.6</ele>
        <time>2026-04-30T13:55:08.000Z</time>
      </trkpt>
      <trkpt lat="43.99583" lon="2.99164">
        <ele>578.6</ele>
        <time>2026-04-30T13:55:09.000Z</time>
      </trkpt>
      <trkpt lat="43.99583" lon="2.99164">
        <ele>578.6</ele>
        <time>2026-04-30T13:55:10.000Z</time>
      </trkpt>
      <trkpt lat="43.99583" lon="2.99164">
        <ele>578.6</ele>
        <time>2026-04-30T13:55:11.000Z</time>
      </trkpt>
      <trkpt lat="43.99583" lon="2.99164">
        <ele>578.5</ele>
        <time>2026-04-30T13:55:12.000Z</time>
      </trkpt>
      <trkpt lat="43.99583" lon="2.99164">
        <ele>578.7</ele>
        <time>2026-04-30T13:55:13.000Z</time>
      </trkpt>
      <trkpt lat="43.99583" lon="2.99164">
        <ele>578.6</ele>
        <time>2026-04-30T13:55:14.000Z</time>
      </trkpt>
      <trkpt lat="43.99583" lon="2.99164">
        <ele>578.5</ele>
        <time>2026-04-30T13:55:15.000Z</time>
      </trkpt>
      <trkpt lat="43.99583" lon="2.99164">
        <ele>578.4</ele>
        <time>2026-04-30T13:55:16.000Z</time>
      </trkpt>
      <trkpt lat="43.99583" lon="2.99164">
        <ele>578.5</ele>
        <time>2026-04-30T13:55:17.000Z</time>
      </trkpt>
      <trkpt lat="43.99583" lon="2.99164">
        <ele>578.4</ele>
        <time>2026-04-30T13:55:18.000Z</time>
      </trkpt>
      <trkpt lat="43.99583" lon="2.99164">
        <ele>578.4</ele>
        <time>2026-04-30T13:55:19.000Z</time>
      </trkpt>
      <trkpt lat="43.99583" lon="2.99164">
        <ele>578.5</ele>
        <time>2026-04-30T13:55:20.000Z</time>
      </trkpt>
      <trkpt lat="43.99583" lon="2.99164">
        <ele>578.7</ele>
        <time>2026-04-30T13:55:21.000Z</time>
      </trkpt>
      <trkpt lat="43.99583" lon="2.99163">
        <ele>578.8</ele>
        <time>2026-04-30T13:55:22.000Z</time>
      </trkpt>
      <trkpt lat="43.99583" lon="2.99163">
        <ele>578.9</ele>
        <time>2026-04-30T13:55:23.000Z</time>
      </trkpt>
      <trkpt lat="43.99583" lon="2.99163">
        <ele>578.9</ele>
        <time>2026-04-30T13:55:24.000Z</time>
      </trkpt>
      <trkpt lat="43.99583" lon="2.99164">
        <ele>579</ele>
        <time>2026-04-30T13:55:25.000Z</time>
      </trkpt>
      <trkpt lat="43.99583" lon="2.99164">
        <ele>579.4</ele>
        <time>2026-04-30T13:55:26.999Z</time>
      </trkpt>
      <trkpt lat="43.99583" lon="2.99164">
        <ele>579.6</ele>
        <time>2026-04-30T13:55:27.999Z</time>
      </trkpt>
      <trkpt lat="43.99583" lon="2.99164">
        <ele>579.3</ele>
        <time>2026-04-30T13:55:28.999Z</time>
      </trkpt>
      <trkpt lat="43.99583" lon="2.99164">
        <ele>579.5</ele>
        <time>2026-04-30T13:55:29.999Z</time>
      </trkpt>
      <trkpt lat="43.99583" lon="2.99163">
        <ele>579.6</ele>
        <time>2026-04-30T13:55:30.999Z</time>
      </trkpt>
      <trkpt lat="43.99583" lon="2.99163">
        <ele>579.6</ele>
        <time>2026-04-30T13:55:31.999Z</time>
      </trkpt>
      <trkpt lat="43.99583" lon="2.99163">
        <ele>579.8</ele>
        <time>2026-04-30T13:55:32.999Z</time>
      </trkpt>
      <trkpt lat="43.99583" lon="2.99163">
        <ele>579.9</ele>
        <time>2026-04-30T13:55:33.999Z</time>
      </trkpt>
      <trkpt lat="43.99583" lon="2.99163">
        <ele>580</ele>
        <time>2026-04-30T13:55:34.999Z</time>
      </trkpt>
      <trkpt lat="43.99583" lon="2.99163">
        <ele>579.9</ele>
        <time>2026-04-30T13:55:35.999Z</time>
      </trkpt>
      <trkpt lat="43.99583" lon="2.99163">
        <ele>579.9</ele>
        <time>2026-04-30T13:55:36.999Z</time>
      </trkpt>
      <trkpt lat="43.99583" lon="2.99163">
        <ele>579.8</ele>
        <time>2026-04-30T13:55:37.999Z</time>
      </trkpt>
      <trkpt lat="43.99583" lon="2.99164">
        <ele>579.8</ele>
        <time>2026-04-30T13:55:38.999Z</time>
      </trkpt>
      <trkpt lat="43.99583" lon="2.99164">
        <ele>579.8</ele>
        <time>2026-04-30T13:55:39.999Z</time>
      </trkpt>
      <trkpt lat="43.99583" lon="2.99164">
        <ele>579.6</ele>
        <time>2026-04-30T13:55:40.999Z</time>
      </trkpt>
      <trkpt lat="43.99583" lon="2.99164">
        <ele>579.5</ele>
        <time>2026-04-30T13:55:41.999Z</time>
      </trkpt>
      <trkpt lat="43.99583" lon="2.99164">
        <ele>579.5</ele>
        <time>2026-04-30T13:55:42.999Z</time>
      </trkpt>
      <trkpt lat="43.99583" lon="2.99164">
        <ele>579.7</ele>
        <time>2026-04-30T13:55:43.999Z</time>
      </trkpt>
      <trkpt lat="43.99583" lon="2.99164">
        <ele>579.6</ele>
        <time>2026-04-30T13:55:44.999Z</time>
      </trkpt>
      <trkpt lat="43.99583" lon="2.99164">
        <ele>579.3</ele>
        <time>2026-04-30T13:55:45.999Z</time>
      </trkpt>
      <trkpt lat="43.99583" lon="2.99164">
        <ele>578.9</ele>
        <time>2026-04-30T13:55:46.999Z</time>
      </trkpt>
      <trkpt lat="43.99583" lon="2.99164">
        <ele>578.8</ele>
        <time>2026-04-30T13:55:47.999Z</time>
      </trkpt>
      <trkpt lat="43.99582" lon="2.99164">
        <ele>578.7</ele>
        <time>2026-04-30T13:55:48.999Z</time>
      </trkpt>
      <trkpt lat="43.99582" lon="2.99164">
        <ele>578.9</ele>
        <time>2026-04-30T13:55:49.999Z</time>
      </trkpt>
      <trkpt lat="43.99582" lon="2.99164">
        <ele>579</ele>
        <time>2026-04-30T13:55:50.999Z</time>
      </trkpt>
      <trkpt lat="43.99582" lon="2.99164">
        <ele>579.1</ele>
        <time>2026-04-30T13:55:51.999Z</time>
      </trkpt>
      <trkpt lat="43.99582" lon="2.99164">
        <ele>579</ele>
        <time>2026-04-30T13:55:52.999Z</time>
      </trkpt>
      <trkpt lat="43.99582" lon="2.99164">
        <ele>579.1</ele>
        <time>2026-04-30T13:55:53.999Z</time>
      </trkpt>
      <trkpt lat="43.99582" lon="2.99164">
        <ele>579.3</ele>
        <time>2026-04-30T13:55:54.999Z</time>
      </trkpt>
      <trkpt lat="43.99582" lon="2.99164">
        <ele>579.2</ele>
        <time>2026-04-30T13:55:55.999Z</time>
      </trkpt>
      <trkpt lat="43.99582" lon="2.99164">
        <ele>579.3</ele>
        <time>2026-04-30T13:55:56.999Z</time>
      </trkpt>
      <trkpt lat="43.99582" lon="2.99164">
        <ele>579.3</ele>
        <time>2026-04-30T13:55:57.999Z</time>
      </trkpt>
      <trkpt lat="43.99582" lon="2.99164">
        <ele>579.4</ele>
        <time>2026-04-30T13:55:58.999Z</time>
      </trkpt>
      <trkpt lat="43.99582" lon="2.99164">
        <ele>579.5</ele>
        <time>2026-04-30T13:55:59.999Z</time>
      </trkpt>
      <trkpt lat="43.99582" lon="2.99164">
        <ele>579.5</ele>
        <time>2026-04-30T13:56:00.999Z</time>
      </trkpt>
      <trkpt lat="43.99582" lon="2.99164">
        <ele>579.5</ele>
        <time>2026-04-30T13:56:01.999Z</time>
      </trkpt>
      <trkpt lat="43.99582" lon="2.99164">
        <ele>579.6</ele>
        <time>2026-04-30T13:56:02.999Z</time>
      </trkpt>
      <trkpt lat="43.99581" lon="2.99165">
        <ele>579.5</ele>
        <time>2026-04-30T13:56:04.999Z</time>
      </trkpt>
      <trkpt lat="43.99581" lon="2.99165">
        <ele>579.4</ele>
        <time>2026-04-30T13:56:05.999Z</time>
      </trkpt>
      <trkpt lat="43.99581" lon="2.99165">
        <ele>579.3</ele>
        <time>2026-04-30T13:56:06.999Z</time>
      </trkpt>
      <trkpt lat="43.99581" lon="2.99165">
        <ele>579.3</ele>
        <time>2026-04-30T13:56:07.999Z</time>
      </trkpt>
      <trkpt lat="43.99581" lon="2.99165">
        <ele>579.3</ele>
        <time>2026-04-30T13:56:08.999Z</time>
      </trkpt>
      <trkpt lat="43.99581" lon="2.99165">
        <ele>579</ele>
        <time>2026-04-30T13:56:09.999Z</time>
      </trkpt>
      <trkpt lat="43.99581" lon="2.99165">
        <ele>579</ele>
        <time>2026-04-30T13:56:10.999Z</time>
      </trkpt>
      <trkpt lat="43.99581" lon="2.99165">
        <ele>578.8</ele>
        <time>2026-04-30T13:56:11.999Z</time>
      </trkpt>
      <trkpt lat="43.99581" lon="2.99165">
        <ele>578.9</ele>
        <time>2026-04-30T13:56:12.999Z</time>
      </trkpt>
      <trkpt lat="43.99581" lon="2.99165">
        <ele>579</ele>
        <time>2026-04-30T13:56:13.999Z</time>
      </trkpt>
      <trkpt lat="43.99581" lon="2.99165">
        <ele>579</ele>
        <time>2026-04-30T13:56:14.999Z</time>
      </trkpt>
      <trkpt lat="43.99581" lon="2.99165">
        <ele>578.9</ele>
        <time>2026-04-30T13:56:15.999Z</time>
      </trkpt>
      <trkpt lat="43.9958" lon="2.99165">
        <ele>578.8</ele>
        <time>2026-04-30T13:56:16.999Z</time>
      </trkpt>
      <trkpt lat="43.9958" lon="2.99165">
        <ele>578.8</ele>
        <time>2026-04-30T13:56:17.999Z</time>
      </trkpt>
      <trkpt lat="43.9958" lon="2.99165">
        <ele>578.8</ele>
        <time>2026-04-30T13:56:18.999Z</time>
      </trkpt>
      <trkpt lat="43.9958" lon="2.99164">
        <ele>578.6</ele>
        <time>2026-04-30T13:56:19.999Z</time>
      </trkpt>
      <trkpt lat="43.99579" lon="2.99164">
        <ele>578.7</ele>
        <time>2026-04-30T13:56:20.999Z</time>
      </trkpt>
      <trkpt lat="43.99579" lon="2.99163">
        <ele>578.7</ele>
        <time>2026-04-30T13:56:21.999Z</time>
      </trkpt>
      <trkpt lat="43.99578" lon="2.99162">
        <ele>578.9</ele>
        <time>2026-04-30T13:56:22.999Z</time>
      </trkpt>
      <trkpt lat="43.99577" lon="2.99161">
        <ele>579.1</ele>
        <time>2026-04-30T13:56:23.999Z</time>
      </trkpt>
      <trkpt lat="43.99578" lon="2.99159">
        <ele>579.4</ele>
        <time>2026-04-30T13:56:24.999Z</time>
      </trkpt>
      <trkpt lat="43.99578" lon="2.99158">
        <ele>579.8</ele>
        <time>2026-04-30T13:56:25.999Z</time>
      </trkpt>
      <trkpt lat="43.99579" lon="2.99157">
        <ele>579.9</ele>
        <time>2026-04-30T13:56:26.999Z</time>
      </trkpt>
      <trkpt lat="43.99579" lon="2.99157">
        <ele>579.5</ele>
        <time>2026-04-30T13:56:27.999Z</time>
      </trkpt>
      <trkpt lat="43.99579" lon="2.99157">
        <ele>579.5</ele>
        <time>2026-04-30T13:56:28.999Z</time>
      </trkpt>
      <trkpt lat="43.99579" lon="2.99157">
        <ele>579.5</ele>
        <time>2026-04-30T13:56:29.999Z</time>
      </trkpt>
      <trkpt lat="43.99579" lon="2.99157">
        <ele>579.2</ele>
        <time>2026-04-30T13:56:30.999Z</time>
      </trkpt>
      <trkpt lat="43.9958" lon="2.99157">
        <ele>579.4</ele>
        <time>2026-04-30T13:56:31.999Z</time>
      </trkpt>
      <trkpt lat="43.9958" lon="2.99157">
        <ele>579.5</ele>
        <time>2026-04-30T13:56:32.999Z</time>
      </trkpt>
      <trkpt lat="43.99581" lon="2.99157">
        <ele>579.9</ele>
        <time>2026-04-30T13:56:33.999Z</time>
      </trkpt>
      <trkpt lat="43.99582" lon="2.99158">
        <ele>580</ele>
        <time>2026-04-30T13:56:34.999Z</time>
      </trkpt>
      <trkpt lat="43.99582" lon="2.99159">
        <ele>579.9</ele>
        <time>2026-04-30T13:56:35.999Z</time>
      </trkpt>
      <trkpt lat="43.99582" lon="2.99158">
        <ele>580.3</ele>
        <time>2026-04-30T13:56:36.999Z</time>
      </trkpt>
      <trkpt lat="43.99583" lon="2.99157">
        <ele>580.3</ele>
        <time>2026-04-30T13:56:37.999Z</time>
      </trkpt>
      <trkpt lat="43.99583" lon="2.99158">
        <ele>578.7</ele>
        <time>2026-04-30T13:56:38.999Z</time>
      </trkpt>
      <trkpt lat="43.99583" lon="2.99157">
        <ele>578.5</ele>
        <time>2026-04-30T13:56:39.999Z</time>
      </trkpt>
      <trkpt lat="43.99583" lon="2.99157">
        <ele>578.5</ele>
        <time>2026-04-30T13:56:40.999Z</time>
      </trkpt>
      <trkpt lat="43.99583" lon="2.99157">
        <ele>578.7</ele>
        <time>2026-04-30T13:56:41.999Z</time>
      </trkpt>
      <trkpt lat="43.99583" lon="2.99157">
        <ele>578.9</ele>
        <time>2026-04-30T13:56:42.999Z</time>
      </trkpt>
      <trkpt lat="43.99583" lon="2.99157">
        <ele>578.9</ele>
        <time>2026-04-30T13:56:43.999Z</time>
      </trkpt>
      <trkpt lat="43.99583" lon="2.99157">
        <ele>579</ele>
        <time>2026-04-30T13:56:44.999Z</time>
      </trkpt>
      <trkpt lat="43.99583" lon="2.99157">
        <ele>579</ele>
        <time>2026-04-30T13:56:45.999Z</time>
      </trkpt>
      <trkpt lat="43.99583" lon="2.99157">
        <ele>579.2</ele>
        <time>2026-04-30T13:56:46.999Z</time>
      </trkpt>
      <trkpt lat="43.99583" lon="2.99157">
        <ele>579.3</ele>
        <time>2026-04-30T13:56:47.999Z</time>
      </trkpt>
      <trkpt lat="43.99583" lon="2.99157">
        <ele>579.4</ele>
        <time>2026-04-30T13:56:48.999Z</time>
      </trkpt>
      <trkpt lat="43.99583" lon="2.99157">
        <ele>579.6</ele>
        <time>2026-04-30T13:56:49.999Z</time>
      </trkpt>
      <trkpt lat="43.99583" lon="2.99157">
        <ele>579.7</ele>
        <time>2026-04-30T13:56:50.999Z</time>
      </trkpt>
      <trkpt lat="43.99583" lon="2.99157">
        <ele>579.7</ele>
        <time>2026-04-30T13:56:51.999Z</time>
      </trkpt>
      <trkpt lat="43.99583" lon="2.99157">
        <ele>579.6</ele>
        <time>2026-04-30T13:56:52.999Z</time>
      </trkpt>
      <trkpt lat="43.99583" lon="2.99157">
        <ele>579.6</ele>
        <time>2026-04-30T13:56:53.999Z</time>
      </trkpt>
      <trkpt lat="43.99583" lon="2.99157">
        <ele>579.6</ele>
        <time>2026-04-30T13:56:54.999Z</time>
      </trkpt>
      <trkpt lat="43.99583" lon="2.99157">
        <ele>579.5</ele>
        <time>2026-04-30T13:56:55.999Z</time>
      </trkpt>
      <trkpt lat="43.99583" lon="2.99157">
        <ele>579.5</ele>
        <time>2026-04-30T13:56:56.999Z</time>
      </trkpt>
      <trkpt lat="43.99583" lon="2.99157">
        <ele>579.6</ele>
        <time>2026-04-30T13:56:57.999Z</time>
      </trkpt>
      <trkpt lat="43.99583" lon="2.99157">
        <ele>579.7</ele>
        <time>2026-04-30T13:56:58.999Z</time>
      </trkpt>
      <trkpt lat="43.99583" lon="2.99157">
        <ele>579.5</ele>
        <time>2026-04-30T13:56:59.999Z</time>
      </trkpt>
      <trkpt lat="43.99583" lon="2.99157">
        <ele>579.4</ele>
        <time>2026-04-30T13:57:00.999Z</time>
      </trkpt>
      <trkpt lat="43.99583" lon="2.99157">
        <ele>579.3</ele>
        <time>2026-04-30T13:57:01.999Z</time>
      </trkpt>
      <trkpt lat="43.99583" lon="2.99157">
        <ele>579.2</ele>
        <time>2026-04-30T13:57:02.999Z</time>
      </trkpt>
      <trkpt lat="43.99583" lon="2.99156">
        <ele>579.2</ele>
        <time>2026-04-30T13:57:03.999Z</time>
      </trkpt>
      <trkpt lat="43.99583" lon="2.99156">
        <ele>579.1</ele>
        <time>2026-04-30T13:57:04.999Z</time>
      </trkpt>
      <trkpt lat="43.99583" lon="2.99156">
        <ele>579</ele>
        <time>2026-04-30T13:57:05.999Z</time>
      </trkpt>
      <trkpt lat="43.99583" lon="2.99156">
        <ele>578.8</ele>
        <time>2026-04-30T13:57:06.999Z</time>
      </trkpt>
      <trkpt lat="43.99583" lon="2.99156">
        <ele>578.6</ele>
        <time>2026-04-30T13:57:07.999Z</time>
      </trkpt>
      <trkpt lat="43.99583" lon="2.99156">
        <ele>578.4</ele>
        <time>2026-04-30T13:57:08.999Z</time>
      </trkpt>
      <trkpt lat="43.99583" lon="2.99156">
        <ele>578.4</ele>
        <time>2026-04-30T13:57:09.999Z</time>
      </trkpt>
      <trkpt lat="43.99583" lon="2.99156">
        <ele>578.2</ele>
        <time>2026-04-30T13:57:10.999Z</time>
      </trkpt>
      <trkpt lat="43.99583" lon="2.99156">
        <ele>578.3</ele>
        <time>2026-04-30T13:57:11.999Z</time>
      </trkpt>
      <trkpt lat="43.99583" lon="2.99156">
        <ele>578.4</ele>
        <time>2026-04-30T13:57:12.999Z</time>
      </trkpt>
      <trkpt lat="43.99583" lon="2.99156">
        <ele>578.4</ele>
        <time>2026-04-30T13:57:13.999Z</time>
      </trkpt>
      <trkpt lat="43.99583" lon="2.99156">
        <ele>578.5</ele>
        <time>2026-04-30T13:57:14.999Z</time>
      </trkpt>
      <trkpt lat="43.99583" lon="2.99156">
        <ele>578.6</ele>
        <time>2026-04-30T13:57:15.999Z</time>
      </trkpt>
      <trkpt lat="43.99583" lon="2.99156">
        <ele>578.7</ele>
        <time>2026-04-30T13:57:16.999Z</time>
      </trkpt>
      <trkpt lat="43.99583" lon="2.99156">
        <ele>578.7</ele>
        <time>2026-04-30T13:57:17.999Z</time>
      </trkpt>
      <trkpt lat="43.99583" lon="2.99156">
        <ele>578.7</ele>
        <time>2026-04-30T13:57:18.999Z</time>
      </trkpt>
      <trkpt lat="43.99582" lon="2.99156">
        <ele>578.7</ele>
        <time>2026-04-30T13:57:20.999Z</time>
      </trkpt>
      <trkpt lat="43.99582" lon="2.99157">
        <ele>578.9</ele>
        <time>2026-04-30T13:57:21.999Z</time>
      </trkpt>
      <trkpt lat="43.99581" lon="2.99157">
        <ele>579</ele>
        <time>2026-04-30T13:57:22.999Z</time>
      </trkpt>
      <trkpt lat="43.99581" lon="2.99157">
        <ele>578.9</ele>
        <time>2026-04-30T13:57:23.999Z</time>
      </trkpt>
      <trkpt lat="43.9958" lon="2.99156">
        <ele>578.4</ele>
        <time>2026-04-30T13:57:24.999Z</time>
      </trkpt>
      <trkpt lat="43.9958" lon="2.99156">
        <ele>578.2</ele>
        <time>2026-04-30T13:57:25.999Z</time>
      </trkpt>
      <trkpt lat="43.99579" lon="2.99156">
        <ele>578.2</ele>
        <time>2026-04-30T13:57:26.999Z</time>
      </trkpt>
      <trkpt lat="43.99579" lon="2.99154">
        <ele>578.3</ele>
        <time>2026-04-30T13:57:27.999Z</time>
      </trkpt>
      <trkpt lat="43.99579" lon="2.99154">
        <ele>578.1</ele>
        <time>2026-04-30T13:57:28.999Z</time>
      </trkpt>
      <trkpt lat="43.99578" lon="2.99153">
        <ele>578.1</ele>
        <time>2026-04-30T13:57:29.999Z</time>
      </trkpt>
      <trkpt lat="43.99578" lon="2.99152">
        <ele>577.9</ele>
        <time>2026-04-30T13:57:30.999Z</time>
      </trkpt>
      <trkpt lat="43.99577" lon="2.99152">
        <ele>578</ele>
        <time>2026-04-30T13:57:31.999Z</time>
      </trkpt>
      <trkpt lat="43.99576" lon="2.99152">
        <ele>578.1</ele>
        <time>2026-04-30T13:57:32.999Z</time>
      </trkpt>
      <trkpt lat="43.99575" lon="2.99153">
        <ele>577.9</ele>
        <time>2026-04-30T13:57:33.999Z</time>
      </trkpt>
      <trkpt lat="43.99574" lon="2.99153">
        <ele>578</ele>
        <time>2026-04-30T13:57:34.999Z</time>
      </trkpt>
      <trkpt lat="43.99573" lon="2.99153">
        <ele>577.8</ele>
        <time>2026-04-30T13:57:35.999Z</time>
      </trkpt>
      <trkpt lat="43.99572" lon="2.99153">
        <ele>577.4</ele>
        <time>2026-04-30T13:57:36.999Z</time>
      </trkpt>
      <trkpt lat="43.99571" lon="2.99153">
        <ele>577.3</ele>
        <time>2026-04-30T13:57:37.999Z</time>
      </trkpt>
      <trkpt lat="43.99571" lon="2.99153">
        <ele>576.8</ele>
        <time>2026-04-30T13:57:38.999Z</time>
      </trkpt>
      <trkpt lat="43.99571" lon="2.99152">
        <ele>576.8</ele>
        <time>2026-04-30T13:57:39.999Z</time>
      </trkpt>
      <trkpt lat="43.99569" lon="2.99153">
        <ele>576.5</ele>
        <time>2026-04-30T13:57:40.999Z</time>
      </trkpt>
      <trkpt lat="43.99567" lon="2.99153">
        <ele>576.6</ele>
        <time>2026-04-30T13:57:41.999Z</time>
      </trkpt>
      <trkpt lat="43.99565" lon="2.99153">
        <ele>576.1</ele>
        <time>2026-04-30T13:57:42.999Z</time>
      </trkpt>
      <trkpt lat="43.99563" lon="2.99154">
        <ele>575.6</ele>
        <time>2026-04-30T13:57:43.999Z</time>
      </trkpt>
      <trkpt lat="43.99562" lon="2.99154">
        <ele>575.3</ele>
        <time>2026-04-30T13:57:44.999Z</time>
      </trkpt>
      <trkpt lat="43.9956" lon="2.99154">
        <ele>575.2</ele>
        <time>2026-04-30T13:57:45.999Z</time>
      </trkpt>
      <trkpt lat="43.9956" lon="2.99153">
        <ele>575.2</ele>
        <time>2026-04-30T13:57:46.999Z</time>
      </trkpt>
      <trkpt lat="43.99559" lon="2.99151">
        <ele>574.6</ele>
        <time>2026-04-30T13:57:47.999Z</time>
      </trkpt>
      <trkpt lat="43.99559" lon="2.99149">
        <ele>574.3</ele>
        <time>2026-04-30T13:57:48.999Z</time>
      </trkpt>
      <trkpt lat="43.99559" lon="2.99146">
        <ele>574.4</ele>
        <time>2026-04-30T13:57:49.999Z</time>
      </trkpt>
      <trkpt lat="43.99558" lon="2.99143">
        <ele>574.2</ele>
        <time>2026-04-30T13:57:50.999Z</time>
      </trkpt>
      <trkpt lat="43.99557" lon="2.9914">
        <ele>574</ele>
        <time>2026-04-30T13:57:51.999Z</time>
      </trkpt>
      <trkpt lat="43.99556" lon="2.99137">
        <ele>574.5</ele>
        <time>2026-04-30T13:57:52.999Z</time>
      </trkpt>
      <trkpt lat="43.99556" lon="2.99135">
        <ele>574.7</ele>
        <time>2026-04-30T13:57:53.999Z</time>
      </trkpt>
      <trkpt lat="43.99554" lon="2.99133">
        <ele>574.9</ele>
        <time>2026-04-30T13:57:54.999Z</time>
      </trkpt>
      <trkpt lat="43.99554" lon="2.99128">
        <ele>576.7</ele>
        <time>2026-04-30T13:57:55.999Z</time>
      </trkpt>
      <trkpt lat="43.99552" lon="2.99126">
        <ele>576.9</ele>
        <time>2026-04-30T13:57:56.999Z</time>
      </trkpt>
      <trkpt lat="43.99552" lon="2.99124">
        <ele>577</ele>
        <time>2026-04-30T13:57:57.999Z</time>
      </trkpt>
      <trkpt lat="43.99551" lon="2.99123">
        <ele>577</ele>
        <time>2026-04-30T13:57:58.999Z</time>
      </trkpt>
      <trkpt lat="43.9955" lon="2.99122">
        <ele>577</ele>
        <time>2026-04-30T13:57:59.999Z</time>
      </trkpt>
      <trkpt lat="43.99549" lon="2.99121">
        <ele>576.8</ele>
        <time>2026-04-30T13:58:00.999Z</time>
      </trkpt>
      <trkpt lat="43.99548" lon="2.9912">
        <ele>576.7</ele>
        <time>2026-04-30T13:58:01.999Z</time>
      </trkpt>
      <trkpt lat="43.99548" lon="2.99119">
        <ele>576.5</ele>
        <time>2026-04-30T13:58:02.999Z</time>
      </trkpt>
      <trkpt lat="43.99551" lon="2.99118">
        <ele>577.4</ele>
        <time>2026-04-30T13:58:03.999Z</time>
      </trkpt>
      <trkpt lat="43.99552" lon="2.99116">
        <ele>577.9</ele>
        <time>2026-04-30T13:58:04.999Z</time>
      </trkpt>
      <trkpt lat="43.99554" lon="2.99115">
        <ele>578.5</ele>
        <time>2026-04-30T13:58:05.999Z</time>
      </trkpt>
      <trkpt lat="43.99556" lon="2.99114">
        <ele>578.7</ele>
        <time>2026-04-30T13:58:06.999Z</time>
      </trkpt>
      <trkpt lat="43.99556" lon="2.99113">
        <ele>578.4</ele>
        <time>2026-04-30T13:58:07.999Z</time>
      </trkpt>
      <trkpt lat="43.99557" lon="2.99112">
        <ele>579.7</ele>
        <time>2026-04-30T13:58:08.999Z</time>
      </trkpt>
      <trkpt lat="43.99558" lon="2.99111">
        <ele>580.5</ele>
        <time>2026-04-30T13:58:09.999Z</time>
      </trkpt>
      <trkpt lat="43.99558" lon="2.9911">
        <ele>581</ele>
        <time>2026-04-30T13:58:10.999Z</time>
      </trkpt>
      <trkpt lat="43.99557" lon="2.99108">
        <ele>581.2</ele>
        <time>2026-04-30T13:58:11.999Z</time>
      </trkpt>
      <trkpt lat="43.99557" lon="2.99106">
        <ele>580.9</ele>
        <time>2026-04-30T13:58:12.999Z</time>
      </trkpt>
      <trkpt lat="43.99557" lon="2.99105">
        <ele>580.1</ele>
        <time>2026-04-30T13:58:13.999Z</time>
      </trkpt>
      <trkpt lat="43.99557" lon="2.99104">
        <ele>579.6</ele>
        <time>2026-04-30T13:58:14.999Z</time>
      </trkpt>
      <trkpt lat="43.99557" lon="2.99104">
        <ele>579.2</ele>
        <time>2026-04-30T13:58:15.999Z</time>
      </trkpt>
      <trkpt lat="43.99557" lon="2.99102">
        <ele>579.1</ele>
        <time>2026-04-30T13:58:16.999Z</time>
      </trkpt>
      <trkpt lat="43.99557" lon="2.99101">
        <ele>578.4</ele>
        <time>2026-04-30T13:58:17.999Z</time>
      </trkpt>
      <trkpt lat="43.99557" lon="2.991">
        <ele>578.1</ele>
        <time>2026-04-30T13:58:18.999Z</time>
      </trkpt>
      <trkpt lat="43.99557" lon="2.99099">
        <ele>577.9</ele>
        <time>2026-04-30T13:58:19.999Z</time>
      </trkpt>
      <trkpt lat="43.99557" lon="2.99098">
        <ele>577.7</ele>
        <time>2026-04-30T13:58:20.999Z</time>
      </trkpt>
      <trkpt lat="43.99557" lon="2.99097">
        <ele>577.4</ele>
        <time>2026-04-30T13:58:21.999Z</time>
      </trkpt>
      <trkpt lat="43.99556" lon="2.99096">
        <ele>577</ele>
        <time>2026-04-30T13:58:22.999Z</time>
      </trkpt>
      <trkpt lat="43.99556" lon="2.99094">
        <ele>576.9</ele>
        <time>2026-04-30T13:58:23.999Z</time>
      </trkpt>
      <trkpt lat="43.99555" lon="2.99092">
        <ele>576.3</ele>
        <time>2026-04-30T13:58:24.999Z</time>
      </trkpt>
      <trkpt lat="43.99555" lon="2.99091">
        <ele>575.5</ele>
        <time>2026-04-30T13:58:25.999Z</time>
      </trkpt>
      <trkpt lat="43.99555" lon="2.99091">
        <ele>575.2</ele>
        <time>2026-04-30T13:58:26.999Z</time>
      </trkpt>
      <trkpt lat="43.99555" lon="2.99089">
        <ele>575.3</ele>
        <time>2026-04-30T13:58:27.999Z</time>
      </trkpt>
      <trkpt lat="43.99555" lon="2.99088">
        <ele>575.6</ele>
        <time>2026-04-30T13:58:28.999Z</time>
      </trkpt>
      <trkpt lat="43.99554" lon="2.99085">
        <ele>575.8</ele>
        <time>2026-04-30T13:58:29.999Z</time>
      </trkpt>
      <trkpt lat="43.99554" lon="2.99083">
        <ele>576</ele>
        <time>2026-04-30T13:58:30.999Z</time>
      </trkpt>
      <trkpt lat="43.99554" lon="2.9908">
        <ele>575.9</ele>
        <time>2026-04-30T13:58:31.999Z</time>
      </trkpt>
      <trkpt lat="43.99554" lon="2.99078">
        <ele>575.6</ele>
        <time>2026-04-30T13:58:32.999Z</time>
      </trkpt>
      <trkpt lat="43.99554" lon="2.99076">
        <ele>575.5</ele>
        <time>2026-04-30T13:58:33.999Z</time>
      </trkpt>
      <trkpt lat="43.99553" lon="2.99075">
        <ele>575.3</ele>
        <time>2026-04-30T13:58:34.999Z</time>
      </trkpt>
      <trkpt lat="43.99553" lon="2.99075">
        <ele>575</ele>
        <time>2026-04-30T13:58:35.999Z</time>
      </trkpt>
      <trkpt lat="43.99553" lon="2.99074">
        <ele>574.6</ele>
        <time>2026-04-30T13:58:36.999Z</time>
      </trkpt>
      <trkpt lat="43.99553" lon="2.99073">
        <ele>574.4</ele>
        <time>2026-04-30T13:58:37.999Z</time>
      </trkpt>
      <trkpt lat="43.99553" lon="2.99072">
        <ele>574.3</ele>
        <time>2026-04-30T13:58:38.999Z</time>
      </trkpt>
      <trkpt lat="43.99552" lon="2.99071">
        <ele>573.8</ele>
        <time>2026-04-30T13:58:39.999Z</time>
      </trkpt>
      <trkpt lat="43.99552" lon="2.99069">
        <ele>573.5</ele>
        <time>2026-04-30T13:58:40.999Z</time>
      </trkpt>
      <trkpt lat="43.99552" lon="2.99067">
        <ele>573.3</ele>
        <time>2026-04-30T13:58:41.999Z</time>
      </trkpt>
      <trkpt lat="43.99552" lon="2.99065">
        <ele>573.2</ele>
        <time>2026-04-30T13:58:42.999Z</time>
      </trkpt>
      <trkpt lat="43.99552" lon="2.99064">
        <ele>573</ele>
        <time>2026-04-30T13:58:43.999Z</time>
      </trkpt>
      <trkpt lat="43.99552" lon="2.99063">
        <ele>572.8</ele>
        <time>2026-04-30T13:58:44.999Z</time>
      </trkpt>
      <trkpt lat="43.99551" lon="2.99062">
        <ele>572.9</ele>
        <time>2026-04-30T13:58:45.999Z</time>
      </trkpt>
      <trkpt lat="43.99551" lon="2.99061">
        <ele>572.8</ele>
        <time>2026-04-30T13:58:46.999Z</time>
      </trkpt>
      <trkpt lat="43.99551" lon="2.9906">
        <ele>572.7</ele>
        <time>2026-04-30T13:58:47.999Z</time>
      </trkpt>
      <trkpt lat="43.99551" lon="2.99059">
        <ele>572.8</ele>
        <time>2026-04-30T13:58:48.999Z</time>
      </trkpt>
      <trkpt lat="43.99551" lon="2.99057">
        <ele>572.8</ele>
        <time>2026-04-30T13:58:49.999Z</time>
      </trkpt>
      <trkpt lat="43.9955" lon="2.99056">
        <ele>572.9</ele>
        <time>2026-04-30T13:58:50.999Z</time>
      </trkpt>
      <trkpt lat="43.99549" lon="2.99055">
        <ele>573</ele>
        <time>2026-04-30T13:58:51.999Z</time>
      </trkpt>
      <trkpt lat="43.99549" lon="2.99054">
        <ele>573.1</ele>
        <time>2026-04-30T13:58:52.999Z</time>
      </trkpt>
      <trkpt lat="43.99549" lon="2.99054">
        <ele>573</ele>
        <time>2026-04-30T13:58:53.999Z</time>
      </trkpt>
      <trkpt lat="43.99549" lon="2.99054">
        <ele>572.7</ele>
        <time>2026-04-30T13:58:54.999Z</time>
      </trkpt>
      <trkpt lat="43.99549" lon="2.99052">
        <ele>572.7</ele>
        <time>2026-04-30T13:58:55.999Z</time>
      </trkpt>
      <trkpt lat="43.99549" lon="2.99051">
        <ele>572.6</ele>
        <time>2026-04-30T13:58:56.999Z</time>
      </trkpt>
      <trkpt lat="43.99549" lon="2.9905">
        <ele>572.3</ele>
        <time>2026-04-30T13:58:57.999Z</time>
      </trkpt>
      <trkpt lat="43.99548" lon="2.99048">
        <ele>572.4</ele>
        <time>2026-04-30T13:58:58.999Z</time>
      </trkpt>
      <trkpt lat="43.99548" lon="2.99047">
        <ele>572</ele>
        <time>2026-04-30T13:58:59.999Z</time>
      </trkpt>
      <trkpt lat="43.99547" lon="2.99046">
        <ele>571.4</ele>
        <time>2026-04-30T13:59:00.999Z</time>
      </trkpt>
      <trkpt lat="43.99547" lon="2.99047">
        <ele>571.2</ele>
        <time>2026-04-30T13:59:01.999Z</time>
      </trkpt>
      <trkpt lat="43.99546" lon="2.99046">
        <ele>571.1</ele>
        <time>2026-04-30T13:59:02.999Z</time>
      </trkpt>
      <trkpt lat="43.99546" lon="2.99046">
        <ele>571.3</ele>
        <time>2026-04-30T13:59:03.999Z</time>
      </trkpt>
      <trkpt lat="43.99546" lon="2.99046">
        <ele>571.5</ele>
        <time>2026-04-30T13:59:04.999Z</time>
      </trkpt>
      <trkpt lat="43.99545" lon="2.99046">
        <ele>571.4</ele>
        <time>2026-04-30T13:59:05.999Z</time>
      </trkpt>
      <trkpt lat="43.99545" lon="2.99047">
        <ele>571.4</ele>
        <time>2026-04-30T13:59:06.999Z</time>
      </trkpt>
      <trkpt lat="43.99544" lon="2.99047">
        <ele>571.5</ele>
        <time>2026-04-30T13:59:07.999Z</time>
      </trkpt>
      <trkpt lat="43.99544" lon="2.99047">
        <ele>571.6</ele>
        <time>2026-04-30T13:59:08.999Z</time>
      </trkpt>
      <trkpt lat="43.99544" lon="2.99047">
        <ele>571.5</ele>
        <time>2026-04-30T13:59:09.999Z</time>
      </trkpt>
      <trkpt lat="43.99544" lon="2.99047">
        <ele>572.3</ele>
        <time>2026-04-30T13:59:10.999Z</time>
      </trkpt>
      <trkpt lat="43.99544" lon="2.99046">
        <ele>572.7</ele>
        <time>2026-04-30T13:59:11.999Z</time>
      </trkpt>
      <trkpt lat="43.99545" lon="2.99046">
        <ele>573.1</ele>
        <time>2026-04-30T13:59:12.999Z</time>
      </trkpt>
      <trkpt lat="43.99545" lon="2.99046">
        <ele>573.2</ele>
        <time>2026-04-30T13:59:13.999Z</time>
      </trkpt>
      <trkpt lat="43.99545" lon="2.99046">
        <ele>572.6</ele>
        <time>2026-04-30T13:59:14.999Z</time>
      </trkpt>
      <trkpt lat="43.99545" lon="2.99046">
        <ele>572.5</ele>
        <time>2026-04-30T13:59:15.999Z</time>
      </trkpt>
      <trkpt lat="43.99545" lon="2.99046">
        <ele>572.5</ele>
        <time>2026-04-30T13:59:16.999Z</time>
      </trkpt>
      <trkpt lat="43.99545" lon="2.99047">
        <ele>572.5</ele>
        <time>2026-04-30T13:59:17.999Z</time>
      </trkpt>
      <trkpt lat="43.99545" lon="2.99047">
        <ele>572.5</ele>
        <time>2026-04-30T13:59:18.999Z</time>
      </trkpt>
      <trkpt lat="43.99546" lon="2.99047">
        <ele>572.6</ele>
        <time>2026-04-30T13:59:19.999Z</time>
      </trkpt>
      <trkpt lat="43.99547" lon="2.99047">
        <ele>572.4</ele>
        <time>2026-04-30T13:59:20.999Z</time>
      </trkpt>
      <trkpt lat="43.99547" lon="2.99047">
        <ele>570.2</ele>
        <time>2026-04-30T13:59:21.999Z</time>
      </trkpt>
      <trkpt lat="43.99548" lon="2.99047">
        <ele>570.3</ele>
        <time>2026-04-30T13:59:22.999Z</time>
      </trkpt>
      <trkpt lat="43.99549" lon="2.99048">
        <ele>570.9</ele>
        <time>2026-04-30T13:59:24.999Z</time>
      </trkpt>
      <trkpt lat="43.99548" lon="2.99047">
        <ele>570.6</ele>
        <time>2026-04-30T13:59:25.999Z</time>
      </trkpt>
      <trkpt lat="43.99548" lon="2.99047">
        <ele>570.8</ele>
        <time>2026-04-30T13:59:26.999Z</time>
      </trkpt>
      <trkpt lat="43.99548" lon="2.99048">
        <ele>571.2</ele>
        <time>2026-04-30T13:59:27.999Z</time>
      </trkpt>
      <trkpt lat="43.99548" lon="2.99048">
        <ele>571.2</ele>
        <time>2026-04-30T13:59:28.999Z</time>
      </trkpt>
      <trkpt lat="43.99548" lon="2.99048">
        <ele>571.3</ele>
        <time>2026-04-30T13:59:29.999Z</time>
      </trkpt>
      <trkpt lat="43.99548" lon="2.99048">
        <ele>571.4</ele>
        <time>2026-04-30T13:59:30.999Z</time>
      </trkpt>
      <trkpt lat="43.99548" lon="2.99048">
        <ele>571.6</ele>
        <time>2026-04-30T13:59:31.999Z</time>
      </trkpt>
      <trkpt lat="43.99548" lon="2.99048">
        <ele>571.9</ele>
        <time>2026-04-30T13:59:32.999Z</time>
      </trkpt>
      <trkpt lat="43.99548" lon="2.99048">
        <ele>572.1</ele>
        <time>2026-04-30T13:59:33.999Z</time>
      </trkpt>
      <trkpt lat="43.99548" lon="2.99047">
        <ele>572.3</ele>
        <time>2026-04-30T13:59:34.999Z</time>
      </trkpt>
      <trkpt lat="43.99548" lon="2.99047">
        <ele>572.6</ele>
        <time>2026-04-30T13:59:35.999Z</time>
      </trkpt>
      <trkpt lat="43.99548" lon="2.99047">
        <ele>573</ele>
        <time>2026-04-30T13:59:36.999Z</time>
      </trkpt>
      <trkpt lat="43.99548" lon="2.99047">
        <ele>573.2</ele>
        <time>2026-04-30T13:59:37.999Z</time>
      </trkpt>
      <trkpt lat="43.99547" lon="2.99047">
        <ele>573.4</ele>
        <time>2026-04-30T13:59:38.999Z</time>
      </trkpt>
      <trkpt lat="43.99547" lon="2.99047">
        <ele>573.5</ele>
        <time>2026-04-30T13:59:39.999Z</time>
      </trkpt>
      <trkpt lat="43.99546" lon="2.99048">
        <ele>573.8</ele>
        <time>2026-04-30T13:59:40.999Z</time>
      </trkpt>
      <trkpt lat="43.99546" lon="2.99048">
        <ele>573.7</ele>
        <time>2026-04-30T13:59:41.999Z</time>
      </trkpt>
      <trkpt lat="43.99547" lon="2.99047">
        <ele>573.3</ele>
        <time>2026-04-30T13:59:42.999Z</time>
      </trkpt>
      <trkpt lat="43.99547" lon="2.99046">
        <ele>573.2</ele>
        <time>2026-04-30T13:59:43.999Z</time>
      </trkpt>
      <trkpt lat="43.99547" lon="2.99046">
        <ele>572.8</ele>
        <time>2026-04-30T13:59:44.999Z</time>
      </trkpt>
      <trkpt lat="43.99547" lon="2.99045">
        <ele>572.5</ele>
        <time>2026-04-30T13:59:45.999Z</time>
      </trkpt>
      <trkpt lat="43.99548" lon="2.99044">
        <ele>572.4</ele>
        <time>2026-04-30T13:59:46.999Z</time>
      </trkpt>
      <trkpt lat="43.99547" lon="2.99043">
        <ele>572.1</ele>
        <time>2026-04-30T13:59:47.999Z</time>
      </trkpt>
      <trkpt lat="43.99547" lon="2.99042">
        <ele>571.9</ele>
        <time>2026-04-30T13:59:48.999Z</time>
      </trkpt>
      <trkpt lat="43.99546" lon="2.99041">
        <ele>572.2</ele>
        <time>2026-04-30T13:59:49.999Z</time>
      </trkpt>
      <trkpt lat="43.99545" lon="2.9904">
        <ele>571.9</ele>
        <time>2026-04-30T13:59:50.999Z</time>
      </trkpt>
      <trkpt lat="43.99544" lon="2.99039">
        <ele>571.7</ele>
        <time>2026-04-30T13:59:51.999Z</time>
      </trkpt>
      <trkpt lat="43.99545" lon="2.99037">
        <ele>571.5</ele>
        <time>2026-04-30T13:59:52.999Z</time>
      </trkpt>
      <trkpt lat="43.99545" lon="2.99037">
        <ele>571</ele>
        <time>2026-04-30T13:59:53.999Z</time>
      </trkpt>
      <trkpt lat="43.99545" lon="2.99036">
        <ele>570.5</ele>
        <time>2026-04-30T13:59:54.999Z</time>
      </trkpt>
      <trkpt lat="43.99546" lon="2.99035">
        <ele>570.8</ele>
        <time>2026-04-30T13:59:55.999Z</time>
      </trkpt>
      <trkpt lat="43.99547" lon="2.99034">
        <ele>571.3</ele>
        <time>2026-04-30T13:59:56.999Z</time>
      </trkpt>
      <trkpt lat="43.99548" lon="2.99033">
        <ele>571.2</ele>
        <time>2026-04-30T13:59:57.999Z</time>
      </trkpt>
      <trkpt lat="43.99549" lon="2.99031">
        <ele>571.6</ele>
        <time>2026-04-30T13:59:58.999Z</time>
      </trkpt>
      <trkpt lat="43.99549" lon="2.9903">
        <ele>572</ele>
        <time>2026-04-30T13:59:59.999Z</time>
      </trkpt>
      <trkpt lat="43.99549" lon="2.99028">
        <ele>572.2</ele>
        <time>2026-04-30T14:00:00.999Z</time>
      </trkpt>
      <trkpt lat="43.99548" lon="2.99026">
        <ele>572.7</ele>
        <time>2026-04-30T14:00:01.999Z</time>
      </trkpt>
      <trkpt lat="43.99548" lon="2.99025">
        <ele>573</ele>
        <time>2026-04-30T14:00:02.999Z</time>
      </trkpt>
      <trkpt lat="43.99549" lon="2.99024">
        <ele>572.3</ele>
        <time>2026-04-30T14:00:03.999Z</time>
      </trkpt>
      <trkpt lat="43.99548" lon="2.99023">
        <ele>571.8</ele>
        <time>2026-04-30T14:00:04.999Z</time>
      </trkpt>
      <trkpt lat="43.99549" lon="2.99021">
        <ele>571.6</ele>
        <time>2026-04-30T14:00:05.999Z</time>
      </trkpt>
      <trkpt lat="43.9955" lon="2.99019">
        <ele>571.7</ele>
        <time>2026-04-30T14:00:06.999Z</time>
      </trkpt>
      <trkpt lat="43.9955" lon="2.99017">
        <ele>571.5</ele>
        <time>2026-04-30T14:00:07.999Z</time>
      </trkpt>
      <trkpt lat="43.99551" lon="2.99015">
        <ele>571.4</ele>
        <time>2026-04-30T14:00:08.999Z</time>
      </trkpt>
      <trkpt lat="43.99551" lon="2.99014">
        <ele>571.1</ele>
        <time>2026-04-30T14:00:09.999Z</time>
      </trkpt>
      <trkpt lat="43.9955" lon="2.99012">
        <ele>571.2</ele>
        <time>2026-04-30T14:00:10.999Z</time>
      </trkpt>
      <trkpt lat="43.99551" lon="2.9901">
        <ele>572.4</ele>
        <time>2026-04-30T14:00:11.999Z</time>
      </trkpt>
      <trkpt lat="43.9955" lon="2.99008">
        <ele>572.7</ele>
        <time>2026-04-30T14:00:12.999Z</time>
      </trkpt>
      <trkpt lat="43.9955" lon="2.99007">
        <ele>573.6</ele>
        <time>2026-04-30T14:00:13.999Z</time>
      </trkpt>
      <trkpt lat="43.99551" lon="2.99006">
        <ele>573.9</ele>
        <time>2026-04-30T14:00:14.999Z</time>
      </trkpt>
      <trkpt lat="43.99551" lon="2.99005">
        <ele>574.1</ele>
        <time>2026-04-30T14:00:15.999Z</time>
      </trkpt>
      <trkpt lat="43.99551" lon="2.99004">
        <ele>574</ele>
        <time>2026-04-30T14:00:16.999Z</time>
      </trkpt>
      <trkpt lat="43.99551" lon="2.99002">
        <ele>574.3</ele>
        <time>2026-04-30T14:00:17.999Z</time>
      </trkpt>
      <trkpt lat="43.99551" lon="2.99001">
        <ele>574.4</ele>
        <time>2026-04-30T14:00:18.999Z</time>
      </trkpt>
      <trkpt lat="43.99551" lon="2.98999">
        <ele>574.8</ele>
        <time>2026-04-30T14:00:19.999Z</time>
      </trkpt>
      <trkpt lat="43.99551" lon="2.98997">
        <ele>575.4</ele>
        <time>2026-04-30T14:00:20.999Z</time>
      </trkpt>
      <trkpt lat="43.99551" lon="2.98995">
        <ele>575.9</ele>
        <time>2026-04-30T14:00:21.999Z</time>
      </trkpt>
      <trkpt lat="43.99551" lon="2.98993">
        <ele>576.3</ele>
        <time>2026-04-30T14:00:22.999Z</time>
      </trkpt>
      <trkpt lat="43.99552" lon="2.98991">
        <ele>576.7</ele>
        <time>2026-04-30T14:00:23.999Z</time>
      </trkpt>
      <trkpt lat="43.99551" lon="2.9899">
        <ele>577.1</ele>
        <time>2026-04-30T14:00:24.999Z</time>
      </trkpt>
      <trkpt lat="43.99551" lon="2.9899">
        <ele>577.2</ele>
        <time>2026-04-30T14:00:25.999Z</time>
      </trkpt>
      <trkpt lat="43.9955" lon="2.98989">
        <ele>577.5</ele>
        <time>2026-04-30T14:00:26.999Z</time>
      </trkpt>
      <trkpt lat="43.99551" lon="2.98987">
        <ele>577.3</ele>
        <time>2026-04-30T14:00:27.999Z</time>
      </trkpt>
      <trkpt lat="43.99551" lon="2.98987">
        <ele>577</ele>
        <time>2026-04-30T14:00:28.999Z</time>
      </trkpt>
      <trkpt lat="43.99552" lon="2.98984">
        <ele>576.9</ele>
        <time>2026-04-30T14:00:30.999Z</time>
      </trkpt>
      <trkpt lat="43.99553" lon="2.98983">
        <ele>576.6</ele>
        <time>2026-04-30T14:00:31.999Z</time>
      </trkpt>
      <trkpt lat="43.99553" lon="2.98982">
        <ele>576.6</ele>
        <time>2026-04-30T14:00:32.999Z</time>
      </trkpt>
      <trkpt lat="43.99554" lon="2.98981">
        <ele>576.5</ele>
        <time>2026-04-30T14:00:33.999Z</time>
      </trkpt>
      <trkpt lat="43.99554" lon="2.98979">
        <ele>576.4</ele>
        <time>2026-04-30T14:00:34.999Z</time>
      </trkpt>
      <trkpt lat="43.99554" lon="2.98978">
        <ele>575.8</ele>
        <time>2026-04-30T14:00:35.999Z</time>
      </trkpt>
      <trkpt lat="43.99555" lon="2.98976">
        <ele>575.5</ele>
        <time>2026-04-30T14:00:36.999Z</time>
      </trkpt>
      <trkpt lat="43.99555" lon="2.98975">
        <ele>574.9</ele>
        <time>2026-04-30T14:00:37.999Z</time>
      </trkpt>
      <trkpt lat="43.99555" lon="2.98973">
        <ele>574.4</ele>
        <time>2026-04-30T14:00:38.999Z</time>
      </trkpt>
      <trkpt lat="43.99555" lon="2.98972">
        <ele>574.1</ele>
        <time>2026-04-30T14:00:39.999Z</time>
      </trkpt>
      <trkpt lat="43.99555" lon="2.98972">
        <ele>574.3</ele>
        <time>2026-04-30T14:00:40.999Z</time>
      </trkpt>
      <trkpt lat="43.99555" lon="2.98972">
        <ele>573.9</ele>
        <time>2026-04-30T14:00:41.999Z</time>
      </trkpt>
      <trkpt lat="43.99554" lon="2.98972">
        <ele>573.6</ele>
        <time>2026-04-30T14:00:42.999Z</time>
      </trkpt>
      <trkpt lat="43.99554" lon="2.98972">
        <ele>573.1</ele>
        <time>2026-04-30T14:00:43.999Z</time>
      </trkpt>
      <trkpt lat="43.99554" lon="2.98971">
        <ele>572.9</ele>
        <time>2026-04-30T14:00:44.999Z</time>
      </trkpt>
      <trkpt lat="43.99553" lon="2.98972">
        <ele>572.5</ele>
        <time>2026-04-30T14:00:45.999Z</time>
      </trkpt>
      <trkpt lat="43.99551" lon="2.98972">
        <ele>572.4</ele>
        <time>2026-04-30T14:00:46.999Z</time>
      </trkpt>
      <trkpt lat="43.99549" lon="2.98972">
        <ele>571.8</ele>
        <time>2026-04-30T14:00:47.999Z</time>
      </trkpt>
      <trkpt lat="43.99548" lon="2.98974">
        <ele>571.4</ele>
        <time>2026-04-30T14:00:48.999Z</time>
      </trkpt>
      <trkpt lat="43.99547" lon="2.98975">
        <ele>571.2</ele>
        <time>2026-04-30T14:00:49.999Z</time>
      </trkpt>
      <trkpt lat="43.99546" lon="2.98977">
        <ele>570.4</ele>
        <time>2026-04-30T14:00:50.999Z</time>
      </trkpt>
      <trkpt lat="43.99545" lon="2.98978">
        <ele>569.8</ele>
        <time>2026-04-30T14:00:51.999Z</time>
      </trkpt>
      <trkpt lat="43.99544" lon="2.98978">
        <ele>568.6</ele>
        <time>2026-04-30T14:00:52.999Z</time>
      </trkpt>
      <trkpt lat="43.99545" lon="2.98978">
        <ele>567.8</ele>
        <time>2026-04-30T14:00:53.999Z</time>
      </trkpt>
      <trkpt lat="43.99544" lon="2.98979">
        <ele>567.8</ele>
        <time>2026-04-30T14:00:54.999Z</time>
      </trkpt>
      <trkpt lat="43.99544" lon="2.98979">
        <ele>567.2</ele>
        <time>2026-04-30T14:00:55.999Z</time>
      </trkpt>
      <trkpt lat="43.99544" lon="2.98979">
        <ele>566.5</ele>
        <time>2026-04-30T14:00:56.999Z</time>
      </trkpt>
      <trkpt lat="43.99544" lon="2.98979">
        <ele>565.8</ele>
        <time>2026-04-30T14:00:57.999Z</time>
      </trkpt>
      <trkpt lat="43.99543" lon="2.98979">
        <ele>565.5</ele>
        <time>2026-04-30T14:00:58.999Z</time>
      </trkpt>
      <trkpt lat="43.99544" lon="2.98978">
        <ele>565.6</ele>
        <time>2026-04-30T14:00:59.999Z</time>
      </trkpt>
      <trkpt lat="43.99544" lon="2.98978">
        <ele>565.4</ele>
        <time>2026-04-30T14:01:00.999Z</time>
      </trkpt>
      <trkpt lat="43.99544" lon="2.98978">
        <ele>565.4</ele>
        <time>2026-04-30T14:01:01.999Z</time>
      </trkpt>
      <trkpt lat="43.99542" lon="2.98975">
        <ele>564.6</ele>
        <time>2026-04-30T14:01:02.999Z</time>
      </trkpt>
      <trkpt lat="43.99542" lon="2.98974">
        <ele>564.2</ele>
        <time>2026-04-30T14:01:03.999Z</time>
      </trkpt>
      <trkpt lat="43.99541" lon="2.98971">
        <ele>563.9</ele>
        <time>2026-04-30T14:01:04.999Z</time>
      </trkpt>
      <trkpt lat="43.99541" lon="2.98969">
        <ele>563.5</ele>
        <time>2026-04-30T14:01:05.999Z</time>
      </trkpt>
      <trkpt lat="43.9954" lon="2.98967">
        <ele>563.6</ele>
        <time>2026-04-30T14:01:06.999Z</time>
      </trkpt>
      <trkpt lat="43.9954" lon="2.98966">
        <ele>563.6</ele>
        <time>2026-04-30T14:01:07.999Z</time>
      </trkpt>
      <trkpt lat="43.99539" lon="2.98964">
        <ele>563.7</ele>
        <time>2026-04-30T14:01:08.999Z</time>
      </trkpt>
      <trkpt lat="43.99539" lon="2.98963">
        <ele>564</ele>
        <time>2026-04-30T14:01:09.999Z</time>
      </trkpt>
      <trkpt lat="43.99538" lon="2.98963">
        <ele>564.1</ele>
        <time>2026-04-30T14:01:10.999Z</time>
      </trkpt>
      <trkpt lat="43.99537" lon="2.98962">
        <ele>564.2</ele>
        <time>2026-04-30T14:01:11.999Z</time>
      </trkpt>
      <trkpt lat="43.99537" lon="2.98961">
        <ele>564.3</ele>
        <time>2026-04-30T14:01:12.999Z</time>
      </trkpt>
      <trkpt lat="43.99538" lon="2.9896">
        <ele>564.3</ele>
        <time>2026-04-30T14:01:13.999Z</time>
      </trkpt>
      <trkpt lat="43.99539" lon="2.98958">
        <ele>564.2</ele>
        <time>2026-04-30T14:01:14.999Z</time>
      </trkpt>
      <trkpt lat="43.9954" lon="2.98957">
        <ele>564.2</ele>
        <time>2026-04-30T14:01:15.999Z</time>
      </trkpt>
      <trkpt lat="43.99542" lon="2.98955">
        <ele>564.2</ele>
        <time>2026-04-30T14:01:16.999Z</time>
      </trkpt>
      <trkpt lat="43.99543" lon="2.98951">
        <ele>564</ele>
        <time>2026-04-30T14:01:17.999Z</time>
      </trkpt>
      <trkpt lat="43.99544" lon="2.98947">
        <ele>564</ele>
        <time>2026-04-30T14:01:18.999Z</time>
      </trkpt>
      <trkpt lat="43.99545" lon="2.98944">
        <ele>564</ele>
        <time>2026-04-30T14:01:19.999Z</time>
      </trkpt>
      <trkpt lat="43.99546" lon="2.9894">
        <ele>564.1</ele>
        <time>2026-04-30T14:01:20.999Z</time>
      </trkpt>
      <trkpt lat="43.99549" lon="2.98935">
        <ele>564.4</ele>
        <time>2026-04-30T14:01:21.999Z</time>
      </trkpt>
      <trkpt lat="43.9955" lon="2.98931">
        <ele>564.7</ele>
        <time>2026-04-30T14:01:22.999Z</time>
      </trkpt>
      <trkpt lat="43.9955" lon="2.98928">
        <ele>564.5</ele>
        <time>2026-04-30T14:01:23.999Z</time>
      </trkpt>
      <trkpt lat="43.9955" lon="2.98927">
        <ele>564.9</ele>
        <time>2026-04-30T14:01:24.999Z</time>
      </trkpt>
      <trkpt lat="43.99551" lon="2.98923">
        <ele>565.4</ele>
        <time>2026-04-30T14:01:25.999Z</time>
      </trkpt>
      <trkpt lat="43.99552" lon="2.98918">
        <ele>566.8</ele>
        <time>2026-04-30T14:01:26.999Z</time>
      </trkpt>
      <trkpt lat="43.99551" lon="2.98915">
        <ele>566.5</ele>
        <time>2026-04-30T14:01:27.999Z</time>
      </trkpt>
      <trkpt lat="43.99551" lon="2.98913">
        <ele>566.5</ele>
        <time>2026-04-30T14:01:28.999Z</time>
      </trkpt>
      <trkpt lat="43.99552" lon="2.98911">
        <ele>566.5</ele>
        <time>2026-04-30T14:01:29.999Z</time>
      </trkpt>
      <trkpt lat="43.99552" lon="2.98909">
        <ele>566.8</ele>
        <time>2026-04-30T14:01:30.999Z</time>
      </trkpt>
      <trkpt lat="43.99553" lon="2.98905">
        <ele>567.6</ele>
        <time>2026-04-30T14:01:31.999Z</time>
      </trkpt>
      <trkpt lat="43.99553" lon="2.98901">
        <ele>568</ele>
        <time>2026-04-30T14:01:32.999Z</time>
      </trkpt>
      <trkpt lat="43.99554" lon="2.98899">
        <ele>567.3</ele>
        <time>2026-04-30T14:01:33.999Z</time>
      </trkpt>
      <trkpt lat="43.99554" lon="2.98898">
        <ele>567</ele>
        <time>2026-04-30T14:01:34.999Z</time>
      </trkpt>
      <trkpt lat="43.99554" lon="2.98897">
        <ele>566.2</ele>
        <time>2026-04-30T14:01:35.999Z</time>
      </trkpt>
      <trkpt lat="43.99554" lon="2.98897">
        <ele>566.4</ele>
        <time>2026-04-30T14:01:36.999Z</time>
      </trkpt>
      <trkpt lat="43.99554" lon="2.98896">
        <ele>566</ele>
        <time>2026-04-30T14:01:37.999Z</time>
      </trkpt>
      <trkpt lat="43.99555" lon="2.98895">
        <ele>565.8</ele>
        <time>2026-04-30T14:01:38.999Z</time>
      </trkpt>
      <trkpt lat="43.99554" lon="2.98894">
        <ele>565.3</ele>
        <time>2026-04-30T14:01:39.999Z</time>
      </trkpt>
      <trkpt lat="43.99554" lon="2.98892">
        <ele>565.1</ele>
        <time>2026-04-30T14:01:40.999Z</time>
      </trkpt>
      <trkpt lat="43.99554" lon="2.98891">
        <ele>564.4</ele>
        <time>2026-04-30T14:01:41.999Z</time>
      </trkpt>
      <trkpt lat="43.99553" lon="2.98889">
        <ele>564.5</ele>
        <time>2026-04-30T14:01:42.999Z</time>
      </trkpt>
      <trkpt lat="43.99553" lon="2.98888">
        <ele>564.2</ele>
        <time>2026-04-30T14:01:43.999Z</time>
      </trkpt>
      <trkpt lat="43.99553" lon="2.98887">
        <ele>564</ele>
        <time>2026-04-30T14:01:44.999Z</time>
      </trkpt>
      <trkpt lat="43.99552" lon="2.98885">
        <ele>564</ele>
        <time>2026-04-30T14:01:45.999Z</time>
      </trkpt>
      <trkpt lat="43.99553" lon="2.98884">
        <ele>563.9</ele>
        <time>2026-04-30T14:01:46.999Z</time>
      </trkpt>
      <trkpt lat="43.99553" lon="2.98882">
        <ele>564</ele>
        <time>2026-04-30T14:01:47.999Z</time>
      </trkpt>
      <trkpt lat="43.99553" lon="2.98881">
        <ele>563.9</ele>
        <time>2026-04-30T14:01:48.999Z</time>
      </trkpt>
      <trkpt lat="43.99553" lon="2.98878">
        <ele>563.5</ele>
        <time>2026-04-30T14:01:49.999Z</time>
      </trkpt>
      <trkpt lat="43.99554" lon="2.98877">
        <ele>563.2</ele>
        <time>2026-04-30T14:01:50.999Z</time>
      </trkpt>
      <trkpt lat="43.99554" lon="2.98875">
        <ele>563.1</ele>
        <time>2026-04-30T14:01:51.999Z</time>
      </trkpt>
      <trkpt lat="43.99554" lon="2.98873">
        <ele>563.3</ele>
        <time>2026-04-30T14:01:52.999Z</time>
      </trkpt>
      <trkpt lat="43.99554" lon="2.98872">
        <ele>563.5</ele>
        <time>2026-04-30T14:01:53.999Z</time>
      </trkpt>
      <trkpt lat="43.99554" lon="2.9887">
        <ele>563.4</ele>
        <time>2026-04-30T14:01:54.999Z</time>
      </trkpt>
      <trkpt lat="43.99554" lon="2.98868">
        <ele>563.4</ele>
        <time>2026-04-30T14:01:55.999Z</time>
      </trkpt>
      <trkpt lat="43.99554" lon="2.98867">
        <ele>563</ele>
        <time>2026-04-30T14:01:56.999Z</time>
      </trkpt>
      <trkpt lat="43.99555" lon="2.98865">
        <ele>562.8</ele>
        <time>2026-04-30T14:01:57.999Z</time>
      </trkpt>
      <trkpt lat="43.99557" lon="2.98862">
        <ele>563.2</ele>
        <time>2026-04-30T14:01:58.999Z</time>
      </trkpt>
      <trkpt lat="43.99557" lon="2.9886">
        <ele>563.7</ele>
        <time>2026-04-30T14:01:59.999Z</time>
      </trkpt>
      <trkpt lat="43.99559" lon="2.98859">
        <ele>563.9</ele>
        <time>2026-04-30T14:02:00.999Z</time>
      </trkpt>
      <trkpt lat="43.99559" lon="2.98858">
        <ele>564.2</ele>
        <time>2026-04-30T14:02:01.999Z</time>
      </trkpt>
      <trkpt lat="43.9956" lon="2.98855">
        <ele>565.2</ele>
        <time>2026-04-30T14:02:02.999Z</time>
      </trkpt>
      <trkpt lat="43.99561" lon="2.98853">
        <ele>566.2</ele>
        <time>2026-04-30T14:02:03.999Z</time>
      </trkpt>
      <trkpt lat="43.99561" lon="2.98851">
        <ele>567</ele>
        <time>2026-04-30T14:02:04.999Z</time>
      </trkpt>
      <trkpt lat="43.99561" lon="2.98849">
        <ele>567.4</ele>
        <time>2026-04-30T14:02:05.999Z</time>
      </trkpt>
      <trkpt lat="43.99563" lon="2.98846">
        <ele>568.4</ele>
        <time>2026-04-30T14:02:06.999Z</time>
      </trkpt>
      <trkpt lat="43.99564" lon="2.98845">
        <ele>568.4</ele>
        <time>2026-04-30T14:02:07.999Z</time>
      </trkpt>
      <trkpt lat="43.99566" lon="2.98845">
        <ele>567.8</ele>
        <time>2026-04-30T14:02:08.999Z</time>
      </trkpt>
      <trkpt lat="43.99568" lon="2.98846">
        <ele>567.4</ele>
        <time>2026-04-30T14:02:09.999Z</time>
      </trkpt>
      <trkpt lat="43.99569" lon="2.98845">
        <ele>567.1</ele>
        <time>2026-04-30T14:02:10.999Z</time>
      </trkpt>
      <trkpt lat="43.99569" lon="2.98843">
        <ele>567.1</ele>
        <time>2026-04-30T14:02:11.999Z</time>
      </trkpt>
      <trkpt lat="43.99569" lon="2.98841">
        <ele>567.6</ele>
        <time>2026-04-30T14:02:12.999Z</time>
      </trkpt>
      <trkpt lat="43.99569" lon="2.9884">
        <ele>567.9</ele>
        <time>2026-04-30T14:02:13.999Z</time>
      </trkpt>
      <trkpt lat="43.99569" lon="2.98838">
        <ele>568</ele>
        <time>2026-04-30T14:02:14.999Z</time>
      </trkpt>
      <trkpt lat="43.9957" lon="2.98836">
        <ele>568.2</ele>
        <time>2026-04-30T14:02:15.999Z</time>
      </trkpt>
      <trkpt lat="43.9957" lon="2.98834">
        <ele>568</ele>
        <time>2026-04-30T14:02:16.999Z</time>
      </trkpt>
      <trkpt lat="43.9957" lon="2.98833">
        <ele>568.1</ele>
        <time>2026-04-30T14:02:17.999Z</time>
      </trkpt>
      <trkpt lat="43.99572" lon="2.98831">
        <ele>567.8</ele>
        <time>2026-04-30T14:02:18.999Z</time>
      </trkpt>
      <trkpt lat="43.99572" lon="2.98829">
        <ele>566.9</ele>
        <time>2026-04-30T14:02:19.999Z</time>
      </trkpt>
      <trkpt lat="43.99573" lon="2.98827">
        <ele>566.5</ele>
        <time>2026-04-30T14:02:20.999Z</time>
      </trkpt>
      <trkpt lat="43.99574" lon="2.98825">
        <ele>566.1</ele>
        <time>2026-04-30T14:02:21.999Z</time>
      </trkpt>
      <trkpt lat="43.99574" lon="2.98823">
        <ele>565.6</ele>
        <time>2026-04-30T14:02:22.999Z</time>
      </trkpt>
      <trkpt lat="43.99574" lon="2.98822">
        <ele>565.5</ele>
        <time>2026-04-30T14:02:23.999Z</time>
      </trkpt>
      <trkpt lat="43.99574" lon="2.98821">
        <ele>565.3</ele>
        <time>2026-04-30T14:02:24.999Z</time>
      </trkpt>
      <trkpt lat="43.99573" lon="2.9882">
        <ele>565</ele>
        <time>2026-04-30T14:02:25.999Z</time>
      </trkpt>
      <trkpt lat="43.99573" lon="2.98819">
        <ele>565.2</ele>
        <time>2026-04-30T14:02:26.999Z</time>
      </trkpt>
      <trkpt lat="43.99573" lon="2.98818">
        <ele>564.9</ele>
        <time>2026-04-30T14:02:27.999Z</time>
      </trkpt>
      <trkpt lat="43.99572" lon="2.98817">
        <ele>564.8</ele>
        <time>2026-04-30T14:02:28.999Z</time>
      </trkpt>
      <trkpt lat="43.99572" lon="2.98815">
        <ele>564.4</ele>
        <time>2026-04-30T14:02:29.999Z</time>
      </trkpt>
      <trkpt lat="43.99572" lon="2.98813">
        <ele>564.3</ele>
        <time>2026-04-30T14:02:30.999Z</time>
      </trkpt>
      <trkpt lat="43.99572" lon="2.98811">
        <ele>564</ele>
        <time>2026-04-30T14:02:31.999Z</time>
      </trkpt>
      <trkpt lat="43.99573" lon="2.9881">
        <ele>563.9</ele>
        <time>2026-04-30T14:02:32.999Z</time>
      </trkpt>
      <trkpt lat="43.99574" lon="2.98808">
        <ele>564.2</ele>
        <time>2026-04-30T14:02:33.999Z</time>
      </trkpt>
      <trkpt lat="43.99575" lon="2.98806">
        <ele>564.2</ele>
        <time>2026-04-30T14:02:34.999Z</time>
      </trkpt>
      <trkpt lat="43.99576" lon="2.98805">
        <ele>564.5</ele>
        <time>2026-04-30T14:02:35.999Z</time>
      </trkpt>
      <trkpt lat="43.99576" lon="2.98804">
        <ele>564.3</ele>
        <time>2026-04-30T14:02:36.999Z</time>
      </trkpt>
      <trkpt lat="43.99578" lon="2.98804">
        <ele>564.5</ele>
        <time>2026-04-30T14:02:37.999Z</time>
      </trkpt>
      <trkpt lat="43.99579" lon="2.98803">
        <ele>564.8</ele>
        <time>2026-04-30T14:02:38.999Z</time>
      </trkpt>
      <trkpt lat="43.9958" lon="2.98803">
        <ele>564.7</ele>
        <time>2026-04-30T14:02:39.999Z</time>
      </trkpt>
      <trkpt lat="43.99581" lon="2.98802">
        <ele>564.6</ele>
        <time>2026-04-30T14:02:40.999Z</time>
      </trkpt>
      <trkpt lat="43.99583" lon="2.98799">
        <ele>564.9</ele>
        <time>2026-04-30T14:02:41.999Z</time>
      </trkpt>
      <trkpt lat="43.99584" lon="2.98797">
        <ele>564.7</ele>
        <time>2026-04-30T14:02:42.999Z</time>
      </trkpt>
      <trkpt lat="43.99585" lon="2.98795">
        <ele>564.1</ele>
        <time>2026-04-30T14:02:43.999Z</time>
      </trkpt>
      <trkpt lat="43.99586" lon="2.98794">
        <ele>564</ele>
        <time>2026-04-30T14:02:44.999Z</time>
      </trkpt>
      <trkpt lat="43.99587" lon="2.98793">
        <ele>564.3</ele>
        <time>2026-04-30T14:02:45.999Z</time>
      </trkpt>
      <trkpt lat="43.99588" lon="2.98792">
        <ele>564.3</ele>
        <time>2026-04-30T14:02:46.999Z</time>
      </trkpt>
      <trkpt lat="43.99588" lon="2.98791">
        <ele>564</ele>
        <time>2026-04-30T14:02:47.999Z</time>
      </trkpt>
      <trkpt lat="43.9959" lon="2.9879">
        <ele>564.3</ele>
        <time>2026-04-30T14:02:48.999Z</time>
      </trkpt>
      <trkpt lat="43.99591" lon="2.98789">
        <ele>564.4</ele>
        <time>2026-04-30T14:02:49.999Z</time>
      </trkpt>
      <trkpt lat="43.99592" lon="2.98789">
        <ele>564.9</ele>
        <time>2026-04-30T14:02:50.999Z</time>
      </trkpt>
      <trkpt lat="43.99593" lon="2.98789">
        <ele>564.8</ele>
        <time>2026-04-30T14:02:51.999Z</time>
      </trkpt>
      <trkpt lat="43.99594" lon="2.98787">
        <ele>565.1</ele>
        <time>2026-04-30T14:02:52.999Z</time>
      </trkpt>
      <trkpt lat="43.99594" lon="2.98786">
        <ele>564.8</ele>
        <time>2026-04-30T14:02:53.999Z</time>
      </trkpt>
      <trkpt lat="43.99595" lon="2.98784">
        <ele>565</ele>
        <time>2026-04-30T14:02:54.999Z</time>
      </trkpt>
      <trkpt lat="43.99595" lon="2.98783">
        <ele>565.4</ele>
        <time>2026-04-30T14:02:55.999Z</time>
      </trkpt>
      <trkpt lat="43.99596" lon="2.98783">
        <ele>565.4</ele>
        <time>2026-04-30T14:02:56.999Z</time>
      </trkpt>
      <trkpt lat="43.99596" lon="2.98782">
        <ele>565.4</ele>
        <time>2026-04-30T14:02:57.999Z</time>
      </trkpt>
      <trkpt lat="43.99597" lon="2.98781">
        <ele>565.7</ele>
        <time>2026-04-30T14:02:58.999Z</time>
      </trkpt>
      <trkpt lat="43.99598" lon="2.9878">
        <ele>565.8</ele>
        <time>2026-04-30T14:02:59.999Z</time>
      </trkpt>
      <trkpt lat="43.99598" lon="2.9878">
        <ele>565.6</ele>
        <time>2026-04-30T14:03:00.999Z</time>
      </trkpt>
      <trkpt lat="43.99599" lon="2.98779">
        <ele>565.6</ele>
        <time>2026-04-30T14:03:01.999Z</time>
      </trkpt>
      <trkpt lat="43.996" lon="2.98778">
        <ele>565.8</ele>
        <time>2026-04-30T14:03:02.999Z</time>
      </trkpt>
      <trkpt lat="43.99601" lon="2.98777">
        <ele>565.5</ele>
        <time>2026-04-30T14:03:03.999Z</time>
      </trkpt>
      <trkpt lat="43.99602" lon="2.98776">
        <ele>565.4</ele>
        <time>2026-04-30T14:03:04.999Z</time>
      </trkpt>
      <trkpt lat="43.99603" lon="2.98776">
        <ele>565.1</ele>
        <time>2026-04-30T14:03:05.999Z</time>
      </trkpt>
      <trkpt lat="43.99604" lon="2.98774">
        <ele>564.9</ele>
        <time>2026-04-30T14:03:06.999Z</time>
      </trkpt>
      <trkpt lat="43.99605" lon="2.98774">
        <ele>564.8</ele>
        <time>2026-04-30T14:03:07.999Z</time>
      </trkpt>
      <trkpt lat="43.99606" lon="2.98773">
        <ele>564.9</ele>
        <time>2026-04-30T14:03:08.999Z</time>
      </trkpt>
      <trkpt lat="43.99607" lon="2.98772">
        <ele>564.6</ele>
        <time>2026-04-30T14:03:09.999Z</time>
      </trkpt>
      <trkpt lat="43.99608" lon="2.9877">
        <ele>564.4</ele>
        <time>2026-04-30T14:03:10.999Z</time>
      </trkpt>
      <trkpt lat="43.99608" lon="2.98769">
        <ele>564.2</ele>
        <time>2026-04-30T14:03:11.999Z</time>
      </trkpt>
      <trkpt lat="43.99609" lon="2.98767">
        <ele>564.4</ele>
        <time>2026-04-30T14:03:12.999Z</time>
      </trkpt>
      <trkpt lat="43.99609" lon="2.98765">
        <ele>564.3</ele>
        <time>2026-04-30T14:03:13.999Z</time>
      </trkpt>
      <trkpt lat="43.99609" lon="2.98764">
        <ele>564.1</ele>
        <time>2026-04-30T14:03:14.999Z</time>
      </trkpt>
      <trkpt lat="43.9961" lon="2.98763">
        <ele>563.8</ele>
        <time>2026-04-30T14:03:15.999Z</time>
      </trkpt>
      <trkpt lat="43.9961" lon="2.98762">
        <ele>563.2</ele>
        <time>2026-04-30T14:03:16.999Z</time>
      </trkpt>
      <trkpt lat="43.99611" lon="2.98761">
        <ele>562.7</ele>
        <time>2026-04-30T14:03:17.999Z</time>
      </trkpt>
      <trkpt lat="43.99611" lon="2.9876">
        <ele>562</ele>
        <time>2026-04-30T14:03:18.999Z</time>
      </trkpt>
      <trkpt lat="43.99611" lon="2.98757">
        <ele>561.7</ele>
        <time>2026-04-30T14:03:19.999Z</time>
      </trkpt>
      <trkpt lat="43.99611" lon="2.98756">
        <ele>561.5</ele>
        <time>2026-04-30T14:03:20.999Z</time>
      </trkpt>
      <trkpt lat="43.99611" lon="2.98755">
        <ele>562.7</ele>
        <time>2026-04-30T14:03:21.999Z</time>
      </trkpt>
      <trkpt lat="43.99612" lon="2.98755">
        <ele>562.4</ele>
        <time>2026-04-30T14:03:22.999Z</time>
      </trkpt>
      <trkpt lat="43.99612" lon="2.98754">
        <ele>562.2</ele>
        <time>2026-04-30T14:03:23.999Z</time>
      </trkpt>
      <trkpt lat="43.99612" lon="2.98754">
        <ele>562.1</ele>
        <time>2026-04-30T14:03:24.999Z</time>
      </trkpt>
      <trkpt lat="43.99612" lon="2.98753">
        <ele>562.2</ele>
        <time>2026-04-30T14:03:25.999Z</time>
      </trkpt>
      <trkpt lat="43.99612" lon="2.98753">
        <ele>562</ele>
        <time>2026-04-30T14:03:26.999Z</time>
      </trkpt>
      <trkpt lat="43.99613" lon="2.98753">
        <ele>562.2</ele>
        <time>2026-04-30T14:03:27.999Z</time>
      </trkpt>
      <trkpt lat="43.99613" lon="2.98751">
        <ele>562.3</ele>
        <time>2026-04-30T14:03:28.999Z</time>
      </trkpt>
      <trkpt lat="43.99614" lon="2.98747">
        <ele>562.2</ele>
        <time>2026-04-30T14:03:29.999Z</time>
      </trkpt>
      <trkpt lat="43.99614" lon="2.98744">
        <ele>562</ele>
        <time>2026-04-30T14:03:30.999Z</time>
      </trkpt>
      <trkpt lat="43.99615" lon="2.98742">
        <ele>561.9</ele>
        <time>2026-04-30T14:03:31.999Z</time>
      </trkpt>
      <trkpt lat="43.99615" lon="2.98741">
        <ele>561.7</ele>
        <time>2026-04-30T14:03:32.999Z</time>
      </trkpt>
      <trkpt lat="43.99615" lon="2.98739">
        <ele>561.8</ele>
        <time>2026-04-30T14:03:33.999Z</time>
      </trkpt>
      <trkpt lat="43.99615" lon="2.98738">
        <ele>561.6</ele>
        <time>2026-04-30T14:03:34.999Z</time>
      </trkpt>
      <trkpt lat="43.99616" lon="2.98737">
        <ele>562.1</ele>
        <time>2026-04-30T14:03:35.999Z</time>
      </trkpt>
      <trkpt lat="43.99616" lon="2.98737">
        <ele>561.9</ele>
        <time>2026-04-30T14:03:36.999Z</time>
      </trkpt>
      <trkpt lat="43.99616" lon="2.98736">
        <ele>561.7</ele>
        <time>2026-04-30T14:03:37.999Z</time>
      </trkpt>
      <trkpt lat="43.99616" lon="2.98735">
        <ele>561.4</ele>
        <time>2026-04-30T14:03:38.999Z</time>
      </trkpt>
      <trkpt lat="43.99618" lon="2.98732">
        <ele>561.2</ele>
        <time>2026-04-30T14:03:39.999Z</time>
      </trkpt>
      <trkpt lat="43.99619" lon="2.98729">
        <ele>561.2</ele>
        <time>2026-04-30T14:03:40.999Z</time>
      </trkpt>
      <trkpt lat="43.99619" lon="2.98728">
        <ele>560.8</ele>
        <time>2026-04-30T14:03:41.999Z</time>
      </trkpt>
      <trkpt lat="43.9962" lon="2.98725">
        <ele>560.8</ele>
        <time>2026-04-30T14:03:42.999Z</time>
      </trkpt>
      <trkpt lat="43.99621" lon="2.98722">
        <ele>560.9</ele>
        <time>2026-04-30T14:03:43.999Z</time>
      </trkpt>
      <trkpt lat="43.99621" lon="2.98721">
        <ele>560.7</ele>
        <time>2026-04-30T14:03:44.999Z</time>
      </trkpt>
      <trkpt lat="43.99621" lon="2.98721">
        <ele>560.7</ele>
        <time>2026-04-30T14:03:45.999Z</time>
      </trkpt>
      <trkpt lat="43.99623" lon="2.9872">
        <ele>560.4</ele>
        <time>2026-04-30T14:03:46.999Z</time>
      </trkpt>
      <trkpt lat="43.99624" lon="2.98719">
        <ele>560.1</ele>
        <time>2026-04-30T14:03:47.999Z</time>
      </trkpt>
      <trkpt lat="43.99624" lon="2.98718">
        <ele>560</ele>
        <time>2026-04-30T14:03:48.999Z</time>
      </trkpt>
      <trkpt lat="43.99625" lon="2.98717">
        <ele>559.8</ele>
        <time>2026-04-30T14:03:49.999Z</time>
      </trkpt>
      <trkpt lat="43.99625" lon="2.98716">
        <ele>559.4</ele>
        <time>2026-04-30T14:03:50.999Z</time>
      </trkpt>
      <trkpt lat="43.99625" lon="2.98715">
        <ele>558.9</ele>
        <time>2026-04-30T14:03:51.999Z</time>
      </trkpt>
      <trkpt lat="43.99626" lon="2.98714">
        <ele>558.5</ele>
        <time>2026-04-30T14:03:52.999Z</time>
      </trkpt>
      <trkpt lat="43.99626" lon="2.98713">
        <ele>558.2</ele>
        <time>2026-04-30T14:03:53.999Z</time>
      </trkpt>
      <trkpt lat="43.99626" lon="2.98713">
        <ele>558.4</ele>
        <time>2026-04-30T14:03:54.999Z</time>
      </trkpt>
      <trkpt lat="43.99627" lon="2.98712">
        <ele>558.2</ele>
        <time>2026-04-30T14:03:55.999Z</time>
      </trkpt>
      <trkpt lat="43.99628" lon="2.98711">
        <ele>558</ele>
        <time>2026-04-30T14:03:56.999Z</time>
      </trkpt>
      <trkpt lat="43.9963" lon="2.98709">
        <ele>558.3</ele>
        <time>2026-04-30T14:03:57.999Z</time>
      </trkpt>
      <trkpt lat="43.99631" lon="2.98707">
        <ele>558.3</ele>
        <time>2026-04-30T14:03:58.999Z</time>
      </trkpt>
      <trkpt lat="43.99633" lon="2.98705">
        <ele>558.3</ele>
        <time>2026-04-30T14:03:59.999Z</time>
      </trkpt>
      <trkpt lat="43.99633" lon="2.98704">
        <ele>558.1</ele>
        <time>2026-04-30T14:04:00.999Z</time>
      </trkpt>
      <trkpt lat="43.99633" lon="2.98702">
        <ele>557.8</ele>
        <time>2026-04-30T14:04:01.999Z</time>
      </trkpt>
      <trkpt lat="43.99633" lon="2.98698">
        <ele>558.3</ele>
        <time>2026-04-30T14:04:02.999Z</time>
      </trkpt>
      <trkpt lat="43.99634" lon="2.98696">
        <ele>558.4</ele>
        <time>2026-04-30T14:04:03.999Z</time>
      </trkpt>
      <trkpt lat="43.99634" lon="2.98693">
        <ele>558.7</ele>
        <time>2026-04-30T14:04:04.999Z</time>
      </trkpt>
      <trkpt lat="43.99634" lon="2.98692">
        <ele>558.5</ele>
        <time>2026-04-30T14:04:05.999Z</time>
      </trkpt>
      <trkpt lat="43.99633" lon="2.98691">
        <ele>558.3</ele>
        <time>2026-04-30T14:04:06.999Z</time>
      </trkpt>
      <trkpt lat="43.99633" lon="2.9869">
        <ele>558.3</ele>
        <time>2026-04-30T14:04:07.999Z</time>
      </trkpt>
      <trkpt lat="43.99632" lon="2.98689">
        <ele>558.2</ele>
        <time>2026-04-30T14:04:08.999Z</time>
      </trkpt>
      <trkpt lat="43.99631" lon="2.98686">
        <ele>558.1</ele>
        <time>2026-04-30T14:04:09.999Z</time>
      </trkpt>
      <trkpt lat="43.99631" lon="2.98685">
        <ele>557.9</ele>
        <time>2026-04-30T14:04:10.999Z</time>
      </trkpt>
      <trkpt lat="43.9963" lon="2.98681">
        <ele>558.5</ele>
        <time>2026-04-30T14:04:11.999Z</time>
      </trkpt>
      <trkpt lat="43.99629" lon="2.9868">
        <ele>558.4</ele>
        <time>2026-04-30T14:04:12.999Z</time>
      </trkpt>
      <trkpt lat="43.99627" lon="2.98679">
        <ele>558.6</ele>
        <time>2026-04-30T14:04:13.999Z</time>
      </trkpt>
      <trkpt lat="43.99626" lon="2.98678">
        <ele>558.4</ele>
        <time>2026-04-30T14:04:14.999Z</time>
      </trkpt>
      <trkpt lat="43.99625" lon="2.98677">
        <ele>558.2</ele>
        <time>2026-04-30T14:04:15.999Z</time>
      </trkpt>
      <trkpt lat="43.99625" lon="2.98676">
        <ele>557.9</ele>
        <time>2026-04-30T14:04:16.999Z</time>
      </trkpt>
      <trkpt lat="43.99624" lon="2.98675">
        <ele>557.4</ele>
        <time>2026-04-30T14:04:17.999Z</time>
      </trkpt>
      <trkpt lat="43.99624" lon="2.98674">
        <ele>557.1</ele>
        <time>2026-04-30T14:04:18.999Z</time>
      </trkpt>
      <trkpt lat="43.99623" lon="2.98672">
        <ele>557.2</ele>
        <time>2026-04-30T14:04:19.999Z</time>
      </trkpt>
      <trkpt lat="43.99623" lon="2.9867">
        <ele>557.2</ele>
        <time>2026-04-30T14:04:20.999Z</time>
      </trkpt>
      <trkpt lat="43.99622" lon="2.98667">
        <ele>557.3</ele>
        <time>2026-04-30T14:04:21.999Z</time>
      </trkpt>
      <trkpt lat="43.99622" lon="2.98666">
        <ele>557.5</ele>
        <time>2026-04-30T14:04:22.999Z</time>
      </trkpt>
      <trkpt lat="43.99624" lon="2.98664">
        <ele>558.3</ele>
        <time>2026-04-30T14:04:23.999Z</time>
      </trkpt>
      <trkpt lat="43.99624" lon="2.98663">
        <ele>558.7</ele>
        <time>2026-04-30T14:04:24.999Z</time>
      </trkpt>
      <trkpt lat="43.99623" lon="2.98662">
        <ele>558.6</ele>
        <time>2026-04-30T14:04:25.999Z</time>
      </trkpt>
      <trkpt lat="43.99623" lon="2.9866">
        <ele>558.5</ele>
        <time>2026-04-30T14:04:26.999Z</time>
      </trkpt>
      <trkpt lat="43.99622" lon="2.98659">
        <ele>558.2</ele>
        <time>2026-04-30T14:04:27.999Z</time>
      </trkpt>
      <trkpt lat="43.99622" lon="2.98657">
        <ele>557.9</ele>
        <time>2026-04-30T14:04:28.999Z</time>
      </trkpt>
      <trkpt lat="43.99621" lon="2.98656">
        <ele>557.4</ele>
        <time>2026-04-30T14:04:29.999Z</time>
      </trkpt>
      <trkpt lat="43.99621" lon="2.98655">
        <ele>557.1</ele>
        <time>2026-04-30T14:04:30.999Z</time>
      </trkpt>
      <trkpt lat="43.99621" lon="2.98655">
        <ele>557</ele>
        <time>2026-04-30T14:04:31.999Z</time>
      </trkpt>
      <trkpt lat="43.99621" lon="2.98654">
        <ele>557.1</ele>
        <time>2026-04-30T14:04:32.999Z</time>
      </trkpt>
      <trkpt lat="43.9962" lon="2.98653">
        <ele>556.8</ele>
        <time>2026-04-30T14:04:33.999Z</time>
      </trkpt>
      <trkpt lat="43.9962" lon="2.98652">
        <ele>556.5</ele>
        <time>2026-04-30T14:04:34.999Z</time>
      </trkpt>
      <trkpt lat="43.9962" lon="2.98651">
        <ele>556</ele>
        <time>2026-04-30T14:04:35.999Z</time>
      </trkpt>
      <trkpt lat="43.9962" lon="2.98651">
        <ele>555.6</ele>
        <time>2026-04-30T14:04:36.999Z</time>
      </trkpt>
      <trkpt lat="43.99619" lon="2.9865">
        <ele>555.2</ele>
        <time>2026-04-30T14:04:37.999Z</time>
      </trkpt>
      <trkpt lat="43.99619" lon="2.98649">
        <ele>554.9</ele>
        <time>2026-04-30T14:04:38.999Z</time>
      </trkpt>
      <trkpt lat="43.99621" lon="2.98646">
        <ele>555.3</ele>
        <time>2026-04-30T14:04:39.999Z</time>
      </trkpt>
      <trkpt lat="43.99621" lon="2.98644">
        <ele>555.3</ele>
        <time>2026-04-30T14:04:40.999Z</time>
      </trkpt>
      <trkpt lat="43.99621" lon="2.98642">
        <ele>555.2</ele>
        <time>2026-04-30T14:04:41.999Z</time>
      </trkpt>
      <trkpt lat="43.99621" lon="2.98642">
        <ele>556.2</ele>
        <time>2026-04-30T14:04:42.999Z</time>
      </trkpt>
      <trkpt lat="43.99621" lon="2.98641">
        <ele>555.8</ele>
        <time>2026-04-30T14:04:43.999Z</time>
      </trkpt>
      <trkpt lat="43.99621" lon="2.98641">
        <ele>555.4</ele>
        <time>2026-04-30T14:04:44.999Z</time>
      </trkpt>
      <trkpt lat="43.99621" lon="2.98641">
        <ele>555.3</ele>
        <time>2026-04-30T14:04:45.999Z</time>
      </trkpt>
      <trkpt lat="43.99621" lon="2.9864">
        <ele>555.2</ele>
        <time>2026-04-30T14:04:46.999Z</time>
      </trkpt>
      <trkpt lat="43.9962" lon="2.98639">
        <ele>555</ele>
        <time>2026-04-30T14:04:47.999Z</time>
      </trkpt>
      <trkpt lat="43.9962" lon="2.98638">
        <ele>554.7</ele>
        <time>2026-04-30T14:04:48.999Z</time>
      </trkpt>
      <trkpt lat="43.99619" lon="2.98638">
        <ele>554.6</ele>
        <time>2026-04-30T14:04:49.999Z</time>
      </trkpt>
      <trkpt lat="43.99619" lon="2.98638">
        <ele>554.3</ele>
        <time>2026-04-30T14:04:50.999Z</time>
      </trkpt>
      <trkpt lat="43.99619" lon="2.98634">
        <ele>554.1</ele>
        <time>2026-04-30T14:04:51.999Z</time>
      </trkpt>
      <trkpt lat="43.99619" lon="2.98632">
        <ele>554</ele>
        <time>2026-04-30T14:04:52.999Z</time>
      </trkpt>
      <trkpt lat="43.99618" lon="2.9863">
        <ele>553.9</ele>
        <time>2026-04-30T14:04:53.999Z</time>
      </trkpt>
      <trkpt lat="43.99617" lon="2.98626">
        <ele>554.1</ele>
        <time>2026-04-30T14:04:54.999Z</time>
      </trkpt>
      <trkpt lat="43.99616" lon="2.98625">
        <ele>554.2</ele>
        <time>2026-04-30T14:04:55.999Z</time>
      </trkpt>
      <trkpt lat="43.99616" lon="2.98623">
        <ele>554.3</ele>
        <time>2026-04-30T14:04:56.999Z</time>
      </trkpt>
      <trkpt lat="43.99616" lon="2.98621">
        <ele>554.5</ele>
        <time>2026-04-30T14:04:57.999Z</time>
      </trkpt>
      <trkpt lat="43.99615" lon="2.9862">
        <ele>554.7</ele>
        <time>2026-04-30T14:04:58.999Z</time>
      </trkpt>
      <trkpt lat="43.99615" lon="2.98618">
        <ele>554.7</ele>
        <time>2026-04-30T14:04:59.999Z</time>
      </trkpt>
      <trkpt lat="43.99615" lon="2.98616">
        <ele>554.6</ele>
        <time>2026-04-30T14:05:00.999Z</time>
      </trkpt>
      <trkpt lat="43.99614" lon="2.98613">
        <ele>554.6</ele>
        <time>2026-04-30T14:05:01.999Z</time>
      </trkpt>
      <trkpt lat="43.99613" lon="2.98612">
        <ele>554.6</ele>
        <time>2026-04-30T14:05:02.999Z</time>
      </trkpt>
      <trkpt lat="43.99613" lon="2.98609">
        <ele>554.5</ele>
        <time>2026-04-30T14:05:03.999Z</time>
      </trkpt>
      <trkpt lat="43.99612" lon="2.98606">
        <ele>555.1</ele>
        <time>2026-04-30T14:05:04.999Z</time>
      </trkpt>
      <trkpt lat="43.99612" lon="2.98605">
        <ele>555</ele>
        <time>2026-04-30T14:05:05.999Z</time>
      </trkpt>
      <trkpt lat="43.99612" lon="2.98603">
        <ele>555</ele>
        <time>2026-04-30T14:05:06.999Z</time>
      </trkpt>
      <trkpt lat="43.99611" lon="2.98601">
        <ele>555</ele>
        <time>2026-04-30T14:05:07.999Z</time>
      </trkpt>
      <trkpt lat="43.9961" lon="2.98599">
        <ele>555</ele>
        <time>2026-04-30T14:05:08.999Z</time>
      </trkpt>
      <trkpt lat="43.9961" lon="2.98597">
        <ele>554.8</ele>
        <time>2026-04-30T14:05:09.999Z</time>
      </trkpt>
      <trkpt lat="43.9961" lon="2.98596">
        <ele>554.5</ele>
        <time>2026-04-30T14:05:10.999Z</time>
      </trkpt>
      <trkpt lat="43.9961" lon="2.98595">
        <ele>554.3</ele>
        <time>2026-04-30T14:05:11.999Z</time>
      </trkpt>
      <trkpt lat="43.99609" lon="2.98593">
        <ele>553.9</ele>
        <time>2026-04-30T14:05:13.999Z</time>
      </trkpt>
      <trkpt lat="43.99609" lon="2.98591">
        <ele>553.9</ele>
        <time>2026-04-30T14:05:14.999Z</time>
      </trkpt>
      <trkpt lat="43.99609" lon="2.9859">
        <ele>553.9</ele>
        <time>2026-04-30T14:05:15.999Z</time>
      </trkpt>
      <trkpt lat="43.99608" lon="2.98589">
        <ele>553.7</ele>
        <time>2026-04-30T14:05:16.999Z</time>
      </trkpt>
      <trkpt lat="43.99608" lon="2.98588">
        <ele>553.4</ele>
        <time>2026-04-30T14:05:17.999Z</time>
      </trkpt>
      <trkpt lat="43.99607" lon="2.98587">
        <ele>553.2</ele>
        <time>2026-04-30T14:05:18.999Z</time>
      </trkpt>
      <trkpt lat="43.99605" lon="2.98583">
        <ele>553.6</ele>
        <time>2026-04-30T14:05:20.999Z</time>
      </trkpt>
      <trkpt lat="43.99606" lon="2.9858">
        <ele>553.8</ele>
        <time>2026-04-30T14:05:21.999Z</time>
      </trkpt>
      <trkpt lat="43.99605" lon="2.98579">
        <ele>553.7</ele>
        <time>2026-04-30T14:05:22.999Z</time>
      </trkpt>
      <trkpt lat="43.99605" lon="2.98577">
        <ele>553.7</ele>
        <time>2026-04-30T14:05:23.999Z</time>
      </trkpt>
      <trkpt lat="43.99604" lon="2.98576">
        <ele>553.9</ele>
        <time>2026-04-30T14:05:24.999Z</time>
      </trkpt>
      <trkpt lat="43.99603" lon="2.98575">
        <ele>553.9</ele>
        <time>2026-04-30T14:05:25.999Z</time>
      </trkpt>
      <trkpt lat="43.99602" lon="2.98573">
        <ele>553.7</ele>
        <time>2026-04-30T14:05:26.999Z</time>
      </trkpt>
      <trkpt lat="43.99602" lon="2.98572">
        <ele>553.6</ele>
        <time>2026-04-30T14:05:27.999Z</time>
      </trkpt>
      <trkpt lat="43.99602" lon="2.98572">
        <ele>553.7</ele>
        <time>2026-04-30T14:05:28.999Z</time>
      </trkpt>
      <trkpt lat="43.99601" lon="2.98571">
        <ele>554.1</ele>
        <time>2026-04-30T14:05:29.999Z</time>
      </trkpt>
      <trkpt lat="43.99601" lon="2.98571">
        <ele>554.7</ele>
        <time>2026-04-30T14:05:30.999Z</time>
      </trkpt>
      <trkpt lat="43.99601" lon="2.98571">
        <ele>554.9</ele>
        <time>2026-04-30T14:05:31.999Z</time>
      </trkpt>
      <trkpt lat="43.99601" lon="2.9857">
        <ele>555.1</ele>
        <time>2026-04-30T14:05:32.999Z</time>
      </trkpt>
      <trkpt lat="43.99601" lon="2.9857">
        <ele>556.1</ele>
        <time>2026-04-30T14:05:33.999Z</time>
      </trkpt>
      <trkpt lat="43.99601" lon="2.9857">
        <ele>556.1</ele>
        <time>2026-04-30T14:05:34.999Z</time>
      </trkpt>
      <trkpt lat="43.99601" lon="2.9857">
        <ele>555.9</ele>
        <time>2026-04-30T14:05:35.999Z</time>
      </trkpt>
      <trkpt lat="43.99601" lon="2.9857">
        <ele>556.6</ele>
        <time>2026-04-30T14:05:36.999Z</time>
      </trkpt>
      <trkpt lat="43.99601" lon="2.98569">
        <ele>556.9</ele>
        <time>2026-04-30T14:05:37.999Z</time>
      </trkpt>
      <trkpt lat="43.99602" lon="2.98569">
        <ele>557.3</ele>
        <time>2026-04-30T14:05:38.999Z</time>
      </trkpt>
      <trkpt lat="43.99602" lon="2.98569">
        <ele>557.5</ele>
        <time>2026-04-30T14:05:39.999Z</time>
      </trkpt>
      <trkpt lat="43.99602" lon="2.98569">
        <ele>557.6</ele>
        <time>2026-04-30T14:05:40.999Z</time>
      </trkpt>
      <trkpt lat="43.99603" lon="2.98567">
        <ele>557.4</ele>
        <time>2026-04-30T14:05:41.999Z</time>
      </trkpt>
      <trkpt lat="43.99604" lon="2.98566">
        <ele>557.3</ele>
        <time>2026-04-30T14:05:42.999Z</time>
      </trkpt>
      <trkpt lat="43.99603" lon="2.98565">
        <ele>557.3</ele>
        <time>2026-04-30T14:05:43.999Z</time>
      </trkpt>
      <trkpt lat="43.99603" lon="2.98562">
        <ele>557.1</ele>
        <time>2026-04-30T14:05:44.999Z</time>
      </trkpt>
      <trkpt lat="43.99602" lon="2.98559">
        <ele>556.8</ele>
        <time>2026-04-30T14:05:45.999Z</time>
      </trkpt>
      <trkpt lat="43.99601" lon="2.98556">
        <ele>557.2</ele>
        <time>2026-04-30T14:05:46.999Z</time>
      </trkpt>
      <trkpt lat="43.99601" lon="2.98555">
        <ele>557.2</ele>
        <time>2026-04-30T14:05:47.999Z</time>
      </trkpt>
      <trkpt lat="43.99601" lon="2.98553">
        <ele>557.3</ele>
        <time>2026-04-30T14:05:48.999Z</time>
      </trkpt>
      <trkpt lat="43.99601" lon="2.98552">
        <ele>557.2</ele>
        <time>2026-04-30T14:05:49.999Z</time>
      </trkpt>
      <trkpt lat="43.99601" lon="2.98551">
        <ele>557</ele>
        <time>2026-04-30T14:05:50.999Z</time>
      </trkpt>
      <trkpt lat="43.99601" lon="2.9855">
        <ele>556.5</ele>
        <time>2026-04-30T14:05:51.999Z</time>
      </trkpt>
      <trkpt lat="43.996" lon="2.98548">
        <ele>556.1</ele>
        <time>2026-04-30T14:05:52.999Z</time>
      </trkpt>
      <trkpt lat="43.99599" lon="2.98546">
        <ele>556.4</ele>
        <time>2026-04-30T14:05:53.999Z</time>
      </trkpt>
      <trkpt lat="43.99599" lon="2.98544">
        <ele>556.5</ele>
        <time>2026-04-30T14:05:54.999Z</time>
      </trkpt>
      <trkpt lat="43.99598" lon="2.98541">
        <ele>556.7</ele>
        <time>2026-04-30T14:05:55.999Z</time>
      </trkpt>
      <trkpt lat="43.99597" lon="2.98539">
        <ele>556.8</ele>
        <time>2026-04-30T14:05:56.999Z</time>
      </trkpt>
      <trkpt lat="43.99596" lon="2.98538">
        <ele>556.7</ele>
        <time>2026-04-30T14:05:57.999Z</time>
      </trkpt>
      <trkpt lat="43.99596" lon="2.98535">
        <ele>556.7</ele>
        <time>2026-04-30T14:05:58.999Z</time>
      </trkpt>
      <trkpt lat="43.99595" lon="2.98532">
        <ele>557.1</ele>
        <time>2026-04-30T14:05:59.999Z</time>
      </trkpt>
      <trkpt lat="43.99594" lon="2.9853">
        <ele>557.1</ele>
        <time>2026-04-30T14:06:00.999Z</time>
      </trkpt>
      <trkpt lat="43.99594" lon="2.98527">
        <ele>557.2</ele>
        <time>2026-04-30T14:06:01.999Z</time>
      </trkpt>
      <trkpt lat="43.99593" lon="2.98526">
        <ele>557.2</ele>
        <time>2026-04-30T14:06:02.999Z</time>
      </trkpt>
      <trkpt lat="43.99593" lon="2.98523">
        <ele>557.4</ele>
        <time>2026-04-30T14:06:03.999Z</time>
      </trkpt>
      <trkpt lat="43.99592" lon="2.98521">
        <ele>557.6</ele>
        <time>2026-04-30T14:06:04.999Z</time>
      </trkpt>
      <trkpt lat="43.99592" lon="2.9852">
        <ele>557.6</ele>
        <time>2026-04-30T14:06:05.999Z</time>
      </trkpt>
      <trkpt lat="43.99591" lon="2.98518">
        <ele>557.8</ele>
        <time>2026-04-30T14:06:06.999Z</time>
      </trkpt>
      <trkpt lat="43.99591" lon="2.98515">
        <ele>557.6</ele>
        <time>2026-04-30T14:06:07.999Z</time>
      </trkpt>
      <trkpt lat="43.99591" lon="2.98513">
        <ele>557.6</ele>
        <time>2026-04-30T14:06:08.999Z</time>
      </trkpt>
      <trkpt lat="43.9959" lon="2.98512">
        <ele>557.5</ele>
        <time>2026-04-30T14:06:09.999Z</time>
      </trkpt>
      <trkpt lat="43.9959" lon="2.98511">
        <ele>557.3</ele>
        <time>2026-04-30T14:06:10.999Z</time>
      </trkpt>
      <trkpt lat="43.9959" lon="2.9851">
        <ele>556.9</ele>
        <time>2026-04-30T14:06:11.999Z</time>
      </trkpt>
      <trkpt lat="43.99589" lon="2.98508">
        <ele>556.4</ele>
        <time>2026-04-30T14:06:12.999Z</time>
      </trkpt>
      <trkpt lat="43.99588" lon="2.98507">
        <ele>556.4</ele>
        <time>2026-04-30T14:06:13.999Z</time>
      </trkpt>
      <trkpt lat="43.99587" lon="2.98506">
        <ele>556.4</ele>
        <time>2026-04-30T14:06:14.999Z</time>
      </trkpt>
      <trkpt lat="43.99586" lon="2.98504">
        <ele>556.5</ele>
        <time>2026-04-30T14:06:15.999Z</time>
      </trkpt>
      <trkpt lat="43.99584" lon="2.98502">
        <ele>556.5</ele>
        <time>2026-04-30T14:06:16.999Z</time>
      </trkpt>
      <trkpt lat="43.99584" lon="2.98501">
        <ele>556.5</ele>
        <time>2026-04-30T14:06:17.999Z</time>
      </trkpt>
      <trkpt lat="43.99583" lon="2.98499">
        <ele>556</ele>
        <time>2026-04-30T14:06:18.999Z</time>
      </trkpt>
      <trkpt lat="43.99582" lon="2.98498">
        <ele>555.7</ele>
        <time>2026-04-30T14:06:19.999Z</time>
      </trkpt>
      <trkpt lat="43.99581" lon="2.98497">
        <ele>555.5</ele>
        <time>2026-04-30T14:06:20.999Z</time>
      </trkpt>
      <trkpt lat="43.99581" lon="2.98497">
        <ele>555.4</ele>
        <time>2026-04-30T14:06:21.999Z</time>
      </trkpt>
      <trkpt lat="43.99581" lon="2.98496">
        <ele>555.1</ele>
        <time>2026-04-30T14:06:22.999Z</time>
      </trkpt>
      <trkpt lat="43.9958" lon="2.98494">
        <ele>555.6</ele>
        <time>2026-04-30T14:06:23.999Z</time>
      </trkpt>
      <trkpt lat="43.99579" lon="2.98493">
        <ele>556.1</ele>
        <time>2026-04-30T14:06:24.999Z</time>
      </trkpt>
      <trkpt lat="43.99579" lon="2.98491">
        <ele>556.5</ele>
        <time>2026-04-30T14:06:25.999Z</time>
      </trkpt>
      <trkpt lat="43.99578" lon="2.9849">
        <ele>556.4</ele>
        <time>2026-04-30T14:06:26.999Z</time>
      </trkpt>
      <trkpt lat="43.99577" lon="2.98488">
        <ele>556.3</ele>
        <time>2026-04-30T14:06:27.999Z</time>
      </trkpt>
      <trkpt lat="43.99576" lon="2.98487">
        <ele>556</ele>
        <time>2026-04-30T14:06:28.999Z</time>
      </trkpt>
      <trkpt lat="43.99576" lon="2.98486">
        <ele>555.9</ele>
        <time>2026-04-30T14:06:29.999Z</time>
      </trkpt>
      <trkpt lat="43.99575" lon="2.98484">
        <ele>555.7</ele>
        <time>2026-04-30T14:06:30.999Z</time>
      </trkpt>
      <trkpt lat="43.99574" lon="2.98483">
        <ele>555.5</ele>
        <time>2026-04-30T14:06:31.999Z</time>
      </trkpt>
      <trkpt lat="43.99574" lon="2.98482">
        <ele>555.3</ele>
        <time>2026-04-30T14:06:32.999Z</time>
      </trkpt>
      <trkpt lat="43.99573" lon="2.98481">
        <ele>555.2</ele>
        <time>2026-04-30T14:06:33.999Z</time>
      </trkpt>
      <trkpt lat="43.99573" lon="2.98481">
        <ele>554.9</ele>
        <time>2026-04-30T14:06:34.999Z</time>
      </trkpt>
      <trkpt lat="43.99572" lon="2.9848">
        <ele>554.9</ele>
        <time>2026-04-30T14:06:35.999Z</time>
      </trkpt>
      <trkpt lat="43.99571" lon="2.98478">
        <ele>555</ele>
        <time>2026-04-30T14:06:36.999Z</time>
      </trkpt>
      <trkpt lat="43.9957" lon="2.98477">
        <ele>554.9</ele>
        <time>2026-04-30T14:06:37.999Z</time>
      </trkpt>
      <trkpt lat="43.99569" lon="2.98476">
        <ele>555.1</ele>
        <time>2026-04-30T14:06:38.999Z</time>
      </trkpt>
      <trkpt lat="43.99569" lon="2.98475">
        <ele>555.1</ele>
        <time>2026-04-30T14:06:39.999Z</time>
      </trkpt>
      <trkpt lat="43.99568" lon="2.98474">
        <ele>555.2</ele>
        <time>2026-04-30T14:06:40.999Z</time>
      </trkpt>
      <trkpt lat="43.99567" lon="2.98473">
        <ele>554.7</ele>
        <time>2026-04-30T14:06:41.999Z</time>
      </trkpt>
      <trkpt lat="43.99566" lon="2.98472">
        <ele>554</ele>
        <time>2026-04-30T14:06:42.999Z</time>
      </trkpt>
      <trkpt lat="43.99565" lon="2.98471">
        <ele>554</ele>
        <time>2026-04-30T14:06:43.999Z</time>
      </trkpt>
      <trkpt lat="43.99564" lon="2.98469">
        <ele>553.9</ele>
        <time>2026-04-30T14:06:44.999Z</time>
      </trkpt>
      <trkpt lat="43.99563" lon="2.98468">
        <ele>553.9</ele>
        <time>2026-04-30T14:06:45.999Z</time>
      </trkpt>
      <trkpt lat="43.99563" lon="2.98467">
        <ele>553.7</ele>
        <time>2026-04-30T14:06:46.999Z</time>
      </trkpt>
      <trkpt lat="43.99562" lon="2.98467">
        <ele>553.9</ele>
        <time>2026-04-30T14:06:47.999Z</time>
      </trkpt>
      <trkpt lat="43.99562" lon="2.98466">
        <ele>554</ele>
        <time>2026-04-30T14:06:48.999Z</time>
      </trkpt>
      <trkpt lat="43.99561" lon="2.98465">
        <ele>553.7</ele>
        <time>2026-04-30T14:06:49.999Z</time>
      </trkpt>
      <trkpt lat="43.9956" lon="2.98464">
        <ele>553.6</ele>
        <time>2026-04-30T14:06:50.999Z</time>
      </trkpt>
      <trkpt lat="43.99559" lon="2.98463">
        <ele>553.7</ele>
        <time>2026-04-30T14:06:51.999Z</time>
      </trkpt>
      <trkpt lat="43.99558" lon="2.98461">
        <ele>553.9</ele>
        <time>2026-04-30T14:06:52.999Z</time>
      </trkpt>
      <trkpt lat="43.99558" lon="2.9846">
        <ele>554.1</ele>
        <time>2026-04-30T14:06:53.999Z</time>
      </trkpt>
      <trkpt lat="43.99557" lon="2.98458">
        <ele>553.9</ele>
        <time>2026-04-30T14:06:54.999Z</time>
      </trkpt>
      <trkpt lat="43.99557" lon="2.98456">
        <ele>553.5</ele>
        <time>2026-04-30T14:06:55.999Z</time>
      </trkpt>
      <trkpt lat="43.99557" lon="2.98455">
        <ele>553.2</ele>
        <time>2026-04-30T14:06:56.999Z</time>
      </trkpt>
      <trkpt lat="43.99556" lon="2.98454">
        <ele>553.1</ele>
        <time>2026-04-30T14:06:57.999Z</time>
      </trkpt>
      <trkpt lat="43.99556" lon="2.98453">
        <ele>552.6</ele>
        <time>2026-04-30T14:06:58.999Z</time>
      </trkpt>
      <trkpt lat="43.99555" lon="2.98453">
        <ele>552.3</ele>
        <time>2026-04-30T14:06:59.999Z</time>
      </trkpt>
      <trkpt lat="43.99554" lon="2.98451">
        <ele>552.3</ele>
        <time>2026-04-30T14:07:00.999Z</time>
      </trkpt>
      <trkpt lat="43.99554" lon="2.9845">
        <ele>552.4</ele>
        <time>2026-04-30T14:07:01.999Z</time>
      </trkpt>
      <trkpt lat="43.99553" lon="2.98448">
        <ele>552.6</ele>
        <time>2026-04-30T14:07:02.999Z</time>
      </trkpt>
      <trkpt lat="43.99553" lon="2.98446">
        <ele>552.3</ele>
        <time>2026-04-30T14:07:03.999Z</time>
      </trkpt>
      <trkpt lat="43.99552" lon="2.98445">
        <ele>552</ele>
        <time>2026-04-30T14:07:04.999Z</time>
      </trkpt>
      <trkpt lat="43.99552" lon="2.98443">
        <ele>551.7</ele>
        <time>2026-04-30T14:07:05.999Z</time>
      </trkpt>
      <trkpt lat="43.99551" lon="2.98441">
        <ele>551.3</ele>
        <time>2026-04-30T14:07:06.999Z</time>
      </trkpt>
      <trkpt lat="43.99551" lon="2.98439">
        <ele>551.2</ele>
        <time>2026-04-30T14:07:07.999Z</time>
      </trkpt>
      <trkpt lat="43.99551" lon="2.98439">
        <ele>551.4</ele>
        <time>2026-04-30T14:07:08.999Z</time>
      </trkpt>
      <trkpt lat="43.99551" lon="2.98438">
        <ele>551.5</ele>
        <time>2026-04-30T14:07:09.999Z</time>
      </trkpt>
      <trkpt lat="43.99551" lon="2.98437">
        <ele>551.1</ele>
        <time>2026-04-30T14:07:10.999Z</time>
      </trkpt>
      <trkpt lat="43.99551" lon="2.98435">
        <ele>550.8</ele>
        <time>2026-04-30T14:07:11.999Z</time>
      </trkpt>
      <trkpt lat="43.9955" lon="2.98433">
        <ele>550.7</ele>
        <time>2026-04-30T14:07:12.999Z</time>
      </trkpt>
      <trkpt lat="43.9955" lon="2.98431">
        <ele>550.5</ele>
        <time>2026-04-30T14:07:13.999Z</time>
      </trkpt>
      <trkpt lat="43.9955" lon="2.9843">
        <ele>550.3</ele>
        <time>2026-04-30T14:07:14.999Z</time>
      </trkpt>
      <trkpt lat="43.9955" lon="2.98428">
        <ele>550.2</ele>
        <time>2026-04-30T14:07:15.999Z</time>
      </trkpt>
      <trkpt lat="43.9955" lon="2.98427">
        <ele>550.2</ele>
        <time>2026-04-30T14:07:16.999Z</time>
      </trkpt>
      <trkpt lat="43.9955" lon="2.98425">
        <ele>550.3</ele>
        <time>2026-04-30T14:07:17.999Z</time>
      </trkpt>
      <trkpt lat="43.9955" lon="2.98423">
        <ele>550.4</ele>
        <time>2026-04-30T14:07:18.999Z</time>
      </trkpt>
      <trkpt lat="43.99551" lon="2.98421">
        <ele>550.7</ele>
        <time>2026-04-30T14:07:19.999Z</time>
      </trkpt>
      <trkpt lat="43.99551" lon="2.9842">
        <ele>551.4</ele>
        <time>2026-04-30T14:07:20.999Z</time>
      </trkpt>
      <trkpt lat="43.99552" lon="2.98418">
        <ele>551.6</ele>
        <time>2026-04-30T14:07:21.999Z</time>
      </trkpt>
      <trkpt lat="43.99552" lon="2.98416">
        <ele>551.8</ele>
        <time>2026-04-30T14:07:22.999Z</time>
      </trkpt>
      <trkpt lat="43.99552" lon="2.98415">
        <ele>552.5</ele>
        <time>2026-04-30T14:07:23.999Z</time>
      </trkpt>
      <trkpt lat="43.99553" lon="2.98413">
        <ele>552.6</ele>
        <time>2026-04-30T14:07:24.999Z</time>
      </trkpt>
      <trkpt lat="43.99553" lon="2.98412">
        <ele>552.7</ele>
        <time>2026-04-30T14:07:25.999Z</time>
      </trkpt>
      <trkpt lat="43.99554" lon="2.98411">
        <ele>552.7</ele>
        <time>2026-04-30T14:07:26.999Z</time>
      </trkpt>
      <trkpt lat="43.99554" lon="2.9841">
        <ele>552.7</ele>
        <time>2026-04-30T14:07:27.999Z</time>
      </trkpt>
      <trkpt lat="43.99555" lon="2.98409">
        <ele>552.6</ele>
        <time>2026-04-30T14:07:28.999Z</time>
      </trkpt>
      <trkpt lat="43.99555" lon="2.98408">
        <ele>553.2</ele>
        <time>2026-04-30T14:07:29.999Z</time>
      </trkpt>
      <trkpt lat="43.99555" lon="2.98407">
        <ele>553</ele>
        <time>2026-04-30T14:07:30.999Z</time>
      </trkpt>
      <trkpt lat="43.99555" lon="2.98405">
        <ele>552.9</ele>
        <time>2026-04-30T14:07:31.999Z</time>
      </trkpt>
      <trkpt lat="43.99556" lon="2.98404">
        <ele>552.6</ele>
        <time>2026-04-30T14:07:32.999Z</time>
      </trkpt>
      <trkpt lat="43.99556" lon="2.98403">
        <ele>552.4</ele>
        <time>2026-04-30T14:07:33.999Z</time>
      </trkpt>
      <trkpt lat="43.99557" lon="2.98401">
        <ele>552.3</ele>
        <time>2026-04-30T14:07:34.999Z</time>
      </trkpt>
      <trkpt lat="43.99557" lon="2.984">
        <ele>552.3</ele>
        <time>2026-04-30T14:07:35.999Z</time>
      </trkpt>
      <trkpt lat="43.99558" lon="2.98399">
        <ele>552.3</ele>
        <time>2026-04-30T14:07:36.999Z</time>
      </trkpt>
      <trkpt lat="43.99559" lon="2.98398">
        <ele>552.1</ele>
        <time>2026-04-30T14:07:37.999Z</time>
      </trkpt>
      <trkpt lat="43.99559" lon="2.98397">
        <ele>551.8</ele>
        <time>2026-04-30T14:07:38.999Z</time>
      </trkpt>
      <trkpt lat="43.9956" lon="2.98396">
        <ele>552</ele>
        <time>2026-04-30T14:07:39.999Z</time>
      </trkpt>
      <trkpt lat="43.99561" lon="2.98394">
        <ele>552.1</ele>
        <time>2026-04-30T14:07:40.999Z</time>
      </trkpt>
      <trkpt lat="43.99562" lon="2.98392">
        <ele>551.8</ele>
        <time>2026-04-30T14:07:41.999Z</time>
      </trkpt>
      <trkpt lat="43.99562" lon="2.9839">
        <ele>552.1</ele>
        <time>2026-04-30T14:07:42.999Z</time>
      </trkpt>
      <trkpt lat="43.99562" lon="2.98388">
        <ele>552.6</ele>
        <time>2026-04-30T14:07:43.999Z</time>
      </trkpt>
      <trkpt lat="43.99563" lon="2.98387">
        <ele>553.1</ele>
        <time>2026-04-30T14:07:44.999Z</time>
      </trkpt>
      <trkpt lat="43.99564" lon="2.98387">
        <ele>553.3</ele>
        <time>2026-04-30T14:07:45.999Z</time>
      </trkpt>
      <trkpt lat="43.99564" lon="2.98387">
        <ele>553.5</ele>
        <time>2026-04-30T14:07:46.999Z</time>
      </trkpt>
      <trkpt lat="43.99564" lon="2.98385">
        <ele>553.8</ele>
        <time>2026-04-30T14:07:47.999Z</time>
      </trkpt>
      <trkpt lat="43.99564" lon="2.98383">
        <ele>553.9</ele>
        <time>2026-04-30T14:07:48.999Z</time>
      </trkpt>
      <trkpt lat="43.99564" lon="2.98381">
        <ele>554.2</ele>
        <time>2026-04-30T14:07:49.999Z</time>
      </trkpt>
      <trkpt lat="43.99564" lon="2.98378">
        <ele>554.3</ele>
        <time>2026-04-30T14:07:50.999Z</time>
      </trkpt>
      <trkpt lat="43.99564" lon="2.98376">
        <ele>554.7</ele>
        <time>2026-04-30T14:07:51.999Z</time>
      </trkpt>
      <trkpt lat="43.99563" lon="2.98374">
        <ele>554.8</ele>
        <time>2026-04-30T14:07:52.999Z</time>
      </trkpt>
      <trkpt lat="43.99563" lon="2.98372">
        <ele>554.7</ele>
        <time>2026-04-30T14:07:53.999Z</time>
      </trkpt>
      <trkpt lat="43.99563" lon="2.98371">
        <ele>554.5</ele>
        <time>2026-04-30T14:07:54.999Z</time>
      </trkpt>
      <trkpt lat="43.99562" lon="2.9837">
        <ele>554.2</ele>
        <time>2026-04-30T14:07:55.999Z</time>
      </trkpt>
      <trkpt lat="43.99562" lon="2.98368">
        <ele>554.1</ele>
        <time>2026-04-30T14:07:56.999Z</time>
      </trkpt>
      <trkpt lat="43.99561" lon="2.98367">
        <ele>553.9</ele>
        <time>2026-04-30T14:07:57.999Z</time>
      </trkpt>
      <trkpt lat="43.9956" lon="2.98365">
        <ele>554</ele>
        <time>2026-04-30T14:07:58.999Z</time>
      </trkpt>
      <trkpt lat="43.9956" lon="2.98363">
        <ele>553.8</ele>
        <time>2026-04-30T14:07:59.999Z</time>
      </trkpt>
      <trkpt lat="43.99559" lon="2.98362">
        <ele>553.9</ele>
        <time>2026-04-30T14:08:00.999Z</time>
      </trkpt>
      <trkpt lat="43.99558" lon="2.98361">
        <ele>554</ele>
        <time>2026-04-30T14:08:01.999Z</time>
      </trkpt>
      <trkpt lat="43.99557" lon="2.9836">
        <ele>554.1</ele>
        <time>2026-04-30T14:08:02.999Z</time>
      </trkpt>
      <trkpt lat="43.99555" lon="2.98359">
        <ele>553.9</ele>
        <time>2026-04-30T14:08:03.999Z</time>
      </trkpt>
      <trkpt lat="43.99554" lon="2.98357">
        <ele>553.7</ele>
        <time>2026-04-30T14:08:04.999Z</time>
      </trkpt>
      <trkpt lat="43.99554" lon="2.98356">
        <ele>554</ele>
        <time>2026-04-30T14:08:05.999Z</time>
      </trkpt>
      <trkpt lat="43.99554" lon="2.98355">
        <ele>554.1</ele>
        <time>2026-04-30T14:08:06.999Z</time>
      </trkpt>
      <trkpt lat="43.99554" lon="2.98355">
        <ele>554</ele>
        <time>2026-04-30T14:08:07.999Z</time>
      </trkpt>
      <trkpt lat="43.99554" lon="2.98354">
        <ele>553.8</ele>
        <time>2026-04-30T14:08:08.999Z</time>
      </trkpt>
      <trkpt lat="43.99554" lon="2.98352">
        <ele>554.1</ele>
        <time>2026-04-30T14:08:09.999Z</time>
      </trkpt>
      <trkpt lat="43.99553" lon="2.98351">
        <ele>554.3</ele>
        <time>2026-04-30T14:08:10.999Z</time>
      </trkpt>
      <trkpt lat="43.99552" lon="2.98349">
        <ele>554.6</ele>
        <time>2026-04-30T14:08:11.999Z</time>
      </trkpt>
      <trkpt lat="43.99552" lon="2.98348">
        <ele>555.1</ele>
        <time>2026-04-30T14:08:12.999Z</time>
      </trkpt>
      <trkpt lat="43.99551" lon="2.98347">
        <ele>555.4</ele>
        <time>2026-04-30T14:08:13.999Z</time>
      </trkpt>
      <trkpt lat="43.99551" lon="2.98346">
        <ele>555.7</ele>
        <time>2026-04-30T14:08:14.999Z</time>
      </trkpt>
      <trkpt lat="43.99551" lon="2.98345">
        <ele>556.4</ele>
        <time>2026-04-30T14:08:15.999Z</time>
      </trkpt>
      <trkpt lat="43.9955" lon="2.98344">
        <ele>556.8</ele>
        <time>2026-04-30T14:08:16.999Z</time>
      </trkpt>
      <trkpt lat="43.99549" lon="2.98343">
        <ele>557.7</ele>
        <time>2026-04-30T14:08:17.999Z</time>
      </trkpt>
      <trkpt lat="43.99547" lon="2.98343">
        <ele>558</ele>
        <time>2026-04-30T14:08:18.999Z</time>
      </trkpt>
      <trkpt lat="43.99546" lon="2.98343">
        <ele>558.2</ele>
        <time>2026-04-30T14:08:19.999Z</time>
      </trkpt>
      <trkpt lat="43.99545" lon="2.98342">
        <ele>558.5</ele>
        <time>2026-04-30T14:08:20.999Z</time>
      </trkpt>
      <trkpt lat="43.99544" lon="2.98341">
        <ele>559</ele>
        <time>2026-04-30T14:08:21.999Z</time>
      </trkpt>
      <trkpt lat="43.99544" lon="2.98341">
        <ele>559.1</ele>
        <time>2026-04-30T14:08:22.999Z</time>
      </trkpt>
      <trkpt lat="43.99544" lon="2.98342">
        <ele>559.8</ele>
        <time>2026-04-30T14:08:23.999Z</time>
      </trkpt>
      <trkpt lat="43.99543" lon="2.98343">
        <ele>560.3</ele>
        <time>2026-04-30T14:08:24.999Z</time>
      </trkpt>
      <trkpt lat="43.99543" lon="2.98343">
        <ele>561</ele>
        <time>2026-04-30T14:08:25.999Z</time>
      </trkpt>
      <trkpt lat="43.99544" lon="2.98343">
        <ele>561.2</ele>
        <time>2026-04-30T14:08:26.999Z</time>
      </trkpt>
      <trkpt lat="43.99545" lon="2.98343">
        <ele>561.1</ele>
        <time>2026-04-30T14:08:27.999Z</time>
      </trkpt>
      <trkpt lat="43.99546" lon="2.98343">
        <ele>560.7</ele>
        <time>2026-04-30T14:08:28.999Z</time>
      </trkpt>
      <trkpt lat="43.99545" lon="2.98343">
        <ele>560.9</ele>
        <time>2026-04-30T14:08:29.999Z</time>
      </trkpt>
      <trkpt lat="43.99545" lon="2.98342">
        <ele>560.5</ele>
        <time>2026-04-30T14:08:30.999Z</time>
      </trkpt>
      <trkpt lat="43.99544" lon="2.98342">
        <ele>560</ele>
        <time>2026-04-30T14:08:31.999Z</time>
      </trkpt>
      <trkpt lat="43.99543" lon="2.98341">
        <ele>559.4</ele>
        <time>2026-04-30T14:08:32.999Z</time>
      </trkpt>
      <trkpt lat="43.99543" lon="2.9834">
        <ele>558.7</ele>
        <time>2026-04-30T14:08:33.999Z</time>
      </trkpt>
      <trkpt lat="43.99542" lon="2.9834">
        <ele>557.9</ele>
        <time>2026-04-30T14:08:34.999Z</time>
      </trkpt>
      <trkpt lat="43.99541" lon="2.98339">
        <ele>557.8</ele>
        <time>2026-04-30T14:08:35.999Z</time>
      </trkpt>
      <trkpt lat="43.99541" lon="2.98338">
        <ele>557.3</ele>
        <time>2026-04-30T14:08:36.999Z</time>
      </trkpt>
      <trkpt lat="43.99541" lon="2.98337">
        <ele>557.2</ele>
        <time>2026-04-30T14:08:37.999Z</time>
      </trkpt>
      <trkpt lat="43.99541" lon="2.98336">
        <ele>557</ele>
        <time>2026-04-30T14:08:38.999Z</time>
      </trkpt>
      <trkpt lat="43.99541" lon="2.98336">
        <ele>557.2</ele>
        <time>2026-04-30T14:08:39.999Z</time>
      </trkpt>
      <trkpt lat="43.9954" lon="2.98336">
        <ele>556.5</ele>
        <time>2026-04-30T14:08:40.999Z</time>
      </trkpt>
      <trkpt lat="43.99541" lon="2.98336">
        <ele>556.6</ele>
        <time>2026-04-30T14:08:41.999Z</time>
      </trkpt>
      <trkpt lat="43.99541" lon="2.98336">
        <ele>556.5</ele>
        <time>2026-04-30T14:08:42.999Z</time>
      </trkpt>
      <trkpt lat="43.99542" lon="2.98335">
        <ele>556.4</ele>
        <time>2026-04-30T14:08:43.999Z</time>
      </trkpt>
      <trkpt lat="43.99543" lon="2.98336">
        <ele>557</ele>
        <time>2026-04-30T14:08:44.999Z</time>
      </trkpt>
      <trkpt lat="43.99544" lon="2.98335">
        <ele>557.2</ele>
        <time>2026-04-30T14:08:45.999Z</time>
      </trkpt>
      <trkpt lat="43.99544" lon="2.98335">
        <ele>557.7</ele>
        <time>2026-04-30T14:08:46.999Z</time>
      </trkpt>
      <trkpt lat="43.99544" lon="2.98335">
        <ele>557.5</ele>
        <time>2026-04-30T14:08:47.999Z</time>
      </trkpt>
      <trkpt lat="43.99544" lon="2.98335">
        <ele>557.4</ele>
        <time>2026-04-30T14:08:48.999Z</time>
      </trkpt>
      <trkpt lat="43.99544" lon="2.98335">
        <ele>557.4</ele>
        <time>2026-04-30T14:08:49.999Z</time>
      </trkpt>
      <trkpt lat="43.99543" lon="2.98336">
        <ele>557.3</ele>
        <time>2026-04-30T14:08:50.999Z</time>
      </trkpt>
      <trkpt lat="43.99543" lon="2.98335">
        <ele>557.2</ele>
        <time>2026-04-30T14:08:51.999Z</time>
      </trkpt>
      <trkpt lat="43.99543" lon="2.98334">
        <ele>556.8</ele>
        <time>2026-04-30T14:08:52.999Z</time>
      </trkpt>
      <trkpt lat="43.99543" lon="2.98334">
        <ele>556.6</ele>
        <time>2026-04-30T14:08:53.999Z</time>
      </trkpt>
      <trkpt lat="43.99543" lon="2.98332">
        <ele>556.8</ele>
        <time>2026-04-30T14:08:54.999Z</time>
      </trkpt>
      <trkpt lat="43.99543" lon="2.98332">
        <ele>556.6</ele>
        <time>2026-04-30T14:08:55.999Z</time>
      </trkpt>
      <trkpt lat="43.99542" lon="2.98331">
        <ele>556</ele>
        <time>2026-04-30T14:08:56.999Z</time>
      </trkpt>
      <trkpt lat="43.99542" lon="2.98331">
        <ele>556</ele>
        <time>2026-04-30T14:08:57.999Z</time>
      </trkpt>
      <trkpt lat="43.99542" lon="2.98331">
        <ele>556.2</ele>
        <time>2026-04-30T14:08:58.999Z</time>
      </trkpt>
      <trkpt lat="43.99543" lon="2.98331">
        <ele>556.4</ele>
        <time>2026-04-30T14:08:59.999Z</time>
      </trkpt>
      <trkpt lat="43.99543" lon="2.98331">
        <ele>556.6</ele>
        <time>2026-04-30T14:09:00.999Z</time>
      </trkpt>
      <trkpt lat="43.99543" lon="2.98331">
        <ele>556.6</ele>
        <time>2026-04-30T14:09:01.999Z</time>
      </trkpt>
      <trkpt lat="43.99543" lon="2.98331">
        <ele>556.9</ele>
        <time>2026-04-30T14:09:02.999Z</time>
      </trkpt>
      <trkpt lat="43.99543" lon="2.98331">
        <ele>557.1</ele>
        <time>2026-04-30T14:09:03.999Z</time>
      </trkpt>
      <trkpt lat="43.99543" lon="2.98331">
        <ele>557.1</ele>
        <time>2026-04-30T14:09:04.999Z</time>
      </trkpt>
      <trkpt lat="43.99543" lon="2.98331">
        <ele>557</ele>
        <time>2026-04-30T14:09:05.999Z</time>
      </trkpt>
      <trkpt lat="43.99543" lon="2.98331">
        <ele>557.1</ele>
        <time>2026-04-30T14:09:06.999Z</time>
      </trkpt>
      <trkpt lat="43.99543" lon="2.98331">
        <ele>557.1</ele>
        <time>2026-04-30T14:09:07.999Z</time>
      </trkpt>
      <trkpt lat="43.99543" lon="2.98331">
        <ele>557.2</ele>
        <time>2026-04-30T14:09:08.999Z</time>
      </trkpt>
      <trkpt lat="43.99543" lon="2.98331">
        <ele>557</ele>
        <time>2026-04-30T14:09:09.999Z</time>
      </trkpt>
      <trkpt lat="43.99543" lon="2.98331">
        <ele>556.9</ele>
        <time>2026-04-30T14:09:10.999Z</time>
      </trkpt>
      <trkpt lat="43.99543" lon="2.98331">
        <ele>556.9</ele>
        <time>2026-04-30T14:09:11.999Z</time>
      </trkpt>
      <trkpt lat="43.99543" lon="2.98332">
        <ele>557.2</ele>
        <time>2026-04-30T14:09:12.999Z</time>
      </trkpt>
      <trkpt lat="43.99543" lon="2.98332">
        <ele>557.5</ele>
        <time>2026-04-30T14:09:13.999Z</time>
      </trkpt>
      <trkpt lat="43.99543" lon="2.98332">
        <ele>557.7</ele>
        <time>2026-04-30T14:09:14.999Z</time>
      </trkpt>
      <trkpt lat="43.99543" lon="2.98332">
        <ele>557.6</ele>
        <time>2026-04-30T14:09:15.999Z</time>
      </trkpt>
      <trkpt lat="43.99543" lon="2.98332">
        <ele>557.4</ele>
        <time>2026-04-30T14:09:16.999Z</time>
      </trkpt>
      <trkpt lat="43.99543" lon="2.98332">
        <ele>557.2</ele>
        <time>2026-04-30T14:09:17.999Z</time>
      </trkpt>
      <trkpt lat="43.99543" lon="2.98333">
        <ele>557</ele>
        <time>2026-04-30T14:09:18.999Z</time>
      </trkpt>
      <trkpt lat="43.99543" lon="2.98333">
        <ele>556.7</ele>
        <time>2026-04-30T14:09:19.999Z</time>
      </trkpt>
      <trkpt lat="43.99543" lon="2.98333">
        <ele>556.6</ele>
        <time>2026-04-30T14:09:20.999Z</time>
      </trkpt>
      <trkpt lat="43.99543" lon="2.98333">
        <ele>556.3</ele>
        <time>2026-04-30T14:09:21.999Z</time>
      </trkpt>
      <trkpt lat="43.99543" lon="2.98333">
        <ele>556.3</ele>
        <time>2026-04-30T14:09:22.999Z</time>
      </trkpt>
      <trkpt lat="43.99543" lon="2.98333">
        <ele>556.4</ele>
        <time>2026-04-30T14:09:23.999Z</time>
      </trkpt>
      <trkpt lat="43.99543" lon="2.98333">
        <ele>556.1</ele>
        <time>2026-04-30T14:09:24.999Z</time>
      </trkpt>
      <trkpt lat="43.99543" lon="2.98333">
        <ele>556</ele>
        <time>2026-04-30T14:09:25.999Z</time>
      </trkpt>
      <trkpt lat="43.99543" lon="2.98333">
        <ele>555.9</ele>
        <time>2026-04-30T14:09:26.999Z</time>
      </trkpt>
      <trkpt lat="43.99544" lon="2.98333">
        <ele>555.8</ele>
        <time>2026-04-30T14:09:27.999Z</time>
      </trkpt>
      <trkpt lat="43.99544" lon="2.98333">
        <ele>556.1</ele>
        <time>2026-04-30T14:09:29.000Z</time>
      </trkpt>
      <trkpt lat="43.99544" lon="2.98333">
        <ele>556.2</ele>
        <time>2026-04-30T14:09:30.000Z</time>
      </trkpt>
      <trkpt lat="43.99543" lon="2.98333">
        <ele>556.2</ele>
        <time>2026-04-30T14:09:31.000Z</time>
      </trkpt>
      <trkpt lat="43.99543" lon="2.98333">
        <ele>556.4</ele>
        <time>2026-04-30T14:09:32.000Z</time>
      </trkpt>
      <trkpt lat="43.99543" lon="2.98333">
        <ele>556.8</ele>
        <time>2026-04-30T14:09:33.000Z</time>
      </trkpt>
      <trkpt lat="43.99543" lon="2.98333">
        <ele>556.8</ele>
        <time>2026-04-30T14:09:34.000Z</time>
      </trkpt>
      <trkpt lat="43.99543" lon="2.98333">
        <ele>556.6</ele>
        <time>2026-04-30T14:09:35.000Z</time>
      </trkpt>
      <trkpt lat="43.99543" lon="2.98333">
        <ele>556.7</ele>
        <time>2026-04-30T14:09:36.000Z</time>
      </trkpt>
      <trkpt lat="43.99543" lon="2.98333">
        <ele>556.7</ele>
        <time>2026-04-30T14:09:37.000Z</time>
      </trkpt>
      <trkpt lat="43.99543" lon="2.98333">
        <ele>556.7</ele>
        <time>2026-04-30T14:09:38.000Z</time>
      </trkpt>
      <trkpt lat="43.99543" lon="2.98333">
        <ele>556.7</ele>
        <time>2026-04-30T14:09:39.000Z</time>
      </trkpt>
      <trkpt lat="43.99543" lon="2.98333">
        <ele>556.8</ele>
        <time>2026-04-30T14:09:40.000Z</time>
      </trkpt>
      <trkpt lat="43.99542" lon="2.98333">
        <ele>556.8</ele>
        <time>2026-04-30T14:09:41.000Z</time>
      </trkpt>
      <trkpt lat="43.99542" lon="2.98331">
        <ele>556.7</ele>
        <time>2026-04-30T14:09:42.000Z</time>
      </trkpt>
      <trkpt lat="43.99541" lon="2.9833">
        <ele>556.6</ele>
        <time>2026-04-30T14:09:43.000Z</time>
      </trkpt>
      <trkpt lat="43.9954" lon="2.9833">
        <ele>556.7</ele>
        <time>2026-04-30T14:09:44.000Z</time>
      </trkpt>
      <trkpt lat="43.99539" lon="2.98329">
        <ele>557</ele>
        <time>2026-04-30T14:09:45.000Z</time>
      </trkpt>
      <trkpt lat="43.99538" lon="2.98328">
        <ele>557.3</ele>
        <time>2026-04-30T14:09:46.000Z</time>
      </trkpt>
      <trkpt lat="43.99537" lon="2.98328">
        <ele>557.5</ele>
        <time>2026-04-30T14:09:47.000Z</time>
      </trkpt>
      <trkpt lat="43.99537" lon="2.98328">
        <ele>557.3</ele>
        <time>2026-04-30T14:09:48.000Z</time>
      </trkpt>
      <trkpt lat="43.99537" lon="2.98328">
        <ele>557.4</ele>
        <time>2026-04-30T14:09:49.000Z</time>
      </trkpt>
      <trkpt lat="43.99537" lon="2.98328">
        <ele>557.4</ele>
        <time>2026-04-30T14:09:50.000Z</time>
      </trkpt>
      <trkpt lat="43.99536" lon="2.98327">
        <ele>557.5</ele>
        <time>2026-04-30T14:09:51.000Z</time>
      </trkpt>
      <trkpt lat="43.99535" lon="2.98326">
        <ele>557.6</ele>
        <time>2026-04-30T14:09:52.000Z</time>
      </trkpt>
      <trkpt lat="43.99534" lon="2.98324">
        <ele>557.6</ele>
        <time>2026-04-30T14:09:53.000Z</time>
      </trkpt>
      <trkpt lat="43.99534" lon="2.98323">
        <ele>557.6</ele>
        <time>2026-04-30T14:09:54.000Z</time>
      </trkpt>
      <trkpt lat="43.99533" lon="2.98321">
        <ele>557.7</ele>
        <time>2026-04-30T14:09:55.000Z</time>
      </trkpt>
      <trkpt lat="43.99532" lon="2.9832">
        <ele>557.7</ele>
        <time>2026-04-30T14:09:56.000Z</time>
      </trkpt>
      <trkpt lat="43.99531" lon="2.9832">
        <ele>557.7</ele>
        <time>2026-04-30T14:09:57.000Z</time>
      </trkpt>
      <trkpt lat="43.9953" lon="2.9832">
        <ele>557.8</ele>
        <time>2026-04-30T14:09:58.000Z</time>
      </trkpt>
      <trkpt lat="43.9953" lon="2.98319">
        <ele>557.8</ele>
        <time>2026-04-30T14:09:59.000Z</time>
      </trkpt>
      <trkpt lat="43.99528" lon="2.98318">
        <ele>557.8</ele>
        <time>2026-04-30T14:10:00.000Z</time>
      </trkpt>
      <trkpt lat="43.99528" lon="2.98318">
        <ele>557.8</ele>
        <time>2026-04-30T14:10:01.000Z</time>
      </trkpt>
      <trkpt lat="43.99528" lon="2.98316">
        <ele>557.8</ele>
        <time>2026-04-30T14:10:02.000Z</time>
      </trkpt>
      <trkpt lat="43.99527" lon="2.98315">
        <ele>557.9</ele>
        <time>2026-04-30T14:10:03.000Z</time>
      </trkpt>
      <trkpt lat="43.99527" lon="2.98314">
        <ele>557.8</ele>
        <time>2026-04-30T14:10:04.000Z</time>
      </trkpt>
      <trkpt lat="43.99526" lon="2.98314">
        <ele>558.2</ele>
        <time>2026-04-30T14:10:05.000Z</time>
      </trkpt>
      <trkpt lat="43.99525" lon="2.98314">
        <ele>558.5</ele>
        <time>2026-04-30T14:10:06.000Z</time>
      </trkpt>
      <trkpt lat="43.99525" lon="2.98313">
        <ele>559</ele>
        <time>2026-04-30T14:10:07.000Z</time>
      </trkpt>
      <trkpt lat="43.99524" lon="2.98313">
        <ele>559.2</ele>
        <time>2026-04-30T14:10:08.000Z</time>
      </trkpt>
      <trkpt lat="43.99523" lon="2.98313">
        <ele>559.6</ele>
        <time>2026-04-30T14:10:09.000Z</time>
      </trkpt>
      <trkpt lat="43.99522" lon="2.98313">
        <ele>559.9</ele>
        <time>2026-04-30T14:10:10.000Z</time>
      </trkpt>
      <trkpt lat="43.99521" lon="2.98313">
        <ele>560.3</ele>
        <time>2026-04-30T14:10:11.000Z</time>
      </trkpt>
      <trkpt lat="43.9952" lon="2.98313">
        <ele>560.5</ele>
        <time>2026-04-30T14:10:12.000Z</time>
      </trkpt>
      <trkpt lat="43.99519" lon="2.98312">
        <ele>560.4</ele>
        <time>2026-04-30T14:10:13.000Z</time>
      </trkpt>
      <trkpt lat="43.99518" lon="2.98311">
        <ele>560.3</ele>
        <time>2026-04-30T14:10:14.000Z</time>
      </trkpt>
      <trkpt lat="43.99517" lon="2.9831">
        <ele>560.4</ele>
        <time>2026-04-30T14:10:15.000Z</time>
      </trkpt>
      <trkpt lat="43.99517" lon="2.98309">
        <ele>560.3</ele>
        <time>2026-04-30T14:10:16.000Z</time>
      </trkpt>
      <trkpt lat="43.99516" lon="2.98308">
        <ele>560.3</ele>
        <time>2026-04-30T14:10:17.000Z</time>
      </trkpt>
      <trkpt lat="43.99515" lon="2.98308">
        <ele>560.4</ele>
        <time>2026-04-30T14:10:18.000Z</time>
      </trkpt>
      <trkpt lat="43.99515" lon="2.98308">
        <ele>560.7</ele>
        <time>2026-04-30T14:10:19.000Z</time>
      </trkpt>
      <trkpt lat="43.99514" lon="2.98308">
        <ele>560.9</ele>
        <time>2026-04-30T14:10:20.000Z</time>
      </trkpt>
      <trkpt lat="43.99514" lon="2.98307">
        <ele>560.9</ele>
        <time>2026-04-30T14:10:21.000Z</time>
      </trkpt>
      <trkpt lat="43.99513" lon="2.98307">
        <ele>561</ele>
        <time>2026-04-30T14:10:22.000Z</time>
      </trkpt>
      <trkpt lat="43.99513" lon="2.98307">
        <ele>560.8</ele>
        <time>2026-04-30T14:10:23.000Z</time>
      </trkpt>
      <trkpt lat="43.99513" lon="2.98307">
        <ele>560.7</ele>
        <time>2026-04-30T14:10:24.000Z</time>
      </trkpt>
      <trkpt lat="43.99512" lon="2.98306">
        <ele>560.3</ele>
        <time>2026-04-30T14:10:25.000Z</time>
      </trkpt>
      <trkpt lat="43.99511" lon="2.98305">
        <ele>560.3</ele>
        <time>2026-04-30T14:10:26.000Z</time>
      </trkpt>
      <trkpt lat="43.9951" lon="2.98305">
        <ele>560.6</ele>
        <time>2026-04-30T14:10:27.000Z</time>
      </trkpt>
      <trkpt lat="43.99509" lon="2.98304">
        <ele>561</ele>
        <time>2026-04-30T14:10:28.000Z</time>
      </trkpt>
      <trkpt lat="43.99507" lon="2.98303">
        <ele>561.3</ele>
        <time>2026-04-30T14:10:29.000Z</time>
      </trkpt>
      <trkpt lat="43.99507" lon="2.98303">
        <ele>561.7</ele>
        <time>2026-04-30T14:10:30.000Z</time>
      </trkpt>
      <trkpt lat="43.99506" lon="2.98303">
        <ele>561.7</ele>
        <time>2026-04-30T14:10:31.000Z</time>
      </trkpt>
      <trkpt lat="43.99505" lon="2.98303">
        <ele>561.7</ele>
        <time>2026-04-30T14:10:32.000Z</time>
      </trkpt>
      <trkpt lat="43.99504" lon="2.98303">
        <ele>561.9</ele>
        <time>2026-04-30T14:10:33.000Z</time>
      </trkpt>
      <trkpt lat="43.99503" lon="2.98303">
        <ele>562.1</ele>
        <time>2026-04-30T14:10:34.000Z</time>
      </trkpt>
      <trkpt lat="43.99502" lon="2.98302">
        <ele>562</ele>
        <time>2026-04-30T14:10:35.000Z</time>
      </trkpt>
      <trkpt lat="43.995" lon="2.98302">
        <ele>561.9</ele>
        <time>2026-04-30T14:10:36.000Z</time>
      </trkpt>
      <trkpt lat="43.995" lon="2.98303">
        <ele>561.7</ele>
        <time>2026-04-30T14:10:37.000Z</time>
      </trkpt>
      <trkpt lat="43.99498" lon="2.98302">
        <ele>562</ele>
        <time>2026-04-30T14:10:38.000Z</time>
      </trkpt>
      <trkpt lat="43.99497" lon="2.98302">
        <ele>562.3</ele>
        <time>2026-04-30T14:10:39.000Z</time>
      </trkpt>
      <trkpt lat="43.99496" lon="2.98301">
        <ele>562.8</ele>
        <time>2026-04-30T14:10:40.000Z</time>
      </trkpt>
      <trkpt lat="43.99495" lon="2.98299">
        <ele>563.1</ele>
        <time>2026-04-30T14:10:41.000Z</time>
      </trkpt>
      <trkpt lat="43.99495" lon="2.98298">
        <ele>563</ele>
        <time>2026-04-30T14:10:42.000Z</time>
      </trkpt>
      <trkpt lat="43.99494" lon="2.98297">
        <ele>562.9</ele>
        <time>2026-04-30T14:10:43.000Z</time>
      </trkpt>
      <trkpt lat="43.99493" lon="2.98296">
        <ele>563.2</ele>
        <time>2026-04-30T14:10:44.000Z</time>
      </trkpt>
      <trkpt lat="43.99493" lon="2.98295">
        <ele>563.4</ele>
        <time>2026-04-30T14:10:45.000Z</time>
      </trkpt>
      <trkpt lat="43.99492" lon="2.98295">
        <ele>563.6</ele>
        <time>2026-04-30T14:10:46.000Z</time>
      </trkpt>
      <trkpt lat="43.99491" lon="2.98294">
        <ele>563.6</ele>
        <time>2026-04-30T14:10:47.000Z</time>
      </trkpt>
      <trkpt lat="43.9949" lon="2.98294">
        <ele>563.8</ele>
        <time>2026-04-30T14:10:48.000Z</time>
      </trkpt>
      <trkpt lat="43.99489" lon="2.98293">
        <ele>563.9</ele>
        <time>2026-04-30T14:10:49.000Z</time>
      </trkpt>
      <trkpt lat="43.99488" lon="2.98293">
        <ele>564.2</ele>
        <time>2026-04-30T14:10:50.000Z</time>
      </trkpt>
      <trkpt lat="43.99487" lon="2.98293">
        <ele>564.2</ele>
        <time>2026-04-30T14:10:51.000Z</time>
      </trkpt>
      <trkpt lat="43.99486" lon="2.98293">
        <ele>564.5</ele>
        <time>2026-04-30T14:10:52.000Z</time>
      </trkpt>
      <trkpt lat="43.99484" lon="2.98293">
        <ele>564.7</ele>
        <time>2026-04-30T14:10:53.000Z</time>
      </trkpt>
      <trkpt lat="43.99483" lon="2.98293">
        <ele>564.6</ele>
        <time>2026-04-30T14:10:54.000Z</time>
      </trkpt>
      <trkpt lat="43.99482" lon="2.98292">
        <ele>564.8</ele>
        <time>2026-04-30T14:10:55.000Z</time>
      </trkpt>
      <trkpt lat="43.99481" lon="2.98292">
        <ele>565.2</ele>
        <time>2026-04-30T14:10:56.000Z</time>
      </trkpt>
      <trkpt lat="43.9948" lon="2.98292">
        <ele>565.5</ele>
        <time>2026-04-30T14:10:57.000Z</time>
      </trkpt>
      <trkpt lat="43.99479" lon="2.98292">
        <ele>565.6</ele>
        <time>2026-04-30T14:10:58.000Z</time>
      </trkpt>
      <trkpt lat="43.99478" lon="2.98291">
        <ele>565.7</ele>
        <time>2026-04-30T14:10:59.000Z</time>
      </trkpt>
      <trkpt lat="43.99478" lon="2.98291">
        <ele>565.8</ele>
        <time>2026-04-30T14:11:00.000Z</time>
      </trkpt>
      <trkpt lat="43.99477" lon="2.9829">
        <ele>565.6</ele>
        <time>2026-04-30T14:11:01.000Z</time>
      </trkpt>
      <trkpt lat="43.99477" lon="2.98289">
        <ele>565.9</ele>
        <time>2026-04-30T14:11:02.000Z</time>
      </trkpt>
      <trkpt lat="43.99476" lon="2.98288">
        <ele>566.3</ele>
        <time>2026-04-30T14:11:03.000Z</time>
      </trkpt>
      <trkpt lat="43.99476" lon="2.98287">
        <ele>566.2</ele>
        <time>2026-04-30T14:11:04.000Z</time>
      </trkpt>
      <trkpt lat="43.99475" lon="2.98286">
        <ele>566.3</ele>
        <time>2026-04-30T14:11:05.000Z</time>
      </trkpt>
      <trkpt lat="43.99474" lon="2.98285">
        <ele>566.4</ele>
        <time>2026-04-30T14:11:06.000Z</time>
      </trkpt>
      <trkpt lat="43.99473" lon="2.98283">
        <ele>566.6</ele>
        <time>2026-04-30T14:11:07.000Z</time>
      </trkpt>
      <trkpt lat="43.99472" lon="2.98281">
        <ele>566.9</ele>
        <time>2026-04-30T14:11:08.000Z</time>
      </trkpt>
      <trkpt lat="43.99471" lon="2.98279">
        <ele>567</ele>
        <time>2026-04-30T14:11:09.000Z</time>
      </trkpt>
      <trkpt lat="43.9947" lon="2.98278">
        <ele>567.2</ele>
        <time>2026-04-30T14:11:10.000Z</time>
      </trkpt>
      <trkpt lat="43.9947" lon="2.98276">
        <ele>567.3</ele>
        <time>2026-04-30T14:11:11.000Z</time>
      </trkpt>
      <trkpt lat="43.99469" lon="2.98275">
        <ele>567.4</ele>
        <time>2026-04-30T14:11:12.000Z</time>
      </trkpt>
      <trkpt lat="43.99469" lon="2.98274">
        <ele>567.4</ele>
        <time>2026-04-30T14:11:13.000Z</time>
      </trkpt>
      <trkpt lat="43.99468" lon="2.98273">
        <ele>567.3</ele>
        <time>2026-04-30T14:11:14.000Z</time>
      </trkpt>
      <trkpt lat="43.99467" lon="2.98272">
        <ele>567.4</ele>
        <time>2026-04-30T14:11:15.000Z</time>
      </trkpt>
      <trkpt lat="43.99466" lon="2.9827">
        <ele>567.4</ele>
        <time>2026-04-30T14:11:16.000Z</time>
      </trkpt>
      <trkpt lat="43.99466" lon="2.98269">
        <ele>567.7</ele>
        <time>2026-04-30T14:11:17.000Z</time>
      </trkpt>
      <trkpt lat="43.99466" lon="2.98267">
        <ele>567.7</ele>
        <time>2026-04-30T14:11:18.000Z</time>
      </trkpt>
      <trkpt lat="43.99465" lon="2.98266">
        <ele>567.9</ele>
        <time>2026-04-30T14:11:19.000Z</time>
      </trkpt>
      <trkpt lat="43.99465" lon="2.98265">
        <ele>567.9</ele>
        <time>2026-04-30T14:11:20.000Z</time>
      </trkpt>
      <trkpt lat="43.99466" lon="2.98263">
        <ele>568.1</ele>
        <time>2026-04-30T14:11:21.000Z</time>
      </trkpt>
      <trkpt lat="43.99466" lon="2.98262">
        <ele>568</ele>
        <time>2026-04-30T14:11:22.000Z</time>
      </trkpt>
      <trkpt lat="43.99465" lon="2.9826">
        <ele>568.2</ele>
        <time>2026-04-30T14:11:23.000Z</time>
      </trkpt>
      <trkpt lat="43.99465" lon="2.98259">
        <ele>568</ele>
        <time>2026-04-30T14:11:24.000Z</time>
      </trkpt>
      <trkpt lat="43.99465" lon="2.98257">
        <ele>567.9</ele>
        <time>2026-04-30T14:11:25.000Z</time>
      </trkpt>
      <trkpt lat="43.99465" lon="2.98256">
        <ele>567.9</ele>
        <time>2026-04-30T14:11:26.000Z</time>
      </trkpt>
      <trkpt lat="43.99464" lon="2.98254">
        <ele>567.8</ele>
        <time>2026-04-30T14:11:27.000Z</time>
      </trkpt>
      <trkpt lat="43.99463" lon="2.98253">
        <ele>567.6</ele>
        <time>2026-04-30T14:11:28.000Z</time>
      </trkpt>
      <trkpt lat="43.99464" lon="2.98252">
        <ele>567.5</ele>
        <time>2026-04-30T14:11:29.000Z</time>
      </trkpt>
      <trkpt lat="43.99464" lon="2.9825">
        <ele>567.8</ele>
        <time>2026-04-30T14:11:30.000Z</time>
      </trkpt>
      <trkpt lat="43.99464" lon="2.98248">
        <ele>568.1</ele>
        <time>2026-04-30T14:11:32.000Z</time>
      </trkpt>
      <trkpt lat="43.99463" lon="2.98247">
        <ele>568.5</ele>
        <time>2026-04-30T14:11:33.000Z</time>
      </trkpt>
      <trkpt lat="43.99462" lon="2.98246">
        <ele>568.4</ele>
        <time>2026-04-30T14:11:34.000Z</time>
      </trkpt>
      <trkpt lat="43.99461" lon="2.98246">
        <ele>568.5</ele>
        <time>2026-04-30T14:11:35.000Z</time>
      </trkpt>
      <trkpt lat="43.99461" lon="2.98244">
        <ele>568.2</ele>
        <time>2026-04-30T14:11:36.000Z</time>
      </trkpt>
      <trkpt lat="43.99459" lon="2.98244">
        <ele>568.1</ele>
        <time>2026-04-30T14:11:37.000Z</time>
      </trkpt>
      <trkpt lat="43.99457" lon="2.98245">
        <ele>568</ele>
        <time>2026-04-30T14:11:38.000Z</time>
      </trkpt>
      <trkpt lat="43.99457" lon="2.98246">
        <ele>568</ele>
        <time>2026-04-30T14:11:39.000Z</time>
      </trkpt>
      <trkpt lat="43.99457" lon="2.98247">
        <ele>567.7</ele>
        <time>2026-04-30T14:11:40.000Z</time>
      </trkpt>
      <trkpt lat="43.99455" lon="2.98247">
        <ele>567.7</ele>
        <time>2026-04-30T14:11:41.000Z</time>
      </trkpt>
      <trkpt lat="43.99455" lon="2.98248">
        <ele>567.8</ele>
        <time>2026-04-30T14:11:42.000Z</time>
      </trkpt>
      <trkpt lat="43.99454" lon="2.98248">
        <ele>568.1</ele>
        <time>2026-04-30T14:11:43.000Z</time>
      </trkpt>
      <trkpt lat="43.99453" lon="2.98248">
        <ele>567.8</ele>
        <time>2026-04-30T14:11:44.000Z</time>
      </trkpt>
      <trkpt lat="43.99452" lon="2.98248">
        <ele>567.2</ele>
        <time>2026-04-30T14:11:45.000Z</time>
      </trkpt>
      <trkpt lat="43.99451" lon="2.98248">
        <ele>567</ele>
        <time>2026-04-30T14:11:46.000Z</time>
      </trkpt>
      <trkpt lat="43.9945" lon="2.98247">
        <ele>566.9</ele>
        <time>2026-04-30T14:11:47.000Z</time>
      </trkpt>
      <trkpt lat="43.99449" lon="2.98246">
        <ele>567</ele>
        <time>2026-04-30T14:11:48.000Z</time>
      </trkpt>
      <trkpt lat="43.99448" lon="2.98245">
        <ele>566.8</ele>
        <time>2026-04-30T14:11:49.000Z</time>
      </trkpt>
      <trkpt lat="43.99446" lon="2.98244">
        <ele>566.4</ele>
        <time>2026-04-30T14:11:50.000Z</time>
      </trkpt>
      <trkpt lat="43.99445" lon="2.98244">
        <ele>566</ele>
        <time>2026-04-30T14:11:51.000Z</time>
      </trkpt>
      <trkpt lat="43.99443" lon="2.98244">
        <ele>566.1</ele>
        <time>2026-04-30T14:11:52.000Z</time>
      </trkpt>
      <trkpt lat="43.99442" lon="2.98244">
        <ele>566.3</ele>
        <time>2026-04-30T14:11:53.000Z</time>
      </trkpt>
      <trkpt lat="43.99442" lon="2.98243">
        <ele>566.8</ele>
        <time>2026-04-30T14:11:54.000Z</time>
      </trkpt>
      <trkpt lat="43.99442" lon="2.98241">
        <ele>567.6</ele>
        <time>2026-04-30T14:11:55.000Z</time>
      </trkpt>
      <trkpt lat="43.99441" lon="2.98239">
        <ele>567.8</ele>
        <time>2026-04-30T14:11:56.000Z</time>
      </trkpt>
      <trkpt lat="43.99441" lon="2.98239">
        <ele>568.2</ele>
        <time>2026-04-30T14:11:57.000Z</time>
      </trkpt>
      <trkpt lat="43.9944" lon="2.98237">
        <ele>568.4</ele>
        <time>2026-04-30T14:11:58.000Z</time>
      </trkpt>
      <trkpt lat="43.99439" lon="2.98236">
        <ele>568.8</ele>
        <time>2026-04-30T14:11:59.000Z</time>
      </trkpt>
      <trkpt lat="43.99438" lon="2.98235">
        <ele>569.3</ele>
        <time>2026-04-30T14:12:00.000Z</time>
      </trkpt>
      <trkpt lat="43.99438" lon="2.98235">
        <ele>569.8</ele>
        <time>2026-04-30T14:12:01.000Z</time>
      </trkpt>
      <trkpt lat="43.99437" lon="2.98234">
        <ele>570.2</ele>
        <time>2026-04-30T14:12:02.000Z</time>
      </trkpt>
      <trkpt lat="43.99436" lon="2.98233">
        <ele>570.7</ele>
        <time>2026-04-30T14:12:03.000Z</time>
      </trkpt>
      <trkpt lat="43.99436" lon="2.98233">
        <ele>571.2</ele>
        <time>2026-04-30T14:12:04.000Z</time>
      </trkpt>
      <trkpt lat="43.99435" lon="2.98231">
        <ele>571.7</ele>
        <time>2026-04-30T14:12:05.000Z</time>
      </trkpt>
      <trkpt lat="43.99435" lon="2.9823">
        <ele>572.1</ele>
        <time>2026-04-30T14:12:06.000Z</time>
      </trkpt>
      <trkpt lat="43.99434" lon="2.9823">
        <ele>571.7</ele>
        <time>2026-04-30T14:12:07.000Z</time>
      </trkpt>
      <trkpt lat="43.99434" lon="2.98228">
        <ele>571.8</ele>
        <time>2026-04-30T14:12:08.000Z</time>
      </trkpt>
      <trkpt lat="43.99433" lon="2.98227">
        <ele>571.8</ele>
        <time>2026-04-30T14:12:09.000Z</time>
      </trkpt>
      <trkpt lat="43.99431" lon="2.98225">
        <ele>572</ele>
        <time>2026-04-30T14:12:10.000Z</time>
      </trkpt>
      <trkpt lat="43.9943" lon="2.98224">
        <ele>572.3</ele>
        <time>2026-04-30T14:12:11.000Z</time>
      </trkpt>
      <trkpt lat="43.99429" lon="2.98223">
        <ele>572.5</ele>
        <time>2026-04-30T14:12:12.000Z</time>
      </trkpt>
      <trkpt lat="43.99428" lon="2.98222">
        <ele>572.6</ele>
        <time>2026-04-30T14:12:13.000Z</time>
      </trkpt>
      <trkpt lat="43.99427" lon="2.98221">
        <ele>572.7</ele>
        <time>2026-04-30T14:12:14.000Z</time>
      </trkpt>
      <trkpt lat="43.99426" lon="2.9822">
        <ele>572.5</ele>
        <time>2026-04-30T14:12:15.000Z</time>
      </trkpt>
      <trkpt lat="43.99426" lon="2.98219">
        <ele>572.4</ele>
        <time>2026-04-30T14:12:16.000Z</time>
      </trkpt>
      <trkpt lat="43.99425" lon="2.98218">
        <ele>572.1</ele>
        <time>2026-04-30T14:12:17.000Z</time>
      </trkpt>
      <trkpt lat="43.99424" lon="2.98218">
        <ele>572.3</ele>
        <time>2026-04-30T14:12:18.000Z</time>
      </trkpt>
      <trkpt lat="43.99423" lon="2.98217">
        <ele>572.2</ele>
        <time>2026-04-30T14:12:19.000Z</time>
      </trkpt>
      <trkpt lat="43.99422" lon="2.98216">
        <ele>572.4</ele>
        <time>2026-04-30T14:12:20.000Z</time>
      </trkpt>
      <trkpt lat="43.99421" lon="2.98215">
        <ele>572.7</ele>
        <time>2026-04-30T14:12:21.000Z</time>
      </trkpt>
      <trkpt lat="43.99419" lon="2.98213">
        <ele>573</ele>
        <time>2026-04-30T14:12:22.000Z</time>
      </trkpt>
      <trkpt lat="43.99418" lon="2.98212">
        <ele>573.2</ele>
        <time>2026-04-30T14:12:23.000Z</time>
      </trkpt>
      <trkpt lat="43.99418" lon="2.98211">
        <ele>573.2</ele>
        <time>2026-04-30T14:12:24.000Z</time>
      </trkpt>
      <trkpt lat="43.99417" lon="2.9821">
        <ele>573.3</ele>
        <time>2026-04-30T14:12:25.000Z</time>
      </trkpt>
      <trkpt lat="43.99417" lon="2.98209">
        <ele>573.7</ele>
        <time>2026-04-30T14:12:26.000Z</time>
      </trkpt>
      <trkpt lat="43.99416" lon="2.98208">
        <ele>574</ele>
        <time>2026-04-30T14:12:27.000Z</time>
      </trkpt>
      <trkpt lat="43.99415" lon="2.98207">
        <ele>574.2</ele>
        <time>2026-04-30T14:12:28.000Z</time>
      </trkpt>
      <trkpt lat="43.99414" lon="2.98205">
        <ele>574.7</ele>
        <time>2026-04-30T14:12:29.000Z</time>
      </trkpt>
      <trkpt lat="43.99414" lon="2.98204">
        <ele>575.2</ele>
        <time>2026-04-30T14:12:30.000Z</time>
      </trkpt>
      <trkpt lat="43.99413" lon="2.98203">
        <ele>575.7</ele>
        <time>2026-04-30T14:12:31.000Z</time>
      </trkpt>
      <trkpt lat="43.99413" lon="2.98201">
        <ele>576.3</ele>
        <time>2026-04-30T14:12:32.000Z</time>
      </trkpt>
      <trkpt lat="43.99412" lon="2.982">
        <ele>576.5</ele>
        <time>2026-04-30T14:12:33.000Z</time>
      </trkpt>
      <trkpt lat="43.99412" lon="2.98199">
        <ele>576.5</ele>
        <time>2026-04-30T14:12:34.000Z</time>
      </trkpt>
      <trkpt lat="43.99411" lon="2.98198">
        <ele>576.7</ele>
        <time>2026-04-30T14:12:35.000Z</time>
      </trkpt>
      <trkpt lat="43.99411" lon="2.98197">
        <ele>576.8</ele>
        <time>2026-04-30T14:12:36.000Z</time>
      </trkpt>
      <trkpt lat="43.99412" lon="2.98195">
        <ele>577.3</ele>
        <time>2026-04-30T14:12:37.000Z</time>
      </trkpt>
      <trkpt lat="43.99412" lon="2.98194">
        <ele>577.7</ele>
        <time>2026-04-30T14:12:38.000Z</time>
      </trkpt>
      <trkpt lat="43.9941" lon="2.98193">
        <ele>577.4</ele>
        <time>2026-04-30T14:12:39.000Z</time>
      </trkpt>
      <trkpt lat="43.9941" lon="2.98192">
        <ele>577.5</ele>
        <time>2026-04-30T14:12:40.000Z</time>
      </trkpt>
      <trkpt lat="43.99409" lon="2.98191">
        <ele>577.5</ele>
        <time>2026-04-30T14:12:41.000Z</time>
      </trkpt>
      <trkpt lat="43.99408" lon="2.9819">
        <ele>577.6</ele>
        <time>2026-04-30T14:12:42.000Z</time>
      </trkpt>
      <trkpt lat="43.99407" lon="2.9819">
        <ele>577.7</ele>
        <time>2026-04-30T14:12:43.000Z</time>
      </trkpt>
      <trkpt lat="43.99406" lon="2.9819">
        <ele>577.8</ele>
        <time>2026-04-30T14:12:44.000Z</time>
      </trkpt>
      <trkpt lat="43.99405" lon="2.98189">
        <ele>577.9</ele>
        <time>2026-04-30T14:12:45.000Z</time>
      </trkpt>
      <trkpt lat="43.99404" lon="2.98188">
        <ele>578</ele>
        <time>2026-04-30T14:12:46.000Z</time>
      </trkpt>
      <trkpt lat="43.99403" lon="2.98187">
        <ele>578</ele>
        <time>2026-04-30T14:12:47.000Z</time>
      </trkpt>
      <trkpt lat="43.99403" lon="2.98186">
        <ele>578</ele>
        <time>2026-04-30T14:12:48.000Z</time>
      </trkpt>
      <trkpt lat="43.99402" lon="2.98185">
        <ele>578</ele>
        <time>2026-04-30T14:12:49.000Z</time>
      </trkpt>
      <trkpt lat="43.99402" lon="2.98184">
        <ele>578</ele>
        <time>2026-04-30T14:12:50.000Z</time>
      </trkpt>
      <trkpt lat="43.99401" lon="2.98183">
        <ele>577.9</ele>
        <time>2026-04-30T14:12:51.000Z</time>
      </trkpt>
      <trkpt lat="43.99401" lon="2.98182">
        <ele>578</ele>
        <time>2026-04-30T14:12:52.000Z</time>
      </trkpt>
      <trkpt lat="43.994" lon="2.98182">
        <ele>578.1</ele>
        <time>2026-04-30T14:12:53.000Z</time>
      </trkpt>
      <trkpt lat="43.994" lon="2.98181">
        <ele>578.3</ele>
        <time>2026-04-30T14:12:54.000Z</time>
      </trkpt>
      <trkpt lat="43.994" lon="2.98179">
        <ele>578.6</ele>
        <time>2026-04-30T14:12:55.000Z</time>
      </trkpt>
      <trkpt lat="43.994" lon="2.98178">
        <ele>578.5</ele>
        <time>2026-04-30T14:12:56.000Z</time>
      </trkpt>
      <trkpt lat="43.994" lon="2.98177">
        <ele>578.6</ele>
        <time>2026-04-30T14:12:57.000Z</time>
      </trkpt>
      <trkpt lat="43.994" lon="2.98176">
        <ele>578.7</ele>
        <time>2026-04-30T14:12:58.000Z</time>
      </trkpt>
      <trkpt lat="43.99399" lon="2.98174">
        <ele>578.7</ele>
        <time>2026-04-30T14:12:59.000Z</time>
      </trkpt>
      <trkpt lat="43.99398" lon="2.98173">
        <ele>578.6</ele>
        <time>2026-04-30T14:13:00.000Z</time>
      </trkpt>
      <trkpt lat="43.99397" lon="2.98172">
        <ele>578.2</ele>
        <time>2026-04-30T14:13:01.000Z</time>
      </trkpt>
      <trkpt lat="43.99396" lon="2.98171">
        <ele>578.3</ele>
        <time>2026-04-30T14:13:02.000Z</time>
      </trkpt>
      <trkpt lat="43.99395" lon="2.98169">
        <ele>578.2</ele>
        <time>2026-04-30T14:13:03.000Z</time>
      </trkpt>
      <trkpt lat="43.99394" lon="2.98168">
        <ele>578.2</ele>
        <time>2026-04-30T14:13:04.000Z</time>
      </trkpt>
      <trkpt lat="43.99394" lon="2.98168">
        <ele>578.1</ele>
        <time>2026-04-30T14:13:05.000Z</time>
      </trkpt>
      <trkpt lat="43.99393" lon="2.98167">
        <ele>578.3</ele>
        <time>2026-04-30T14:13:06.000Z</time>
      </trkpt>
      <trkpt lat="43.99392" lon="2.98166">
        <ele>578.6</ele>
        <time>2026-04-30T14:13:07.000Z</time>
      </trkpt>
      <trkpt lat="43.99391" lon="2.98166">
        <ele>579.1</ele>
        <time>2026-04-30T14:13:08.000Z</time>
      </trkpt>
      <trkpt lat="43.99389" lon="2.98166">
        <ele>579.4</ele>
        <time>2026-04-30T14:13:09.000Z</time>
      </trkpt>
      <trkpt lat="43.99388" lon="2.98166">
        <ele>579.6</ele>
        <time>2026-04-30T14:13:10.000Z</time>
      </trkpt>
      <trkpt lat="43.99387" lon="2.98166">
        <ele>579.9</ele>
        <time>2026-04-30T14:13:11.000Z</time>
      </trkpt>
      <trkpt lat="43.99387" lon="2.98166">
        <ele>580.3</ele>
        <time>2026-04-30T14:13:12.000Z</time>
      </trkpt>
      <trkpt lat="43.99385" lon="2.98166">
        <ele>580.4</ele>
        <time>2026-04-30T14:13:13.000Z</time>
      </trkpt>
      <trkpt lat="43.99385" lon="2.98166">
        <ele>580.5</ele>
        <time>2026-04-30T14:13:14.000Z</time>
      </trkpt>
      <trkpt lat="43.99384" lon="2.98166">
        <ele>580.8</ele>
        <time>2026-04-30T14:13:15.000Z</time>
      </trkpt>
      <trkpt lat="43.99383" lon="2.98166">
        <ele>580.8</ele>
        <time>2026-04-30T14:13:16.000Z</time>
      </trkpt>
      <trkpt lat="43.99382" lon="2.98166">
        <ele>580.7</ele>
        <time>2026-04-30T14:13:17.000Z</time>
      </trkpt>
      <trkpt lat="43.99381" lon="2.98166">
        <ele>581</ele>
        <time>2026-04-30T14:13:18.000Z</time>
      </trkpt>
      <trkpt lat="43.9938" lon="2.98165">
        <ele>581.2</ele>
        <time>2026-04-30T14:13:19.000Z</time>
      </trkpt>
      <trkpt lat="43.99379" lon="2.98165">
        <ele>581.4</ele>
        <time>2026-04-30T14:13:20.000Z</time>
      </trkpt>
      <trkpt lat="43.99378" lon="2.98164">
        <ele>581.6</ele>
        <time>2026-04-30T14:13:21.000Z</time>
      </trkpt>
      <trkpt lat="43.99377" lon="2.98164">
        <ele>581.8</ele>
        <time>2026-04-30T14:13:22.000Z</time>
      </trkpt>
      <trkpt lat="43.99376" lon="2.98164">
        <ele>581.8</ele>
        <time>2026-04-30T14:13:23.000Z</time>
      </trkpt>
      <trkpt lat="43.99375" lon="2.98164">
        <ele>581.9</ele>
        <time>2026-04-30T14:13:24.000Z</time>
      </trkpt>
      <trkpt lat="43.99375" lon="2.98164">
        <ele>582</ele>
        <time>2026-04-30T14:13:25.000Z</time>
      </trkpt>
      <trkpt lat="43.99374" lon="2.98164">
        <ele>582.2</ele>
        <time>2026-04-30T14:13:26.000Z</time>
      </trkpt>
      <trkpt lat="43.99373" lon="2.98163">
        <ele>582.2</ele>
        <time>2026-04-30T14:13:27.000Z</time>
      </trkpt>
      <trkpt lat="43.99372" lon="2.98163">
        <ele>581.8</ele>
        <time>2026-04-30T14:13:28.000Z</time>
      </trkpt>
      <trkpt lat="43.99371" lon="2.98163">
        <ele>581.6</ele>
        <time>2026-04-30T14:13:29.000Z</time>
      </trkpt>
      <trkpt lat="43.9937" lon="2.98162">
        <ele>581.5</ele>
        <time>2026-04-30T14:13:30.000Z</time>
      </trkpt>
      <trkpt lat="43.99369" lon="2.98162">
        <ele>581.5</ele>
        <time>2026-04-30T14:13:31.000Z</time>
      </trkpt>
      <trkpt lat="43.99368" lon="2.98162">
        <ele>581.5</ele>
        <time>2026-04-30T14:13:32.000Z</time>
      </trkpt>
      <trkpt lat="43.99367" lon="2.98162">
        <ele>581.6</ele>
        <time>2026-04-30T14:13:33.000Z</time>
      </trkpt>
      <trkpt lat="43.99366" lon="2.98161">
        <ele>582</ele>
        <time>2026-04-30T14:13:34.000Z</time>
      </trkpt>
      <trkpt lat="43.99365" lon="2.98159">
        <ele>582.1</ele>
        <time>2026-04-30T14:13:35.000Z</time>
      </trkpt>
      <trkpt lat="43.99364" lon="2.98158">
        <ele>582.3</ele>
        <time>2026-04-30T14:13:36.000Z</time>
      </trkpt>
      <trkpt lat="43.99364" lon="2.98157">
        <ele>582.5</ele>
        <time>2026-04-30T14:13:37.000Z</time>
      </trkpt>
      <trkpt lat="43.99363" lon="2.98155">
        <ele>582.7</ele>
        <time>2026-04-30T14:13:38.000Z</time>
      </trkpt>
      <trkpt lat="43.99363" lon="2.98154">
        <ele>583.1</ele>
        <time>2026-04-30T14:13:39.000Z</time>
      </trkpt>
      <trkpt lat="43.99362" lon="2.98153">
        <ele>583.3</ele>
        <time>2026-04-30T14:13:40.000Z</time>
      </trkpt>
      <trkpt lat="43.99361" lon="2.98153">
        <ele>583.4</ele>
        <time>2026-04-30T14:13:41.000Z</time>
      </trkpt>
      <trkpt lat="43.9936" lon="2.98152">
        <ele>583.4</ele>
        <time>2026-04-30T14:13:42.000Z</time>
      </trkpt>
      <trkpt lat="43.9936" lon="2.98152">
        <ele>583.3</ele>
        <time>2026-04-30T14:13:43.000Z</time>
      </trkpt>
      <trkpt lat="43.99359" lon="2.98151">
        <ele>583.3</ele>
        <time>2026-04-30T14:13:44.000Z</time>
      </trkpt>
      <trkpt lat="43.99358" lon="2.9815">
        <ele>583.6</ele>
        <time>2026-04-30T14:13:45.000Z</time>
      </trkpt>
      <trkpt lat="43.99358" lon="2.9815">
        <ele>583.5</ele>
        <time>2026-04-30T14:13:46.000Z</time>
      </trkpt>
      <trkpt lat="43.99357" lon="2.98149">
        <ele>583.8</ele>
        <time>2026-04-30T14:13:47.000Z</time>
      </trkpt>
      <trkpt lat="43.99357" lon="2.98148">
        <ele>584.2</ele>
        <time>2026-04-30T14:13:48.000Z</time>
      </trkpt>
      <trkpt lat="43.99356" lon="2.98146">
        <ele>584.8</ele>
        <time>2026-04-30T14:13:49.000Z</time>
      </trkpt>
      <trkpt lat="43.99355" lon="2.98145">
        <ele>585.2</ele>
        <time>2026-04-30T14:13:50.000Z</time>
      </trkpt>
      <trkpt lat="43.99355" lon="2.98144">
        <ele>585.3</ele>
        <time>2026-04-30T14:13:51.000Z</time>
      </trkpt>
      <trkpt lat="43.99354" lon="2.98143">
        <ele>585.3</ele>
        <time>2026-04-30T14:13:52.000Z</time>
      </trkpt>
      <trkpt lat="43.99352" lon="2.98141">
        <ele>585.4</ele>
        <time>2026-04-30T14:13:53.000Z</time>
      </trkpt>
      <trkpt lat="43.99351" lon="2.98139">
        <ele>584.8</ele>
        <time>2026-04-30T14:13:54.000Z</time>
      </trkpt>
      <trkpt lat="43.9935" lon="2.98137">
        <ele>584.8</ele>
        <time>2026-04-30T14:13:55.000Z</time>
      </trkpt>
      <trkpt lat="43.9935" lon="2.98136">
        <ele>584.8</ele>
        <time>2026-04-30T14:13:56.000Z</time>
      </trkpt>
      <trkpt lat="43.9935" lon="2.98134">
        <ele>585</ele>
        <time>2026-04-30T14:13:57.000Z</time>
      </trkpt>
      <trkpt lat="43.9935" lon="2.98133">
        <ele>585.1</ele>
        <time>2026-04-30T14:13:58.000Z</time>
      </trkpt>
      <trkpt lat="43.99349" lon="2.98132">
        <ele>585.3</ele>
        <time>2026-04-30T14:13:59.000Z</time>
      </trkpt>
      <trkpt lat="43.99349" lon="2.9813">
        <ele>585.7</ele>
        <time>2026-04-30T14:14:00.000Z</time>
      </trkpt>
      <trkpt lat="43.99348" lon="2.98129">
        <ele>585.9</ele>
        <time>2026-04-30T14:14:01.000Z</time>
      </trkpt>
      <trkpt lat="43.99347" lon="2.98128">
        <ele>586.1</ele>
        <time>2026-04-30T14:14:02.000Z</time>
      </trkpt>
      <trkpt lat="43.99346" lon="2.98127">
        <ele>586.2</ele>
        <time>2026-04-30T14:14:03.000Z</time>
      </trkpt>
      <trkpt lat="43.99345" lon="2.98127">
        <ele>586.4</ele>
        <time>2026-04-30T14:14:04.000Z</time>
      </trkpt>
      <trkpt lat="43.99344" lon="2.98126">
        <ele>586.7</ele>
        <time>2026-04-30T14:14:05.000Z</time>
      </trkpt>
      <trkpt lat="43.99343" lon="2.98123">
        <ele>586.9</ele>
        <time>2026-04-30T14:14:06.000Z</time>
      </trkpt>
      <trkpt lat="43.99343" lon="2.98122">
        <ele>586.7</ele>
        <time>2026-04-30T14:14:07.000Z</time>
      </trkpt>
      <trkpt lat="43.99343" lon="2.98121">
        <ele>586.5</ele>
        <time>2026-04-30T14:14:08.000Z</time>
      </trkpt>
      <trkpt lat="43.99342" lon="2.9812">
        <ele>586.2</ele>
        <time>2026-04-30T14:14:09.000Z</time>
      </trkpt>
      <trkpt lat="43.99342" lon="2.98119">
        <ele>585.9</ele>
        <time>2026-04-30T14:14:10.000Z</time>
      </trkpt>
      <trkpt lat="43.9934" lon="2.98118">
        <ele>585.8</ele>
        <time>2026-04-30T14:14:11.000Z</time>
      </trkpt>
      <trkpt lat="43.99339" lon="2.98118">
        <ele>585.8</ele>
        <time>2026-04-30T14:14:12.000Z</time>
      </trkpt>
      <trkpt lat="43.99338" lon="2.98117">
        <ele>586</ele>
        <time>2026-04-30T14:14:13.000Z</time>
      </trkpt>
      <trkpt lat="43.99337" lon="2.98117">
        <ele>585.9</ele>
        <time>2026-04-30T14:14:14.000Z</time>
      </trkpt>
      <trkpt lat="43.99336" lon="2.98116">
        <ele>585.7</ele>
        <time>2026-04-30T14:14:15.000Z</time>
      </trkpt>
      <trkpt lat="43.99335" lon="2.98116">
        <ele>585.4</ele>
        <time>2026-04-30T14:14:17.000Z</time>
      </trkpt>
      <trkpt lat="43.99334" lon="2.98115">
        <ele>585.5</ele>
        <time>2026-04-30T14:14:18.000Z</time>
      </trkpt>
      <trkpt lat="43.99333" lon="2.98114">
        <ele>585.6</ele>
        <time>2026-04-30T14:14:19.000Z</time>
      </trkpt>
      <trkpt lat="43.99332" lon="2.98114">
        <ele>585.8</ele>
        <time>2026-04-30T14:14:20.000Z</time>
      </trkpt>
      <trkpt lat="43.99331" lon="2.98113">
        <ele>585.6</ele>
        <time>2026-04-30T14:14:21.000Z</time>
      </trkpt>
      <trkpt lat="43.9933" lon="2.98112">
        <ele>585.2</ele>
        <time>2026-04-30T14:14:22.000Z</time>
      </trkpt>
      <trkpt lat="43.99328" lon="2.98112">
        <ele>585.2</ele>
        <time>2026-04-30T14:14:23.000Z</time>
      </trkpt>
      <trkpt lat="43.99327" lon="2.98111">
        <ele>585.1</ele>
        <time>2026-04-30T14:14:24.000Z</time>
      </trkpt>
      <trkpt lat="43.99326" lon="2.9811">
        <ele>585.3</ele>
        <time>2026-04-30T14:14:25.000Z</time>
      </trkpt>
      <trkpt lat="43.99325" lon="2.9811">
        <ele>585.5</ele>
        <time>2026-04-30T14:14:26.000Z</time>
      </trkpt>
      <trkpt lat="43.99325" lon="2.98109">
        <ele>585.9</ele>
        <time>2026-04-30T14:14:27.000Z</time>
      </trkpt>
      <trkpt lat="43.99324" lon="2.98108">
        <ele>586.7</ele>
        <time>2026-04-30T14:14:28.000Z</time>
      </trkpt>
      <trkpt lat="43.99324" lon="2.98108">
        <ele>586.4</ele>
        <time>2026-04-30T14:14:29.000Z</time>
      </trkpt>
      <trkpt lat="43.99324" lon="2.98108">
        <ele>586.2</ele>
        <time>2026-04-30T14:14:30.000Z</time>
      </trkpt>
      <trkpt lat="43.99324" lon="2.98108">
        <ele>586.1</ele>
        <time>2026-04-30T14:14:31.000Z</time>
      </trkpt>
      <trkpt lat="43.99323" lon="2.98108">
        <ele>586.2</ele>
        <time>2026-04-30T14:14:32.000Z</time>
      </trkpt>
      <trkpt lat="43.99322" lon="2.98106">
        <ele>586.1</ele>
        <time>2026-04-30T14:14:33.000Z</time>
      </trkpt>
      <trkpt lat="43.99321" lon="2.98105">
        <ele>585.9</ele>
        <time>2026-04-30T14:14:34.000Z</time>
      </trkpt>
      <trkpt lat="43.9932" lon="2.98105">
        <ele>585.5</ele>
        <time>2026-04-30T14:14:35.000Z</time>
      </trkpt>
      <trkpt lat="43.9932" lon="2.98104">
        <ele>584.9</ele>
        <time>2026-04-30T14:14:36.000Z</time>
      </trkpt>
      <trkpt lat="43.99319" lon="2.98104">
        <ele>584.4</ele>
        <time>2026-04-30T14:14:37.000Z</time>
      </trkpt>
      <trkpt lat="43.99318" lon="2.98103">
        <ele>584.3</ele>
        <time>2026-04-30T14:14:38.000Z</time>
      </trkpt>
      <trkpt lat="43.99317" lon="2.98103">
        <ele>584.1</ele>
        <time>2026-04-30T14:14:39.000Z</time>
      </trkpt>
      <trkpt lat="43.99315" lon="2.98103">
        <ele>584</ele>
        <time>2026-04-30T14:14:40.000Z</time>
      </trkpt>
      <trkpt lat="43.99315" lon="2.98102">
        <ele>583.2</ele>
        <time>2026-04-30T14:14:41.000Z</time>
      </trkpt>
      <trkpt lat="43.99314" lon="2.98101">
        <ele>582.2</ele>
        <time>2026-04-30T14:14:42.000Z</time>
      </trkpt>
      <trkpt lat="43.99314" lon="2.981">
        <ele>581.7</ele>
        <time>2026-04-30T14:14:43.000Z</time>
      </trkpt>
      <trkpt lat="43.99314" lon="2.981">
        <ele>581.1</ele>
        <time>2026-04-30T14:14:44.000Z</time>
      </trkpt>
      <trkpt lat="43.99313" lon="2.98099">
        <ele>580.4</ele>
        <time>2026-04-30T14:14:45.000Z</time>
      </trkpt>
      <trkpt lat="43.99312" lon="2.98097">
        <ele>580.4</ele>
        <time>2026-04-30T14:14:46.000Z</time>
      </trkpt>
      <trkpt lat="43.99311" lon="2.98096">
        <ele>580.2</ele>
        <time>2026-04-30T14:14:47.000Z</time>
      </trkpt>
      <trkpt lat="43.9931" lon="2.98095">
        <ele>580.1</ele>
        <time>2026-04-30T14:14:48.000Z</time>
      </trkpt>
      <trkpt lat="43.99309" lon="2.98094">
        <ele>580</ele>
        <time>2026-04-30T14:14:49.000Z</time>
      </trkpt>
      <trkpt lat="43.99309" lon="2.98092">
        <ele>580.8</ele>
        <time>2026-04-30T14:14:50.000Z</time>
      </trkpt>
      <trkpt lat="43.99308" lon="2.9809">
        <ele>581.2</ele>
        <time>2026-04-30T14:14:51.000Z</time>
      </trkpt>
      <trkpt lat="43.99306" lon="2.98089">
        <ele>581.3</ele>
        <time>2026-04-30T14:14:52.000Z</time>
      </trkpt>
      <trkpt lat="43.99304" lon="2.98088">
        <ele>581.7</ele>
        <time>2026-04-30T14:14:53.000Z</time>
      </trkpt>
      <trkpt lat="43.99302" lon="2.98086">
        <ele>581.6</ele>
        <time>2026-04-30T14:14:54.000Z</time>
      </trkpt>
      <trkpt lat="43.993" lon="2.98085">
        <ele>581.5</ele>
        <time>2026-04-30T14:14:55.000Z</time>
      </trkpt>
      <trkpt lat="43.993" lon="2.98083">
        <ele>582.3</ele>
        <time>2026-04-30T14:14:56.000Z</time>
      </trkpt>
      <trkpt lat="43.99299" lon="2.98081">
        <ele>583.3</ele>
        <time>2026-04-30T14:14:57.000Z</time>
      </trkpt>
      <trkpt lat="43.99299" lon="2.9808">
        <ele>583.5</ele>
        <time>2026-04-30T14:14:58.000Z</time>
      </trkpt>
      <trkpt lat="43.99298" lon="2.98077">
        <ele>583.7</ele>
        <time>2026-04-30T14:14:59.000Z</time>
      </trkpt>
      <trkpt lat="43.99297" lon="2.98076">
        <ele>583.3</ele>
        <time>2026-04-30T14:15:00.000Z</time>
      </trkpt>
      <trkpt lat="43.99295" lon="2.98075">
        <ele>583</ele>
        <time>2026-04-30T14:15:01.000Z</time>
      </trkpt>
      <trkpt lat="43.99294" lon="2.98074">
        <ele>582.5</ele>
        <time>2026-04-30T14:15:02.000Z</time>
      </trkpt>
      <trkpt lat="43.99293" lon="2.98074">
        <ele>581.9</ele>
        <time>2026-04-30T14:15:03.000Z</time>
      </trkpt>
      <trkpt lat="43.99292" lon="2.98074">
        <ele>582</ele>
        <time>2026-04-30T14:15:04.000Z</time>
      </trkpt>
      <trkpt lat="43.99292" lon="2.98074">
        <ele>582</ele>
        <time>2026-04-30T14:15:05.000Z</time>
      </trkpt>
      <trkpt lat="43.9929" lon="2.98074">
        <ele>582</ele>
        <time>2026-04-30T14:15:06.000Z</time>
      </trkpt>
      <trkpt lat="43.99289" lon="2.98073">
        <ele>582.1</ele>
        <time>2026-04-30T14:15:07.000Z</time>
      </trkpt>
      <trkpt lat="43.99289" lon="2.98071">
        <ele>582</ele>
        <time>2026-04-30T14:15:08.000Z</time>
      </trkpt>
      <trkpt lat="43.99288" lon="2.9807">
        <ele>582.2</ele>
        <time>2026-04-30T14:15:09.000Z</time>
      </trkpt>
      <trkpt lat="43.99288" lon="2.98068">
        <ele>582.7</ele>
        <time>2026-04-30T14:15:10.000Z</time>
      </trkpt>
      <trkpt lat="43.99287" lon="2.98067">
        <ele>582.9</ele>
        <time>2026-04-30T14:15:11.000Z</time>
      </trkpt>
      <trkpt lat="43.99285" lon="2.98066">
        <ele>583.1</ele>
        <time>2026-04-30T14:15:12.000Z</time>
      </trkpt>
      <trkpt lat="43.99283" lon="2.98065">
        <ele>582.1</ele>
        <time>2026-04-30T14:15:13.000Z</time>
      </trkpt>
      <trkpt lat="43.99282" lon="2.98064">
        <ele>582.2</ele>
        <time>2026-04-30T14:15:14.000Z</time>
      </trkpt>
      <trkpt lat="43.99281" lon="2.98063">
        <ele>582.2</ele>
        <time>2026-04-30T14:15:15.000Z</time>
      </trkpt>
      <trkpt lat="43.9928" lon="2.98062">
        <ele>582.6</ele>
        <time>2026-04-30T14:15:16.000Z</time>
      </trkpt>
      <trkpt lat="43.99279" lon="2.98061">
        <ele>583</ele>
        <time>2026-04-30T14:15:17.000Z</time>
      </trkpt>
      <trkpt lat="43.99279" lon="2.98059">
        <ele>583.4</ele>
        <time>2026-04-30T14:15:18.000Z</time>
      </trkpt>
      <trkpt lat="43.99277" lon="2.98058">
        <ele>583.8</ele>
        <time>2026-04-30T14:15:19.000Z</time>
      </trkpt>
      <trkpt lat="43.99277" lon="2.98058">
        <ele>584.2</ele>
        <time>2026-04-30T14:15:20.000Z</time>
      </trkpt>
      <trkpt lat="43.99277" lon="2.98058">
        <ele>584.5</ele>
        <time>2026-04-30T14:15:21.000Z</time>
      </trkpt>
      <trkpt lat="43.99277" lon="2.98058">
        <ele>584.8</ele>
        <time>2026-04-30T14:15:22.000Z</time>
      </trkpt>
      <trkpt lat="43.99277" lon="2.98058">
        <ele>585</ele>
        <time>2026-04-30T14:15:23.000Z</time>
      </trkpt>
      <trkpt lat="43.99277" lon="2.98058">
        <ele>585.2</ele>
        <time>2026-04-30T14:15:24.000Z</time>
      </trkpt>
      <trkpt lat="43.99277" lon="2.98058">
        <ele>585.1</ele>
        <time>2026-04-30T14:15:25.000Z</time>
      </trkpt>
      <trkpt lat="43.99277" lon="2.98057">
        <ele>585</ele>
        <time>2026-04-30T14:15:26.000Z</time>
      </trkpt>
      <trkpt lat="43.99276" lon="2.98057">
        <ele>585.1</ele>
        <time>2026-04-30T14:15:27.000Z</time>
      </trkpt>
      <trkpt lat="43.99275" lon="2.98056">
        <ele>585.5</ele>
        <time>2026-04-30T14:15:28.000Z</time>
      </trkpt>
      <trkpt lat="43.99274" lon="2.98055">
        <ele>585.7</ele>
        <time>2026-04-30T14:15:29.000Z</time>
      </trkpt>
      <trkpt lat="43.99272" lon="2.98054">
        <ele>585.7</ele>
        <time>2026-04-30T14:15:30.000Z</time>
      </trkpt>
      <trkpt lat="43.9927" lon="2.98052">
        <ele>585.6</ele>
        <time>2026-04-30T14:15:31.000Z</time>
      </trkpt>
      <trkpt lat="43.99269" lon="2.98052">
        <ele>585.4</ele>
        <time>2026-04-30T14:15:32.000Z</time>
      </trkpt>
      <trkpt lat="43.99269" lon="2.98051">
        <ele>585.4</ele>
        <time>2026-04-30T14:15:33.000Z</time>
      </trkpt>
      <trkpt lat="43.99268" lon="2.9805">
        <ele>585.5</ele>
        <time>2026-04-30T14:15:34.000Z</time>
      </trkpt>
      <trkpt lat="43.99268" lon="2.9805">
        <ele>585.2</ele>
        <time>2026-04-30T14:15:35.000Z</time>
      </trkpt>
      <trkpt lat="43.99267" lon="2.9805">
        <ele>585</ele>
        <time>2026-04-30T14:15:36.000Z</time>
      </trkpt>
      <trkpt lat="43.99266" lon="2.9805">
        <ele>584.7</ele>
        <time>2026-04-30T14:15:37.000Z</time>
      </trkpt>
      <trkpt lat="43.99266" lon="2.9805">
        <ele>584.2</ele>
        <time>2026-04-30T14:15:38.000Z</time>
      </trkpt>
      <trkpt lat="43.99265" lon="2.98049">
        <ele>583.6</ele>
        <time>2026-04-30T14:15:39.000Z</time>
      </trkpt>
      <trkpt lat="43.99263" lon="2.98048">
        <ele>583</ele>
        <time>2026-04-30T14:15:40.000Z</time>
      </trkpt>
      <trkpt lat="43.99262" lon="2.98048">
        <ele>582.5</ele>
        <time>2026-04-30T14:15:41.000Z</time>
      </trkpt>
      <trkpt lat="43.99261" lon="2.98047">
        <ele>582.2</ele>
        <time>2026-04-30T14:15:42.000Z</time>
      </trkpt>
      <trkpt lat="43.99261" lon="2.98047">
        <ele>582.2</ele>
        <time>2026-04-30T14:15:43.000Z</time>
      </trkpt>
      <trkpt lat="43.9926" lon="2.98046">
        <ele>582</ele>
        <time>2026-04-30T14:15:44.000Z</time>
      </trkpt>
      <trkpt lat="43.99259" lon="2.98045">
        <ele>581.4</ele>
        <time>2026-04-30T14:15:45.000Z</time>
      </trkpt>
      <trkpt lat="43.99259" lon="2.98044">
        <ele>581.4</ele>
        <time>2026-04-30T14:15:46.000Z</time>
      </trkpt>
      <trkpt lat="43.99258" lon="2.98044">
        <ele>581.4</ele>
        <time>2026-04-30T14:15:47.000Z</time>
      </trkpt>
      <trkpt lat="43.99257" lon="2.98044">
        <ele>581.4</ele>
        <time>2026-04-30T14:15:48.000Z</time>
      </trkpt>
      <trkpt lat="43.99256" lon="2.98045">
        <ele>581.3</ele>
        <time>2026-04-30T14:15:49.000Z</time>
      </trkpt>
      <trkpt lat="43.99255" lon="2.98044">
        <ele>580.9</ele>
        <time>2026-04-30T14:15:50.000Z</time>
      </trkpt>
      <trkpt lat="43.99254" lon="2.98044">
        <ele>580.6</ele>
        <time>2026-04-30T14:15:51.000Z</time>
      </trkpt>
      <trkpt lat="43.99253" lon="2.98043">
        <ele>580.8</ele>
        <time>2026-04-30T14:15:52.000Z</time>
      </trkpt>
      <trkpt lat="43.99253" lon="2.98043">
        <ele>581</ele>
        <time>2026-04-30T14:15:53.000Z</time>
      </trkpt>
      <trkpt lat="43.99252" lon="2.98042">
        <ele>581</ele>
        <time>2026-04-30T14:15:54.000Z</time>
      </trkpt>
      <trkpt lat="43.99251" lon="2.98042">
        <ele>580.7</ele>
        <time>2026-04-30T14:15:55.000Z</time>
      </trkpt>
      <trkpt lat="43.9925" lon="2.98042">
        <ele>581</ele>
        <time>2026-04-30T14:15:56.000Z</time>
      </trkpt>
      <trkpt lat="43.99248" lon="2.98041">
        <ele>580.8</ele>
        <time>2026-04-30T14:15:57.000Z</time>
      </trkpt>
      <trkpt lat="43.99247" lon="2.98041">
        <ele>581</ele>
        <time>2026-04-30T14:15:58.000Z</time>
      </trkpt>
      <trkpt lat="43.99245" lon="2.98041">
        <ele>580.4</ele>
        <time>2026-04-30T14:15:59.000Z</time>
      </trkpt>
      <trkpt lat="43.99244" lon="2.9804">
        <ele>580.2</ele>
        <time>2026-04-30T14:16:00.000Z</time>
      </trkpt>
      <trkpt lat="43.99243" lon="2.9804">
        <ele>580.1</ele>
        <time>2026-04-30T14:16:01.000Z</time>
      </trkpt>
      <trkpt lat="43.99242" lon="2.98039">
        <ele>579.9</ele>
        <time>2026-04-30T14:16:02.000Z</time>
      </trkpt>
      <trkpt lat="43.99241" lon="2.98039">
        <ele>579.7</ele>
        <time>2026-04-30T14:16:03.000Z</time>
      </trkpt>
      <trkpt lat="43.9924" lon="2.98038">
        <ele>580.1</ele>
        <time>2026-04-30T14:16:04.000Z</time>
      </trkpt>
      <trkpt lat="43.99238" lon="2.98037">
        <ele>580.4</ele>
        <time>2026-04-30T14:16:05.000Z</time>
      </trkpt>
      <trkpt lat="43.99237" lon="2.98037">
        <ele>580.2</ele>
        <time>2026-04-30T14:16:06.000Z</time>
      </trkpt>
      <trkpt lat="43.99236" lon="2.98037">
        <ele>580.4</ele>
        <time>2026-04-30T14:16:07.000Z</time>
      </trkpt>
      <trkpt lat="43.99235" lon="2.98037">
        <ele>580.7</ele>
        <time>2026-04-30T14:16:08.000Z</time>
      </trkpt>
      <trkpt lat="43.99235" lon="2.98038">
        <ele>580.7</ele>
        <time>2026-04-30T14:16:09.000Z</time>
      </trkpt>
      <trkpt lat="43.99234" lon="2.98038">
        <ele>580.7</ele>
        <time>2026-04-30T14:16:10.000Z</time>
      </trkpt>
      <trkpt lat="43.99233" lon="2.98038">
        <ele>580.8</ele>
        <time>2026-04-30T14:16:11.000Z</time>
      </trkpt>
      <trkpt lat="43.99231" lon="2.98038">
        <ele>580.6</ele>
        <time>2026-04-30T14:16:12.000Z</time>
      </trkpt>
      <trkpt lat="43.9923" lon="2.98038">
        <ele>580.5</ele>
        <time>2026-04-30T14:16:13.000Z</time>
      </trkpt>
      <trkpt lat="43.99229" lon="2.98038">
        <ele>580.5</ele>
        <time>2026-04-30T14:16:14.000Z</time>
      </trkpt>
      <trkpt lat="43.99228" lon="2.98039">
        <ele>580.2</ele>
        <time>2026-04-30T14:16:15.000Z</time>
      </trkpt>
      <trkpt lat="43.99227" lon="2.98039">
        <ele>580.3</ele>
        <time>2026-04-30T14:16:16.000Z</time>
      </trkpt>
      <trkpt lat="43.99226" lon="2.9804">
        <ele>579.9</ele>
        <time>2026-04-30T14:16:17.000Z</time>
      </trkpt>
      <trkpt lat="43.99225" lon="2.98041">
        <ele>579.8</ele>
        <time>2026-04-30T14:16:18.000Z</time>
      </trkpt>
      <trkpt lat="43.99224" lon="2.98041">
        <ele>579.7</ele>
        <time>2026-04-30T14:16:19.000Z</time>
      </trkpt>
      <trkpt lat="43.99223" lon="2.98043">
        <ele>580</ele>
        <time>2026-04-30T14:16:20.000Z</time>
      </trkpt>
      <trkpt lat="43.99222" lon="2.98043">
        <ele>580</ele>
        <time>2026-04-30T14:16:21.000Z</time>
      </trkpt>
      <trkpt lat="43.99221" lon="2.98043">
        <ele>580</ele>
        <time>2026-04-30T14:16:22.000Z</time>
      </trkpt>
      <trkpt lat="43.9922" lon="2.98044">
        <ele>579.9</ele>
        <time>2026-04-30T14:16:23.000Z</time>
      </trkpt>
      <trkpt lat="43.99219" lon="2.98044">
        <ele>580.1</ele>
        <time>2026-04-30T14:16:24.000Z</time>
      </trkpt>
      <trkpt lat="43.99217" lon="2.98046">
        <ele>580.4</ele>
        <time>2026-04-30T14:16:25.000Z</time>
      </trkpt>
      <trkpt lat="43.99216" lon="2.98047">
        <ele>580.2</ele>
        <time>2026-04-30T14:16:26.000Z</time>
      </trkpt>
      <trkpt lat="43.99215" lon="2.98048">
        <ele>580.1</ele>
        <time>2026-04-30T14:16:27.000Z</time>
      </trkpt>
      <trkpt lat="43.99215" lon="2.98048">
        <ele>580</ele>
        <time>2026-04-30T14:16:28.000Z</time>
      </trkpt>
      <trkpt lat="43.99214" lon="2.98049">
        <ele>579.9</ele>
        <time>2026-04-30T14:16:29.000Z</time>
      </trkpt>
      <trkpt lat="43.99212" lon="2.9805">
        <ele>579.8</ele>
        <time>2026-04-30T14:16:30.000Z</time>
      </trkpt>
      <trkpt lat="43.99211" lon="2.9805">
        <ele>580.1</ele>
        <time>2026-04-30T14:16:31.000Z</time>
      </trkpt>
      <trkpt lat="43.99209" lon="2.98052">
        <ele>580.1</ele>
        <time>2026-04-30T14:16:32.000Z</time>
      </trkpt>
      <trkpt lat="43.99208" lon="2.98053">
        <ele>580.2</ele>
        <time>2026-04-30T14:16:33.000Z</time>
      </trkpt>
      <trkpt lat="43.99207" lon="2.98054">
        <ele>579.7</ele>
        <time>2026-04-30T14:16:34.000Z</time>
      </trkpt>
      <trkpt lat="43.99207" lon="2.98055">
        <ele>579.2</ele>
        <time>2026-04-30T14:16:35.000Z</time>
      </trkpt>
      <trkpt lat="43.99206" lon="2.98054">
        <ele>579</ele>
        <time>2026-04-30T14:16:36.000Z</time>
      </trkpt>
      <trkpt lat="43.99205" lon="2.98054">
        <ele>579.3</ele>
        <time>2026-04-30T14:16:37.000Z</time>
      </trkpt>
      <trkpt lat="43.99203" lon="2.98054">
        <ele>579.3</ele>
        <time>2026-04-30T14:16:38.000Z</time>
      </trkpt>
      <trkpt lat="43.99202" lon="2.98054">
        <ele>579.8</ele>
        <time>2026-04-30T14:16:39.000Z</time>
      </trkpt>
      <trkpt lat="43.99201" lon="2.98054">
        <ele>579.8</ele>
        <time>2026-04-30T14:16:40.000Z</time>
      </trkpt>
      <trkpt lat="43.992" lon="2.98054">
        <ele>579.8</ele>
        <time>2026-04-30T14:16:41.000Z</time>
      </trkpt>
      <trkpt lat="43.99199" lon="2.98054">
        <ele>579.7</ele>
        <time>2026-04-30T14:16:42.000Z</time>
      </trkpt>
      <trkpt lat="43.99198" lon="2.98054">
        <ele>580</ele>
        <time>2026-04-30T14:16:43.000Z</time>
      </trkpt>
      <trkpt lat="43.99197" lon="2.98054">
        <ele>580.2</ele>
        <time>2026-04-30T14:16:44.000Z</time>
      </trkpt>
      <trkpt lat="43.99196" lon="2.98054">
        <ele>580</ele>
        <time>2026-04-30T14:16:45.000Z</time>
      </trkpt>
      <trkpt lat="43.99194" lon="2.98055">
        <ele>580.3</ele>
        <time>2026-04-30T14:16:46.000Z</time>
      </trkpt>
      <trkpt lat="43.99192" lon="2.98056">
        <ele>580</ele>
        <time>2026-04-30T14:16:47.000Z</time>
      </trkpt>
      <trkpt lat="43.99191" lon="2.98057">
        <ele>579.3</ele>
        <time>2026-04-30T14:16:48.000Z</time>
      </trkpt>
      <trkpt lat="43.9919" lon="2.98058">
        <ele>579.1</ele>
        <time>2026-04-30T14:16:49.000Z</time>
      </trkpt>
      <trkpt lat="43.99189" lon="2.98058">
        <ele>579.4</ele>
        <time>2026-04-30T14:16:50.000Z</time>
      </trkpt>
      <trkpt lat="43.99188" lon="2.98058">
        <ele>579.6</ele>
        <time>2026-04-30T14:16:51.000Z</time>
      </trkpt>
      <trkpt lat="43.99187" lon="2.98058">
        <ele>579.2</ele>
        <time>2026-04-30T14:16:52.000Z</time>
      </trkpt>
      <trkpt lat="43.99187" lon="2.98058">
        <ele>579.3</ele>
        <time>2026-04-30T14:16:53.000Z</time>
      </trkpt>
      <trkpt lat="43.99186" lon="2.98058">
        <ele>578.9</ele>
        <time>2026-04-30T14:16:54.000Z</time>
      </trkpt>
      <trkpt lat="43.99185" lon="2.98057">
        <ele>578.8</ele>
        <time>2026-04-30T14:16:55.000Z</time>
      </trkpt>
      <trkpt lat="43.99185" lon="2.98058">
        <ele>578.6</ele>
        <time>2026-04-30T14:16:56.000Z</time>
      </trkpt>
      <trkpt lat="43.99185" lon="2.98059">
        <ele>578.5</ele>
        <time>2026-04-30T14:16:57.000Z</time>
      </trkpt>
      <trkpt lat="43.99184" lon="2.98059">
        <ele>578.6</ele>
        <time>2026-04-30T14:16:58.000Z</time>
      </trkpt>
      <trkpt lat="43.99184" lon="2.98059">
        <ele>578.7</ele>
        <time>2026-04-30T14:16:59.000Z</time>
      </trkpt>
      <trkpt lat="43.99182" lon="2.9806">
        <ele>578.3</ele>
        <time>2026-04-30T14:17:00.000Z</time>
      </trkpt>
      <trkpt lat="43.9918" lon="2.98059">
        <ele>578.5</ele>
        <time>2026-04-30T14:17:01.000Z</time>
      </trkpt>
      <trkpt lat="43.99179" lon="2.98059">
        <ele>578.8</ele>
        <time>2026-04-30T14:17:02.000Z</time>
      </trkpt>
      <trkpt lat="43.99177" lon="2.9806">
        <ele>579</ele>
        <time>2026-04-30T14:17:03.000Z</time>
      </trkpt>
      <trkpt lat="43.99176" lon="2.98061">
        <ele>578.9</ele>
        <time>2026-04-30T14:17:04.000Z</time>
      </trkpt>
      <trkpt lat="43.99175" lon="2.98062">
        <ele>578.8</ele>
        <time>2026-04-30T14:17:05.000Z</time>
      </trkpt>
      <trkpt lat="43.99174" lon="2.98063">
        <ele>578.6</ele>
        <time>2026-04-30T14:17:06.000Z</time>
      </trkpt>
      <trkpt lat="43.99173" lon="2.98064">
        <ele>578.4</ele>
        <time>2026-04-30T14:17:07.000Z</time>
      </trkpt>
      <trkpt lat="43.99171" lon="2.98064">
        <ele>578.5</ele>
        <time>2026-04-30T14:17:08.000Z</time>
      </trkpt>
      <trkpt lat="43.9917" lon="2.98064">
        <ele>578.1</ele>
        <time>2026-04-30T14:17:09.000Z</time>
      </trkpt>
      <trkpt lat="43.99169" lon="2.98064">
        <ele>577.7</ele>
        <time>2026-04-30T14:17:10.000Z</time>
      </trkpt>
      <trkpt lat="43.99169" lon="2.98064">
        <ele>577.7</ele>
        <time>2026-04-30T14:17:11.000Z</time>
      </trkpt>
      <trkpt lat="43.99168" lon="2.98065">
        <ele>577.5</ele>
        <time>2026-04-30T14:17:12.000Z</time>
      </trkpt>
      <trkpt lat="43.99168" lon="2.98066">
        <ele>577.6</ele>
        <time>2026-04-30T14:17:13.000Z</time>
      </trkpt>
      <trkpt lat="43.99169" lon="2.98067">
        <ele>577.4</ele>
        <time>2026-04-30T14:17:14.000Z</time>
      </trkpt>
      <trkpt lat="43.99169" lon="2.98068">
        <ele>577.4</ele>
        <time>2026-04-30T14:17:15.000Z</time>
      </trkpt>
      <trkpt lat="43.9917" lon="2.98068">
        <ele>577.2</ele>
        <time>2026-04-30T14:17:16.000Z</time>
      </trkpt>
      <trkpt lat="43.9917" lon="2.98069">
        <ele>577.1</ele>
        <time>2026-04-30T14:17:17.000Z</time>
      </trkpt>
      <trkpt lat="43.9917" lon="2.98069">
        <ele>577.2</ele>
        <time>2026-04-30T14:17:18.000Z</time>
      </trkpt>
      <trkpt lat="43.9917" lon="2.9807">
        <ele>576.8</ele>
        <time>2026-04-30T14:17:19.000Z</time>
      </trkpt>
      <trkpt lat="43.99169" lon="2.9807">
        <ele>576.4</ele>
        <time>2026-04-30T14:17:20.000Z</time>
      </trkpt>
      <trkpt lat="43.99168" lon="2.98071">
        <ele>576</ele>
        <time>2026-04-30T14:17:21.000Z</time>
      </trkpt>
      <trkpt lat="43.99167" lon="2.98071">
        <ele>575.7</ele>
        <time>2026-04-30T14:17:22.000Z</time>
      </trkpt>
      <trkpt lat="43.99165" lon="2.98072">
        <ele>575.3</ele>
        <time>2026-04-30T14:17:23.000Z</time>
      </trkpt>
      <trkpt lat="43.99164" lon="2.98073">
        <ele>575.2</ele>
        <time>2026-04-30T14:17:24.000Z</time>
      </trkpt>
      <trkpt lat="43.99163" lon="2.98073">
        <ele>574.9</ele>
        <time>2026-04-30T14:17:25.000Z</time>
      </trkpt>
      <trkpt lat="43.99162" lon="2.98073">
        <ele>574.8</ele>
        <time>2026-04-30T14:17:26.000Z</time>
      </trkpt>
      <trkpt lat="43.99162" lon="2.98074">
        <ele>574.8</ele>
        <time>2026-04-30T14:17:27.000Z</time>
      </trkpt>
      <trkpt lat="43.9916" lon="2.98075">
        <ele>575.2</ele>
        <time>2026-04-30T14:17:28.000Z</time>
      </trkpt>
      <trkpt lat="43.99158" lon="2.98077">
        <ele>575.4</ele>
        <time>2026-04-30T14:17:29.000Z</time>
      </trkpt>
      <trkpt lat="43.99156" lon="2.98077">
        <ele>576.1</ele>
        <time>2026-04-30T14:17:30.000Z</time>
      </trkpt>
      <trkpt lat="43.99155" lon="2.98078">
        <ele>576.5</ele>
        <time>2026-04-30T14:17:31.000Z</time>
      </trkpt>
      <trkpt lat="43.99154" lon="2.98078">
        <ele>576.3</ele>
        <time>2026-04-30T14:17:32.000Z</time>
      </trkpt>
      <trkpt lat="43.99153" lon="2.98078">
        <ele>576.3</ele>
        <time>2026-04-30T14:17:33.000Z</time>
      </trkpt>
      <trkpt lat="43.99151" lon="2.98077">
        <ele>576.5</ele>
        <time>2026-04-30T14:17:34.000Z</time>
      </trkpt>
      <trkpt lat="43.99151" lon="2.98077">
        <ele>576.2</ele>
        <time>2026-04-30T14:17:35.000Z</time>
      </trkpt>
      <trkpt lat="43.9915" lon="2.98077">
        <ele>575.6</ele>
        <time>2026-04-30T14:17:36.000Z</time>
      </trkpt>
      <trkpt lat="43.9915" lon="2.98076">
        <ele>575.2</ele>
        <time>2026-04-30T14:17:37.000Z</time>
      </trkpt>
      <trkpt lat="43.9915" lon="2.98076">
        <ele>574.7</ele>
        <time>2026-04-30T14:17:38.000Z</time>
      </trkpt>
      <trkpt lat="43.9915" lon="2.98077">
        <ele>574.2</ele>
        <time>2026-04-30T14:17:39.000Z</time>
      </trkpt>
      <trkpt lat="43.9915" lon="2.98077">
        <ele>574</ele>
        <time>2026-04-30T14:17:40.000Z</time>
      </trkpt>
      <trkpt lat="43.99149" lon="2.98078">
        <ele>574</ele>
        <time>2026-04-30T14:17:41.000Z</time>
      </trkpt>
      <trkpt lat="43.99149" lon="2.98079">
        <ele>574</ele>
        <time>2026-04-30T14:17:42.000Z</time>
      </trkpt>
      <trkpt lat="43.99148" lon="2.98079">
        <ele>574.2</ele>
        <time>2026-04-30T14:17:43.000Z</time>
      </trkpt>
      <trkpt lat="43.99147" lon="2.9808">
        <ele>574.7</ele>
        <time>2026-04-30T14:17:44.000Z</time>
      </trkpt>
      <trkpt lat="43.99146" lon="2.9808">
        <ele>575</ele>
        <time>2026-04-30T14:17:45.000Z</time>
      </trkpt>
      <trkpt lat="43.99144" lon="2.98082">
        <ele>574.9</ele>
        <time>2026-04-30T14:17:46.000Z</time>
      </trkpt>
      <trkpt lat="43.99143" lon="2.98082">
        <ele>575.4</ele>
        <time>2026-04-30T14:17:47.000Z</time>
      </trkpt>
      <trkpt lat="43.99143" lon="2.98083">
        <ele>575.2</ele>
        <time>2026-04-30T14:17:48.000Z</time>
      </trkpt>
      <trkpt lat="43.99142" lon="2.98083">
        <ele>575.1</ele>
        <time>2026-04-30T14:17:49.000Z</time>
      </trkpt>
      <trkpt lat="43.9914" lon="2.98083">
        <ele>575.2</ele>
        <time>2026-04-30T14:17:50.000Z</time>
      </trkpt>
      <trkpt lat="43.99139" lon="2.98084">
        <ele>575.6</ele>
        <time>2026-04-30T14:17:51.000Z</time>
      </trkpt>
      <trkpt lat="43.99137" lon="2.98085">
        <ele>575.7</ele>
        <time>2026-04-30T14:17:52.000Z</time>
      </trkpt>
      <trkpt lat="43.99136" lon="2.98086">
        <ele>575.9</ele>
        <time>2026-04-30T14:17:53.000Z</time>
      </trkpt>
      <trkpt lat="43.99136" lon="2.98087">
        <ele>576</ele>
        <time>2026-04-30T14:17:54.000Z</time>
      </trkpt>
      <trkpt lat="43.99135" lon="2.98087">
        <ele>576.4</ele>
        <time>2026-04-30T14:17:55.000Z</time>
      </trkpt>
      <trkpt lat="43.99134" lon="2.98087">
        <ele>575.9</ele>
        <time>2026-04-30T14:17:56.000Z</time>
      </trkpt>
      <trkpt lat="43.99133" lon="2.98088">
        <ele>575.4</ele>
        <time>2026-04-30T14:17:57.000Z</time>
      </trkpt>
      <trkpt lat="43.99132" lon="2.98088">
        <ele>575.2</ele>
        <time>2026-04-30T14:17:58.000Z</time>
      </trkpt>
      <trkpt lat="43.9913" lon="2.98087">
        <ele>575.1</ele>
        <time>2026-04-30T14:17:59.000Z</time>
      </trkpt>
      <trkpt lat="43.99129" lon="2.98086">
        <ele>575.1</ele>
        <time>2026-04-30T14:18:00.000Z</time>
      </trkpt>
      <trkpt lat="43.99128" lon="2.98085">
        <ele>575.6</ele>
        <time>2026-04-30T14:18:01.000Z</time>
      </trkpt>
      <trkpt lat="43.99127" lon="2.98085">
        <ele>576.1</ele>
        <time>2026-04-30T14:18:02.000Z</time>
      </trkpt>
      <trkpt lat="43.99126" lon="2.98084">
        <ele>576.4</ele>
        <time>2026-04-30T14:18:03.000Z</time>
      </trkpt>
      <trkpt lat="43.99125" lon="2.98083">
        <ele>576.2</ele>
        <time>2026-04-30T14:18:04.000Z</time>
      </trkpt>
      <trkpt lat="43.99124" lon="2.98083">
        <ele>576.1</ele>
        <time>2026-04-30T14:18:05.000Z</time>
      </trkpt>
      <trkpt lat="43.99123" lon="2.98082">
        <ele>575.7</ele>
        <time>2026-04-30T14:18:06.000Z</time>
      </trkpt>
      <trkpt lat="43.99122" lon="2.98081">
        <ele>575.5</ele>
        <time>2026-04-30T14:18:07.000Z</time>
      </trkpt>
      <trkpt lat="43.99121" lon="2.98079">
        <ele>575.7</ele>
        <time>2026-04-30T14:18:08.000Z</time>
      </trkpt>
      <trkpt lat="43.9912" lon="2.98079">
        <ele>575.8</ele>
        <time>2026-04-30T14:18:09.000Z</time>
      </trkpt>
      <trkpt lat="43.99119" lon="2.98078">
        <ele>575.6</ele>
        <time>2026-04-30T14:18:10.000Z</time>
      </trkpt>
      <trkpt lat="43.99118" lon="2.98077">
        <ele>575.8</ele>
        <time>2026-04-30T14:18:11.000Z</time>
      </trkpt>
      <trkpt lat="43.99117" lon="2.98077">
        <ele>576.1</ele>
        <time>2026-04-30T14:18:12.000Z</time>
      </trkpt>
      <trkpt lat="43.99116" lon="2.98076">
        <ele>575.5</ele>
        <time>2026-04-30T14:18:13.000Z</time>
      </trkpt>
      <trkpt lat="43.99115" lon="2.98075">
        <ele>574.9</ele>
        <time>2026-04-30T14:18:14.000Z</time>
      </trkpt>
      <trkpt lat="43.99114" lon="2.98074">
        <ele>574.9</ele>
        <time>2026-04-30T14:18:15.000Z</time>
      </trkpt>
      <trkpt lat="43.99113" lon="2.98074">
        <ele>575.1</ele>
        <time>2026-04-30T14:18:16.000Z</time>
      </trkpt>
      <trkpt lat="43.99112" lon="2.98073">
        <ele>575.3</ele>
        <time>2026-04-30T14:18:17.000Z</time>
      </trkpt>
      <trkpt lat="43.99111" lon="2.98074">
        <ele>575.4</ele>
        <time>2026-04-30T14:18:18.000Z</time>
      </trkpt>
      <trkpt lat="43.99111" lon="2.98073">
        <ele>575.8</ele>
        <time>2026-04-30T14:18:19.000Z</time>
      </trkpt>
      <trkpt lat="43.99111" lon="2.98073">
        <ele>575.7</ele>
        <time>2026-04-30T14:18:20.000Z</time>
      </trkpt>
      <trkpt lat="43.9911" lon="2.98072">
        <ele>575.6</ele>
        <time>2026-04-30T14:18:21.000Z</time>
      </trkpt>
      <trkpt lat="43.99109" lon="2.98072">
        <ele>575.5</ele>
        <time>2026-04-30T14:18:22.000Z</time>
      </trkpt>
      <trkpt lat="43.99108" lon="2.98072">
        <ele>575.4</ele>
        <time>2026-04-30T14:18:23.000Z</time>
      </trkpt>
      <trkpt lat="43.99107" lon="2.98071">
        <ele>575.6</ele>
        <time>2026-04-30T14:18:24.000Z</time>
      </trkpt>
      <trkpt lat="43.99106" lon="2.9807">
        <ele>575.6</ele>
        <time>2026-04-30T14:18:25.000Z</time>
      </trkpt>
      <trkpt lat="43.99106" lon="2.9807">
        <ele>576</ele>
        <time>2026-04-30T14:18:26.000Z</time>
      </trkpt>
      <trkpt lat="43.99105" lon="2.98069">
        <ele>575.9</ele>
        <time>2026-04-30T14:18:27.000Z</time>
      </trkpt>
      <trkpt lat="43.99104" lon="2.98068">
        <ele>575.9</ele>
        <time>2026-04-30T14:18:28.000Z</time>
      </trkpt>
      <trkpt lat="43.99103" lon="2.98067">
        <ele>575.8</ele>
        <time>2026-04-30T14:18:29.000Z</time>
      </trkpt>
      <trkpt lat="43.99102" lon="2.98066">
        <ele>575.6</ele>
        <time>2026-04-30T14:18:30.000Z</time>
      </trkpt>
      <trkpt lat="43.991" lon="2.98065">
        <ele>575.5</ele>
        <time>2026-04-30T14:18:31.000Z</time>
      </trkpt>
      <trkpt lat="43.99099" lon="2.98063">
        <ele>575.5</ele>
        <time>2026-04-30T14:18:32.000Z</time>
      </trkpt>
      <trkpt lat="43.99098" lon="2.98062">
        <ele>575.9</ele>
        <time>2026-04-30T14:18:33.000Z</time>
      </trkpt>
      <trkpt lat="43.99097" lon="2.98061">
        <ele>576</ele>
        <time>2026-04-30T14:18:34.000Z</time>
      </trkpt>
      <trkpt lat="43.99096" lon="2.98061">
        <ele>575.9</ele>
        <time>2026-04-30T14:18:35.000Z</time>
      </trkpt>
      <trkpt lat="43.99095" lon="2.98061">
        <ele>576</ele>
        <time>2026-04-30T14:18:36.000Z</time>
      </trkpt>
      <trkpt lat="43.99094" lon="2.98061">
        <ele>575.6</ele>
        <time>2026-04-30T14:18:37.000Z</time>
      </trkpt>
      <trkpt lat="43.99093" lon="2.98062">
        <ele>575.7</ele>
        <time>2026-04-30T14:18:38.000Z</time>
      </trkpt>
      <trkpt lat="43.99092" lon="2.98062">
        <ele>575.2</ele>
        <time>2026-04-30T14:18:39.000Z</time>
      </trkpt>
      <trkpt lat="43.99091" lon="2.98063">
        <ele>574.9</ele>
        <time>2026-04-30T14:18:40.000Z</time>
      </trkpt>
      <trkpt lat="43.9909" lon="2.98063">
        <ele>574.3</ele>
        <time>2026-04-30T14:18:41.000Z</time>
      </trkpt>
      <trkpt lat="43.99089" lon="2.98063">
        <ele>574.1</ele>
        <time>2026-04-30T14:18:42.000Z</time>
      </trkpt>
      <trkpt lat="43.99088" lon="2.98063">
        <ele>574.5</ele>
        <time>2026-04-30T14:18:43.000Z</time>
      </trkpt>
      <trkpt lat="43.99087" lon="2.98064">
        <ele>574.4</ele>
        <time>2026-04-30T14:18:44.000Z</time>
      </trkpt>
      <trkpt lat="43.99086" lon="2.98064">
        <ele>574.4</ele>
        <time>2026-04-30T14:18:45.000Z</time>
      </trkpt>
      <trkpt lat="43.99086" lon="2.98063">
        <ele>574.1</ele>
        <time>2026-04-30T14:18:46.000Z</time>
      </trkpt>
      <trkpt lat="43.99086" lon="2.98063">
        <ele>573.8</ele>
        <time>2026-04-30T14:18:47.000Z</time>
      </trkpt>
      <trkpt lat="43.99085" lon="2.98063">
        <ele>573.3</ele>
        <time>2026-04-30T14:18:48.000Z</time>
      </trkpt>
      <trkpt lat="43.99084" lon="2.98064">
        <ele>573.3</ele>
        <time>2026-04-30T14:18:49.000Z</time>
      </trkpt>
      <trkpt lat="43.99082" lon="2.98064">
        <ele>573.9</ele>
        <time>2026-04-30T14:18:50.000Z</time>
      </trkpt>
      <trkpt lat="43.9908" lon="2.98065">
        <ele>574.3</ele>
        <time>2026-04-30T14:18:51.000Z</time>
      </trkpt>
      <trkpt lat="43.99079" lon="2.98066">
        <ele>574.9</ele>
        <time>2026-04-30T14:18:52.000Z</time>
      </trkpt>
      <trkpt lat="43.99077" lon="2.98067">
        <ele>575.1</ele>
        <time>2026-04-30T14:18:53.000Z</time>
      </trkpt>
      <trkpt lat="43.99076" lon="2.98067">
        <ele>575.3</ele>
        <time>2026-04-30T14:18:54.000Z</time>
      </trkpt>
      <trkpt lat="43.99075" lon="2.98067">
        <ele>575</ele>
        <time>2026-04-30T14:18:55.000Z</time>
      </trkpt>
      <trkpt lat="43.99074" lon="2.98066">
        <ele>574.4</ele>
        <time>2026-04-30T14:18:56.000Z</time>
      </trkpt>
      <trkpt lat="43.99073" lon="2.98065">
        <ele>573.8</ele>
        <time>2026-04-30T14:18:57.000Z</time>
      </trkpt>
      <trkpt lat="43.99072" lon="2.98065">
        <ele>573.4</ele>
        <time>2026-04-30T14:18:58.000Z</time>
      </trkpt>
      <trkpt lat="43.9907" lon="2.98066">
        <ele>572.9</ele>
        <time>2026-04-30T14:18:59.000Z</time>
      </trkpt>
      <trkpt lat="43.99069" lon="2.98066">
        <ele>573.1</ele>
        <time>2026-04-30T14:19:00.000Z</time>
      </trkpt>
      <trkpt lat="43.99068" lon="2.98066">
        <ele>573.1</ele>
        <time>2026-04-30T14:19:01.000Z</time>
      </trkpt>
      <trkpt lat="43.99066" lon="2.98065">
        <ele>573.2</ele>
        <time>2026-04-30T14:19:02.000Z</time>
      </trkpt>
      <trkpt lat="43.99066" lon="2.98065">
        <ele>572.9</ele>
        <time>2026-04-30T14:19:03.000Z</time>
      </trkpt>
      <trkpt lat="43.99065" lon="2.98065">
        <ele>572.5</ele>
        <time>2026-04-30T14:19:04.000Z</time>
      </trkpt>
      <trkpt lat="43.99065" lon="2.98064">
        <ele>572.2</ele>
        <time>2026-04-30T14:19:05.000Z</time>
      </trkpt>
      <trkpt lat="43.99063" lon="2.98064">
        <ele>571.9</ele>
        <time>2026-04-30T14:19:06.000Z</time>
      </trkpt>
      <trkpt lat="43.99062" lon="2.98065">
        <ele>571.1</ele>
        <time>2026-04-30T14:19:07.000Z</time>
      </trkpt>
      <trkpt lat="43.9906" lon="2.98065">
        <ele>570.7</ele>
        <time>2026-04-30T14:19:08.000Z</time>
      </trkpt>
      <trkpt lat="43.99059" lon="2.98066">
        <ele>570.3</ele>
        <time>2026-04-30T14:19:09.000Z</time>
      </trkpt>
      <trkpt lat="43.99059" lon="2.98066">
        <ele>570.3</ele>
        <time>2026-04-30T14:19:10.000Z</time>
      </trkpt>
      <trkpt lat="43.99058" lon="2.98067">
        <ele>570.1</ele>
        <time>2026-04-30T14:19:11.000Z</time>
      </trkpt>
      <trkpt lat="43.99058" lon="2.98067">
        <ele>570.1</ele>
        <time>2026-04-30T14:19:12.000Z</time>
      </trkpt>
      <trkpt lat="43.99058" lon="2.98066">
        <ele>570.1</ele>
        <time>2026-04-30T14:19:13.000Z</time>
      </trkpt>
      <trkpt lat="43.99057" lon="2.98066">
        <ele>569.9</ele>
        <time>2026-04-30T14:19:14.000Z</time>
      </trkpt>
      <trkpt lat="43.99055" lon="2.98065">
        <ele>569.6</ele>
        <time>2026-04-30T14:19:15.000Z</time>
      </trkpt>
      <trkpt lat="43.99054" lon="2.98063">
        <ele>569.5</ele>
        <time>2026-04-30T14:19:16.000Z</time>
      </trkpt>
      <trkpt lat="43.99053" lon="2.98062">
        <ele>569.4</ele>
        <time>2026-04-30T14:19:17.000Z</time>
      </trkpt>
      <trkpt lat="43.99053" lon="2.98062">
        <ele>569.1</ele>
        <time>2026-04-30T14:19:18.000Z</time>
      </trkpt>
      <trkpt lat="43.99052" lon="2.98061">
        <ele>568.6</ele>
        <time>2026-04-30T14:19:19.000Z</time>
      </trkpt>
      <trkpt lat="43.99051" lon="2.9806">
        <ele>568.1</ele>
        <time>2026-04-30T14:19:20.000Z</time>
      </trkpt>
      <trkpt lat="43.99051" lon="2.98059">
        <ele>567.5</ele>
        <time>2026-04-30T14:19:21.000Z</time>
      </trkpt>
      <trkpt lat="43.9905" lon="2.98058">
        <ele>567.3</ele>
        <time>2026-04-30T14:19:22.000Z</time>
      </trkpt>
      <trkpt lat="43.99049" lon="2.98057">
        <ele>566.7</ele>
        <time>2026-04-30T14:19:23.000Z</time>
      </trkpt>
      <trkpt lat="43.99049" lon="2.98056">
        <ele>566.5</ele>
        <time>2026-04-30T14:19:24.000Z</time>
      </trkpt>
      <trkpt lat="43.99049" lon="2.98055">
        <ele>566.4</ele>
        <time>2026-04-30T14:19:25.000Z</time>
      </trkpt>
      <trkpt lat="43.99049" lon="2.98053">
        <ele>566.6</ele>
        <time>2026-04-30T14:19:26.000Z</time>
      </trkpt>
      <trkpt lat="43.99048" lon="2.98051">
        <ele>566.8</ele>
        <time>2026-04-30T14:19:27.000Z</time>
      </trkpt>
      <trkpt lat="43.99047" lon="2.98049">
        <ele>566.8</ele>
        <time>2026-04-30T14:19:28.000Z</time>
      </trkpt>
      <trkpt lat="43.99047" lon="2.98049">
        <ele>566.7</ele>
        <time>2026-04-30T14:19:29.000Z</time>
      </trkpt>
      <trkpt lat="43.99045" lon="2.98048">
        <ele>566.5</ele>
        <time>2026-04-30T14:19:30.000Z</time>
      </trkpt>
      <trkpt lat="43.99044" lon="2.98048">
        <ele>566.4</ele>
        <time>2026-04-30T14:19:31.000Z</time>
      </trkpt>
      <trkpt lat="43.99044" lon="2.98049">
        <ele>566.2</ele>
        <time>2026-04-30T14:19:32.000Z</time>
      </trkpt>
      <trkpt lat="43.99043" lon="2.9805">
        <ele>566.2</ele>
        <time>2026-04-30T14:19:33.000Z</time>
      </trkpt>
      <trkpt lat="43.99043" lon="2.98052">
        <ele>566.4</ele>
        <time>2026-04-30T14:19:34.000Z</time>
      </trkpt>
      <trkpt lat="43.99042" lon="2.98053">
        <ele>566.3</ele>
        <time>2026-04-30T14:19:35.000Z</time>
      </trkpt>
      <trkpt lat="43.99042" lon="2.98054">
        <ele>566.2</ele>
        <time>2026-04-30T14:19:36.000Z</time>
      </trkpt>
      <trkpt lat="43.99041" lon="2.98055">
        <ele>565.8</ele>
        <time>2026-04-30T14:19:37.000Z</time>
      </trkpt>
      <trkpt lat="43.99041" lon="2.98055">
        <ele>566.1</ele>
        <time>2026-04-30T14:19:38.000Z</time>
      </trkpt>
      <trkpt lat="43.99041" lon="2.98055">
        <ele>566.1</ele>
        <time>2026-04-30T14:19:39.000Z</time>
      </trkpt>
      <trkpt lat="43.99041" lon="2.98055">
        <ele>565.8</ele>
        <time>2026-04-30T14:19:40.000Z</time>
      </trkpt>
      <trkpt lat="43.99041" lon="2.98055">
        <ele>565.5</ele>
        <time>2026-04-30T14:19:41.000Z</time>
      </trkpt>
      <trkpt lat="43.99041" lon="2.98055">
        <ele>565.2</ele>
        <time>2026-04-30T14:19:42.000Z</time>
      </trkpt>
      <trkpt lat="43.99042" lon="2.98055">
        <ele>564.9</ele>
        <time>2026-04-30T14:19:43.000Z</time>
      </trkpt>
      <trkpt lat="43.99042" lon="2.98056">
        <ele>565</ele>
        <time>2026-04-30T14:19:44.000Z</time>
      </trkpt>
      <trkpt lat="43.99042" lon="2.98056">
        <ele>565.1</ele>
        <time>2026-04-30T14:19:45.000Z</time>
      </trkpt>
      <trkpt lat="43.99042" lon="2.98056">
        <ele>565.2</ele>
        <time>2026-04-30T14:19:46.000Z</time>
      </trkpt>
      <trkpt lat="43.99042" lon="2.98056">
        <ele>565.5</ele>
        <time>2026-04-30T14:19:47.000Z</time>
      </trkpt>
      <trkpt lat="43.99042" lon="2.98056">
        <ele>565.8</ele>
        <time>2026-04-30T14:19:48.000Z</time>
      </trkpt>
      <trkpt lat="43.99042" lon="2.98056">
        <ele>566</ele>
        <time>2026-04-30T14:19:49.000Z</time>
      </trkpt>
      <trkpt lat="43.99042" lon="2.98056">
        <ele>566.4</ele>
        <time>2026-04-30T14:19:50.000Z</time>
      </trkpt>
      <trkpt lat="43.99041" lon="2.98057">
        <ele>566.7</ele>
        <time>2026-04-30T14:19:51.000Z</time>
      </trkpt>
      <trkpt lat="43.99041" lon="2.98057">
        <ele>566.7</ele>
        <time>2026-04-30T14:19:52.000Z</time>
      </trkpt>
      <trkpt lat="43.99041" lon="2.98057">
        <ele>566.7</ele>
        <time>2026-04-30T14:19:53.000Z</time>
      </trkpt>
      <trkpt lat="43.99041" lon="2.98057">
        <ele>566.2</ele>
        <time>2026-04-30T14:19:54.000Z</time>
      </trkpt>
      <trkpt lat="43.99041" lon="2.98057">
        <ele>565.8</ele>
        <time>2026-04-30T14:19:55.000Z</time>
      </trkpt>
      <trkpt lat="43.99041" lon="2.98057">
        <ele>565.7</ele>
        <time>2026-04-30T14:19:56.000Z</time>
      </trkpt>
      <trkpt lat="43.99041" lon="2.98057">
        <ele>565.8</ele>
        <time>2026-04-30T14:19:57.000Z</time>
      </trkpt>
      <trkpt lat="43.99041" lon="2.98057">
        <ele>565.8</ele>
        <time>2026-04-30T14:19:58.000Z</time>
      </trkpt>
      <trkpt lat="43.99041" lon="2.98057">
        <ele>565.8</ele>
        <time>2026-04-30T14:19:59.000Z</time>
      </trkpt>
      <trkpt lat="43.99041" lon="2.98057">
        <ele>565.7</ele>
        <time>2026-04-30T14:20:00.000Z</time>
      </trkpt>
      <trkpt lat="43.99041" lon="2.98057">
        <ele>565.6</ele>
        <time>2026-04-30T14:20:01.000Z</time>
      </trkpt>
      <trkpt lat="43.99041" lon="2.98057">
        <ele>565.4</ele>
        <time>2026-04-30T14:20:02.000Z</time>
      </trkpt>
      <trkpt lat="43.99041" lon="2.98057">
        <ele>565.5</ele>
        <time>2026-04-30T14:20:03.000Z</time>
      </trkpt>
      <trkpt lat="43.99041" lon="2.98057">
        <ele>565.8</ele>
        <time>2026-04-30T14:20:04.000Z</time>
      </trkpt>
      <trkpt lat="43.99041" lon="2.98057">
        <ele>565.9</ele>
        <time>2026-04-30T14:20:05.000Z</time>
      </trkpt>
      <trkpt lat="43.99041" lon="2.98057">
        <ele>565.9</ele>
        <time>2026-04-30T14:20:06.000Z</time>
      </trkpt>
      <trkpt lat="43.99041" lon="2.98057">
        <ele>566</ele>
        <time>2026-04-30T14:20:07.000Z</time>
      </trkpt>
      <trkpt lat="43.99041" lon="2.98057">
        <ele>566</ele>
        <time>2026-04-30T14:20:08.000Z</time>
      </trkpt>
      <trkpt lat="43.99041" lon="2.98057">
        <ele>566.1</ele>
        <time>2026-04-30T14:20:09.000Z</time>
      </trkpt>
      <trkpt lat="43.9904" lon="2.98058">
        <ele>566.2</ele>
        <time>2026-04-30T14:20:10.000Z</time>
      </trkpt>
      <trkpt lat="43.99039" lon="2.98059">
        <ele>566.3</ele>
        <time>2026-04-30T14:20:11.000Z</time>
      </trkpt>
      <trkpt lat="43.99038" lon="2.9806">
        <ele>566.3</ele>
        <time>2026-04-30T14:20:12.000Z</time>
      </trkpt>
      <trkpt lat="43.99037" lon="2.98061">
        <ele>566.3</ele>
        <time>2026-04-30T14:20:13.000Z</time>
      </trkpt>
      <trkpt lat="43.99036" lon="2.98061">
        <ele>566.1</ele>
        <time>2026-04-30T14:20:14.000Z</time>
      </trkpt>
      <trkpt lat="43.99034" lon="2.98063">
        <ele>566.1</ele>
        <time>2026-04-30T14:20:15.000Z</time>
      </trkpt>
      <trkpt lat="43.99033" lon="2.98064">
        <ele>566.1</ele>
        <time>2026-04-30T14:20:16.000Z</time>
      </trkpt>
      <trkpt lat="43.99032" lon="2.98064">
        <ele>566.1</ele>
        <time>2026-04-30T14:20:17.000Z</time>
      </trkpt>
      <trkpt lat="43.99031" lon="2.98064">
        <ele>566.1</ele>
        <time>2026-04-30T14:20:18.000Z</time>
      </trkpt>
      <trkpt lat="43.9903" lon="2.98065">
        <ele>565.9</ele>
        <time>2026-04-30T14:20:19.000Z</time>
      </trkpt>
      <trkpt lat="43.99029" lon="2.98065">
        <ele>565.7</ele>
        <time>2026-04-30T14:20:20.000Z</time>
      </trkpt>
      <trkpt lat="43.99028" lon="2.98066">
        <ele>565.3</ele>
        <time>2026-04-30T14:20:21.000Z</time>
      </trkpt>
      <trkpt lat="43.99028" lon="2.98067">
        <ele>565.2</ele>
        <time>2026-04-30T14:20:22.000Z</time>
      </trkpt>
      <trkpt lat="43.99027" lon="2.98067">
        <ele>565.3</ele>
        <time>2026-04-30T14:20:23.000Z</time>
      </trkpt>
      <trkpt lat="43.99026" lon="2.98068">
        <ele>565.3</ele>
        <time>2026-04-30T14:20:24.000Z</time>
      </trkpt>
      <trkpt lat="43.99025" lon="2.98069">
        <ele>565.2</ele>
        <time>2026-04-30T14:20:25.000Z</time>
      </trkpt>
      <trkpt lat="43.99024" lon="2.9807">
        <ele>565.4</ele>
        <time>2026-04-30T14:20:26.000Z</time>
      </trkpt>
      <trkpt lat="43.99023" lon="2.98071">
        <ele>565.4</ele>
        <time>2026-04-30T14:20:27.000Z</time>
      </trkpt>
      <trkpt lat="43.99022" lon="2.98072">
        <ele>565.3</ele>
        <time>2026-04-30T14:20:28.000Z</time>
      </trkpt>
      <trkpt lat="43.99021" lon="2.98073">
        <ele>565.2</ele>
        <time>2026-04-30T14:20:29.000Z</time>
      </trkpt>
      <trkpt lat="43.9902" lon="2.98073">
        <ele>565</ele>
        <time>2026-04-30T14:20:30.000Z</time>
      </trkpt>
      <trkpt lat="43.99019" lon="2.98074">
        <ele>564.8</ele>
        <time>2026-04-30T14:20:31.000Z</time>
      </trkpt>
      <trkpt lat="43.99019" lon="2.98075">
        <ele>564.9</ele>
        <time>2026-04-30T14:20:32.000Z</time>
      </trkpt>
      <trkpt lat="43.99019" lon="2.98075">
        <ele>565.1</ele>
        <time>2026-04-30T14:20:33.000Z</time>
      </trkpt>
      <trkpt lat="43.99018" lon="2.98076">
        <ele>565.2</ele>
        <time>2026-04-30T14:20:34.000Z</time>
      </trkpt>
      <trkpt lat="43.99017" lon="2.98077">
        <ele>565.1</ele>
        <time>2026-04-30T14:20:35.000Z</time>
      </trkpt>
      <trkpt lat="43.99016" lon="2.98079">
        <ele>565</ele>
        <time>2026-04-30T14:20:36.000Z</time>
      </trkpt>
      <trkpt lat="43.99015" lon="2.9808">
        <ele>565.1</ele>
        <time>2026-04-30T14:20:37.000Z</time>
      </trkpt>
      <trkpt lat="43.99014" lon="2.9808">
        <ele>565.1</ele>
        <time>2026-04-30T14:20:38.000Z</time>
      </trkpt>
      <trkpt lat="43.99013" lon="2.9808">
        <ele>564.8</ele>
        <time>2026-04-30T14:20:39.000Z</time>
      </trkpt>
      <trkpt lat="43.99012" lon="2.9808">
        <ele>564.2</ele>
        <time>2026-04-30T14:20:40.000Z</time>
      </trkpt>
      <trkpt lat="43.99011" lon="2.9808">
        <ele>563.9</ele>
        <time>2026-04-30T14:20:41.000Z</time>
      </trkpt>
      <trkpt lat="43.9901" lon="2.9808">
        <ele>563.9</ele>
        <time>2026-04-30T14:20:42.000Z</time>
      </trkpt>
      <trkpt lat="43.99009" lon="2.9808">
        <ele>563.9</ele>
        <time>2026-04-30T14:20:43.000Z</time>
      </trkpt>
      <trkpt lat="43.99008" lon="2.9808">
        <ele>563.7</ele>
        <time>2026-04-30T14:20:44.000Z</time>
      </trkpt>
      <trkpt lat="43.99007" lon="2.9808">
        <ele>563.6</ele>
        <time>2026-04-30T14:20:45.000Z</time>
      </trkpt>
      <trkpt lat="43.99007" lon="2.9808">
        <ele>563.4</ele>
        <time>2026-04-30T14:20:46.000Z</time>
      </trkpt>
      <trkpt lat="43.99006" lon="2.9808">
        <ele>563.4</ele>
        <time>2026-04-30T14:20:47.000Z</time>
      </trkpt>
      <trkpt lat="43.99005" lon="2.98081">
        <ele>563.2</ele>
        <time>2026-04-30T14:20:48.000Z</time>
      </trkpt>
      <trkpt lat="43.99005" lon="2.98081">
        <ele>563.1</ele>
        <time>2026-04-30T14:20:49.000Z</time>
      </trkpt>
      <trkpt lat="43.99004" lon="2.98082">
        <ele>562.9</ele>
        <time>2026-04-30T14:20:50.000Z</time>
      </trkpt>
      <trkpt lat="43.99003" lon="2.98082">
        <ele>562.9</ele>
        <time>2026-04-30T14:20:51.000Z</time>
      </trkpt>
      <trkpt lat="43.99002" lon="2.98082">
        <ele>562.7</ele>
        <time>2026-04-30T14:20:52.000Z</time>
      </trkpt>
      <trkpt lat="43.99001" lon="2.98082">
        <ele>562.4</ele>
        <time>2026-04-30T14:20:53.000Z</time>
      </trkpt>
      <trkpt lat="43.99" lon="2.98083">
        <ele>562</ele>
        <time>2026-04-30T14:20:54.000Z</time>
      </trkpt>
      <trkpt lat="43.98999" lon="2.98083">
        <ele>561.4</ele>
        <time>2026-04-30T14:20:55.000Z</time>
      </trkpt>
      <trkpt lat="43.98998" lon="2.98084">
        <ele>561.2</ele>
        <time>2026-04-30T14:20:56.000Z</time>
      </trkpt>
      <trkpt lat="43.98997" lon="2.98085">
        <ele>560.9</ele>
        <time>2026-04-30T14:20:57.000Z</time>
      </trkpt>
      <trkpt lat="43.98996" lon="2.98086">
        <ele>561</ele>
        <time>2026-04-30T14:20:58.000Z</time>
      </trkpt>
      <trkpt lat="43.98995" lon="2.98086">
        <ele>560.8</ele>
        <time>2026-04-30T14:20:59.000Z</time>
      </trkpt>
      <trkpt lat="43.98994" lon="2.98085">
        <ele>560.5</ele>
        <time>2026-04-30T14:21:00.000Z</time>
      </trkpt>
      <trkpt lat="43.98994" lon="2.98085">
        <ele>560.5</ele>
        <time>2026-04-30T14:21:01.000Z</time>
      </trkpt>
      <trkpt lat="43.98993" lon="2.98085">
        <ele>560.6</ele>
        <time>2026-04-30T14:21:02.000Z</time>
      </trkpt>
      <trkpt lat="43.98993" lon="2.98085">
        <ele>560.3</ele>
        <time>2026-04-30T14:21:03.000Z</time>
      </trkpt>
      <trkpt lat="43.98991" lon="2.98085">
        <ele>560.1</ele>
        <time>2026-04-30T14:21:04.000Z</time>
      </trkpt>
      <trkpt lat="43.9899" lon="2.98085">
        <ele>560</ele>
        <time>2026-04-30T14:21:05.000Z</time>
      </trkpt>
      <trkpt lat="43.98989" lon="2.98086">
        <ele>559.8</ele>
        <time>2026-04-30T14:21:06.000Z</time>
      </trkpt>
      <trkpt lat="43.98989" lon="2.98086">
        <ele>559.5</ele>
        <time>2026-04-30T14:21:07.000Z</time>
      </trkpt>
      <trkpt lat="43.98988" lon="2.98086">
        <ele>559.3</ele>
        <time>2026-04-30T14:21:08.000Z</time>
      </trkpt>
      <trkpt lat="43.98988" lon="2.98086">
        <ele>559.3</ele>
        <time>2026-04-30T14:21:09.000Z</time>
      </trkpt>
      <trkpt lat="43.98987" lon="2.98087">
        <ele>559.2</ele>
        <time>2026-04-30T14:21:10.000Z</time>
      </trkpt>
      <trkpt lat="43.98986" lon="2.98088">
        <ele>559.4</ele>
        <time>2026-04-30T14:21:11.000Z</time>
      </trkpt>
      <trkpt lat="43.98985" lon="2.98088">
        <ele>559.2</ele>
        <time>2026-04-30T14:21:12.000Z</time>
      </trkpt>
      <trkpt lat="43.98984" lon="2.98088">
        <ele>558.9</ele>
        <time>2026-04-30T14:21:13.000Z</time>
      </trkpt>
      <trkpt lat="43.98982" lon="2.98088">
        <ele>558.4</ele>
        <time>2026-04-30T14:21:14.000Z</time>
      </trkpt>
      <trkpt lat="43.98981" lon="2.98088">
        <ele>558</ele>
        <time>2026-04-30T14:21:15.000Z</time>
      </trkpt>
      <trkpt lat="43.9898" lon="2.98088">
        <ele>557.6</ele>
        <time>2026-04-30T14:21:16.000Z</time>
      </trkpt>
      <trkpt lat="43.98979" lon="2.98088">
        <ele>557.3</ele>
        <time>2026-04-30T14:21:17.000Z</time>
      </trkpt>
      <trkpt lat="43.98978" lon="2.98088">
        <ele>557.1</ele>
        <time>2026-04-30T14:21:18.000Z</time>
      </trkpt>
      <trkpt lat="43.98977" lon="2.98088">
        <ele>556.9</ele>
        <time>2026-04-30T14:21:19.000Z</time>
      </trkpt>
      <trkpt lat="43.98976" lon="2.98088">
        <ele>557.1</ele>
        <time>2026-04-30T14:21:20.000Z</time>
      </trkpt>
      <trkpt lat="43.98975" lon="2.98088">
        <ele>556.8</ele>
        <time>2026-04-30T14:21:21.000Z</time>
      </trkpt>
      <trkpt lat="43.98973" lon="2.98089">
        <ele>556.9</ele>
        <time>2026-04-30T14:21:22.000Z</time>
      </trkpt>
      <trkpt lat="43.98972" lon="2.98089">
        <ele>557.1</ele>
        <time>2026-04-30T14:21:23.000Z</time>
      </trkpt>
      <trkpt lat="43.9897" lon="2.98089">
        <ele>557.4</ele>
        <time>2026-04-30T14:21:24.000Z</time>
      </trkpt>
      <trkpt lat="43.98969" lon="2.98089">
        <ele>557.3</ele>
        <time>2026-04-30T14:21:25.000Z</time>
      </trkpt>
      <trkpt lat="43.98968" lon="2.98089">
        <ele>557.3</ele>
        <time>2026-04-30T14:21:26.000Z</time>
      </trkpt>
      <trkpt lat="43.98967" lon="2.98089">
        <ele>557</ele>
        <time>2026-04-30T14:21:27.000Z</time>
      </trkpt>
      <trkpt lat="43.98966" lon="2.98088">
        <ele>556.9</ele>
        <time>2026-04-30T14:21:28.000Z</time>
      </trkpt>
      <trkpt lat="43.98966" lon="2.98089">
        <ele>556.9</ele>
        <time>2026-04-30T14:21:29.000Z</time>
      </trkpt>
      <trkpt lat="43.98964" lon="2.98088">
        <ele>556.8</ele>
        <time>2026-04-30T14:21:30.000Z</time>
      </trkpt>
      <trkpt lat="43.98964" lon="2.98089">
        <ele>556.9</ele>
        <time>2026-04-30T14:21:31.000Z</time>
      </trkpt>
      <trkpt lat="43.98963" lon="2.98089">
        <ele>556.6</ele>
        <time>2026-04-30T14:21:32.000Z</time>
        <extensions>
          <visugpx:TrkExtension xmlns:visugpx="https://www.visugpx.com/editgpx/">
            <visugpx:node>1</visugpx:node>
            </visugpx:TrkExtension>
        </extensions>
      </trkpt>
      <trkpt lat="43.98963" lon="2.98088">
        <ele>507</ele>
      </trkpt>
      <trkpt lat="43.98943" lon="2.98091">
        <ele>503.6</ele>
      </trkpt>
      <trkpt lat="43.98905" lon="2.98092">
        <ele>496.8</ele>
      </trkpt>
      <trkpt lat="43.98898" lon="2.98094">
        <ele>495.8</ele>
      </trkpt>
      <trkpt lat="43.98857" lon="2.98119">
        <ele>491.3</ele>
      </trkpt>
      <trkpt lat="43.98817" lon="2.98135">
        <ele>487.3</ele>
      </trkpt>
      <trkpt lat="43.98807" lon="2.98141">
        <ele>486.4</ele>
      </trkpt>
      <trkpt lat="43.98792" lon="2.98155">
        <ele>484.7</ele>
      </trkpt>
      <trkpt lat="43.98766" lon="2.98173">
        <ele>480.7</ele>
      </trkpt>
      <trkpt lat="43.9875" lon="2.98189">
        <ele>477.8</ele>
      </trkpt>
      <trkpt lat="43.98736" lon="2.98209">
        <ele>475.3</ele>
      </trkpt>
      <trkpt lat="43.9873" lon="2.98213">
        <ele>474.2</ele>
      </trkpt>
      <trkpt lat="43.98679" lon="2.98227">
        <ele>463.1</ele>
      </trkpt>
      <trkpt lat="43.98645" lon="2.9825">
        <ele>458</ele>
      </trkpt>
      <trkpt lat="43.98631" lon="2.98262">
        <ele>455.5</ele>
      </trkpt>
      <trkpt lat="43.98623" lon="2.98272">
        <ele>453.8</ele>
      </trkpt>
      <trkpt lat="43.98616" lon="2.98286">
        <ele>451.9</ele>
      </trkpt>
      <trkpt lat="43.98609" lon="2.98308">
        <ele>450.9</ele>
      </trkpt>
      <trkpt lat="43.98602" lon="2.98317">
        <ele>450.7</ele>
      </trkpt>
      <trkpt lat="43.98594" lon="2.98315">
        <ele>449.1</ele>
      </trkpt>
      <trkpt lat="43.98582" lon="2.98319">
        <ele>447.1</ele>
      </trkpt>
      <trkpt lat="43.98561" lon="2.98327">
        <ele>443</ele>
      </trkpt>
      <trkpt lat="43.9855" lon="2.98336">
        <ele>441.8</ele>
      </trkpt>
      <trkpt lat="43.98525" lon="2.98376">
        <ele>436.5</ele>
      </trkpt>
      <trkpt lat="43.98518" lon="2.9839">
        <ele>436.7</ele>
      </trkpt>
      <trkpt lat="43.98509" lon="2.98394">
        <ele>436.6</ele>
      </trkpt>
      <trkpt lat="43.98502" lon="2.98398">
        <ele>436.4</ele>
      </trkpt>
      <trkpt lat="43.98492" lon="2.98406">
        <ele>438.1</ele>
      </trkpt>
      <trkpt lat="43.98486" lon="2.98409">
        <ele>439.2</ele>
      </trkpt>
      <trkpt lat="43.98481" lon="2.98429">
        <ele>440.4</ele>
      </trkpt>
      <trkpt lat="43.98472" lon="2.98444">
        <ele>442.1</ele>
      </trkpt>
      <trkpt lat="43.98466" lon="2.9845">
        <ele>444.5</ele>
      </trkpt>
      <trkpt lat="43.98459" lon="2.98467">
        <ele>445.8</ele>
      </trkpt>
      <trkpt lat="43.98452" lon="2.98466">
        <ele>447.9</ele>
      </trkpt>
      <trkpt lat="43.98449" lon="2.98461">
        <ele>449.5</ele>
      </trkpt>
      <trkpt lat="43.98445" lon="2.98458">
        <ele>451.4</ele>
      </trkpt>
      <trkpt lat="43.98437" lon="2.98458">
        <ele>452.8</ele>
      </trkpt>
      <trkpt lat="43.98423" lon="2.98465">
        <ele>453.6</ele>
      </trkpt>
      <trkpt lat="43.9838" lon="2.98465">
        <ele>457.1</ele>
      </trkpt>
      <trkpt lat="43.98363" lon="2.98471">
        <ele>455.4</ele>
      </trkpt>
      <trkpt lat="43.98344" lon="2.98481">
        <ele>457.8</ele>
      </trkpt>
      <trkpt lat="43.98334" lon="2.98489">
        <ele>458.6</ele>
      </trkpt>
      <trkpt lat="43.98333" lon="2.98491">
        <ele>458.4</ele>
        <extensions>
          <visugpx:TrkExtension xmlns:visugpx="https://www.visugpx.com/editgpx/">
            <visugpx:node>2</visugpx:node>
            </visugpx:TrkExtension>
        </extensions>
      </trkpt>
      <trkpt lat="43.98326" lon="2.98502">
        <ele>458</ele>
      </trkpt>
      <trkpt lat="43.98322" lon="2.98517">
        <ele>456.6</ele>
      </trkpt>
      <trkpt lat="43.98299" lon="2.98544">
        <ele>460.5</ele>
      </trkpt>
      <trkpt lat="43.98287" lon="2.98563">
        <ele>462.2</ele>
      </trkpt>
      <trkpt lat="43.9828" lon="2.98569">
        <ele>463.8</ele>
      </trkpt>
      <trkpt lat="43.98244" lon="2.98583">
        <ele>474.8</ele>
      </trkpt>
      <trkpt lat="43.98217" lon="2.98583">
        <ele>482.4</ele>
      </trkpt>
      <trkpt lat="43.98197" lon="2.98586">
        <ele>486.9</ele>
      </trkpt>
      <trkpt lat="43.98163" lon="2.98601">
        <ele>494.2</ele>
      </trkpt>
      <trkpt lat="43.98127" lon="2.98624">
        <ele>499.3</ele>
      </trkpt>
      <trkpt lat="43.98117" lon="2.98625">
        <ele>501.2</ele>
      </trkpt>
      <trkpt lat="43.981" lon="2.98643">
        <ele>500.5</ele>
      </trkpt>
      <trkpt lat="43.98091" lon="2.98648">
        <ele>501.1</ele>
      </trkpt>
      <trkpt lat="43.98056" lon="2.98655">
        <ele>506.4</ele>
      </trkpt>
      <trkpt lat="43.98033" lon="2.98663">
        <ele>510.6</ele>
      </trkpt>
      <trkpt lat="43.97993" lon="2.98692">
        <ele>516.1</ele>
      </trkpt>
      <trkpt lat="43.97984" lon="2.98696">
        <ele>517</ele>
      </trkpt>
      <trkpt lat="43.97959" lon="2.98699">
        <ele>520.4</ele>
      </trkpt>
      <trkpt lat="43.9794" lon="2.98708">
        <ele>521.8</ele>
      </trkpt>
      <trkpt lat="43.97932" lon="2.98715">
        <ele>522.9</ele>
      </trkpt>
      <trkpt lat="43.9791" lon="2.9874">
        <ele>525.7</ele>
      </trkpt>
      <trkpt lat="43.97881" lon="2.98777">
        <ele>529.7</ele>
      </trkpt>
      <trkpt lat="43.97868" lon="2.98795">
        <ele>531.8</ele>
      </trkpt>
      <trkpt lat="43.9786" lon="2.98812">
        <ele>533.3</ele>
      </trkpt>
      <trkpt lat="43.97856" lon="2.98825">
        <ele>534.6</ele>
        <extensions>
          <visugpx:TrkExtension xmlns:visugpx="https://www.visugpx.com/editgpx/">
            <visugpx:node>3</visugpx:node>
            </visugpx:TrkExtension>
        </extensions>
      </trkpt>
      <trkpt lat="43.97842" lon="2.9888">
        <ele>539.1</ele>
      </trkpt>
      <trkpt lat="43.97835" lon="2.98896">
        <ele>539.5</ele>
      </trkpt>
      <trkpt lat="43.97825" lon="2.98904">
        <ele>539.4</ele>
      </trkpt>
      <trkpt lat="43.97793" lon="2.98909">
        <ele>541</ele>
      </trkpt>
      <trkpt lat="43.97767" lon="2.98906">
        <ele>543.2</ele>
      </trkpt>
      <trkpt lat="43.97757" lon="2.98901">
        <ele>544.3</ele>
      </trkpt>
      <trkpt lat="43.97715" lon="2.98866">
        <ele>548.7</ele>
      </trkpt>
      <trkpt lat="43.97707" lon="2.98867">
        <ele>549.5</ele>
      </trkpt>
      <trkpt lat="43.97699" lon="2.98862">
        <ele>550.5</ele>
      </trkpt>
      <trkpt lat="43.97699" lon="2.98867">
        <ele>550.3</ele>
      </trkpt>
      <trkpt lat="43.97706" lon="2.98874">
        <ele>549.5</ele>
      </trkpt>
      <trkpt lat="43.97706" lon="2.98874">
        <ele>549.5</ele>
        <extensions>
          <visugpx:TrkExtension xmlns:visugpx="https://www.visugpx.com/editgpx/">
            <visugpx:node>4</visugpx:node>
            </visugpx:TrkExtension>
        </extensions>
      </trkpt>
      <trkpt lat="43.97706" lon="2.98874">
        <ele>549.5</ele>
      </trkpt>
      <trkpt lat="43.97699" lon="2.98867">
        <ele>550.3</ele>
      </trkpt>
      <trkpt lat="43.977" lon="2.9889">
        <ele>549.7</ele>
      </trkpt>
      <trkpt lat="43.97705" lon="2.98905">
        <ele>550.2</ele>
      </trkpt>
      <trkpt lat="43.97714" lon="2.98934">
        <ele>550.9</ele>
      </trkpt>
      <trkpt lat="43.97721" lon="2.98946">
        <ele>550.2</ele>
      </trkpt>
      <trkpt lat="43.97733" lon="2.98982">
        <ele>545.9</ele>
      </trkpt>
      <trkpt lat="43.97733" lon="2.98991">
        <ele>545.7</ele>
      </trkpt>
      <trkpt lat="43.97726" lon="2.99012">
        <ele>547</ele>
      </trkpt>
      <trkpt lat="43.97722" lon="2.99024">
        <ele>547.3</ele>
        <extensions>
          <visugpx:TrkExtension xmlns:visugpx="https://www.visugpx.com/editgpx/">
            <visugpx:node>5</visugpx:node>
            </visugpx:TrkExtension>
        </extensions>
      </trkpt>
    </trkseg>
  </trk>
</gpx>